<?xml version="1.0" encoding="UTF-8" standalone="no" ?>
<gpx xmlns="http://www.topografix.com/GPX/1/1" xmlns:xsi="http://www.w3.org/2001/XMLSchema-instance" xsi:schemaLocation="http://www.topografix.com/GPX/1/1 http://www.topografix.com/GPX/1/1/gpx.xsd" version="1.1" creator="VisuGPX - https://www.visugpx.com">
  <metadata>
    <name>Rando Hugo</name>
  </metadata>
  <trk>
    <name><![CDATA[Rando Hugo_1]]></name>
    <trkseg>
      <trkpt lat="47.3028" lon="-1.39164">
        <ele>113</ele>
        <time>2020-12-20T08:02:12.195000+00:00</time>
      </trkpt>
      <trkpt lat="0" lon="0">
        <time>2020-12-20T08:02:12.224000+00:00</time>
      </trkpt>
      <trkpt lat="0" lon="0">
        <time>2020-12-20T08:02:12.232000+00:00</time>
      </trkpt>
      <trkpt lat="0" lon="0">
        <time>2020-12-20T08:02:12.233000+00:00</time>
      </trkpt>
      <trkpt lat="47.30279" lon="-1.39163">
        <ele>113</ele>
        <time>2020-12-20T08:02:13.191000+00:00</time>
      </trkpt>
      <trkpt lat="0" lon="0">
        <time>2020-12-20T08:02:13.193000+00:00</time>
      </trkpt>
      <trkpt lat="0" lon="0">
        <time>2020-12-20T08:02:13.195000+00:00</time>
      </trkpt>
      <trkpt lat="0" lon="0">
        <time>2020-12-20T08:02:13.196000+00:00</time>
      </trkpt>
      <trkpt lat="47.30278" lon="-1.39163">
        <ele>113</ele>
        <time>2020-12-20T08:02:14.209000+00:00</time>
      </trkpt>
      <trkpt lat="0" lon="0">
        <time>2020-12-20T08:02:14.221000+00:00</time>
      </trkpt>
      <trkpt lat="0" lon="0">
        <time>2020-12-20T08:02:14.229000+00:00</time>
      </trkpt>
      <trkpt lat="0" lon="0">
        <time>2020-12-20T08:02:14.231000+00:00</time>
      </trkpt>
      <trkpt lat="47.30278" lon="-1.39163">
        <ele>113</ele>
        <time>2020-12-20T08:02:15.129000+00:00</time>
      </trkpt>
      <trkpt lat="0" lon="0">
        <time>2020-12-20T08:02:15.134000+00:00</time>
      </trkpt>
      <trkpt lat="0" lon="0">
        <time>2020-12-20T08:02:15.135000+00:00</time>
      </trkpt>
      <trkpt lat="0" lon="0">
        <time>2020-12-20T08:02:15.136000+00:00</time>
      </trkpt>
      <trkpt lat="47.30278" lon="-1.39163">
        <ele>113</ele>
        <time>2020-12-20T08:02:16.181000+00:00</time>
      </trkpt>
      <trkpt lat="0" lon="0">
        <time>2020-12-20T08:02:16.200000+00:00</time>
      </trkpt>
      <trkpt lat="0" lon="0">
        <time>2020-12-20T08:02:16.202000+00:00</time>
      </trkpt>
      <trkpt lat="0" lon="0">
        <time>2020-12-20T08:02:16.204000+00:00</time>
      </trkpt>
      <trkpt lat="47.30278" lon="-1.39163">
        <ele>113</ele>
        <time>2020-12-20T08:02:17.161000+00:00</time>
      </trkpt>
      <trkpt lat="0" lon="0">
        <time>2020-12-20T08:02:17.163000+00:00</time>
      </trkpt>
      <trkpt lat="0" lon="0">
        <time>2020-12-20T08:02:17.165000+00:00</time>
      </trkpt>
      <trkpt lat="0" lon="0">
        <time>2020-12-20T08:02:17.166000+00:00</time>
      </trkpt>
      <trkpt lat="47.30278" lon="-1.39163">
        <ele>113</ele>
        <time>2020-12-20T08:02:18.180000+00:00</time>
      </trkpt>
      <trkpt lat="0" lon="0">
        <time>2020-12-20T08:02:18.195000+00:00</time>
      </trkpt>
      <trkpt lat="0" lon="0">
        <time>2020-12-20T08:02:18.198000+00:00</time>
      </trkpt>
      <trkpt lat="0" lon="0">
        <time>2020-12-20T08:02:18.201000+00:00</time>
      </trkpt>
      <trkpt lat="47.30278" lon="-1.39162">
        <ele>112</ele>
        <time>2020-12-20T08:02:19.189000+00:00</time>
      </trkpt>
      <trkpt lat="0" lon="0">
        <time>2020-12-20T08:02:19.192000+00:00</time>
      </trkpt>
      <trkpt lat="0" lon="0">
        <time>2020-12-20T08:02:19.193000+00:00</time>
      </trkpt>
      <trkpt lat="0" lon="0">
        <time>2020-12-20T08:02:19.203000+00:00</time>
      </trkpt>
      <trkpt lat="47.30298" lon="-1.39144">
        <ele>122</ele>
        <time>2020-12-20T08:02:20.135000+00:00</time>
      </trkpt>
      <trkpt lat="0" lon="0">
        <time>2020-12-20T08:02:20.139000+00:00</time>
      </trkpt>
      <trkpt lat="0" lon="0">
        <time>2020-12-20T08:02:20.145000+00:00</time>
      </trkpt>
      <trkpt lat="0" lon="0">
        <time>2020-12-20T08:02:20.146000+00:00</time>
      </trkpt>
      <trkpt lat="47.303" lon="-1.39139">
        <ele>122</ele>
        <time>2020-12-20T08:02:21.183000+00:00</time>
      </trkpt>
      <trkpt lat="0" lon="0">
        <time>2020-12-20T08:02:21.206000+00:00</time>
      </trkpt>
      <trkpt lat="0" lon="0">
        <time>2020-12-20T08:02:21.208000+00:00</time>
      </trkpt>
      <trkpt lat="0" lon="0">
        <time>2020-12-20T08:02:21.209000+00:00</time>
      </trkpt>
      <trkpt lat="47.30301" lon="-1.39134">
        <ele>122</ele>
        <time>2020-12-20T08:02:22.208000+00:00</time>
      </trkpt>
      <trkpt lat="0" lon="0">
        <time>2020-12-20T08:02:22.236000+00:00</time>
      </trkpt>
      <trkpt lat="0" lon="0">
        <time>2020-12-20T08:02:22.240000+00:00</time>
      </trkpt>
      <trkpt lat="0" lon="0">
        <time>2020-12-20T08:02:22.242000+00:00</time>
      </trkpt>
      <trkpt lat="47.30303" lon="-1.39128">
        <ele>123</ele>
        <time>2020-12-20T08:02:23.184000+00:00</time>
      </trkpt>
      <trkpt lat="0" lon="0">
        <time>2020-12-20T08:02:23.200000+00:00</time>
      </trkpt>
      <trkpt lat="0" lon="0">
        <time>2020-12-20T08:02:23.204000+00:00</time>
      </trkpt>
      <trkpt lat="0" lon="0">
        <time>2020-12-20T08:02:23.208000+00:00</time>
      </trkpt>
      <trkpt lat="47.30305" lon="-1.39122">
        <ele>123</ele>
        <time>2020-12-20T08:02:24.242000+00:00</time>
      </trkpt>
      <trkpt lat="0" lon="0">
        <time>2020-12-20T08:02:24.258000+00:00</time>
      </trkpt>
      <trkpt lat="0" lon="0">
        <time>2020-12-20T08:02:24.260000+00:00</time>
      </trkpt>
      <trkpt lat="0" lon="0">
        <time>2020-12-20T08:02:24.261000+00:00</time>
      </trkpt>
      <trkpt lat="47.30306" lon="-1.39116">
        <ele>122</ele>
        <time>2020-12-20T08:02:25.152000+00:00</time>
      </trkpt>
      <trkpt lat="0" lon="0">
        <time>2020-12-20T08:02:25.162000+00:00</time>
      </trkpt>
      <trkpt lat="0" lon="0">
        <time>2020-12-20T08:02:25.164000+00:00</time>
      </trkpt>
      <trkpt lat="0" lon="0">
        <time>2020-12-20T08:02:25.165000+00:00</time>
      </trkpt>
      <trkpt lat="47.30308" lon="-1.3911">
        <ele>122</ele>
        <time>2020-12-20T08:02:26.198000+00:00</time>
      </trkpt>
      <trkpt lat="0" lon="0">
        <time>2020-12-20T08:02:26.207000+00:00</time>
      </trkpt>
      <trkpt lat="0" lon="0">
        <time>2020-12-20T08:02:26.215000+00:00</time>
      </trkpt>
      <trkpt lat="0" lon="0">
        <time>2020-12-20T08:02:26.216000+00:00</time>
      </trkpt>
      <trkpt lat="47.3031" lon="-1.39103">
        <ele>122</ele>
        <time>2020-12-20T08:02:27.213000+00:00</time>
      </trkpt>
      <trkpt lat="0" lon="0">
        <time>2020-12-20T08:02:27.229000+00:00</time>
      </trkpt>
      <trkpt lat="0" lon="0">
        <time>2020-12-20T08:02:27.238000+00:00</time>
      </trkpt>
      <trkpt lat="0" lon="0">
        <time>2020-12-20T08:02:27.241000+00:00</time>
      </trkpt>
      <trkpt lat="47.30312" lon="-1.39097">
        <ele>123</ele>
        <time>2020-12-20T08:02:28.196000+00:00</time>
      </trkpt>
      <trkpt lat="0" lon="0">
        <time>2020-12-20T08:02:28.212000+00:00</time>
      </trkpt>
      <trkpt lat="0" lon="0">
        <time>2020-12-20T08:02:28.214000+00:00</time>
      </trkpt>
      <trkpt lat="0" lon="0">
        <time>2020-12-20T08:02:28.216000+00:00</time>
      </trkpt>
      <trkpt lat="47.30313" lon="-1.39091">
        <ele>123</ele>
        <time>2020-12-20T08:02:29.210000+00:00</time>
      </trkpt>
      <trkpt lat="0" lon="0">
        <time>2020-12-20T08:02:29.227000+00:00</time>
      </trkpt>
      <trkpt lat="0" lon="0">
        <time>2020-12-20T08:02:29.241000+00:00</time>
      </trkpt>
      <trkpt lat="0" lon="0">
        <time>2020-12-20T08:02:29.243000+00:00</time>
      </trkpt>
      <trkpt lat="47.30315" lon="-1.39084">
        <ele>123</ele>
        <time>2020-12-20T08:02:30.174000+00:00</time>
      </trkpt>
      <trkpt lat="0" lon="0">
        <time>2020-12-20T08:02:30.182000+00:00</time>
      </trkpt>
      <trkpt lat="0" lon="0">
        <time>2020-12-20T08:02:30.184000+00:00</time>
      </trkpt>
      <trkpt lat="0" lon="0">
        <time>2020-12-20T08:02:30.185000+00:00</time>
      </trkpt>
      <trkpt lat="47.30317" lon="-1.39077">
        <ele>122</ele>
        <time>2020-12-20T08:02:31.168000+00:00</time>
      </trkpt>
      <trkpt lat="0" lon="0">
        <time>2020-12-20T08:02:31.175000+00:00</time>
      </trkpt>
      <trkpt lat="0" lon="0">
        <time>2020-12-20T08:02:31.182000+00:00</time>
      </trkpt>
      <trkpt lat="0" lon="0">
        <time>2020-12-20T08:02:31.184000+00:00</time>
      </trkpt>
      <trkpt lat="47.3032" lon="-1.39071">
        <ele>122</ele>
        <time>2020-12-20T08:02:32.182000+00:00</time>
      </trkpt>
      <trkpt lat="0" lon="0">
        <time>2020-12-20T08:02:32.189000+00:00</time>
      </trkpt>
      <trkpt lat="0" lon="0">
        <time>2020-12-20T08:02:32.194000+00:00</time>
      </trkpt>
      <trkpt lat="0" lon="0">
        <time>2020-12-20T08:02:32.196000+00:00</time>
      </trkpt>
      <trkpt lat="47.30322" lon="-1.39064">
        <ele>123</ele>
        <time>2020-12-20T08:02:33.211000+00:00</time>
      </trkpt>
      <trkpt lat="0" lon="0">
        <time>2020-12-20T08:02:33.222000+00:00</time>
      </trkpt>
      <trkpt lat="0" lon="0">
        <time>2020-12-20T08:02:33.226000+00:00</time>
      </trkpt>
      <trkpt lat="0" lon="0">
        <time>2020-12-20T08:02:33.233000+00:00</time>
      </trkpt>
      <trkpt lat="47.30324" lon="-1.39058">
        <ele>123</ele>
        <time>2020-12-20T08:02:34.199000+00:00</time>
      </trkpt>
      <trkpt lat="0" lon="0">
        <time>2020-12-20T08:02:34.211000+00:00</time>
      </trkpt>
      <trkpt lat="0" lon="0">
        <time>2020-12-20T08:02:34.215000+00:00</time>
      </trkpt>
      <trkpt lat="0" lon="0">
        <time>2020-12-20T08:02:34.218000+00:00</time>
      </trkpt>
      <trkpt lat="47.30326" lon="-1.39051">
        <ele>124</ele>
        <time>2020-12-20T08:02:35.196000+00:00</time>
      </trkpt>
      <trkpt lat="0" lon="0">
        <time>2020-12-20T08:02:35.199000+00:00</time>
      </trkpt>
      <trkpt lat="0" lon="0">
        <time>2020-12-20T08:02:35.202000+00:00</time>
      </trkpt>
      <trkpt lat="0" lon="0">
        <time>2020-12-20T08:02:35.205000+00:00</time>
      </trkpt>
      <trkpt lat="47.30329" lon="-1.39045">
        <ele>124</ele>
        <time>2020-12-20T08:02:36.106000+00:00</time>
      </trkpt>
      <trkpt lat="0" lon="0">
        <time>2020-12-20T08:02:36.107000+00:00</time>
      </trkpt>
      <trkpt lat="0" lon="0">
        <time>2020-12-20T08:02:36.108000+00:00</time>
      </trkpt>
      <trkpt lat="0" lon="0">
        <time>2020-12-20T08:02:36.109000+00:00</time>
      </trkpt>
      <trkpt lat="47.30332" lon="-1.3904">
        <ele>124</ele>
        <time>2020-12-20T08:02:37.094000+00:00</time>
      </trkpt>
      <trkpt lat="0" lon="0">
        <time>2020-12-20T08:02:37.095000+00:00</time>
      </trkpt>
      <trkpt lat="0" lon="0">
        <time>2020-12-20T08:02:37.098000+00:00</time>
      </trkpt>
      <trkpt lat="0" lon="0">
        <time>2020-12-20T08:02:37.099000+00:00</time>
      </trkpt>
      <trkpt lat="47.30335" lon="-1.39034">
        <ele>124</ele>
        <time>2020-12-20T08:02:38.116000+00:00</time>
      </trkpt>
      <trkpt lat="0" lon="0">
        <time>2020-12-20T08:02:38.122000+00:00</time>
      </trkpt>
      <trkpt lat="0" lon="0">
        <time>2020-12-20T08:02:38.127000+00:00</time>
      </trkpt>
      <trkpt lat="0" lon="0">
        <time>2020-12-20T08:02:38.131000+00:00</time>
      </trkpt>
      <trkpt lat="47.30338" lon="-1.39029">
        <ele>124</ele>
        <time>2020-12-20T08:02:39.124000+00:00</time>
      </trkpt>
      <trkpt lat="0" lon="0">
        <time>2020-12-20T08:02:39.127000+00:00</time>
      </trkpt>
      <trkpt lat="0" lon="0">
        <time>2020-12-20T08:02:39.132000+00:00</time>
      </trkpt>
      <trkpt lat="0" lon="0">
        <time>2020-12-20T08:02:39.133000+00:00</time>
      </trkpt>
      <trkpt lat="47.30341" lon="-1.39024">
        <ele>124</ele>
        <time>2020-12-20T08:02:40.171000+00:00</time>
      </trkpt>
      <trkpt lat="0" lon="0">
        <time>2020-12-20T08:02:40.185000+00:00</time>
      </trkpt>
      <trkpt lat="0" lon="0">
        <time>2020-12-20T08:02:40.186000+00:00</time>
      </trkpt>
      <trkpt lat="47.30344" lon="-1.39019">
        <ele>124</ele>
        <time>2020-12-20T08:02:41.150000+00:00</time>
      </trkpt>
      <trkpt lat="0" lon="0">
        <time>2020-12-20T08:02:41.158000+00:00</time>
      </trkpt>
      <trkpt lat="0" lon="0">
        <time>2020-12-20T08:02:41.160000+00:00</time>
      </trkpt>
      <trkpt lat="0" lon="0">
        <time>2020-12-20T08:02:41.161000+00:00</time>
      </trkpt>
      <trkpt lat="47.30348" lon="-1.39014">
        <ele>124</ele>
        <time>2020-12-20T08:02:42.176000+00:00</time>
      </trkpt>
      <trkpt lat="0" lon="0">
        <time>2020-12-20T08:02:42.179000+00:00</time>
      </trkpt>
      <trkpt lat="0" lon="0">
        <time>2020-12-20T08:02:42.185000+00:00</time>
      </trkpt>
      <trkpt lat="0" lon="0">
        <time>2020-12-20T08:02:42.187000+00:00</time>
      </trkpt>
      <trkpt lat="47.30351" lon="-1.39009">
        <ele>124</ele>
        <time>2020-12-20T08:02:43.139000+00:00</time>
      </trkpt>
      <trkpt lat="0" lon="0">
        <time>2020-12-20T08:02:43.144000+00:00</time>
      </trkpt>
      <trkpt lat="0" lon="0">
        <time>2020-12-20T08:02:43.146000+00:00</time>
      </trkpt>
      <trkpt lat="0" lon="0">
        <time>2020-12-20T08:02:43.147000+00:00</time>
      </trkpt>
      <trkpt lat="47.30354" lon="-1.39005">
        <ele>124</ele>
        <time>2020-12-20T08:02:44.237000+00:00</time>
      </trkpt>
      <trkpt lat="0" lon="0">
        <time>2020-12-20T08:02:44.242000+00:00</time>
      </trkpt>
      <trkpt lat="0" lon="0">
        <time>2020-12-20T08:02:44.251000+00:00</time>
      </trkpt>
      <trkpt lat="0" lon="0">
        <time>2020-12-20T08:02:44.253000+00:00</time>
      </trkpt>
      <trkpt lat="47.30358" lon="-1.39001">
        <ele>125</ele>
        <time>2020-12-20T08:02:45.213000+00:00</time>
      </trkpt>
      <trkpt lat="0" lon="0">
        <time>2020-12-20T08:02:45.219000+00:00</time>
      </trkpt>
      <trkpt lat="0" lon="0">
        <time>2020-12-20T08:02:45.224000+00:00</time>
      </trkpt>
      <trkpt lat="0" lon="0">
        <time>2020-12-20T08:02:45.226000+00:00</time>
      </trkpt>
      <trkpt lat="47.30361" lon="-1.38998">
        <ele>126</ele>
        <time>2020-12-20T08:02:46.179000+00:00</time>
      </trkpt>
      <trkpt lat="0" lon="0">
        <time>2020-12-20T08:02:46.188000+00:00</time>
      </trkpt>
      <trkpt lat="0" lon="0">
        <time>2020-12-20T08:02:46.193000+00:00</time>
      </trkpt>
      <trkpt lat="0" lon="0">
        <time>2020-12-20T08:02:46.197000+00:00</time>
      </trkpt>
      <trkpt lat="47.30364" lon="-1.38994">
        <ele>127</ele>
        <time>2020-12-20T08:02:47.189000+00:00</time>
      </trkpt>
      <trkpt lat="0" lon="0">
        <time>2020-12-20T08:02:47.198000+00:00</time>
      </trkpt>
      <trkpt lat="0" lon="0">
        <time>2020-12-20T08:02:47.205000+00:00</time>
      </trkpt>
      <trkpt lat="0" lon="0">
        <time>2020-12-20T08:02:47.208000+00:00</time>
      </trkpt>
      <trkpt lat="47.30367" lon="-1.38991">
        <ele>129</ele>
        <time>2020-12-20T08:02:48.185000+00:00</time>
      </trkpt>
      <trkpt lat="0" lon="0">
        <time>2020-12-20T08:02:48.197000+00:00</time>
      </trkpt>
      <trkpt lat="0" lon="0">
        <time>2020-12-20T08:02:48.201000+00:00</time>
      </trkpt>
      <trkpt lat="0" lon="0">
        <time>2020-12-20T08:02:48.205000+00:00</time>
      </trkpt>
      <trkpt lat="47.3037" lon="-1.38987">
        <ele>129</ele>
        <time>2020-12-20T08:02:49.167000+00:00</time>
      </trkpt>
      <trkpt lat="0" lon="0">
        <time>2020-12-20T08:02:49.173000+00:00</time>
      </trkpt>
      <trkpt lat="0" lon="0">
        <time>2020-12-20T08:02:49.183000+00:00</time>
      </trkpt>
      <trkpt lat="0" lon="0">
        <time>2020-12-20T08:02:49.187000+00:00</time>
      </trkpt>
      <trkpt lat="47.30374" lon="-1.38983">
        <ele>130</ele>
        <time>2020-12-20T08:02:50.214000+00:00</time>
      </trkpt>
      <trkpt lat="0" lon="0">
        <time>2020-12-20T08:02:50.238000+00:00</time>
      </trkpt>
      <trkpt lat="0" lon="0">
        <time>2020-12-20T08:02:50.247000+00:00</time>
      </trkpt>
      <trkpt lat="0" lon="0">
        <time>2020-12-20T08:02:50.251000+00:00</time>
      </trkpt>
      <trkpt lat="47.30377" lon="-1.38978">
        <ele>130</ele>
        <time>2020-12-20T08:02:51.158000+00:00</time>
      </trkpt>
      <trkpt lat="0" lon="0">
        <time>2020-12-20T08:02:51.168000+00:00</time>
      </trkpt>
      <trkpt lat="0" lon="0">
        <time>2020-12-20T08:02:51.172000+00:00</time>
      </trkpt>
      <trkpt lat="0" lon="0">
        <time>2020-12-20T08:02:51.175000+00:00</time>
      </trkpt>
      <trkpt lat="47.3038" lon="-1.38974">
        <ele>131</ele>
        <time>2020-12-20T08:02:52.155000+00:00</time>
      </trkpt>
      <trkpt lat="0" lon="0">
        <time>2020-12-20T08:02:52.159000+00:00</time>
      </trkpt>
      <trkpt lat="0" lon="0">
        <time>2020-12-20T08:02:52.164000+00:00</time>
      </trkpt>
      <trkpt lat="0" lon="0">
        <time>2020-12-20T08:02:52.166000+00:00</time>
      </trkpt>
      <trkpt lat="47.30384" lon="-1.3897">
        <ele>131</ele>
        <time>2020-12-20T08:02:53.180000+00:00</time>
      </trkpt>
      <trkpt lat="0" lon="0">
        <time>2020-12-20T08:02:53.192000+00:00</time>
      </trkpt>
      <trkpt lat="0" lon="0">
        <time>2020-12-20T08:02:53.196000+00:00</time>
      </trkpt>
      <trkpt lat="0" lon="0">
        <time>2020-12-20T08:02:53.199000+00:00</time>
      </trkpt>
      <trkpt lat="47.30387" lon="-1.38965">
        <ele>131</ele>
        <time>2020-12-20T08:02:54.239000+00:00</time>
      </trkpt>
      <trkpt lat="0" lon="0">
        <time>2020-12-20T08:02:54.247000+00:00</time>
      </trkpt>
      <trkpt lat="0" lon="0">
        <time>2020-12-20T08:02:54.252000+00:00</time>
      </trkpt>
      <trkpt lat="0" lon="0">
        <time>2020-12-20T08:02:54.255000+00:00</time>
      </trkpt>
      <trkpt lat="47.30391" lon="-1.3896">
        <ele>131</ele>
        <time>2020-12-20T08:02:55.180000+00:00</time>
      </trkpt>
      <trkpt lat="0" lon="0">
        <time>2020-12-20T08:02:55.185000+00:00</time>
      </trkpt>
      <trkpt lat="0" lon="0">
        <time>2020-12-20T08:02:55.193000+00:00</time>
      </trkpt>
      <trkpt lat="0" lon="0">
        <time>2020-12-20T08:02:55.196000+00:00</time>
      </trkpt>
      <trkpt lat="47.30394" lon="-1.38955">
        <ele>130</ele>
        <time>2020-12-20T08:02:56.194000+00:00</time>
      </trkpt>
      <trkpt lat="0" lon="0">
        <time>2020-12-20T08:02:56.203000+00:00</time>
      </trkpt>
      <trkpt lat="0" lon="0">
        <time>2020-12-20T08:02:56.212000+00:00</time>
      </trkpt>
      <trkpt lat="0" lon="0">
        <time>2020-12-20T08:02:56.214000+00:00</time>
      </trkpt>
      <trkpt lat="47.30397" lon="-1.3895">
        <ele>130</ele>
        <time>2020-12-20T08:02:57.204000+00:00</time>
      </trkpt>
      <trkpt lat="0" lon="0">
        <time>2020-12-20T08:02:57.209000+00:00</time>
      </trkpt>
      <trkpt lat="0" lon="0">
        <time>2020-12-20T08:02:57.220000+00:00</time>
      </trkpt>
      <trkpt lat="0" lon="0">
        <time>2020-12-20T08:02:57.223000+00:00</time>
      </trkpt>
      <trkpt lat="47.30401" lon="-1.38945">
        <ele>130</ele>
        <time>2020-12-20T08:02:58.173000+00:00</time>
      </trkpt>
      <trkpt lat="0" lon="0">
        <time>2020-12-20T08:02:58.175000+00:00</time>
      </trkpt>
      <trkpt lat="0" lon="0">
        <time>2020-12-20T08:02:58.180000+00:00</time>
      </trkpt>
      <trkpt lat="0" lon="0">
        <time>2020-12-20T08:02:58.181000+00:00</time>
      </trkpt>
      <trkpt lat="47.30404" lon="-1.3894">
        <ele>130</ele>
        <time>2020-12-20T08:02:59.191000+00:00</time>
      </trkpt>
      <trkpt lat="0" lon="0">
        <time>2020-12-20T08:02:59.196000+00:00</time>
      </trkpt>
      <trkpt lat="0" lon="0">
        <time>2020-12-20T08:02:59.200000+00:00</time>
      </trkpt>
      <trkpt lat="0" lon="0">
        <time>2020-12-20T08:02:59.203000+00:00</time>
      </trkpt>
      <trkpt lat="47.30407" lon="-1.38934">
        <ele>130</ele>
        <time>2020-12-20T08:03:00.194000+00:00</time>
      </trkpt>
      <trkpt lat="0" lon="0">
        <time>2020-12-20T08:03:00.213000+00:00</time>
      </trkpt>
      <trkpt lat="0" lon="0">
        <time>2020-12-20T08:03:00.220000+00:00</time>
      </trkpt>
      <trkpt lat="0" lon="0">
        <time>2020-12-20T08:03:00.224000+00:00</time>
      </trkpt>
      <trkpt lat="47.30411" lon="-1.38928">
        <ele>130</ele>
        <time>2020-12-20T08:03:01.200000+00:00</time>
      </trkpt>
      <trkpt lat="0" lon="0">
        <time>2020-12-20T08:03:01.213000+00:00</time>
      </trkpt>
      <trkpt lat="0" lon="0">
        <time>2020-12-20T08:03:01.221000+00:00</time>
      </trkpt>
      <trkpt lat="0" lon="0">
        <time>2020-12-20T08:03:01.228000+00:00</time>
      </trkpt>
      <trkpt lat="47.30414" lon="-1.38922">
        <ele>130</ele>
        <time>2020-12-20T08:03:02.163000+00:00</time>
      </trkpt>
      <trkpt lat="0" lon="0">
        <time>2020-12-20T08:03:02.169000+00:00</time>
      </trkpt>
      <trkpt lat="0" lon="0">
        <time>2020-12-20T08:03:02.173000+00:00</time>
      </trkpt>
      <trkpt lat="0" lon="0">
        <time>2020-12-20T08:03:02.176000+00:00</time>
      </trkpt>
      <trkpt lat="47.30417" lon="-1.38916">
        <ele>130</ele>
        <time>2020-12-20T08:03:03.115000+00:00</time>
      </trkpt>
      <trkpt lat="0" lon="0">
        <time>2020-12-20T08:03:03.118000+00:00</time>
      </trkpt>
      <trkpt lat="0" lon="0">
        <time>2020-12-20T08:03:03.121000+00:00</time>
      </trkpt>
      <trkpt lat="0" lon="0">
        <time>2020-12-20T08:03:03.122000+00:00</time>
      </trkpt>
      <trkpt lat="47.30421" lon="-1.3891">
        <ele>131</ele>
        <time>2020-12-20T08:03:04.119000+00:00</time>
      </trkpt>
      <trkpt lat="0" lon="0">
        <time>2020-12-20T08:03:04.122000+00:00</time>
      </trkpt>
      <trkpt lat="0" lon="0">
        <time>2020-12-20T08:03:04.127000+00:00</time>
      </trkpt>
      <trkpt lat="0" lon="0">
        <time>2020-12-20T08:03:04.132000+00:00</time>
      </trkpt>
      <trkpt lat="47.30424" lon="-1.38905">
        <ele>131</ele>
        <time>2020-12-20T08:03:05.129000+00:00</time>
      </trkpt>
      <trkpt lat="0" lon="0">
        <time>2020-12-20T08:03:05.131000+00:00</time>
      </trkpt>
      <trkpt lat="0" lon="0">
        <time>2020-12-20T08:03:05.133000+00:00</time>
      </trkpt>
      <trkpt lat="0" lon="0">
        <time>2020-12-20T08:03:05.134000+00:00</time>
      </trkpt>
      <trkpt lat="47.30427" lon="-1.389">
        <ele>131</ele>
        <time>2020-12-20T08:03:06.092000+00:00</time>
      </trkpt>
      <trkpt lat="0" lon="0">
        <time>2020-12-20T08:03:06.094000+00:00</time>
      </trkpt>
      <trkpt lat="0" lon="0">
        <time>2020-12-20T08:03:06.097000+00:00</time>
      </trkpt>
      <trkpt lat="47.3043" lon="-1.38895">
        <ele>131</ele>
        <time>2020-12-20T08:03:07.098000+00:00</time>
      </trkpt>
      <trkpt lat="0" lon="0">
        <time>2020-12-20T08:03:07.100000+00:00</time>
      </trkpt>
      <trkpt lat="0" lon="0">
        <time>2020-12-20T08:03:07.101000+00:00</time>
      </trkpt>
      <trkpt lat="0" lon="0">
        <time>2020-12-20T08:03:07.104000+00:00</time>
      </trkpt>
      <trkpt lat="47.30433" lon="-1.3889">
        <ele>131</ele>
        <time>2020-12-20T08:03:08.134000+00:00</time>
      </trkpt>
      <trkpt lat="0" lon="0">
        <time>2020-12-20T08:03:08.142000+00:00</time>
      </trkpt>
      <trkpt lat="0" lon="0">
        <time>2020-12-20T08:03:08.144000+00:00</time>
      </trkpt>
      <trkpt lat="0" lon="0">
        <time>2020-12-20T08:03:08.146000+00:00</time>
      </trkpt>
      <trkpt lat="47.30436" lon="-1.38886">
        <ele>131</ele>
        <time>2020-12-20T08:03:09.181000+00:00</time>
      </trkpt>
      <trkpt lat="0" lon="0">
        <time>2020-12-20T08:03:09.185000+00:00</time>
      </trkpt>
      <trkpt lat="0" lon="0">
        <time>2020-12-20T08:03:09.188000+00:00</time>
      </trkpt>
      <trkpt lat="0" lon="0">
        <time>2020-12-20T08:03:09.189000+00:00</time>
      </trkpt>
      <trkpt lat="47.3044" lon="-1.38881">
        <ele>131</ele>
        <time>2020-12-20T08:03:10.140000+00:00</time>
      </trkpt>
      <trkpt lat="0" lon="0">
        <time>2020-12-20T08:03:10.147000+00:00</time>
      </trkpt>
      <trkpt lat="0" lon="0">
        <time>2020-12-20T08:03:10.151000+00:00</time>
      </trkpt>
      <trkpt lat="0" lon="0">
        <time>2020-12-20T08:03:10.153000+00:00</time>
      </trkpt>
      <trkpt lat="47.30443" lon="-1.38877">
        <ele>131</ele>
        <time>2020-12-20T08:03:11.161000+00:00</time>
      </trkpt>
      <trkpt lat="0" lon="0">
        <time>2020-12-20T08:03:11.165000+00:00</time>
      </trkpt>
      <trkpt lat="0" lon="0">
        <time>2020-12-20T08:03:11.170000+00:00</time>
      </trkpt>
      <trkpt lat="0" lon="0">
        <time>2020-12-20T08:03:11.171000+00:00</time>
      </trkpt>
      <trkpt lat="47.30446" lon="-1.38873">
        <ele>131</ele>
        <time>2020-12-20T08:03:12.168000+00:00</time>
      </trkpt>
      <trkpt lat="0" lon="0">
        <time>2020-12-20T08:03:12.170000+00:00</time>
      </trkpt>
      <trkpt lat="0" lon="0">
        <time>2020-12-20T08:03:12.172000+00:00</time>
      </trkpt>
      <trkpt lat="0" lon="0">
        <time>2020-12-20T08:03:12.174000+00:00</time>
      </trkpt>
      <trkpt lat="47.30449" lon="-1.38869">
        <ele>131</ele>
        <time>2020-12-20T08:03:13.195000+00:00</time>
      </trkpt>
      <trkpt lat="0" lon="0">
        <time>2020-12-20T08:03:13.200000+00:00</time>
      </trkpt>
      <trkpt lat="0" lon="0">
        <time>2020-12-20T08:03:13.207000+00:00</time>
      </trkpt>
      <trkpt lat="0" lon="0">
        <time>2020-12-20T08:03:13.211000+00:00</time>
      </trkpt>
      <trkpt lat="47.30452" lon="-1.38865">
        <ele>131</ele>
        <time>2020-12-20T08:03:14.158000+00:00</time>
      </trkpt>
      <trkpt lat="0" lon="0">
        <time>2020-12-20T08:03:14.164000+00:00</time>
      </trkpt>
      <trkpt lat="0" lon="0">
        <time>2020-12-20T08:03:14.174000+00:00</time>
      </trkpt>
      <trkpt lat="0" lon="0">
        <time>2020-12-20T08:03:14.178000+00:00</time>
      </trkpt>
      <trkpt lat="47.30456" lon="-1.38862">
        <ele>131</ele>
        <time>2020-12-20T08:03:15.172000+00:00</time>
      </trkpt>
      <trkpt lat="0" lon="0">
        <time>2020-12-20T08:03:15.180000+00:00</time>
      </trkpt>
      <trkpt lat="0" lon="0">
        <time>2020-12-20T08:03:15.182000+00:00</time>
      </trkpt>
      <trkpt lat="47.30459" lon="-1.38859">
        <ele>131</ele>
        <time>2020-12-20T08:03:16.162000+00:00</time>
      </trkpt>
      <trkpt lat="0" lon="0">
        <time>2020-12-20T08:03:16.171000+00:00</time>
      </trkpt>
      <trkpt lat="0" lon="0">
        <time>2020-12-20T08:03:16.181000+00:00</time>
      </trkpt>
      <trkpt lat="0" lon="0">
        <time>2020-12-20T08:03:16.184000+00:00</time>
      </trkpt>
      <trkpt lat="47.30462" lon="-1.38855">
        <ele>131</ele>
        <time>2020-12-20T08:03:17.175000+00:00</time>
      </trkpt>
      <trkpt lat="0" lon="0">
        <time>2020-12-20T08:03:17.187000+00:00</time>
      </trkpt>
      <trkpt lat="0" lon="0">
        <time>2020-12-20T08:03:17.191000+00:00</time>
      </trkpt>
      <trkpt lat="0" lon="0">
        <time>2020-12-20T08:03:17.196000+00:00</time>
      </trkpt>
      <trkpt lat="47.30466" lon="-1.38853">
        <ele>131</ele>
        <time>2020-12-20T08:03:18.168000+00:00</time>
      </trkpt>
      <trkpt lat="0" lon="0">
        <time>2020-12-20T08:03:18.182000+00:00</time>
      </trkpt>
      <trkpt lat="0" lon="0">
        <time>2020-12-20T08:03:18.188000+00:00</time>
      </trkpt>
      <trkpt lat="0" lon="0">
        <time>2020-12-20T08:03:18.190000+00:00</time>
      </trkpt>
      <trkpt lat="47.3047" lon="-1.3885">
        <ele>131</ele>
        <time>2020-12-20T08:03:19.191000+00:00</time>
      </trkpt>
      <trkpt lat="0" lon="0">
        <time>2020-12-20T08:03:19.201000+00:00</time>
      </trkpt>
      <trkpt lat="0" lon="0">
        <time>2020-12-20T08:03:19.205000+00:00</time>
      </trkpt>
      <trkpt lat="0" lon="0">
        <time>2020-12-20T08:03:19.216000+00:00</time>
      </trkpt>
      <trkpt lat="47.30473" lon="-1.38848">
        <ele>131</ele>
        <time>2020-12-20T08:03:20.182000+00:00</time>
      </trkpt>
      <trkpt lat="0" lon="0">
        <time>2020-12-20T08:03:20.202000+00:00</time>
      </trkpt>
      <trkpt lat="0" lon="0">
        <time>2020-12-20T08:03:20.207000+00:00</time>
      </trkpt>
      <trkpt lat="0" lon="0">
        <time>2020-12-20T08:03:20.215000+00:00</time>
      </trkpt>
      <trkpt lat="47.30476" lon="-1.38845">
        <ele>131</ele>
        <time>2020-12-20T08:03:21.202000+00:00</time>
      </trkpt>
      <trkpt lat="0" lon="0">
        <time>2020-12-20T08:03:21.212000+00:00</time>
      </trkpt>
      <trkpt lat="0" lon="0">
        <time>2020-12-20T08:03:21.218000+00:00</time>
      </trkpt>
      <trkpt lat="0" lon="0">
        <time>2020-12-20T08:03:21.224000+00:00</time>
      </trkpt>
      <trkpt lat="47.30478" lon="-1.38842">
        <ele>131</ele>
        <time>2020-12-20T08:03:22.184000+00:00</time>
      </trkpt>
      <trkpt lat="0" lon="0">
        <time>2020-12-20T08:03:22.196000+00:00</time>
      </trkpt>
      <trkpt lat="0" lon="0">
        <time>2020-12-20T08:03:22.201000+00:00</time>
      </trkpt>
      <trkpt lat="0" lon="0">
        <time>2020-12-20T08:03:22.203000+00:00</time>
      </trkpt>
      <trkpt lat="47.3048" lon="-1.38839">
        <ele>131</ele>
        <time>2020-12-20T08:03:23.167000+00:00</time>
      </trkpt>
      <trkpt lat="0" lon="0">
        <time>2020-12-20T08:03:23.176000+00:00</time>
      </trkpt>
      <trkpt lat="0" lon="0">
        <time>2020-12-20T08:03:23.181000+00:00</time>
      </trkpt>
      <trkpt lat="0" lon="0">
        <time>2020-12-20T08:03:23.187000+00:00</time>
      </trkpt>
      <trkpt lat="47.30481" lon="-1.38835">
        <ele>130</ele>
        <time>2020-12-20T08:03:24.185000+00:00</time>
      </trkpt>
      <trkpt lat="0" lon="0">
        <time>2020-12-20T08:03:24.195000+00:00</time>
      </trkpt>
      <trkpt lat="0" lon="0">
        <time>2020-12-20T08:03:24.202000+00:00</time>
      </trkpt>
      <trkpt lat="0" lon="0">
        <time>2020-12-20T08:03:24.204000+00:00</time>
      </trkpt>
      <trkpt lat="47.30481" lon="-1.3883">
        <ele>130</ele>
        <time>2020-12-20T08:03:25.153000+00:00</time>
      </trkpt>
      <trkpt lat="0" lon="0">
        <time>2020-12-20T08:03:25.171000+00:00</time>
      </trkpt>
      <trkpt lat="0" lon="0">
        <time>2020-12-20T08:03:25.182000+00:00</time>
      </trkpt>
      <trkpt lat="0" lon="0">
        <time>2020-12-20T08:03:25.184000+00:00</time>
      </trkpt>
      <trkpt lat="47.30482" lon="-1.38825">
        <ele>129</ele>
        <time>2020-12-20T08:03:26.137000+00:00</time>
      </trkpt>
      <trkpt lat="0" lon="0">
        <time>2020-12-20T08:03:26.139000+00:00</time>
      </trkpt>
      <trkpt lat="0" lon="0">
        <time>2020-12-20T08:03:26.141000+00:00</time>
      </trkpt>
      <trkpt lat="0" lon="0">
        <time>2020-12-20T08:03:26.142000+00:00</time>
      </trkpt>
      <trkpt lat="47.30481" lon="-1.3882">
        <ele>129</ele>
        <time>2020-12-20T08:03:27.142000+00:00</time>
      </trkpt>
      <trkpt lat="0" lon="0">
        <time>2020-12-20T08:03:27.146000+00:00</time>
      </trkpt>
      <trkpt lat="0" lon="0">
        <time>2020-12-20T08:03:27.151000+00:00</time>
      </trkpt>
      <trkpt lat="0" lon="0">
        <time>2020-12-20T08:03:27.154000+00:00</time>
      </trkpt>
      <trkpt lat="47.30481" lon="-1.38814">
        <ele>129</ele>
        <time>2020-12-20T08:03:28.200000+00:00</time>
      </trkpt>
      <trkpt lat="0" lon="0">
        <time>2020-12-20T08:03:28.223000+00:00</time>
      </trkpt>
      <trkpt lat="0" lon="0">
        <time>2020-12-20T08:03:28.229000+00:00</time>
      </trkpt>
      <trkpt lat="0" lon="0">
        <time>2020-12-20T08:03:28.232000+00:00</time>
      </trkpt>
      <trkpt lat="47.3048" lon="-1.38807">
        <ele>128</ele>
        <time>2020-12-20T08:03:29.181000+00:00</time>
      </trkpt>
      <trkpt lat="0" lon="0">
        <time>2020-12-20T08:03:29.193000+00:00</time>
      </trkpt>
      <trkpt lat="0" lon="0">
        <time>2020-12-20T08:03:29.202000+00:00</time>
      </trkpt>
      <trkpt lat="0" lon="0">
        <time>2020-12-20T08:03:29.207000+00:00</time>
      </trkpt>
      <trkpt lat="47.30478" lon="-1.38801">
        <ele>128</ele>
        <time>2020-12-20T08:03:30.192000+00:00</time>
      </trkpt>
      <trkpt lat="0" lon="0">
        <time>2020-12-20T08:03:30.220000+00:00</time>
      </trkpt>
      <trkpt lat="0" lon="0">
        <time>2020-12-20T08:03:30.225000+00:00</time>
      </trkpt>
      <trkpt lat="0" lon="0">
        <time>2020-12-20T08:03:30.230000+00:00</time>
      </trkpt>
      <trkpt lat="47.30477" lon="-1.38794">
        <ele>128</ele>
        <time>2020-12-20T08:03:31.175000+00:00</time>
      </trkpt>
      <trkpt lat="0" lon="0">
        <time>2020-12-20T08:03:31.183000+00:00</time>
      </trkpt>
      <trkpt lat="0" lon="0">
        <time>2020-12-20T08:03:31.187000+00:00</time>
      </trkpt>
      <trkpt lat="0" lon="0">
        <time>2020-12-20T08:03:31.190000+00:00</time>
      </trkpt>
      <trkpt lat="47.30475" lon="-1.38787">
        <ele>128</ele>
        <time>2020-12-20T08:03:32.196000+00:00</time>
      </trkpt>
      <trkpt lat="0" lon="0">
        <time>2020-12-20T08:03:32.200000+00:00</time>
      </trkpt>
      <trkpt lat="0" lon="0">
        <time>2020-12-20T08:03:32.205000+00:00</time>
      </trkpt>
      <trkpt lat="0" lon="0">
        <time>2020-12-20T08:03:32.207000+00:00</time>
      </trkpt>
      <trkpt lat="47.30473" lon="-1.3878">
        <ele>127</ele>
        <time>2020-12-20T08:03:33.174000+00:00</time>
      </trkpt>
      <trkpt lat="0" lon="0">
        <time>2020-12-20T08:03:33.186000+00:00</time>
      </trkpt>
      <trkpt lat="0" lon="0">
        <time>2020-12-20T08:03:33.193000+00:00</time>
      </trkpt>
      <trkpt lat="0" lon="0">
        <time>2020-12-20T08:03:33.195000+00:00</time>
      </trkpt>
      <trkpt lat="47.30471" lon="-1.38773">
        <ele>127</ele>
        <time>2020-12-20T08:03:34.184000+00:00</time>
      </trkpt>
      <trkpt lat="0" lon="0">
        <time>2020-12-20T08:03:34.195000+00:00</time>
      </trkpt>
      <trkpt lat="0" lon="0">
        <time>2020-12-20T08:03:34.200000+00:00</time>
      </trkpt>
      <trkpt lat="0" lon="0">
        <time>2020-12-20T08:03:34.202000+00:00</time>
      </trkpt>
      <trkpt lat="47.30469" lon="-1.38766">
        <ele>126</ele>
        <time>2020-12-20T08:03:35.125000+00:00</time>
      </trkpt>
      <trkpt lat="0" lon="0">
        <time>2020-12-20T08:03:35.143000+00:00</time>
      </trkpt>
      <trkpt lat="0" lon="0">
        <time>2020-12-20T08:03:35.147000+00:00</time>
      </trkpt>
      <trkpt lat="0" lon="0">
        <time>2020-12-20T08:03:35.151000+00:00</time>
      </trkpt>
      <trkpt lat="47.30467" lon="-1.38759">
        <ele>126</ele>
        <time>2020-12-20T08:03:36.178000+00:00</time>
      </trkpt>
      <trkpt lat="0" lon="0">
        <time>2020-12-20T08:03:36.191000+00:00</time>
      </trkpt>
      <trkpt lat="0" lon="0">
        <time>2020-12-20T08:03:36.204000+00:00</time>
      </trkpt>
      <trkpt lat="0" lon="0">
        <time>2020-12-20T08:03:36.212000+00:00</time>
      </trkpt>
      <trkpt lat="47.30465" lon="-1.38752">
        <ele>126</ele>
        <time>2020-12-20T08:03:37.215000+00:00</time>
      </trkpt>
      <trkpt lat="0" lon="0">
        <time>2020-12-20T08:03:37.229000+00:00</time>
      </trkpt>
      <trkpt lat="0" lon="0">
        <time>2020-12-20T08:03:37.232000+00:00</time>
      </trkpt>
      <trkpt lat="0" lon="0">
        <time>2020-12-20T08:03:37.238000+00:00</time>
      </trkpt>
      <trkpt lat="47.30463" lon="-1.38746">
        <ele>126</ele>
        <time>2020-12-20T08:03:38.149000+00:00</time>
      </trkpt>
      <trkpt lat="0" lon="0">
        <time>2020-12-20T08:03:38.160000+00:00</time>
      </trkpt>
      <trkpt lat="0" lon="0">
        <time>2020-12-20T08:03:38.165000+00:00</time>
      </trkpt>
      <trkpt lat="0" lon="0">
        <time>2020-12-20T08:03:38.167000+00:00</time>
      </trkpt>
      <trkpt lat="47.30461" lon="-1.3874">
        <ele>126</ele>
        <time>2020-12-20T08:03:39.170000+00:00</time>
      </trkpt>
      <trkpt lat="0" lon="0">
        <time>2020-12-20T08:03:39.182000+00:00</time>
      </trkpt>
      <trkpt lat="0" lon="0">
        <time>2020-12-20T08:03:39.184000+00:00</time>
      </trkpt>
      <trkpt lat="0" lon="0">
        <time>2020-12-20T08:03:39.185000+00:00</time>
      </trkpt>
      <trkpt lat="47.30459" lon="-1.38733">
        <ele>126</ele>
        <time>2020-12-20T08:03:40.197000+00:00</time>
      </trkpt>
      <trkpt lat="0" lon="0">
        <time>2020-12-20T08:03:40.210000+00:00</time>
      </trkpt>
      <trkpt lat="0" lon="0">
        <time>2020-12-20T08:03:40.217000+00:00</time>
      </trkpt>
      <trkpt lat="0" lon="0">
        <time>2020-12-20T08:03:40.220000+00:00</time>
      </trkpt>
      <trkpt lat="47.30457" lon="-1.38727">
        <ele>127</ele>
        <time>2020-12-20T08:03:41.152000+00:00</time>
      </trkpt>
      <trkpt lat="0" lon="0">
        <time>2020-12-20T08:03:41.157000+00:00</time>
      </trkpt>
      <trkpt lat="0" lon="0">
        <time>2020-12-20T08:03:41.164000+00:00</time>
      </trkpt>
      <trkpt lat="0" lon="0">
        <time>2020-12-20T08:03:41.167000+00:00</time>
      </trkpt>
      <trkpt lat="47.30455" lon="-1.38721">
        <ele>127</ele>
        <time>2020-12-20T08:03:42.158000+00:00</time>
      </trkpt>
      <trkpt lat="0" lon="0">
        <time>2020-12-20T08:03:42.175000+00:00</time>
      </trkpt>
      <trkpt lat="0" lon="0">
        <time>2020-12-20T08:03:42.177000+00:00</time>
      </trkpt>
      <trkpt lat="0" lon="0">
        <time>2020-12-20T08:03:42.178000+00:00</time>
      </trkpt>
      <trkpt lat="47.30453" lon="-1.38715">
        <ele>127</ele>
        <time>2020-12-20T08:03:43.173000+00:00</time>
      </trkpt>
      <trkpt lat="0" lon="0">
        <time>2020-12-20T08:03:43.177000+00:00</time>
      </trkpt>
      <trkpt lat="0" lon="0">
        <time>2020-12-20T08:03:43.188000+00:00</time>
      </trkpt>
      <trkpt lat="0" lon="0">
        <time>2020-12-20T08:03:43.190000+00:00</time>
      </trkpt>
      <trkpt lat="47.30451" lon="-1.38708">
        <ele>127</ele>
        <time>2020-12-20T08:03:44.172000+00:00</time>
      </trkpt>
      <trkpt lat="0" lon="0">
        <time>2020-12-20T08:03:44.179000+00:00</time>
      </trkpt>
      <trkpt lat="0" lon="0">
        <time>2020-12-20T08:03:44.184000+00:00</time>
      </trkpt>
      <trkpt lat="0" lon="0">
        <time>2020-12-20T08:03:44.186000+00:00</time>
      </trkpt>
      <trkpt lat="47.30449" lon="-1.38702">
        <ele>126</ele>
        <time>2020-12-20T08:03:45.173000+00:00</time>
      </trkpt>
      <trkpt lat="0" lon="0">
        <time>2020-12-20T08:03:45.177000+00:00</time>
      </trkpt>
      <trkpt lat="0" lon="0">
        <time>2020-12-20T08:03:45.182000+00:00</time>
      </trkpt>
      <trkpt lat="0" lon="0">
        <time>2020-12-20T08:03:45.184000+00:00</time>
      </trkpt>
      <trkpt lat="47.30448" lon="-1.38696">
        <ele>126</ele>
        <time>2020-12-20T08:03:46.188000+00:00</time>
      </trkpt>
      <trkpt lat="0" lon="0">
        <time>2020-12-20T08:03:46.194000+00:00</time>
      </trkpt>
      <trkpt lat="0" lon="0">
        <time>2020-12-20T08:03:46.201000+00:00</time>
      </trkpt>
      <trkpt lat="0" lon="0">
        <time>2020-12-20T08:03:46.204000+00:00</time>
      </trkpt>
      <trkpt lat="47.30446" lon="-1.38689">
        <ele>126</ele>
        <time>2020-12-20T08:03:47.188000+00:00</time>
      </trkpt>
      <trkpt lat="0" lon="0">
        <time>2020-12-20T08:03:47.197000+00:00</time>
      </trkpt>
      <trkpt lat="0" lon="0">
        <time>2020-12-20T08:03:47.202000+00:00</time>
      </trkpt>
      <trkpt lat="0" lon="0">
        <time>2020-12-20T08:03:47.204000+00:00</time>
      </trkpt>
      <trkpt lat="47.30444" lon="-1.38683">
        <ele>125</ele>
        <time>2020-12-20T08:03:48.211000+00:00</time>
      </trkpt>
      <trkpt lat="0" lon="0">
        <time>2020-12-20T08:03:48.218000+00:00</time>
      </trkpt>
      <trkpt lat="0" lon="0">
        <time>2020-12-20T08:03:48.223000+00:00</time>
      </trkpt>
      <trkpt lat="0" lon="0">
        <time>2020-12-20T08:03:48.225000+00:00</time>
      </trkpt>
      <trkpt lat="47.30442" lon="-1.38677">
        <ele>125</ele>
        <time>2020-12-20T08:03:49.214000+00:00</time>
      </trkpt>
      <trkpt lat="0" lon="0">
        <time>2020-12-20T08:03:49.219000+00:00</time>
      </trkpt>
      <trkpt lat="0" lon="0">
        <time>2020-12-20T08:03:49.224000+00:00</time>
      </trkpt>
      <trkpt lat="0" lon="0">
        <time>2020-12-20T08:03:49.227000+00:00</time>
      </trkpt>
      <trkpt lat="47.30441" lon="-1.3867">
        <ele>125</ele>
        <time>2020-12-20T08:03:50.224000+00:00</time>
      </trkpt>
      <trkpt lat="0" lon="0">
        <time>2020-12-20T08:03:50.240000+00:00</time>
      </trkpt>
      <trkpt lat="0" lon="0">
        <time>2020-12-20T08:03:50.250000+00:00</time>
      </trkpt>
      <trkpt lat="0" lon="0">
        <time>2020-12-20T08:03:50.261000+00:00</time>
      </trkpt>
      <trkpt lat="47.30439" lon="-1.38664">
        <ele>125</ele>
        <time>2020-12-20T08:03:51.223000+00:00</time>
      </trkpt>
      <trkpt lat="0" lon="0">
        <time>2020-12-20T08:03:51.246000+00:00</time>
      </trkpt>
      <trkpt lat="0" lon="0">
        <time>2020-12-20T08:03:51.252000+00:00</time>
      </trkpt>
      <trkpt lat="0" lon="0">
        <time>2020-12-20T08:03:51.255000+00:00</time>
      </trkpt>
      <trkpt lat="47.30437" lon="-1.38658">
        <ele>125</ele>
        <time>2020-12-20T08:03:52.221000+00:00</time>
      </trkpt>
      <trkpt lat="0" lon="0">
        <time>2020-12-20T08:03:52.226000+00:00</time>
      </trkpt>
      <trkpt lat="0" lon="0">
        <time>2020-12-20T08:03:52.232000+00:00</time>
      </trkpt>
      <trkpt lat="0" lon="0">
        <time>2020-12-20T08:03:52.234000+00:00</time>
      </trkpt>
      <trkpt lat="47.30435" lon="-1.38652">
        <ele>125</ele>
        <time>2020-12-20T08:03:53.214000+00:00</time>
      </trkpt>
      <trkpt lat="0" lon="0">
        <time>2020-12-20T08:03:53.220000+00:00</time>
      </trkpt>
      <trkpt lat="0" lon="0">
        <time>2020-12-20T08:03:53.227000+00:00</time>
      </trkpt>
      <trkpt lat="0" lon="0">
        <time>2020-12-20T08:03:53.231000+00:00</time>
      </trkpt>
      <trkpt lat="47.30433" lon="-1.38647">
        <ele>125</ele>
        <time>2020-12-20T08:03:54.219000+00:00</time>
      </trkpt>
      <trkpt lat="0" lon="0">
        <time>2020-12-20T08:03:54.225000+00:00</time>
      </trkpt>
      <trkpt lat="0" lon="0">
        <time>2020-12-20T08:03:54.230000+00:00</time>
      </trkpt>
      <trkpt lat="0" lon="0">
        <time>2020-12-20T08:03:54.234000+00:00</time>
      </trkpt>
      <trkpt lat="47.30431" lon="-1.38641">
        <ele>125</ele>
        <time>2020-12-20T08:03:55.176000+00:00</time>
      </trkpt>
      <trkpt lat="0" lon="0">
        <time>2020-12-20T08:03:55.190000+00:00</time>
      </trkpt>
      <trkpt lat="0" lon="0">
        <time>2020-12-20T08:03:55.194000+00:00</time>
      </trkpt>
      <trkpt lat="0" lon="0">
        <time>2020-12-20T08:03:55.196000+00:00</time>
      </trkpt>
      <trkpt lat="47.30429" lon="-1.38635">
        <ele>125</ele>
        <time>2020-12-20T08:03:56.193000+00:00</time>
      </trkpt>
      <trkpt lat="0" lon="0">
        <time>2020-12-20T08:03:56.204000+00:00</time>
      </trkpt>
      <trkpt lat="0" lon="0">
        <time>2020-12-20T08:03:56.210000+00:00</time>
      </trkpt>
      <trkpt lat="0" lon="0">
        <time>2020-12-20T08:03:56.216000+00:00</time>
      </trkpt>
      <trkpt lat="47.30428" lon="-1.38629">
        <ele>125</ele>
        <time>2020-12-20T08:03:57.219000+00:00</time>
      </trkpt>
      <trkpt lat="0" lon="0">
        <time>2020-12-20T08:03:57.233000+00:00</time>
      </trkpt>
      <trkpt lat="0" lon="0">
        <time>2020-12-20T08:03:57.244000+00:00</time>
      </trkpt>
      <trkpt lat="0" lon="0">
        <time>2020-12-20T08:03:57.250000+00:00</time>
      </trkpt>
      <trkpt lat="47.30426" lon="-1.38624">
        <ele>125</ele>
        <time>2020-12-20T08:03:58.222000+00:00</time>
      </trkpt>
      <trkpt lat="0" lon="0">
        <time>2020-12-20T08:03:58.230000+00:00</time>
      </trkpt>
      <trkpt lat="0" lon="0">
        <time>2020-12-20T08:03:58.235000+00:00</time>
      </trkpt>
      <trkpt lat="0" lon="0">
        <time>2020-12-20T08:03:58.239000+00:00</time>
      </trkpt>
      <trkpt lat="47.30423" lon="-1.38619">
        <ele>125</ele>
        <time>2020-12-20T08:03:59.169000+00:00</time>
      </trkpt>
      <trkpt lat="0" lon="0">
        <time>2020-12-20T08:03:59.190000+00:00</time>
      </trkpt>
      <trkpt lat="0" lon="0">
        <time>2020-12-20T08:03:59.194000+00:00</time>
      </trkpt>
      <trkpt lat="0" lon="0">
        <time>2020-12-20T08:03:59.197000+00:00</time>
      </trkpt>
      <trkpt lat="47.30421" lon="-1.38614">
        <ele>126</ele>
        <time>2020-12-20T08:04:00.173000+00:00</time>
      </trkpt>
      <trkpt lat="0" lon="0">
        <time>2020-12-20T08:04:00.183000+00:00</time>
      </trkpt>
      <trkpt lat="0" lon="0">
        <time>2020-12-20T08:04:00.185000+00:00</time>
      </trkpt>
      <trkpt lat="0" lon="0">
        <time>2020-12-20T08:04:00.186000+00:00</time>
      </trkpt>
      <trkpt lat="47.30418" lon="-1.38611">
        <ele>126</ele>
        <time>2020-12-20T08:04:01.206000+00:00</time>
      </trkpt>
      <trkpt lat="0" lon="0">
        <time>2020-12-20T08:04:01.211000+00:00</time>
      </trkpt>
      <trkpt lat="0" lon="0">
        <time>2020-12-20T08:04:01.216000+00:00</time>
      </trkpt>
      <trkpt lat="0" lon="0">
        <time>2020-12-20T08:04:01.220000+00:00</time>
      </trkpt>
      <trkpt lat="47.30416" lon="-1.38608">
        <ele>126</ele>
        <time>2020-12-20T08:04:02.188000+00:00</time>
      </trkpt>
      <trkpt lat="0" lon="0">
        <time>2020-12-20T08:04:02.192000+00:00</time>
      </trkpt>
      <trkpt lat="0" lon="0">
        <time>2020-12-20T08:04:02.202000+00:00</time>
      </trkpt>
      <trkpt lat="0" lon="0">
        <time>2020-12-20T08:04:02.204000+00:00</time>
      </trkpt>
      <trkpt lat="47.30412" lon="-1.38605">
        <ele>126</ele>
        <time>2020-12-20T08:04:03.207000+00:00</time>
      </trkpt>
      <trkpt lat="0" lon="0">
        <time>2020-12-20T08:04:03.213000+00:00</time>
      </trkpt>
      <trkpt lat="0" lon="0">
        <time>2020-12-20T08:04:03.220000+00:00</time>
      </trkpt>
      <trkpt lat="0" lon="0">
        <time>2020-12-20T08:04:03.223000+00:00</time>
      </trkpt>
      <trkpt lat="47.30409" lon="-1.38604">
        <ele>126</ele>
        <time>2020-12-20T08:04:04.178000+00:00</time>
      </trkpt>
      <trkpt lat="0" lon="0">
        <time>2020-12-20T08:04:04.185000+00:00</time>
      </trkpt>
      <trkpt lat="0" lon="0">
        <time>2020-12-20T08:04:04.193000+00:00</time>
      </trkpt>
      <trkpt lat="0" lon="0">
        <time>2020-12-20T08:04:04.195000+00:00</time>
      </trkpt>
      <trkpt lat="47.30405" lon="-1.38603">
        <ele>126</ele>
        <time>2020-12-20T08:04:05.202000+00:00</time>
      </trkpt>
      <trkpt lat="0" lon="0">
        <time>2020-12-20T08:04:05.208000+00:00</time>
      </trkpt>
      <trkpt lat="0" lon="0">
        <time>2020-12-20T08:04:05.216000+00:00</time>
      </trkpt>
      <trkpt lat="0" lon="0">
        <time>2020-12-20T08:04:05.218000+00:00</time>
      </trkpt>
      <trkpt lat="47.30401" lon="-1.38602">
        <ele>126</ele>
        <time>2020-12-20T08:04:06.184000+00:00</time>
      </trkpt>
      <trkpt lat="0" lon="0">
        <time>2020-12-20T08:04:06.190000+00:00</time>
      </trkpt>
      <trkpt lat="0" lon="0">
        <time>2020-12-20T08:04:06.192000+00:00</time>
      </trkpt>
      <trkpt lat="0" lon="0">
        <time>2020-12-20T08:04:06.194000+00:00</time>
      </trkpt>
      <trkpt lat="47.30397" lon="-1.38601">
        <ele>126</ele>
        <time>2020-12-20T08:04:07.198000+00:00</time>
      </trkpt>
      <trkpt lat="0" lon="0">
        <time>2020-12-20T08:04:07.203000+00:00</time>
      </trkpt>
      <trkpt lat="0" lon="0">
        <time>2020-12-20T08:04:07.211000+00:00</time>
      </trkpt>
      <trkpt lat="0" lon="0">
        <time>2020-12-20T08:04:07.214000+00:00</time>
      </trkpt>
      <trkpt lat="47.30393" lon="-1.38601">
        <ele>126</ele>
        <time>2020-12-20T08:04:08.223000+00:00</time>
      </trkpt>
      <trkpt lat="0" lon="0">
        <time>2020-12-20T08:04:08.231000+00:00</time>
      </trkpt>
      <trkpt lat="0" lon="0">
        <time>2020-12-20T08:04:08.236000+00:00</time>
      </trkpt>
      <trkpt lat="0" lon="0">
        <time>2020-12-20T08:04:08.240000+00:00</time>
      </trkpt>
      <trkpt lat="47.30388" lon="-1.386">
        <ele>125</ele>
        <time>2020-12-20T08:04:09.208000+00:00</time>
      </trkpt>
      <trkpt lat="0" lon="0">
        <time>2020-12-20T08:04:09.212000+00:00</time>
      </trkpt>
      <trkpt lat="0" lon="0">
        <time>2020-12-20T08:04:09.217000+00:00</time>
      </trkpt>
      <trkpt lat="0" lon="0">
        <time>2020-12-20T08:04:09.219000+00:00</time>
      </trkpt>
      <trkpt lat="47.30384" lon="-1.386">
        <ele>125</ele>
        <time>2020-12-20T08:04:10.191000+00:00</time>
      </trkpt>
      <trkpt lat="0" lon="0">
        <time>2020-12-20T08:04:10.208000+00:00</time>
      </trkpt>
      <trkpt lat="0" lon="0">
        <time>2020-12-20T08:04:10.212000+00:00</time>
      </trkpt>
      <trkpt lat="0" lon="0">
        <time>2020-12-20T08:04:10.218000+00:00</time>
      </trkpt>
      <trkpt lat="47.30379" lon="-1.38599">
        <ele>126</ele>
        <time>2020-12-20T08:04:11.189000+00:00</time>
      </trkpt>
      <trkpt lat="0" lon="0">
        <time>2020-12-20T08:04:11.204000+00:00</time>
      </trkpt>
      <trkpt lat="0" lon="0">
        <time>2020-12-20T08:04:11.208000+00:00</time>
      </trkpt>
      <trkpt lat="0" lon="0">
        <time>2020-12-20T08:04:11.211000+00:00</time>
      </trkpt>
      <trkpt lat="47.30375" lon="-1.38598">
        <ele>126</ele>
        <time>2020-12-20T08:04:12.200000+00:00</time>
      </trkpt>
      <trkpt lat="0" lon="0">
        <time>2020-12-20T08:04:12.224000+00:00</time>
      </trkpt>
      <trkpt lat="0" lon="0">
        <time>2020-12-20T08:04:12.228000+00:00</time>
      </trkpt>
      <trkpt lat="0" lon="0">
        <time>2020-12-20T08:04:12.230000+00:00</time>
      </trkpt>
      <trkpt lat="47.3037" lon="-1.38597">
        <ele>127</ele>
        <time>2020-12-20T08:04:13.211000+00:00</time>
      </trkpt>
      <trkpt lat="0" lon="0">
        <time>2020-12-20T08:04:13.226000+00:00</time>
      </trkpt>
      <trkpt lat="0" lon="0">
        <time>2020-12-20T08:04:13.235000+00:00</time>
      </trkpt>
      <trkpt lat="0" lon="0">
        <time>2020-12-20T08:04:13.237000+00:00</time>
      </trkpt>
      <trkpt lat="47.30365" lon="-1.38595">
        <ele>127</ele>
        <time>2020-12-20T08:04:14.199000+00:00</time>
      </trkpt>
      <trkpt lat="0" lon="0">
        <time>2020-12-20T08:04:14.215000+00:00</time>
      </trkpt>
      <trkpt lat="0" lon="0">
        <time>2020-12-20T08:04:14.222000+00:00</time>
      </trkpt>
      <trkpt lat="0" lon="0">
        <time>2020-12-20T08:04:14.225000+00:00</time>
      </trkpt>
      <trkpt lat="47.3036" lon="-1.38594">
        <ele>127</ele>
        <time>2020-12-20T08:04:15.234000+00:00</time>
      </trkpt>
      <trkpt lat="0" lon="0">
        <time>2020-12-20T08:04:15.242000+00:00</time>
      </trkpt>
      <trkpt lat="0" lon="0">
        <time>2020-12-20T08:04:15.249000+00:00</time>
      </trkpt>
      <trkpt lat="0" lon="0">
        <time>2020-12-20T08:04:15.252000+00:00</time>
      </trkpt>
      <trkpt lat="47.30356" lon="-1.38593">
        <ele>127</ele>
        <time>2020-12-20T08:04:16.212000+00:00</time>
      </trkpt>
      <trkpt lat="0" lon="0">
        <time>2020-12-20T08:04:16.219000+00:00</time>
      </trkpt>
      <trkpt lat="0" lon="0">
        <time>2020-12-20T08:04:16.227000+00:00</time>
      </trkpt>
      <trkpt lat="0" lon="0">
        <time>2020-12-20T08:04:16.230000+00:00</time>
      </trkpt>
      <trkpt lat="47.30351" lon="-1.38591">
        <ele>127</ele>
        <time>2020-12-20T08:04:17.217000+00:00</time>
      </trkpt>
      <trkpt lat="0" lon="0">
        <time>2020-12-20T08:04:17.229000+00:00</time>
      </trkpt>
      <trkpt lat="0" lon="0">
        <time>2020-12-20T08:04:17.234000+00:00</time>
      </trkpt>
      <trkpt lat="0" lon="0">
        <time>2020-12-20T08:04:17.237000+00:00</time>
      </trkpt>
      <trkpt lat="47.30346" lon="-1.38591">
        <ele>127</ele>
        <time>2020-12-20T08:04:18.232000+00:00</time>
      </trkpt>
      <trkpt lat="0" lon="0">
        <time>2020-12-20T08:04:18.238000+00:00</time>
      </trkpt>
      <trkpt lat="0" lon="0">
        <time>2020-12-20T08:04:18.240000+00:00</time>
      </trkpt>
      <trkpt lat="0" lon="0">
        <time>2020-12-20T08:04:18.244000+00:00</time>
      </trkpt>
      <trkpt lat="47.30341" lon="-1.3859">
        <ele>127</ele>
        <time>2020-12-20T08:04:19.180000+00:00</time>
      </trkpt>
      <trkpt lat="0" lon="0">
        <time>2020-12-20T08:04:19.189000+00:00</time>
      </trkpt>
      <trkpt lat="0" lon="0">
        <time>2020-12-20T08:04:19.193000+00:00</time>
      </trkpt>
      <trkpt lat="0" lon="0">
        <time>2020-12-20T08:04:19.196000+00:00</time>
      </trkpt>
      <trkpt lat="47.30336" lon="-1.3859">
        <ele>128</ele>
        <time>2020-12-20T08:04:20.213000+00:00</time>
      </trkpt>
      <trkpt lat="0" lon="0">
        <time>2020-12-20T08:04:20.228000+00:00</time>
      </trkpt>
      <trkpt lat="0" lon="0">
        <time>2020-12-20T08:04:20.233000+00:00</time>
      </trkpt>
      <trkpt lat="0" lon="0">
        <time>2020-12-20T08:04:20.235000+00:00</time>
      </trkpt>
      <trkpt lat="47.30331" lon="-1.38589">
        <ele>128</ele>
        <time>2020-12-20T08:04:21.193000+00:00</time>
      </trkpt>
      <trkpt lat="0" lon="0">
        <time>2020-12-20T08:04:21.199000+00:00</time>
      </trkpt>
      <trkpt lat="0" lon="0">
        <time>2020-12-20T08:04:21.206000+00:00</time>
      </trkpt>
      <trkpt lat="0" lon="0">
        <time>2020-12-20T08:04:21.209000+00:00</time>
      </trkpt>
      <trkpt lat="47.30325" lon="-1.3859">
        <ele>129</ele>
        <time>2020-12-20T08:04:22.183000+00:00</time>
      </trkpt>
      <trkpt lat="0" lon="0">
        <time>2020-12-20T08:04:22.189000+00:00</time>
      </trkpt>
      <trkpt lat="0" lon="0">
        <time>2020-12-20T08:04:22.193000+00:00</time>
      </trkpt>
      <trkpt lat="0" lon="0">
        <time>2020-12-20T08:04:22.195000+00:00</time>
      </trkpt>
      <trkpt lat="47.3032" lon="-1.3859">
        <ele>130</ele>
        <time>2020-12-20T08:04:23.259000+00:00</time>
      </trkpt>
      <trkpt lat="0" lon="0">
        <time>2020-12-20T08:04:23.266000+00:00</time>
      </trkpt>
      <trkpt lat="0" lon="0">
        <time>2020-12-20T08:04:23.269000+00:00</time>
      </trkpt>
      <trkpt lat="0" lon="0">
        <time>2020-12-20T08:04:23.273000+00:00</time>
      </trkpt>
      <trkpt lat="47.30314" lon="-1.3859">
        <ele>130</ele>
        <time>2020-12-20T08:04:24.228000+00:00</time>
      </trkpt>
      <trkpt lat="0" lon="0">
        <time>2020-12-20T08:04:24.235000+00:00</time>
      </trkpt>
      <trkpt lat="0" lon="0">
        <time>2020-12-20T08:04:24.243000+00:00</time>
      </trkpt>
      <trkpt lat="0" lon="0">
        <time>2020-12-20T08:04:24.245000+00:00</time>
      </trkpt>
      <trkpt lat="47.30308" lon="-1.38591">
        <ele>130</ele>
        <time>2020-12-20T08:04:25.212000+00:00</time>
      </trkpt>
      <trkpt lat="0" lon="0">
        <time>2020-12-20T08:04:25.223000+00:00</time>
      </trkpt>
      <trkpt lat="0" lon="0">
        <time>2020-12-20T08:04:25.241000+00:00</time>
      </trkpt>
      <trkpt lat="0" lon="0">
        <time>2020-12-20T08:04:25.245000+00:00</time>
      </trkpt>
      <trkpt lat="47.30302" lon="-1.38591">
        <ele>130</ele>
        <time>2020-12-20T08:04:26.219000+00:00</time>
      </trkpt>
      <trkpt lat="0" lon="0">
        <time>2020-12-20T08:04:26.224000+00:00</time>
      </trkpt>
      <trkpt lat="0" lon="0">
        <time>2020-12-20T08:04:26.232000+00:00</time>
      </trkpt>
      <trkpt lat="0" lon="0">
        <time>2020-12-20T08:04:26.235000+00:00</time>
      </trkpt>
      <trkpt lat="47.30296" lon="-1.38592">
        <ele>130</ele>
        <time>2020-12-20T08:04:27.224000+00:00</time>
      </trkpt>
      <trkpt lat="0" lon="0">
        <time>2020-12-20T08:04:27.232000+00:00</time>
      </trkpt>
      <trkpt lat="0" lon="0">
        <time>2020-12-20T08:04:27.257000+00:00</time>
      </trkpt>
      <trkpt lat="0" lon="0">
        <time>2020-12-20T08:04:27.259000+00:00</time>
      </trkpt>
      <trkpt lat="47.3029" lon="-1.38593">
        <ele>130</ele>
        <time>2020-12-20T08:04:28.141000+00:00</time>
      </trkpt>
      <trkpt lat="0" lon="0">
        <time>2020-12-20T08:04:28.145000+00:00</time>
      </trkpt>
      <trkpt lat="0" lon="0">
        <time>2020-12-20T08:04:28.146000+00:00</time>
      </trkpt>
      <trkpt lat="0" lon="0">
        <time>2020-12-20T08:04:28.147000+00:00</time>
      </trkpt>
      <trkpt lat="47.30284" lon="-1.38593">
        <ele>130</ele>
        <time>2020-12-20T08:04:29.234000+00:00</time>
      </trkpt>
      <trkpt lat="0" lon="0">
        <time>2020-12-20T08:04:29.241000+00:00</time>
      </trkpt>
      <trkpt lat="0" lon="0">
        <time>2020-12-20T08:04:29.245000+00:00</time>
      </trkpt>
      <trkpt lat="0" lon="0">
        <time>2020-12-20T08:04:29.247000+00:00</time>
      </trkpt>
      <trkpt lat="47.30279" lon="-1.38594">
        <ele>129</ele>
        <time>2020-12-20T08:04:30.182000+00:00</time>
      </trkpt>
      <trkpt lat="0" lon="0">
        <time>2020-12-20T08:04:30.190000+00:00</time>
      </trkpt>
      <trkpt lat="0" lon="0">
        <time>2020-12-20T08:04:30.195000+00:00</time>
      </trkpt>
      <trkpt lat="0" lon="0">
        <time>2020-12-20T08:04:30.198000+00:00</time>
      </trkpt>
      <trkpt lat="47.30273" lon="-1.38595">
        <ele>128</ele>
        <time>2020-12-20T08:04:31.205000+00:00</time>
      </trkpt>
      <trkpt lat="0" lon="0">
        <time>2020-12-20T08:04:31.213000+00:00</time>
      </trkpt>
      <trkpt lat="0" lon="0">
        <time>2020-12-20T08:04:31.217000+00:00</time>
      </trkpt>
      <trkpt lat="0" lon="0">
        <time>2020-12-20T08:04:31.220000+00:00</time>
      </trkpt>
      <trkpt lat="47.30267" lon="-1.38596">
        <ele>128</ele>
        <time>2020-12-20T08:04:32.156000+00:00</time>
      </trkpt>
      <trkpt lat="0" lon="0">
        <time>2020-12-20T08:04:32.161000+00:00</time>
      </trkpt>
      <trkpt lat="0" lon="0">
        <time>2020-12-20T08:04:32.165000+00:00</time>
      </trkpt>
      <trkpt lat="0" lon="0">
        <time>2020-12-20T08:04:32.169000+00:00</time>
      </trkpt>
      <trkpt lat="47.30261" lon="-1.38597">
        <ele>128</ele>
        <time>2020-12-20T08:04:33.194000+00:00</time>
      </trkpt>
      <trkpt lat="0" lon="0">
        <time>2020-12-20T08:04:33.217000+00:00</time>
      </trkpt>
      <trkpt lat="0" lon="0">
        <time>2020-12-20T08:04:33.224000+00:00</time>
      </trkpt>
      <trkpt lat="0" lon="0">
        <time>2020-12-20T08:04:33.229000+00:00</time>
      </trkpt>
      <trkpt lat="47.30255" lon="-1.38598">
        <ele>127</ele>
        <time>2020-12-20T08:04:34.197000+00:00</time>
      </trkpt>
      <trkpt lat="0" lon="0">
        <time>2020-12-20T08:04:34.212000+00:00</time>
      </trkpt>
      <trkpt lat="0" lon="0">
        <time>2020-12-20T08:04:34.220000+00:00</time>
      </trkpt>
      <trkpt lat="0" lon="0">
        <time>2020-12-20T08:04:34.225000+00:00</time>
      </trkpt>
      <trkpt lat="47.30249" lon="-1.38599">
        <ele>127</ele>
        <time>2020-12-20T08:04:35.211000+00:00</time>
      </trkpt>
      <trkpt lat="0" lon="0">
        <time>2020-12-20T08:04:35.224000+00:00</time>
      </trkpt>
      <trkpt lat="0" lon="0">
        <time>2020-12-20T08:04:35.232000+00:00</time>
      </trkpt>
      <trkpt lat="0" lon="0">
        <time>2020-12-20T08:04:35.235000+00:00</time>
      </trkpt>
      <trkpt lat="47.30243" lon="-1.386">
        <ele>127</ele>
        <time>2020-12-20T08:04:36.200000+00:00</time>
      </trkpt>
      <trkpt lat="0" lon="0">
        <time>2020-12-20T08:04:36.209000+00:00</time>
      </trkpt>
      <trkpt lat="0" lon="0">
        <time>2020-12-20T08:04:36.215000+00:00</time>
      </trkpt>
      <trkpt lat="0" lon="0">
        <time>2020-12-20T08:04:36.218000+00:00</time>
      </trkpt>
      <trkpt lat="47.30236" lon="-1.38601">
        <ele>127</ele>
        <time>2020-12-20T08:04:37.170000+00:00</time>
      </trkpt>
      <trkpt lat="0" lon="0">
        <time>2020-12-20T08:04:37.181000+00:00</time>
      </trkpt>
      <trkpt lat="0" lon="0">
        <time>2020-12-20T08:04:37.185000+00:00</time>
      </trkpt>
      <trkpt lat="0" lon="0">
        <time>2020-12-20T08:04:37.187000+00:00</time>
      </trkpt>
      <trkpt lat="47.3023" lon="-1.38603">
        <ele>127</ele>
        <time>2020-12-20T08:04:38.181000+00:00</time>
      </trkpt>
      <trkpt lat="0" lon="0">
        <time>2020-12-20T08:04:38.197000+00:00</time>
      </trkpt>
      <trkpt lat="0" lon="0">
        <time>2020-12-20T08:04:38.208000+00:00</time>
      </trkpt>
      <trkpt lat="0" lon="0">
        <time>2020-12-20T08:04:38.212000+00:00</time>
      </trkpt>
      <trkpt lat="47.30223" lon="-1.38604">
        <ele>127</ele>
        <time>2020-12-20T08:04:39.216000+00:00</time>
      </trkpt>
      <trkpt lat="0" lon="0">
        <time>2020-12-20T08:04:39.226000+00:00</time>
      </trkpt>
      <trkpt lat="0" lon="0">
        <time>2020-12-20T08:04:39.232000+00:00</time>
      </trkpt>
      <trkpt lat="0" lon="0">
        <time>2020-12-20T08:04:39.234000+00:00</time>
      </trkpt>
      <trkpt lat="47.30217" lon="-1.38605">
        <ele>128</ele>
        <time>2020-12-20T08:04:40.230000+00:00</time>
      </trkpt>
      <trkpt lat="0" lon="0">
        <time>2020-12-20T08:04:40.240000+00:00</time>
      </trkpt>
      <trkpt lat="0" lon="0">
        <time>2020-12-20T08:04:40.243000+00:00</time>
      </trkpt>
      <trkpt lat="0" lon="0">
        <time>2020-12-20T08:04:40.244000+00:00</time>
      </trkpt>
      <trkpt lat="47.3021" lon="-1.38605">
        <ele>128</ele>
        <time>2020-12-20T08:04:41.186000+00:00</time>
      </trkpt>
      <trkpt lat="0" lon="0">
        <time>2020-12-20T08:04:41.193000+00:00</time>
      </trkpt>
      <trkpt lat="0" lon="0">
        <time>2020-12-20T08:04:41.199000+00:00</time>
      </trkpt>
      <trkpt lat="0" lon="0">
        <time>2020-12-20T08:04:41.202000+00:00</time>
      </trkpt>
      <trkpt lat="47.30204" lon="-1.38604">
        <ele>128</ele>
        <time>2020-12-20T08:04:42.179000+00:00</time>
      </trkpt>
      <trkpt lat="0" lon="0">
        <time>2020-12-20T08:04:42.184000+00:00</time>
      </trkpt>
      <trkpt lat="0" lon="0">
        <time>2020-12-20T08:04:42.193000+00:00</time>
      </trkpt>
      <trkpt lat="0" lon="0">
        <time>2020-12-20T08:04:42.197000+00:00</time>
      </trkpt>
      <trkpt lat="47.30198" lon="-1.38601">
        <ele>128</ele>
        <time>2020-12-20T08:04:43.190000+00:00</time>
      </trkpt>
      <trkpt lat="0" lon="0">
        <time>2020-12-20T08:04:43.208000+00:00</time>
      </trkpt>
      <trkpt lat="0" lon="0">
        <time>2020-12-20T08:04:43.215000+00:00</time>
      </trkpt>
      <trkpt lat="0" lon="0">
        <time>2020-12-20T08:04:43.230000+00:00</time>
      </trkpt>
      <trkpt lat="47.30193" lon="-1.38597">
        <ele>128</ele>
        <time>2020-12-20T08:04:44.220000+00:00</time>
      </trkpt>
      <trkpt lat="0" lon="0">
        <time>2020-12-20T08:04:44.226000+00:00</time>
      </trkpt>
      <trkpt lat="0" lon="0">
        <time>2020-12-20T08:04:44.231000+00:00</time>
      </trkpt>
      <trkpt lat="0" lon="0">
        <time>2020-12-20T08:04:44.233000+00:00</time>
      </trkpt>
      <trkpt lat="47.30188" lon="-1.38592">
        <ele>128</ele>
        <time>2020-12-20T08:04:45.216000+00:00</time>
      </trkpt>
      <trkpt lat="0" lon="0">
        <time>2020-12-20T08:04:45.223000+00:00</time>
      </trkpt>
      <trkpt lat="0" lon="0">
        <time>2020-12-20T08:04:45.236000+00:00</time>
      </trkpt>
      <trkpt lat="0" lon="0">
        <time>2020-12-20T08:04:45.238000+00:00</time>
      </trkpt>
      <trkpt lat="47.30183" lon="-1.38586">
        <ele>128</ele>
        <time>2020-12-20T08:04:46.226000+00:00</time>
      </trkpt>
      <trkpt lat="0" lon="0">
        <time>2020-12-20T08:04:46.233000+00:00</time>
      </trkpt>
      <trkpt lat="0" lon="0">
        <time>2020-12-20T08:04:46.238000+00:00</time>
      </trkpt>
      <trkpt lat="0" lon="0">
        <time>2020-12-20T08:04:46.240000+00:00</time>
      </trkpt>
      <trkpt lat="47.30178" lon="-1.38578">
        <ele>128</ele>
        <time>2020-12-20T08:04:47.241000+00:00</time>
      </trkpt>
      <trkpt lat="0" lon="0">
        <time>2020-12-20T08:04:47.247000+00:00</time>
      </trkpt>
      <trkpt lat="0" lon="0">
        <time>2020-12-20T08:04:47.251000+00:00</time>
      </trkpt>
      <trkpt lat="0" lon="0">
        <time>2020-12-20T08:04:47.256000+00:00</time>
      </trkpt>
      <trkpt lat="47.30174" lon="-1.3857">
        <ele>128</ele>
        <time>2020-12-20T08:04:48.216000+00:00</time>
      </trkpt>
      <trkpt lat="0" lon="0">
        <time>2020-12-20T08:04:48.223000+00:00</time>
      </trkpt>
      <trkpt lat="0" lon="0">
        <time>2020-12-20T08:04:48.234000+00:00</time>
      </trkpt>
      <trkpt lat="0" lon="0">
        <time>2020-12-20T08:04:48.239000+00:00</time>
      </trkpt>
      <trkpt lat="47.30169" lon="-1.38562">
        <ele>128</ele>
        <time>2020-12-20T08:04:49.164000+00:00</time>
      </trkpt>
      <trkpt lat="0" lon="0">
        <time>2020-12-20T08:04:49.175000+00:00</time>
      </trkpt>
      <trkpt lat="0" lon="0">
        <time>2020-12-20T08:04:49.179000+00:00</time>
      </trkpt>
      <trkpt lat="0" lon="0">
        <time>2020-12-20T08:04:49.181000+00:00</time>
      </trkpt>
      <trkpt lat="47.30165" lon="-1.38553">
        <ele>127</ele>
        <time>2020-12-20T08:04:50.168000+00:00</time>
      </trkpt>
      <trkpt lat="0" lon="0">
        <time>2020-12-20T08:04:50.190000+00:00</time>
      </trkpt>
      <trkpt lat="0" lon="0">
        <time>2020-12-20T08:04:50.196000+00:00</time>
      </trkpt>
      <trkpt lat="0" lon="0">
        <time>2020-12-20T08:04:50.199000+00:00</time>
      </trkpt>
      <trkpt lat="47.3016" lon="-1.38544">
        <ele>127</ele>
        <time>2020-12-20T08:04:51.176000+00:00</time>
      </trkpt>
      <trkpt lat="0" lon="0">
        <time>2020-12-20T08:04:51.178000+00:00</time>
      </trkpt>
      <trkpt lat="0" lon="0">
        <time>2020-12-20T08:04:51.180000+00:00</time>
      </trkpt>
      <trkpt lat="0" lon="0">
        <time>2020-12-20T08:04:51.181000+00:00</time>
      </trkpt>
      <trkpt lat="47.30156" lon="-1.38534">
        <ele>126</ele>
        <time>2020-12-20T08:04:52.190000+00:00</time>
      </trkpt>
      <trkpt lat="0" lon="0">
        <time>2020-12-20T08:04:52.201000+00:00</time>
      </trkpt>
      <trkpt lat="0" lon="0">
        <time>2020-12-20T08:04:52.205000+00:00</time>
      </trkpt>
      <trkpt lat="0" lon="0">
        <time>2020-12-20T08:04:52.208000+00:00</time>
      </trkpt>
      <trkpt lat="47.30151" lon="-1.38525">
        <ele>125</ele>
        <time>2020-12-20T08:04:53.175000+00:00</time>
      </trkpt>
      <trkpt lat="0" lon="0">
        <time>2020-12-20T08:04:53.184000+00:00</time>
      </trkpt>
      <trkpt lat="0" lon="0">
        <time>2020-12-20T08:04:53.189000+00:00</time>
      </trkpt>
      <trkpt lat="0" lon="0">
        <time>2020-12-20T08:04:53.191000+00:00</time>
      </trkpt>
      <trkpt lat="47.30146" lon="-1.38515">
        <ele>125</ele>
        <time>2020-12-20T08:04:54.174000+00:00</time>
      </trkpt>
      <trkpt lat="0" lon="0">
        <time>2020-12-20T08:04:54.183000+00:00</time>
      </trkpt>
      <trkpt lat="0" lon="0">
        <time>2020-12-20T08:04:54.194000+00:00</time>
      </trkpt>
      <trkpt lat="0" lon="0">
        <time>2020-12-20T08:04:54.197000+00:00</time>
      </trkpt>
      <trkpt lat="47.3014" lon="-1.38505">
        <ele>124</ele>
        <time>2020-12-20T08:04:55.200000+00:00</time>
      </trkpt>
      <trkpt lat="0" lon="0">
        <time>2020-12-20T08:04:55.212000+00:00</time>
      </trkpt>
      <trkpt lat="0" lon="0">
        <time>2020-12-20T08:04:55.220000+00:00</time>
      </trkpt>
      <trkpt lat="0" lon="0">
        <time>2020-12-20T08:04:55.223000+00:00</time>
      </trkpt>
      <trkpt lat="47.30135" lon="-1.38495">
        <ele>124</ele>
        <time>2020-12-20T08:04:56.176000+00:00</time>
      </trkpt>
      <trkpt lat="0" lon="0">
        <time>2020-12-20T08:04:56.199000+00:00</time>
      </trkpt>
      <trkpt lat="0" lon="0">
        <time>2020-12-20T08:04:56.203000+00:00</time>
      </trkpt>
      <trkpt lat="0" lon="0">
        <time>2020-12-20T08:04:56.205000+00:00</time>
      </trkpt>
      <trkpt lat="47.30129" lon="-1.38485">
        <ele>123</ele>
        <time>2020-12-20T08:04:57.153000+00:00</time>
      </trkpt>
      <trkpt lat="0" lon="0">
        <time>2020-12-20T08:04:57.161000+00:00</time>
      </trkpt>
      <trkpt lat="0" lon="0">
        <time>2020-12-20T08:04:57.163000+00:00</time>
      </trkpt>
      <trkpt lat="47.30122" lon="-1.38475">
        <ele>123</ele>
        <time>2020-12-20T08:04:58.192000+00:00</time>
      </trkpt>
      <trkpt lat="0" lon="0">
        <time>2020-12-20T08:04:58.208000+00:00</time>
      </trkpt>
      <trkpt lat="0" lon="0">
        <time>2020-12-20T08:04:58.213000+00:00</time>
      </trkpt>
      <trkpt lat="0" lon="0">
        <time>2020-12-20T08:04:58.219000+00:00</time>
      </trkpt>
      <trkpt lat="47.30116" lon="-1.38465">
        <ele>123</ele>
        <time>2020-12-20T08:04:59.112000+00:00</time>
      </trkpt>
      <trkpt lat="0" lon="0">
        <time>2020-12-20T08:04:59.116000+00:00</time>
      </trkpt>
      <trkpt lat="0" lon="0">
        <time>2020-12-20T08:04:59.118000+00:00</time>
      </trkpt>
      <trkpt lat="0" lon="0">
        <time>2020-12-20T08:04:59.119000+00:00</time>
      </trkpt>
      <trkpt lat="47.30109" lon="-1.38455">
        <ele>123</ele>
        <time>2020-12-20T08:05:00.099000+00:00</time>
      </trkpt>
      <trkpt lat="0" lon="0">
        <time>2020-12-20T08:05:00.101000+00:00</time>
      </trkpt>
      <trkpt lat="0" lon="0">
        <time>2020-12-20T08:05:00.102000+00:00</time>
      </trkpt>
      <trkpt lat="0" lon="0">
        <time>2020-12-20T08:05:00.103000+00:00</time>
      </trkpt>
      <trkpt lat="47.30103" lon="-1.38445">
        <ele>122</ele>
        <time>2020-12-20T08:05:01.171000+00:00</time>
      </trkpt>
      <trkpt lat="0" lon="0">
        <time>2020-12-20T08:05:01.179000+00:00</time>
      </trkpt>
      <trkpt lat="0" lon="0">
        <time>2020-12-20T08:05:01.193000+00:00</time>
      </trkpt>
      <trkpt lat="0" lon="0">
        <time>2020-12-20T08:05:01.195000+00:00</time>
      </trkpt>
      <trkpt lat="47.30097" lon="-1.38436">
        <ele>122</ele>
        <time>2020-12-20T08:05:02.221000+00:00</time>
      </trkpt>
      <trkpt lat="0" lon="0">
        <time>2020-12-20T08:05:02.227000+00:00</time>
      </trkpt>
      <trkpt lat="0" lon="0">
        <time>2020-12-20T08:05:02.231000+00:00</time>
      </trkpt>
      <trkpt lat="0" lon="0">
        <time>2020-12-20T08:05:02.234000+00:00</time>
      </trkpt>
      <trkpt lat="47.30092" lon="-1.38429">
        <ele>122</ele>
        <time>2020-12-20T08:05:03.185000+00:00</time>
      </trkpt>
      <trkpt lat="0" lon="0">
        <time>2020-12-20T08:05:03.191000+00:00</time>
      </trkpt>
      <trkpt lat="0" lon="0">
        <time>2020-12-20T08:05:03.202000+00:00</time>
      </trkpt>
      <trkpt lat="0" lon="0">
        <time>2020-12-20T08:05:03.204000+00:00</time>
      </trkpt>
      <trkpt lat="47.30087" lon="-1.38424">
        <ele>121</ele>
        <time>2020-12-20T08:05:04.182000+00:00</time>
      </trkpt>
      <trkpt lat="0" lon="0">
        <time>2020-12-20T08:05:04.189000+00:00</time>
      </trkpt>
      <trkpt lat="0" lon="0">
        <time>2020-12-20T08:05:04.201000+00:00</time>
      </trkpt>
      <trkpt lat="0" lon="0">
        <time>2020-12-20T08:05:04.203000+00:00</time>
      </trkpt>
      <trkpt lat="47.30084" lon="-1.38422">
        <ele>121</ele>
        <time>2020-12-20T08:05:05.181000+00:00</time>
      </trkpt>
      <trkpt lat="0" lon="0">
        <time>2020-12-20T08:05:05.189000+00:00</time>
      </trkpt>
      <trkpt lat="0" lon="0">
        <time>2020-12-20T08:05:05.195000+00:00</time>
      </trkpt>
      <trkpt lat="0" lon="0">
        <time>2020-12-20T08:05:05.197000+00:00</time>
      </trkpt>
      <trkpt lat="47.30081" lon="-1.38422">
        <ele>121</ele>
        <time>2020-12-20T08:05:06.168000+00:00</time>
      </trkpt>
      <trkpt lat="0" lon="0">
        <time>2020-12-20T08:05:06.182000+00:00</time>
      </trkpt>
      <trkpt lat="0" lon="0">
        <time>2020-12-20T08:05:06.186000+00:00</time>
      </trkpt>
      <trkpt lat="0" lon="0">
        <time>2020-12-20T08:05:06.189000+00:00</time>
      </trkpt>
      <trkpt lat="47.30078" lon="-1.38424">
        <ele>121</ele>
        <time>2020-12-20T08:05:07.195000+00:00</time>
      </trkpt>
      <trkpt lat="0" lon="0">
        <time>2020-12-20T08:05:07.201000+00:00</time>
      </trkpt>
      <trkpt lat="0" lon="0">
        <time>2020-12-20T08:05:07.206000+00:00</time>
      </trkpt>
      <trkpt lat="0" lon="0">
        <time>2020-12-20T08:05:07.208000+00:00</time>
      </trkpt>
      <trkpt lat="47.30076" lon="-1.38426">
        <ele>120</ele>
        <time>2020-12-20T08:05:08.157000+00:00</time>
      </trkpt>
      <trkpt lat="0" lon="0">
        <time>2020-12-20T08:05:08.167000+00:00</time>
      </trkpt>
      <trkpt lat="0" lon="0">
        <time>2020-12-20T08:05:08.175000+00:00</time>
      </trkpt>
      <trkpt lat="0" lon="0">
        <time>2020-12-20T08:05:08.179000+00:00</time>
      </trkpt>
      <trkpt lat="47.30075" lon="-1.3843">
        <ele>120</ele>
        <time>2020-12-20T08:05:09.134000+00:00</time>
      </trkpt>
      <trkpt lat="0" lon="0">
        <time>2020-12-20T08:05:09.141000+00:00</time>
      </trkpt>
      <trkpt lat="0" lon="0">
        <time>2020-12-20T08:05:09.150000+00:00</time>
      </trkpt>
      <trkpt lat="0" lon="0">
        <time>2020-12-20T08:05:09.152000+00:00</time>
      </trkpt>
      <trkpt lat="47.30074" lon="-1.38434">
        <ele>120</ele>
        <time>2020-12-20T08:05:10.178000+00:00</time>
      </trkpt>
      <trkpt lat="0" lon="0">
        <time>2020-12-20T08:05:10.195000+00:00</time>
      </trkpt>
      <trkpt lat="0" lon="0">
        <time>2020-12-20T08:05:10.199000+00:00</time>
      </trkpt>
      <trkpt lat="0" lon="0">
        <time>2020-12-20T08:05:10.202000+00:00</time>
      </trkpt>
      <trkpt lat="47.30073" lon="-1.38439">
        <ele>120</ele>
        <time>2020-12-20T08:05:11.209000+00:00</time>
      </trkpt>
      <trkpt lat="0" lon="0">
        <time>2020-12-20T08:05:11.217000+00:00</time>
      </trkpt>
      <trkpt lat="0" lon="0">
        <time>2020-12-20T08:05:11.223000+00:00</time>
      </trkpt>
      <trkpt lat="0" lon="0">
        <time>2020-12-20T08:05:11.225000+00:00</time>
      </trkpt>
      <trkpt lat="47.30071" lon="-1.38442">
        <ele>121</ele>
        <time>2020-12-20T08:05:12.205000+00:00</time>
      </trkpt>
      <trkpt lat="0" lon="0">
        <time>2020-12-20T08:05:12.209000+00:00</time>
      </trkpt>
      <trkpt lat="0" lon="0">
        <time>2020-12-20T08:05:12.220000+00:00</time>
      </trkpt>
      <trkpt lat="0" lon="0">
        <time>2020-12-20T08:05:12.223000+00:00</time>
      </trkpt>
      <trkpt lat="47.3007" lon="-1.38446">
        <ele>121</ele>
        <time>2020-12-20T08:05:13.177000+00:00</time>
      </trkpt>
      <trkpt lat="0" lon="0">
        <time>2020-12-20T08:05:13.185000+00:00</time>
      </trkpt>
      <trkpt lat="0" lon="0">
        <time>2020-12-20T08:05:13.193000+00:00</time>
      </trkpt>
      <trkpt lat="0" lon="0">
        <time>2020-12-20T08:05:13.196000+00:00</time>
      </trkpt>
      <trkpt lat="47.30067" lon="-1.38448">
        <ele>121</ele>
        <time>2020-12-20T08:05:14.147000+00:00</time>
      </trkpt>
      <trkpt lat="0" lon="0">
        <time>2020-12-20T08:05:14.153000+00:00</time>
      </trkpt>
      <trkpt lat="0" lon="0">
        <time>2020-12-20T08:05:14.160000+00:00</time>
      </trkpt>
      <trkpt lat="0" lon="0">
        <time>2020-12-20T08:05:14.161000+00:00</time>
      </trkpt>
      <trkpt lat="47.30065" lon="-1.3845">
        <ele>121</ele>
        <time>2020-12-20T08:05:15.178000+00:00</time>
      </trkpt>
      <trkpt lat="0" lon="0">
        <time>2020-12-20T08:05:15.197000+00:00</time>
      </trkpt>
      <trkpt lat="0" lon="0">
        <time>2020-12-20T08:05:15.208000+00:00</time>
      </trkpt>
      <trkpt lat="0" lon="0">
        <time>2020-12-20T08:05:15.212000+00:00</time>
      </trkpt>
      <trkpt lat="47.30063" lon="-1.38451">
        <ele>121</ele>
        <time>2020-12-20T08:05:16.188000+00:00</time>
      </trkpt>
      <trkpt lat="0" lon="0">
        <time>2020-12-20T08:05:16.204000+00:00</time>
      </trkpt>
      <trkpt lat="0" lon="0">
        <time>2020-12-20T08:05:16.208000+00:00</time>
      </trkpt>
      <trkpt lat="0" lon="0">
        <time>2020-12-20T08:05:16.211000+00:00</time>
      </trkpt>
      <trkpt lat="47.3006" lon="-1.38452">
        <ele>121</ele>
        <time>2020-12-20T08:05:17.162000+00:00</time>
      </trkpt>
      <trkpt lat="0" lon="0">
        <time>2020-12-20T08:05:17.173000+00:00</time>
      </trkpt>
      <trkpt lat="0" lon="0">
        <time>2020-12-20T08:05:17.181000+00:00</time>
      </trkpt>
      <trkpt lat="0" lon="0">
        <time>2020-12-20T08:05:17.184000+00:00</time>
      </trkpt>
      <trkpt lat="47.30058" lon="-1.38453">
        <ele>121</ele>
        <time>2020-12-20T08:05:18.208000+00:00</time>
      </trkpt>
      <trkpt lat="0" lon="0">
        <time>2020-12-20T08:05:18.229000+00:00</time>
      </trkpt>
      <trkpt lat="0" lon="0">
        <time>2020-12-20T08:05:18.236000+00:00</time>
      </trkpt>
      <trkpt lat="0" lon="0">
        <time>2020-12-20T08:05:18.244000+00:00</time>
      </trkpt>
      <trkpt lat="47.30055" lon="-1.38453">
        <ele>122</ele>
        <time>2020-12-20T08:05:19.191000+00:00</time>
      </trkpt>
      <trkpt lat="0" lon="0">
        <time>2020-12-20T08:05:19.214000+00:00</time>
      </trkpt>
      <trkpt lat="0" lon="0">
        <time>2020-12-20T08:05:19.219000+00:00</time>
      </trkpt>
      <trkpt lat="0" lon="0">
        <time>2020-12-20T08:05:19.221000+00:00</time>
      </trkpt>
      <trkpt lat="47.30052" lon="-1.38454">
        <ele>122</ele>
        <time>2020-12-20T08:05:20.164000+00:00</time>
      </trkpt>
      <trkpt lat="0" lon="0">
        <time>2020-12-20T08:05:20.169000+00:00</time>
      </trkpt>
      <trkpt lat="0" lon="0">
        <time>2020-12-20T08:05:20.176000+00:00</time>
      </trkpt>
      <trkpt lat="0" lon="0">
        <time>2020-12-20T08:05:20.178000+00:00</time>
      </trkpt>
      <trkpt lat="47.30049" lon="-1.38454">
        <ele>122</ele>
        <time>2020-12-20T08:05:21.229000+00:00</time>
      </trkpt>
      <trkpt lat="0" lon="0">
        <time>2020-12-20T08:05:21.234000+00:00</time>
      </trkpt>
      <trkpt lat="0" lon="0">
        <time>2020-12-20T08:05:21.241000+00:00</time>
      </trkpt>
      <trkpt lat="0" lon="0">
        <time>2020-12-20T08:05:21.244000+00:00</time>
      </trkpt>
      <trkpt lat="47.30046" lon="-1.38455">
        <ele>122</ele>
        <time>2020-12-20T08:05:22.192000+00:00</time>
      </trkpt>
      <trkpt lat="0" lon="0">
        <time>2020-12-20T08:05:22.211000+00:00</time>
      </trkpt>
      <trkpt lat="0" lon="0">
        <time>2020-12-20T08:05:22.217000+00:00</time>
      </trkpt>
      <trkpt lat="0" lon="0">
        <time>2020-12-20T08:05:22.219000+00:00</time>
      </trkpt>
      <trkpt lat="47.30042" lon="-1.38457">
        <ele>122</ele>
        <time>2020-12-20T08:05:23.196000+00:00</time>
      </trkpt>
      <trkpt lat="0" lon="0">
        <time>2020-12-20T08:05:23.201000+00:00</time>
      </trkpt>
      <trkpt lat="0" lon="0">
        <time>2020-12-20T08:05:23.206000+00:00</time>
      </trkpt>
      <trkpt lat="0" lon="0">
        <time>2020-12-20T08:05:23.208000+00:00</time>
      </trkpt>
      <trkpt lat="47.30039" lon="-1.38459">
        <ele>122</ele>
        <time>2020-12-20T08:05:24.213000+00:00</time>
      </trkpt>
      <trkpt lat="0" lon="0">
        <time>2020-12-20T08:05:24.225000+00:00</time>
      </trkpt>
      <trkpt lat="0" lon="0">
        <time>2020-12-20T08:05:24.232000+00:00</time>
      </trkpt>
      <trkpt lat="0" lon="0">
        <time>2020-12-20T08:05:24.234000+00:00</time>
      </trkpt>
      <trkpt lat="47.30035" lon="-1.3846">
        <ele>122</ele>
        <time>2020-12-20T08:05:25.213000+00:00</time>
      </trkpt>
      <trkpt lat="0" lon="0">
        <time>2020-12-20T08:05:25.228000+00:00</time>
      </trkpt>
      <trkpt lat="0" lon="0">
        <time>2020-12-20T08:05:25.234000+00:00</time>
      </trkpt>
      <trkpt lat="0" lon="0">
        <time>2020-12-20T08:05:25.237000+00:00</time>
      </trkpt>
      <trkpt lat="47.3003" lon="-1.38461">
        <ele>121</ele>
        <time>2020-12-20T08:05:26.194000+00:00</time>
      </trkpt>
      <trkpt lat="0" lon="0">
        <time>2020-12-20T08:05:26.196000+00:00</time>
      </trkpt>
      <trkpt lat="0" lon="0">
        <time>2020-12-20T08:05:26.198000+00:00</time>
      </trkpt>
      <trkpt lat="0" lon="0">
        <time>2020-12-20T08:05:26.199000+00:00</time>
      </trkpt>
      <trkpt lat="47.30026" lon="-1.38462">
        <ele>121</ele>
        <time>2020-12-20T08:05:27.173000+00:00</time>
      </trkpt>
      <trkpt lat="0" lon="0">
        <time>2020-12-20T08:05:27.184000+00:00</time>
      </trkpt>
      <trkpt lat="0" lon="0">
        <time>2020-12-20T08:05:27.189000+00:00</time>
      </trkpt>
      <trkpt lat="0" lon="0">
        <time>2020-12-20T08:05:27.192000+00:00</time>
      </trkpt>
      <trkpt lat="47.30021" lon="-1.38462">
        <ele>121</ele>
        <time>2020-12-20T08:05:28.237000+00:00</time>
      </trkpt>
      <trkpt lat="0" lon="0">
        <time>2020-12-20T08:05:28.246000+00:00</time>
      </trkpt>
      <trkpt lat="0" lon="0">
        <time>2020-12-20T08:05:28.260000+00:00</time>
      </trkpt>
      <trkpt lat="0" lon="0">
        <time>2020-12-20T08:05:28.267000+00:00</time>
      </trkpt>
      <trkpt lat="47.30015" lon="-1.38462">
        <ele>120</ele>
        <time>2020-12-20T08:05:29.213000+00:00</time>
      </trkpt>
      <trkpt lat="0" lon="0">
        <time>2020-12-20T08:05:29.233000+00:00</time>
      </trkpt>
      <trkpt lat="0" lon="0">
        <time>2020-12-20T08:05:29.239000+00:00</time>
      </trkpt>
      <trkpt lat="0" lon="0">
        <time>2020-12-20T08:05:29.241000+00:00</time>
      </trkpt>
      <trkpt lat="47.30009" lon="-1.38463">
        <ele>120</ele>
        <time>2020-12-20T08:05:30.189000+00:00</time>
      </trkpt>
      <trkpt lat="0" lon="0">
        <time>2020-12-20T08:05:30.193000+00:00</time>
      </trkpt>
      <trkpt lat="0" lon="0">
        <time>2020-12-20T08:05:30.196000+00:00</time>
      </trkpt>
      <trkpt lat="0" lon="0">
        <time>2020-12-20T08:05:30.197000+00:00</time>
      </trkpt>
      <trkpt lat="47.30003" lon="-1.38463">
        <ele>119</ele>
        <time>2020-12-20T08:05:31.230000+00:00</time>
      </trkpt>
      <trkpt lat="0" lon="0">
        <time>2020-12-20T08:05:31.240000+00:00</time>
      </trkpt>
      <trkpt lat="0" lon="0">
        <time>2020-12-20T08:05:31.244000+00:00</time>
      </trkpt>
      <trkpt lat="0" lon="0">
        <time>2020-12-20T08:05:31.246000+00:00</time>
      </trkpt>
      <trkpt lat="47.29996" lon="-1.38463">
        <ele>119</ele>
        <time>2020-12-20T08:05:32.222000+00:00</time>
      </trkpt>
      <trkpt lat="0" lon="0">
        <time>2020-12-20T08:05:32.231000+00:00</time>
      </trkpt>
      <trkpt lat="0" lon="0">
        <time>2020-12-20T08:05:32.235000+00:00</time>
      </trkpt>
      <trkpt lat="0" lon="0">
        <time>2020-12-20T08:05:32.237000+00:00</time>
      </trkpt>
      <trkpt lat="47.2999" lon="-1.38463">
        <ele>119</ele>
        <time>2020-12-20T08:05:33.203000+00:00</time>
      </trkpt>
      <trkpt lat="0" lon="0">
        <time>2020-12-20T08:05:33.214000+00:00</time>
      </trkpt>
      <trkpt lat="0" lon="0">
        <time>2020-12-20T08:05:33.220000+00:00</time>
      </trkpt>
      <trkpt lat="0" lon="0">
        <time>2020-12-20T08:05:33.222000+00:00</time>
      </trkpt>
      <trkpt lat="47.29983" lon="-1.38463">
        <ele>118</ele>
        <time>2020-12-20T08:05:34.178000+00:00</time>
      </trkpt>
      <trkpt lat="0" lon="0">
        <time>2020-12-20T08:05:34.190000+00:00</time>
      </trkpt>
      <trkpt lat="0" lon="0">
        <time>2020-12-20T08:05:34.196000+00:00</time>
      </trkpt>
      <trkpt lat="0" lon="0">
        <time>2020-12-20T08:05:34.198000+00:00</time>
      </trkpt>
      <trkpt lat="47.29976" lon="-1.38463">
        <ele>118</ele>
        <time>2020-12-20T08:05:35.184000+00:00</time>
      </trkpt>
      <trkpt lat="0" lon="0">
        <time>2020-12-20T08:05:35.192000+00:00</time>
      </trkpt>
      <trkpt lat="0" lon="0">
        <time>2020-12-20T08:05:35.197000+00:00</time>
      </trkpt>
      <trkpt lat="0" lon="0">
        <time>2020-12-20T08:05:35.199000+00:00</time>
      </trkpt>
      <trkpt lat="47.2997" lon="-1.38462">
        <ele>118</ele>
        <time>2020-12-20T08:05:36.173000+00:00</time>
      </trkpt>
      <trkpt lat="0" lon="0">
        <time>2020-12-20T08:05:36.182000+00:00</time>
      </trkpt>
      <trkpt lat="0" lon="0">
        <time>2020-12-20T08:05:36.184000+00:00</time>
      </trkpt>
      <trkpt lat="0" lon="0">
        <time>2020-12-20T08:05:36.186000+00:00</time>
      </trkpt>
      <trkpt lat="47.29964" lon="-1.38462">
        <ele>118</ele>
        <time>2020-12-20T08:05:37.211000+00:00</time>
      </trkpt>
      <trkpt lat="0" lon="0">
        <time>2020-12-20T08:05:37.215000+00:00</time>
      </trkpt>
      <trkpt lat="0" lon="0">
        <time>2020-12-20T08:05:37.220000+00:00</time>
      </trkpt>
      <trkpt lat="0" lon="0">
        <time>2020-12-20T08:05:37.221000+00:00</time>
      </trkpt>
      <trkpt lat="47.29959" lon="-1.38462">
        <ele>118</ele>
        <time>2020-12-20T08:05:38.210000+00:00</time>
      </trkpt>
      <trkpt lat="0" lon="0">
        <time>2020-12-20T08:05:38.220000+00:00</time>
      </trkpt>
      <trkpt lat="0" lon="0">
        <time>2020-12-20T08:05:38.225000+00:00</time>
      </trkpt>
      <trkpt lat="0" lon="0">
        <time>2020-12-20T08:05:38.228000+00:00</time>
      </trkpt>
      <trkpt lat="47.29954" lon="-1.38462">
        <ele>118</ele>
        <time>2020-12-20T08:05:39.195000+00:00</time>
      </trkpt>
      <trkpt lat="0" lon="0">
        <time>2020-12-20T08:05:39.200000+00:00</time>
      </trkpt>
      <trkpt lat="0" lon="0">
        <time>2020-12-20T08:05:39.213000+00:00</time>
      </trkpt>
      <trkpt lat="0" lon="0">
        <time>2020-12-20T08:05:39.220000+00:00</time>
      </trkpt>
      <trkpt lat="47.2995" lon="-1.38461">
        <ele>117</ele>
        <time>2020-12-20T08:05:40.205000+00:00</time>
      </trkpt>
      <trkpt lat="0" lon="0">
        <time>2020-12-20T08:05:40.210000+00:00</time>
      </trkpt>
      <trkpt lat="0" lon="0">
        <time>2020-12-20T08:05:40.215000+00:00</time>
      </trkpt>
      <trkpt lat="0" lon="0">
        <time>2020-12-20T08:05:40.217000+00:00</time>
      </trkpt>
      <trkpt lat="47.29946" lon="-1.38461">
        <ele>118</ele>
        <time>2020-12-20T08:05:41.202000+00:00</time>
      </trkpt>
      <trkpt lat="0" lon="0">
        <time>2020-12-20T08:05:41.211000+00:00</time>
      </trkpt>
      <trkpt lat="0" lon="0">
        <time>2020-12-20T08:05:41.216000+00:00</time>
      </trkpt>
      <trkpt lat="0" lon="0">
        <time>2020-12-20T08:05:41.218000+00:00</time>
      </trkpt>
      <trkpt lat="47.29943" lon="-1.3846">
        <ele>118</ele>
        <time>2020-12-20T08:05:42.205000+00:00</time>
      </trkpt>
      <trkpt lat="0" lon="0">
        <time>2020-12-20T08:05:42.224000+00:00</time>
      </trkpt>
      <trkpt lat="0" lon="0">
        <time>2020-12-20T08:05:42.230000+00:00</time>
      </trkpt>
      <trkpt lat="0" lon="0">
        <time>2020-12-20T08:05:42.233000+00:00</time>
      </trkpt>
      <trkpt lat="47.2994" lon="-1.3846">
        <ele>118</ele>
        <time>2020-12-20T08:05:43.196000+00:00</time>
      </trkpt>
      <trkpt lat="0" lon="0">
        <time>2020-12-20T08:05:43.206000+00:00</time>
      </trkpt>
      <trkpt lat="0" lon="0">
        <time>2020-12-20T08:05:43.222000+00:00</time>
      </trkpt>
      <trkpt lat="0" lon="0">
        <time>2020-12-20T08:05:43.224000+00:00</time>
      </trkpt>
      <trkpt lat="47.29938" lon="-1.3846">
        <ele>118</ele>
        <time>2020-12-20T08:05:44.165000+00:00</time>
      </trkpt>
      <trkpt lat="0" lon="0">
        <time>2020-12-20T08:05:44.171000+00:00</time>
      </trkpt>
      <trkpt lat="0" lon="0">
        <time>2020-12-20T08:05:44.181000+00:00</time>
      </trkpt>
      <trkpt lat="0" lon="0">
        <time>2020-12-20T08:05:44.184000+00:00</time>
      </trkpt>
      <trkpt lat="47.29935" lon="-1.3846">
        <ele>118</ele>
        <time>2020-12-20T08:05:45.189000+00:00</time>
      </trkpt>
      <trkpt lat="0" lon="0">
        <time>2020-12-20T08:05:45.202000+00:00</time>
      </trkpt>
      <trkpt lat="0" lon="0">
        <time>2020-12-20T08:05:45.223000+00:00</time>
      </trkpt>
      <trkpt lat="0" lon="0">
        <time>2020-12-20T08:05:45.225000+00:00</time>
      </trkpt>
      <trkpt lat="47.29933" lon="-1.3846">
        <ele>118</ele>
        <time>2020-12-20T08:05:46.227000+00:00</time>
      </trkpt>
      <trkpt lat="0" lon="0">
        <time>2020-12-20T08:05:46.232000+00:00</time>
      </trkpt>
      <trkpt lat="0" lon="0">
        <time>2020-12-20T08:05:46.238000+00:00</time>
      </trkpt>
      <trkpt lat="0" lon="0">
        <time>2020-12-20T08:05:46.240000+00:00</time>
      </trkpt>
      <trkpt lat="47.2993" lon="-1.38461">
        <ele>118</ele>
        <time>2020-12-20T08:05:47.208000+00:00</time>
      </trkpt>
      <trkpt lat="0" lon="0">
        <time>2020-12-20T08:05:47.220000+00:00</time>
      </trkpt>
      <trkpt lat="0" lon="0">
        <time>2020-12-20T08:05:47.223000+00:00</time>
      </trkpt>
      <trkpt lat="0" lon="0">
        <time>2020-12-20T08:05:47.224000+00:00</time>
      </trkpt>
      <trkpt lat="47.29927" lon="-1.38462">
        <ele>118</ele>
        <time>2020-12-20T08:05:48.227000+00:00</time>
      </trkpt>
      <trkpt lat="0" lon="0">
        <time>2020-12-20T08:05:48.244000+00:00</time>
      </trkpt>
      <trkpt lat="0" lon="0">
        <time>2020-12-20T08:05:48.252000+00:00</time>
      </trkpt>
      <trkpt lat="0" lon="0">
        <time>2020-12-20T08:05:48.259000+00:00</time>
      </trkpt>
      <trkpt lat="47.29925" lon="-1.38464">
        <ele>118</ele>
        <time>2020-12-20T08:05:49.201000+00:00</time>
      </trkpt>
      <trkpt lat="0" lon="0">
        <time>2020-12-20T08:05:49.211000+00:00</time>
      </trkpt>
      <trkpt lat="0" lon="0">
        <time>2020-12-20T08:05:49.218000+00:00</time>
      </trkpt>
      <trkpt lat="0" lon="0">
        <time>2020-12-20T08:05:49.223000+00:00</time>
      </trkpt>
      <trkpt lat="47.29922" lon="-1.38466">
        <ele>118</ele>
        <time>2020-12-20T08:05:50.209000+00:00</time>
      </trkpt>
      <trkpt lat="0" lon="0">
        <time>2020-12-20T08:05:50.226000+00:00</time>
      </trkpt>
      <trkpt lat="0" lon="0">
        <time>2020-12-20T08:05:50.229000+00:00</time>
      </trkpt>
      <trkpt lat="0" lon="0">
        <time>2020-12-20T08:05:50.231000+00:00</time>
      </trkpt>
      <trkpt lat="47.29919" lon="-1.38468">
        <ele>118</ele>
        <time>2020-12-20T08:05:51.209000+00:00</time>
      </trkpt>
      <trkpt lat="0" lon="0">
        <time>2020-12-20T08:05:51.229000+00:00</time>
      </trkpt>
      <trkpt lat="0" lon="0">
        <time>2020-12-20T08:05:51.233000+00:00</time>
      </trkpt>
      <trkpt lat="0" lon="0">
        <time>2020-12-20T08:05:51.235000+00:00</time>
      </trkpt>
      <trkpt lat="47.29916" lon="-1.38471">
        <ele>118</ele>
        <time>2020-12-20T08:05:52.199000+00:00</time>
      </trkpt>
      <trkpt lat="0" lon="0">
        <time>2020-12-20T08:05:52.209000+00:00</time>
      </trkpt>
      <trkpt lat="0" lon="0">
        <time>2020-12-20T08:05:52.214000+00:00</time>
      </trkpt>
      <trkpt lat="0" lon="0">
        <time>2020-12-20T08:05:52.217000+00:00</time>
      </trkpt>
      <trkpt lat="47.29913" lon="-1.38473">
        <ele>118</ele>
        <time>2020-12-20T08:05:53.197000+00:00</time>
      </trkpt>
      <trkpt lat="0" lon="0">
        <time>2020-12-20T08:05:53.205000+00:00</time>
      </trkpt>
      <trkpt lat="0" lon="0">
        <time>2020-12-20T08:05:53.209000+00:00</time>
      </trkpt>
      <trkpt lat="0" lon="0">
        <time>2020-12-20T08:05:53.211000+00:00</time>
      </trkpt>
      <trkpt lat="47.29909" lon="-1.38476">
        <ele>117</ele>
        <time>2020-12-20T08:05:54.219000+00:00</time>
      </trkpt>
      <trkpt lat="0" lon="0">
        <time>2020-12-20T08:05:54.227000+00:00</time>
      </trkpt>
      <trkpt lat="0" lon="0">
        <time>2020-12-20T08:05:54.229000+00:00</time>
      </trkpt>
      <trkpt lat="0" lon="0">
        <time>2020-12-20T08:05:54.230000+00:00</time>
      </trkpt>
      <trkpt lat="47.29905" lon="-1.38478">
        <ele>117</ele>
        <time>2020-12-20T08:05:55.217000+00:00</time>
      </trkpt>
      <trkpt lat="0" lon="0">
        <time>2020-12-20T08:05:55.222000+00:00</time>
      </trkpt>
      <trkpt lat="0" lon="0">
        <time>2020-12-20T08:05:55.226000+00:00</time>
      </trkpt>
      <trkpt lat="0" lon="0">
        <time>2020-12-20T08:05:55.229000+00:00</time>
      </trkpt>
      <trkpt lat="47.299" lon="-1.3848">
        <ele>117</ele>
        <time>2020-12-20T08:05:56.189000+00:00</time>
      </trkpt>
      <trkpt lat="0" lon="0">
        <time>2020-12-20T08:05:56.225000+00:00</time>
      </trkpt>
      <trkpt lat="0" lon="0">
        <time>2020-12-20T08:05:56.231000+00:00</time>
      </trkpt>
      <trkpt lat="0" lon="0">
        <time>2020-12-20T08:05:56.233000+00:00</time>
      </trkpt>
      <trkpt lat="47.29895" lon="-1.38482">
        <ele>117</ele>
        <time>2020-12-20T08:05:57.237000+00:00</time>
      </trkpt>
      <trkpt lat="0" lon="0">
        <time>2020-12-20T08:05:57.241000+00:00</time>
      </trkpt>
      <trkpt lat="0" lon="0">
        <time>2020-12-20T08:05:57.249000+00:00</time>
      </trkpt>
      <trkpt lat="0" lon="0">
        <time>2020-12-20T08:05:57.251000+00:00</time>
      </trkpt>
      <trkpt lat="47.2989" lon="-1.38484">
        <ele>117</ele>
        <time>2020-12-20T08:05:58.209000+00:00</time>
      </trkpt>
      <trkpt lat="0" lon="0">
        <time>2020-12-20T08:05:58.215000+00:00</time>
      </trkpt>
      <trkpt lat="0" lon="0">
        <time>2020-12-20T08:05:58.220000+00:00</time>
      </trkpt>
      <trkpt lat="0" lon="0">
        <time>2020-12-20T08:05:58.222000+00:00</time>
      </trkpt>
      <trkpt lat="47.29886" lon="-1.38487">
        <ele>117</ele>
        <time>2020-12-20T08:05:59.229000+00:00</time>
      </trkpt>
      <trkpt lat="0" lon="0">
        <time>2020-12-20T08:05:59.246000+00:00</time>
      </trkpt>
      <trkpt lat="0" lon="0">
        <time>2020-12-20T08:05:59.253000+00:00</time>
      </trkpt>
      <trkpt lat="0" lon="0">
        <time>2020-12-20T08:05:59.257000+00:00</time>
      </trkpt>
      <trkpt lat="47.29883" lon="-1.3849">
        <ele>117</ele>
        <time>2020-12-20T08:06:00.189000+00:00</time>
      </trkpt>
      <trkpt lat="0" lon="0">
        <time>2020-12-20T08:06:00.211000+00:00</time>
      </trkpt>
      <trkpt lat="0" lon="0">
        <time>2020-12-20T08:06:00.216000+00:00</time>
      </trkpt>
      <trkpt lat="0" lon="0">
        <time>2020-12-20T08:06:00.221000+00:00</time>
      </trkpt>
      <trkpt lat="47.2988" lon="-1.38494">
        <ele>117</ele>
        <time>2020-12-20T08:06:01.188000+00:00</time>
      </trkpt>
      <trkpt lat="0" lon="0">
        <time>2020-12-20T08:06:01.194000+00:00</time>
      </trkpt>
      <trkpt lat="0" lon="0">
        <time>2020-12-20T08:06:01.198000+00:00</time>
      </trkpt>
      <trkpt lat="0" lon="0">
        <time>2020-12-20T08:06:01.201000+00:00</time>
      </trkpt>
      <trkpt lat="47.29878" lon="-1.38499">
        <ele>117</ele>
        <time>2020-12-20T08:06:02.203000+00:00</time>
      </trkpt>
      <trkpt lat="0" lon="0">
        <time>2020-12-20T08:06:02.224000+00:00</time>
      </trkpt>
      <trkpt lat="0" lon="0">
        <time>2020-12-20T08:06:02.228000+00:00</time>
      </trkpt>
      <trkpt lat="0" lon="0">
        <time>2020-12-20T08:06:02.231000+00:00</time>
      </trkpt>
      <trkpt lat="47.29875" lon="-1.38503">
        <ele>117</ele>
        <time>2020-12-20T08:06:03.147000+00:00</time>
      </trkpt>
      <trkpt lat="0" lon="0">
        <time>2020-12-20T08:06:03.156000+00:00</time>
      </trkpt>
      <trkpt lat="0" lon="0">
        <time>2020-12-20T08:06:03.166000+00:00</time>
      </trkpt>
      <trkpt lat="0" lon="0">
        <time>2020-12-20T08:06:03.172000+00:00</time>
      </trkpt>
      <trkpt lat="47.29873" lon="-1.38507">
        <ele>117</ele>
        <time>2020-12-20T08:06:04.189000+00:00</time>
      </trkpt>
      <trkpt lat="0" lon="0">
        <time>2020-12-20T08:06:04.195000+00:00</time>
      </trkpt>
      <trkpt lat="0" lon="0">
        <time>2020-12-20T08:06:04.201000+00:00</time>
      </trkpt>
      <trkpt lat="0" lon="0">
        <time>2020-12-20T08:06:04.203000+00:00</time>
      </trkpt>
      <trkpt lat="47.29871" lon="-1.38511">
        <ele>117</ele>
        <time>2020-12-20T08:06:05.198000+00:00</time>
      </trkpt>
      <trkpt lat="0" lon="0">
        <time>2020-12-20T08:06:05.218000+00:00</time>
      </trkpt>
      <trkpt lat="0" lon="0">
        <time>2020-12-20T08:06:05.220000+00:00</time>
      </trkpt>
      <trkpt lat="0" lon="0">
        <time>2020-12-20T08:06:05.222000+00:00</time>
      </trkpt>
      <trkpt lat="47.29869" lon="-1.38515">
        <ele>117</ele>
        <time>2020-12-20T08:06:06.205000+00:00</time>
      </trkpt>
      <trkpt lat="0" lon="0">
        <time>2020-12-20T08:06:06.212000+00:00</time>
      </trkpt>
      <trkpt lat="0" lon="0">
        <time>2020-12-20T08:06:06.217000+00:00</time>
      </trkpt>
      <trkpt lat="0" lon="0">
        <time>2020-12-20T08:06:06.222000+00:00</time>
      </trkpt>
      <trkpt lat="47.29867" lon="-1.38519">
        <ele>116</ele>
        <time>2020-12-20T08:06:07.200000+00:00</time>
      </trkpt>
      <trkpt lat="0" lon="0">
        <time>2020-12-20T08:06:07.207000+00:00</time>
      </trkpt>
      <trkpt lat="0" lon="0">
        <time>2020-12-20T08:06:07.216000+00:00</time>
      </trkpt>
      <trkpt lat="0" lon="0">
        <time>2020-12-20T08:06:07.218000+00:00</time>
      </trkpt>
      <trkpt lat="47.29865" lon="-1.38522">
        <ele>116</ele>
        <time>2020-12-20T08:06:08.203000+00:00</time>
      </trkpt>
      <trkpt lat="0" lon="0">
        <time>2020-12-20T08:06:08.219000+00:00</time>
      </trkpt>
      <trkpt lat="0" lon="0">
        <time>2020-12-20T08:06:08.225000+00:00</time>
      </trkpt>
      <trkpt lat="0" lon="0">
        <time>2020-12-20T08:06:08.228000+00:00</time>
      </trkpt>
      <trkpt lat="47.29861" lon="-1.38525">
        <ele>116</ele>
        <time>2020-12-20T08:06:09.142000+00:00</time>
      </trkpt>
      <trkpt lat="0" lon="0">
        <time>2020-12-20T08:06:09.150000+00:00</time>
      </trkpt>
      <trkpt lat="0" lon="0">
        <time>2020-12-20T08:06:09.155000+00:00</time>
      </trkpt>
      <trkpt lat="0" lon="0">
        <time>2020-12-20T08:06:09.159000+00:00</time>
      </trkpt>
      <trkpt lat="47.29857" lon="-1.38527">
        <ele>116</ele>
        <time>2020-12-20T08:06:10.166000+00:00</time>
      </trkpt>
      <trkpt lat="0" lon="0">
        <time>2020-12-20T08:06:10.171000+00:00</time>
      </trkpt>
      <trkpt lat="0" lon="0">
        <time>2020-12-20T08:06:10.175000+00:00</time>
      </trkpt>
      <trkpt lat="0" lon="0">
        <time>2020-12-20T08:06:10.181000+00:00</time>
      </trkpt>
      <trkpt lat="47.29854" lon="-1.38529">
        <ele>116</ele>
        <time>2020-12-20T08:06:11.209000+00:00</time>
      </trkpt>
      <trkpt lat="0" lon="0">
        <time>2020-12-20T08:06:11.224000+00:00</time>
      </trkpt>
      <trkpt lat="0" lon="0">
        <time>2020-12-20T08:06:11.232000+00:00</time>
      </trkpt>
      <trkpt lat="0" lon="0">
        <time>2020-12-20T08:06:11.235000+00:00</time>
      </trkpt>
      <trkpt lat="47.2985" lon="-1.38531">
        <ele>116</ele>
        <time>2020-12-20T08:06:12.178000+00:00</time>
      </trkpt>
      <trkpt lat="0" lon="0">
        <time>2020-12-20T08:06:12.183000+00:00</time>
      </trkpt>
      <trkpt lat="0" lon="0">
        <time>2020-12-20T08:06:12.187000+00:00</time>
      </trkpt>
      <trkpt lat="0" lon="0">
        <time>2020-12-20T08:06:12.190000+00:00</time>
      </trkpt>
      <trkpt lat="47.29847" lon="-1.38532">
        <ele>117</ele>
        <time>2020-12-20T08:06:13.202000+00:00</time>
      </trkpt>
      <trkpt lat="0" lon="0">
        <time>2020-12-20T08:06:13.223000+00:00</time>
      </trkpt>
      <trkpt lat="0" lon="0">
        <time>2020-12-20T08:06:13.228000+00:00</time>
      </trkpt>
      <trkpt lat="0" lon="0">
        <time>2020-12-20T08:06:13.230000+00:00</time>
      </trkpt>
      <trkpt lat="47.29843" lon="-1.38533">
        <ele>117</ele>
        <time>2020-12-20T08:06:14.179000+00:00</time>
      </trkpt>
      <trkpt lat="0" lon="0">
        <time>2020-12-20T08:06:14.192000+00:00</time>
      </trkpt>
      <trkpt lat="0" lon="0">
        <time>2020-12-20T08:06:14.207000+00:00</time>
      </trkpt>
      <trkpt lat="0" lon="0">
        <time>2020-12-20T08:06:14.211000+00:00</time>
      </trkpt>
      <trkpt lat="47.29839" lon="-1.38534">
        <ele>117</ele>
        <time>2020-12-20T08:06:15.187000+00:00</time>
      </trkpt>
      <trkpt lat="0" lon="0">
        <time>2020-12-20T08:06:15.199000+00:00</time>
      </trkpt>
      <trkpt lat="0" lon="0">
        <time>2020-12-20T08:06:15.204000+00:00</time>
      </trkpt>
      <trkpt lat="0" lon="0">
        <time>2020-12-20T08:06:15.213000+00:00</time>
      </trkpt>
      <trkpt lat="47.29835" lon="-1.38535">
        <ele>117</ele>
        <time>2020-12-20T08:06:16.200000+00:00</time>
      </trkpt>
      <trkpt lat="0" lon="0">
        <time>2020-12-20T08:06:16.204000+00:00</time>
      </trkpt>
      <trkpt lat="0" lon="0">
        <time>2020-12-20T08:06:16.212000+00:00</time>
      </trkpt>
      <trkpt lat="0" lon="0">
        <time>2020-12-20T08:06:16.216000+00:00</time>
      </trkpt>
      <trkpt lat="47.29832" lon="-1.38536">
        <ele>117</ele>
        <time>2020-12-20T08:06:17.163000+00:00</time>
      </trkpt>
      <trkpt lat="0" lon="0">
        <time>2020-12-20T08:06:17.182000+00:00</time>
      </trkpt>
      <trkpt lat="0" lon="0">
        <time>2020-12-20T08:06:17.188000+00:00</time>
      </trkpt>
      <trkpt lat="0" lon="0">
        <time>2020-12-20T08:06:17.191000+00:00</time>
      </trkpt>
      <trkpt lat="47.29829" lon="-1.38536">
        <ele>116</ele>
        <time>2020-12-20T08:06:18.207000+00:00</time>
      </trkpt>
      <trkpt lat="0" lon="0">
        <time>2020-12-20T08:06:18.223000+00:00</time>
      </trkpt>
      <trkpt lat="0" lon="0">
        <time>2020-12-20T08:06:18.234000+00:00</time>
      </trkpt>
      <trkpt lat="0" lon="0">
        <time>2020-12-20T08:06:18.236000+00:00</time>
      </trkpt>
      <trkpt lat="47.29825" lon="-1.38537">
        <ele>116</ele>
        <time>2020-12-20T08:06:19.192000+00:00</time>
      </trkpt>
      <trkpt lat="0" lon="0">
        <time>2020-12-20T08:06:19.204000+00:00</time>
      </trkpt>
      <trkpt lat="0" lon="0">
        <time>2020-12-20T08:06:19.211000+00:00</time>
      </trkpt>
      <trkpt lat="0" lon="0">
        <time>2020-12-20T08:06:19.213000+00:00</time>
      </trkpt>
      <trkpt lat="47.29822" lon="-1.38537">
        <ele>115</ele>
        <time>2020-12-20T08:06:20.179000+00:00</time>
      </trkpt>
      <trkpt lat="0" lon="0">
        <time>2020-12-20T08:06:20.187000+00:00</time>
      </trkpt>
      <trkpt lat="0" lon="0">
        <time>2020-12-20T08:06:20.196000+00:00</time>
      </trkpt>
      <trkpt lat="0" lon="0">
        <time>2020-12-20T08:06:20.198000+00:00</time>
      </trkpt>
      <trkpt lat="47.29818" lon="-1.38537">
        <ele>115</ele>
        <time>2020-12-20T08:06:21.171000+00:00</time>
      </trkpt>
      <trkpt lat="0" lon="0">
        <time>2020-12-20T08:06:21.178000+00:00</time>
      </trkpt>
      <trkpt lat="0" lon="0">
        <time>2020-12-20T08:06:21.184000+00:00</time>
      </trkpt>
      <trkpt lat="0" lon="0">
        <time>2020-12-20T08:06:21.188000+00:00</time>
      </trkpt>
      <trkpt lat="47.29814" lon="-1.38536">
        <ele>115</ele>
        <time>2020-12-20T08:06:22.183000+00:00</time>
      </trkpt>
      <trkpt lat="0" lon="0">
        <time>2020-12-20T08:06:22.190000+00:00</time>
      </trkpt>
      <trkpt lat="0" lon="0">
        <time>2020-12-20T08:06:22.195000+00:00</time>
      </trkpt>
      <trkpt lat="0" lon="0">
        <time>2020-12-20T08:06:22.198000+00:00</time>
      </trkpt>
      <trkpt lat="47.29811" lon="-1.38535">
        <ele>114</ele>
        <time>2020-12-20T08:06:23.202000+00:00</time>
      </trkpt>
      <trkpt lat="0" lon="0">
        <time>2020-12-20T08:06:23.225000+00:00</time>
      </trkpt>
      <trkpt lat="0" lon="0">
        <time>2020-12-20T08:06:23.235000+00:00</time>
      </trkpt>
      <trkpt lat="0" lon="0">
        <time>2020-12-20T08:06:23.236000+00:00</time>
      </trkpt>
      <trkpt lat="47.29807" lon="-1.38535">
        <ele>114</ele>
        <time>2020-12-20T08:06:24.199000+00:00</time>
      </trkpt>
      <trkpt lat="0" lon="0">
        <time>2020-12-20T08:06:24.208000+00:00</time>
      </trkpt>
      <trkpt lat="0" lon="0">
        <time>2020-12-20T08:06:24.213000+00:00</time>
      </trkpt>
      <trkpt lat="0" lon="0">
        <time>2020-12-20T08:06:24.215000+00:00</time>
      </trkpt>
      <trkpt lat="47.29803" lon="-1.38534">
        <ele>114</ele>
        <time>2020-12-20T08:06:25.196000+00:00</time>
      </trkpt>
      <trkpt lat="0" lon="0">
        <time>2020-12-20T08:06:25.202000+00:00</time>
      </trkpt>
      <trkpt lat="0" lon="0">
        <time>2020-12-20T08:06:25.206000+00:00</time>
      </trkpt>
      <trkpt lat="0" lon="0">
        <time>2020-12-20T08:06:25.209000+00:00</time>
      </trkpt>
      <trkpt lat="47.29799" lon="-1.38533">
        <ele>114</ele>
        <time>2020-12-20T08:06:26.151000+00:00</time>
      </trkpt>
      <trkpt lat="0" lon="0">
        <time>2020-12-20T08:06:26.156000+00:00</time>
      </trkpt>
      <trkpt lat="0" lon="0">
        <time>2020-12-20T08:06:26.162000+00:00</time>
      </trkpt>
      <trkpt lat="0" lon="0">
        <time>2020-12-20T08:06:26.164000+00:00</time>
      </trkpt>
      <trkpt lat="47.29794" lon="-1.38532">
        <ele>114</ele>
        <time>2020-12-20T08:06:27.196000+00:00</time>
      </trkpt>
      <trkpt lat="0" lon="0">
        <time>2020-12-20T08:06:27.207000+00:00</time>
      </trkpt>
      <trkpt lat="0" lon="0">
        <time>2020-12-20T08:06:27.211000+00:00</time>
      </trkpt>
      <trkpt lat="0" lon="0">
        <time>2020-12-20T08:06:27.214000+00:00</time>
      </trkpt>
      <trkpt lat="47.29788" lon="-1.38531">
        <ele>114</ele>
        <time>2020-12-20T08:06:28.186000+00:00</time>
      </trkpt>
      <trkpt lat="0" lon="0">
        <time>2020-12-20T08:06:28.197000+00:00</time>
      </trkpt>
      <trkpt lat="0" lon="0">
        <time>2020-12-20T08:06:28.201000+00:00</time>
      </trkpt>
      <trkpt lat="0" lon="0">
        <time>2020-12-20T08:06:28.203000+00:00</time>
      </trkpt>
      <trkpt lat="47.29782" lon="-1.3853">
        <ele>114</ele>
        <time>2020-12-20T08:06:29.186000+00:00</time>
      </trkpt>
      <trkpt lat="0" lon="0">
        <time>2020-12-20T08:06:29.199000+00:00</time>
      </trkpt>
      <trkpt lat="0" lon="0">
        <time>2020-12-20T08:06:29.208000+00:00</time>
      </trkpt>
      <trkpt lat="0" lon="0">
        <time>2020-12-20T08:06:29.212000+00:00</time>
      </trkpt>
      <trkpt lat="47.29776" lon="-1.38529">
        <ele>114</ele>
        <time>2020-12-20T08:06:30.177000+00:00</time>
      </trkpt>
      <trkpt lat="0" lon="0">
        <time>2020-12-20T08:06:30.190000+00:00</time>
      </trkpt>
      <trkpt lat="0" lon="0">
        <time>2020-12-20T08:06:30.194000+00:00</time>
      </trkpt>
      <trkpt lat="0" lon="0">
        <time>2020-12-20T08:06:30.197000+00:00</time>
      </trkpt>
      <trkpt lat="47.29769" lon="-1.38528">
        <ele>114</ele>
        <time>2020-12-20T08:06:31.212000+00:00</time>
      </trkpt>
      <trkpt lat="0" lon="0">
        <time>2020-12-20T08:06:31.225000+00:00</time>
      </trkpt>
      <trkpt lat="0" lon="0">
        <time>2020-12-20T08:06:31.233000+00:00</time>
      </trkpt>
      <trkpt lat="0" lon="0">
        <time>2020-12-20T08:06:31.237000+00:00</time>
      </trkpt>
      <trkpt lat="47.29763" lon="-1.38527">
        <ele>114</ele>
        <time>2020-12-20T08:06:32.173000+00:00</time>
      </trkpt>
      <trkpt lat="0" lon="0">
        <time>2020-12-20T08:06:32.192000+00:00</time>
      </trkpt>
      <trkpt lat="0" lon="0">
        <time>2020-12-20T08:06:32.198000+00:00</time>
      </trkpt>
      <trkpt lat="0" lon="0">
        <time>2020-12-20T08:06:32.201000+00:00</time>
      </trkpt>
      <trkpt lat="47.29757" lon="-1.38526">
        <ele>115</ele>
        <time>2020-12-20T08:06:33.182000+00:00</time>
      </trkpt>
      <trkpt lat="0" lon="0">
        <time>2020-12-20T08:06:33.198000+00:00</time>
      </trkpt>
      <trkpt lat="0" lon="0">
        <time>2020-12-20T08:06:33.201000+00:00</time>
      </trkpt>
      <trkpt lat="0" lon="0">
        <time>2020-12-20T08:06:33.204000+00:00</time>
      </trkpt>
      <trkpt lat="47.29751" lon="-1.38526">
        <ele>115</ele>
        <time>2020-12-20T08:06:34.181000+00:00</time>
      </trkpt>
      <trkpt lat="0" lon="0">
        <time>2020-12-20T08:06:34.195000+00:00</time>
      </trkpt>
      <trkpt lat="0" lon="0">
        <time>2020-12-20T08:06:34.200000+00:00</time>
      </trkpt>
      <trkpt lat="0" lon="0">
        <time>2020-12-20T08:06:34.203000+00:00</time>
      </trkpt>
      <trkpt lat="47.29745" lon="-1.38526">
        <ele>114</ele>
        <time>2020-12-20T08:06:35.182000+00:00</time>
      </trkpt>
      <trkpt lat="0" lon="0">
        <time>2020-12-20T08:06:35.192000+00:00</time>
      </trkpt>
      <trkpt lat="0" lon="0">
        <time>2020-12-20T08:06:35.203000+00:00</time>
      </trkpt>
      <trkpt lat="0" lon="0">
        <time>2020-12-20T08:06:35.206000+00:00</time>
      </trkpt>
      <trkpt lat="47.29738" lon="-1.38526">
        <ele>115</ele>
        <time>2020-12-20T08:06:36.199000+00:00</time>
      </trkpt>
      <trkpt lat="0" lon="0">
        <time>2020-12-20T08:06:36.210000+00:00</time>
      </trkpt>
      <trkpt lat="0" lon="0">
        <time>2020-12-20T08:06:36.212000+00:00</time>
      </trkpt>
      <trkpt lat="0" lon="0">
        <time>2020-12-20T08:06:36.213000+00:00</time>
      </trkpt>
      <trkpt lat="47.29732" lon="-1.38526">
        <ele>115</ele>
        <time>2020-12-20T08:06:37.180000+00:00</time>
      </trkpt>
      <trkpt lat="0" lon="0">
        <time>2020-12-20T08:06:37.197000+00:00</time>
      </trkpt>
      <trkpt lat="0" lon="0">
        <time>2020-12-20T08:06:37.200000+00:00</time>
      </trkpt>
      <trkpt lat="0" lon="0">
        <time>2020-12-20T08:06:37.203000+00:00</time>
      </trkpt>
      <trkpt lat="47.29726" lon="-1.38527">
        <ele>115</ele>
        <time>2020-12-20T08:06:38.175000+00:00</time>
      </trkpt>
      <trkpt lat="0" lon="0">
        <time>2020-12-20T08:06:38.182000+00:00</time>
      </trkpt>
      <trkpt lat="0" lon="0">
        <time>2020-12-20T08:06:38.191000+00:00</time>
      </trkpt>
      <trkpt lat="0" lon="0">
        <time>2020-12-20T08:06:38.197000+00:00</time>
      </trkpt>
      <trkpt lat="47.2972" lon="-1.38527">
        <ele>114</ele>
        <time>2020-12-20T08:06:39.170000+00:00</time>
      </trkpt>
      <trkpt lat="0" lon="0">
        <time>2020-12-20T08:06:39.180000+00:00</time>
      </trkpt>
      <trkpt lat="0" lon="0">
        <time>2020-12-20T08:06:39.190000+00:00</time>
      </trkpt>
      <trkpt lat="0" lon="0">
        <time>2020-12-20T08:06:39.192000+00:00</time>
      </trkpt>
      <trkpt lat="47.29715" lon="-1.38526">
        <ele>114</ele>
        <time>2020-12-20T08:06:40.147000+00:00</time>
      </trkpt>
      <trkpt lat="0" lon="0">
        <time>2020-12-20T08:06:40.149000+00:00</time>
      </trkpt>
      <trkpt lat="0" lon="0">
        <time>2020-12-20T08:06:40.153000+00:00</time>
      </trkpt>
      <trkpt lat="0" lon="0">
        <time>2020-12-20T08:06:40.155000+00:00</time>
      </trkpt>
      <trkpt lat="47.29709" lon="-1.38525">
        <ele>114</ele>
        <time>2020-12-20T08:06:41.150000+00:00</time>
      </trkpt>
      <trkpt lat="0" lon="0">
        <time>2020-12-20T08:06:41.158000+00:00</time>
      </trkpt>
      <trkpt lat="0" lon="0">
        <time>2020-12-20T08:06:41.163000+00:00</time>
      </trkpt>
      <trkpt lat="0" lon="0">
        <time>2020-12-20T08:06:41.165000+00:00</time>
      </trkpt>
      <trkpt lat="47.29704" lon="-1.38523">
        <ele>114</ele>
        <time>2020-12-20T08:06:42.187000+00:00</time>
      </trkpt>
      <trkpt lat="0" lon="0">
        <time>2020-12-20T08:06:42.193000+00:00</time>
      </trkpt>
      <trkpt lat="0" lon="0">
        <time>2020-12-20T08:06:42.197000+00:00</time>
      </trkpt>
      <trkpt lat="0" lon="0">
        <time>2020-12-20T08:06:42.199000+00:00</time>
      </trkpt>
      <trkpt lat="47.29698" lon="-1.38521">
        <ele>114</ele>
        <time>2020-12-20T08:06:43.170000+00:00</time>
      </trkpt>
      <trkpt lat="0" lon="0">
        <time>2020-12-20T08:06:43.196000+00:00</time>
      </trkpt>
      <trkpt lat="0" lon="0">
        <time>2020-12-20T08:06:43.206000+00:00</time>
      </trkpt>
      <trkpt lat="0" lon="0">
        <time>2020-12-20T08:06:43.208000+00:00</time>
      </trkpt>
      <trkpt lat="47.29691" lon="-1.38517">
        <ele>115</ele>
        <time>2020-12-20T08:06:44.164000+00:00</time>
      </trkpt>
      <trkpt lat="0" lon="0">
        <time>2020-12-20T08:06:44.180000+00:00</time>
      </trkpt>
      <trkpt lat="0" lon="0">
        <time>2020-12-20T08:06:44.185000+00:00</time>
      </trkpt>
      <trkpt lat="0" lon="0">
        <time>2020-12-20T08:06:44.188000+00:00</time>
      </trkpt>
      <trkpt lat="47.29684" lon="-1.38514">
        <ele>115</ele>
        <time>2020-12-20T08:06:45.175000+00:00</time>
      </trkpt>
      <trkpt lat="0" lon="0">
        <time>2020-12-20T08:06:45.186000+00:00</time>
      </trkpt>
      <trkpt lat="0" lon="0">
        <time>2020-12-20T08:06:45.191000+00:00</time>
      </trkpt>
      <trkpt lat="0" lon="0">
        <time>2020-12-20T08:06:45.193000+00:00</time>
      </trkpt>
      <trkpt lat="47.29677" lon="-1.3851">
        <ele>115</ele>
        <time>2020-12-20T08:06:46.171000+00:00</time>
      </trkpt>
      <trkpt lat="0" lon="0">
        <time>2020-12-20T08:06:46.183000+00:00</time>
      </trkpt>
      <trkpt lat="0" lon="0">
        <time>2020-12-20T08:06:46.196000+00:00</time>
      </trkpt>
      <trkpt lat="0" lon="0">
        <time>2020-12-20T08:06:46.199000+00:00</time>
      </trkpt>
      <trkpt lat="47.29669" lon="-1.38506">
        <ele>114</ele>
        <time>2020-12-20T08:06:47.209000+00:00</time>
      </trkpt>
      <trkpt lat="0" lon="0">
        <time>2020-12-20T08:06:47.231000+00:00</time>
      </trkpt>
      <trkpt lat="0" lon="0">
        <time>2020-12-20T08:06:47.243000+00:00</time>
      </trkpt>
      <trkpt lat="0" lon="0">
        <time>2020-12-20T08:06:47.245000+00:00</time>
      </trkpt>
      <trkpt lat="47.29661" lon="-1.38503">
        <ele>114</ele>
        <time>2020-12-20T08:06:48.176000+00:00</time>
      </trkpt>
      <trkpt lat="0" lon="0">
        <time>2020-12-20T08:06:48.185000+00:00</time>
      </trkpt>
      <trkpt lat="0" lon="0">
        <time>2020-12-20T08:06:48.195000+00:00</time>
      </trkpt>
      <trkpt lat="0" lon="0">
        <time>2020-12-20T08:06:48.199000+00:00</time>
      </trkpt>
      <trkpt lat="47.29653" lon="-1.385">
        <ele>113</ele>
        <time>2020-12-20T08:06:49.165000+00:00</time>
      </trkpt>
      <trkpt lat="0" lon="0">
        <time>2020-12-20T08:06:49.169000+00:00</time>
      </trkpt>
      <trkpt lat="0" lon="0">
        <time>2020-12-20T08:06:49.176000+00:00</time>
      </trkpt>
      <trkpt lat="0" lon="0">
        <time>2020-12-20T08:06:49.178000+00:00</time>
      </trkpt>
      <trkpt lat="47.29644" lon="-1.38497">
        <ele>113</ele>
        <time>2020-12-20T08:06:50.204000+00:00</time>
      </trkpt>
      <trkpt lat="0" lon="0">
        <time>2020-12-20T08:06:50.216000+00:00</time>
      </trkpt>
      <trkpt lat="0" lon="0">
        <time>2020-12-20T08:06:50.220000+00:00</time>
      </trkpt>
      <trkpt lat="0" lon="0">
        <time>2020-12-20T08:06:50.223000+00:00</time>
      </trkpt>
      <trkpt lat="47.29636" lon="-1.38494">
        <ele>113</ele>
        <time>2020-12-20T08:06:51.183000+00:00</time>
      </trkpt>
      <trkpt lat="0" lon="0">
        <time>2020-12-20T08:06:51.191000+00:00</time>
      </trkpt>
      <trkpt lat="0" lon="0">
        <time>2020-12-20T08:06:51.192000+00:00</time>
      </trkpt>
      <trkpt lat="0" lon="0">
        <time>2020-12-20T08:06:51.193000+00:00</time>
      </trkpt>
      <trkpt lat="47.29628" lon="-1.38493">
        <ele>112</ele>
        <time>2020-12-20T08:06:52.182000+00:00</time>
      </trkpt>
      <trkpt lat="0" lon="0">
        <time>2020-12-20T08:06:52.200000+00:00</time>
      </trkpt>
      <trkpt lat="0" lon="0">
        <time>2020-12-20T08:06:52.209000+00:00</time>
      </trkpt>
      <trkpt lat="0" lon="0">
        <time>2020-12-20T08:06:52.216000+00:00</time>
      </trkpt>
      <trkpt lat="47.2962" lon="-1.38491">
        <ele>112</ele>
        <time>2020-12-20T08:06:53.207000+00:00</time>
      </trkpt>
      <trkpt lat="0" lon="0">
        <time>2020-12-20T08:06:53.231000+00:00</time>
      </trkpt>
      <trkpt lat="0" lon="0">
        <time>2020-12-20T08:06:53.236000+00:00</time>
      </trkpt>
      <trkpt lat="0" lon="0">
        <time>2020-12-20T08:06:53.238000+00:00</time>
      </trkpt>
      <trkpt lat="47.29612" lon="-1.3849">
        <ele>111</ele>
        <time>2020-12-20T08:06:54.178000+00:00</time>
      </trkpt>
      <trkpt lat="0" lon="0">
        <time>2020-12-20T08:06:54.184000+00:00</time>
      </trkpt>
      <trkpt lat="0" lon="0">
        <time>2020-12-20T08:06:54.190000+00:00</time>
      </trkpt>
      <trkpt lat="0" lon="0">
        <time>2020-12-20T08:06:54.194000+00:00</time>
      </trkpt>
      <trkpt lat="47.29604" lon="-1.3849">
        <ele>111</ele>
        <time>2020-12-20T08:06:55.198000+00:00</time>
      </trkpt>
      <trkpt lat="0" lon="0">
        <time>2020-12-20T08:06:55.206000+00:00</time>
      </trkpt>
      <trkpt lat="0" lon="0">
        <time>2020-12-20T08:06:55.211000+00:00</time>
      </trkpt>
      <trkpt lat="0" lon="0">
        <time>2020-12-20T08:06:55.214000+00:00</time>
      </trkpt>
      <trkpt lat="47.29596" lon="-1.3849">
        <ele>110</ele>
        <time>2020-12-20T08:06:56.209000+00:00</time>
      </trkpt>
      <trkpt lat="0" lon="0">
        <time>2020-12-20T08:06:56.238000+00:00</time>
      </trkpt>
      <trkpt lat="0" lon="0">
        <time>2020-12-20T08:06:56.244000+00:00</time>
      </trkpt>
      <trkpt lat="0" lon="0">
        <time>2020-12-20T08:06:56.247000+00:00</time>
      </trkpt>
      <trkpt lat="47.29589" lon="-1.38491">
        <ele>109</ele>
        <time>2020-12-20T08:06:57.181000+00:00</time>
      </trkpt>
      <trkpt lat="0" lon="0">
        <time>2020-12-20T08:06:57.198000+00:00</time>
      </trkpt>
      <trkpt lat="0" lon="0">
        <time>2020-12-20T08:06:57.202000+00:00</time>
      </trkpt>
      <trkpt lat="0" lon="0">
        <time>2020-12-20T08:06:57.205000+00:00</time>
      </trkpt>
      <trkpt lat="47.29583" lon="-1.38492">
        <ele>109</ele>
        <time>2020-12-20T08:06:58.175000+00:00</time>
      </trkpt>
      <trkpt lat="0" lon="0">
        <time>2020-12-20T08:06:58.182000+00:00</time>
      </trkpt>
      <trkpt lat="0" lon="0">
        <time>2020-12-20T08:06:58.187000+00:00</time>
      </trkpt>
      <trkpt lat="0" lon="0">
        <time>2020-12-20T08:06:58.191000+00:00</time>
      </trkpt>
      <trkpt lat="47.29577" lon="-1.38494">
        <ele>108</ele>
        <time>2020-12-20T08:06:59.191000+00:00</time>
      </trkpt>
      <trkpt lat="0" lon="0">
        <time>2020-12-20T08:06:59.196000+00:00</time>
      </trkpt>
      <trkpt lat="0" lon="0">
        <time>2020-12-20T08:06:59.203000+00:00</time>
      </trkpt>
      <trkpt lat="0" lon="0">
        <time>2020-12-20T08:06:59.206000+00:00</time>
      </trkpt>
      <trkpt lat="47.29571" lon="-1.38497">
        <ele>107</ele>
        <time>2020-12-20T08:07:00.199000+00:00</time>
      </trkpt>
      <trkpt lat="0" lon="0">
        <time>2020-12-20T08:07:00.211000+00:00</time>
      </trkpt>
      <trkpt lat="0" lon="0">
        <time>2020-12-20T08:07:00.220000+00:00</time>
      </trkpt>
      <trkpt lat="0" lon="0">
        <time>2020-12-20T08:07:00.226000+00:00</time>
      </trkpt>
      <trkpt lat="47.29565" lon="-1.385">
        <ele>107</ele>
        <time>2020-12-20T08:07:01.182000+00:00</time>
      </trkpt>
      <trkpt lat="0" lon="0">
        <time>2020-12-20T08:07:01.193000+00:00</time>
      </trkpt>
      <trkpt lat="0" lon="0">
        <time>2020-12-20T08:07:01.196000+00:00</time>
      </trkpt>
      <trkpt lat="0" lon="0">
        <time>2020-12-20T08:07:01.199000+00:00</time>
      </trkpt>
      <trkpt lat="47.29559" lon="-1.38502">
        <ele>106</ele>
        <time>2020-12-20T08:07:02.194000+00:00</time>
      </trkpt>
      <trkpt lat="0" lon="0">
        <time>2020-12-20T08:07:02.201000+00:00</time>
      </trkpt>
      <trkpt lat="0" lon="0">
        <time>2020-12-20T08:07:02.212000+00:00</time>
      </trkpt>
      <trkpt lat="0" lon="0">
        <time>2020-12-20T08:07:02.215000+00:00</time>
      </trkpt>
      <trkpt lat="47.29552" lon="-1.38505">
        <ele>106</ele>
        <time>2020-12-20T08:07:03.159000+00:00</time>
      </trkpt>
      <trkpt lat="0" lon="0">
        <time>2020-12-20T08:07:03.163000+00:00</time>
      </trkpt>
      <trkpt lat="0" lon="0">
        <time>2020-12-20T08:07:03.170000+00:00</time>
      </trkpt>
      <trkpt lat="0" lon="0">
        <time>2020-12-20T08:07:03.172000+00:00</time>
      </trkpt>
      <trkpt lat="47.29546" lon="-1.38507">
        <ele>105</ele>
        <time>2020-12-20T08:07:04.175000+00:00</time>
      </trkpt>
      <trkpt lat="0" lon="0">
        <time>2020-12-20T08:07:04.185000+00:00</time>
      </trkpt>
      <trkpt lat="0" lon="0">
        <time>2020-12-20T08:07:04.192000+00:00</time>
      </trkpt>
      <trkpt lat="0" lon="0">
        <time>2020-12-20T08:07:04.196000+00:00</time>
      </trkpt>
      <trkpt lat="47.29538" lon="-1.38509">
        <ele>104</ele>
        <time>2020-12-20T08:07:05.163000+00:00</time>
      </trkpt>
      <trkpt lat="0" lon="0">
        <time>2020-12-20T08:07:05.172000+00:00</time>
      </trkpt>
      <trkpt lat="0" lon="0">
        <time>2020-12-20T08:07:05.176000+00:00</time>
      </trkpt>
      <trkpt lat="0" lon="0">
        <time>2020-12-20T08:07:05.178000+00:00</time>
      </trkpt>
      <trkpt lat="47.29531" lon="-1.38511">
        <ele>104</ele>
        <time>2020-12-20T08:07:06.167000+00:00</time>
      </trkpt>
      <trkpt lat="0" lon="0">
        <time>2020-12-20T08:07:06.172000+00:00</time>
      </trkpt>
      <trkpt lat="0" lon="0">
        <time>2020-12-20T08:07:06.183000+00:00</time>
      </trkpt>
      <trkpt lat="0" lon="0">
        <time>2020-12-20T08:07:06.185000+00:00</time>
      </trkpt>
      <trkpt lat="47.29523" lon="-1.38512">
        <ele>102</ele>
        <time>2020-12-20T08:07:07.153000+00:00</time>
      </trkpt>
      <trkpt lat="0" lon="0">
        <time>2020-12-20T08:07:07.157000+00:00</time>
      </trkpt>
      <trkpt lat="0" lon="0">
        <time>2020-12-20T08:07:07.168000+00:00</time>
      </trkpt>
      <trkpt lat="0" lon="0">
        <time>2020-12-20T08:07:07.170000+00:00</time>
      </trkpt>
      <trkpt lat="47.29515" lon="-1.38512">
        <ele>101</ele>
        <time>2020-12-20T08:07:08.161000+00:00</time>
      </trkpt>
      <trkpt lat="0" lon="0">
        <time>2020-12-20T08:07:08.168000+00:00</time>
      </trkpt>
      <trkpt lat="0" lon="0">
        <time>2020-12-20T08:07:08.173000+00:00</time>
      </trkpt>
      <trkpt lat="0" lon="0">
        <time>2020-12-20T08:07:08.177000+00:00</time>
      </trkpt>
      <trkpt lat="47.29507" lon="-1.38511">
        <ele>100</ele>
        <time>2020-12-20T08:07:09.163000+00:00</time>
      </trkpt>
      <trkpt lat="0" lon="0">
        <time>2020-12-20T08:07:09.174000+00:00</time>
      </trkpt>
      <trkpt lat="0" lon="0">
        <time>2020-12-20T08:07:09.181000+00:00</time>
      </trkpt>
      <trkpt lat="0" lon="0">
        <time>2020-12-20T08:07:09.184000+00:00</time>
      </trkpt>
      <trkpt lat="47.29499" lon="-1.3851">
        <ele>99</ele>
        <time>2020-12-20T08:07:10.183000+00:00</time>
      </trkpt>
      <trkpt lat="0" lon="0">
        <time>2020-12-20T08:07:10.198000+00:00</time>
      </trkpt>
      <trkpt lat="0" lon="0">
        <time>2020-12-20T08:07:10.203000+00:00</time>
      </trkpt>
      <trkpt lat="0" lon="0">
        <time>2020-12-20T08:07:10.206000+00:00</time>
      </trkpt>
      <trkpt lat="47.29492" lon="-1.38508">
        <ele>98</ele>
        <time>2020-12-20T08:07:11.169000+00:00</time>
      </trkpt>
      <trkpt lat="0" lon="0">
        <time>2020-12-20T08:07:11.181000+00:00</time>
      </trkpt>
      <trkpt lat="0" lon="0">
        <time>2020-12-20T08:07:11.187000+00:00</time>
      </trkpt>
      <trkpt lat="0" lon="0">
        <time>2020-12-20T08:07:11.192000+00:00</time>
      </trkpt>
      <trkpt lat="47.29485" lon="-1.38506">
        <ele>96</ele>
        <time>2020-12-20T08:07:12.149000+00:00</time>
      </trkpt>
      <trkpt lat="0" lon="0">
        <time>2020-12-20T08:07:12.153000+00:00</time>
      </trkpt>
      <trkpt lat="0" lon="0">
        <time>2020-12-20T08:07:12.158000+00:00</time>
      </trkpt>
      <trkpt lat="0" lon="0">
        <time>2020-12-20T08:07:12.164000+00:00</time>
      </trkpt>
      <trkpt lat="47.29478" lon="-1.38503">
        <ele>95</ele>
        <time>2020-12-20T08:07:13.179000+00:00</time>
      </trkpt>
      <trkpt lat="0" lon="0">
        <time>2020-12-20T08:07:13.191000+00:00</time>
      </trkpt>
      <trkpt lat="0" lon="0">
        <time>2020-12-20T08:07:13.196000+00:00</time>
      </trkpt>
      <trkpt lat="0" lon="0">
        <time>2020-12-20T08:07:13.198000+00:00</time>
      </trkpt>
      <trkpt lat="47.29472" lon="-1.38499">
        <ele>93</ele>
        <time>2020-12-20T08:07:14.191000+00:00</time>
      </trkpt>
      <trkpt lat="0" lon="0">
        <time>2020-12-20T08:07:14.203000+00:00</time>
      </trkpt>
      <trkpt lat="0" lon="0">
        <time>2020-12-20T08:07:14.207000+00:00</time>
      </trkpt>
      <trkpt lat="0" lon="0">
        <time>2020-12-20T08:07:14.211000+00:00</time>
      </trkpt>
      <trkpt lat="47.29467" lon="-1.38495">
        <ele>93</ele>
        <time>2020-12-20T08:07:15.190000+00:00</time>
      </trkpt>
      <trkpt lat="0" lon="0">
        <time>2020-12-20T08:07:15.204000+00:00</time>
      </trkpt>
      <trkpt lat="0" lon="0">
        <time>2020-12-20T08:07:15.213000+00:00</time>
      </trkpt>
      <trkpt lat="0" lon="0">
        <time>2020-12-20T08:07:15.216000+00:00</time>
      </trkpt>
      <trkpt lat="47.29462" lon="-1.38491">
        <ele>91</ele>
        <time>2020-12-20T08:07:16.189000+00:00</time>
      </trkpt>
      <trkpt lat="0" lon="0">
        <time>2020-12-20T08:07:16.211000+00:00</time>
      </trkpt>
      <trkpt lat="0" lon="0">
        <time>2020-12-20T08:07:16.217000+00:00</time>
      </trkpt>
      <trkpt lat="0" lon="0">
        <time>2020-12-20T08:07:16.221000+00:00</time>
      </trkpt>
      <trkpt lat="47.29457" lon="-1.38487">
        <ele>91</ele>
        <time>2020-12-20T08:07:17.188000+00:00</time>
      </trkpt>
      <trkpt lat="0" lon="0">
        <time>2020-12-20T08:07:17.197000+00:00</time>
      </trkpt>
      <trkpt lat="0" lon="0">
        <time>2020-12-20T08:07:17.200000+00:00</time>
      </trkpt>
      <trkpt lat="0" lon="0">
        <time>2020-12-20T08:07:17.201000+00:00</time>
      </trkpt>
      <trkpt lat="47.29453" lon="-1.38483">
        <ele>90</ele>
        <time>2020-12-20T08:07:18.208000+00:00</time>
      </trkpt>
      <trkpt lat="0" lon="0">
        <time>2020-12-20T08:07:18.213000+00:00</time>
      </trkpt>
      <trkpt lat="0" lon="0">
        <time>2020-12-20T08:07:18.217000+00:00</time>
      </trkpt>
      <trkpt lat="0" lon="0">
        <time>2020-12-20T08:07:18.219000+00:00</time>
      </trkpt>
      <trkpt lat="47.29451" lon="-1.38479">
        <ele>90</ele>
        <time>2020-12-20T08:07:19.177000+00:00</time>
      </trkpt>
      <trkpt lat="0" lon="0">
        <time>2020-12-20T08:07:19.188000+00:00</time>
      </trkpt>
      <trkpt lat="0" lon="0">
        <time>2020-12-20T08:07:19.193000+00:00</time>
      </trkpt>
      <trkpt lat="0" lon="0">
        <time>2020-12-20T08:07:19.197000+00:00</time>
      </trkpt>
      <trkpt lat="47.29448" lon="-1.38476">
        <ele>90</ele>
        <time>2020-12-20T08:07:20.173000+00:00</time>
      </trkpt>
      <trkpt lat="0" lon="0">
        <time>2020-12-20T08:07:20.180000+00:00</time>
      </trkpt>
      <trkpt lat="0" lon="0">
        <time>2020-12-20T08:07:20.185000+00:00</time>
      </trkpt>
      <trkpt lat="0" lon="0">
        <time>2020-12-20T08:07:20.188000+00:00</time>
      </trkpt>
      <trkpt lat="47.29447" lon="-1.38474">
        <ele>90</ele>
        <time>2020-12-20T08:07:21.200000+00:00</time>
      </trkpt>
      <trkpt lat="0" lon="0">
        <time>2020-12-20T08:07:21.216000+00:00</time>
      </trkpt>
      <trkpt lat="0" lon="0">
        <time>2020-12-20T08:07:21.221000+00:00</time>
      </trkpt>
      <trkpt lat="0" lon="0">
        <time>2020-12-20T08:07:21.229000+00:00</time>
      </trkpt>
      <trkpt lat="47.29447" lon="-1.38472">
        <ele>90</ele>
        <time>2020-12-20T08:07:22.172000+00:00</time>
      </trkpt>
      <trkpt lat="0" lon="0">
        <time>2020-12-20T08:07:22.187000+00:00</time>
      </trkpt>
      <trkpt lat="0" lon="0">
        <time>2020-12-20T08:07:22.190000+00:00</time>
      </trkpt>
      <trkpt lat="0" lon="0">
        <time>2020-12-20T08:07:22.192000+00:00</time>
      </trkpt>
      <trkpt lat="47.29447" lon="-1.3847">
        <ele>90</ele>
        <time>2020-12-20T08:07:23.197000+00:00</time>
      </trkpt>
      <trkpt lat="0" lon="0">
        <time>2020-12-20T08:07:23.207000+00:00</time>
      </trkpt>
      <trkpt lat="0" lon="0">
        <time>2020-12-20T08:07:23.211000+00:00</time>
      </trkpt>
      <trkpt lat="0" lon="0">
        <time>2020-12-20T08:07:23.214000+00:00</time>
      </trkpt>
      <trkpt lat="47.29447" lon="-1.38468">
        <ele>89</ele>
        <time>2020-12-20T08:07:24.228000+00:00</time>
      </trkpt>
      <trkpt lat="0" lon="0">
        <time>2020-12-20T08:07:24.233000+00:00</time>
      </trkpt>
      <trkpt lat="0" lon="0">
        <time>2020-12-20T08:07:24.238000+00:00</time>
      </trkpt>
      <trkpt lat="0" lon="0">
        <time>2020-12-20T08:07:24.240000+00:00</time>
      </trkpt>
      <trkpt lat="47.29448" lon="-1.38467">
        <ele>89</ele>
        <time>2020-12-20T08:07:25.184000+00:00</time>
      </trkpt>
      <trkpt lat="0" lon="0">
        <time>2020-12-20T08:07:25.210000+00:00</time>
      </trkpt>
      <trkpt lat="0" lon="0">
        <time>2020-12-20T08:07:25.215000+00:00</time>
      </trkpt>
      <trkpt lat="0" lon="0">
        <time>2020-12-20T08:07:25.217000+00:00</time>
      </trkpt>
      <trkpt lat="47.29448" lon="-1.38467">
        <ele>89</ele>
        <time>2020-12-20T08:07:26.126000+00:00</time>
      </trkpt>
      <trkpt lat="0" lon="0">
        <time>2020-12-20T08:07:26.127000+00:00</time>
      </trkpt>
      <trkpt lat="0" lon="0">
        <time>2020-12-20T08:07:26.128000+00:00</time>
      </trkpt>
      <trkpt lat="0" lon="0">
        <time>2020-12-20T08:07:26.129000+00:00</time>
      </trkpt>
      <trkpt lat="47.2945" lon="-1.38466">
        <ele>89</ele>
        <time>2020-12-20T08:07:27.157000+00:00</time>
      </trkpt>
      <trkpt lat="0" lon="0">
        <time>2020-12-20T08:07:27.168000+00:00</time>
      </trkpt>
      <trkpt lat="0" lon="0">
        <time>2020-12-20T08:07:27.179000+00:00</time>
      </trkpt>
      <trkpt lat="0" lon="0">
        <time>2020-12-20T08:07:27.186000+00:00</time>
      </trkpt>
      <trkpt lat="47.29451" lon="-1.38466">
        <ele>88</ele>
        <time>2020-12-20T08:07:28.184000+00:00</time>
      </trkpt>
      <trkpt lat="0" lon="0">
        <time>2020-12-20T08:07:28.192000+00:00</time>
      </trkpt>
      <trkpt lat="0" lon="0">
        <time>2020-12-20T08:07:28.196000+00:00</time>
      </trkpt>
      <trkpt lat="0" lon="0">
        <time>2020-12-20T08:07:28.200000+00:00</time>
      </trkpt>
      <trkpt lat="47.29452" lon="-1.38466">
        <ele>88</ele>
        <time>2020-12-20T08:07:29.171000+00:00</time>
      </trkpt>
      <trkpt lat="0" lon="0">
        <time>2020-12-20T08:07:29.187000+00:00</time>
      </trkpt>
      <trkpt lat="0" lon="0">
        <time>2020-12-20T08:07:29.196000+00:00</time>
      </trkpt>
      <trkpt lat="0" lon="0">
        <time>2020-12-20T08:07:29.201000+00:00</time>
      </trkpt>
      <trkpt lat="47.29454" lon="-1.38466">
        <ele>88</ele>
        <time>2020-12-20T08:07:30.134000+00:00</time>
      </trkpt>
      <trkpt lat="0" lon="0">
        <time>2020-12-20T08:07:30.145000+00:00</time>
      </trkpt>
      <trkpt lat="0" lon="0">
        <time>2020-12-20T08:07:30.149000+00:00</time>
      </trkpt>
      <trkpt lat="0" lon="0">
        <time>2020-12-20T08:07:30.151000+00:00</time>
      </trkpt>
      <trkpt lat="47.29455" lon="-1.38466">
        <ele>88</ele>
        <time>2020-12-20T08:07:31.159000+00:00</time>
      </trkpt>
      <trkpt lat="0" lon="0">
        <time>2020-12-20T08:07:31.170000+00:00</time>
      </trkpt>
      <trkpt lat="0" lon="0">
        <time>2020-12-20T08:07:31.176000+00:00</time>
      </trkpt>
      <trkpt lat="0" lon="0">
        <time>2020-12-20T08:07:31.178000+00:00</time>
      </trkpt>
      <trkpt lat="47.29456" lon="-1.38466">
        <ele>86</ele>
        <time>2020-12-20T08:07:32.165000+00:00</time>
      </trkpt>
      <trkpt lat="0" lon="0">
        <time>2020-12-20T08:07:32.173000+00:00</time>
      </trkpt>
      <trkpt lat="0" lon="0">
        <time>2020-12-20T08:07:32.176000+00:00</time>
      </trkpt>
      <trkpt lat="0" lon="0">
        <time>2020-12-20T08:07:32.177000+00:00</time>
      </trkpt>
      <trkpt lat="47.29456" lon="-1.38466">
        <ele>86</ele>
        <time>2020-12-20T08:07:33.169000+00:00</time>
      </trkpt>
      <trkpt lat="0" lon="0">
        <time>2020-12-20T08:07:33.178000+00:00</time>
      </trkpt>
      <trkpt lat="0" lon="0">
        <time>2020-12-20T08:07:33.183000+00:00</time>
      </trkpt>
      <trkpt lat="0" lon="0">
        <time>2020-12-20T08:07:33.186000+00:00</time>
      </trkpt>
      <trkpt lat="47.29457" lon="-1.38467">
        <ele>86</ele>
        <time>2020-12-20T08:07:34.200000+00:00</time>
      </trkpt>
      <trkpt lat="0" lon="0">
        <time>2020-12-20T08:07:34.214000+00:00</time>
      </trkpt>
      <trkpt lat="0" lon="0">
        <time>2020-12-20T08:07:34.220000+00:00</time>
      </trkpt>
      <trkpt lat="0" lon="0">
        <time>2020-12-20T08:07:34.236000+00:00</time>
      </trkpt>
      <trkpt lat="47.29441" lon="-1.38454">
        <ele>75</ele>
        <time>2020-12-20T08:07:35.200000+00:00</time>
      </trkpt>
      <trkpt lat="0" lon="0">
        <time>2020-12-20T08:07:35.205000+00:00</time>
      </trkpt>
      <trkpt lat="0" lon="0">
        <time>2020-12-20T08:07:35.210000+00:00</time>
      </trkpt>
      <trkpt lat="0" lon="0">
        <time>2020-12-20T08:07:35.212000+00:00</time>
      </trkpt>
      <trkpt lat="47.29438" lon="-1.38454">
        <ele>75</ele>
        <time>2020-12-20T08:07:36.271000+00:00</time>
      </trkpt>
      <trkpt lat="0" lon="0">
        <time>2020-12-20T08:07:36.282000+00:00</time>
      </trkpt>
      <trkpt lat="0" lon="0">
        <time>2020-12-20T08:07:36.289000+00:00</time>
      </trkpt>
      <trkpt lat="0" lon="0">
        <time>2020-12-20T08:07:36.291000+00:00</time>
      </trkpt>
      <trkpt lat="47.29435" lon="-1.38454">
        <ele>74</ele>
        <time>2020-12-20T08:07:37.232000+00:00</time>
      </trkpt>
      <trkpt lat="0" lon="0">
        <time>2020-12-20T08:07:37.244000+00:00</time>
      </trkpt>
      <trkpt lat="0" lon="0">
        <time>2020-12-20T08:07:37.247000+00:00</time>
      </trkpt>
      <trkpt lat="0" lon="0">
        <time>2020-12-20T08:07:37.250000+00:00</time>
      </trkpt>
      <trkpt lat="47.29432" lon="-1.38455">
        <ele>74</ele>
        <time>2020-12-20T08:07:38.235000+00:00</time>
      </trkpt>
      <trkpt lat="0" lon="0">
        <time>2020-12-20T08:07:38.247000+00:00</time>
      </trkpt>
      <trkpt lat="0" lon="0">
        <time>2020-12-20T08:07:38.251000+00:00</time>
      </trkpt>
      <trkpt lat="0" lon="0">
        <time>2020-12-20T08:07:38.254000+00:00</time>
      </trkpt>
      <trkpt lat="47.29429" lon="-1.38457">
        <ele>73</ele>
        <time>2020-12-20T08:07:39.236000+00:00</time>
      </trkpt>
      <trkpt lat="0" lon="0">
        <time>2020-12-20T08:07:39.240000+00:00</time>
      </trkpt>
      <trkpt lat="0" lon="0">
        <time>2020-12-20T08:07:39.248000+00:00</time>
      </trkpt>
      <trkpt lat="0" lon="0">
        <time>2020-12-20T08:07:39.249000+00:00</time>
      </trkpt>
      <trkpt lat="47.29426" lon="-1.3846">
        <ele>73</ele>
        <time>2020-12-20T08:07:40.239000+00:00</time>
      </trkpt>
      <trkpt lat="0" lon="0">
        <time>2020-12-20T08:07:40.252000+00:00</time>
      </trkpt>
      <trkpt lat="0" lon="0">
        <time>2020-12-20T08:07:40.263000+00:00</time>
      </trkpt>
      <trkpt lat="0" lon="0">
        <time>2020-12-20T08:07:40.266000+00:00</time>
      </trkpt>
      <trkpt lat="47.29424" lon="-1.38464">
        <ele>72</ele>
        <time>2020-12-20T08:07:41.268000+00:00</time>
      </trkpt>
      <trkpt lat="0" lon="0">
        <time>2020-12-20T08:07:41.273000+00:00</time>
      </trkpt>
      <trkpt lat="0" lon="0">
        <time>2020-12-20T08:07:41.286000+00:00</time>
      </trkpt>
      <trkpt lat="0" lon="0">
        <time>2020-12-20T08:07:41.289000+00:00</time>
      </trkpt>
      <trkpt lat="47.29422" lon="-1.38468">
        <ele>71</ele>
        <time>2020-12-20T08:07:42.272000+00:00</time>
      </trkpt>
      <trkpt lat="0" lon="0">
        <time>2020-12-20T08:07:42.289000+00:00</time>
      </trkpt>
      <trkpt lat="0" lon="0">
        <time>2020-12-20T08:07:42.298000+00:00</time>
      </trkpt>
      <trkpt lat="0" lon="0">
        <time>2020-12-20T08:07:42.300000+00:00</time>
      </trkpt>
      <trkpt lat="47.2942" lon="-1.38473">
        <ele>70</ele>
        <time>2020-12-20T08:07:43.331000+00:00</time>
      </trkpt>
      <trkpt lat="0" lon="0">
        <time>2020-12-20T08:07:43.337000+00:00</time>
      </trkpt>
      <trkpt lat="0" lon="0">
        <time>2020-12-20T08:07:43.345000+00:00</time>
      </trkpt>
      <trkpt lat="0" lon="0">
        <time>2020-12-20T08:07:43.349000+00:00</time>
      </trkpt>
      <trkpt lat="47.29417" lon="-1.38479">
        <ele>69</ele>
        <time>2020-12-20T08:07:44.276000+00:00</time>
      </trkpt>
      <trkpt lat="0" lon="0">
        <time>2020-12-20T08:07:44.301000+00:00</time>
      </trkpt>
      <trkpt lat="0" lon="0">
        <time>2020-12-20T08:07:44.308000+00:00</time>
      </trkpt>
      <trkpt lat="0" lon="0">
        <time>2020-12-20T08:07:44.311000+00:00</time>
      </trkpt>
      <trkpt lat="47.29415" lon="-1.38485">
        <ele>68</ele>
        <time>2020-12-20T08:07:45.264000+00:00</time>
      </trkpt>
      <trkpt lat="0" lon="0">
        <time>2020-12-20T08:07:45.278000+00:00</time>
      </trkpt>
      <trkpt lat="0" lon="0">
        <time>2020-12-20T08:07:45.288000+00:00</time>
      </trkpt>
      <trkpt lat="0" lon="0">
        <time>2020-12-20T08:07:45.290000+00:00</time>
      </trkpt>
      <trkpt lat="47.29413" lon="-1.38492">
        <ele>68</ele>
        <time>2020-12-20T08:07:46.309000+00:00</time>
      </trkpt>
      <trkpt lat="0" lon="0">
        <time>2020-12-20T08:07:46.325000+00:00</time>
      </trkpt>
      <trkpt lat="0" lon="0">
        <time>2020-12-20T08:07:46.329000+00:00</time>
      </trkpt>
      <trkpt lat="0" lon="0">
        <time>2020-12-20T08:07:46.331000+00:00</time>
      </trkpt>
      <trkpt lat="47.29411" lon="-1.38499">
        <ele>67</ele>
        <time>2020-12-20T08:07:47.243000+00:00</time>
      </trkpt>
      <trkpt lat="0" lon="0">
        <time>2020-12-20T08:07:47.249000+00:00</time>
      </trkpt>
      <trkpt lat="0" lon="0">
        <time>2020-12-20T08:07:47.278000+00:00</time>
      </trkpt>
      <trkpt lat="0" lon="0">
        <time>2020-12-20T08:07:47.280000+00:00</time>
      </trkpt>
      <trkpt lat="47.2941" lon="-1.38506">
        <ele>66</ele>
        <time>2020-12-20T08:07:48.279000+00:00</time>
      </trkpt>
      <trkpt lat="0" lon="0">
        <time>2020-12-20T08:07:48.285000+00:00</time>
      </trkpt>
      <trkpt lat="0" lon="0">
        <time>2020-12-20T08:07:48.289000+00:00</time>
      </trkpt>
      <trkpt lat="0" lon="0">
        <time>2020-12-20T08:07:48.292000+00:00</time>
      </trkpt>
      <trkpt lat="47.29408" lon="-1.38513">
        <ele>66</ele>
        <time>2020-12-20T08:07:49.264000+00:00</time>
      </trkpt>
      <trkpt lat="0" lon="0">
        <time>2020-12-20T08:07:49.284000+00:00</time>
      </trkpt>
      <trkpt lat="0" lon="0">
        <time>2020-12-20T08:07:49.293000+00:00</time>
      </trkpt>
      <trkpt lat="0" lon="0">
        <time>2020-12-20T08:07:49.298000+00:00</time>
      </trkpt>
      <trkpt lat="47.29406" lon="-1.3852">
        <ele>66</ele>
        <time>2020-12-20T08:07:50.263000+00:00</time>
      </trkpt>
      <trkpt lat="0" lon="0">
        <time>2020-12-20T08:07:50.283000+00:00</time>
      </trkpt>
      <trkpt lat="0" lon="0">
        <time>2020-12-20T08:07:50.295000+00:00</time>
      </trkpt>
      <trkpt lat="0" lon="0">
        <time>2020-12-20T08:07:50.298000+00:00</time>
      </trkpt>
      <trkpt lat="47.29404" lon="-1.38527">
        <ele>66</ele>
        <time>2020-12-20T08:07:51.293000+00:00</time>
      </trkpt>
      <trkpt lat="0" lon="0">
        <time>2020-12-20T08:07:51.299000+00:00</time>
      </trkpt>
      <trkpt lat="0" lon="0">
        <time>2020-12-20T08:07:51.306000+00:00</time>
      </trkpt>
      <trkpt lat="0" lon="0">
        <time>2020-12-20T08:07:51.310000+00:00</time>
      </trkpt>
      <trkpt lat="47.29402" lon="-1.38535">
        <ele>65</ele>
        <time>2020-12-20T08:07:52.274000+00:00</time>
      </trkpt>
      <trkpt lat="0" lon="0">
        <time>2020-12-20T08:07:52.288000+00:00</time>
      </trkpt>
      <trkpt lat="0" lon="0">
        <time>2020-12-20T08:07:52.294000+00:00</time>
      </trkpt>
      <trkpt lat="0" lon="0">
        <time>2020-12-20T08:07:52.296000+00:00</time>
      </trkpt>
      <trkpt lat="47.29401" lon="-1.38542">
        <ele>64</ele>
        <time>2020-12-20T08:07:53.230000+00:00</time>
      </trkpt>
      <trkpt lat="0" lon="0">
        <time>2020-12-20T08:07:53.241000+00:00</time>
      </trkpt>
      <trkpt lat="0" lon="0">
        <time>2020-12-20T08:07:53.250000+00:00</time>
      </trkpt>
      <trkpt lat="0" lon="0">
        <time>2020-12-20T08:07:53.261000+00:00</time>
      </trkpt>
      <trkpt lat="47.29399" lon="-1.3855">
        <ele>64</ele>
        <time>2020-12-20T08:07:54.244000+00:00</time>
      </trkpt>
      <trkpt lat="0" lon="0">
        <time>2020-12-20T08:07:54.252000+00:00</time>
      </trkpt>
      <trkpt lat="0" lon="0">
        <time>2020-12-20T08:07:54.259000+00:00</time>
      </trkpt>
      <trkpt lat="0" lon="0">
        <time>2020-12-20T08:07:54.263000+00:00</time>
      </trkpt>
      <trkpt lat="47.29397" lon="-1.38557">
        <ele>63</ele>
        <time>2020-12-20T08:07:55.270000+00:00</time>
      </trkpt>
      <trkpt lat="0" lon="0">
        <time>2020-12-20T08:07:55.282000+00:00</time>
      </trkpt>
      <trkpt lat="0" lon="0">
        <time>2020-12-20T08:07:55.297000+00:00</time>
      </trkpt>
      <trkpt lat="0" lon="0">
        <time>2020-12-20T08:07:55.305000+00:00</time>
      </trkpt>
      <trkpt lat="47.29395" lon="-1.38565">
        <ele>63</ele>
        <time>2020-12-20T08:07:56.263000+00:00</time>
      </trkpt>
      <trkpt lat="0" lon="0">
        <time>2020-12-20T08:07:56.270000+00:00</time>
      </trkpt>
      <trkpt lat="0" lon="0">
        <time>2020-12-20T08:07:56.275000+00:00</time>
      </trkpt>
      <trkpt lat="0" lon="0">
        <time>2020-12-20T08:07:56.280000+00:00</time>
      </trkpt>
      <trkpt lat="47.29393" lon="-1.38572">
        <ele>62</ele>
        <time>2020-12-20T08:07:57.268000+00:00</time>
      </trkpt>
      <trkpt lat="0" lon="0">
        <time>2020-12-20T08:07:57.276000+00:00</time>
      </trkpt>
      <trkpt lat="0" lon="0">
        <time>2020-12-20T08:07:57.281000+00:00</time>
      </trkpt>
      <trkpt lat="0" lon="0">
        <time>2020-12-20T08:07:57.283000+00:00</time>
      </trkpt>
      <trkpt lat="47.29392" lon="-1.38579">
        <ele>62</ele>
        <time>2020-12-20T08:07:58.229000+00:00</time>
      </trkpt>
      <trkpt lat="0" lon="0">
        <time>2020-12-20T08:07:58.235000+00:00</time>
      </trkpt>
      <trkpt lat="0" lon="0">
        <time>2020-12-20T08:07:58.241000+00:00</time>
      </trkpt>
      <trkpt lat="0" lon="0">
        <time>2020-12-20T08:07:58.243000+00:00</time>
      </trkpt>
      <trkpt lat="47.2939" lon="-1.38586">
        <ele>61</ele>
        <time>2020-12-20T08:07:59.258000+00:00</time>
      </trkpt>
      <trkpt lat="0" lon="0">
        <time>2020-12-20T08:07:59.269000+00:00</time>
      </trkpt>
      <trkpt lat="0" lon="0">
        <time>2020-12-20T08:07:59.275000+00:00</time>
      </trkpt>
      <trkpt lat="0" lon="0">
        <time>2020-12-20T08:07:59.278000+00:00</time>
      </trkpt>
      <trkpt lat="47.29388" lon="-1.38594">
        <ele>61</ele>
        <time>2020-12-20T08:08:00.274000+00:00</time>
      </trkpt>
      <trkpt lat="0" lon="0">
        <time>2020-12-20T08:08:00.280000+00:00</time>
      </trkpt>
      <trkpt lat="0" lon="0">
        <time>2020-12-20T08:08:00.285000+00:00</time>
      </trkpt>
      <trkpt lat="0" lon="0">
        <time>2020-12-20T08:08:00.288000+00:00</time>
      </trkpt>
      <trkpt lat="47.29386" lon="-1.38601">
        <ele>60</ele>
        <time>2020-12-20T08:08:01.272000+00:00</time>
      </trkpt>
      <trkpt lat="0" lon="0">
        <time>2020-12-20T08:08:01.279000+00:00</time>
      </trkpt>
      <trkpt lat="0" lon="0">
        <time>2020-12-20T08:08:01.287000+00:00</time>
      </trkpt>
      <trkpt lat="0" lon="0">
        <time>2020-12-20T08:08:01.299000+00:00</time>
      </trkpt>
      <trkpt lat="47.29385" lon="-1.38608">
        <ele>59</ele>
        <time>2020-12-20T08:08:02.290000+00:00</time>
      </trkpt>
      <trkpt lat="0" lon="0">
        <time>2020-12-20T08:08:02.309000+00:00</time>
      </trkpt>
      <trkpt lat="0" lon="0">
        <time>2020-12-20T08:08:02.315000+00:00</time>
      </trkpt>
      <trkpt lat="0" lon="0">
        <time>2020-12-20T08:08:02.319000+00:00</time>
      </trkpt>
      <trkpt lat="47.29383" lon="-1.38615">
        <ele>60</ele>
        <time>2020-12-20T08:08:03.238000+00:00</time>
      </trkpt>
      <trkpt lat="0" lon="0">
        <time>2020-12-20T08:08:03.248000+00:00</time>
      </trkpt>
      <trkpt lat="0" lon="0">
        <time>2020-12-20T08:08:03.252000+00:00</time>
      </trkpt>
      <trkpt lat="0" lon="0">
        <time>2020-12-20T08:08:03.256000+00:00</time>
      </trkpt>
      <trkpt lat="47.29381" lon="-1.38622">
        <ele>59</ele>
        <time>2020-12-20T08:08:04.274000+00:00</time>
      </trkpt>
      <trkpt lat="0" lon="0">
        <time>2020-12-20T08:08:04.299000+00:00</time>
      </trkpt>
      <trkpt lat="0" lon="0">
        <time>2020-12-20T08:08:04.303000+00:00</time>
      </trkpt>
      <trkpt lat="0" lon="0">
        <time>2020-12-20T08:08:04.309000+00:00</time>
      </trkpt>
      <trkpt lat="47.29379" lon="-1.38629">
        <ele>59</ele>
        <time>2020-12-20T08:08:05.261000+00:00</time>
      </trkpt>
      <trkpt lat="0" lon="0">
        <time>2020-12-20T08:08:05.271000+00:00</time>
      </trkpt>
      <trkpt lat="0" lon="0">
        <time>2020-12-20T08:08:05.275000+00:00</time>
      </trkpt>
      <trkpt lat="0" lon="0">
        <time>2020-12-20T08:08:05.277000+00:00</time>
      </trkpt>
      <trkpt lat="47.29377" lon="-1.38636">
        <ele>58</ele>
        <time>2020-12-20T08:08:06.291000+00:00</time>
      </trkpt>
      <trkpt lat="0" lon="0">
        <time>2020-12-20T08:08:06.301000+00:00</time>
      </trkpt>
      <trkpt lat="0" lon="0">
        <time>2020-12-20T08:08:06.308000+00:00</time>
      </trkpt>
      <trkpt lat="0" lon="0">
        <time>2020-12-20T08:08:06.316000+00:00</time>
      </trkpt>
      <trkpt lat="47.29375" lon="-1.38642">
        <ele>58</ele>
        <time>2020-12-20T08:08:07.292000+00:00</time>
      </trkpt>
      <trkpt lat="0" lon="0">
        <time>2020-12-20T08:08:07.296000+00:00</time>
      </trkpt>
      <trkpt lat="0" lon="0">
        <time>2020-12-20T08:08:07.309000+00:00</time>
      </trkpt>
      <trkpt lat="0" lon="0">
        <time>2020-12-20T08:08:07.317000+00:00</time>
      </trkpt>
      <trkpt lat="47.29373" lon="-1.38649">
        <ele>58</ele>
        <time>2020-12-20T08:08:08.258000+00:00</time>
      </trkpt>
      <trkpt lat="0" lon="0">
        <time>2020-12-20T08:08:08.271000+00:00</time>
      </trkpt>
      <trkpt lat="0" lon="0">
        <time>2020-12-20T08:08:08.276000+00:00</time>
      </trkpt>
      <trkpt lat="0" lon="0">
        <time>2020-12-20T08:08:08.279000+00:00</time>
      </trkpt>
      <trkpt lat="47.29371" lon="-1.38656">
        <ele>58</ele>
        <time>2020-12-20T08:08:09.232000+00:00</time>
      </trkpt>
      <trkpt lat="0" lon="0">
        <time>2020-12-20T08:08:09.237000+00:00</time>
      </trkpt>
      <trkpt lat="0" lon="0">
        <time>2020-12-20T08:08:09.252000+00:00</time>
      </trkpt>
      <trkpt lat="0" lon="0">
        <time>2020-12-20T08:08:09.257000+00:00</time>
      </trkpt>
      <trkpt lat="47.2937" lon="-1.38662">
        <ele>58</ele>
        <time>2020-12-20T08:08:10.276000+00:00</time>
      </trkpt>
      <trkpt lat="0" lon="0">
        <time>2020-12-20T08:08:10.281000+00:00</time>
      </trkpt>
      <trkpt lat="0" lon="0">
        <time>2020-12-20T08:08:10.293000+00:00</time>
      </trkpt>
      <trkpt lat="0" lon="0">
        <time>2020-12-20T08:08:10.296000+00:00</time>
      </trkpt>
      <trkpt lat="47.29368" lon="-1.38669">
        <ele>58</ele>
        <time>2020-12-20T08:08:11.284000+00:00</time>
      </trkpt>
      <trkpt lat="0" lon="0">
        <time>2020-12-20T08:08:11.297000+00:00</time>
      </trkpt>
      <trkpt lat="0" lon="0">
        <time>2020-12-20T08:08:11.301000+00:00</time>
      </trkpt>
      <trkpt lat="0" lon="0">
        <time>2020-12-20T08:08:11.303000+00:00</time>
      </trkpt>
      <trkpt lat="47.29366" lon="-1.38676">
        <ele>58</ele>
        <time>2020-12-20T08:08:12.271000+00:00</time>
      </trkpt>
      <trkpt lat="0" lon="0">
        <time>2020-12-20T08:08:12.276000+00:00</time>
      </trkpt>
      <trkpt lat="0" lon="0">
        <time>2020-12-20T08:08:12.282000+00:00</time>
      </trkpt>
      <trkpt lat="0" lon="0">
        <time>2020-12-20T08:08:12.285000+00:00</time>
      </trkpt>
      <trkpt lat="47.29365" lon="-1.38682">
        <ele>58</ele>
        <time>2020-12-20T08:08:13.297000+00:00</time>
      </trkpt>
      <trkpt lat="0" lon="0">
        <time>2020-12-20T08:08:13.307000+00:00</time>
      </trkpt>
      <trkpt lat="0" lon="0">
        <time>2020-12-20T08:08:13.311000+00:00</time>
      </trkpt>
      <trkpt lat="0" lon="0">
        <time>2020-12-20T08:08:13.313000+00:00</time>
      </trkpt>
      <trkpt lat="47.29363" lon="-1.38689">
        <ele>58</ele>
        <time>2020-12-20T08:08:14.252000+00:00</time>
      </trkpt>
      <trkpt lat="0" lon="0">
        <time>2020-12-20T08:08:14.257000+00:00</time>
      </trkpt>
      <trkpt lat="0" lon="0">
        <time>2020-12-20T08:08:14.263000+00:00</time>
      </trkpt>
      <trkpt lat="0" lon="0">
        <time>2020-12-20T08:08:14.265000+00:00</time>
      </trkpt>
      <trkpt lat="47.29362" lon="-1.38695">
        <ele>58</ele>
        <time>2020-12-20T08:08:15.243000+00:00</time>
      </trkpt>
      <trkpt lat="0" lon="0">
        <time>2020-12-20T08:08:15.252000+00:00</time>
      </trkpt>
      <trkpt lat="0" lon="0">
        <time>2020-12-20T08:08:15.259000+00:00</time>
      </trkpt>
      <trkpt lat="0" lon="0">
        <time>2020-12-20T08:08:15.263000+00:00</time>
      </trkpt>
      <trkpt lat="47.29361" lon="-1.38702">
        <ele>58</ele>
        <time>2020-12-20T08:08:16.267000+00:00</time>
      </trkpt>
      <trkpt lat="0" lon="0">
        <time>2020-12-20T08:08:16.275000+00:00</time>
      </trkpt>
      <trkpt lat="0" lon="0">
        <time>2020-12-20T08:08:16.280000+00:00</time>
      </trkpt>
      <trkpt lat="0" lon="0">
        <time>2020-12-20T08:08:16.284000+00:00</time>
      </trkpt>
      <trkpt lat="47.2936" lon="-1.38708">
        <ele>58</ele>
        <time>2020-12-20T08:08:17.272000+00:00</time>
      </trkpt>
      <trkpt lat="0" lon="0">
        <time>2020-12-20T08:08:17.280000+00:00</time>
      </trkpt>
      <trkpt lat="0" lon="0">
        <time>2020-12-20T08:08:17.285000+00:00</time>
      </trkpt>
      <trkpt lat="0" lon="0">
        <time>2020-12-20T08:08:17.288000+00:00</time>
      </trkpt>
      <trkpt lat="47.29359" lon="-1.38714">
        <ele>58</ele>
        <time>2020-12-20T08:08:18.272000+00:00</time>
      </trkpt>
      <trkpt lat="0" lon="0">
        <time>2020-12-20T08:08:18.287000+00:00</time>
      </trkpt>
      <trkpt lat="0" lon="0">
        <time>2020-12-20T08:08:18.291000+00:00</time>
      </trkpt>
      <trkpt lat="0" lon="0">
        <time>2020-12-20T08:08:18.293000+00:00</time>
      </trkpt>
      <trkpt lat="47.29359" lon="-1.3872">
        <ele>58</ele>
        <time>2020-12-20T08:08:19.292000+00:00</time>
      </trkpt>
      <trkpt lat="0" lon="0">
        <time>2020-12-20T08:08:19.302000+00:00</time>
      </trkpt>
      <trkpt lat="0" lon="0">
        <time>2020-12-20T08:08:19.306000+00:00</time>
      </trkpt>
      <trkpt lat="0" lon="0">
        <time>2020-12-20T08:08:19.308000+00:00</time>
      </trkpt>
      <trkpt lat="47.29358" lon="-1.38726">
        <ele>58</ele>
        <time>2020-12-20T08:08:20.287000+00:00</time>
      </trkpt>
      <trkpt lat="0" lon="0">
        <time>2020-12-20T08:08:20.290000+00:00</time>
      </trkpt>
      <trkpt lat="0" lon="0">
        <time>2020-12-20T08:08:20.292000+00:00</time>
      </trkpt>
      <trkpt lat="0" lon="0">
        <time>2020-12-20T08:08:20.294000+00:00</time>
      </trkpt>
      <trkpt lat="47.29357" lon="-1.38732">
        <ele>58</ele>
        <time>2020-12-20T08:08:21.278000+00:00</time>
      </trkpt>
      <trkpt lat="0" lon="0">
        <time>2020-12-20T08:08:21.285000+00:00</time>
      </trkpt>
      <trkpt lat="0" lon="0">
        <time>2020-12-20T08:08:21.290000+00:00</time>
      </trkpt>
      <trkpt lat="0" lon="0">
        <time>2020-12-20T08:08:21.293000+00:00</time>
      </trkpt>
      <trkpt lat="47.29356" lon="-1.38737">
        <ele>57</ele>
        <time>2020-12-20T08:08:22.241000+00:00</time>
      </trkpt>
      <trkpt lat="0" lon="0">
        <time>2020-12-20T08:08:22.252000+00:00</time>
      </trkpt>
      <trkpt lat="0" lon="0">
        <time>2020-12-20T08:08:22.265000+00:00</time>
      </trkpt>
      <trkpt lat="47.29354" lon="-1.3874">
        <ele>57</ele>
        <time>2020-12-20T08:08:23.246000+00:00</time>
      </trkpt>
      <trkpt lat="0" lon="0">
        <time>2020-12-20T08:08:23.256000+00:00</time>
      </trkpt>
      <trkpt lat="0" lon="0">
        <time>2020-12-20T08:08:23.262000+00:00</time>
      </trkpt>
      <trkpt lat="0" lon="0">
        <time>2020-12-20T08:08:23.264000+00:00</time>
      </trkpt>
      <trkpt lat="47.29352" lon="-1.38743">
        <ele>57</ele>
        <time>2020-12-20T08:08:24.254000+00:00</time>
      </trkpt>
      <trkpt lat="0" lon="0">
        <time>2020-12-20T08:08:24.260000+00:00</time>
      </trkpt>
      <trkpt lat="0" lon="0">
        <time>2020-12-20T08:08:24.270000+00:00</time>
      </trkpt>
      <trkpt lat="0" lon="0">
        <time>2020-12-20T08:08:24.273000+00:00</time>
      </trkpt>
      <trkpt lat="47.29349" lon="-1.38744">
        <ele>57</ele>
        <time>2020-12-20T08:08:25.189000+00:00</time>
      </trkpt>
      <trkpt lat="0" lon="0">
        <time>2020-12-20T08:08:25.228000+00:00</time>
      </trkpt>
      <trkpt lat="0" lon="0">
        <time>2020-12-20T08:08:25.233000+00:00</time>
      </trkpt>
      <trkpt lat="0" lon="0">
        <time>2020-12-20T08:08:25.234000+00:00</time>
      </trkpt>
      <trkpt lat="47.29345" lon="-1.38745">
        <ele>57</ele>
        <time>2020-12-20T08:08:26.221000+00:00</time>
      </trkpt>
      <trkpt lat="0" lon="0">
        <time>2020-12-20T08:08:26.228000+00:00</time>
      </trkpt>
      <trkpt lat="0" lon="0">
        <time>2020-12-20T08:08:26.232000+00:00</time>
      </trkpt>
      <trkpt lat="0" lon="0">
        <time>2020-12-20T08:08:26.235000+00:00</time>
      </trkpt>
      <trkpt lat="47.29342" lon="-1.38746">
        <ele>57</ele>
        <time>2020-12-20T08:08:27.218000+00:00</time>
      </trkpt>
      <trkpt lat="0" lon="0">
        <time>2020-12-20T08:08:27.226000+00:00</time>
      </trkpt>
      <trkpt lat="0" lon="0">
        <time>2020-12-20T08:08:27.234000+00:00</time>
      </trkpt>
      <trkpt lat="0" lon="0">
        <time>2020-12-20T08:08:27.238000+00:00</time>
      </trkpt>
      <trkpt lat="47.29338" lon="-1.38747">
        <ele>57</ele>
        <time>2020-12-20T08:08:28.249000+00:00</time>
      </trkpt>
      <trkpt lat="0" lon="0">
        <time>2020-12-20T08:08:28.253000+00:00</time>
      </trkpt>
      <trkpt lat="0" lon="0">
        <time>2020-12-20T08:08:28.260000+00:00</time>
      </trkpt>
      <trkpt lat="0" lon="0">
        <time>2020-12-20T08:08:28.263000+00:00</time>
      </trkpt>
      <trkpt lat="47.29335" lon="-1.38746">
        <ele>58</ele>
        <time>2020-12-20T08:08:29.253000+00:00</time>
      </trkpt>
      <trkpt lat="0" lon="0">
        <time>2020-12-20T08:08:29.261000+00:00</time>
      </trkpt>
      <trkpt lat="0" lon="0">
        <time>2020-12-20T08:08:29.271000+00:00</time>
      </trkpt>
      <trkpt lat="0" lon="0">
        <time>2020-12-20T08:08:29.273000+00:00</time>
      </trkpt>
      <trkpt lat="47.29332" lon="-1.38745">
        <ele>60</ele>
        <time>2020-12-20T08:08:30.258000+00:00</time>
      </trkpt>
      <trkpt lat="0" lon="0">
        <time>2020-12-20T08:08:30.277000+00:00</time>
      </trkpt>
      <trkpt lat="0" lon="0">
        <time>2020-12-20T08:08:30.284000+00:00</time>
      </trkpt>
      <trkpt lat="0" lon="0">
        <time>2020-12-20T08:08:30.288000+00:00</time>
      </trkpt>
      <trkpt lat="47.29329" lon="-1.38742">
        <ele>61</ele>
        <time>2020-12-20T08:08:31.268000+00:00</time>
      </trkpt>
      <trkpt lat="0" lon="0">
        <time>2020-12-20T08:08:31.277000+00:00</time>
      </trkpt>
      <trkpt lat="0" lon="0">
        <time>2020-12-20T08:08:31.284000+00:00</time>
      </trkpt>
      <trkpt lat="0" lon="0">
        <time>2020-12-20T08:08:31.298000+00:00</time>
      </trkpt>
      <trkpt lat="47.29327" lon="-1.38738">
        <ele>62</ele>
        <time>2020-12-20T08:08:32.250000+00:00</time>
      </trkpt>
      <trkpt lat="0" lon="0">
        <time>2020-12-20T08:08:32.269000+00:00</time>
      </trkpt>
      <trkpt lat="0" lon="0">
        <time>2020-12-20T08:08:32.273000+00:00</time>
      </trkpt>
      <trkpt lat="0" lon="0">
        <time>2020-12-20T08:08:32.279000+00:00</time>
      </trkpt>
      <trkpt lat="47.29326" lon="-1.38734">
        <ele>62</ele>
        <time>2020-12-20T08:08:33.255000+00:00</time>
      </trkpt>
      <trkpt lat="0" lon="0">
        <time>2020-12-20T08:08:33.266000+00:00</time>
      </trkpt>
      <trkpt lat="0" lon="0">
        <time>2020-12-20T08:08:33.270000+00:00</time>
      </trkpt>
      <trkpt lat="0" lon="0">
        <time>2020-12-20T08:08:33.273000+00:00</time>
      </trkpt>
      <trkpt lat="47.29325" lon="-1.38728">
        <ele>62</ele>
        <time>2020-12-20T08:08:34.254000+00:00</time>
      </trkpt>
      <trkpt lat="0" lon="0">
        <time>2020-12-20T08:08:34.274000+00:00</time>
      </trkpt>
      <trkpt lat="0" lon="0">
        <time>2020-12-20T08:08:34.282000+00:00</time>
      </trkpt>
      <trkpt lat="0" lon="0">
        <time>2020-12-20T08:08:34.289000+00:00</time>
      </trkpt>
      <trkpt lat="47.29324" lon="-1.38721">
        <ele>62</ele>
        <time>2020-12-20T08:08:35.238000+00:00</time>
      </trkpt>
      <trkpt lat="0" lon="0">
        <time>2020-12-20T08:08:35.244000+00:00</time>
      </trkpt>
      <trkpt lat="0" lon="0">
        <time>2020-12-20T08:08:35.246000+00:00</time>
      </trkpt>
      <trkpt lat="0" lon="0">
        <time>2020-12-20T08:08:35.247000+00:00</time>
      </trkpt>
      <trkpt lat="47.29324" lon="-1.38713">
        <ele>63</ele>
        <time>2020-12-20T08:08:36.267000+00:00</time>
      </trkpt>
      <trkpt lat="0" lon="0">
        <time>2020-12-20T08:08:36.274000+00:00</time>
      </trkpt>
      <trkpt lat="0" lon="0">
        <time>2020-12-20T08:08:36.283000+00:00</time>
      </trkpt>
      <trkpt lat="0" lon="0">
        <time>2020-12-20T08:08:36.286000+00:00</time>
      </trkpt>
      <trkpt lat="47.29325" lon="-1.38705">
        <ele>63</ele>
        <time>2020-12-20T08:08:37.243000+00:00</time>
      </trkpt>
      <trkpt lat="0" lon="0">
        <time>2020-12-20T08:08:37.248000+00:00</time>
      </trkpt>
      <trkpt lat="0" lon="0">
        <time>2020-12-20T08:08:37.254000+00:00</time>
      </trkpt>
      <trkpt lat="0" lon="0">
        <time>2020-12-20T08:08:37.259000+00:00</time>
      </trkpt>
      <trkpt lat="47.29326" lon="-1.38697">
        <ele>63</ele>
        <time>2020-12-20T08:08:38.271000+00:00</time>
      </trkpt>
      <trkpt lat="0" lon="0">
        <time>2020-12-20T08:08:38.279000+00:00</time>
      </trkpt>
      <trkpt lat="0" lon="0">
        <time>2020-12-20T08:08:38.285000+00:00</time>
      </trkpt>
      <trkpt lat="0" lon="0">
        <time>2020-12-20T08:08:38.289000+00:00</time>
      </trkpt>
      <trkpt lat="47.29327" lon="-1.38688">
        <ele>63</ele>
        <time>2020-12-20T08:08:39.272000+00:00</time>
      </trkpt>
      <trkpt lat="0" lon="0">
        <time>2020-12-20T08:08:39.286000+00:00</time>
      </trkpt>
      <trkpt lat="0" lon="0">
        <time>2020-12-20T08:08:39.293000+00:00</time>
      </trkpt>
      <trkpt lat="0" lon="0">
        <time>2020-12-20T08:08:39.295000+00:00</time>
      </trkpt>
      <trkpt lat="47.29329" lon="-1.3868">
        <ele>63</ele>
        <time>2020-12-20T08:08:40.250000+00:00</time>
      </trkpt>
      <trkpt lat="0" lon="0">
        <time>2020-12-20T08:08:40.254000+00:00</time>
      </trkpt>
      <trkpt lat="0" lon="0">
        <time>2020-12-20T08:08:40.259000+00:00</time>
      </trkpt>
      <trkpt lat="0" lon="0">
        <time>2020-12-20T08:08:40.267000+00:00</time>
      </trkpt>
      <trkpt lat="47.2933" lon="-1.38672">
        <ele>63</ele>
        <time>2020-12-20T08:08:41.234000+00:00</time>
      </trkpt>
      <trkpt lat="0" lon="0">
        <time>2020-12-20T08:08:41.250000+00:00</time>
      </trkpt>
      <trkpt lat="0" lon="0">
        <time>2020-12-20T08:08:41.256000+00:00</time>
      </trkpt>
      <trkpt lat="0" lon="0">
        <time>2020-12-20T08:08:41.259000+00:00</time>
      </trkpt>
      <trkpt lat="47.29332" lon="-1.38664">
        <ele>63</ele>
        <time>2020-12-20T08:08:42.272000+00:00</time>
      </trkpt>
      <trkpt lat="0" lon="0">
        <time>2020-12-20T08:08:42.278000+00:00</time>
      </trkpt>
      <trkpt lat="0" lon="0">
        <time>2020-12-20T08:08:42.283000+00:00</time>
      </trkpt>
      <trkpt lat="0" lon="0">
        <time>2020-12-20T08:08:42.287000+00:00</time>
      </trkpt>
      <trkpt lat="47.29334" lon="-1.38656">
        <ele>62</ele>
        <time>2020-12-20T08:08:43.277000+00:00</time>
      </trkpt>
      <trkpt lat="0" lon="0">
        <time>2020-12-20T08:08:43.300000+00:00</time>
      </trkpt>
      <trkpt lat="0" lon="0">
        <time>2020-12-20T08:08:43.313000+00:00</time>
      </trkpt>
      <trkpt lat="0" lon="0">
        <time>2020-12-20T08:08:43.317000+00:00</time>
      </trkpt>
      <trkpt lat="47.29337" lon="-1.38648">
        <ele>62</ele>
        <time>2020-12-20T08:08:44.250000+00:00</time>
      </trkpt>
      <trkpt lat="0" lon="0">
        <time>2020-12-20T08:08:44.263000+00:00</time>
      </trkpt>
      <trkpt lat="0" lon="0">
        <time>2020-12-20T08:08:44.267000+00:00</time>
      </trkpt>
      <trkpt lat="0" lon="0">
        <time>2020-12-20T08:08:44.272000+00:00</time>
      </trkpt>
      <trkpt lat="47.29339" lon="-1.3864">
        <ele>62</ele>
        <time>2020-12-20T08:08:45.247000+00:00</time>
      </trkpt>
      <trkpt lat="0" lon="0">
        <time>2020-12-20T08:08:45.265000+00:00</time>
      </trkpt>
      <trkpt lat="0" lon="0">
        <time>2020-12-20T08:08:45.277000+00:00</time>
      </trkpt>
      <trkpt lat="0" lon="0">
        <time>2020-12-20T08:08:45.284000+00:00</time>
      </trkpt>
      <trkpt lat="47.29342" lon="-1.38633">
        <ele>63</ele>
        <time>2020-12-20T08:08:46.283000+00:00</time>
      </trkpt>
      <trkpt lat="0" lon="0">
        <time>2020-12-20T08:08:46.301000+00:00</time>
      </trkpt>
      <trkpt lat="0" lon="0">
        <time>2020-12-20T08:08:46.307000+00:00</time>
      </trkpt>
      <trkpt lat="0" lon="0">
        <time>2020-12-20T08:08:46.309000+00:00</time>
      </trkpt>
      <trkpt lat="47.29344" lon="-1.38626">
        <ele>62</ele>
        <time>2020-12-20T08:08:47.312000+00:00</time>
      </trkpt>
      <trkpt lat="0" lon="0">
        <time>2020-12-20T08:08:47.326000+00:00</time>
      </trkpt>
      <trkpt lat="0" lon="0">
        <time>2020-12-20T08:08:47.335000+00:00</time>
      </trkpt>
      <trkpt lat="0" lon="0">
        <time>2020-12-20T08:08:47.340000+00:00</time>
      </trkpt>
      <trkpt lat="47.29347" lon="-1.38619">
        <ele>62</ele>
        <time>2020-12-20T08:08:48.275000+00:00</time>
      </trkpt>
      <trkpt lat="0" lon="0">
        <time>2020-12-20T08:08:48.288000+00:00</time>
      </trkpt>
      <trkpt lat="0" lon="0">
        <time>2020-12-20T08:08:48.293000+00:00</time>
      </trkpt>
      <trkpt lat="0" lon="0">
        <time>2020-12-20T08:08:48.299000+00:00</time>
      </trkpt>
      <trkpt lat="47.29349" lon="-1.38612">
        <ele>62</ele>
        <time>2020-12-20T08:08:49.276000+00:00</time>
      </trkpt>
      <trkpt lat="0" lon="0">
        <time>2020-12-20T08:08:49.299000+00:00</time>
      </trkpt>
      <trkpt lat="0" lon="0">
        <time>2020-12-20T08:08:49.305000+00:00</time>
      </trkpt>
      <trkpt lat="0" lon="0">
        <time>2020-12-20T08:08:49.315000+00:00</time>
      </trkpt>
      <trkpt lat="47.29352" lon="-1.38605">
        <ele>63</ele>
        <time>2020-12-20T08:08:50.275000+00:00</time>
      </trkpt>
      <trkpt lat="0" lon="0">
        <time>2020-12-20T08:08:50.281000+00:00</time>
      </trkpt>
      <trkpt lat="0" lon="0">
        <time>2020-12-20T08:08:50.285000+00:00</time>
      </trkpt>
      <trkpt lat="0" lon="0">
        <time>2020-12-20T08:08:50.289000+00:00</time>
      </trkpt>
      <trkpt lat="47.29354" lon="-1.38599">
        <ele>63</ele>
        <time>2020-12-20T08:08:51.295000+00:00</time>
      </trkpt>
      <trkpt lat="0" lon="0">
        <time>2020-12-20T08:08:51.302000+00:00</time>
      </trkpt>
      <trkpt lat="0" lon="0">
        <time>2020-12-20T08:08:51.310000+00:00</time>
      </trkpt>
      <trkpt lat="0" lon="0">
        <time>2020-12-20T08:08:51.313000+00:00</time>
      </trkpt>
      <trkpt lat="47.29356" lon="-1.38592">
        <ele>63</ele>
        <time>2020-12-20T08:08:52.306000+00:00</time>
      </trkpt>
      <trkpt lat="0" lon="0">
        <time>2020-12-20T08:08:52.316000+00:00</time>
      </trkpt>
      <trkpt lat="0" lon="0">
        <time>2020-12-20T08:08:52.318000+00:00</time>
      </trkpt>
      <trkpt lat="47.29358" lon="-1.38586">
        <ele>63</ele>
        <time>2020-12-20T08:08:53.324000+00:00</time>
      </trkpt>
      <trkpt lat="0" lon="0">
        <time>2020-12-20T08:08:53.338000+00:00</time>
      </trkpt>
      <trkpt lat="0" lon="0">
        <time>2020-12-20T08:08:53.348000+00:00</time>
      </trkpt>
      <trkpt lat="0" lon="0">
        <time>2020-12-20T08:08:53.350000+00:00</time>
      </trkpt>
      <trkpt lat="47.2936" lon="-1.3858">
        <ele>63</ele>
        <time>2020-12-20T08:08:54.288000+00:00</time>
      </trkpt>
      <trkpt lat="0" lon="0">
        <time>2020-12-20T08:08:54.312000+00:00</time>
      </trkpt>
      <trkpt lat="0" lon="0">
        <time>2020-12-20T08:08:54.318000+00:00</time>
      </trkpt>
      <trkpt lat="0" lon="0">
        <time>2020-12-20T08:08:54.324000+00:00</time>
      </trkpt>
      <trkpt lat="47.29362" lon="-1.38574">
        <ele>63</ele>
        <time>2020-12-20T08:08:55.298000+00:00</time>
      </trkpt>
      <trkpt lat="0" lon="0">
        <time>2020-12-20T08:08:55.319000+00:00</time>
      </trkpt>
      <trkpt lat="0" lon="0">
        <time>2020-12-20T08:08:55.327000+00:00</time>
      </trkpt>
      <trkpt lat="0" lon="0">
        <time>2020-12-20T08:08:55.329000+00:00</time>
      </trkpt>
      <trkpt lat="47.29364" lon="-1.38569">
        <ele>64</ele>
        <time>2020-12-20T08:08:56.268000+00:00</time>
      </trkpt>
      <trkpt lat="0" lon="0">
        <time>2020-12-20T08:08:56.283000+00:00</time>
      </trkpt>
      <trkpt lat="0" lon="0">
        <time>2020-12-20T08:08:56.288000+00:00</time>
      </trkpt>
      <trkpt lat="0" lon="0">
        <time>2020-12-20T08:08:56.290000+00:00</time>
      </trkpt>
      <trkpt lat="47.29366" lon="-1.38563">
        <ele>64</ele>
        <time>2020-12-20T08:08:57.274000+00:00</time>
      </trkpt>
      <trkpt lat="0" lon="0">
        <time>2020-12-20T08:08:57.283000+00:00</time>
      </trkpt>
      <trkpt lat="0" lon="0">
        <time>2020-12-20T08:08:57.289000+00:00</time>
      </trkpt>
      <trkpt lat="0" lon="0">
        <time>2020-12-20T08:08:57.292000+00:00</time>
      </trkpt>
      <trkpt lat="47.29368" lon="-1.38557">
        <ele>64</ele>
        <time>2020-12-20T08:08:58.275000+00:00</time>
      </trkpt>
      <trkpt lat="0" lon="0">
        <time>2020-12-20T08:08:58.283000+00:00</time>
      </trkpt>
      <trkpt lat="0" lon="0">
        <time>2020-12-20T08:08:58.287000+00:00</time>
      </trkpt>
      <trkpt lat="0" lon="0">
        <time>2020-12-20T08:08:58.290000+00:00</time>
      </trkpt>
      <trkpt lat="47.2937" lon="-1.38552">
        <ele>64</ele>
        <time>2020-12-20T08:08:59.283000+00:00</time>
      </trkpt>
      <trkpt lat="0" lon="0">
        <time>2020-12-20T08:08:59.294000+00:00</time>
      </trkpt>
      <trkpt lat="0" lon="0">
        <time>2020-12-20T08:08:59.300000+00:00</time>
      </trkpt>
      <trkpt lat="0" lon="0">
        <time>2020-12-20T08:08:59.303000+00:00</time>
      </trkpt>
      <trkpt lat="47.29372" lon="-1.38547">
        <ele>65</ele>
        <time>2020-12-20T08:09:00.282000+00:00</time>
      </trkpt>
      <trkpt lat="0" lon="0">
        <time>2020-12-20T08:09:00.291000+00:00</time>
      </trkpt>
      <trkpt lat="0" lon="0">
        <time>2020-12-20T08:09:00.300000+00:00</time>
      </trkpt>
      <trkpt lat="0" lon="0">
        <time>2020-12-20T08:09:00.303000+00:00</time>
      </trkpt>
      <trkpt lat="47.29374" lon="-1.38541">
        <ele>65</ele>
        <time>2020-12-20T08:09:01.256000+00:00</time>
      </trkpt>
      <trkpt lat="0" lon="0">
        <time>2020-12-20T08:09:01.267000+00:00</time>
      </trkpt>
      <trkpt lat="0" lon="0">
        <time>2020-12-20T08:09:01.275000+00:00</time>
      </trkpt>
      <trkpt lat="0" lon="0">
        <time>2020-12-20T08:09:01.279000+00:00</time>
      </trkpt>
      <trkpt lat="47.29376" lon="-1.38536">
        <ele>65</ele>
        <time>2020-12-20T08:09:02.278000+00:00</time>
      </trkpt>
      <trkpt lat="0" lon="0">
        <time>2020-12-20T08:09:02.294000+00:00</time>
      </trkpt>
      <trkpt lat="0" lon="0">
        <time>2020-12-20T08:09:02.298000+00:00</time>
      </trkpt>
      <trkpt lat="0" lon="0">
        <time>2020-12-20T08:09:02.300000+00:00</time>
      </trkpt>
      <trkpt lat="47.29378" lon="-1.38531">
        <ele>65</ele>
        <time>2020-12-20T08:09:03.279000+00:00</time>
      </trkpt>
      <trkpt lat="0" lon="0">
        <time>2020-12-20T08:09:03.285000+00:00</time>
      </trkpt>
      <trkpt lat="0" lon="0">
        <time>2020-12-20T08:09:03.289000+00:00</time>
      </trkpt>
      <trkpt lat="0" lon="0">
        <time>2020-12-20T08:09:03.291000+00:00</time>
      </trkpt>
      <trkpt lat="47.29381" lon="-1.38525">
        <ele>65</ele>
        <time>2020-12-20T08:09:04.266000+00:00</time>
      </trkpt>
      <trkpt lat="0" lon="0">
        <time>2020-12-20T08:09:04.272000+00:00</time>
      </trkpt>
      <trkpt lat="0" lon="0">
        <time>2020-12-20T08:09:04.280000+00:00</time>
      </trkpt>
      <trkpt lat="0" lon="0">
        <time>2020-12-20T08:09:04.282000+00:00</time>
      </trkpt>
      <trkpt lat="47.29383" lon="-1.3852">
        <ele>65</ele>
        <time>2020-12-20T08:09:05.270000+00:00</time>
      </trkpt>
      <trkpt lat="0" lon="0">
        <time>2020-12-20T08:09:05.283000+00:00</time>
      </trkpt>
      <trkpt lat="0" lon="0">
        <time>2020-12-20T08:09:05.291000+00:00</time>
      </trkpt>
      <trkpt lat="0" lon="0">
        <time>2020-12-20T08:09:05.293000+00:00</time>
      </trkpt>
      <trkpt lat="47.29385" lon="-1.38514">
        <ele>65</ele>
        <time>2020-12-20T08:09:06.249000+00:00</time>
      </trkpt>
      <trkpt lat="0" lon="0">
        <time>2020-12-20T08:09:06.256000+00:00</time>
      </trkpt>
      <trkpt lat="0" lon="0">
        <time>2020-12-20T08:09:06.261000+00:00</time>
      </trkpt>
      <trkpt lat="0" lon="0">
        <time>2020-12-20T08:09:06.264000+00:00</time>
      </trkpt>
      <trkpt lat="47.29387" lon="-1.38508">
        <ele>65</ele>
        <time>2020-12-20T08:09:07.247000+00:00</time>
      </trkpt>
      <trkpt lat="0" lon="0">
        <time>2020-12-20T08:09:07.263000+00:00</time>
      </trkpt>
      <trkpt lat="0" lon="0">
        <time>2020-12-20T08:09:07.267000+00:00</time>
      </trkpt>
      <trkpt lat="0" lon="0">
        <time>2020-12-20T08:09:07.270000+00:00</time>
      </trkpt>
      <trkpt lat="47.29389" lon="-1.38502">
        <ele>65</ele>
        <time>2020-12-20T08:09:08.257000+00:00</time>
      </trkpt>
      <trkpt lat="0" lon="0">
        <time>2020-12-20T08:09:08.263000+00:00</time>
      </trkpt>
      <trkpt lat="0" lon="0">
        <time>2020-12-20T08:09:08.267000+00:00</time>
      </trkpt>
      <trkpt lat="0" lon="0">
        <time>2020-12-20T08:09:08.270000+00:00</time>
      </trkpt>
      <trkpt lat="47.29391" lon="-1.38496">
        <ele>65</ele>
        <time>2020-12-20T08:09:09.255000+00:00</time>
      </trkpt>
      <trkpt lat="0" lon="0">
        <time>2020-12-20T08:09:09.266000+00:00</time>
      </trkpt>
      <trkpt lat="0" lon="0">
        <time>2020-12-20T08:09:09.276000+00:00</time>
      </trkpt>
      <trkpt lat="0" lon="0">
        <time>2020-12-20T08:09:09.280000+00:00</time>
      </trkpt>
      <trkpt lat="47.29394" lon="-1.3849">
        <ele>65</ele>
        <time>2020-12-20T08:09:10.255000+00:00</time>
      </trkpt>
      <trkpt lat="0" lon="0">
        <time>2020-12-20T08:09:10.275000+00:00</time>
      </trkpt>
      <trkpt lat="0" lon="0">
        <time>2020-12-20T08:09:10.280000+00:00</time>
      </trkpt>
      <trkpt lat="0" lon="0">
        <time>2020-12-20T08:09:10.282000+00:00</time>
      </trkpt>
      <trkpt lat="47.29396" lon="-1.38484">
        <ele>65</ele>
        <time>2020-12-20T08:09:11.247000+00:00</time>
      </trkpt>
      <trkpt lat="0" lon="0">
        <time>2020-12-20T08:09:11.254000+00:00</time>
      </trkpt>
      <trkpt lat="0" lon="0">
        <time>2020-12-20T08:09:11.263000+00:00</time>
      </trkpt>
      <trkpt lat="0" lon="0">
        <time>2020-12-20T08:09:11.265000+00:00</time>
      </trkpt>
      <trkpt lat="47.29398" lon="-1.38478">
        <ele>65</ele>
        <time>2020-12-20T08:09:12.254000+00:00</time>
      </trkpt>
      <trkpt lat="0" lon="0">
        <time>2020-12-20T08:09:12.263000+00:00</time>
      </trkpt>
      <trkpt lat="0" lon="0">
        <time>2020-12-20T08:09:12.270000+00:00</time>
      </trkpt>
      <trkpt lat="0" lon="0">
        <time>2020-12-20T08:09:12.274000+00:00</time>
      </trkpt>
      <trkpt lat="47.29399" lon="-1.38472">
        <ele>65</ele>
        <time>2020-12-20T08:09:13.274000+00:00</time>
      </trkpt>
      <trkpt lat="0" lon="0">
        <time>2020-12-20T08:09:13.282000+00:00</time>
      </trkpt>
      <trkpt lat="0" lon="0">
        <time>2020-12-20T08:09:13.288000+00:00</time>
      </trkpt>
      <trkpt lat="0" lon="0">
        <time>2020-12-20T08:09:13.292000+00:00</time>
      </trkpt>
      <trkpt lat="47.29401" lon="-1.38466">
        <ele>65</ele>
        <time>2020-12-20T08:09:14.280000+00:00</time>
      </trkpt>
      <trkpt lat="0" lon="0">
        <time>2020-12-20T08:09:14.287000+00:00</time>
      </trkpt>
      <trkpt lat="0" lon="0">
        <time>2020-12-20T08:09:14.289000+00:00</time>
      </trkpt>
      <trkpt lat="0" lon="0">
        <time>2020-12-20T08:09:14.291000+00:00</time>
      </trkpt>
      <trkpt lat="47.29403" lon="-1.38459">
        <ele>65</ele>
        <time>2020-12-20T08:09:15.246000+00:00</time>
      </trkpt>
      <trkpt lat="0" lon="0">
        <time>2020-12-20T08:09:15.259000+00:00</time>
      </trkpt>
      <trkpt lat="0" lon="0">
        <time>2020-12-20T08:09:15.268000+00:00</time>
      </trkpt>
      <trkpt lat="0" lon="0">
        <time>2020-12-20T08:09:15.271000+00:00</time>
      </trkpt>
      <trkpt lat="47.29405" lon="-1.38453">
        <ele>65</ele>
        <time>2020-12-20T08:09:16.264000+00:00</time>
      </trkpt>
      <trkpt lat="0" lon="0">
        <time>2020-12-20T08:09:16.271000+00:00</time>
      </trkpt>
      <trkpt lat="0" lon="0">
        <time>2020-12-20T08:09:16.277000+00:00</time>
      </trkpt>
      <trkpt lat="0" lon="0">
        <time>2020-12-20T08:09:16.282000+00:00</time>
      </trkpt>
      <trkpt lat="47.29407" lon="-1.38446">
        <ele>65</ele>
        <time>2020-12-20T08:09:17.259000+00:00</time>
      </trkpt>
      <trkpt lat="0" lon="0">
        <time>2020-12-20T08:09:17.265000+00:00</time>
      </trkpt>
      <trkpt lat="0" lon="0">
        <time>2020-12-20T08:09:17.273000+00:00</time>
      </trkpt>
      <trkpt lat="0" lon="0">
        <time>2020-12-20T08:09:17.275000+00:00</time>
      </trkpt>
      <trkpt lat="47.29409" lon="-1.38439">
        <ele>64</ele>
        <time>2020-12-20T08:09:18.249000+00:00</time>
      </trkpt>
      <trkpt lat="0" lon="0">
        <time>2020-12-20T08:09:18.258000+00:00</time>
      </trkpt>
      <trkpt lat="0" lon="0">
        <time>2020-12-20T08:09:18.262000+00:00</time>
      </trkpt>
      <trkpt lat="0" lon="0">
        <time>2020-12-20T08:09:18.267000+00:00</time>
      </trkpt>
      <trkpt lat="47.2941" lon="-1.38433">
        <ele>64</ele>
        <time>2020-12-20T08:09:19.263000+00:00</time>
      </trkpt>
      <trkpt lat="0" lon="0">
        <time>2020-12-20T08:09:19.277000+00:00</time>
      </trkpt>
      <trkpt lat="0" lon="0">
        <time>2020-12-20T08:09:19.285000+00:00</time>
      </trkpt>
      <trkpt lat="0" lon="0">
        <time>2020-12-20T08:09:19.287000+00:00</time>
      </trkpt>
      <trkpt lat="47.29412" lon="-1.38426">
        <ele>64</ele>
        <time>2020-12-20T08:09:20.288000+00:00</time>
      </trkpt>
      <trkpt lat="0" lon="0">
        <time>2020-12-20T08:09:20.297000+00:00</time>
      </trkpt>
      <trkpt lat="0" lon="0">
        <time>2020-12-20T08:09:20.301000+00:00</time>
      </trkpt>
      <trkpt lat="0" lon="0">
        <time>2020-12-20T08:09:20.303000+00:00</time>
      </trkpt>
      <trkpt lat="47.29414" lon="-1.38419">
        <ele>64</ele>
        <time>2020-12-20T08:09:21.247000+00:00</time>
      </trkpt>
      <trkpt lat="0" lon="0">
        <time>2020-12-20T08:09:21.256000+00:00</time>
      </trkpt>
      <trkpt lat="0" lon="0">
        <time>2020-12-20T08:09:21.262000+00:00</time>
      </trkpt>
      <trkpt lat="0" lon="0">
        <time>2020-12-20T08:09:21.264000+00:00</time>
      </trkpt>
      <trkpt lat="47.29415" lon="-1.38412">
        <ele>64</ele>
        <time>2020-12-20T08:09:22.261000+00:00</time>
      </trkpt>
      <trkpt lat="0" lon="0">
        <time>2020-12-20T08:09:22.269000+00:00</time>
      </trkpt>
      <trkpt lat="0" lon="0">
        <time>2020-12-20T08:09:22.274000+00:00</time>
      </trkpt>
      <trkpt lat="0" lon="0">
        <time>2020-12-20T08:09:22.277000+00:00</time>
      </trkpt>
      <trkpt lat="47.29417" lon="-1.38405">
        <ele>64</ele>
        <time>2020-12-20T08:09:23.260000+00:00</time>
      </trkpt>
      <trkpt lat="0" lon="0">
        <time>2020-12-20T08:09:23.267000+00:00</time>
      </trkpt>
      <trkpt lat="0" lon="0">
        <time>2020-12-20T08:09:23.271000+00:00</time>
      </trkpt>
      <trkpt lat="0" lon="0">
        <time>2020-12-20T08:09:23.280000+00:00</time>
      </trkpt>
      <trkpt lat="47.29419" lon="-1.38398">
        <ele>65</ele>
        <time>2020-12-20T08:09:24.267000+00:00</time>
      </trkpt>
      <trkpt lat="0" lon="0">
        <time>2020-12-20T08:09:24.284000+00:00</time>
      </trkpt>
      <trkpt lat="0" lon="0">
        <time>2020-12-20T08:09:24.293000+00:00</time>
      </trkpt>
      <trkpt lat="0" lon="0">
        <time>2020-12-20T08:09:24.299000+00:00</time>
      </trkpt>
      <trkpt lat="47.29421" lon="-1.38391">
        <ele>65</ele>
        <time>2020-12-20T08:09:25.245000+00:00</time>
      </trkpt>
      <trkpt lat="0" lon="0">
        <time>2020-12-20T08:09:25.262000+00:00</time>
      </trkpt>
      <trkpt lat="0" lon="0">
        <time>2020-12-20T08:09:25.269000+00:00</time>
      </trkpt>
      <trkpt lat="0" lon="0">
        <time>2020-12-20T08:09:25.272000+00:00</time>
      </trkpt>
      <trkpt lat="47.29422" lon="-1.38384">
        <ele>65</ele>
        <time>2020-12-20T08:09:26.250000+00:00</time>
      </trkpt>
      <trkpt lat="0" lon="0">
        <time>2020-12-20T08:09:26.259000+00:00</time>
      </trkpt>
      <trkpt lat="0" lon="0">
        <time>2020-12-20T08:09:26.267000+00:00</time>
      </trkpt>
      <trkpt lat="0" lon="0">
        <time>2020-12-20T08:09:26.269000+00:00</time>
      </trkpt>
      <trkpt lat="47.29424" lon="-1.38377">
        <ele>65</ele>
        <time>2020-12-20T08:09:27.259000+00:00</time>
      </trkpt>
      <trkpt lat="0" lon="0">
        <time>2020-12-20T08:09:27.263000+00:00</time>
      </trkpt>
      <trkpt lat="0" lon="0">
        <time>2020-12-20T08:09:27.270000+00:00</time>
      </trkpt>
      <trkpt lat="0" lon="0">
        <time>2020-12-20T08:09:27.273000+00:00</time>
      </trkpt>
      <trkpt lat="47.29426" lon="-1.3837">
        <ele>65</ele>
        <time>2020-12-20T08:09:28.255000+00:00</time>
      </trkpt>
      <trkpt lat="0" lon="0">
        <time>2020-12-20T08:09:28.270000+00:00</time>
      </trkpt>
      <trkpt lat="0" lon="0">
        <time>2020-12-20T08:09:28.277000+00:00</time>
      </trkpt>
      <trkpt lat="0" lon="0">
        <time>2020-12-20T08:09:28.280000+00:00</time>
      </trkpt>
      <trkpt lat="47.29427" lon="-1.38363">
        <ele>65</ele>
        <time>2020-12-20T08:09:29.255000+00:00</time>
      </trkpt>
      <trkpt lat="0" lon="0">
        <time>2020-12-20T08:09:29.261000+00:00</time>
      </trkpt>
      <trkpt lat="0" lon="0">
        <time>2020-12-20T08:09:29.266000+00:00</time>
      </trkpt>
      <trkpt lat="0" lon="0">
        <time>2020-12-20T08:09:29.268000+00:00</time>
      </trkpt>
      <trkpt lat="47.29429" lon="-1.38356">
        <ele>65</ele>
        <time>2020-12-20T08:09:30.217000+00:00</time>
      </trkpt>
      <trkpt lat="0" lon="0">
        <time>2020-12-20T08:09:30.233000+00:00</time>
      </trkpt>
      <trkpt lat="0" lon="0">
        <time>2020-12-20T08:09:30.245000+00:00</time>
      </trkpt>
      <trkpt lat="0" lon="0">
        <time>2020-12-20T08:09:30.246000+00:00</time>
      </trkpt>
      <trkpt lat="47.2943" lon="-1.38349">
        <ele>65</ele>
        <time>2020-12-20T08:09:31.270000+00:00</time>
      </trkpt>
      <trkpt lat="0" lon="0">
        <time>2020-12-20T08:09:31.275000+00:00</time>
      </trkpt>
      <trkpt lat="0" lon="0">
        <time>2020-12-20T08:09:31.278000+00:00</time>
      </trkpt>
      <trkpt lat="0" lon="0">
        <time>2020-12-20T08:09:31.279000+00:00</time>
      </trkpt>
      <trkpt lat="47.29431" lon="-1.38342">
        <ele>65</ele>
        <time>2020-12-20T08:09:32.246000+00:00</time>
      </trkpt>
      <trkpt lat="0" lon="0">
        <time>2020-12-20T08:09:32.254000+00:00</time>
      </trkpt>
      <trkpt lat="0" lon="0">
        <time>2020-12-20T08:09:32.258000+00:00</time>
      </trkpt>
      <trkpt lat="0" lon="0">
        <time>2020-12-20T08:09:32.260000+00:00</time>
      </trkpt>
      <trkpt lat="47.29432" lon="-1.38336">
        <ele>65</ele>
        <time>2020-12-20T08:09:33.260000+00:00</time>
      </trkpt>
      <trkpt lat="0" lon="0">
        <time>2020-12-20T08:09:33.270000+00:00</time>
      </trkpt>
      <trkpt lat="0" lon="0">
        <time>2020-12-20T08:09:33.277000+00:00</time>
      </trkpt>
      <trkpt lat="0" lon="0">
        <time>2020-12-20T08:09:33.282000+00:00</time>
      </trkpt>
      <trkpt lat="47.29433" lon="-1.3833">
        <ele>65</ele>
        <time>2020-12-20T08:09:34.279000+00:00</time>
      </trkpt>
      <trkpt lat="0" lon="0">
        <time>2020-12-20T08:09:34.287000+00:00</time>
      </trkpt>
      <trkpt lat="0" lon="0">
        <time>2020-12-20T08:09:34.291000+00:00</time>
      </trkpt>
      <trkpt lat="0" lon="0">
        <time>2020-12-20T08:09:34.294000+00:00</time>
      </trkpt>
      <trkpt lat="47.29433" lon="-1.38325">
        <ele>65</ele>
        <time>2020-12-20T08:09:35.260000+00:00</time>
      </trkpt>
      <trkpt lat="0" lon="0">
        <time>2020-12-20T08:09:35.267000+00:00</time>
      </trkpt>
      <trkpt lat="0" lon="0">
        <time>2020-12-20T08:09:35.272000+00:00</time>
      </trkpt>
      <trkpt lat="0" lon="0">
        <time>2020-12-20T08:09:35.275000+00:00</time>
      </trkpt>
      <trkpt lat="47.29432" lon="-1.38321">
        <ele>65</ele>
        <time>2020-12-20T08:09:36.259000+00:00</time>
      </trkpt>
      <trkpt lat="0" lon="0">
        <time>2020-12-20T08:09:36.272000+00:00</time>
      </trkpt>
      <trkpt lat="0" lon="0">
        <time>2020-12-20T08:09:36.282000+00:00</time>
      </trkpt>
      <trkpt lat="0" lon="0">
        <time>2020-12-20T08:09:36.284000+00:00</time>
      </trkpt>
      <trkpt lat="47.29432" lon="-1.38317">
        <ele>64</ele>
        <time>2020-12-20T08:09:37.251000+00:00</time>
      </trkpt>
      <trkpt lat="0" lon="0">
        <time>2020-12-20T08:09:37.264000+00:00</time>
      </trkpt>
      <trkpt lat="0" lon="0">
        <time>2020-12-20T08:09:37.268000+00:00</time>
      </trkpt>
      <trkpt lat="0" lon="0">
        <time>2020-12-20T08:09:37.271000+00:00</time>
      </trkpt>
      <trkpt lat="47.29431" lon="-1.38313">
        <ele>65</ele>
        <time>2020-12-20T08:09:38.275000+00:00</time>
      </trkpt>
      <trkpt lat="0" lon="0">
        <time>2020-12-20T08:09:38.283000+00:00</time>
      </trkpt>
      <trkpt lat="0" lon="0">
        <time>2020-12-20T08:09:38.290000+00:00</time>
      </trkpt>
      <trkpt lat="0" lon="0">
        <time>2020-12-20T08:09:38.295000+00:00</time>
      </trkpt>
      <trkpt lat="47.29431" lon="-1.3831">
        <ele>64</ele>
        <time>2020-12-20T08:09:39.272000+00:00</time>
      </trkpt>
      <trkpt lat="0" lon="0">
        <time>2020-12-20T08:09:39.295000+00:00</time>
      </trkpt>
      <trkpt lat="0" lon="0">
        <time>2020-12-20T08:09:39.300000+00:00</time>
      </trkpt>
      <trkpt lat="0" lon="0">
        <time>2020-12-20T08:09:39.303000+00:00</time>
      </trkpt>
      <trkpt lat="47.2943" lon="-1.38308">
        <ele>65</ele>
        <time>2020-12-20T08:09:40.262000+00:00</time>
      </trkpt>
      <trkpt lat="0" lon="0">
        <time>2020-12-20T08:09:40.271000+00:00</time>
      </trkpt>
      <trkpt lat="0" lon="0">
        <time>2020-12-20T08:09:40.275000+00:00</time>
      </trkpt>
      <trkpt lat="0" lon="0">
        <time>2020-12-20T08:09:40.278000+00:00</time>
      </trkpt>
      <trkpt lat="47.29429" lon="-1.38306">
        <ele>65</ele>
        <time>2020-12-20T08:09:41.263000+00:00</time>
      </trkpt>
      <trkpt lat="0" lon="0">
        <time>2020-12-20T08:09:41.276000+00:00</time>
      </trkpt>
      <trkpt lat="0" lon="0">
        <time>2020-12-20T08:09:41.280000+00:00</time>
      </trkpt>
      <trkpt lat="0" lon="0">
        <time>2020-12-20T08:09:41.288000+00:00</time>
      </trkpt>
      <trkpt lat="47.29427" lon="-1.38304">
        <ele>65</ele>
        <time>2020-12-20T08:09:42.233000+00:00</time>
      </trkpt>
      <trkpt lat="0" lon="0">
        <time>2020-12-20T08:09:42.245000+00:00</time>
      </trkpt>
      <trkpt lat="0" lon="0">
        <time>2020-12-20T08:09:42.253000+00:00</time>
      </trkpt>
      <trkpt lat="0" lon="0">
        <time>2020-12-20T08:09:42.255000+00:00</time>
      </trkpt>
      <trkpt lat="47.29426" lon="-1.38303">
        <ele>65</ele>
        <time>2020-12-20T08:09:43.288000+00:00</time>
      </trkpt>
      <trkpt lat="0" lon="0">
        <time>2020-12-20T08:09:43.308000+00:00</time>
      </trkpt>
      <trkpt lat="0" lon="0">
        <time>2020-12-20T08:09:43.313000+00:00</time>
      </trkpt>
      <trkpt lat="0" lon="0">
        <time>2020-12-20T08:09:43.316000+00:00</time>
      </trkpt>
      <trkpt lat="47.29424" lon="-1.38302">
        <ele>65</ele>
        <time>2020-12-20T08:09:44.254000+00:00</time>
      </trkpt>
      <trkpt lat="0" lon="0">
        <time>2020-12-20T08:09:44.268000+00:00</time>
      </trkpt>
      <trkpt lat="0" lon="0">
        <time>2020-12-20T08:09:44.272000+00:00</time>
      </trkpt>
      <trkpt lat="0" lon="0">
        <time>2020-12-20T08:09:44.278000+00:00</time>
      </trkpt>
      <trkpt lat="47.29423" lon="-1.38301">
        <ele>65</ele>
        <time>2020-12-20T08:09:45.290000+00:00</time>
      </trkpt>
      <trkpt lat="0" lon="0">
        <time>2020-12-20T08:09:45.301000+00:00</time>
      </trkpt>
      <trkpt lat="0" lon="0">
        <time>2020-12-20T08:09:45.320000+00:00</time>
      </trkpt>
      <trkpt lat="0" lon="0">
        <time>2020-12-20T08:09:45.324000+00:00</time>
      </trkpt>
      <trkpt lat="47.29421" lon="-1.383">
        <ele>65</ele>
        <time>2020-12-20T08:09:46.272000+00:00</time>
      </trkpt>
      <trkpt lat="0" lon="0">
        <time>2020-12-20T08:09:46.292000+00:00</time>
      </trkpt>
      <trkpt lat="0" lon="0">
        <time>2020-12-20T08:09:46.296000+00:00</time>
      </trkpt>
      <trkpt lat="0" lon="0">
        <time>2020-12-20T08:09:46.298000+00:00</time>
      </trkpt>
      <trkpt lat="47.29419" lon="-1.38299">
        <ele>65</ele>
        <time>2020-12-20T08:09:47.293000+00:00</time>
      </trkpt>
      <trkpt lat="0" lon="0">
        <time>2020-12-20T08:09:47.308000+00:00</time>
      </trkpt>
      <trkpt lat="0" lon="0">
        <time>2020-12-20T08:09:47.315000+00:00</time>
      </trkpt>
      <trkpt lat="0" lon="0">
        <time>2020-12-20T08:09:47.318000+00:00</time>
      </trkpt>
      <trkpt lat="47.29417" lon="-1.38298">
        <ele>65</ele>
        <time>2020-12-20T08:09:48.250000+00:00</time>
      </trkpt>
      <trkpt lat="0" lon="0">
        <time>2020-12-20T08:09:48.255000+00:00</time>
      </trkpt>
      <trkpt lat="0" lon="0">
        <time>2020-12-20T08:09:48.259000+00:00</time>
      </trkpt>
      <trkpt lat="0" lon="0">
        <time>2020-12-20T08:09:48.263000+00:00</time>
      </trkpt>
      <trkpt lat="47.29415" lon="-1.38297">
        <ele>65</ele>
        <time>2020-12-20T08:09:49.289000+00:00</time>
      </trkpt>
      <trkpt lat="0" lon="0">
        <time>2020-12-20T08:09:49.296000+00:00</time>
      </trkpt>
      <trkpt lat="0" lon="0">
        <time>2020-12-20T08:09:49.311000+00:00</time>
      </trkpt>
      <trkpt lat="0" lon="0">
        <time>2020-12-20T08:09:49.313000+00:00</time>
      </trkpt>
      <trkpt lat="47.29413" lon="-1.38297">
        <ele>65</ele>
        <time>2020-12-20T08:09:50.267000+00:00</time>
      </trkpt>
      <trkpt lat="0" lon="0">
        <time>2020-12-20T08:09:50.276000+00:00</time>
      </trkpt>
      <trkpt lat="0" lon="0">
        <time>2020-12-20T08:09:50.280000+00:00</time>
      </trkpt>
      <trkpt lat="0" lon="0">
        <time>2020-12-20T08:09:50.283000+00:00</time>
      </trkpt>
      <trkpt lat="47.29411" lon="-1.38296">
        <ele>65</ele>
        <time>2020-12-20T08:09:51.301000+00:00</time>
      </trkpt>
      <trkpt lat="0" lon="0">
        <time>2020-12-20T08:09:51.312000+00:00</time>
      </trkpt>
      <trkpt lat="0" lon="0">
        <time>2020-12-20T08:09:51.327000+00:00</time>
      </trkpt>
      <trkpt lat="0" lon="0">
        <time>2020-12-20T08:09:51.329000+00:00</time>
      </trkpt>
      <trkpt lat="47.29409" lon="-1.38294">
        <ele>66</ele>
        <time>2020-12-20T08:09:52.279000+00:00</time>
      </trkpt>
      <trkpt lat="0" lon="0">
        <time>2020-12-20T08:09:52.285000+00:00</time>
      </trkpt>
      <trkpt lat="0" lon="0">
        <time>2020-12-20T08:09:52.292000+00:00</time>
      </trkpt>
      <trkpt lat="0" lon="0">
        <time>2020-12-20T08:09:52.295000+00:00</time>
      </trkpt>
      <trkpt lat="47.29406" lon="-1.38293">
        <ele>66</ele>
        <time>2020-12-20T08:09:53.277000+00:00</time>
      </trkpt>
      <trkpt lat="0" lon="0">
        <time>2020-12-20T08:09:53.293000+00:00</time>
      </trkpt>
      <trkpt lat="0" lon="0">
        <time>2020-12-20T08:09:53.296000+00:00</time>
      </trkpt>
      <trkpt lat="0" lon="0">
        <time>2020-12-20T08:09:53.297000+00:00</time>
      </trkpt>
      <trkpt lat="47.29404" lon="-1.38291">
        <ele>66</ele>
        <time>2020-12-20T08:09:54.262000+00:00</time>
      </trkpt>
      <trkpt lat="0" lon="0">
        <time>2020-12-20T08:09:54.281000+00:00</time>
      </trkpt>
      <trkpt lat="0" lon="0">
        <time>2020-12-20T08:09:54.285000+00:00</time>
      </trkpt>
      <trkpt lat="0" lon="0">
        <time>2020-12-20T08:09:54.287000+00:00</time>
      </trkpt>
      <trkpt lat="47.29401" lon="-1.38289">
        <ele>66</ele>
        <time>2020-12-20T08:09:55.229000+00:00</time>
      </trkpt>
      <trkpt lat="0" lon="0">
        <time>2020-12-20T08:09:55.241000+00:00</time>
      </trkpt>
      <trkpt lat="0" lon="0">
        <time>2020-12-20T08:09:55.249000+00:00</time>
      </trkpt>
      <trkpt lat="0" lon="0">
        <time>2020-12-20T08:09:55.251000+00:00</time>
      </trkpt>
      <trkpt lat="47.29399" lon="-1.38287">
        <ele>66</ele>
        <time>2020-12-20T08:09:56.258000+00:00</time>
      </trkpt>
      <trkpt lat="0" lon="0">
        <time>2020-12-20T08:09:56.264000+00:00</time>
      </trkpt>
      <trkpt lat="0" lon="0">
        <time>2020-12-20T08:09:56.269000+00:00</time>
      </trkpt>
      <trkpt lat="0" lon="0">
        <time>2020-12-20T08:09:56.272000+00:00</time>
      </trkpt>
      <trkpt lat="47.29396" lon="-1.38285">
        <ele>66</ele>
        <time>2020-12-20T08:09:57.266000+00:00</time>
      </trkpt>
      <trkpt lat="0" lon="0">
        <time>2020-12-20T08:09:57.275000+00:00</time>
      </trkpt>
      <trkpt lat="0" lon="0">
        <time>2020-12-20T08:09:57.279000+00:00</time>
      </trkpt>
      <trkpt lat="0" lon="0">
        <time>2020-12-20T08:09:57.282000+00:00</time>
      </trkpt>
      <trkpt lat="47.29393" lon="-1.38283">
        <ele>66</ele>
        <time>2020-12-20T08:09:58.273000+00:00</time>
      </trkpt>
      <trkpt lat="0" lon="0">
        <time>2020-12-20T08:09:58.280000+00:00</time>
      </trkpt>
      <trkpt lat="0" lon="0">
        <time>2020-12-20T08:09:58.285000+00:00</time>
      </trkpt>
      <trkpt lat="0" lon="0">
        <time>2020-12-20T08:09:58.288000+00:00</time>
      </trkpt>
      <trkpt lat="47.2939" lon="-1.3828">
        <ele>66</ele>
        <time>2020-12-20T08:09:59.318000+00:00</time>
      </trkpt>
      <trkpt lat="0" lon="0">
        <time>2020-12-20T08:09:59.328000+00:00</time>
      </trkpt>
      <trkpt lat="0" lon="0">
        <time>2020-12-20T08:09:59.331000+00:00</time>
      </trkpt>
      <trkpt lat="0" lon="0">
        <time>2020-12-20T08:09:59.332000+00:00</time>
      </trkpt>
      <trkpt lat="47.29387" lon="-1.38277">
        <ele>66</ele>
        <time>2020-12-20T08:10:00.289000+00:00</time>
      </trkpt>
      <trkpt lat="0" lon="0">
        <time>2020-12-20T08:10:00.300000+00:00</time>
      </trkpt>
      <trkpt lat="0" lon="0">
        <time>2020-12-20T08:10:00.306000+00:00</time>
      </trkpt>
      <trkpt lat="0" lon="0">
        <time>2020-12-20T08:10:00.308000+00:00</time>
      </trkpt>
      <trkpt lat="47.29384" lon="-1.38275">
        <ele>66</ele>
        <time>2020-12-20T08:10:01.298000+00:00</time>
      </trkpt>
      <trkpt lat="0" lon="0">
        <time>2020-12-20T08:10:01.310000+00:00</time>
      </trkpt>
      <trkpt lat="0" lon="0">
        <time>2020-12-20T08:10:01.322000+00:00</time>
      </trkpt>
      <trkpt lat="0" lon="0">
        <time>2020-12-20T08:10:01.324000+00:00</time>
      </trkpt>
      <trkpt lat="47.29381" lon="-1.38272">
        <ele>66</ele>
        <time>2020-12-20T08:10:02.314000+00:00</time>
      </trkpt>
      <trkpt lat="0" lon="0">
        <time>2020-12-20T08:10:02.334000+00:00</time>
      </trkpt>
      <trkpt lat="0" lon="0">
        <time>2020-12-20T08:10:02.338000+00:00</time>
      </trkpt>
      <trkpt lat="0" lon="0">
        <time>2020-12-20T08:10:02.340000+00:00</time>
      </trkpt>
      <trkpt lat="47.29378" lon="-1.38269">
        <ele>66</ele>
        <time>2020-12-20T08:10:03.284000+00:00</time>
      </trkpt>
      <trkpt lat="0" lon="0">
        <time>2020-12-20T08:10:03.303000+00:00</time>
      </trkpt>
      <trkpt lat="0" lon="0">
        <time>2020-12-20T08:10:03.309000+00:00</time>
      </trkpt>
      <trkpt lat="0" lon="0">
        <time>2020-12-20T08:10:03.312000+00:00</time>
      </trkpt>
      <trkpt lat="47.29375" lon="-1.38266">
        <ele>67</ele>
        <time>2020-12-20T08:10:04.280000+00:00</time>
      </trkpt>
      <trkpt lat="0" lon="0">
        <time>2020-12-20T08:10:04.285000+00:00</time>
      </trkpt>
      <trkpt lat="0" lon="0">
        <time>2020-12-20T08:10:04.289000+00:00</time>
      </trkpt>
      <trkpt lat="0" lon="0">
        <time>2020-12-20T08:10:04.292000+00:00</time>
      </trkpt>
      <trkpt lat="47.29373" lon="-1.38263">
        <ele>67</ele>
        <time>2020-12-20T08:10:05.297000+00:00</time>
      </trkpt>
      <trkpt lat="0" lon="0">
        <time>2020-12-20T08:10:05.302000+00:00</time>
      </trkpt>
      <trkpt lat="0" lon="0">
        <time>2020-12-20T08:10:05.307000+00:00</time>
      </trkpt>
      <trkpt lat="0" lon="0">
        <time>2020-12-20T08:10:05.310000+00:00</time>
      </trkpt>
      <trkpt lat="47.2937" lon="-1.3826">
        <ele>67</ele>
        <time>2020-12-20T08:10:06.258000+00:00</time>
      </trkpt>
      <trkpt lat="0" lon="0">
        <time>2020-12-20T08:10:06.260000+00:00</time>
      </trkpt>
      <trkpt lat="0" lon="0">
        <time>2020-12-20T08:10:06.262000+00:00</time>
      </trkpt>
      <trkpt lat="0" lon="0">
        <time>2020-12-20T08:10:06.263000+00:00</time>
      </trkpt>
      <trkpt lat="47.29367" lon="-1.38257">
        <ele>67</ele>
        <time>2020-12-20T08:10:07.253000+00:00</time>
      </trkpt>
      <trkpt lat="0" lon="0">
        <time>2020-12-20T08:10:07.265000+00:00</time>
      </trkpt>
      <trkpt lat="0" lon="0">
        <time>2020-12-20T08:10:07.270000+00:00</time>
      </trkpt>
      <trkpt lat="0" lon="0">
        <time>2020-12-20T08:10:07.272000+00:00</time>
      </trkpt>
      <trkpt lat="47.29364" lon="-1.38254">
        <ele>67</ele>
        <time>2020-12-20T08:10:08.274000+00:00</time>
      </trkpt>
      <trkpt lat="0" lon="0">
        <time>2020-12-20T08:10:08.283000+00:00</time>
      </trkpt>
      <trkpt lat="0" lon="0">
        <time>2020-12-20T08:10:08.296000+00:00</time>
      </trkpt>
      <trkpt lat="0" lon="0">
        <time>2020-12-20T08:10:08.307000+00:00</time>
      </trkpt>
      <trkpt lat="47.29362" lon="-1.38252">
        <ele>67</ele>
        <time>2020-12-20T08:10:09.282000+00:00</time>
      </trkpt>
      <trkpt lat="0" lon="0">
        <time>2020-12-20T08:10:09.291000+00:00</time>
      </trkpt>
      <trkpt lat="0" lon="0">
        <time>2020-12-20T08:10:09.295000+00:00</time>
      </trkpt>
      <trkpt lat="0" lon="0">
        <time>2020-12-20T08:10:09.298000+00:00</time>
      </trkpt>
      <trkpt lat="47.29359" lon="-1.38249">
        <ele>68</ele>
        <time>2020-12-20T08:10:10.260000+00:00</time>
      </trkpt>
      <trkpt lat="0" lon="0">
        <time>2020-12-20T08:10:10.270000+00:00</time>
      </trkpt>
      <trkpt lat="0" lon="0">
        <time>2020-12-20T08:10:10.276000+00:00</time>
      </trkpt>
      <trkpt lat="0" lon="0">
        <time>2020-12-20T08:10:10.279000+00:00</time>
      </trkpt>
      <trkpt lat="47.29356" lon="-1.38246">
        <ele>68</ele>
        <time>2020-12-20T08:10:11.286000+00:00</time>
      </trkpt>
      <trkpt lat="0" lon="0">
        <time>2020-12-20T08:10:11.294000+00:00</time>
      </trkpt>
      <trkpt lat="0" lon="0">
        <time>2020-12-20T08:10:11.300000+00:00</time>
      </trkpt>
      <trkpt lat="0" lon="0">
        <time>2020-12-20T08:10:11.304000+00:00</time>
      </trkpt>
      <trkpt lat="47.29354" lon="-1.38244">
        <ele>69</ele>
        <time>2020-12-20T08:10:12.281000+00:00</time>
      </trkpt>
      <trkpt lat="0" lon="0">
        <time>2020-12-20T08:10:12.288000+00:00</time>
      </trkpt>
      <trkpt lat="0" lon="0">
        <time>2020-12-20T08:10:12.292000+00:00</time>
      </trkpt>
      <trkpt lat="0" lon="0">
        <time>2020-12-20T08:10:12.296000+00:00</time>
      </trkpt>
      <trkpt lat="47.29351" lon="-1.38241">
        <ele>68</ele>
        <time>2020-12-20T08:10:13.279000+00:00</time>
      </trkpt>
      <trkpt lat="0" lon="0">
        <time>2020-12-20T08:10:13.285000+00:00</time>
      </trkpt>
      <trkpt lat="0" lon="0">
        <time>2020-12-20T08:10:13.292000+00:00</time>
      </trkpt>
      <trkpt lat="0" lon="0">
        <time>2020-12-20T08:10:13.297000+00:00</time>
      </trkpt>
      <trkpt lat="47.29349" lon="-1.38238">
        <ele>68</ele>
        <time>2020-12-20T08:10:14.293000+00:00</time>
      </trkpt>
      <trkpt lat="0" lon="0">
        <time>2020-12-20T08:10:14.297000+00:00</time>
      </trkpt>
      <trkpt lat="0" lon="0">
        <time>2020-12-20T08:10:14.311000+00:00</time>
      </trkpt>
      <trkpt lat="0" lon="0">
        <time>2020-12-20T08:10:14.314000+00:00</time>
      </trkpt>
      <trkpt lat="47.29346" lon="-1.38235">
        <ele>68</ele>
        <time>2020-12-20T08:10:15.303000+00:00</time>
      </trkpt>
      <trkpt lat="0" lon="0">
        <time>2020-12-20T08:10:15.323000+00:00</time>
      </trkpt>
      <trkpt lat="0" lon="0">
        <time>2020-12-20T08:10:15.327000+00:00</time>
      </trkpt>
      <trkpt lat="0" lon="0">
        <time>2020-12-20T08:10:15.331000+00:00</time>
      </trkpt>
      <trkpt lat="47.29344" lon="-1.38232">
        <ele>68</ele>
        <time>2020-12-20T08:10:16.275000+00:00</time>
      </trkpt>
      <trkpt lat="0" lon="0">
        <time>2020-12-20T08:10:16.281000+00:00</time>
      </trkpt>
      <trkpt lat="0" lon="0">
        <time>2020-12-20T08:10:16.293000+00:00</time>
      </trkpt>
      <trkpt lat="0" lon="0">
        <time>2020-12-20T08:10:16.302000+00:00</time>
      </trkpt>
      <trkpt lat="47.29341" lon="-1.38229">
        <ele>68</ele>
        <time>2020-12-20T08:10:17.284000+00:00</time>
      </trkpt>
      <trkpt lat="0" lon="0">
        <time>2020-12-20T08:10:17.288000+00:00</time>
      </trkpt>
      <trkpt lat="0" lon="0">
        <time>2020-12-20T08:10:17.306000+00:00</time>
      </trkpt>
      <trkpt lat="0" lon="0">
        <time>2020-12-20T08:10:17.310000+00:00</time>
      </trkpt>
      <trkpt lat="47.29338" lon="-1.38226">
        <ele>68</ele>
        <time>2020-12-20T08:10:18.276000+00:00</time>
      </trkpt>
      <trkpt lat="0" lon="0">
        <time>2020-12-20T08:10:18.293000+00:00</time>
      </trkpt>
      <trkpt lat="0" lon="0">
        <time>2020-12-20T08:10:18.303000+00:00</time>
      </trkpt>
      <trkpt lat="0" lon="0">
        <time>2020-12-20T08:10:18.305000+00:00</time>
      </trkpt>
      <trkpt lat="47.29335" lon="-1.38223">
        <ele>68</ele>
        <time>2020-12-20T08:10:19.284000+00:00</time>
      </trkpt>
      <trkpt lat="0" lon="0">
        <time>2020-12-20T08:10:19.295000+00:00</time>
      </trkpt>
      <trkpt lat="0" lon="0">
        <time>2020-12-20T08:10:19.301000+00:00</time>
      </trkpt>
      <trkpt lat="0" lon="0">
        <time>2020-12-20T08:10:19.307000+00:00</time>
      </trkpt>
      <trkpt lat="47.29332" lon="-1.3822">
        <ele>68</ele>
        <time>2020-12-20T08:10:20.294000+00:00</time>
      </trkpt>
      <trkpt lat="0" lon="0">
        <time>2020-12-20T08:10:20.316000+00:00</time>
      </trkpt>
      <trkpt lat="0" lon="0">
        <time>2020-12-20T08:10:20.323000+00:00</time>
      </trkpt>
      <trkpt lat="0" lon="0">
        <time>2020-12-20T08:10:20.325000+00:00</time>
      </trkpt>
      <trkpt lat="47.29329" lon="-1.38217">
        <ele>68</ele>
        <time>2020-12-20T08:10:21.318000+00:00</time>
      </trkpt>
      <trkpt lat="0" lon="0">
        <time>2020-12-20T08:10:21.320000+00:00</time>
      </trkpt>
      <trkpt lat="0" lon="0">
        <time>2020-12-20T08:10:21.322000+00:00</time>
      </trkpt>
      <trkpt lat="0" lon="0">
        <time>2020-12-20T08:10:21.323000+00:00</time>
      </trkpt>
      <trkpt lat="47.29327" lon="-1.38214">
        <ele>67</ele>
        <time>2020-12-20T08:10:22.263000+00:00</time>
      </trkpt>
      <trkpt lat="0" lon="0">
        <time>2020-12-20T08:10:22.284000+00:00</time>
      </trkpt>
      <trkpt lat="0" lon="0">
        <time>2020-12-20T08:10:22.291000+00:00</time>
      </trkpt>
      <trkpt lat="0" lon="0">
        <time>2020-12-20T08:10:22.293000+00:00</time>
      </trkpt>
      <trkpt lat="47.29324" lon="-1.38211">
        <ele>67</ele>
        <time>2020-12-20T08:10:23.272000+00:00</time>
      </trkpt>
      <trkpt lat="0" lon="0">
        <time>2020-12-20T08:10:23.278000+00:00</time>
      </trkpt>
      <trkpt lat="0" lon="0">
        <time>2020-12-20T08:10:23.284000+00:00</time>
      </trkpt>
      <trkpt lat="0" lon="0">
        <time>2020-12-20T08:10:23.286000+00:00</time>
      </trkpt>
      <trkpt lat="47.29321" lon="-1.38207">
        <ele>68</ele>
        <time>2020-12-20T08:10:24.259000+00:00</time>
      </trkpt>
      <trkpt lat="0" lon="0">
        <time>2020-12-20T08:10:24.267000+00:00</time>
      </trkpt>
      <trkpt lat="0" lon="0">
        <time>2020-12-20T08:10:24.272000+00:00</time>
      </trkpt>
      <trkpt lat="0" lon="0">
        <time>2020-12-20T08:10:24.275000+00:00</time>
      </trkpt>
      <trkpt lat="47.29319" lon="-1.38204">
        <ele>68</ele>
        <time>2020-12-20T08:10:25.227000+00:00</time>
      </trkpt>
      <trkpt lat="0" lon="0">
        <time>2020-12-20T08:10:25.244000+00:00</time>
      </trkpt>
      <trkpt lat="0" lon="0">
        <time>2020-12-20T08:10:25.249000+00:00</time>
      </trkpt>
      <trkpt lat="0" lon="0">
        <time>2020-12-20T08:10:25.253000+00:00</time>
      </trkpt>
      <trkpt lat="47.29316" lon="-1.38201">
        <ele>68</ele>
        <time>2020-12-20T08:10:26.240000+00:00</time>
      </trkpt>
      <trkpt lat="0" lon="0">
        <time>2020-12-20T08:10:26.257000+00:00</time>
      </trkpt>
      <trkpt lat="0" lon="0">
        <time>2020-12-20T08:10:26.262000+00:00</time>
      </trkpt>
      <trkpt lat="0" lon="0">
        <time>2020-12-20T08:10:26.265000+00:00</time>
      </trkpt>
      <trkpt lat="47.29314" lon="-1.38198">
        <ele>69</ele>
        <time>2020-12-20T08:10:27.264000+00:00</time>
      </trkpt>
      <trkpt lat="0" lon="0">
        <time>2020-12-20T08:10:27.272000+00:00</time>
      </trkpt>
      <trkpt lat="0" lon="0">
        <time>2020-12-20T08:10:27.280000+00:00</time>
      </trkpt>
      <trkpt lat="0" lon="0">
        <time>2020-12-20T08:10:27.288000+00:00</time>
      </trkpt>
      <trkpt lat="47.29311" lon="-1.38195">
        <ele>69</ele>
        <time>2020-12-20T08:10:28.275000+00:00</time>
      </trkpt>
      <trkpt lat="0" lon="0">
        <time>2020-12-20T08:10:28.283000+00:00</time>
      </trkpt>
      <trkpt lat="0" lon="0">
        <time>2020-12-20T08:10:28.293000+00:00</time>
      </trkpt>
      <trkpt lat="0" lon="0">
        <time>2020-12-20T08:10:28.298000+00:00</time>
      </trkpt>
      <trkpt lat="47.29309" lon="-1.38192">
        <ele>70</ele>
        <time>2020-12-20T08:10:29.272000+00:00</time>
      </trkpt>
      <trkpt lat="0" lon="0">
        <time>2020-12-20T08:10:29.278000+00:00</time>
      </trkpt>
      <trkpt lat="0" lon="0">
        <time>2020-12-20T08:10:29.282000+00:00</time>
      </trkpt>
      <trkpt lat="0" lon="0">
        <time>2020-12-20T08:10:29.284000+00:00</time>
      </trkpt>
      <trkpt lat="47.29306" lon="-1.38189">
        <ele>70</ele>
        <time>2020-12-20T08:10:30.269000+00:00</time>
      </trkpt>
      <trkpt lat="0" lon="0">
        <time>2020-12-20T08:10:30.274000+00:00</time>
      </trkpt>
      <trkpt lat="0" lon="0">
        <time>2020-12-20T08:10:30.279000+00:00</time>
      </trkpt>
      <trkpt lat="0" lon="0">
        <time>2020-12-20T08:10:30.281000+00:00</time>
      </trkpt>
      <trkpt lat="47.29304" lon="-1.38186">
        <ele>70</ele>
        <time>2020-12-20T08:10:31.277000+00:00</time>
      </trkpt>
      <trkpt lat="0" lon="0">
        <time>2020-12-20T08:10:31.282000+00:00</time>
      </trkpt>
      <trkpt lat="0" lon="0">
        <time>2020-12-20T08:10:31.291000+00:00</time>
      </trkpt>
      <trkpt lat="0" lon="0">
        <time>2020-12-20T08:10:31.293000+00:00</time>
      </trkpt>
      <trkpt lat="47.29301" lon="-1.38183">
        <ele>70</ele>
        <time>2020-12-20T08:10:32.284000+00:00</time>
      </trkpt>
      <trkpt lat="0" lon="0">
        <time>2020-12-20T08:10:32.295000+00:00</time>
      </trkpt>
      <trkpt lat="0" lon="0">
        <time>2020-12-20T08:10:32.302000+00:00</time>
      </trkpt>
      <trkpt lat="0" lon="0">
        <time>2020-12-20T08:10:32.304000+00:00</time>
      </trkpt>
      <trkpt lat="47.29299" lon="-1.3818">
        <ele>70</ele>
        <time>2020-12-20T08:10:33.279000+00:00</time>
      </trkpt>
      <trkpt lat="0" lon="0">
        <time>2020-12-20T08:10:33.285000+00:00</time>
      </trkpt>
      <trkpt lat="0" lon="0">
        <time>2020-12-20T08:10:33.293000+00:00</time>
      </trkpt>
      <trkpt lat="0" lon="0">
        <time>2020-12-20T08:10:33.295000+00:00</time>
      </trkpt>
      <trkpt lat="47.29296" lon="-1.38177">
        <ele>70</ele>
        <time>2020-12-20T08:10:34.274000+00:00</time>
      </trkpt>
      <trkpt lat="0" lon="0">
        <time>2020-12-20T08:10:34.283000+00:00</time>
      </trkpt>
      <trkpt lat="0" lon="0">
        <time>2020-12-20T08:10:34.288000+00:00</time>
      </trkpt>
      <trkpt lat="0" lon="0">
        <time>2020-12-20T08:10:34.290000+00:00</time>
      </trkpt>
      <trkpt lat="47.29294" lon="-1.38174">
        <ele>70</ele>
        <time>2020-12-20T08:10:35.281000+00:00</time>
      </trkpt>
      <trkpt lat="0" lon="0">
        <time>2020-12-20T08:10:35.300000+00:00</time>
      </trkpt>
      <trkpt lat="0" lon="0">
        <time>2020-12-20T08:10:35.305000+00:00</time>
      </trkpt>
      <trkpt lat="0" lon="0">
        <time>2020-12-20T08:10:35.308000+00:00</time>
      </trkpt>
      <trkpt lat="47.29291" lon="-1.38171">
        <ele>70</ele>
        <time>2020-12-20T08:10:36.279000+00:00</time>
      </trkpt>
      <trkpt lat="0" lon="0">
        <time>2020-12-20T08:10:36.283000+00:00</time>
      </trkpt>
      <trkpt lat="0" lon="0">
        <time>2020-12-20T08:10:36.294000+00:00</time>
      </trkpt>
      <trkpt lat="0" lon="0">
        <time>2020-12-20T08:10:36.296000+00:00</time>
      </trkpt>
      <trkpt lat="47.29288" lon="-1.38168">
        <ele>70</ele>
        <time>2020-12-20T08:10:37.259000+00:00</time>
      </trkpt>
      <trkpt lat="0" lon="0">
        <time>2020-12-20T08:10:37.270000+00:00</time>
      </trkpt>
      <trkpt lat="0" lon="0">
        <time>2020-12-20T08:10:37.274000+00:00</time>
      </trkpt>
      <trkpt lat="0" lon="0">
        <time>2020-12-20T08:10:37.277000+00:00</time>
      </trkpt>
      <trkpt lat="47.29286" lon="-1.38165">
        <ele>71</ele>
        <time>2020-12-20T08:10:38.263000+00:00</time>
      </trkpt>
      <trkpt lat="0" lon="0">
        <time>2020-12-20T08:10:38.275000+00:00</time>
      </trkpt>
      <trkpt lat="0" lon="0">
        <time>2020-12-20T08:10:38.279000+00:00</time>
      </trkpt>
      <trkpt lat="0" lon="0">
        <time>2020-12-20T08:10:38.284000+00:00</time>
      </trkpt>
      <trkpt lat="47.29283" lon="-1.38162">
        <ele>70</ele>
        <time>2020-12-20T08:10:39.280000+00:00</time>
      </trkpt>
      <trkpt lat="0" lon="0">
        <time>2020-12-20T08:10:39.312000+00:00</time>
      </trkpt>
      <trkpt lat="0" lon="0">
        <time>2020-12-20T08:10:39.328000+00:00</time>
      </trkpt>
      <trkpt lat="0" lon="0">
        <time>2020-12-20T08:10:39.329000+00:00</time>
      </trkpt>
      <trkpt lat="47.29281" lon="-1.3816">
        <ele>71</ele>
        <time>2020-12-20T08:10:40.299000+00:00</time>
      </trkpt>
      <trkpt lat="0" lon="0">
        <time>2020-12-20T08:10:40.311000+00:00</time>
      </trkpt>
      <trkpt lat="0" lon="0">
        <time>2020-12-20T08:10:40.315000+00:00</time>
      </trkpt>
      <trkpt lat="0" lon="0">
        <time>2020-12-20T08:10:40.318000+00:00</time>
      </trkpt>
      <trkpt lat="47.29278" lon="-1.38157">
        <ele>71</ele>
        <time>2020-12-20T08:10:41.295000+00:00</time>
      </trkpt>
      <trkpt lat="0" lon="0">
        <time>2020-12-20T08:10:41.305000+00:00</time>
      </trkpt>
      <trkpt lat="0" lon="0">
        <time>2020-12-20T08:10:41.316000+00:00</time>
      </trkpt>
      <trkpt lat="0" lon="0">
        <time>2020-12-20T08:10:41.322000+00:00</time>
      </trkpt>
      <trkpt lat="47.29275" lon="-1.38154">
        <ele>71</ele>
        <time>2020-12-20T08:10:42.283000+00:00</time>
      </trkpt>
      <trkpt lat="0" lon="0">
        <time>2020-12-20T08:10:42.296000+00:00</time>
      </trkpt>
      <trkpt lat="0" lon="0">
        <time>2020-12-20T08:10:42.304000+00:00</time>
      </trkpt>
      <trkpt lat="0" lon="0">
        <time>2020-12-20T08:10:42.310000+00:00</time>
      </trkpt>
      <trkpt lat="47.29273" lon="-1.38151">
        <ele>71</ele>
        <time>2020-12-20T08:10:43.294000+00:00</time>
      </trkpt>
      <trkpt lat="0" lon="0">
        <time>2020-12-20T08:10:43.304000+00:00</time>
      </trkpt>
      <trkpt lat="0" lon="0">
        <time>2020-12-20T08:10:43.309000+00:00</time>
      </trkpt>
      <trkpt lat="0" lon="0">
        <time>2020-12-20T08:10:43.314000+00:00</time>
      </trkpt>
      <trkpt lat="47.2927" lon="-1.38148">
        <ele>71</ele>
        <time>2020-12-20T08:10:44.219000+00:00</time>
      </trkpt>
      <trkpt lat="0" lon="0">
        <time>2020-12-20T08:10:44.223000+00:00</time>
      </trkpt>
      <trkpt lat="0" lon="0">
        <time>2020-12-20T08:10:44.225000+00:00</time>
      </trkpt>
      <trkpt lat="0" lon="0">
        <time>2020-12-20T08:10:44.227000+00:00</time>
      </trkpt>
      <trkpt lat="47.29267" lon="-1.38145">
        <ele>72</ele>
        <time>2020-12-20T08:10:45.254000+00:00</time>
      </trkpt>
      <trkpt lat="0" lon="0">
        <time>2020-12-20T08:10:45.261000+00:00</time>
      </trkpt>
      <trkpt lat="0" lon="0">
        <time>2020-12-20T08:10:45.265000+00:00</time>
      </trkpt>
      <trkpt lat="0" lon="0">
        <time>2020-12-20T08:10:45.268000+00:00</time>
      </trkpt>
      <trkpt lat="47.29265" lon="-1.38142">
        <ele>71</ele>
        <time>2020-12-20T08:10:46.289000+00:00</time>
      </trkpt>
      <trkpt lat="0" lon="0">
        <time>2020-12-20T08:10:46.301000+00:00</time>
      </trkpt>
      <trkpt lat="0" lon="0">
        <time>2020-12-20T08:10:46.308000+00:00</time>
      </trkpt>
      <trkpt lat="0" lon="0">
        <time>2020-12-20T08:10:46.313000+00:00</time>
      </trkpt>
      <trkpt lat="47.29262" lon="-1.38139">
        <ele>70</ele>
        <time>2020-12-20T08:10:47.291000+00:00</time>
      </trkpt>
      <trkpt lat="0" lon="0">
        <time>2020-12-20T08:10:47.304000+00:00</time>
      </trkpt>
      <trkpt lat="0" lon="0">
        <time>2020-12-20T08:10:47.310000+00:00</time>
      </trkpt>
      <trkpt lat="0" lon="0">
        <time>2020-12-20T08:10:47.313000+00:00</time>
      </trkpt>
      <trkpt lat="47.29259" lon="-1.38136">
        <ele>70</ele>
        <time>2020-12-20T08:10:48.277000+00:00</time>
      </trkpt>
      <trkpt lat="0" lon="0">
        <time>2020-12-20T08:10:48.290000+00:00</time>
      </trkpt>
      <trkpt lat="0" lon="0">
        <time>2020-12-20T08:10:48.298000+00:00</time>
      </trkpt>
      <trkpt lat="0" lon="0">
        <time>2020-12-20T08:10:48.304000+00:00</time>
      </trkpt>
      <trkpt lat="47.29257" lon="-1.38133">
        <ele>71</ele>
        <time>2020-12-20T08:10:49.263000+00:00</time>
      </trkpt>
      <trkpt lat="0" lon="0">
        <time>2020-12-20T08:10:49.268000+00:00</time>
      </trkpt>
      <trkpt lat="0" lon="0">
        <time>2020-12-20T08:10:49.277000+00:00</time>
      </trkpt>
      <trkpt lat="0" lon="0">
        <time>2020-12-20T08:10:49.280000+00:00</time>
      </trkpt>
      <trkpt lat="47.29254" lon="-1.38131">
        <ele>72</ele>
        <time>2020-12-20T08:10:50.295000+00:00</time>
      </trkpt>
      <trkpt lat="0" lon="0">
        <time>2020-12-20T08:10:50.304000+00:00</time>
      </trkpt>
      <trkpt lat="0" lon="0">
        <time>2020-12-20T08:10:50.308000+00:00</time>
      </trkpt>
      <trkpt lat="0" lon="0">
        <time>2020-12-20T08:10:50.309000+00:00</time>
      </trkpt>
      <trkpt lat="47.29251" lon="-1.38128">
        <ele>72</ele>
        <time>2020-12-20T08:10:51.310000+00:00</time>
      </trkpt>
      <trkpt lat="0" lon="0">
        <time>2020-12-20T08:10:51.323000+00:00</time>
      </trkpt>
      <trkpt lat="0" lon="0">
        <time>2020-12-20T08:10:51.328000+00:00</time>
      </trkpt>
      <trkpt lat="0" lon="0">
        <time>2020-12-20T08:10:51.330000+00:00</time>
      </trkpt>
      <trkpt lat="47.29248" lon="-1.38125">
        <ele>73</ele>
        <time>2020-12-20T08:10:52.286000+00:00</time>
      </trkpt>
      <trkpt lat="0" lon="0">
        <time>2020-12-20T08:10:52.291000+00:00</time>
      </trkpt>
      <trkpt lat="0" lon="0">
        <time>2020-12-20T08:10:52.296000+00:00</time>
      </trkpt>
      <trkpt lat="0" lon="0">
        <time>2020-12-20T08:10:52.299000+00:00</time>
      </trkpt>
      <trkpt lat="47.29245" lon="-1.38122">
        <ele>73</ele>
        <time>2020-12-20T08:10:53.292000+00:00</time>
      </trkpt>
      <trkpt lat="0" lon="0">
        <time>2020-12-20T08:10:53.303000+00:00</time>
      </trkpt>
      <trkpt lat="0" lon="0">
        <time>2020-12-20T08:10:53.317000+00:00</time>
      </trkpt>
      <trkpt lat="0" lon="0">
        <time>2020-12-20T08:10:53.319000+00:00</time>
      </trkpt>
      <trkpt lat="47.29243" lon="-1.38118">
        <ele>74</ele>
        <time>2020-12-20T08:10:54.312000+00:00</time>
      </trkpt>
      <trkpt lat="0" lon="0">
        <time>2020-12-20T08:10:54.333000+00:00</time>
      </trkpt>
      <trkpt lat="0" lon="0">
        <time>2020-12-20T08:10:54.337000+00:00</time>
      </trkpt>
      <trkpt lat="0" lon="0">
        <time>2020-12-20T08:10:54.341000+00:00</time>
      </trkpt>
      <trkpt lat="47.2924" lon="-1.38115">
        <ele>75</ele>
        <time>2020-12-20T08:10:55.283000+00:00</time>
      </trkpt>
      <trkpt lat="0" lon="0">
        <time>2020-12-20T08:10:55.289000+00:00</time>
      </trkpt>
      <trkpt lat="0" lon="0">
        <time>2020-12-20T08:10:55.293000+00:00</time>
      </trkpt>
      <trkpt lat="0" lon="0">
        <time>2020-12-20T08:10:55.295000+00:00</time>
      </trkpt>
      <trkpt lat="47.29237" lon="-1.38112">
        <ele>75</ele>
        <time>2020-12-20T08:10:56.266000+00:00</time>
      </trkpt>
      <trkpt lat="0" lon="0">
        <time>2020-12-20T08:10:56.273000+00:00</time>
      </trkpt>
      <trkpt lat="0" lon="0">
        <time>2020-12-20T08:10:56.276000+00:00</time>
      </trkpt>
      <trkpt lat="0" lon="0">
        <time>2020-12-20T08:10:56.277000+00:00</time>
      </trkpt>
      <trkpt lat="47.29234" lon="-1.38108">
        <ele>75</ele>
        <time>2020-12-20T08:10:57.300000+00:00</time>
      </trkpt>
      <trkpt lat="0" lon="0">
        <time>2020-12-20T08:10:57.309000+00:00</time>
      </trkpt>
      <trkpt lat="0" lon="0">
        <time>2020-12-20T08:10:57.319000+00:00</time>
      </trkpt>
      <trkpt lat="0" lon="0">
        <time>2020-12-20T08:10:57.322000+00:00</time>
      </trkpt>
      <trkpt lat="47.29231" lon="-1.38104">
        <ele>74</ele>
        <time>2020-12-20T08:10:58.285000+00:00</time>
      </trkpt>
      <trkpt lat="0" lon="0">
        <time>2020-12-20T08:10:58.304000+00:00</time>
      </trkpt>
      <trkpt lat="0" lon="0">
        <time>2020-12-20T08:10:58.311000+00:00</time>
      </trkpt>
      <trkpt lat="0" lon="0">
        <time>2020-12-20T08:10:58.317000+00:00</time>
      </trkpt>
      <trkpt lat="47.29228" lon="-1.38101">
        <ele>75</ele>
        <time>2020-12-20T08:10:59.263000+00:00</time>
      </trkpt>
      <trkpt lat="0" lon="0">
        <time>2020-12-20T08:10:59.272000+00:00</time>
      </trkpt>
      <trkpt lat="0" lon="0">
        <time>2020-12-20T08:10:59.285000+00:00</time>
      </trkpt>
      <trkpt lat="0" lon="0">
        <time>2020-12-20T08:10:59.288000+00:00</time>
      </trkpt>
      <trkpt lat="47.29225" lon="-1.38097">
        <ele>74</ele>
        <time>2020-12-20T08:11:00.245000+00:00</time>
      </trkpt>
      <trkpt lat="0" lon="0">
        <time>2020-12-20T08:11:00.251000+00:00</time>
      </trkpt>
      <trkpt lat="0" lon="0">
        <time>2020-12-20T08:11:00.254000+00:00</time>
      </trkpt>
      <trkpt lat="0" lon="0">
        <time>2020-12-20T08:11:00.256000+00:00</time>
      </trkpt>
      <trkpt lat="47.29222" lon="-1.38093">
        <ele>74</ele>
        <time>2020-12-20T08:11:01.272000+00:00</time>
      </trkpt>
      <trkpt lat="0" lon="0">
        <time>2020-12-20T08:11:01.280000+00:00</time>
      </trkpt>
      <trkpt lat="0" lon="0">
        <time>2020-12-20T08:11:01.291000+00:00</time>
      </trkpt>
      <trkpt lat="0" lon="0">
        <time>2020-12-20T08:11:01.294000+00:00</time>
      </trkpt>
      <trkpt lat="47.29219" lon="-1.38089">
        <ele>76</ele>
        <time>2020-12-20T08:11:02.290000+00:00</time>
      </trkpt>
      <trkpt lat="0" lon="0">
        <time>2020-12-20T08:11:02.296000+00:00</time>
      </trkpt>
      <trkpt lat="0" lon="0">
        <time>2020-12-20T08:11:02.304000+00:00</time>
      </trkpt>
      <trkpt lat="0" lon="0">
        <time>2020-12-20T08:11:02.306000+00:00</time>
      </trkpt>
      <trkpt lat="47.29216" lon="-1.38085">
        <ele>76</ele>
        <time>2020-12-20T08:11:03.279000+00:00</time>
      </trkpt>
      <trkpt lat="0" lon="0">
        <time>2020-12-20T08:11:03.297000+00:00</time>
      </trkpt>
      <trkpt lat="0" lon="0">
        <time>2020-12-20T08:11:03.301000+00:00</time>
      </trkpt>
      <trkpt lat="0" lon="0">
        <time>2020-12-20T08:11:03.308000+00:00</time>
      </trkpt>
      <trkpt lat="47.29213" lon="-1.38081">
        <ele>76</ele>
        <time>2020-12-20T08:11:04.278000+00:00</time>
      </trkpt>
      <trkpt lat="0" lon="0">
        <time>2020-12-20T08:11:04.299000+00:00</time>
      </trkpt>
      <trkpt lat="0" lon="0">
        <time>2020-12-20T08:11:04.311000+00:00</time>
      </trkpt>
      <trkpt lat="0" lon="0">
        <time>2020-12-20T08:11:04.314000+00:00</time>
      </trkpt>
      <trkpt lat="47.2921" lon="-1.38077">
        <ele>76</ele>
        <time>2020-12-20T08:11:05.272000+00:00</time>
      </trkpt>
      <trkpt lat="0" lon="0">
        <time>2020-12-20T08:11:05.280000+00:00</time>
      </trkpt>
      <trkpt lat="0" lon="0">
        <time>2020-12-20T08:11:05.292000+00:00</time>
      </trkpt>
      <trkpt lat="0" lon="0">
        <time>2020-12-20T08:11:05.298000+00:00</time>
      </trkpt>
      <trkpt lat="47.29206" lon="-1.38073">
        <ele>77</ele>
        <time>2020-12-20T08:11:06.286000+00:00</time>
      </trkpt>
      <trkpt lat="0" lon="0">
        <time>2020-12-20T08:11:06.296000+00:00</time>
      </trkpt>
      <trkpt lat="0" lon="0">
        <time>2020-12-20T08:11:06.303000+00:00</time>
      </trkpt>
      <trkpt lat="0" lon="0">
        <time>2020-12-20T08:11:06.307000+00:00</time>
      </trkpt>
      <trkpt lat="47.29203" lon="-1.38069">
        <ele>77</ele>
        <time>2020-12-20T08:11:07.287000+00:00</time>
      </trkpt>
      <trkpt lat="0" lon="0">
        <time>2020-12-20T08:11:07.296000+00:00</time>
      </trkpt>
      <trkpt lat="0" lon="0">
        <time>2020-12-20T08:11:07.299000+00:00</time>
      </trkpt>
      <trkpt lat="0" lon="0">
        <time>2020-12-20T08:11:07.300000+00:00</time>
      </trkpt>
      <trkpt lat="47.292" lon="-1.38066">
        <ele>77</ele>
        <time>2020-12-20T08:11:08.273000+00:00</time>
      </trkpt>
      <trkpt lat="0" lon="0">
        <time>2020-12-20T08:11:08.277000+00:00</time>
      </trkpt>
      <trkpt lat="0" lon="0">
        <time>2020-12-20T08:11:08.286000+00:00</time>
      </trkpt>
      <trkpt lat="0" lon="0">
        <time>2020-12-20T08:11:08.289000+00:00</time>
      </trkpt>
      <trkpt lat="47.29197" lon="-1.38062">
        <ele>77</ele>
        <time>2020-12-20T08:11:09.278000+00:00</time>
      </trkpt>
      <trkpt lat="0" lon="0">
        <time>2020-12-20T08:11:09.288000+00:00</time>
      </trkpt>
      <trkpt lat="0" lon="0">
        <time>2020-12-20T08:11:09.293000+00:00</time>
      </trkpt>
      <trkpt lat="0" lon="0">
        <time>2020-12-20T08:11:09.295000+00:00</time>
      </trkpt>
      <trkpt lat="47.29194" lon="-1.38059">
        <ele>77</ele>
        <time>2020-12-20T08:11:10.278000+00:00</time>
      </trkpt>
      <trkpt lat="0" lon="0">
        <time>2020-12-20T08:11:10.288000+00:00</time>
      </trkpt>
      <trkpt lat="0" lon="0">
        <time>2020-12-20T08:11:10.292000+00:00</time>
      </trkpt>
      <trkpt lat="0" lon="0">
        <time>2020-12-20T08:11:10.294000+00:00</time>
      </trkpt>
      <trkpt lat="47.2919" lon="-1.38056">
        <ele>77</ele>
        <time>2020-12-20T08:11:11.266000+00:00</time>
      </trkpt>
      <trkpt lat="0" lon="0">
        <time>2020-12-20T08:11:11.280000+00:00</time>
      </trkpt>
      <trkpt lat="0" lon="0">
        <time>2020-12-20T08:11:11.289000+00:00</time>
      </trkpt>
      <trkpt lat="0" lon="0">
        <time>2020-12-20T08:11:11.291000+00:00</time>
      </trkpt>
      <trkpt lat="47.29187" lon="-1.38053">
        <ele>77</ele>
        <time>2020-12-20T08:11:12.288000+00:00</time>
      </trkpt>
      <trkpt lat="0" lon="0">
        <time>2020-12-20T08:11:12.308000+00:00</time>
      </trkpt>
      <trkpt lat="0" lon="0">
        <time>2020-12-20T08:11:12.313000+00:00</time>
      </trkpt>
      <trkpt lat="0" lon="0">
        <time>2020-12-20T08:11:12.315000+00:00</time>
      </trkpt>
      <trkpt lat="47.29184" lon="-1.38049">
        <ele>77</ele>
        <time>2020-12-20T08:11:13.282000+00:00</time>
      </trkpt>
      <trkpt lat="0" lon="0">
        <time>2020-12-20T08:11:13.292000+00:00</time>
      </trkpt>
      <trkpt lat="0" lon="0">
        <time>2020-12-20T08:11:13.295000+00:00</time>
      </trkpt>
      <trkpt lat="0" lon="0">
        <time>2020-12-20T08:11:13.297000+00:00</time>
      </trkpt>
      <trkpt lat="47.29181" lon="-1.38046">
        <ele>77</ele>
        <time>2020-12-20T08:11:14.260000+00:00</time>
      </trkpt>
      <trkpt lat="0" lon="0">
        <time>2020-12-20T08:11:14.268000+00:00</time>
      </trkpt>
      <trkpt lat="0" lon="0">
        <time>2020-12-20T08:11:14.281000+00:00</time>
      </trkpt>
      <trkpt lat="0" lon="0">
        <time>2020-12-20T08:11:14.283000+00:00</time>
      </trkpt>
      <trkpt lat="47.29178" lon="-1.38042">
        <ele>77</ele>
        <time>2020-12-20T08:11:15.238000+00:00</time>
      </trkpt>
      <trkpt lat="0" lon="0">
        <time>2020-12-20T08:11:15.244000+00:00</time>
      </trkpt>
      <trkpt lat="0" lon="0">
        <time>2020-12-20T08:11:15.253000+00:00</time>
      </trkpt>
      <trkpt lat="0" lon="0">
        <time>2020-12-20T08:11:15.256000+00:00</time>
      </trkpt>
      <trkpt lat="47.29174" lon="-1.38039">
        <ele>78</ele>
        <time>2020-12-20T08:11:16.284000+00:00</time>
      </trkpt>
      <trkpt lat="0" lon="0">
        <time>2020-12-20T08:11:16.301000+00:00</time>
      </trkpt>
      <trkpt lat="0" lon="0">
        <time>2020-12-20T08:11:16.308000+00:00</time>
      </trkpt>
      <trkpt lat="0" lon="0">
        <time>2020-12-20T08:11:16.314000+00:00</time>
      </trkpt>
      <trkpt lat="47.29171" lon="-1.38036">
        <ele>78</ele>
        <time>2020-12-20T08:11:17.278000+00:00</time>
      </trkpt>
      <trkpt lat="0" lon="0">
        <time>2020-12-20T08:11:17.286000+00:00</time>
      </trkpt>
      <trkpt lat="0" lon="0">
        <time>2020-12-20T08:11:17.292000+00:00</time>
      </trkpt>
      <trkpt lat="0" lon="0">
        <time>2020-12-20T08:11:17.294000+00:00</time>
      </trkpt>
      <trkpt lat="47.29168" lon="-1.38032">
        <ele>78</ele>
        <time>2020-12-20T08:11:18.295000+00:00</time>
      </trkpt>
      <trkpt lat="0" lon="0">
        <time>2020-12-20T08:11:18.311000+00:00</time>
      </trkpt>
      <trkpt lat="0" lon="0">
        <time>2020-12-20T08:11:18.318000+00:00</time>
      </trkpt>
      <trkpt lat="0" lon="0">
        <time>2020-12-20T08:11:18.325000+00:00</time>
      </trkpt>
      <trkpt lat="47.29165" lon="-1.38029">
        <ele>78</ele>
        <time>2020-12-20T08:11:19.263000+00:00</time>
      </trkpt>
      <trkpt lat="0" lon="0">
        <time>2020-12-20T08:11:19.271000+00:00</time>
      </trkpt>
      <trkpt lat="0" lon="0">
        <time>2020-12-20T08:11:19.273000+00:00</time>
      </trkpt>
      <trkpt lat="0" lon="0">
        <time>2020-12-20T08:11:19.274000+00:00</time>
      </trkpt>
      <trkpt lat="47.29162" lon="-1.38026">
        <ele>78</ele>
        <time>2020-12-20T08:11:20.284000+00:00</time>
      </trkpt>
      <trkpt lat="0" lon="0">
        <time>2020-12-20T08:11:20.294000+00:00</time>
      </trkpt>
      <trkpt lat="0" lon="0">
        <time>2020-12-20T08:11:20.300000+00:00</time>
      </trkpt>
      <trkpt lat="0" lon="0">
        <time>2020-12-20T08:11:20.302000+00:00</time>
      </trkpt>
      <trkpt lat="47.29159" lon="-1.38022">
        <ele>78</ele>
        <time>2020-12-20T08:11:21.304000+00:00</time>
      </trkpt>
      <trkpt lat="0" lon="0">
        <time>2020-12-20T08:11:21.314000+00:00</time>
      </trkpt>
      <trkpt lat="0" lon="0">
        <time>2020-12-20T08:11:21.323000+00:00</time>
      </trkpt>
      <trkpt lat="0" lon="0">
        <time>2020-12-20T08:11:21.327000+00:00</time>
      </trkpt>
      <trkpt lat="47.29156" lon="-1.38019">
        <ele>79</ele>
        <time>2020-12-20T08:11:22.276000+00:00</time>
      </trkpt>
      <trkpt lat="0" lon="0">
        <time>2020-12-20T08:11:22.291000+00:00</time>
      </trkpt>
      <trkpt lat="0" lon="0">
        <time>2020-12-20T08:11:22.295000+00:00</time>
      </trkpt>
      <trkpt lat="0" lon="0">
        <time>2020-12-20T08:11:22.298000+00:00</time>
      </trkpt>
      <trkpt lat="47.29153" lon="-1.38016">
        <ele>79</ele>
        <time>2020-12-20T08:11:23.283000+00:00</time>
      </trkpt>
      <trkpt lat="0" lon="0">
        <time>2020-12-20T08:11:23.310000+00:00</time>
      </trkpt>
      <trkpt lat="0" lon="0">
        <time>2020-12-20T08:11:23.318000+00:00</time>
      </trkpt>
      <trkpt lat="0" lon="0">
        <time>2020-12-20T08:11:23.323000+00:00</time>
      </trkpt>
      <trkpt lat="47.2915" lon="-1.38012">
        <ele>80</ele>
        <time>2020-12-20T08:11:24.267000+00:00</time>
      </trkpt>
      <trkpt lat="0" lon="0">
        <time>2020-12-20T08:11:24.285000+00:00</time>
      </trkpt>
      <trkpt lat="0" lon="0">
        <time>2020-12-20T08:11:24.290000+00:00</time>
      </trkpt>
      <trkpt lat="0" lon="0">
        <time>2020-12-20T08:11:24.297000+00:00</time>
      </trkpt>
      <trkpt lat="47.29147" lon="-1.38008">
        <ele>79</ele>
        <time>2020-12-20T08:11:25.228000+00:00</time>
      </trkpt>
      <trkpt lat="0" lon="0">
        <time>2020-12-20T08:11:25.238000+00:00</time>
      </trkpt>
      <trkpt lat="0" lon="0">
        <time>2020-12-20T08:11:25.246000+00:00</time>
      </trkpt>
      <trkpt lat="0" lon="0">
        <time>2020-12-20T08:11:25.250000+00:00</time>
      </trkpt>
      <trkpt lat="47.29144" lon="-1.38005">
        <ele>81</ele>
        <time>2020-12-20T08:11:26.273000+00:00</time>
      </trkpt>
      <trkpt lat="0" lon="0">
        <time>2020-12-20T08:11:26.281000+00:00</time>
      </trkpt>
      <trkpt lat="0" lon="0">
        <time>2020-12-20T08:11:26.286000+00:00</time>
      </trkpt>
      <trkpt lat="0" lon="0">
        <time>2020-12-20T08:11:26.294000+00:00</time>
      </trkpt>
      <trkpt lat="47.29141" lon="-1.38001">
        <ele>81</ele>
        <time>2020-12-20T08:11:27.294000+00:00</time>
      </trkpt>
      <trkpt lat="0" lon="0">
        <time>2020-12-20T08:11:27.299000+00:00</time>
      </trkpt>
      <trkpt lat="0" lon="0">
        <time>2020-12-20T08:11:27.310000+00:00</time>
      </trkpt>
      <trkpt lat="0" lon="0">
        <time>2020-12-20T08:11:27.314000+00:00</time>
      </trkpt>
      <trkpt lat="47.29137" lon="-1.37998">
        <ele>80</ele>
        <time>2020-12-20T08:11:28.293000+00:00</time>
      </trkpt>
      <trkpt lat="0" lon="0">
        <time>2020-12-20T08:11:28.299000+00:00</time>
      </trkpt>
      <trkpt lat="0" lon="0">
        <time>2020-12-20T08:11:28.303000+00:00</time>
      </trkpt>
      <trkpt lat="0" lon="0">
        <time>2020-12-20T08:11:28.313000+00:00</time>
      </trkpt>
      <trkpt lat="47.29134" lon="-1.37994">
        <ele>80</ele>
        <time>2020-12-20T08:11:29.271000+00:00</time>
      </trkpt>
      <trkpt lat="0" lon="0">
        <time>2020-12-20T08:11:29.281000+00:00</time>
      </trkpt>
      <trkpt lat="0" lon="0">
        <time>2020-12-20T08:11:29.292000+00:00</time>
      </trkpt>
      <trkpt lat="0" lon="0">
        <time>2020-12-20T08:11:29.294000+00:00</time>
      </trkpt>
      <trkpt lat="47.2913" lon="-1.37991">
        <ele>80</ele>
        <time>2020-12-20T08:11:30.282000+00:00</time>
      </trkpt>
      <trkpt lat="0" lon="0">
        <time>2020-12-20T08:11:30.295000+00:00</time>
      </trkpt>
      <trkpt lat="0" lon="0">
        <time>2020-12-20T08:11:30.303000+00:00</time>
      </trkpt>
      <trkpt lat="0" lon="0">
        <time>2020-12-20T08:11:30.308000+00:00</time>
      </trkpt>
      <trkpt lat="47.29127" lon="-1.37987">
        <ele>80</ele>
        <time>2020-12-20T08:11:31.283000+00:00</time>
      </trkpt>
      <trkpt lat="0" lon="0">
        <time>2020-12-20T08:11:31.293000+00:00</time>
      </trkpt>
      <trkpt lat="0" lon="0">
        <time>2020-12-20T08:11:31.298000+00:00</time>
      </trkpt>
      <trkpt lat="0" lon="0">
        <time>2020-12-20T08:11:31.304000+00:00</time>
      </trkpt>
      <trkpt lat="47.29123" lon="-1.37983">
        <ele>80</ele>
        <time>2020-12-20T08:11:32.308000+00:00</time>
      </trkpt>
      <trkpt lat="0" lon="0">
        <time>2020-12-20T08:11:32.328000+00:00</time>
      </trkpt>
      <trkpt lat="0" lon="0">
        <time>2020-12-20T08:11:32.336000+00:00</time>
      </trkpt>
      <trkpt lat="0" lon="0">
        <time>2020-12-20T08:11:32.340000+00:00</time>
      </trkpt>
      <trkpt lat="47.2912" lon="-1.3798">
        <ele>79</ele>
        <time>2020-12-20T08:11:33.288000+00:00</time>
      </trkpt>
      <trkpt lat="0" lon="0">
        <time>2020-12-20T08:11:33.302000+00:00</time>
      </trkpt>
      <trkpt lat="0" lon="0">
        <time>2020-12-20T08:11:33.311000+00:00</time>
      </trkpt>
      <trkpt lat="0" lon="0">
        <time>2020-12-20T08:11:33.313000+00:00</time>
      </trkpt>
      <trkpt lat="47.29116" lon="-1.37976">
        <ele>79</ele>
        <time>2020-12-20T08:11:34.290000+00:00</time>
      </trkpt>
      <trkpt lat="0" lon="0">
        <time>2020-12-20T08:11:34.298000+00:00</time>
      </trkpt>
      <trkpt lat="0" lon="0">
        <time>2020-12-20T08:11:34.303000+00:00</time>
      </trkpt>
      <trkpt lat="0" lon="0">
        <time>2020-12-20T08:11:34.310000+00:00</time>
      </trkpt>
      <trkpt lat="47.29113" lon="-1.37972">
        <ele>79</ele>
        <time>2020-12-20T08:11:35.287000+00:00</time>
      </trkpt>
      <trkpt lat="0" lon="0">
        <time>2020-12-20T08:11:35.290000+00:00</time>
      </trkpt>
      <trkpt lat="0" lon="0">
        <time>2020-12-20T08:11:35.294000+00:00</time>
      </trkpt>
      <trkpt lat="0" lon="0">
        <time>2020-12-20T08:11:35.295000+00:00</time>
      </trkpt>
      <trkpt lat="47.29109" lon="-1.37968">
        <ele>79</ele>
        <time>2020-12-20T08:11:36.278000+00:00</time>
      </trkpt>
      <trkpt lat="0" lon="0">
        <time>2020-12-20T08:11:36.288000+00:00</time>
      </trkpt>
      <trkpt lat="0" lon="0">
        <time>2020-12-20T08:11:36.298000+00:00</time>
      </trkpt>
      <trkpt lat="0" lon="0">
        <time>2020-12-20T08:11:36.308000+00:00</time>
      </trkpt>
      <trkpt lat="47.29106" lon="-1.37964">
        <ele>79</ele>
        <time>2020-12-20T08:11:37.254000+00:00</time>
      </trkpt>
      <trkpt lat="0" lon="0">
        <time>2020-12-20T08:11:37.267000+00:00</time>
      </trkpt>
      <trkpt lat="0" lon="0">
        <time>2020-12-20T08:11:37.279000+00:00</time>
      </trkpt>
      <trkpt lat="0" lon="0">
        <time>2020-12-20T08:11:37.282000+00:00</time>
      </trkpt>
      <trkpt lat="47.29103" lon="-1.37959">
        <ele>77</ele>
        <time>2020-12-20T08:11:38.295000+00:00</time>
      </trkpt>
      <trkpt lat="0" lon="0">
        <time>2020-12-20T08:11:38.302000+00:00</time>
      </trkpt>
      <trkpt lat="0" lon="0">
        <time>2020-12-20T08:11:38.309000+00:00</time>
      </trkpt>
      <trkpt lat="0" lon="0">
        <time>2020-12-20T08:11:38.311000+00:00</time>
      </trkpt>
      <trkpt lat="47.29099" lon="-1.37954">
        <ele>76</ele>
        <time>2020-12-20T08:11:39.289000+00:00</time>
      </trkpt>
      <trkpt lat="0" lon="0">
        <time>2020-12-20T08:11:39.297000+00:00</time>
      </trkpt>
      <trkpt lat="0" lon="0">
        <time>2020-12-20T08:11:39.306000+00:00</time>
      </trkpt>
      <trkpt lat="0" lon="0">
        <time>2020-12-20T08:11:39.308000+00:00</time>
      </trkpt>
      <trkpt lat="47.29096" lon="-1.37949">
        <ele>74</ele>
        <time>2020-12-20T08:11:40.278000+00:00</time>
      </trkpt>
      <trkpt lat="0" lon="0">
        <time>2020-12-20T08:11:40.287000+00:00</time>
      </trkpt>
      <trkpt lat="0" lon="0">
        <time>2020-12-20T08:11:40.291000+00:00</time>
      </trkpt>
      <trkpt lat="0" lon="0">
        <time>2020-12-20T08:11:40.296000+00:00</time>
      </trkpt>
      <trkpt lat="47.29092" lon="-1.37943">
        <ele>72</ele>
        <time>2020-12-20T08:11:41.267000+00:00</time>
      </trkpt>
      <trkpt lat="0" lon="0">
        <time>2020-12-20T08:11:41.281000+00:00</time>
      </trkpt>
      <trkpt lat="0" lon="0">
        <time>2020-12-20T08:11:41.286000+00:00</time>
      </trkpt>
      <trkpt lat="0" lon="0">
        <time>2020-12-20T08:11:41.290000+00:00</time>
      </trkpt>
      <trkpt lat="47.29089" lon="-1.37938">
        <ele>71</ele>
        <time>2020-12-20T08:11:42.263000+00:00</time>
      </trkpt>
      <trkpt lat="0" lon="0">
        <time>2020-12-20T08:11:42.284000+00:00</time>
      </trkpt>
      <trkpt lat="0" lon="0">
        <time>2020-12-20T08:11:42.288000+00:00</time>
      </trkpt>
      <trkpt lat="0" lon="0">
        <time>2020-12-20T08:11:42.290000+00:00</time>
      </trkpt>
      <trkpt lat="47.29086" lon="-1.37934">
        <ele>71</ele>
        <time>2020-12-20T08:11:43.300000+00:00</time>
      </trkpt>
      <trkpt lat="0" lon="0">
        <time>2020-12-20T08:11:43.329000+00:00</time>
      </trkpt>
      <trkpt lat="0" lon="0">
        <time>2020-12-20T08:11:43.334000+00:00</time>
      </trkpt>
      <trkpt lat="0" lon="0">
        <time>2020-12-20T08:11:43.339000+00:00</time>
      </trkpt>
      <trkpt lat="47.29083" lon="-1.37929">
        <ele>72</ele>
        <time>2020-12-20T08:11:44.280000+00:00</time>
      </trkpt>
      <trkpt lat="0" lon="0">
        <time>2020-12-20T08:11:44.304000+00:00</time>
      </trkpt>
      <trkpt lat="0" lon="0">
        <time>2020-12-20T08:11:44.313000+00:00</time>
      </trkpt>
      <trkpt lat="0" lon="0">
        <time>2020-12-20T08:11:44.315000+00:00</time>
      </trkpt>
      <trkpt lat="47.29081" lon="-1.37925">
        <ele>72</ele>
        <time>2020-12-20T08:11:45.291000+00:00</time>
      </trkpt>
      <trkpt lat="0" lon="0">
        <time>2020-12-20T08:11:45.296000+00:00</time>
      </trkpt>
      <trkpt lat="0" lon="0">
        <time>2020-12-20T08:11:45.300000+00:00</time>
      </trkpt>
      <trkpt lat="0" lon="0">
        <time>2020-12-20T08:11:45.302000+00:00</time>
      </trkpt>
      <trkpt lat="47.29079" lon="-1.3792">
        <ele>73</ele>
        <time>2020-12-20T08:11:46.265000+00:00</time>
      </trkpt>
      <trkpt lat="0" lon="0">
        <time>2020-12-20T08:11:46.270000+00:00</time>
      </trkpt>
      <trkpt lat="0" lon="0">
        <time>2020-12-20T08:11:46.276000+00:00</time>
      </trkpt>
      <trkpt lat="0" lon="0">
        <time>2020-12-20T08:11:46.279000+00:00</time>
      </trkpt>
      <trkpt lat="47.29076" lon="-1.37916">
        <ele>74</ele>
        <time>2020-12-20T08:11:47.292000+00:00</time>
      </trkpt>
      <trkpt lat="0" lon="0">
        <time>2020-12-20T08:11:47.295000+00:00</time>
      </trkpt>
      <trkpt lat="0" lon="0">
        <time>2020-12-20T08:11:47.300000+00:00</time>
      </trkpt>
      <trkpt lat="0" lon="0">
        <time>2020-12-20T08:11:47.302000+00:00</time>
      </trkpt>
      <trkpt lat="47.29074" lon="-1.37911">
        <ele>73</ele>
        <time>2020-12-20T08:11:48.296000+00:00</time>
      </trkpt>
      <trkpt lat="0" lon="0">
        <time>2020-12-20T08:11:48.301000+00:00</time>
      </trkpt>
      <trkpt lat="0" lon="0">
        <time>2020-12-20T08:11:48.307000+00:00</time>
      </trkpt>
      <trkpt lat="0" lon="0">
        <time>2020-12-20T08:11:48.309000+00:00</time>
      </trkpt>
      <trkpt lat="47.2907" lon="-1.37905">
        <ele>72</ele>
        <time>2020-12-20T08:11:49.274000+00:00</time>
      </trkpt>
      <trkpt lat="0" lon="0">
        <time>2020-12-20T08:11:49.280000+00:00</time>
      </trkpt>
      <trkpt lat="0" lon="0">
        <time>2020-12-20T08:11:49.291000+00:00</time>
      </trkpt>
      <trkpt lat="0" lon="0">
        <time>2020-12-20T08:11:49.293000+00:00</time>
      </trkpt>
      <trkpt lat="47.29067" lon="-1.37899">
        <ele>71</ele>
        <time>2020-12-20T08:11:50.269000+00:00</time>
      </trkpt>
      <trkpt lat="0" lon="0">
        <time>2020-12-20T08:11:50.276000+00:00</time>
      </trkpt>
      <trkpt lat="0" lon="0">
        <time>2020-12-20T08:11:50.282000+00:00</time>
      </trkpt>
      <trkpt lat="0" lon="0">
        <time>2020-12-20T08:11:50.292000+00:00</time>
      </trkpt>
      <trkpt lat="47.29063" lon="-1.37893">
        <ele>71</ele>
        <time>2020-12-20T08:11:51.271000+00:00</time>
      </trkpt>
      <trkpt lat="0" lon="0">
        <time>2020-12-20T08:11:51.281000+00:00</time>
      </trkpt>
      <trkpt lat="0" lon="0">
        <time>2020-12-20T08:11:51.288000+00:00</time>
      </trkpt>
      <trkpt lat="0" lon="0">
        <time>2020-12-20T08:11:51.291000+00:00</time>
      </trkpt>
      <trkpt lat="47.2906" lon="-1.37886">
        <ele>71</ele>
        <time>2020-12-20T08:11:52.283000+00:00</time>
      </trkpt>
      <trkpt lat="0" lon="0">
        <time>2020-12-20T08:11:52.289000+00:00</time>
      </trkpt>
      <trkpt lat="0" lon="0">
        <time>2020-12-20T08:11:52.306000+00:00</time>
      </trkpt>
      <trkpt lat="0" lon="0">
        <time>2020-12-20T08:11:52.308000+00:00</time>
      </trkpt>
      <trkpt lat="47.29056" lon="-1.37879">
        <ele>70</ele>
        <time>2020-12-20T08:11:53.289000+00:00</time>
      </trkpt>
      <trkpt lat="0" lon="0">
        <time>2020-12-20T08:11:53.310000+00:00</time>
      </trkpt>
      <trkpt lat="0" lon="0">
        <time>2020-12-20T08:11:53.317000+00:00</time>
      </trkpt>
      <trkpt lat="0" lon="0">
        <time>2020-12-20T08:11:53.319000+00:00</time>
      </trkpt>
      <trkpt lat="47.29052" lon="-1.37873">
        <ele>69</ele>
        <time>2020-12-20T08:11:54.267000+00:00</time>
      </trkpt>
      <trkpt lat="0" lon="0">
        <time>2020-12-20T08:11:54.272000+00:00</time>
      </trkpt>
      <trkpt lat="0" lon="0">
        <time>2020-12-20T08:11:54.277000+00:00</time>
      </trkpt>
      <trkpt lat="0" lon="0">
        <time>2020-12-20T08:11:54.282000+00:00</time>
      </trkpt>
      <trkpt lat="47.29048" lon="-1.37866">
        <ele>69</ele>
        <time>2020-12-20T08:11:55.235000+00:00</time>
      </trkpt>
      <trkpt lat="0" lon="0">
        <time>2020-12-20T08:11:55.245000+00:00</time>
      </trkpt>
      <trkpt lat="0" lon="0">
        <time>2020-12-20T08:11:55.251000+00:00</time>
      </trkpt>
      <trkpt lat="0" lon="0">
        <time>2020-12-20T08:11:55.256000+00:00</time>
      </trkpt>
      <trkpt lat="47.29044" lon="-1.3786">
        <ele>68</ele>
        <time>2020-12-20T08:11:56.227000+00:00</time>
      </trkpt>
      <trkpt lat="0" lon="0">
        <time>2020-12-20T08:11:56.238000+00:00</time>
      </trkpt>
      <trkpt lat="0" lon="0">
        <time>2020-12-20T08:11:56.251000+00:00</time>
      </trkpt>
      <trkpt lat="0" lon="0">
        <time>2020-12-20T08:11:56.256000+00:00</time>
      </trkpt>
      <trkpt lat="47.29041" lon="-1.37854">
        <ele>67</ele>
        <time>2020-12-20T08:11:57.292000+00:00</time>
      </trkpt>
      <trkpt lat="0" lon="0">
        <time>2020-12-20T08:11:57.310000+00:00</time>
      </trkpt>
      <trkpt lat="0" lon="0">
        <time>2020-12-20T08:11:57.315000+00:00</time>
      </trkpt>
      <trkpt lat="0" lon="0">
        <time>2020-12-20T08:11:57.320000+00:00</time>
      </trkpt>
      <trkpt lat="47.29037" lon="-1.37848">
        <ele>67</ele>
        <time>2020-12-20T08:11:58.267000+00:00</time>
      </trkpt>
      <trkpt lat="0" lon="0">
        <time>2020-12-20T08:11:58.289000+00:00</time>
      </trkpt>
      <trkpt lat="0" lon="0">
        <time>2020-12-20T08:11:58.295000+00:00</time>
      </trkpt>
      <trkpt lat="0" lon="0">
        <time>2020-12-20T08:11:58.296000+00:00</time>
      </trkpt>
      <trkpt lat="47.29034" lon="-1.37844">
        <ele>67</ele>
        <time>2020-12-20T08:11:59.274000+00:00</time>
      </trkpt>
      <trkpt lat="0" lon="0">
        <time>2020-12-20T08:11:59.290000+00:00</time>
      </trkpt>
      <trkpt lat="0" lon="0">
        <time>2020-12-20T08:11:59.299000+00:00</time>
      </trkpt>
      <trkpt lat="0" lon="0">
        <time>2020-12-20T08:11:59.305000+00:00</time>
      </trkpt>
      <trkpt lat="47.29032" lon="-1.37839">
        <ele>67</ele>
        <time>2020-12-20T08:12:00.268000+00:00</time>
      </trkpt>
      <trkpt lat="0" lon="0">
        <time>2020-12-20T08:12:00.280000+00:00</time>
      </trkpt>
      <trkpt lat="0" lon="0">
        <time>2020-12-20T08:12:00.287000+00:00</time>
      </trkpt>
      <trkpt lat="0" lon="0">
        <time>2020-12-20T08:12:00.291000+00:00</time>
      </trkpt>
      <trkpt lat="47.2903" lon="-1.37836">
        <ele>67</ele>
        <time>2020-12-20T08:12:01.256000+00:00</time>
      </trkpt>
      <trkpt lat="0" lon="0">
        <time>2020-12-20T08:12:01.282000+00:00</time>
      </trkpt>
      <trkpt lat="0" lon="0">
        <time>2020-12-20T08:12:01.286000+00:00</time>
      </trkpt>
      <trkpt lat="0" lon="0">
        <time>2020-12-20T08:12:01.287000+00:00</time>
      </trkpt>
      <trkpt lat="47.29028" lon="-1.37833">
        <ele>67</ele>
        <time>2020-12-20T08:12:02.271000+00:00</time>
      </trkpt>
      <trkpt lat="0" lon="0">
        <time>2020-12-20T08:12:02.279000+00:00</time>
      </trkpt>
      <trkpt lat="0" lon="0">
        <time>2020-12-20T08:12:02.288000+00:00</time>
      </trkpt>
      <trkpt lat="0" lon="0">
        <time>2020-12-20T08:12:02.291000+00:00</time>
      </trkpt>
      <trkpt lat="47.29026" lon="-1.37831">
        <ele>67</ele>
        <time>2020-12-20T08:12:03.249000+00:00</time>
      </trkpt>
      <trkpt lat="0" lon="0">
        <time>2020-12-20T08:12:03.273000+00:00</time>
      </trkpt>
      <trkpt lat="0" lon="0">
        <time>2020-12-20T08:12:03.280000+00:00</time>
      </trkpt>
      <trkpt lat="0" lon="0">
        <time>2020-12-20T08:12:03.282000+00:00</time>
      </trkpt>
      <trkpt lat="47.29025" lon="-1.37829">
        <ele>67</ele>
        <time>2020-12-20T08:12:04.242000+00:00</time>
      </trkpt>
      <trkpt lat="0" lon="0">
        <time>2020-12-20T08:12:04.260000+00:00</time>
      </trkpt>
      <trkpt lat="0" lon="0">
        <time>2020-12-20T08:12:04.266000+00:00</time>
      </trkpt>
      <trkpt lat="0" lon="0">
        <time>2020-12-20T08:12:04.268000+00:00</time>
      </trkpt>
      <trkpt lat="47.29024" lon="-1.37827">
        <ele>66</ele>
        <time>2020-12-20T08:12:05.275000+00:00</time>
      </trkpt>
      <trkpt lat="0" lon="0">
        <time>2020-12-20T08:12:05.282000+00:00</time>
      </trkpt>
      <trkpt lat="0" lon="0">
        <time>2020-12-20T08:12:05.291000+00:00</time>
      </trkpt>
      <trkpt lat="0" lon="0">
        <time>2020-12-20T08:12:05.294000+00:00</time>
      </trkpt>
      <trkpt lat="47.29024" lon="-1.37825">
        <ele>66</ele>
        <time>2020-12-20T08:12:06.282000+00:00</time>
      </trkpt>
      <trkpt lat="0" lon="0">
        <time>2020-12-20T08:12:06.309000+00:00</time>
      </trkpt>
      <trkpt lat="0" lon="0">
        <time>2020-12-20T08:12:06.314000+00:00</time>
      </trkpt>
      <trkpt lat="0" lon="0">
        <time>2020-12-20T08:12:06.318000+00:00</time>
      </trkpt>
      <trkpt lat="47.29023" lon="-1.37824">
        <ele>66</ele>
        <time>2020-12-20T08:12:07.252000+00:00</time>
      </trkpt>
      <trkpt lat="0" lon="0">
        <time>2020-12-20T08:12:07.260000+00:00</time>
      </trkpt>
      <trkpt lat="0" lon="0">
        <time>2020-12-20T08:12:07.269000+00:00</time>
      </trkpt>
      <trkpt lat="0" lon="0">
        <time>2020-12-20T08:12:07.274000+00:00</time>
      </trkpt>
      <trkpt lat="47.29023" lon="-1.37822">
        <ele>66</ele>
        <time>2020-12-20T08:12:08.246000+00:00</time>
      </trkpt>
      <trkpt lat="0" lon="0">
        <time>2020-12-20T08:12:08.259000+00:00</time>
      </trkpt>
      <trkpt lat="0" lon="0">
        <time>2020-12-20T08:12:08.266000+00:00</time>
      </trkpt>
      <trkpt lat="0" lon="0">
        <time>2020-12-20T08:12:08.270000+00:00</time>
      </trkpt>
      <trkpt lat="47.29024" lon="-1.37821">
        <ele>66</ele>
        <time>2020-12-20T08:12:09.275000+00:00</time>
      </trkpt>
      <trkpt lat="0" lon="0">
        <time>2020-12-20T08:12:09.287000+00:00</time>
      </trkpt>
      <trkpt lat="0" lon="0">
        <time>2020-12-20T08:12:09.292000+00:00</time>
      </trkpt>
      <trkpt lat="0" lon="0">
        <time>2020-12-20T08:12:09.297000+00:00</time>
      </trkpt>
      <trkpt lat="47.29025" lon="-1.3782">
        <ele>65</ele>
        <time>2020-12-20T08:12:10.266000+00:00</time>
      </trkpt>
      <trkpt lat="0" lon="0">
        <time>2020-12-20T08:12:10.285000+00:00</time>
      </trkpt>
      <trkpt lat="0" lon="0">
        <time>2020-12-20T08:12:10.289000+00:00</time>
      </trkpt>
      <trkpt lat="0" lon="0">
        <time>2020-12-20T08:12:10.292000+00:00</time>
      </trkpt>
      <trkpt lat="47.29027" lon="-1.3782">
        <ele>65</ele>
        <time>2020-12-20T08:12:11.235000+00:00</time>
      </trkpt>
      <trkpt lat="0" lon="0">
        <time>2020-12-20T08:12:11.239000+00:00</time>
      </trkpt>
      <trkpt lat="0" lon="0">
        <time>2020-12-20T08:12:11.243000+00:00</time>
      </trkpt>
      <trkpt lat="0" lon="0">
        <time>2020-12-20T08:12:11.246000+00:00</time>
      </trkpt>
      <trkpt lat="47.2903" lon="-1.37821">
        <ele>65</ele>
        <time>2020-12-20T08:12:12.240000+00:00</time>
      </trkpt>
      <trkpt lat="0" lon="0">
        <time>2020-12-20T08:12:12.256000+00:00</time>
      </trkpt>
      <trkpt lat="0" lon="0">
        <time>2020-12-20T08:12:12.267000+00:00</time>
      </trkpt>
      <trkpt lat="0" lon="0">
        <time>2020-12-20T08:12:12.270000+00:00</time>
      </trkpt>
      <trkpt lat="47.29033" lon="-1.37822">
        <ele>64</ele>
        <time>2020-12-20T08:12:13.283000+00:00</time>
      </trkpt>
      <trkpt lat="0" lon="0">
        <time>2020-12-20T08:12:13.292000+00:00</time>
      </trkpt>
      <trkpt lat="0" lon="0">
        <time>2020-12-20T08:12:13.297000+00:00</time>
      </trkpt>
      <trkpt lat="0" lon="0">
        <time>2020-12-20T08:12:13.299000+00:00</time>
      </trkpt>
      <trkpt lat="47.29036" lon="-1.37824">
        <ele>63</ele>
        <time>2020-12-20T08:12:14.278000+00:00</time>
      </trkpt>
      <trkpt lat="0" lon="0">
        <time>2020-12-20T08:12:14.296000+00:00</time>
      </trkpt>
      <trkpt lat="0" lon="0">
        <time>2020-12-20T08:12:14.305000+00:00</time>
      </trkpt>
      <trkpt lat="0" lon="0">
        <time>2020-12-20T08:12:14.307000+00:00</time>
      </trkpt>
      <trkpt lat="47.2904" lon="-1.37827">
        <ele>62</ele>
        <time>2020-12-20T08:12:15.246000+00:00</time>
      </trkpt>
      <trkpt lat="0" lon="0">
        <time>2020-12-20T08:12:15.255000+00:00</time>
      </trkpt>
      <trkpt lat="0" lon="0">
        <time>2020-12-20T08:12:15.260000+00:00</time>
      </trkpt>
      <trkpt lat="0" lon="0">
        <time>2020-12-20T08:12:15.265000+00:00</time>
      </trkpt>
      <trkpt lat="47.29043" lon="-1.3783">
        <ele>62</ele>
        <time>2020-12-20T08:12:16.234000+00:00</time>
      </trkpt>
      <trkpt lat="0" lon="0">
        <time>2020-12-20T08:12:16.237000+00:00</time>
      </trkpt>
      <trkpt lat="0" lon="0">
        <time>2020-12-20T08:12:16.240000+00:00</time>
      </trkpt>
      <trkpt lat="0" lon="0">
        <time>2020-12-20T08:12:16.241000+00:00</time>
      </trkpt>
      <trkpt lat="47.29047" lon="-1.37834">
        <ele>62</ele>
        <time>2020-12-20T08:12:17.268000+00:00</time>
      </trkpt>
      <trkpt lat="0" lon="0">
        <time>2020-12-20T08:12:17.279000+00:00</time>
      </trkpt>
      <trkpt lat="0" lon="0">
        <time>2020-12-20T08:12:17.292000+00:00</time>
      </trkpt>
      <trkpt lat="0" lon="0">
        <time>2020-12-20T08:12:17.295000+00:00</time>
      </trkpt>
      <trkpt lat="47.29051" lon="-1.37838">
        <ele>61</ele>
        <time>2020-12-20T08:12:18.278000+00:00</time>
      </trkpt>
      <trkpt lat="0" lon="0">
        <time>2020-12-20T08:12:18.295000+00:00</time>
      </trkpt>
      <trkpt lat="0" lon="0">
        <time>2020-12-20T08:12:18.305000+00:00</time>
      </trkpt>
      <trkpt lat="0" lon="0">
        <time>2020-12-20T08:12:18.309000+00:00</time>
      </trkpt>
      <trkpt lat="47.29055" lon="-1.37841">
        <ele>61</ele>
        <time>2020-12-20T08:12:19.262000+00:00</time>
      </trkpt>
      <trkpt lat="0" lon="0">
        <time>2020-12-20T08:12:19.274000+00:00</time>
      </trkpt>
      <trkpt lat="0" lon="0">
        <time>2020-12-20T08:12:19.279000+00:00</time>
      </trkpt>
      <trkpt lat="0" lon="0">
        <time>2020-12-20T08:12:19.282000+00:00</time>
      </trkpt>
      <trkpt lat="47.2906" lon="-1.37844">
        <ele>61</ele>
        <time>2020-12-20T08:12:20.259000+00:00</time>
      </trkpt>
      <trkpt lat="0" lon="0">
        <time>2020-12-20T08:12:20.276000+00:00</time>
      </trkpt>
      <trkpt lat="0" lon="0">
        <time>2020-12-20T08:12:20.282000+00:00</time>
      </trkpt>
      <trkpt lat="0" lon="0">
        <time>2020-12-20T08:12:20.285000+00:00</time>
      </trkpt>
      <trkpt lat="47.29064" lon="-1.37846">
        <ele>61</ele>
        <time>2020-12-20T08:12:21.253000+00:00</time>
      </trkpt>
      <trkpt lat="0" lon="0">
        <time>2020-12-20T08:12:21.265000+00:00</time>
      </trkpt>
      <trkpt lat="0" lon="0">
        <time>2020-12-20T08:12:21.269000+00:00</time>
      </trkpt>
      <trkpt lat="0" lon="0">
        <time>2020-12-20T08:12:21.273000+00:00</time>
      </trkpt>
      <trkpt lat="47.29068" lon="-1.37847">
        <ele>61</ele>
        <time>2020-12-20T08:12:22.253000+00:00</time>
      </trkpt>
      <trkpt lat="0" lon="0">
        <time>2020-12-20T08:12:22.259000+00:00</time>
      </trkpt>
      <trkpt lat="0" lon="0">
        <time>2020-12-20T08:12:22.266000+00:00</time>
      </trkpt>
      <trkpt lat="0" lon="0">
        <time>2020-12-20T08:12:22.271000+00:00</time>
      </trkpt>
      <trkpt lat="47.29072" lon="-1.37846">
        <ele>61</ele>
        <time>2020-12-20T08:12:23.247000+00:00</time>
      </trkpt>
      <trkpt lat="0" lon="0">
        <time>2020-12-20T08:12:23.259000+00:00</time>
      </trkpt>
      <trkpt lat="0" lon="0">
        <time>2020-12-20T08:12:23.265000+00:00</time>
      </trkpt>
      <trkpt lat="0" lon="0">
        <time>2020-12-20T08:12:23.267000+00:00</time>
      </trkpt>
      <trkpt lat="47.29076" lon="-1.37844">
        <ele>61</ele>
        <time>2020-12-20T08:12:24.257000+00:00</time>
      </trkpt>
      <trkpt lat="0" lon="0">
        <time>2020-12-20T08:12:24.262000+00:00</time>
      </trkpt>
      <trkpt lat="0" lon="0">
        <time>2020-12-20T08:12:24.267000+00:00</time>
      </trkpt>
      <trkpt lat="0" lon="0">
        <time>2020-12-20T08:12:24.270000+00:00</time>
      </trkpt>
      <trkpt lat="47.29079" lon="-1.37841">
        <ele>61</ele>
        <time>2020-12-20T08:12:25.291000+00:00</time>
      </trkpt>
      <trkpt lat="0" lon="0">
        <time>2020-12-20T08:12:25.308000+00:00</time>
      </trkpt>
      <trkpt lat="0" lon="0">
        <time>2020-12-20T08:12:25.312000+00:00</time>
      </trkpt>
      <trkpt lat="0" lon="0">
        <time>2020-12-20T08:12:25.319000+00:00</time>
      </trkpt>
      <trkpt lat="47.29083" lon="-1.37838">
        <ele>61</ele>
        <time>2020-12-20T08:12:26.258000+00:00</time>
      </trkpt>
      <trkpt lat="0" lon="0">
        <time>2020-12-20T08:12:26.266000+00:00</time>
      </trkpt>
      <trkpt lat="0" lon="0">
        <time>2020-12-20T08:12:26.272000+00:00</time>
      </trkpt>
      <trkpt lat="0" lon="0">
        <time>2020-12-20T08:12:26.275000+00:00</time>
      </trkpt>
      <trkpt lat="47.29087" lon="-1.37833">
        <ele>60</ele>
        <time>2020-12-20T08:12:27.261000+00:00</time>
      </trkpt>
      <trkpt lat="0" lon="0">
        <time>2020-12-20T08:12:27.266000+00:00</time>
      </trkpt>
      <trkpt lat="0" lon="0">
        <time>2020-12-20T08:12:27.279000+00:00</time>
      </trkpt>
      <trkpt lat="0" lon="0">
        <time>2020-12-20T08:12:27.282000+00:00</time>
      </trkpt>
      <trkpt lat="47.2909" lon="-1.37829">
        <ele>60</ele>
        <time>2020-12-20T08:12:28.260000+00:00</time>
      </trkpt>
      <trkpt lat="0" lon="0">
        <time>2020-12-20T08:12:28.268000+00:00</time>
      </trkpt>
      <trkpt lat="0" lon="0">
        <time>2020-12-20T08:12:28.270000+00:00</time>
      </trkpt>
      <trkpt lat="0" lon="0">
        <time>2020-12-20T08:12:28.271000+00:00</time>
      </trkpt>
      <trkpt lat="47.29094" lon="-1.37824">
        <ele>60</ele>
        <time>2020-12-20T08:12:29.273000+00:00</time>
      </trkpt>
      <trkpt lat="0" lon="0">
        <time>2020-12-20T08:12:29.282000+00:00</time>
      </trkpt>
      <trkpt lat="0" lon="0">
        <time>2020-12-20T08:12:29.290000+00:00</time>
      </trkpt>
      <trkpt lat="0" lon="0">
        <time>2020-12-20T08:12:29.294000+00:00</time>
      </trkpt>
      <trkpt lat="47.29098" lon="-1.37818">
        <ele>60</ele>
        <time>2020-12-20T08:12:30.269000+00:00</time>
      </trkpt>
      <trkpt lat="0" lon="0">
        <time>2020-12-20T08:12:30.276000+00:00</time>
      </trkpt>
      <trkpt lat="0" lon="0">
        <time>2020-12-20T08:12:30.283000+00:00</time>
      </trkpt>
      <trkpt lat="0" lon="0">
        <time>2020-12-20T08:12:30.285000+00:00</time>
      </trkpt>
      <trkpt lat="47.29101" lon="-1.37813">
        <ele>60</ele>
        <time>2020-12-20T08:12:31.238000+00:00</time>
      </trkpt>
      <trkpt lat="0" lon="0">
        <time>2020-12-20T08:12:31.246000+00:00</time>
      </trkpt>
      <trkpt lat="0" lon="0">
        <time>2020-12-20T08:12:31.251000+00:00</time>
      </trkpt>
      <trkpt lat="0" lon="0">
        <time>2020-12-20T08:12:31.253000+00:00</time>
      </trkpt>
      <trkpt lat="47.29104" lon="-1.37807">
        <ele>59</ele>
        <time>2020-12-20T08:12:32.251000+00:00</time>
      </trkpt>
      <trkpt lat="0" lon="0">
        <time>2020-12-20T08:12:32.272000+00:00</time>
      </trkpt>
      <trkpt lat="0" lon="0">
        <time>2020-12-20T08:12:32.276000+00:00</time>
      </trkpt>
      <trkpt lat="0" lon="0">
        <time>2020-12-20T08:12:32.280000+00:00</time>
      </trkpt>
      <trkpt lat="47.29108" lon="-1.37801">
        <ele>59</ele>
        <time>2020-12-20T08:12:33.252000+00:00</time>
      </trkpt>
      <trkpt lat="0" lon="0">
        <time>2020-12-20T08:12:33.271000+00:00</time>
      </trkpt>
      <trkpt lat="0" lon="0">
        <time>2020-12-20T08:12:33.279000+00:00</time>
      </trkpt>
      <trkpt lat="0" lon="0">
        <time>2020-12-20T08:12:33.281000+00:00</time>
      </trkpt>
      <trkpt lat="47.29111" lon="-1.37795">
        <ele>60</ele>
        <time>2020-12-20T08:12:34.285000+00:00</time>
      </trkpt>
      <trkpt lat="0" lon="0">
        <time>2020-12-20T08:12:34.299000+00:00</time>
      </trkpt>
      <trkpt lat="0" lon="0">
        <time>2020-12-20T08:12:34.302000+00:00</time>
      </trkpt>
      <trkpt lat="0" lon="0">
        <time>2020-12-20T08:12:34.308000+00:00</time>
      </trkpt>
      <trkpt lat="47.29114" lon="-1.37789">
        <ele>60</ele>
        <time>2020-12-20T08:12:35.264000+00:00</time>
      </trkpt>
      <trkpt lat="0" lon="0">
        <time>2020-12-20T08:12:35.274000+00:00</time>
      </trkpt>
      <trkpt lat="0" lon="0">
        <time>2020-12-20T08:12:35.279000+00:00</time>
      </trkpt>
      <trkpt lat="0" lon="0">
        <time>2020-12-20T08:12:35.283000+00:00</time>
      </trkpt>
      <trkpt lat="47.29117" lon="-1.37783">
        <ele>59</ele>
        <time>2020-12-20T08:12:36.284000+00:00</time>
      </trkpt>
      <trkpt lat="0" lon="0">
        <time>2020-12-20T08:12:36.292000+00:00</time>
      </trkpt>
      <trkpt lat="0" lon="0">
        <time>2020-12-20T08:12:36.298000+00:00</time>
      </trkpt>
      <trkpt lat="0" lon="0">
        <time>2020-12-20T08:12:36.301000+00:00</time>
      </trkpt>
      <trkpt lat="47.2912" lon="-1.37777">
        <ele>59</ele>
        <time>2020-12-20T08:12:37.289000+00:00</time>
      </trkpt>
      <trkpt lat="0" lon="0">
        <time>2020-12-20T08:12:37.305000+00:00</time>
      </trkpt>
      <trkpt lat="0" lon="0">
        <time>2020-12-20T08:12:37.309000+00:00</time>
      </trkpt>
      <trkpt lat="0" lon="0">
        <time>2020-12-20T08:12:37.312000+00:00</time>
      </trkpt>
      <trkpt lat="47.29123" lon="-1.37771">
        <ele>59</ele>
        <time>2020-12-20T08:12:38.279000+00:00</time>
      </trkpt>
      <trkpt lat="0" lon="0">
        <time>2020-12-20T08:12:38.292000+00:00</time>
      </trkpt>
      <trkpt lat="0" lon="0">
        <time>2020-12-20T08:12:38.300000+00:00</time>
      </trkpt>
      <trkpt lat="0" lon="0">
        <time>2020-12-20T08:12:38.303000+00:00</time>
      </trkpt>
      <trkpt lat="47.29126" lon="-1.37765">
        <ele>59</ele>
        <time>2020-12-20T08:12:39.282000+00:00</time>
      </trkpt>
      <trkpt lat="0" lon="0">
        <time>2020-12-20T08:12:39.291000+00:00</time>
      </trkpt>
      <trkpt lat="0" lon="0">
        <time>2020-12-20T08:12:39.299000+00:00</time>
      </trkpt>
      <trkpt lat="0" lon="0">
        <time>2020-12-20T08:12:39.300000+00:00</time>
      </trkpt>
      <trkpt lat="47.29129" lon="-1.37759">
        <ele>59</ele>
        <time>2020-12-20T08:12:40.283000+00:00</time>
      </trkpt>
      <trkpt lat="0" lon="0">
        <time>2020-12-20T08:12:40.292000+00:00</time>
      </trkpt>
      <trkpt lat="0" lon="0">
        <time>2020-12-20T08:12:40.295000+00:00</time>
      </trkpt>
      <trkpt lat="0" lon="0">
        <time>2020-12-20T08:12:40.296000+00:00</time>
      </trkpt>
      <trkpt lat="47.29132" lon="-1.37753">
        <ele>60</ele>
        <time>2020-12-20T08:12:41.283000+00:00</time>
      </trkpt>
      <trkpt lat="0" lon="0">
        <time>2020-12-20T08:12:41.291000+00:00</time>
      </trkpt>
      <trkpt lat="0" lon="0">
        <time>2020-12-20T08:12:41.304000+00:00</time>
      </trkpt>
      <trkpt lat="0" lon="0">
        <time>2020-12-20T08:12:41.307000+00:00</time>
      </trkpt>
      <trkpt lat="47.29135" lon="-1.37747">
        <ele>59</ele>
        <time>2020-12-20T08:12:42.266000+00:00</time>
      </trkpt>
      <trkpt lat="0" lon="0">
        <time>2020-12-20T08:12:42.277000+00:00</time>
      </trkpt>
      <trkpt lat="0" lon="0">
        <time>2020-12-20T08:12:42.285000+00:00</time>
      </trkpt>
      <trkpt lat="0" lon="0">
        <time>2020-12-20T08:12:42.287000+00:00</time>
      </trkpt>
      <trkpt lat="47.29138" lon="-1.37741">
        <ele>60</ele>
        <time>2020-12-20T08:12:43.222000+00:00</time>
      </trkpt>
      <trkpt lat="0" lon="0">
        <time>2020-12-20T08:12:43.226000+00:00</time>
      </trkpt>
      <trkpt lat="0" lon="0">
        <time>2020-12-20T08:12:43.250000+00:00</time>
      </trkpt>
      <trkpt lat="47.29141" lon="-1.37735">
        <ele>60</ele>
        <time>2020-12-20T08:12:44.245000+00:00</time>
      </trkpt>
      <trkpt lat="0" lon="0">
        <time>2020-12-20T08:12:44.260000+00:00</time>
      </trkpt>
      <trkpt lat="0" lon="0">
        <time>2020-12-20T08:12:44.266000+00:00</time>
      </trkpt>
      <trkpt lat="0" lon="0">
        <time>2020-12-20T08:12:44.269000+00:00</time>
      </trkpt>
      <trkpt lat="47.29144" lon="-1.37729">
        <ele>59</ele>
        <time>2020-12-20T08:12:45.267000+00:00</time>
      </trkpt>
      <trkpt lat="0" lon="0">
        <time>2020-12-20T08:12:45.273000+00:00</time>
      </trkpt>
      <trkpt lat="0" lon="0">
        <time>2020-12-20T08:12:45.281000+00:00</time>
      </trkpt>
      <trkpt lat="0" lon="0">
        <time>2020-12-20T08:12:45.285000+00:00</time>
      </trkpt>
      <trkpt lat="47.29147" lon="-1.37723">
        <ele>60</ele>
        <time>2020-12-20T08:12:46.326000+00:00</time>
      </trkpt>
      <trkpt lat="0" lon="0">
        <time>2020-12-20T08:12:46.328000+00:00</time>
      </trkpt>
      <trkpt lat="0" lon="0">
        <time>2020-12-20T08:12:46.330000+00:00</time>
      </trkpt>
      <trkpt lat="47.29149" lon="-1.37717">
        <ele>60</ele>
        <time>2020-12-20T08:12:47.256000+00:00</time>
      </trkpt>
      <trkpt lat="0" lon="0">
        <time>2020-12-20T08:12:47.267000+00:00</time>
      </trkpt>
      <trkpt lat="0" lon="0">
        <time>2020-12-20T08:12:47.272000+00:00</time>
      </trkpt>
      <trkpt lat="0" lon="0">
        <time>2020-12-20T08:12:47.274000+00:00</time>
      </trkpt>
      <trkpt lat="47.29152" lon="-1.37711">
        <ele>60</ele>
        <time>2020-12-20T08:12:48.260000+00:00</time>
      </trkpt>
      <trkpt lat="0" lon="0">
        <time>2020-12-20T08:12:48.274000+00:00</time>
      </trkpt>
      <trkpt lat="0" lon="0">
        <time>2020-12-20T08:12:48.280000+00:00</time>
      </trkpt>
      <trkpt lat="0" lon="0">
        <time>2020-12-20T08:12:48.282000+00:00</time>
      </trkpt>
      <trkpt lat="47.29155" lon="-1.37705">
        <ele>60</ele>
        <time>2020-12-20T08:12:49.273000+00:00</time>
      </trkpt>
      <trkpt lat="0" lon="0">
        <time>2020-12-20T08:12:49.282000+00:00</time>
      </trkpt>
      <trkpt lat="0" lon="0">
        <time>2020-12-20T08:12:49.289000+00:00</time>
      </trkpt>
      <trkpt lat="0" lon="0">
        <time>2020-12-20T08:12:49.291000+00:00</time>
      </trkpt>
      <trkpt lat="47.29158" lon="-1.377">
        <ele>60</ele>
        <time>2020-12-20T08:12:50.239000+00:00</time>
      </trkpt>
      <trkpt lat="0" lon="0">
        <time>2020-12-20T08:12:50.247000+00:00</time>
      </trkpt>
      <trkpt lat="0" lon="0">
        <time>2020-12-20T08:12:50.253000+00:00</time>
      </trkpt>
      <trkpt lat="0" lon="0">
        <time>2020-12-20T08:12:50.258000+00:00</time>
      </trkpt>
      <trkpt lat="47.29161" lon="-1.37694">
        <ele>60</ele>
        <time>2020-12-20T08:12:51.256000+00:00</time>
      </trkpt>
      <trkpt lat="0" lon="0">
        <time>2020-12-20T08:12:51.267000+00:00</time>
      </trkpt>
      <trkpt lat="0" lon="0">
        <time>2020-12-20T08:12:51.270000+00:00</time>
      </trkpt>
      <trkpt lat="0" lon="0">
        <time>2020-12-20T08:12:51.272000+00:00</time>
      </trkpt>
      <trkpt lat="47.29164" lon="-1.37688">
        <ele>60</ele>
        <time>2020-12-20T08:12:52.213000+00:00</time>
      </trkpt>
      <trkpt lat="0" lon="0">
        <time>2020-12-20T08:12:52.223000+00:00</time>
      </trkpt>
      <trkpt lat="0" lon="0">
        <time>2020-12-20T08:12:52.225000+00:00</time>
      </trkpt>
      <trkpt lat="0" lon="0">
        <time>2020-12-20T08:12:52.227000+00:00</time>
      </trkpt>
      <trkpt lat="47.29166" lon="-1.37682">
        <ele>60</ele>
        <time>2020-12-20T08:12:53.237000+00:00</time>
      </trkpt>
      <trkpt lat="0" lon="0">
        <time>2020-12-20T08:12:53.252000+00:00</time>
      </trkpt>
      <trkpt lat="0" lon="0">
        <time>2020-12-20T08:12:53.261000+00:00</time>
      </trkpt>
      <trkpt lat="0" lon="0">
        <time>2020-12-20T08:12:53.263000+00:00</time>
      </trkpt>
      <trkpt lat="47.29169" lon="-1.37676">
        <ele>61</ele>
        <time>2020-12-20T08:12:54.265000+00:00</time>
      </trkpt>
      <trkpt lat="0" lon="0">
        <time>2020-12-20T08:12:54.272000+00:00</time>
      </trkpt>
      <trkpt lat="0" lon="0">
        <time>2020-12-20T08:12:54.276000+00:00</time>
      </trkpt>
      <trkpt lat="0" lon="0">
        <time>2020-12-20T08:12:54.282000+00:00</time>
      </trkpt>
      <trkpt lat="47.29172" lon="-1.3767">
        <ele>60</ele>
        <time>2020-12-20T08:12:55.224000+00:00</time>
      </trkpt>
      <trkpt lat="0" lon="0">
        <time>2020-12-20T08:12:55.237000+00:00</time>
      </trkpt>
      <trkpt lat="0" lon="0">
        <time>2020-12-20T08:12:55.242000+00:00</time>
      </trkpt>
      <trkpt lat="0" lon="0">
        <time>2020-12-20T08:12:55.247000+00:00</time>
      </trkpt>
      <trkpt lat="47.29174" lon="-1.37664">
        <ele>61</ele>
        <time>2020-12-20T08:12:56.279000+00:00</time>
      </trkpt>
      <trkpt lat="0" lon="0">
        <time>2020-12-20T08:12:56.296000+00:00</time>
      </trkpt>
      <trkpt lat="0" lon="0">
        <time>2020-12-20T08:12:56.306000+00:00</time>
      </trkpt>
      <trkpt lat="0" lon="0">
        <time>2020-12-20T08:12:56.308000+00:00</time>
      </trkpt>
      <trkpt lat="47.29176" lon="-1.37658">
        <ele>61</ele>
        <time>2020-12-20T08:12:57.225000+00:00</time>
      </trkpt>
      <trkpt lat="0" lon="0">
        <time>2020-12-20T08:12:57.229000+00:00</time>
      </trkpt>
      <trkpt lat="0" lon="0">
        <time>2020-12-20T08:12:57.231000+00:00</time>
      </trkpt>
      <trkpt lat="0" lon="0">
        <time>2020-12-20T08:12:57.233000+00:00</time>
      </trkpt>
      <trkpt lat="47.29179" lon="-1.37651">
        <ele>61</ele>
        <time>2020-12-20T08:12:58.221000+00:00</time>
      </trkpt>
      <trkpt lat="0" lon="0">
        <time>2020-12-20T08:12:58.232000+00:00</time>
      </trkpt>
      <trkpt lat="0" lon="0">
        <time>2020-12-20T08:12:58.239000+00:00</time>
      </trkpt>
      <trkpt lat="0" lon="0">
        <time>2020-12-20T08:12:58.242000+00:00</time>
      </trkpt>
      <trkpt lat="47.29181" lon="-1.37645">
        <ele>61</ele>
        <time>2020-12-20T08:12:59.301000+00:00</time>
      </trkpt>
      <trkpt lat="0" lon="0">
        <time>2020-12-20T08:12:59.310000+00:00</time>
      </trkpt>
      <trkpt lat="0" lon="0">
        <time>2020-12-20T08:12:59.314000+00:00</time>
      </trkpt>
      <trkpt lat="0" lon="0">
        <time>2020-12-20T08:12:59.317000+00:00</time>
      </trkpt>
      <trkpt lat="47.29183" lon="-1.37639">
        <ele>62</ele>
        <time>2020-12-20T08:13:00.223000+00:00</time>
      </trkpt>
      <trkpt lat="0" lon="0">
        <time>2020-12-20T08:13:00.234000+00:00</time>
      </trkpt>
      <trkpt lat="0" lon="0">
        <time>2020-12-20T08:13:00.239000+00:00</time>
      </trkpt>
      <trkpt lat="0" lon="0">
        <time>2020-12-20T08:13:00.241000+00:00</time>
      </trkpt>
      <trkpt lat="47.29185" lon="-1.37633">
        <ele>62</ele>
        <time>2020-12-20T08:13:01.266000+00:00</time>
      </trkpt>
      <trkpt lat="0" lon="0">
        <time>2020-12-20T08:13:01.272000+00:00</time>
      </trkpt>
      <trkpt lat="0" lon="0">
        <time>2020-12-20T08:13:01.277000+00:00</time>
      </trkpt>
      <trkpt lat="0" lon="0">
        <time>2020-12-20T08:13:01.279000+00:00</time>
      </trkpt>
      <trkpt lat="47.29188" lon="-1.37626">
        <ele>62</ele>
        <time>2020-12-20T08:13:02.301000+00:00</time>
      </trkpt>
      <trkpt lat="0" lon="0">
        <time>2020-12-20T08:13:02.310000+00:00</time>
      </trkpt>
      <trkpt lat="0" lon="0">
        <time>2020-12-20T08:13:02.314000+00:00</time>
      </trkpt>
      <trkpt lat="0" lon="0">
        <time>2020-12-20T08:13:02.318000+00:00</time>
      </trkpt>
      <trkpt lat="47.2919" lon="-1.3762">
        <ele>62</ele>
        <time>2020-12-20T08:13:03.272000+00:00</time>
      </trkpt>
      <trkpt lat="0" lon="0">
        <time>2020-12-20T08:13:03.295000+00:00</time>
      </trkpt>
      <trkpt lat="0" lon="0">
        <time>2020-12-20T08:13:03.299000+00:00</time>
      </trkpt>
      <trkpt lat="0" lon="0">
        <time>2020-12-20T08:13:03.301000+00:00</time>
      </trkpt>
      <trkpt lat="47.29192" lon="-1.37614">
        <ele>62</ele>
        <time>2020-12-20T08:13:04.275000+00:00</time>
      </trkpt>
      <trkpt lat="0" lon="0">
        <time>2020-12-20T08:13:04.289000+00:00</time>
      </trkpt>
      <trkpt lat="0" lon="0">
        <time>2020-12-20T08:13:04.294000+00:00</time>
      </trkpt>
      <trkpt lat="0" lon="0">
        <time>2020-12-20T08:13:04.297000+00:00</time>
      </trkpt>
      <trkpt lat="47.29195" lon="-1.37608">
        <ele>62</ele>
        <time>2020-12-20T08:13:05.280000+00:00</time>
      </trkpt>
      <trkpt lat="0" lon="0">
        <time>2020-12-20T08:13:05.290000+00:00</time>
      </trkpt>
      <trkpt lat="0" lon="0">
        <time>2020-12-20T08:13:05.302000+00:00</time>
      </trkpt>
      <trkpt lat="0" lon="0">
        <time>2020-12-20T08:13:05.307000+00:00</time>
      </trkpt>
      <trkpt lat="47.29198" lon="-1.37602">
        <ele>62</ele>
        <time>2020-12-20T08:13:06.217000+00:00</time>
      </trkpt>
      <trkpt lat="0" lon="0">
        <time>2020-12-20T08:13:06.235000+00:00</time>
      </trkpt>
      <trkpt lat="0" lon="0">
        <time>2020-12-20T08:13:06.240000+00:00</time>
      </trkpt>
      <trkpt lat="0" lon="0">
        <time>2020-12-20T08:13:06.242000+00:00</time>
      </trkpt>
      <trkpt lat="47.292" lon="-1.37596">
        <ele>62</ele>
        <time>2020-12-20T08:13:07.276000+00:00</time>
      </trkpt>
      <trkpt lat="0" lon="0">
        <time>2020-12-20T08:13:07.284000+00:00</time>
      </trkpt>
      <trkpt lat="0" lon="0">
        <time>2020-12-20T08:13:07.291000+00:00</time>
      </trkpt>
      <trkpt lat="0" lon="0">
        <time>2020-12-20T08:13:07.293000+00:00</time>
      </trkpt>
      <trkpt lat="47.29203" lon="-1.3759">
        <ele>62</ele>
        <time>2020-12-20T08:13:08.247000+00:00</time>
      </trkpt>
      <trkpt lat="0" lon="0">
        <time>2020-12-20T08:13:08.254000+00:00</time>
      </trkpt>
      <trkpt lat="0" lon="0">
        <time>2020-12-20T08:13:08.256000+00:00</time>
      </trkpt>
      <trkpt lat="0" lon="0">
        <time>2020-12-20T08:13:08.257000+00:00</time>
      </trkpt>
      <trkpt lat="47.29205" lon="-1.37583">
        <ele>62</ele>
        <time>2020-12-20T08:13:09.240000+00:00</time>
      </trkpt>
      <trkpt lat="0" lon="0">
        <time>2020-12-20T08:13:09.262000+00:00</time>
      </trkpt>
      <trkpt lat="0" lon="0">
        <time>2020-12-20T08:13:09.269000+00:00</time>
      </trkpt>
      <trkpt lat="0" lon="0">
        <time>2020-12-20T08:13:09.272000+00:00</time>
      </trkpt>
      <trkpt lat="47.29207" lon="-1.37577">
        <ele>62</ele>
        <time>2020-12-20T08:13:10.275000+00:00</time>
      </trkpt>
      <trkpt lat="0" lon="0">
        <time>2020-12-20T08:13:10.284000+00:00</time>
      </trkpt>
      <trkpt lat="0" lon="0">
        <time>2020-12-20T08:13:10.288000+00:00</time>
      </trkpt>
      <trkpt lat="0" lon="0">
        <time>2020-12-20T08:13:10.291000+00:00</time>
      </trkpt>
      <trkpt lat="47.2921" lon="-1.37571">
        <ele>62</ele>
        <time>2020-12-20T08:13:11.251000+00:00</time>
      </trkpt>
      <trkpt lat="0" lon="0">
        <time>2020-12-20T08:13:11.264000+00:00</time>
      </trkpt>
      <trkpt lat="0" lon="0">
        <time>2020-12-20T08:13:11.276000+00:00</time>
      </trkpt>
      <trkpt lat="0" lon="0">
        <time>2020-12-20T08:13:11.280000+00:00</time>
      </trkpt>
      <trkpt lat="47.29212" lon="-1.37565">
        <ele>62</ele>
        <time>2020-12-20T08:13:12.272000+00:00</time>
      </trkpt>
      <trkpt lat="0" lon="0">
        <time>2020-12-20T08:13:12.295000+00:00</time>
      </trkpt>
      <trkpt lat="0" lon="0">
        <time>2020-12-20T08:13:12.300000+00:00</time>
      </trkpt>
      <trkpt lat="0" lon="0">
        <time>2020-12-20T08:13:12.303000+00:00</time>
      </trkpt>
      <trkpt lat="47.29214" lon="-1.37558">
        <ele>61</ele>
        <time>2020-12-20T08:13:13.286000+00:00</time>
      </trkpt>
      <trkpt lat="0" lon="0">
        <time>2020-12-20T08:13:13.292000+00:00</time>
      </trkpt>
      <trkpt lat="0" lon="0">
        <time>2020-12-20T08:13:13.298000+00:00</time>
      </trkpt>
      <trkpt lat="0" lon="0">
        <time>2020-12-20T08:13:13.302000+00:00</time>
      </trkpt>
      <trkpt lat="47.29217" lon="-1.37552">
        <ele>60</ele>
        <time>2020-12-20T08:13:14.243000+00:00</time>
      </trkpt>
      <trkpt lat="0" lon="0">
        <time>2020-12-20T08:13:14.248000+00:00</time>
      </trkpt>
      <trkpt lat="0" lon="0">
        <time>2020-12-20T08:13:14.252000+00:00</time>
      </trkpt>
      <trkpt lat="0" lon="0">
        <time>2020-12-20T08:13:14.259000+00:00</time>
      </trkpt>
      <trkpt lat="47.29219" lon="-1.37545">
        <ele>60</ele>
        <time>2020-12-20T08:13:15.240000+00:00</time>
      </trkpt>
      <trkpt lat="0" lon="0">
        <time>2020-12-20T08:13:15.248000+00:00</time>
      </trkpt>
      <trkpt lat="0" lon="0">
        <time>2020-12-20T08:13:15.254000+00:00</time>
      </trkpt>
      <trkpt lat="0" lon="0">
        <time>2020-12-20T08:13:15.258000+00:00</time>
      </trkpt>
      <trkpt lat="47.29221" lon="-1.37538">
        <ele>60</ele>
        <time>2020-12-20T08:13:16.264000+00:00</time>
      </trkpt>
      <trkpt lat="0" lon="0">
        <time>2020-12-20T08:13:16.274000+00:00</time>
      </trkpt>
      <trkpt lat="0" lon="0">
        <time>2020-12-20T08:13:16.278000+00:00</time>
      </trkpt>
      <trkpt lat="0" lon="0">
        <time>2020-12-20T08:13:16.280000+00:00</time>
      </trkpt>
      <trkpt lat="47.29223" lon="-1.37531">
        <ele>60</ele>
        <time>2020-12-20T08:13:17.274000+00:00</time>
      </trkpt>
      <trkpt lat="0" lon="0">
        <time>2020-12-20T08:13:17.284000+00:00</time>
      </trkpt>
      <trkpt lat="0" lon="0">
        <time>2020-12-20T08:13:17.291000+00:00</time>
      </trkpt>
      <trkpt lat="0" lon="0">
        <time>2020-12-20T08:13:17.294000+00:00</time>
      </trkpt>
      <trkpt lat="47.29225" lon="-1.37525">
        <ele>59</ele>
        <time>2020-12-20T08:13:18.245000+00:00</time>
      </trkpt>
      <trkpt lat="0" lon="0">
        <time>2020-12-20T08:13:18.258000+00:00</time>
      </trkpt>
      <trkpt lat="0" lon="0">
        <time>2020-12-20T08:13:18.262000+00:00</time>
      </trkpt>
      <trkpt lat="0" lon="0">
        <time>2020-12-20T08:13:18.264000+00:00</time>
      </trkpt>
      <trkpt lat="47.29228" lon="-1.37518">
        <ele>59</ele>
        <time>2020-12-20T08:13:19.256000+00:00</time>
      </trkpt>
      <trkpt lat="0" lon="0">
        <time>2020-12-20T08:13:19.265000+00:00</time>
      </trkpt>
      <trkpt lat="0" lon="0">
        <time>2020-12-20T08:13:19.273000+00:00</time>
      </trkpt>
      <trkpt lat="0" lon="0">
        <time>2020-12-20T08:13:19.281000+00:00</time>
      </trkpt>
      <trkpt lat="47.2923" lon="-1.37511">
        <ele>59</ele>
        <time>2020-12-20T08:13:20.251000+00:00</time>
      </trkpt>
      <trkpt lat="0" lon="0">
        <time>2020-12-20T08:13:20.263000+00:00</time>
      </trkpt>
      <trkpt lat="0" lon="0">
        <time>2020-12-20T08:13:20.267000+00:00</time>
      </trkpt>
      <trkpt lat="0" lon="0">
        <time>2020-12-20T08:13:20.270000+00:00</time>
      </trkpt>
      <trkpt lat="47.29233" lon="-1.37504">
        <ele>58</ele>
        <time>2020-12-20T08:13:21.272000+00:00</time>
      </trkpt>
      <trkpt lat="0" lon="0">
        <time>2020-12-20T08:13:21.288000+00:00</time>
      </trkpt>
      <trkpt lat="0" lon="0">
        <time>2020-12-20T08:13:21.297000+00:00</time>
      </trkpt>
      <trkpt lat="0" lon="0">
        <time>2020-12-20T08:13:21.301000+00:00</time>
      </trkpt>
      <trkpt lat="47.29235" lon="-1.37497">
        <ele>58</ele>
        <time>2020-12-20T08:13:22.271000+00:00</time>
      </trkpt>
      <trkpt lat="0" lon="0">
        <time>2020-12-20T08:13:22.287000+00:00</time>
      </trkpt>
      <trkpt lat="0" lon="0">
        <time>2020-12-20T08:13:22.291000+00:00</time>
      </trkpt>
      <trkpt lat="0" lon="0">
        <time>2020-12-20T08:13:22.294000+00:00</time>
      </trkpt>
      <trkpt lat="47.29238" lon="-1.3749">
        <ele>58</ele>
        <time>2020-12-20T08:13:23.278000+00:00</time>
      </trkpt>
      <trkpt lat="0" lon="0">
        <time>2020-12-20T08:13:23.283000+00:00</time>
      </trkpt>
      <trkpt lat="0" lon="0">
        <time>2020-12-20T08:13:23.290000+00:00</time>
      </trkpt>
      <trkpt lat="0" lon="0">
        <time>2020-12-20T08:13:23.292000+00:00</time>
      </trkpt>
      <trkpt lat="47.2924" lon="-1.37483">
        <ele>59</ele>
        <time>2020-12-20T08:13:24.274000+00:00</time>
      </trkpt>
      <trkpt lat="0" lon="0">
        <time>2020-12-20T08:13:24.288000+00:00</time>
      </trkpt>
      <trkpt lat="0" lon="0">
        <time>2020-12-20T08:13:24.292000+00:00</time>
      </trkpt>
      <trkpt lat="0" lon="0">
        <time>2020-12-20T08:13:24.294000+00:00</time>
      </trkpt>
      <trkpt lat="47.29243" lon="-1.37475">
        <ele>59</ele>
        <time>2020-12-20T08:13:25.239000+00:00</time>
      </trkpt>
      <trkpt lat="0" lon="0">
        <time>2020-12-20T08:13:25.244000+00:00</time>
      </trkpt>
      <trkpt lat="0" lon="0">
        <time>2020-12-20T08:13:25.247000+00:00</time>
      </trkpt>
      <trkpt lat="0" lon="0">
        <time>2020-12-20T08:13:25.249000+00:00</time>
      </trkpt>
      <trkpt lat="47.29246" lon="-1.37468">
        <ele>59</ele>
        <time>2020-12-20T08:13:26.223000+00:00</time>
      </trkpt>
      <trkpt lat="0" lon="0">
        <time>2020-12-20T08:13:26.235000+00:00</time>
      </trkpt>
      <trkpt lat="0" lon="0">
        <time>2020-12-20T08:13:26.247000+00:00</time>
      </trkpt>
      <trkpt lat="0" lon="0">
        <time>2020-12-20T08:13:26.249000+00:00</time>
      </trkpt>
      <trkpt lat="47.29249" lon="-1.37461">
        <ele>59</ele>
        <time>2020-12-20T08:13:27.267000+00:00</time>
      </trkpt>
      <trkpt lat="0" lon="0">
        <time>2020-12-20T08:13:27.286000+00:00</time>
      </trkpt>
      <trkpt lat="0" lon="0">
        <time>2020-12-20T08:13:27.292000+00:00</time>
      </trkpt>
      <trkpt lat="0" lon="0">
        <time>2020-12-20T08:13:27.294000+00:00</time>
      </trkpt>
      <trkpt lat="47.29252" lon="-1.37454">
        <ele>60</ele>
        <time>2020-12-20T08:13:28.259000+00:00</time>
      </trkpt>
      <trkpt lat="0" lon="0">
        <time>2020-12-20T08:13:28.271000+00:00</time>
      </trkpt>
      <trkpt lat="0" lon="0">
        <time>2020-12-20T08:13:28.275000+00:00</time>
      </trkpt>
      <trkpt lat="0" lon="0">
        <time>2020-12-20T08:13:28.280000+00:00</time>
      </trkpt>
      <trkpt lat="47.29255" lon="-1.37447">
        <ele>61</ele>
        <time>2020-12-20T08:13:29.260000+00:00</time>
      </trkpt>
      <trkpt lat="0" lon="0">
        <time>2020-12-20T08:13:29.269000+00:00</time>
      </trkpt>
      <trkpt lat="0" lon="0">
        <time>2020-12-20T08:13:29.278000+00:00</time>
      </trkpt>
      <trkpt lat="0" lon="0">
        <time>2020-12-20T08:13:29.289000+00:00</time>
      </trkpt>
      <trkpt lat="47.29258" lon="-1.3744">
        <ele>61</ele>
        <time>2020-12-20T08:13:30.282000+00:00</time>
      </trkpt>
      <trkpt lat="0" lon="0">
        <time>2020-12-20T08:13:30.302000+00:00</time>
      </trkpt>
      <trkpt lat="0" lon="0">
        <time>2020-12-20T08:13:30.310000+00:00</time>
      </trkpt>
      <trkpt lat="0" lon="0">
        <time>2020-12-20T08:13:30.314000+00:00</time>
      </trkpt>
      <trkpt lat="47.29261" lon="-1.37433">
        <ele>62</ele>
        <time>2020-12-20T08:13:31.254000+00:00</time>
      </trkpt>
      <trkpt lat="0" lon="0">
        <time>2020-12-20T08:13:31.267000+00:00</time>
      </trkpt>
      <trkpt lat="0" lon="0">
        <time>2020-12-20T08:13:31.270000+00:00</time>
      </trkpt>
      <trkpt lat="0" lon="0">
        <time>2020-12-20T08:13:31.271000+00:00</time>
      </trkpt>
      <trkpt lat="47.29264" lon="-1.37426">
        <ele>62</ele>
        <time>2020-12-20T08:13:32.275000+00:00</time>
      </trkpt>
      <trkpt lat="0" lon="0">
        <time>2020-12-20T08:13:32.290000+00:00</time>
      </trkpt>
      <trkpt lat="0" lon="0">
        <time>2020-12-20T08:13:32.301000+00:00</time>
      </trkpt>
      <trkpt lat="0" lon="0">
        <time>2020-12-20T08:13:32.307000+00:00</time>
      </trkpt>
      <trkpt lat="47.29267" lon="-1.3742">
        <ele>62</ele>
        <time>2020-12-20T08:13:33.266000+00:00</time>
      </trkpt>
      <trkpt lat="0" lon="0">
        <time>2020-12-20T08:13:33.276000+00:00</time>
      </trkpt>
      <trkpt lat="0" lon="0">
        <time>2020-12-20T08:13:33.289000+00:00</time>
      </trkpt>
      <trkpt lat="0" lon="0">
        <time>2020-12-20T08:13:33.292000+00:00</time>
      </trkpt>
      <trkpt lat="47.2927" lon="-1.37413">
        <ele>62</ele>
        <time>2020-12-20T08:13:34.255000+00:00</time>
      </trkpt>
      <trkpt lat="0" lon="0">
        <time>2020-12-20T08:13:34.259000+00:00</time>
      </trkpt>
      <trkpt lat="0" lon="0">
        <time>2020-12-20T08:13:34.273000+00:00</time>
      </trkpt>
      <trkpt lat="0" lon="0">
        <time>2020-12-20T08:13:34.275000+00:00</time>
      </trkpt>
      <trkpt lat="47.29274" lon="-1.37406">
        <ele>62</ele>
        <time>2020-12-20T08:13:35.289000+00:00</time>
      </trkpt>
      <trkpt lat="0" lon="0">
        <time>2020-12-20T08:13:35.298000+00:00</time>
      </trkpt>
      <trkpt lat="0" lon="0">
        <time>2020-12-20T08:13:35.302000+00:00</time>
      </trkpt>
      <trkpt lat="0" lon="0">
        <time>2020-12-20T08:13:35.304000+00:00</time>
      </trkpt>
      <trkpt lat="47.29277" lon="-1.37399">
        <ele>63</ele>
        <time>2020-12-20T08:13:36.240000+00:00</time>
      </trkpt>
      <trkpt lat="0" lon="0">
        <time>2020-12-20T08:13:36.260000+00:00</time>
      </trkpt>
      <trkpt lat="0" lon="0">
        <time>2020-12-20T08:13:36.265000+00:00</time>
      </trkpt>
      <trkpt lat="0" lon="0">
        <time>2020-12-20T08:13:36.267000+00:00</time>
      </trkpt>
      <trkpt lat="47.2928" lon="-1.37392">
        <ele>63</ele>
        <time>2020-12-20T08:13:37.226000+00:00</time>
      </trkpt>
      <trkpt lat="0" lon="0">
        <time>2020-12-20T08:13:37.248000+00:00</time>
      </trkpt>
      <trkpt lat="0" lon="0">
        <time>2020-12-20T08:13:37.257000+00:00</time>
      </trkpt>
      <trkpt lat="0" lon="0">
        <time>2020-12-20T08:13:37.263000+00:00</time>
      </trkpt>
      <trkpt lat="47.29283" lon="-1.37385">
        <ele>63</ele>
        <time>2020-12-20T08:13:38.240000+00:00</time>
      </trkpt>
      <trkpt lat="0" lon="0">
        <time>2020-12-20T08:13:38.244000+00:00</time>
      </trkpt>
      <trkpt lat="0" lon="0">
        <time>2020-12-20T08:13:38.248000+00:00</time>
      </trkpt>
      <trkpt lat="0" lon="0">
        <time>2020-12-20T08:13:38.250000+00:00</time>
      </trkpt>
      <trkpt lat="47.29287" lon="-1.37379">
        <ele>63</ele>
        <time>2020-12-20T08:13:39.240000+00:00</time>
      </trkpt>
      <trkpt lat="0" lon="0">
        <time>2020-12-20T08:13:39.246000+00:00</time>
      </trkpt>
      <trkpt lat="0" lon="0">
        <time>2020-12-20T08:13:39.262000+00:00</time>
      </trkpt>
      <trkpt lat="0" lon="0">
        <time>2020-12-20T08:13:39.264000+00:00</time>
      </trkpt>
      <trkpt lat="47.2929" lon="-1.37372">
        <ele>63</ele>
        <time>2020-12-20T08:13:40.248000+00:00</time>
      </trkpt>
      <trkpt lat="0" lon="0">
        <time>2020-12-20T08:13:40.274000+00:00</time>
      </trkpt>
      <trkpt lat="0" lon="0">
        <time>2020-12-20T08:13:40.278000+00:00</time>
      </trkpt>
      <trkpt lat="0" lon="0">
        <time>2020-12-20T08:13:40.279000+00:00</time>
      </trkpt>
      <trkpt lat="47.29293" lon="-1.37365">
        <ele>64</ele>
        <time>2020-12-20T08:13:41.276000+00:00</time>
      </trkpt>
      <trkpt lat="0" lon="0">
        <time>2020-12-20T08:13:41.284000+00:00</time>
      </trkpt>
      <trkpt lat="0" lon="0">
        <time>2020-12-20T08:13:41.297000+00:00</time>
      </trkpt>
      <trkpt lat="0" lon="0">
        <time>2020-12-20T08:13:41.302000+00:00</time>
      </trkpt>
      <trkpt lat="47.29296" lon="-1.37358">
        <ele>64</ele>
        <time>2020-12-20T08:13:42.254000+00:00</time>
      </trkpt>
      <trkpt lat="0" lon="0">
        <time>2020-12-20T08:13:42.262000+00:00</time>
      </trkpt>
      <trkpt lat="0" lon="0">
        <time>2020-12-20T08:13:42.267000+00:00</time>
      </trkpt>
      <trkpt lat="0" lon="0">
        <time>2020-12-20T08:13:42.268000+00:00</time>
      </trkpt>
      <trkpt lat="47.29298" lon="-1.37351">
        <ele>64</ele>
        <time>2020-12-20T08:13:43.253000+00:00</time>
      </trkpt>
      <trkpt lat="0" lon="0">
        <time>2020-12-20T08:13:43.260000+00:00</time>
      </trkpt>
      <trkpt lat="0" lon="0">
        <time>2020-12-20T08:13:43.266000+00:00</time>
      </trkpt>
      <trkpt lat="0" lon="0">
        <time>2020-12-20T08:13:43.269000+00:00</time>
      </trkpt>
      <trkpt lat="47.29301" lon="-1.37344">
        <ele>64</ele>
        <time>2020-12-20T08:13:44.273000+00:00</time>
      </trkpt>
      <trkpt lat="0" lon="0">
        <time>2020-12-20T08:13:44.286000+00:00</time>
      </trkpt>
      <trkpt lat="0" lon="0">
        <time>2020-12-20T08:13:44.294000+00:00</time>
      </trkpt>
      <trkpt lat="0" lon="0">
        <time>2020-12-20T08:13:44.298000+00:00</time>
      </trkpt>
      <trkpt lat="47.29304" lon="-1.37337">
        <ele>64</ele>
        <time>2020-12-20T08:13:45.263000+00:00</time>
      </trkpt>
      <trkpt lat="0" lon="0">
        <time>2020-12-20T08:13:45.276000+00:00</time>
      </trkpt>
      <trkpt lat="0" lon="0">
        <time>2020-12-20T08:13:45.283000+00:00</time>
      </trkpt>
      <trkpt lat="0" lon="0">
        <time>2020-12-20T08:13:45.291000+00:00</time>
      </trkpt>
      <trkpt lat="47.29306" lon="-1.3733">
        <ele>65</ele>
        <time>2020-12-20T08:13:46.267000+00:00</time>
      </trkpt>
      <trkpt lat="0" lon="0">
        <time>2020-12-20T08:13:46.275000+00:00</time>
      </trkpt>
      <trkpt lat="0" lon="0">
        <time>2020-12-20T08:13:46.292000+00:00</time>
      </trkpt>
      <trkpt lat="0" lon="0">
        <time>2020-12-20T08:13:46.295000+00:00</time>
      </trkpt>
      <trkpt lat="47.29309" lon="-1.37323">
        <ele>65</ele>
        <time>2020-12-20T08:13:47.249000+00:00</time>
      </trkpt>
      <trkpt lat="0" lon="0">
        <time>2020-12-20T08:13:47.253000+00:00</time>
      </trkpt>
      <trkpt lat="0" lon="0">
        <time>2020-12-20T08:13:47.262000+00:00</time>
      </trkpt>
      <trkpt lat="0" lon="0">
        <time>2020-12-20T08:13:47.265000+00:00</time>
      </trkpt>
      <trkpt lat="47.29312" lon="-1.37316">
        <ele>65</ele>
        <time>2020-12-20T08:13:48.261000+00:00</time>
      </trkpt>
      <trkpt lat="0" lon="0">
        <time>2020-12-20T08:13:48.266000+00:00</time>
      </trkpt>
      <trkpt lat="0" lon="0">
        <time>2020-12-20T08:13:48.270000+00:00</time>
      </trkpt>
      <trkpt lat="0" lon="0">
        <time>2020-12-20T08:13:48.272000+00:00</time>
      </trkpt>
      <trkpt lat="47.29314" lon="-1.37309">
        <ele>65</ele>
        <time>2020-12-20T08:13:49.253000+00:00</time>
      </trkpt>
      <trkpt lat="0" lon="0">
        <time>2020-12-20T08:13:49.260000+00:00</time>
      </trkpt>
      <trkpt lat="0" lon="0">
        <time>2020-12-20T08:13:49.264000+00:00</time>
      </trkpt>
      <trkpt lat="0" lon="0">
        <time>2020-12-20T08:13:49.269000+00:00</time>
      </trkpt>
      <trkpt lat="47.29317" lon="-1.37302">
        <ele>65</ele>
        <time>2020-12-20T08:13:50.262000+00:00</time>
      </trkpt>
      <trkpt lat="0" lon="0">
        <time>2020-12-20T08:13:50.274000+00:00</time>
      </trkpt>
      <trkpt lat="0" lon="0">
        <time>2020-12-20T08:13:50.278000+00:00</time>
      </trkpt>
      <trkpt lat="0" lon="0">
        <time>2020-12-20T08:13:50.280000+00:00</time>
      </trkpt>
      <trkpt lat="47.2932" lon="-1.37296">
        <ele>65</ele>
        <time>2020-12-20T08:13:51.270000+00:00</time>
      </trkpt>
      <trkpt lat="0" lon="0">
        <time>2020-12-20T08:13:51.286000+00:00</time>
      </trkpt>
      <trkpt lat="0" lon="0">
        <time>2020-12-20T08:13:51.288000+00:00</time>
      </trkpt>
      <trkpt lat="0" lon="0">
        <time>2020-12-20T08:13:51.289000+00:00</time>
      </trkpt>
      <trkpt lat="47.29322" lon="-1.37289">
        <ele>65</ele>
        <time>2020-12-20T08:13:52.252000+00:00</time>
      </trkpt>
      <trkpt lat="0" lon="0">
        <time>2020-12-20T08:13:52.260000+00:00</time>
      </trkpt>
      <trkpt lat="0" lon="0">
        <time>2020-12-20T08:13:52.270000+00:00</time>
      </trkpt>
      <trkpt lat="0" lon="0">
        <time>2020-12-20T08:13:52.273000+00:00</time>
      </trkpt>
      <trkpt lat="47.29325" lon="-1.37283">
        <ele>64</ele>
        <time>2020-12-20T08:13:53.269000+00:00</time>
      </trkpt>
      <trkpt lat="0" lon="0">
        <time>2020-12-20T08:13:53.276000+00:00</time>
      </trkpt>
      <trkpt lat="0" lon="0">
        <time>2020-12-20T08:13:53.283000+00:00</time>
      </trkpt>
      <trkpt lat="0" lon="0">
        <time>2020-12-20T08:13:53.290000+00:00</time>
      </trkpt>
      <trkpt lat="47.29328" lon="-1.37276">
        <ele>64</ele>
        <time>2020-12-20T08:13:54.205000+00:00</time>
      </trkpt>
      <trkpt lat="0" lon="0">
        <time>2020-12-20T08:13:54.214000+00:00</time>
      </trkpt>
      <trkpt lat="0" lon="0">
        <time>2020-12-20T08:13:54.221000+00:00</time>
      </trkpt>
      <trkpt lat="0" lon="0">
        <time>2020-12-20T08:13:54.226000+00:00</time>
      </trkpt>
      <trkpt lat="47.29331" lon="-1.3727">
        <ele>64</ele>
        <time>2020-12-20T08:13:55.240000+00:00</time>
      </trkpt>
      <trkpt lat="0" lon="0">
        <time>2020-12-20T08:13:55.250000+00:00</time>
      </trkpt>
      <trkpt lat="0" lon="0">
        <time>2020-12-20T08:13:55.255000+00:00</time>
      </trkpt>
      <trkpt lat="0" lon="0">
        <time>2020-12-20T08:13:55.259000+00:00</time>
      </trkpt>
      <trkpt lat="47.29333" lon="-1.37263">
        <ele>64</ele>
        <time>2020-12-20T08:13:56.246000+00:00</time>
      </trkpt>
      <trkpt lat="0" lon="0">
        <time>2020-12-20T08:13:56.252000+00:00</time>
      </trkpt>
      <trkpt lat="0" lon="0">
        <time>2020-12-20T08:13:56.257000+00:00</time>
      </trkpt>
      <trkpt lat="0" lon="0">
        <time>2020-12-20T08:13:56.259000+00:00</time>
      </trkpt>
      <trkpt lat="47.29336" lon="-1.37256">
        <ele>64</ele>
        <time>2020-12-20T08:13:57.272000+00:00</time>
      </trkpt>
      <trkpt lat="0" lon="0">
        <time>2020-12-20T08:13:57.278000+00:00</time>
      </trkpt>
      <trkpt lat="0" lon="0">
        <time>2020-12-20T08:13:57.285000+00:00</time>
      </trkpt>
      <trkpt lat="0" lon="0">
        <time>2020-12-20T08:13:57.288000+00:00</time>
      </trkpt>
      <trkpt lat="47.29338" lon="-1.37248">
        <ele>64</ele>
        <time>2020-12-20T08:13:58.247000+00:00</time>
      </trkpt>
      <trkpt lat="0" lon="0">
        <time>2020-12-20T08:13:58.266000+00:00</time>
      </trkpt>
      <trkpt lat="0" lon="0">
        <time>2020-12-20T08:13:58.274000+00:00</time>
      </trkpt>
      <trkpt lat="0" lon="0">
        <time>2020-12-20T08:13:58.277000+00:00</time>
      </trkpt>
      <trkpt lat="47.2934" lon="-1.37241">
        <ele>64</ele>
        <time>2020-12-20T08:13:59.198000+00:00</time>
      </trkpt>
      <trkpt lat="0" lon="0">
        <time>2020-12-20T08:13:59.200000+00:00</time>
      </trkpt>
      <trkpt lat="0" lon="0">
        <time>2020-12-20T08:13:59.202000+00:00</time>
      </trkpt>
      <trkpt lat="0" lon="0">
        <time>2020-12-20T08:13:59.203000+00:00</time>
      </trkpt>
      <trkpt lat="47.29342" lon="-1.37233">
        <ele>64</ele>
        <time>2020-12-20T08:14:00.257000+00:00</time>
      </trkpt>
      <trkpt lat="0" lon="0">
        <time>2020-12-20T08:14:00.269000+00:00</time>
      </trkpt>
      <trkpt lat="0" lon="0">
        <time>2020-12-20T08:14:00.273000+00:00</time>
      </trkpt>
      <trkpt lat="0" lon="0">
        <time>2020-12-20T08:14:00.275000+00:00</time>
      </trkpt>
      <trkpt lat="47.29344" lon="-1.37226">
        <ele>63</ele>
        <time>2020-12-20T08:14:01.267000+00:00</time>
      </trkpt>
      <trkpt lat="0" lon="0">
        <time>2020-12-20T08:14:01.287000+00:00</time>
      </trkpt>
      <trkpt lat="0" lon="0">
        <time>2020-12-20T08:14:01.299000+00:00</time>
      </trkpt>
      <trkpt lat="0" lon="0">
        <time>2020-12-20T08:14:01.306000+00:00</time>
      </trkpt>
      <trkpt lat="47.29346" lon="-1.37219">
        <ele>64</ele>
        <time>2020-12-20T08:14:02.260000+00:00</time>
      </trkpt>
      <trkpt lat="0" lon="0">
        <time>2020-12-20T08:14:02.271000+00:00</time>
      </trkpt>
      <trkpt lat="0" lon="0">
        <time>2020-12-20T08:14:02.280000+00:00</time>
      </trkpt>
      <trkpt lat="0" lon="0">
        <time>2020-12-20T08:14:02.283000+00:00</time>
      </trkpt>
      <trkpt lat="47.29349" lon="-1.37212">
        <ele>63</ele>
        <time>2020-12-20T08:14:03.273000+00:00</time>
      </trkpt>
      <trkpt lat="0" lon="0">
        <time>2020-12-20T08:14:03.281000+00:00</time>
      </trkpt>
      <trkpt lat="0" lon="0">
        <time>2020-12-20T08:14:03.285000+00:00</time>
      </trkpt>
      <trkpt lat="0" lon="0">
        <time>2020-12-20T08:14:03.288000+00:00</time>
      </trkpt>
      <trkpt lat="47.29352" lon="-1.37205">
        <ele>63</ele>
        <time>2020-12-20T08:14:04.250000+00:00</time>
      </trkpt>
      <trkpt lat="0" lon="0">
        <time>2020-12-20T08:14:04.259000+00:00</time>
      </trkpt>
      <trkpt lat="0" lon="0">
        <time>2020-12-20T08:14:04.264000+00:00</time>
      </trkpt>
      <trkpt lat="0" lon="0">
        <time>2020-12-20T08:14:04.266000+00:00</time>
      </trkpt>
      <trkpt lat="47.29356" lon="-1.37198">
        <ele>63</ele>
        <time>2020-12-20T08:14:05.239000+00:00</time>
      </trkpt>
      <trkpt lat="0" lon="0">
        <time>2020-12-20T08:14:05.252000+00:00</time>
      </trkpt>
      <trkpt lat="0" lon="0">
        <time>2020-12-20T08:14:05.271000+00:00</time>
      </trkpt>
      <trkpt lat="0" lon="0">
        <time>2020-12-20T08:14:05.277000+00:00</time>
      </trkpt>
      <trkpt lat="47.29359" lon="-1.37192">
        <ele>63</ele>
        <time>2020-12-20T08:14:06.168000+00:00</time>
      </trkpt>
      <trkpt lat="0" lon="0">
        <time>2020-12-20T08:14:06.170000+00:00</time>
      </trkpt>
      <trkpt lat="0" lon="0">
        <time>2020-12-20T08:14:06.171000+00:00</time>
      </trkpt>
      <trkpt lat="0" lon="0">
        <time>2020-12-20T08:14:06.172000+00:00</time>
      </trkpt>
      <trkpt lat="47.29362" lon="-1.37185">
        <ele>63</ele>
        <time>2020-12-20T08:14:07.174000+00:00</time>
      </trkpt>
      <trkpt lat="0" lon="0">
        <time>2020-12-20T08:14:07.175000+00:00</time>
      </trkpt>
      <trkpt lat="0" lon="0">
        <time>2020-12-20T08:14:07.177000+00:00</time>
      </trkpt>
      <trkpt lat="0" lon="0">
        <time>2020-12-20T08:14:07.178000+00:00</time>
      </trkpt>
      <trkpt lat="47.29366" lon="-1.37179">
        <ele>62</ele>
        <time>2020-12-20T08:14:08.245000+00:00</time>
      </trkpt>
      <trkpt lat="0" lon="0">
        <time>2020-12-20T08:14:08.250000+00:00</time>
      </trkpt>
      <trkpt lat="0" lon="0">
        <time>2020-12-20T08:14:08.255000+00:00</time>
      </trkpt>
      <trkpt lat="0" lon="0">
        <time>2020-12-20T08:14:08.258000+00:00</time>
      </trkpt>
      <trkpt lat="47.2937" lon="-1.37172">
        <ele>62</ele>
        <time>2020-12-20T08:14:09.259000+00:00</time>
      </trkpt>
      <trkpt lat="0" lon="0">
        <time>2020-12-20T08:14:09.279000+00:00</time>
      </trkpt>
      <trkpt lat="0" lon="0">
        <time>2020-12-20T08:14:09.283000+00:00</time>
      </trkpt>
      <trkpt lat="0" lon="0">
        <time>2020-12-20T08:14:09.285000+00:00</time>
      </trkpt>
      <trkpt lat="47.29373" lon="-1.37166">
        <ele>63</ele>
        <time>2020-12-20T08:14:10.241000+00:00</time>
      </trkpt>
      <trkpt lat="0" lon="0">
        <time>2020-12-20T08:14:10.254000+00:00</time>
      </trkpt>
      <trkpt lat="0" lon="0">
        <time>2020-12-20T08:14:10.256000+00:00</time>
      </trkpt>
      <trkpt lat="0" lon="0">
        <time>2020-12-20T08:14:10.258000+00:00</time>
      </trkpt>
      <trkpt lat="47.29377" lon="-1.3716">
        <ele>63</ele>
        <time>2020-12-20T08:14:11.252000+00:00</time>
      </trkpt>
      <trkpt lat="0" lon="0">
        <time>2020-12-20T08:14:11.259000+00:00</time>
      </trkpt>
      <trkpt lat="0" lon="0">
        <time>2020-12-20T08:14:11.271000+00:00</time>
      </trkpt>
      <trkpt lat="0" lon="0">
        <time>2020-12-20T08:14:11.275000+00:00</time>
      </trkpt>
      <trkpt lat="47.29381" lon="-1.37154">
        <ele>63</ele>
        <time>2020-12-20T08:14:12.198000+00:00</time>
      </trkpt>
      <trkpt lat="0" lon="0">
        <time>2020-12-20T08:14:12.210000+00:00</time>
      </trkpt>
      <trkpt lat="0" lon="0">
        <time>2020-12-20T08:14:12.217000+00:00</time>
      </trkpt>
      <trkpt lat="0" lon="0">
        <time>2020-12-20T08:14:12.219000+00:00</time>
      </trkpt>
      <trkpt lat="47.29385" lon="-1.37148">
        <ele>64</ele>
        <time>2020-12-20T08:14:13.257000+00:00</time>
      </trkpt>
      <trkpt lat="0" lon="0">
        <time>2020-12-20T08:14:13.266000+00:00</time>
      </trkpt>
      <trkpt lat="0" lon="0">
        <time>2020-12-20T08:14:13.270000+00:00</time>
      </trkpt>
      <trkpt lat="0" lon="0">
        <time>2020-12-20T08:14:13.272000+00:00</time>
      </trkpt>
      <trkpt lat="47.29389" lon="-1.37143">
        <ele>64</ele>
        <time>2020-12-20T08:14:14.254000+00:00</time>
      </trkpt>
      <trkpt lat="0" lon="0">
        <time>2020-12-20T08:14:14.262000+00:00</time>
      </trkpt>
      <trkpt lat="0" lon="0">
        <time>2020-12-20T08:14:14.270000+00:00</time>
      </trkpt>
      <trkpt lat="0" lon="0">
        <time>2020-12-20T08:14:14.273000+00:00</time>
      </trkpt>
      <trkpt lat="47.29393" lon="-1.37137">
        <ele>64</ele>
        <time>2020-12-20T08:14:15.250000+00:00</time>
      </trkpt>
      <trkpt lat="0" lon="0">
        <time>2020-12-20T08:14:15.261000+00:00</time>
      </trkpt>
      <trkpt lat="0" lon="0">
        <time>2020-12-20T08:14:15.266000+00:00</time>
      </trkpt>
      <trkpt lat="0" lon="0">
        <time>2020-12-20T08:14:15.268000+00:00</time>
      </trkpt>
      <trkpt lat="47.29397" lon="-1.37132">
        <ele>65</ele>
        <time>2020-12-20T08:14:16.255000+00:00</time>
      </trkpt>
      <trkpt lat="0" lon="0">
        <time>2020-12-20T08:14:16.266000+00:00</time>
      </trkpt>
      <trkpt lat="0" lon="0">
        <time>2020-12-20T08:14:16.268000+00:00</time>
      </trkpt>
      <trkpt lat="47.294" lon="-1.37126">
        <ele>65</ele>
        <time>2020-12-20T08:14:17.230000+00:00</time>
      </trkpt>
      <trkpt lat="0" lon="0">
        <time>2020-12-20T08:14:17.242000+00:00</time>
      </trkpt>
      <trkpt lat="0" lon="0">
        <time>2020-12-20T08:14:17.247000+00:00</time>
      </trkpt>
      <trkpt lat="0" lon="0">
        <time>2020-12-20T08:14:17.250000+00:00</time>
      </trkpt>
      <trkpt lat="47.29404" lon="-1.37121">
        <ele>65</ele>
        <time>2020-12-20T08:14:18.255000+00:00</time>
      </trkpt>
      <trkpt lat="0" lon="0">
        <time>2020-12-20T08:14:18.262000+00:00</time>
      </trkpt>
      <trkpt lat="0" lon="0">
        <time>2020-12-20T08:14:18.272000+00:00</time>
      </trkpt>
      <trkpt lat="0" lon="0">
        <time>2020-12-20T08:14:18.274000+00:00</time>
      </trkpt>
      <trkpt lat="47.29407" lon="-1.37115">
        <ele>65</ele>
        <time>2020-12-20T08:14:19.246000+00:00</time>
      </trkpt>
      <trkpt lat="0" lon="0">
        <time>2020-12-20T08:14:19.254000+00:00</time>
      </trkpt>
      <trkpt lat="0" lon="0">
        <time>2020-12-20T08:14:19.268000+00:00</time>
      </trkpt>
      <trkpt lat="0" lon="0">
        <time>2020-12-20T08:14:19.275000+00:00</time>
      </trkpt>
      <trkpt lat="47.2941" lon="-1.37109">
        <ele>65</ele>
        <time>2020-12-20T08:14:20.265000+00:00</time>
      </trkpt>
      <trkpt lat="0" lon="0">
        <time>2020-12-20T08:14:20.279000+00:00</time>
      </trkpt>
      <trkpt lat="0" lon="0">
        <time>2020-12-20T08:14:20.289000+00:00</time>
      </trkpt>
      <trkpt lat="0" lon="0">
        <time>2020-12-20T08:14:20.297000+00:00</time>
      </trkpt>
      <trkpt lat="47.29414" lon="-1.37102">
        <ele>65</ele>
        <time>2020-12-20T08:14:21.266000+00:00</time>
      </trkpt>
      <trkpt lat="0" lon="0">
        <time>2020-12-20T08:14:21.273000+00:00</time>
      </trkpt>
      <trkpt lat="0" lon="0">
        <time>2020-12-20T08:14:21.285000+00:00</time>
      </trkpt>
      <trkpt lat="0" lon="0">
        <time>2020-12-20T08:14:21.288000+00:00</time>
      </trkpt>
      <trkpt lat="47.29417" lon="-1.37096">
        <ele>65</ele>
        <time>2020-12-20T08:14:22.231000+00:00</time>
      </trkpt>
      <trkpt lat="0" lon="0">
        <time>2020-12-20T08:14:22.233000+00:00</time>
      </trkpt>
      <trkpt lat="0" lon="0">
        <time>2020-12-20T08:14:22.238000+00:00</time>
      </trkpt>
      <trkpt lat="0" lon="0">
        <time>2020-12-20T08:14:22.240000+00:00</time>
      </trkpt>
      <trkpt lat="47.2942" lon="-1.3709">
        <ele>65</ele>
        <time>2020-12-20T08:14:23.234000+00:00</time>
      </trkpt>
      <trkpt lat="0" lon="0">
        <time>2020-12-20T08:14:23.239000+00:00</time>
      </trkpt>
      <trkpt lat="0" lon="0">
        <time>2020-12-20T08:14:23.245000+00:00</time>
      </trkpt>
      <trkpt lat="0" lon="0">
        <time>2020-12-20T08:14:23.250000+00:00</time>
      </trkpt>
      <trkpt lat="47.29423" lon="-1.37084">
        <ele>65</ele>
        <time>2020-12-20T08:14:24.243000+00:00</time>
      </trkpt>
      <trkpt lat="0" lon="0">
        <time>2020-12-20T08:14:24.252000+00:00</time>
      </trkpt>
      <trkpt lat="0" lon="0">
        <time>2020-12-20T08:14:24.256000+00:00</time>
      </trkpt>
      <trkpt lat="0" lon="0">
        <time>2020-12-20T08:14:24.260000+00:00</time>
      </trkpt>
      <trkpt lat="47.29427" lon="-1.37077">
        <ele>65</ele>
        <time>2020-12-20T08:14:25.219000+00:00</time>
      </trkpt>
      <trkpt lat="0" lon="0">
        <time>2020-12-20T08:14:25.225000+00:00</time>
      </trkpt>
      <trkpt lat="0" lon="0">
        <time>2020-12-20T08:14:25.231000+00:00</time>
      </trkpt>
      <trkpt lat="0" lon="0">
        <time>2020-12-20T08:14:25.233000+00:00</time>
      </trkpt>
      <trkpt lat="47.2943" lon="-1.37071">
        <ele>65</ele>
        <time>2020-12-20T08:14:26.239000+00:00</time>
      </trkpt>
      <trkpt lat="0" lon="0">
        <time>2020-12-20T08:14:26.251000+00:00</time>
      </trkpt>
      <trkpt lat="0" lon="0">
        <time>2020-12-20T08:14:26.256000+00:00</time>
      </trkpt>
      <trkpt lat="0" lon="0">
        <time>2020-12-20T08:14:26.258000+00:00</time>
      </trkpt>
      <trkpt lat="47.29433" lon="-1.37064">
        <ele>65</ele>
        <time>2020-12-20T08:14:27.236000+00:00</time>
      </trkpt>
      <trkpt lat="0" lon="0">
        <time>2020-12-20T08:14:27.246000+00:00</time>
      </trkpt>
      <trkpt lat="0" lon="0">
        <time>2020-12-20T08:14:27.255000+00:00</time>
      </trkpt>
      <trkpt lat="0" lon="0">
        <time>2020-12-20T08:14:27.258000+00:00</time>
      </trkpt>
      <trkpt lat="47.29436" lon="-1.37058">
        <ele>64</ele>
        <time>2020-12-20T08:14:28.237000+00:00</time>
      </trkpt>
      <trkpt lat="0" lon="0">
        <time>2020-12-20T08:14:28.240000+00:00</time>
      </trkpt>
      <trkpt lat="0" lon="0">
        <time>2020-12-20T08:14:28.241000+00:00</time>
      </trkpt>
      <trkpt lat="0" lon="0">
        <time>2020-12-20T08:14:28.242000+00:00</time>
      </trkpt>
      <trkpt lat="47.29439" lon="-1.37051">
        <ele>64</ele>
        <time>2020-12-20T08:14:29.253000+00:00</time>
      </trkpt>
      <trkpt lat="0" lon="0">
        <time>2020-12-20T08:14:29.260000+00:00</time>
      </trkpt>
      <trkpt lat="0" lon="0">
        <time>2020-12-20T08:14:29.270000+00:00</time>
      </trkpt>
      <trkpt lat="0" lon="0">
        <time>2020-12-20T08:14:29.272000+00:00</time>
      </trkpt>
      <trkpt lat="47.29442" lon="-1.37045">
        <ele>64</ele>
        <time>2020-12-20T08:14:30.251000+00:00</time>
      </trkpt>
      <trkpt lat="0" lon="0">
        <time>2020-12-20T08:14:30.267000+00:00</time>
      </trkpt>
      <trkpt lat="0" lon="0">
        <time>2020-12-20T08:14:30.272000+00:00</time>
      </trkpt>
      <trkpt lat="0" lon="0">
        <time>2020-12-20T08:14:30.274000+00:00</time>
      </trkpt>
      <trkpt lat="47.29445" lon="-1.37038">
        <ele>64</ele>
        <time>2020-12-20T08:14:31.250000+00:00</time>
      </trkpt>
      <trkpt lat="0" lon="0">
        <time>2020-12-20T08:14:31.255000+00:00</time>
      </trkpt>
      <trkpt lat="0" lon="0">
        <time>2020-12-20T08:14:31.267000+00:00</time>
      </trkpt>
      <trkpt lat="0" lon="0">
        <time>2020-12-20T08:14:31.273000+00:00</time>
      </trkpt>
      <trkpt lat="47.29449" lon="-1.37031">
        <ele>63</ele>
        <time>2020-12-20T08:14:32.215000+00:00</time>
      </trkpt>
      <trkpt lat="0" lon="0">
        <time>2020-12-20T08:14:32.228000+00:00</time>
      </trkpt>
      <trkpt lat="0" lon="0">
        <time>2020-12-20T08:14:32.233000+00:00</time>
      </trkpt>
      <trkpt lat="0" lon="0">
        <time>2020-12-20T08:14:32.236000+00:00</time>
      </trkpt>
      <trkpt lat="47.29452" lon="-1.37024">
        <ele>63</ele>
        <time>2020-12-20T08:14:33.265000+00:00</time>
      </trkpt>
      <trkpt lat="0" lon="0">
        <time>2020-12-20T08:14:33.281000+00:00</time>
      </trkpt>
      <trkpt lat="0" lon="0">
        <time>2020-12-20T08:14:33.285000+00:00</time>
      </trkpt>
      <trkpt lat="0" lon="0">
        <time>2020-12-20T08:14:33.287000+00:00</time>
      </trkpt>
      <trkpt lat="47.29454" lon="-1.37017">
        <ele>63</ele>
        <time>2020-12-20T08:14:34.244000+00:00</time>
      </trkpt>
      <trkpt lat="0" lon="0">
        <time>2020-12-20T08:14:34.246000+00:00</time>
      </trkpt>
      <trkpt lat="0" lon="0">
        <time>2020-12-20T08:14:34.249000+00:00</time>
      </trkpt>
      <trkpt lat="0" lon="0">
        <time>2020-12-20T08:14:34.251000+00:00</time>
      </trkpt>
      <trkpt lat="47.29457" lon="-1.37009">
        <ele>64</ele>
        <time>2020-12-20T08:14:35.242000+00:00</time>
      </trkpt>
      <trkpt lat="0" lon="0">
        <time>2020-12-20T08:14:35.255000+00:00</time>
      </trkpt>
      <trkpt lat="0" lon="0">
        <time>2020-12-20T08:14:35.259000+00:00</time>
      </trkpt>
      <trkpt lat="0" lon="0">
        <time>2020-12-20T08:14:35.262000+00:00</time>
      </trkpt>
      <trkpt lat="47.2946" lon="-1.37001">
        <ele>64</ele>
        <time>2020-12-20T08:14:36.263000+00:00</time>
      </trkpt>
      <trkpt lat="0" lon="0">
        <time>2020-12-20T08:14:36.269000+00:00</time>
      </trkpt>
      <trkpt lat="0" lon="0">
        <time>2020-12-20T08:14:36.278000+00:00</time>
      </trkpt>
      <trkpt lat="0" lon="0">
        <time>2020-12-20T08:14:36.280000+00:00</time>
      </trkpt>
      <trkpt lat="47.29462" lon="-1.36993">
        <ele>64</ele>
        <time>2020-12-20T08:14:37.229000+00:00</time>
      </trkpt>
      <trkpt lat="0" lon="0">
        <time>2020-12-20T08:14:37.241000+00:00</time>
      </trkpt>
      <trkpt lat="0" lon="0">
        <time>2020-12-20T08:14:37.243000+00:00</time>
      </trkpt>
      <trkpt lat="0" lon="0">
        <time>2020-12-20T08:14:37.244000+00:00</time>
      </trkpt>
      <trkpt lat="47.29464" lon="-1.36985">
        <ele>64</ele>
        <time>2020-12-20T08:14:38.220000+00:00</time>
      </trkpt>
      <trkpt lat="0" lon="0">
        <time>2020-12-20T08:14:38.241000+00:00</time>
      </trkpt>
      <trkpt lat="0" lon="0">
        <time>2020-12-20T08:14:38.248000+00:00</time>
      </trkpt>
      <trkpt lat="0" lon="0">
        <time>2020-12-20T08:14:38.255000+00:00</time>
      </trkpt>
      <trkpt lat="47.29466" lon="-1.36977">
        <ele>64</ele>
        <time>2020-12-20T08:14:39.262000+00:00</time>
      </trkpt>
      <trkpt lat="0" lon="0">
        <time>2020-12-20T08:14:39.285000+00:00</time>
      </trkpt>
      <trkpt lat="0" lon="0">
        <time>2020-12-20T08:14:39.292000+00:00</time>
      </trkpt>
      <trkpt lat="0" lon="0">
        <time>2020-12-20T08:14:39.295000+00:00</time>
      </trkpt>
      <trkpt lat="47.29468" lon="-1.36969">
        <ele>63</ele>
        <time>2020-12-20T08:14:40.251000+00:00</time>
      </trkpt>
      <trkpt lat="0" lon="0">
        <time>2020-12-20T08:14:40.266000+00:00</time>
      </trkpt>
      <trkpt lat="0" lon="0">
        <time>2020-12-20T08:14:40.275000+00:00</time>
      </trkpt>
      <trkpt lat="0" lon="0">
        <time>2020-12-20T08:14:40.277000+00:00</time>
      </trkpt>
      <trkpt lat="47.29471" lon="-1.36962">
        <ele>63</ele>
        <time>2020-12-20T08:14:41.236000+00:00</time>
      </trkpt>
      <trkpt lat="0" lon="0">
        <time>2020-12-20T08:14:41.241000+00:00</time>
      </trkpt>
      <trkpt lat="0" lon="0">
        <time>2020-12-20T08:14:41.246000+00:00</time>
      </trkpt>
      <trkpt lat="0" lon="0">
        <time>2020-12-20T08:14:41.248000+00:00</time>
      </trkpt>
      <trkpt lat="47.29473" lon="-1.36954">
        <ele>63</ele>
        <time>2020-12-20T08:14:42.278000+00:00</time>
      </trkpt>
      <trkpt lat="0" lon="0">
        <time>2020-12-20T08:14:42.298000+00:00</time>
      </trkpt>
      <trkpt lat="0" lon="0">
        <time>2020-12-20T08:14:42.306000+00:00</time>
      </trkpt>
      <trkpt lat="0" lon="0">
        <time>2020-12-20T08:14:42.312000+00:00</time>
      </trkpt>
      <trkpt lat="47.29475" lon="-1.36946">
        <ele>63</ele>
        <time>2020-12-20T08:14:43.267000+00:00</time>
      </trkpt>
      <trkpt lat="0" lon="0">
        <time>2020-12-20T08:14:43.282000+00:00</time>
      </trkpt>
      <trkpt lat="0" lon="0">
        <time>2020-12-20T08:14:43.290000+00:00</time>
      </trkpt>
      <trkpt lat="0" lon="0">
        <time>2020-12-20T08:14:43.293000+00:00</time>
      </trkpt>
      <trkpt lat="47.29477" lon="-1.36939">
        <ele>63</ele>
        <time>2020-12-20T08:14:44.286000+00:00</time>
      </trkpt>
      <trkpt lat="0" lon="0">
        <time>2020-12-20T08:14:44.300000+00:00</time>
      </trkpt>
      <trkpt lat="0" lon="0">
        <time>2020-12-20T08:14:44.304000+00:00</time>
      </trkpt>
      <trkpt lat="0" lon="0">
        <time>2020-12-20T08:14:44.306000+00:00</time>
      </trkpt>
      <trkpt lat="47.29479" lon="-1.36932">
        <ele>62</ele>
        <time>2020-12-20T08:14:45.298000+00:00</time>
      </trkpt>
      <trkpt lat="0" lon="0">
        <time>2020-12-20T08:14:45.326000+00:00</time>
      </trkpt>
      <trkpt lat="0" lon="0">
        <time>2020-12-20T08:14:45.331000+00:00</time>
      </trkpt>
      <trkpt lat="0" lon="0">
        <time>2020-12-20T08:14:45.332000+00:00</time>
      </trkpt>
      <trkpt lat="47.29482" lon="-1.36925">
        <ele>63</ele>
        <time>2020-12-20T08:14:46.254000+00:00</time>
      </trkpt>
      <trkpt lat="0" lon="0">
        <time>2020-12-20T08:14:46.262000+00:00</time>
      </trkpt>
      <trkpt lat="0" lon="0">
        <time>2020-12-20T08:14:46.263000+00:00</time>
      </trkpt>
      <trkpt lat="0" lon="0">
        <time>2020-12-20T08:14:46.265000+00:00</time>
      </trkpt>
      <trkpt lat="47.29484" lon="-1.36918">
        <ele>63</ele>
        <time>2020-12-20T08:14:47.262000+00:00</time>
      </trkpt>
      <trkpt lat="0" lon="0">
        <time>2020-12-20T08:14:47.271000+00:00</time>
      </trkpt>
      <trkpt lat="0" lon="0">
        <time>2020-12-20T08:14:47.275000+00:00</time>
      </trkpt>
      <trkpt lat="0" lon="0">
        <time>2020-12-20T08:14:47.277000+00:00</time>
      </trkpt>
      <trkpt lat="47.29486" lon="-1.3691">
        <ele>62</ele>
        <time>2020-12-20T08:14:48.251000+00:00</time>
      </trkpt>
      <trkpt lat="0" lon="0">
        <time>2020-12-20T08:14:48.257000+00:00</time>
      </trkpt>
      <trkpt lat="0" lon="0">
        <time>2020-12-20T08:14:48.262000+00:00</time>
      </trkpt>
      <trkpt lat="0" lon="0">
        <time>2020-12-20T08:14:48.264000+00:00</time>
      </trkpt>
      <trkpt lat="47.29489" lon="-1.36903">
        <ele>62</ele>
        <time>2020-12-20T08:14:49.264000+00:00</time>
      </trkpt>
      <trkpt lat="0" lon="0">
        <time>2020-12-20T08:14:49.280000+00:00</time>
      </trkpt>
      <trkpt lat="0" lon="0">
        <time>2020-12-20T08:14:49.285000+00:00</time>
      </trkpt>
      <trkpt lat="0" lon="0">
        <time>2020-12-20T08:14:49.288000+00:00</time>
      </trkpt>
      <trkpt lat="47.29491" lon="-1.36896">
        <ele>62</ele>
        <time>2020-12-20T08:14:50.261000+00:00</time>
      </trkpt>
      <trkpt lat="0" lon="0">
        <time>2020-12-20T08:14:50.273000+00:00</time>
      </trkpt>
      <trkpt lat="0" lon="0">
        <time>2020-12-20T08:14:50.281000+00:00</time>
      </trkpt>
      <trkpt lat="0" lon="0">
        <time>2020-12-20T08:14:50.287000+00:00</time>
      </trkpt>
      <trkpt lat="47.29494" lon="-1.36889">
        <ele>62</ele>
        <time>2020-12-20T08:14:51.258000+00:00</time>
      </trkpt>
      <trkpt lat="0" lon="0">
        <time>2020-12-20T08:14:51.268000+00:00</time>
      </trkpt>
      <trkpt lat="0" lon="0">
        <time>2020-12-20T08:14:51.276000+00:00</time>
      </trkpt>
      <trkpt lat="0" lon="0">
        <time>2020-12-20T08:14:51.279000+00:00</time>
      </trkpt>
      <trkpt lat="47.29496" lon="-1.36881">
        <ele>62</ele>
        <time>2020-12-20T08:14:52.254000+00:00</time>
      </trkpt>
      <trkpt lat="0" lon="0">
        <time>2020-12-20T08:14:52.258000+00:00</time>
      </trkpt>
      <trkpt lat="0" lon="0">
        <time>2020-12-20T08:14:52.267000+00:00</time>
      </trkpt>
      <trkpt lat="0" lon="0">
        <time>2020-12-20T08:14:52.268000+00:00</time>
      </trkpt>
      <trkpt lat="47.29498" lon="-1.36874">
        <ele>62</ele>
        <time>2020-12-20T08:14:53.266000+00:00</time>
      </trkpt>
      <trkpt lat="0" lon="0">
        <time>2020-12-20T08:14:53.288000+00:00</time>
      </trkpt>
      <trkpt lat="0" lon="0">
        <time>2020-12-20T08:14:53.293000+00:00</time>
      </trkpt>
      <trkpt lat="0" lon="0">
        <time>2020-12-20T08:14:53.298000+00:00</time>
      </trkpt>
      <trkpt lat="47.29501" lon="-1.36867">
        <ele>62</ele>
        <time>2020-12-20T08:14:54.247000+00:00</time>
      </trkpt>
      <trkpt lat="0" lon="0">
        <time>2020-12-20T08:14:54.253000+00:00</time>
      </trkpt>
      <trkpt lat="0" lon="0">
        <time>2020-12-20T08:14:54.261000+00:00</time>
      </trkpt>
      <trkpt lat="0" lon="0">
        <time>2020-12-20T08:14:54.264000+00:00</time>
      </trkpt>
      <trkpt lat="47.29503" lon="-1.3686">
        <ele>62</ele>
        <time>2020-12-20T08:14:55.256000+00:00</time>
      </trkpt>
      <trkpt lat="0" lon="0">
        <time>2020-12-20T08:14:55.267000+00:00</time>
      </trkpt>
      <trkpt lat="0" lon="0">
        <time>2020-12-20T08:14:55.271000+00:00</time>
      </trkpt>
      <trkpt lat="0" lon="0">
        <time>2020-12-20T08:14:55.274000+00:00</time>
      </trkpt>
      <trkpt lat="47.29506" lon="-1.36853">
        <ele>62</ele>
        <time>2020-12-20T08:14:56.246000+00:00</time>
      </trkpt>
      <trkpt lat="0" lon="0">
        <time>2020-12-20T08:14:56.261000+00:00</time>
      </trkpt>
      <trkpt lat="0" lon="0">
        <time>2020-12-20T08:14:56.273000+00:00</time>
      </trkpt>
      <trkpt lat="0" lon="0">
        <time>2020-12-20T08:14:56.274000+00:00</time>
      </trkpt>
      <trkpt lat="47.29508" lon="-1.36847">
        <ele>62</ele>
        <time>2020-12-20T08:14:57.240000+00:00</time>
      </trkpt>
      <trkpt lat="0" lon="0">
        <time>2020-12-20T08:14:57.246000+00:00</time>
      </trkpt>
      <trkpt lat="0" lon="0">
        <time>2020-12-20T08:14:57.255000+00:00</time>
      </trkpt>
      <trkpt lat="0" lon="0">
        <time>2020-12-20T08:14:57.257000+00:00</time>
      </trkpt>
      <trkpt lat="47.29511" lon="-1.3684">
        <ele>62</ele>
        <time>2020-12-20T08:14:58.215000+00:00</time>
      </trkpt>
      <trkpt lat="0" lon="0">
        <time>2020-12-20T08:14:58.225000+00:00</time>
      </trkpt>
      <trkpt lat="0" lon="0">
        <time>2020-12-20T08:14:58.230000+00:00</time>
      </trkpt>
      <trkpt lat="0" lon="0">
        <time>2020-12-20T08:14:58.233000+00:00</time>
      </trkpt>
      <trkpt lat="47.29513" lon="-1.36834">
        <ele>62</ele>
        <time>2020-12-20T08:14:59.276000+00:00</time>
      </trkpt>
      <trkpt lat="0" lon="0">
        <time>2020-12-20T08:14:59.286000+00:00</time>
      </trkpt>
      <trkpt lat="0" lon="0">
        <time>2020-12-20T08:14:59.294000+00:00</time>
      </trkpt>
      <trkpt lat="0" lon="0">
        <time>2020-12-20T08:14:59.296000+00:00</time>
      </trkpt>
      <trkpt lat="47.29516" lon="-1.36828">
        <ele>62</ele>
        <time>2020-12-20T08:15:00.256000+00:00</time>
      </trkpt>
      <trkpt lat="0" lon="0">
        <time>2020-12-20T08:15:00.267000+00:00</time>
      </trkpt>
      <trkpt lat="0" lon="0">
        <time>2020-12-20T08:15:00.272000+00:00</time>
      </trkpt>
      <trkpt lat="0" lon="0">
        <time>2020-12-20T08:15:00.274000+00:00</time>
      </trkpt>
      <trkpt lat="47.29519" lon="-1.36821">
        <ele>62</ele>
        <time>2020-12-20T08:15:01.230000+00:00</time>
      </trkpt>
      <trkpt lat="0" lon="0">
        <time>2020-12-20T08:15:01.243000+00:00</time>
      </trkpt>
      <trkpt lat="0" lon="0">
        <time>2020-12-20T08:15:01.250000+00:00</time>
      </trkpt>
      <trkpt lat="0" lon="0">
        <time>2020-12-20T08:15:01.252000+00:00</time>
      </trkpt>
      <trkpt lat="47.29522" lon="-1.36815">
        <ele>62</ele>
        <time>2020-12-20T08:15:02.260000+00:00</time>
      </trkpt>
      <trkpt lat="0" lon="0">
        <time>2020-12-20T08:15:02.276000+00:00</time>
      </trkpt>
      <trkpt lat="0" lon="0">
        <time>2020-12-20T08:15:02.288000+00:00</time>
      </trkpt>
      <trkpt lat="0" lon="0">
        <time>2020-12-20T08:15:02.293000+00:00</time>
      </trkpt>
      <trkpt lat="47.29524" lon="-1.36809">
        <ele>62</ele>
        <time>2020-12-20T08:15:03.268000+00:00</time>
      </trkpt>
      <trkpt lat="0" lon="0">
        <time>2020-12-20T08:15:03.278000+00:00</time>
      </trkpt>
      <trkpt lat="0" lon="0">
        <time>2020-12-20T08:15:03.280000+00:00</time>
      </trkpt>
      <trkpt lat="0" lon="0">
        <time>2020-12-20T08:15:03.282000+00:00</time>
      </trkpt>
      <trkpt lat="47.29527" lon="-1.36802">
        <ele>62</ele>
        <time>2020-12-20T08:15:04.256000+00:00</time>
      </trkpt>
      <trkpt lat="0" lon="0">
        <time>2020-12-20T08:15:04.271000+00:00</time>
      </trkpt>
      <trkpt lat="0" lon="0">
        <time>2020-12-20T08:15:04.276000+00:00</time>
      </trkpt>
      <trkpt lat="0" lon="0">
        <time>2020-12-20T08:15:04.279000+00:00</time>
      </trkpt>
      <trkpt lat="47.29529" lon="-1.36796">
        <ele>62</ele>
        <time>2020-12-20T08:15:05.272000+00:00</time>
      </trkpt>
      <trkpt lat="0" lon="0">
        <time>2020-12-20T08:15:05.276000+00:00</time>
      </trkpt>
      <trkpt lat="0" lon="0">
        <time>2020-12-20T08:15:05.296000+00:00</time>
      </trkpt>
      <trkpt lat="0" lon="0">
        <time>2020-12-20T08:15:05.300000+00:00</time>
      </trkpt>
      <trkpt lat="47.29532" lon="-1.36789">
        <ele>62</ele>
        <time>2020-12-20T08:15:06.266000+00:00</time>
      </trkpt>
      <trkpt lat="0" lon="0">
        <time>2020-12-20T08:15:06.274000+00:00</time>
      </trkpt>
      <trkpt lat="0" lon="0">
        <time>2020-12-20T08:15:06.281000+00:00</time>
      </trkpt>
      <trkpt lat="0" lon="0">
        <time>2020-12-20T08:15:06.284000+00:00</time>
      </trkpt>
      <trkpt lat="47.29535" lon="-1.36783">
        <ele>62</ele>
        <time>2020-12-20T08:15:07.256000+00:00</time>
      </trkpt>
      <trkpt lat="0" lon="0">
        <time>2020-12-20T08:15:07.261000+00:00</time>
      </trkpt>
      <trkpt lat="0" lon="0">
        <time>2020-12-20T08:15:07.267000+00:00</time>
      </trkpt>
      <trkpt lat="0" lon="0">
        <time>2020-12-20T08:15:07.270000+00:00</time>
      </trkpt>
      <trkpt lat="47.29538" lon="-1.36777">
        <ele>62</ele>
        <time>2020-12-20T08:15:08.251000+00:00</time>
      </trkpt>
      <trkpt lat="0" lon="0">
        <time>2020-12-20T08:15:08.265000+00:00</time>
      </trkpt>
      <trkpt lat="0" lon="0">
        <time>2020-12-20T08:15:08.276000+00:00</time>
      </trkpt>
      <trkpt lat="0" lon="0">
        <time>2020-12-20T08:15:08.278000+00:00</time>
      </trkpt>
      <trkpt lat="47.2954" lon="-1.3677">
        <ele>62</ele>
        <time>2020-12-20T08:15:09.269000+00:00</time>
      </trkpt>
      <trkpt lat="0" lon="0">
        <time>2020-12-20T08:15:09.276000+00:00</time>
      </trkpt>
      <trkpt lat="0" lon="0">
        <time>2020-12-20T08:15:09.280000+00:00</time>
      </trkpt>
      <trkpt lat="0" lon="0">
        <time>2020-12-20T08:15:09.282000+00:00</time>
      </trkpt>
      <trkpt lat="47.29543" lon="-1.36764">
        <ele>62</ele>
        <time>2020-12-20T08:15:10.212000+00:00</time>
      </trkpt>
      <trkpt lat="0" lon="0">
        <time>2020-12-20T08:15:10.216000+00:00</time>
      </trkpt>
      <trkpt lat="0" lon="0">
        <time>2020-12-20T08:15:10.219000+00:00</time>
      </trkpt>
      <trkpt lat="0" lon="0">
        <time>2020-12-20T08:15:10.220000+00:00</time>
      </trkpt>
      <trkpt lat="47.29546" lon="-1.36758">
        <ele>62</ele>
        <time>2020-12-20T08:15:11.242000+00:00</time>
      </trkpt>
      <trkpt lat="0" lon="0">
        <time>2020-12-20T08:15:11.246000+00:00</time>
      </trkpt>
      <trkpt lat="0" lon="0">
        <time>2020-12-20T08:15:11.253000+00:00</time>
      </trkpt>
      <trkpt lat="0" lon="0">
        <time>2020-12-20T08:15:11.255000+00:00</time>
      </trkpt>
      <trkpt lat="47.29549" lon="-1.36751">
        <ele>62</ele>
        <time>2020-12-20T08:15:12.239000+00:00</time>
      </trkpt>
      <trkpt lat="0" lon="0">
        <time>2020-12-20T08:15:12.246000+00:00</time>
      </trkpt>
      <trkpt lat="0" lon="0">
        <time>2020-12-20T08:15:12.252000+00:00</time>
      </trkpt>
      <trkpt lat="0" lon="0">
        <time>2020-12-20T08:15:12.255000+00:00</time>
      </trkpt>
      <trkpt lat="47.29552" lon="-1.36745">
        <ele>62</ele>
        <time>2020-12-20T08:15:13.283000+00:00</time>
      </trkpt>
      <trkpt lat="0" lon="0">
        <time>2020-12-20T08:15:13.298000+00:00</time>
      </trkpt>
      <trkpt lat="0" lon="0">
        <time>2020-12-20T08:15:13.306000+00:00</time>
      </trkpt>
      <trkpt lat="0" lon="0">
        <time>2020-12-20T08:15:13.313000+00:00</time>
      </trkpt>
      <trkpt lat="47.29555" lon="-1.36738">
        <ele>62</ele>
        <time>2020-12-20T08:15:14.259000+00:00</time>
      </trkpt>
      <trkpt lat="0" lon="0">
        <time>2020-12-20T08:15:14.272000+00:00</time>
      </trkpt>
      <trkpt lat="0" lon="0">
        <time>2020-12-20T08:15:14.277000+00:00</time>
      </trkpt>
      <trkpt lat="0" lon="0">
        <time>2020-12-20T08:15:14.279000+00:00</time>
      </trkpt>
      <trkpt lat="47.29558" lon="-1.36732">
        <ele>62</ele>
        <time>2020-12-20T08:15:15.261000+00:00</time>
      </trkpt>
      <trkpt lat="0" lon="0">
        <time>2020-12-20T08:15:15.267000+00:00</time>
      </trkpt>
      <trkpt lat="0" lon="0">
        <time>2020-12-20T08:15:15.268000+00:00</time>
      </trkpt>
      <trkpt lat="0" lon="0">
        <time>2020-12-20T08:15:15.271000+00:00</time>
      </trkpt>
      <trkpt lat="47.29562" lon="-1.36725">
        <ele>62</ele>
        <time>2020-12-20T08:15:16.246000+00:00</time>
      </trkpt>
      <trkpt lat="0" lon="0">
        <time>2020-12-20T08:15:16.265000+00:00</time>
      </trkpt>
      <trkpt lat="0" lon="0">
        <time>2020-12-20T08:15:16.271000+00:00</time>
      </trkpt>
      <trkpt lat="0" lon="0">
        <time>2020-12-20T08:15:16.275000+00:00</time>
      </trkpt>
      <trkpt lat="47.29565" lon="-1.36719">
        <ele>62</ele>
        <time>2020-12-20T08:15:17.254000+00:00</time>
      </trkpt>
      <trkpt lat="0" lon="0">
        <time>2020-12-20T08:15:17.270000+00:00</time>
      </trkpt>
      <trkpt lat="0" lon="0">
        <time>2020-12-20T08:15:17.274000+00:00</time>
      </trkpt>
      <trkpt lat="0" lon="0">
        <time>2020-12-20T08:15:17.276000+00:00</time>
      </trkpt>
      <trkpt lat="47.29568" lon="-1.36712">
        <ele>62</ele>
        <time>2020-12-20T08:15:18.286000+00:00</time>
      </trkpt>
      <trkpt lat="0" lon="0">
        <time>2020-12-20T08:15:18.296000+00:00</time>
      </trkpt>
      <trkpt lat="0" lon="0">
        <time>2020-12-20T08:15:18.303000+00:00</time>
      </trkpt>
      <trkpt lat="0" lon="0">
        <time>2020-12-20T08:15:18.306000+00:00</time>
      </trkpt>
      <trkpt lat="47.2957" lon="-1.36705">
        <ele>62</ele>
        <time>2020-12-20T08:15:19.244000+00:00</time>
      </trkpt>
      <trkpt lat="0" lon="0">
        <time>2020-12-20T08:15:19.257000+00:00</time>
      </trkpt>
      <trkpt lat="0" lon="0">
        <time>2020-12-20T08:15:19.260000+00:00</time>
      </trkpt>
      <trkpt lat="0" lon="0">
        <time>2020-12-20T08:15:19.262000+00:00</time>
      </trkpt>
      <trkpt lat="47.29573" lon="-1.36699">
        <ele>62</ele>
        <time>2020-12-20T08:15:20.266000+00:00</time>
      </trkpt>
      <trkpt lat="0" lon="0">
        <time>2020-12-20T08:15:20.279000+00:00</time>
      </trkpt>
      <trkpt lat="0" lon="0">
        <time>2020-12-20T08:15:20.289000+00:00</time>
      </trkpt>
      <trkpt lat="0" lon="0">
        <time>2020-12-20T08:15:20.292000+00:00</time>
      </trkpt>
      <trkpt lat="47.29575" lon="-1.36691">
        <ele>62</ele>
        <time>2020-12-20T08:15:21.239000+00:00</time>
      </trkpt>
      <trkpt lat="0" lon="0">
        <time>2020-12-20T08:15:21.250000+00:00</time>
      </trkpt>
      <trkpt lat="0" lon="0">
        <time>2020-12-20T08:15:21.254000+00:00</time>
      </trkpt>
      <trkpt lat="0" lon="0">
        <time>2020-12-20T08:15:21.256000+00:00</time>
      </trkpt>
      <trkpt lat="47.29578" lon="-1.36684">
        <ele>63</ele>
        <time>2020-12-20T08:15:22.255000+00:00</time>
      </trkpt>
      <trkpt lat="0" lon="0">
        <time>2020-12-20T08:15:22.266000+00:00</time>
      </trkpt>
      <trkpt lat="0" lon="0">
        <time>2020-12-20T08:15:22.280000+00:00</time>
      </trkpt>
      <trkpt lat="0" lon="0">
        <time>2020-12-20T08:15:22.288000+00:00</time>
      </trkpt>
      <trkpt lat="47.2958" lon="-1.36677">
        <ele>63</ele>
        <time>2020-12-20T08:15:23.254000+00:00</time>
      </trkpt>
      <trkpt lat="0" lon="0">
        <time>2020-12-20T08:15:23.268000+00:00</time>
      </trkpt>
      <trkpt lat="0" lon="0">
        <time>2020-12-20T08:15:23.276000+00:00</time>
      </trkpt>
      <trkpt lat="0" lon="0">
        <time>2020-12-20T08:15:23.278000+00:00</time>
      </trkpt>
      <trkpt lat="47.29582" lon="-1.36669">
        <ele>63</ele>
        <time>2020-12-20T08:15:24.268000+00:00</time>
      </trkpt>
      <trkpt lat="0" lon="0">
        <time>2020-12-20T08:15:24.288000+00:00</time>
      </trkpt>
      <trkpt lat="0" lon="0">
        <time>2020-12-20T08:15:24.293000+00:00</time>
      </trkpt>
      <trkpt lat="0" lon="0">
        <time>2020-12-20T08:15:24.296000+00:00</time>
      </trkpt>
      <trkpt lat="47.29584" lon="-1.36662">
        <ele>63</ele>
        <time>2020-12-20T08:15:25.225000+00:00</time>
      </trkpt>
      <trkpt lat="0" lon="0">
        <time>2020-12-20T08:15:25.233000+00:00</time>
      </trkpt>
      <trkpt lat="0" lon="0">
        <time>2020-12-20T08:15:25.243000+00:00</time>
      </trkpt>
      <trkpt lat="0" lon="0">
        <time>2020-12-20T08:15:25.247000+00:00</time>
      </trkpt>
      <trkpt lat="47.29586" lon="-1.36654">
        <ele>64</ele>
        <time>2020-12-20T08:15:26.248000+00:00</time>
      </trkpt>
      <trkpt lat="0" lon="0">
        <time>2020-12-20T08:15:26.260000+00:00</time>
      </trkpt>
      <trkpt lat="0" lon="0">
        <time>2020-12-20T08:15:26.268000+00:00</time>
      </trkpt>
      <trkpt lat="0" lon="0">
        <time>2020-12-20T08:15:26.271000+00:00</time>
      </trkpt>
      <trkpt lat="47.29589" lon="-1.36646">
        <ele>64</ele>
        <time>2020-12-20T08:15:27.286000+00:00</time>
      </trkpt>
      <trkpt lat="0" lon="0">
        <time>2020-12-20T08:15:27.292000+00:00</time>
      </trkpt>
      <trkpt lat="0" lon="0">
        <time>2020-12-20T08:15:27.297000+00:00</time>
      </trkpt>
      <trkpt lat="0" lon="0">
        <time>2020-12-20T08:15:27.302000+00:00</time>
      </trkpt>
      <trkpt lat="47.29591" lon="-1.36639">
        <ele>64</ele>
        <time>2020-12-20T08:15:28.248000+00:00</time>
      </trkpt>
      <trkpt lat="0" lon="0">
        <time>2020-12-20T08:15:28.266000+00:00</time>
      </trkpt>
      <trkpt lat="0" lon="0">
        <time>2020-12-20T08:15:28.270000+00:00</time>
      </trkpt>
      <trkpt lat="0" lon="0">
        <time>2020-12-20T08:15:28.275000+00:00</time>
      </trkpt>
      <trkpt lat="47.29593" lon="-1.36631">
        <ele>64</ele>
        <time>2020-12-20T08:15:29.246000+00:00</time>
      </trkpt>
      <trkpt lat="0" lon="0">
        <time>2020-12-20T08:15:29.253000+00:00</time>
      </trkpt>
      <trkpt lat="0" lon="0">
        <time>2020-12-20T08:15:29.270000+00:00</time>
      </trkpt>
      <trkpt lat="0" lon="0">
        <time>2020-12-20T08:15:29.278000+00:00</time>
      </trkpt>
      <trkpt lat="47.29595" lon="-1.36624">
        <ele>64</ele>
        <time>2020-12-20T08:15:30.230000+00:00</time>
      </trkpt>
      <trkpt lat="0" lon="0">
        <time>2020-12-20T08:15:30.235000+00:00</time>
      </trkpt>
      <trkpt lat="0" lon="0">
        <time>2020-12-20T08:15:30.241000+00:00</time>
      </trkpt>
      <trkpt lat="0" lon="0">
        <time>2020-12-20T08:15:30.244000+00:00</time>
      </trkpt>
      <trkpt lat="47.29597" lon="-1.36616">
        <ele>64</ele>
        <time>2020-12-20T08:15:31.200000+00:00</time>
      </trkpt>
      <trkpt lat="0" lon="0">
        <time>2020-12-20T08:15:31.210000+00:00</time>
      </trkpt>
      <trkpt lat="0" lon="0">
        <time>2020-12-20T08:15:31.215000+00:00</time>
      </trkpt>
      <trkpt lat="0" lon="0">
        <time>2020-12-20T08:15:31.217000+00:00</time>
      </trkpt>
      <trkpt lat="47.29599" lon="-1.36609">
        <ele>64</ele>
        <time>2020-12-20T08:15:32.232000+00:00</time>
      </trkpt>
      <trkpt lat="0" lon="0">
        <time>2020-12-20T08:15:32.253000+00:00</time>
      </trkpt>
      <trkpt lat="0" lon="0">
        <time>2020-12-20T08:15:32.257000+00:00</time>
      </trkpt>
      <trkpt lat="0" lon="0">
        <time>2020-12-20T08:15:32.260000+00:00</time>
      </trkpt>
      <trkpt lat="47.29601" lon="-1.36601">
        <ele>64</ele>
        <time>2020-12-20T08:15:33.214000+00:00</time>
      </trkpt>
      <trkpt lat="0" lon="0">
        <time>2020-12-20T08:15:33.220000+00:00</time>
      </trkpt>
      <trkpt lat="0" lon="0">
        <time>2020-12-20T08:15:33.226000+00:00</time>
      </trkpt>
      <trkpt lat="0" lon="0">
        <time>2020-12-20T08:15:33.231000+00:00</time>
      </trkpt>
      <trkpt lat="47.29603" lon="-1.36593">
        <ele>65</ele>
        <time>2020-12-20T08:15:34.258000+00:00</time>
      </trkpt>
      <trkpt lat="0" lon="0">
        <time>2020-12-20T08:15:34.269000+00:00</time>
      </trkpt>
      <trkpt lat="0" lon="0">
        <time>2020-12-20T08:15:34.274000+00:00</time>
      </trkpt>
      <trkpt lat="0" lon="0">
        <time>2020-12-20T08:15:34.277000+00:00</time>
      </trkpt>
      <trkpt lat="47.29605" lon="-1.36585">
        <ele>65</ele>
        <time>2020-12-20T08:15:35.224000+00:00</time>
      </trkpt>
      <trkpt lat="0" lon="0">
        <time>2020-12-20T08:15:35.241000+00:00</time>
      </trkpt>
      <trkpt lat="0" lon="0">
        <time>2020-12-20T08:15:35.249000+00:00</time>
      </trkpt>
      <trkpt lat="0" lon="0">
        <time>2020-12-20T08:15:35.252000+00:00</time>
      </trkpt>
      <trkpt lat="47.29607" lon="-1.36578">
        <ele>65</ele>
        <time>2020-12-20T08:15:36.257000+00:00</time>
      </trkpt>
      <trkpt lat="0" lon="0">
        <time>2020-12-20T08:15:36.271000+00:00</time>
      </trkpt>
      <trkpt lat="0" lon="0">
        <time>2020-12-20T08:15:36.275000+00:00</time>
      </trkpt>
      <trkpt lat="0" lon="0">
        <time>2020-12-20T08:15:36.278000+00:00</time>
      </trkpt>
      <trkpt lat="47.29609" lon="-1.3657">
        <ele>65</ele>
        <time>2020-12-20T08:15:37.256000+00:00</time>
      </trkpt>
      <trkpt lat="0" lon="0">
        <time>2020-12-20T08:15:37.260000+00:00</time>
      </trkpt>
      <trkpt lat="0" lon="0">
        <time>2020-12-20T08:15:37.266000+00:00</time>
      </trkpt>
      <trkpt lat="0" lon="0">
        <time>2020-12-20T08:15:37.268000+00:00</time>
      </trkpt>
      <trkpt lat="47.29611" lon="-1.36562">
        <ele>64</ele>
        <time>2020-12-20T08:15:38.261000+00:00</time>
      </trkpt>
      <trkpt lat="0" lon="0">
        <time>2020-12-20T08:15:38.267000+00:00</time>
      </trkpt>
      <trkpt lat="0" lon="0">
        <time>2020-12-20T08:15:38.272000+00:00</time>
      </trkpt>
      <trkpt lat="0" lon="0">
        <time>2020-12-20T08:15:38.276000+00:00</time>
      </trkpt>
      <trkpt lat="47.29613" lon="-1.36554">
        <ele>64</ele>
        <time>2020-12-20T08:15:39.257000+00:00</time>
      </trkpt>
      <trkpt lat="0" lon="0">
        <time>2020-12-20T08:15:39.268000+00:00</time>
      </trkpt>
      <trkpt lat="0" lon="0">
        <time>2020-12-20T08:15:39.274000+00:00</time>
      </trkpt>
      <trkpt lat="0" lon="0">
        <time>2020-12-20T08:15:39.276000+00:00</time>
      </trkpt>
      <trkpt lat="47.29615" lon="-1.36547">
        <ele>64</ele>
        <time>2020-12-20T08:15:40.268000+00:00</time>
      </trkpt>
      <trkpt lat="0" lon="0">
        <time>2020-12-20T08:15:40.280000+00:00</time>
      </trkpt>
      <trkpt lat="0" lon="0">
        <time>2020-12-20T08:15:40.290000+00:00</time>
      </trkpt>
      <trkpt lat="0" lon="0">
        <time>2020-12-20T08:15:40.294000+00:00</time>
      </trkpt>
      <trkpt lat="47.29617" lon="-1.36539">
        <ele>64</ele>
        <time>2020-12-20T08:15:41.208000+00:00</time>
      </trkpt>
      <trkpt lat="0" lon="0">
        <time>2020-12-20T08:15:41.211000+00:00</time>
      </trkpt>
      <trkpt lat="0" lon="0">
        <time>2020-12-20T08:15:41.219000+00:00</time>
      </trkpt>
      <trkpt lat="0" lon="0">
        <time>2020-12-20T08:15:41.221000+00:00</time>
      </trkpt>
      <trkpt lat="47.2962" lon="-1.36532">
        <ele>64</ele>
        <time>2020-12-20T08:15:42.185000+00:00</time>
      </trkpt>
      <trkpt lat="0" lon="0">
        <time>2020-12-20T08:15:42.204000+00:00</time>
      </trkpt>
      <trkpt lat="0" lon="0">
        <time>2020-12-20T08:15:42.206000+00:00</time>
      </trkpt>
      <trkpt lat="0" lon="0">
        <time>2020-12-20T08:15:42.207000+00:00</time>
      </trkpt>
      <trkpt lat="47.29622" lon="-1.36524">
        <ele>64</ele>
        <time>2020-12-20T08:15:43.178000+00:00</time>
      </trkpt>
      <trkpt lat="0" lon="0">
        <time>2020-12-20T08:15:43.182000+00:00</time>
      </trkpt>
      <trkpt lat="0" lon="0">
        <time>2020-12-20T08:15:43.186000+00:00</time>
      </trkpt>
      <trkpt lat="0" lon="0">
        <time>2020-12-20T08:15:43.190000+00:00</time>
      </trkpt>
      <trkpt lat="47.29624" lon="-1.36516">
        <ele>64</ele>
        <time>2020-12-20T08:15:44.157000+00:00</time>
      </trkpt>
      <trkpt lat="0" lon="0">
        <time>2020-12-20T08:15:44.164000+00:00</time>
      </trkpt>
      <trkpt lat="0" lon="0">
        <time>2020-12-20T08:15:44.168000+00:00</time>
      </trkpt>
      <trkpt lat="0" lon="0">
        <time>2020-12-20T08:15:44.169000+00:00</time>
      </trkpt>
      <trkpt lat="47.29626" lon="-1.36509">
        <ele>64</ele>
        <time>2020-12-20T08:15:45.227000+00:00</time>
      </trkpt>
      <trkpt lat="0" lon="0">
        <time>2020-12-20T08:15:45.245000+00:00</time>
      </trkpt>
      <trkpt lat="0" lon="0">
        <time>2020-12-20T08:15:45.248000+00:00</time>
      </trkpt>
      <trkpt lat="0" lon="0">
        <time>2020-12-20T08:15:45.251000+00:00</time>
      </trkpt>
      <trkpt lat="47.29628" lon="-1.36501">
        <ele>64</ele>
        <time>2020-12-20T08:15:46.250000+00:00</time>
      </trkpt>
      <trkpt lat="0" lon="0">
        <time>2020-12-20T08:15:46.260000+00:00</time>
      </trkpt>
      <trkpt lat="0" lon="0">
        <time>2020-12-20T08:15:46.275000+00:00</time>
      </trkpt>
      <trkpt lat="0" lon="0">
        <time>2020-12-20T08:15:46.278000+00:00</time>
      </trkpt>
      <trkpt lat="47.29631" lon="-1.36494">
        <ele>64</ele>
        <time>2020-12-20T08:15:47.252000+00:00</time>
      </trkpt>
      <trkpt lat="0" lon="0">
        <time>2020-12-20T08:15:47.254000+00:00</time>
      </trkpt>
      <trkpt lat="0" lon="0">
        <time>2020-12-20T08:15:47.257000+00:00</time>
      </trkpt>
      <trkpt lat="0" lon="0">
        <time>2020-12-20T08:15:47.258000+00:00</time>
      </trkpt>
      <trkpt lat="47.29633" lon="-1.36487">
        <ele>65</ele>
        <time>2020-12-20T08:15:48.244000+00:00</time>
      </trkpt>
      <trkpt lat="0" lon="0">
        <time>2020-12-20T08:15:48.253000+00:00</time>
      </trkpt>
      <trkpt lat="0" lon="0">
        <time>2020-12-20T08:15:48.259000+00:00</time>
      </trkpt>
      <trkpt lat="0" lon="0">
        <time>2020-12-20T08:15:48.262000+00:00</time>
      </trkpt>
      <trkpt lat="47.29636" lon="-1.3648">
        <ele>65</ele>
        <time>2020-12-20T08:15:49.255000+00:00</time>
      </trkpt>
      <trkpt lat="0" lon="0">
        <time>2020-12-20T08:15:49.260000+00:00</time>
      </trkpt>
      <trkpt lat="0" lon="0">
        <time>2020-12-20T08:15:49.263000+00:00</time>
      </trkpt>
      <trkpt lat="0" lon="0">
        <time>2020-12-20T08:15:49.266000+00:00</time>
      </trkpt>
      <trkpt lat="47.29639" lon="-1.36473">
        <ele>65</ele>
        <time>2020-12-20T08:15:50.252000+00:00</time>
      </trkpt>
      <trkpt lat="0" lon="0">
        <time>2020-12-20T08:15:50.262000+00:00</time>
      </trkpt>
      <trkpt lat="0" lon="0">
        <time>2020-12-20T08:15:50.267000+00:00</time>
      </trkpt>
      <trkpt lat="0" lon="0">
        <time>2020-12-20T08:15:50.269000+00:00</time>
      </trkpt>
      <trkpt lat="47.29642" lon="-1.36467">
        <ele>66</ele>
        <time>2020-12-20T08:15:51.239000+00:00</time>
      </trkpt>
      <trkpt lat="0" lon="0">
        <time>2020-12-20T08:15:51.254000+00:00</time>
      </trkpt>
      <trkpt lat="0" lon="0">
        <time>2020-12-20T08:15:51.262000+00:00</time>
      </trkpt>
      <trkpt lat="0" lon="0">
        <time>2020-12-20T08:15:51.269000+00:00</time>
      </trkpt>
      <trkpt lat="47.29645" lon="-1.36461">
        <ele>65</ele>
        <time>2020-12-20T08:15:52.276000+00:00</time>
      </trkpt>
      <trkpt lat="0" lon="0">
        <time>2020-12-20T08:15:52.303000+00:00</time>
      </trkpt>
      <trkpt lat="0" lon="0">
        <time>2020-12-20T08:15:52.309000+00:00</time>
      </trkpt>
      <trkpt lat="0" lon="0">
        <time>2020-12-20T08:15:52.310000+00:00</time>
      </trkpt>
      <trkpt lat="47.29648" lon="-1.36454">
        <ele>66</ele>
        <time>2020-12-20T08:15:53.265000+00:00</time>
      </trkpt>
      <trkpt lat="0" lon="0">
        <time>2020-12-20T08:15:53.283000+00:00</time>
      </trkpt>
      <trkpt lat="0" lon="0">
        <time>2020-12-20T08:15:53.291000+00:00</time>
      </trkpt>
      <trkpt lat="0" lon="0">
        <time>2020-12-20T08:15:53.294000+00:00</time>
      </trkpt>
      <trkpt lat="47.29652" lon="-1.36448">
        <ele>66</ele>
        <time>2020-12-20T08:15:54.274000+00:00</time>
      </trkpt>
      <trkpt lat="0" lon="0">
        <time>2020-12-20T08:15:54.290000+00:00</time>
      </trkpt>
      <trkpt lat="0" lon="0">
        <time>2020-12-20T08:15:54.295000+00:00</time>
      </trkpt>
      <trkpt lat="0" lon="0">
        <time>2020-12-20T08:15:54.297000+00:00</time>
      </trkpt>
      <trkpt lat="47.29655" lon="-1.36442">
        <ele>66</ele>
        <time>2020-12-20T08:15:55.212000+00:00</time>
      </trkpt>
      <trkpt lat="0" lon="0">
        <time>2020-12-20T08:15:55.217000+00:00</time>
      </trkpt>
      <trkpt lat="0" lon="0">
        <time>2020-12-20T08:15:55.218000+00:00</time>
      </trkpt>
      <trkpt lat="0" lon="0">
        <time>2020-12-20T08:15:55.219000+00:00</time>
      </trkpt>
      <trkpt lat="47.29659" lon="-1.36437">
        <ele>66</ele>
        <time>2020-12-20T08:15:56.227000+00:00</time>
      </trkpt>
      <trkpt lat="0" lon="0">
        <time>2020-12-20T08:15:56.235000+00:00</time>
      </trkpt>
      <trkpt lat="0" lon="0">
        <time>2020-12-20T08:15:56.239000+00:00</time>
      </trkpt>
      <trkpt lat="0" lon="0">
        <time>2020-12-20T08:15:56.242000+00:00</time>
      </trkpt>
      <trkpt lat="47.29663" lon="-1.3643">
        <ele>66</ele>
        <time>2020-12-20T08:15:57.238000+00:00</time>
      </trkpt>
      <trkpt lat="0" lon="0">
        <time>2020-12-20T08:15:57.242000+00:00</time>
      </trkpt>
      <trkpt lat="0" lon="0">
        <time>2020-12-20T08:15:57.247000+00:00</time>
      </trkpt>
      <trkpt lat="0" lon="0">
        <time>2020-12-20T08:15:57.252000+00:00</time>
      </trkpt>
      <trkpt lat="47.29667" lon="-1.36424">
        <ele>66</ele>
        <time>2020-12-20T08:15:58.248000+00:00</time>
      </trkpt>
      <trkpt lat="0" lon="0">
        <time>2020-12-20T08:15:58.259000+00:00</time>
      </trkpt>
      <trkpt lat="0" lon="0">
        <time>2020-12-20T08:15:58.264000+00:00</time>
      </trkpt>
      <trkpt lat="0" lon="0">
        <time>2020-12-20T08:15:58.266000+00:00</time>
      </trkpt>
      <trkpt lat="47.29671" lon="-1.36418">
        <ele>66</ele>
        <time>2020-12-20T08:15:59.249000+00:00</time>
      </trkpt>
      <trkpt lat="0" lon="0">
        <time>2020-12-20T08:15:59.269000+00:00</time>
      </trkpt>
      <trkpt lat="0" lon="0">
        <time>2020-12-20T08:15:59.276000+00:00</time>
      </trkpt>
      <trkpt lat="0" lon="0">
        <time>2020-12-20T08:15:59.279000+00:00</time>
      </trkpt>
      <trkpt lat="47.29675" lon="-1.36412">
        <ele>66</ele>
        <time>2020-12-20T08:16:00.256000+00:00</time>
      </trkpt>
      <trkpt lat="0" lon="0">
        <time>2020-12-20T08:16:00.266000+00:00</time>
      </trkpt>
      <trkpt lat="0" lon="0">
        <time>2020-12-20T08:16:00.271000+00:00</time>
      </trkpt>
      <trkpt lat="0" lon="0">
        <time>2020-12-20T08:16:00.274000+00:00</time>
      </trkpt>
      <trkpt lat="47.29679" lon="-1.36405">
        <ele>65</ele>
        <time>2020-12-20T08:16:01.232000+00:00</time>
      </trkpt>
      <trkpt lat="0" lon="0">
        <time>2020-12-20T08:16:01.235000+00:00</time>
      </trkpt>
      <trkpt lat="0" lon="0">
        <time>2020-12-20T08:16:01.240000+00:00</time>
      </trkpt>
      <trkpt lat="0" lon="0">
        <time>2020-12-20T08:16:01.242000+00:00</time>
      </trkpt>
      <trkpt lat="47.29683" lon="-1.36398">
        <ele>65</ele>
        <time>2020-12-20T08:16:02.261000+00:00</time>
      </trkpt>
      <trkpt lat="0" lon="0">
        <time>2020-12-20T08:16:02.266000+00:00</time>
      </trkpt>
      <trkpt lat="0" lon="0">
        <time>2020-12-20T08:16:02.273000+00:00</time>
      </trkpt>
      <trkpt lat="0" lon="0">
        <time>2020-12-20T08:16:02.277000+00:00</time>
      </trkpt>
      <trkpt lat="47.29686" lon="-1.36392">
        <ele>65</ele>
        <time>2020-12-20T08:16:03.266000+00:00</time>
      </trkpt>
      <trkpt lat="0" lon="0">
        <time>2020-12-20T08:16:03.279000+00:00</time>
      </trkpt>
      <trkpt lat="0" lon="0">
        <time>2020-12-20T08:16:03.284000+00:00</time>
      </trkpt>
      <trkpt lat="0" lon="0">
        <time>2020-12-20T08:16:03.287000+00:00</time>
      </trkpt>
      <trkpt lat="47.2969" lon="-1.36385">
        <ele>65</ele>
        <time>2020-12-20T08:16:04.269000+00:00</time>
      </trkpt>
      <trkpt lat="0" lon="0">
        <time>2020-12-20T08:16:04.293000+00:00</time>
      </trkpt>
      <trkpt lat="0" lon="0">
        <time>2020-12-20T08:16:04.299000+00:00</time>
      </trkpt>
      <trkpt lat="0" lon="0">
        <time>2020-12-20T08:16:04.301000+00:00</time>
      </trkpt>
      <trkpt lat="47.29694" lon="-1.36379">
        <ele>65</ele>
        <time>2020-12-20T08:16:05.269000+00:00</time>
      </trkpt>
      <trkpt lat="0" lon="0">
        <time>2020-12-20T08:16:05.286000+00:00</time>
      </trkpt>
      <trkpt lat="0" lon="0">
        <time>2020-12-20T08:16:05.291000+00:00</time>
      </trkpt>
      <trkpt lat="0" lon="0">
        <time>2020-12-20T08:16:05.294000+00:00</time>
      </trkpt>
      <trkpt lat="47.29697" lon="-1.36372">
        <ele>65</ele>
        <time>2020-12-20T08:16:06.279000+00:00</time>
      </trkpt>
      <trkpt lat="0" lon="0">
        <time>2020-12-20T08:16:06.290000+00:00</time>
      </trkpt>
      <trkpt lat="0" lon="0">
        <time>2020-12-20T08:16:06.305000+00:00</time>
      </trkpt>
      <trkpt lat="0" lon="0">
        <time>2020-12-20T08:16:06.307000+00:00</time>
      </trkpt>
      <trkpt lat="47.297" lon="-1.36366">
        <ele>65</ele>
        <time>2020-12-20T08:16:07.266000+00:00</time>
      </trkpt>
      <trkpt lat="0" lon="0">
        <time>2020-12-20T08:16:07.275000+00:00</time>
      </trkpt>
      <trkpt lat="0" lon="0">
        <time>2020-12-20T08:16:07.278000+00:00</time>
      </trkpt>
      <trkpt lat="0" lon="0">
        <time>2020-12-20T08:16:07.286000+00:00</time>
      </trkpt>
      <trkpt lat="47.29704" lon="-1.36359">
        <ele>64</ele>
        <time>2020-12-20T08:16:08.203000+00:00</time>
      </trkpt>
      <trkpt lat="0" lon="0">
        <time>2020-12-20T08:16:08.204000+00:00</time>
      </trkpt>
      <trkpt lat="0" lon="0">
        <time>2020-12-20T08:16:08.206000+00:00</time>
      </trkpt>
      <trkpt lat="47.29707" lon="-1.36353">
        <ele>64</ele>
        <time>2020-12-20T08:16:09.259000+00:00</time>
      </trkpt>
      <trkpt lat="0" lon="0">
        <time>2020-12-20T08:16:09.264000+00:00</time>
      </trkpt>
      <trkpt lat="0" lon="0">
        <time>2020-12-20T08:16:09.271000+00:00</time>
      </trkpt>
      <trkpt lat="0" lon="0">
        <time>2020-12-20T08:16:09.273000+00:00</time>
      </trkpt>
      <trkpt lat="47.29711" lon="-1.36347">
        <ele>63</ele>
        <time>2020-12-20T08:16:10.246000+00:00</time>
      </trkpt>
      <trkpt lat="0" lon="0">
        <time>2020-12-20T08:16:10.265000+00:00</time>
      </trkpt>
      <trkpt lat="0" lon="0">
        <time>2020-12-20T08:16:10.272000+00:00</time>
      </trkpt>
      <trkpt lat="0" lon="0">
        <time>2020-12-20T08:16:10.279000+00:00</time>
      </trkpt>
      <trkpt lat="47.29714" lon="-1.3634">
        <ele>63</ele>
        <time>2020-12-20T08:16:11.255000+00:00</time>
      </trkpt>
      <trkpt lat="0" lon="0">
        <time>2020-12-20T08:16:11.266000+00:00</time>
      </trkpt>
      <trkpt lat="0" lon="0">
        <time>2020-12-20T08:16:11.275000+00:00</time>
      </trkpt>
      <trkpt lat="0" lon="0">
        <time>2020-12-20T08:16:11.283000+00:00</time>
      </trkpt>
      <trkpt lat="47.29718" lon="-1.36334">
        <ele>63</ele>
        <time>2020-12-20T08:16:12.285000+00:00</time>
      </trkpt>
      <trkpt lat="0" lon="0">
        <time>2020-12-20T08:16:12.290000+00:00</time>
      </trkpt>
      <trkpt lat="0" lon="0">
        <time>2020-12-20T08:16:12.291000+00:00</time>
      </trkpt>
      <trkpt lat="0" lon="0">
        <time>2020-12-20T08:16:12.292000+00:00</time>
      </trkpt>
      <trkpt lat="47.29722" lon="-1.36328">
        <ele>62</ele>
        <time>2020-12-20T08:16:13.285000+00:00</time>
      </trkpt>
      <trkpt lat="0" lon="0">
        <time>2020-12-20T08:16:13.302000+00:00</time>
      </trkpt>
      <trkpt lat="0" lon="0">
        <time>2020-12-20T08:16:13.316000+00:00</time>
      </trkpt>
      <trkpt lat="0" lon="0">
        <time>2020-12-20T08:16:13.320000+00:00</time>
      </trkpt>
      <trkpt lat="47.29725" lon="-1.36321">
        <ele>63</ele>
        <time>2020-12-20T08:16:14.247000+00:00</time>
      </trkpt>
      <trkpt lat="0" lon="0">
        <time>2020-12-20T08:16:14.265000+00:00</time>
      </trkpt>
      <trkpt lat="0" lon="0">
        <time>2020-12-20T08:16:14.272000+00:00</time>
      </trkpt>
      <trkpt lat="0" lon="0">
        <time>2020-12-20T08:16:14.277000+00:00</time>
      </trkpt>
      <trkpt lat="47.29729" lon="-1.36315">
        <ele>63</ele>
        <time>2020-12-20T08:16:15.242000+00:00</time>
      </trkpt>
      <trkpt lat="0" lon="0">
        <time>2020-12-20T08:16:15.250000+00:00</time>
      </trkpt>
      <trkpt lat="0" lon="0">
        <time>2020-12-20T08:16:15.255000+00:00</time>
      </trkpt>
      <trkpt lat="0" lon="0">
        <time>2020-12-20T08:16:15.257000+00:00</time>
      </trkpt>
      <trkpt lat="47.29733" lon="-1.36308">
        <ele>63</ele>
        <time>2020-12-20T08:16:16.262000+00:00</time>
      </trkpt>
      <trkpt lat="0" lon="0">
        <time>2020-12-20T08:16:16.286000+00:00</time>
      </trkpt>
      <trkpt lat="0" lon="0">
        <time>2020-12-20T08:16:16.294000+00:00</time>
      </trkpt>
      <trkpt lat="0" lon="0">
        <time>2020-12-20T08:16:16.299000+00:00</time>
      </trkpt>
      <trkpt lat="47.29736" lon="-1.36301">
        <ele>63</ele>
        <time>2020-12-20T08:16:17.265000+00:00</time>
      </trkpt>
      <trkpt lat="0" lon="0">
        <time>2020-12-20T08:16:17.273000+00:00</time>
      </trkpt>
      <trkpt lat="0" lon="0">
        <time>2020-12-20T08:16:17.277000+00:00</time>
      </trkpt>
      <trkpt lat="0" lon="0">
        <time>2020-12-20T08:16:17.279000+00:00</time>
      </trkpt>
      <trkpt lat="47.2974" lon="-1.36294">
        <ele>63</ele>
        <time>2020-12-20T08:16:18.249000+00:00</time>
      </trkpt>
      <trkpt lat="0" lon="0">
        <time>2020-12-20T08:16:18.270000+00:00</time>
      </trkpt>
      <trkpt lat="0" lon="0">
        <time>2020-12-20T08:16:18.274000+00:00</time>
      </trkpt>
      <trkpt lat="0" lon="0">
        <time>2020-12-20T08:16:18.276000+00:00</time>
      </trkpt>
      <trkpt lat="47.29744" lon="-1.36287">
        <ele>63</ele>
        <time>2020-12-20T08:16:19.205000+00:00</time>
      </trkpt>
      <trkpt lat="0" lon="0">
        <time>2020-12-20T08:16:19.212000+00:00</time>
      </trkpt>
      <trkpt lat="0" lon="0">
        <time>2020-12-20T08:16:19.215000+00:00</time>
      </trkpt>
      <trkpt lat="0" lon="0">
        <time>2020-12-20T08:16:19.217000+00:00</time>
      </trkpt>
      <trkpt lat="47.29747" lon="-1.36281">
        <ele>63</ele>
        <time>2020-12-20T08:16:20.246000+00:00</time>
      </trkpt>
      <trkpt lat="0" lon="0">
        <time>2020-12-20T08:16:20.257000+00:00</time>
      </trkpt>
      <trkpt lat="0" lon="0">
        <time>2020-12-20T08:16:20.261000+00:00</time>
      </trkpt>
      <trkpt lat="0" lon="0">
        <time>2020-12-20T08:16:20.263000+00:00</time>
      </trkpt>
      <trkpt lat="47.29751" lon="-1.36274">
        <ele>63</ele>
        <time>2020-12-20T08:16:21.224000+00:00</time>
      </trkpt>
      <trkpt lat="0" lon="0">
        <time>2020-12-20T08:16:21.244000+00:00</time>
      </trkpt>
      <trkpt lat="0" lon="0">
        <time>2020-12-20T08:16:21.253000+00:00</time>
      </trkpt>
      <trkpt lat="0" lon="0">
        <time>2020-12-20T08:16:21.258000+00:00</time>
      </trkpt>
      <trkpt lat="47.29754" lon="-1.36268">
        <ele>63</ele>
        <time>2020-12-20T08:16:22.259000+00:00</time>
      </trkpt>
      <trkpt lat="0" lon="0">
        <time>2020-12-20T08:16:22.271000+00:00</time>
      </trkpt>
      <trkpt lat="0" lon="0">
        <time>2020-12-20T08:16:22.289000+00:00</time>
      </trkpt>
      <trkpt lat="0" lon="0">
        <time>2020-12-20T08:16:22.296000+00:00</time>
      </trkpt>
      <trkpt lat="47.29758" lon="-1.36263">
        <ele>62</ele>
        <time>2020-12-20T08:16:23.217000+00:00</time>
      </trkpt>
      <trkpt lat="0" lon="0">
        <time>2020-12-20T08:16:23.231000+00:00</time>
      </trkpt>
      <trkpt lat="0" lon="0">
        <time>2020-12-20T08:16:23.235000+00:00</time>
      </trkpt>
      <trkpt lat="0" lon="0">
        <time>2020-12-20T08:16:23.239000+00:00</time>
      </trkpt>
      <trkpt lat="47.29761" lon="-1.36257">
        <ele>62</ele>
        <time>2020-12-20T08:16:24.223000+00:00</time>
      </trkpt>
      <trkpt lat="0" lon="0">
        <time>2020-12-20T08:16:24.233000+00:00</time>
      </trkpt>
      <trkpt lat="0" lon="0">
        <time>2020-12-20T08:16:24.243000+00:00</time>
      </trkpt>
      <trkpt lat="0" lon="0">
        <time>2020-12-20T08:16:24.245000+00:00</time>
      </trkpt>
      <trkpt lat="47.29765" lon="-1.36251">
        <ele>62</ele>
        <time>2020-12-20T08:16:25.262000+00:00</time>
      </trkpt>
      <trkpt lat="0" lon="0">
        <time>2020-12-20T08:16:25.270000+00:00</time>
      </trkpt>
      <trkpt lat="0" lon="0">
        <time>2020-12-20T08:16:25.275000+00:00</time>
      </trkpt>
      <trkpt lat="0" lon="0">
        <time>2020-12-20T08:16:25.277000+00:00</time>
      </trkpt>
      <trkpt lat="47.29768" lon="-1.36245">
        <ele>62</ele>
        <time>2020-12-20T08:16:26.260000+00:00</time>
      </trkpt>
      <trkpt lat="0" lon="0">
        <time>2020-12-20T08:16:26.287000+00:00</time>
      </trkpt>
      <trkpt lat="0" lon="0">
        <time>2020-12-20T08:16:26.296000+00:00</time>
      </trkpt>
      <trkpt lat="0" lon="0">
        <time>2020-12-20T08:16:26.297000+00:00</time>
      </trkpt>
      <trkpt lat="47.29772" lon="-1.36239">
        <ele>62</ele>
        <time>2020-12-20T08:16:27.226000+00:00</time>
      </trkpt>
      <trkpt lat="0" lon="0">
        <time>2020-12-20T08:16:27.244000+00:00</time>
      </trkpt>
      <trkpt lat="0" lon="0">
        <time>2020-12-20T08:16:27.252000+00:00</time>
      </trkpt>
      <trkpt lat="0" lon="0">
        <time>2020-12-20T08:16:27.254000+00:00</time>
      </trkpt>
      <trkpt lat="47.29775" lon="-1.36234">
        <ele>62</ele>
        <time>2020-12-20T08:16:28.236000+00:00</time>
      </trkpt>
      <trkpt lat="0" lon="0">
        <time>2020-12-20T08:16:28.260000+00:00</time>
      </trkpt>
      <trkpt lat="0" lon="0">
        <time>2020-12-20T08:16:28.266000+00:00</time>
      </trkpt>
      <trkpt lat="0" lon="0">
        <time>2020-12-20T08:16:28.274000+00:00</time>
      </trkpt>
      <trkpt lat="47.29779" lon="-1.36228">
        <ele>62</ele>
        <time>2020-12-20T08:16:29.237000+00:00</time>
      </trkpt>
      <trkpt lat="0" lon="0">
        <time>2020-12-20T08:16:29.242000+00:00</time>
      </trkpt>
      <trkpt lat="0" lon="0">
        <time>2020-12-20T08:16:29.244000+00:00</time>
      </trkpt>
      <trkpt lat="47.29782" lon="-1.36222">
        <ele>62</ele>
        <time>2020-12-20T08:16:30.260000+00:00</time>
      </trkpt>
      <trkpt lat="0" lon="0">
        <time>2020-12-20T08:16:30.279000+00:00</time>
      </trkpt>
      <trkpt lat="0" lon="0">
        <time>2020-12-20T08:16:30.284000+00:00</time>
      </trkpt>
      <trkpt lat="0" lon="0">
        <time>2020-12-20T08:16:30.288000+00:00</time>
      </trkpt>
      <trkpt lat="47.29786" lon="-1.36217">
        <ele>62</ele>
        <time>2020-12-20T08:16:31.248000+00:00</time>
      </trkpt>
      <trkpt lat="0" lon="0">
        <time>2020-12-20T08:16:31.260000+00:00</time>
      </trkpt>
      <trkpt lat="0" lon="0">
        <time>2020-12-20T08:16:31.275000+00:00</time>
      </trkpt>
      <trkpt lat="0" lon="0">
        <time>2020-12-20T08:16:31.278000+00:00</time>
      </trkpt>
      <trkpt lat="47.2979" lon="-1.36212">
        <ele>62</ele>
        <time>2020-12-20T08:16:32.245000+00:00</time>
      </trkpt>
      <trkpt lat="0" lon="0">
        <time>2020-12-20T08:16:32.258000+00:00</time>
      </trkpt>
      <trkpt lat="0" lon="0">
        <time>2020-12-20T08:16:32.265000+00:00</time>
      </trkpt>
      <trkpt lat="0" lon="0">
        <time>2020-12-20T08:16:32.268000+00:00</time>
      </trkpt>
      <trkpt lat="47.29793" lon="-1.36207">
        <ele>62</ele>
        <time>2020-12-20T08:16:33.268000+00:00</time>
      </trkpt>
      <trkpt lat="0" lon="0">
        <time>2020-12-20T08:16:33.278000+00:00</time>
      </trkpt>
      <trkpt lat="0" lon="0">
        <time>2020-12-20T08:16:33.282000+00:00</time>
      </trkpt>
      <trkpt lat="0" lon="0">
        <time>2020-12-20T08:16:33.285000+00:00</time>
      </trkpt>
      <trkpt lat="47.29797" lon="-1.36202">
        <ele>62</ele>
        <time>2020-12-20T08:16:34.238000+00:00</time>
      </trkpt>
      <trkpt lat="0" lon="0">
        <time>2020-12-20T08:16:34.250000+00:00</time>
      </trkpt>
      <trkpt lat="0" lon="0">
        <time>2020-12-20T08:16:34.254000+00:00</time>
      </trkpt>
      <trkpt lat="0" lon="0">
        <time>2020-12-20T08:16:34.257000+00:00</time>
      </trkpt>
      <trkpt lat="47.29801" lon="-1.36197">
        <ele>63</ele>
        <time>2020-12-20T08:16:35.272000+00:00</time>
      </trkpt>
      <trkpt lat="0" lon="0">
        <time>2020-12-20T08:16:35.283000+00:00</time>
      </trkpt>
      <trkpt lat="0" lon="0">
        <time>2020-12-20T08:16:35.287000+00:00</time>
      </trkpt>
      <trkpt lat="0" lon="0">
        <time>2020-12-20T08:16:35.290000+00:00</time>
      </trkpt>
      <trkpt lat="47.29804" lon="-1.36192">
        <ele>63</ele>
        <time>2020-12-20T08:16:36.257000+00:00</time>
      </trkpt>
      <trkpt lat="0" lon="0">
        <time>2020-12-20T08:16:36.268000+00:00</time>
      </trkpt>
      <trkpt lat="0" lon="0">
        <time>2020-12-20T08:16:36.272000+00:00</time>
      </trkpt>
      <trkpt lat="0" lon="0">
        <time>2020-12-20T08:16:36.275000+00:00</time>
      </trkpt>
      <trkpt lat="47.29808" lon="-1.36187">
        <ele>63</ele>
        <time>2020-12-20T08:16:37.223000+00:00</time>
      </trkpt>
      <trkpt lat="0" lon="0">
        <time>2020-12-20T08:16:37.235000+00:00</time>
      </trkpt>
      <trkpt lat="0" lon="0">
        <time>2020-12-20T08:16:37.245000+00:00</time>
      </trkpt>
      <trkpt lat="0" lon="0">
        <time>2020-12-20T08:16:37.248000+00:00</time>
      </trkpt>
      <trkpt lat="47.29811" lon="-1.36182">
        <ele>62</ele>
        <time>2020-12-20T08:16:38.276000+00:00</time>
      </trkpt>
      <trkpt lat="0" lon="0">
        <time>2020-12-20T08:16:38.284000+00:00</time>
      </trkpt>
      <trkpt lat="0" lon="0">
        <time>2020-12-20T08:16:38.289000+00:00</time>
      </trkpt>
      <trkpt lat="0" lon="0">
        <time>2020-12-20T08:16:38.293000+00:00</time>
      </trkpt>
      <trkpt lat="47.29815" lon="-1.36177">
        <ele>62</ele>
        <time>2020-12-20T08:16:39.244000+00:00</time>
      </trkpt>
      <trkpt lat="0" lon="0">
        <time>2020-12-20T08:16:39.252000+00:00</time>
      </trkpt>
      <trkpt lat="0" lon="0">
        <time>2020-12-20T08:16:39.260000+00:00</time>
      </trkpt>
      <trkpt lat="0" lon="0">
        <time>2020-12-20T08:16:39.262000+00:00</time>
      </trkpt>
      <trkpt lat="47.29819" lon="-1.36172">
        <ele>62</ele>
        <time>2020-12-20T08:16:40.232000+00:00</time>
      </trkpt>
      <trkpt lat="0" lon="0">
        <time>2020-12-20T08:16:40.238000+00:00</time>
      </trkpt>
      <trkpt lat="0" lon="0">
        <time>2020-12-20T08:16:40.242000+00:00</time>
      </trkpt>
      <trkpt lat="0" lon="0">
        <time>2020-12-20T08:16:40.244000+00:00</time>
      </trkpt>
      <trkpt lat="47.29823" lon="-1.36167">
        <ele>62</ele>
        <time>2020-12-20T08:16:41.243000+00:00</time>
      </trkpt>
      <trkpt lat="0" lon="0">
        <time>2020-12-20T08:16:41.247000+00:00</time>
      </trkpt>
      <trkpt lat="0" lon="0">
        <time>2020-12-20T08:16:41.256000+00:00</time>
      </trkpt>
      <trkpt lat="0" lon="0">
        <time>2020-12-20T08:16:41.258000+00:00</time>
      </trkpt>
      <trkpt lat="47.29827" lon="-1.36163">
        <ele>62</ele>
        <time>2020-12-20T08:16:42.211000+00:00</time>
      </trkpt>
      <trkpt lat="0" lon="0">
        <time>2020-12-20T08:16:42.221000+00:00</time>
      </trkpt>
      <trkpt lat="0" lon="0">
        <time>2020-12-20T08:16:42.226000+00:00</time>
      </trkpt>
      <trkpt lat="0" lon="0">
        <time>2020-12-20T08:16:42.228000+00:00</time>
      </trkpt>
      <trkpt lat="47.29831" lon="-1.36158">
        <ele>62</ele>
        <time>2020-12-20T08:16:43.220000+00:00</time>
      </trkpt>
      <trkpt lat="0" lon="0">
        <time>2020-12-20T08:16:43.226000+00:00</time>
      </trkpt>
      <trkpt lat="0" lon="0">
        <time>2020-12-20T08:16:43.231000+00:00</time>
      </trkpt>
      <trkpt lat="0" lon="0">
        <time>2020-12-20T08:16:43.232000+00:00</time>
      </trkpt>
      <trkpt lat="47.29835" lon="-1.36153">
        <ele>63</ele>
        <time>2020-12-20T08:16:44.266000+00:00</time>
      </trkpt>
      <trkpt lat="0" lon="0">
        <time>2020-12-20T08:16:44.278000+00:00</time>
      </trkpt>
      <trkpt lat="0" lon="0">
        <time>2020-12-20T08:16:44.292000+00:00</time>
      </trkpt>
      <trkpt lat="0" lon="0">
        <time>2020-12-20T08:16:44.297000+00:00</time>
      </trkpt>
      <trkpt lat="47.2984" lon="-1.36149">
        <ele>63</ele>
        <time>2020-12-20T08:16:45.216000+00:00</time>
      </trkpt>
      <trkpt lat="0" lon="0">
        <time>2020-12-20T08:16:45.220000+00:00</time>
      </trkpt>
      <trkpt lat="0" lon="0">
        <time>2020-12-20T08:16:45.226000+00:00</time>
      </trkpt>
      <trkpt lat="0" lon="0">
        <time>2020-12-20T08:16:45.228000+00:00</time>
      </trkpt>
      <trkpt lat="47.29844" lon="-1.36145">
        <ele>63</ele>
        <time>2020-12-20T08:16:46.186000+00:00</time>
      </trkpt>
      <trkpt lat="0" lon="0">
        <time>2020-12-20T08:16:46.191000+00:00</time>
      </trkpt>
      <trkpt lat="0" lon="0">
        <time>2020-12-20T08:16:46.192000+00:00</time>
      </trkpt>
      <trkpt lat="0" lon="0">
        <time>2020-12-20T08:16:46.193000+00:00</time>
      </trkpt>
      <trkpt lat="47.29849" lon="-1.36141">
        <ele>63</ele>
        <time>2020-12-20T08:16:47.246000+00:00</time>
      </trkpt>
      <trkpt lat="0" lon="0">
        <time>2020-12-20T08:16:47.253000+00:00</time>
      </trkpt>
      <trkpt lat="0" lon="0">
        <time>2020-12-20T08:16:47.258000+00:00</time>
      </trkpt>
      <trkpt lat="0" lon="0">
        <time>2020-12-20T08:16:47.263000+00:00</time>
      </trkpt>
      <trkpt lat="47.29854" lon="-1.36138">
        <ele>63</ele>
        <time>2020-12-20T08:16:48.265000+00:00</time>
      </trkpt>
      <trkpt lat="0" lon="0">
        <time>2020-12-20T08:16:48.284000+00:00</time>
      </trkpt>
      <trkpt lat="0" lon="0">
        <time>2020-12-20T08:16:48.293000+00:00</time>
      </trkpt>
      <trkpt lat="0" lon="0">
        <time>2020-12-20T08:16:48.296000+00:00</time>
      </trkpt>
      <trkpt lat="47.29859" lon="-1.36135">
        <ele>64</ele>
        <time>2020-12-20T08:16:49.303000+00:00</time>
      </trkpt>
      <trkpt lat="0" lon="0">
        <time>2020-12-20T08:16:49.309000+00:00</time>
      </trkpt>
      <trkpt lat="0" lon="0">
        <time>2020-12-20T08:16:49.318000+00:00</time>
      </trkpt>
      <trkpt lat="0" lon="0">
        <time>2020-12-20T08:16:49.321000+00:00</time>
      </trkpt>
      <trkpt lat="47.29863" lon="-1.36132">
        <ele>65</ele>
        <time>2020-12-20T08:16:50.227000+00:00</time>
      </trkpt>
      <trkpt lat="0" lon="0">
        <time>2020-12-20T08:16:50.235000+00:00</time>
      </trkpt>
      <trkpt lat="0" lon="0">
        <time>2020-12-20T08:16:50.240000+00:00</time>
      </trkpt>
      <trkpt lat="0" lon="0">
        <time>2020-12-20T08:16:50.246000+00:00</time>
      </trkpt>
      <trkpt lat="47.29868" lon="-1.36129">
        <ele>64</ele>
        <time>2020-12-20T08:16:51.246000+00:00</time>
      </trkpt>
      <trkpt lat="0" lon="0">
        <time>2020-12-20T08:16:51.250000+00:00</time>
      </trkpt>
      <trkpt lat="0" lon="0">
        <time>2020-12-20T08:16:51.254000+00:00</time>
      </trkpt>
      <trkpt lat="0" lon="0">
        <time>2020-12-20T08:16:51.257000+00:00</time>
      </trkpt>
      <trkpt lat="47.29873" lon="-1.36125">
        <ele>65</ele>
        <time>2020-12-20T08:16:52.216000+00:00</time>
      </trkpt>
      <trkpt lat="0" lon="0">
        <time>2020-12-20T08:16:52.232000+00:00</time>
      </trkpt>
      <trkpt lat="0" lon="0">
        <time>2020-12-20T08:16:52.234000+00:00</time>
      </trkpt>
      <trkpt lat="0" lon="0">
        <time>2020-12-20T08:16:52.236000+00:00</time>
      </trkpt>
      <trkpt lat="47.29878" lon="-1.36121">
        <ele>65</ele>
        <time>2020-12-20T08:16:53.271000+00:00</time>
      </trkpt>
      <trkpt lat="0" lon="0">
        <time>2020-12-20T08:16:53.288000+00:00</time>
      </trkpt>
      <trkpt lat="0" lon="0">
        <time>2020-12-20T08:16:53.297000+00:00</time>
      </trkpt>
      <trkpt lat="0" lon="0">
        <time>2020-12-20T08:16:53.298000+00:00</time>
      </trkpt>
      <trkpt lat="47.29882" lon="-1.36117">
        <ele>65</ele>
        <time>2020-12-20T08:16:54.254000+00:00</time>
      </trkpt>
      <trkpt lat="0" lon="0">
        <time>2020-12-20T08:16:54.266000+00:00</time>
      </trkpt>
      <trkpt lat="0" lon="0">
        <time>2020-12-20T08:16:54.270000+00:00</time>
      </trkpt>
      <trkpt lat="0" lon="0">
        <time>2020-12-20T08:16:54.273000+00:00</time>
      </trkpt>
      <trkpt lat="47.29887" lon="-1.36112">
        <ele>65</ele>
        <time>2020-12-20T08:16:55.234000+00:00</time>
      </trkpt>
      <trkpt lat="0" lon="0">
        <time>2020-12-20T08:16:55.239000+00:00</time>
      </trkpt>
      <trkpt lat="0" lon="0">
        <time>2020-12-20T08:16:55.249000+00:00</time>
      </trkpt>
      <trkpt lat="0" lon="0">
        <time>2020-12-20T08:16:55.252000+00:00</time>
      </trkpt>
      <trkpt lat="47.29891" lon="-1.36108">
        <ele>65</ele>
        <time>2020-12-20T08:16:56.270000+00:00</time>
      </trkpt>
      <trkpt lat="0" lon="0">
        <time>2020-12-20T08:16:56.280000+00:00</time>
      </trkpt>
      <trkpt lat="0" lon="0">
        <time>2020-12-20T08:16:56.293000+00:00</time>
      </trkpt>
      <trkpt lat="0" lon="0">
        <time>2020-12-20T08:16:56.295000+00:00</time>
      </trkpt>
      <trkpt lat="47.29896" lon="-1.36103">
        <ele>65</ele>
        <time>2020-12-20T08:16:57.161000+00:00</time>
      </trkpt>
      <trkpt lat="0" lon="0">
        <time>2020-12-20T08:16:57.171000+00:00</time>
      </trkpt>
      <trkpt lat="0" lon="0">
        <time>2020-12-20T08:16:57.173000+00:00</time>
      </trkpt>
      <trkpt lat="0" lon="0">
        <time>2020-12-20T08:16:57.174000+00:00</time>
      </trkpt>
      <trkpt lat="47.299" lon="-1.36097">
        <ele>65</ele>
        <time>2020-12-20T08:16:58.217000+00:00</time>
      </trkpt>
      <trkpt lat="0" lon="0">
        <time>2020-12-20T08:16:58.233000+00:00</time>
      </trkpt>
      <trkpt lat="0" lon="0">
        <time>2020-12-20T08:16:58.237000+00:00</time>
      </trkpt>
      <trkpt lat="0" lon="0">
        <time>2020-12-20T08:16:58.239000+00:00</time>
      </trkpt>
      <trkpt lat="47.29903" lon="-1.36092">
        <ele>65</ele>
        <time>2020-12-20T08:16:59.203000+00:00</time>
      </trkpt>
      <trkpt lat="0" lon="0">
        <time>2020-12-20T08:16:59.210000+00:00</time>
      </trkpt>
      <trkpt lat="0" lon="0">
        <time>2020-12-20T08:16:59.214000+00:00</time>
      </trkpt>
      <trkpt lat="0" lon="0">
        <time>2020-12-20T08:16:59.217000+00:00</time>
      </trkpt>
      <trkpt lat="47.29907" lon="-1.36086">
        <ele>65</ele>
        <time>2020-12-20T08:17:00.230000+00:00</time>
      </trkpt>
      <trkpt lat="0" lon="0">
        <time>2020-12-20T08:17:00.254000+00:00</time>
      </trkpt>
      <trkpt lat="0" lon="0">
        <time>2020-12-20T08:17:00.258000+00:00</time>
      </trkpt>
      <trkpt lat="0" lon="0">
        <time>2020-12-20T08:17:00.260000+00:00</time>
      </trkpt>
      <trkpt lat="47.2991" lon="-1.3608">
        <ele>65</ele>
        <time>2020-12-20T08:17:01.212000+00:00</time>
      </trkpt>
      <trkpt lat="0" lon="0">
        <time>2020-12-20T08:17:01.220000+00:00</time>
      </trkpt>
      <trkpt lat="0" lon="0">
        <time>2020-12-20T08:17:01.228000+00:00</time>
      </trkpt>
      <trkpt lat="0" lon="0">
        <time>2020-12-20T08:17:01.230000+00:00</time>
      </trkpt>
      <trkpt lat="47.29913" lon="-1.36074">
        <ele>66</ele>
        <time>2020-12-20T08:17:02.211000+00:00</time>
      </trkpt>
      <trkpt lat="0" lon="0">
        <time>2020-12-20T08:17:02.218000+00:00</time>
      </trkpt>
      <trkpt lat="0" lon="0">
        <time>2020-12-20T08:17:02.225000+00:00</time>
      </trkpt>
      <trkpt lat="0" lon="0">
        <time>2020-12-20T08:17:02.227000+00:00</time>
      </trkpt>
      <trkpt lat="47.29915" lon="-1.36068">
        <ele>66</ele>
        <time>2020-12-20T08:17:03.245000+00:00</time>
      </trkpt>
      <trkpt lat="0" lon="0">
        <time>2020-12-20T08:17:03.254000+00:00</time>
      </trkpt>
      <trkpt lat="0" lon="0">
        <time>2020-12-20T08:17:03.260000+00:00</time>
      </trkpt>
      <trkpt lat="0" lon="0">
        <time>2020-12-20T08:17:03.263000+00:00</time>
      </trkpt>
      <trkpt lat="47.29918" lon="-1.36062">
        <ele>66</ele>
        <time>2020-12-20T08:17:04.263000+00:00</time>
      </trkpt>
      <trkpt lat="0" lon="0">
        <time>2020-12-20T08:17:04.275000+00:00</time>
      </trkpt>
      <trkpt lat="0" lon="0">
        <time>2020-12-20T08:17:04.282000+00:00</time>
      </trkpt>
      <trkpt lat="0" lon="0">
        <time>2020-12-20T08:17:04.284000+00:00</time>
      </trkpt>
      <trkpt lat="47.2992" lon="-1.36056">
        <ele>67</ele>
        <time>2020-12-20T08:17:05.232000+00:00</time>
      </trkpt>
      <trkpt lat="0" lon="0">
        <time>2020-12-20T08:17:05.237000+00:00</time>
      </trkpt>
      <trkpt lat="0" lon="0">
        <time>2020-12-20T08:17:05.246000+00:00</time>
      </trkpt>
      <trkpt lat="0" lon="0">
        <time>2020-12-20T08:17:05.248000+00:00</time>
      </trkpt>
      <trkpt lat="47.29922" lon="-1.3605">
        <ele>67</ele>
        <time>2020-12-20T08:17:06.254000+00:00</time>
      </trkpt>
      <trkpt lat="0" lon="0">
        <time>2020-12-20T08:17:06.265000+00:00</time>
      </trkpt>
      <trkpt lat="0" lon="0">
        <time>2020-12-20T08:17:06.272000+00:00</time>
      </trkpt>
      <trkpt lat="0" lon="0">
        <time>2020-12-20T08:17:06.275000+00:00</time>
      </trkpt>
      <trkpt lat="47.29925" lon="-1.36043">
        <ele>66</ele>
        <time>2020-12-20T08:17:07.239000+00:00</time>
      </trkpt>
      <trkpt lat="0" lon="0">
        <time>2020-12-20T08:17:07.248000+00:00</time>
      </trkpt>
      <trkpt lat="0" lon="0">
        <time>2020-12-20T08:17:07.258000+00:00</time>
      </trkpt>
      <trkpt lat="0" lon="0">
        <time>2020-12-20T08:17:07.263000+00:00</time>
      </trkpt>
      <trkpt lat="47.29928" lon="-1.36037">
        <ele>67</ele>
        <time>2020-12-20T08:17:08.276000+00:00</time>
      </trkpt>
      <trkpt lat="0" lon="0">
        <time>2020-12-20T08:17:08.280000+00:00</time>
      </trkpt>
      <trkpt lat="0" lon="0">
        <time>2020-12-20T08:17:08.288000+00:00</time>
      </trkpt>
      <trkpt lat="0" lon="0">
        <time>2020-12-20T08:17:08.290000+00:00</time>
      </trkpt>
      <trkpt lat="47.2993" lon="-1.3603">
        <ele>67</ele>
        <time>2020-12-20T08:17:09.207000+00:00</time>
      </trkpt>
      <trkpt lat="0" lon="0">
        <time>2020-12-20T08:17:09.233000+00:00</time>
      </trkpt>
      <trkpt lat="0" lon="0">
        <time>2020-12-20T08:17:09.236000+00:00</time>
      </trkpt>
      <trkpt lat="0" lon="0">
        <time>2020-12-20T08:17:09.238000+00:00</time>
      </trkpt>
      <trkpt lat="47.29933" lon="-1.36024">
        <ele>66</ele>
        <time>2020-12-20T08:17:10.244000+00:00</time>
      </trkpt>
      <trkpt lat="0" lon="0">
        <time>2020-12-20T08:17:10.251000+00:00</time>
      </trkpt>
      <trkpt lat="0" lon="0">
        <time>2020-12-20T08:17:10.259000+00:00</time>
      </trkpt>
      <trkpt lat="0" lon="0">
        <time>2020-12-20T08:17:10.264000+00:00</time>
      </trkpt>
      <trkpt lat="47.29936" lon="-1.36017">
        <ele>66</ele>
        <time>2020-12-20T08:17:11.288000+00:00</time>
      </trkpt>
      <trkpt lat="0" lon="0">
        <time>2020-12-20T08:17:11.300000+00:00</time>
      </trkpt>
      <trkpt lat="0" lon="0">
        <time>2020-12-20T08:17:11.305000+00:00</time>
      </trkpt>
      <trkpt lat="0" lon="0">
        <time>2020-12-20T08:17:11.307000+00:00</time>
      </trkpt>
      <trkpt lat="47.29938" lon="-1.3601">
        <ele>66</ele>
        <time>2020-12-20T08:17:12.272000+00:00</time>
      </trkpt>
      <trkpt lat="0" lon="0">
        <time>2020-12-20T08:17:12.277000+00:00</time>
      </trkpt>
      <trkpt lat="0" lon="0">
        <time>2020-12-20T08:17:12.283000+00:00</time>
      </trkpt>
      <trkpt lat="0" lon="0">
        <time>2020-12-20T08:17:12.286000+00:00</time>
      </trkpt>
      <trkpt lat="47.2994" lon="-1.36003">
        <ele>66</ele>
        <time>2020-12-20T08:17:13.212000+00:00</time>
      </trkpt>
      <trkpt lat="0" lon="0">
        <time>2020-12-20T08:17:13.215000+00:00</time>
      </trkpt>
      <trkpt lat="0" lon="0">
        <time>2020-12-20T08:17:13.217000+00:00</time>
      </trkpt>
      <trkpt lat="0" lon="0">
        <time>2020-12-20T08:17:13.218000+00:00</time>
      </trkpt>
      <trkpt lat="47.29942" lon="-1.35996">
        <ele>65</ele>
        <time>2020-12-20T08:17:14.240000+00:00</time>
      </trkpt>
      <trkpt lat="0" lon="0">
        <time>2020-12-20T08:17:14.248000+00:00</time>
      </trkpt>
      <trkpt lat="0" lon="0">
        <time>2020-12-20T08:17:14.254000+00:00</time>
      </trkpt>
      <trkpt lat="0" lon="0">
        <time>2020-12-20T08:17:14.257000+00:00</time>
      </trkpt>
      <trkpt lat="47.29943" lon="-1.35989">
        <ele>66</ele>
        <time>2020-12-20T08:17:15.275000+00:00</time>
      </trkpt>
      <trkpt lat="0" lon="0">
        <time>2020-12-20T08:17:15.279000+00:00</time>
      </trkpt>
      <trkpt lat="0" lon="0">
        <time>2020-12-20T08:17:15.284000+00:00</time>
      </trkpt>
      <trkpt lat="0" lon="0">
        <time>2020-12-20T08:17:15.285000+00:00</time>
      </trkpt>
      <trkpt lat="47.29945" lon="-1.35982">
        <ele>66</ele>
        <time>2020-12-20T08:17:16.231000+00:00</time>
      </trkpt>
      <trkpt lat="0" lon="0">
        <time>2020-12-20T08:17:16.243000+00:00</time>
      </trkpt>
      <trkpt lat="0" lon="0">
        <time>2020-12-20T08:17:16.253000+00:00</time>
      </trkpt>
      <trkpt lat="0" lon="0">
        <time>2020-12-20T08:17:16.259000+00:00</time>
      </trkpt>
      <trkpt lat="47.29948" lon="-1.35975">
        <ele>66</ele>
        <time>2020-12-20T08:17:17.269000+00:00</time>
      </trkpt>
      <trkpt lat="0" lon="0">
        <time>2020-12-20T08:17:17.279000+00:00</time>
      </trkpt>
      <trkpt lat="0" lon="0">
        <time>2020-12-20T08:17:17.287000+00:00</time>
      </trkpt>
      <trkpt lat="0" lon="0">
        <time>2020-12-20T08:17:17.289000+00:00</time>
      </trkpt>
      <trkpt lat="47.2995" lon="-1.35968">
        <ele>66</ele>
        <time>2020-12-20T08:17:18.203000+00:00</time>
      </trkpt>
      <trkpt lat="0" lon="0">
        <time>2020-12-20T08:17:18.215000+00:00</time>
      </trkpt>
      <trkpt lat="0" lon="0">
        <time>2020-12-20T08:17:18.219000+00:00</time>
      </trkpt>
      <trkpt lat="0" lon="0">
        <time>2020-12-20T08:17:18.222000+00:00</time>
      </trkpt>
      <trkpt lat="47.29954" lon="-1.35962">
        <ele>66</ele>
        <time>2020-12-20T08:17:19.226000+00:00</time>
      </trkpt>
      <trkpt lat="0" lon="0">
        <time>2020-12-20T08:17:19.232000+00:00</time>
      </trkpt>
      <trkpt lat="0" lon="0">
        <time>2020-12-20T08:17:19.241000+00:00</time>
      </trkpt>
      <trkpt lat="0" lon="0">
        <time>2020-12-20T08:17:19.246000+00:00</time>
      </trkpt>
      <trkpt lat="47.29957" lon="-1.35956">
        <ele>66</ele>
        <time>2020-12-20T08:17:20.257000+00:00</time>
      </trkpt>
      <trkpt lat="0" lon="0">
        <time>2020-12-20T08:17:20.266000+00:00</time>
      </trkpt>
      <trkpt lat="0" lon="0">
        <time>2020-12-20T08:17:20.271000+00:00</time>
      </trkpt>
      <trkpt lat="0" lon="0">
        <time>2020-12-20T08:17:20.274000+00:00</time>
      </trkpt>
      <trkpt lat="47.29961" lon="-1.35949">
        <ele>66</ele>
        <time>2020-12-20T08:17:21.217000+00:00</time>
      </trkpt>
      <trkpt lat="0" lon="0">
        <time>2020-12-20T08:17:21.223000+00:00</time>
      </trkpt>
      <trkpt lat="0" lon="0">
        <time>2020-12-20T08:17:21.228000+00:00</time>
      </trkpt>
      <trkpt lat="0" lon="0">
        <time>2020-12-20T08:17:21.230000+00:00</time>
      </trkpt>
      <trkpt lat="47.29965" lon="-1.35944">
        <ele>66</ele>
        <time>2020-12-20T08:17:22.252000+00:00</time>
      </trkpt>
      <trkpt lat="0" lon="0">
        <time>2020-12-20T08:17:22.261000+00:00</time>
      </trkpt>
      <trkpt lat="0" lon="0">
        <time>2020-12-20T08:17:22.275000+00:00</time>
      </trkpt>
      <trkpt lat="0" lon="0">
        <time>2020-12-20T08:17:22.277000+00:00</time>
      </trkpt>
      <trkpt lat="47.29969" lon="-1.35938">
        <ele>65</ele>
        <time>2020-12-20T08:17:23.219000+00:00</time>
      </trkpt>
      <trkpt lat="0" lon="0">
        <time>2020-12-20T08:17:23.223000+00:00</time>
      </trkpt>
      <trkpt lat="0" lon="0">
        <time>2020-12-20T08:17:23.231000+00:00</time>
      </trkpt>
      <trkpt lat="0" lon="0">
        <time>2020-12-20T08:17:23.233000+00:00</time>
      </trkpt>
      <trkpt lat="47.29973" lon="-1.35932">
        <ele>66</ele>
        <time>2020-12-20T08:17:24.223000+00:00</time>
      </trkpt>
      <trkpt lat="0" lon="0">
        <time>2020-12-20T08:17:24.232000+00:00</time>
      </trkpt>
      <trkpt lat="0" lon="0">
        <time>2020-12-20T08:17:24.236000+00:00</time>
      </trkpt>
      <trkpt lat="0" lon="0">
        <time>2020-12-20T08:17:24.240000+00:00</time>
      </trkpt>
      <trkpt lat="47.29977" lon="-1.35926">
        <ele>66</ele>
        <time>2020-12-20T08:17:25.262000+00:00</time>
      </trkpt>
      <trkpt lat="0" lon="0">
        <time>2020-12-20T08:17:25.280000+00:00</time>
      </trkpt>
      <trkpt lat="0" lon="0">
        <time>2020-12-20T08:17:25.284000+00:00</time>
      </trkpt>
      <trkpt lat="0" lon="0">
        <time>2020-12-20T08:17:25.287000+00:00</time>
      </trkpt>
      <trkpt lat="47.2998" lon="-1.3592">
        <ele>66</ele>
        <time>2020-12-20T08:17:26.263000+00:00</time>
      </trkpt>
      <trkpt lat="0" lon="0">
        <time>2020-12-20T08:17:26.274000+00:00</time>
      </trkpt>
      <trkpt lat="0" lon="0">
        <time>2020-12-20T08:17:26.276000+00:00</time>
      </trkpt>
      <trkpt lat="0" lon="0">
        <time>2020-12-20T08:17:26.277000+00:00</time>
      </trkpt>
      <trkpt lat="47.29984" lon="-1.35914">
        <ele>67</ele>
        <time>2020-12-20T08:17:27.242000+00:00</time>
      </trkpt>
      <trkpt lat="0" lon="0">
        <time>2020-12-20T08:17:27.262000+00:00</time>
      </trkpt>
      <trkpt lat="0" lon="0">
        <time>2020-12-20T08:17:27.271000+00:00</time>
      </trkpt>
      <trkpt lat="0" lon="0">
        <time>2020-12-20T08:17:27.273000+00:00</time>
      </trkpt>
      <trkpt lat="47.29987" lon="-1.35907">
        <ele>67</ele>
        <time>2020-12-20T08:17:28.239000+00:00</time>
      </trkpt>
      <trkpt lat="0" lon="0">
        <time>2020-12-20T08:17:28.262000+00:00</time>
      </trkpt>
      <trkpt lat="0" lon="0">
        <time>2020-12-20T08:17:28.266000+00:00</time>
      </trkpt>
      <trkpt lat="0" lon="0">
        <time>2020-12-20T08:17:28.269000+00:00</time>
      </trkpt>
      <trkpt lat="47.29991" lon="-1.35901">
        <ele>67</ele>
        <time>2020-12-20T08:17:29.276000+00:00</time>
      </trkpt>
      <trkpt lat="0" lon="0">
        <time>2020-12-20T08:17:29.283000+00:00</time>
      </trkpt>
      <trkpt lat="0" lon="0">
        <time>2020-12-20T08:17:29.290000+00:00</time>
      </trkpt>
      <trkpt lat="0" lon="0">
        <time>2020-12-20T08:17:29.293000+00:00</time>
      </trkpt>
      <trkpt lat="47.29994" lon="-1.35895">
        <ele>67</ele>
        <time>2020-12-20T08:17:30.272000+00:00</time>
      </trkpt>
      <trkpt lat="0" lon="0">
        <time>2020-12-20T08:17:30.283000+00:00</time>
      </trkpt>
      <trkpt lat="0" lon="0">
        <time>2020-12-20T08:17:30.288000+00:00</time>
      </trkpt>
      <trkpt lat="0" lon="0">
        <time>2020-12-20T08:17:30.290000+00:00</time>
      </trkpt>
      <trkpt lat="47.29998" lon="-1.35889">
        <ele>67</ele>
        <time>2020-12-20T08:17:31.259000+00:00</time>
      </trkpt>
      <trkpt lat="0" lon="0">
        <time>2020-12-20T08:17:31.265000+00:00</time>
      </trkpt>
      <trkpt lat="0" lon="0">
        <time>2020-12-20T08:17:31.270000+00:00</time>
      </trkpt>
      <trkpt lat="0" lon="0">
        <time>2020-12-20T08:17:31.275000+00:00</time>
      </trkpt>
      <trkpt lat="47.30001" lon="-1.35883">
        <ele>68</ele>
        <time>2020-12-20T08:17:32.299000+00:00</time>
      </trkpt>
      <trkpt lat="0" lon="0">
        <time>2020-12-20T08:17:32.307000+00:00</time>
      </trkpt>
      <trkpt lat="0" lon="0">
        <time>2020-12-20T08:17:32.309000+00:00</time>
      </trkpt>
      <trkpt lat="0" lon="0">
        <time>2020-12-20T08:17:32.310000+00:00</time>
      </trkpt>
      <trkpt lat="47.30004" lon="-1.35877">
        <ele>68</ele>
        <time>2020-12-20T08:17:33.284000+00:00</time>
      </trkpt>
      <trkpt lat="0" lon="0">
        <time>2020-12-20T08:17:33.293000+00:00</time>
      </trkpt>
      <trkpt lat="0" lon="0">
        <time>2020-12-20T08:17:33.307000+00:00</time>
      </trkpt>
      <trkpt lat="0" lon="0">
        <time>2020-12-20T08:17:33.313000+00:00</time>
      </trkpt>
      <trkpt lat="47.30007" lon="-1.35871">
        <ele>68</ele>
        <time>2020-12-20T08:17:34.270000+00:00</time>
      </trkpt>
      <trkpt lat="0" lon="0">
        <time>2020-12-20T08:17:34.276000+00:00</time>
      </trkpt>
      <trkpt lat="0" lon="0">
        <time>2020-12-20T08:17:34.280000+00:00</time>
      </trkpt>
      <trkpt lat="0" lon="0">
        <time>2020-12-20T08:17:34.284000+00:00</time>
      </trkpt>
      <trkpt lat="47.3001" lon="-1.35865">
        <ele>68</ele>
        <time>2020-12-20T08:17:35.262000+00:00</time>
      </trkpt>
      <trkpt lat="0" lon="0">
        <time>2020-12-20T08:17:35.271000+00:00</time>
      </trkpt>
      <trkpt lat="0" lon="0">
        <time>2020-12-20T08:17:35.276000+00:00</time>
      </trkpt>
      <trkpt lat="0" lon="0">
        <time>2020-12-20T08:17:35.279000+00:00</time>
      </trkpt>
      <trkpt lat="47.30013" lon="-1.35859">
        <ele>68</ele>
        <time>2020-12-20T08:17:36.261000+00:00</time>
      </trkpt>
      <trkpt lat="0" lon="0">
        <time>2020-12-20T08:17:36.273000+00:00</time>
      </trkpt>
      <trkpt lat="0" lon="0">
        <time>2020-12-20T08:17:36.278000+00:00</time>
      </trkpt>
      <trkpt lat="0" lon="0">
        <time>2020-12-20T08:17:36.281000+00:00</time>
      </trkpt>
      <trkpt lat="47.30015" lon="-1.35853">
        <ele>67</ele>
        <time>2020-12-20T08:17:37.256000+00:00</time>
      </trkpt>
      <trkpt lat="0" lon="0">
        <time>2020-12-20T08:17:37.267000+00:00</time>
      </trkpt>
      <trkpt lat="0" lon="0">
        <time>2020-12-20T08:17:37.271000+00:00</time>
      </trkpt>
      <trkpt lat="0" lon="0">
        <time>2020-12-20T08:17:37.273000+00:00</time>
      </trkpt>
      <trkpt lat="47.30018" lon="-1.35847">
        <ele>67</ele>
        <time>2020-12-20T08:17:38.258000+00:00</time>
      </trkpt>
      <trkpt lat="0" lon="0">
        <time>2020-12-20T08:17:38.266000+00:00</time>
      </trkpt>
      <trkpt lat="0" lon="0">
        <time>2020-12-20T08:17:38.274000+00:00</time>
      </trkpt>
      <trkpt lat="0" lon="0">
        <time>2020-12-20T08:17:38.281000+00:00</time>
      </trkpt>
      <trkpt lat="47.30021" lon="-1.35842">
        <ele>67</ele>
        <time>2020-12-20T08:17:39.266000+00:00</time>
      </trkpt>
      <trkpt lat="0" lon="0">
        <time>2020-12-20T08:17:39.275000+00:00</time>
      </trkpt>
      <trkpt lat="0" lon="0">
        <time>2020-12-20T08:17:39.283000+00:00</time>
      </trkpt>
      <trkpt lat="0" lon="0">
        <time>2020-12-20T08:17:39.287000+00:00</time>
      </trkpt>
      <trkpt lat="47.30024" lon="-1.35836">
        <ele>67</ele>
        <time>2020-12-20T08:17:40.270000+00:00</time>
      </trkpt>
      <trkpt lat="0" lon="0">
        <time>2020-12-20T08:17:40.288000+00:00</time>
      </trkpt>
      <trkpt lat="0" lon="0">
        <time>2020-12-20T08:17:40.292000+00:00</time>
      </trkpt>
      <trkpt lat="0" lon="0">
        <time>2020-12-20T08:17:40.295000+00:00</time>
      </trkpt>
      <trkpt lat="47.30027" lon="-1.3583">
        <ele>67</ele>
        <time>2020-12-20T08:17:41.247000+00:00</time>
      </trkpt>
      <trkpt lat="0" lon="0">
        <time>2020-12-20T08:17:41.270000+00:00</time>
      </trkpt>
      <trkpt lat="0" lon="0">
        <time>2020-12-20T08:17:41.272000+00:00</time>
      </trkpt>
      <trkpt lat="0" lon="0">
        <time>2020-12-20T08:17:41.273000+00:00</time>
      </trkpt>
      <trkpt lat="47.30031" lon="-1.35824">
        <ele>67</ele>
        <time>2020-12-20T08:17:42.281000+00:00</time>
      </trkpt>
      <trkpt lat="0" lon="0">
        <time>2020-12-20T08:17:42.293000+00:00</time>
      </trkpt>
      <trkpt lat="0" lon="0">
        <time>2020-12-20T08:17:42.298000+00:00</time>
      </trkpt>
      <trkpt lat="0" lon="0">
        <time>2020-12-20T08:17:42.301000+00:00</time>
      </trkpt>
      <trkpt lat="47.30033" lon="-1.35818">
        <ele>67</ele>
        <time>2020-12-20T08:17:43.254000+00:00</time>
      </trkpt>
      <trkpt lat="0" lon="0">
        <time>2020-12-20T08:17:43.257000+00:00</time>
      </trkpt>
      <trkpt lat="0" lon="0">
        <time>2020-12-20T08:17:43.260000+00:00</time>
      </trkpt>
      <trkpt lat="0" lon="0">
        <time>2020-12-20T08:17:43.261000+00:00</time>
      </trkpt>
      <trkpt lat="47.30036" lon="-1.35811">
        <ele>67</ele>
        <time>2020-12-20T08:17:44.248000+00:00</time>
      </trkpt>
      <trkpt lat="0" lon="0">
        <time>2020-12-20T08:17:44.254000+00:00</time>
      </trkpt>
      <trkpt lat="0" lon="0">
        <time>2020-12-20T08:17:44.261000+00:00</time>
      </trkpt>
      <trkpt lat="0" lon="0">
        <time>2020-12-20T08:17:44.264000+00:00</time>
      </trkpt>
      <trkpt lat="47.3004" lon="-1.35805">
        <ele>67</ele>
        <time>2020-12-20T08:17:45.257000+00:00</time>
      </trkpt>
      <trkpt lat="0" lon="0">
        <time>2020-12-20T08:17:45.275000+00:00</time>
      </trkpt>
      <trkpt lat="0" lon="0">
        <time>2020-12-20T08:17:45.286000+00:00</time>
      </trkpt>
      <trkpt lat="0" lon="0">
        <time>2020-12-20T08:17:45.289000+00:00</time>
      </trkpt>
      <trkpt lat="47.30043" lon="-1.35799">
        <ele>67</ele>
        <time>2020-12-20T08:17:46.258000+00:00</time>
      </trkpt>
      <trkpt lat="0" lon="0">
        <time>2020-12-20T08:17:46.264000+00:00</time>
      </trkpt>
      <trkpt lat="0" lon="0">
        <time>2020-12-20T08:17:46.270000+00:00</time>
      </trkpt>
      <trkpt lat="0" lon="0">
        <time>2020-12-20T08:17:46.273000+00:00</time>
      </trkpt>
      <trkpt lat="47.30046" lon="-1.35792">
        <ele>68</ele>
        <time>2020-12-20T08:17:47.258000+00:00</time>
      </trkpt>
      <trkpt lat="0" lon="0">
        <time>2020-12-20T08:17:47.275000+00:00</time>
      </trkpt>
      <trkpt lat="0" lon="0">
        <time>2020-12-20T08:17:47.282000+00:00</time>
      </trkpt>
      <trkpt lat="0" lon="0">
        <time>2020-12-20T08:17:47.284000+00:00</time>
      </trkpt>
      <trkpt lat="47.30049" lon="-1.35786">
        <ele>68</ele>
        <time>2020-12-20T08:17:48.219000+00:00</time>
      </trkpt>
      <trkpt lat="0" lon="0">
        <time>2020-12-20T08:17:48.230000+00:00</time>
      </trkpt>
      <trkpt lat="0" lon="0">
        <time>2020-12-20T08:17:48.236000+00:00</time>
      </trkpt>
      <trkpt lat="0" lon="0">
        <time>2020-12-20T08:17:48.240000+00:00</time>
      </trkpt>
      <trkpt lat="47.30053" lon="-1.3578">
        <ele>68</ele>
        <time>2020-12-20T08:17:49.232000+00:00</time>
      </trkpt>
      <trkpt lat="0" lon="0">
        <time>2020-12-20T08:17:49.244000+00:00</time>
      </trkpt>
      <trkpt lat="0" lon="0">
        <time>2020-12-20T08:17:49.246000+00:00</time>
      </trkpt>
      <trkpt lat="0" lon="0">
        <time>2020-12-20T08:17:49.247000+00:00</time>
      </trkpt>
      <trkpt lat="47.30056" lon="-1.35774">
        <ele>67</ele>
        <time>2020-12-20T08:17:50.260000+00:00</time>
      </trkpt>
      <trkpt lat="0" lon="0">
        <time>2020-12-20T08:17:50.269000+00:00</time>
      </trkpt>
      <trkpt lat="0" lon="0">
        <time>2020-12-20T08:17:50.275000+00:00</time>
      </trkpt>
      <trkpt lat="0" lon="0">
        <time>2020-12-20T08:17:50.277000+00:00</time>
      </trkpt>
      <trkpt lat="47.30059" lon="-1.35768">
        <ele>67</ele>
        <time>2020-12-20T08:17:51.264000+00:00</time>
      </trkpt>
      <trkpt lat="0" lon="0">
        <time>2020-12-20T08:17:51.279000+00:00</time>
      </trkpt>
      <trkpt lat="0" lon="0">
        <time>2020-12-20T08:17:51.289000+00:00</time>
      </trkpt>
      <trkpt lat="0" lon="0">
        <time>2020-12-20T08:17:51.292000+00:00</time>
      </trkpt>
      <trkpt lat="47.30063" lon="-1.35761">
        <ele>67</ele>
        <time>2020-12-20T08:17:52.255000+00:00</time>
      </trkpt>
      <trkpt lat="0" lon="0">
        <time>2020-12-20T08:17:52.273000+00:00</time>
      </trkpt>
      <trkpt lat="0" lon="0">
        <time>2020-12-20T08:17:52.286000+00:00</time>
      </trkpt>
      <trkpt lat="0" lon="0">
        <time>2020-12-20T08:17:52.289000+00:00</time>
      </trkpt>
      <trkpt lat="47.30066" lon="-1.35755">
        <ele>67</ele>
        <time>2020-12-20T08:17:53.262000+00:00</time>
      </trkpt>
      <trkpt lat="0" lon="0">
        <time>2020-12-20T08:17:53.271000+00:00</time>
      </trkpt>
      <trkpt lat="0" lon="0">
        <time>2020-12-20T08:17:53.276000+00:00</time>
      </trkpt>
      <trkpt lat="0" lon="0">
        <time>2020-12-20T08:17:53.278000+00:00</time>
      </trkpt>
      <trkpt lat="47.30069" lon="-1.35749">
        <ele>67</ele>
        <time>2020-12-20T08:17:54.223000+00:00</time>
      </trkpt>
      <trkpt lat="0" lon="0">
        <time>2020-12-20T08:17:54.231000+00:00</time>
      </trkpt>
      <trkpt lat="0" lon="0">
        <time>2020-12-20T08:17:54.242000+00:00</time>
      </trkpt>
      <trkpt lat="0" lon="0">
        <time>2020-12-20T08:17:54.245000+00:00</time>
      </trkpt>
      <trkpt lat="47.30073" lon="-1.35742">
        <ele>67</ele>
        <time>2020-12-20T08:17:55.248000+00:00</time>
      </trkpt>
      <trkpt lat="0" lon="0">
        <time>2020-12-20T08:17:55.250000+00:00</time>
      </trkpt>
      <trkpt lat="0" lon="0">
        <time>2020-12-20T08:17:55.251000+00:00</time>
      </trkpt>
      <trkpt lat="0" lon="0">
        <time>2020-12-20T08:17:55.252000+00:00</time>
      </trkpt>
      <trkpt lat="47.30076" lon="-1.35736">
        <ele>67</ele>
        <time>2020-12-20T08:17:56.274000+00:00</time>
      </trkpt>
      <trkpt lat="0" lon="0">
        <time>2020-12-20T08:17:56.282000+00:00</time>
      </trkpt>
      <trkpt lat="0" lon="0">
        <time>2020-12-20T08:17:56.287000+00:00</time>
      </trkpt>
      <trkpt lat="0" lon="0">
        <time>2020-12-20T08:17:56.290000+00:00</time>
      </trkpt>
      <trkpt lat="47.30079" lon="-1.3573">
        <ele>67</ele>
        <time>2020-12-20T08:17:57.249000+00:00</time>
      </trkpt>
      <trkpt lat="0" lon="0">
        <time>2020-12-20T08:17:57.256000+00:00</time>
      </trkpt>
      <trkpt lat="0" lon="0">
        <time>2020-12-20T08:17:57.258000+00:00</time>
      </trkpt>
      <trkpt lat="0" lon="0">
        <time>2020-12-20T08:17:57.259000+00:00</time>
      </trkpt>
      <trkpt lat="47.30082" lon="-1.35724">
        <ele>67</ele>
        <time>2020-12-20T08:17:58.250000+00:00</time>
      </trkpt>
      <trkpt lat="0" lon="0">
        <time>2020-12-20T08:17:58.263000+00:00</time>
      </trkpt>
      <trkpt lat="0" lon="0">
        <time>2020-12-20T08:17:58.276000+00:00</time>
      </trkpt>
      <trkpt lat="0" lon="0">
        <time>2020-12-20T08:17:58.284000+00:00</time>
      </trkpt>
      <trkpt lat="47.30085" lon="-1.35717">
        <ele>67</ele>
        <time>2020-12-20T08:17:59.253000+00:00</time>
      </trkpt>
      <trkpt lat="0" lon="0">
        <time>2020-12-20T08:17:59.257000+00:00</time>
      </trkpt>
      <trkpt lat="0" lon="0">
        <time>2020-12-20T08:17:59.266000+00:00</time>
      </trkpt>
      <trkpt lat="0" lon="0">
        <time>2020-12-20T08:17:59.268000+00:00</time>
      </trkpt>
      <trkpt lat="47.30088" lon="-1.35711">
        <ele>67</ele>
        <time>2020-12-20T08:18:00.245000+00:00</time>
      </trkpt>
      <trkpt lat="0" lon="0">
        <time>2020-12-20T08:18:00.260000+00:00</time>
      </trkpt>
      <trkpt lat="0" lon="0">
        <time>2020-12-20T08:18:00.264000+00:00</time>
      </trkpt>
      <trkpt lat="0" lon="0">
        <time>2020-12-20T08:18:00.267000+00:00</time>
      </trkpt>
      <trkpt lat="47.30091" lon="-1.35704">
        <ele>66</ele>
        <time>2020-12-20T08:18:01.230000+00:00</time>
      </trkpt>
      <trkpt lat="0" lon="0">
        <time>2020-12-20T08:18:01.242000+00:00</time>
      </trkpt>
      <trkpt lat="0" lon="0">
        <time>2020-12-20T08:18:01.250000+00:00</time>
      </trkpt>
      <trkpt lat="0" lon="0">
        <time>2020-12-20T08:18:01.252000+00:00</time>
      </trkpt>
      <trkpt lat="47.30093" lon="-1.35697">
        <ele>66</ele>
        <time>2020-12-20T08:18:02.251000+00:00</time>
      </trkpt>
      <trkpt lat="0" lon="0">
        <time>2020-12-20T08:18:02.263000+00:00</time>
      </trkpt>
      <trkpt lat="0" lon="0">
        <time>2020-12-20T08:18:02.268000+00:00</time>
      </trkpt>
      <trkpt lat="0" lon="0">
        <time>2020-12-20T08:18:02.270000+00:00</time>
      </trkpt>
      <trkpt lat="47.30096" lon="-1.35691">
        <ele>66</ele>
        <time>2020-12-20T08:18:03.258000+00:00</time>
      </trkpt>
      <trkpt lat="0" lon="0">
        <time>2020-12-20T08:18:03.270000+00:00</time>
      </trkpt>
      <trkpt lat="0" lon="0">
        <time>2020-12-20T08:18:03.274000+00:00</time>
      </trkpt>
      <trkpt lat="0" lon="0">
        <time>2020-12-20T08:18:03.278000+00:00</time>
      </trkpt>
      <trkpt lat="47.30099" lon="-1.35684">
        <ele>66</ele>
        <time>2020-12-20T08:18:04.256000+00:00</time>
      </trkpt>
      <trkpt lat="0" lon="0">
        <time>2020-12-20T08:18:04.262000+00:00</time>
      </trkpt>
      <trkpt lat="0" lon="0">
        <time>2020-12-20T08:18:04.276000+00:00</time>
      </trkpt>
      <trkpt lat="0" lon="0">
        <time>2020-12-20T08:18:04.284000+00:00</time>
      </trkpt>
      <trkpt lat="47.30102" lon="-1.35677">
        <ele>66</ele>
        <time>2020-12-20T08:18:05.268000+00:00</time>
      </trkpt>
      <trkpt lat="0" lon="0">
        <time>2020-12-20T08:18:05.288000+00:00</time>
      </trkpt>
      <trkpt lat="0" lon="0">
        <time>2020-12-20T08:18:05.295000+00:00</time>
      </trkpt>
      <trkpt lat="0" lon="0">
        <time>2020-12-20T08:18:05.298000+00:00</time>
      </trkpt>
      <trkpt lat="47.30104" lon="-1.35671">
        <ele>66</ele>
        <time>2020-12-20T08:18:06.273000+00:00</time>
      </trkpt>
      <trkpt lat="0" lon="0">
        <time>2020-12-20T08:18:06.278000+00:00</time>
      </trkpt>
      <trkpt lat="0" lon="0">
        <time>2020-12-20T08:18:06.287000+00:00</time>
      </trkpt>
      <trkpt lat="0" lon="0">
        <time>2020-12-20T08:18:06.289000+00:00</time>
      </trkpt>
      <trkpt lat="47.30107" lon="-1.35664">
        <ele>66</ele>
        <time>2020-12-20T08:18:07.204000+00:00</time>
      </trkpt>
      <trkpt lat="0" lon="0">
        <time>2020-12-20T08:18:07.210000+00:00</time>
      </trkpt>
      <trkpt lat="0" lon="0">
        <time>2020-12-20T08:18:07.213000+00:00</time>
      </trkpt>
      <trkpt lat="0" lon="0">
        <time>2020-12-20T08:18:07.214000+00:00</time>
      </trkpt>
      <trkpt lat="47.3011" lon="-1.35658">
        <ele>66</ele>
        <time>2020-12-20T08:18:08.260000+00:00</time>
      </trkpt>
      <trkpt lat="0" lon="0">
        <time>2020-12-20T08:18:08.266000+00:00</time>
      </trkpt>
      <trkpt lat="0" lon="0">
        <time>2020-12-20T08:18:08.272000+00:00</time>
      </trkpt>
      <trkpt lat="0" lon="0">
        <time>2020-12-20T08:18:08.283000+00:00</time>
      </trkpt>
      <trkpt lat="47.30112" lon="-1.35651">
        <ele>66</ele>
        <time>2020-12-20T08:18:09.280000+00:00</time>
      </trkpt>
      <trkpt lat="0" lon="0">
        <time>2020-12-20T08:18:09.301000+00:00</time>
      </trkpt>
      <trkpt lat="0" lon="0">
        <time>2020-12-20T08:18:09.313000+00:00</time>
      </trkpt>
      <trkpt lat="0" lon="0">
        <time>2020-12-20T08:18:09.317000+00:00</time>
      </trkpt>
      <trkpt lat="47.30115" lon="-1.35644">
        <ele>66</ele>
        <time>2020-12-20T08:18:10.211000+00:00</time>
      </trkpt>
      <trkpt lat="0" lon="0">
        <time>2020-12-20T08:18:10.214000+00:00</time>
      </trkpt>
      <trkpt lat="0" lon="0">
        <time>2020-12-20T08:18:10.218000+00:00</time>
      </trkpt>
      <trkpt lat="0" lon="0">
        <time>2020-12-20T08:18:10.221000+00:00</time>
      </trkpt>
      <trkpt lat="47.30118" lon="-1.35638">
        <ele>66</ele>
        <time>2020-12-20T08:18:11.247000+00:00</time>
      </trkpt>
      <trkpt lat="0" lon="0">
        <time>2020-12-20T08:18:11.263000+00:00</time>
      </trkpt>
      <trkpt lat="0" lon="0">
        <time>2020-12-20T08:18:11.267000+00:00</time>
      </trkpt>
      <trkpt lat="0" lon="0">
        <time>2020-12-20T08:18:11.272000+00:00</time>
      </trkpt>
      <trkpt lat="47.30121" lon="-1.35632">
        <ele>66</ele>
        <time>2020-12-20T08:18:12.220000+00:00</time>
      </trkpt>
      <trkpt lat="0" lon="0">
        <time>2020-12-20T08:18:12.240000+00:00</time>
      </trkpt>
      <trkpt lat="0" lon="0">
        <time>2020-12-20T08:18:12.247000+00:00</time>
      </trkpt>
      <trkpt lat="0" lon="0">
        <time>2020-12-20T08:18:12.253000+00:00</time>
      </trkpt>
      <trkpt lat="47.30123" lon="-1.35626">
        <ele>66</ele>
        <time>2020-12-20T08:18:13.259000+00:00</time>
      </trkpt>
      <trkpt lat="0" lon="0">
        <time>2020-12-20T08:18:13.279000+00:00</time>
      </trkpt>
      <trkpt lat="0" lon="0">
        <time>2020-12-20T08:18:13.291000+00:00</time>
      </trkpt>
      <trkpt lat="0" lon="0">
        <time>2020-12-20T08:18:13.293000+00:00</time>
      </trkpt>
      <trkpt lat="47.30126" lon="-1.35619">
        <ele>66</ele>
        <time>2020-12-20T08:18:14.276000+00:00</time>
      </trkpt>
      <trkpt lat="0" lon="0">
        <time>2020-12-20T08:18:14.296000+00:00</time>
      </trkpt>
      <trkpt lat="0" lon="0">
        <time>2020-12-20T08:18:14.302000+00:00</time>
      </trkpt>
      <trkpt lat="0" lon="0">
        <time>2020-12-20T08:18:14.305000+00:00</time>
      </trkpt>
      <trkpt lat="47.30129" lon="-1.35613">
        <ele>66</ele>
        <time>2020-12-20T08:18:15.247000+00:00</time>
      </trkpt>
      <trkpt lat="0" lon="0">
        <time>2020-12-20T08:18:15.258000+00:00</time>
      </trkpt>
      <trkpt lat="0" lon="0">
        <time>2020-12-20T08:18:15.267000+00:00</time>
      </trkpt>
      <trkpt lat="0" lon="0">
        <time>2020-12-20T08:18:15.273000+00:00</time>
      </trkpt>
      <trkpt lat="47.30132" lon="-1.35607">
        <ele>66</ele>
        <time>2020-12-20T08:18:16.225000+00:00</time>
      </trkpt>
      <trkpt lat="0" lon="0">
        <time>2020-12-20T08:18:16.231000+00:00</time>
      </trkpt>
      <trkpt lat="0" lon="0">
        <time>2020-12-20T08:18:16.235000+00:00</time>
      </trkpt>
      <trkpt lat="0" lon="0">
        <time>2020-12-20T08:18:16.238000+00:00</time>
      </trkpt>
      <trkpt lat="47.30135" lon="-1.35601">
        <ele>66</ele>
        <time>2020-12-20T08:18:17.259000+00:00</time>
      </trkpt>
      <trkpt lat="0" lon="0">
        <time>2020-12-20T08:18:17.268000+00:00</time>
      </trkpt>
      <trkpt lat="0" lon="0">
        <time>2020-12-20T08:18:17.275000+00:00</time>
      </trkpt>
      <trkpt lat="0" lon="0">
        <time>2020-12-20T08:18:17.278000+00:00</time>
      </trkpt>
      <trkpt lat="47.30138" lon="-1.35595">
        <ele>66</ele>
        <time>2020-12-20T08:18:18.254000+00:00</time>
      </trkpt>
      <trkpt lat="0" lon="0">
        <time>2020-12-20T08:18:18.276000+00:00</time>
      </trkpt>
      <trkpt lat="0" lon="0">
        <time>2020-12-20T08:18:18.279000+00:00</time>
      </trkpt>
      <trkpt lat="0" lon="0">
        <time>2020-12-20T08:18:18.280000+00:00</time>
      </trkpt>
      <trkpt lat="47.30141" lon="-1.35589">
        <ele>66</ele>
        <time>2020-12-20T08:18:19.255000+00:00</time>
      </trkpt>
      <trkpt lat="0" lon="0">
        <time>2020-12-20T08:18:19.264000+00:00</time>
      </trkpt>
      <trkpt lat="0" lon="0">
        <time>2020-12-20T08:18:19.267000+00:00</time>
      </trkpt>
      <trkpt lat="0" lon="0">
        <time>2020-12-20T08:18:19.270000+00:00</time>
      </trkpt>
      <trkpt lat="47.30144" lon="-1.35582">
        <ele>66</ele>
        <time>2020-12-20T08:18:20.260000+00:00</time>
      </trkpt>
      <trkpt lat="0" lon="0">
        <time>2020-12-20T08:18:20.282000+00:00</time>
      </trkpt>
      <trkpt lat="0" lon="0">
        <time>2020-12-20T08:18:20.286000+00:00</time>
      </trkpt>
      <trkpt lat="0" lon="0">
        <time>2020-12-20T08:18:20.289000+00:00</time>
      </trkpt>
      <trkpt lat="47.30147" lon="-1.35576">
        <ele>66</ele>
        <time>2020-12-20T08:18:21.209000+00:00</time>
      </trkpt>
      <trkpt lat="0" lon="0">
        <time>2020-12-20T08:18:21.211000+00:00</time>
      </trkpt>
      <trkpt lat="0" lon="0">
        <time>2020-12-20T08:18:21.213000+00:00</time>
      </trkpt>
      <trkpt lat="0" lon="0">
        <time>2020-12-20T08:18:21.214000+00:00</time>
      </trkpt>
      <trkpt lat="47.3015" lon="-1.3557">
        <ele>66</ele>
        <time>2020-12-20T08:18:22.222000+00:00</time>
      </trkpt>
      <trkpt lat="0" lon="0">
        <time>2020-12-20T08:18:22.229000+00:00</time>
      </trkpt>
      <trkpt lat="0" lon="0">
        <time>2020-12-20T08:18:22.239000+00:00</time>
      </trkpt>
      <trkpt lat="0" lon="0">
        <time>2020-12-20T08:18:22.243000+00:00</time>
      </trkpt>
      <trkpt lat="47.30152" lon="-1.35563">
        <ele>66</ele>
        <time>2020-12-20T08:18:23.276000+00:00</time>
      </trkpt>
      <trkpt lat="0" lon="0">
        <time>2020-12-20T08:18:23.292000+00:00</time>
      </trkpt>
      <trkpt lat="0" lon="0">
        <time>2020-12-20T08:18:23.298000+00:00</time>
      </trkpt>
      <trkpt lat="0" lon="0">
        <time>2020-12-20T08:18:23.300000+00:00</time>
      </trkpt>
      <trkpt lat="47.30155" lon="-1.35557">
        <ele>66</ele>
        <time>2020-12-20T08:18:24.220000+00:00</time>
      </trkpt>
      <trkpt lat="0" lon="0">
        <time>2020-12-20T08:18:24.224000+00:00</time>
      </trkpt>
      <trkpt lat="0" lon="0">
        <time>2020-12-20T08:18:24.227000+00:00</time>
      </trkpt>
      <trkpt lat="0" lon="0">
        <time>2020-12-20T08:18:24.228000+00:00</time>
      </trkpt>
      <trkpt lat="47.30158" lon="-1.3555">
        <ele>67</ele>
        <time>2020-12-20T08:18:25.279000+00:00</time>
      </trkpt>
      <trkpt lat="0" lon="0">
        <time>2020-12-20T08:18:25.288000+00:00</time>
      </trkpt>
      <trkpt lat="0" lon="0">
        <time>2020-12-20T08:18:25.293000+00:00</time>
      </trkpt>
      <trkpt lat="0" lon="0">
        <time>2020-12-20T08:18:25.295000+00:00</time>
      </trkpt>
      <trkpt lat="47.3016" lon="-1.35544">
        <ele>66</ele>
        <time>2020-12-20T08:18:26.256000+00:00</time>
      </trkpt>
      <trkpt lat="0" lon="0">
        <time>2020-12-20T08:18:26.260000+00:00</time>
      </trkpt>
      <trkpt lat="0" lon="0">
        <time>2020-12-20T08:18:26.263000+00:00</time>
      </trkpt>
      <trkpt lat="0" lon="0">
        <time>2020-12-20T08:18:26.265000+00:00</time>
      </trkpt>
      <trkpt lat="47.30163" lon="-1.35537">
        <ele>67</ele>
        <time>2020-12-20T08:18:27.270000+00:00</time>
      </trkpt>
      <trkpt lat="0" lon="0">
        <time>2020-12-20T08:18:27.281000+00:00</time>
      </trkpt>
      <trkpt lat="0" lon="0">
        <time>2020-12-20T08:18:27.285000+00:00</time>
      </trkpt>
      <trkpt lat="0" lon="0">
        <time>2020-12-20T08:18:27.287000+00:00</time>
      </trkpt>
      <trkpt lat="47.30166" lon="-1.3553">
        <ele>67</ele>
        <time>2020-12-20T08:18:28.236000+00:00</time>
      </trkpt>
      <trkpt lat="0" lon="0">
        <time>2020-12-20T08:18:28.243000+00:00</time>
      </trkpt>
      <trkpt lat="0" lon="0">
        <time>2020-12-20T08:18:28.248000+00:00</time>
      </trkpt>
      <trkpt lat="0" lon="0">
        <time>2020-12-20T08:18:28.259000+00:00</time>
      </trkpt>
      <trkpt lat="47.30168" lon="-1.35524">
        <ele>67</ele>
        <time>2020-12-20T08:18:29.225000+00:00</time>
      </trkpt>
      <trkpt lat="0" lon="0">
        <time>2020-12-20T08:18:29.231000+00:00</time>
      </trkpt>
      <trkpt lat="0" lon="0">
        <time>2020-12-20T08:18:29.236000+00:00</time>
      </trkpt>
      <trkpt lat="0" lon="0">
        <time>2020-12-20T08:18:29.239000+00:00</time>
      </trkpt>
      <trkpt lat="47.30171" lon="-1.35517">
        <ele>67</ele>
        <time>2020-12-20T08:18:30.226000+00:00</time>
      </trkpt>
      <trkpt lat="0" lon="0">
        <time>2020-12-20T08:18:30.241000+00:00</time>
      </trkpt>
      <trkpt lat="0" lon="0">
        <time>2020-12-20T08:18:30.247000+00:00</time>
      </trkpt>
      <trkpt lat="0" lon="0">
        <time>2020-12-20T08:18:30.250000+00:00</time>
      </trkpt>
      <trkpt lat="47.30174" lon="-1.3551">
        <ele>67</ele>
        <time>2020-12-20T08:18:31.228000+00:00</time>
      </trkpt>
      <trkpt lat="0" lon="0">
        <time>2020-12-20T08:18:31.237000+00:00</time>
      </trkpt>
      <trkpt lat="0" lon="0">
        <time>2020-12-20T08:18:31.241000+00:00</time>
      </trkpt>
      <trkpt lat="0" lon="0">
        <time>2020-12-20T08:18:31.243000+00:00</time>
      </trkpt>
      <trkpt lat="47.30177" lon="-1.35504">
        <ele>67</ele>
        <time>2020-12-20T08:18:32.248000+00:00</time>
      </trkpt>
      <trkpt lat="0" lon="0">
        <time>2020-12-20T08:18:32.256000+00:00</time>
      </trkpt>
      <trkpt lat="0" lon="0">
        <time>2020-12-20T08:18:32.264000+00:00</time>
      </trkpt>
      <trkpt lat="0" lon="0">
        <time>2020-12-20T08:18:32.267000+00:00</time>
      </trkpt>
      <trkpt lat="47.3018" lon="-1.35497">
        <ele>67</ele>
        <time>2020-12-20T08:18:33.186000+00:00</time>
      </trkpt>
      <trkpt lat="0" lon="0">
        <time>2020-12-20T08:18:33.190000+00:00</time>
      </trkpt>
      <trkpt lat="0" lon="0">
        <time>2020-12-20T08:18:33.196000+00:00</time>
      </trkpt>
      <trkpt lat="47.30183" lon="-1.3549">
        <ele>66</ele>
        <time>2020-12-20T08:18:34.208000+00:00</time>
      </trkpt>
      <trkpt lat="0" lon="0">
        <time>2020-12-20T08:18:34.219000+00:00</time>
      </trkpt>
      <trkpt lat="0" lon="0">
        <time>2020-12-20T08:18:34.227000+00:00</time>
      </trkpt>
      <trkpt lat="0" lon="0">
        <time>2020-12-20T08:18:34.230000+00:00</time>
      </trkpt>
      <trkpt lat="47.30186" lon="-1.35483">
        <ele>66</ele>
        <time>2020-12-20T08:18:35.264000+00:00</time>
      </trkpt>
      <trkpt lat="0" lon="0">
        <time>2020-12-20T08:18:35.266000+00:00</time>
      </trkpt>
      <trkpt lat="0" lon="0">
        <time>2020-12-20T08:18:35.268000+00:00</time>
      </trkpt>
      <trkpt lat="0" lon="0">
        <time>2020-12-20T08:18:35.269000+00:00</time>
      </trkpt>
      <trkpt lat="47.30189" lon="-1.35476">
        <ele>66</ele>
        <time>2020-12-20T08:18:36.229000+00:00</time>
      </trkpt>
      <trkpt lat="0" lon="0">
        <time>2020-12-20T08:18:36.246000+00:00</time>
      </trkpt>
      <trkpt lat="0" lon="0">
        <time>2020-12-20T08:18:36.251000+00:00</time>
      </trkpt>
      <trkpt lat="0" lon="0">
        <time>2020-12-20T08:18:36.253000+00:00</time>
      </trkpt>
      <trkpt lat="47.30192" lon="-1.3547">
        <ele>67</ele>
        <time>2020-12-20T08:18:37.208000+00:00</time>
      </trkpt>
      <trkpt lat="0" lon="0">
        <time>2020-12-20T08:18:37.220000+00:00</time>
      </trkpt>
      <trkpt lat="0" lon="0">
        <time>2020-12-20T08:18:37.225000+00:00</time>
      </trkpt>
      <trkpt lat="0" lon="0">
        <time>2020-12-20T08:18:37.227000+00:00</time>
      </trkpt>
      <trkpt lat="47.30195" lon="-1.35463">
        <ele>66</ele>
        <time>2020-12-20T08:18:38.191000+00:00</time>
      </trkpt>
      <trkpt lat="0" lon="0">
        <time>2020-12-20T08:18:38.203000+00:00</time>
      </trkpt>
      <trkpt lat="0" lon="0">
        <time>2020-12-20T08:18:38.205000+00:00</time>
      </trkpt>
      <trkpt lat="0" lon="0">
        <time>2020-12-20T08:18:38.206000+00:00</time>
      </trkpt>
      <trkpt lat="47.30198" lon="-1.35456">
        <ele>67</ele>
        <time>2020-12-20T08:18:39.221000+00:00</time>
      </trkpt>
      <trkpt lat="0" lon="0">
        <time>2020-12-20T08:18:39.233000+00:00</time>
      </trkpt>
      <trkpt lat="0" lon="0">
        <time>2020-12-20T08:18:39.237000+00:00</time>
      </trkpt>
      <trkpt lat="0" lon="0">
        <time>2020-12-20T08:18:39.239000+00:00</time>
      </trkpt>
      <trkpt lat="47.30201" lon="-1.3545">
        <ele>66</ele>
        <time>2020-12-20T08:18:40.208000+00:00</time>
      </trkpt>
      <trkpt lat="0" lon="0">
        <time>2020-12-20T08:18:40.216000+00:00</time>
      </trkpt>
      <trkpt lat="0" lon="0">
        <time>2020-12-20T08:18:40.224000+00:00</time>
      </trkpt>
      <trkpt lat="0" lon="0">
        <time>2020-12-20T08:18:40.226000+00:00</time>
      </trkpt>
      <trkpt lat="47.30204" lon="-1.35443">
        <ele>67</ele>
        <time>2020-12-20T08:18:41.220000+00:00</time>
      </trkpt>
      <trkpt lat="0" lon="0">
        <time>2020-12-20T08:18:41.232000+00:00</time>
      </trkpt>
      <trkpt lat="0" lon="0">
        <time>2020-12-20T08:18:41.237000+00:00</time>
      </trkpt>
      <trkpt lat="0" lon="0">
        <time>2020-12-20T08:18:41.239000+00:00</time>
      </trkpt>
      <trkpt lat="47.30207" lon="-1.35436">
        <ele>67</ele>
        <time>2020-12-20T08:18:42.218000+00:00</time>
      </trkpt>
      <trkpt lat="0" lon="0">
        <time>2020-12-20T08:18:42.228000+00:00</time>
      </trkpt>
      <trkpt lat="0" lon="0">
        <time>2020-12-20T08:18:42.232000+00:00</time>
      </trkpt>
      <trkpt lat="0" lon="0">
        <time>2020-12-20T08:18:42.234000+00:00</time>
      </trkpt>
      <trkpt lat="47.3021" lon="-1.35429">
        <ele>67</ele>
        <time>2020-12-20T08:18:43.202000+00:00</time>
      </trkpt>
      <trkpt lat="0" lon="0">
        <time>2020-12-20T08:18:43.208000+00:00</time>
      </trkpt>
      <trkpt lat="0" lon="0">
        <time>2020-12-20T08:18:43.211000+00:00</time>
      </trkpt>
      <trkpt lat="0" lon="0">
        <time>2020-12-20T08:18:43.213000+00:00</time>
      </trkpt>
      <trkpt lat="47.30213" lon="-1.35422">
        <ele>67</ele>
        <time>2020-12-20T08:18:44.192000+00:00</time>
      </trkpt>
      <trkpt lat="0" lon="0">
        <time>2020-12-20T08:18:44.200000+00:00</time>
      </trkpt>
      <trkpt lat="0" lon="0">
        <time>2020-12-20T08:18:44.206000+00:00</time>
      </trkpt>
      <trkpt lat="0" lon="0">
        <time>2020-12-20T08:18:44.209000+00:00</time>
      </trkpt>
      <trkpt lat="47.30216" lon="-1.35415">
        <ele>67</ele>
        <time>2020-12-20T08:18:45.221000+00:00</time>
      </trkpt>
      <trkpt lat="0" lon="0">
        <time>2020-12-20T08:18:45.235000+00:00</time>
      </trkpt>
      <trkpt lat="0" lon="0">
        <time>2020-12-20T08:18:45.239000+00:00</time>
      </trkpt>
      <trkpt lat="0" lon="0">
        <time>2020-12-20T08:18:45.241000+00:00</time>
      </trkpt>
      <trkpt lat="47.30219" lon="-1.35408">
        <ele>67</ele>
        <time>2020-12-20T08:18:46.224000+00:00</time>
      </trkpt>
      <trkpt lat="0" lon="0">
        <time>2020-12-20T08:18:46.234000+00:00</time>
      </trkpt>
      <trkpt lat="0" lon="0">
        <time>2020-12-20T08:18:46.239000+00:00</time>
      </trkpt>
      <trkpt lat="0" lon="0">
        <time>2020-12-20T08:18:46.243000+00:00</time>
      </trkpt>
      <trkpt lat="47.30222" lon="-1.35401">
        <ele>67</ele>
        <time>2020-12-20T08:18:47.230000+00:00</time>
      </trkpt>
      <trkpt lat="0" lon="0">
        <time>2020-12-20T08:18:47.240000+00:00</time>
      </trkpt>
      <trkpt lat="0" lon="0">
        <time>2020-12-20T08:18:47.249000+00:00</time>
      </trkpt>
      <trkpt lat="0" lon="0">
        <time>2020-12-20T08:18:47.252000+00:00</time>
      </trkpt>
      <trkpt lat="47.30225" lon="-1.35393">
        <ele>67</ele>
        <time>2020-12-20T08:18:48.233000+00:00</time>
      </trkpt>
      <trkpt lat="0" lon="0">
        <time>2020-12-20T08:18:48.240000+00:00</time>
      </trkpt>
      <trkpt lat="0" lon="0">
        <time>2020-12-20T08:18:48.248000+00:00</time>
      </trkpt>
      <trkpt lat="0" lon="0">
        <time>2020-12-20T08:18:48.250000+00:00</time>
      </trkpt>
      <trkpt lat="47.30228" lon="-1.35386">
        <ele>67</ele>
        <time>2020-12-20T08:18:49.228000+00:00</time>
      </trkpt>
      <trkpt lat="0" lon="0">
        <time>2020-12-20T08:18:49.237000+00:00</time>
      </trkpt>
      <trkpt lat="0" lon="0">
        <time>2020-12-20T08:18:49.244000+00:00</time>
      </trkpt>
      <trkpt lat="0" lon="0">
        <time>2020-12-20T08:18:49.247000+00:00</time>
      </trkpt>
      <trkpt lat="47.30231" lon="-1.35379">
        <ele>67</ele>
        <time>2020-12-20T08:18:50.232000+00:00</time>
      </trkpt>
      <trkpt lat="0" lon="0">
        <time>2020-12-20T08:18:50.242000+00:00</time>
      </trkpt>
      <trkpt lat="0" lon="0">
        <time>2020-12-20T08:18:50.246000+00:00</time>
      </trkpt>
      <trkpt lat="0" lon="0">
        <time>2020-12-20T08:18:50.248000+00:00</time>
      </trkpt>
      <trkpt lat="47.30234" lon="-1.35371">
        <ele>66</ele>
        <time>2020-12-20T08:18:51.208000+00:00</time>
      </trkpt>
      <trkpt lat="0" lon="0">
        <time>2020-12-20T08:18:51.212000+00:00</time>
      </trkpt>
      <trkpt lat="0" lon="0">
        <time>2020-12-20T08:18:51.220000+00:00</time>
      </trkpt>
      <trkpt lat="0" lon="0">
        <time>2020-12-20T08:18:51.223000+00:00</time>
      </trkpt>
      <trkpt lat="47.30236" lon="-1.35364">
        <ele>66</ele>
        <time>2020-12-20T08:18:52.212000+00:00</time>
      </trkpt>
      <trkpt lat="0" lon="0">
        <time>2020-12-20T08:18:52.222000+00:00</time>
      </trkpt>
      <trkpt lat="0" lon="0">
        <time>2020-12-20T08:18:52.228000+00:00</time>
      </trkpt>
      <trkpt lat="0" lon="0">
        <time>2020-12-20T08:18:52.229000+00:00</time>
      </trkpt>
      <trkpt lat="47.30239" lon="-1.35356">
        <ele>66</ele>
        <time>2020-12-20T08:18:53.212000+00:00</time>
      </trkpt>
      <trkpt lat="0" lon="0">
        <time>2020-12-20T08:18:53.226000+00:00</time>
      </trkpt>
      <trkpt lat="0" lon="0">
        <time>2020-12-20T08:18:53.231000+00:00</time>
      </trkpt>
      <trkpt lat="0" lon="0">
        <time>2020-12-20T08:18:53.234000+00:00</time>
      </trkpt>
      <trkpt lat="47.3024" lon="-1.35348">
        <ele>66</ele>
        <time>2020-12-20T08:18:54.194000+00:00</time>
      </trkpt>
      <trkpt lat="0" lon="0">
        <time>2020-12-20T08:18:54.219000+00:00</time>
      </trkpt>
      <trkpt lat="0" lon="0">
        <time>2020-12-20T08:18:54.224000+00:00</time>
      </trkpt>
      <trkpt lat="0" lon="0">
        <time>2020-12-20T08:18:54.226000+00:00</time>
      </trkpt>
      <trkpt lat="47.30241" lon="-1.3534">
        <ele>66</ele>
        <time>2020-12-20T08:18:55.188000+00:00</time>
      </trkpt>
      <trkpt lat="0" lon="0">
        <time>2020-12-20T08:18:55.194000+00:00</time>
      </trkpt>
      <trkpt lat="0" lon="0">
        <time>2020-12-20T08:18:55.198000+00:00</time>
      </trkpt>
      <trkpt lat="0" lon="0">
        <time>2020-12-20T08:18:55.200000+00:00</time>
      </trkpt>
      <trkpt lat="47.30241" lon="-1.35331">
        <ele>66</ele>
        <time>2020-12-20T08:18:56.194000+00:00</time>
      </trkpt>
      <trkpt lat="0" lon="0">
        <time>2020-12-20T08:18:56.207000+00:00</time>
      </trkpt>
      <trkpt lat="0" lon="0">
        <time>2020-12-20T08:18:56.214000+00:00</time>
      </trkpt>
      <trkpt lat="0" lon="0">
        <time>2020-12-20T08:18:56.217000+00:00</time>
      </trkpt>
      <trkpt lat="47.30241" lon="-1.35323">
        <ele>66</ele>
        <time>2020-12-20T08:18:57.208000+00:00</time>
      </trkpt>
      <trkpt lat="0" lon="0">
        <time>2020-12-20T08:18:57.210000+00:00</time>
      </trkpt>
      <trkpt lat="0" lon="0">
        <time>2020-12-20T08:18:57.212000+00:00</time>
      </trkpt>
      <trkpt lat="0" lon="0">
        <time>2020-12-20T08:18:57.214000+00:00</time>
      </trkpt>
      <trkpt lat="47.3024" lon="-1.35315">
        <ele>66</ele>
        <time>2020-12-20T08:18:58.223000+00:00</time>
      </trkpt>
      <trkpt lat="0" lon="0">
        <time>2020-12-20T08:18:58.240000+00:00</time>
      </trkpt>
      <trkpt lat="0" lon="0">
        <time>2020-12-20T08:18:58.242000+00:00</time>
      </trkpt>
      <trkpt lat="0" lon="0">
        <time>2020-12-20T08:18:58.243000+00:00</time>
      </trkpt>
      <trkpt lat="47.3024" lon="-1.35306">
        <ele>66</ele>
        <time>2020-12-20T08:18:59.210000+00:00</time>
      </trkpt>
      <trkpt lat="0" lon="0">
        <time>2020-12-20T08:18:59.216000+00:00</time>
      </trkpt>
      <trkpt lat="0" lon="0">
        <time>2020-12-20T08:18:59.220000+00:00</time>
      </trkpt>
      <trkpt lat="0" lon="0">
        <time>2020-12-20T08:18:59.224000+00:00</time>
      </trkpt>
      <trkpt lat="47.3024" lon="-1.35298">
        <ele>66</ele>
        <time>2020-12-20T08:19:00.228000+00:00</time>
      </trkpt>
      <trkpt lat="0" lon="0">
        <time>2020-12-20T08:19:00.243000+00:00</time>
      </trkpt>
      <trkpt lat="0" lon="0">
        <time>2020-12-20T08:19:00.247000+00:00</time>
      </trkpt>
      <trkpt lat="0" lon="0">
        <time>2020-12-20T08:19:00.250000+00:00</time>
      </trkpt>
      <trkpt lat="47.3024" lon="-1.3529">
        <ele>66</ele>
        <time>2020-12-20T08:19:01.204000+00:00</time>
      </trkpt>
      <trkpt lat="0" lon="0">
        <time>2020-12-20T08:19:01.208000+00:00</time>
      </trkpt>
      <trkpt lat="0" lon="0">
        <time>2020-12-20T08:19:01.211000+00:00</time>
      </trkpt>
      <trkpt lat="0" lon="0">
        <time>2020-12-20T08:19:01.214000+00:00</time>
      </trkpt>
      <trkpt lat="47.30241" lon="-1.35282">
        <ele>67</ele>
        <time>2020-12-20T08:19:02.201000+00:00</time>
      </trkpt>
      <trkpt lat="0" lon="0">
        <time>2020-12-20T08:19:02.208000+00:00</time>
      </trkpt>
      <trkpt lat="0" lon="0">
        <time>2020-12-20T08:19:02.213000+00:00</time>
      </trkpt>
      <trkpt lat="0" lon="0">
        <time>2020-12-20T08:19:02.215000+00:00</time>
      </trkpt>
      <trkpt lat="47.30241" lon="-1.35274">
        <ele>67</ele>
        <time>2020-12-20T08:19:03.242000+00:00</time>
      </trkpt>
      <trkpt lat="0" lon="0">
        <time>2020-12-20T08:19:03.244000+00:00</time>
      </trkpt>
      <trkpt lat="0" lon="0">
        <time>2020-12-20T08:19:03.247000+00:00</time>
      </trkpt>
      <trkpt lat="0" lon="0">
        <time>2020-12-20T08:19:03.248000+00:00</time>
      </trkpt>
      <trkpt lat="47.30242" lon="-1.35266">
        <ele>67</ele>
        <time>2020-12-20T08:19:04.189000+00:00</time>
      </trkpt>
      <trkpt lat="0" lon="0">
        <time>2020-12-20T08:19:04.191000+00:00</time>
      </trkpt>
      <trkpt lat="0" lon="0">
        <time>2020-12-20T08:19:04.192000+00:00</time>
      </trkpt>
      <trkpt lat="0" lon="0">
        <time>2020-12-20T08:19:04.193000+00:00</time>
      </trkpt>
      <trkpt lat="47.30244" lon="-1.35258">
        <ele>67</ele>
        <time>2020-12-20T08:19:05.183000+00:00</time>
      </trkpt>
      <trkpt lat="0" lon="0">
        <time>2020-12-20T08:19:05.200000+00:00</time>
      </trkpt>
      <trkpt lat="0" lon="0">
        <time>2020-12-20T08:19:05.213000+00:00</time>
      </trkpt>
      <trkpt lat="0" lon="0">
        <time>2020-12-20T08:19:05.215000+00:00</time>
      </trkpt>
      <trkpt lat="47.30245" lon="-1.35251">
        <ele>67</ele>
        <time>2020-12-20T08:19:06.206000+00:00</time>
      </trkpt>
      <trkpt lat="0" lon="0">
        <time>2020-12-20T08:19:06.216000+00:00</time>
      </trkpt>
      <trkpt lat="0" lon="0">
        <time>2020-12-20T08:19:06.220000+00:00</time>
      </trkpt>
      <trkpt lat="0" lon="0">
        <time>2020-12-20T08:19:06.222000+00:00</time>
      </trkpt>
      <trkpt lat="47.30247" lon="-1.35244">
        <ele>67</ele>
        <time>2020-12-20T08:19:07.208000+00:00</time>
      </trkpt>
      <trkpt lat="0" lon="0">
        <time>2020-12-20T08:19:07.225000+00:00</time>
      </trkpt>
      <trkpt lat="0" lon="0">
        <time>2020-12-20T08:19:07.229000+00:00</time>
      </trkpt>
      <trkpt lat="0" lon="0">
        <time>2020-12-20T08:19:07.233000+00:00</time>
      </trkpt>
      <trkpt lat="47.30249" lon="-1.35236">
        <ele>67</ele>
        <time>2020-12-20T08:19:08.210000+00:00</time>
      </trkpt>
      <trkpt lat="0" lon="0">
        <time>2020-12-20T08:19:08.218000+00:00</time>
      </trkpt>
      <trkpt lat="0" lon="0">
        <time>2020-12-20T08:19:08.222000+00:00</time>
      </trkpt>
      <trkpt lat="0" lon="0">
        <time>2020-12-20T08:19:08.227000+00:00</time>
      </trkpt>
      <trkpt lat="47.30251" lon="-1.35229">
        <ele>67</ele>
        <time>2020-12-20T08:19:09.228000+00:00</time>
      </trkpt>
      <trkpt lat="0" lon="0">
        <time>2020-12-20T08:19:09.230000+00:00</time>
      </trkpt>
      <trkpt lat="0" lon="0">
        <time>2020-12-20T08:19:09.232000+00:00</time>
      </trkpt>
      <trkpt lat="0" lon="0">
        <time>2020-12-20T08:19:09.233000+00:00</time>
      </trkpt>
      <trkpt lat="47.30253" lon="-1.35222">
        <ele>67</ele>
        <time>2020-12-20T08:19:10.223000+00:00</time>
      </trkpt>
      <trkpt lat="0" lon="0">
        <time>2020-12-20T08:19:10.231000+00:00</time>
      </trkpt>
      <trkpt lat="0" lon="0">
        <time>2020-12-20T08:19:10.232000+00:00</time>
      </trkpt>
      <trkpt lat="47.30255" lon="-1.35215">
        <ele>67</ele>
        <time>2020-12-20T08:19:11.217000+00:00</time>
      </trkpt>
      <trkpt lat="0" lon="0">
        <time>2020-12-20T08:19:11.224000+00:00</time>
      </trkpt>
      <trkpt lat="0" lon="0">
        <time>2020-12-20T08:19:11.231000+00:00</time>
      </trkpt>
      <trkpt lat="0" lon="0">
        <time>2020-12-20T08:19:11.236000+00:00</time>
      </trkpt>
      <trkpt lat="47.30258" lon="-1.35208">
        <ele>67</ele>
        <time>2020-12-20T08:19:12.220000+00:00</time>
      </trkpt>
      <trkpt lat="0" lon="0">
        <time>2020-12-20T08:19:12.228000+00:00</time>
      </trkpt>
      <trkpt lat="0" lon="0">
        <time>2020-12-20T08:19:12.233000+00:00</time>
      </trkpt>
      <trkpt lat="0" lon="0">
        <time>2020-12-20T08:19:12.236000+00:00</time>
      </trkpt>
      <trkpt lat="47.30259" lon="-1.35202">
        <ele>67</ele>
        <time>2020-12-20T08:19:13.201000+00:00</time>
      </trkpt>
      <trkpt lat="0" lon="0">
        <time>2020-12-20T08:19:13.208000+00:00</time>
      </trkpt>
      <trkpt lat="0" lon="0">
        <time>2020-12-20T08:19:13.212000+00:00</time>
      </trkpt>
      <trkpt lat="0" lon="0">
        <time>2020-12-20T08:19:13.214000+00:00</time>
      </trkpt>
      <trkpt lat="47.30261" lon="-1.35197">
        <ele>67</ele>
        <time>2020-12-20T08:19:14.213000+00:00</time>
      </trkpt>
      <trkpt lat="0" lon="0">
        <time>2020-12-20T08:19:14.228000+00:00</time>
      </trkpt>
      <trkpt lat="0" lon="0">
        <time>2020-12-20T08:19:14.234000+00:00</time>
      </trkpt>
      <trkpt lat="0" lon="0">
        <time>2020-12-20T08:19:14.238000+00:00</time>
      </trkpt>
      <trkpt lat="47.30263" lon="-1.35192">
        <ele>67</ele>
        <time>2020-12-20T08:19:15.192000+00:00</time>
      </trkpt>
      <trkpt lat="0" lon="0">
        <time>2020-12-20T08:19:15.199000+00:00</time>
      </trkpt>
      <trkpt lat="0" lon="0">
        <time>2020-12-20T08:19:15.204000+00:00</time>
      </trkpt>
      <trkpt lat="0" lon="0">
        <time>2020-12-20T08:19:15.207000+00:00</time>
      </trkpt>
      <trkpt lat="47.30264" lon="-1.35187">
        <ele>67</ele>
        <time>2020-12-20T08:19:16.195000+00:00</time>
      </trkpt>
      <trkpt lat="0" lon="0">
        <time>2020-12-20T08:19:16.201000+00:00</time>
      </trkpt>
      <trkpt lat="0" lon="0">
        <time>2020-12-20T08:19:16.205000+00:00</time>
      </trkpt>
      <trkpt lat="0" lon="0">
        <time>2020-12-20T08:19:16.207000+00:00</time>
      </trkpt>
      <trkpt lat="47.30266" lon="-1.35182">
        <ele>67</ele>
        <time>2020-12-20T08:19:17.235000+00:00</time>
      </trkpt>
      <trkpt lat="0" lon="0">
        <time>2020-12-20T08:19:17.256000+00:00</time>
      </trkpt>
      <trkpt lat="0" lon="0">
        <time>2020-12-20T08:19:17.264000+00:00</time>
      </trkpt>
      <trkpt lat="0" lon="0">
        <time>2020-12-20T08:19:17.267000+00:00</time>
      </trkpt>
      <trkpt lat="47.30267" lon="-1.35178">
        <ele>67</ele>
        <time>2020-12-20T08:19:18.224000+00:00</time>
      </trkpt>
      <trkpt lat="0" lon="0">
        <time>2020-12-20T08:19:18.237000+00:00</time>
      </trkpt>
      <trkpt lat="0" lon="0">
        <time>2020-12-20T08:19:18.249000+00:00</time>
      </trkpt>
      <trkpt lat="0" lon="0">
        <time>2020-12-20T08:19:18.253000+00:00</time>
      </trkpt>
      <trkpt lat="47.30268" lon="-1.35173">
        <ele>68</ele>
        <time>2020-12-20T08:19:19.246000+00:00</time>
      </trkpt>
      <trkpt lat="0" lon="0">
        <time>2020-12-20T08:19:19.252000+00:00</time>
      </trkpt>
      <trkpt lat="0" lon="0">
        <time>2020-12-20T08:19:19.254000+00:00</time>
      </trkpt>
      <trkpt lat="47.30269" lon="-1.35169">
        <ele>68</ele>
        <time>2020-12-20T08:19:20.218000+00:00</time>
      </trkpt>
      <trkpt lat="0" lon="0">
        <time>2020-12-20T08:19:20.241000+00:00</time>
      </trkpt>
      <trkpt lat="0" lon="0">
        <time>2020-12-20T08:19:20.248000+00:00</time>
      </trkpt>
      <trkpt lat="0" lon="0">
        <time>2020-12-20T08:19:20.255000+00:00</time>
      </trkpt>
      <trkpt lat="47.30269" lon="-1.35164">
        <ele>69</ele>
        <time>2020-12-20T08:19:21.220000+00:00</time>
      </trkpt>
      <trkpt lat="0" lon="0">
        <time>2020-12-20T08:19:21.224000+00:00</time>
      </trkpt>
      <trkpt lat="0" lon="0">
        <time>2020-12-20T08:19:21.235000+00:00</time>
      </trkpt>
      <trkpt lat="0" lon="0">
        <time>2020-12-20T08:19:21.237000+00:00</time>
      </trkpt>
      <trkpt lat="47.30269" lon="-1.35159">
        <ele>68</ele>
        <time>2020-12-20T08:19:22.207000+00:00</time>
      </trkpt>
      <trkpt lat="0" lon="0">
        <time>2020-12-20T08:19:22.210000+00:00</time>
      </trkpt>
      <trkpt lat="0" lon="0">
        <time>2020-12-20T08:19:22.216000+00:00</time>
      </trkpt>
      <trkpt lat="0" lon="0">
        <time>2020-12-20T08:19:22.219000+00:00</time>
      </trkpt>
      <trkpt lat="47.30268" lon="-1.35154">
        <ele>67</ele>
        <time>2020-12-20T08:19:23.199000+00:00</time>
      </trkpt>
      <trkpt lat="0" lon="0">
        <time>2020-12-20T08:19:23.209000+00:00</time>
      </trkpt>
      <trkpt lat="0" lon="0">
        <time>2020-12-20T08:19:23.213000+00:00</time>
      </trkpt>
      <trkpt lat="0" lon="0">
        <time>2020-12-20T08:19:23.218000+00:00</time>
      </trkpt>
      <trkpt lat="47.30266" lon="-1.35149">
        <ele>67</ele>
        <time>2020-12-20T08:19:24.217000+00:00</time>
      </trkpt>
      <trkpt lat="0" lon="0">
        <time>2020-12-20T08:19:24.240000+00:00</time>
      </trkpt>
      <trkpt lat="0" lon="0">
        <time>2020-12-20T08:19:24.243000+00:00</time>
      </trkpt>
      <trkpt lat="0" lon="0">
        <time>2020-12-20T08:19:24.245000+00:00</time>
      </trkpt>
      <trkpt lat="47.30263" lon="-1.35144">
        <ele>66</ele>
        <time>2020-12-20T08:19:25.242000+00:00</time>
      </trkpt>
      <trkpt lat="0" lon="0">
        <time>2020-12-20T08:19:25.244000+00:00</time>
      </trkpt>
      <trkpt lat="0" lon="0">
        <time>2020-12-20T08:19:25.246000+00:00</time>
      </trkpt>
      <trkpt lat="0" lon="0">
        <time>2020-12-20T08:19:25.247000+00:00</time>
      </trkpt>
      <trkpt lat="47.30261" lon="-1.35139">
        <ele>66</ele>
        <time>2020-12-20T08:19:26.231000+00:00</time>
      </trkpt>
      <trkpt lat="0" lon="0">
        <time>2020-12-20T08:19:26.239000+00:00</time>
      </trkpt>
      <trkpt lat="0" lon="0">
        <time>2020-12-20T08:19:26.243000+00:00</time>
      </trkpt>
      <trkpt lat="0" lon="0">
        <time>2020-12-20T08:19:26.249000+00:00</time>
      </trkpt>
      <trkpt lat="47.30258" lon="-1.35133">
        <ele>66</ele>
        <time>2020-12-20T08:19:27.221000+00:00</time>
      </trkpt>
      <trkpt lat="0" lon="0">
        <time>2020-12-20T08:19:27.230000+00:00</time>
      </trkpt>
      <trkpt lat="0" lon="0">
        <time>2020-12-20T08:19:27.241000+00:00</time>
      </trkpt>
      <trkpt lat="0" lon="0">
        <time>2020-12-20T08:19:27.242000+00:00</time>
      </trkpt>
      <trkpt lat="47.30256" lon="-1.35127">
        <ele>65</ele>
        <time>2020-12-20T08:19:28.210000+00:00</time>
      </trkpt>
      <trkpt lat="0" lon="0">
        <time>2020-12-20T08:19:28.218000+00:00</time>
      </trkpt>
      <trkpt lat="0" lon="0">
        <time>2020-12-20T08:19:28.220000+00:00</time>
      </trkpt>
      <trkpt lat="0" lon="0">
        <time>2020-12-20T08:19:28.222000+00:00</time>
      </trkpt>
      <trkpt lat="47.30254" lon="-1.35121">
        <ele>65</ele>
        <time>2020-12-20T08:19:29.216000+00:00</time>
      </trkpt>
      <trkpt lat="0" lon="0">
        <time>2020-12-20T08:19:29.227000+00:00</time>
      </trkpt>
      <trkpt lat="0" lon="0">
        <time>2020-12-20T08:19:29.231000+00:00</time>
      </trkpt>
      <trkpt lat="0" lon="0">
        <time>2020-12-20T08:19:29.232000+00:00</time>
      </trkpt>
      <trkpt lat="47.30252" lon="-1.35114">
        <ele>65</ele>
        <time>2020-12-20T08:19:30.217000+00:00</time>
      </trkpt>
      <trkpt lat="0" lon="0">
        <time>2020-12-20T08:19:30.223000+00:00</time>
      </trkpt>
      <trkpt lat="0" lon="0">
        <time>2020-12-20T08:19:30.226000+00:00</time>
      </trkpt>
      <trkpt lat="0" lon="0">
        <time>2020-12-20T08:19:30.228000+00:00</time>
      </trkpt>
      <trkpt lat="47.30251" lon="-1.35107">
        <ele>65</ele>
        <time>2020-12-20T08:19:31.221000+00:00</time>
      </trkpt>
      <trkpt lat="0" lon="0">
        <time>2020-12-20T08:19:31.228000+00:00</time>
      </trkpt>
      <trkpt lat="0" lon="0">
        <time>2020-12-20T08:19:31.232000+00:00</time>
      </trkpt>
      <trkpt lat="0" lon="0">
        <time>2020-12-20T08:19:31.234000+00:00</time>
      </trkpt>
      <trkpt lat="47.30251" lon="-1.351">
        <ele>65</ele>
        <time>2020-12-20T08:19:32.227000+00:00</time>
      </trkpt>
      <trkpt lat="0" lon="0">
        <time>2020-12-20T08:19:32.231000+00:00</time>
      </trkpt>
      <trkpt lat="0" lon="0">
        <time>2020-12-20T08:19:32.237000+00:00</time>
      </trkpt>
      <trkpt lat="0" lon="0">
        <time>2020-12-20T08:19:32.240000+00:00</time>
      </trkpt>
      <trkpt lat="47.30251" lon="-1.35094">
        <ele>65</ele>
        <time>2020-12-20T08:19:33.197000+00:00</time>
      </trkpt>
      <trkpt lat="0" lon="0">
        <time>2020-12-20T08:19:33.206000+00:00</time>
      </trkpt>
      <trkpt lat="0" lon="0">
        <time>2020-12-20T08:19:33.210000+00:00</time>
      </trkpt>
      <trkpt lat="0" lon="0">
        <time>2020-12-20T08:19:33.211000+00:00</time>
      </trkpt>
      <trkpt lat="47.30251" lon="-1.35087">
        <ele>65</ele>
        <time>2020-12-20T08:19:34.199000+00:00</time>
      </trkpt>
      <trkpt lat="0" lon="0">
        <time>2020-12-20T08:19:34.207000+00:00</time>
      </trkpt>
      <trkpt lat="0" lon="0">
        <time>2020-12-20T08:19:34.208000+00:00</time>
      </trkpt>
      <trkpt lat="0" lon="0">
        <time>2020-12-20T08:19:34.212000+00:00</time>
      </trkpt>
      <trkpt lat="47.30251" lon="-1.35081">
        <ele>65</ele>
        <time>2020-12-20T08:19:35.232000+00:00</time>
      </trkpt>
      <trkpt lat="0" lon="0">
        <time>2020-12-20T08:19:35.244000+00:00</time>
      </trkpt>
      <trkpt lat="0" lon="0">
        <time>2020-12-20T08:19:35.247000+00:00</time>
      </trkpt>
      <trkpt lat="0" lon="0">
        <time>2020-12-20T08:19:35.252000+00:00</time>
      </trkpt>
      <trkpt lat="47.30251" lon="-1.35075">
        <ele>65</ele>
        <time>2020-12-20T08:19:36.232000+00:00</time>
      </trkpt>
      <trkpt lat="0" lon="0">
        <time>2020-12-20T08:19:36.246000+00:00</time>
      </trkpt>
      <trkpt lat="0" lon="0">
        <time>2020-12-20T08:19:36.256000+00:00</time>
      </trkpt>
      <trkpt lat="0" lon="0">
        <time>2020-12-20T08:19:36.259000+00:00</time>
      </trkpt>
      <trkpt lat="47.3025" lon="-1.35069">
        <ele>65</ele>
        <time>2020-12-20T08:19:37.207000+00:00</time>
      </trkpt>
      <trkpt lat="0" lon="0">
        <time>2020-12-20T08:19:37.211000+00:00</time>
      </trkpt>
      <trkpt lat="0" lon="0">
        <time>2020-12-20T08:19:37.215000+00:00</time>
      </trkpt>
      <trkpt lat="0" lon="0">
        <time>2020-12-20T08:19:37.221000+00:00</time>
      </trkpt>
      <trkpt lat="47.30249" lon="-1.35064">
        <ele>65</ele>
        <time>2020-12-20T08:19:38.200000+00:00</time>
      </trkpt>
      <trkpt lat="0" lon="0">
        <time>2020-12-20T08:19:38.204000+00:00</time>
      </trkpt>
      <trkpt lat="0" lon="0">
        <time>2020-12-20T08:19:38.210000+00:00</time>
      </trkpt>
      <trkpt lat="0" lon="0">
        <time>2020-12-20T08:19:38.212000+00:00</time>
      </trkpt>
      <trkpt lat="47.30248" lon="-1.35059">
        <ele>65</ele>
        <time>2020-12-20T08:19:39.216000+00:00</time>
      </trkpt>
      <trkpt lat="0" lon="0">
        <time>2020-12-20T08:19:39.220000+00:00</time>
      </trkpt>
      <trkpt lat="0" lon="0">
        <time>2020-12-20T08:19:39.235000+00:00</time>
      </trkpt>
      <trkpt lat="0" lon="0">
        <time>2020-12-20T08:19:39.237000+00:00</time>
      </trkpt>
      <trkpt lat="47.30247" lon="-1.35054">
        <ele>66</ele>
        <time>2020-12-20T08:19:40.237000+00:00</time>
      </trkpt>
      <trkpt lat="0" lon="0">
        <time>2020-12-20T08:19:40.247000+00:00</time>
      </trkpt>
      <trkpt lat="0" lon="0">
        <time>2020-12-20T08:19:40.253000+00:00</time>
      </trkpt>
      <trkpt lat="0" lon="0">
        <time>2020-12-20T08:19:40.255000+00:00</time>
      </trkpt>
      <trkpt lat="47.30245" lon="-1.35049">
        <ele>66</ele>
        <time>2020-12-20T08:19:41.241000+00:00</time>
      </trkpt>
      <trkpt lat="0" lon="0">
        <time>2020-12-20T08:19:41.248000+00:00</time>
      </trkpt>
      <trkpt lat="0" lon="0">
        <time>2020-12-20T08:19:41.253000+00:00</time>
      </trkpt>
      <trkpt lat="0" lon="0">
        <time>2020-12-20T08:19:41.254000+00:00</time>
      </trkpt>
      <trkpt lat="47.30243" lon="-1.35044">
        <ele>66</ele>
        <time>2020-12-20T08:19:42.224000+00:00</time>
      </trkpt>
      <trkpt lat="0" lon="0">
        <time>2020-12-20T08:19:42.235000+00:00</time>
      </trkpt>
      <trkpt lat="0" lon="0">
        <time>2020-12-20T08:19:42.238000+00:00</time>
      </trkpt>
      <trkpt lat="0" lon="0">
        <time>2020-12-20T08:19:42.240000+00:00</time>
      </trkpt>
      <trkpt lat="47.30241" lon="-1.35039">
        <ele>66</ele>
        <time>2020-12-20T08:19:43.226000+00:00</time>
      </trkpt>
      <trkpt lat="0" lon="0">
        <time>2020-12-20T08:19:43.236000+00:00</time>
      </trkpt>
      <trkpt lat="0" lon="0">
        <time>2020-12-20T08:19:43.242000+00:00</time>
      </trkpt>
      <trkpt lat="0" lon="0">
        <time>2020-12-20T08:19:43.246000+00:00</time>
      </trkpt>
      <trkpt lat="47.30238" lon="-1.35034">
        <ele>67</ele>
        <time>2020-12-20T08:19:44.224000+00:00</time>
      </trkpt>
      <trkpt lat="0" lon="0">
        <time>2020-12-20T08:19:44.231000+00:00</time>
      </trkpt>
      <trkpt lat="0" lon="0">
        <time>2020-12-20T08:19:44.236000+00:00</time>
      </trkpt>
      <trkpt lat="0" lon="0">
        <time>2020-12-20T08:19:44.238000+00:00</time>
      </trkpt>
      <trkpt lat="47.30236" lon="-1.3503">
        <ele>67</ele>
        <time>2020-12-20T08:19:45.208000+00:00</time>
      </trkpt>
      <trkpt lat="0" lon="0">
        <time>2020-12-20T08:19:45.227000+00:00</time>
      </trkpt>
      <trkpt lat="0" lon="0">
        <time>2020-12-20T08:19:45.234000+00:00</time>
      </trkpt>
      <trkpt lat="0" lon="0">
        <time>2020-12-20T08:19:45.235000+00:00</time>
      </trkpt>
      <trkpt lat="47.30233" lon="-1.35025">
        <ele>67</ele>
        <time>2020-12-20T08:19:46.230000+00:00</time>
      </trkpt>
      <trkpt lat="0" lon="0">
        <time>2020-12-20T08:19:46.237000+00:00</time>
      </trkpt>
      <trkpt lat="0" lon="0">
        <time>2020-12-20T08:19:46.241000+00:00</time>
      </trkpt>
      <trkpt lat="0" lon="0">
        <time>2020-12-20T08:19:46.243000+00:00</time>
      </trkpt>
      <trkpt lat="47.30229" lon="-1.3502">
        <ele>68</ele>
        <time>2020-12-20T08:19:47.226000+00:00</time>
      </trkpt>
      <trkpt lat="0" lon="0">
        <time>2020-12-20T08:19:47.230000+00:00</time>
      </trkpt>
      <trkpt lat="0" lon="0">
        <time>2020-12-20T08:19:47.235000+00:00</time>
      </trkpt>
      <trkpt lat="0" lon="0">
        <time>2020-12-20T08:19:47.236000+00:00</time>
      </trkpt>
      <trkpt lat="47.30226" lon="-1.35015">
        <ele>69</ele>
        <time>2020-12-20T08:19:48.227000+00:00</time>
      </trkpt>
      <trkpt lat="0" lon="0">
        <time>2020-12-20T08:19:48.234000+00:00</time>
      </trkpt>
      <trkpt lat="0" lon="0">
        <time>2020-12-20T08:19:48.235000+00:00</time>
      </trkpt>
      <trkpt lat="0" lon="0">
        <time>2020-12-20T08:19:48.237000+00:00</time>
      </trkpt>
      <trkpt lat="47.30222" lon="-1.35009">
        <ele>69</ele>
        <time>2020-12-20T08:19:49.227000+00:00</time>
      </trkpt>
      <trkpt lat="0" lon="0">
        <time>2020-12-20T08:19:49.234000+00:00</time>
      </trkpt>
      <trkpt lat="0" lon="0">
        <time>2020-12-20T08:19:49.237000+00:00</time>
      </trkpt>
      <trkpt lat="0" lon="0">
        <time>2020-12-20T08:19:49.238000+00:00</time>
      </trkpt>
      <trkpt lat="47.30219" lon="-1.35003">
        <ele>70</ele>
        <time>2020-12-20T08:19:50.264000+00:00</time>
      </trkpt>
      <trkpt lat="0" lon="0">
        <time>2020-12-20T08:19:50.274000+00:00</time>
      </trkpt>
      <trkpt lat="0" lon="0">
        <time>2020-12-20T08:19:50.278000+00:00</time>
      </trkpt>
      <trkpt lat="0" lon="0">
        <time>2020-12-20T08:19:50.283000+00:00</time>
      </trkpt>
      <trkpt lat="47.30216" lon="-1.34997">
        <ele>70</ele>
        <time>2020-12-20T08:19:51.212000+00:00</time>
      </trkpt>
      <trkpt lat="0" lon="0">
        <time>2020-12-20T08:19:51.220000+00:00</time>
      </trkpt>
      <trkpt lat="0" lon="0">
        <time>2020-12-20T08:19:51.228000+00:00</time>
      </trkpt>
      <trkpt lat="0" lon="0">
        <time>2020-12-20T08:19:51.229000+00:00</time>
      </trkpt>
      <trkpt lat="47.30213" lon="-1.3499">
        <ele>70</ele>
        <time>2020-12-20T08:19:52.235000+00:00</time>
      </trkpt>
      <trkpt lat="0" lon="0">
        <time>2020-12-20T08:19:52.239000+00:00</time>
      </trkpt>
      <trkpt lat="0" lon="0">
        <time>2020-12-20T08:19:52.244000+00:00</time>
      </trkpt>
      <trkpt lat="0" lon="0">
        <time>2020-12-20T08:19:52.246000+00:00</time>
      </trkpt>
      <trkpt lat="47.3021" lon="-1.34982">
        <ele>71</ele>
        <time>2020-12-20T08:19:53.241000+00:00</time>
      </trkpt>
      <trkpt lat="0" lon="0">
        <time>2020-12-20T08:19:53.243000+00:00</time>
      </trkpt>
      <trkpt lat="0" lon="0">
        <time>2020-12-20T08:19:53.252000+00:00</time>
      </trkpt>
      <trkpt lat="0" lon="0">
        <time>2020-12-20T08:19:53.260000+00:00</time>
      </trkpt>
      <trkpt lat="47.30208" lon="-1.34975">
        <ele>71</ele>
        <time>2020-12-20T08:19:54.220000+00:00</time>
      </trkpt>
      <trkpt lat="0" lon="0">
        <time>2020-12-20T08:19:54.238000+00:00</time>
      </trkpt>
      <trkpt lat="0" lon="0">
        <time>2020-12-20T08:19:54.245000+00:00</time>
      </trkpt>
      <trkpt lat="0" lon="0">
        <time>2020-12-20T08:19:54.246000+00:00</time>
      </trkpt>
      <trkpt lat="47.30206" lon="-1.34967">
        <ele>71</ele>
        <time>2020-12-20T08:19:55.229000+00:00</time>
      </trkpt>
      <trkpt lat="0" lon="0">
        <time>2020-12-20T08:19:55.239000+00:00</time>
      </trkpt>
      <trkpt lat="0" lon="0">
        <time>2020-12-20T08:19:55.242000+00:00</time>
      </trkpt>
      <trkpt lat="0" lon="0">
        <time>2020-12-20T08:19:55.244000+00:00</time>
      </trkpt>
      <trkpt lat="47.30203" lon="-1.3496">
        <ele>72</ele>
        <time>2020-12-20T08:19:56.214000+00:00</time>
      </trkpt>
      <trkpt lat="0" lon="0">
        <time>2020-12-20T08:19:56.216000+00:00</time>
      </trkpt>
      <trkpt lat="0" lon="0">
        <time>2020-12-20T08:19:56.217000+00:00</time>
      </trkpt>
      <trkpt lat="0" lon="0">
        <time>2020-12-20T08:19:56.218000+00:00</time>
      </trkpt>
      <trkpt lat="47.30201" lon="-1.34953">
        <ele>72</ele>
        <time>2020-12-20T08:19:57.247000+00:00</time>
      </trkpt>
      <trkpt lat="0" lon="0">
        <time>2020-12-20T08:19:57.258000+00:00</time>
      </trkpt>
      <trkpt lat="0" lon="0">
        <time>2020-12-20T08:19:57.260000+00:00</time>
      </trkpt>
      <trkpt lat="0" lon="0">
        <time>2020-12-20T08:19:57.261000+00:00</time>
      </trkpt>
      <trkpt lat="47.30199" lon="-1.34946">
        <ele>71</ele>
        <time>2020-12-20T08:19:58.223000+00:00</time>
      </trkpt>
      <trkpt lat="0" lon="0">
        <time>2020-12-20T08:19:58.246000+00:00</time>
      </trkpt>
      <trkpt lat="0" lon="0">
        <time>2020-12-20T08:19:58.250000+00:00</time>
      </trkpt>
      <trkpt lat="0" lon="0">
        <time>2020-12-20T08:19:58.252000+00:00</time>
      </trkpt>
      <trkpt lat="47.30196" lon="-1.3494">
        <ele>71</ele>
        <time>2020-12-20T08:19:59.211000+00:00</time>
      </trkpt>
      <trkpt lat="0" lon="0">
        <time>2020-12-20T08:19:59.216000+00:00</time>
      </trkpt>
      <trkpt lat="0" lon="0">
        <time>2020-12-20T08:19:59.220000+00:00</time>
      </trkpt>
      <trkpt lat="0" lon="0">
        <time>2020-12-20T08:19:59.221000+00:00</time>
      </trkpt>
      <trkpt lat="47.30193" lon="-1.34935">
        <ele>72</ele>
        <time>2020-12-20T08:20:00.220000+00:00</time>
      </trkpt>
      <trkpt lat="0" lon="0">
        <time>2020-12-20T08:20:00.228000+00:00</time>
      </trkpt>
      <trkpt lat="0" lon="0">
        <time>2020-12-20T08:20:00.230000+00:00</time>
      </trkpt>
      <trkpt lat="0" lon="0">
        <time>2020-12-20T08:20:00.231000+00:00</time>
      </trkpt>
      <trkpt lat="47.3019" lon="-1.3493">
        <ele>71</ele>
        <time>2020-12-20T08:20:01.201000+00:00</time>
      </trkpt>
      <trkpt lat="0" lon="0">
        <time>2020-12-20T08:20:01.206000+00:00</time>
      </trkpt>
      <trkpt lat="0" lon="0">
        <time>2020-12-20T08:20:01.212000+00:00</time>
      </trkpt>
      <trkpt lat="0" lon="0">
        <time>2020-12-20T08:20:01.216000+00:00</time>
      </trkpt>
      <trkpt lat="47.30187" lon="-1.34925">
        <ele>71</ele>
        <time>2020-12-20T08:20:02.215000+00:00</time>
      </trkpt>
      <trkpt lat="0" lon="0">
        <time>2020-12-20T08:20:02.221000+00:00</time>
      </trkpt>
      <trkpt lat="0" lon="0">
        <time>2020-12-20T08:20:02.232000+00:00</time>
      </trkpt>
      <trkpt lat="0" lon="0">
        <time>2020-12-20T08:20:02.234000+00:00</time>
      </trkpt>
      <trkpt lat="47.30184" lon="-1.34919">
        <ele>70</ele>
        <time>2020-12-20T08:20:03.216000+00:00</time>
      </trkpt>
      <trkpt lat="0" lon="0">
        <time>2020-12-20T08:20:03.224000+00:00</time>
      </trkpt>
      <trkpt lat="0" lon="0">
        <time>2020-12-20T08:20:03.227000+00:00</time>
      </trkpt>
      <trkpt lat="0" lon="0">
        <time>2020-12-20T08:20:03.228000+00:00</time>
      </trkpt>
      <trkpt lat="47.30181" lon="-1.34912">
        <ele>69</ele>
        <time>2020-12-20T08:20:04.231000+00:00</time>
      </trkpt>
      <trkpt lat="0" lon="0">
        <time>2020-12-20T08:20:04.239000+00:00</time>
      </trkpt>
      <trkpt lat="0" lon="0">
        <time>2020-12-20T08:20:04.243000+00:00</time>
      </trkpt>
      <trkpt lat="0" lon="0">
        <time>2020-12-20T08:20:04.245000+00:00</time>
      </trkpt>
      <trkpt lat="47.30179" lon="-1.34905">
        <ele>69</ele>
        <time>2020-12-20T08:20:05.171000+00:00</time>
      </trkpt>
      <trkpt lat="0" lon="0">
        <time>2020-12-20T08:20:05.172000+00:00</time>
      </trkpt>
      <trkpt lat="0" lon="0">
        <time>2020-12-20T08:20:05.174000+00:00</time>
      </trkpt>
      <trkpt lat="0" lon="0">
        <time>2020-12-20T08:20:05.175000+00:00</time>
      </trkpt>
      <trkpt lat="47.30177" lon="-1.34898">
        <ele>69</ele>
        <time>2020-12-20T08:20:06.231000+00:00</time>
      </trkpt>
      <trkpt lat="0" lon="0">
        <time>2020-12-20T08:20:06.255000+00:00</time>
      </trkpt>
      <trkpt lat="0" lon="0">
        <time>2020-12-20T08:20:06.259000+00:00</time>
      </trkpt>
      <trkpt lat="0" lon="0">
        <time>2020-12-20T08:20:06.260000+00:00</time>
      </trkpt>
      <trkpt lat="47.30175" lon="-1.34892">
        <ele>69</ele>
        <time>2020-12-20T08:20:07.221000+00:00</time>
      </trkpt>
      <trkpt lat="0" lon="0">
        <time>2020-12-20T08:20:07.225000+00:00</time>
      </trkpt>
      <trkpt lat="0" lon="0">
        <time>2020-12-20T08:20:07.229000+00:00</time>
      </trkpt>
      <trkpt lat="0" lon="0">
        <time>2020-12-20T08:20:07.231000+00:00</time>
      </trkpt>
      <trkpt lat="47.30173" lon="-1.34885">
        <ele>69</ele>
        <time>2020-12-20T08:20:08.219000+00:00</time>
      </trkpt>
      <trkpt lat="0" lon="0">
        <time>2020-12-20T08:20:08.224000+00:00</time>
      </trkpt>
      <trkpt lat="0" lon="0">
        <time>2020-12-20T08:20:08.230000+00:00</time>
      </trkpt>
      <trkpt lat="0" lon="0">
        <time>2020-12-20T08:20:08.233000+00:00</time>
      </trkpt>
      <trkpt lat="47.30172" lon="-1.34879">
        <ele>69</ele>
        <time>2020-12-20T08:20:09.241000+00:00</time>
      </trkpt>
      <trkpt lat="0" lon="0">
        <time>2020-12-20T08:20:09.249000+00:00</time>
      </trkpt>
      <trkpt lat="0" lon="0">
        <time>2020-12-20T08:20:09.252000+00:00</time>
      </trkpt>
      <trkpt lat="0" lon="0">
        <time>2020-12-20T08:20:09.255000+00:00</time>
      </trkpt>
      <trkpt lat="47.3017" lon="-1.34872">
        <ele>69</ele>
        <time>2020-12-20T08:20:10.210000+00:00</time>
      </trkpt>
      <trkpt lat="0" lon="0">
        <time>2020-12-20T08:20:10.223000+00:00</time>
      </trkpt>
      <trkpt lat="0" lon="0">
        <time>2020-12-20T08:20:10.225000+00:00</time>
      </trkpt>
      <trkpt lat="0" lon="0">
        <time>2020-12-20T08:20:10.226000+00:00</time>
      </trkpt>
      <trkpt lat="47.30168" lon="-1.34865">
        <ele>68</ele>
        <time>2020-12-20T08:20:11.217000+00:00</time>
      </trkpt>
      <trkpt lat="0" lon="0">
        <time>2020-12-20T08:20:11.227000+00:00</time>
      </trkpt>
      <trkpt lat="0" lon="0">
        <time>2020-12-20T08:20:11.237000+00:00</time>
      </trkpt>
      <trkpt lat="0" lon="0">
        <time>2020-12-20T08:20:11.243000+00:00</time>
      </trkpt>
      <trkpt lat="47.30167" lon="-1.34858">
        <ele>68</ele>
        <time>2020-12-20T08:20:12.240000+00:00</time>
      </trkpt>
      <trkpt lat="0" lon="0">
        <time>2020-12-20T08:20:12.260000+00:00</time>
      </trkpt>
      <trkpt lat="0" lon="0">
        <time>2020-12-20T08:20:12.268000+00:00</time>
      </trkpt>
      <trkpt lat="0" lon="0">
        <time>2020-12-20T08:20:12.269000+00:00</time>
      </trkpt>
      <trkpt lat="47.30165" lon="-1.34851">
        <ele>68</ele>
        <time>2020-12-20T08:20:13.240000+00:00</time>
      </trkpt>
      <trkpt lat="0" lon="0">
        <time>2020-12-20T08:20:13.243000+00:00</time>
      </trkpt>
      <trkpt lat="0" lon="0">
        <time>2020-12-20T08:20:13.247000+00:00</time>
      </trkpt>
      <trkpt lat="0" lon="0">
        <time>2020-12-20T08:20:13.248000+00:00</time>
      </trkpt>
      <trkpt lat="47.30163" lon="-1.34844">
        <ele>67</ele>
        <time>2020-12-20T08:20:14.247000+00:00</time>
      </trkpt>
      <trkpt lat="0" lon="0">
        <time>2020-12-20T08:20:14.260000+00:00</time>
      </trkpt>
      <trkpt lat="0" lon="0">
        <time>2020-12-20T08:20:14.266000+00:00</time>
      </trkpt>
      <trkpt lat="0" lon="0">
        <time>2020-12-20T08:20:14.269000+00:00</time>
      </trkpt>
      <trkpt lat="47.30161" lon="-1.34838">
        <ele>67</ele>
        <time>2020-12-20T08:20:15.225000+00:00</time>
      </trkpt>
      <trkpt lat="0" lon="0">
        <time>2020-12-20T08:20:15.235000+00:00</time>
      </trkpt>
      <trkpt lat="0" lon="0">
        <time>2020-12-20T08:20:15.241000+00:00</time>
      </trkpt>
      <trkpt lat="0" lon="0">
        <time>2020-12-20T08:20:15.243000+00:00</time>
      </trkpt>
      <trkpt lat="47.3016" lon="-1.34831">
        <ele>66</ele>
        <time>2020-12-20T08:20:16.271000+00:00</time>
      </trkpt>
      <trkpt lat="0" lon="0">
        <time>2020-12-20T08:20:16.273000+00:00</time>
      </trkpt>
      <trkpt lat="0" lon="0">
        <time>2020-12-20T08:20:16.275000+00:00</time>
      </trkpt>
      <trkpt lat="0" lon="0">
        <time>2020-12-20T08:20:16.276000+00:00</time>
      </trkpt>
      <trkpt lat="47.30158" lon="-1.34824">
        <ele>65</ele>
        <time>2020-12-20T08:20:17.246000+00:00</time>
      </trkpt>
      <trkpt lat="0" lon="0">
        <time>2020-12-20T08:20:17.256000+00:00</time>
      </trkpt>
      <trkpt lat="0" lon="0">
        <time>2020-12-20T08:20:17.259000+00:00</time>
      </trkpt>
      <trkpt lat="0" lon="0">
        <time>2020-12-20T08:20:17.266000+00:00</time>
      </trkpt>
      <trkpt lat="47.30156" lon="-1.34817">
        <ele>65</ele>
        <time>2020-12-20T08:20:18.274000+00:00</time>
      </trkpt>
      <trkpt lat="0" lon="0">
        <time>2020-12-20T08:20:18.278000+00:00</time>
      </trkpt>
      <trkpt lat="0" lon="0">
        <time>2020-12-20T08:20:18.287000+00:00</time>
      </trkpt>
      <trkpt lat="0" lon="0">
        <time>2020-12-20T08:20:18.289000+00:00</time>
      </trkpt>
      <trkpt lat="47.30155" lon="-1.3481">
        <ele>64</ele>
        <time>2020-12-20T08:20:19.256000+00:00</time>
      </trkpt>
      <trkpt lat="0" lon="0">
        <time>2020-12-20T08:20:19.263000+00:00</time>
      </trkpt>
      <trkpt lat="0" lon="0">
        <time>2020-12-20T08:20:19.272000+00:00</time>
      </trkpt>
      <trkpt lat="0" lon="0">
        <time>2020-12-20T08:20:19.274000+00:00</time>
      </trkpt>
      <trkpt lat="47.30153" lon="-1.34803">
        <ele>63</ele>
        <time>2020-12-20T08:20:20.256000+00:00</time>
      </trkpt>
      <trkpt lat="0" lon="0">
        <time>2020-12-20T08:20:20.287000+00:00</time>
      </trkpt>
      <trkpt lat="0" lon="0">
        <time>2020-12-20T08:20:20.290000+00:00</time>
      </trkpt>
      <trkpt lat="0" lon="0">
        <time>2020-12-20T08:20:20.292000+00:00</time>
      </trkpt>
      <trkpt lat="47.30153" lon="-1.34796">
        <ele>63</ele>
        <time>2020-12-20T08:20:21.259000+00:00</time>
      </trkpt>
      <trkpt lat="0" lon="0">
        <time>2020-12-20T08:20:21.271000+00:00</time>
      </trkpt>
      <trkpt lat="0" lon="0">
        <time>2020-12-20T08:20:21.273000+00:00</time>
      </trkpt>
      <trkpt lat="0" lon="0">
        <time>2020-12-20T08:20:21.274000+00:00</time>
      </trkpt>
      <trkpt lat="47.30152" lon="-1.34789">
        <ele>63</ele>
        <time>2020-12-20T08:20:22.251000+00:00</time>
      </trkpt>
      <trkpt lat="0" lon="0">
        <time>2020-12-20T08:20:22.265000+00:00</time>
      </trkpt>
      <trkpt lat="0" lon="0">
        <time>2020-12-20T08:20:22.271000+00:00</time>
      </trkpt>
      <trkpt lat="0" lon="0">
        <time>2020-12-20T08:20:22.276000+00:00</time>
      </trkpt>
      <trkpt lat="47.30152" lon="-1.34782">
        <ele>63</ele>
        <time>2020-12-20T08:20:23.249000+00:00</time>
      </trkpt>
      <trkpt lat="0" lon="0">
        <time>2020-12-20T08:20:23.268000+00:00</time>
      </trkpt>
      <trkpt lat="0" lon="0">
        <time>2020-12-20T08:20:23.275000+00:00</time>
      </trkpt>
      <trkpt lat="0" lon="0">
        <time>2020-12-20T08:20:23.277000+00:00</time>
      </trkpt>
      <trkpt lat="47.30151" lon="-1.34775">
        <ele>63</ele>
        <time>2020-12-20T08:20:24.239000+00:00</time>
      </trkpt>
      <trkpt lat="0" lon="0">
        <time>2020-12-20T08:20:24.247000+00:00</time>
      </trkpt>
      <trkpt lat="0" lon="0">
        <time>2020-12-20T08:20:24.249000+00:00</time>
      </trkpt>
      <trkpt lat="0" lon="0">
        <time>2020-12-20T08:20:24.251000+00:00</time>
      </trkpt>
      <trkpt lat="47.30151" lon="-1.34767">
        <ele>63</ele>
        <time>2020-12-20T08:20:25.253000+00:00</time>
      </trkpt>
      <trkpt lat="0" lon="0">
        <time>2020-12-20T08:20:25.265000+00:00</time>
      </trkpt>
      <trkpt lat="0" lon="0">
        <time>2020-12-20T08:20:25.269000+00:00</time>
      </trkpt>
      <trkpt lat="0" lon="0">
        <time>2020-12-20T08:20:25.271000+00:00</time>
      </trkpt>
      <trkpt lat="47.30151" lon="-1.3476">
        <ele>63</ele>
        <time>2020-12-20T08:20:26.257000+00:00</time>
      </trkpt>
      <trkpt lat="0" lon="0">
        <time>2020-12-20T08:20:26.262000+00:00</time>
      </trkpt>
      <trkpt lat="0" lon="0">
        <time>2020-12-20T08:20:26.268000+00:00</time>
      </trkpt>
      <trkpt lat="0" lon="0">
        <time>2020-12-20T08:20:26.270000+00:00</time>
      </trkpt>
      <trkpt lat="47.30151" lon="-1.34752">
        <ele>63</ele>
        <time>2020-12-20T08:20:27.267000+00:00</time>
      </trkpt>
      <trkpt lat="0" lon="0">
        <time>2020-12-20T08:20:27.278000+00:00</time>
      </trkpt>
      <trkpt lat="0" lon="0">
        <time>2020-12-20T08:20:27.281000+00:00</time>
      </trkpt>
      <trkpt lat="0" lon="0">
        <time>2020-12-20T08:20:27.283000+00:00</time>
      </trkpt>
      <trkpt lat="47.30151" lon="-1.34744">
        <ele>63</ele>
        <time>2020-12-20T08:20:28.265000+00:00</time>
      </trkpt>
      <trkpt lat="0" lon="0">
        <time>2020-12-20T08:20:28.280000+00:00</time>
      </trkpt>
      <trkpt lat="0" lon="0">
        <time>2020-12-20T08:20:28.289000+00:00</time>
      </trkpt>
      <trkpt lat="0" lon="0">
        <time>2020-12-20T08:20:28.296000+00:00</time>
      </trkpt>
      <trkpt lat="47.30151" lon="-1.34736">
        <ele>63</ele>
        <time>2020-12-20T08:20:29.231000+00:00</time>
      </trkpt>
      <trkpt lat="0" lon="0">
        <time>2020-12-20T08:20:29.235000+00:00</time>
      </trkpt>
      <trkpt lat="0" lon="0">
        <time>2020-12-20T08:20:29.238000+00:00</time>
      </trkpt>
      <trkpt lat="0" lon="0">
        <time>2020-12-20T08:20:29.246000+00:00</time>
      </trkpt>
      <trkpt lat="47.30151" lon="-1.34729">
        <ele>63</ele>
        <time>2020-12-20T08:20:30.231000+00:00</time>
      </trkpt>
      <trkpt lat="0" lon="0">
        <time>2020-12-20T08:20:30.247000+00:00</time>
      </trkpt>
      <trkpt lat="0" lon="0">
        <time>2020-12-20T08:20:30.249000+00:00</time>
      </trkpt>
      <trkpt lat="0" lon="0">
        <time>2020-12-20T08:20:30.250000+00:00</time>
      </trkpt>
      <trkpt lat="47.30151" lon="-1.34721">
        <ele>63</ele>
        <time>2020-12-20T08:20:31.250000+00:00</time>
      </trkpt>
      <trkpt lat="0" lon="0">
        <time>2020-12-20T08:20:31.253000+00:00</time>
      </trkpt>
      <trkpt lat="0" lon="0">
        <time>2020-12-20T08:20:31.256000+00:00</time>
      </trkpt>
      <trkpt lat="0" lon="0">
        <time>2020-12-20T08:20:31.257000+00:00</time>
      </trkpt>
      <trkpt lat="47.30152" lon="-1.34713">
        <ele>63</ele>
        <time>2020-12-20T08:20:32.240000+00:00</time>
      </trkpt>
      <trkpt lat="0" lon="0">
        <time>2020-12-20T08:20:32.244000+00:00</time>
      </trkpt>
      <trkpt lat="0" lon="0">
        <time>2020-12-20T08:20:32.248000+00:00</time>
      </trkpt>
      <trkpt lat="0" lon="0">
        <time>2020-12-20T08:20:32.250000+00:00</time>
      </trkpt>
      <trkpt lat="47.30152" lon="-1.34705">
        <ele>63</ele>
        <time>2020-12-20T08:20:33.275000+00:00</time>
      </trkpt>
      <trkpt lat="0" lon="0">
        <time>2020-12-20T08:20:33.281000+00:00</time>
      </trkpt>
      <trkpt lat="0" lon="0">
        <time>2020-12-20T08:20:33.285000+00:00</time>
      </trkpt>
      <trkpt lat="0" lon="0">
        <time>2020-12-20T08:20:33.287000+00:00</time>
      </trkpt>
      <trkpt lat="47.30153" lon="-1.34698">
        <ele>63</ele>
        <time>2020-12-20T08:20:34.272000+00:00</time>
      </trkpt>
      <trkpt lat="0" lon="0">
        <time>2020-12-20T08:20:34.280000+00:00</time>
      </trkpt>
      <trkpt lat="0" lon="0">
        <time>2020-12-20T08:20:34.286000+00:00</time>
      </trkpt>
      <trkpt lat="0" lon="0">
        <time>2020-12-20T08:20:34.288000+00:00</time>
      </trkpt>
      <trkpt lat="47.30154" lon="-1.34691">
        <ele>63</ele>
        <time>2020-12-20T08:20:35.259000+00:00</time>
      </trkpt>
      <trkpt lat="0" lon="0">
        <time>2020-12-20T08:20:35.270000+00:00</time>
      </trkpt>
      <trkpt lat="0" lon="0">
        <time>2020-12-20T08:20:35.274000+00:00</time>
      </trkpt>
      <trkpt lat="0" lon="0">
        <time>2020-12-20T08:20:35.277000+00:00</time>
      </trkpt>
      <trkpt lat="47.30155" lon="-1.34684">
        <ele>63</ele>
        <time>2020-12-20T08:20:36.244000+00:00</time>
      </trkpt>
      <trkpt lat="0" lon="0">
        <time>2020-12-20T08:20:36.257000+00:00</time>
      </trkpt>
      <trkpt lat="0" lon="0">
        <time>2020-12-20T08:20:36.264000+00:00</time>
      </trkpt>
      <trkpt lat="0" lon="0">
        <time>2020-12-20T08:20:36.266000+00:00</time>
      </trkpt>
      <trkpt lat="47.30155" lon="-1.34677">
        <ele>63</ele>
        <time>2020-12-20T08:20:37.235000+00:00</time>
      </trkpt>
      <trkpt lat="0" lon="0">
        <time>2020-12-20T08:20:37.261000+00:00</time>
      </trkpt>
      <trkpt lat="0" lon="0">
        <time>2020-12-20T08:20:37.265000+00:00</time>
      </trkpt>
      <trkpt lat="0" lon="0">
        <time>2020-12-20T08:20:37.266000+00:00</time>
      </trkpt>
      <trkpt lat="47.30155" lon="-1.3467">
        <ele>63</ele>
        <time>2020-12-20T08:20:38.255000+00:00</time>
      </trkpt>
      <trkpt lat="0" lon="0">
        <time>2020-12-20T08:20:38.264000+00:00</time>
      </trkpt>
      <trkpt lat="0" lon="0">
        <time>2020-12-20T08:20:38.269000+00:00</time>
      </trkpt>
      <trkpt lat="0" lon="0">
        <time>2020-12-20T08:20:38.274000+00:00</time>
      </trkpt>
      <trkpt lat="47.30154" lon="-1.34664">
        <ele>62</ele>
        <time>2020-12-20T08:20:39.239000+00:00</time>
      </trkpt>
      <trkpt lat="0" lon="0">
        <time>2020-12-20T08:20:39.246000+00:00</time>
      </trkpt>
      <trkpt lat="0" lon="0">
        <time>2020-12-20T08:20:39.254000+00:00</time>
      </trkpt>
      <trkpt lat="0" lon="0">
        <time>2020-12-20T08:20:39.258000+00:00</time>
      </trkpt>
      <trkpt lat="47.30153" lon="-1.34658">
        <ele>63</ele>
        <time>2020-12-20T08:20:40.227000+00:00</time>
      </trkpt>
      <trkpt lat="0" lon="0">
        <time>2020-12-20T08:20:40.238000+00:00</time>
      </trkpt>
      <trkpt lat="0" lon="0">
        <time>2020-12-20T08:20:40.249000+00:00</time>
      </trkpt>
      <trkpt lat="0" lon="0">
        <time>2020-12-20T08:20:40.254000+00:00</time>
      </trkpt>
      <trkpt lat="47.30152" lon="-1.34652">
        <ele>63</ele>
        <time>2020-12-20T08:20:41.243000+00:00</time>
      </trkpt>
      <trkpt lat="0" lon="0">
        <time>2020-12-20T08:20:41.263000+00:00</time>
      </trkpt>
      <trkpt lat="0" lon="0">
        <time>2020-12-20T08:20:41.271000+00:00</time>
      </trkpt>
      <trkpt lat="0" lon="0">
        <time>2020-12-20T08:20:41.273000+00:00</time>
      </trkpt>
      <trkpt lat="47.3015" lon="-1.34647">
        <ele>63</ele>
        <time>2020-12-20T08:20:42.267000+00:00</time>
      </trkpt>
      <trkpt lat="0" lon="0">
        <time>2020-12-20T08:20:42.276000+00:00</time>
      </trkpt>
      <trkpt lat="0" lon="0">
        <time>2020-12-20T08:20:42.280000+00:00</time>
      </trkpt>
      <trkpt lat="0" lon="0">
        <time>2020-12-20T08:20:42.283000+00:00</time>
      </trkpt>
      <trkpt lat="47.30149" lon="-1.34642">
        <ele>63</ele>
        <time>2020-12-20T08:20:43.240000+00:00</time>
      </trkpt>
      <trkpt lat="0" lon="0">
        <time>2020-12-20T08:20:43.251000+00:00</time>
      </trkpt>
      <trkpt lat="0" lon="0">
        <time>2020-12-20T08:20:43.255000+00:00</time>
      </trkpt>
      <trkpt lat="0" lon="0">
        <time>2020-12-20T08:20:43.257000+00:00</time>
      </trkpt>
      <trkpt lat="47.30147" lon="-1.34637">
        <ele>63</ele>
        <time>2020-12-20T08:20:44.270000+00:00</time>
      </trkpt>
      <trkpt lat="0" lon="0">
        <time>2020-12-20T08:20:44.273000+00:00</time>
      </trkpt>
      <trkpt lat="0" lon="0">
        <time>2020-12-20T08:20:44.290000+00:00</time>
      </trkpt>
      <trkpt lat="0" lon="0">
        <time>2020-12-20T08:20:44.292000+00:00</time>
      </trkpt>
      <trkpt lat="47.30146" lon="-1.34631">
        <ele>62</ele>
        <time>2020-12-20T08:20:45.253000+00:00</time>
      </trkpt>
      <trkpt lat="0" lon="0">
        <time>2020-12-20T08:20:45.264000+00:00</time>
      </trkpt>
      <trkpt lat="0" lon="0">
        <time>2020-12-20T08:20:45.266000+00:00</time>
      </trkpt>
      <trkpt lat="0" lon="0">
        <time>2020-12-20T08:20:45.267000+00:00</time>
      </trkpt>
      <trkpt lat="47.30145" lon="-1.34626">
        <ele>62</ele>
        <time>2020-12-20T08:20:46.230000+00:00</time>
      </trkpt>
      <trkpt lat="0" lon="0">
        <time>2020-12-20T08:20:46.233000+00:00</time>
      </trkpt>
      <trkpt lat="0" lon="0">
        <time>2020-12-20T08:20:46.236000+00:00</time>
      </trkpt>
      <trkpt lat="0" lon="0">
        <time>2020-12-20T08:20:46.237000+00:00</time>
      </trkpt>
      <trkpt lat="47.30144" lon="-1.3462">
        <ele>62</ele>
        <time>2020-12-20T08:20:47.238000+00:00</time>
      </trkpt>
      <trkpt lat="0" lon="0">
        <time>2020-12-20T08:20:47.243000+00:00</time>
      </trkpt>
      <trkpt lat="0" lon="0">
        <time>2020-12-20T08:20:47.246000+00:00</time>
      </trkpt>
      <trkpt lat="0" lon="0">
        <time>2020-12-20T08:20:47.247000+00:00</time>
      </trkpt>
      <trkpt lat="47.30144" lon="-1.34614">
        <ele>62</ele>
        <time>2020-12-20T08:20:48.238000+00:00</time>
      </trkpt>
      <trkpt lat="0" lon="0">
        <time>2020-12-20T08:20:48.253000+00:00</time>
      </trkpt>
      <trkpt lat="0" lon="0">
        <time>2020-12-20T08:20:48.262000+00:00</time>
      </trkpt>
      <trkpt lat="0" lon="0">
        <time>2020-12-20T08:20:48.266000+00:00</time>
      </trkpt>
      <trkpt lat="47.30143" lon="-1.34608">
        <ele>62</ele>
        <time>2020-12-20T08:20:49.267000+00:00</time>
      </trkpt>
      <trkpt lat="0" lon="0">
        <time>2020-12-20T08:20:49.273000+00:00</time>
      </trkpt>
      <trkpt lat="0" lon="0">
        <time>2020-12-20T08:20:49.285000+00:00</time>
      </trkpt>
      <trkpt lat="0" lon="0">
        <time>2020-12-20T08:20:49.287000+00:00</time>
      </trkpt>
      <trkpt lat="47.30143" lon="-1.34602">
        <ele>62</ele>
        <time>2020-12-20T08:20:50.252000+00:00</time>
      </trkpt>
      <trkpt lat="0" lon="0">
        <time>2020-12-20T08:20:50.264000+00:00</time>
      </trkpt>
      <trkpt lat="0" lon="0">
        <time>2020-12-20T08:20:50.266000+00:00</time>
      </trkpt>
      <trkpt lat="0" lon="0">
        <time>2020-12-20T08:20:50.267000+00:00</time>
      </trkpt>
      <trkpt lat="47.30144" lon="-1.34596">
        <ele>62</ele>
        <time>2020-12-20T08:20:51.240000+00:00</time>
      </trkpt>
      <trkpt lat="0" lon="0">
        <time>2020-12-20T08:20:51.251000+00:00</time>
      </trkpt>
      <trkpt lat="0" lon="0">
        <time>2020-12-20T08:20:51.255000+00:00</time>
      </trkpt>
      <trkpt lat="0" lon="0">
        <time>2020-12-20T08:20:51.258000+00:00</time>
      </trkpt>
      <trkpt lat="47.30144" lon="-1.3459">
        <ele>62</ele>
        <time>2020-12-20T08:20:52.242000+00:00</time>
      </trkpt>
      <trkpt lat="0" lon="0">
        <time>2020-12-20T08:20:52.253000+00:00</time>
      </trkpt>
      <trkpt lat="0" lon="0">
        <time>2020-12-20T08:20:52.257000+00:00</time>
      </trkpt>
      <trkpt lat="0" lon="0">
        <time>2020-12-20T08:20:52.261000+00:00</time>
      </trkpt>
      <trkpt lat="47.30145" lon="-1.34584">
        <ele>61</ele>
        <time>2020-12-20T08:20:53.249000+00:00</time>
      </trkpt>
      <trkpt lat="0" lon="0">
        <time>2020-12-20T08:20:53.259000+00:00</time>
      </trkpt>
      <trkpt lat="0" lon="0">
        <time>2020-12-20T08:20:53.263000+00:00</time>
      </trkpt>
      <trkpt lat="0" lon="0">
        <time>2020-12-20T08:20:53.267000+00:00</time>
      </trkpt>
      <trkpt lat="47.30145" lon="-1.34579">
        <ele>61</ele>
        <time>2020-12-20T08:20:54.241000+00:00</time>
      </trkpt>
      <trkpt lat="0" lon="0">
        <time>2020-12-20T08:20:54.260000+00:00</time>
      </trkpt>
      <trkpt lat="0" lon="0">
        <time>2020-12-20T08:20:54.262000+00:00</time>
      </trkpt>
      <trkpt lat="0" lon="0">
        <time>2020-12-20T08:20:54.263000+00:00</time>
      </trkpt>
      <trkpt lat="47.30146" lon="-1.34574">
        <ele>61</ele>
        <time>2020-12-20T08:20:55.239000+00:00</time>
      </trkpt>
      <trkpt lat="0" lon="0">
        <time>2020-12-20T08:20:55.245000+00:00</time>
      </trkpt>
      <trkpt lat="0" lon="0">
        <time>2020-12-20T08:20:55.249000+00:00</time>
      </trkpt>
      <trkpt lat="0" lon="0">
        <time>2020-12-20T08:20:55.254000+00:00</time>
      </trkpt>
      <trkpt lat="47.30146" lon="-1.34569">
        <ele>62</ele>
        <time>2020-12-20T08:20:56.242000+00:00</time>
      </trkpt>
      <trkpt lat="0" lon="0">
        <time>2020-12-20T08:20:56.252000+00:00</time>
      </trkpt>
      <trkpt lat="0" lon="0">
        <time>2020-12-20T08:20:56.254000+00:00</time>
      </trkpt>
      <trkpt lat="0" lon="0">
        <time>2020-12-20T08:20:56.255000+00:00</time>
      </trkpt>
      <trkpt lat="47.30146" lon="-1.34566">
        <ele>62</ele>
        <time>2020-12-20T08:20:57.243000+00:00</time>
      </trkpt>
      <trkpt lat="0" lon="0">
        <time>2020-12-20T08:20:57.252000+00:00</time>
      </trkpt>
      <trkpt lat="0" lon="0">
        <time>2020-12-20T08:20:57.260000+00:00</time>
      </trkpt>
      <trkpt lat="47.30145" lon="-1.34563">
        <ele>63</ele>
        <time>2020-12-20T08:20:58.213000+00:00</time>
      </trkpt>
      <trkpt lat="0" lon="0">
        <time>2020-12-20T08:20:58.232000+00:00</time>
      </trkpt>
      <trkpt lat="0" lon="0">
        <time>2020-12-20T08:20:58.246000+00:00</time>
      </trkpt>
      <trkpt lat="0" lon="0">
        <time>2020-12-20T08:20:58.250000+00:00</time>
      </trkpt>
      <trkpt lat="47.30145" lon="-1.3456">
        <ele>65</ele>
        <time>2020-12-20T08:20:59.205000+00:00</time>
      </trkpt>
      <trkpt lat="0" lon="0">
        <time>2020-12-20T08:20:59.215000+00:00</time>
      </trkpt>
      <trkpt lat="0" lon="0">
        <time>2020-12-20T08:20:59.219000+00:00</time>
      </trkpt>
      <trkpt lat="0" lon="0">
        <time>2020-12-20T08:20:59.221000+00:00</time>
      </trkpt>
      <trkpt lat="47.30143" lon="-1.34558">
        <ele>66</ele>
        <time>2020-12-20T08:21:00.208000+00:00</time>
      </trkpt>
      <trkpt lat="0" lon="0">
        <time>2020-12-20T08:21:00.213000+00:00</time>
      </trkpt>
      <trkpt lat="0" lon="0">
        <time>2020-12-20T08:21:00.217000+00:00</time>
      </trkpt>
      <trkpt lat="0" lon="0">
        <time>2020-12-20T08:21:00.225000+00:00</time>
      </trkpt>
      <trkpt lat="47.30142" lon="-1.34557">
        <ele>67</ele>
        <time>2020-12-20T08:21:01.218000+00:00</time>
      </trkpt>
      <trkpt lat="0" lon="0">
        <time>2020-12-20T08:21:01.226000+00:00</time>
      </trkpt>
      <trkpt lat="0" lon="0">
        <time>2020-12-20T08:21:01.231000+00:00</time>
      </trkpt>
      <trkpt lat="0" lon="0">
        <time>2020-12-20T08:21:01.233000+00:00</time>
      </trkpt>
      <trkpt lat="47.30139" lon="-1.34554">
        <ele>68</ele>
        <time>2020-12-20T08:21:02.291000+00:00</time>
      </trkpt>
      <trkpt lat="0" lon="0">
        <time>2020-12-20T08:21:02.299000+00:00</time>
      </trkpt>
      <trkpt lat="0" lon="0">
        <time>2020-12-20T08:21:02.301000+00:00</time>
      </trkpt>
      <trkpt lat="0" lon="0">
        <time>2020-12-20T08:21:02.302000+00:00</time>
      </trkpt>
      <trkpt lat="47.30136" lon="-1.34552">
        <ele>69</ele>
        <time>2020-12-20T08:21:03.266000+00:00</time>
      </trkpt>
      <trkpt lat="0" lon="0">
        <time>2020-12-20T08:21:03.283000+00:00</time>
      </trkpt>
      <trkpt lat="0" lon="0">
        <time>2020-12-20T08:21:03.285000+00:00</time>
      </trkpt>
      <trkpt lat="0" lon="0">
        <time>2020-12-20T08:21:03.287000+00:00</time>
      </trkpt>
      <trkpt lat="47.30132" lon="-1.3455">
        <ele>69</ele>
        <time>2020-12-20T08:21:04.247000+00:00</time>
      </trkpt>
      <trkpt lat="0" lon="0">
        <time>2020-12-20T08:21:04.251000+00:00</time>
      </trkpt>
      <trkpt lat="0" lon="0">
        <time>2020-12-20T08:21:04.256000+00:00</time>
      </trkpt>
      <trkpt lat="0" lon="0">
        <time>2020-12-20T08:21:04.258000+00:00</time>
      </trkpt>
      <trkpt lat="47.30128" lon="-1.34548">
        <ele>69</ele>
        <time>2020-12-20T08:21:05.244000+00:00</time>
      </trkpt>
      <trkpt lat="0" lon="0">
        <time>2020-12-20T08:21:05.262000+00:00</time>
      </trkpt>
      <trkpt lat="0" lon="0">
        <time>2020-12-20T08:21:05.270000+00:00</time>
      </trkpt>
      <trkpt lat="0" lon="0">
        <time>2020-12-20T08:21:05.273000+00:00</time>
      </trkpt>
      <trkpt lat="47.30123" lon="-1.34546">
        <ele>69</ele>
        <time>2020-12-20T08:21:06.252000+00:00</time>
      </trkpt>
      <trkpt lat="0" lon="0">
        <time>2020-12-20T08:21:06.262000+00:00</time>
      </trkpt>
      <trkpt lat="0" lon="0">
        <time>2020-12-20T08:21:06.268000+00:00</time>
      </trkpt>
      <trkpt lat="0" lon="0">
        <time>2020-12-20T08:21:06.269000+00:00</time>
      </trkpt>
      <trkpt lat="47.30118" lon="-1.34544">
        <ele>70</ele>
        <time>2020-12-20T08:21:07.234000+00:00</time>
      </trkpt>
      <trkpt lat="0" lon="0">
        <time>2020-12-20T08:21:07.239000+00:00</time>
      </trkpt>
      <trkpt lat="0" lon="0">
        <time>2020-12-20T08:21:07.253000+00:00</time>
      </trkpt>
      <trkpt lat="0" lon="0">
        <time>2020-12-20T08:21:07.256000+00:00</time>
      </trkpt>
      <trkpt lat="47.30113" lon="-1.34541">
        <ele>70</ele>
        <time>2020-12-20T08:21:08.271000+00:00</time>
      </trkpt>
      <trkpt lat="0" lon="0">
        <time>2020-12-20T08:21:08.282000+00:00</time>
      </trkpt>
      <trkpt lat="0" lon="0">
        <time>2020-12-20T08:21:08.283000+00:00</time>
      </trkpt>
      <trkpt lat="0" lon="0">
        <time>2020-12-20T08:21:08.285000+00:00</time>
      </trkpt>
      <trkpt lat="47.30107" lon="-1.34537">
        <ele>69</ele>
        <time>2020-12-20T08:21:09.210000+00:00</time>
      </trkpt>
      <trkpt lat="0" lon="0">
        <time>2020-12-20T08:21:09.223000+00:00</time>
      </trkpt>
      <trkpt lat="0" lon="0">
        <time>2020-12-20T08:21:09.229000+00:00</time>
      </trkpt>
      <trkpt lat="0" lon="0">
        <time>2020-12-20T08:21:09.231000+00:00</time>
      </trkpt>
      <trkpt lat="47.30102" lon="-1.34532">
        <ele>69</ele>
        <time>2020-12-20T08:21:10.222000+00:00</time>
      </trkpt>
      <trkpt lat="0" lon="0">
        <time>2020-12-20T08:21:10.234000+00:00</time>
      </trkpt>
      <trkpt lat="0" lon="0">
        <time>2020-12-20T08:21:10.238000+00:00</time>
      </trkpt>
      <trkpt lat="0" lon="0">
        <time>2020-12-20T08:21:10.241000+00:00</time>
      </trkpt>
      <trkpt lat="47.30097" lon="-1.34527">
        <ele>68</ele>
        <time>2020-12-20T08:21:11.266000+00:00</time>
      </trkpt>
      <trkpt lat="0" lon="0">
        <time>2020-12-20T08:21:11.272000+00:00</time>
      </trkpt>
      <trkpt lat="0" lon="0">
        <time>2020-12-20T08:21:11.289000+00:00</time>
      </trkpt>
      <trkpt lat="0" lon="0">
        <time>2020-12-20T08:21:11.290000+00:00</time>
      </trkpt>
      <trkpt lat="47.30091" lon="-1.34522">
        <ele>68</ele>
        <time>2020-12-20T08:21:12.224000+00:00</time>
      </trkpt>
      <trkpt lat="0" lon="0">
        <time>2020-12-20T08:21:12.229000+00:00</time>
      </trkpt>
      <trkpt lat="0" lon="0">
        <time>2020-12-20T08:21:12.235000+00:00</time>
      </trkpt>
      <trkpt lat="0" lon="0">
        <time>2020-12-20T08:21:12.238000+00:00</time>
      </trkpt>
      <trkpt lat="47.30087" lon="-1.34516">
        <ele>68</ele>
        <time>2020-12-20T08:21:13.245000+00:00</time>
      </trkpt>
      <trkpt lat="0" lon="0">
        <time>2020-12-20T08:21:13.249000+00:00</time>
      </trkpt>
      <trkpt lat="0" lon="0">
        <time>2020-12-20T08:21:13.257000+00:00</time>
      </trkpt>
      <trkpt lat="0" lon="0">
        <time>2020-12-20T08:21:13.260000+00:00</time>
      </trkpt>
      <trkpt lat="47.30083" lon="-1.34509">
        <ele>68</ele>
        <time>2020-12-20T08:21:14.284000+00:00</time>
      </trkpt>
      <trkpt lat="0" lon="0">
        <time>2020-12-20T08:21:14.294000+00:00</time>
      </trkpt>
      <trkpt lat="0" lon="0">
        <time>2020-12-20T08:21:14.301000+00:00</time>
      </trkpt>
      <trkpt lat="0" lon="0">
        <time>2020-12-20T08:21:14.303000+00:00</time>
      </trkpt>
      <trkpt lat="47.30079" lon="-1.34502">
        <ele>69</ele>
        <time>2020-12-20T08:21:15.186000+00:00</time>
      </trkpt>
      <trkpt lat="0" lon="0">
        <time>2020-12-20T08:21:15.193000+00:00</time>
      </trkpt>
      <trkpt lat="0" lon="0">
        <time>2020-12-20T08:21:15.196000+00:00</time>
      </trkpt>
      <trkpt lat="0" lon="0">
        <time>2020-12-20T08:21:15.199000+00:00</time>
      </trkpt>
      <trkpt lat="47.30076" lon="-1.34494">
        <ele>69</ele>
        <time>2020-12-20T08:21:16.291000+00:00</time>
      </trkpt>
      <trkpt lat="0" lon="0">
        <time>2020-12-20T08:21:16.296000+00:00</time>
      </trkpt>
      <trkpt lat="0" lon="0">
        <time>2020-12-20T08:21:16.303000+00:00</time>
      </trkpt>
      <trkpt lat="0" lon="0">
        <time>2020-12-20T08:21:16.308000+00:00</time>
      </trkpt>
      <trkpt lat="47.30073" lon="-1.34487">
        <ele>69</ele>
        <time>2020-12-20T08:21:17.216000+00:00</time>
      </trkpt>
      <trkpt lat="0" lon="0">
        <time>2020-12-20T08:21:17.224000+00:00</time>
      </trkpt>
      <trkpt lat="0" lon="0">
        <time>2020-12-20T08:21:17.228000+00:00</time>
      </trkpt>
      <trkpt lat="0" lon="0">
        <time>2020-12-20T08:21:17.231000+00:00</time>
      </trkpt>
      <trkpt lat="47.30071" lon="-1.34479">
        <ele>69</ele>
        <time>2020-12-20T08:21:18.231000+00:00</time>
      </trkpt>
      <trkpt lat="0" lon="0">
        <time>2020-12-20T08:21:18.253000+00:00</time>
      </trkpt>
      <trkpt lat="0" lon="0">
        <time>2020-12-20T08:21:18.264000+00:00</time>
      </trkpt>
      <trkpt lat="0" lon="0">
        <time>2020-12-20T08:21:18.267000+00:00</time>
      </trkpt>
      <trkpt lat="47.30069" lon="-1.34471">
        <ele>69</ele>
        <time>2020-12-20T08:21:19.217000+00:00</time>
      </trkpt>
      <trkpt lat="0" lon="0">
        <time>2020-12-20T08:21:19.227000+00:00</time>
      </trkpt>
      <trkpt lat="0" lon="0">
        <time>2020-12-20T08:21:19.244000+00:00</time>
      </trkpt>
      <trkpt lat="0" lon="0">
        <time>2020-12-20T08:21:19.251000+00:00</time>
      </trkpt>
      <trkpt lat="47.30067" lon="-1.34463">
        <ele>69</ele>
        <time>2020-12-20T08:21:20.239000+00:00</time>
      </trkpt>
      <trkpt lat="0" lon="0">
        <time>2020-12-20T08:21:20.250000+00:00</time>
      </trkpt>
      <trkpt lat="0" lon="0">
        <time>2020-12-20T08:21:20.254000+00:00</time>
      </trkpt>
      <trkpt lat="0" lon="0">
        <time>2020-12-20T08:21:20.258000+00:00</time>
      </trkpt>
      <trkpt lat="47.30066" lon="-1.34455">
        <ele>68</ele>
        <time>2020-12-20T08:21:21.245000+00:00</time>
      </trkpt>
      <trkpt lat="0" lon="0">
        <time>2020-12-20T08:21:21.257000+00:00</time>
      </trkpt>
      <trkpt lat="0" lon="0">
        <time>2020-12-20T08:21:21.272000+00:00</time>
      </trkpt>
      <trkpt lat="0" lon="0">
        <time>2020-12-20T08:21:21.273000+00:00</time>
      </trkpt>
      <trkpt lat="47.30065" lon="-1.34446">
        <ele>68</ele>
        <time>2020-12-20T08:21:22.219000+00:00</time>
      </trkpt>
      <trkpt lat="0" lon="0">
        <time>2020-12-20T08:21:22.234000+00:00</time>
      </trkpt>
      <trkpt lat="0" lon="0">
        <time>2020-12-20T08:21:22.240000+00:00</time>
      </trkpt>
      <trkpt lat="0" lon="0">
        <time>2020-12-20T08:21:22.244000+00:00</time>
      </trkpt>
      <trkpt lat="47.30063" lon="-1.34438">
        <ele>67</ele>
        <time>2020-12-20T08:21:23.215000+00:00</time>
      </trkpt>
      <trkpt lat="0" lon="0">
        <time>2020-12-20T08:21:23.232000+00:00</time>
      </trkpt>
      <trkpt lat="0" lon="0">
        <time>2020-12-20T08:21:23.237000+00:00</time>
      </trkpt>
      <trkpt lat="0" lon="0">
        <time>2020-12-20T08:21:23.238000+00:00</time>
      </trkpt>
      <trkpt lat="47.30062" lon="-1.3443">
        <ele>66</ele>
        <time>2020-12-20T08:21:24.262000+00:00</time>
      </trkpt>
      <trkpt lat="0" lon="0">
        <time>2020-12-20T08:21:24.274000+00:00</time>
      </trkpt>
      <trkpt lat="0" lon="0">
        <time>2020-12-20T08:21:24.283000+00:00</time>
      </trkpt>
      <trkpt lat="0" lon="0">
        <time>2020-12-20T08:21:24.287000+00:00</time>
      </trkpt>
      <trkpt lat="47.30061" lon="-1.34422">
        <ele>66</ele>
        <time>2020-12-20T08:21:25.236000+00:00</time>
      </trkpt>
      <trkpt lat="0" lon="0">
        <time>2020-12-20T08:21:25.240000+00:00</time>
      </trkpt>
      <trkpt lat="0" lon="0">
        <time>2020-12-20T08:21:25.246000+00:00</time>
      </trkpt>
      <trkpt lat="0" lon="0">
        <time>2020-12-20T08:21:25.248000+00:00</time>
      </trkpt>
      <trkpt lat="47.3006" lon="-1.34414">
        <ele>66</ele>
        <time>2020-12-20T08:21:26.245000+00:00</time>
      </trkpt>
      <trkpt lat="0" lon="0">
        <time>2020-12-20T08:21:26.256000+00:00</time>
      </trkpt>
      <trkpt lat="0" lon="0">
        <time>2020-12-20T08:21:26.280000+00:00</time>
      </trkpt>
      <trkpt lat="0" lon="0">
        <time>2020-12-20T08:21:26.286000+00:00</time>
      </trkpt>
      <trkpt lat="47.30059" lon="-1.34406">
        <ele>66</ele>
        <time>2020-12-20T08:21:27.241000+00:00</time>
      </trkpt>
      <trkpt lat="0" lon="0">
        <time>2020-12-20T08:21:27.253000+00:00</time>
      </trkpt>
      <trkpt lat="0" lon="0">
        <time>2020-12-20T08:21:27.263000+00:00</time>
      </trkpt>
      <trkpt lat="0" lon="0">
        <time>2020-12-20T08:21:27.282000+00:00</time>
      </trkpt>
      <trkpt lat="47.30058" lon="-1.34398">
        <ele>65</ele>
        <time>2020-12-20T08:21:28.240000+00:00</time>
      </trkpt>
      <trkpt lat="0" lon="0">
        <time>2020-12-20T08:21:28.252000+00:00</time>
      </trkpt>
      <trkpt lat="0" lon="0">
        <time>2020-12-20T08:21:28.259000+00:00</time>
      </trkpt>
      <trkpt lat="0" lon="0">
        <time>2020-12-20T08:21:28.264000+00:00</time>
      </trkpt>
      <trkpt lat="47.30057" lon="-1.3439">
        <ele>65</ele>
        <time>2020-12-20T08:21:29.224000+00:00</time>
      </trkpt>
      <trkpt lat="0" lon="0">
        <time>2020-12-20T08:21:29.231000+00:00</time>
      </trkpt>
      <trkpt lat="0" lon="0">
        <time>2020-12-20T08:21:29.240000+00:00</time>
      </trkpt>
      <trkpt lat="0" lon="0">
        <time>2020-12-20T08:21:29.243000+00:00</time>
      </trkpt>
      <trkpt lat="47.30057" lon="-1.34382">
        <ele>64</ele>
        <time>2020-12-20T08:21:30.241000+00:00</time>
      </trkpt>
      <trkpt lat="0" lon="0">
        <time>2020-12-20T08:21:30.250000+00:00</time>
      </trkpt>
      <trkpt lat="0" lon="0">
        <time>2020-12-20T08:21:30.254000+00:00</time>
      </trkpt>
      <trkpt lat="0" lon="0">
        <time>2020-12-20T08:21:30.256000+00:00</time>
      </trkpt>
      <trkpt lat="47.30056" lon="-1.34375">
        <ele>64</ele>
        <time>2020-12-20T08:21:31.219000+00:00</time>
      </trkpt>
      <trkpt lat="0" lon="0">
        <time>2020-12-20T08:21:31.224000+00:00</time>
      </trkpt>
      <trkpt lat="0" lon="0">
        <time>2020-12-20T08:21:31.227000+00:00</time>
      </trkpt>
      <trkpt lat="0" lon="0">
        <time>2020-12-20T08:21:31.229000+00:00</time>
      </trkpt>
      <trkpt lat="47.30055" lon="-1.34367">
        <ele>64</ele>
        <time>2020-12-20T08:21:32.227000+00:00</time>
      </trkpt>
      <trkpt lat="0" lon="0">
        <time>2020-12-20T08:21:32.235000+00:00</time>
      </trkpt>
      <trkpt lat="0" lon="0">
        <time>2020-12-20T08:21:32.253000+00:00</time>
      </trkpt>
      <trkpt lat="0" lon="0">
        <time>2020-12-20T08:21:32.258000+00:00</time>
      </trkpt>
      <trkpt lat="47.30054" lon="-1.34359">
        <ele>63</ele>
        <time>2020-12-20T08:21:33.236000+00:00</time>
      </trkpt>
      <trkpt lat="0" lon="0">
        <time>2020-12-20T08:21:33.238000+00:00</time>
      </trkpt>
      <trkpt lat="0" lon="0">
        <time>2020-12-20T08:21:33.243000+00:00</time>
      </trkpt>
      <trkpt lat="0" lon="0">
        <time>2020-12-20T08:21:33.244000+00:00</time>
      </trkpt>
      <trkpt lat="47.30053" lon="-1.34351">
        <ele>63</ele>
        <time>2020-12-20T08:21:34.236000+00:00</time>
      </trkpt>
      <trkpt lat="0" lon="0">
        <time>2020-12-20T08:21:34.252000+00:00</time>
      </trkpt>
      <trkpt lat="0" lon="0">
        <time>2020-12-20T08:21:34.259000+00:00</time>
      </trkpt>
      <trkpt lat="0" lon="0">
        <time>2020-12-20T08:21:34.264000+00:00</time>
      </trkpt>
      <trkpt lat="47.30052" lon="-1.34344">
        <ele>63</ele>
        <time>2020-12-20T08:21:35.243000+00:00</time>
      </trkpt>
      <trkpt lat="0" lon="0">
        <time>2020-12-20T08:21:35.252000+00:00</time>
      </trkpt>
      <trkpt lat="0" lon="0">
        <time>2020-12-20T08:21:35.259000+00:00</time>
      </trkpt>
      <trkpt lat="0" lon="0">
        <time>2020-12-20T08:21:35.262000+00:00</time>
      </trkpt>
      <trkpt lat="47.30051" lon="-1.34336">
        <ele>63</ele>
        <time>2020-12-20T08:21:36.258000+00:00</time>
      </trkpt>
      <trkpt lat="0" lon="0">
        <time>2020-12-20T08:21:36.265000+00:00</time>
      </trkpt>
      <trkpt lat="0" lon="0">
        <time>2020-12-20T08:21:36.268000+00:00</time>
      </trkpt>
      <trkpt lat="0" lon="0">
        <time>2020-12-20T08:21:36.269000+00:00</time>
      </trkpt>
      <trkpt lat="47.3005" lon="-1.34328">
        <ele>63</ele>
        <time>2020-12-20T08:21:37.262000+00:00</time>
      </trkpt>
      <trkpt lat="0" lon="0">
        <time>2020-12-20T08:21:37.280000+00:00</time>
      </trkpt>
      <trkpt lat="0" lon="0">
        <time>2020-12-20T08:21:37.285000+00:00</time>
      </trkpt>
      <trkpt lat="0" lon="0">
        <time>2020-12-20T08:21:37.287000+00:00</time>
      </trkpt>
      <trkpt lat="47.30049" lon="-1.34321">
        <ele>63</ele>
        <time>2020-12-20T08:21:38.258000+00:00</time>
      </trkpt>
      <trkpt lat="0" lon="0">
        <time>2020-12-20T08:21:38.265000+00:00</time>
      </trkpt>
      <trkpt lat="0" lon="0">
        <time>2020-12-20T08:21:38.270000+00:00</time>
      </trkpt>
      <trkpt lat="0" lon="0">
        <time>2020-12-20T08:21:38.273000+00:00</time>
      </trkpt>
      <trkpt lat="47.30047" lon="-1.34313">
        <ele>63</ele>
        <time>2020-12-20T08:21:39.242000+00:00</time>
      </trkpt>
      <trkpt lat="0" lon="0">
        <time>2020-12-20T08:21:39.263000+00:00</time>
      </trkpt>
      <trkpt lat="0" lon="0">
        <time>2020-12-20T08:21:39.272000+00:00</time>
      </trkpt>
      <trkpt lat="0" lon="0">
        <time>2020-12-20T08:21:39.277000+00:00</time>
      </trkpt>
      <trkpt lat="47.30046" lon="-1.34306">
        <ele>63</ele>
        <time>2020-12-20T08:21:40.263000+00:00</time>
      </trkpt>
      <trkpt lat="0" lon="0">
        <time>2020-12-20T08:21:40.277000+00:00</time>
      </trkpt>
      <trkpt lat="0" lon="0">
        <time>2020-12-20T08:21:40.285000+00:00</time>
      </trkpt>
      <trkpt lat="0" lon="0">
        <time>2020-12-20T08:21:40.289000+00:00</time>
      </trkpt>
      <trkpt lat="47.30045" lon="-1.34299">
        <ele>62</ele>
        <time>2020-12-20T08:21:41.252000+00:00</time>
      </trkpt>
      <trkpt lat="0" lon="0">
        <time>2020-12-20T08:21:41.266000+00:00</time>
      </trkpt>
      <trkpt lat="0" lon="0">
        <time>2020-12-20T08:21:41.275000+00:00</time>
      </trkpt>
      <trkpt lat="0" lon="0">
        <time>2020-12-20T08:21:41.278000+00:00</time>
      </trkpt>
      <trkpt lat="47.30044" lon="-1.34292">
        <ele>62</ele>
        <time>2020-12-20T08:21:42.224000+00:00</time>
      </trkpt>
      <trkpt lat="0" lon="0">
        <time>2020-12-20T08:21:42.230000+00:00</time>
      </trkpt>
      <trkpt lat="0" lon="0">
        <time>2020-12-20T08:21:42.234000+00:00</time>
      </trkpt>
      <trkpt lat="0" lon="0">
        <time>2020-12-20T08:21:42.236000+00:00</time>
      </trkpt>
      <trkpt lat="47.30042" lon="-1.34285">
        <ele>62</ele>
        <time>2020-12-20T08:21:43.216000+00:00</time>
      </trkpt>
      <trkpt lat="0" lon="0">
        <time>2020-12-20T08:21:43.223000+00:00</time>
      </trkpt>
      <trkpt lat="0" lon="0">
        <time>2020-12-20T08:21:43.227000+00:00</time>
      </trkpt>
      <trkpt lat="0" lon="0">
        <time>2020-12-20T08:21:43.230000+00:00</time>
      </trkpt>
      <trkpt lat="47.30041" lon="-1.34278">
        <ele>62</ele>
        <time>2020-12-20T08:21:44.254000+00:00</time>
      </trkpt>
      <trkpt lat="0" lon="0">
        <time>2020-12-20T08:21:44.263000+00:00</time>
      </trkpt>
      <trkpt lat="0" lon="0">
        <time>2020-12-20T08:21:44.267000+00:00</time>
      </trkpt>
      <trkpt lat="0" lon="0">
        <time>2020-12-20T08:21:44.270000+00:00</time>
      </trkpt>
      <trkpt lat="47.3004" lon="-1.34271">
        <ele>62</ele>
        <time>2020-12-20T08:21:45.245000+00:00</time>
      </trkpt>
      <trkpt lat="0" lon="0">
        <time>2020-12-20T08:21:45.250000+00:00</time>
      </trkpt>
      <trkpt lat="0" lon="0">
        <time>2020-12-20T08:21:45.258000+00:00</time>
      </trkpt>
      <trkpt lat="0" lon="0">
        <time>2020-12-20T08:21:45.262000+00:00</time>
      </trkpt>
      <trkpt lat="47.30039" lon="-1.34264">
        <ele>62</ele>
        <time>2020-12-20T08:21:46.219000+00:00</time>
      </trkpt>
      <trkpt lat="0" lon="0">
        <time>2020-12-20T08:21:46.232000+00:00</time>
      </trkpt>
      <trkpt lat="0" lon="0">
        <time>2020-12-20T08:21:46.237000+00:00</time>
      </trkpt>
      <trkpt lat="0" lon="0">
        <time>2020-12-20T08:21:46.240000+00:00</time>
      </trkpt>
      <trkpt lat="47.30037" lon="-1.34257">
        <ele>62</ele>
        <time>2020-12-20T08:21:47.231000+00:00</time>
      </trkpt>
      <trkpt lat="0" lon="0">
        <time>2020-12-20T08:21:47.237000+00:00</time>
      </trkpt>
      <trkpt lat="0" lon="0">
        <time>2020-12-20T08:21:47.242000+00:00</time>
      </trkpt>
      <trkpt lat="0" lon="0">
        <time>2020-12-20T08:21:47.246000+00:00</time>
      </trkpt>
      <trkpt lat="47.30036" lon="-1.3425">
        <ele>62</ele>
        <time>2020-12-20T08:21:48.239000+00:00</time>
      </trkpt>
      <trkpt lat="0" lon="0">
        <time>2020-12-20T08:21:48.259000+00:00</time>
      </trkpt>
      <trkpt lat="0" lon="0">
        <time>2020-12-20T08:21:48.266000+00:00</time>
      </trkpt>
      <trkpt lat="0" lon="0">
        <time>2020-12-20T08:21:48.267000+00:00</time>
      </trkpt>
      <trkpt lat="47.30034" lon="-1.34243">
        <ele>61</ele>
        <time>2020-12-20T08:21:49.242000+00:00</time>
      </trkpt>
      <trkpt lat="0" lon="0">
        <time>2020-12-20T08:21:49.255000+00:00</time>
      </trkpt>
      <trkpt lat="0" lon="0">
        <time>2020-12-20T08:21:49.257000+00:00</time>
      </trkpt>
      <trkpt lat="0" lon="0">
        <time>2020-12-20T08:21:49.259000+00:00</time>
      </trkpt>
      <trkpt lat="47.30033" lon="-1.34236">
        <ele>61</ele>
        <time>2020-12-20T08:21:50.235000+00:00</time>
      </trkpt>
      <trkpt lat="0" lon="0">
        <time>2020-12-20T08:21:50.243000+00:00</time>
      </trkpt>
      <trkpt lat="0" lon="0">
        <time>2020-12-20T08:21:50.248000+00:00</time>
      </trkpt>
      <trkpt lat="0" lon="0">
        <time>2020-12-20T08:21:50.251000+00:00</time>
      </trkpt>
      <trkpt lat="47.30031" lon="-1.34229">
        <ele>61</ele>
        <time>2020-12-20T08:21:51.248000+00:00</time>
      </trkpt>
      <trkpt lat="0" lon="0">
        <time>2020-12-20T08:21:51.263000+00:00</time>
      </trkpt>
      <trkpt lat="0" lon="0">
        <time>2020-12-20T08:21:51.268000+00:00</time>
      </trkpt>
      <trkpt lat="0" lon="0">
        <time>2020-12-20T08:21:51.270000+00:00</time>
      </trkpt>
      <trkpt lat="47.3003" lon="-1.34221">
        <ele>61</ele>
        <time>2020-12-20T08:21:52.251000+00:00</time>
      </trkpt>
      <trkpt lat="0" lon="0">
        <time>2020-12-20T08:21:52.258000+00:00</time>
      </trkpt>
      <trkpt lat="0" lon="0">
        <time>2020-12-20T08:21:52.264000+00:00</time>
      </trkpt>
      <trkpt lat="0" lon="0">
        <time>2020-12-20T08:21:52.267000+00:00</time>
      </trkpt>
      <trkpt lat="47.30028" lon="-1.34214">
        <ele>60</ele>
        <time>2020-12-20T08:21:53.250000+00:00</time>
      </trkpt>
      <trkpt lat="0" lon="0">
        <time>2020-12-20T08:21:53.268000+00:00</time>
      </trkpt>
      <trkpt lat="0" lon="0">
        <time>2020-12-20T08:21:53.272000+00:00</time>
      </trkpt>
      <trkpt lat="0" lon="0">
        <time>2020-12-20T08:21:53.276000+00:00</time>
      </trkpt>
      <trkpt lat="47.30027" lon="-1.34207">
        <ele>61</ele>
        <time>2020-12-20T08:21:54.256000+00:00</time>
      </trkpt>
      <trkpt lat="0" lon="0">
        <time>2020-12-20T08:21:54.268000+00:00</time>
      </trkpt>
      <trkpt lat="0" lon="0">
        <time>2020-12-20T08:21:54.274000+00:00</time>
      </trkpt>
      <trkpt lat="0" lon="0">
        <time>2020-12-20T08:21:54.276000+00:00</time>
      </trkpt>
      <trkpt lat="47.30025" lon="-1.342">
        <ele>60</ele>
        <time>2020-12-20T08:21:55.233000+00:00</time>
      </trkpt>
      <trkpt lat="0" lon="0">
        <time>2020-12-20T08:21:55.237000+00:00</time>
      </trkpt>
      <trkpt lat="0" lon="0">
        <time>2020-12-20T08:21:55.242000+00:00</time>
      </trkpt>
      <trkpt lat="0" lon="0">
        <time>2020-12-20T08:21:55.244000+00:00</time>
      </trkpt>
      <trkpt lat="47.30024" lon="-1.34192">
        <ele>60</ele>
        <time>2020-12-20T08:21:56.251000+00:00</time>
      </trkpt>
      <trkpt lat="0" lon="0">
        <time>2020-12-20T08:21:56.259000+00:00</time>
      </trkpt>
      <trkpt lat="0" lon="0">
        <time>2020-12-20T08:21:56.263000+00:00</time>
      </trkpt>
      <trkpt lat="0" lon="0">
        <time>2020-12-20T08:21:56.266000+00:00</time>
      </trkpt>
      <trkpt lat="47.30022" lon="-1.34185">
        <ele>60</ele>
        <time>2020-12-20T08:21:57.249000+00:00</time>
      </trkpt>
      <trkpt lat="0" lon="0">
        <time>2020-12-20T08:21:57.269000+00:00</time>
      </trkpt>
      <trkpt lat="0" lon="0">
        <time>2020-12-20T08:21:57.274000+00:00</time>
      </trkpt>
      <trkpt lat="0" lon="0">
        <time>2020-12-20T08:21:57.276000+00:00</time>
      </trkpt>
      <trkpt lat="47.30021" lon="-1.34178">
        <ele>61</ele>
        <time>2020-12-20T08:21:58.224000+00:00</time>
      </trkpt>
      <trkpt lat="0" lon="0">
        <time>2020-12-20T08:21:58.233000+00:00</time>
      </trkpt>
      <trkpt lat="0" lon="0">
        <time>2020-12-20T08:21:58.237000+00:00</time>
      </trkpt>
      <trkpt lat="0" lon="0">
        <time>2020-12-20T08:21:58.239000+00:00</time>
      </trkpt>
      <trkpt lat="47.30019" lon="-1.34171">
        <ele>61</ele>
        <time>2020-12-20T08:21:59.251000+00:00</time>
      </trkpt>
      <trkpt lat="0" lon="0">
        <time>2020-12-20T08:21:59.266000+00:00</time>
      </trkpt>
      <trkpt lat="0" lon="0">
        <time>2020-12-20T08:21:59.269000+00:00</time>
      </trkpt>
      <trkpt lat="0" lon="0">
        <time>2020-12-20T08:21:59.274000+00:00</time>
      </trkpt>
      <trkpt lat="47.30017" lon="-1.34164">
        <ele>61</ele>
        <time>2020-12-20T08:22:00.252000+00:00</time>
      </trkpt>
      <trkpt lat="0" lon="0">
        <time>2020-12-20T08:22:00.262000+00:00</time>
      </trkpt>
      <trkpt lat="0" lon="0">
        <time>2020-12-20T08:22:00.266000+00:00</time>
      </trkpt>
      <trkpt lat="0" lon="0">
        <time>2020-12-20T08:22:00.268000+00:00</time>
      </trkpt>
      <trkpt lat="47.30016" lon="-1.34157">
        <ele>61</ele>
        <time>2020-12-20T08:22:01.235000+00:00</time>
      </trkpt>
      <trkpt lat="0" lon="0">
        <time>2020-12-20T08:22:01.237000+00:00</time>
      </trkpt>
      <trkpt lat="0" lon="0">
        <time>2020-12-20T08:22:01.239000+00:00</time>
      </trkpt>
      <trkpt lat="0" lon="0">
        <time>2020-12-20T08:22:01.240000+00:00</time>
      </trkpt>
      <trkpt lat="47.30014" lon="-1.3415">
        <ele>61</ele>
        <time>2020-12-20T08:22:02.215000+00:00</time>
      </trkpt>
      <trkpt lat="0" lon="0">
        <time>2020-12-20T08:22:02.229000+00:00</time>
      </trkpt>
      <trkpt lat="0" lon="0">
        <time>2020-12-20T08:22:02.238000+00:00</time>
      </trkpt>
      <trkpt lat="0" lon="0">
        <time>2020-12-20T08:22:02.241000+00:00</time>
      </trkpt>
      <trkpt lat="47.30013" lon="-1.34143">
        <ele>61</ele>
        <time>2020-12-20T08:22:03.222000+00:00</time>
      </trkpt>
      <trkpt lat="0" lon="0">
        <time>2020-12-20T08:22:03.225000+00:00</time>
      </trkpt>
      <trkpt lat="0" lon="0">
        <time>2020-12-20T08:22:03.229000+00:00</time>
      </trkpt>
      <trkpt lat="0" lon="0">
        <time>2020-12-20T08:22:03.232000+00:00</time>
      </trkpt>
      <trkpt lat="47.30012" lon="-1.34136">
        <ele>61</ele>
        <time>2020-12-20T08:22:04.218000+00:00</time>
      </trkpt>
      <trkpt lat="0" lon="0">
        <time>2020-12-20T08:22:04.223000+00:00</time>
      </trkpt>
      <trkpt lat="0" lon="0">
        <time>2020-12-20T08:22:04.226000+00:00</time>
      </trkpt>
      <trkpt lat="0" lon="0">
        <time>2020-12-20T08:22:04.229000+00:00</time>
      </trkpt>
      <trkpt lat="47.30011" lon="-1.34129">
        <ele>61</ele>
        <time>2020-12-20T08:22:05.276000+00:00</time>
      </trkpt>
      <trkpt lat="0" lon="0">
        <time>2020-12-20T08:22:05.285000+00:00</time>
      </trkpt>
      <trkpt lat="0" lon="0">
        <time>2020-12-20T08:22:05.290000+00:00</time>
      </trkpt>
      <trkpt lat="0" lon="0">
        <time>2020-12-20T08:22:05.293000+00:00</time>
      </trkpt>
      <trkpt lat="47.3001" lon="-1.34121">
        <ele>62</ele>
        <time>2020-12-20T08:22:06.241000+00:00</time>
      </trkpt>
      <trkpt lat="0" lon="0">
        <time>2020-12-20T08:22:06.242000+00:00</time>
      </trkpt>
      <trkpt lat="0" lon="0">
        <time>2020-12-20T08:22:06.243000+00:00</time>
      </trkpt>
      <trkpt lat="0" lon="0">
        <time>2020-12-20T08:22:06.244000+00:00</time>
      </trkpt>
      <trkpt lat="47.3001" lon="-1.34115">
        <ele>63</ele>
        <time>2020-12-20T08:22:07.250000+00:00</time>
      </trkpt>
      <trkpt lat="0" lon="0">
        <time>2020-12-20T08:22:07.253000+00:00</time>
      </trkpt>
      <trkpt lat="0" lon="0">
        <time>2020-12-20T08:22:07.256000+00:00</time>
      </trkpt>
      <trkpt lat="0" lon="0">
        <time>2020-12-20T08:22:07.258000+00:00</time>
      </trkpt>
      <trkpt lat="47.30012" lon="-1.34109">
        <ele>63</ele>
        <time>2020-12-20T08:22:08.230000+00:00</time>
      </trkpt>
      <trkpt lat="0" lon="0">
        <time>2020-12-20T08:22:08.237000+00:00</time>
      </trkpt>
      <trkpt lat="0" lon="0">
        <time>2020-12-20T08:22:08.246000+00:00</time>
      </trkpt>
      <trkpt lat="0" lon="0">
        <time>2020-12-20T08:22:08.252000+00:00</time>
      </trkpt>
      <trkpt lat="47.30014" lon="-1.34104">
        <ele>63</ele>
        <time>2020-12-20T08:22:09.234000+00:00</time>
      </trkpt>
      <trkpt lat="0" lon="0">
        <time>2020-12-20T08:22:09.246000+00:00</time>
      </trkpt>
      <trkpt lat="0" lon="0">
        <time>2020-12-20T08:22:09.257000+00:00</time>
      </trkpt>
      <trkpt lat="0" lon="0">
        <time>2020-12-20T08:22:09.260000+00:00</time>
      </trkpt>
      <trkpt lat="47.30017" lon="-1.341">
        <ele>63</ele>
        <time>2020-12-20T08:22:10.254000+00:00</time>
      </trkpt>
      <trkpt lat="0" lon="0">
        <time>2020-12-20T08:22:10.276000+00:00</time>
      </trkpt>
      <trkpt lat="0" lon="0">
        <time>2020-12-20T08:22:10.280000+00:00</time>
      </trkpt>
      <trkpt lat="0" lon="0">
        <time>2020-12-20T08:22:10.282000+00:00</time>
      </trkpt>
      <trkpt lat="47.30021" lon="-1.34096">
        <ele>63</ele>
        <time>2020-12-20T08:22:11.264000+00:00</time>
      </trkpt>
      <trkpt lat="0" lon="0">
        <time>2020-12-20T08:22:11.278000+00:00</time>
      </trkpt>
      <trkpt lat="0" lon="0">
        <time>2020-12-20T08:22:11.285000+00:00</time>
      </trkpt>
      <trkpt lat="0" lon="0">
        <time>2020-12-20T08:22:11.287000+00:00</time>
      </trkpt>
      <trkpt lat="47.30026" lon="-1.34093">
        <ele>63</ele>
        <time>2020-12-20T08:22:12.255000+00:00</time>
      </trkpt>
      <trkpt lat="0" lon="0">
        <time>2020-12-20T08:22:12.260000+00:00</time>
      </trkpt>
      <trkpt lat="0" lon="0">
        <time>2020-12-20T08:22:12.264000+00:00</time>
      </trkpt>
      <trkpt lat="0" lon="0">
        <time>2020-12-20T08:22:12.266000+00:00</time>
      </trkpt>
      <trkpt lat="47.30032" lon="-1.34091">
        <ele>63</ele>
        <time>2020-12-20T08:22:13.281000+00:00</time>
      </trkpt>
      <trkpt lat="0" lon="0">
        <time>2020-12-20T08:22:13.290000+00:00</time>
      </trkpt>
      <trkpt lat="0" lon="0">
        <time>2020-12-20T08:22:13.294000+00:00</time>
      </trkpt>
      <trkpt lat="0" lon="0">
        <time>2020-12-20T08:22:13.297000+00:00</time>
      </trkpt>
      <trkpt lat="47.30037" lon="-1.34089">
        <ele>63</ele>
        <time>2020-12-20T08:22:14.245000+00:00</time>
      </trkpt>
      <trkpt lat="0" lon="0">
        <time>2020-12-20T08:22:14.255000+00:00</time>
      </trkpt>
      <trkpt lat="0" lon="0">
        <time>2020-12-20T08:22:14.257000+00:00</time>
      </trkpt>
      <trkpt lat="0" lon="0">
        <time>2020-12-20T08:22:14.258000+00:00</time>
      </trkpt>
      <trkpt lat="47.30044" lon="-1.34088">
        <ele>63</ele>
        <time>2020-12-20T08:22:15.259000+00:00</time>
      </trkpt>
      <trkpt lat="0" lon="0">
        <time>2020-12-20T08:22:15.267000+00:00</time>
      </trkpt>
      <trkpt lat="0" lon="0">
        <time>2020-12-20T08:22:15.271000+00:00</time>
      </trkpt>
      <trkpt lat="0" lon="0">
        <time>2020-12-20T08:22:15.274000+00:00</time>
      </trkpt>
      <trkpt lat="47.3005" lon="-1.34087">
        <ele>63</ele>
        <time>2020-12-20T08:22:16.317000+00:00</time>
      </trkpt>
      <trkpt lat="0" lon="0">
        <time>2020-12-20T08:22:16.323000+00:00</time>
      </trkpt>
      <trkpt lat="0" lon="0">
        <time>2020-12-20T08:22:16.327000+00:00</time>
      </trkpt>
      <trkpt lat="0" lon="0">
        <time>2020-12-20T08:22:16.329000+00:00</time>
      </trkpt>
      <trkpt lat="47.30056" lon="-1.34087">
        <ele>63</ele>
        <time>2020-12-20T08:22:17.232000+00:00</time>
      </trkpt>
      <trkpt lat="0" lon="0">
        <time>2020-12-20T08:22:17.239000+00:00</time>
      </trkpt>
      <trkpt lat="0" lon="0">
        <time>2020-12-20T08:22:17.252000+00:00</time>
      </trkpt>
      <trkpt lat="0" lon="0">
        <time>2020-12-20T08:22:17.256000+00:00</time>
      </trkpt>
      <trkpt lat="47.30062" lon="-1.34089">
        <ele>64</ele>
        <time>2020-12-20T08:22:18.214000+00:00</time>
      </trkpt>
      <trkpt lat="0" lon="0">
        <time>2020-12-20T08:22:18.216000+00:00</time>
      </trkpt>
      <trkpt lat="0" lon="0">
        <time>2020-12-20T08:22:18.218000+00:00</time>
      </trkpt>
      <trkpt lat="0" lon="0">
        <time>2020-12-20T08:22:18.220000+00:00</time>
      </trkpt>
      <trkpt lat="47.30068" lon="-1.34091">
        <ele>64</ele>
        <time>2020-12-20T08:22:19.258000+00:00</time>
      </trkpt>
      <trkpt lat="0" lon="0">
        <time>2020-12-20T08:22:19.263000+00:00</time>
      </trkpt>
      <trkpt lat="0" lon="0">
        <time>2020-12-20T08:22:19.272000+00:00</time>
      </trkpt>
      <trkpt lat="0" lon="0">
        <time>2020-12-20T08:22:19.273000+00:00</time>
      </trkpt>
      <trkpt lat="47.30074" lon="-1.34095">
        <ele>64</ele>
        <time>2020-12-20T08:22:20.257000+00:00</time>
      </trkpt>
      <trkpt lat="0" lon="0">
        <time>2020-12-20T08:22:20.280000+00:00</time>
      </trkpt>
      <trkpt lat="0" lon="0">
        <time>2020-12-20T08:22:20.286000+00:00</time>
      </trkpt>
      <trkpt lat="0" lon="0">
        <time>2020-12-20T08:22:20.287000+00:00</time>
      </trkpt>
      <trkpt lat="47.30079" lon="-1.34098">
        <ele>64</ele>
        <time>2020-12-20T08:22:21.262000+00:00</time>
      </trkpt>
      <trkpt lat="0" lon="0">
        <time>2020-12-20T08:22:21.274000+00:00</time>
      </trkpt>
      <trkpt lat="0" lon="0">
        <time>2020-12-20T08:22:21.279000+00:00</time>
      </trkpt>
      <trkpt lat="0" lon="0">
        <time>2020-12-20T08:22:21.283000+00:00</time>
      </trkpt>
      <trkpt lat="47.30084" lon="-1.34103">
        <ele>64</ele>
        <time>2020-12-20T08:22:22.275000+00:00</time>
      </trkpt>
      <trkpt lat="0" lon="0">
        <time>2020-12-20T08:22:22.285000+00:00</time>
      </trkpt>
      <trkpt lat="0" lon="0">
        <time>2020-12-20T08:22:22.289000+00:00</time>
      </trkpt>
      <trkpt lat="0" lon="0">
        <time>2020-12-20T08:22:22.291000+00:00</time>
      </trkpt>
      <trkpt lat="47.30088" lon="-1.34108">
        <ele>64</ele>
        <time>2020-12-20T08:22:23.273000+00:00</time>
      </trkpt>
      <trkpt lat="0" lon="0">
        <time>2020-12-20T08:22:23.281000+00:00</time>
      </trkpt>
      <trkpt lat="0" lon="0">
        <time>2020-12-20T08:22:23.284000+00:00</time>
      </trkpt>
      <trkpt lat="0" lon="0">
        <time>2020-12-20T08:22:23.286000+00:00</time>
      </trkpt>
      <trkpt lat="47.30092" lon="-1.34113">
        <ele>64</ele>
        <time>2020-12-20T08:22:24.254000+00:00</time>
      </trkpt>
      <trkpt lat="0" lon="0">
        <time>2020-12-20T08:22:24.258000+00:00</time>
      </trkpt>
      <trkpt lat="0" lon="0">
        <time>2020-12-20T08:22:24.262000+00:00</time>
      </trkpt>
      <trkpt lat="0" lon="0">
        <time>2020-12-20T08:22:24.266000+00:00</time>
      </trkpt>
      <trkpt lat="47.30096" lon="-1.34119">
        <ele>64</ele>
        <time>2020-12-20T08:22:25.259000+00:00</time>
      </trkpt>
      <trkpt lat="0" lon="0">
        <time>2020-12-20T08:22:25.268000+00:00</time>
      </trkpt>
      <trkpt lat="0" lon="0">
        <time>2020-12-20T08:22:25.273000+00:00</time>
      </trkpt>
      <trkpt lat="0" lon="0">
        <time>2020-12-20T08:22:25.276000+00:00</time>
      </trkpt>
      <trkpt lat="47.30099" lon="-1.34124">
        <ele>64</ele>
        <time>2020-12-20T08:22:26.277000+00:00</time>
      </trkpt>
      <trkpt lat="0" lon="0">
        <time>2020-12-20T08:22:26.283000+00:00</time>
      </trkpt>
      <trkpt lat="0" lon="0">
        <time>2020-12-20T08:22:26.290000+00:00</time>
      </trkpt>
      <trkpt lat="0" lon="0">
        <time>2020-12-20T08:22:26.293000+00:00</time>
      </trkpt>
      <trkpt lat="47.30103" lon="-1.34128">
        <ele>64</ele>
        <time>2020-12-20T08:22:27.251000+00:00</time>
      </trkpt>
      <trkpt lat="0" lon="0">
        <time>2020-12-20T08:22:27.257000+00:00</time>
      </trkpt>
      <trkpt lat="0" lon="0">
        <time>2020-12-20T08:22:27.259000+00:00</time>
      </trkpt>
      <trkpt lat="0" lon="0">
        <time>2020-12-20T08:22:27.260000+00:00</time>
      </trkpt>
      <trkpt lat="47.30106" lon="-1.34132">
        <ele>64</ele>
        <time>2020-12-20T08:22:28.256000+00:00</time>
      </trkpt>
      <trkpt lat="0" lon="0">
        <time>2020-12-20T08:22:28.261000+00:00</time>
      </trkpt>
      <trkpt lat="0" lon="0">
        <time>2020-12-20T08:22:28.265000+00:00</time>
      </trkpt>
      <trkpt lat="0" lon="0">
        <time>2020-12-20T08:22:28.267000+00:00</time>
      </trkpt>
      <trkpt lat="47.30108" lon="-1.34134">
        <ele>64</ele>
        <time>2020-12-20T08:22:29.260000+00:00</time>
      </trkpt>
      <trkpt lat="0" lon="0">
        <time>2020-12-20T08:22:29.278000+00:00</time>
      </trkpt>
      <trkpt lat="0" lon="0">
        <time>2020-12-20T08:22:29.286000+00:00</time>
      </trkpt>
      <trkpt lat="0" lon="0">
        <time>2020-12-20T08:22:29.290000+00:00</time>
      </trkpt>
      <trkpt lat="47.3011" lon="-1.34133">
        <ele>65</ele>
        <time>2020-12-20T08:22:30.225000+00:00</time>
      </trkpt>
      <trkpt lat="0" lon="0">
        <time>2020-12-20T08:22:30.227000+00:00</time>
      </trkpt>
      <trkpt lat="0" lon="0">
        <time>2020-12-20T08:22:30.230000+00:00</time>
      </trkpt>
      <trkpt lat="0" lon="0">
        <time>2020-12-20T08:22:30.232000+00:00</time>
      </trkpt>
      <trkpt lat="47.30112" lon="-1.34131">
        <ele>64</ele>
        <time>2020-12-20T08:22:31.244000+00:00</time>
      </trkpt>
      <trkpt lat="0" lon="0">
        <time>2020-12-20T08:22:31.251000+00:00</time>
      </trkpt>
      <trkpt lat="0" lon="0">
        <time>2020-12-20T08:22:31.254000+00:00</time>
      </trkpt>
      <trkpt lat="0" lon="0">
        <time>2020-12-20T08:22:31.256000+00:00</time>
      </trkpt>
      <trkpt lat="47.30113" lon="-1.34128">
        <ele>64</ele>
        <time>2020-12-20T08:22:32.231000+00:00</time>
      </trkpt>
      <trkpt lat="0" lon="0">
        <time>2020-12-20T08:22:32.232000+00:00</time>
      </trkpt>
      <trkpt lat="0" lon="0">
        <time>2020-12-20T08:22:32.234000+00:00</time>
      </trkpt>
      <trkpt lat="0" lon="0">
        <time>2020-12-20T08:22:32.235000+00:00</time>
      </trkpt>
      <trkpt lat="47.30115" lon="-1.34124">
        <ele>64</ele>
        <time>2020-12-20T08:22:33.282000+00:00</time>
      </trkpt>
      <trkpt lat="0" lon="0">
        <time>2020-12-20T08:22:33.287000+00:00</time>
      </trkpt>
      <trkpt lat="0" lon="0">
        <time>2020-12-20T08:22:33.293000+00:00</time>
      </trkpt>
      <trkpt lat="0" lon="0">
        <time>2020-12-20T08:22:33.295000+00:00</time>
      </trkpt>
      <trkpt lat="47.30116" lon="-1.34119">
        <ele>65</ele>
        <time>2020-12-20T08:22:34.261000+00:00</time>
      </trkpt>
      <trkpt lat="0" lon="0">
        <time>2020-12-20T08:22:34.266000+00:00</time>
      </trkpt>
      <trkpt lat="0" lon="0">
        <time>2020-12-20T08:22:34.271000+00:00</time>
      </trkpt>
      <trkpt lat="0" lon="0">
        <time>2020-12-20T08:22:34.273000+00:00</time>
      </trkpt>
      <trkpt lat="47.30117" lon="-1.34113">
        <ele>65</ele>
        <time>2020-12-20T08:22:35.271000+00:00</time>
      </trkpt>
      <trkpt lat="0" lon="0">
        <time>2020-12-20T08:22:35.289000+00:00</time>
      </trkpt>
      <trkpt lat="0" lon="0">
        <time>2020-12-20T08:22:35.294000+00:00</time>
      </trkpt>
      <trkpt lat="0" lon="0">
        <time>2020-12-20T08:22:35.296000+00:00</time>
      </trkpt>
      <trkpt lat="47.30119" lon="-1.34106">
        <ele>65</ele>
        <time>2020-12-20T08:22:36.256000+00:00</time>
      </trkpt>
      <trkpt lat="0" lon="0">
        <time>2020-12-20T08:22:36.266000+00:00</time>
      </trkpt>
      <trkpt lat="0" lon="0">
        <time>2020-12-20T08:22:36.270000+00:00</time>
      </trkpt>
      <trkpt lat="0" lon="0">
        <time>2020-12-20T08:22:36.273000+00:00</time>
      </trkpt>
      <trkpt lat="47.30121" lon="-1.34099">
        <ele>65</ele>
        <time>2020-12-20T08:22:37.258000+00:00</time>
      </trkpt>
      <trkpt lat="0" lon="0">
        <time>2020-12-20T08:22:37.284000+00:00</time>
      </trkpt>
      <trkpt lat="0" lon="0">
        <time>2020-12-20T08:22:37.290000+00:00</time>
      </trkpt>
      <trkpt lat="0" lon="0">
        <time>2020-12-20T08:22:37.291000+00:00</time>
      </trkpt>
      <trkpt lat="47.30123" lon="-1.34092">
        <ele>65</ele>
        <time>2020-12-20T08:22:38.224000+00:00</time>
      </trkpt>
      <trkpt lat="0" lon="0">
        <time>2020-12-20T08:22:38.233000+00:00</time>
      </trkpt>
      <trkpt lat="0" lon="0">
        <time>2020-12-20T08:22:38.237000+00:00</time>
      </trkpt>
      <trkpt lat="0" lon="0">
        <time>2020-12-20T08:22:38.240000+00:00</time>
      </trkpt>
      <trkpt lat="47.30125" lon="-1.34086">
        <ele>65</ele>
        <time>2020-12-20T08:22:39.268000+00:00</time>
      </trkpt>
      <trkpt lat="0" lon="0">
        <time>2020-12-20T08:22:39.288000+00:00</time>
      </trkpt>
      <trkpt lat="0" lon="0">
        <time>2020-12-20T08:22:39.291000+00:00</time>
      </trkpt>
      <trkpt lat="0" lon="0">
        <time>2020-12-20T08:22:39.294000+00:00</time>
      </trkpt>
      <trkpt lat="47.30128" lon="-1.34079">
        <ele>65</ele>
        <time>2020-12-20T08:22:40.250000+00:00</time>
      </trkpt>
      <trkpt lat="0" lon="0">
        <time>2020-12-20T08:22:40.259000+00:00</time>
      </trkpt>
      <trkpt lat="0" lon="0">
        <time>2020-12-20T08:22:40.264000+00:00</time>
      </trkpt>
      <trkpt lat="0" lon="0">
        <time>2020-12-20T08:22:40.266000+00:00</time>
      </trkpt>
      <trkpt lat="47.30131" lon="-1.34073">
        <ele>65</ele>
        <time>2020-12-20T08:22:41.262000+00:00</time>
      </trkpt>
      <trkpt lat="0" lon="0">
        <time>2020-12-20T08:22:41.268000+00:00</time>
      </trkpt>
      <trkpt lat="0" lon="0">
        <time>2020-12-20T08:22:41.279000+00:00</time>
      </trkpt>
      <trkpt lat="0" lon="0">
        <time>2020-12-20T08:22:41.282000+00:00</time>
      </trkpt>
      <trkpt lat="47.30134" lon="-1.34067">
        <ele>65</ele>
        <time>2020-12-20T08:22:42.278000+00:00</time>
      </trkpt>
      <trkpt lat="0" lon="0">
        <time>2020-12-20T08:22:42.294000+00:00</time>
      </trkpt>
      <trkpt lat="0" lon="0">
        <time>2020-12-20T08:22:42.297000+00:00</time>
      </trkpt>
      <trkpt lat="0" lon="0">
        <time>2020-12-20T08:22:42.299000+00:00</time>
      </trkpt>
      <trkpt lat="47.30138" lon="-1.34062">
        <ele>65</ele>
        <time>2020-12-20T08:22:43.269000+00:00</time>
      </trkpt>
      <trkpt lat="0" lon="0">
        <time>2020-12-20T08:22:43.278000+00:00</time>
      </trkpt>
      <trkpt lat="0" lon="0">
        <time>2020-12-20T08:22:43.286000+00:00</time>
      </trkpt>
      <trkpt lat="0" lon="0">
        <time>2020-12-20T08:22:43.290000+00:00</time>
      </trkpt>
      <trkpt lat="47.30142" lon="-1.34056">
        <ele>65</ele>
        <time>2020-12-20T08:22:44.274000+00:00</time>
      </trkpt>
      <trkpt lat="0" lon="0">
        <time>2020-12-20T08:22:44.284000+00:00</time>
      </trkpt>
      <trkpt lat="0" lon="0">
        <time>2020-12-20T08:22:44.290000+00:00</time>
      </trkpt>
      <trkpt lat="0" lon="0">
        <time>2020-12-20T08:22:44.292000+00:00</time>
      </trkpt>
      <trkpt lat="47.30146" lon="-1.34051">
        <ele>66</ele>
        <time>2020-12-20T08:22:45.271000+00:00</time>
      </trkpt>
      <trkpt lat="0" lon="0">
        <time>2020-12-20T08:22:45.281000+00:00</time>
      </trkpt>
      <trkpt lat="0" lon="0">
        <time>2020-12-20T08:22:45.286000+00:00</time>
      </trkpt>
      <trkpt lat="0" lon="0">
        <time>2020-12-20T08:22:45.294000+00:00</time>
      </trkpt>
      <trkpt lat="47.3015" lon="-1.34046">
        <ele>66</ele>
        <time>2020-12-20T08:22:46.261000+00:00</time>
      </trkpt>
      <trkpt lat="0" lon="0">
        <time>2020-12-20T08:22:46.276000+00:00</time>
      </trkpt>
      <trkpt lat="0" lon="0">
        <time>2020-12-20T08:22:46.289000+00:00</time>
      </trkpt>
      <trkpt lat="0" lon="0">
        <time>2020-12-20T08:22:46.291000+00:00</time>
      </trkpt>
      <trkpt lat="47.30154" lon="-1.34041">
        <ele>66</ele>
        <time>2020-12-20T08:22:47.272000+00:00</time>
      </trkpt>
      <trkpt lat="0" lon="0">
        <time>2020-12-20T08:22:47.281000+00:00</time>
      </trkpt>
      <trkpt lat="0" lon="0">
        <time>2020-12-20T08:22:47.287000+00:00</time>
      </trkpt>
      <trkpt lat="0" lon="0">
        <time>2020-12-20T08:22:47.290000+00:00</time>
      </trkpt>
      <trkpt lat="47.30159" lon="-1.34036">
        <ele>65</ele>
        <time>2020-12-20T08:22:48.249000+00:00</time>
      </trkpt>
      <trkpt lat="0" lon="0">
        <time>2020-12-20T08:22:48.272000+00:00</time>
      </trkpt>
      <trkpt lat="0" lon="0">
        <time>2020-12-20T08:22:48.276000+00:00</time>
      </trkpt>
      <trkpt lat="0" lon="0">
        <time>2020-12-20T08:22:48.278000+00:00</time>
      </trkpt>
      <trkpt lat="47.30163" lon="-1.34032">
        <ele>66</ele>
        <time>2020-12-20T08:22:49.252000+00:00</time>
      </trkpt>
      <trkpt lat="0" lon="0">
        <time>2020-12-20T08:22:49.265000+00:00</time>
      </trkpt>
      <trkpt lat="0" lon="0">
        <time>2020-12-20T08:22:49.268000+00:00</time>
      </trkpt>
      <trkpt lat="0" lon="0">
        <time>2020-12-20T08:22:49.269000+00:00</time>
      </trkpt>
      <trkpt lat="47.30167" lon="-1.34027">
        <ele>66</ele>
        <time>2020-12-20T08:22:50.287000+00:00</time>
      </trkpt>
      <trkpt lat="0" lon="0">
        <time>2020-12-20T08:22:50.293000+00:00</time>
      </trkpt>
      <trkpt lat="0" lon="0">
        <time>2020-12-20T08:22:50.297000+00:00</time>
      </trkpt>
      <trkpt lat="0" lon="0">
        <time>2020-12-20T08:22:50.299000+00:00</time>
      </trkpt>
      <trkpt lat="47.30172" lon="-1.34022">
        <ele>66</ele>
        <time>2020-12-20T08:22:51.249000+00:00</time>
      </trkpt>
      <trkpt lat="0" lon="0">
        <time>2020-12-20T08:22:51.258000+00:00</time>
      </trkpt>
      <trkpt lat="0" lon="0">
        <time>2020-12-20T08:22:51.268000+00:00</time>
      </trkpt>
      <trkpt lat="0" lon="0">
        <time>2020-12-20T08:22:51.276000+00:00</time>
      </trkpt>
      <trkpt lat="47.30176" lon="-1.34018">
        <ele>66</ele>
        <time>2020-12-20T08:22:52.229000+00:00</time>
      </trkpt>
      <trkpt lat="0" lon="0">
        <time>2020-12-20T08:22:52.243000+00:00</time>
      </trkpt>
      <trkpt lat="0" lon="0">
        <time>2020-12-20T08:22:52.251000+00:00</time>
      </trkpt>
      <trkpt lat="0" lon="0">
        <time>2020-12-20T08:22:52.253000+00:00</time>
      </trkpt>
      <trkpt lat="47.30181" lon="-1.34014">
        <ele>67</ele>
        <time>2020-12-20T08:22:53.248000+00:00</time>
      </trkpt>
      <trkpt lat="0" lon="0">
        <time>2020-12-20T08:22:53.257000+00:00</time>
      </trkpt>
      <trkpt lat="0" lon="0">
        <time>2020-12-20T08:22:53.264000+00:00</time>
      </trkpt>
      <trkpt lat="0" lon="0">
        <time>2020-12-20T08:22:53.268000+00:00</time>
      </trkpt>
      <trkpt lat="47.30185" lon="-1.3401">
        <ele>67</ele>
        <time>2020-12-20T08:22:54.256000+00:00</time>
      </trkpt>
      <trkpt lat="0" lon="0">
        <time>2020-12-20T08:22:54.264000+00:00</time>
      </trkpt>
      <trkpt lat="0" lon="0">
        <time>2020-12-20T08:22:54.274000+00:00</time>
      </trkpt>
      <trkpt lat="0" lon="0">
        <time>2020-12-20T08:22:54.277000+00:00</time>
      </trkpt>
      <trkpt lat="47.3019" lon="-1.34006">
        <ele>67</ele>
        <time>2020-12-20T08:22:55.287000+00:00</time>
      </trkpt>
      <trkpt lat="0" lon="0">
        <time>2020-12-20T08:22:55.316000+00:00</time>
      </trkpt>
      <trkpt lat="0" lon="0">
        <time>2020-12-20T08:22:55.323000+00:00</time>
      </trkpt>
      <trkpt lat="0" lon="0">
        <time>2020-12-20T08:22:55.324000+00:00</time>
      </trkpt>
      <trkpt lat="47.30194" lon="-1.34002">
        <ele>67</ele>
        <time>2020-12-20T08:22:56.249000+00:00</time>
      </trkpt>
      <trkpt lat="0" lon="0">
        <time>2020-12-20T08:22:56.254000+00:00</time>
      </trkpt>
      <trkpt lat="0" lon="0">
        <time>2020-12-20T08:22:56.262000+00:00</time>
      </trkpt>
      <trkpt lat="0" lon="0">
        <time>2020-12-20T08:22:56.264000+00:00</time>
      </trkpt>
      <trkpt lat="47.30199" lon="-1.33998">
        <ele>67</ele>
        <time>2020-12-20T08:22:57.291000+00:00</time>
      </trkpt>
      <trkpt lat="0" lon="0">
        <time>2020-12-20T08:22:57.300000+00:00</time>
      </trkpt>
      <trkpt lat="0" lon="0">
        <time>2020-12-20T08:22:57.304000+00:00</time>
      </trkpt>
      <trkpt lat="0" lon="0">
        <time>2020-12-20T08:22:57.310000+00:00</time>
      </trkpt>
      <trkpt lat="47.30203" lon="-1.33994">
        <ele>68</ele>
        <time>2020-12-20T08:22:58.270000+00:00</time>
      </trkpt>
      <trkpt lat="0" lon="0">
        <time>2020-12-20T08:22:58.278000+00:00</time>
      </trkpt>
      <trkpt lat="0" lon="0">
        <time>2020-12-20T08:22:58.284000+00:00</time>
      </trkpt>
      <trkpt lat="0" lon="0">
        <time>2020-12-20T08:22:58.288000+00:00</time>
      </trkpt>
      <trkpt lat="47.30207" lon="-1.33991">
        <ele>67</ele>
        <time>2020-12-20T08:22:59.263000+00:00</time>
      </trkpt>
      <trkpt lat="0" lon="0">
        <time>2020-12-20T08:22:59.272000+00:00</time>
      </trkpt>
      <trkpt lat="0" lon="0">
        <time>2020-12-20T08:22:59.274000+00:00</time>
      </trkpt>
      <trkpt lat="0" lon="0">
        <time>2020-12-20T08:22:59.276000+00:00</time>
      </trkpt>
      <trkpt lat="47.30211" lon="-1.33989">
        <ele>67</ele>
        <time>2020-12-20T08:23:00.248000+00:00</time>
      </trkpt>
      <trkpt lat="0" lon="0">
        <time>2020-12-20T08:23:00.253000+00:00</time>
      </trkpt>
      <trkpt lat="0" lon="0">
        <time>2020-12-20T08:23:00.257000+00:00</time>
      </trkpt>
      <trkpt lat="0" lon="0">
        <time>2020-12-20T08:23:00.259000+00:00</time>
      </trkpt>
      <trkpt lat="47.30215" lon="-1.33989">
        <ele>66</ele>
        <time>2020-12-20T08:23:01.240000+00:00</time>
      </trkpt>
      <trkpt lat="0" lon="0">
        <time>2020-12-20T08:23:01.243000+00:00</time>
      </trkpt>
      <trkpt lat="0" lon="0">
        <time>2020-12-20T08:23:01.245000+00:00</time>
      </trkpt>
      <trkpt lat="0" lon="0">
        <time>2020-12-20T08:23:01.247000+00:00</time>
      </trkpt>
      <trkpt lat="47.30219" lon="-1.3399">
        <ele>66</ele>
        <time>2020-12-20T08:23:02.230000+00:00</time>
      </trkpt>
      <trkpt lat="0" lon="0">
        <time>2020-12-20T08:23:02.247000+00:00</time>
      </trkpt>
      <trkpt lat="0" lon="0">
        <time>2020-12-20T08:23:02.252000+00:00</time>
      </trkpt>
      <trkpt lat="0" lon="0">
        <time>2020-12-20T08:23:02.254000+00:00</time>
      </trkpt>
      <trkpt lat="47.30223" lon="-1.33992">
        <ele>66</ele>
        <time>2020-12-20T08:23:03.247000+00:00</time>
      </trkpt>
      <trkpt lat="0" lon="0">
        <time>2020-12-20T08:23:03.255000+00:00</time>
      </trkpt>
      <trkpt lat="0" lon="0">
        <time>2020-12-20T08:23:03.261000+00:00</time>
      </trkpt>
      <trkpt lat="0" lon="0">
        <time>2020-12-20T08:23:03.263000+00:00</time>
      </trkpt>
      <trkpt lat="47.30226" lon="-1.33996">
        <ele>65</ele>
        <time>2020-12-20T08:23:04.269000+00:00</time>
      </trkpt>
      <trkpt lat="0" lon="0">
        <time>2020-12-20T08:23:04.275000+00:00</time>
      </trkpt>
      <trkpt lat="0" lon="0">
        <time>2020-12-20T08:23:04.279000+00:00</time>
      </trkpt>
      <trkpt lat="0" lon="0">
        <time>2020-12-20T08:23:04.283000+00:00</time>
      </trkpt>
      <trkpt lat="47.3023" lon="-1.34001">
        <ele>66</ele>
        <time>2020-12-20T08:23:05.279000+00:00</time>
      </trkpt>
      <trkpt lat="0" lon="0">
        <time>2020-12-20T08:23:05.287000+00:00</time>
      </trkpt>
      <trkpt lat="0" lon="0">
        <time>2020-12-20T08:23:05.289000+00:00</time>
      </trkpt>
      <trkpt lat="0" lon="0">
        <time>2020-12-20T08:23:05.290000+00:00</time>
      </trkpt>
      <trkpt lat="47.30234" lon="-1.34007">
        <ele>66</ele>
        <time>2020-12-20T08:23:06.279000+00:00</time>
      </trkpt>
      <trkpt lat="0" lon="0">
        <time>2020-12-20T08:23:06.291000+00:00</time>
      </trkpt>
      <trkpt lat="0" lon="0">
        <time>2020-12-20T08:23:06.299000+00:00</time>
      </trkpt>
      <trkpt lat="0" lon="0">
        <time>2020-12-20T08:23:06.301000+00:00</time>
      </trkpt>
      <trkpt lat="47.30237" lon="-1.34014">
        <ele>66</ele>
        <time>2020-12-20T08:23:07.275000+00:00</time>
      </trkpt>
      <trkpt lat="0" lon="0">
        <time>2020-12-20T08:23:07.294000+00:00</time>
      </trkpt>
      <trkpt lat="0" lon="0">
        <time>2020-12-20T08:23:07.300000+00:00</time>
      </trkpt>
      <trkpt lat="0" lon="0">
        <time>2020-12-20T08:23:07.302000+00:00</time>
      </trkpt>
      <trkpt lat="47.3024" lon="-1.34021">
        <ele>66</ele>
        <time>2020-12-20T08:23:08.258000+00:00</time>
      </trkpt>
      <trkpt lat="0" lon="0">
        <time>2020-12-20T08:23:08.271000+00:00</time>
      </trkpt>
      <trkpt lat="0" lon="0">
        <time>2020-12-20T08:23:08.276000+00:00</time>
      </trkpt>
      <trkpt lat="0" lon="0">
        <time>2020-12-20T08:23:08.278000+00:00</time>
      </trkpt>
      <trkpt lat="47.30243" lon="-1.34028">
        <ele>66</ele>
        <time>2020-12-20T08:23:09.286000+00:00</time>
      </trkpt>
      <trkpt lat="0" lon="0">
        <time>2020-12-20T08:23:09.300000+00:00</time>
      </trkpt>
      <trkpt lat="0" lon="0">
        <time>2020-12-20T08:23:09.304000+00:00</time>
      </trkpt>
      <trkpt lat="0" lon="0">
        <time>2020-12-20T08:23:09.307000+00:00</time>
      </trkpt>
      <trkpt lat="47.30246" lon="-1.34035">
        <ele>66</ele>
        <time>2020-12-20T08:23:10.267000+00:00</time>
      </trkpt>
      <trkpt lat="0" lon="0">
        <time>2020-12-20T08:23:10.279000+00:00</time>
      </trkpt>
      <trkpt lat="0" lon="0">
        <time>2020-12-20T08:23:10.284000+00:00</time>
      </trkpt>
      <trkpt lat="0" lon="0">
        <time>2020-12-20T08:23:10.287000+00:00</time>
      </trkpt>
      <trkpt lat="47.30248" lon="-1.34043">
        <ele>65</ele>
        <time>2020-12-20T08:23:11.282000+00:00</time>
      </trkpt>
      <trkpt lat="0" lon="0">
        <time>2020-12-20T08:23:11.289000+00:00</time>
      </trkpt>
      <trkpt lat="0" lon="0">
        <time>2020-12-20T08:23:11.297000+00:00</time>
      </trkpt>
      <trkpt lat="0" lon="0">
        <time>2020-12-20T08:23:11.299000+00:00</time>
      </trkpt>
      <trkpt lat="47.3025" lon="-1.3405">
        <ele>65</ele>
        <time>2020-12-20T08:23:12.183000+00:00</time>
      </trkpt>
      <trkpt lat="0" lon="0">
        <time>2020-12-20T08:23:12.188000+00:00</time>
      </trkpt>
      <trkpt lat="0" lon="0">
        <time>2020-12-20T08:23:12.191000+00:00</time>
      </trkpt>
      <trkpt lat="0" lon="0">
        <time>2020-12-20T08:23:12.193000+00:00</time>
      </trkpt>
      <trkpt lat="47.30252" lon="-1.34057">
        <ele>65</ele>
        <time>2020-12-20T08:23:13.261000+00:00</time>
      </trkpt>
      <trkpt lat="0" lon="0">
        <time>2020-12-20T08:23:13.275000+00:00</time>
      </trkpt>
      <trkpt lat="0" lon="0">
        <time>2020-12-20T08:23:13.279000+00:00</time>
      </trkpt>
      <trkpt lat="0" lon="0">
        <time>2020-12-20T08:23:13.282000+00:00</time>
      </trkpt>
      <trkpt lat="47.30254" lon="-1.34063">
        <ele>65</ele>
        <time>2020-12-20T08:23:14.274000+00:00</time>
      </trkpt>
      <trkpt lat="0" lon="0">
        <time>2020-12-20T08:23:14.284000+00:00</time>
      </trkpt>
      <trkpt lat="0" lon="0">
        <time>2020-12-20T08:23:14.293000+00:00</time>
      </trkpt>
      <trkpt lat="0" lon="0">
        <time>2020-12-20T08:23:14.296000+00:00</time>
      </trkpt>
      <trkpt lat="47.30256" lon="-1.3407">
        <ele>66</ele>
        <time>2020-12-20T08:23:15.262000+00:00</time>
      </trkpt>
      <trkpt lat="0" lon="0">
        <time>2020-12-20T08:23:15.280000+00:00</time>
      </trkpt>
      <trkpt lat="0" lon="0">
        <time>2020-12-20T08:23:15.284000+00:00</time>
      </trkpt>
      <trkpt lat="0" lon="0">
        <time>2020-12-20T08:23:15.286000+00:00</time>
      </trkpt>
      <trkpt lat="47.30257" lon="-1.34077">
        <ele>66</ele>
        <time>2020-12-20T08:23:16.268000+00:00</time>
      </trkpt>
      <trkpt lat="0" lon="0">
        <time>2020-12-20T08:23:16.274000+00:00</time>
      </trkpt>
      <trkpt lat="0" lon="0">
        <time>2020-12-20T08:23:16.275000+00:00</time>
      </trkpt>
      <trkpt lat="0" lon="0">
        <time>2020-12-20T08:23:16.277000+00:00</time>
      </trkpt>
      <trkpt lat="47.3026" lon="-1.34083">
        <ele>67</ele>
        <time>2020-12-20T08:23:17.214000+00:00</time>
      </trkpt>
      <trkpt lat="0" lon="0">
        <time>2020-12-20T08:23:17.216000+00:00</time>
      </trkpt>
      <trkpt lat="0" lon="0">
        <time>2020-12-20T08:23:17.218000+00:00</time>
      </trkpt>
      <trkpt lat="47.30262" lon="-1.34088">
        <ele>66</ele>
        <time>2020-12-20T08:23:18.227000+00:00</time>
      </trkpt>
      <trkpt lat="0" lon="0">
        <time>2020-12-20T08:23:18.234000+00:00</time>
      </trkpt>
      <trkpt lat="0" lon="0">
        <time>2020-12-20T08:23:18.238000+00:00</time>
      </trkpt>
      <trkpt lat="0" lon="0">
        <time>2020-12-20T08:23:18.240000+00:00</time>
      </trkpt>
      <trkpt lat="47.30265" lon="-1.34093">
        <ele>66</ele>
        <time>2020-12-20T08:23:19.236000+00:00</time>
      </trkpt>
      <trkpt lat="0" lon="0">
        <time>2020-12-20T08:23:19.254000+00:00</time>
      </trkpt>
      <trkpt lat="0" lon="0">
        <time>2020-12-20T08:23:19.257000+00:00</time>
      </trkpt>
      <trkpt lat="0" lon="0">
        <time>2020-12-20T08:23:19.259000+00:00</time>
      </trkpt>
      <trkpt lat="47.30268" lon="-1.34095">
        <ele>66</ele>
        <time>2020-12-20T08:23:20.259000+00:00</time>
      </trkpt>
      <trkpt lat="0" lon="0">
        <time>2020-12-20T08:23:20.263000+00:00</time>
      </trkpt>
      <trkpt lat="0" lon="0">
        <time>2020-12-20T08:23:20.268000+00:00</time>
      </trkpt>
      <trkpt lat="0" lon="0">
        <time>2020-12-20T08:23:20.270000+00:00</time>
      </trkpt>
      <trkpt lat="47.3027" lon="-1.34097">
        <ele>66</ele>
        <time>2020-12-20T08:23:21.235000+00:00</time>
      </trkpt>
      <trkpt lat="0" lon="0">
        <time>2020-12-20T08:23:21.242000+00:00</time>
      </trkpt>
      <trkpt lat="0" lon="0">
        <time>2020-12-20T08:23:21.246000+00:00</time>
      </trkpt>
      <trkpt lat="0" lon="0">
        <time>2020-12-20T08:23:21.248000+00:00</time>
      </trkpt>
      <trkpt lat="47.30273" lon="-1.34097">
        <ele>66</ele>
        <time>2020-12-20T08:23:22.219000+00:00</time>
      </trkpt>
      <trkpt lat="0" lon="0">
        <time>2020-12-20T08:23:22.228000+00:00</time>
      </trkpt>
      <trkpt lat="0" lon="0">
        <time>2020-12-20T08:23:22.233000+00:00</time>
      </trkpt>
      <trkpt lat="0" lon="0">
        <time>2020-12-20T08:23:22.235000+00:00</time>
      </trkpt>
      <trkpt lat="47.30275" lon="-1.34096">
        <ele>67</ele>
        <time>2020-12-20T08:23:23.274000+00:00</time>
      </trkpt>
      <trkpt lat="0" lon="0">
        <time>2020-12-20T08:23:23.278000+00:00</time>
      </trkpt>
      <trkpt lat="0" lon="0">
        <time>2020-12-20T08:23:23.283000+00:00</time>
      </trkpt>
      <trkpt lat="0" lon="0">
        <time>2020-12-20T08:23:23.289000+00:00</time>
      </trkpt>
      <trkpt lat="47.30277" lon="-1.34094">
        <ele>67</ele>
        <time>2020-12-20T08:23:24.270000+00:00</time>
      </trkpt>
      <trkpt lat="0" lon="0">
        <time>2020-12-20T08:23:24.282000+00:00</time>
      </trkpt>
      <trkpt lat="0" lon="0">
        <time>2020-12-20T08:23:24.285000+00:00</time>
      </trkpt>
      <trkpt lat="0" lon="0">
        <time>2020-12-20T08:23:24.287000+00:00</time>
      </trkpt>
      <trkpt lat="47.3028" lon="-1.34091">
        <ele>67</ele>
        <time>2020-12-20T08:23:25.224000+00:00</time>
      </trkpt>
      <trkpt lat="0" lon="0">
        <time>2020-12-20T08:23:25.237000+00:00</time>
      </trkpt>
      <trkpt lat="0" lon="0">
        <time>2020-12-20T08:23:25.245000+00:00</time>
      </trkpt>
      <trkpt lat="0" lon="0">
        <time>2020-12-20T08:23:25.248000+00:00</time>
      </trkpt>
      <trkpt lat="47.30283" lon="-1.34088">
        <ele>67</ele>
        <time>2020-12-20T08:23:26.260000+00:00</time>
      </trkpt>
      <trkpt lat="0" lon="0">
        <time>2020-12-20T08:23:26.265000+00:00</time>
      </trkpt>
      <trkpt lat="0" lon="0">
        <time>2020-12-20T08:23:26.271000+00:00</time>
      </trkpt>
      <trkpt lat="0" lon="0">
        <time>2020-12-20T08:23:26.276000+00:00</time>
      </trkpt>
      <trkpt lat="47.30286" lon="-1.34084">
        <ele>67</ele>
        <time>2020-12-20T08:23:27.247000+00:00</time>
      </trkpt>
      <trkpt lat="0" lon="0">
        <time>2020-12-20T08:23:27.255000+00:00</time>
      </trkpt>
      <trkpt lat="0" lon="0">
        <time>2020-12-20T08:23:27.273000+00:00</time>
      </trkpt>
      <trkpt lat="0" lon="0">
        <time>2020-12-20T08:23:27.274000+00:00</time>
      </trkpt>
      <trkpt lat="47.30289" lon="-1.3408">
        <ele>67</ele>
        <time>2020-12-20T08:23:28.268000+00:00</time>
      </trkpt>
      <trkpt lat="0" lon="0">
        <time>2020-12-20T08:23:28.275000+00:00</time>
      </trkpt>
      <trkpt lat="0" lon="0">
        <time>2020-12-20T08:23:28.279000+00:00</time>
      </trkpt>
      <trkpt lat="0" lon="0">
        <time>2020-12-20T08:23:28.283000+00:00</time>
      </trkpt>
      <trkpt lat="47.30293" lon="-1.34076">
        <ele>67</ele>
        <time>2020-12-20T08:23:29.280000+00:00</time>
      </trkpt>
      <trkpt lat="0" lon="0">
        <time>2020-12-20T08:23:29.288000+00:00</time>
      </trkpt>
      <trkpt lat="0" lon="0">
        <time>2020-12-20T08:23:29.299000+00:00</time>
      </trkpt>
      <trkpt lat="0" lon="0">
        <time>2020-12-20T08:23:29.302000+00:00</time>
      </trkpt>
      <trkpt lat="47.30296" lon="-1.34072">
        <ele>67</ele>
        <time>2020-12-20T08:23:30.294000+00:00</time>
      </trkpt>
      <trkpt lat="0" lon="0">
        <time>2020-12-20T08:23:30.316000+00:00</time>
      </trkpt>
      <trkpt lat="0" lon="0">
        <time>2020-12-20T08:23:30.320000+00:00</time>
      </trkpt>
      <trkpt lat="0" lon="0">
        <time>2020-12-20T08:23:30.328000+00:00</time>
      </trkpt>
      <trkpt lat="47.303" lon="-1.34067">
        <ele>68</ele>
        <time>2020-12-20T08:23:31.278000+00:00</time>
      </trkpt>
      <trkpt lat="0" lon="0">
        <time>2020-12-20T08:23:31.284000+00:00</time>
      </trkpt>
      <trkpt lat="0" lon="0">
        <time>2020-12-20T08:23:31.293000+00:00</time>
      </trkpt>
      <trkpt lat="0" lon="0">
        <time>2020-12-20T08:23:31.303000+00:00</time>
      </trkpt>
      <trkpt lat="47.30304" lon="-1.34062">
        <ele>68</ele>
        <time>2020-12-20T08:23:32.277000+00:00</time>
      </trkpt>
      <trkpt lat="0" lon="0">
        <time>2020-12-20T08:23:32.288000+00:00</time>
      </trkpt>
      <trkpt lat="0" lon="0">
        <time>2020-12-20T08:23:32.298000+00:00</time>
      </trkpt>
      <trkpt lat="0" lon="0">
        <time>2020-12-20T08:23:32.303000+00:00</time>
      </trkpt>
      <trkpt lat="47.30308" lon="-1.34057">
        <ele>69</ele>
        <time>2020-12-20T08:23:33.233000+00:00</time>
      </trkpt>
      <trkpt lat="0" lon="0">
        <time>2020-12-20T08:23:33.241000+00:00</time>
      </trkpt>
      <trkpt lat="0" lon="0">
        <time>2020-12-20T08:23:33.246000+00:00</time>
      </trkpt>
      <trkpt lat="0" lon="0">
        <time>2020-12-20T08:23:33.252000+00:00</time>
      </trkpt>
      <trkpt lat="47.30312" lon="-1.34051">
        <ele>69</ele>
        <time>2020-12-20T08:23:34.251000+00:00</time>
      </trkpt>
      <trkpt lat="0" lon="0">
        <time>2020-12-20T08:23:34.253000+00:00</time>
      </trkpt>
      <trkpt lat="0" lon="0">
        <time>2020-12-20T08:23:34.255000+00:00</time>
      </trkpt>
      <trkpt lat="0" lon="0">
        <time>2020-12-20T08:23:34.256000+00:00</time>
      </trkpt>
      <trkpt lat="47.30316" lon="-1.34046">
        <ele>69</ele>
        <time>2020-12-20T08:23:35.233000+00:00</time>
      </trkpt>
      <trkpt lat="0" lon="0">
        <time>2020-12-20T08:23:35.245000+00:00</time>
      </trkpt>
      <trkpt lat="0" lon="0">
        <time>2020-12-20T08:23:35.250000+00:00</time>
      </trkpt>
      <trkpt lat="0" lon="0">
        <time>2020-12-20T08:23:35.255000+00:00</time>
      </trkpt>
      <trkpt lat="47.30319" lon="-1.3404">
        <ele>69</ele>
        <time>2020-12-20T08:23:36.272000+00:00</time>
      </trkpt>
      <trkpt lat="0" lon="0">
        <time>2020-12-20T08:23:36.291000+00:00</time>
      </trkpt>
      <trkpt lat="0" lon="0">
        <time>2020-12-20T08:23:36.295000+00:00</time>
      </trkpt>
      <trkpt lat="0" lon="0">
        <time>2020-12-20T08:23:36.296000+00:00</time>
      </trkpt>
      <trkpt lat="47.30323" lon="-1.34034">
        <ele>69</ele>
        <time>2020-12-20T08:23:37.260000+00:00</time>
      </trkpt>
      <trkpt lat="0" lon="0">
        <time>2020-12-20T08:23:37.265000+00:00</time>
      </trkpt>
      <trkpt lat="0" lon="0">
        <time>2020-12-20T08:23:37.269000+00:00</time>
      </trkpt>
      <trkpt lat="0" lon="0">
        <time>2020-12-20T08:23:37.272000+00:00</time>
      </trkpt>
      <trkpt lat="47.30326" lon="-1.34028">
        <ele>68</ele>
        <time>2020-12-20T08:23:38.280000+00:00</time>
      </trkpt>
      <trkpt lat="0" lon="0">
        <time>2020-12-20T08:23:38.284000+00:00</time>
      </trkpt>
      <trkpt lat="0" lon="0">
        <time>2020-12-20T08:23:38.288000+00:00</time>
      </trkpt>
      <trkpt lat="0" lon="0">
        <time>2020-12-20T08:23:38.290000+00:00</time>
      </trkpt>
      <trkpt lat="47.30329" lon="-1.34023">
        <ele>68</ele>
        <time>2020-12-20T08:23:39.304000+00:00</time>
      </trkpt>
      <trkpt lat="0" lon="0">
        <time>2020-12-20T08:23:39.318000+00:00</time>
      </trkpt>
      <trkpt lat="0" lon="0">
        <time>2020-12-20T08:23:39.320000+00:00</time>
      </trkpt>
      <trkpt lat="0" lon="0">
        <time>2020-12-20T08:23:39.321000+00:00</time>
      </trkpt>
      <trkpt lat="47.30332" lon="-1.34017">
        <ele>68</ele>
        <time>2020-12-20T08:23:40.232000+00:00</time>
      </trkpt>
      <trkpt lat="0" lon="0">
        <time>2020-12-20T08:23:40.246000+00:00</time>
      </trkpt>
      <trkpt lat="0" lon="0">
        <time>2020-12-20T08:23:40.255000+00:00</time>
      </trkpt>
      <trkpt lat="0" lon="0">
        <time>2020-12-20T08:23:40.264000+00:00</time>
      </trkpt>
      <trkpt lat="47.30336" lon="-1.34012">
        <ele>67</ele>
        <time>2020-12-20T08:23:41.259000+00:00</time>
      </trkpt>
      <trkpt lat="0" lon="0">
        <time>2020-12-20T08:23:41.272000+00:00</time>
      </trkpt>
      <trkpt lat="0" lon="0">
        <time>2020-12-20T08:23:41.276000+00:00</time>
      </trkpt>
      <trkpt lat="0" lon="0">
        <time>2020-12-20T08:23:41.279000+00:00</time>
      </trkpt>
      <trkpt lat="47.30339" lon="-1.34007">
        <ele>67</ele>
        <time>2020-12-20T08:23:42.279000+00:00</time>
      </trkpt>
      <trkpt lat="0" lon="0">
        <time>2020-12-20T08:23:42.291000+00:00</time>
      </trkpt>
      <trkpt lat="0" lon="0">
        <time>2020-12-20T08:23:42.294000+00:00</time>
      </trkpt>
      <trkpt lat="0" lon="0">
        <time>2020-12-20T08:23:42.296000+00:00</time>
      </trkpt>
      <trkpt lat="47.30343" lon="-1.34002">
        <ele>67</ele>
        <time>2020-12-20T08:23:43.264000+00:00</time>
      </trkpt>
      <trkpt lat="0" lon="0">
        <time>2020-12-20T08:23:43.270000+00:00</time>
      </trkpt>
      <trkpt lat="0" lon="0">
        <time>2020-12-20T08:23:43.275000+00:00</time>
      </trkpt>
      <trkpt lat="0" lon="0">
        <time>2020-12-20T08:23:43.279000+00:00</time>
      </trkpt>
      <trkpt lat="47.30346" lon="-1.33997">
        <ele>66</ele>
        <time>2020-12-20T08:23:44.299000+00:00</time>
      </trkpt>
      <trkpt lat="0" lon="0">
        <time>2020-12-20T08:23:44.307000+00:00</time>
      </trkpt>
      <trkpt lat="0" lon="0">
        <time>2020-12-20T08:23:44.314000+00:00</time>
      </trkpt>
      <trkpt lat="0" lon="0">
        <time>2020-12-20T08:23:44.318000+00:00</time>
      </trkpt>
      <trkpt lat="47.30349" lon="-1.33992">
        <ele>65</ele>
        <time>2020-12-20T08:23:45.269000+00:00</time>
      </trkpt>
      <trkpt lat="0" lon="0">
        <time>2020-12-20T08:23:45.277000+00:00</time>
      </trkpt>
      <trkpt lat="0" lon="0">
        <time>2020-12-20T08:23:45.284000+00:00</time>
      </trkpt>
      <trkpt lat="0" lon="0">
        <time>2020-12-20T08:23:45.287000+00:00</time>
      </trkpt>
      <trkpt lat="47.30352" lon="-1.33987">
        <ele>65</ele>
        <time>2020-12-20T08:23:46.282000+00:00</time>
      </trkpt>
      <trkpt lat="0" lon="0">
        <time>2020-12-20T08:23:46.292000+00:00</time>
      </trkpt>
      <trkpt lat="0" lon="0">
        <time>2020-12-20T08:23:46.303000+00:00</time>
      </trkpt>
      <trkpt lat="0" lon="0">
        <time>2020-12-20T08:23:46.311000+00:00</time>
      </trkpt>
      <trkpt lat="47.30355" lon="-1.33981">
        <ele>64</ele>
        <time>2020-12-20T08:23:47.260000+00:00</time>
      </trkpt>
      <trkpt lat="0" lon="0">
        <time>2020-12-20T08:23:47.265000+00:00</time>
      </trkpt>
      <trkpt lat="0" lon="0">
        <time>2020-12-20T08:23:47.268000+00:00</time>
      </trkpt>
      <trkpt lat="0" lon="0">
        <time>2020-12-20T08:23:47.269000+00:00</time>
      </trkpt>
      <trkpt lat="47.30358" lon="-1.33975">
        <ele>64</ele>
        <time>2020-12-20T08:23:48.237000+00:00</time>
      </trkpt>
      <trkpt lat="0" lon="0">
        <time>2020-12-20T08:23:48.246000+00:00</time>
      </trkpt>
      <trkpt lat="0" lon="0">
        <time>2020-12-20T08:23:48.251000+00:00</time>
      </trkpt>
      <trkpt lat="0" lon="0">
        <time>2020-12-20T08:23:48.255000+00:00</time>
      </trkpt>
      <trkpt lat="47.30361" lon="-1.3397">
        <ele>63</ele>
        <time>2020-12-20T08:23:49.265000+00:00</time>
      </trkpt>
      <trkpt lat="0" lon="0">
        <time>2020-12-20T08:23:49.283000+00:00</time>
      </trkpt>
      <trkpt lat="0" lon="0">
        <time>2020-12-20T08:23:49.290000+00:00</time>
      </trkpt>
      <trkpt lat="0" lon="0">
        <time>2020-12-20T08:23:49.294000+00:00</time>
      </trkpt>
      <trkpt lat="47.30364" lon="-1.33965">
        <ele>63</ele>
        <time>2020-12-20T08:23:50.269000+00:00</time>
      </trkpt>
      <trkpt lat="0" lon="0">
        <time>2020-12-20T08:23:50.275000+00:00</time>
      </trkpt>
      <trkpt lat="0" lon="0">
        <time>2020-12-20T08:23:50.280000+00:00</time>
      </trkpt>
      <trkpt lat="0" lon="0">
        <time>2020-12-20T08:23:50.282000+00:00</time>
      </trkpt>
      <trkpt lat="47.30367" lon="-1.3396">
        <ele>63</ele>
        <time>2020-12-20T08:23:51.284000+00:00</time>
      </trkpt>
      <trkpt lat="0" lon="0">
        <time>2020-12-20T08:23:51.288000+00:00</time>
      </trkpt>
      <trkpt lat="0" lon="0">
        <time>2020-12-20T08:23:51.294000+00:00</time>
      </trkpt>
      <trkpt lat="0" lon="0">
        <time>2020-12-20T08:23:51.295000+00:00</time>
      </trkpt>
      <trkpt lat="47.30371" lon="-1.33956">
        <ele>63</ele>
        <time>2020-12-20T08:23:52.253000+00:00</time>
      </trkpt>
      <trkpt lat="0" lon="0">
        <time>2020-12-20T08:23:52.258000+00:00</time>
      </trkpt>
      <trkpt lat="0" lon="0">
        <time>2020-12-20T08:23:52.263000+00:00</time>
      </trkpt>
      <trkpt lat="0" lon="0">
        <time>2020-12-20T08:23:52.265000+00:00</time>
      </trkpt>
      <trkpt lat="47.30374" lon="-1.33952">
        <ele>64</ele>
        <time>2020-12-20T08:23:53.263000+00:00</time>
      </trkpt>
      <trkpt lat="0" lon="0">
        <time>2020-12-20T08:23:53.268000+00:00</time>
      </trkpt>
      <trkpt lat="0" lon="0">
        <time>2020-12-20T08:23:53.271000+00:00</time>
      </trkpt>
      <trkpt lat="0" lon="0">
        <time>2020-12-20T08:23:53.274000+00:00</time>
      </trkpt>
      <trkpt lat="47.30378" lon="-1.33949">
        <ele>64</ele>
        <time>2020-12-20T08:23:54.292000+00:00</time>
      </trkpt>
      <trkpt lat="0" lon="0">
        <time>2020-12-20T08:23:54.315000+00:00</time>
      </trkpt>
      <trkpt lat="0" lon="0">
        <time>2020-12-20T08:23:54.323000+00:00</time>
      </trkpt>
      <trkpt lat="0" lon="0">
        <time>2020-12-20T08:23:54.324000+00:00</time>
      </trkpt>
      <trkpt lat="47.30381" lon="-1.33946">
        <ele>64</ele>
        <time>2020-12-20T08:23:55.281000+00:00</time>
      </trkpt>
      <trkpt lat="0" lon="0">
        <time>2020-12-20T08:23:55.286000+00:00</time>
      </trkpt>
      <trkpt lat="0" lon="0">
        <time>2020-12-20T08:23:55.291000+00:00</time>
      </trkpt>
      <trkpt lat="0" lon="0">
        <time>2020-12-20T08:23:55.293000+00:00</time>
      </trkpt>
      <trkpt lat="47.30384" lon="-1.33942">
        <ele>64</ele>
        <time>2020-12-20T08:23:56.290000+00:00</time>
      </trkpt>
      <trkpt lat="0" lon="0">
        <time>2020-12-20T08:23:56.295000+00:00</time>
      </trkpt>
      <trkpt lat="0" lon="0">
        <time>2020-12-20T08:23:56.299000+00:00</time>
      </trkpt>
      <trkpt lat="0" lon="0">
        <time>2020-12-20T08:23:56.301000+00:00</time>
      </trkpt>
      <trkpt lat="47.30388" lon="-1.33938">
        <ele>64</ele>
        <time>2020-12-20T08:23:57.247000+00:00</time>
      </trkpt>
      <trkpt lat="0" lon="0">
        <time>2020-12-20T08:23:57.252000+00:00</time>
      </trkpt>
      <trkpt lat="0" lon="0">
        <time>2020-12-20T08:23:57.256000+00:00</time>
      </trkpt>
      <trkpt lat="0" lon="0">
        <time>2020-12-20T08:23:57.258000+00:00</time>
      </trkpt>
      <trkpt lat="47.30391" lon="-1.33934">
        <ele>64</ele>
        <time>2020-12-20T08:23:58.263000+00:00</time>
      </trkpt>
      <trkpt lat="0" lon="0">
        <time>2020-12-20T08:23:58.266000+00:00</time>
      </trkpt>
      <trkpt lat="0" lon="0">
        <time>2020-12-20T08:23:58.268000+00:00</time>
      </trkpt>
      <trkpt lat="0" lon="0">
        <time>2020-12-20T08:23:58.269000+00:00</time>
      </trkpt>
      <trkpt lat="47.30394" lon="-1.3393">
        <ele>64</ele>
        <time>2020-12-20T08:23:59.236000+00:00</time>
      </trkpt>
      <trkpt lat="0" lon="0">
        <time>2020-12-20T08:23:59.241000+00:00</time>
      </trkpt>
      <trkpt lat="0" lon="0">
        <time>2020-12-20T08:23:59.246000+00:00</time>
      </trkpt>
      <trkpt lat="0" lon="0">
        <time>2020-12-20T08:23:59.248000+00:00</time>
      </trkpt>
      <trkpt lat="47.30398" lon="-1.33926">
        <ele>64</ele>
        <time>2020-12-20T08:24:00.255000+00:00</time>
      </trkpt>
      <trkpt lat="0" lon="0">
        <time>2020-12-20T08:24:00.266000+00:00</time>
      </trkpt>
      <trkpt lat="0" lon="0">
        <time>2020-12-20T08:24:00.272000+00:00</time>
      </trkpt>
      <trkpt lat="0" lon="0">
        <time>2020-12-20T08:24:00.274000+00:00</time>
      </trkpt>
      <trkpt lat="47.30401" lon="-1.33921">
        <ele>64</ele>
        <time>2020-12-20T08:24:01.254000+00:00</time>
      </trkpt>
      <trkpt lat="0" lon="0">
        <time>2020-12-20T08:24:01.260000+00:00</time>
      </trkpt>
      <trkpt lat="0" lon="0">
        <time>2020-12-20T08:24:01.266000+00:00</time>
      </trkpt>
      <trkpt lat="0" lon="0">
        <time>2020-12-20T08:24:01.273000+00:00</time>
      </trkpt>
      <trkpt lat="47.30404" lon="-1.33917">
        <ele>64</ele>
        <time>2020-12-20T08:24:02.257000+00:00</time>
      </trkpt>
      <trkpt lat="0" lon="0">
        <time>2020-12-20T08:24:02.275000+00:00</time>
      </trkpt>
      <trkpt lat="0" lon="0">
        <time>2020-12-20T08:24:02.280000+00:00</time>
      </trkpt>
      <trkpt lat="0" lon="0">
        <time>2020-12-20T08:24:02.285000+00:00</time>
      </trkpt>
      <trkpt lat="47.30408" lon="-1.33912">
        <ele>64</ele>
        <time>2020-12-20T08:24:03.209000+00:00</time>
      </trkpt>
      <trkpt lat="0" lon="0">
        <time>2020-12-20T08:24:03.216000+00:00</time>
      </trkpt>
      <trkpt lat="0" lon="0">
        <time>2020-12-20T08:24:03.218000+00:00</time>
      </trkpt>
      <trkpt lat="0" lon="0">
        <time>2020-12-20T08:24:03.219000+00:00</time>
      </trkpt>
      <trkpt lat="47.30412" lon="-1.33908">
        <ele>64</ele>
        <time>2020-12-20T08:24:04.260000+00:00</time>
      </trkpt>
      <trkpt lat="0" lon="0">
        <time>2020-12-20T08:24:04.279000+00:00</time>
      </trkpt>
      <trkpt lat="0" lon="0">
        <time>2020-12-20T08:24:04.283000+00:00</time>
      </trkpt>
      <trkpt lat="0" lon="0">
        <time>2020-12-20T08:24:04.287000+00:00</time>
      </trkpt>
      <trkpt lat="47.30416" lon="-1.33903">
        <ele>64</ele>
        <time>2020-12-20T08:24:05.258000+00:00</time>
      </trkpt>
      <trkpt lat="0" lon="0">
        <time>2020-12-20T08:24:05.265000+00:00</time>
      </trkpt>
      <trkpt lat="0" lon="0">
        <time>2020-12-20T08:24:05.270000+00:00</time>
      </trkpt>
      <trkpt lat="0" lon="0">
        <time>2020-12-20T08:24:05.272000+00:00</time>
      </trkpt>
      <trkpt lat="47.3042" lon="-1.33898">
        <ele>64</ele>
        <time>2020-12-20T08:24:06.230000+00:00</time>
      </trkpt>
      <trkpt lat="0" lon="0">
        <time>2020-12-20T08:24:06.239000+00:00</time>
      </trkpt>
      <trkpt lat="0" lon="0">
        <time>2020-12-20T08:24:06.244000+00:00</time>
      </trkpt>
      <trkpt lat="0" lon="0">
        <time>2020-12-20T08:24:06.247000+00:00</time>
      </trkpt>
      <trkpt lat="47.30424" lon="-1.33894">
        <ele>64</ele>
        <time>2020-12-20T08:24:07.243000+00:00</time>
      </trkpt>
      <trkpt lat="0" lon="0">
        <time>2020-12-20T08:24:07.254000+00:00</time>
      </trkpt>
      <trkpt lat="0" lon="0">
        <time>2020-12-20T08:24:07.259000+00:00</time>
      </trkpt>
      <trkpt lat="0" lon="0">
        <time>2020-12-20T08:24:07.263000+00:00</time>
      </trkpt>
      <trkpt lat="47.30429" lon="-1.33889">
        <ele>64</ele>
        <time>2020-12-20T08:24:08.262000+00:00</time>
      </trkpt>
      <trkpt lat="0" lon="0">
        <time>2020-12-20T08:24:08.264000+00:00</time>
      </trkpt>
      <trkpt lat="0" lon="0">
        <time>2020-12-20T08:24:08.267000+00:00</time>
      </trkpt>
      <trkpt lat="0" lon="0">
        <time>2020-12-20T08:24:08.268000+00:00</time>
      </trkpt>
      <trkpt lat="47.30433" lon="-1.33885">
        <ele>64</ele>
        <time>2020-12-20T08:24:09.271000+00:00</time>
      </trkpt>
      <trkpt lat="0" lon="0">
        <time>2020-12-20T08:24:09.280000+00:00</time>
      </trkpt>
      <trkpt lat="0" lon="0">
        <time>2020-12-20T08:24:09.288000+00:00</time>
      </trkpt>
      <trkpt lat="0" lon="0">
        <time>2020-12-20T08:24:09.290000+00:00</time>
      </trkpt>
      <trkpt lat="47.30438" lon="-1.3388">
        <ele>64</ele>
        <time>2020-12-20T08:24:10.262000+00:00</time>
      </trkpt>
      <trkpt lat="0" lon="0">
        <time>2020-12-20T08:24:10.272000+00:00</time>
      </trkpt>
      <trkpt lat="0" lon="0">
        <time>2020-12-20T08:24:10.282000+00:00</time>
      </trkpt>
      <trkpt lat="0" lon="0">
        <time>2020-12-20T08:24:10.286000+00:00</time>
      </trkpt>
      <trkpt lat="47.30442" lon="-1.33876">
        <ele>64</ele>
        <time>2020-12-20T08:24:11.298000+00:00</time>
      </trkpt>
      <trkpt lat="0" lon="0">
        <time>2020-12-20T08:24:11.306000+00:00</time>
      </trkpt>
      <trkpt lat="0" lon="0">
        <time>2020-12-20T08:24:11.311000+00:00</time>
      </trkpt>
      <trkpt lat="0" lon="0">
        <time>2020-12-20T08:24:11.315000+00:00</time>
      </trkpt>
      <trkpt lat="47.30447" lon="-1.33872">
        <ele>64</ele>
        <time>2020-12-20T08:24:12.252000+00:00</time>
      </trkpt>
      <trkpt lat="0" lon="0">
        <time>2020-12-20T08:24:12.260000+00:00</time>
      </trkpt>
      <trkpt lat="0" lon="0">
        <time>2020-12-20T08:24:12.263000+00:00</time>
      </trkpt>
      <trkpt lat="0" lon="0">
        <time>2020-12-20T08:24:12.266000+00:00</time>
      </trkpt>
      <trkpt lat="47.30451" lon="-1.33867">
        <ele>64</ele>
        <time>2020-12-20T08:24:13.263000+00:00</time>
      </trkpt>
      <trkpt lat="0" lon="0">
        <time>2020-12-20T08:24:13.271000+00:00</time>
      </trkpt>
      <trkpt lat="0" lon="0">
        <time>2020-12-20T08:24:13.275000+00:00</time>
      </trkpt>
      <trkpt lat="0" lon="0">
        <time>2020-12-20T08:24:13.276000+00:00</time>
      </trkpt>
      <trkpt lat="47.30456" lon="-1.33863">
        <ele>64</ele>
        <time>2020-12-20T08:24:14.260000+00:00</time>
      </trkpt>
      <trkpt lat="0" lon="0">
        <time>2020-12-20T08:24:14.264000+00:00</time>
      </trkpt>
      <trkpt lat="0" lon="0">
        <time>2020-12-20T08:24:14.268000+00:00</time>
      </trkpt>
      <trkpt lat="0" lon="0">
        <time>2020-12-20T08:24:14.270000+00:00</time>
      </trkpt>
      <trkpt lat="47.3046" lon="-1.33858">
        <ele>64</ele>
        <time>2020-12-20T08:24:15.264000+00:00</time>
      </trkpt>
      <trkpt lat="0" lon="0">
        <time>2020-12-20T08:24:15.270000+00:00</time>
      </trkpt>
      <trkpt lat="0" lon="0">
        <time>2020-12-20T08:24:15.276000+00:00</time>
      </trkpt>
      <trkpt lat="0" lon="0">
        <time>2020-12-20T08:24:15.277000+00:00</time>
      </trkpt>
      <trkpt lat="47.30465" lon="-1.33853">
        <ele>65</ele>
        <time>2020-12-20T08:24:16.238000+00:00</time>
      </trkpt>
      <trkpt lat="0" lon="0">
        <time>2020-12-20T08:24:16.248000+00:00</time>
      </trkpt>
      <trkpt lat="0" lon="0">
        <time>2020-12-20T08:24:16.252000+00:00</time>
      </trkpt>
      <trkpt lat="0" lon="0">
        <time>2020-12-20T08:24:16.259000+00:00</time>
      </trkpt>
      <trkpt lat="47.30469" lon="-1.33849">
        <ele>65</ele>
        <time>2020-12-20T08:24:17.242000+00:00</time>
      </trkpt>
      <trkpt lat="0" lon="0">
        <time>2020-12-20T08:24:17.251000+00:00</time>
      </trkpt>
      <trkpt lat="0" lon="0">
        <time>2020-12-20T08:24:17.259000+00:00</time>
      </trkpt>
      <trkpt lat="0" lon="0">
        <time>2020-12-20T08:24:17.260000+00:00</time>
      </trkpt>
      <trkpt lat="47.30474" lon="-1.33844">
        <ele>65</ele>
        <time>2020-12-20T08:24:18.249000+00:00</time>
      </trkpt>
      <trkpt lat="0" lon="0">
        <time>2020-12-20T08:24:18.259000+00:00</time>
      </trkpt>
      <trkpt lat="0" lon="0">
        <time>2020-12-20T08:24:18.265000+00:00</time>
      </trkpt>
      <trkpt lat="0" lon="0">
        <time>2020-12-20T08:24:18.268000+00:00</time>
      </trkpt>
      <trkpt lat="47.30478" lon="-1.3384">
        <ele>65</ele>
        <time>2020-12-20T08:24:19.263000+00:00</time>
      </trkpt>
      <trkpt lat="0" lon="0">
        <time>2020-12-20T08:24:19.271000+00:00</time>
      </trkpt>
      <trkpt lat="0" lon="0">
        <time>2020-12-20T08:24:19.276000+00:00</time>
      </trkpt>
      <trkpt lat="0" lon="0">
        <time>2020-12-20T08:24:19.278000+00:00</time>
      </trkpt>
      <trkpt lat="47.30483" lon="-1.33835">
        <ele>65</ele>
        <time>2020-12-20T08:24:20.260000+00:00</time>
      </trkpt>
      <trkpt lat="0" lon="0">
        <time>2020-12-20T08:24:20.264000+00:00</time>
      </trkpt>
      <trkpt lat="0" lon="0">
        <time>2020-12-20T08:24:20.272000+00:00</time>
      </trkpt>
      <trkpt lat="0" lon="0">
        <time>2020-12-20T08:24:20.274000+00:00</time>
      </trkpt>
      <trkpt lat="47.30488" lon="-1.33831">
        <ele>65</ele>
        <time>2020-12-20T08:24:21.269000+00:00</time>
      </trkpt>
      <trkpt lat="0" lon="0">
        <time>2020-12-20T08:24:21.276000+00:00</time>
      </trkpt>
      <trkpt lat="0" lon="0">
        <time>2020-12-20T08:24:21.281000+00:00</time>
      </trkpt>
      <trkpt lat="0" lon="0">
        <time>2020-12-20T08:24:21.283000+00:00</time>
      </trkpt>
      <trkpt lat="47.30493" lon="-1.33828">
        <ele>65</ele>
        <time>2020-12-20T08:24:22.227000+00:00</time>
      </trkpt>
      <trkpt lat="0" lon="0">
        <time>2020-12-20T08:24:22.231000+00:00</time>
      </trkpt>
      <trkpt lat="0" lon="0">
        <time>2020-12-20T08:24:22.236000+00:00</time>
      </trkpt>
      <trkpt lat="0" lon="0">
        <time>2020-12-20T08:24:22.238000+00:00</time>
      </trkpt>
      <trkpt lat="47.30497" lon="-1.33824">
        <ele>65</ele>
        <time>2020-12-20T08:24:23.313000+00:00</time>
      </trkpt>
      <trkpt lat="0" lon="0">
        <time>2020-12-20T08:24:23.319000+00:00</time>
      </trkpt>
      <trkpt lat="0" lon="0">
        <time>2020-12-20T08:24:23.323000+00:00</time>
      </trkpt>
      <trkpt lat="0" lon="0">
        <time>2020-12-20T08:24:23.328000+00:00</time>
      </trkpt>
      <trkpt lat="47.30502" lon="-1.3382">
        <ele>65</ele>
        <time>2020-12-20T08:24:24.242000+00:00</time>
      </trkpt>
      <trkpt lat="0" lon="0">
        <time>2020-12-20T08:24:24.251000+00:00</time>
      </trkpt>
      <trkpt lat="0" lon="0">
        <time>2020-12-20T08:24:24.258000+00:00</time>
      </trkpt>
      <trkpt lat="0" lon="0">
        <time>2020-12-20T08:24:24.261000+00:00</time>
      </trkpt>
      <trkpt lat="47.30507" lon="-1.33817">
        <ele>64</ele>
        <time>2020-12-20T08:24:25.269000+00:00</time>
      </trkpt>
      <trkpt lat="0" lon="0">
        <time>2020-12-20T08:24:25.274000+00:00</time>
      </trkpt>
      <trkpt lat="0" lon="0">
        <time>2020-12-20T08:24:25.283000+00:00</time>
      </trkpt>
      <trkpt lat="0" lon="0">
        <time>2020-12-20T08:24:25.286000+00:00</time>
      </trkpt>
      <trkpt lat="47.30512" lon="-1.33813">
        <ele>64</ele>
        <time>2020-12-20T08:24:26.230000+00:00</time>
      </trkpt>
      <trkpt lat="0" lon="0">
        <time>2020-12-20T08:24:26.236000+00:00</time>
      </trkpt>
      <trkpt lat="0" lon="0">
        <time>2020-12-20T08:24:26.238000+00:00</time>
      </trkpt>
      <trkpt lat="47.30517" lon="-1.3381">
        <ele>64</ele>
        <time>2020-12-20T08:24:27.196000+00:00</time>
      </trkpt>
      <trkpt lat="0" lon="0">
        <time>2020-12-20T08:24:27.197000+00:00</time>
      </trkpt>
      <trkpt lat="0" lon="0">
        <time>2020-12-20T08:24:27.198000+00:00</time>
      </trkpt>
      <trkpt lat="0" lon="0">
        <time>2020-12-20T08:24:27.199000+00:00</time>
      </trkpt>
      <trkpt lat="47.30522" lon="-1.33807">
        <ele>64</ele>
        <time>2020-12-20T08:24:28.240000+00:00</time>
      </trkpt>
      <trkpt lat="0" lon="0">
        <time>2020-12-20T08:24:28.249000+00:00</time>
      </trkpt>
      <trkpt lat="0" lon="0">
        <time>2020-12-20T08:24:28.255000+00:00</time>
      </trkpt>
      <trkpt lat="0" lon="0">
        <time>2020-12-20T08:24:28.257000+00:00</time>
      </trkpt>
      <trkpt lat="47.30528" lon="-1.33804">
        <ele>64</ele>
        <time>2020-12-20T08:24:29.277000+00:00</time>
      </trkpt>
      <trkpt lat="0" lon="0">
        <time>2020-12-20T08:24:29.283000+00:00</time>
      </trkpt>
      <trkpt lat="0" lon="0">
        <time>2020-12-20T08:24:29.294000+00:00</time>
      </trkpt>
      <trkpt lat="0" lon="0">
        <time>2020-12-20T08:24:29.296000+00:00</time>
      </trkpt>
      <trkpt lat="47.30533" lon="-1.33801">
        <ele>64</ele>
        <time>2020-12-20T08:24:30.262000+00:00</time>
      </trkpt>
      <trkpt lat="0" lon="0">
        <time>2020-12-20T08:24:30.280000+00:00</time>
      </trkpt>
      <trkpt lat="0" lon="0">
        <time>2020-12-20T08:24:30.284000+00:00</time>
      </trkpt>
      <trkpt lat="0" lon="0">
        <time>2020-12-20T08:24:30.286000+00:00</time>
      </trkpt>
      <trkpt lat="47.30538" lon="-1.33798">
        <ele>64</ele>
        <time>2020-12-20T08:24:31.281000+00:00</time>
      </trkpt>
      <trkpt lat="0" lon="0">
        <time>2020-12-20T08:24:31.292000+00:00</time>
      </trkpt>
      <trkpt lat="0" lon="0">
        <time>2020-12-20T08:24:31.296000+00:00</time>
      </trkpt>
      <trkpt lat="0" lon="0">
        <time>2020-12-20T08:24:31.304000+00:00</time>
      </trkpt>
      <trkpt lat="47.30544" lon="-1.33795">
        <ele>63</ele>
        <time>2020-12-20T08:24:32.218000+00:00</time>
      </trkpt>
      <trkpt lat="0" lon="0">
        <time>2020-12-20T08:24:32.223000+00:00</time>
      </trkpt>
      <trkpt lat="0" lon="0">
        <time>2020-12-20T08:24:32.227000+00:00</time>
      </trkpt>
      <trkpt lat="0" lon="0">
        <time>2020-12-20T08:24:32.230000+00:00</time>
      </trkpt>
      <trkpt lat="47.30549" lon="-1.33793">
        <ele>63</ele>
        <time>2020-12-20T08:24:33.209000+00:00</time>
      </trkpt>
      <trkpt lat="0" lon="0">
        <time>2020-12-20T08:24:33.215000+00:00</time>
      </trkpt>
      <trkpt lat="0" lon="0">
        <time>2020-12-20T08:24:33.217000+00:00</time>
      </trkpt>
      <trkpt lat="0" lon="0">
        <time>2020-12-20T08:24:33.218000+00:00</time>
      </trkpt>
      <trkpt lat="47.30555" lon="-1.3379">
        <ele>64</ele>
        <time>2020-12-20T08:24:34.259000+00:00</time>
      </trkpt>
      <trkpt lat="0" lon="0">
        <time>2020-12-20T08:24:34.272000+00:00</time>
      </trkpt>
      <trkpt lat="0" lon="0">
        <time>2020-12-20T08:24:34.275000+00:00</time>
      </trkpt>
      <trkpt lat="0" lon="0">
        <time>2020-12-20T08:24:34.277000+00:00</time>
      </trkpt>
      <trkpt lat="47.3056" lon="-1.33788">
        <ele>64</ele>
        <time>2020-12-20T08:24:35.283000+00:00</time>
      </trkpt>
      <trkpt lat="0" lon="0">
        <time>2020-12-20T08:24:35.289000+00:00</time>
      </trkpt>
      <trkpt lat="0" lon="0">
        <time>2020-12-20T08:24:35.294000+00:00</time>
      </trkpt>
      <trkpt lat="0" lon="0">
        <time>2020-12-20T08:24:35.297000+00:00</time>
      </trkpt>
      <trkpt lat="47.30565" lon="-1.33785">
        <ele>64</ele>
        <time>2020-12-20T08:24:36.286000+00:00</time>
      </trkpt>
      <trkpt lat="0" lon="0">
        <time>2020-12-20T08:24:36.290000+00:00</time>
      </trkpt>
      <trkpt lat="0" lon="0">
        <time>2020-12-20T08:24:36.295000+00:00</time>
      </trkpt>
      <trkpt lat="0" lon="0">
        <time>2020-12-20T08:24:36.298000+00:00</time>
      </trkpt>
      <trkpt lat="47.3057" lon="-1.33783">
        <ele>64</ele>
        <time>2020-12-20T08:24:37.276000+00:00</time>
      </trkpt>
      <trkpt lat="0" lon="0">
        <time>2020-12-20T08:24:37.292000+00:00</time>
      </trkpt>
      <trkpt lat="0" lon="0">
        <time>2020-12-20T08:24:37.298000+00:00</time>
      </trkpt>
      <trkpt lat="0" lon="0">
        <time>2020-12-20T08:24:37.303000+00:00</time>
      </trkpt>
      <trkpt lat="47.30576" lon="-1.33781">
        <ele>64</ele>
        <time>2020-12-20T08:24:38.279000+00:00</time>
      </trkpt>
      <trkpt lat="0" lon="0">
        <time>2020-12-20T08:24:38.286000+00:00</time>
      </trkpt>
      <trkpt lat="0" lon="0">
        <time>2020-12-20T08:24:38.290000+00:00</time>
      </trkpt>
      <trkpt lat="0" lon="0">
        <time>2020-12-20T08:24:38.292000+00:00</time>
      </trkpt>
      <trkpt lat="47.30581" lon="-1.33779">
        <ele>64</ele>
        <time>2020-12-20T08:24:39.256000+00:00</time>
      </trkpt>
      <trkpt lat="0" lon="0">
        <time>2020-12-20T08:24:39.262000+00:00</time>
      </trkpt>
      <trkpt lat="0" lon="0">
        <time>2020-12-20T08:24:39.271000+00:00</time>
      </trkpt>
      <trkpt lat="0" lon="0">
        <time>2020-12-20T08:24:39.274000+00:00</time>
      </trkpt>
      <trkpt lat="47.30586" lon="-1.33777">
        <ele>64</ele>
        <time>2020-12-20T08:24:40.269000+00:00</time>
      </trkpt>
      <trkpt lat="0" lon="0">
        <time>2020-12-20T08:24:40.286000+00:00</time>
      </trkpt>
      <trkpt lat="0" lon="0">
        <time>2020-12-20T08:24:40.292000+00:00</time>
      </trkpt>
      <trkpt lat="0" lon="0">
        <time>2020-12-20T08:24:40.294000+00:00</time>
      </trkpt>
      <trkpt lat="47.30591" lon="-1.33775">
        <ele>64</ele>
        <time>2020-12-20T08:24:41.275000+00:00</time>
      </trkpt>
      <trkpt lat="0" lon="0">
        <time>2020-12-20T08:24:41.290000+00:00</time>
      </trkpt>
      <trkpt lat="0" lon="0">
        <time>2020-12-20T08:24:41.295000+00:00</time>
      </trkpt>
      <trkpt lat="0" lon="0">
        <time>2020-12-20T08:24:41.298000+00:00</time>
      </trkpt>
      <trkpt lat="47.30597" lon="-1.33773">
        <ele>64</ele>
        <time>2020-12-20T08:24:42.248000+00:00</time>
      </trkpt>
      <trkpt lat="0" lon="0">
        <time>2020-12-20T08:24:42.255000+00:00</time>
      </trkpt>
      <trkpt lat="0" lon="0">
        <time>2020-12-20T08:24:42.266000+00:00</time>
      </trkpt>
      <trkpt lat="0" lon="0">
        <time>2020-12-20T08:24:42.267000+00:00</time>
      </trkpt>
      <trkpt lat="47.30602" lon="-1.33772">
        <ele>64</ele>
        <time>2020-12-20T08:24:43.250000+00:00</time>
      </trkpt>
      <trkpt lat="0" lon="0">
        <time>2020-12-20T08:24:43.260000+00:00</time>
      </trkpt>
      <trkpt lat="0" lon="0">
        <time>2020-12-20T08:24:43.264000+00:00</time>
      </trkpt>
      <trkpt lat="0" lon="0">
        <time>2020-12-20T08:24:43.266000+00:00</time>
      </trkpt>
      <trkpt lat="47.30607" lon="-1.3377">
        <ele>64</ele>
        <time>2020-12-20T08:24:44.268000+00:00</time>
      </trkpt>
      <trkpt lat="0" lon="0">
        <time>2020-12-20T08:24:44.284000+00:00</time>
      </trkpt>
      <trkpt lat="0" lon="0">
        <time>2020-12-20T08:24:44.292000+00:00</time>
      </trkpt>
      <trkpt lat="0" lon="0">
        <time>2020-12-20T08:24:44.294000+00:00</time>
      </trkpt>
      <trkpt lat="47.30613" lon="-1.33769">
        <ele>64</ele>
        <time>2020-12-20T08:24:45.256000+00:00</time>
      </trkpt>
      <trkpt lat="0" lon="0">
        <time>2020-12-20T08:24:45.261000+00:00</time>
      </trkpt>
      <trkpt lat="0" lon="0">
        <time>2020-12-20T08:24:45.266000+00:00</time>
      </trkpt>
      <trkpt lat="0" lon="0">
        <time>2020-12-20T08:24:45.268000+00:00</time>
      </trkpt>
      <trkpt lat="47.30618" lon="-1.33767">
        <ele>64</ele>
        <time>2020-12-20T08:24:46.272000+00:00</time>
      </trkpt>
      <trkpt lat="0" lon="0">
        <time>2020-12-20T08:24:46.287000+00:00</time>
      </trkpt>
      <trkpt lat="0" lon="0">
        <time>2020-12-20T08:24:46.291000+00:00</time>
      </trkpt>
      <trkpt lat="0" lon="0">
        <time>2020-12-20T08:24:46.295000+00:00</time>
      </trkpt>
      <trkpt lat="47.30623" lon="-1.33766">
        <ele>64</ele>
        <time>2020-12-20T08:24:47.267000+00:00</time>
      </trkpt>
      <trkpt lat="0" lon="0">
        <time>2020-12-20T08:24:47.278000+00:00</time>
      </trkpt>
      <trkpt lat="0" lon="0">
        <time>2020-12-20T08:24:47.283000+00:00</time>
      </trkpt>
      <trkpt lat="0" lon="0">
        <time>2020-12-20T08:24:47.285000+00:00</time>
      </trkpt>
      <trkpt lat="47.30628" lon="-1.33765">
        <ele>64</ele>
        <time>2020-12-20T08:24:48.258000+00:00</time>
      </trkpt>
      <trkpt lat="0" lon="0">
        <time>2020-12-20T08:24:48.269000+00:00</time>
      </trkpt>
      <trkpt lat="0" lon="0">
        <time>2020-12-20T08:24:48.274000+00:00</time>
      </trkpt>
      <trkpt lat="0" lon="0">
        <time>2020-12-20T08:24:48.276000+00:00</time>
      </trkpt>
      <trkpt lat="47.30633" lon="-1.33763">
        <ele>64</ele>
        <time>2020-12-20T08:24:49.262000+00:00</time>
      </trkpt>
      <trkpt lat="0" lon="0">
        <time>2020-12-20T08:24:49.274000+00:00</time>
      </trkpt>
      <trkpt lat="0" lon="0">
        <time>2020-12-20T08:24:49.284000+00:00</time>
      </trkpt>
      <trkpt lat="0" lon="0">
        <time>2020-12-20T08:24:49.286000+00:00</time>
      </trkpt>
      <trkpt lat="47.30638" lon="-1.33761">
        <ele>64</ele>
        <time>2020-12-20T08:24:50.263000+00:00</time>
      </trkpt>
      <trkpt lat="0" lon="0">
        <time>2020-12-20T08:24:50.284000+00:00</time>
      </trkpt>
      <trkpt lat="0" lon="0">
        <time>2020-12-20T08:24:50.293000+00:00</time>
      </trkpt>
      <trkpt lat="0" lon="0">
        <time>2020-12-20T08:24:50.295000+00:00</time>
      </trkpt>
      <trkpt lat="47.30644" lon="-1.33759">
        <ele>64</ele>
        <time>2020-12-20T08:24:51.294000+00:00</time>
      </trkpt>
      <trkpt lat="0" lon="0">
        <time>2020-12-20T08:24:51.303000+00:00</time>
      </trkpt>
      <trkpt lat="0" lon="0">
        <time>2020-12-20T08:24:51.310000+00:00</time>
      </trkpt>
      <trkpt lat="0" lon="0">
        <time>2020-12-20T08:24:51.314000+00:00</time>
      </trkpt>
      <trkpt lat="47.30649" lon="-1.33757">
        <ele>63</ele>
        <time>2020-12-20T08:24:52.300000+00:00</time>
      </trkpt>
      <trkpt lat="0" lon="0">
        <time>2020-12-20T08:24:52.307000+00:00</time>
      </trkpt>
      <trkpt lat="0" lon="0">
        <time>2020-12-20T08:24:52.311000+00:00</time>
      </trkpt>
      <trkpt lat="0" lon="0">
        <time>2020-12-20T08:24:52.314000+00:00</time>
      </trkpt>
      <trkpt lat="47.30654" lon="-1.33755">
        <ele>63</ele>
        <time>2020-12-20T08:24:53.276000+00:00</time>
      </trkpt>
      <trkpt lat="0" lon="0">
        <time>2020-12-20T08:24:53.285000+00:00</time>
      </trkpt>
      <trkpt lat="0" lon="0">
        <time>2020-12-20T08:24:53.291000+00:00</time>
      </trkpt>
      <trkpt lat="0" lon="0">
        <time>2020-12-20T08:24:53.293000+00:00</time>
      </trkpt>
      <trkpt lat="47.3066" lon="-1.33752">
        <ele>63</ele>
        <time>2020-12-20T08:24:54.228000+00:00</time>
      </trkpt>
      <trkpt lat="0" lon="0">
        <time>2020-12-20T08:24:54.236000+00:00</time>
      </trkpt>
      <trkpt lat="0" lon="0">
        <time>2020-12-20T08:24:54.239000+00:00</time>
      </trkpt>
      <trkpt lat="0" lon="0">
        <time>2020-12-20T08:24:54.242000+00:00</time>
      </trkpt>
      <trkpt lat="47.30665" lon="-1.33749">
        <ele>63</ele>
        <time>2020-12-20T08:24:55.258000+00:00</time>
      </trkpt>
      <trkpt lat="0" lon="0">
        <time>2020-12-20T08:24:55.270000+00:00</time>
      </trkpt>
      <trkpt lat="0" lon="0">
        <time>2020-12-20T08:24:55.275000+00:00</time>
      </trkpt>
      <trkpt lat="0" lon="0">
        <time>2020-12-20T08:24:55.277000+00:00</time>
      </trkpt>
      <trkpt lat="47.3067" lon="-1.33746">
        <ele>63</ele>
        <time>2020-12-20T08:24:56.240000+00:00</time>
      </trkpt>
      <trkpt lat="0" lon="0">
        <time>2020-12-20T08:24:56.246000+00:00</time>
      </trkpt>
      <trkpt lat="0" lon="0">
        <time>2020-12-20T08:24:56.251000+00:00</time>
      </trkpt>
      <trkpt lat="0" lon="0">
        <time>2020-12-20T08:24:56.253000+00:00</time>
      </trkpt>
      <trkpt lat="47.30675" lon="-1.33743">
        <ele>62</ele>
        <time>2020-12-20T08:24:57.283000+00:00</time>
      </trkpt>
      <trkpt lat="0" lon="0">
        <time>2020-12-20T08:24:57.293000+00:00</time>
      </trkpt>
      <trkpt lat="0" lon="0">
        <time>2020-12-20T08:24:57.297000+00:00</time>
      </trkpt>
      <trkpt lat="0" lon="0">
        <time>2020-12-20T08:24:57.299000+00:00</time>
      </trkpt>
      <trkpt lat="47.3068" lon="-1.33739">
        <ele>62</ele>
        <time>2020-12-20T08:24:58.282000+00:00</time>
      </trkpt>
      <trkpt lat="0" lon="0">
        <time>2020-12-20T08:24:58.289000+00:00</time>
      </trkpt>
      <trkpt lat="0" lon="0">
        <time>2020-12-20T08:24:58.295000+00:00</time>
      </trkpt>
      <trkpt lat="0" lon="0">
        <time>2020-12-20T08:24:58.297000+00:00</time>
      </trkpt>
      <trkpt lat="47.30685" lon="-1.33735">
        <ele>62</ele>
        <time>2020-12-20T08:24:59.232000+00:00</time>
      </trkpt>
      <trkpt lat="0" lon="0">
        <time>2020-12-20T08:24:59.242000+00:00</time>
      </trkpt>
      <trkpt lat="0" lon="0">
        <time>2020-12-20T08:24:59.246000+00:00</time>
      </trkpt>
      <trkpt lat="0" lon="0">
        <time>2020-12-20T08:24:59.251000+00:00</time>
      </trkpt>
      <trkpt lat="47.3069" lon="-1.3373">
        <ele>62</ele>
        <time>2020-12-20T08:25:00.228000+00:00</time>
      </trkpt>
      <trkpt lat="0" lon="0">
        <time>2020-12-20T08:25:00.231000+00:00</time>
      </trkpt>
      <trkpt lat="0" lon="0">
        <time>2020-12-20T08:25:00.235000+00:00</time>
      </trkpt>
      <trkpt lat="0" lon="0">
        <time>2020-12-20T08:25:00.236000+00:00</time>
      </trkpt>
      <trkpt lat="47.30694" lon="-1.33725">
        <ele>61</ele>
        <time>2020-12-20T08:25:01.238000+00:00</time>
      </trkpt>
      <trkpt lat="0" lon="0">
        <time>2020-12-20T08:25:01.248000+00:00</time>
      </trkpt>
      <trkpt lat="0" lon="0">
        <time>2020-12-20T08:25:01.252000+00:00</time>
      </trkpt>
      <trkpt lat="0" lon="0">
        <time>2020-12-20T08:25:01.257000+00:00</time>
      </trkpt>
      <trkpt lat="47.30698" lon="-1.3372">
        <ele>61</ele>
        <time>2020-12-20T08:25:02.254000+00:00</time>
      </trkpt>
      <trkpt lat="0" lon="0">
        <time>2020-12-20T08:25:02.261000+00:00</time>
      </trkpt>
      <trkpt lat="0" lon="0">
        <time>2020-12-20T08:25:02.267000+00:00</time>
      </trkpt>
      <trkpt lat="0" lon="0">
        <time>2020-12-20T08:25:02.270000+00:00</time>
      </trkpt>
      <trkpt lat="47.30702" lon="-1.33714">
        <ele>61</ele>
        <time>2020-12-20T08:25:03.225000+00:00</time>
      </trkpt>
      <trkpt lat="0" lon="0">
        <time>2020-12-20T08:25:03.230000+00:00</time>
      </trkpt>
      <trkpt lat="0" lon="0">
        <time>2020-12-20T08:25:03.232000+00:00</time>
      </trkpt>
      <trkpt lat="0" lon="0">
        <time>2020-12-20T08:25:03.233000+00:00</time>
      </trkpt>
      <trkpt lat="47.30706" lon="-1.33708">
        <ele>62</ele>
        <time>2020-12-20T08:25:04.259000+00:00</time>
      </trkpt>
      <trkpt lat="0" lon="0">
        <time>2020-12-20T08:25:04.270000+00:00</time>
      </trkpt>
      <trkpt lat="0" lon="0">
        <time>2020-12-20T08:25:04.274000+00:00</time>
      </trkpt>
      <trkpt lat="0" lon="0">
        <time>2020-12-20T08:25:04.276000+00:00</time>
      </trkpt>
      <trkpt lat="47.30709" lon="-1.33701">
        <ele>62</ele>
        <time>2020-12-20T08:25:05.268000+00:00</time>
      </trkpt>
      <trkpt lat="0" lon="0">
        <time>2020-12-20T08:25:05.276000+00:00</time>
      </trkpt>
      <trkpt lat="0" lon="0">
        <time>2020-12-20T08:25:05.281000+00:00</time>
      </trkpt>
      <trkpt lat="0" lon="0">
        <time>2020-12-20T08:25:05.284000+00:00</time>
      </trkpt>
      <trkpt lat="47.30713" lon="-1.33694">
        <ele>62</ele>
        <time>2020-12-20T08:25:06.251000+00:00</time>
      </trkpt>
      <trkpt lat="0" lon="0">
        <time>2020-12-20T08:25:06.261000+00:00</time>
      </trkpt>
      <trkpt lat="0" lon="0">
        <time>2020-12-20T08:25:06.263000+00:00</time>
      </trkpt>
      <trkpt lat="0" lon="0">
        <time>2020-12-20T08:25:06.264000+00:00</time>
      </trkpt>
      <trkpt lat="47.30716" lon="-1.33687">
        <ele>62</ele>
        <time>2020-12-20T08:25:07.248000+00:00</time>
      </trkpt>
      <trkpt lat="0" lon="0">
        <time>2020-12-20T08:25:07.258000+00:00</time>
      </trkpt>
      <trkpt lat="0" lon="0">
        <time>2020-12-20T08:25:07.262000+00:00</time>
      </trkpt>
      <trkpt lat="0" lon="0">
        <time>2020-12-20T08:25:07.264000+00:00</time>
      </trkpt>
      <trkpt lat="47.30719" lon="-1.3368">
        <ele>62</ele>
        <time>2020-12-20T08:25:08.303000+00:00</time>
      </trkpt>
      <trkpt lat="0" lon="0">
        <time>2020-12-20T08:25:08.307000+00:00</time>
      </trkpt>
      <trkpt lat="0" lon="0">
        <time>2020-12-20T08:25:08.315000+00:00</time>
      </trkpt>
      <trkpt lat="0" lon="0">
        <time>2020-12-20T08:25:08.319000+00:00</time>
      </trkpt>
      <trkpt lat="47.30722" lon="-1.33672">
        <ele>62</ele>
        <time>2020-12-20T08:25:09.212000+00:00</time>
      </trkpt>
      <trkpt lat="0" lon="0">
        <time>2020-12-20T08:25:09.223000+00:00</time>
      </trkpt>
      <trkpt lat="0" lon="0">
        <time>2020-12-20T08:25:09.225000+00:00</time>
      </trkpt>
      <trkpt lat="0" lon="0">
        <time>2020-12-20T08:25:09.226000+00:00</time>
      </trkpt>
      <trkpt lat="47.30724" lon="-1.33664">
        <ele>62</ele>
        <time>2020-12-20T08:25:10.287000+00:00</time>
      </trkpt>
      <trkpt lat="0" lon="0">
        <time>2020-12-20T08:25:10.304000+00:00</time>
      </trkpt>
      <trkpt lat="0" lon="0">
        <time>2020-12-20T08:25:10.316000+00:00</time>
      </trkpt>
      <trkpt lat="0" lon="0">
        <time>2020-12-20T08:25:10.319000+00:00</time>
      </trkpt>
      <trkpt lat="47.30727" lon="-1.33657">
        <ele>62</ele>
        <time>2020-12-20T08:25:11.257000+00:00</time>
      </trkpt>
      <trkpt lat="0" lon="0">
        <time>2020-12-20T08:25:11.276000+00:00</time>
      </trkpt>
      <trkpt lat="0" lon="0">
        <time>2020-12-20T08:25:11.283000+00:00</time>
      </trkpt>
      <trkpt lat="0" lon="0">
        <time>2020-12-20T08:25:11.285000+00:00</time>
      </trkpt>
      <trkpt lat="47.30729" lon="-1.33649">
        <ele>62</ele>
        <time>2020-12-20T08:25:12.204000+00:00</time>
      </trkpt>
      <trkpt lat="0" lon="0">
        <time>2020-12-20T08:25:12.211000+00:00</time>
      </trkpt>
      <trkpt lat="0" lon="0">
        <time>2020-12-20T08:25:12.212000+00:00</time>
      </trkpt>
      <trkpt lat="0" lon="0">
        <time>2020-12-20T08:25:12.216000+00:00</time>
      </trkpt>
      <trkpt lat="47.30732" lon="-1.33641">
        <ele>62</ele>
        <time>2020-12-20T08:25:13.250000+00:00</time>
      </trkpt>
      <trkpt lat="0" lon="0">
        <time>2020-12-20T08:25:13.265000+00:00</time>
      </trkpt>
      <trkpt lat="0" lon="0">
        <time>2020-12-20T08:25:13.272000+00:00</time>
      </trkpt>
      <trkpt lat="0" lon="0">
        <time>2020-12-20T08:25:13.275000+00:00</time>
      </trkpt>
      <trkpt lat="47.30734" lon="-1.33634">
        <ele>63</ele>
        <time>2020-12-20T08:25:14.254000+00:00</time>
      </trkpt>
      <trkpt lat="0" lon="0">
        <time>2020-12-20T08:25:14.264000+00:00</time>
      </trkpt>
      <trkpt lat="0" lon="0">
        <time>2020-12-20T08:25:14.268000+00:00</time>
      </trkpt>
      <trkpt lat="0" lon="0">
        <time>2020-12-20T08:25:14.279000+00:00</time>
      </trkpt>
      <trkpt lat="47.30737" lon="-1.33627">
        <ele>63</ele>
        <time>2020-12-20T08:25:15.299000+00:00</time>
      </trkpt>
      <trkpt lat="0" lon="0">
        <time>2020-12-20T08:25:15.307000+00:00</time>
      </trkpt>
      <trkpt lat="0" lon="0">
        <time>2020-12-20T08:25:15.311000+00:00</time>
      </trkpt>
      <trkpt lat="0" lon="0">
        <time>2020-12-20T08:25:15.313000+00:00</time>
      </trkpt>
      <trkpt lat="47.3074" lon="-1.3362">
        <ele>63</ele>
        <time>2020-12-20T08:25:16.273000+00:00</time>
      </trkpt>
      <trkpt lat="0" lon="0">
        <time>2020-12-20T08:25:16.280000+00:00</time>
      </trkpt>
      <trkpt lat="0" lon="0">
        <time>2020-12-20T08:25:16.286000+00:00</time>
      </trkpt>
      <trkpt lat="0" lon="0">
        <time>2020-12-20T08:25:16.288000+00:00</time>
      </trkpt>
      <trkpt lat="47.30743" lon="-1.33614">
        <ele>63</ele>
        <time>2020-12-20T08:25:17.245000+00:00</time>
      </trkpt>
      <trkpt lat="0" lon="0">
        <time>2020-12-20T08:25:17.252000+00:00</time>
      </trkpt>
      <trkpt lat="0" lon="0">
        <time>2020-12-20T08:25:17.254000+00:00</time>
      </trkpt>
      <trkpt lat="0" lon="0">
        <time>2020-12-20T08:25:17.255000+00:00</time>
      </trkpt>
      <trkpt lat="47.30746" lon="-1.33608">
        <ele>63</ele>
        <time>2020-12-20T08:25:18.245000+00:00</time>
      </trkpt>
      <trkpt lat="0" lon="0">
        <time>2020-12-20T08:25:18.253000+00:00</time>
      </trkpt>
      <trkpt lat="0" lon="0">
        <time>2020-12-20T08:25:18.257000+00:00</time>
      </trkpt>
      <trkpt lat="0" lon="0">
        <time>2020-12-20T08:25:18.261000+00:00</time>
      </trkpt>
      <trkpt lat="47.3075" lon="-1.33602">
        <ele>63</ele>
        <time>2020-12-20T08:25:19.233000+00:00</time>
      </trkpt>
      <trkpt lat="0" lon="0">
        <time>2020-12-20T08:25:19.239000+00:00</time>
      </trkpt>
      <trkpt lat="0" lon="0">
        <time>2020-12-20T08:25:19.244000+00:00</time>
      </trkpt>
      <trkpt lat="0" lon="0">
        <time>2020-12-20T08:25:19.245000+00:00</time>
      </trkpt>
      <trkpt lat="47.30753" lon="-1.33596">
        <ele>63</ele>
        <time>2020-12-20T08:25:20.277000+00:00</time>
      </trkpt>
      <trkpt lat="0" lon="0">
        <time>2020-12-20T08:25:20.283000+00:00</time>
      </trkpt>
      <trkpt lat="0" lon="0">
        <time>2020-12-20T08:25:20.289000+00:00</time>
      </trkpt>
      <trkpt lat="0" lon="0">
        <time>2020-12-20T08:25:20.291000+00:00</time>
      </trkpt>
      <trkpt lat="47.30757" lon="-1.3359">
        <ele>63</ele>
        <time>2020-12-20T08:25:21.274000+00:00</time>
      </trkpt>
      <trkpt lat="0" lon="0">
        <time>2020-12-20T08:25:21.287000+00:00</time>
      </trkpt>
      <trkpt lat="0" lon="0">
        <time>2020-12-20T08:25:21.292000+00:00</time>
      </trkpt>
      <trkpt lat="0" lon="0">
        <time>2020-12-20T08:25:21.296000+00:00</time>
      </trkpt>
      <trkpt lat="47.3076" lon="-1.33584">
        <ele>63</ele>
        <time>2020-12-20T08:25:22.269000+00:00</time>
      </trkpt>
      <trkpt lat="0" lon="0">
        <time>2020-12-20T08:25:22.286000+00:00</time>
      </trkpt>
      <trkpt lat="0" lon="0">
        <time>2020-12-20T08:25:22.294000+00:00</time>
      </trkpt>
      <trkpt lat="0" lon="0">
        <time>2020-12-20T08:25:22.296000+00:00</time>
      </trkpt>
      <trkpt lat="47.30763" lon="-1.33578">
        <ele>64</ele>
        <time>2020-12-20T08:25:23.238000+00:00</time>
      </trkpt>
      <trkpt lat="0" lon="0">
        <time>2020-12-20T08:25:23.251000+00:00</time>
      </trkpt>
      <trkpt lat="0" lon="0">
        <time>2020-12-20T08:25:23.255000+00:00</time>
      </trkpt>
      <trkpt lat="0" lon="0">
        <time>2020-12-20T08:25:23.258000+00:00</time>
      </trkpt>
      <trkpt lat="47.30765" lon="-1.33571">
        <ele>64</ele>
        <time>2020-12-20T08:25:24.264000+00:00</time>
      </trkpt>
      <trkpt lat="0" lon="0">
        <time>2020-12-20T08:25:24.279000+00:00</time>
      </trkpt>
      <trkpt lat="0" lon="0">
        <time>2020-12-20T08:25:24.291000+00:00</time>
      </trkpt>
      <trkpt lat="0" lon="0">
        <time>2020-12-20T08:25:24.294000+00:00</time>
      </trkpt>
      <trkpt lat="47.30768" lon="-1.33565">
        <ele>64</ele>
        <time>2020-12-20T08:25:25.284000+00:00</time>
      </trkpt>
      <trkpt lat="0" lon="0">
        <time>2020-12-20T08:25:25.292000+00:00</time>
      </trkpt>
      <trkpt lat="0" lon="0">
        <time>2020-12-20T08:25:25.296000+00:00</time>
      </trkpt>
      <trkpt lat="0" lon="0">
        <time>2020-12-20T08:25:25.299000+00:00</time>
      </trkpt>
      <trkpt lat="47.3077" lon="-1.33559">
        <ele>64</ele>
        <time>2020-12-20T08:25:26.269000+00:00</time>
      </trkpt>
      <trkpt lat="0" lon="0">
        <time>2020-12-20T08:25:26.283000+00:00</time>
      </trkpt>
      <trkpt lat="0" lon="0">
        <time>2020-12-20T08:25:26.289000+00:00</time>
      </trkpt>
      <trkpt lat="0" lon="0">
        <time>2020-12-20T08:25:26.291000+00:00</time>
      </trkpt>
      <trkpt lat="47.30773" lon="-1.33552">
        <ele>65</ele>
        <time>2020-12-20T08:25:27.284000+00:00</time>
      </trkpt>
      <trkpt lat="0" lon="0">
        <time>2020-12-20T08:25:27.295000+00:00</time>
      </trkpt>
      <trkpt lat="0" lon="0">
        <time>2020-12-20T08:25:27.300000+00:00</time>
      </trkpt>
      <trkpt lat="0" lon="0">
        <time>2020-12-20T08:25:27.307000+00:00</time>
      </trkpt>
      <trkpt lat="47.30776" lon="-1.33546">
        <ele>65</ele>
        <time>2020-12-20T08:25:28.238000+00:00</time>
      </trkpt>
      <trkpt lat="0" lon="0">
        <time>2020-12-20T08:25:28.256000+00:00</time>
      </trkpt>
      <trkpt lat="0" lon="0">
        <time>2020-12-20T08:25:28.260000+00:00</time>
      </trkpt>
      <trkpt lat="0" lon="0">
        <time>2020-12-20T08:25:28.263000+00:00</time>
      </trkpt>
      <trkpt lat="47.30778" lon="-1.33541">
        <ele>65</ele>
        <time>2020-12-20T08:25:29.260000+00:00</time>
      </trkpt>
      <trkpt lat="0" lon="0">
        <time>2020-12-20T08:25:29.269000+00:00</time>
      </trkpt>
      <trkpt lat="0" lon="0">
        <time>2020-12-20T08:25:29.275000+00:00</time>
      </trkpt>
      <trkpt lat="0" lon="0">
        <time>2020-12-20T08:25:29.276000+00:00</time>
      </trkpt>
      <trkpt lat="47.30781" lon="-1.33535">
        <ele>65</ele>
        <time>2020-12-20T08:25:30.254000+00:00</time>
      </trkpt>
      <trkpt lat="0" lon="0">
        <time>2020-12-20T08:25:30.266000+00:00</time>
      </trkpt>
      <trkpt lat="0" lon="0">
        <time>2020-12-20T08:25:30.272000+00:00</time>
      </trkpt>
      <trkpt lat="0" lon="0">
        <time>2020-12-20T08:25:30.274000+00:00</time>
      </trkpt>
      <trkpt lat="47.30784" lon="-1.33529">
        <ele>65</ele>
        <time>2020-12-20T08:25:31.291000+00:00</time>
      </trkpt>
      <trkpt lat="0" lon="0">
        <time>2020-12-20T08:25:31.300000+00:00</time>
      </trkpt>
      <trkpt lat="0" lon="0">
        <time>2020-12-20T08:25:31.308000+00:00</time>
      </trkpt>
      <trkpt lat="0" lon="0">
        <time>2020-12-20T08:25:31.311000+00:00</time>
      </trkpt>
      <trkpt lat="47.30786" lon="-1.33524">
        <ele>65</ele>
        <time>2020-12-20T08:25:32.258000+00:00</time>
      </trkpt>
      <trkpt lat="0" lon="0">
        <time>2020-12-20T08:25:32.269000+00:00</time>
      </trkpt>
      <trkpt lat="0" lon="0">
        <time>2020-12-20T08:25:32.273000+00:00</time>
      </trkpt>
      <trkpt lat="0" lon="0">
        <time>2020-12-20T08:25:32.280000+00:00</time>
      </trkpt>
      <trkpt lat="47.30789" lon="-1.33518">
        <ele>65</ele>
        <time>2020-12-20T08:25:33.271000+00:00</time>
      </trkpt>
      <trkpt lat="0" lon="0">
        <time>2020-12-20T08:25:33.282000+00:00</time>
      </trkpt>
      <trkpt lat="0" lon="0">
        <time>2020-12-20T08:25:33.288000+00:00</time>
      </trkpt>
      <trkpt lat="0" lon="0">
        <time>2020-12-20T08:25:33.291000+00:00</time>
      </trkpt>
      <trkpt lat="47.30792" lon="-1.33513">
        <ele>65</ele>
        <time>2020-12-20T08:25:34.235000+00:00</time>
      </trkpt>
      <trkpt lat="0" lon="0">
        <time>2020-12-20T08:25:34.246000+00:00</time>
      </trkpt>
      <trkpt lat="0" lon="0">
        <time>2020-12-20T08:25:34.251000+00:00</time>
      </trkpt>
      <trkpt lat="0" lon="0">
        <time>2020-12-20T08:25:34.253000+00:00</time>
      </trkpt>
      <trkpt lat="47.30795" lon="-1.33507">
        <ele>65</ele>
        <time>2020-12-20T08:25:35.246000+00:00</time>
      </trkpt>
      <trkpt lat="0" lon="0">
        <time>2020-12-20T08:25:35.257000+00:00</time>
      </trkpt>
      <trkpt lat="0" lon="0">
        <time>2020-12-20T08:25:35.262000+00:00</time>
      </trkpt>
      <trkpt lat="0" lon="0">
        <time>2020-12-20T08:25:35.263000+00:00</time>
      </trkpt>
      <trkpt lat="47.30797" lon="-1.33501">
        <ele>64</ele>
        <time>2020-12-20T08:25:36.243000+00:00</time>
      </trkpt>
      <trkpt lat="0" lon="0">
        <time>2020-12-20T08:25:36.255000+00:00</time>
      </trkpt>
      <trkpt lat="0" lon="0">
        <time>2020-12-20T08:25:36.259000+00:00</time>
      </trkpt>
      <trkpt lat="0" lon="0">
        <time>2020-12-20T08:25:36.260000+00:00</time>
      </trkpt>
      <trkpt lat="47.308" lon="-1.33496">
        <ele>64</ele>
        <time>2020-12-20T08:25:37.228000+00:00</time>
      </trkpt>
      <trkpt lat="0" lon="0">
        <time>2020-12-20T08:25:37.239000+00:00</time>
      </trkpt>
      <trkpt lat="0" lon="0">
        <time>2020-12-20T08:25:37.243000+00:00</time>
      </trkpt>
      <trkpt lat="0" lon="0">
        <time>2020-12-20T08:25:37.246000+00:00</time>
      </trkpt>
      <trkpt lat="47.30804" lon="-1.3349">
        <ele>64</ele>
        <time>2020-12-20T08:25:38.283000+00:00</time>
      </trkpt>
      <trkpt lat="0" lon="0">
        <time>2020-12-20T08:25:38.292000+00:00</time>
      </trkpt>
      <trkpt lat="0" lon="0">
        <time>2020-12-20T08:25:38.295000+00:00</time>
      </trkpt>
      <trkpt lat="0" lon="0">
        <time>2020-12-20T08:25:38.298000+00:00</time>
      </trkpt>
      <trkpt lat="47.30807" lon="-1.33484">
        <ele>64</ele>
        <time>2020-12-20T08:25:39.249000+00:00</time>
      </trkpt>
      <trkpt lat="0" lon="0">
        <time>2020-12-20T08:25:39.262000+00:00</time>
      </trkpt>
      <trkpt lat="0" lon="0">
        <time>2020-12-20T08:25:39.265000+00:00</time>
      </trkpt>
      <trkpt lat="0" lon="0">
        <time>2020-12-20T08:25:39.268000+00:00</time>
      </trkpt>
      <trkpt lat="47.3081" lon="-1.33478">
        <ele>64</ele>
        <time>2020-12-20T08:25:40.236000+00:00</time>
      </trkpt>
      <trkpt lat="0" lon="0">
        <time>2020-12-20T08:25:40.241000+00:00</time>
      </trkpt>
      <trkpt lat="0" lon="0">
        <time>2020-12-20T08:25:40.244000+00:00</time>
      </trkpt>
      <trkpt lat="0" lon="0">
        <time>2020-12-20T08:25:40.247000+00:00</time>
      </trkpt>
      <trkpt lat="47.30814" lon="-1.33472">
        <ele>64</ele>
        <time>2020-12-20T08:25:41.248000+00:00</time>
      </trkpt>
      <trkpt lat="0" lon="0">
        <time>2020-12-20T08:25:41.267000+00:00</time>
      </trkpt>
      <trkpt lat="0" lon="0">
        <time>2020-12-20T08:25:41.275000+00:00</time>
      </trkpt>
      <trkpt lat="0" lon="0">
        <time>2020-12-20T08:25:41.284000+00:00</time>
      </trkpt>
      <trkpt lat="47.30817" lon="-1.33465">
        <ele>64</ele>
        <time>2020-12-20T08:25:42.242000+00:00</time>
      </trkpt>
      <trkpt lat="0" lon="0">
        <time>2020-12-20T08:25:42.254000+00:00</time>
      </trkpt>
      <trkpt lat="0" lon="0">
        <time>2020-12-20T08:25:42.259000+00:00</time>
      </trkpt>
      <trkpt lat="0" lon="0">
        <time>2020-12-20T08:25:42.261000+00:00</time>
      </trkpt>
      <trkpt lat="47.3082" lon="-1.33459">
        <ele>64</ele>
        <time>2020-12-20T08:25:43.260000+00:00</time>
      </trkpt>
      <trkpt lat="0" lon="0">
        <time>2020-12-20T08:25:43.276000+00:00</time>
      </trkpt>
      <trkpt lat="0" lon="0">
        <time>2020-12-20T08:25:43.280000+00:00</time>
      </trkpt>
      <trkpt lat="0" lon="0">
        <time>2020-12-20T08:25:43.282000+00:00</time>
      </trkpt>
      <trkpt lat="47.30823" lon="-1.33453">
        <ele>64</ele>
        <time>2020-12-20T08:25:44.258000+00:00</time>
      </trkpt>
      <trkpt lat="0" lon="0">
        <time>2020-12-20T08:25:44.271000+00:00</time>
      </trkpt>
      <trkpt lat="0" lon="0">
        <time>2020-12-20T08:25:44.275000+00:00</time>
      </trkpt>
      <trkpt lat="0" lon="0">
        <time>2020-12-20T08:25:44.277000+00:00</time>
      </trkpt>
      <trkpt lat="47.30827" lon="-1.33446">
        <ele>64</ele>
        <time>2020-12-20T08:25:45.217000+00:00</time>
      </trkpt>
      <trkpt lat="0" lon="0">
        <time>2020-12-20T08:25:45.237000+00:00</time>
      </trkpt>
      <trkpt lat="0" lon="0">
        <time>2020-12-20T08:25:45.242000+00:00</time>
      </trkpt>
      <trkpt lat="0" lon="0">
        <time>2020-12-20T08:25:45.244000+00:00</time>
      </trkpt>
      <trkpt lat="47.3083" lon="-1.3344">
        <ele>64</ele>
        <time>2020-12-20T08:25:46.276000+00:00</time>
      </trkpt>
      <trkpt lat="0" lon="0">
        <time>2020-12-20T08:25:46.292000+00:00</time>
      </trkpt>
      <trkpt lat="0" lon="0">
        <time>2020-12-20T08:25:46.295000+00:00</time>
      </trkpt>
      <trkpt lat="0" lon="0">
        <time>2020-12-20T08:25:46.296000+00:00</time>
      </trkpt>
      <trkpt lat="47.30833" lon="-1.33434">
        <ele>64</ele>
        <time>2020-12-20T08:25:47.261000+00:00</time>
      </trkpt>
      <trkpt lat="0" lon="0">
        <time>2020-12-20T08:25:47.282000+00:00</time>
      </trkpt>
      <trkpt lat="0" lon="0">
        <time>2020-12-20T08:25:47.287000+00:00</time>
      </trkpt>
      <trkpt lat="0" lon="0">
        <time>2020-12-20T08:25:47.290000+00:00</time>
      </trkpt>
      <trkpt lat="47.30837" lon="-1.33427">
        <ele>63</ele>
        <time>2020-12-20T08:25:48.297000+00:00</time>
      </trkpt>
      <trkpt lat="0" lon="0">
        <time>2020-12-20T08:25:48.303000+00:00</time>
      </trkpt>
      <trkpt lat="0" lon="0">
        <time>2020-12-20T08:25:48.308000+00:00</time>
      </trkpt>
      <trkpt lat="0" lon="0">
        <time>2020-12-20T08:25:48.310000+00:00</time>
      </trkpt>
      <trkpt lat="47.30841" lon="-1.33421">
        <ele>64</ele>
        <time>2020-12-20T08:25:49.270000+00:00</time>
      </trkpt>
      <trkpt lat="0" lon="0">
        <time>2020-12-20T08:25:49.277000+00:00</time>
      </trkpt>
      <trkpt lat="0" lon="0">
        <time>2020-12-20T08:25:49.286000+00:00</time>
      </trkpt>
      <trkpt lat="0" lon="0">
        <time>2020-12-20T08:25:49.291000+00:00</time>
      </trkpt>
      <trkpt lat="47.30844" lon="-1.33416">
        <ele>64</ele>
        <time>2020-12-20T08:25:50.291000+00:00</time>
      </trkpt>
      <trkpt lat="0" lon="0">
        <time>2020-12-20T08:25:50.304000+00:00</time>
      </trkpt>
      <trkpt lat="0" lon="0">
        <time>2020-12-20T08:25:50.308000+00:00</time>
      </trkpt>
      <trkpt lat="0" lon="0">
        <time>2020-12-20T08:25:50.315000+00:00</time>
      </trkpt>
      <trkpt lat="47.30848" lon="-1.3341">
        <ele>64</ele>
        <time>2020-12-20T08:25:51.271000+00:00</time>
      </trkpt>
      <trkpt lat="0" lon="0">
        <time>2020-12-20T08:25:51.276000+00:00</time>
      </trkpt>
      <trkpt lat="0" lon="0">
        <time>2020-12-20T08:25:51.290000+00:00</time>
      </trkpt>
      <trkpt lat="0" lon="0">
        <time>2020-12-20T08:25:51.293000+00:00</time>
      </trkpt>
      <trkpt lat="47.30852" lon="-1.33404">
        <ele>64</ele>
        <time>2020-12-20T08:25:52.271000+00:00</time>
      </trkpt>
      <trkpt lat="0" lon="0">
        <time>2020-12-20T08:25:52.278000+00:00</time>
      </trkpt>
      <trkpt lat="0" lon="0">
        <time>2020-12-20T08:25:52.282000+00:00</time>
      </trkpt>
      <trkpt lat="0" lon="0">
        <time>2020-12-20T08:25:52.285000+00:00</time>
      </trkpt>
      <trkpt lat="47.30857" lon="-1.33398">
        <ele>64</ele>
        <time>2020-12-20T08:25:53.263000+00:00</time>
      </trkpt>
      <trkpt lat="0" lon="0">
        <time>2020-12-20T08:25:53.276000+00:00</time>
      </trkpt>
      <trkpt lat="0" lon="0">
        <time>2020-12-20T08:25:53.285000+00:00</time>
      </trkpt>
      <trkpt lat="0" lon="0">
        <time>2020-12-20T08:25:53.287000+00:00</time>
      </trkpt>
      <trkpt lat="47.30861" lon="-1.33393">
        <ele>64</ele>
        <time>2020-12-20T08:25:54.256000+00:00</time>
      </trkpt>
      <trkpt lat="0" lon="0">
        <time>2020-12-20T08:25:54.282000+00:00</time>
      </trkpt>
      <trkpt lat="0" lon="0">
        <time>2020-12-20T08:25:54.284000+00:00</time>
      </trkpt>
      <trkpt lat="0" lon="0">
        <time>2020-12-20T08:25:54.286000+00:00</time>
      </trkpt>
      <trkpt lat="47.30865" lon="-1.33388">
        <ele>63</ele>
        <time>2020-12-20T08:25:55.252000+00:00</time>
      </trkpt>
      <trkpt lat="0" lon="0">
        <time>2020-12-20T08:25:55.267000+00:00</time>
      </trkpt>
      <trkpt lat="0" lon="0">
        <time>2020-12-20T08:25:55.274000+00:00</time>
      </trkpt>
      <trkpt lat="0" lon="0">
        <time>2020-12-20T08:25:55.277000+00:00</time>
      </trkpt>
      <trkpt lat="47.30869" lon="-1.33382">
        <ele>63</ele>
        <time>2020-12-20T08:25:56.275000+00:00</time>
      </trkpt>
      <trkpt lat="0" lon="0">
        <time>2020-12-20T08:25:56.282000+00:00</time>
      </trkpt>
      <trkpt lat="0" lon="0">
        <time>2020-12-20T08:25:56.294000+00:00</time>
      </trkpt>
      <trkpt lat="0" lon="0">
        <time>2020-12-20T08:25:56.301000+00:00</time>
      </trkpt>
      <trkpt lat="47.30874" lon="-1.33377">
        <ele>62</ele>
        <time>2020-12-20T08:25:57.292000+00:00</time>
      </trkpt>
      <trkpt lat="0" lon="0">
        <time>2020-12-20T08:25:57.303000+00:00</time>
      </trkpt>
      <trkpt lat="0" lon="0">
        <time>2020-12-20T08:25:57.307000+00:00</time>
      </trkpt>
      <trkpt lat="0" lon="0">
        <time>2020-12-20T08:25:57.309000+00:00</time>
      </trkpt>
      <trkpt lat="47.30878" lon="-1.33371">
        <ele>62</ele>
        <time>2020-12-20T08:25:58.248000+00:00</time>
      </trkpt>
      <trkpt lat="0" lon="0">
        <time>2020-12-20T08:25:58.263000+00:00</time>
      </trkpt>
      <trkpt lat="0" lon="0">
        <time>2020-12-20T08:25:58.269000+00:00</time>
      </trkpt>
      <trkpt lat="0" lon="0">
        <time>2020-12-20T08:25:58.279000+00:00</time>
      </trkpt>
      <trkpt lat="47.30882" lon="-1.33366">
        <ele>62</ele>
        <time>2020-12-20T08:25:59.271000+00:00</time>
      </trkpt>
      <trkpt lat="0" lon="0">
        <time>2020-12-20T08:25:59.292000+00:00</time>
      </trkpt>
      <trkpt lat="0" lon="0">
        <time>2020-12-20T08:25:59.297000+00:00</time>
      </trkpt>
      <trkpt lat="0" lon="0">
        <time>2020-12-20T08:25:59.299000+00:00</time>
      </trkpt>
      <trkpt lat="47.30887" lon="-1.3336">
        <ele>62</ele>
        <time>2020-12-20T08:26:00.274000+00:00</time>
      </trkpt>
      <trkpt lat="0" lon="0">
        <time>2020-12-20T08:26:00.286000+00:00</time>
      </trkpt>
      <trkpt lat="0" lon="0">
        <time>2020-12-20T08:26:00.291000+00:00</time>
      </trkpt>
      <trkpt lat="0" lon="0">
        <time>2020-12-20T08:26:00.294000+00:00</time>
      </trkpt>
      <trkpt lat="47.30891" lon="-1.33354">
        <ele>62</ele>
        <time>2020-12-20T08:26:01.275000+00:00</time>
      </trkpt>
      <trkpt lat="0" lon="0">
        <time>2020-12-20T08:26:01.282000+00:00</time>
      </trkpt>
      <trkpt lat="0" lon="0">
        <time>2020-12-20T08:26:01.288000+00:00</time>
      </trkpt>
      <trkpt lat="0" lon="0">
        <time>2020-12-20T08:26:01.290000+00:00</time>
      </trkpt>
      <trkpt lat="47.30895" lon="-1.33349">
        <ele>62</ele>
        <time>2020-12-20T08:26:02.245000+00:00</time>
      </trkpt>
      <trkpt lat="0" lon="0">
        <time>2020-12-20T08:26:02.251000+00:00</time>
      </trkpt>
      <trkpt lat="0" lon="0">
        <time>2020-12-20T08:26:02.255000+00:00</time>
      </trkpt>
      <trkpt lat="0" lon="0">
        <time>2020-12-20T08:26:02.258000+00:00</time>
      </trkpt>
      <trkpt lat="47.30899" lon="-1.33343">
        <ele>62</ele>
        <time>2020-12-20T08:26:03.222000+00:00</time>
      </trkpt>
      <trkpt lat="0" lon="0">
        <time>2020-12-20T08:26:03.231000+00:00</time>
      </trkpt>
      <trkpt lat="0" lon="0">
        <time>2020-12-20T08:26:03.241000+00:00</time>
      </trkpt>
      <trkpt lat="0" lon="0">
        <time>2020-12-20T08:26:03.243000+00:00</time>
      </trkpt>
      <trkpt lat="47.30903" lon="-1.33338">
        <ele>61</ele>
        <time>2020-12-20T08:26:04.251000+00:00</time>
      </trkpt>
      <trkpt lat="0" lon="0">
        <time>2020-12-20T08:26:04.269000+00:00</time>
      </trkpt>
      <trkpt lat="0" lon="0">
        <time>2020-12-20T08:26:04.274000+00:00</time>
      </trkpt>
      <trkpt lat="0" lon="0">
        <time>2020-12-20T08:26:04.276000+00:00</time>
      </trkpt>
      <trkpt lat="47.30907" lon="-1.33333">
        <ele>61</ele>
        <time>2020-12-20T08:26:05.251000+00:00</time>
      </trkpt>
      <trkpt lat="0" lon="0">
        <time>2020-12-20T08:26:05.262000+00:00</time>
      </trkpt>
      <trkpt lat="0" lon="0">
        <time>2020-12-20T08:26:05.266000+00:00</time>
      </trkpt>
      <trkpt lat="0" lon="0">
        <time>2020-12-20T08:26:05.268000+00:00</time>
      </trkpt>
      <trkpt lat="47.30912" lon="-1.33328">
        <ele>61</ele>
        <time>2020-12-20T08:26:06.256000+00:00</time>
      </trkpt>
      <trkpt lat="0" lon="0">
        <time>2020-12-20T08:26:06.268000+00:00</time>
      </trkpt>
      <trkpt lat="0" lon="0">
        <time>2020-12-20T08:26:06.276000+00:00</time>
      </trkpt>
      <trkpt lat="0" lon="0">
        <time>2020-12-20T08:26:06.285000+00:00</time>
      </trkpt>
      <trkpt lat="47.30916" lon="-1.33323">
        <ele>61</ele>
        <time>2020-12-20T08:26:07.282000+00:00</time>
      </trkpt>
      <trkpt lat="0" lon="0">
        <time>2020-12-20T08:26:07.297000+00:00</time>
      </trkpt>
      <trkpt lat="0" lon="0">
        <time>2020-12-20T08:26:07.302000+00:00</time>
      </trkpt>
      <trkpt lat="0" lon="0">
        <time>2020-12-20T08:26:07.308000+00:00</time>
      </trkpt>
      <trkpt lat="47.3092" lon="-1.33319">
        <ele>61</ele>
        <time>2020-12-20T08:26:08.274000+00:00</time>
      </trkpt>
      <trkpt lat="0" lon="0">
        <time>2020-12-20T08:26:08.292000+00:00</time>
      </trkpt>
      <trkpt lat="0" lon="0">
        <time>2020-12-20T08:26:08.300000+00:00</time>
      </trkpt>
      <trkpt lat="0" lon="0">
        <time>2020-12-20T08:26:08.302000+00:00</time>
      </trkpt>
      <trkpt lat="47.30924" lon="-1.33314">
        <ele>61</ele>
        <time>2020-12-20T08:26:09.244000+00:00</time>
      </trkpt>
      <trkpt lat="0" lon="0">
        <time>2020-12-20T08:26:09.248000+00:00</time>
      </trkpt>
      <trkpt lat="0" lon="0">
        <time>2020-12-20T08:26:09.251000+00:00</time>
      </trkpt>
      <trkpt lat="0" lon="0">
        <time>2020-12-20T08:26:09.252000+00:00</time>
      </trkpt>
      <trkpt lat="47.30928" lon="-1.3331">
        <ele>62</ele>
        <time>2020-12-20T08:26:10.217000+00:00</time>
      </trkpt>
      <trkpt lat="0" lon="0">
        <time>2020-12-20T08:26:10.247000+00:00</time>
      </trkpt>
      <trkpt lat="0" lon="0">
        <time>2020-12-20T08:26:10.256000+00:00</time>
      </trkpt>
      <trkpt lat="0" lon="0">
        <time>2020-12-20T08:26:10.258000+00:00</time>
      </trkpt>
      <trkpt lat="47.30933" lon="-1.33305">
        <ele>62</ele>
        <time>2020-12-20T08:26:11.283000+00:00</time>
      </trkpt>
      <trkpt lat="0" lon="0">
        <time>2020-12-20T08:26:11.290000+00:00</time>
      </trkpt>
      <trkpt lat="0" lon="0">
        <time>2020-12-20T08:26:11.297000+00:00</time>
      </trkpt>
      <trkpt lat="0" lon="0">
        <time>2020-12-20T08:26:11.299000+00:00</time>
      </trkpt>
      <trkpt lat="47.30936" lon="-1.333">
        <ele>62</ele>
        <time>2020-12-20T08:26:12.230000+00:00</time>
      </trkpt>
      <trkpt lat="0" lon="0">
        <time>2020-12-20T08:26:12.247000+00:00</time>
      </trkpt>
      <trkpt lat="0" lon="0">
        <time>2020-12-20T08:26:12.251000+00:00</time>
      </trkpt>
      <trkpt lat="0" lon="0">
        <time>2020-12-20T08:26:12.253000+00:00</time>
      </trkpt>
      <trkpt lat="47.3094" lon="-1.33296">
        <ele>62</ele>
        <time>2020-12-20T08:26:13.262000+00:00</time>
      </trkpt>
      <trkpt lat="0" lon="0">
        <time>2020-12-20T08:26:13.279000+00:00</time>
      </trkpt>
      <trkpt lat="0" lon="0">
        <time>2020-12-20T08:26:13.286000+00:00</time>
      </trkpt>
      <trkpt lat="0" lon="0">
        <time>2020-12-20T08:26:13.288000+00:00</time>
      </trkpt>
      <trkpt lat="47.30943" lon="-1.33291">
        <ele>62</ele>
        <time>2020-12-20T08:26:14.309000+00:00</time>
      </trkpt>
      <trkpt lat="0" lon="0">
        <time>2020-12-20T08:26:14.316000+00:00</time>
      </trkpt>
      <trkpt lat="0" lon="0">
        <time>2020-12-20T08:26:14.320000+00:00</time>
      </trkpt>
      <trkpt lat="0" lon="0">
        <time>2020-12-20T08:26:14.323000+00:00</time>
      </trkpt>
      <trkpt lat="47.30946" lon="-1.33286">
        <ele>62</ele>
        <time>2020-12-20T08:26:15.280000+00:00</time>
      </trkpt>
      <trkpt lat="0" lon="0">
        <time>2020-12-20T08:26:15.283000+00:00</time>
      </trkpt>
      <trkpt lat="0" lon="0">
        <time>2020-12-20T08:26:15.288000+00:00</time>
      </trkpt>
      <trkpt lat="0" lon="0">
        <time>2020-12-20T08:26:15.289000+00:00</time>
      </trkpt>
      <trkpt lat="47.30949" lon="-1.33282">
        <ele>62</ele>
        <time>2020-12-20T08:26:16.274000+00:00</time>
      </trkpt>
      <trkpt lat="0" lon="0">
        <time>2020-12-20T08:26:16.292000+00:00</time>
      </trkpt>
      <trkpt lat="0" lon="0">
        <time>2020-12-20T08:26:16.297000+00:00</time>
      </trkpt>
      <trkpt lat="0" lon="0">
        <time>2020-12-20T08:26:16.299000+00:00</time>
      </trkpt>
      <trkpt lat="47.30952" lon="-1.33278">
        <ele>62</ele>
        <time>2020-12-20T08:26:17.264000+00:00</time>
      </trkpt>
      <trkpt lat="0" lon="0">
        <time>2020-12-20T08:26:17.277000+00:00</time>
      </trkpt>
      <trkpt lat="0" lon="0">
        <time>2020-12-20T08:26:17.288000+00:00</time>
      </trkpt>
      <trkpt lat="0" lon="0">
        <time>2020-12-20T08:26:17.291000+00:00</time>
      </trkpt>
      <trkpt lat="47.30955" lon="-1.33273">
        <ele>63</ele>
        <time>2020-12-20T08:26:18.283000+00:00</time>
      </trkpt>
      <trkpt lat="0" lon="0">
        <time>2020-12-20T08:26:18.296000+00:00</time>
      </trkpt>
      <trkpt lat="0" lon="0">
        <time>2020-12-20T08:26:18.306000+00:00</time>
      </trkpt>
      <trkpt lat="0" lon="0">
        <time>2020-12-20T08:26:18.308000+00:00</time>
      </trkpt>
      <trkpt lat="47.30959" lon="-1.33269">
        <ele>63</ele>
        <time>2020-12-20T08:26:19.267000+00:00</time>
      </trkpt>
      <trkpt lat="0" lon="0">
        <time>2020-12-20T08:26:19.276000+00:00</time>
      </trkpt>
      <trkpt lat="0" lon="0">
        <time>2020-12-20T08:26:19.282000+00:00</time>
      </trkpt>
      <trkpt lat="0" lon="0">
        <time>2020-12-20T08:26:19.285000+00:00</time>
      </trkpt>
      <trkpt lat="47.30962" lon="-1.33265">
        <ele>63</ele>
        <time>2020-12-20T08:26:20.261000+00:00</time>
      </trkpt>
      <trkpt lat="0" lon="0">
        <time>2020-12-20T08:26:20.269000+00:00</time>
      </trkpt>
      <trkpt lat="0" lon="0">
        <time>2020-12-20T08:26:20.275000+00:00</time>
      </trkpt>
      <trkpt lat="0" lon="0">
        <time>2020-12-20T08:26:20.277000+00:00</time>
      </trkpt>
      <trkpt lat="47.30966" lon="-1.3326">
        <ele>63</ele>
        <time>2020-12-20T08:26:21.261000+00:00</time>
      </trkpt>
      <trkpt lat="0" lon="0">
        <time>2020-12-20T08:26:21.286000+00:00</time>
      </trkpt>
      <trkpt lat="0" lon="0">
        <time>2020-12-20T08:26:21.294000+00:00</time>
      </trkpt>
      <trkpt lat="0" lon="0">
        <time>2020-12-20T08:26:21.297000+00:00</time>
      </trkpt>
      <trkpt lat="47.30969" lon="-1.33256">
        <ele>63</ele>
        <time>2020-12-20T08:26:22.250000+00:00</time>
      </trkpt>
      <trkpt lat="0" lon="0">
        <time>2020-12-20T08:26:22.263000+00:00</time>
      </trkpt>
      <trkpt lat="0" lon="0">
        <time>2020-12-20T08:26:22.267000+00:00</time>
      </trkpt>
      <trkpt lat="0" lon="0">
        <time>2020-12-20T08:26:22.269000+00:00</time>
      </trkpt>
      <trkpt lat="47.30973" lon="-1.33252">
        <ele>63</ele>
        <time>2020-12-20T08:26:23.226000+00:00</time>
      </trkpt>
      <trkpt lat="0" lon="0">
        <time>2020-12-20T08:26:23.232000+00:00</time>
      </trkpt>
      <trkpt lat="0" lon="0">
        <time>2020-12-20T08:26:23.240000+00:00</time>
      </trkpt>
      <trkpt lat="0" lon="0">
        <time>2020-12-20T08:26:23.243000+00:00</time>
      </trkpt>
      <trkpt lat="47.30977" lon="-1.33248">
        <ele>63</ele>
        <time>2020-12-20T08:26:24.262000+00:00</time>
      </trkpt>
      <trkpt lat="0" lon="0">
        <time>2020-12-20T08:26:24.271000+00:00</time>
      </trkpt>
      <trkpt lat="0" lon="0">
        <time>2020-12-20T08:26:24.277000+00:00</time>
      </trkpt>
      <trkpt lat="0" lon="0">
        <time>2020-12-20T08:26:24.281000+00:00</time>
      </trkpt>
      <trkpt lat="47.30981" lon="-1.33244">
        <ele>63</ele>
        <time>2020-12-20T08:26:25.254000+00:00</time>
      </trkpt>
      <trkpt lat="0" lon="0">
        <time>2020-12-20T08:26:25.260000+00:00</time>
      </trkpt>
      <trkpt lat="0" lon="0">
        <time>2020-12-20T08:26:25.264000+00:00</time>
      </trkpt>
      <trkpt lat="0" lon="0">
        <time>2020-12-20T08:26:25.266000+00:00</time>
      </trkpt>
      <trkpt lat="47.30985" lon="-1.3324">
        <ele>62</ele>
        <time>2020-12-20T08:26:26.252000+00:00</time>
      </trkpt>
      <trkpt lat="0" lon="0">
        <time>2020-12-20T08:26:26.268000+00:00</time>
      </trkpt>
      <trkpt lat="0" lon="0">
        <time>2020-12-20T08:26:26.272000+00:00</time>
      </trkpt>
      <trkpt lat="0" lon="0">
        <time>2020-12-20T08:26:26.275000+00:00</time>
      </trkpt>
      <trkpt lat="47.3099" lon="-1.33235">
        <ele>62</ele>
        <time>2020-12-20T08:26:27.267000+00:00</time>
      </trkpt>
      <trkpt lat="0" lon="0">
        <time>2020-12-20T08:26:27.273000+00:00</time>
      </trkpt>
      <trkpt lat="0" lon="0">
        <time>2020-12-20T08:26:27.278000+00:00</time>
      </trkpt>
      <trkpt lat="0" lon="0">
        <time>2020-12-20T08:26:27.281000+00:00</time>
      </trkpt>
      <trkpt lat="47.30994" lon="-1.33231">
        <ele>62</ele>
        <time>2020-12-20T08:26:28.285000+00:00</time>
      </trkpt>
      <trkpt lat="0" lon="0">
        <time>2020-12-20T08:26:28.290000+00:00</time>
      </trkpt>
      <trkpt lat="0" lon="0">
        <time>2020-12-20T08:26:28.295000+00:00</time>
      </trkpt>
      <trkpt lat="0" lon="0">
        <time>2020-12-20T08:26:28.298000+00:00</time>
      </trkpt>
      <trkpt lat="47.30998" lon="-1.33226">
        <ele>62</ele>
        <time>2020-12-20T08:26:29.278000+00:00</time>
      </trkpt>
      <trkpt lat="0" lon="0">
        <time>2020-12-20T08:26:29.286000+00:00</time>
      </trkpt>
      <trkpt lat="0" lon="0">
        <time>2020-12-20T08:26:29.292000+00:00</time>
      </trkpt>
      <trkpt lat="0" lon="0">
        <time>2020-12-20T08:26:29.295000+00:00</time>
      </trkpt>
      <trkpt lat="47.31002" lon="-1.33222">
        <ele>62</ele>
        <time>2020-12-20T08:26:30.261000+00:00</time>
      </trkpt>
      <trkpt lat="0" lon="0">
        <time>2020-12-20T08:26:30.285000+00:00</time>
      </trkpt>
      <trkpt lat="0" lon="0">
        <time>2020-12-20T08:26:30.296000+00:00</time>
      </trkpt>
      <trkpt lat="0" lon="0">
        <time>2020-12-20T08:26:30.299000+00:00</time>
      </trkpt>
      <trkpt lat="47.31006" lon="-1.33218">
        <ele>62</ele>
        <time>2020-12-20T08:26:31.255000+00:00</time>
      </trkpt>
      <trkpt lat="0" lon="0">
        <time>2020-12-20T08:26:31.270000+00:00</time>
      </trkpt>
      <trkpt lat="0" lon="0">
        <time>2020-12-20T08:26:31.272000+00:00</time>
      </trkpt>
      <trkpt lat="0" lon="0">
        <time>2020-12-20T08:26:31.274000+00:00</time>
      </trkpt>
      <trkpt lat="47.3101" lon="-1.33214">
        <ele>62</ele>
        <time>2020-12-20T08:26:32.268000+00:00</time>
      </trkpt>
      <trkpt lat="0" lon="0">
        <time>2020-12-20T08:26:32.276000+00:00</time>
      </trkpt>
      <trkpt lat="0" lon="0">
        <time>2020-12-20T08:26:32.280000+00:00</time>
      </trkpt>
      <trkpt lat="0" lon="0">
        <time>2020-12-20T08:26:32.283000+00:00</time>
      </trkpt>
      <trkpt lat="47.31013" lon="-1.3321">
        <ele>61</ele>
        <time>2020-12-20T08:26:33.262000+00:00</time>
      </trkpt>
      <trkpt lat="0" lon="0">
        <time>2020-12-20T08:26:33.280000+00:00</time>
      </trkpt>
      <trkpt lat="0" lon="0">
        <time>2020-12-20T08:26:33.283000+00:00</time>
      </trkpt>
      <trkpt lat="0" lon="0">
        <time>2020-12-20T08:26:33.295000+00:00</time>
      </trkpt>
      <trkpt lat="47.31017" lon="-1.33207">
        <ele>61</ele>
        <time>2020-12-20T08:26:34.221000+00:00</time>
      </trkpt>
      <trkpt lat="0" lon="0">
        <time>2020-12-20T08:26:34.242000+00:00</time>
      </trkpt>
      <trkpt lat="0" lon="0">
        <time>2020-12-20T08:26:34.246000+00:00</time>
      </trkpt>
      <trkpt lat="0" lon="0">
        <time>2020-12-20T08:26:34.248000+00:00</time>
      </trkpt>
      <trkpt lat="47.31021" lon="-1.33204">
        <ele>61</ele>
        <time>2020-12-20T08:26:35.257000+00:00</time>
      </trkpt>
      <trkpt lat="0" lon="0">
        <time>2020-12-20T08:26:35.267000+00:00</time>
      </trkpt>
      <trkpt lat="0" lon="0">
        <time>2020-12-20T08:26:35.272000+00:00</time>
      </trkpt>
      <trkpt lat="0" lon="0">
        <time>2020-12-20T08:26:35.274000+00:00</time>
      </trkpt>
      <trkpt lat="47.31025" lon="-1.33202">
        <ele>61</ele>
        <time>2020-12-20T08:26:36.272000+00:00</time>
      </trkpt>
      <trkpt lat="0" lon="0">
        <time>2020-12-20T08:26:36.288000+00:00</time>
      </trkpt>
      <trkpt lat="0" lon="0">
        <time>2020-12-20T08:26:36.293000+00:00</time>
      </trkpt>
      <trkpt lat="0" lon="0">
        <time>2020-12-20T08:26:36.296000+00:00</time>
      </trkpt>
      <trkpt lat="47.31029" lon="-1.33201">
        <ele>61</ele>
        <time>2020-12-20T08:26:37.304000+00:00</time>
      </trkpt>
      <trkpt lat="0" lon="0">
        <time>2020-12-20T08:26:37.309000+00:00</time>
      </trkpt>
      <trkpt lat="0" lon="0">
        <time>2020-12-20T08:26:37.313000+00:00</time>
      </trkpt>
      <trkpt lat="0" lon="0">
        <time>2020-12-20T08:26:37.316000+00:00</time>
      </trkpt>
      <trkpt lat="47.31032" lon="-1.332">
        <ele>61</ele>
        <time>2020-12-20T08:26:38.289000+00:00</time>
      </trkpt>
      <trkpt lat="0" lon="0">
        <time>2020-12-20T08:26:38.295000+00:00</time>
      </trkpt>
      <trkpt lat="0" lon="0">
        <time>2020-12-20T08:26:38.306000+00:00</time>
      </trkpt>
      <trkpt lat="0" lon="0">
        <time>2020-12-20T08:26:38.308000+00:00</time>
      </trkpt>
      <trkpt lat="47.31036" lon="-1.33199">
        <ele>62</ele>
        <time>2020-12-20T08:26:39.260000+00:00</time>
      </trkpt>
      <trkpt lat="0" lon="0">
        <time>2020-12-20T08:26:39.280000+00:00</time>
      </trkpt>
      <trkpt lat="0" lon="0">
        <time>2020-12-20T08:26:39.286000+00:00</time>
      </trkpt>
      <trkpt lat="0" lon="0">
        <time>2020-12-20T08:26:39.289000+00:00</time>
      </trkpt>
      <trkpt lat="47.31039" lon="-1.33198">
        <ele>62</ele>
        <time>2020-12-20T08:26:40.283000+00:00</time>
      </trkpt>
      <trkpt lat="0" lon="0">
        <time>2020-12-20T08:26:40.302000+00:00</time>
      </trkpt>
      <trkpt lat="0" lon="0">
        <time>2020-12-20T08:26:40.308000+00:00</time>
      </trkpt>
      <trkpt lat="0" lon="0">
        <time>2020-12-20T08:26:40.311000+00:00</time>
      </trkpt>
      <trkpt lat="47.31042" lon="-1.33197">
        <ele>62</ele>
        <time>2020-12-20T08:26:41.234000+00:00</time>
      </trkpt>
      <trkpt lat="0" lon="0">
        <time>2020-12-20T08:26:41.241000+00:00</time>
      </trkpt>
      <trkpt lat="0" lon="0">
        <time>2020-12-20T08:26:41.245000+00:00</time>
      </trkpt>
      <trkpt lat="0" lon="0">
        <time>2020-12-20T08:26:41.247000+00:00</time>
      </trkpt>
      <trkpt lat="47.31044" lon="-1.33196">
        <ele>62</ele>
        <time>2020-12-20T08:26:42.235000+00:00</time>
      </trkpt>
      <trkpt lat="0" lon="0">
        <time>2020-12-20T08:26:42.245000+00:00</time>
      </trkpt>
      <trkpt lat="0" lon="0">
        <time>2020-12-20T08:26:42.247000+00:00</time>
      </trkpt>
      <trkpt lat="0" lon="0">
        <time>2020-12-20T08:26:42.248000+00:00</time>
      </trkpt>
      <trkpt lat="47.31046" lon="-1.33194">
        <ele>63</ele>
        <time>2020-12-20T08:26:43.254000+00:00</time>
      </trkpt>
      <trkpt lat="0" lon="0">
        <time>2020-12-20T08:26:43.264000+00:00</time>
      </trkpt>
      <trkpt lat="0" lon="0">
        <time>2020-12-20T08:26:43.269000+00:00</time>
      </trkpt>
      <trkpt lat="0" lon="0">
        <time>2020-12-20T08:26:43.273000+00:00</time>
      </trkpt>
      <trkpt lat="47.31048" lon="-1.33192">
        <ele>63</ele>
        <time>2020-12-20T08:26:44.295000+00:00</time>
      </trkpt>
      <trkpt lat="0" lon="0">
        <time>2020-12-20T08:26:44.299000+00:00</time>
      </trkpt>
      <trkpt lat="0" lon="0">
        <time>2020-12-20T08:26:44.303000+00:00</time>
      </trkpt>
      <trkpt lat="0" lon="0">
        <time>2020-12-20T08:26:44.305000+00:00</time>
      </trkpt>
      <trkpt lat="47.3105" lon="-1.3319">
        <ele>63</ele>
        <time>2020-12-20T08:26:45.246000+00:00</time>
      </trkpt>
      <trkpt lat="0" lon="0">
        <time>2020-12-20T08:26:45.261000+00:00</time>
      </trkpt>
      <trkpt lat="0" lon="0">
        <time>2020-12-20T08:26:45.265000+00:00</time>
      </trkpt>
      <trkpt lat="0" lon="0">
        <time>2020-12-20T08:26:45.271000+00:00</time>
      </trkpt>
      <trkpt lat="47.31052" lon="-1.33188">
        <ele>64</ele>
        <time>2020-12-20T08:26:46.255000+00:00</time>
      </trkpt>
      <trkpt lat="0" lon="0">
        <time>2020-12-20T08:26:46.261000+00:00</time>
      </trkpt>
      <trkpt lat="0" lon="0">
        <time>2020-12-20T08:26:46.266000+00:00</time>
      </trkpt>
      <trkpt lat="0" lon="0">
        <time>2020-12-20T08:26:46.269000+00:00</time>
      </trkpt>
      <trkpt lat="47.31053" lon="-1.33186">
        <ele>64</ele>
        <time>2020-12-20T08:26:47.247000+00:00</time>
      </trkpt>
      <trkpt lat="0" lon="0">
        <time>2020-12-20T08:26:47.273000+00:00</time>
      </trkpt>
      <trkpt lat="0" lon="0">
        <time>2020-12-20T08:26:47.280000+00:00</time>
      </trkpt>
      <trkpt lat="0" lon="0">
        <time>2020-12-20T08:26:47.282000+00:00</time>
      </trkpt>
      <trkpt lat="47.31055" lon="-1.33184">
        <ele>65</ele>
        <time>2020-12-20T08:26:48.268000+00:00</time>
      </trkpt>
      <trkpt lat="0" lon="0">
        <time>2020-12-20T08:26:48.289000+00:00</time>
      </trkpt>
      <trkpt lat="0" lon="0">
        <time>2020-12-20T08:26:48.296000+00:00</time>
      </trkpt>
      <trkpt lat="0" lon="0">
        <time>2020-12-20T08:26:48.302000+00:00</time>
      </trkpt>
      <trkpt lat="47.31056" lon="-1.33181">
        <ele>66</ele>
        <time>2020-12-20T08:26:49.259000+00:00</time>
      </trkpt>
      <trkpt lat="0" lon="0">
        <time>2020-12-20T08:26:49.265000+00:00</time>
      </trkpt>
      <trkpt lat="0" lon="0">
        <time>2020-12-20T08:26:49.270000+00:00</time>
      </trkpt>
      <trkpt lat="0" lon="0">
        <time>2020-12-20T08:26:49.277000+00:00</time>
      </trkpt>
      <trkpt lat="47.31058" lon="-1.33178">
        <ele>67</ele>
        <time>2020-12-20T08:26:50.312000+00:00</time>
      </trkpt>
      <trkpt lat="0" lon="0">
        <time>2020-12-20T08:26:50.315000+00:00</time>
      </trkpt>
      <trkpt lat="0" lon="0">
        <time>2020-12-20T08:26:50.318000+00:00</time>
      </trkpt>
      <trkpt lat="0" lon="0">
        <time>2020-12-20T08:26:50.319000+00:00</time>
      </trkpt>
      <trkpt lat="47.3106" lon="-1.33174">
        <ele>68</ele>
        <time>2020-12-20T08:26:51.258000+00:00</time>
      </trkpt>
      <trkpt lat="0" lon="0">
        <time>2020-12-20T08:26:51.270000+00:00</time>
      </trkpt>
      <trkpt lat="0" lon="0">
        <time>2020-12-20T08:26:51.273000+00:00</time>
      </trkpt>
      <trkpt lat="0" lon="0">
        <time>2020-12-20T08:26:51.278000+00:00</time>
      </trkpt>
      <trkpt lat="47.31062" lon="-1.33171">
        <ele>69</ele>
        <time>2020-12-20T08:26:52.283000+00:00</time>
      </trkpt>
      <trkpt lat="0" lon="0">
        <time>2020-12-20T08:26:52.302000+00:00</time>
      </trkpt>
      <trkpt lat="0" lon="0">
        <time>2020-12-20T08:26:52.310000+00:00</time>
      </trkpt>
      <trkpt lat="0" lon="0">
        <time>2020-12-20T08:26:52.312000+00:00</time>
      </trkpt>
      <trkpt lat="47.31065" lon="-1.33166">
        <ele>70</ele>
        <time>2020-12-20T08:26:53.283000+00:00</time>
      </trkpt>
      <trkpt lat="0" lon="0">
        <time>2020-12-20T08:26:53.299000+00:00</time>
      </trkpt>
      <trkpt lat="0" lon="0">
        <time>2020-12-20T08:26:53.304000+00:00</time>
      </trkpt>
      <trkpt lat="0" lon="0">
        <time>2020-12-20T08:26:53.306000+00:00</time>
      </trkpt>
      <trkpt lat="47.31068" lon="-1.33162">
        <ele>70</ele>
        <time>2020-12-20T08:26:54.238000+00:00</time>
      </trkpt>
      <trkpt lat="0" lon="0">
        <time>2020-12-20T08:26:54.247000+00:00</time>
      </trkpt>
      <trkpt lat="0" lon="0">
        <time>2020-12-20T08:26:54.250000+00:00</time>
      </trkpt>
      <trkpt lat="0" lon="0">
        <time>2020-12-20T08:26:54.255000+00:00</time>
      </trkpt>
      <trkpt lat="47.31071" lon="-1.33157">
        <ele>70</ele>
        <time>2020-12-20T08:26:55.244000+00:00</time>
      </trkpt>
      <trkpt lat="0" lon="0">
        <time>2020-12-20T08:26:55.257000+00:00</time>
      </trkpt>
      <trkpt lat="0" lon="0">
        <time>2020-12-20T08:26:55.261000+00:00</time>
      </trkpt>
      <trkpt lat="0" lon="0">
        <time>2020-12-20T08:26:55.262000+00:00</time>
      </trkpt>
      <trkpt lat="47.31075" lon="-1.33152">
        <ele>70</ele>
        <time>2020-12-20T08:26:56.274000+00:00</time>
      </trkpt>
      <trkpt lat="0" lon="0">
        <time>2020-12-20T08:26:56.276000+00:00</time>
      </trkpt>
      <trkpt lat="0" lon="0">
        <time>2020-12-20T08:26:56.278000+00:00</time>
      </trkpt>
      <trkpt lat="0" lon="0">
        <time>2020-12-20T08:26:56.279000+00:00</time>
      </trkpt>
      <trkpt lat="47.31079" lon="-1.33147">
        <ele>70</ele>
        <time>2020-12-20T08:26:57.179000+00:00</time>
      </trkpt>
      <trkpt lat="0" lon="0">
        <time>2020-12-20T08:26:57.186000+00:00</time>
      </trkpt>
      <trkpt lat="0" lon="0">
        <time>2020-12-20T08:26:57.187000+00:00</time>
      </trkpt>
      <trkpt lat="47.31083" lon="-1.33141">
        <ele>70</ele>
        <time>2020-12-20T08:26:58.200000+00:00</time>
      </trkpt>
      <trkpt lat="0" lon="0">
        <time>2020-12-20T08:26:58.210000+00:00</time>
      </trkpt>
      <trkpt lat="0" lon="0">
        <time>2020-12-20T08:26:58.213000+00:00</time>
      </trkpt>
      <trkpt lat="0" lon="0">
        <time>2020-12-20T08:26:58.218000+00:00</time>
      </trkpt>
      <trkpt lat="47.31087" lon="-1.33134">
        <ele>71</ele>
        <time>2020-12-20T08:26:59.251000+00:00</time>
      </trkpt>
      <trkpt lat="0" lon="0">
        <time>2020-12-20T08:26:59.257000+00:00</time>
      </trkpt>
      <trkpt lat="0" lon="0">
        <time>2020-12-20T08:26:59.270000+00:00</time>
      </trkpt>
      <trkpt lat="0" lon="0">
        <time>2020-12-20T08:26:59.272000+00:00</time>
      </trkpt>
      <trkpt lat="47.31092" lon="-1.33128">
        <ele>72</ele>
        <time>2020-12-20T08:27:00.216000+00:00</time>
      </trkpt>
      <trkpt lat="0" lon="0">
        <time>2020-12-20T08:27:00.222000+00:00</time>
      </trkpt>
      <trkpt lat="0" lon="0">
        <time>2020-12-20T08:27:00.223000+00:00</time>
      </trkpt>
      <trkpt lat="0" lon="0">
        <time>2020-12-20T08:27:00.224000+00:00</time>
      </trkpt>
      <trkpt lat="47.31098" lon="-1.33121">
        <ele>73</ele>
        <time>2020-12-20T08:27:01.237000+00:00</time>
      </trkpt>
      <trkpt lat="0" lon="0">
        <time>2020-12-20T08:27:01.239000+00:00</time>
      </trkpt>
      <trkpt lat="0" lon="0">
        <time>2020-12-20T08:27:01.241000+00:00</time>
      </trkpt>
      <trkpt lat="0" lon="0">
        <time>2020-12-20T08:27:01.242000+00:00</time>
      </trkpt>
      <trkpt lat="47.31103" lon="-1.33114">
        <ele>73</ele>
        <time>2020-12-20T08:27:02.211000+00:00</time>
      </trkpt>
      <trkpt lat="0" lon="0">
        <time>2020-12-20T08:27:02.217000+00:00</time>
      </trkpt>
      <trkpt lat="0" lon="0">
        <time>2020-12-20T08:27:02.219000+00:00</time>
      </trkpt>
      <trkpt lat="0" lon="0">
        <time>2020-12-20T08:27:02.220000+00:00</time>
      </trkpt>
      <trkpt lat="47.31108" lon="-1.33108">
        <ele>73</ele>
        <time>2020-12-20T08:27:03.207000+00:00</time>
      </trkpt>
      <trkpt lat="0" lon="0">
        <time>2020-12-20T08:27:03.213000+00:00</time>
      </trkpt>
      <trkpt lat="0" lon="0">
        <time>2020-12-20T08:27:03.218000+00:00</time>
      </trkpt>
      <trkpt lat="0" lon="0">
        <time>2020-12-20T08:27:03.219000+00:00</time>
      </trkpt>
      <trkpt lat="47.31114" lon="-1.33101">
        <ele>73</ele>
        <time>2020-12-20T08:27:04.162000+00:00</time>
      </trkpt>
      <trkpt lat="0" lon="0">
        <time>2020-12-20T08:27:04.163000+00:00</time>
      </trkpt>
      <trkpt lat="0" lon="0">
        <time>2020-12-20T08:27:04.164000+00:00</time>
      </trkpt>
      <trkpt lat="47.31119" lon="-1.33095">
        <ele>73</ele>
        <time>2020-12-20T08:27:05.172000+00:00</time>
      </trkpt>
      <trkpt lat="0" lon="0">
        <time>2020-12-20T08:27:05.178000+00:00</time>
      </trkpt>
      <trkpt lat="0" lon="0">
        <time>2020-12-20T08:27:05.182000+00:00</time>
      </trkpt>
      <trkpt lat="0" lon="0">
        <time>2020-12-20T08:27:05.184000+00:00</time>
      </trkpt>
      <trkpt lat="47.31125" lon="-1.33089">
        <ele>73</ele>
        <time>2020-12-20T08:27:06.215000+00:00</time>
      </trkpt>
      <trkpt lat="0" lon="0">
        <time>2020-12-20T08:27:06.217000+00:00</time>
      </trkpt>
      <trkpt lat="0" lon="0">
        <time>2020-12-20T08:27:06.218000+00:00</time>
      </trkpt>
      <trkpt lat="0" lon="0">
        <time>2020-12-20T08:27:06.219000+00:00</time>
      </trkpt>
      <trkpt lat="47.3113" lon="-1.33083">
        <ele>73</ele>
        <time>2020-12-20T08:27:07.198000+00:00</time>
      </trkpt>
      <trkpt lat="0" lon="0">
        <time>2020-12-20T08:27:07.202000+00:00</time>
      </trkpt>
      <trkpt lat="0" lon="0">
        <time>2020-12-20T08:27:07.203000+00:00</time>
      </trkpt>
      <trkpt lat="0" lon="0">
        <time>2020-12-20T08:27:07.204000+00:00</time>
      </trkpt>
      <trkpt lat="47.31135" lon="-1.33078">
        <ele>73</ele>
        <time>2020-12-20T08:27:08.191000+00:00</time>
      </trkpt>
      <trkpt lat="0" lon="0">
        <time>2020-12-20T08:27:08.192000+00:00</time>
      </trkpt>
      <trkpt lat="0" lon="0">
        <time>2020-12-20T08:27:08.193000+00:00</time>
      </trkpt>
      <trkpt lat="47.31141" lon="-1.33072">
        <ele>73</ele>
        <time>2020-12-20T08:27:09.173000+00:00</time>
      </trkpt>
      <trkpt lat="0" lon="0">
        <time>2020-12-20T08:27:09.174000+00:00</time>
      </trkpt>
      <trkpt lat="0" lon="0">
        <time>2020-12-20T08:27:09.175000+00:00</time>
      </trkpt>
      <trkpt lat="47.31146" lon="-1.33066">
        <ele>74</ele>
        <time>2020-12-20T08:27:10.230000+00:00</time>
      </trkpt>
      <trkpt lat="0" lon="0">
        <time>2020-12-20T08:27:10.242000+00:00</time>
      </trkpt>
      <trkpt lat="0" lon="0">
        <time>2020-12-20T08:27:10.244000+00:00</time>
      </trkpt>
      <trkpt lat="0" lon="0">
        <time>2020-12-20T08:27:10.245000+00:00</time>
      </trkpt>
      <trkpt lat="47.3115" lon="-1.3306">
        <ele>74</ele>
        <time>2020-12-20T08:27:11.233000+00:00</time>
      </trkpt>
      <trkpt lat="0" lon="0">
        <time>2020-12-20T08:27:11.235000+00:00</time>
      </trkpt>
      <trkpt lat="0" lon="0">
        <time>2020-12-20T08:27:11.236000+00:00</time>
      </trkpt>
      <trkpt lat="0" lon="0">
        <time>2020-12-20T08:27:11.237000+00:00</time>
      </trkpt>
      <trkpt lat="47.31155" lon="-1.33055">
        <ele>75</ele>
        <time>2020-12-20T08:27:12.239000+00:00</time>
      </trkpt>
      <trkpt lat="0" lon="0">
        <time>2020-12-20T08:27:12.241000+00:00</time>
      </trkpt>
      <trkpt lat="0" lon="0">
        <time>2020-12-20T08:27:12.242000+00:00</time>
      </trkpt>
      <trkpt lat="0" lon="0">
        <time>2020-12-20T08:27:12.243000+00:00</time>
      </trkpt>
      <trkpt lat="47.31159" lon="-1.33049">
        <ele>75</ele>
        <time>2020-12-20T08:27:13.241000+00:00</time>
      </trkpt>
      <trkpt lat="0" lon="0">
        <time>2020-12-20T08:27:13.243000+00:00</time>
      </trkpt>
      <trkpt lat="0" lon="0">
        <time>2020-12-20T08:27:13.246000+00:00</time>
      </trkpt>
      <trkpt lat="0" lon="0">
        <time>2020-12-20T08:27:13.247000+00:00</time>
      </trkpt>
      <trkpt lat="47.31164" lon="-1.33044">
        <ele>75</ele>
        <time>2020-12-20T08:27:14.254000+00:00</time>
      </trkpt>
      <trkpt lat="0" lon="0">
        <time>2020-12-20T08:27:14.257000+00:00</time>
      </trkpt>
      <trkpt lat="0" lon="0">
        <time>2020-12-20T08:27:14.259000+00:00</time>
      </trkpt>
      <trkpt lat="0" lon="0">
        <time>2020-12-20T08:27:14.260000+00:00</time>
      </trkpt>
      <trkpt lat="47.31168" lon="-1.33039">
        <ele>75</ele>
        <time>2020-12-20T08:27:15.212000+00:00</time>
      </trkpt>
      <trkpt lat="0" lon="0">
        <time>2020-12-20T08:27:15.218000+00:00</time>
      </trkpt>
      <trkpt lat="0" lon="0">
        <time>2020-12-20T08:27:15.223000+00:00</time>
      </trkpt>
      <trkpt lat="47.31173" lon="-1.33035">
        <ele>74</ele>
        <time>2020-12-20T08:27:16.218000+00:00</time>
      </trkpt>
      <trkpt lat="0" lon="0">
        <time>2020-12-20T08:27:16.231000+00:00</time>
      </trkpt>
      <trkpt lat="0" lon="0">
        <time>2020-12-20T08:27:16.235000+00:00</time>
      </trkpt>
      <trkpt lat="0" lon="0">
        <time>2020-12-20T08:27:16.237000+00:00</time>
      </trkpt>
      <trkpt lat="47.31177" lon="-1.3303">
        <ele>74</ele>
        <time>2020-12-20T08:27:17.208000+00:00</time>
      </trkpt>
      <trkpt lat="0" lon="0">
        <time>2020-12-20T08:27:17.212000+00:00</time>
      </trkpt>
      <trkpt lat="0" lon="0">
        <time>2020-12-20T08:27:17.219000+00:00</time>
      </trkpt>
      <trkpt lat="0" lon="0">
        <time>2020-12-20T08:27:17.220000+00:00</time>
      </trkpt>
      <trkpt lat="47.31181" lon="-1.33025">
        <ele>73</ele>
        <time>2020-12-20T08:27:18.200000+00:00</time>
      </trkpt>
      <trkpt lat="0" lon="0">
        <time>2020-12-20T08:27:18.213000+00:00</time>
      </trkpt>
      <trkpt lat="0" lon="0">
        <time>2020-12-20T08:27:18.221000+00:00</time>
      </trkpt>
      <trkpt lat="0" lon="0">
        <time>2020-12-20T08:27:18.224000+00:00</time>
      </trkpt>
      <trkpt lat="47.31184" lon="-1.3302">
        <ele>73</ele>
        <time>2020-12-20T08:27:19.225000+00:00</time>
      </trkpt>
      <trkpt lat="0" lon="0">
        <time>2020-12-20T08:27:19.229000+00:00</time>
      </trkpt>
      <trkpt lat="0" lon="0">
        <time>2020-12-20T08:27:19.232000+00:00</time>
      </trkpt>
      <trkpt lat="0" lon="0">
        <time>2020-12-20T08:27:19.233000+00:00</time>
      </trkpt>
      <trkpt lat="47.31188" lon="-1.33015">
        <ele>73</ele>
        <time>2020-12-20T08:27:20.192000+00:00</time>
      </trkpt>
      <trkpt lat="0" lon="0">
        <time>2020-12-20T08:27:20.194000+00:00</time>
      </trkpt>
      <trkpt lat="0" lon="0">
        <time>2020-12-20T08:27:20.196000+00:00</time>
      </trkpt>
      <trkpt lat="0" lon="0">
        <time>2020-12-20T08:27:20.198000+00:00</time>
      </trkpt>
      <trkpt lat="47.31192" lon="-1.33011">
        <ele>73</ele>
        <time>2020-12-20T08:27:21.181000+00:00</time>
      </trkpt>
      <trkpt lat="0" lon="0">
        <time>2020-12-20T08:27:21.183000+00:00</time>
      </trkpt>
      <trkpt lat="0" lon="0">
        <time>2020-12-20T08:27:21.186000+00:00</time>
      </trkpt>
      <trkpt lat="0" lon="0">
        <time>2020-12-20T08:27:21.187000+00:00</time>
      </trkpt>
      <trkpt lat="47.31196" lon="-1.33007">
        <ele>73</ele>
        <time>2020-12-20T08:27:22.239000+00:00</time>
      </trkpt>
      <trkpt lat="0" lon="0">
        <time>2020-12-20T08:27:22.240000+00:00</time>
      </trkpt>
      <trkpt lat="0" lon="0">
        <time>2020-12-20T08:27:22.241000+00:00</time>
      </trkpt>
      <trkpt lat="0" lon="0">
        <time>2020-12-20T08:27:22.242000+00:00</time>
      </trkpt>
      <trkpt lat="47.312" lon="-1.33004">
        <ele>73</ele>
        <time>2020-12-20T08:27:23.176000+00:00</time>
      </trkpt>
      <trkpt lat="0" lon="0">
        <time>2020-12-20T08:27:23.177000+00:00</time>
      </trkpt>
      <trkpt lat="0" lon="0">
        <time>2020-12-20T08:27:23.179000+00:00</time>
      </trkpt>
      <trkpt lat="0" lon="0">
        <time>2020-12-20T08:27:23.180000+00:00</time>
      </trkpt>
      <trkpt lat="47.31205" lon="-1.33">
        <ele>72</ele>
        <time>2020-12-20T08:27:24.152000+00:00</time>
      </trkpt>
      <trkpt lat="0" lon="0">
        <time>2020-12-20T08:27:24.155000+00:00</time>
      </trkpt>
      <trkpt lat="0" lon="0">
        <time>2020-12-20T08:27:24.156000+00:00</time>
      </trkpt>
      <trkpt lat="0" lon="0">
        <time>2020-12-20T08:27:24.157000+00:00</time>
      </trkpt>
      <trkpt lat="47.31209" lon="-1.32997">
        <ele>72</ele>
        <time>2020-12-20T08:27:25.146000+00:00</time>
      </trkpt>
      <trkpt lat="0" lon="0">
        <time>2020-12-20T08:27:25.148000+00:00</time>
      </trkpt>
      <trkpt lat="0" lon="0">
        <time>2020-12-20T08:27:25.149000+00:00</time>
      </trkpt>
      <trkpt lat="0" lon="0">
        <time>2020-12-20T08:27:25.150000+00:00</time>
      </trkpt>
      <trkpt lat="47.31214" lon="-1.32994">
        <ele>72</ele>
        <time>2020-12-20T08:27:26.224000+00:00</time>
      </trkpt>
      <trkpt lat="0" lon="0">
        <time>2020-12-20T08:27:26.234000+00:00</time>
      </trkpt>
      <trkpt lat="0" lon="0">
        <time>2020-12-20T08:27:26.237000+00:00</time>
      </trkpt>
      <trkpt lat="0" lon="0">
        <time>2020-12-20T08:27:26.240000+00:00</time>
      </trkpt>
      <trkpt lat="47.31219" lon="-1.32991">
        <ele>72</ele>
        <time>2020-12-20T08:27:27.208000+00:00</time>
      </trkpt>
      <trkpt lat="0" lon="0">
        <time>2020-12-20T08:27:27.210000+00:00</time>
      </trkpt>
      <trkpt lat="0" lon="0">
        <time>2020-12-20T08:27:27.212000+00:00</time>
      </trkpt>
      <trkpt lat="0" lon="0">
        <time>2020-12-20T08:27:27.213000+00:00</time>
      </trkpt>
      <trkpt lat="47.31224" lon="-1.32988">
        <ele>72</ele>
        <time>2020-12-20T08:27:28.224000+00:00</time>
      </trkpt>
      <trkpt lat="0" lon="0">
        <time>2020-12-20T08:27:28.231000+00:00</time>
      </trkpt>
      <trkpt lat="0" lon="0">
        <time>2020-12-20T08:27:28.235000+00:00</time>
      </trkpt>
      <trkpt lat="0" lon="0">
        <time>2020-12-20T08:27:28.236000+00:00</time>
      </trkpt>
      <trkpt lat="47.31229" lon="-1.32985">
        <ele>71</ele>
        <time>2020-12-20T08:27:29.218000+00:00</time>
      </trkpt>
      <trkpt lat="0" lon="0">
        <time>2020-12-20T08:27:29.222000+00:00</time>
      </trkpt>
      <trkpt lat="0" lon="0">
        <time>2020-12-20T08:27:29.226000+00:00</time>
      </trkpt>
      <trkpt lat="0" lon="0">
        <time>2020-12-20T08:27:29.227000+00:00</time>
      </trkpt>
      <trkpt lat="47.31234" lon="-1.32982">
        <ele>71</ele>
        <time>2020-12-20T08:27:30.256000+00:00</time>
      </trkpt>
      <trkpt lat="0" lon="0">
        <time>2020-12-20T08:27:30.270000+00:00</time>
      </trkpt>
      <trkpt lat="0" lon="0">
        <time>2020-12-20T08:27:30.276000+00:00</time>
      </trkpt>
      <trkpt lat="0" lon="0">
        <time>2020-12-20T08:27:30.280000+00:00</time>
      </trkpt>
      <trkpt lat="47.31239" lon="-1.3298">
        <ele>71</ele>
        <time>2020-12-20T08:27:31.170000+00:00</time>
      </trkpt>
      <trkpt lat="0" lon="0">
        <time>2020-12-20T08:27:31.171000+00:00</time>
      </trkpt>
      <trkpt lat="0" lon="0">
        <time>2020-12-20T08:27:31.172000+00:00</time>
      </trkpt>
      <trkpt lat="0" lon="0">
        <time>2020-12-20T08:27:31.173000+00:00</time>
      </trkpt>
      <trkpt lat="47.31245" lon="-1.32977">
        <ele>71</ele>
        <time>2020-12-20T08:27:32.217000+00:00</time>
      </trkpt>
      <trkpt lat="0" lon="0">
        <time>2020-12-20T08:27:32.219000+00:00</time>
      </trkpt>
      <trkpt lat="0" lon="0">
        <time>2020-12-20T08:27:32.220000+00:00</time>
      </trkpt>
      <trkpt lat="0" lon="0">
        <time>2020-12-20T08:27:32.221000+00:00</time>
      </trkpt>
      <trkpt lat="47.3125" lon="-1.32974">
        <ele>70</ele>
        <time>2020-12-20T08:27:33.191000+00:00</time>
      </trkpt>
      <trkpt lat="0" lon="0">
        <time>2020-12-20T08:27:33.194000+00:00</time>
      </trkpt>
      <trkpt lat="0" lon="0">
        <time>2020-12-20T08:27:33.196000+00:00</time>
      </trkpt>
      <trkpt lat="0" lon="0">
        <time>2020-12-20T08:27:33.198000+00:00</time>
      </trkpt>
      <trkpt lat="47.31255" lon="-1.3297">
        <ele>70</ele>
        <time>2020-12-20T08:27:34.197000+00:00</time>
      </trkpt>
      <trkpt lat="0" lon="0">
        <time>2020-12-20T08:27:34.204000+00:00</time>
      </trkpt>
      <trkpt lat="0" lon="0">
        <time>2020-12-20T08:27:34.211000+00:00</time>
      </trkpt>
      <trkpt lat="0" lon="0">
        <time>2020-12-20T08:27:34.212000+00:00</time>
      </trkpt>
      <trkpt lat="47.3126" lon="-1.32967">
        <ele>70</ele>
        <time>2020-12-20T08:27:35.182000+00:00</time>
      </trkpt>
      <trkpt lat="0" lon="0">
        <time>2020-12-20T08:27:35.186000+00:00</time>
      </trkpt>
      <trkpt lat="0" lon="0">
        <time>2020-12-20T08:27:35.190000+00:00</time>
      </trkpt>
      <trkpt lat="0" lon="0">
        <time>2020-12-20T08:27:35.192000+00:00</time>
      </trkpt>
      <trkpt lat="47.31265" lon="-1.32964">
        <ele>70</ele>
        <time>2020-12-20T08:27:36.221000+00:00</time>
      </trkpt>
      <trkpt lat="0" lon="0">
        <time>2020-12-20T08:27:36.223000+00:00</time>
      </trkpt>
      <trkpt lat="0" lon="0">
        <time>2020-12-20T08:27:36.226000+00:00</time>
      </trkpt>
      <trkpt lat="0" lon="0">
        <time>2020-12-20T08:27:36.228000+00:00</time>
      </trkpt>
      <trkpt lat="47.3127" lon="-1.3296">
        <ele>69</ele>
        <time>2020-12-20T08:27:37.264000+00:00</time>
      </trkpt>
      <trkpt lat="0" lon="0">
        <time>2020-12-20T08:27:37.272000+00:00</time>
      </trkpt>
      <trkpt lat="0" lon="0">
        <time>2020-12-20T08:27:37.283000+00:00</time>
      </trkpt>
      <trkpt lat="0" lon="0">
        <time>2020-12-20T08:27:37.286000+00:00</time>
      </trkpt>
      <trkpt lat="47.31275" lon="-1.32957">
        <ele>69</ele>
        <time>2020-12-20T08:27:38.236000+00:00</time>
      </trkpt>
      <trkpt lat="0" lon="0">
        <time>2020-12-20T08:27:38.240000+00:00</time>
      </trkpt>
      <trkpt lat="0" lon="0">
        <time>2020-12-20T08:27:38.250000+00:00</time>
      </trkpt>
      <trkpt lat="0" lon="0">
        <time>2020-12-20T08:27:38.251000+00:00</time>
      </trkpt>
      <trkpt lat="47.3128" lon="-1.32953">
        <ele>69</ele>
        <time>2020-12-20T08:27:39.184000+00:00</time>
      </trkpt>
      <trkpt lat="0" lon="0">
        <time>2020-12-20T08:27:39.192000+00:00</time>
      </trkpt>
      <trkpt lat="0" lon="0">
        <time>2020-12-20T08:27:39.200000+00:00</time>
      </trkpt>
      <trkpt lat="0" lon="0">
        <time>2020-12-20T08:27:39.201000+00:00</time>
      </trkpt>
      <trkpt lat="47.31284" lon="-1.32949">
        <ele>70</ele>
        <time>2020-12-20T08:27:40.228000+00:00</time>
      </trkpt>
      <trkpt lat="0" lon="0">
        <time>2020-12-20T08:27:40.241000+00:00</time>
      </trkpt>
      <trkpt lat="0" lon="0">
        <time>2020-12-20T08:27:40.246000+00:00</time>
      </trkpt>
      <trkpt lat="0" lon="0">
        <time>2020-12-20T08:27:40.248000+00:00</time>
      </trkpt>
      <trkpt lat="47.31289" lon="-1.32946">
        <ele>70</ele>
        <time>2020-12-20T08:27:41.265000+00:00</time>
      </trkpt>
      <trkpt lat="0" lon="0">
        <time>2020-12-20T08:27:41.270000+00:00</time>
      </trkpt>
      <trkpt lat="0" lon="0">
        <time>2020-12-20T08:27:41.274000+00:00</time>
      </trkpt>
      <trkpt lat="0" lon="0">
        <time>2020-12-20T08:27:41.277000+00:00</time>
      </trkpt>
      <trkpt lat="47.31293" lon="-1.32942">
        <ele>69</ele>
        <time>2020-12-20T08:27:42.289000+00:00</time>
      </trkpt>
      <trkpt lat="0" lon="0">
        <time>2020-12-20T08:27:42.303000+00:00</time>
      </trkpt>
      <trkpt lat="0" lon="0">
        <time>2020-12-20T08:27:42.311000+00:00</time>
      </trkpt>
      <trkpt lat="0" lon="0">
        <time>2020-12-20T08:27:42.315000+00:00</time>
      </trkpt>
      <trkpt lat="47.31298" lon="-1.32938">
        <ele>69</ele>
        <time>2020-12-20T08:27:43.258000+00:00</time>
      </trkpt>
      <trkpt lat="0" lon="0">
        <time>2020-12-20T08:27:43.263000+00:00</time>
      </trkpt>
      <trkpt lat="0" lon="0">
        <time>2020-12-20T08:27:43.265000+00:00</time>
      </trkpt>
      <trkpt lat="0" lon="0">
        <time>2020-12-20T08:27:43.266000+00:00</time>
      </trkpt>
      <trkpt lat="47.31302" lon="-1.32934">
        <ele>69</ele>
        <time>2020-12-20T08:27:44.260000+00:00</time>
      </trkpt>
      <trkpt lat="0" lon="0">
        <time>2020-12-20T08:27:44.271000+00:00</time>
      </trkpt>
      <trkpt lat="0" lon="0">
        <time>2020-12-20T08:27:44.278000+00:00</time>
      </trkpt>
      <trkpt lat="0" lon="0">
        <time>2020-12-20T08:27:44.280000+00:00</time>
      </trkpt>
      <trkpt lat="47.31307" lon="-1.3293">
        <ele>68</ele>
        <time>2020-12-20T08:27:45.225000+00:00</time>
      </trkpt>
      <trkpt lat="0" lon="0">
        <time>2020-12-20T08:27:45.238000+00:00</time>
      </trkpt>
      <trkpt lat="0" lon="0">
        <time>2020-12-20T08:27:45.246000+00:00</time>
      </trkpt>
      <trkpt lat="0" lon="0">
        <time>2020-12-20T08:27:45.248000+00:00</time>
      </trkpt>
      <trkpt lat="47.31311" lon="-1.32926">
        <ele>68</ele>
        <time>2020-12-20T08:27:46.240000+00:00</time>
      </trkpt>
      <trkpt lat="0" lon="0">
        <time>2020-12-20T08:27:46.249000+00:00</time>
      </trkpt>
      <trkpt lat="0" lon="0">
        <time>2020-12-20T08:27:46.262000+00:00</time>
      </trkpt>
      <trkpt lat="0" lon="0">
        <time>2020-12-20T08:27:46.265000+00:00</time>
      </trkpt>
      <trkpt lat="47.31316" lon="-1.32922">
        <ele>68</ele>
        <time>2020-12-20T08:27:47.280000+00:00</time>
      </trkpt>
      <trkpt lat="0" lon="0">
        <time>2020-12-20T08:27:47.287000+00:00</time>
      </trkpt>
      <trkpt lat="0" lon="0">
        <time>2020-12-20T08:27:47.291000+00:00</time>
      </trkpt>
      <trkpt lat="0" lon="0">
        <time>2020-12-20T08:27:47.294000+00:00</time>
      </trkpt>
      <trkpt lat="47.3132" lon="-1.32917">
        <ele>68</ele>
        <time>2020-12-20T08:27:48.248000+00:00</time>
      </trkpt>
      <trkpt lat="0" lon="0">
        <time>2020-12-20T08:27:48.256000+00:00</time>
      </trkpt>
      <trkpt lat="0" lon="0">
        <time>2020-12-20T08:27:48.261000+00:00</time>
      </trkpt>
      <trkpt lat="0" lon="0">
        <time>2020-12-20T08:27:48.263000+00:00</time>
      </trkpt>
      <trkpt lat="47.31325" lon="-1.32913">
        <ele>68</ele>
        <time>2020-12-20T08:27:49.271000+00:00</time>
      </trkpt>
      <trkpt lat="0" lon="0">
        <time>2020-12-20T08:27:49.284000+00:00</time>
      </trkpt>
      <trkpt lat="0" lon="0">
        <time>2020-12-20T08:27:49.288000+00:00</time>
      </trkpt>
      <trkpt lat="0" lon="0">
        <time>2020-12-20T08:27:49.290000+00:00</time>
      </trkpt>
      <trkpt lat="47.31329" lon="-1.32909">
        <ele>68</ele>
        <time>2020-12-20T08:27:50.271000+00:00</time>
      </trkpt>
      <trkpt lat="0" lon="0">
        <time>2020-12-20T08:27:50.289000+00:00</time>
      </trkpt>
      <trkpt lat="0" lon="0">
        <time>2020-12-20T08:27:50.295000+00:00</time>
      </trkpt>
      <trkpt lat="0" lon="0">
        <time>2020-12-20T08:27:50.301000+00:00</time>
      </trkpt>
      <trkpt lat="47.31333" lon="-1.32905">
        <ele>67</ele>
        <time>2020-12-20T08:27:51.287000+00:00</time>
      </trkpt>
      <trkpt lat="0" lon="0">
        <time>2020-12-20T08:27:51.306000+00:00</time>
      </trkpt>
      <trkpt lat="0" lon="0">
        <time>2020-12-20T08:27:51.309000+00:00</time>
      </trkpt>
      <trkpt lat="0" lon="0">
        <time>2020-12-20T08:27:51.311000+00:00</time>
      </trkpt>
      <trkpt lat="47.31338" lon="-1.32901">
        <ele>67</ele>
        <time>2020-12-20T08:27:52.245000+00:00</time>
      </trkpt>
      <trkpt lat="0" lon="0">
        <time>2020-12-20T08:27:52.261000+00:00</time>
      </trkpt>
      <trkpt lat="0" lon="0">
        <time>2020-12-20T08:27:52.271000+00:00</time>
      </trkpt>
      <trkpt lat="0" lon="0">
        <time>2020-12-20T08:27:52.274000+00:00</time>
      </trkpt>
      <trkpt lat="47.31342" lon="-1.32897">
        <ele>67</ele>
        <time>2020-12-20T08:27:53.240000+00:00</time>
      </trkpt>
      <trkpt lat="0" lon="0">
        <time>2020-12-20T08:27:53.249000+00:00</time>
      </trkpt>
      <trkpt lat="0" lon="0">
        <time>2020-12-20T08:27:53.256000+00:00</time>
      </trkpt>
      <trkpt lat="0" lon="0">
        <time>2020-12-20T08:27:53.259000+00:00</time>
      </trkpt>
      <trkpt lat="47.31347" lon="-1.32893">
        <ele>67</ele>
        <time>2020-12-20T08:27:54.257000+00:00</time>
      </trkpt>
      <trkpt lat="0" lon="0">
        <time>2020-12-20T08:27:54.272000+00:00</time>
      </trkpt>
      <trkpt lat="0" lon="0">
        <time>2020-12-20T08:27:54.277000+00:00</time>
      </trkpt>
      <trkpt lat="0" lon="0">
        <time>2020-12-20T08:27:54.280000+00:00</time>
      </trkpt>
      <trkpt lat="47.31351" lon="-1.3289">
        <ele>67</ele>
        <time>2020-12-20T08:27:55.291000+00:00</time>
      </trkpt>
      <trkpt lat="0" lon="0">
        <time>2020-12-20T08:27:55.294000+00:00</time>
      </trkpt>
      <trkpt lat="0" lon="0">
        <time>2020-12-20T08:27:55.296000+00:00</time>
      </trkpt>
      <trkpt lat="0" lon="0">
        <time>2020-12-20T08:27:55.297000+00:00</time>
      </trkpt>
      <trkpt lat="47.31356" lon="-1.32886">
        <ele>67</ele>
        <time>2020-12-20T08:27:56.248000+00:00</time>
      </trkpt>
      <trkpt lat="0" lon="0">
        <time>2020-12-20T08:27:56.268000+00:00</time>
      </trkpt>
      <trkpt lat="0" lon="0">
        <time>2020-12-20T08:27:56.276000+00:00</time>
      </trkpt>
      <trkpt lat="0" lon="0">
        <time>2020-12-20T08:27:56.279000+00:00</time>
      </trkpt>
      <trkpt lat="47.31361" lon="-1.32883">
        <ele>67</ele>
        <time>2020-12-20T08:27:57.252000+00:00</time>
      </trkpt>
      <trkpt lat="0" lon="0">
        <time>2020-12-20T08:27:57.266000+00:00</time>
      </trkpt>
      <trkpt lat="0" lon="0">
        <time>2020-12-20T08:27:57.272000+00:00</time>
      </trkpt>
      <trkpt lat="0" lon="0">
        <time>2020-12-20T08:27:57.276000+00:00</time>
      </trkpt>
      <trkpt lat="47.31366" lon="-1.32879">
        <ele>67</ele>
        <time>2020-12-20T08:27:58.256000+00:00</time>
      </trkpt>
      <trkpt lat="0" lon="0">
        <time>2020-12-20T08:27:58.270000+00:00</time>
      </trkpt>
      <trkpt lat="0" lon="0">
        <time>2020-12-20T08:27:58.282000+00:00</time>
      </trkpt>
      <trkpt lat="0" lon="0">
        <time>2020-12-20T08:27:58.292000+00:00</time>
      </trkpt>
      <trkpt lat="47.3137" lon="-1.32875">
        <ele>66</ele>
        <time>2020-12-20T08:27:59.264000+00:00</time>
      </trkpt>
      <trkpt lat="0" lon="0">
        <time>2020-12-20T08:27:59.286000+00:00</time>
      </trkpt>
      <trkpt lat="0" lon="0">
        <time>2020-12-20T08:27:59.290000+00:00</time>
      </trkpt>
      <trkpt lat="0" lon="0">
        <time>2020-12-20T08:27:59.292000+00:00</time>
      </trkpt>
      <trkpt lat="47.31375" lon="-1.32872">
        <ele>66</ele>
        <time>2020-12-20T08:28:00.265000+00:00</time>
      </trkpt>
      <trkpt lat="0" lon="0">
        <time>2020-12-20T08:28:00.282000+00:00</time>
      </trkpt>
      <trkpt lat="0" lon="0">
        <time>2020-12-20T08:28:00.290000+00:00</time>
      </trkpt>
      <trkpt lat="0" lon="0">
        <time>2020-12-20T08:28:00.296000+00:00</time>
      </trkpt>
      <trkpt lat="47.3138" lon="-1.32868">
        <ele>66</ele>
        <time>2020-12-20T08:28:01.223000+00:00</time>
      </trkpt>
      <trkpt lat="0" lon="0">
        <time>2020-12-20T08:28:01.229000+00:00</time>
      </trkpt>
      <trkpt lat="0" lon="0">
        <time>2020-12-20T08:28:01.231000+00:00</time>
      </trkpt>
      <trkpt lat="0" lon="0">
        <time>2020-12-20T08:28:01.232000+00:00</time>
      </trkpt>
      <trkpt lat="47.31385" lon="-1.32864">
        <ele>66</ele>
        <time>2020-12-20T08:28:02.238000+00:00</time>
      </trkpt>
      <trkpt lat="0" lon="0">
        <time>2020-12-20T08:28:02.253000+00:00</time>
      </trkpt>
      <trkpt lat="0" lon="0">
        <time>2020-12-20T08:28:02.259000+00:00</time>
      </trkpt>
      <trkpt lat="0" lon="0">
        <time>2020-12-20T08:28:02.261000+00:00</time>
      </trkpt>
      <trkpt lat="47.31389" lon="-1.3286">
        <ele>66</ele>
        <time>2020-12-20T08:28:03.262000+00:00</time>
      </trkpt>
      <trkpt lat="0" lon="0">
        <time>2020-12-20T08:28:03.282000+00:00</time>
      </trkpt>
      <trkpt lat="0" lon="0">
        <time>2020-12-20T08:28:03.286000+00:00</time>
      </trkpt>
      <trkpt lat="0" lon="0">
        <time>2020-12-20T08:28:03.288000+00:00</time>
      </trkpt>
      <trkpt lat="47.31394" lon="-1.32856">
        <ele>66</ele>
        <time>2020-12-20T08:28:04.182000+00:00</time>
      </trkpt>
      <trkpt lat="0" lon="0">
        <time>2020-12-20T08:28:04.199000+00:00</time>
      </trkpt>
      <trkpt lat="0" lon="0">
        <time>2020-12-20T08:28:04.202000+00:00</time>
      </trkpt>
      <trkpt lat="0" lon="0">
        <time>2020-12-20T08:28:04.203000+00:00</time>
      </trkpt>
      <trkpt lat="47.31399" lon="-1.32852">
        <ele>66</ele>
        <time>2020-12-20T08:28:05.248000+00:00</time>
      </trkpt>
      <trkpt lat="0" lon="0">
        <time>2020-12-20T08:28:05.260000+00:00</time>
      </trkpt>
      <trkpt lat="0" lon="0">
        <time>2020-12-20T08:28:05.269000+00:00</time>
      </trkpt>
      <trkpt lat="0" lon="0">
        <time>2020-12-20T08:28:05.272000+00:00</time>
      </trkpt>
      <trkpt lat="47.31404" lon="-1.32848">
        <ele>66</ele>
        <time>2020-12-20T08:28:06.236000+00:00</time>
      </trkpt>
      <trkpt lat="0" lon="0">
        <time>2020-12-20T08:28:06.250000+00:00</time>
      </trkpt>
      <trkpt lat="0" lon="0">
        <time>2020-12-20T08:28:06.255000+00:00</time>
      </trkpt>
      <trkpt lat="0" lon="0">
        <time>2020-12-20T08:28:06.257000+00:00</time>
      </trkpt>
      <trkpt lat="47.31409" lon="-1.32844">
        <ele>66</ele>
        <time>2020-12-20T08:28:07.210000+00:00</time>
      </trkpt>
      <trkpt lat="0" lon="0">
        <time>2020-12-20T08:28:07.215000+00:00</time>
      </trkpt>
      <trkpt lat="0" lon="0">
        <time>2020-12-20T08:28:07.226000+00:00</time>
      </trkpt>
      <trkpt lat="0" lon="0">
        <time>2020-12-20T08:28:07.228000+00:00</time>
      </trkpt>
      <trkpt lat="47.31414" lon="-1.3284">
        <ele>66</ele>
        <time>2020-12-20T08:28:08.240000+00:00</time>
      </trkpt>
      <trkpt lat="0" lon="0">
        <time>2020-12-20T08:28:08.250000+00:00</time>
      </trkpt>
      <trkpt lat="0" lon="0">
        <time>2020-12-20T08:28:08.255000+00:00</time>
      </trkpt>
      <trkpt lat="0" lon="0">
        <time>2020-12-20T08:28:08.257000+00:00</time>
      </trkpt>
      <trkpt lat="47.31418" lon="-1.32836">
        <ele>67</ele>
        <time>2020-12-20T08:28:09.260000+00:00</time>
      </trkpt>
      <trkpt lat="0" lon="0">
        <time>2020-12-20T08:28:09.266000+00:00</time>
      </trkpt>
      <trkpt lat="0" lon="0">
        <time>2020-12-20T08:28:09.269000+00:00</time>
      </trkpt>
      <trkpt lat="0" lon="0">
        <time>2020-12-20T08:28:09.270000+00:00</time>
      </trkpt>
      <trkpt lat="47.31423" lon="-1.32831">
        <ele>67</ele>
        <time>2020-12-20T08:28:10.268000+00:00</time>
      </trkpt>
      <trkpt lat="0" lon="0">
        <time>2020-12-20T08:28:10.283000+00:00</time>
      </trkpt>
      <trkpt lat="0" lon="0">
        <time>2020-12-20T08:28:10.289000+00:00</time>
      </trkpt>
      <trkpt lat="0" lon="0">
        <time>2020-12-20T08:28:10.293000+00:00</time>
      </trkpt>
      <trkpt lat="47.31428" lon="-1.32828">
        <ele>67</ele>
        <time>2020-12-20T08:28:11.256000+00:00</time>
      </trkpt>
      <trkpt lat="0" lon="0">
        <time>2020-12-20T08:28:11.271000+00:00</time>
      </trkpt>
      <trkpt lat="0" lon="0">
        <time>2020-12-20T08:28:11.278000+00:00</time>
      </trkpt>
      <trkpt lat="0" lon="0">
        <time>2020-12-20T08:28:11.281000+00:00</time>
      </trkpt>
      <trkpt lat="47.31432" lon="-1.32824">
        <ele>67</ele>
        <time>2020-12-20T08:28:12.244000+00:00</time>
      </trkpt>
      <trkpt lat="0" lon="0">
        <time>2020-12-20T08:28:12.252000+00:00</time>
      </trkpt>
      <trkpt lat="0" lon="0">
        <time>2020-12-20T08:28:12.258000+00:00</time>
      </trkpt>
      <trkpt lat="0" lon="0">
        <time>2020-12-20T08:28:12.262000+00:00</time>
      </trkpt>
      <trkpt lat="47.31436" lon="-1.3282">
        <ele>67</ele>
        <time>2020-12-20T08:28:13.261000+00:00</time>
      </trkpt>
      <trkpt lat="0" lon="0">
        <time>2020-12-20T08:28:13.275000+00:00</time>
      </trkpt>
      <trkpt lat="0" lon="0">
        <time>2020-12-20T08:28:13.281000+00:00</time>
      </trkpt>
      <trkpt lat="0" lon="0">
        <time>2020-12-20T08:28:13.283000+00:00</time>
      </trkpt>
      <trkpt lat="47.31441" lon="-1.32816">
        <ele>68</ele>
        <time>2020-12-20T08:28:14.262000+00:00</time>
      </trkpt>
      <trkpt lat="0" lon="0">
        <time>2020-12-20T08:28:14.275000+00:00</time>
      </trkpt>
      <trkpt lat="0" lon="0">
        <time>2020-12-20T08:28:14.281000+00:00</time>
      </trkpt>
      <trkpt lat="0" lon="0">
        <time>2020-12-20T08:28:14.289000+00:00</time>
      </trkpt>
      <trkpt lat="47.31445" lon="-1.32813">
        <ele>67</ele>
        <time>2020-12-20T08:28:15.259000+00:00</time>
      </trkpt>
      <trkpt lat="0" lon="0">
        <time>2020-12-20T08:28:15.264000+00:00</time>
      </trkpt>
      <trkpt lat="0" lon="0">
        <time>2020-12-20T08:28:15.271000+00:00</time>
      </trkpt>
      <trkpt lat="0" lon="0">
        <time>2020-12-20T08:28:15.274000+00:00</time>
      </trkpt>
      <trkpt lat="47.3145" lon="-1.32809">
        <ele>67</ele>
        <time>2020-12-20T08:28:16.266000+00:00</time>
      </trkpt>
      <trkpt lat="0" lon="0">
        <time>2020-12-20T08:28:16.279000+00:00</time>
      </trkpt>
      <trkpt lat="0" lon="0">
        <time>2020-12-20T08:28:16.283000+00:00</time>
      </trkpt>
      <trkpt lat="0" lon="0">
        <time>2020-12-20T08:28:16.287000+00:00</time>
      </trkpt>
      <trkpt lat="47.31454" lon="-1.32806">
        <ele>67</ele>
        <time>2020-12-20T08:28:17.269000+00:00</time>
      </trkpt>
      <trkpt lat="0" lon="0">
        <time>2020-12-20T08:28:17.294000+00:00</time>
      </trkpt>
      <trkpt lat="0" lon="0">
        <time>2020-12-20T08:28:17.299000+00:00</time>
      </trkpt>
      <trkpt lat="0" lon="0">
        <time>2020-12-20T08:28:17.302000+00:00</time>
      </trkpt>
      <trkpt lat="47.31459" lon="-1.32802">
        <ele>67</ele>
        <time>2020-12-20T08:28:18.225000+00:00</time>
      </trkpt>
      <trkpt lat="0" lon="0">
        <time>2020-12-20T08:28:18.230000+00:00</time>
      </trkpt>
      <trkpt lat="0" lon="0">
        <time>2020-12-20T08:28:18.234000+00:00</time>
      </trkpt>
      <trkpt lat="0" lon="0">
        <time>2020-12-20T08:28:18.236000+00:00</time>
      </trkpt>
      <trkpt lat="47.31464" lon="-1.32799">
        <ele>67</ele>
        <time>2020-12-20T08:28:19.246000+00:00</time>
      </trkpt>
      <trkpt lat="0" lon="0">
        <time>2020-12-20T08:28:19.256000+00:00</time>
      </trkpt>
      <trkpt lat="0" lon="0">
        <time>2020-12-20T08:28:19.261000+00:00</time>
      </trkpt>
      <trkpt lat="0" lon="0">
        <time>2020-12-20T08:28:19.265000+00:00</time>
      </trkpt>
      <trkpt lat="47.31468" lon="-1.32795">
        <ele>66</ele>
        <time>2020-12-20T08:28:20.272000+00:00</time>
      </trkpt>
      <trkpt lat="0" lon="0">
        <time>2020-12-20T08:28:20.283000+00:00</time>
      </trkpt>
      <trkpt lat="0" lon="0">
        <time>2020-12-20T08:28:20.289000+00:00</time>
      </trkpt>
      <trkpt lat="0" lon="0">
        <time>2020-12-20T08:28:20.296000+00:00</time>
      </trkpt>
      <trkpt lat="47.31473" lon="-1.32792">
        <ele>66</ele>
        <time>2020-12-20T08:28:21.221000+00:00</time>
      </trkpt>
      <trkpt lat="0" lon="0">
        <time>2020-12-20T08:28:21.223000+00:00</time>
      </trkpt>
      <trkpt lat="0" lon="0">
        <time>2020-12-20T08:28:21.237000+00:00</time>
      </trkpt>
      <trkpt lat="0" lon="0">
        <time>2020-12-20T08:28:21.243000+00:00</time>
      </trkpt>
      <trkpt lat="47.31478" lon="-1.32788">
        <ele>65</ele>
        <time>2020-12-20T08:28:22.271000+00:00</time>
      </trkpt>
      <trkpt lat="0" lon="0">
        <time>2020-12-20T08:28:22.278000+00:00</time>
      </trkpt>
      <trkpt lat="0" lon="0">
        <time>2020-12-20T08:28:22.291000+00:00</time>
      </trkpt>
      <trkpt lat="0" lon="0">
        <time>2020-12-20T08:28:22.294000+00:00</time>
      </trkpt>
      <trkpt lat="47.31482" lon="-1.32785">
        <ele>65</ele>
        <time>2020-12-20T08:28:23.269000+00:00</time>
      </trkpt>
      <trkpt lat="0" lon="0">
        <time>2020-12-20T08:28:23.279000+00:00</time>
      </trkpt>
      <trkpt lat="0" lon="0">
        <time>2020-12-20T08:28:23.286000+00:00</time>
      </trkpt>
      <trkpt lat="0" lon="0">
        <time>2020-12-20T08:28:23.288000+00:00</time>
      </trkpt>
      <trkpt lat="47.31487" lon="-1.32781">
        <ele>66</ele>
        <time>2020-12-20T08:28:24.259000+00:00</time>
      </trkpt>
      <trkpt lat="0" lon="0">
        <time>2020-12-20T08:28:24.275000+00:00</time>
      </trkpt>
      <trkpt lat="0" lon="0">
        <time>2020-12-20T08:28:24.280000+00:00</time>
      </trkpt>
      <trkpt lat="0" lon="0">
        <time>2020-12-20T08:28:24.282000+00:00</time>
      </trkpt>
      <trkpt lat="47.31491" lon="-1.32776">
        <ele>66</ele>
        <time>2020-12-20T08:28:25.271000+00:00</time>
      </trkpt>
      <trkpt lat="0" lon="0">
        <time>2020-12-20T08:28:25.277000+00:00</time>
      </trkpt>
      <trkpt lat="0" lon="0">
        <time>2020-12-20T08:28:25.282000+00:00</time>
      </trkpt>
      <trkpt lat="0" lon="0">
        <time>2020-12-20T08:28:25.285000+00:00</time>
      </trkpt>
      <trkpt lat="47.31495" lon="-1.32772">
        <ele>66</ele>
        <time>2020-12-20T08:28:26.247000+00:00</time>
      </trkpt>
      <trkpt lat="0" lon="0">
        <time>2020-12-20T08:28:26.257000+00:00</time>
      </trkpt>
      <trkpt lat="0" lon="0">
        <time>2020-12-20T08:28:26.266000+00:00</time>
      </trkpt>
      <trkpt lat="0" lon="0">
        <time>2020-12-20T08:28:26.269000+00:00</time>
      </trkpt>
      <trkpt lat="47.31499" lon="-1.32768">
        <ele>66</ele>
        <time>2020-12-20T08:28:27.237000+00:00</time>
      </trkpt>
      <trkpt lat="0" lon="0">
        <time>2020-12-20T08:28:27.245000+00:00</time>
      </trkpt>
      <trkpt lat="0" lon="0">
        <time>2020-12-20T08:28:27.252000+00:00</time>
      </trkpt>
      <trkpt lat="0" lon="0">
        <time>2020-12-20T08:28:27.254000+00:00</time>
      </trkpt>
      <trkpt lat="47.31503" lon="-1.32763">
        <ele>66</ele>
        <time>2020-12-20T08:28:28.269000+00:00</time>
      </trkpt>
      <trkpt lat="0" lon="0">
        <time>2020-12-20T08:28:28.276000+00:00</time>
      </trkpt>
      <trkpt lat="0" lon="0">
        <time>2020-12-20T08:28:28.285000+00:00</time>
      </trkpt>
      <trkpt lat="0" lon="0">
        <time>2020-12-20T08:28:28.290000+00:00</time>
      </trkpt>
      <trkpt lat="47.31507" lon="-1.32758">
        <ele>66</ele>
        <time>2020-12-20T08:28:29.259000+00:00</time>
      </trkpt>
      <trkpt lat="0" lon="0">
        <time>2020-12-20T08:28:29.263000+00:00</time>
      </trkpt>
      <trkpt lat="0" lon="0">
        <time>2020-12-20T08:28:29.270000+00:00</time>
      </trkpt>
      <trkpt lat="0" lon="0">
        <time>2020-12-20T08:28:29.272000+00:00</time>
      </trkpt>
      <trkpt lat="47.31511" lon="-1.32753">
        <ele>66</ele>
        <time>2020-12-20T08:28:30.265000+00:00</time>
      </trkpt>
      <trkpt lat="0" lon="0">
        <time>2020-12-20T08:28:30.272000+00:00</time>
      </trkpt>
      <trkpt lat="0" lon="0">
        <time>2020-12-20T08:28:30.282000+00:00</time>
      </trkpt>
      <trkpt lat="0" lon="0">
        <time>2020-12-20T08:28:30.284000+00:00</time>
      </trkpt>
      <trkpt lat="47.31515" lon="-1.32748">
        <ele>67</ele>
        <time>2020-12-20T08:28:31.269000+00:00</time>
      </trkpt>
      <trkpt lat="0" lon="0">
        <time>2020-12-20T08:28:31.291000+00:00</time>
      </trkpt>
      <trkpt lat="0" lon="0">
        <time>2020-12-20T08:28:31.298000+00:00</time>
      </trkpt>
      <trkpt lat="0" lon="0">
        <time>2020-12-20T08:28:31.305000+00:00</time>
      </trkpt>
      <trkpt lat="47.31519" lon="-1.32743">
        <ele>67</ele>
        <time>2020-12-20T08:28:32.279000+00:00</time>
      </trkpt>
      <trkpt lat="0" lon="0">
        <time>2020-12-20T08:28:32.288000+00:00</time>
      </trkpt>
      <trkpt lat="0" lon="0">
        <time>2020-12-20T08:28:32.292000+00:00</time>
      </trkpt>
      <trkpt lat="0" lon="0">
        <time>2020-12-20T08:28:32.293000+00:00</time>
      </trkpt>
      <trkpt lat="47.31523" lon="-1.32738">
        <ele>67</ele>
        <time>2020-12-20T08:28:33.277000+00:00</time>
      </trkpt>
      <trkpt lat="0" lon="0">
        <time>2020-12-20T08:28:33.282000+00:00</time>
      </trkpt>
      <trkpt lat="0" lon="0">
        <time>2020-12-20T08:28:33.288000+00:00</time>
      </trkpt>
      <trkpt lat="0" lon="0">
        <time>2020-12-20T08:28:33.290000+00:00</time>
      </trkpt>
      <trkpt lat="47.31526" lon="-1.32733">
        <ele>67</ele>
        <time>2020-12-20T08:28:34.277000+00:00</time>
      </trkpt>
      <trkpt lat="0" lon="0">
        <time>2020-12-20T08:28:34.300000+00:00</time>
      </trkpt>
      <trkpt lat="0" lon="0">
        <time>2020-12-20T08:28:34.309000+00:00</time>
      </trkpt>
      <trkpt lat="0" lon="0">
        <time>2020-12-20T08:28:34.313000+00:00</time>
      </trkpt>
      <trkpt lat="47.3153" lon="-1.32727">
        <ele>66</ele>
        <time>2020-12-20T08:28:35.287000+00:00</time>
      </trkpt>
      <trkpt lat="0" lon="0">
        <time>2020-12-20T08:28:35.303000+00:00</time>
      </trkpt>
      <trkpt lat="0" lon="0">
        <time>2020-12-20T08:28:35.307000+00:00</time>
      </trkpt>
      <trkpt lat="0" lon="0">
        <time>2020-12-20T08:28:35.310000+00:00</time>
      </trkpt>
      <trkpt lat="47.31534" lon="-1.32722">
        <ele>66</ele>
        <time>2020-12-20T08:28:36.248000+00:00</time>
      </trkpt>
      <trkpt lat="0" lon="0">
        <time>2020-12-20T08:28:36.254000+00:00</time>
      </trkpt>
      <trkpt lat="0" lon="0">
        <time>2020-12-20T08:28:36.259000+00:00</time>
      </trkpt>
      <trkpt lat="0" lon="0">
        <time>2020-12-20T08:28:36.262000+00:00</time>
      </trkpt>
      <trkpt lat="47.31538" lon="-1.32716">
        <ele>66</ele>
        <time>2020-12-20T08:28:37.270000+00:00</time>
      </trkpt>
      <trkpt lat="0" lon="0">
        <time>2020-12-20T08:28:37.285000+00:00</time>
      </trkpt>
      <trkpt lat="0" lon="0">
        <time>2020-12-20T08:28:37.292000+00:00</time>
      </trkpt>
      <trkpt lat="0" lon="0">
        <time>2020-12-20T08:28:37.301000+00:00</time>
      </trkpt>
      <trkpt lat="47.31542" lon="-1.32711">
        <ele>65</ele>
        <time>2020-12-20T08:28:38.280000+00:00</time>
      </trkpt>
      <trkpt lat="0" lon="0">
        <time>2020-12-20T08:28:38.283000+00:00</time>
      </trkpt>
      <trkpt lat="0" lon="0">
        <time>2020-12-20T08:28:38.290000+00:00</time>
      </trkpt>
      <trkpt lat="0" lon="0">
        <time>2020-12-20T08:28:38.294000+00:00</time>
      </trkpt>
      <trkpt lat="47.31546" lon="-1.32705">
        <ele>65</ele>
        <time>2020-12-20T08:28:39.266000+00:00</time>
      </trkpt>
      <trkpt lat="0" lon="0">
        <time>2020-12-20T08:28:39.276000+00:00</time>
      </trkpt>
      <trkpt lat="0" lon="0">
        <time>2020-12-20T08:28:39.285000+00:00</time>
      </trkpt>
      <trkpt lat="0" lon="0">
        <time>2020-12-20T08:28:39.288000+00:00</time>
      </trkpt>
      <trkpt lat="47.3155" lon="-1.327">
        <ele>65</ele>
        <time>2020-12-20T08:28:40.281000+00:00</time>
      </trkpt>
      <trkpt lat="0" lon="0">
        <time>2020-12-20T08:28:40.287000+00:00</time>
      </trkpt>
      <trkpt lat="0" lon="0">
        <time>2020-12-20T08:28:40.292000+00:00</time>
      </trkpt>
      <trkpt lat="0" lon="0">
        <time>2020-12-20T08:28:40.298000+00:00</time>
      </trkpt>
      <trkpt lat="47.31554" lon="-1.32694">
        <ele>65</ele>
        <time>2020-12-20T08:28:41.296000+00:00</time>
      </trkpt>
      <trkpt lat="0" lon="0">
        <time>2020-12-20T08:28:41.306000+00:00</time>
      </trkpt>
      <trkpt lat="0" lon="0">
        <time>2020-12-20T08:28:41.310000+00:00</time>
      </trkpt>
      <trkpt lat="0" lon="0">
        <time>2020-12-20T08:28:41.312000+00:00</time>
      </trkpt>
      <trkpt lat="47.31559" lon="-1.32689">
        <ele>65</ele>
        <time>2020-12-20T08:28:42.271000+00:00</time>
      </trkpt>
      <trkpt lat="0" lon="0">
        <time>2020-12-20T08:28:42.277000+00:00</time>
      </trkpt>
      <trkpt lat="0" lon="0">
        <time>2020-12-20T08:28:42.284000+00:00</time>
      </trkpt>
      <trkpt lat="0" lon="0">
        <time>2020-12-20T08:28:42.286000+00:00</time>
      </trkpt>
      <trkpt lat="47.31563" lon="-1.32684">
        <ele>65</ele>
        <time>2020-12-20T08:28:43.286000+00:00</time>
      </trkpt>
      <trkpt lat="0" lon="0">
        <time>2020-12-20T08:28:43.297000+00:00</time>
      </trkpt>
      <trkpt lat="0" lon="0">
        <time>2020-12-20T08:28:43.302000+00:00</time>
      </trkpt>
      <trkpt lat="0" lon="0">
        <time>2020-12-20T08:28:43.304000+00:00</time>
      </trkpt>
      <trkpt lat="47.31567" lon="-1.32678">
        <ele>65</ele>
        <time>2020-12-20T08:28:44.289000+00:00</time>
      </trkpt>
      <trkpt lat="0" lon="0">
        <time>2020-12-20T08:28:44.300000+00:00</time>
      </trkpt>
      <trkpt lat="0" lon="0">
        <time>2020-12-20T08:28:44.302000+00:00</time>
      </trkpt>
      <trkpt lat="0" lon="0">
        <time>2020-12-20T08:28:44.303000+00:00</time>
      </trkpt>
      <trkpt lat="47.31571" lon="-1.32673">
        <ele>64</ele>
        <time>2020-12-20T08:28:45.290000+00:00</time>
      </trkpt>
      <trkpt lat="0" lon="0">
        <time>2020-12-20T08:28:45.303000+00:00</time>
      </trkpt>
      <trkpt lat="0" lon="0">
        <time>2020-12-20T08:28:45.316000+00:00</time>
      </trkpt>
      <trkpt lat="0" lon="0">
        <time>2020-12-20T08:28:45.324000+00:00</time>
      </trkpt>
      <trkpt lat="47.31576" lon="-1.32667">
        <ele>65</ele>
        <time>2020-12-20T08:28:46.255000+00:00</time>
      </trkpt>
      <trkpt lat="0" lon="0">
        <time>2020-12-20T08:28:46.263000+00:00</time>
      </trkpt>
      <trkpt lat="0" lon="0">
        <time>2020-12-20T08:28:46.267000+00:00</time>
      </trkpt>
      <trkpt lat="0" lon="0">
        <time>2020-12-20T08:28:46.270000+00:00</time>
      </trkpt>
      <trkpt lat="47.3158" lon="-1.32661">
        <ele>64</ele>
        <time>2020-12-20T08:28:47.284000+00:00</time>
      </trkpt>
      <trkpt lat="0" lon="0">
        <time>2020-12-20T08:28:47.303000+00:00</time>
      </trkpt>
      <trkpt lat="0" lon="0">
        <time>2020-12-20T08:28:47.307000+00:00</time>
      </trkpt>
      <trkpt lat="0" lon="0">
        <time>2020-12-20T08:28:47.310000+00:00</time>
      </trkpt>
      <trkpt lat="47.31585" lon="-1.32656">
        <ele>64</ele>
        <time>2020-12-20T08:28:48.282000+00:00</time>
      </trkpt>
      <trkpt lat="0" lon="0">
        <time>2020-12-20T08:28:48.311000+00:00</time>
      </trkpt>
      <trkpt lat="0" lon="0">
        <time>2020-12-20T08:28:48.317000+00:00</time>
      </trkpt>
      <trkpt lat="0" lon="0">
        <time>2020-12-20T08:28:48.319000+00:00</time>
      </trkpt>
      <trkpt lat="47.31589" lon="-1.32649">
        <ele>64</ele>
        <time>2020-12-20T08:28:49.269000+00:00</time>
      </trkpt>
      <trkpt lat="0" lon="0">
        <time>2020-12-20T08:28:49.288000+00:00</time>
      </trkpt>
      <trkpt lat="0" lon="0">
        <time>2020-12-20T08:28:49.299000+00:00</time>
      </trkpt>
      <trkpt lat="0" lon="0">
        <time>2020-12-20T08:28:49.302000+00:00</time>
      </trkpt>
      <trkpt lat="47.31594" lon="-1.32643">
        <ele>64</ele>
        <time>2020-12-20T08:28:50.300000+00:00</time>
      </trkpt>
      <trkpt lat="0" lon="0">
        <time>2020-12-20T08:28:50.306000+00:00</time>
      </trkpt>
      <trkpt lat="0" lon="0">
        <time>2020-12-20T08:28:50.308000+00:00</time>
      </trkpt>
      <trkpt lat="0" lon="0">
        <time>2020-12-20T08:28:50.309000+00:00</time>
      </trkpt>
      <trkpt lat="47.31598" lon="-1.32637">
        <ele>64</ele>
        <time>2020-12-20T08:28:51.271000+00:00</time>
      </trkpt>
      <trkpt lat="0" lon="0">
        <time>2020-12-20T08:28:51.289000+00:00</time>
      </trkpt>
      <trkpt lat="0" lon="0">
        <time>2020-12-20T08:28:51.293000+00:00</time>
      </trkpt>
      <trkpt lat="0" lon="0">
        <time>2020-12-20T08:28:51.295000+00:00</time>
      </trkpt>
      <trkpt lat="47.31603" lon="-1.32631">
        <ele>64</ele>
        <time>2020-12-20T08:28:52.299000+00:00</time>
      </trkpt>
      <trkpt lat="0" lon="0">
        <time>2020-12-20T08:28:52.311000+00:00</time>
      </trkpt>
      <trkpt lat="0" lon="0">
        <time>2020-12-20T08:28:52.321000+00:00</time>
      </trkpt>
      <trkpt lat="0" lon="0">
        <time>2020-12-20T08:28:52.324000+00:00</time>
      </trkpt>
      <trkpt lat="47.31607" lon="-1.32625">
        <ele>64</ele>
        <time>2020-12-20T08:28:53.286000+00:00</time>
      </trkpt>
      <trkpt lat="0" lon="0">
        <time>2020-12-20T08:28:53.303000+00:00</time>
      </trkpt>
      <trkpt lat="0" lon="0">
        <time>2020-12-20T08:28:53.313000+00:00</time>
      </trkpt>
      <trkpt lat="0" lon="0">
        <time>2020-12-20T08:28:53.315000+00:00</time>
      </trkpt>
      <trkpt lat="47.31612" lon="-1.32618">
        <ele>65</ele>
        <time>2020-12-20T08:28:54.238000+00:00</time>
      </trkpt>
      <trkpt lat="0" lon="0">
        <time>2020-12-20T08:28:54.254000+00:00</time>
      </trkpt>
      <trkpt lat="0" lon="0">
        <time>2020-12-20T08:28:54.263000+00:00</time>
      </trkpt>
      <trkpt lat="0" lon="0">
        <time>2020-12-20T08:28:54.267000+00:00</time>
      </trkpt>
      <trkpt lat="47.31616" lon="-1.32612">
        <ele>64</ele>
        <time>2020-12-20T08:28:55.270000+00:00</time>
      </trkpt>
      <trkpt lat="0" lon="0">
        <time>2020-12-20T08:28:55.276000+00:00</time>
      </trkpt>
      <trkpt lat="0" lon="0">
        <time>2020-12-20T08:28:55.285000+00:00</time>
      </trkpt>
      <trkpt lat="0" lon="0">
        <time>2020-12-20T08:28:55.287000+00:00</time>
      </trkpt>
      <trkpt lat="47.3162" lon="-1.32605">
        <ele>64</ele>
        <time>2020-12-20T08:28:56.225000+00:00</time>
      </trkpt>
      <trkpt lat="0" lon="0">
        <time>2020-12-20T08:28:56.232000+00:00</time>
      </trkpt>
      <trkpt lat="0" lon="0">
        <time>2020-12-20T08:28:56.234000+00:00</time>
      </trkpt>
      <trkpt lat="0" lon="0">
        <time>2020-12-20T08:28:56.235000+00:00</time>
      </trkpt>
      <trkpt lat="47.31624" lon="-1.32599">
        <ele>64</ele>
        <time>2020-12-20T08:28:57.235000+00:00</time>
      </trkpt>
      <trkpt lat="0" lon="0">
        <time>2020-12-20T08:28:57.251000+00:00</time>
      </trkpt>
      <trkpt lat="0" lon="0">
        <time>2020-12-20T08:28:57.256000+00:00</time>
      </trkpt>
      <trkpt lat="0" lon="0">
        <time>2020-12-20T08:28:57.259000+00:00</time>
      </trkpt>
      <trkpt lat="47.31627" lon="-1.32592">
        <ele>64</ele>
        <time>2020-12-20T08:28:58.244000+00:00</time>
      </trkpt>
      <trkpt lat="0" lon="0">
        <time>2020-12-20T08:28:58.250000+00:00</time>
      </trkpt>
      <trkpt lat="0" lon="0">
        <time>2020-12-20T08:28:58.257000+00:00</time>
      </trkpt>
      <trkpt lat="0" lon="0">
        <time>2020-12-20T08:28:58.260000+00:00</time>
      </trkpt>
      <trkpt lat="47.31631" lon="-1.32585">
        <ele>63</ele>
        <time>2020-12-20T08:28:59.254000+00:00</time>
      </trkpt>
      <trkpt lat="0" lon="0">
        <time>2020-12-20T08:28:59.269000+00:00</time>
      </trkpt>
      <trkpt lat="0" lon="0">
        <time>2020-12-20T08:28:59.276000+00:00</time>
      </trkpt>
      <trkpt lat="0" lon="0">
        <time>2020-12-20T08:28:59.278000+00:00</time>
      </trkpt>
      <trkpt lat="47.31635" lon="-1.32577">
        <ele>63</ele>
        <time>2020-12-20T08:29:00.251000+00:00</time>
      </trkpt>
      <trkpt lat="0" lon="0">
        <time>2020-12-20T08:29:00.266000+00:00</time>
      </trkpt>
      <trkpt lat="0" lon="0">
        <time>2020-12-20T08:29:00.270000+00:00</time>
      </trkpt>
      <trkpt lat="0" lon="0">
        <time>2020-12-20T08:29:00.273000+00:00</time>
      </trkpt>
      <trkpt lat="47.31638" lon="-1.3257">
        <ele>63</ele>
        <time>2020-12-20T08:29:01.234000+00:00</time>
      </trkpt>
      <trkpt lat="0" lon="0">
        <time>2020-12-20T08:29:01.240000+00:00</time>
      </trkpt>
      <trkpt lat="0" lon="0">
        <time>2020-12-20T08:29:01.244000+00:00</time>
      </trkpt>
      <trkpt lat="0" lon="0">
        <time>2020-12-20T08:29:01.247000+00:00</time>
      </trkpt>
      <trkpt lat="47.31642" lon="-1.32563">
        <ele>63</ele>
        <time>2020-12-20T08:29:02.220000+00:00</time>
      </trkpt>
      <trkpt lat="0" lon="0">
        <time>2020-12-20T08:29:02.224000+00:00</time>
      </trkpt>
      <trkpt lat="0" lon="0">
        <time>2020-12-20T08:29:02.226000+00:00</time>
      </trkpt>
      <trkpt lat="0" lon="0">
        <time>2020-12-20T08:29:02.227000+00:00</time>
      </trkpt>
      <trkpt lat="47.31645" lon="-1.32556">
        <ele>63</ele>
        <time>2020-12-20T08:29:03.257000+00:00</time>
      </trkpt>
      <trkpt lat="0" lon="0">
        <time>2020-12-20T08:29:03.266000+00:00</time>
      </trkpt>
      <trkpt lat="0" lon="0">
        <time>2020-12-20T08:29:03.271000+00:00</time>
      </trkpt>
      <trkpt lat="0" lon="0">
        <time>2020-12-20T08:29:03.273000+00:00</time>
      </trkpt>
      <trkpt lat="47.31648" lon="-1.32549">
        <ele>63</ele>
        <time>2020-12-20T08:29:04.237000+00:00</time>
      </trkpt>
      <trkpt lat="0" lon="0">
        <time>2020-12-20T08:29:04.244000+00:00</time>
      </trkpt>
      <trkpt lat="0" lon="0">
        <time>2020-12-20T08:29:04.248000+00:00</time>
      </trkpt>
      <trkpt lat="0" lon="0">
        <time>2020-12-20T08:29:04.250000+00:00</time>
      </trkpt>
      <trkpt lat="47.31652" lon="-1.32543">
        <ele>64</ele>
        <time>2020-12-20T08:29:05.251000+00:00</time>
      </trkpt>
      <trkpt lat="0" lon="0">
        <time>2020-12-20T08:29:05.260000+00:00</time>
      </trkpt>
      <trkpt lat="0" lon="0">
        <time>2020-12-20T08:29:05.270000+00:00</time>
      </trkpt>
      <trkpt lat="0" lon="0">
        <time>2020-12-20T08:29:05.273000+00:00</time>
      </trkpt>
      <trkpt lat="47.31655" lon="-1.32536">
        <ele>64</ele>
        <time>2020-12-20T08:29:06.273000+00:00</time>
      </trkpt>
      <trkpt lat="0" lon="0">
        <time>2020-12-20T08:29:06.278000+00:00</time>
      </trkpt>
      <trkpt lat="0" lon="0">
        <time>2020-12-20T08:29:06.283000+00:00</time>
      </trkpt>
      <trkpt lat="0" lon="0">
        <time>2020-12-20T08:29:06.289000+00:00</time>
      </trkpt>
      <trkpt lat="47.31659" lon="-1.32529">
        <ele>65</ele>
        <time>2020-12-20T08:29:07.244000+00:00</time>
      </trkpt>
      <trkpt lat="0" lon="0">
        <time>2020-12-20T08:29:07.250000+00:00</time>
      </trkpt>
      <trkpt lat="0" lon="0">
        <time>2020-12-20T08:29:07.259000+00:00</time>
      </trkpt>
      <trkpt lat="0" lon="0">
        <time>2020-12-20T08:29:07.261000+00:00</time>
      </trkpt>
      <trkpt lat="47.31662" lon="-1.32523">
        <ele>64</ele>
        <time>2020-12-20T08:29:08.319000+00:00</time>
      </trkpt>
      <trkpt lat="0" lon="0">
        <time>2020-12-20T08:29:08.336000+00:00</time>
      </trkpt>
      <trkpt lat="0" lon="0">
        <time>2020-12-20T08:29:08.338000+00:00</time>
      </trkpt>
      <trkpt lat="0" lon="0">
        <time>2020-12-20T08:29:08.340000+00:00</time>
      </trkpt>
      <trkpt lat="47.31665" lon="-1.32516">
        <ele>64</ele>
        <time>2020-12-20T08:29:09.293000+00:00</time>
      </trkpt>
      <trkpt lat="0" lon="0">
        <time>2020-12-20T08:29:09.308000+00:00</time>
      </trkpt>
      <trkpt lat="0" lon="0">
        <time>2020-12-20T08:29:09.316000+00:00</time>
      </trkpt>
      <trkpt lat="0" lon="0">
        <time>2020-12-20T08:29:09.320000+00:00</time>
      </trkpt>
      <trkpt lat="47.31668" lon="-1.3251">
        <ele>64</ele>
        <time>2020-12-20T08:29:10.261000+00:00</time>
      </trkpt>
      <trkpt lat="0" lon="0">
        <time>2020-12-20T08:29:10.279000+00:00</time>
      </trkpt>
      <trkpt lat="0" lon="0">
        <time>2020-12-20T08:29:10.285000+00:00</time>
      </trkpt>
      <trkpt lat="0" lon="0">
        <time>2020-12-20T08:29:10.287000+00:00</time>
      </trkpt>
      <trkpt lat="47.31671" lon="-1.32504">
        <ele>64</ele>
        <time>2020-12-20T08:29:11.277000+00:00</time>
      </trkpt>
      <trkpt lat="0" lon="0">
        <time>2020-12-20T08:29:11.307000+00:00</time>
      </trkpt>
      <trkpt lat="0" lon="0">
        <time>2020-12-20T08:29:11.312000+00:00</time>
      </trkpt>
      <trkpt lat="0" lon="0">
        <time>2020-12-20T08:29:11.314000+00:00</time>
      </trkpt>
      <trkpt lat="47.31674" lon="-1.32497">
        <ele>64</ele>
        <time>2020-12-20T08:29:12.264000+00:00</time>
      </trkpt>
      <trkpt lat="0" lon="0">
        <time>2020-12-20T08:29:12.271000+00:00</time>
      </trkpt>
      <trkpt lat="0" lon="0">
        <time>2020-12-20T08:29:12.276000+00:00</time>
      </trkpt>
      <trkpt lat="0" lon="0">
        <time>2020-12-20T08:29:12.278000+00:00</time>
      </trkpt>
      <trkpt lat="47.31677" lon="-1.32491">
        <ele>64</ele>
        <time>2020-12-20T08:29:13.265000+00:00</time>
      </trkpt>
      <trkpt lat="0" lon="0">
        <time>2020-12-20T08:29:13.279000+00:00</time>
      </trkpt>
      <trkpt lat="0" lon="0">
        <time>2020-12-20T08:29:13.286000+00:00</time>
      </trkpt>
      <trkpt lat="0" lon="0">
        <time>2020-12-20T08:29:13.294000+00:00</time>
      </trkpt>
      <trkpt lat="47.31679" lon="-1.32485">
        <ele>64</ele>
        <time>2020-12-20T08:29:14.295000+00:00</time>
      </trkpt>
      <trkpt lat="0" lon="0">
        <time>2020-12-20T08:29:14.312000+00:00</time>
      </trkpt>
      <trkpt lat="0" lon="0">
        <time>2020-12-20T08:29:14.317000+00:00</time>
      </trkpt>
      <trkpt lat="0" lon="0">
        <time>2020-12-20T08:29:14.319000+00:00</time>
      </trkpt>
      <trkpt lat="47.31682" lon="-1.32479">
        <ele>65</ele>
        <time>2020-12-20T08:29:15.272000+00:00</time>
      </trkpt>
      <trkpt lat="0" lon="0">
        <time>2020-12-20T08:29:15.279000+00:00</time>
      </trkpt>
      <trkpt lat="0" lon="0">
        <time>2020-12-20T08:29:15.282000+00:00</time>
      </trkpt>
      <trkpt lat="0" lon="0">
        <time>2020-12-20T08:29:15.284000+00:00</time>
      </trkpt>
      <trkpt lat="47.31684" lon="-1.32474">
        <ele>64</ele>
        <time>2020-12-20T08:29:16.253000+00:00</time>
      </trkpt>
      <trkpt lat="0" lon="0">
        <time>2020-12-20T08:29:16.263000+00:00</time>
      </trkpt>
      <trkpt lat="0" lon="0">
        <time>2020-12-20T08:29:16.267000+00:00</time>
      </trkpt>
      <trkpt lat="0" lon="0">
        <time>2020-12-20T08:29:16.270000+00:00</time>
      </trkpt>
      <trkpt lat="47.31687" lon="-1.3247">
        <ele>64</ele>
        <time>2020-12-20T08:29:17.257000+00:00</time>
      </trkpt>
      <trkpt lat="0" lon="0">
        <time>2020-12-20T08:29:17.266000+00:00</time>
      </trkpt>
      <trkpt lat="0" lon="0">
        <time>2020-12-20T08:29:17.279000+00:00</time>
      </trkpt>
      <trkpt lat="0" lon="0">
        <time>2020-12-20T08:29:17.281000+00:00</time>
      </trkpt>
      <trkpt lat="47.31689" lon="-1.32468">
        <ele>64</ele>
        <time>2020-12-20T08:29:18.241000+00:00</time>
      </trkpt>
      <trkpt lat="0" lon="0">
        <time>2020-12-20T08:29:18.249000+00:00</time>
      </trkpt>
      <trkpt lat="0" lon="0">
        <time>2020-12-20T08:29:18.254000+00:00</time>
      </trkpt>
      <trkpt lat="0" lon="0">
        <time>2020-12-20T08:29:18.261000+00:00</time>
      </trkpt>
      <trkpt lat="47.31692" lon="-1.32466">
        <ele>64</ele>
        <time>2020-12-20T08:29:19.245000+00:00</time>
      </trkpt>
      <trkpt lat="0" lon="0">
        <time>2020-12-20T08:29:19.252000+00:00</time>
      </trkpt>
      <trkpt lat="0" lon="0">
        <time>2020-12-20T08:29:19.256000+00:00</time>
      </trkpt>
      <trkpt lat="0" lon="0">
        <time>2020-12-20T08:29:19.258000+00:00</time>
      </trkpt>
      <trkpt lat="47.31695" lon="-1.32465">
        <ele>64</ele>
        <time>2020-12-20T08:29:20.237000+00:00</time>
      </trkpt>
      <trkpt lat="0" lon="0">
        <time>2020-12-20T08:29:20.259000+00:00</time>
      </trkpt>
      <trkpt lat="0" lon="0">
        <time>2020-12-20T08:29:20.263000+00:00</time>
      </trkpt>
      <trkpt lat="0" lon="0">
        <time>2020-12-20T08:29:20.268000+00:00</time>
      </trkpt>
      <trkpt lat="47.31698" lon="-1.32465">
        <ele>64</ele>
        <time>2020-12-20T08:29:21.285000+00:00</time>
      </trkpt>
      <trkpt lat="0" lon="0">
        <time>2020-12-20T08:29:21.291000+00:00</time>
      </trkpt>
      <trkpt lat="0" lon="0">
        <time>2020-12-20T08:29:21.303000+00:00</time>
      </trkpt>
      <trkpt lat="0" lon="0">
        <time>2020-12-20T08:29:21.305000+00:00</time>
      </trkpt>
      <trkpt lat="47.31701" lon="-1.32465">
        <ele>64</ele>
        <time>2020-12-20T08:29:22.270000+00:00</time>
      </trkpt>
      <trkpt lat="0" lon="0">
        <time>2020-12-20T08:29:22.281000+00:00</time>
      </trkpt>
      <trkpt lat="0" lon="0">
        <time>2020-12-20T08:29:22.288000+00:00</time>
      </trkpt>
      <trkpt lat="0" lon="0">
        <time>2020-12-20T08:29:22.292000+00:00</time>
      </trkpt>
      <trkpt lat="47.31703" lon="-1.32466">
        <ele>64</ele>
        <time>2020-12-20T08:29:23.277000+00:00</time>
      </trkpt>
      <trkpt lat="0" lon="0">
        <time>2020-12-20T08:29:23.298000+00:00</time>
      </trkpt>
      <trkpt lat="0" lon="0">
        <time>2020-12-20T08:29:23.306000+00:00</time>
      </trkpt>
      <trkpt lat="0" lon="0">
        <time>2020-12-20T08:29:23.310000+00:00</time>
      </trkpt>
      <trkpt lat="47.31705" lon="-1.32466">
        <ele>64</ele>
        <time>2020-12-20T08:29:24.242000+00:00</time>
      </trkpt>
      <trkpt lat="0" lon="0">
        <time>2020-12-20T08:29:24.249000+00:00</time>
      </trkpt>
      <trkpt lat="0" lon="0">
        <time>2020-12-20T08:29:24.254000+00:00</time>
      </trkpt>
      <trkpt lat="0" lon="0">
        <time>2020-12-20T08:29:24.259000+00:00</time>
      </trkpt>
      <trkpt lat="47.31708" lon="-1.32467">
        <ele>64</ele>
        <time>2020-12-20T08:29:25.266000+00:00</time>
      </trkpt>
      <trkpt lat="0" lon="0">
        <time>2020-12-20T08:29:25.274000+00:00</time>
      </trkpt>
      <trkpt lat="0" lon="0">
        <time>2020-12-20T08:29:25.283000+00:00</time>
      </trkpt>
      <trkpt lat="0" lon="0">
        <time>2020-12-20T08:29:25.285000+00:00</time>
      </trkpt>
      <trkpt lat="47.3171" lon="-1.32467">
        <ele>65</ele>
        <time>2020-12-20T08:29:26.267000+00:00</time>
      </trkpt>
      <trkpt lat="0" lon="0">
        <time>2020-12-20T08:29:26.277000+00:00</time>
      </trkpt>
      <trkpt lat="0" lon="0">
        <time>2020-12-20T08:29:26.279000+00:00</time>
      </trkpt>
      <trkpt lat="0" lon="0">
        <time>2020-12-20T08:29:26.281000+00:00</time>
      </trkpt>
      <trkpt lat="47.31712" lon="-1.32467">
        <ele>65</ele>
        <time>2020-12-20T08:29:27.256000+00:00</time>
      </trkpt>
      <trkpt lat="0" lon="0">
        <time>2020-12-20T08:29:27.260000+00:00</time>
      </trkpt>
      <trkpt lat="0" lon="0">
        <time>2020-12-20T08:29:27.273000+00:00</time>
      </trkpt>
      <trkpt lat="0" lon="0">
        <time>2020-12-20T08:29:27.275000+00:00</time>
      </trkpt>
      <trkpt lat="47.31714" lon="-1.32467">
        <ele>65</ele>
        <time>2020-12-20T08:29:28.296000+00:00</time>
      </trkpt>
      <trkpt lat="0" lon="0">
        <time>2020-12-20T08:29:28.315000+00:00</time>
      </trkpt>
      <trkpt lat="0" lon="0">
        <time>2020-12-20T08:29:28.319000+00:00</time>
      </trkpt>
      <trkpt lat="0" lon="0">
        <time>2020-12-20T08:29:28.321000+00:00</time>
      </trkpt>
      <trkpt lat="47.31716" lon="-1.32467">
        <ele>65</ele>
        <time>2020-12-20T08:29:29.305000+00:00</time>
      </trkpt>
      <trkpt lat="0" lon="0">
        <time>2020-12-20T08:29:29.329000+00:00</time>
      </trkpt>
      <trkpt lat="0" lon="0">
        <time>2020-12-20T08:29:29.338000+00:00</time>
      </trkpt>
      <trkpt lat="0" lon="0">
        <time>2020-12-20T08:29:29.340000+00:00</time>
      </trkpt>
      <trkpt lat="47.31718" lon="-1.32467">
        <ele>65</ele>
        <time>2020-12-20T08:29:30.298000+00:00</time>
      </trkpt>
      <trkpt lat="0" lon="0">
        <time>2020-12-20T08:29:30.302000+00:00</time>
      </trkpt>
      <trkpt lat="0" lon="0">
        <time>2020-12-20T08:29:30.308000+00:00</time>
      </trkpt>
      <trkpt lat="0" lon="0">
        <time>2020-12-20T08:29:30.313000+00:00</time>
      </trkpt>
      <trkpt lat="47.31721" lon="-1.32467">
        <ele>65</ele>
        <time>2020-12-20T08:29:31.283000+00:00</time>
      </trkpt>
      <trkpt lat="0" lon="0">
        <time>2020-12-20T08:29:31.291000+00:00</time>
      </trkpt>
      <trkpt lat="0" lon="0">
        <time>2020-12-20T08:29:31.297000+00:00</time>
      </trkpt>
      <trkpt lat="0" lon="0">
        <time>2020-12-20T08:29:31.300000+00:00</time>
      </trkpt>
      <trkpt lat="47.31724" lon="-1.32466">
        <ele>65</ele>
        <time>2020-12-20T08:29:32.254000+00:00</time>
      </trkpt>
      <trkpt lat="0" lon="0">
        <time>2020-12-20T08:29:32.270000+00:00</time>
      </trkpt>
      <trkpt lat="0" lon="0">
        <time>2020-12-20T08:29:32.276000+00:00</time>
      </trkpt>
      <trkpt lat="0" lon="0">
        <time>2020-12-20T08:29:32.279000+00:00</time>
      </trkpt>
      <trkpt lat="47.31726" lon="-1.32466">
        <ele>65</ele>
        <time>2020-12-20T08:29:33.291000+00:00</time>
      </trkpt>
      <trkpt lat="0" lon="0">
        <time>2020-12-20T08:29:33.299000+00:00</time>
      </trkpt>
      <trkpt lat="0" lon="0">
        <time>2020-12-20T08:29:33.304000+00:00</time>
      </trkpt>
      <trkpt lat="0" lon="0">
        <time>2020-12-20T08:29:33.306000+00:00</time>
      </trkpt>
      <trkpt lat="47.31729" lon="-1.32466">
        <ele>65</ele>
        <time>2020-12-20T08:29:34.275000+00:00</time>
      </trkpt>
      <trkpt lat="0" lon="0">
        <time>2020-12-20T08:29:34.283000+00:00</time>
      </trkpt>
      <trkpt lat="0" lon="0">
        <time>2020-12-20T08:29:34.291000+00:00</time>
      </trkpt>
      <trkpt lat="0" lon="0">
        <time>2020-12-20T08:29:34.294000+00:00</time>
      </trkpt>
      <trkpt lat="47.31732" lon="-1.32466">
        <ele>66</ele>
        <time>2020-12-20T08:29:35.284000+00:00</time>
      </trkpt>
      <trkpt lat="0" lon="0">
        <time>2020-12-20T08:29:35.298000+00:00</time>
      </trkpt>
      <trkpt lat="0" lon="0">
        <time>2020-12-20T08:29:35.306000+00:00</time>
      </trkpt>
      <trkpt lat="0" lon="0">
        <time>2020-12-20T08:29:35.308000+00:00</time>
      </trkpt>
      <trkpt lat="47.31736" lon="-1.32468">
        <ele>66</ele>
        <time>2020-12-20T08:29:36.247000+00:00</time>
      </trkpt>
      <trkpt lat="0" lon="0">
        <time>2020-12-20T08:29:36.261000+00:00</time>
      </trkpt>
      <trkpt lat="0" lon="0">
        <time>2020-12-20T08:29:36.266000+00:00</time>
      </trkpt>
      <trkpt lat="0" lon="0">
        <time>2020-12-20T08:29:36.268000+00:00</time>
      </trkpt>
      <trkpt lat="47.31739" lon="-1.32469">
        <ele>66</ele>
        <time>2020-12-20T08:29:37.266000+00:00</time>
      </trkpt>
      <trkpt lat="0" lon="0">
        <time>2020-12-20T08:29:37.274000+00:00</time>
      </trkpt>
      <trkpt lat="0" lon="0">
        <time>2020-12-20T08:29:37.284000+00:00</time>
      </trkpt>
      <trkpt lat="0" lon="0">
        <time>2020-12-20T08:29:37.289000+00:00</time>
      </trkpt>
      <trkpt lat="47.31743" lon="-1.32471">
        <ele>66</ele>
        <time>2020-12-20T08:29:38.282000+00:00</time>
      </trkpt>
      <trkpt lat="0" lon="0">
        <time>2020-12-20T08:29:38.290000+00:00</time>
      </trkpt>
      <trkpt lat="0" lon="0">
        <time>2020-12-20T08:29:38.292000+00:00</time>
      </trkpt>
      <trkpt lat="0" lon="0">
        <time>2020-12-20T08:29:38.293000+00:00</time>
      </trkpt>
      <trkpt lat="47.31746" lon="-1.32473">
        <ele>66</ele>
        <time>2020-12-20T08:29:39.252000+00:00</time>
      </trkpt>
      <trkpt lat="0" lon="0">
        <time>2020-12-20T08:29:39.258000+00:00</time>
      </trkpt>
      <trkpt lat="0" lon="0">
        <time>2020-12-20T08:29:39.263000+00:00</time>
      </trkpt>
      <trkpt lat="0" lon="0">
        <time>2020-12-20T08:29:39.266000+00:00</time>
      </trkpt>
      <trkpt lat="47.31749" lon="-1.32475">
        <ele>66</ele>
        <time>2020-12-20T08:29:40.247000+00:00</time>
      </trkpt>
      <trkpt lat="0" lon="0">
        <time>2020-12-20T08:29:40.253000+00:00</time>
      </trkpt>
      <trkpt lat="0" lon="0">
        <time>2020-12-20T08:29:40.259000+00:00</time>
      </trkpt>
      <trkpt lat="0" lon="0">
        <time>2020-12-20T08:29:40.262000+00:00</time>
      </trkpt>
      <trkpt lat="47.31752" lon="-1.32477">
        <ele>66</ele>
        <time>2020-12-20T08:29:41.259000+00:00</time>
      </trkpt>
      <trkpt lat="0" lon="0">
        <time>2020-12-20T08:29:41.265000+00:00</time>
      </trkpt>
      <trkpt lat="0" lon="0">
        <time>2020-12-20T08:29:41.274000+00:00</time>
      </trkpt>
      <trkpt lat="0" lon="0">
        <time>2020-12-20T08:29:41.277000+00:00</time>
      </trkpt>
      <trkpt lat="47.31755" lon="-1.32479">
        <ele>66</ele>
        <time>2020-12-20T08:29:42.253000+00:00</time>
      </trkpt>
      <trkpt lat="0" lon="0">
        <time>2020-12-20T08:29:42.269000+00:00</time>
      </trkpt>
      <trkpt lat="0" lon="0">
        <time>2020-12-20T08:29:42.276000+00:00</time>
      </trkpt>
      <trkpt lat="0" lon="0">
        <time>2020-12-20T08:29:42.281000+00:00</time>
      </trkpt>
      <trkpt lat="47.31756" lon="-1.32481">
        <ele>66</ele>
        <time>2020-12-20T08:29:43.251000+00:00</time>
      </trkpt>
      <trkpt lat="0" lon="0">
        <time>2020-12-20T08:29:43.256000+00:00</time>
      </trkpt>
      <trkpt lat="0" lon="0">
        <time>2020-12-20T08:29:43.262000+00:00</time>
      </trkpt>
      <trkpt lat="0" lon="0">
        <time>2020-12-20T08:29:43.264000+00:00</time>
      </trkpt>
      <trkpt lat="47.31758" lon="-1.32482">
        <ele>65</ele>
        <time>2020-12-20T08:29:44.243000+00:00</time>
      </trkpt>
      <trkpt lat="0" lon="0">
        <time>2020-12-20T08:29:44.266000+00:00</time>
      </trkpt>
      <trkpt lat="0" lon="0">
        <time>2020-12-20T08:29:44.272000+00:00</time>
      </trkpt>
      <trkpt lat="0" lon="0">
        <time>2020-12-20T08:29:44.274000+00:00</time>
      </trkpt>
      <trkpt lat="47.31759" lon="-1.32484">
        <ele>65</ele>
        <time>2020-12-20T08:29:45.270000+00:00</time>
      </trkpt>
      <trkpt lat="0" lon="0">
        <time>2020-12-20T08:29:45.286000+00:00</time>
      </trkpt>
      <trkpt lat="0" lon="0">
        <time>2020-12-20T08:29:45.291000+00:00</time>
      </trkpt>
      <trkpt lat="0" lon="0">
        <time>2020-12-20T08:29:45.294000+00:00</time>
      </trkpt>
      <trkpt lat="47.3176" lon="-1.32485">
        <ele>65</ele>
        <time>2020-12-20T08:29:46.243000+00:00</time>
      </trkpt>
      <trkpt lat="0" lon="0">
        <time>2020-12-20T08:29:46.250000+00:00</time>
      </trkpt>
      <trkpt lat="0" lon="0">
        <time>2020-12-20T08:29:46.255000+00:00</time>
      </trkpt>
      <trkpt lat="0" lon="0">
        <time>2020-12-20T08:29:46.259000+00:00</time>
      </trkpt>
      <trkpt lat="47.3176" lon="-1.32486">
        <ele>66</ele>
        <time>2020-12-20T08:29:47.252000+00:00</time>
      </trkpt>
      <trkpt lat="0" lon="0">
        <time>2020-12-20T08:29:47.267000+00:00</time>
      </trkpt>
      <trkpt lat="0" lon="0">
        <time>2020-12-20T08:29:47.271000+00:00</time>
      </trkpt>
      <trkpt lat="0" lon="0">
        <time>2020-12-20T08:29:47.273000+00:00</time>
      </trkpt>
      <trkpt lat="47.31761" lon="-1.32487">
        <ele>66</ele>
        <time>2020-12-20T08:29:48.247000+00:00</time>
      </trkpt>
      <trkpt lat="0" lon="0">
        <time>2020-12-20T08:29:48.259000+00:00</time>
      </trkpt>
      <trkpt lat="0" lon="0">
        <time>2020-12-20T08:29:48.263000+00:00</time>
      </trkpt>
      <trkpt lat="0" lon="0">
        <time>2020-12-20T08:29:48.265000+00:00</time>
      </trkpt>
      <trkpt lat="47.31761" lon="-1.32487">
        <ele>66</ele>
        <time>2020-12-20T08:29:49.284000+00:00</time>
      </trkpt>
      <trkpt lat="0" lon="0">
        <time>2020-12-20T08:29:49.289000+00:00</time>
      </trkpt>
      <trkpt lat="0" lon="0">
        <time>2020-12-20T08:29:49.291000+00:00</time>
      </trkpt>
      <trkpt lat="0" lon="0">
        <time>2020-12-20T08:29:49.292000+00:00</time>
      </trkpt>
      <trkpt lat="47.31761" lon="-1.32488">
        <ele>66</ele>
        <time>2020-12-20T08:29:50.256000+00:00</time>
      </trkpt>
      <trkpt lat="0" lon="0">
        <time>2020-12-20T08:29:50.262000+00:00</time>
      </trkpt>
      <trkpt lat="0" lon="0">
        <time>2020-12-20T08:29:50.268000+00:00</time>
      </trkpt>
      <trkpt lat="0" lon="0">
        <time>2020-12-20T08:29:50.270000+00:00</time>
      </trkpt>
      <trkpt lat="47.3176" lon="-1.32488">
        <ele>66</ele>
        <time>2020-12-20T08:29:51.227000+00:00</time>
      </trkpt>
      <trkpt lat="0" lon="0">
        <time>2020-12-20T08:29:51.238000+00:00</time>
      </trkpt>
      <trkpt lat="0" lon="0">
        <time>2020-12-20T08:29:51.251000+00:00</time>
      </trkpt>
      <trkpt lat="0" lon="0">
        <time>2020-12-20T08:29:51.256000+00:00</time>
      </trkpt>
      <trkpt lat="47.3176" lon="-1.32488">
        <ele>66</ele>
        <time>2020-12-20T08:29:52.242000+00:00</time>
      </trkpt>
      <trkpt lat="0" lon="0">
        <time>2020-12-20T08:29:52.248000+00:00</time>
      </trkpt>
      <trkpt lat="0" lon="0">
        <time>2020-12-20T08:29:52.263000+00:00</time>
      </trkpt>
      <trkpt lat="0" lon="0">
        <time>2020-12-20T08:29:52.265000+00:00</time>
      </trkpt>
      <trkpt lat="47.3176" lon="-1.32488">
        <ele>66</ele>
        <time>2020-12-20T08:29:53.246000+00:00</time>
      </trkpt>
      <trkpt lat="0" lon="0">
        <time>2020-12-20T08:29:53.266000+00:00</time>
      </trkpt>
      <trkpt lat="0" lon="0">
        <time>2020-12-20T08:29:53.272000+00:00</time>
      </trkpt>
      <trkpt lat="0" lon="0">
        <time>2020-12-20T08:29:53.278000+00:00</time>
      </trkpt>
      <trkpt lat="47.31759" lon="-1.32489">
        <ele>65</ele>
        <time>2020-12-20T08:29:54.264000+00:00</time>
      </trkpt>
      <trkpt lat="0" lon="0">
        <time>2020-12-20T08:29:54.284000+00:00</time>
      </trkpt>
      <trkpt lat="0" lon="0">
        <time>2020-12-20T08:29:54.293000+00:00</time>
      </trkpt>
      <trkpt lat="0" lon="0">
        <time>2020-12-20T08:29:54.300000+00:00</time>
      </trkpt>
      <trkpt lat="47.31759" lon="-1.32489">
        <ele>65</ele>
        <time>2020-12-20T08:29:55.265000+00:00</time>
      </trkpt>
      <trkpt lat="0" lon="0">
        <time>2020-12-20T08:29:55.269000+00:00</time>
      </trkpt>
      <trkpt lat="0" lon="0">
        <time>2020-12-20T08:29:55.272000+00:00</time>
      </trkpt>
      <trkpt lat="0" lon="0">
        <time>2020-12-20T08:29:55.274000+00:00</time>
      </trkpt>
      <trkpt lat="47.3176" lon="-1.32489">
        <ele>65</ele>
        <time>2020-12-20T08:29:56.248000+00:00</time>
      </trkpt>
      <trkpt lat="0" lon="0">
        <time>2020-12-20T08:29:56.254000+00:00</time>
      </trkpt>
      <trkpt lat="0" lon="0">
        <time>2020-12-20T08:29:56.271000+00:00</time>
      </trkpt>
      <trkpt lat="0" lon="0">
        <time>2020-12-20T08:29:56.290000+00:00</time>
      </trkpt>
      <trkpt lat="47.31773" lon="-1.32476">
        <ele>65</ele>
        <time>2020-12-20T08:29:57.297000+00:00</time>
      </trkpt>
      <trkpt lat="0" lon="0">
        <time>2020-12-20T08:29:57.306000+00:00</time>
      </trkpt>
      <trkpt lat="0" lon="0">
        <time>2020-12-20T08:29:57.312000+00:00</time>
      </trkpt>
      <trkpt lat="0" lon="0">
        <time>2020-12-20T08:29:57.314000+00:00</time>
      </trkpt>
      <trkpt lat="47.31775" lon="-1.32474">
        <ele>65</ele>
        <time>2020-12-20T08:29:58.304000+00:00</time>
      </trkpt>
      <trkpt lat="0" lon="0">
        <time>2020-12-20T08:29:58.314000+00:00</time>
      </trkpt>
      <trkpt lat="0" lon="0">
        <time>2020-12-20T08:29:58.319000+00:00</time>
      </trkpt>
      <trkpt lat="0" lon="0">
        <time>2020-12-20T08:29:58.321000+00:00</time>
      </trkpt>
      <trkpt lat="47.31778" lon="-1.32472">
        <ele>65</ele>
        <time>2020-12-20T08:29:59.310000+00:00</time>
      </trkpt>
      <trkpt lat="0" lon="0">
        <time>2020-12-20T08:29:59.317000+00:00</time>
      </trkpt>
      <trkpt lat="0" lon="0">
        <time>2020-12-20T08:29:59.319000+00:00</time>
      </trkpt>
      <trkpt lat="0" lon="0">
        <time>2020-12-20T08:29:59.320000+00:00</time>
      </trkpt>
      <trkpt lat="47.3178" lon="-1.3247">
        <ele>66</ele>
        <time>2020-12-20T08:30:00.310000+00:00</time>
      </trkpt>
      <trkpt lat="0" lon="0">
        <time>2020-12-20T08:30:00.322000+00:00</time>
      </trkpt>
      <trkpt lat="0" lon="0">
        <time>2020-12-20T08:30:00.327000+00:00</time>
      </trkpt>
      <trkpt lat="0" lon="0">
        <time>2020-12-20T08:30:00.330000+00:00</time>
      </trkpt>
      <trkpt lat="47.31783" lon="-1.32467">
        <ele>65</ele>
        <time>2020-12-20T08:30:01.240000+00:00</time>
      </trkpt>
      <trkpt lat="0" lon="0">
        <time>2020-12-20T08:30:01.241000+00:00</time>
      </trkpt>
      <trkpt lat="0" lon="0">
        <time>2020-12-20T08:30:01.242000+00:00</time>
      </trkpt>
      <trkpt lat="47.31785" lon="-1.32465">
        <ele>66</ele>
        <time>2020-12-20T08:30:02.265000+00:00</time>
      </trkpt>
      <trkpt lat="0" lon="0">
        <time>2020-12-20T08:30:02.272000+00:00</time>
      </trkpt>
      <trkpt lat="0" lon="0">
        <time>2020-12-20T08:30:02.274000+00:00</time>
      </trkpt>
      <trkpt lat="0" lon="0">
        <time>2020-12-20T08:30:02.275000+00:00</time>
      </trkpt>
      <trkpt lat="47.31788" lon="-1.32463">
        <ele>66</ele>
        <time>2020-12-20T08:30:03.249000+00:00</time>
      </trkpt>
      <trkpt lat="0" lon="0">
        <time>2020-12-20T08:30:03.262000+00:00</time>
      </trkpt>
      <trkpt lat="0" lon="0">
        <time>2020-12-20T08:30:03.264000+00:00</time>
      </trkpt>
      <trkpt lat="0" lon="0">
        <time>2020-12-20T08:30:03.265000+00:00</time>
      </trkpt>
      <trkpt lat="47.31791" lon="-1.32461">
        <ele>66</ele>
        <time>2020-12-20T08:30:04.307000+00:00</time>
      </trkpt>
      <trkpt lat="0" lon="0">
        <time>2020-12-20T08:30:04.318000+00:00</time>
      </trkpt>
      <trkpt lat="0" lon="0">
        <time>2020-12-20T08:30:04.322000+00:00</time>
      </trkpt>
      <trkpt lat="0" lon="0">
        <time>2020-12-20T08:30:04.326000+00:00</time>
      </trkpt>
      <trkpt lat="47.31793" lon="-1.32459">
        <ele>67</ele>
        <time>2020-12-20T08:30:05.308000+00:00</time>
      </trkpt>
      <trkpt lat="0" lon="0">
        <time>2020-12-20T08:30:05.320000+00:00</time>
      </trkpt>
      <trkpt lat="0" lon="0">
        <time>2020-12-20T08:30:05.327000+00:00</time>
      </trkpt>
      <trkpt lat="0" lon="0">
        <time>2020-12-20T08:30:05.329000+00:00</time>
      </trkpt>
      <trkpt lat="47.31796" lon="-1.32457">
        <ele>67</ele>
        <time>2020-12-20T08:30:06.338000+00:00</time>
      </trkpt>
      <trkpt lat="0" lon="0">
        <time>2020-12-20T08:30:06.340000+00:00</time>
      </trkpt>
      <trkpt lat="0" lon="0">
        <time>2020-12-20T08:30:06.343000+00:00</time>
      </trkpt>
      <trkpt lat="0" lon="0">
        <time>2020-12-20T08:30:06.344000+00:00</time>
      </trkpt>
      <trkpt lat="47.31798" lon="-1.32454">
        <ele>67</ele>
        <time>2020-12-20T08:30:07.337000+00:00</time>
      </trkpt>
      <trkpt lat="0" lon="0">
        <time>2020-12-20T08:30:07.348000+00:00</time>
      </trkpt>
      <trkpt lat="0" lon="0">
        <time>2020-12-20T08:30:07.359000+00:00</time>
      </trkpt>
      <trkpt lat="0" lon="0">
        <time>2020-12-20T08:30:07.363000+00:00</time>
      </trkpt>
      <trkpt lat="47.318" lon="-1.32452">
        <ele>68</ele>
        <time>2020-12-20T08:30:08.329000+00:00</time>
      </trkpt>
      <trkpt lat="0" lon="0">
        <time>2020-12-20T08:30:08.348000+00:00</time>
      </trkpt>
      <trkpt lat="0" lon="0">
        <time>2020-12-20T08:30:08.353000+00:00</time>
      </trkpt>
      <trkpt lat="0" lon="0">
        <time>2020-12-20T08:30:08.356000+00:00</time>
      </trkpt>
      <trkpt lat="47.31803" lon="-1.3245">
        <ele>69</ele>
        <time>2020-12-20T08:30:09.341000+00:00</time>
      </trkpt>
      <trkpt lat="0" lon="0">
        <time>2020-12-20T08:30:09.350000+00:00</time>
      </trkpt>
      <trkpt lat="0" lon="0">
        <time>2020-12-20T08:30:09.355000+00:00</time>
      </trkpt>
      <trkpt lat="0" lon="0">
        <time>2020-12-20T08:30:09.360000+00:00</time>
      </trkpt>
      <trkpt lat="47.31805" lon="-1.32448">
        <ele>69</ele>
        <time>2020-12-20T08:30:10.318000+00:00</time>
      </trkpt>
      <trkpt lat="0" lon="0">
        <time>2020-12-20T08:30:10.326000+00:00</time>
      </trkpt>
      <trkpt lat="0" lon="0">
        <time>2020-12-20T08:30:10.330000+00:00</time>
      </trkpt>
      <trkpt lat="0" lon="0">
        <time>2020-12-20T08:30:10.333000+00:00</time>
      </trkpt>
      <trkpt lat="47.31807" lon="-1.32446">
        <ele>69</ele>
        <time>2020-12-20T08:30:11.308000+00:00</time>
      </trkpt>
      <trkpt lat="0" lon="0">
        <time>2020-12-20T08:30:11.313000+00:00</time>
      </trkpt>
      <trkpt lat="0" lon="0">
        <time>2020-12-20T08:30:11.318000+00:00</time>
      </trkpt>
      <trkpt lat="0" lon="0">
        <time>2020-12-20T08:30:11.323000+00:00</time>
      </trkpt>
      <trkpt lat="47.31809" lon="-1.32444">
        <ele>69</ele>
        <time>2020-12-20T08:30:12.328000+00:00</time>
      </trkpt>
      <trkpt lat="0" lon="0">
        <time>2020-12-20T08:30:12.337000+00:00</time>
      </trkpt>
      <trkpt lat="0" lon="0">
        <time>2020-12-20T08:30:12.343000+00:00</time>
      </trkpt>
      <trkpt lat="0" lon="0">
        <time>2020-12-20T08:30:12.346000+00:00</time>
      </trkpt>
      <trkpt lat="47.31811" lon="-1.32443">
        <ele>69</ele>
        <time>2020-12-20T08:30:13.324000+00:00</time>
      </trkpt>
      <trkpt lat="0" lon="0">
        <time>2020-12-20T08:30:13.335000+00:00</time>
      </trkpt>
      <trkpt lat="0" lon="0">
        <time>2020-12-20T08:30:13.339000+00:00</time>
      </trkpt>
      <trkpt lat="0" lon="0">
        <time>2020-12-20T08:30:13.342000+00:00</time>
      </trkpt>
      <trkpt lat="47.31813" lon="-1.32441">
        <ele>69</ele>
        <time>2020-12-20T08:30:14.335000+00:00</time>
      </trkpt>
      <trkpt lat="0" lon="0">
        <time>2020-12-20T08:30:14.346000+00:00</time>
      </trkpt>
      <trkpt lat="0" lon="0">
        <time>2020-12-20T08:30:14.354000+00:00</time>
      </trkpt>
      <trkpt lat="0" lon="0">
        <time>2020-12-20T08:30:14.357000+00:00</time>
      </trkpt>
      <trkpt lat="47.31816" lon="-1.32439">
        <ele>70</ele>
        <time>2020-12-20T08:30:15.294000+00:00</time>
      </trkpt>
      <trkpt lat="0" lon="0">
        <time>2020-12-20T08:30:15.302000+00:00</time>
      </trkpt>
      <trkpt lat="0" lon="0">
        <time>2020-12-20T08:30:15.305000+00:00</time>
      </trkpt>
      <trkpt lat="0" lon="0">
        <time>2020-12-20T08:30:15.306000+00:00</time>
      </trkpt>
      <trkpt lat="47.31818" lon="-1.32437">
        <ele>70</ele>
        <time>2020-12-20T08:30:16.319000+00:00</time>
      </trkpt>
      <trkpt lat="0" lon="0">
        <time>2020-12-20T08:30:16.327000+00:00</time>
      </trkpt>
      <trkpt lat="0" lon="0">
        <time>2020-12-20T08:30:16.337000+00:00</time>
      </trkpt>
      <trkpt lat="0" lon="0">
        <time>2020-12-20T08:30:16.339000+00:00</time>
      </trkpt>
      <trkpt lat="47.3182" lon="-1.32434">
        <ele>71</ele>
        <time>2020-12-20T08:30:17.336000+00:00</time>
      </trkpt>
      <trkpt lat="0" lon="0">
        <time>2020-12-20T08:30:17.341000+00:00</time>
      </trkpt>
      <trkpt lat="0" lon="0">
        <time>2020-12-20T08:30:17.349000+00:00</time>
      </trkpt>
      <trkpt lat="0" lon="0">
        <time>2020-12-20T08:30:17.352000+00:00</time>
      </trkpt>
      <trkpt lat="47.31823" lon="-1.32432">
        <ele>71</ele>
        <time>2020-12-20T08:30:18.310000+00:00</time>
      </trkpt>
      <trkpt lat="0" lon="0">
        <time>2020-12-20T08:30:18.325000+00:00</time>
      </trkpt>
      <trkpt lat="0" lon="0">
        <time>2020-12-20T08:30:18.329000+00:00</time>
      </trkpt>
      <trkpt lat="0" lon="0">
        <time>2020-12-20T08:30:18.332000+00:00</time>
      </trkpt>
      <trkpt lat="47.31825" lon="-1.3243">
        <ele>72</ele>
        <time>2020-12-20T08:30:19.318000+00:00</time>
      </trkpt>
      <trkpt lat="0" lon="0">
        <time>2020-12-20T08:30:19.334000+00:00</time>
      </trkpt>
      <trkpt lat="0" lon="0">
        <time>2020-12-20T08:30:19.343000+00:00</time>
      </trkpt>
      <trkpt lat="0" lon="0">
        <time>2020-12-20T08:30:19.345000+00:00</time>
      </trkpt>
      <trkpt lat="47.31827" lon="-1.32428">
        <ele>72</ele>
        <time>2020-12-20T08:30:20.297000+00:00</time>
      </trkpt>
      <trkpt lat="0" lon="0">
        <time>2020-12-20T08:30:20.317000+00:00</time>
      </trkpt>
      <trkpt lat="0" lon="0">
        <time>2020-12-20T08:30:20.324000+00:00</time>
      </trkpt>
      <trkpt lat="0" lon="0">
        <time>2020-12-20T08:30:20.326000+00:00</time>
      </trkpt>
      <trkpt lat="47.3183" lon="-1.32425">
        <ele>73</ele>
        <time>2020-12-20T08:30:21.292000+00:00</time>
      </trkpt>
      <trkpt lat="0" lon="0">
        <time>2020-12-20T08:30:21.298000+00:00</time>
      </trkpt>
      <trkpt lat="0" lon="0">
        <time>2020-12-20T08:30:21.304000+00:00</time>
      </trkpt>
      <trkpt lat="0" lon="0">
        <time>2020-12-20T08:30:21.312000+00:00</time>
      </trkpt>
      <trkpt lat="47.31832" lon="-1.32423">
        <ele>73</ele>
        <time>2020-12-20T08:30:22.289000+00:00</time>
      </trkpt>
      <trkpt lat="0" lon="0">
        <time>2020-12-20T08:30:22.304000+00:00</time>
      </trkpt>
      <trkpt lat="0" lon="0">
        <time>2020-12-20T08:30:22.306000+00:00</time>
      </trkpt>
      <trkpt lat="0" lon="0">
        <time>2020-12-20T08:30:22.308000+00:00</time>
      </trkpt>
      <trkpt lat="47.31834" lon="-1.3242">
        <ele>73</ele>
        <time>2020-12-20T08:30:23.293000+00:00</time>
      </trkpt>
      <trkpt lat="0" lon="0">
        <time>2020-12-20T08:30:23.306000+00:00</time>
      </trkpt>
      <trkpt lat="0" lon="0">
        <time>2020-12-20T08:30:23.317000+00:00</time>
      </trkpt>
      <trkpt lat="0" lon="0">
        <time>2020-12-20T08:30:23.319000+00:00</time>
      </trkpt>
      <trkpt lat="47.31836" lon="-1.32417">
        <ele>73</ele>
        <time>2020-12-20T08:30:24.351000+00:00</time>
      </trkpt>
      <trkpt lat="0" lon="0">
        <time>2020-12-20T08:30:24.360000+00:00</time>
      </trkpt>
      <trkpt lat="0" lon="0">
        <time>2020-12-20T08:30:24.372000+00:00</time>
      </trkpt>
      <trkpt lat="0" lon="0">
        <time>2020-12-20T08:30:24.374000+00:00</time>
      </trkpt>
      <trkpt lat="47.31838" lon="-1.32415">
        <ele>73</ele>
        <time>2020-12-20T08:30:25.346000+00:00</time>
      </trkpt>
      <trkpt lat="0" lon="0">
        <time>2020-12-20T08:30:25.354000+00:00</time>
      </trkpt>
      <trkpt lat="0" lon="0">
        <time>2020-12-20T08:30:25.360000+00:00</time>
      </trkpt>
      <trkpt lat="0" lon="0">
        <time>2020-12-20T08:30:25.362000+00:00</time>
      </trkpt>
      <trkpt lat="47.3184" lon="-1.32412">
        <ele>74</ele>
        <time>2020-12-20T08:30:26.323000+00:00</time>
      </trkpt>
      <trkpt lat="0" lon="0">
        <time>2020-12-20T08:30:26.332000+00:00</time>
      </trkpt>
      <trkpt lat="0" lon="0">
        <time>2020-12-20T08:30:26.339000+00:00</time>
      </trkpt>
      <trkpt lat="0" lon="0">
        <time>2020-12-20T08:30:26.348000+00:00</time>
      </trkpt>
      <trkpt lat="47.31842" lon="-1.32408">
        <ele>74</ele>
        <time>2020-12-20T08:30:27.345000+00:00</time>
      </trkpt>
      <trkpt lat="0" lon="0">
        <time>2020-12-20T08:30:27.352000+00:00</time>
      </trkpt>
      <trkpt lat="0" lon="0">
        <time>2020-12-20T08:30:27.369000+00:00</time>
      </trkpt>
      <trkpt lat="0" lon="0">
        <time>2020-12-20T08:30:27.372000+00:00</time>
      </trkpt>
      <trkpt lat="47.31844" lon="-1.32405">
        <ele>74</ele>
        <time>2020-12-20T08:30:28.332000+00:00</time>
      </trkpt>
      <trkpt lat="0" lon="0">
        <time>2020-12-20T08:30:28.347000+00:00</time>
      </trkpt>
      <trkpt lat="0" lon="0">
        <time>2020-12-20T08:30:28.359000+00:00</time>
      </trkpt>
      <trkpt lat="0" lon="0">
        <time>2020-12-20T08:30:28.366000+00:00</time>
      </trkpt>
      <trkpt lat="47.31846" lon="-1.32401">
        <ele>74</ele>
        <time>2020-12-20T08:30:29.342000+00:00</time>
      </trkpt>
      <trkpt lat="0" lon="0">
        <time>2020-12-20T08:30:29.354000+00:00</time>
      </trkpt>
      <trkpt lat="0" lon="0">
        <time>2020-12-20T08:30:29.364000+00:00</time>
      </trkpt>
      <trkpt lat="0" lon="0">
        <time>2020-12-20T08:30:29.366000+00:00</time>
      </trkpt>
      <trkpt lat="47.31848" lon="-1.32397">
        <ele>74</ele>
        <time>2020-12-20T08:30:30.297000+00:00</time>
      </trkpt>
      <trkpt lat="0" lon="0">
        <time>2020-12-20T08:30:30.307000+00:00</time>
      </trkpt>
      <trkpt lat="0" lon="0">
        <time>2020-12-20T08:30:30.316000+00:00</time>
      </trkpt>
      <trkpt lat="0" lon="0">
        <time>2020-12-20T08:30:30.319000+00:00</time>
      </trkpt>
      <trkpt lat="47.3185" lon="-1.32392">
        <ele>74</ele>
        <time>2020-12-20T08:30:31.330000+00:00</time>
      </trkpt>
      <trkpt lat="0" lon="0">
        <time>2020-12-20T08:30:31.338000+00:00</time>
      </trkpt>
      <trkpt lat="0" lon="0">
        <time>2020-12-20T08:30:31.341000+00:00</time>
      </trkpt>
      <trkpt lat="0" lon="0">
        <time>2020-12-20T08:30:31.345000+00:00</time>
      </trkpt>
      <trkpt lat="47.31852" lon="-1.32388">
        <ele>74</ele>
        <time>2020-12-20T08:30:32.299000+00:00</time>
      </trkpt>
      <trkpt lat="0" lon="0">
        <time>2020-12-20T08:30:32.302000+00:00</time>
      </trkpt>
      <trkpt lat="0" lon="0">
        <time>2020-12-20T08:30:32.306000+00:00</time>
      </trkpt>
      <trkpt lat="0" lon="0">
        <time>2020-12-20T08:30:32.308000+00:00</time>
      </trkpt>
      <trkpt lat="47.31854" lon="-1.32383">
        <ele>74</ele>
        <time>2020-12-20T08:30:33.297000+00:00</time>
      </trkpt>
      <trkpt lat="0" lon="0">
        <time>2020-12-20T08:30:33.301000+00:00</time>
      </trkpt>
      <trkpt lat="0" lon="0">
        <time>2020-12-20T08:30:33.316000+00:00</time>
      </trkpt>
      <trkpt lat="0" lon="0">
        <time>2020-12-20T08:30:33.318000+00:00</time>
      </trkpt>
      <trkpt lat="47.31856" lon="-1.32378">
        <ele>74</ele>
        <time>2020-12-20T08:30:34.332000+00:00</time>
      </trkpt>
      <trkpt lat="0" lon="0">
        <time>2020-12-20T08:30:34.340000+00:00</time>
      </trkpt>
      <trkpt lat="0" lon="0">
        <time>2020-12-20T08:30:34.346000+00:00</time>
      </trkpt>
      <trkpt lat="0" lon="0">
        <time>2020-12-20T08:30:34.348000+00:00</time>
      </trkpt>
      <trkpt lat="47.31858" lon="-1.32373">
        <ele>73</ele>
        <time>2020-12-20T08:30:35.337000+00:00</time>
      </trkpt>
      <trkpt lat="0" lon="0">
        <time>2020-12-20T08:30:35.346000+00:00</time>
      </trkpt>
      <trkpt lat="0" lon="0">
        <time>2020-12-20T08:30:35.352000+00:00</time>
      </trkpt>
      <trkpt lat="0" lon="0">
        <time>2020-12-20T08:30:35.355000+00:00</time>
      </trkpt>
      <trkpt lat="47.31861" lon="-1.32368">
        <ele>74</ele>
        <time>2020-12-20T08:30:36.333000+00:00</time>
      </trkpt>
      <trkpt lat="0" lon="0">
        <time>2020-12-20T08:30:36.338000+00:00</time>
      </trkpt>
      <trkpt lat="0" lon="0">
        <time>2020-12-20T08:30:36.344000+00:00</time>
      </trkpt>
      <trkpt lat="0" lon="0">
        <time>2020-12-20T08:30:36.348000+00:00</time>
      </trkpt>
      <trkpt lat="47.31863" lon="-1.32363">
        <ele>74</ele>
        <time>2020-12-20T08:30:37.359000+00:00</time>
      </trkpt>
      <trkpt lat="0" lon="0">
        <time>2020-12-20T08:30:37.368000+00:00</time>
      </trkpt>
      <trkpt lat="0" lon="0">
        <time>2020-12-20T08:30:37.373000+00:00</time>
      </trkpt>
      <trkpt lat="0" lon="0">
        <time>2020-12-20T08:30:37.376000+00:00</time>
      </trkpt>
      <trkpt lat="47.31865" lon="-1.32359">
        <ele>74</ele>
        <time>2020-12-20T08:30:38.288000+00:00</time>
      </trkpt>
      <trkpt lat="0" lon="0">
        <time>2020-12-20T08:30:38.297000+00:00</time>
      </trkpt>
      <trkpt lat="0" lon="0">
        <time>2020-12-20T08:30:38.303000+00:00</time>
      </trkpt>
      <trkpt lat="0" lon="0">
        <time>2020-12-20T08:30:38.308000+00:00</time>
      </trkpt>
      <trkpt lat="47.31868" lon="-1.32354">
        <ele>75</ele>
        <time>2020-12-20T08:30:39.329000+00:00</time>
      </trkpt>
      <trkpt lat="0" lon="0">
        <time>2020-12-20T08:30:39.341000+00:00</time>
      </trkpt>
      <trkpt lat="0" lon="0">
        <time>2020-12-20T08:30:39.346000+00:00</time>
      </trkpt>
      <trkpt lat="0" lon="0">
        <time>2020-12-20T08:30:39.349000+00:00</time>
      </trkpt>
      <trkpt lat="47.3187" lon="-1.32349">
        <ele>74</ele>
        <time>2020-12-20T08:30:40.337000+00:00</time>
      </trkpt>
      <trkpt lat="0" lon="0">
        <time>2020-12-20T08:30:40.348000+00:00</time>
      </trkpt>
      <trkpt lat="0" lon="0">
        <time>2020-12-20T08:30:40.352000+00:00</time>
      </trkpt>
      <trkpt lat="0" lon="0">
        <time>2020-12-20T08:30:40.355000+00:00</time>
      </trkpt>
      <trkpt lat="47.31873" lon="-1.32345">
        <ele>74</ele>
        <time>2020-12-20T08:30:41.323000+00:00</time>
      </trkpt>
      <trkpt lat="0" lon="0">
        <time>2020-12-20T08:30:41.336000+00:00</time>
      </trkpt>
      <trkpt lat="0" lon="0">
        <time>2020-12-20T08:30:41.341000+00:00</time>
      </trkpt>
      <trkpt lat="0" lon="0">
        <time>2020-12-20T08:30:41.343000+00:00</time>
      </trkpt>
      <trkpt lat="47.31875" lon="-1.32339">
        <ele>75</ele>
        <time>2020-12-20T08:30:42.320000+00:00</time>
      </trkpt>
      <trkpt lat="0" lon="0">
        <time>2020-12-20T08:30:42.327000+00:00</time>
      </trkpt>
      <trkpt lat="0" lon="0">
        <time>2020-12-20T08:30:42.333000+00:00</time>
      </trkpt>
      <trkpt lat="0" lon="0">
        <time>2020-12-20T08:30:42.339000+00:00</time>
      </trkpt>
      <trkpt lat="47.31878" lon="-1.32334">
        <ele>76</ele>
        <time>2020-12-20T08:30:43.344000+00:00</time>
      </trkpt>
      <trkpt lat="0" lon="0">
        <time>2020-12-20T08:30:43.357000+00:00</time>
      </trkpt>
      <trkpt lat="0" lon="0">
        <time>2020-12-20T08:30:43.361000+00:00</time>
      </trkpt>
      <trkpt lat="0" lon="0">
        <time>2020-12-20T08:30:43.362000+00:00</time>
      </trkpt>
      <trkpt lat="47.31881" lon="-1.32328">
        <ele>76</ele>
        <time>2020-12-20T08:30:44.318000+00:00</time>
      </trkpt>
      <trkpt lat="0" lon="0">
        <time>2020-12-20T08:30:44.326000+00:00</time>
      </trkpt>
      <trkpt lat="0" lon="0">
        <time>2020-12-20T08:30:44.330000+00:00</time>
      </trkpt>
      <trkpt lat="0" lon="0">
        <time>2020-12-20T08:30:44.334000+00:00</time>
      </trkpt>
      <trkpt lat="47.31884" lon="-1.32322">
        <ele>76</ele>
        <time>2020-12-20T08:30:45.326000+00:00</time>
      </trkpt>
      <trkpt lat="0" lon="0">
        <time>2020-12-20T08:30:45.330000+00:00</time>
      </trkpt>
      <trkpt lat="0" lon="0">
        <time>2020-12-20T08:30:45.335000+00:00</time>
      </trkpt>
      <trkpt lat="0" lon="0">
        <time>2020-12-20T08:30:45.346000+00:00</time>
      </trkpt>
      <trkpt lat="47.31887" lon="-1.32316">
        <ele>75</ele>
        <time>2020-12-20T08:30:46.346000+00:00</time>
      </trkpt>
      <trkpt lat="0" lon="0">
        <time>2020-12-20T08:30:46.353000+00:00</time>
      </trkpt>
      <trkpt lat="0" lon="0">
        <time>2020-12-20T08:30:46.359000+00:00</time>
      </trkpt>
      <trkpt lat="0" lon="0">
        <time>2020-12-20T08:30:46.363000+00:00</time>
      </trkpt>
      <trkpt lat="47.3189" lon="-1.3231">
        <ele>75</ele>
        <time>2020-12-20T08:30:47.333000+00:00</time>
      </trkpt>
      <trkpt lat="0" lon="0">
        <time>2020-12-20T08:30:47.338000+00:00</time>
      </trkpt>
      <trkpt lat="0" lon="0">
        <time>2020-12-20T08:30:47.345000+00:00</time>
      </trkpt>
      <trkpt lat="0" lon="0">
        <time>2020-12-20T08:30:47.348000+00:00</time>
      </trkpt>
      <trkpt lat="47.31893" lon="-1.32305">
        <ele>74</ele>
        <time>2020-12-20T08:30:48.326000+00:00</time>
      </trkpt>
      <trkpt lat="0" lon="0">
        <time>2020-12-20T08:30:48.331000+00:00</time>
      </trkpt>
      <trkpt lat="0" lon="0">
        <time>2020-12-20T08:30:48.338000+00:00</time>
      </trkpt>
      <trkpt lat="0" lon="0">
        <time>2020-12-20T08:30:48.340000+00:00</time>
      </trkpt>
      <trkpt lat="47.31895" lon="-1.32299">
        <ele>73</ele>
        <time>2020-12-20T08:30:49.279000+00:00</time>
      </trkpt>
      <trkpt lat="0" lon="0">
        <time>2020-12-20T08:30:49.294000+00:00</time>
      </trkpt>
      <trkpt lat="0" lon="0">
        <time>2020-12-20T08:30:49.298000+00:00</time>
      </trkpt>
      <trkpt lat="0" lon="0">
        <time>2020-12-20T08:30:49.301000+00:00</time>
      </trkpt>
      <trkpt lat="47.31898" lon="-1.32294">
        <ele>74</ele>
        <time>2020-12-20T08:30:50.321000+00:00</time>
      </trkpt>
      <trkpt lat="0" lon="0">
        <time>2020-12-20T08:30:50.330000+00:00</time>
      </trkpt>
      <trkpt lat="0" lon="0">
        <time>2020-12-20T08:30:50.334000+00:00</time>
      </trkpt>
      <trkpt lat="0" lon="0">
        <time>2020-12-20T08:30:50.337000+00:00</time>
      </trkpt>
      <trkpt lat="47.319" lon="-1.32289">
        <ele>74</ele>
        <time>2020-12-20T08:30:51.355000+00:00</time>
      </trkpt>
      <trkpt lat="0" lon="0">
        <time>2020-12-20T08:30:51.359000+00:00</time>
      </trkpt>
      <trkpt lat="0" lon="0">
        <time>2020-12-20T08:30:51.364000+00:00</time>
      </trkpt>
      <trkpt lat="0" lon="0">
        <time>2020-12-20T08:30:51.366000+00:00</time>
      </trkpt>
      <trkpt lat="47.31903" lon="-1.32284">
        <ele>74</ele>
        <time>2020-12-20T08:30:52.326000+00:00</time>
      </trkpt>
      <trkpt lat="0" lon="0">
        <time>2020-12-20T08:30:52.341000+00:00</time>
      </trkpt>
      <trkpt lat="0" lon="0">
        <time>2020-12-20T08:30:52.351000+00:00</time>
      </trkpt>
      <trkpt lat="0" lon="0">
        <time>2020-12-20T08:30:52.355000+00:00</time>
      </trkpt>
      <trkpt lat="47.31905" lon="-1.32279">
        <ele>74</ele>
        <time>2020-12-20T08:30:53.362000+00:00</time>
      </trkpt>
      <trkpt lat="0" lon="0">
        <time>2020-12-20T08:30:53.375000+00:00</time>
      </trkpt>
      <trkpt lat="0" lon="0">
        <time>2020-12-20T08:30:53.379000+00:00</time>
      </trkpt>
      <trkpt lat="0" lon="0">
        <time>2020-12-20T08:30:53.382000+00:00</time>
      </trkpt>
      <trkpt lat="47.31907" lon="-1.32274">
        <ele>74</ele>
        <time>2020-12-20T08:30:54.287000+00:00</time>
      </trkpt>
      <trkpt lat="0" lon="0">
        <time>2020-12-20T08:30:54.304000+00:00</time>
      </trkpt>
      <trkpt lat="0" lon="0">
        <time>2020-12-20T08:30:54.314000+00:00</time>
      </trkpt>
      <trkpt lat="0" lon="0">
        <time>2020-12-20T08:30:54.317000+00:00</time>
      </trkpt>
      <trkpt lat="47.31909" lon="-1.32268">
        <ele>73</ele>
        <time>2020-12-20T08:30:55.328000+00:00</time>
      </trkpt>
      <trkpt lat="0" lon="0">
        <time>2020-12-20T08:30:55.340000+00:00</time>
      </trkpt>
      <trkpt lat="0" lon="0">
        <time>2020-12-20T08:30:55.347000+00:00</time>
      </trkpt>
      <trkpt lat="0" lon="0">
        <time>2020-12-20T08:30:55.351000+00:00</time>
      </trkpt>
      <trkpt lat="47.3191" lon="-1.32262">
        <ele>72</ele>
        <time>2020-12-20T08:30:56.305000+00:00</time>
      </trkpt>
      <trkpt lat="0" lon="0">
        <time>2020-12-20T08:30:56.314000+00:00</time>
      </trkpt>
      <trkpt lat="0" lon="0">
        <time>2020-12-20T08:30:56.322000+00:00</time>
      </trkpt>
      <trkpt lat="0" lon="0">
        <time>2020-12-20T08:30:56.328000+00:00</time>
      </trkpt>
      <trkpt lat="47.31912" lon="-1.32257">
        <ele>72</ele>
        <time>2020-12-20T08:30:57.234000+00:00</time>
      </trkpt>
      <trkpt lat="0" lon="0">
        <time>2020-12-20T08:30:57.242000+00:00</time>
      </trkpt>
      <trkpt lat="0" lon="0">
        <time>2020-12-20T08:30:57.246000+00:00</time>
      </trkpt>
      <trkpt lat="0" lon="0">
        <time>2020-12-20T08:30:57.248000+00:00</time>
      </trkpt>
      <trkpt lat="47.31913" lon="-1.32252">
        <ele>72</ele>
        <time>2020-12-20T08:30:58.294000+00:00</time>
      </trkpt>
      <trkpt lat="0" lon="0">
        <time>2020-12-20T08:30:58.303000+00:00</time>
      </trkpt>
      <trkpt lat="0" lon="0">
        <time>2020-12-20T08:30:58.307000+00:00</time>
      </trkpt>
      <trkpt lat="0" lon="0">
        <time>2020-12-20T08:30:58.309000+00:00</time>
      </trkpt>
      <trkpt lat="47.31913" lon="-1.32247">
        <ele>73</ele>
        <time>2020-12-20T08:30:59.287000+00:00</time>
      </trkpt>
      <trkpt lat="0" lon="0">
        <time>2020-12-20T08:30:59.292000+00:00</time>
      </trkpt>
      <trkpt lat="0" lon="0">
        <time>2020-12-20T08:30:59.298000+00:00</time>
      </trkpt>
      <trkpt lat="0" lon="0">
        <time>2020-12-20T08:30:59.308000+00:00</time>
      </trkpt>
      <trkpt lat="47.31913" lon="-1.32244">
        <ele>73</ele>
        <time>2020-12-20T08:31:00.272000+00:00</time>
      </trkpt>
      <trkpt lat="0" lon="0">
        <time>2020-12-20T08:31:00.273000+00:00</time>
      </trkpt>
      <trkpt lat="0" lon="0">
        <time>2020-12-20T08:31:00.274000+00:00</time>
      </trkpt>
      <trkpt lat="47.31912" lon="-1.3224">
        <ele>72</ele>
        <time>2020-12-20T08:31:01.322000+00:00</time>
      </trkpt>
      <trkpt lat="0" lon="0">
        <time>2020-12-20T08:31:01.333000+00:00</time>
      </trkpt>
      <trkpt lat="0" lon="0">
        <time>2020-12-20T08:31:01.342000+00:00</time>
      </trkpt>
      <trkpt lat="0" lon="0">
        <time>2020-12-20T08:31:01.345000+00:00</time>
      </trkpt>
      <trkpt lat="47.31911" lon="-1.32238">
        <ele>73</ele>
        <time>2020-12-20T08:31:02.306000+00:00</time>
      </trkpt>
      <trkpt lat="0" lon="0">
        <time>2020-12-20T08:31:02.317000+00:00</time>
      </trkpt>
      <trkpt lat="0" lon="0">
        <time>2020-12-20T08:31:02.331000+00:00</time>
      </trkpt>
      <trkpt lat="0" lon="0">
        <time>2020-12-20T08:31:02.339000+00:00</time>
      </trkpt>
      <trkpt lat="47.31909" lon="-1.32236">
        <ele>73</ele>
        <time>2020-12-20T08:31:03.306000+00:00</time>
      </trkpt>
      <trkpt lat="0" lon="0">
        <time>2020-12-20T08:31:03.315000+00:00</time>
      </trkpt>
      <trkpt lat="0" lon="0">
        <time>2020-12-20T08:31:03.322000+00:00</time>
      </trkpt>
      <trkpt lat="0" lon="0">
        <time>2020-12-20T08:31:03.324000+00:00</time>
      </trkpt>
      <trkpt lat="47.31907" lon="-1.32234">
        <ele>73</ele>
        <time>2020-12-20T08:31:04.308000+00:00</time>
      </trkpt>
      <trkpt lat="0" lon="0">
        <time>2020-12-20T08:31:04.319000+00:00</time>
      </trkpt>
      <trkpt lat="0" lon="0">
        <time>2020-12-20T08:31:04.325000+00:00</time>
      </trkpt>
      <trkpt lat="0" lon="0">
        <time>2020-12-20T08:31:04.327000+00:00</time>
      </trkpt>
      <trkpt lat="47.31904" lon="-1.32233">
        <ele>73</ele>
        <time>2020-12-20T08:31:05.328000+00:00</time>
      </trkpt>
      <trkpt lat="0" lon="0">
        <time>2020-12-20T08:31:05.332000+00:00</time>
      </trkpt>
      <trkpt lat="0" lon="0">
        <time>2020-12-20T08:31:05.333000+00:00</time>
      </trkpt>
      <trkpt lat="0" lon="0">
        <time>2020-12-20T08:31:05.335000+00:00</time>
      </trkpt>
      <trkpt lat="47.31902" lon="-1.32231">
        <ele>73</ele>
        <time>2020-12-20T08:31:06.314000+00:00</time>
      </trkpt>
      <trkpt lat="0" lon="0">
        <time>2020-12-20T08:31:06.329000+00:00</time>
      </trkpt>
      <trkpt lat="0" lon="0">
        <time>2020-12-20T08:31:06.334000+00:00</time>
      </trkpt>
      <trkpt lat="0" lon="0">
        <time>2020-12-20T08:31:06.338000+00:00</time>
      </trkpt>
      <trkpt lat="47.319" lon="-1.32229">
        <ele>74</ele>
        <time>2020-12-20T08:31:07.355000+00:00</time>
      </trkpt>
      <trkpt lat="0" lon="0">
        <time>2020-12-20T08:31:07.368000+00:00</time>
      </trkpt>
      <trkpt lat="0" lon="0">
        <time>2020-12-20T08:31:07.372000+00:00</time>
      </trkpt>
      <trkpt lat="0" lon="0">
        <time>2020-12-20T08:31:07.374000+00:00</time>
      </trkpt>
      <trkpt lat="47.31898" lon="-1.32227">
        <ele>74</ele>
        <time>2020-12-20T08:31:08.324000+00:00</time>
      </trkpt>
      <trkpt lat="0" lon="0">
        <time>2020-12-20T08:31:08.334000+00:00</time>
      </trkpt>
      <trkpt lat="0" lon="0">
        <time>2020-12-20T08:31:08.339000+00:00</time>
      </trkpt>
      <trkpt lat="0" lon="0">
        <time>2020-12-20T08:31:08.343000+00:00</time>
      </trkpt>
      <trkpt lat="47.31896" lon="-1.32224">
        <ele>74</ele>
        <time>2020-12-20T08:31:09.294000+00:00</time>
      </trkpt>
      <trkpt lat="0" lon="0">
        <time>2020-12-20T08:31:09.302000+00:00</time>
      </trkpt>
      <trkpt lat="0" lon="0">
        <time>2020-12-20T08:31:09.306000+00:00</time>
      </trkpt>
      <trkpt lat="0" lon="0">
        <time>2020-12-20T08:31:09.308000+00:00</time>
      </trkpt>
      <trkpt lat="47.31895" lon="-1.32221">
        <ele>74</ele>
        <time>2020-12-20T08:31:10.318000+00:00</time>
      </trkpt>
      <trkpt lat="0" lon="0">
        <time>2020-12-20T08:31:10.336000+00:00</time>
      </trkpt>
      <trkpt lat="0" lon="0">
        <time>2020-12-20T08:31:10.343000+00:00</time>
      </trkpt>
      <trkpt lat="0" lon="0">
        <time>2020-12-20T08:31:10.347000+00:00</time>
      </trkpt>
      <trkpt lat="47.31895" lon="-1.32217">
        <ele>73</ele>
        <time>2020-12-20T08:31:11.303000+00:00</time>
      </trkpt>
      <trkpt lat="0" lon="0">
        <time>2020-12-20T08:31:11.318000+00:00</time>
      </trkpt>
      <trkpt lat="0" lon="0">
        <time>2020-12-20T08:31:11.322000+00:00</time>
      </trkpt>
      <trkpt lat="0" lon="0">
        <time>2020-12-20T08:31:11.324000+00:00</time>
      </trkpt>
      <trkpt lat="47.31895" lon="-1.32214">
        <ele>73</ele>
        <time>2020-12-20T08:31:12.296000+00:00</time>
      </trkpt>
      <trkpt lat="0" lon="0">
        <time>2020-12-20T08:31:12.303000+00:00</time>
      </trkpt>
      <trkpt lat="0" lon="0">
        <time>2020-12-20T08:31:12.308000+00:00</time>
      </trkpt>
      <trkpt lat="0" lon="0">
        <time>2020-12-20T08:31:12.310000+00:00</time>
      </trkpt>
      <trkpt lat="47.31896" lon="-1.3221">
        <ele>73</ele>
        <time>2020-12-20T08:31:13.295000+00:00</time>
      </trkpt>
      <trkpt lat="0" lon="0">
        <time>2020-12-20T08:31:13.317000+00:00</time>
      </trkpt>
      <trkpt lat="0" lon="0">
        <time>2020-12-20T08:31:13.326000+00:00</time>
      </trkpt>
      <trkpt lat="0" lon="0">
        <time>2020-12-20T08:31:13.328000+00:00</time>
      </trkpt>
      <trkpt lat="47.31898" lon="-1.32206">
        <ele>72</ele>
        <time>2020-12-20T08:31:14.341000+00:00</time>
      </trkpt>
      <trkpt lat="0" lon="0">
        <time>2020-12-20T08:31:14.348000+00:00</time>
      </trkpt>
      <trkpt lat="0" lon="0">
        <time>2020-12-20T08:31:14.353000+00:00</time>
      </trkpt>
      <trkpt lat="0" lon="0">
        <time>2020-12-20T08:31:14.355000+00:00</time>
      </trkpt>
      <trkpt lat="47.31899" lon="-1.32203">
        <ele>72</ele>
        <time>2020-12-20T08:31:15.321000+00:00</time>
      </trkpt>
      <trkpt lat="0" lon="0">
        <time>2020-12-20T08:31:15.344000+00:00</time>
      </trkpt>
      <trkpt lat="0" lon="0">
        <time>2020-12-20T08:31:15.352000+00:00</time>
      </trkpt>
      <trkpt lat="0" lon="0">
        <time>2020-12-20T08:31:15.354000+00:00</time>
      </trkpt>
      <trkpt lat="47.31901" lon="-1.32198">
        <ele>72</ele>
        <time>2020-12-20T08:31:16.336000+00:00</time>
      </trkpt>
      <trkpt lat="0" lon="0">
        <time>2020-12-20T08:31:16.349000+00:00</time>
      </trkpt>
      <trkpt lat="0" lon="0">
        <time>2020-12-20T08:31:16.359000+00:00</time>
      </trkpt>
      <trkpt lat="0" lon="0">
        <time>2020-12-20T08:31:16.362000+00:00</time>
      </trkpt>
      <trkpt lat="47.31903" lon="-1.32194">
        <ele>72</ele>
        <time>2020-12-20T08:31:17.320000+00:00</time>
      </trkpt>
      <trkpt lat="0" lon="0">
        <time>2020-12-20T08:31:17.337000+00:00</time>
      </trkpt>
      <trkpt lat="0" lon="0">
        <time>2020-12-20T08:31:17.345000+00:00</time>
      </trkpt>
      <trkpt lat="0" lon="0">
        <time>2020-12-20T08:31:17.348000+00:00</time>
      </trkpt>
      <trkpt lat="47.31905" lon="-1.32189">
        <ele>73</ele>
        <time>2020-12-20T08:31:18.330000+00:00</time>
      </trkpt>
      <trkpt lat="0" lon="0">
        <time>2020-12-20T08:31:18.340000+00:00</time>
      </trkpt>
      <trkpt lat="0" lon="0">
        <time>2020-12-20T08:31:18.345000+00:00</time>
      </trkpt>
      <trkpt lat="0" lon="0">
        <time>2020-12-20T08:31:18.347000+00:00</time>
      </trkpt>
      <trkpt lat="47.31908" lon="-1.32185">
        <ele>73</ele>
        <time>2020-12-20T08:31:19.313000+00:00</time>
      </trkpt>
      <trkpt lat="0" lon="0">
        <time>2020-12-20T08:31:19.329000+00:00</time>
      </trkpt>
      <trkpt lat="0" lon="0">
        <time>2020-12-20T08:31:19.336000+00:00</time>
      </trkpt>
      <trkpt lat="0" lon="0">
        <time>2020-12-20T08:31:19.340000+00:00</time>
      </trkpt>
      <trkpt lat="47.3191" lon="-1.3218">
        <ele>73</ele>
        <time>2020-12-20T08:31:20.343000+00:00</time>
      </trkpt>
      <trkpt lat="0" lon="0">
        <time>2020-12-20T08:31:20.350000+00:00</time>
      </trkpt>
      <trkpt lat="0" lon="0">
        <time>2020-12-20T08:31:20.355000+00:00</time>
      </trkpt>
      <trkpt lat="0" lon="0">
        <time>2020-12-20T08:31:20.357000+00:00</time>
      </trkpt>
      <trkpt lat="47.31912" lon="-1.32176">
        <ele>73</ele>
        <time>2020-12-20T08:31:21.320000+00:00</time>
      </trkpt>
      <trkpt lat="0" lon="0">
        <time>2020-12-20T08:31:21.329000+00:00</time>
      </trkpt>
      <trkpt lat="0" lon="0">
        <time>2020-12-20T08:31:21.333000+00:00</time>
      </trkpt>
      <trkpt lat="0" lon="0">
        <time>2020-12-20T08:31:21.340000+00:00</time>
      </trkpt>
      <trkpt lat="47.31915" lon="-1.32172">
        <ele>74</ele>
        <time>2020-12-20T08:31:22.323000+00:00</time>
      </trkpt>
      <trkpt lat="0" lon="0">
        <time>2020-12-20T08:31:22.336000+00:00</time>
      </trkpt>
      <trkpt lat="0" lon="0">
        <time>2020-12-20T08:31:22.344000+00:00</time>
      </trkpt>
      <trkpt lat="0" lon="0">
        <time>2020-12-20T08:31:22.346000+00:00</time>
      </trkpt>
      <trkpt lat="47.31917" lon="-1.32168">
        <ele>74</ele>
        <time>2020-12-20T08:31:23.330000+00:00</time>
      </trkpt>
      <trkpt lat="0" lon="0">
        <time>2020-12-20T08:31:23.346000+00:00</time>
      </trkpt>
      <trkpt lat="0" lon="0">
        <time>2020-12-20T08:31:23.354000+00:00</time>
      </trkpt>
      <trkpt lat="0" lon="0">
        <time>2020-12-20T08:31:23.358000+00:00</time>
      </trkpt>
      <trkpt lat="47.31919" lon="-1.32164">
        <ele>74</ele>
        <time>2020-12-20T08:31:24.346000+00:00</time>
      </trkpt>
      <trkpt lat="0" lon="0">
        <time>2020-12-20T08:31:24.353000+00:00</time>
      </trkpt>
      <trkpt lat="0" lon="0">
        <time>2020-12-20T08:31:24.359000+00:00</time>
      </trkpt>
      <trkpt lat="0" lon="0">
        <time>2020-12-20T08:31:24.362000+00:00</time>
      </trkpt>
      <trkpt lat="47.31922" lon="-1.3216">
        <ele>74</ele>
        <time>2020-12-20T08:31:25.307000+00:00</time>
      </trkpt>
      <trkpt lat="0" lon="0">
        <time>2020-12-20T08:31:25.320000+00:00</time>
      </trkpt>
      <trkpt lat="0" lon="0">
        <time>2020-12-20T08:31:25.330000+00:00</time>
      </trkpt>
      <trkpt lat="0" lon="0">
        <time>2020-12-20T08:31:25.331000+00:00</time>
      </trkpt>
      <trkpt lat="47.31924" lon="-1.32157">
        <ele>75</ele>
        <time>2020-12-20T08:31:26.313000+00:00</time>
      </trkpt>
      <trkpt lat="0" lon="0">
        <time>2020-12-20T08:31:26.336000+00:00</time>
      </trkpt>
      <trkpt lat="0" lon="0">
        <time>2020-12-20T08:31:26.348000+00:00</time>
      </trkpt>
      <trkpt lat="0" lon="0">
        <time>2020-12-20T08:31:26.350000+00:00</time>
      </trkpt>
      <trkpt lat="47.31926" lon="-1.32153">
        <ele>75</ele>
        <time>2020-12-20T08:31:27.323000+00:00</time>
      </trkpt>
      <trkpt lat="0" lon="0">
        <time>2020-12-20T08:31:27.328000+00:00</time>
      </trkpt>
      <trkpt lat="0" lon="0">
        <time>2020-12-20T08:31:27.343000+00:00</time>
      </trkpt>
      <trkpt lat="0" lon="0">
        <time>2020-12-20T08:31:27.349000+00:00</time>
      </trkpt>
      <trkpt lat="47.31928" lon="-1.3215">
        <ele>75</ele>
        <time>2020-12-20T08:31:28.328000+00:00</time>
      </trkpt>
      <trkpt lat="0" lon="0">
        <time>2020-12-20T08:31:28.336000+00:00</time>
      </trkpt>
      <trkpt lat="0" lon="0">
        <time>2020-12-20T08:31:28.338000+00:00</time>
      </trkpt>
      <trkpt lat="0" lon="0">
        <time>2020-12-20T08:31:28.339000+00:00</time>
      </trkpt>
      <trkpt lat="47.3193" lon="-1.32147">
        <ele>75</ele>
        <time>2020-12-20T08:31:29.348000+00:00</time>
      </trkpt>
      <trkpt lat="0" lon="0">
        <time>2020-12-20T08:31:29.353000+00:00</time>
      </trkpt>
      <trkpt lat="0" lon="0">
        <time>2020-12-20T08:31:29.360000+00:00</time>
      </trkpt>
      <trkpt lat="0" lon="0">
        <time>2020-12-20T08:31:29.362000+00:00</time>
      </trkpt>
      <trkpt lat="47.31932" lon="-1.32143">
        <ele>75</ele>
        <time>2020-12-20T08:31:30.353000+00:00</time>
      </trkpt>
      <trkpt lat="0" lon="0">
        <time>2020-12-20T08:31:30.365000+00:00</time>
      </trkpt>
      <trkpt lat="0" lon="0">
        <time>2020-12-20T08:31:30.370000+00:00</time>
      </trkpt>
      <trkpt lat="0" lon="0">
        <time>2020-12-20T08:31:30.376000+00:00</time>
      </trkpt>
      <trkpt lat="47.31934" lon="-1.3214">
        <ele>75</ele>
        <time>2020-12-20T08:31:31.320000+00:00</time>
      </trkpt>
      <trkpt lat="0" lon="0">
        <time>2020-12-20T08:31:31.334000+00:00</time>
      </trkpt>
      <trkpt lat="0" lon="0">
        <time>2020-12-20T08:31:31.339000+00:00</time>
      </trkpt>
      <trkpt lat="0" lon="0">
        <time>2020-12-20T08:31:31.341000+00:00</time>
      </trkpt>
      <trkpt lat="47.31935" lon="-1.32136">
        <ele>76</ele>
        <time>2020-12-20T08:31:32.351000+00:00</time>
      </trkpt>
      <trkpt lat="0" lon="0">
        <time>2020-12-20T08:31:32.366000+00:00</time>
      </trkpt>
      <trkpt lat="0" lon="0">
        <time>2020-12-20T08:31:32.370000+00:00</time>
      </trkpt>
      <trkpt lat="0" lon="0">
        <time>2020-12-20T08:31:32.373000+00:00</time>
      </trkpt>
      <trkpt lat="47.31936" lon="-1.32132">
        <ele>76</ele>
        <time>2020-12-20T08:31:33.327000+00:00</time>
      </trkpt>
      <trkpt lat="0" lon="0">
        <time>2020-12-20T08:31:33.347000+00:00</time>
      </trkpt>
      <trkpt lat="0" lon="0">
        <time>2020-12-20T08:31:33.353000+00:00</time>
      </trkpt>
      <trkpt lat="0" lon="0">
        <time>2020-12-20T08:31:33.356000+00:00</time>
      </trkpt>
      <trkpt lat="47.31937" lon="-1.32127">
        <ele>76</ele>
        <time>2020-12-20T08:31:34.335000+00:00</time>
      </trkpt>
      <trkpt lat="0" lon="0">
        <time>2020-12-20T08:31:34.340000+00:00</time>
      </trkpt>
      <trkpt lat="0" lon="0">
        <time>2020-12-20T08:31:34.344000+00:00</time>
      </trkpt>
      <trkpt lat="0" lon="0">
        <time>2020-12-20T08:31:34.346000+00:00</time>
      </trkpt>
      <trkpt lat="47.31938" lon="-1.32123">
        <ele>76</ele>
        <time>2020-12-20T08:31:35.332000+00:00</time>
      </trkpt>
      <trkpt lat="0" lon="0">
        <time>2020-12-20T08:31:35.347000+00:00</time>
      </trkpt>
      <trkpt lat="0" lon="0">
        <time>2020-12-20T08:31:35.351000+00:00</time>
      </trkpt>
      <trkpt lat="0" lon="0">
        <time>2020-12-20T08:31:35.355000+00:00</time>
      </trkpt>
      <trkpt lat="47.31939" lon="-1.32118">
        <ele>76</ele>
        <time>2020-12-20T08:31:36.350000+00:00</time>
      </trkpt>
      <trkpt lat="0" lon="0">
        <time>2020-12-20T08:31:36.364000+00:00</time>
      </trkpt>
      <trkpt lat="0" lon="0">
        <time>2020-12-20T08:31:36.368000+00:00</time>
      </trkpt>
      <trkpt lat="0" lon="0">
        <time>2020-12-20T08:31:36.371000+00:00</time>
      </trkpt>
      <trkpt lat="47.3194" lon="-1.32113">
        <ele>76</ele>
        <time>2020-12-20T08:31:37.332000+00:00</time>
      </trkpt>
      <trkpt lat="0" lon="0">
        <time>2020-12-20T08:31:37.352000+00:00</time>
      </trkpt>
      <trkpt lat="0" lon="0">
        <time>2020-12-20T08:31:37.360000+00:00</time>
      </trkpt>
      <trkpt lat="0" lon="0">
        <time>2020-12-20T08:31:37.362000+00:00</time>
      </trkpt>
      <trkpt lat="47.31941" lon="-1.32107">
        <ele>76</ele>
        <time>2020-12-20T08:31:38.320000+00:00</time>
      </trkpt>
      <trkpt lat="0" lon="0">
        <time>2020-12-20T08:31:38.329000+00:00</time>
      </trkpt>
      <trkpt lat="0" lon="0">
        <time>2020-12-20T08:31:38.335000+00:00</time>
      </trkpt>
      <trkpt lat="0" lon="0">
        <time>2020-12-20T08:31:38.337000+00:00</time>
      </trkpt>
      <trkpt lat="47.31943" lon="-1.32102">
        <ele>76</ele>
        <time>2020-12-20T08:31:39.355000+00:00</time>
      </trkpt>
      <trkpt lat="0" lon="0">
        <time>2020-12-20T08:31:39.364000+00:00</time>
      </trkpt>
      <trkpt lat="0" lon="0">
        <time>2020-12-20T08:31:39.371000+00:00</time>
      </trkpt>
      <trkpt lat="0" lon="0">
        <time>2020-12-20T08:31:39.375000+00:00</time>
      </trkpt>
      <trkpt lat="47.31944" lon="-1.32096">
        <ele>76</ele>
        <time>2020-12-20T08:31:40.297000+00:00</time>
      </trkpt>
      <trkpt lat="0" lon="0">
        <time>2020-12-20T08:31:40.309000+00:00</time>
      </trkpt>
      <trkpt lat="0" lon="0">
        <time>2020-12-20T08:31:40.317000+00:00</time>
      </trkpt>
      <trkpt lat="0" lon="0">
        <time>2020-12-20T08:31:40.320000+00:00</time>
      </trkpt>
      <trkpt lat="47.31946" lon="-1.3209">
        <ele>76</ele>
        <time>2020-12-20T08:31:41.323000+00:00</time>
      </trkpt>
      <trkpt lat="0" lon="0">
        <time>2020-12-20T08:31:41.334000+00:00</time>
      </trkpt>
      <trkpt lat="0" lon="0">
        <time>2020-12-20T08:31:41.346000+00:00</time>
      </trkpt>
      <trkpt lat="0" lon="0">
        <time>2020-12-20T08:31:41.350000+00:00</time>
      </trkpt>
      <trkpt lat="47.31948" lon="-1.32084">
        <ele>76</ele>
        <time>2020-12-20T08:31:42.341000+00:00</time>
      </trkpt>
      <trkpt lat="0" lon="0">
        <time>2020-12-20T08:31:42.345000+00:00</time>
      </trkpt>
      <trkpt lat="0" lon="0">
        <time>2020-12-20T08:31:42.364000+00:00</time>
      </trkpt>
      <trkpt lat="0" lon="0">
        <time>2020-12-20T08:31:42.367000+00:00</time>
      </trkpt>
      <trkpt lat="47.3195" lon="-1.32078">
        <ele>76</ele>
        <time>2020-12-20T08:31:43.332000+00:00</time>
      </trkpt>
      <trkpt lat="0" lon="0">
        <time>2020-12-20T08:31:43.347000+00:00</time>
      </trkpt>
      <trkpt lat="0" lon="0">
        <time>2020-12-20T08:31:43.352000+00:00</time>
      </trkpt>
      <trkpt lat="0" lon="0">
        <time>2020-12-20T08:31:43.354000+00:00</time>
      </trkpt>
      <trkpt lat="47.31952" lon="-1.32071">
        <ele>76</ele>
        <time>2020-12-20T08:31:44.333000+00:00</time>
      </trkpt>
      <trkpt lat="0" lon="0">
        <time>2020-12-20T08:31:44.341000+00:00</time>
      </trkpt>
      <trkpt lat="0" lon="0">
        <time>2020-12-20T08:31:44.345000+00:00</time>
      </trkpt>
      <trkpt lat="0" lon="0">
        <time>2020-12-20T08:31:44.353000+00:00</time>
      </trkpt>
      <trkpt lat="47.31954" lon="-1.32065">
        <ele>76</ele>
        <time>2020-12-20T08:31:45.322000+00:00</time>
      </trkpt>
      <trkpt lat="0" lon="0">
        <time>2020-12-20T08:31:45.332000+00:00</time>
      </trkpt>
      <trkpt lat="0" lon="0">
        <time>2020-12-20T08:31:45.338000+00:00</time>
      </trkpt>
      <trkpt lat="0" lon="0">
        <time>2020-12-20T08:31:45.340000+00:00</time>
      </trkpt>
      <trkpt lat="47.31956" lon="-1.32059">
        <ele>76</ele>
        <time>2020-12-20T08:31:46.299000+00:00</time>
      </trkpt>
      <trkpt lat="0" lon="0">
        <time>2020-12-20T08:31:46.317000+00:00</time>
      </trkpt>
      <trkpt lat="0" lon="0">
        <time>2020-12-20T08:31:46.320000+00:00</time>
      </trkpt>
      <trkpt lat="0" lon="0">
        <time>2020-12-20T08:31:46.321000+00:00</time>
      </trkpt>
      <trkpt lat="47.31957" lon="-1.32054">
        <ele>76</ele>
        <time>2020-12-20T08:31:47.336000+00:00</time>
      </trkpt>
      <trkpt lat="0" lon="0">
        <time>2020-12-20T08:31:47.341000+00:00</time>
      </trkpt>
      <trkpt lat="0" lon="0">
        <time>2020-12-20T08:31:47.350000+00:00</time>
      </trkpt>
      <trkpt lat="0" lon="0">
        <time>2020-12-20T08:31:47.352000+00:00</time>
      </trkpt>
      <trkpt lat="47.31959" lon="-1.32049">
        <ele>76</ele>
        <time>2020-12-20T08:31:48.358000+00:00</time>
      </trkpt>
      <trkpt lat="0" lon="0">
        <time>2020-12-20T08:31:48.366000+00:00</time>
      </trkpt>
      <trkpt lat="0" lon="0">
        <time>2020-12-20T08:31:48.371000+00:00</time>
      </trkpt>
      <trkpt lat="0" lon="0">
        <time>2020-12-20T08:31:48.377000+00:00</time>
      </trkpt>
      <trkpt lat="47.3196" lon="-1.32045">
        <ele>77</ele>
        <time>2020-12-20T08:31:49.341000+00:00</time>
      </trkpt>
      <trkpt lat="0" lon="0">
        <time>2020-12-20T08:31:49.353000+00:00</time>
      </trkpt>
      <trkpt lat="0" lon="0">
        <time>2020-12-20T08:31:49.359000+00:00</time>
      </trkpt>
      <trkpt lat="0" lon="0">
        <time>2020-12-20T08:31:49.362000+00:00</time>
      </trkpt>
      <trkpt lat="47.31961" lon="-1.32041">
        <ele>76</ele>
        <time>2020-12-20T08:31:50.330000+00:00</time>
      </trkpt>
      <trkpt lat="0" lon="0">
        <time>2020-12-20T08:31:50.349000+00:00</time>
      </trkpt>
      <trkpt lat="0" lon="0">
        <time>2020-12-20T08:31:50.353000+00:00</time>
      </trkpt>
      <trkpt lat="0" lon="0">
        <time>2020-12-20T08:31:50.355000+00:00</time>
      </trkpt>
      <trkpt lat="47.31962" lon="-1.32039">
        <ele>77</ele>
        <time>2020-12-20T08:31:51.320000+00:00</time>
      </trkpt>
      <trkpt lat="0" lon="0">
        <time>2020-12-20T08:31:51.326000+00:00</time>
      </trkpt>
      <trkpt lat="0" lon="0">
        <time>2020-12-20T08:31:51.331000+00:00</time>
      </trkpt>
      <trkpt lat="0" lon="0">
        <time>2020-12-20T08:31:51.334000+00:00</time>
      </trkpt>
      <trkpt lat="47.31962" lon="-1.32037">
        <ele>77</ele>
        <time>2020-12-20T08:31:52.321000+00:00</time>
      </trkpt>
      <trkpt lat="0" lon="0">
        <time>2020-12-20T08:31:52.340000+00:00</time>
      </trkpt>
      <trkpt lat="0" lon="0">
        <time>2020-12-20T08:31:52.342000+00:00</time>
      </trkpt>
      <trkpt lat="0" lon="0">
        <time>2020-12-20T08:31:52.343000+00:00</time>
      </trkpt>
      <trkpt lat="47.31962" lon="-1.32034">
        <ele>77</ele>
        <time>2020-12-20T08:31:53.300000+00:00</time>
      </trkpt>
      <trkpt lat="0" lon="0">
        <time>2020-12-20T08:31:53.304000+00:00</time>
      </trkpt>
      <trkpt lat="0" lon="0">
        <time>2020-12-20T08:31:53.315000+00:00</time>
      </trkpt>
      <trkpt lat="0" lon="0">
        <time>2020-12-20T08:31:53.317000+00:00</time>
      </trkpt>
      <trkpt lat="47.31962" lon="-1.32033">
        <ele>77</ele>
        <time>2020-12-20T08:31:54.309000+00:00</time>
      </trkpt>
      <trkpt lat="0" lon="0">
        <time>2020-12-20T08:31:54.326000+00:00</time>
      </trkpt>
      <trkpt lat="0" lon="0">
        <time>2020-12-20T08:31:54.333000+00:00</time>
      </trkpt>
      <trkpt lat="0" lon="0">
        <time>2020-12-20T08:31:54.339000+00:00</time>
      </trkpt>
      <trkpt lat="47.31961" lon="-1.32031">
        <ele>77</ele>
        <time>2020-12-20T08:31:55.268000+00:00</time>
      </trkpt>
      <trkpt lat="0" lon="0">
        <time>2020-12-20T08:31:55.274000+00:00</time>
      </trkpt>
      <trkpt lat="0" lon="0">
        <time>2020-12-20T08:31:55.279000+00:00</time>
      </trkpt>
      <trkpt lat="0" lon="0">
        <time>2020-12-20T08:31:55.286000+00:00</time>
      </trkpt>
      <trkpt lat="47.3196" lon="-1.3203">
        <ele>77</ele>
        <time>2020-12-20T08:31:56.301000+00:00</time>
      </trkpt>
      <trkpt lat="0" lon="0">
        <time>2020-12-20T08:31:56.306000+00:00</time>
      </trkpt>
      <trkpt lat="0" lon="0">
        <time>2020-12-20T08:31:56.314000+00:00</time>
      </trkpt>
      <trkpt lat="0" lon="0">
        <time>2020-12-20T08:31:56.317000+00:00</time>
      </trkpt>
      <trkpt lat="47.31959" lon="-1.32028">
        <ele>77</ele>
        <time>2020-12-20T08:31:57.259000+00:00</time>
      </trkpt>
      <trkpt lat="0" lon="0">
        <time>2020-12-20T08:31:57.264000+00:00</time>
      </trkpt>
      <trkpt lat="0" lon="0">
        <time>2020-12-20T08:31:57.266000+00:00</time>
      </trkpt>
      <trkpt lat="0" lon="0">
        <time>2020-12-20T08:31:57.267000+00:00</time>
      </trkpt>
      <trkpt lat="47.31957" lon="-1.32028">
        <ele>76</ele>
        <time>2020-12-20T08:31:58.311000+00:00</time>
      </trkpt>
      <trkpt lat="0" lon="0">
        <time>2020-12-20T08:31:58.332000+00:00</time>
      </trkpt>
      <trkpt lat="0" lon="0">
        <time>2020-12-20T08:31:58.342000+00:00</time>
      </trkpt>
      <trkpt lat="0" lon="0">
        <time>2020-12-20T08:31:58.345000+00:00</time>
      </trkpt>
      <trkpt lat="47.31955" lon="-1.32027">
        <ele>76</ele>
        <time>2020-12-20T08:31:59.331000+00:00</time>
      </trkpt>
      <trkpt lat="0" lon="0">
        <time>2020-12-20T08:31:59.341000+00:00</time>
      </trkpt>
      <trkpt lat="0" lon="0">
        <time>2020-12-20T08:31:59.346000+00:00</time>
      </trkpt>
      <trkpt lat="0" lon="0">
        <time>2020-12-20T08:31:59.354000+00:00</time>
      </trkpt>
      <trkpt lat="47.31952" lon="-1.32027">
        <ele>76</ele>
        <time>2020-12-20T08:32:00.336000+00:00</time>
      </trkpt>
      <trkpt lat="0" lon="0">
        <time>2020-12-20T08:32:00.353000+00:00</time>
      </trkpt>
      <trkpt lat="0" lon="0">
        <time>2020-12-20T08:32:00.357000+00:00</time>
      </trkpt>
      <trkpt lat="0" lon="0">
        <time>2020-12-20T08:32:00.360000+00:00</time>
      </trkpt>
      <trkpt lat="47.31949" lon="-1.32028">
        <ele>77</ele>
        <time>2020-12-20T08:32:01.307000+00:00</time>
      </trkpt>
      <trkpt lat="0" lon="0">
        <time>2020-12-20T08:32:01.313000+00:00</time>
      </trkpt>
      <trkpt lat="0" lon="0">
        <time>2020-12-20T08:32:01.319000+00:00</time>
      </trkpt>
      <trkpt lat="0" lon="0">
        <time>2020-12-20T08:32:01.322000+00:00</time>
      </trkpt>
      <trkpt lat="47.31946" lon="-1.32028">
        <ele>76</ele>
        <time>2020-12-20T08:32:02.303000+00:00</time>
      </trkpt>
      <trkpt lat="0" lon="0">
        <time>2020-12-20T08:32:02.305000+00:00</time>
      </trkpt>
      <trkpt lat="0" lon="0">
        <time>2020-12-20T08:32:02.309000+00:00</time>
      </trkpt>
      <trkpt lat="0" lon="0">
        <time>2020-12-20T08:32:02.310000+00:00</time>
      </trkpt>
      <trkpt lat="47.31943" lon="-1.32029">
        <ele>75</ele>
        <time>2020-12-20T08:32:03.293000+00:00</time>
      </trkpt>
      <trkpt lat="0" lon="0">
        <time>2020-12-20T08:32:03.312000+00:00</time>
      </trkpt>
      <trkpt lat="0" lon="0">
        <time>2020-12-20T08:32:03.316000+00:00</time>
      </trkpt>
      <trkpt lat="0" lon="0">
        <time>2020-12-20T08:32:03.318000+00:00</time>
      </trkpt>
      <trkpt lat="47.31939" lon="-1.32029">
        <ele>74</ele>
        <time>2020-12-20T08:32:04.334000+00:00</time>
      </trkpt>
      <trkpt lat="0" lon="0">
        <time>2020-12-20T08:32:04.342000+00:00</time>
      </trkpt>
      <trkpt lat="0" lon="0">
        <time>2020-12-20T08:32:04.346000+00:00</time>
      </trkpt>
      <trkpt lat="0" lon="0">
        <time>2020-12-20T08:32:04.350000+00:00</time>
      </trkpt>
      <trkpt lat="47.31934" lon="-1.32029">
        <ele>74</ele>
        <time>2020-12-20T08:32:05.341000+00:00</time>
      </trkpt>
      <trkpt lat="0" lon="0">
        <time>2020-12-20T08:32:05.346000+00:00</time>
      </trkpt>
      <trkpt lat="0" lon="0">
        <time>2020-12-20T08:32:05.351000+00:00</time>
      </trkpt>
      <trkpt lat="0" lon="0">
        <time>2020-12-20T08:32:05.354000+00:00</time>
      </trkpt>
      <trkpt lat="47.3193" lon="-1.32029">
        <ele>74</ele>
        <time>2020-12-20T08:32:06.325000+00:00</time>
      </trkpt>
      <trkpt lat="0" lon="0">
        <time>2020-12-20T08:32:06.347000+00:00</time>
      </trkpt>
      <trkpt lat="0" lon="0">
        <time>2020-12-20T08:32:06.359000+00:00</time>
      </trkpt>
      <trkpt lat="0" lon="0">
        <time>2020-12-20T08:32:06.365000+00:00</time>
      </trkpt>
      <trkpt lat="47.31925" lon="-1.32029">
        <ele>75</ele>
        <time>2020-12-20T08:32:07.309000+00:00</time>
      </trkpt>
      <trkpt lat="0" lon="0">
        <time>2020-12-20T08:32:07.323000+00:00</time>
      </trkpt>
      <trkpt lat="0" lon="0">
        <time>2020-12-20T08:32:07.327000+00:00</time>
      </trkpt>
      <trkpt lat="0" lon="0">
        <time>2020-12-20T08:32:07.331000+00:00</time>
      </trkpt>
      <trkpt lat="47.3192" lon="-1.32029">
        <ele>75</ele>
        <time>2020-12-20T08:32:08.343000+00:00</time>
      </trkpt>
      <trkpt lat="0" lon="0">
        <time>2020-12-20T08:32:08.349000+00:00</time>
      </trkpt>
      <trkpt lat="0" lon="0">
        <time>2020-12-20T08:32:08.354000+00:00</time>
      </trkpt>
      <trkpt lat="0" lon="0">
        <time>2020-12-20T08:32:08.356000+00:00</time>
      </trkpt>
      <trkpt lat="47.31915" lon="-1.32028">
        <ele>75</ele>
        <time>2020-12-20T08:32:09.329000+00:00</time>
      </trkpt>
      <trkpt lat="0" lon="0">
        <time>2020-12-20T08:32:09.343000+00:00</time>
      </trkpt>
      <trkpt lat="0" lon="0">
        <time>2020-12-20T08:32:09.350000+00:00</time>
      </trkpt>
      <trkpt lat="0" lon="0">
        <time>2020-12-20T08:32:09.356000+00:00</time>
      </trkpt>
      <trkpt lat="47.3191" lon="-1.32027">
        <ele>75</ele>
        <time>2020-12-20T08:32:10.350000+00:00</time>
      </trkpt>
      <trkpt lat="0" lon="0">
        <time>2020-12-20T08:32:10.368000+00:00</time>
      </trkpt>
      <trkpt lat="0" lon="0">
        <time>2020-12-20T08:32:10.376000+00:00</time>
      </trkpt>
      <trkpt lat="0" lon="0">
        <time>2020-12-20T08:32:10.383000+00:00</time>
      </trkpt>
      <trkpt lat="47.31905" lon="-1.32025">
        <ele>75</ele>
        <time>2020-12-20T08:32:11.342000+00:00</time>
      </trkpt>
      <trkpt lat="0" lon="0">
        <time>2020-12-20T08:32:11.356000+00:00</time>
      </trkpt>
      <trkpt lat="0" lon="0">
        <time>2020-12-20T08:32:11.360000+00:00</time>
      </trkpt>
      <trkpt lat="0" lon="0">
        <time>2020-12-20T08:32:11.362000+00:00</time>
      </trkpt>
      <trkpt lat="47.319" lon="-1.32024">
        <ele>75</ele>
        <time>2020-12-20T08:32:12.328000+00:00</time>
      </trkpt>
      <trkpt lat="0" lon="0">
        <time>2020-12-20T08:32:12.338000+00:00</time>
      </trkpt>
      <trkpt lat="0" lon="0">
        <time>2020-12-20T08:32:12.342000+00:00</time>
      </trkpt>
      <trkpt lat="0" lon="0">
        <time>2020-12-20T08:32:12.345000+00:00</time>
      </trkpt>
      <trkpt lat="47.31895" lon="-1.32021">
        <ele>75</ele>
        <time>2020-12-20T08:32:13.345000+00:00</time>
      </trkpt>
      <trkpt lat="0" lon="0">
        <time>2020-12-20T08:32:13.368000+00:00</time>
      </trkpt>
      <trkpt lat="0" lon="0">
        <time>2020-12-20T08:32:13.372000+00:00</time>
      </trkpt>
      <trkpt lat="0" lon="0">
        <time>2020-12-20T08:32:13.374000+00:00</time>
      </trkpt>
      <trkpt lat="47.3189" lon="-1.32019">
        <ele>74</ele>
        <time>2020-12-20T08:32:14.332000+00:00</time>
      </trkpt>
      <trkpt lat="0" lon="0">
        <time>2020-12-20T08:32:14.339000+00:00</time>
      </trkpt>
      <trkpt lat="0" lon="0">
        <time>2020-12-20T08:32:14.343000+00:00</time>
      </trkpt>
      <trkpt lat="0" lon="0">
        <time>2020-12-20T08:32:14.345000+00:00</time>
      </trkpt>
      <trkpt lat="47.31885" lon="-1.32016">
        <ele>74</ele>
        <time>2020-12-20T08:32:15.320000+00:00</time>
      </trkpt>
      <trkpt lat="0" lon="0">
        <time>2020-12-20T08:32:15.325000+00:00</time>
      </trkpt>
      <trkpt lat="0" lon="0">
        <time>2020-12-20T08:32:15.330000+00:00</time>
      </trkpt>
      <trkpt lat="0" lon="0">
        <time>2020-12-20T08:32:15.332000+00:00</time>
      </trkpt>
      <trkpt lat="47.3188" lon="-1.32012">
        <ele>74</ele>
        <time>2020-12-20T08:32:16.324000+00:00</time>
      </trkpt>
      <trkpt lat="0" lon="0">
        <time>2020-12-20T08:32:16.335000+00:00</time>
      </trkpt>
      <trkpt lat="0" lon="0">
        <time>2020-12-20T08:32:16.338000+00:00</time>
      </trkpt>
      <trkpt lat="0" lon="0">
        <time>2020-12-20T08:32:16.341000+00:00</time>
      </trkpt>
      <trkpt lat="47.31875" lon="-1.32008">
        <ele>75</ele>
        <time>2020-12-20T08:32:17.306000+00:00</time>
      </trkpt>
      <trkpt lat="0" lon="0">
        <time>2020-12-20T08:32:17.310000+00:00</time>
      </trkpt>
      <trkpt lat="0" lon="0">
        <time>2020-12-20T08:32:17.316000+00:00</time>
      </trkpt>
      <trkpt lat="0" lon="0">
        <time>2020-12-20T08:32:17.318000+00:00</time>
      </trkpt>
      <trkpt lat="47.3187" lon="-1.32005">
        <ele>75</ele>
        <time>2020-12-20T08:32:18.333000+00:00</time>
      </trkpt>
      <trkpt lat="0" lon="0">
        <time>2020-12-20T08:32:18.339000+00:00</time>
      </trkpt>
      <trkpt lat="0" lon="0">
        <time>2020-12-20T08:32:18.348000+00:00</time>
      </trkpt>
      <trkpt lat="0" lon="0">
        <time>2020-12-20T08:32:18.350000+00:00</time>
      </trkpt>
      <trkpt lat="47.31865" lon="-1.32001">
        <ele>75</ele>
        <time>2020-12-20T08:32:19.322000+00:00</time>
      </trkpt>
      <trkpt lat="0" lon="0">
        <time>2020-12-20T08:32:19.328000+00:00</time>
      </trkpt>
      <trkpt lat="0" lon="0">
        <time>2020-12-20T08:32:19.332000+00:00</time>
      </trkpt>
      <trkpt lat="0" lon="0">
        <time>2020-12-20T08:32:19.334000+00:00</time>
      </trkpt>
      <trkpt lat="47.3186" lon="-1.31997">
        <ele>75</ele>
        <time>2020-12-20T08:32:20.338000+00:00</time>
      </trkpt>
      <trkpt lat="0" lon="0">
        <time>2020-12-20T08:32:20.345000+00:00</time>
      </trkpt>
      <trkpt lat="0" lon="0">
        <time>2020-12-20T08:32:20.348000+00:00</time>
      </trkpt>
      <trkpt lat="0" lon="0">
        <time>2020-12-20T08:32:20.349000+00:00</time>
      </trkpt>
      <trkpt lat="47.31855" lon="-1.31993">
        <ele>76</ele>
        <time>2020-12-20T08:32:21.340000+00:00</time>
      </trkpt>
      <trkpt lat="0" lon="0">
        <time>2020-12-20T08:32:21.349000+00:00</time>
      </trkpt>
      <trkpt lat="0" lon="0">
        <time>2020-12-20T08:32:21.353000+00:00</time>
      </trkpt>
      <trkpt lat="0" lon="0">
        <time>2020-12-20T08:32:21.355000+00:00</time>
      </trkpt>
      <trkpt lat="47.31851" lon="-1.31989">
        <ele>76</ele>
        <time>2020-12-20T08:32:22.313000+00:00</time>
      </trkpt>
      <trkpt lat="0" lon="0">
        <time>2020-12-20T08:32:22.330000+00:00</time>
      </trkpt>
      <trkpt lat="0" lon="0">
        <time>2020-12-20T08:32:22.337000+00:00</time>
      </trkpt>
      <trkpt lat="0" lon="0">
        <time>2020-12-20T08:32:22.343000+00:00</time>
      </trkpt>
      <trkpt lat="47.31846" lon="-1.31986">
        <ele>76</ele>
        <time>2020-12-20T08:32:23.333000+00:00</time>
      </trkpt>
      <trkpt lat="0" lon="0">
        <time>2020-12-20T08:32:23.341000+00:00</time>
      </trkpt>
      <trkpt lat="0" lon="0">
        <time>2020-12-20T08:32:23.346000+00:00</time>
      </trkpt>
      <trkpt lat="0" lon="0">
        <time>2020-12-20T08:32:23.353000+00:00</time>
      </trkpt>
      <trkpt lat="47.31842" lon="-1.31982">
        <ele>76</ele>
        <time>2020-12-20T08:32:24.272000+00:00</time>
      </trkpt>
      <trkpt lat="0" lon="0">
        <time>2020-12-20T08:32:24.283000+00:00</time>
      </trkpt>
      <trkpt lat="0" lon="0">
        <time>2020-12-20T08:32:24.286000+00:00</time>
      </trkpt>
      <trkpt lat="0" lon="0">
        <time>2020-12-20T08:32:24.289000+00:00</time>
      </trkpt>
      <trkpt lat="47.31838" lon="-1.31979">
        <ele>76</ele>
        <time>2020-12-20T08:32:25.305000+00:00</time>
      </trkpt>
      <trkpt lat="0" lon="0">
        <time>2020-12-20T08:32:25.323000+00:00</time>
      </trkpt>
      <trkpt lat="0" lon="0">
        <time>2020-12-20T08:32:25.330000+00:00</time>
      </trkpt>
      <trkpt lat="0" lon="0">
        <time>2020-12-20T08:32:25.333000+00:00</time>
      </trkpt>
      <trkpt lat="47.31834" lon="-1.31975">
        <ele>76</ele>
        <time>2020-12-20T08:32:26.331000+00:00</time>
      </trkpt>
      <trkpt lat="0" lon="0">
        <time>2020-12-20T08:32:26.340000+00:00</time>
      </trkpt>
      <trkpt lat="0" lon="0">
        <time>2020-12-20T08:32:26.342000+00:00</time>
      </trkpt>
      <trkpt lat="0" lon="0">
        <time>2020-12-20T08:32:26.343000+00:00</time>
      </trkpt>
      <trkpt lat="47.3183" lon="-1.31972">
        <ele>76</ele>
        <time>2020-12-20T08:32:27.321000+00:00</time>
      </trkpt>
      <trkpt lat="0" lon="0">
        <time>2020-12-20T08:32:27.327000+00:00</time>
      </trkpt>
      <trkpt lat="0" lon="0">
        <time>2020-12-20T08:32:27.333000+00:00</time>
      </trkpt>
      <trkpt lat="0" lon="0">
        <time>2020-12-20T08:32:27.336000+00:00</time>
      </trkpt>
      <trkpt lat="47.31826" lon="-1.31968">
        <ele>75</ele>
        <time>2020-12-20T08:32:28.285000+00:00</time>
      </trkpt>
      <trkpt lat="0" lon="0">
        <time>2020-12-20T08:32:28.292000+00:00</time>
      </trkpt>
      <trkpt lat="0" lon="0">
        <time>2020-12-20T08:32:28.299000+00:00</time>
      </trkpt>
      <trkpt lat="0" lon="0">
        <time>2020-12-20T08:32:28.301000+00:00</time>
      </trkpt>
      <trkpt lat="47.31823" lon="-1.31965">
        <ele>75</ele>
        <time>2020-12-20T08:32:29.297000+00:00</time>
      </trkpt>
      <trkpt lat="0" lon="0">
        <time>2020-12-20T08:32:29.313000+00:00</time>
      </trkpt>
      <trkpt lat="0" lon="0">
        <time>2020-12-20T08:32:29.321000+00:00</time>
      </trkpt>
      <trkpt lat="0" lon="0">
        <time>2020-12-20T08:32:29.324000+00:00</time>
      </trkpt>
      <trkpt lat="47.3182" lon="-1.31961">
        <ele>75</ele>
        <time>2020-12-20T08:32:30.273000+00:00</time>
      </trkpt>
      <trkpt lat="0" lon="0">
        <time>2020-12-20T08:32:30.284000+00:00</time>
      </trkpt>
      <trkpt lat="0" lon="0">
        <time>2020-12-20T08:32:30.290000+00:00</time>
      </trkpt>
      <trkpt lat="0" lon="0">
        <time>2020-12-20T08:32:30.293000+00:00</time>
      </trkpt>
      <trkpt lat="47.31818" lon="-1.31957">
        <ele>75</ele>
        <time>2020-12-20T08:32:31.295000+00:00</time>
      </trkpt>
      <trkpt lat="0" lon="0">
        <time>2020-12-20T08:32:31.305000+00:00</time>
      </trkpt>
      <trkpt lat="0" lon="0">
        <time>2020-12-20T08:32:31.314000+00:00</time>
      </trkpt>
      <trkpt lat="0" lon="0">
        <time>2020-12-20T08:32:31.318000+00:00</time>
      </trkpt>
      <trkpt lat="47.31817" lon="-1.31952">
        <ele>74</ele>
        <time>2020-12-20T08:32:32.315000+00:00</time>
      </trkpt>
      <trkpt lat="0" lon="0">
        <time>2020-12-20T08:32:32.321000+00:00</time>
      </trkpt>
      <trkpt lat="0" lon="0">
        <time>2020-12-20T08:32:32.330000+00:00</time>
      </trkpt>
      <trkpt lat="0" lon="0">
        <time>2020-12-20T08:32:32.336000+00:00</time>
      </trkpt>
      <trkpt lat="47.31816" lon="-1.31947">
        <ele>73</ele>
        <time>2020-12-20T08:32:33.306000+00:00</time>
      </trkpt>
      <trkpt lat="0" lon="0">
        <time>2020-12-20T08:32:33.312000+00:00</time>
      </trkpt>
      <trkpt lat="0" lon="0">
        <time>2020-12-20T08:32:33.328000+00:00</time>
      </trkpt>
      <trkpt lat="0" lon="0">
        <time>2020-12-20T08:32:33.335000+00:00</time>
      </trkpt>
      <trkpt lat="47.31816" lon="-1.31941">
        <ele>73</ele>
        <time>2020-12-20T08:32:34.325000+00:00</time>
      </trkpt>
      <trkpt lat="0" lon="0">
        <time>2020-12-20T08:32:34.344000+00:00</time>
      </trkpt>
      <trkpt lat="0" lon="0">
        <time>2020-12-20T08:32:34.350000+00:00</time>
      </trkpt>
      <trkpt lat="0" lon="0">
        <time>2020-12-20T08:32:34.353000+00:00</time>
      </trkpt>
      <trkpt lat="47.31817" lon="-1.31934">
        <ele>73</ele>
        <time>2020-12-20T08:32:35.353000+00:00</time>
      </trkpt>
      <trkpt lat="0" lon="0">
        <time>2020-12-20T08:32:35.368000+00:00</time>
      </trkpt>
      <trkpt lat="0" lon="0">
        <time>2020-12-20T08:32:35.372000+00:00</time>
      </trkpt>
      <trkpt lat="0" lon="0">
        <time>2020-12-20T08:32:35.373000+00:00</time>
      </trkpt>
      <trkpt lat="47.31818" lon="-1.31927">
        <ele>73</ele>
        <time>2020-12-20T08:32:36.349000+00:00</time>
      </trkpt>
      <trkpt lat="0" lon="0">
        <time>2020-12-20T08:32:36.377000+00:00</time>
      </trkpt>
      <trkpt lat="0" lon="0">
        <time>2020-12-20T08:32:36.384000+00:00</time>
      </trkpt>
      <trkpt lat="0" lon="0">
        <time>2020-12-20T08:32:36.389000+00:00</time>
      </trkpt>
      <trkpt lat="47.31819" lon="-1.3192">
        <ele>74</ele>
        <time>2020-12-20T08:32:37.323000+00:00</time>
      </trkpt>
      <trkpt lat="0" lon="0">
        <time>2020-12-20T08:32:37.333000+00:00</time>
      </trkpt>
      <trkpt lat="0" lon="0">
        <time>2020-12-20T08:32:37.338000+00:00</time>
      </trkpt>
      <trkpt lat="0" lon="0">
        <time>2020-12-20T08:32:37.339000+00:00</time>
      </trkpt>
      <trkpt lat="47.31821" lon="-1.31911">
        <ele>73</ele>
        <time>2020-12-20T08:32:38.353000+00:00</time>
      </trkpt>
      <trkpt lat="0" lon="0">
        <time>2020-12-20T08:32:38.361000+00:00</time>
      </trkpt>
      <trkpt lat="0" lon="0">
        <time>2020-12-20T08:32:38.365000+00:00</time>
      </trkpt>
      <trkpt lat="0" lon="0">
        <time>2020-12-20T08:32:38.370000+00:00</time>
      </trkpt>
      <trkpt lat="47.31822" lon="-1.31903">
        <ele>72</ele>
        <time>2020-12-20T08:32:39.364000+00:00</time>
      </trkpt>
      <trkpt lat="0" lon="0">
        <time>2020-12-20T08:32:39.370000+00:00</time>
      </trkpt>
      <trkpt lat="0" lon="0">
        <time>2020-12-20T08:32:39.376000+00:00</time>
      </trkpt>
      <trkpt lat="0" lon="0">
        <time>2020-12-20T08:32:39.380000+00:00</time>
      </trkpt>
      <trkpt lat="47.31825" lon="-1.31895">
        <ele>72</ele>
        <time>2020-12-20T08:32:40.358000+00:00</time>
      </trkpt>
      <trkpt lat="0" lon="0">
        <time>2020-12-20T08:32:40.369000+00:00</time>
      </trkpt>
      <trkpt lat="0" lon="0">
        <time>2020-12-20T08:32:40.373000+00:00</time>
      </trkpt>
      <trkpt lat="0" lon="0">
        <time>2020-12-20T08:32:40.376000+00:00</time>
      </trkpt>
      <trkpt lat="47.31827" lon="-1.31887">
        <ele>71</ele>
        <time>2020-12-20T08:32:41.344000+00:00</time>
      </trkpt>
      <trkpt lat="0" lon="0">
        <time>2020-12-20T08:32:41.350000+00:00</time>
      </trkpt>
      <trkpt lat="0" lon="0">
        <time>2020-12-20T08:32:41.366000+00:00</time>
      </trkpt>
      <trkpt lat="0" lon="0">
        <time>2020-12-20T08:32:41.373000+00:00</time>
      </trkpt>
      <trkpt lat="47.3183" lon="-1.31878">
        <ele>71</ele>
        <time>2020-12-20T08:32:42.347000+00:00</time>
      </trkpt>
      <trkpt lat="0" lon="0">
        <time>2020-12-20T08:32:42.359000+00:00</time>
      </trkpt>
      <trkpt lat="0" lon="0">
        <time>2020-12-20T08:32:42.364000+00:00</time>
      </trkpt>
      <trkpt lat="0" lon="0">
        <time>2020-12-20T08:32:42.367000+00:00</time>
      </trkpt>
      <trkpt lat="47.31832" lon="-1.3187">
        <ele>72</ele>
        <time>2020-12-20T08:32:43.339000+00:00</time>
      </trkpt>
      <trkpt lat="0" lon="0">
        <time>2020-12-20T08:32:43.350000+00:00</time>
      </trkpt>
      <trkpt lat="0" lon="0">
        <time>2020-12-20T08:32:43.352000+00:00</time>
      </trkpt>
      <trkpt lat="0" lon="0">
        <time>2020-12-20T08:32:43.353000+00:00</time>
      </trkpt>
      <trkpt lat="47.31835" lon="-1.31861">
        <ele>72</ele>
        <time>2020-12-20T08:32:44.331000+00:00</time>
      </trkpt>
      <trkpt lat="0" lon="0">
        <time>2020-12-20T08:32:44.347000+00:00</time>
      </trkpt>
      <trkpt lat="0" lon="0">
        <time>2020-12-20T08:32:44.358000+00:00</time>
      </trkpt>
      <trkpt lat="0" lon="0">
        <time>2020-12-20T08:32:44.360000+00:00</time>
      </trkpt>
      <trkpt lat="47.31838" lon="-1.31853">
        <ele>71</ele>
        <time>2020-12-20T08:32:45.338000+00:00</time>
      </trkpt>
      <trkpt lat="0" lon="0">
        <time>2020-12-20T08:32:45.353000+00:00</time>
      </trkpt>
      <trkpt lat="0" lon="0">
        <time>2020-12-20T08:32:45.358000+00:00</time>
      </trkpt>
      <trkpt lat="0" lon="0">
        <time>2020-12-20T08:32:45.360000+00:00</time>
      </trkpt>
      <trkpt lat="47.3184" lon="-1.31844">
        <ele>71</ele>
        <time>2020-12-20T08:32:46.340000+00:00</time>
      </trkpt>
      <trkpt lat="0" lon="0">
        <time>2020-12-20T08:32:46.344000+00:00</time>
      </trkpt>
      <trkpt lat="0" lon="0">
        <time>2020-12-20T08:32:46.349000+00:00</time>
      </trkpt>
      <trkpt lat="0" lon="0">
        <time>2020-12-20T08:32:46.351000+00:00</time>
      </trkpt>
      <trkpt lat="47.31843" lon="-1.31835">
        <ele>71</ele>
        <time>2020-12-20T08:32:47.356000+00:00</time>
      </trkpt>
      <trkpt lat="0" lon="0">
        <time>2020-12-20T08:32:47.370000+00:00</time>
      </trkpt>
      <trkpt lat="0" lon="0">
        <time>2020-12-20T08:32:47.376000+00:00</time>
      </trkpt>
      <trkpt lat="0" lon="0">
        <time>2020-12-20T08:32:47.380000+00:00</time>
      </trkpt>
      <trkpt lat="47.31845" lon="-1.31827">
        <ele>71</ele>
        <time>2020-12-20T08:32:48.318000+00:00</time>
      </trkpt>
      <trkpt lat="0" lon="0">
        <time>2020-12-20T08:32:48.335000+00:00</time>
      </trkpt>
      <trkpt lat="0" lon="0">
        <time>2020-12-20T08:32:48.339000+00:00</time>
      </trkpt>
      <trkpt lat="0" lon="0">
        <time>2020-12-20T08:32:48.340000+00:00</time>
      </trkpt>
      <trkpt lat="47.31847" lon="-1.31818">
        <ele>70</ele>
        <time>2020-12-20T08:32:49.306000+00:00</time>
      </trkpt>
      <trkpt lat="0" lon="0">
        <time>2020-12-20T08:32:49.310000+00:00</time>
      </trkpt>
      <trkpt lat="0" lon="0">
        <time>2020-12-20T08:32:49.312000+00:00</time>
      </trkpt>
      <trkpt lat="0" lon="0">
        <time>2020-12-20T08:32:49.313000+00:00</time>
      </trkpt>
      <trkpt lat="47.31849" lon="-1.3181">
        <ele>70</ele>
        <time>2020-12-20T08:32:50.348000+00:00</time>
      </trkpt>
      <trkpt lat="0" lon="0">
        <time>2020-12-20T08:32:50.360000+00:00</time>
      </trkpt>
      <trkpt lat="0" lon="0">
        <time>2020-12-20T08:32:50.364000+00:00</time>
      </trkpt>
      <trkpt lat="0" lon="0">
        <time>2020-12-20T08:32:50.366000+00:00</time>
      </trkpt>
      <trkpt lat="47.31851" lon="-1.31801">
        <ele>70</ele>
        <time>2020-12-20T08:32:51.328000+00:00</time>
      </trkpt>
      <trkpt lat="0" lon="0">
        <time>2020-12-20T08:32:51.333000+00:00</time>
      </trkpt>
      <trkpt lat="0" lon="0">
        <time>2020-12-20T08:32:51.343000+00:00</time>
      </trkpt>
      <trkpt lat="0" lon="0">
        <time>2020-12-20T08:32:51.348000+00:00</time>
      </trkpt>
      <trkpt lat="47.31852" lon="-1.31793">
        <ele>70</ele>
        <time>2020-12-20T08:32:52.332000+00:00</time>
      </trkpt>
      <trkpt lat="0" lon="0">
        <time>2020-12-20T08:32:52.340000+00:00</time>
      </trkpt>
      <trkpt lat="0" lon="0">
        <time>2020-12-20T08:32:52.345000+00:00</time>
      </trkpt>
      <trkpt lat="0" lon="0">
        <time>2020-12-20T08:32:52.347000+00:00</time>
      </trkpt>
      <trkpt lat="47.31854" lon="-1.31785">
        <ele>69</ele>
        <time>2020-12-20T08:32:53.369000+00:00</time>
      </trkpt>
      <trkpt lat="0" lon="0">
        <time>2020-12-20T08:32:53.383000+00:00</time>
      </trkpt>
      <trkpt lat="0" lon="0">
        <time>2020-12-20T08:32:53.387000+00:00</time>
      </trkpt>
      <trkpt lat="0" lon="0">
        <time>2020-12-20T08:32:53.391000+00:00</time>
      </trkpt>
      <trkpt lat="47.31855" lon="-1.31776">
        <ele>69</ele>
        <time>2020-12-20T08:32:54.334000+00:00</time>
      </trkpt>
      <trkpt lat="0" lon="0">
        <time>2020-12-20T08:32:54.366000+00:00</time>
      </trkpt>
      <trkpt lat="0" lon="0">
        <time>2020-12-20T08:32:54.372000+00:00</time>
      </trkpt>
      <trkpt lat="0" lon="0">
        <time>2020-12-20T08:32:54.375000+00:00</time>
      </trkpt>
      <trkpt lat="47.31856" lon="-1.31768">
        <ele>69</ele>
        <time>2020-12-20T08:32:55.317000+00:00</time>
      </trkpt>
      <trkpt lat="0" lon="0">
        <time>2020-12-20T08:32:55.328000+00:00</time>
      </trkpt>
      <trkpt lat="0" lon="0">
        <time>2020-12-20T08:32:55.330000+00:00</time>
      </trkpt>
      <trkpt lat="0" lon="0">
        <time>2020-12-20T08:32:55.331000+00:00</time>
      </trkpt>
      <trkpt lat="47.31857" lon="-1.3176">
        <ele>69</ele>
        <time>2020-12-20T08:32:56.289000+00:00</time>
      </trkpt>
      <trkpt lat="0" lon="0">
        <time>2020-12-20T08:32:56.294000+00:00</time>
      </trkpt>
      <trkpt lat="0" lon="0">
        <time>2020-12-20T08:32:56.299000+00:00</time>
      </trkpt>
      <trkpt lat="0" lon="0">
        <time>2020-12-20T08:32:56.306000+00:00</time>
      </trkpt>
      <trkpt lat="47.31858" lon="-1.31752">
        <ele>68</ele>
        <time>2020-12-20T08:32:57.315000+00:00</time>
      </trkpt>
      <trkpt lat="0" lon="0">
        <time>2020-12-20T08:32:57.321000+00:00</time>
      </trkpt>
      <trkpt lat="0" lon="0">
        <time>2020-12-20T08:32:57.325000+00:00</time>
      </trkpt>
      <trkpt lat="0" lon="0">
        <time>2020-12-20T08:32:57.328000+00:00</time>
      </trkpt>
      <trkpt lat="47.31859" lon="-1.31744">
        <ele>67</ele>
        <time>2020-12-20T08:32:58.313000+00:00</time>
      </trkpt>
      <trkpt lat="0" lon="0">
        <time>2020-12-20T08:32:58.330000+00:00</time>
      </trkpt>
      <trkpt lat="0" lon="0">
        <time>2020-12-20T08:32:58.332000+00:00</time>
      </trkpt>
      <trkpt lat="0" lon="0">
        <time>2020-12-20T08:32:58.334000+00:00</time>
      </trkpt>
      <trkpt lat="47.3186" lon="-1.31737">
        <ele>66</ele>
        <time>2020-12-20T08:32:59.301000+00:00</time>
      </trkpt>
      <trkpt lat="0" lon="0">
        <time>2020-12-20T08:32:59.311000+00:00</time>
      </trkpt>
      <trkpt lat="0" lon="0">
        <time>2020-12-20T08:32:59.318000+00:00</time>
      </trkpt>
      <trkpt lat="0" lon="0">
        <time>2020-12-20T08:32:59.322000+00:00</time>
      </trkpt>
      <trkpt lat="47.3186" lon="-1.31729">
        <ele>66</ele>
        <time>2020-12-20T08:33:00.329000+00:00</time>
      </trkpt>
      <trkpt lat="0" lon="0">
        <time>2020-12-20T08:33:00.333000+00:00</time>
      </trkpt>
      <trkpt lat="0" lon="0">
        <time>2020-12-20T08:33:00.338000+00:00</time>
      </trkpt>
      <trkpt lat="0" lon="0">
        <time>2020-12-20T08:33:00.341000+00:00</time>
      </trkpt>
      <trkpt lat="47.31861" lon="-1.31721">
        <ele>66</ele>
        <time>2020-12-20T08:33:01.317000+00:00</time>
      </trkpt>
      <trkpt lat="0" lon="0">
        <time>2020-12-20T08:33:01.328000+00:00</time>
      </trkpt>
      <trkpt lat="0" lon="0">
        <time>2020-12-20T08:33:01.338000+00:00</time>
      </trkpt>
      <trkpt lat="0" lon="0">
        <time>2020-12-20T08:33:01.340000+00:00</time>
      </trkpt>
      <trkpt lat="47.31861" lon="-1.31714">
        <ele>66</ele>
        <time>2020-12-20T08:33:02.304000+00:00</time>
      </trkpt>
      <trkpt lat="0" lon="0">
        <time>2020-12-20T08:33:02.309000+00:00</time>
      </trkpt>
      <trkpt lat="0" lon="0">
        <time>2020-12-20T08:33:02.318000+00:00</time>
      </trkpt>
      <trkpt lat="0" lon="0">
        <time>2020-12-20T08:33:02.321000+00:00</time>
      </trkpt>
      <trkpt lat="47.31861" lon="-1.31706">
        <ele>66</ele>
        <time>2020-12-20T08:33:03.326000+00:00</time>
      </trkpt>
      <trkpt lat="0" lon="0">
        <time>2020-12-20T08:33:03.340000+00:00</time>
      </trkpt>
      <trkpt lat="0" lon="0">
        <time>2020-12-20T08:33:03.346000+00:00</time>
      </trkpt>
      <trkpt lat="0" lon="0">
        <time>2020-12-20T08:33:03.350000+00:00</time>
      </trkpt>
      <trkpt lat="47.31861" lon="-1.31699">
        <ele>66</ele>
        <time>2020-12-20T08:33:04.319000+00:00</time>
      </trkpt>
      <trkpt lat="0" lon="0">
        <time>2020-12-20T08:33:04.324000+00:00</time>
      </trkpt>
      <trkpt lat="0" lon="0">
        <time>2020-12-20T08:33:04.329000+00:00</time>
      </trkpt>
      <trkpt lat="0" lon="0">
        <time>2020-12-20T08:33:04.331000+00:00</time>
      </trkpt>
      <trkpt lat="47.31861" lon="-1.31692">
        <ele>66</ele>
        <time>2020-12-20T08:33:05.276000+00:00</time>
      </trkpt>
      <trkpt lat="0" lon="0">
        <time>2020-12-20T08:33:05.281000+00:00</time>
      </trkpt>
      <trkpt lat="0" lon="0">
        <time>2020-12-20T08:33:05.291000+00:00</time>
      </trkpt>
      <trkpt lat="0" lon="0">
        <time>2020-12-20T08:33:05.296000+00:00</time>
      </trkpt>
      <trkpt lat="47.31861" lon="-1.31684">
        <ele>65</ele>
        <time>2020-12-20T08:33:06.303000+00:00</time>
      </trkpt>
      <trkpt lat="0" lon="0">
        <time>2020-12-20T08:33:06.318000+00:00</time>
      </trkpt>
      <trkpt lat="0" lon="0">
        <time>2020-12-20T08:33:06.322000+00:00</time>
      </trkpt>
      <trkpt lat="0" lon="0">
        <time>2020-12-20T08:33:06.324000+00:00</time>
      </trkpt>
      <trkpt lat="47.3186" lon="-1.31677">
        <ele>65</ele>
        <time>2020-12-20T08:33:07.310000+00:00</time>
      </trkpt>
      <trkpt lat="0" lon="0">
        <time>2020-12-20T08:33:07.314000+00:00</time>
      </trkpt>
      <trkpt lat="0" lon="0">
        <time>2020-12-20T08:33:07.334000+00:00</time>
      </trkpt>
      <trkpt lat="0" lon="0">
        <time>2020-12-20T08:33:07.340000+00:00</time>
      </trkpt>
      <trkpt lat="47.3186" lon="-1.31669">
        <ele>65</ele>
        <time>2020-12-20T08:33:08.297000+00:00</time>
      </trkpt>
      <trkpt lat="0" lon="0">
        <time>2020-12-20T08:33:08.320000+00:00</time>
      </trkpt>
      <trkpt lat="0" lon="0">
        <time>2020-12-20T08:33:08.324000+00:00</time>
      </trkpt>
      <trkpt lat="0" lon="0">
        <time>2020-12-20T08:33:08.326000+00:00</time>
      </trkpt>
      <trkpt lat="47.3186" lon="-1.31662">
        <ele>65</ele>
        <time>2020-12-20T08:33:09.335000+00:00</time>
      </trkpt>
      <trkpt lat="0" lon="0">
        <time>2020-12-20T08:33:09.342000+00:00</time>
      </trkpt>
      <trkpt lat="0" lon="0">
        <time>2020-12-20T08:33:09.348000+00:00</time>
      </trkpt>
      <trkpt lat="0" lon="0">
        <time>2020-12-20T08:33:09.352000+00:00</time>
      </trkpt>
      <trkpt lat="47.3186" lon="-1.31655">
        <ele>64</ele>
        <time>2020-12-20T08:33:10.297000+00:00</time>
      </trkpt>
      <trkpt lat="0" lon="0">
        <time>2020-12-20T08:33:10.308000+00:00</time>
      </trkpt>
      <trkpt lat="0" lon="0">
        <time>2020-12-20T08:33:10.320000+00:00</time>
      </trkpt>
      <trkpt lat="0" lon="0">
        <time>2020-12-20T08:33:10.322000+00:00</time>
      </trkpt>
      <trkpt lat="47.3186" lon="-1.31647">
        <ele>64</ele>
        <time>2020-12-20T08:33:11.327000+00:00</time>
      </trkpt>
      <trkpt lat="0" lon="0">
        <time>2020-12-20T08:33:11.340000+00:00</time>
      </trkpt>
      <trkpt lat="0" lon="0">
        <time>2020-12-20T08:33:11.344000+00:00</time>
      </trkpt>
      <trkpt lat="0" lon="0">
        <time>2020-12-20T08:33:11.347000+00:00</time>
      </trkpt>
      <trkpt lat="47.31861" lon="-1.3164">
        <ele>64</ele>
        <time>2020-12-20T08:33:12.325000+00:00</time>
      </trkpt>
      <trkpt lat="0" lon="0">
        <time>2020-12-20T08:33:12.332000+00:00</time>
      </trkpt>
      <trkpt lat="0" lon="0">
        <time>2020-12-20T08:33:12.336000+00:00</time>
      </trkpt>
      <trkpt lat="0" lon="0">
        <time>2020-12-20T08:33:12.337000+00:00</time>
      </trkpt>
      <trkpt lat="47.31862" lon="-1.31633">
        <ele>64</ele>
        <time>2020-12-20T08:33:13.290000+00:00</time>
      </trkpt>
      <trkpt lat="0" lon="0">
        <time>2020-12-20T08:33:13.303000+00:00</time>
      </trkpt>
      <trkpt lat="0" lon="0">
        <time>2020-12-20T08:33:13.308000+00:00</time>
      </trkpt>
      <trkpt lat="0" lon="0">
        <time>2020-12-20T08:33:13.311000+00:00</time>
      </trkpt>
      <trkpt lat="47.31863" lon="-1.31625">
        <ele>64</ele>
        <time>2020-12-20T08:33:14.300000+00:00</time>
      </trkpt>
      <trkpt lat="0" lon="0">
        <time>2020-12-20T08:33:14.309000+00:00</time>
      </trkpt>
      <trkpt lat="0" lon="0">
        <time>2020-12-20T08:33:14.316000+00:00</time>
      </trkpt>
      <trkpt lat="0" lon="0">
        <time>2020-12-20T08:33:14.323000+00:00</time>
      </trkpt>
      <trkpt lat="47.31865" lon="-1.31618">
        <ele>64</ele>
        <time>2020-12-20T08:33:15.312000+00:00</time>
      </trkpt>
      <trkpt lat="0" lon="0">
        <time>2020-12-20T08:33:15.317000+00:00</time>
      </trkpt>
      <trkpt lat="0" lon="0">
        <time>2020-12-20T08:33:15.322000+00:00</time>
      </trkpt>
      <trkpt lat="0" lon="0">
        <time>2020-12-20T08:33:15.324000+00:00</time>
      </trkpt>
      <trkpt lat="47.31867" lon="-1.3161">
        <ele>64</ele>
        <time>2020-12-20T08:33:16.279000+00:00</time>
      </trkpt>
      <trkpt lat="0" lon="0">
        <time>2020-12-20T08:33:16.295000+00:00</time>
      </trkpt>
      <trkpt lat="0" lon="0">
        <time>2020-12-20T08:33:16.304000+00:00</time>
      </trkpt>
      <trkpt lat="0" lon="0">
        <time>2020-12-20T08:33:16.309000+00:00</time>
      </trkpt>
      <trkpt lat="47.31869" lon="-1.31603">
        <ele>64</ele>
        <time>2020-12-20T08:33:17.299000+00:00</time>
      </trkpt>
      <trkpt lat="0" lon="0">
        <time>2020-12-20T08:33:17.309000+00:00</time>
      </trkpt>
      <trkpt lat="0" lon="0">
        <time>2020-12-20T08:33:17.314000+00:00</time>
      </trkpt>
      <trkpt lat="0" lon="0">
        <time>2020-12-20T08:33:17.317000+00:00</time>
      </trkpt>
      <trkpt lat="47.31871" lon="-1.31595">
        <ele>64</ele>
        <time>2020-12-20T08:33:18.310000+00:00</time>
      </trkpt>
      <trkpt lat="0" lon="0">
        <time>2020-12-20T08:33:18.328000+00:00</time>
      </trkpt>
      <trkpt lat="0" lon="0">
        <time>2020-12-20T08:33:18.336000+00:00</time>
      </trkpt>
      <trkpt lat="0" lon="0">
        <time>2020-12-20T08:33:18.342000+00:00</time>
      </trkpt>
      <trkpt lat="47.31873" lon="-1.31588">
        <ele>64</ele>
        <time>2020-12-20T08:33:19.316000+00:00</time>
      </trkpt>
      <trkpt lat="0" lon="0">
        <time>2020-12-20T08:33:19.321000+00:00</time>
      </trkpt>
      <trkpt lat="0" lon="0">
        <time>2020-12-20T08:33:19.328000+00:00</time>
      </trkpt>
      <trkpt lat="0" lon="0">
        <time>2020-12-20T08:33:19.334000+00:00</time>
      </trkpt>
      <trkpt lat="47.31875" lon="-1.3158">
        <ele>64</ele>
        <time>2020-12-20T08:33:20.315000+00:00</time>
      </trkpt>
      <trkpt lat="0" lon="0">
        <time>2020-12-20T08:33:20.322000+00:00</time>
      </trkpt>
      <trkpt lat="0" lon="0">
        <time>2020-12-20T08:33:20.328000+00:00</time>
      </trkpt>
      <trkpt lat="0" lon="0">
        <time>2020-12-20T08:33:20.332000+00:00</time>
      </trkpt>
      <trkpt lat="47.31877" lon="-1.31572">
        <ele>64</ele>
        <time>2020-12-20T08:33:21.309000+00:00</time>
      </trkpt>
      <trkpt lat="0" lon="0">
        <time>2020-12-20T08:33:21.318000+00:00</time>
      </trkpt>
      <trkpt lat="0" lon="0">
        <time>2020-12-20T08:33:21.323000+00:00</time>
      </trkpt>
      <trkpt lat="0" lon="0">
        <time>2020-12-20T08:33:21.325000+00:00</time>
      </trkpt>
      <trkpt lat="47.31879" lon="-1.31565">
        <ele>64</ele>
        <time>2020-12-20T08:33:22.308000+00:00</time>
      </trkpt>
      <trkpt lat="0" lon="0">
        <time>2020-12-20T08:33:22.321000+00:00</time>
      </trkpt>
      <trkpt lat="0" lon="0">
        <time>2020-12-20T08:33:22.325000+00:00</time>
      </trkpt>
      <trkpt lat="0" lon="0">
        <time>2020-12-20T08:33:22.327000+00:00</time>
      </trkpt>
      <trkpt lat="47.31881" lon="-1.31557">
        <ele>64</ele>
        <time>2020-12-20T08:33:23.316000+00:00</time>
      </trkpt>
      <trkpt lat="0" lon="0">
        <time>2020-12-20T08:33:23.320000+00:00</time>
      </trkpt>
      <trkpt lat="0" lon="0">
        <time>2020-12-20T08:33:23.329000+00:00</time>
      </trkpt>
      <trkpt lat="0" lon="0">
        <time>2020-12-20T08:33:23.332000+00:00</time>
      </trkpt>
      <trkpt lat="47.31883" lon="-1.31549">
        <ele>64</ele>
        <time>2020-12-20T08:33:24.360000+00:00</time>
      </trkpt>
      <trkpt lat="0" lon="0">
        <time>2020-12-20T08:33:24.370000+00:00</time>
      </trkpt>
      <trkpt lat="0" lon="0">
        <time>2020-12-20T08:33:24.374000+00:00</time>
      </trkpt>
      <trkpt lat="0" lon="0">
        <time>2020-12-20T08:33:24.376000+00:00</time>
      </trkpt>
      <trkpt lat="47.31885" lon="-1.31541">
        <ele>64</ele>
        <time>2020-12-20T08:33:25.295000+00:00</time>
      </trkpt>
      <trkpt lat="0" lon="0">
        <time>2020-12-20T08:33:25.308000+00:00</time>
      </trkpt>
      <trkpt lat="0" lon="0">
        <time>2020-12-20T08:33:25.312000+00:00</time>
      </trkpt>
      <trkpt lat="0" lon="0">
        <time>2020-12-20T08:33:25.314000+00:00</time>
      </trkpt>
      <trkpt lat="47.31887" lon="-1.31534">
        <ele>64</ele>
        <time>2020-12-20T08:33:26.311000+00:00</time>
      </trkpt>
      <trkpt lat="0" lon="0">
        <time>2020-12-20T08:33:26.327000+00:00</time>
      </trkpt>
      <trkpt lat="0" lon="0">
        <time>2020-12-20T08:33:26.337000+00:00</time>
      </trkpt>
      <trkpt lat="0" lon="0">
        <time>2020-12-20T08:33:26.339000+00:00</time>
      </trkpt>
      <trkpt lat="47.31888" lon="-1.31526">
        <ele>63</ele>
        <time>2020-12-20T08:33:27.285000+00:00</time>
      </trkpt>
      <trkpt lat="0" lon="0">
        <time>2020-12-20T08:33:27.290000+00:00</time>
      </trkpt>
      <trkpt lat="0" lon="0">
        <time>2020-12-20T08:33:27.294000+00:00</time>
      </trkpt>
      <trkpt lat="0" lon="0">
        <time>2020-12-20T08:33:27.296000+00:00</time>
      </trkpt>
      <trkpt lat="47.3189" lon="-1.31518">
        <ele>63</ele>
        <time>2020-12-20T08:33:28.317000+00:00</time>
      </trkpt>
      <trkpt lat="0" lon="0">
        <time>2020-12-20T08:33:28.339000+00:00</time>
      </trkpt>
      <trkpt lat="0" lon="0">
        <time>2020-12-20T08:33:28.342000+00:00</time>
      </trkpt>
      <trkpt lat="0" lon="0">
        <time>2020-12-20T08:33:28.345000+00:00</time>
      </trkpt>
      <trkpt lat="47.31892" lon="-1.31509">
        <ele>63</ele>
        <time>2020-12-20T08:33:29.320000+00:00</time>
      </trkpt>
      <trkpt lat="0" lon="0">
        <time>2020-12-20T08:33:29.327000+00:00</time>
      </trkpt>
      <trkpt lat="0" lon="0">
        <time>2020-12-20T08:33:29.333000+00:00</time>
      </trkpt>
      <trkpt lat="0" lon="0">
        <time>2020-12-20T08:33:29.338000+00:00</time>
      </trkpt>
      <trkpt lat="47.31894" lon="-1.31501">
        <ele>63</ele>
        <time>2020-12-20T08:33:30.332000+00:00</time>
      </trkpt>
      <trkpt lat="0" lon="0">
        <time>2020-12-20T08:33:30.338000+00:00</time>
      </trkpt>
      <trkpt lat="0" lon="0">
        <time>2020-12-20T08:33:30.343000+00:00</time>
      </trkpt>
      <trkpt lat="0" lon="0">
        <time>2020-12-20T08:33:30.346000+00:00</time>
      </trkpt>
      <trkpt lat="47.31896" lon="-1.31493">
        <ele>63</ele>
        <time>2020-12-20T08:33:31.275000+00:00</time>
      </trkpt>
      <trkpt lat="0" lon="0">
        <time>2020-12-20T08:33:31.279000+00:00</time>
      </trkpt>
      <trkpt lat="0" lon="0">
        <time>2020-12-20T08:33:31.288000+00:00</time>
      </trkpt>
      <trkpt lat="0" lon="0">
        <time>2020-12-20T08:33:31.290000+00:00</time>
      </trkpt>
      <trkpt lat="47.31897" lon="-1.31484">
        <ele>63</ele>
        <time>2020-12-20T08:33:32.328000+00:00</time>
      </trkpt>
      <trkpt lat="0" lon="0">
        <time>2020-12-20T08:33:32.334000+00:00</time>
      </trkpt>
      <trkpt lat="0" lon="0">
        <time>2020-12-20T08:33:32.339000+00:00</time>
      </trkpt>
      <trkpt lat="0" lon="0">
        <time>2020-12-20T08:33:32.342000+00:00</time>
      </trkpt>
      <trkpt lat="47.31899" lon="-1.31476">
        <ele>63</ele>
        <time>2020-12-20T08:33:33.303000+00:00</time>
      </trkpt>
      <trkpt lat="0" lon="0">
        <time>2020-12-20T08:33:33.323000+00:00</time>
      </trkpt>
      <trkpt lat="0" lon="0">
        <time>2020-12-20T08:33:33.328000+00:00</time>
      </trkpt>
      <trkpt lat="0" lon="0">
        <time>2020-12-20T08:33:33.330000+00:00</time>
      </trkpt>
      <trkpt lat="47.31901" lon="-1.31468">
        <ele>62</ele>
        <time>2020-12-20T08:33:34.301000+00:00</time>
      </trkpt>
      <trkpt lat="0" lon="0">
        <time>2020-12-20T08:33:34.315000+00:00</time>
      </trkpt>
      <trkpt lat="0" lon="0">
        <time>2020-12-20T08:33:34.316000+00:00</time>
      </trkpt>
      <trkpt lat="0" lon="0">
        <time>2020-12-20T08:33:34.317000+00:00</time>
      </trkpt>
      <trkpt lat="47.31903" lon="-1.3146">
        <ele>62</ele>
        <time>2020-12-20T08:33:35.336000+00:00</time>
      </trkpt>
      <trkpt lat="0" lon="0">
        <time>2020-12-20T08:33:35.347000+00:00</time>
      </trkpt>
      <trkpt lat="0" lon="0">
        <time>2020-12-20T08:33:35.353000+00:00</time>
      </trkpt>
      <trkpt lat="0" lon="0">
        <time>2020-12-20T08:33:35.358000+00:00</time>
      </trkpt>
      <trkpt lat="47.31906" lon="-1.31452">
        <ele>62</ele>
        <time>2020-12-20T08:33:36.341000+00:00</time>
      </trkpt>
      <trkpt lat="0" lon="0">
        <time>2020-12-20T08:33:36.347000+00:00</time>
      </trkpt>
      <trkpt lat="0" lon="0">
        <time>2020-12-20T08:33:36.349000+00:00</time>
      </trkpt>
      <trkpt lat="0" lon="0">
        <time>2020-12-20T08:33:36.350000+00:00</time>
      </trkpt>
      <trkpt lat="47.31908" lon="-1.31445">
        <ele>62</ele>
        <time>2020-12-20T08:33:37.321000+00:00</time>
      </trkpt>
      <trkpt lat="0" lon="0">
        <time>2020-12-20T08:33:37.338000+00:00</time>
      </trkpt>
      <trkpt lat="0" lon="0">
        <time>2020-12-20T08:33:37.348000+00:00</time>
      </trkpt>
      <trkpt lat="0" lon="0">
        <time>2020-12-20T08:33:37.350000+00:00</time>
      </trkpt>
      <trkpt lat="47.31911" lon="-1.31437">
        <ele>61</ele>
        <time>2020-12-20T08:33:38.304000+00:00</time>
      </trkpt>
      <trkpt lat="0" lon="0">
        <time>2020-12-20T08:33:38.311000+00:00</time>
      </trkpt>
      <trkpt lat="0" lon="0">
        <time>2020-12-20T08:33:38.320000+00:00</time>
      </trkpt>
      <trkpt lat="0" lon="0">
        <time>2020-12-20T08:33:38.323000+00:00</time>
      </trkpt>
      <trkpt lat="47.31913" lon="-1.31429">
        <ele>61</ele>
        <time>2020-12-20T08:33:39.313000+00:00</time>
      </trkpt>
      <trkpt lat="0" lon="0">
        <time>2020-12-20T08:33:39.326000+00:00</time>
      </trkpt>
      <trkpt lat="0" lon="0">
        <time>2020-12-20T08:33:39.335000+00:00</time>
      </trkpt>
      <trkpt lat="0" lon="0">
        <time>2020-12-20T08:33:39.336000+00:00</time>
      </trkpt>
      <trkpt lat="47.31916" lon="-1.31422">
        <ele>61</ele>
        <time>2020-12-20T08:33:40.320000+00:00</time>
      </trkpt>
      <trkpt lat="0" lon="0">
        <time>2020-12-20T08:33:40.325000+00:00</time>
      </trkpt>
      <trkpt lat="0" lon="0">
        <time>2020-12-20T08:33:40.330000+00:00</time>
      </trkpt>
      <trkpt lat="0" lon="0">
        <time>2020-12-20T08:33:40.333000+00:00</time>
      </trkpt>
      <trkpt lat="47.31919" lon="-1.31414">
        <ele>61</ele>
        <time>2020-12-20T08:33:41.301000+00:00</time>
      </trkpt>
      <trkpt lat="0" lon="0">
        <time>2020-12-20T08:33:41.316000+00:00</time>
      </trkpt>
      <trkpt lat="0" lon="0">
        <time>2020-12-20T08:33:41.325000+00:00</time>
      </trkpt>
      <trkpt lat="0" lon="0">
        <time>2020-12-20T08:33:41.328000+00:00</time>
      </trkpt>
      <trkpt lat="47.31921" lon="-1.31407">
        <ele>61</ele>
        <time>2020-12-20T08:33:42.323000+00:00</time>
      </trkpt>
      <trkpt lat="0" lon="0">
        <time>2020-12-20T08:33:42.329000+00:00</time>
      </trkpt>
      <trkpt lat="0" lon="0">
        <time>2020-12-20T08:33:42.333000+00:00</time>
      </trkpt>
      <trkpt lat="0" lon="0">
        <time>2020-12-20T08:33:42.334000+00:00</time>
      </trkpt>
      <trkpt lat="47.31924" lon="-1.31401">
        <ele>61</ele>
        <time>2020-12-20T08:33:43.314000+00:00</time>
      </trkpt>
      <trkpt lat="0" lon="0">
        <time>2020-12-20T08:33:43.331000+00:00</time>
      </trkpt>
      <trkpt lat="0" lon="0">
        <time>2020-12-20T08:33:43.337000+00:00</time>
      </trkpt>
      <trkpt lat="0" lon="0">
        <time>2020-12-20T08:33:43.339000+00:00</time>
      </trkpt>
      <trkpt lat="47.31927" lon="-1.31394">
        <ele>61</ele>
        <time>2020-12-20T08:33:44.313000+00:00</time>
      </trkpt>
      <trkpt lat="0" lon="0">
        <time>2020-12-20T08:33:44.320000+00:00</time>
      </trkpt>
      <trkpt lat="0" lon="0">
        <time>2020-12-20T08:33:44.325000+00:00</time>
      </trkpt>
      <trkpt lat="0" lon="0">
        <time>2020-12-20T08:33:44.330000+00:00</time>
      </trkpt>
      <trkpt lat="47.31929" lon="-1.31388">
        <ele>61</ele>
        <time>2020-12-20T08:33:45.310000+00:00</time>
      </trkpt>
      <trkpt lat="0" lon="0">
        <time>2020-12-20T08:33:45.318000+00:00</time>
      </trkpt>
      <trkpt lat="0" lon="0">
        <time>2020-12-20T08:33:45.323000+00:00</time>
      </trkpt>
      <trkpt lat="0" lon="0">
        <time>2020-12-20T08:33:45.325000+00:00</time>
      </trkpt>
      <trkpt lat="47.31932" lon="-1.31382">
        <ele>61</ele>
        <time>2020-12-20T08:33:46.328000+00:00</time>
      </trkpt>
      <trkpt lat="0" lon="0">
        <time>2020-12-20T08:33:46.336000+00:00</time>
      </trkpt>
      <trkpt lat="0" lon="0">
        <time>2020-12-20T08:33:46.340000+00:00</time>
      </trkpt>
      <trkpt lat="0" lon="0">
        <time>2020-12-20T08:33:46.343000+00:00</time>
      </trkpt>
      <trkpt lat="47.31934" lon="-1.31376">
        <ele>62</ele>
        <time>2020-12-20T08:33:47.317000+00:00</time>
      </trkpt>
      <trkpt lat="0" lon="0">
        <time>2020-12-20T08:33:47.329000+00:00</time>
      </trkpt>
      <trkpt lat="0" lon="0">
        <time>2020-12-20T08:33:47.339000+00:00</time>
      </trkpt>
      <trkpt lat="0" lon="0">
        <time>2020-12-20T08:33:47.343000+00:00</time>
      </trkpt>
      <trkpt lat="47.31937" lon="-1.3137">
        <ele>62</ele>
        <time>2020-12-20T08:33:48.313000+00:00</time>
      </trkpt>
      <trkpt lat="0" lon="0">
        <time>2020-12-20T08:33:48.321000+00:00</time>
      </trkpt>
      <trkpt lat="0" lon="0">
        <time>2020-12-20T08:33:48.334000+00:00</time>
      </trkpt>
      <trkpt lat="0" lon="0">
        <time>2020-12-20T08:33:48.341000+00:00</time>
      </trkpt>
      <trkpt lat="47.31939" lon="-1.31364">
        <ele>62</ele>
        <time>2020-12-20T08:33:49.307000+00:00</time>
      </trkpt>
      <trkpt lat="0" lon="0">
        <time>2020-12-20T08:33:49.326000+00:00</time>
      </trkpt>
      <trkpt lat="0" lon="0">
        <time>2020-12-20T08:33:49.332000+00:00</time>
      </trkpt>
      <trkpt lat="0" lon="0">
        <time>2020-12-20T08:33:49.335000+00:00</time>
      </trkpt>
      <trkpt lat="47.31942" lon="-1.31358">
        <ele>62</ele>
        <time>2020-12-20T08:33:50.325000+00:00</time>
      </trkpt>
      <trkpt lat="0" lon="0">
        <time>2020-12-20T08:33:50.342000+00:00</time>
      </trkpt>
      <trkpt lat="0" lon="0">
        <time>2020-12-20T08:33:50.350000+00:00</time>
      </trkpt>
      <trkpt lat="0" lon="0">
        <time>2020-12-20T08:33:50.352000+00:00</time>
      </trkpt>
      <trkpt lat="47.31944" lon="-1.31351">
        <ele>62</ele>
        <time>2020-12-20T08:33:51.322000+00:00</time>
      </trkpt>
      <trkpt lat="0" lon="0">
        <time>2020-12-20T08:33:51.341000+00:00</time>
      </trkpt>
      <trkpt lat="0" lon="0">
        <time>2020-12-20T08:33:51.345000+00:00</time>
      </trkpt>
      <trkpt lat="0" lon="0">
        <time>2020-12-20T08:33:51.349000+00:00</time>
      </trkpt>
      <trkpt lat="47.31946" lon="-1.31345">
        <ele>62</ele>
        <time>2020-12-20T08:33:52.313000+00:00</time>
      </trkpt>
      <trkpt lat="0" lon="0">
        <time>2020-12-20T08:33:52.327000+00:00</time>
      </trkpt>
      <trkpt lat="0" lon="0">
        <time>2020-12-20T08:33:52.331000+00:00</time>
      </trkpt>
      <trkpt lat="0" lon="0">
        <time>2020-12-20T08:33:52.335000+00:00</time>
      </trkpt>
      <trkpt lat="47.31948" lon="-1.31339">
        <ele>62</ele>
        <time>2020-12-20T08:33:53.295000+00:00</time>
      </trkpt>
      <trkpt lat="0" lon="0">
        <time>2020-12-20T08:33:53.297000+00:00</time>
      </trkpt>
      <trkpt lat="0" lon="0">
        <time>2020-12-20T08:33:53.302000+00:00</time>
      </trkpt>
      <trkpt lat="0" lon="0">
        <time>2020-12-20T08:33:53.305000+00:00</time>
      </trkpt>
      <trkpt lat="47.31951" lon="-1.31332">
        <ele>62</ele>
        <time>2020-12-20T08:33:54.330000+00:00</time>
      </trkpt>
      <trkpt lat="0" lon="0">
        <time>2020-12-20T08:33:54.345000+00:00</time>
      </trkpt>
      <trkpt lat="0" lon="0">
        <time>2020-12-20T08:33:54.350000+00:00</time>
      </trkpt>
      <trkpt lat="0" lon="0">
        <time>2020-12-20T08:33:54.352000+00:00</time>
      </trkpt>
      <trkpt lat="47.31953" lon="-1.31326">
        <ele>62</ele>
        <time>2020-12-20T08:33:55.299000+00:00</time>
      </trkpt>
      <trkpt lat="0" lon="0">
        <time>2020-12-20T08:33:55.305000+00:00</time>
      </trkpt>
      <trkpt lat="0" lon="0">
        <time>2020-12-20T08:33:55.310000+00:00</time>
      </trkpt>
      <trkpt lat="0" lon="0">
        <time>2020-12-20T08:33:55.313000+00:00</time>
      </trkpt>
      <trkpt lat="47.31956" lon="-1.31319">
        <ele>62</ele>
        <time>2020-12-20T08:33:56.321000+00:00</time>
      </trkpt>
      <trkpt lat="0" lon="0">
        <time>2020-12-20T08:33:56.332000+00:00</time>
      </trkpt>
      <trkpt lat="0" lon="0">
        <time>2020-12-20T08:33:56.345000+00:00</time>
      </trkpt>
      <trkpt lat="0" lon="0">
        <time>2020-12-20T08:33:56.348000+00:00</time>
      </trkpt>
      <trkpt lat="47.31958" lon="-1.31313">
        <ele>62</ele>
        <time>2020-12-20T08:33:57.302000+00:00</time>
      </trkpt>
      <trkpt lat="0" lon="0">
        <time>2020-12-20T08:33:57.314000+00:00</time>
      </trkpt>
      <trkpt lat="0" lon="0">
        <time>2020-12-20T08:33:57.326000+00:00</time>
      </trkpt>
      <trkpt lat="0" lon="0">
        <time>2020-12-20T08:33:57.330000+00:00</time>
      </trkpt>
      <trkpt lat="47.3196" lon="-1.31306">
        <ele>63</ele>
        <time>2020-12-20T08:33:58.312000+00:00</time>
      </trkpt>
      <trkpt lat="0" lon="0">
        <time>2020-12-20T08:33:58.318000+00:00</time>
      </trkpt>
      <trkpt lat="0" lon="0">
        <time>2020-12-20T08:33:58.323000+00:00</time>
      </trkpt>
      <trkpt lat="0" lon="0">
        <time>2020-12-20T08:33:58.326000+00:00</time>
      </trkpt>
      <trkpt lat="47.31962" lon="-1.313">
        <ele>63</ele>
        <time>2020-12-20T08:33:59.307000+00:00</time>
      </trkpt>
      <trkpt lat="0" lon="0">
        <time>2020-12-20T08:33:59.312000+00:00</time>
      </trkpt>
      <trkpt lat="0" lon="0">
        <time>2020-12-20T08:33:59.317000+00:00</time>
      </trkpt>
      <trkpt lat="0" lon="0">
        <time>2020-12-20T08:33:59.320000+00:00</time>
      </trkpt>
      <trkpt lat="47.31965" lon="-1.31294">
        <ele>63</ele>
        <time>2020-12-20T08:34:00.372000+00:00</time>
      </trkpt>
      <trkpt lat="0" lon="0">
        <time>2020-12-20T08:34:00.381000+00:00</time>
      </trkpt>
      <trkpt lat="0" lon="0">
        <time>2020-12-20T08:34:00.383000+00:00</time>
      </trkpt>
      <trkpt lat="0" lon="0">
        <time>2020-12-20T08:34:00.384000+00:00</time>
      </trkpt>
      <trkpt lat="47.31967" lon="-1.31288">
        <ele>62</ele>
        <time>2020-12-20T08:34:01.311000+00:00</time>
      </trkpt>
      <trkpt lat="0" lon="0">
        <time>2020-12-20T08:34:01.331000+00:00</time>
      </trkpt>
      <trkpt lat="0" lon="0">
        <time>2020-12-20T08:34:01.340000+00:00</time>
      </trkpt>
      <trkpt lat="0" lon="0">
        <time>2020-12-20T08:34:01.349000+00:00</time>
      </trkpt>
      <trkpt lat="47.31969" lon="-1.31281">
        <ele>62</ele>
        <time>2020-12-20T08:34:02.335000+00:00</time>
      </trkpt>
      <trkpt lat="0" lon="0">
        <time>2020-12-20T08:34:02.352000+00:00</time>
      </trkpt>
      <trkpt lat="0" lon="0">
        <time>2020-12-20T08:34:02.360000+00:00</time>
      </trkpt>
      <trkpt lat="0" lon="0">
        <time>2020-12-20T08:34:02.363000+00:00</time>
      </trkpt>
      <trkpt lat="47.31971" lon="-1.31275">
        <ele>63</ele>
        <time>2020-12-20T08:34:03.333000+00:00</time>
      </trkpt>
      <trkpt lat="0" lon="0">
        <time>2020-12-20T08:34:03.338000+00:00</time>
      </trkpt>
      <trkpt lat="0" lon="0">
        <time>2020-12-20T08:34:03.343000+00:00</time>
      </trkpt>
      <trkpt lat="0" lon="0">
        <time>2020-12-20T08:34:03.345000+00:00</time>
      </trkpt>
      <trkpt lat="47.31973" lon="-1.31268">
        <ele>63</ele>
        <time>2020-12-20T08:34:04.318000+00:00</time>
      </trkpt>
      <trkpt lat="0" lon="0">
        <time>2020-12-20T08:34:04.329000+00:00</time>
      </trkpt>
      <trkpt lat="0" lon="0">
        <time>2020-12-20T08:34:04.342000+00:00</time>
      </trkpt>
      <trkpt lat="0" lon="0">
        <time>2020-12-20T08:34:04.344000+00:00</time>
      </trkpt>
      <trkpt lat="47.31975" lon="-1.31262">
        <ele>63</ele>
        <time>2020-12-20T08:34:05.330000+00:00</time>
      </trkpt>
      <trkpt lat="0" lon="0">
        <time>2020-12-20T08:34:05.335000+00:00</time>
      </trkpt>
      <trkpt lat="0" lon="0">
        <time>2020-12-20T08:34:05.339000+00:00</time>
      </trkpt>
      <trkpt lat="0" lon="0">
        <time>2020-12-20T08:34:05.342000+00:00</time>
      </trkpt>
      <trkpt lat="47.31977" lon="-1.31256">
        <ele>63</ele>
        <time>2020-12-20T08:34:06.355000+00:00</time>
      </trkpt>
      <trkpt lat="0" lon="0">
        <time>2020-12-20T08:34:06.369000+00:00</time>
      </trkpt>
      <trkpt lat="0" lon="0">
        <time>2020-12-20T08:34:06.373000+00:00</time>
      </trkpt>
      <trkpt lat="0" lon="0">
        <time>2020-12-20T08:34:06.375000+00:00</time>
      </trkpt>
      <trkpt lat="47.31979" lon="-1.3125">
        <ele>63</ele>
        <time>2020-12-20T08:34:07.358000+00:00</time>
      </trkpt>
      <trkpt lat="0" lon="0">
        <time>2020-12-20T08:34:07.363000+00:00</time>
      </trkpt>
      <trkpt lat="0" lon="0">
        <time>2020-12-20T08:34:07.368000+00:00</time>
      </trkpt>
      <trkpt lat="0" lon="0">
        <time>2020-12-20T08:34:07.373000+00:00</time>
      </trkpt>
      <trkpt lat="47.31981" lon="-1.31244">
        <ele>63</ele>
        <time>2020-12-20T08:34:08.353000+00:00</time>
      </trkpt>
      <trkpt lat="0" lon="0">
        <time>2020-12-20T08:34:08.363000+00:00</time>
      </trkpt>
      <trkpt lat="0" lon="0">
        <time>2020-12-20T08:34:08.370000+00:00</time>
      </trkpt>
      <trkpt lat="0" lon="0">
        <time>2020-12-20T08:34:08.372000+00:00</time>
      </trkpt>
      <trkpt lat="47.31983" lon="-1.31238">
        <ele>64</ele>
        <time>2020-12-20T08:34:09.335000+00:00</time>
      </trkpt>
      <trkpt lat="0" lon="0">
        <time>2020-12-20T08:34:09.339000+00:00</time>
      </trkpt>
      <trkpt lat="0" lon="0">
        <time>2020-12-20T08:34:09.341000+00:00</time>
      </trkpt>
      <trkpt lat="0" lon="0">
        <time>2020-12-20T08:34:09.343000+00:00</time>
      </trkpt>
      <trkpt lat="47.31986" lon="-1.31233">
        <ele>64</ele>
        <time>2020-12-20T08:34:10.324000+00:00</time>
      </trkpt>
      <trkpt lat="0" lon="0">
        <time>2020-12-20T08:34:10.330000+00:00</time>
      </trkpt>
      <trkpt lat="0" lon="0">
        <time>2020-12-20T08:34:10.334000+00:00</time>
      </trkpt>
      <trkpt lat="0" lon="0">
        <time>2020-12-20T08:34:10.336000+00:00</time>
      </trkpt>
      <trkpt lat="47.31988" lon="-1.31227">
        <ele>64</ele>
        <time>2020-12-20T08:34:11.336000+00:00</time>
      </trkpt>
      <trkpt lat="0" lon="0">
        <time>2020-12-20T08:34:11.342000+00:00</time>
      </trkpt>
      <trkpt lat="0" lon="0">
        <time>2020-12-20T08:34:11.348000+00:00</time>
      </trkpt>
      <trkpt lat="0" lon="0">
        <time>2020-12-20T08:34:11.351000+00:00</time>
      </trkpt>
      <trkpt lat="47.3199" lon="-1.31222">
        <ele>64</ele>
        <time>2020-12-20T08:34:12.342000+00:00</time>
      </trkpt>
      <trkpt lat="0" lon="0">
        <time>2020-12-20T08:34:12.353000+00:00</time>
      </trkpt>
      <trkpt lat="0" lon="0">
        <time>2020-12-20T08:34:12.361000+00:00</time>
      </trkpt>
      <trkpt lat="0" lon="0">
        <time>2020-12-20T08:34:12.363000+00:00</time>
      </trkpt>
      <trkpt lat="47.31993" lon="-1.31216">
        <ele>64</ele>
        <time>2020-12-20T08:34:13.342000+00:00</time>
      </trkpt>
      <trkpt lat="0" lon="0">
        <time>2020-12-20T08:34:13.361000+00:00</time>
      </trkpt>
      <trkpt lat="0" lon="0">
        <time>2020-12-20T08:34:13.369000+00:00</time>
      </trkpt>
      <trkpt lat="0" lon="0">
        <time>2020-12-20T08:34:13.372000+00:00</time>
      </trkpt>
      <trkpt lat="47.31995" lon="-1.3121">
        <ele>64</ele>
        <time>2020-12-20T08:34:14.345000+00:00</time>
      </trkpt>
      <trkpt lat="0" lon="0">
        <time>2020-12-20T08:34:14.350000+00:00</time>
      </trkpt>
      <trkpt lat="0" lon="0">
        <time>2020-12-20T08:34:14.355000+00:00</time>
      </trkpt>
      <trkpt lat="0" lon="0">
        <time>2020-12-20T08:34:14.357000+00:00</time>
      </trkpt>
      <trkpt lat="47.31998" lon="-1.31204">
        <ele>64</ele>
        <time>2020-12-20T08:34:15.345000+00:00</time>
      </trkpt>
      <trkpt lat="0" lon="0">
        <time>2020-12-20T08:34:15.357000+00:00</time>
      </trkpt>
      <trkpt lat="0" lon="0">
        <time>2020-12-20T08:34:15.361000+00:00</time>
      </trkpt>
      <trkpt lat="0" lon="0">
        <time>2020-12-20T08:34:15.365000+00:00</time>
      </trkpt>
      <trkpt lat="47.32" lon="-1.31197">
        <ele>64</ele>
        <time>2020-12-20T08:34:16.323000+00:00</time>
      </trkpt>
      <trkpt lat="0" lon="0">
        <time>2020-12-20T08:34:16.339000+00:00</time>
      </trkpt>
      <trkpt lat="0" lon="0">
        <time>2020-12-20T08:34:16.341000+00:00</time>
      </trkpt>
      <trkpt lat="0" lon="0">
        <time>2020-12-20T08:34:16.342000+00:00</time>
      </trkpt>
      <trkpt lat="47.32003" lon="-1.31191">
        <ele>64</ele>
        <time>2020-12-20T08:34:17.315000+00:00</time>
      </trkpt>
      <trkpt lat="0" lon="0">
        <time>2020-12-20T08:34:17.326000+00:00</time>
      </trkpt>
      <trkpt lat="0" lon="0">
        <time>2020-12-20T08:34:17.330000+00:00</time>
      </trkpt>
      <trkpt lat="0" lon="0">
        <time>2020-12-20T08:34:17.339000+00:00</time>
      </trkpt>
      <trkpt lat="47.32005" lon="-1.31184">
        <ele>64</ele>
        <time>2020-12-20T08:34:18.321000+00:00</time>
      </trkpt>
      <trkpt lat="0" lon="0">
        <time>2020-12-20T08:34:18.329000+00:00</time>
      </trkpt>
      <trkpt lat="0" lon="0">
        <time>2020-12-20T08:34:18.333000+00:00</time>
      </trkpt>
      <trkpt lat="0" lon="0">
        <time>2020-12-20T08:34:18.335000+00:00</time>
      </trkpt>
      <trkpt lat="47.32007" lon="-1.31177">
        <ele>64</ele>
        <time>2020-12-20T08:34:19.340000+00:00</time>
      </trkpt>
      <trkpt lat="0" lon="0">
        <time>2020-12-20T08:34:19.348000+00:00</time>
      </trkpt>
      <trkpt lat="0" lon="0">
        <time>2020-12-20T08:34:19.352000+00:00</time>
      </trkpt>
      <trkpt lat="0" lon="0">
        <time>2020-12-20T08:34:19.356000+00:00</time>
      </trkpt>
      <trkpt lat="47.32009" lon="-1.3117">
        <ele>64</ele>
        <time>2020-12-20T08:34:20.334000+00:00</time>
      </trkpt>
      <trkpt lat="0" lon="0">
        <time>2020-12-20T08:34:20.349000+00:00</time>
      </trkpt>
      <trkpt lat="0" lon="0">
        <time>2020-12-20T08:34:20.353000+00:00</time>
      </trkpt>
      <trkpt lat="0" lon="0">
        <time>2020-12-20T08:34:20.358000+00:00</time>
      </trkpt>
      <trkpt lat="47.32011" lon="-1.31163">
        <ele>64</ele>
        <time>2020-12-20T08:34:21.344000+00:00</time>
      </trkpt>
      <trkpt lat="0" lon="0">
        <time>2020-12-20T08:34:21.350000+00:00</time>
      </trkpt>
      <trkpt lat="0" lon="0">
        <time>2020-12-20T08:34:21.354000+00:00</time>
      </trkpt>
      <trkpt lat="0" lon="0">
        <time>2020-12-20T08:34:21.358000+00:00</time>
      </trkpt>
      <trkpt lat="47.32013" lon="-1.31155">
        <ele>64</ele>
        <time>2020-12-20T08:34:22.328000+00:00</time>
      </trkpt>
      <trkpt lat="0" lon="0">
        <time>2020-12-20T08:34:22.338000+00:00</time>
      </trkpt>
      <trkpt lat="0" lon="0">
        <time>2020-12-20T08:34:22.344000+00:00</time>
      </trkpt>
      <trkpt lat="0" lon="0">
        <time>2020-12-20T08:34:22.348000+00:00</time>
      </trkpt>
      <trkpt lat="47.32014" lon="-1.31148">
        <ele>64</ele>
        <time>2020-12-20T08:34:23.345000+00:00</time>
      </trkpt>
      <trkpt lat="0" lon="0">
        <time>2020-12-20T08:34:23.358000+00:00</time>
      </trkpt>
      <trkpt lat="0" lon="0">
        <time>2020-12-20T08:34:23.366000+00:00</time>
      </trkpt>
      <trkpt lat="0" lon="0">
        <time>2020-12-20T08:34:23.375000+00:00</time>
      </trkpt>
      <trkpt lat="47.32016" lon="-1.31141">
        <ele>64</ele>
        <time>2020-12-20T08:34:24.332000+00:00</time>
      </trkpt>
      <trkpt lat="0" lon="0">
        <time>2020-12-20T08:34:24.339000+00:00</time>
      </trkpt>
      <trkpt lat="0" lon="0">
        <time>2020-12-20T08:34:24.346000+00:00</time>
      </trkpt>
      <trkpt lat="0" lon="0">
        <time>2020-12-20T08:34:24.354000+00:00</time>
      </trkpt>
      <trkpt lat="47.32018" lon="-1.31133">
        <ele>64</ele>
        <time>2020-12-20T08:34:25.318000+00:00</time>
      </trkpt>
      <trkpt lat="0" lon="0">
        <time>2020-12-20T08:34:25.334000+00:00</time>
      </trkpt>
      <trkpt lat="0" lon="0">
        <time>2020-12-20T08:34:25.338000+00:00</time>
      </trkpt>
      <trkpt lat="0" lon="0">
        <time>2020-12-20T08:34:25.341000+00:00</time>
      </trkpt>
      <trkpt lat="47.32019" lon="-1.31126">
        <ele>64</ele>
        <time>2020-12-20T08:34:26.329000+00:00</time>
      </trkpt>
      <trkpt lat="0" lon="0">
        <time>2020-12-20T08:34:26.342000+00:00</time>
      </trkpt>
      <trkpt lat="0" lon="0">
        <time>2020-12-20T08:34:26.348000+00:00</time>
      </trkpt>
      <trkpt lat="0" lon="0">
        <time>2020-12-20T08:34:26.351000+00:00</time>
      </trkpt>
      <trkpt lat="47.32021" lon="-1.31118">
        <ele>64</ele>
        <time>2020-12-20T08:34:27.340000+00:00</time>
      </trkpt>
      <trkpt lat="0" lon="0">
        <time>2020-12-20T08:34:27.351000+00:00</time>
      </trkpt>
      <trkpt lat="0" lon="0">
        <time>2020-12-20T08:34:27.357000+00:00</time>
      </trkpt>
      <trkpt lat="0" lon="0">
        <time>2020-12-20T08:34:27.359000+00:00</time>
      </trkpt>
      <trkpt lat="47.32023" lon="-1.31111">
        <ele>64</ele>
        <time>2020-12-20T08:34:28.327000+00:00</time>
      </trkpt>
      <trkpt lat="0" lon="0">
        <time>2020-12-20T08:34:28.342000+00:00</time>
      </trkpt>
      <trkpt lat="0" lon="0">
        <time>2020-12-20T08:34:28.347000+00:00</time>
      </trkpt>
      <trkpt lat="0" lon="0">
        <time>2020-12-20T08:34:28.353000+00:00</time>
      </trkpt>
      <trkpt lat="47.32025" lon="-1.31103">
        <ele>64</ele>
        <time>2020-12-20T08:34:29.324000+00:00</time>
      </trkpt>
      <trkpt lat="0" lon="0">
        <time>2020-12-20T08:34:29.335000+00:00</time>
      </trkpt>
      <trkpt lat="0" lon="0">
        <time>2020-12-20T08:34:29.339000+00:00</time>
      </trkpt>
      <trkpt lat="0" lon="0">
        <time>2020-12-20T08:34:29.341000+00:00</time>
      </trkpt>
      <trkpt lat="47.32027" lon="-1.31096">
        <ele>64</ele>
        <time>2020-12-20T08:34:30.332000+00:00</time>
      </trkpt>
      <trkpt lat="0" lon="0">
        <time>2020-12-20T08:34:30.347000+00:00</time>
      </trkpt>
      <trkpt lat="0" lon="0">
        <time>2020-12-20T08:34:30.355000+00:00</time>
      </trkpt>
      <trkpt lat="0" lon="0">
        <time>2020-12-20T08:34:30.357000+00:00</time>
      </trkpt>
      <trkpt lat="47.32029" lon="-1.31089">
        <ele>64</ele>
        <time>2020-12-20T08:34:31.319000+00:00</time>
      </trkpt>
      <trkpt lat="0" lon="0">
        <time>2020-12-20T08:34:31.329000+00:00</time>
      </trkpt>
      <trkpt lat="0" lon="0">
        <time>2020-12-20T08:34:31.336000+00:00</time>
      </trkpt>
      <trkpt lat="0" lon="0">
        <time>2020-12-20T08:34:31.342000+00:00</time>
      </trkpt>
      <trkpt lat="47.32031" lon="-1.31082">
        <ele>64</ele>
        <time>2020-12-20T08:34:32.299000+00:00</time>
      </trkpt>
      <trkpt lat="0" lon="0">
        <time>2020-12-20T08:34:32.318000+00:00</time>
      </trkpt>
      <trkpt lat="0" lon="0">
        <time>2020-12-20T08:34:32.326000+00:00</time>
      </trkpt>
      <trkpt lat="0" lon="0">
        <time>2020-12-20T08:34:32.329000+00:00</time>
      </trkpt>
      <trkpt lat="47.32033" lon="-1.31075">
        <ele>64</ele>
        <time>2020-12-20T08:34:33.251000+00:00</time>
      </trkpt>
      <trkpt lat="0" lon="0">
        <time>2020-12-20T08:34:33.256000+00:00</time>
      </trkpt>
      <trkpt lat="0" lon="0">
        <time>2020-12-20T08:34:33.257000+00:00</time>
      </trkpt>
      <trkpt lat="47.32035" lon="-1.31068">
        <ele>64</ele>
        <time>2020-12-20T08:34:34.281000+00:00</time>
      </trkpt>
      <trkpt lat="0" lon="0">
        <time>2020-12-20T08:34:34.291000+00:00</time>
      </trkpt>
      <trkpt lat="0" lon="0">
        <time>2020-12-20T08:34:34.295000+00:00</time>
      </trkpt>
      <trkpt lat="0" lon="0">
        <time>2020-12-20T08:34:34.299000+00:00</time>
      </trkpt>
      <trkpt lat="47.32038" lon="-1.31062">
        <ele>64</ele>
        <time>2020-12-20T08:34:35.317000+00:00</time>
      </trkpt>
      <trkpt lat="0" lon="0">
        <time>2020-12-20T08:34:35.323000+00:00</time>
      </trkpt>
      <trkpt lat="0" lon="0">
        <time>2020-12-20T08:34:35.327000+00:00</time>
      </trkpt>
      <trkpt lat="0" lon="0">
        <time>2020-12-20T08:34:35.331000+00:00</time>
      </trkpt>
      <trkpt lat="47.3204" lon="-1.31055">
        <ele>64</ele>
        <time>2020-12-20T08:34:36.348000+00:00</time>
      </trkpt>
      <trkpt lat="0" lon="0">
        <time>2020-12-20T08:34:36.356000+00:00</time>
      </trkpt>
      <trkpt lat="0" lon="0">
        <time>2020-12-20T08:34:36.360000+00:00</time>
      </trkpt>
      <trkpt lat="0" lon="0">
        <time>2020-12-20T08:34:36.368000+00:00</time>
      </trkpt>
      <trkpt lat="47.32043" lon="-1.31049">
        <ele>64</ele>
        <time>2020-12-20T08:34:37.337000+00:00</time>
      </trkpt>
      <trkpt lat="0" lon="0">
        <time>2020-12-20T08:34:37.350000+00:00</time>
      </trkpt>
      <trkpt lat="0" lon="0">
        <time>2020-12-20T08:34:37.358000+00:00</time>
      </trkpt>
      <trkpt lat="0" lon="0">
        <time>2020-12-20T08:34:37.360000+00:00</time>
      </trkpt>
      <trkpt lat="47.32046" lon="-1.31043">
        <ele>64</ele>
        <time>2020-12-20T08:34:38.335000+00:00</time>
      </trkpt>
      <trkpt lat="0" lon="0">
        <time>2020-12-20T08:34:38.345000+00:00</time>
      </trkpt>
      <trkpt lat="0" lon="0">
        <time>2020-12-20T08:34:38.349000+00:00</time>
      </trkpt>
      <trkpt lat="0" lon="0">
        <time>2020-12-20T08:34:38.352000+00:00</time>
      </trkpt>
      <trkpt lat="47.32048" lon="-1.31036">
        <ele>64</ele>
        <time>2020-12-20T08:34:39.328000+00:00</time>
      </trkpt>
      <trkpt lat="0" lon="0">
        <time>2020-12-20T08:34:39.337000+00:00</time>
      </trkpt>
      <trkpt lat="0" lon="0">
        <time>2020-12-20T08:34:39.340000+00:00</time>
      </trkpt>
      <trkpt lat="0" lon="0">
        <time>2020-12-20T08:34:39.341000+00:00</time>
      </trkpt>
      <trkpt lat="47.32051" lon="-1.3103">
        <ele>64</ele>
        <time>2020-12-20T08:34:40.325000+00:00</time>
      </trkpt>
      <trkpt lat="0" lon="0">
        <time>2020-12-20T08:34:40.348000+00:00</time>
      </trkpt>
      <trkpt lat="0" lon="0">
        <time>2020-12-20T08:34:40.354000+00:00</time>
      </trkpt>
      <trkpt lat="0" lon="0">
        <time>2020-12-20T08:34:40.356000+00:00</time>
      </trkpt>
      <trkpt lat="47.32054" lon="-1.31024">
        <ele>65</ele>
        <time>2020-12-20T08:34:41.341000+00:00</time>
      </trkpt>
      <trkpt lat="0" lon="0">
        <time>2020-12-20T08:34:41.345000+00:00</time>
      </trkpt>
      <trkpt lat="0" lon="0">
        <time>2020-12-20T08:34:41.350000+00:00</time>
      </trkpt>
      <trkpt lat="0" lon="0">
        <time>2020-12-20T08:34:41.353000+00:00</time>
      </trkpt>
      <trkpt lat="47.32057" lon="-1.31017">
        <ele>65</ele>
        <time>2020-12-20T08:34:42.338000+00:00</time>
      </trkpt>
      <trkpt lat="0" lon="0">
        <time>2020-12-20T08:34:42.353000+00:00</time>
      </trkpt>
      <trkpt lat="0" lon="0">
        <time>2020-12-20T08:34:42.358000+00:00</time>
      </trkpt>
      <trkpt lat="0" lon="0">
        <time>2020-12-20T08:34:42.360000+00:00</time>
      </trkpt>
      <trkpt lat="47.3206" lon="-1.31011">
        <ele>65</ele>
        <time>2020-12-20T08:34:43.351000+00:00</time>
      </trkpt>
      <trkpt lat="0" lon="0">
        <time>2020-12-20T08:34:43.367000+00:00</time>
      </trkpt>
      <trkpt lat="0" lon="0">
        <time>2020-12-20T08:34:43.374000+00:00</time>
      </trkpt>
      <trkpt lat="0" lon="0">
        <time>2020-12-20T08:34:43.378000+00:00</time>
      </trkpt>
      <trkpt lat="47.32063" lon="-1.31004">
        <ele>65</ele>
        <time>2020-12-20T08:34:44.336000+00:00</time>
      </trkpt>
      <trkpt lat="0" lon="0">
        <time>2020-12-20T08:34:44.344000+00:00</time>
      </trkpt>
      <trkpt lat="0" lon="0">
        <time>2020-12-20T08:34:44.348000+00:00</time>
      </trkpt>
      <trkpt lat="0" lon="0">
        <time>2020-12-20T08:34:44.350000+00:00</time>
      </trkpt>
      <trkpt lat="47.32066" lon="-1.30998">
        <ele>65</ele>
        <time>2020-12-20T08:34:45.266000+00:00</time>
      </trkpt>
      <trkpt lat="0" lon="0">
        <time>2020-12-20T08:34:45.271000+00:00</time>
      </trkpt>
      <trkpt lat="0" lon="0">
        <time>2020-12-20T08:34:45.274000+00:00</time>
      </trkpt>
      <trkpt lat="0" lon="0">
        <time>2020-12-20T08:34:45.280000+00:00</time>
      </trkpt>
      <trkpt lat="47.32069" lon="-1.30991">
        <ele>65</ele>
        <time>2020-12-20T08:34:46.232000+00:00</time>
      </trkpt>
      <trkpt lat="0" lon="0">
        <time>2020-12-20T08:34:46.234000+00:00</time>
      </trkpt>
      <trkpt lat="0" lon="0">
        <time>2020-12-20T08:34:46.238000+00:00</time>
      </trkpt>
      <trkpt lat="0" lon="0">
        <time>2020-12-20T08:34:46.239000+00:00</time>
      </trkpt>
      <trkpt lat="47.32071" lon="-1.30985">
        <ele>65</ele>
        <time>2020-12-20T08:34:47.244000+00:00</time>
      </trkpt>
      <trkpt lat="0" lon="0">
        <time>2020-12-20T08:34:47.246000+00:00</time>
      </trkpt>
      <trkpt lat="0" lon="0">
        <time>2020-12-20T08:34:47.248000+00:00</time>
      </trkpt>
      <trkpt lat="0" lon="0">
        <time>2020-12-20T08:34:47.249000+00:00</time>
      </trkpt>
      <trkpt lat="47.32074" lon="-1.30979">
        <ele>65</ele>
        <time>2020-12-20T08:34:48.233000+00:00</time>
      </trkpt>
      <trkpt lat="0" lon="0">
        <time>2020-12-20T08:34:48.234000+00:00</time>
      </trkpt>
      <trkpt lat="0" lon="0">
        <time>2020-12-20T08:34:48.235000+00:00</time>
      </trkpt>
      <trkpt lat="0" lon="0">
        <time>2020-12-20T08:34:48.236000+00:00</time>
      </trkpt>
      <trkpt lat="47.32076" lon="-1.30972">
        <ele>66</ele>
        <time>2020-12-20T08:34:49.258000+00:00</time>
      </trkpt>
      <trkpt lat="0" lon="0">
        <time>2020-12-20T08:34:49.259000+00:00</time>
      </trkpt>
      <trkpt lat="0" lon="0">
        <time>2020-12-20T08:34:49.260000+00:00</time>
      </trkpt>
      <trkpt lat="0" lon="0">
        <time>2020-12-20T08:34:49.261000+00:00</time>
      </trkpt>
      <trkpt lat="47.32079" lon="-1.30966">
        <ele>66</ele>
        <time>2020-12-20T08:34:50.264000+00:00</time>
      </trkpt>
      <trkpt lat="0" lon="0">
        <time>2020-12-20T08:34:50.266000+00:00</time>
      </trkpt>
      <trkpt lat="0" lon="0">
        <time>2020-12-20T08:34:50.267000+00:00</time>
      </trkpt>
      <trkpt lat="0" lon="0">
        <time>2020-12-20T08:34:50.268000+00:00</time>
      </trkpt>
      <trkpt lat="47.32081" lon="-1.30959">
        <ele>66</ele>
        <time>2020-12-20T08:34:51.294000+00:00</time>
      </trkpt>
      <trkpt lat="0" lon="0">
        <time>2020-12-20T08:34:51.301000+00:00</time>
      </trkpt>
      <trkpt lat="0" lon="0">
        <time>2020-12-20T08:34:51.305000+00:00</time>
      </trkpt>
      <trkpt lat="0" lon="0">
        <time>2020-12-20T08:34:51.307000+00:00</time>
      </trkpt>
      <trkpt lat="47.32083" lon="-1.30952">
        <ele>66</ele>
        <time>2020-12-20T08:34:52.260000+00:00</time>
      </trkpt>
      <trkpt lat="0" lon="0">
        <time>2020-12-20T08:34:52.278000+00:00</time>
      </trkpt>
      <trkpt lat="0" lon="0">
        <time>2020-12-20T08:34:52.279000+00:00</time>
      </trkpt>
      <trkpt lat="0" lon="0">
        <time>2020-12-20T08:34:52.280000+00:00</time>
      </trkpt>
      <trkpt lat="47.32085" lon="-1.30945">
        <ele>66</ele>
        <time>2020-12-20T08:34:53.308000+00:00</time>
      </trkpt>
      <trkpt lat="0" lon="0">
        <time>2020-12-20T08:34:53.312000+00:00</time>
      </trkpt>
      <trkpt lat="0" lon="0">
        <time>2020-12-20T08:34:53.319000+00:00</time>
      </trkpt>
      <trkpt lat="0" lon="0">
        <time>2020-12-20T08:34:53.320000+00:00</time>
      </trkpt>
      <trkpt lat="47.32086" lon="-1.30938">
        <ele>66</ele>
        <time>2020-12-20T08:34:54.307000+00:00</time>
      </trkpt>
      <trkpt lat="0" lon="0">
        <time>2020-12-20T08:34:54.312000+00:00</time>
      </trkpt>
      <trkpt lat="0" lon="0">
        <time>2020-12-20T08:34:54.317000+00:00</time>
      </trkpt>
      <trkpt lat="0" lon="0">
        <time>2020-12-20T08:34:54.320000+00:00</time>
      </trkpt>
      <trkpt lat="47.32088" lon="-1.30931">
        <ele>66</ele>
        <time>2020-12-20T08:34:55.342000+00:00</time>
      </trkpt>
      <trkpt lat="0" lon="0">
        <time>2020-12-20T08:34:55.352000+00:00</time>
      </trkpt>
      <trkpt lat="0" lon="0">
        <time>2020-12-20T08:34:55.367000+00:00</time>
      </trkpt>
      <trkpt lat="0" lon="0">
        <time>2020-12-20T08:34:55.373000+00:00</time>
      </trkpt>
      <trkpt lat="47.3209" lon="-1.30924">
        <ele>66</ele>
        <time>2020-12-20T08:34:56.318000+00:00</time>
      </trkpt>
      <trkpt lat="0" lon="0">
        <time>2020-12-20T08:34:56.349000+00:00</time>
      </trkpt>
      <trkpt lat="0" lon="0">
        <time>2020-12-20T08:34:56.354000+00:00</time>
      </trkpt>
      <trkpt lat="0" lon="0">
        <time>2020-12-20T08:34:56.356000+00:00</time>
      </trkpt>
      <trkpt lat="47.32092" lon="-1.30917">
        <ele>66</ele>
        <time>2020-12-20T08:34:57.292000+00:00</time>
      </trkpt>
      <trkpt lat="0" lon="0">
        <time>2020-12-20T08:34:57.297000+00:00</time>
      </trkpt>
      <trkpt lat="0" lon="0">
        <time>2020-12-20T08:34:57.310000+00:00</time>
      </trkpt>
      <trkpt lat="0" lon="0">
        <time>2020-12-20T08:34:57.313000+00:00</time>
      </trkpt>
      <trkpt lat="47.32093" lon="-1.3091">
        <ele>66</ele>
        <time>2020-12-20T08:34:58.320000+00:00</time>
      </trkpt>
      <trkpt lat="0" lon="0">
        <time>2020-12-20T08:34:58.329000+00:00</time>
      </trkpt>
      <trkpt lat="0" lon="0">
        <time>2020-12-20T08:34:58.334000+00:00</time>
      </trkpt>
      <trkpt lat="0" lon="0">
        <time>2020-12-20T08:34:58.337000+00:00</time>
      </trkpt>
      <trkpt lat="47.32095" lon="-1.30903">
        <ele>66</ele>
        <time>2020-12-20T08:34:59.326000+00:00</time>
      </trkpt>
      <trkpt lat="0" lon="0">
        <time>2020-12-20T08:34:59.329000+00:00</time>
      </trkpt>
      <trkpt lat="0" lon="0">
        <time>2020-12-20T08:34:59.333000+00:00</time>
      </trkpt>
      <trkpt lat="0" lon="0">
        <time>2020-12-20T08:34:59.335000+00:00</time>
      </trkpt>
      <trkpt lat="47.32096" lon="-1.30895">
        <ele>65</ele>
        <time>2020-12-20T08:35:00.306000+00:00</time>
      </trkpt>
      <trkpt lat="0" lon="0">
        <time>2020-12-20T08:35:00.321000+00:00</time>
      </trkpt>
      <trkpt lat="0" lon="0">
        <time>2020-12-20T08:35:00.329000+00:00</time>
      </trkpt>
      <trkpt lat="0" lon="0">
        <time>2020-12-20T08:35:00.332000+00:00</time>
      </trkpt>
      <trkpt lat="47.32098" lon="-1.30888">
        <ele>65</ele>
        <time>2020-12-20T08:35:01.319000+00:00</time>
      </trkpt>
      <trkpt lat="0" lon="0">
        <time>2020-12-20T08:35:01.323000+00:00</time>
      </trkpt>
      <trkpt lat="0" lon="0">
        <time>2020-12-20T08:35:01.330000+00:00</time>
      </trkpt>
      <trkpt lat="0" lon="0">
        <time>2020-12-20T08:35:01.331000+00:00</time>
      </trkpt>
      <trkpt lat="47.32099" lon="-1.30881">
        <ele>65</ele>
        <time>2020-12-20T08:35:02.312000+00:00</time>
      </trkpt>
      <trkpt lat="0" lon="0">
        <time>2020-12-20T08:35:02.318000+00:00</time>
      </trkpt>
      <trkpt lat="0" lon="0">
        <time>2020-12-20T08:35:02.323000+00:00</time>
      </trkpt>
      <trkpt lat="0" lon="0">
        <time>2020-12-20T08:35:02.325000+00:00</time>
      </trkpt>
      <trkpt lat="47.321" lon="-1.30874">
        <ele>65</ele>
        <time>2020-12-20T08:35:03.308000+00:00</time>
      </trkpt>
      <trkpt lat="0" lon="0">
        <time>2020-12-20T08:35:03.316000+00:00</time>
      </trkpt>
      <trkpt lat="0" lon="0">
        <time>2020-12-20T08:35:03.320000+00:00</time>
      </trkpt>
      <trkpt lat="0" lon="0">
        <time>2020-12-20T08:35:03.323000+00:00</time>
      </trkpt>
      <trkpt lat="47.32101" lon="-1.30869">
        <ele>65</ele>
        <time>2020-12-20T08:35:04.296000+00:00</time>
      </trkpt>
      <trkpt lat="0" lon="0">
        <time>2020-12-20T08:35:04.309000+00:00</time>
      </trkpt>
      <trkpt lat="0" lon="0">
        <time>2020-12-20T08:35:04.313000+00:00</time>
      </trkpt>
      <trkpt lat="0" lon="0">
        <time>2020-12-20T08:35:04.314000+00:00</time>
      </trkpt>
      <trkpt lat="47.321" lon="-1.30864">
        <ele>65</ele>
        <time>2020-12-20T08:35:05.294000+00:00</time>
      </trkpt>
      <trkpt lat="0" lon="0">
        <time>2020-12-20T08:35:05.307000+00:00</time>
      </trkpt>
      <trkpt lat="0" lon="0">
        <time>2020-12-20T08:35:05.315000+00:00</time>
      </trkpt>
      <trkpt lat="0" lon="0">
        <time>2020-12-20T08:35:05.322000+00:00</time>
      </trkpt>
      <trkpt lat="47.32099" lon="-1.30861">
        <ele>65</ele>
        <time>2020-12-20T08:35:06.318000+00:00</time>
      </trkpt>
      <trkpt lat="0" lon="0">
        <time>2020-12-20T08:35:06.329000+00:00</time>
      </trkpt>
      <trkpt lat="0" lon="0">
        <time>2020-12-20T08:35:06.333000+00:00</time>
      </trkpt>
      <trkpt lat="0" lon="0">
        <time>2020-12-20T08:35:06.335000+00:00</time>
      </trkpt>
      <trkpt lat="47.32098" lon="-1.30858">
        <ele>65</ele>
        <time>2020-12-20T08:35:07.278000+00:00</time>
      </trkpt>
      <trkpt lat="0" lon="0">
        <time>2020-12-20T08:35:07.285000+00:00</time>
      </trkpt>
      <trkpt lat="0" lon="0">
        <time>2020-12-20T08:35:07.288000+00:00</time>
      </trkpt>
      <trkpt lat="0" lon="0">
        <time>2020-12-20T08:35:07.290000+00:00</time>
      </trkpt>
      <trkpt lat="47.32096" lon="-1.30856">
        <ele>65</ele>
        <time>2020-12-20T08:35:08.316000+00:00</time>
      </trkpt>
      <trkpt lat="0" lon="0">
        <time>2020-12-20T08:35:08.324000+00:00</time>
      </trkpt>
      <trkpt lat="0" lon="0">
        <time>2020-12-20T08:35:08.329000+00:00</time>
      </trkpt>
      <trkpt lat="0" lon="0">
        <time>2020-12-20T08:35:08.331000+00:00</time>
      </trkpt>
      <trkpt lat="47.32094" lon="-1.30854">
        <ele>65</ele>
        <time>2020-12-20T08:35:09.312000+00:00</time>
      </trkpt>
      <trkpt lat="0" lon="0">
        <time>2020-12-20T08:35:09.323000+00:00</time>
      </trkpt>
      <trkpt lat="0" lon="0">
        <time>2020-12-20T08:35:09.328000+00:00</time>
      </trkpt>
      <trkpt lat="0" lon="0">
        <time>2020-12-20T08:35:09.330000+00:00</time>
      </trkpt>
      <trkpt lat="47.32092" lon="-1.30853">
        <ele>65</ele>
        <time>2020-12-20T08:35:10.317000+00:00</time>
      </trkpt>
      <trkpt lat="0" lon="0">
        <time>2020-12-20T08:35:10.322000+00:00</time>
      </trkpt>
      <trkpt lat="0" lon="0">
        <time>2020-12-20T08:35:10.332000+00:00</time>
      </trkpt>
      <trkpt lat="0" lon="0">
        <time>2020-12-20T08:35:10.335000+00:00</time>
      </trkpt>
      <trkpt lat="47.3209" lon="-1.30852">
        <ele>66</ele>
        <time>2020-12-20T08:35:11.320000+00:00</time>
      </trkpt>
      <trkpt lat="0" lon="0">
        <time>2020-12-20T08:35:11.335000+00:00</time>
      </trkpt>
      <trkpt lat="0" lon="0">
        <time>2020-12-20T08:35:11.340000+00:00</time>
      </trkpt>
      <trkpt lat="0" lon="0">
        <time>2020-12-20T08:35:11.342000+00:00</time>
      </trkpt>
      <trkpt lat="47.32087" lon="-1.30851">
        <ele>66</ele>
        <time>2020-12-20T08:35:12.346000+00:00</time>
      </trkpt>
      <trkpt lat="0" lon="0">
        <time>2020-12-20T08:35:12.359000+00:00</time>
      </trkpt>
      <trkpt lat="0" lon="0">
        <time>2020-12-20T08:35:12.365000+00:00</time>
      </trkpt>
      <trkpt lat="0" lon="0">
        <time>2020-12-20T08:35:12.370000+00:00</time>
      </trkpt>
      <trkpt lat="47.32085" lon="-1.3085">
        <ele>66</ele>
        <time>2020-12-20T08:35:13.316000+00:00</time>
      </trkpt>
      <trkpt lat="0" lon="0">
        <time>2020-12-20T08:35:13.333000+00:00</time>
      </trkpt>
      <trkpt lat="0" lon="0">
        <time>2020-12-20T08:35:13.340000+00:00</time>
      </trkpt>
      <trkpt lat="0" lon="0">
        <time>2020-12-20T08:35:13.342000+00:00</time>
      </trkpt>
      <trkpt lat="47.32082" lon="-1.3085">
        <ele>66</ele>
        <time>2020-12-20T08:35:14.303000+00:00</time>
      </trkpt>
      <trkpt lat="0" lon="0">
        <time>2020-12-20T08:35:14.314000+00:00</time>
      </trkpt>
      <trkpt lat="0" lon="0">
        <time>2020-12-20T08:35:14.319000+00:00</time>
      </trkpt>
      <trkpt lat="0" lon="0">
        <time>2020-12-20T08:35:14.322000+00:00</time>
      </trkpt>
      <trkpt lat="47.32079" lon="-1.3085">
        <ele>66</ele>
        <time>2020-12-20T08:35:15.300000+00:00</time>
      </trkpt>
      <trkpt lat="0" lon="0">
        <time>2020-12-20T08:35:15.313000+00:00</time>
      </trkpt>
      <trkpt lat="0" lon="0">
        <time>2020-12-20T08:35:15.322000+00:00</time>
      </trkpt>
      <trkpt lat="0" lon="0">
        <time>2020-12-20T08:35:15.324000+00:00</time>
      </trkpt>
      <trkpt lat="47.32077" lon="-1.3085">
        <ele>67</ele>
        <time>2020-12-20T08:35:16.338000+00:00</time>
      </trkpt>
      <trkpt lat="0" lon="0">
        <time>2020-12-20T08:35:16.348000+00:00</time>
      </trkpt>
      <trkpt lat="0" lon="0">
        <time>2020-12-20T08:35:16.352000+00:00</time>
      </trkpt>
      <trkpt lat="0" lon="0">
        <time>2020-12-20T08:35:16.355000+00:00</time>
      </trkpt>
      <trkpt lat="47.32075" lon="-1.3085">
        <ele>67</ele>
        <time>2020-12-20T08:35:17.315000+00:00</time>
      </trkpt>
      <trkpt lat="0" lon="0">
        <time>2020-12-20T08:35:17.320000+00:00</time>
      </trkpt>
      <trkpt lat="0" lon="0">
        <time>2020-12-20T08:35:17.325000+00:00</time>
      </trkpt>
      <trkpt lat="0" lon="0">
        <time>2020-12-20T08:35:17.327000+00:00</time>
      </trkpt>
      <trkpt lat="47.32072" lon="-1.3085">
        <ele>68</ele>
        <time>2020-12-20T08:35:18.354000+00:00</time>
      </trkpt>
      <trkpt lat="0" lon="0">
        <time>2020-12-20T08:35:18.367000+00:00</time>
      </trkpt>
      <trkpt lat="0" lon="0">
        <time>2020-12-20T08:35:18.372000+00:00</time>
      </trkpt>
      <trkpt lat="0" lon="0">
        <time>2020-12-20T08:35:18.373000+00:00</time>
      </trkpt>
      <trkpt lat="47.3207" lon="-1.3085">
        <ele>68</ele>
        <time>2020-12-20T08:35:19.281000+00:00</time>
      </trkpt>
      <trkpt lat="0" lon="0">
        <time>2020-12-20T08:35:19.293000+00:00</time>
      </trkpt>
      <trkpt lat="0" lon="0">
        <time>2020-12-20T08:35:19.297000+00:00</time>
      </trkpt>
      <trkpt lat="0" lon="0">
        <time>2020-12-20T08:35:19.302000+00:00</time>
      </trkpt>
      <trkpt lat="47.32068" lon="-1.3085">
        <ele>68</ele>
        <time>2020-12-20T08:35:20.297000+00:00</time>
      </trkpt>
      <trkpt lat="0" lon="0">
        <time>2020-12-20T08:35:20.302000+00:00</time>
      </trkpt>
      <trkpt lat="0" lon="0">
        <time>2020-12-20T08:35:20.307000+00:00</time>
      </trkpt>
      <trkpt lat="0" lon="0">
        <time>2020-12-20T08:35:20.310000+00:00</time>
      </trkpt>
      <trkpt lat="47.32066" lon="-1.30849">
        <ele>68</ele>
        <time>2020-12-20T08:35:21.303000+00:00</time>
      </trkpt>
      <trkpt lat="0" lon="0">
        <time>2020-12-20T08:35:21.323000+00:00</time>
      </trkpt>
      <trkpt lat="0" lon="0">
        <time>2020-12-20T08:35:21.327000+00:00</time>
      </trkpt>
      <trkpt lat="0" lon="0">
        <time>2020-12-20T08:35:21.336000+00:00</time>
      </trkpt>
      <trkpt lat="47.32064" lon="-1.30849">
        <ele>68</ele>
        <time>2020-12-20T08:35:22.279000+00:00</time>
      </trkpt>
      <trkpt lat="0" lon="0">
        <time>2020-12-20T08:35:22.282000+00:00</time>
      </trkpt>
      <trkpt lat="0" lon="0">
        <time>2020-12-20T08:35:22.293000+00:00</time>
      </trkpt>
      <trkpt lat="0" lon="0">
        <time>2020-12-20T08:35:22.297000+00:00</time>
      </trkpt>
      <trkpt lat="47.32062" lon="-1.30849">
        <ele>69</ele>
        <time>2020-12-20T08:35:23.325000+00:00</time>
      </trkpt>
      <trkpt lat="0" lon="0">
        <time>2020-12-20T08:35:23.332000+00:00</time>
      </trkpt>
      <trkpt lat="0" lon="0">
        <time>2020-12-20T08:35:23.344000+00:00</time>
      </trkpt>
      <trkpt lat="0" lon="0">
        <time>2020-12-20T08:35:23.346000+00:00</time>
      </trkpt>
      <trkpt lat="47.32061" lon="-1.30849">
        <ele>69</ele>
        <time>2020-12-20T08:35:24.341000+00:00</time>
      </trkpt>
      <trkpt lat="0" lon="0">
        <time>2020-12-20T08:35:24.346000+00:00</time>
      </trkpt>
      <trkpt lat="0" lon="0">
        <time>2020-12-20T08:35:24.354000+00:00</time>
      </trkpt>
      <trkpt lat="0" lon="0">
        <time>2020-12-20T08:35:24.357000+00:00</time>
      </trkpt>
      <trkpt lat="47.32059" lon="-1.30848">
        <ele>69</ele>
        <time>2020-12-20T08:35:25.311000+00:00</time>
      </trkpt>
      <trkpt lat="0" lon="0">
        <time>2020-12-20T08:35:25.323000+00:00</time>
      </trkpt>
      <trkpt lat="0" lon="0">
        <time>2020-12-20T08:35:25.326000+00:00</time>
      </trkpt>
      <trkpt lat="0" lon="0">
        <time>2020-12-20T08:35:25.330000+00:00</time>
      </trkpt>
      <trkpt lat="47.32058" lon="-1.30848">
        <ele>70</ele>
        <time>2020-12-20T08:35:26.306000+00:00</time>
      </trkpt>
      <trkpt lat="0" lon="0">
        <time>2020-12-20T08:35:26.318000+00:00</time>
      </trkpt>
      <trkpt lat="0" lon="0">
        <time>2020-12-20T08:35:26.322000+00:00</time>
      </trkpt>
      <trkpt lat="0" lon="0">
        <time>2020-12-20T08:35:26.324000+00:00</time>
      </trkpt>
      <trkpt lat="47.32056" lon="-1.30848">
        <ele>70</ele>
        <time>2020-12-20T08:35:27.314000+00:00</time>
      </trkpt>
      <trkpt lat="0" lon="0">
        <time>2020-12-20T08:35:27.323000+00:00</time>
      </trkpt>
      <trkpt lat="0" lon="0">
        <time>2020-12-20T08:35:27.332000+00:00</time>
      </trkpt>
      <trkpt lat="0" lon="0">
        <time>2020-12-20T08:35:27.335000+00:00</time>
      </trkpt>
      <trkpt lat="47.32054" lon="-1.30848">
        <ele>71</ele>
        <time>2020-12-20T08:35:28.339000+00:00</time>
      </trkpt>
      <trkpt lat="0" lon="0">
        <time>2020-12-20T08:35:28.356000+00:00</time>
      </trkpt>
      <trkpt lat="0" lon="0">
        <time>2020-12-20T08:35:28.365000+00:00</time>
      </trkpt>
      <trkpt lat="0" lon="0">
        <time>2020-12-20T08:35:28.371000+00:00</time>
      </trkpt>
      <trkpt lat="47.32053" lon="-1.30847">
        <ele>71</ele>
        <time>2020-12-20T08:35:29.332000+00:00</time>
      </trkpt>
      <trkpt lat="0" lon="0">
        <time>2020-12-20T08:35:29.343000+00:00</time>
      </trkpt>
      <trkpt lat="0" lon="0">
        <time>2020-12-20T08:35:29.347000+00:00</time>
      </trkpt>
      <trkpt lat="0" lon="0">
        <time>2020-12-20T08:35:29.350000+00:00</time>
      </trkpt>
      <trkpt lat="47.32051" lon="-1.30847">
        <ele>71</ele>
        <time>2020-12-20T08:35:30.325000+00:00</time>
      </trkpt>
      <trkpt lat="0" lon="0">
        <time>2020-12-20T08:35:30.349000+00:00</time>
      </trkpt>
      <trkpt lat="0" lon="0">
        <time>2020-12-20T08:35:30.358000+00:00</time>
      </trkpt>
      <trkpt lat="0" lon="0">
        <time>2020-12-20T08:35:30.361000+00:00</time>
      </trkpt>
      <trkpt lat="47.32049" lon="-1.30847">
        <ele>71</ele>
        <time>2020-12-20T08:35:31.284000+00:00</time>
      </trkpt>
      <trkpt lat="0" lon="0">
        <time>2020-12-20T08:35:31.291000+00:00</time>
      </trkpt>
      <trkpt lat="0" lon="0">
        <time>2020-12-20T08:35:31.293000+00:00</time>
      </trkpt>
      <trkpt lat="0" lon="0">
        <time>2020-12-20T08:35:31.294000+00:00</time>
      </trkpt>
      <trkpt lat="47.32048" lon="-1.30847">
        <ele>71</ele>
        <time>2020-12-20T08:35:32.258000+00:00</time>
      </trkpt>
      <trkpt lat="0" lon="0">
        <time>2020-12-20T08:35:32.261000+00:00</time>
      </trkpt>
      <trkpt lat="0" lon="0">
        <time>2020-12-20T08:35:32.263000+00:00</time>
      </trkpt>
      <trkpt lat="0" lon="0">
        <time>2020-12-20T08:35:32.265000+00:00</time>
      </trkpt>
      <trkpt lat="47.32046" lon="-1.30847">
        <ele>72</ele>
        <time>2020-12-20T08:35:33.311000+00:00</time>
      </trkpt>
      <trkpt lat="0" lon="0">
        <time>2020-12-20T08:35:33.319000+00:00</time>
      </trkpt>
      <trkpt lat="0" lon="0">
        <time>2020-12-20T08:35:33.326000+00:00</time>
      </trkpt>
      <trkpt lat="0" lon="0">
        <time>2020-12-20T08:35:33.328000+00:00</time>
      </trkpt>
      <trkpt lat="47.32045" lon="-1.30846">
        <ele>72</ele>
        <time>2020-12-20T08:35:34.294000+00:00</time>
      </trkpt>
      <trkpt lat="0" lon="0">
        <time>2020-12-20T08:35:34.310000+00:00</time>
      </trkpt>
      <trkpt lat="0" lon="0">
        <time>2020-12-20T08:35:34.314000+00:00</time>
      </trkpt>
      <trkpt lat="0" lon="0">
        <time>2020-12-20T08:35:34.316000+00:00</time>
      </trkpt>
      <trkpt lat="47.32043" lon="-1.30846">
        <ele>72</ele>
        <time>2020-12-20T08:35:35.328000+00:00</time>
      </trkpt>
      <trkpt lat="0" lon="0">
        <time>2020-12-20T08:35:35.342000+00:00</time>
      </trkpt>
      <trkpt lat="0" lon="0">
        <time>2020-12-20T08:35:35.350000+00:00</time>
      </trkpt>
      <trkpt lat="0" lon="0">
        <time>2020-12-20T08:35:35.352000+00:00</time>
      </trkpt>
      <trkpt lat="47.32042" lon="-1.30845">
        <ele>73</ele>
        <time>2020-12-20T08:35:36.341000+00:00</time>
      </trkpt>
      <trkpt lat="0" lon="0">
        <time>2020-12-20T08:35:36.356000+00:00</time>
      </trkpt>
      <trkpt lat="0" lon="0">
        <time>2020-12-20T08:35:36.361000+00:00</time>
      </trkpt>
      <trkpt lat="0" lon="0">
        <time>2020-12-20T08:35:36.366000+00:00</time>
      </trkpt>
      <trkpt lat="47.3204" lon="-1.30845">
        <ele>73</ele>
        <time>2020-12-20T08:35:37.330000+00:00</time>
      </trkpt>
      <trkpt lat="0" lon="0">
        <time>2020-12-20T08:35:37.341000+00:00</time>
      </trkpt>
      <trkpt lat="0" lon="0">
        <time>2020-12-20T08:35:37.345000+00:00</time>
      </trkpt>
      <trkpt lat="0" lon="0">
        <time>2020-12-20T08:35:37.348000+00:00</time>
      </trkpt>
      <trkpt lat="47.32039" lon="-1.30845">
        <ele>73</ele>
        <time>2020-12-20T08:35:38.299000+00:00</time>
      </trkpt>
      <trkpt lat="0" lon="0">
        <time>2020-12-20T08:35:38.303000+00:00</time>
      </trkpt>
      <trkpt lat="0" lon="0">
        <time>2020-12-20T08:35:38.309000+00:00</time>
      </trkpt>
      <trkpt lat="0" lon="0">
        <time>2020-12-20T08:35:38.311000+00:00</time>
      </trkpt>
      <trkpt lat="47.32037" lon="-1.30844">
        <ele>73</ele>
        <time>2020-12-20T08:35:39.320000+00:00</time>
      </trkpt>
      <trkpt lat="0" lon="0">
        <time>2020-12-20T08:35:39.339000+00:00</time>
      </trkpt>
      <trkpt lat="0" lon="0">
        <time>2020-12-20T08:35:39.344000+00:00</time>
      </trkpt>
      <trkpt lat="0" lon="0">
        <time>2020-12-20T08:35:39.349000+00:00</time>
      </trkpt>
      <trkpt lat="47.32036" lon="-1.30844">
        <ele>73</ele>
        <time>2020-12-20T08:35:40.333000+00:00</time>
      </trkpt>
      <trkpt lat="0" lon="0">
        <time>2020-12-20T08:35:40.343000+00:00</time>
      </trkpt>
      <trkpt lat="0" lon="0">
        <time>2020-12-20T08:35:40.349000+00:00</time>
      </trkpt>
      <trkpt lat="0" lon="0">
        <time>2020-12-20T08:35:40.352000+00:00</time>
      </trkpt>
      <trkpt lat="47.32034" lon="-1.30844">
        <ele>74</ele>
        <time>2020-12-20T08:35:41.312000+00:00</time>
      </trkpt>
      <trkpt lat="0" lon="0">
        <time>2020-12-20T08:35:41.319000+00:00</time>
      </trkpt>
      <trkpt lat="0" lon="0">
        <time>2020-12-20T08:35:41.321000+00:00</time>
      </trkpt>
      <trkpt lat="0" lon="0">
        <time>2020-12-20T08:35:41.322000+00:00</time>
      </trkpt>
      <trkpt lat="47.32033" lon="-1.30843">
        <ele>74</ele>
        <time>2020-12-20T08:35:42.276000+00:00</time>
      </trkpt>
      <trkpt lat="0" lon="0">
        <time>2020-12-20T08:35:42.290000+00:00</time>
      </trkpt>
      <trkpt lat="0" lon="0">
        <time>2020-12-20T08:35:42.295000+00:00</time>
      </trkpt>
      <trkpt lat="0" lon="0">
        <time>2020-12-20T08:35:42.297000+00:00</time>
      </trkpt>
      <trkpt lat="47.32031" lon="-1.30843">
        <ele>74</ele>
        <time>2020-12-20T08:35:43.332000+00:00</time>
      </trkpt>
      <trkpt lat="0" lon="0">
        <time>2020-12-20T08:35:43.341000+00:00</time>
      </trkpt>
      <trkpt lat="0" lon="0">
        <time>2020-12-20T08:35:43.348000+00:00</time>
      </trkpt>
      <trkpt lat="0" lon="0">
        <time>2020-12-20T08:35:43.353000+00:00</time>
      </trkpt>
      <trkpt lat="47.32029" lon="-1.30843">
        <ele>74</ele>
        <time>2020-12-20T08:35:44.313000+00:00</time>
      </trkpt>
      <trkpt lat="0" lon="0">
        <time>2020-12-20T08:35:44.324000+00:00</time>
      </trkpt>
      <trkpt lat="0" lon="0">
        <time>2020-12-20T08:35:44.334000+00:00</time>
      </trkpt>
      <trkpt lat="0" lon="0">
        <time>2020-12-20T08:35:44.339000+00:00</time>
      </trkpt>
      <trkpt lat="47.32027" lon="-1.30843">
        <ele>75</ele>
        <time>2020-12-20T08:35:45.314000+00:00</time>
      </trkpt>
      <trkpt lat="0" lon="0">
        <time>2020-12-20T08:35:45.318000+00:00</time>
      </trkpt>
      <trkpt lat="0" lon="0">
        <time>2020-12-20T08:35:45.323000+00:00</time>
      </trkpt>
      <trkpt lat="0" lon="0">
        <time>2020-12-20T08:35:45.325000+00:00</time>
      </trkpt>
      <trkpt lat="47.32025" lon="-1.30843">
        <ele>75</ele>
        <time>2020-12-20T08:35:46.322000+00:00</time>
      </trkpt>
      <trkpt lat="0" lon="0">
        <time>2020-12-20T08:35:46.340000+00:00</time>
      </trkpt>
      <trkpt lat="0" lon="0">
        <time>2020-12-20T08:35:46.344000+00:00</time>
      </trkpt>
      <trkpt lat="0" lon="0">
        <time>2020-12-20T08:35:46.346000+00:00</time>
      </trkpt>
      <trkpt lat="47.32023" lon="-1.30842">
        <ele>75</ele>
        <time>2020-12-20T08:35:47.328000+00:00</time>
      </trkpt>
      <trkpt lat="0" lon="0">
        <time>2020-12-20T08:35:47.333000+00:00</time>
      </trkpt>
      <trkpt lat="0" lon="0">
        <time>2020-12-20T08:35:47.335000+00:00</time>
      </trkpt>
      <trkpt lat="0" lon="0">
        <time>2020-12-20T08:35:47.337000+00:00</time>
      </trkpt>
      <trkpt lat="47.32022" lon="-1.30842">
        <ele>75</ele>
        <time>2020-12-20T08:35:48.265000+00:00</time>
      </trkpt>
      <trkpt lat="0" lon="0">
        <time>2020-12-20T08:35:48.282000+00:00</time>
      </trkpt>
      <trkpt lat="0" lon="0">
        <time>2020-12-20T08:35:48.286000+00:00</time>
      </trkpt>
      <trkpt lat="0" lon="0">
        <time>2020-12-20T08:35:48.292000+00:00</time>
      </trkpt>
      <trkpt lat="47.3202" lon="-1.30842">
        <ele>76</ele>
        <time>2020-12-20T08:35:49.269000+00:00</time>
      </trkpt>
      <trkpt lat="0" lon="0">
        <time>2020-12-20T08:35:49.278000+00:00</time>
      </trkpt>
      <trkpt lat="0" lon="0">
        <time>2020-12-20T08:35:49.289000+00:00</time>
      </trkpt>
      <trkpt lat="0" lon="0">
        <time>2020-12-20T08:35:49.291000+00:00</time>
      </trkpt>
      <trkpt lat="47.32018" lon="-1.30842">
        <ele>76</ele>
        <time>2020-12-20T08:35:50.297000+00:00</time>
      </trkpt>
      <trkpt lat="0" lon="0">
        <time>2020-12-20T08:35:50.309000+00:00</time>
      </trkpt>
      <trkpt lat="0" lon="0">
        <time>2020-12-20T08:35:50.312000+00:00</time>
      </trkpt>
      <trkpt lat="0" lon="0">
        <time>2020-12-20T08:35:50.314000+00:00</time>
      </trkpt>
      <trkpt lat="47.32016" lon="-1.30841">
        <ele>77</ele>
        <time>2020-12-20T08:35:51.326000+00:00</time>
      </trkpt>
      <trkpt lat="0" lon="0">
        <time>2020-12-20T08:35:51.344000+00:00</time>
      </trkpt>
      <trkpt lat="0" lon="0">
        <time>2020-12-20T08:35:51.348000+00:00</time>
      </trkpt>
      <trkpt lat="0" lon="0">
        <time>2020-12-20T08:35:51.349000+00:00</time>
      </trkpt>
      <trkpt lat="47.32014" lon="-1.30841">
        <ele>77</ele>
        <time>2020-12-20T08:35:52.305000+00:00</time>
      </trkpt>
      <trkpt lat="0" lon="0">
        <time>2020-12-20T08:35:52.322000+00:00</time>
      </trkpt>
      <trkpt lat="0" lon="0">
        <time>2020-12-20T08:35:52.326000+00:00</time>
      </trkpt>
      <trkpt lat="0" lon="0">
        <time>2020-12-20T08:35:52.328000+00:00</time>
      </trkpt>
      <trkpt lat="47.32012" lon="-1.3084">
        <ele>77</ele>
        <time>2020-12-20T08:35:53.296000+00:00</time>
      </trkpt>
      <trkpt lat="0" lon="0">
        <time>2020-12-20T08:35:53.303000+00:00</time>
      </trkpt>
      <trkpt lat="0" lon="0">
        <time>2020-12-20T08:35:53.308000+00:00</time>
      </trkpt>
      <trkpt lat="0" lon="0">
        <time>2020-12-20T08:35:53.310000+00:00</time>
      </trkpt>
      <trkpt lat="47.32011" lon="-1.3084">
        <ele>77</ele>
        <time>2020-12-20T08:35:54.318000+00:00</time>
      </trkpt>
      <trkpt lat="0" lon="0">
        <time>2020-12-20T08:35:54.324000+00:00</time>
      </trkpt>
      <trkpt lat="0" lon="0">
        <time>2020-12-20T08:35:54.329000+00:00</time>
      </trkpt>
      <trkpt lat="0" lon="0">
        <time>2020-12-20T08:35:54.333000+00:00</time>
      </trkpt>
      <trkpt lat="47.32009" lon="-1.30839">
        <ele>77</ele>
        <time>2020-12-20T08:35:55.320000+00:00</time>
      </trkpt>
      <trkpt lat="0" lon="0">
        <time>2020-12-20T08:35:55.326000+00:00</time>
      </trkpt>
      <trkpt lat="0" lon="0">
        <time>2020-12-20T08:35:55.331000+00:00</time>
      </trkpt>
      <trkpt lat="0" lon="0">
        <time>2020-12-20T08:35:55.333000+00:00</time>
      </trkpt>
      <trkpt lat="47.32007" lon="-1.30839">
        <ele>77</ele>
        <time>2020-12-20T08:35:56.310000+00:00</time>
      </trkpt>
      <trkpt lat="0" lon="0">
        <time>2020-12-20T08:35:56.318000+00:00</time>
      </trkpt>
      <trkpt lat="0" lon="0">
        <time>2020-12-20T08:35:56.323000+00:00</time>
      </trkpt>
      <trkpt lat="0" lon="0">
        <time>2020-12-20T08:35:56.326000+00:00</time>
      </trkpt>
      <trkpt lat="47.32005" lon="-1.30839">
        <ele>77</ele>
        <time>2020-12-20T08:35:57.318000+00:00</time>
      </trkpt>
      <trkpt lat="0" lon="0">
        <time>2020-12-20T08:35:57.330000+00:00</time>
      </trkpt>
      <trkpt lat="0" lon="0">
        <time>2020-12-20T08:35:57.335000+00:00</time>
      </trkpt>
      <trkpt lat="0" lon="0">
        <time>2020-12-20T08:35:57.337000+00:00</time>
      </trkpt>
      <trkpt lat="47.32003" lon="-1.30838">
        <ele>77</ele>
        <time>2020-12-20T08:35:58.340000+00:00</time>
      </trkpt>
      <trkpt lat="0" lon="0">
        <time>2020-12-20T08:35:58.357000+00:00</time>
      </trkpt>
      <trkpt lat="0" lon="0">
        <time>2020-12-20T08:35:58.363000+00:00</time>
      </trkpt>
      <trkpt lat="0" lon="0">
        <time>2020-12-20T08:35:58.365000+00:00</time>
      </trkpt>
      <trkpt lat="47.32001" lon="-1.30838">
        <ele>78</ele>
        <time>2020-12-20T08:35:59.306000+00:00</time>
      </trkpt>
      <trkpt lat="0" lon="0">
        <time>2020-12-20T08:35:59.308000+00:00</time>
      </trkpt>
      <trkpt lat="0" lon="0">
        <time>2020-12-20T08:35:59.310000+00:00</time>
      </trkpt>
      <trkpt lat="0" lon="0">
        <time>2020-12-20T08:35:59.313000+00:00</time>
      </trkpt>
      <trkpt lat="47.31999" lon="-1.30837">
        <ele>78</ele>
        <time>2020-12-20T08:36:00.321000+00:00</time>
      </trkpt>
      <trkpt lat="0" lon="0">
        <time>2020-12-20T08:36:00.332000+00:00</time>
      </trkpt>
      <trkpt lat="0" lon="0">
        <time>2020-12-20T08:36:00.342000+00:00</time>
      </trkpt>
      <trkpt lat="0" lon="0">
        <time>2020-12-20T08:36:00.345000+00:00</time>
      </trkpt>
      <trkpt lat="47.31997" lon="-1.30837">
        <ele>78</ele>
        <time>2020-12-20T08:36:01.335000+00:00</time>
      </trkpt>
      <trkpt lat="0" lon="0">
        <time>2020-12-20T08:36:01.342000+00:00</time>
      </trkpt>
      <trkpt lat="0" lon="0">
        <time>2020-12-20T08:36:01.352000+00:00</time>
      </trkpt>
      <trkpt lat="0" lon="0">
        <time>2020-12-20T08:36:01.357000+00:00</time>
      </trkpt>
      <trkpt lat="47.31995" lon="-1.30836">
        <ele>78</ele>
        <time>2020-12-20T08:36:02.309000+00:00</time>
      </trkpt>
      <trkpt lat="0" lon="0">
        <time>2020-12-20T08:36:02.321000+00:00</time>
      </trkpt>
      <trkpt lat="0" lon="0">
        <time>2020-12-20T08:36:02.330000+00:00</time>
      </trkpt>
      <trkpt lat="0" lon="0">
        <time>2020-12-20T08:36:02.335000+00:00</time>
      </trkpt>
      <trkpt lat="47.31994" lon="-1.30836">
        <ele>78</ele>
        <time>2020-12-20T08:36:03.308000+00:00</time>
      </trkpt>
      <trkpt lat="0" lon="0">
        <time>2020-12-20T08:36:03.316000+00:00</time>
      </trkpt>
      <trkpt lat="0" lon="0">
        <time>2020-12-20T08:36:03.320000+00:00</time>
      </trkpt>
      <trkpt lat="0" lon="0">
        <time>2020-12-20T08:36:03.322000+00:00</time>
      </trkpt>
      <trkpt lat="47.31992" lon="-1.30835">
        <ele>78</ele>
        <time>2020-12-20T08:36:04.325000+00:00</time>
      </trkpt>
      <trkpt lat="0" lon="0">
        <time>2020-12-20T08:36:04.334000+00:00</time>
      </trkpt>
      <trkpt lat="0" lon="0">
        <time>2020-12-20T08:36:04.354000+00:00</time>
      </trkpt>
      <trkpt lat="0" lon="0">
        <time>2020-12-20T08:36:04.358000+00:00</time>
      </trkpt>
      <trkpt lat="47.31991" lon="-1.30835">
        <ele>79</ele>
        <time>2020-12-20T08:36:05.341000+00:00</time>
      </trkpt>
      <trkpt lat="0" lon="0">
        <time>2020-12-20T08:36:05.348000+00:00</time>
      </trkpt>
      <trkpt lat="0" lon="0">
        <time>2020-12-20T08:36:05.353000+00:00</time>
      </trkpt>
      <trkpt lat="0" lon="0">
        <time>2020-12-20T08:36:05.354000+00:00</time>
      </trkpt>
      <trkpt lat="47.31989" lon="-1.30835">
        <ele>79</ele>
        <time>2020-12-20T08:36:06.324000+00:00</time>
      </trkpt>
      <trkpt lat="0" lon="0">
        <time>2020-12-20T08:36:06.328000+00:00</time>
      </trkpt>
      <trkpt lat="0" lon="0">
        <time>2020-12-20T08:36:06.337000+00:00</time>
      </trkpt>
      <trkpt lat="0" lon="0">
        <time>2020-12-20T08:36:06.343000+00:00</time>
      </trkpt>
      <trkpt lat="47.31987" lon="-1.30834">
        <ele>79</ele>
        <time>2020-12-20T08:36:07.325000+00:00</time>
      </trkpt>
      <trkpt lat="0" lon="0">
        <time>2020-12-20T08:36:07.330000+00:00</time>
      </trkpt>
      <trkpt lat="0" lon="0">
        <time>2020-12-20T08:36:07.336000+00:00</time>
      </trkpt>
      <trkpt lat="0" lon="0">
        <time>2020-12-20T08:36:07.338000+00:00</time>
      </trkpt>
      <trkpt lat="47.31986" lon="-1.30834">
        <ele>79</ele>
        <time>2020-12-20T08:36:08.326000+00:00</time>
      </trkpt>
      <trkpt lat="0" lon="0">
        <time>2020-12-20T08:36:08.338000+00:00</time>
      </trkpt>
      <trkpt lat="0" lon="0">
        <time>2020-12-20T08:36:08.348000+00:00</time>
      </trkpt>
      <trkpt lat="0" lon="0">
        <time>2020-12-20T08:36:08.349000+00:00</time>
      </trkpt>
      <trkpt lat="47.31984" lon="-1.30833">
        <ele>79</ele>
        <time>2020-12-20T08:36:09.333000+00:00</time>
      </trkpt>
      <trkpt lat="0" lon="0">
        <time>2020-12-20T08:36:09.346000+00:00</time>
      </trkpt>
      <trkpt lat="0" lon="0">
        <time>2020-12-20T08:36:09.356000+00:00</time>
      </trkpt>
      <trkpt lat="0" lon="0">
        <time>2020-12-20T08:36:09.366000+00:00</time>
      </trkpt>
      <trkpt lat="47.31983" lon="-1.30832">
        <ele>80</ele>
        <time>2020-12-20T08:36:10.327000+00:00</time>
      </trkpt>
      <trkpt lat="0" lon="0">
        <time>2020-12-20T08:36:10.333000+00:00</time>
      </trkpt>
      <trkpt lat="0" lon="0">
        <time>2020-12-20T08:36:10.338000+00:00</time>
      </trkpt>
      <trkpt lat="0" lon="0">
        <time>2020-12-20T08:36:10.341000+00:00</time>
      </trkpt>
      <trkpt lat="47.31981" lon="-1.30831">
        <ele>80</ele>
        <time>2020-12-20T08:36:11.305000+00:00</time>
      </trkpt>
      <trkpt lat="0" lon="0">
        <time>2020-12-20T08:36:11.312000+00:00</time>
      </trkpt>
      <trkpt lat="0" lon="0">
        <time>2020-12-20T08:36:11.326000+00:00</time>
      </trkpt>
      <trkpt lat="0" lon="0">
        <time>2020-12-20T08:36:11.334000+00:00</time>
      </trkpt>
      <trkpt lat="47.31979" lon="-1.3083">
        <ele>80</ele>
        <time>2020-12-20T08:36:12.329000+00:00</time>
      </trkpt>
      <trkpt lat="0" lon="0">
        <time>2020-12-20T08:36:12.338000+00:00</time>
      </trkpt>
      <trkpt lat="0" lon="0">
        <time>2020-12-20T08:36:12.342000+00:00</time>
      </trkpt>
      <trkpt lat="0" lon="0">
        <time>2020-12-20T08:36:12.347000+00:00</time>
      </trkpt>
      <trkpt lat="47.31977" lon="-1.3083">
        <ele>80</ele>
        <time>2020-12-20T08:36:13.336000+00:00</time>
      </trkpt>
      <trkpt lat="0" lon="0">
        <time>2020-12-20T08:36:13.349000+00:00</time>
      </trkpt>
      <trkpt lat="0" lon="0">
        <time>2020-12-20T08:36:13.355000+00:00</time>
      </trkpt>
      <trkpt lat="0" lon="0">
        <time>2020-12-20T08:36:13.357000+00:00</time>
      </trkpt>
      <trkpt lat="47.31976" lon="-1.30829">
        <ele>80</ele>
        <time>2020-12-20T08:36:14.317000+00:00</time>
      </trkpt>
      <trkpt lat="0" lon="0">
        <time>2020-12-20T08:36:14.330000+00:00</time>
      </trkpt>
      <trkpt lat="0" lon="0">
        <time>2020-12-20T08:36:14.337000+00:00</time>
      </trkpt>
      <trkpt lat="0" lon="0">
        <time>2020-12-20T08:36:14.339000+00:00</time>
      </trkpt>
      <trkpt lat="47.31974" lon="-1.30828">
        <ele>80</ele>
        <time>2020-12-20T08:36:15.307000+00:00</time>
      </trkpt>
      <trkpt lat="0" lon="0">
        <time>2020-12-20T08:36:15.323000+00:00</time>
      </trkpt>
      <trkpt lat="0" lon="0">
        <time>2020-12-20T08:36:15.332000+00:00</time>
      </trkpt>
      <trkpt lat="0" lon="0">
        <time>2020-12-20T08:36:15.339000+00:00</time>
      </trkpt>
      <trkpt lat="47.31973" lon="-1.30827">
        <ele>81</ele>
        <time>2020-12-20T08:36:16.321000+00:00</time>
      </trkpt>
      <trkpt lat="0" lon="0">
        <time>2020-12-20T08:36:16.325000+00:00</time>
      </trkpt>
      <trkpt lat="0" lon="0">
        <time>2020-12-20T08:36:16.338000+00:00</time>
      </trkpt>
      <trkpt lat="0" lon="0">
        <time>2020-12-20T08:36:16.347000+00:00</time>
      </trkpt>
      <trkpt lat="47.31971" lon="-1.30826">
        <ele>81</ele>
        <time>2020-12-20T08:36:17.293000+00:00</time>
      </trkpt>
      <trkpt lat="0" lon="0">
        <time>2020-12-20T08:36:17.299000+00:00</time>
      </trkpt>
      <trkpt lat="0" lon="0">
        <time>2020-12-20T08:36:17.301000+00:00</time>
      </trkpt>
      <trkpt lat="0" lon="0">
        <time>2020-12-20T08:36:17.304000+00:00</time>
      </trkpt>
      <trkpt lat="47.31969" lon="-1.30824">
        <ele>81</ele>
        <time>2020-12-20T08:36:18.280000+00:00</time>
      </trkpt>
      <trkpt lat="0" lon="0">
        <time>2020-12-20T08:36:18.292000+00:00</time>
      </trkpt>
      <trkpt lat="0" lon="0">
        <time>2020-12-20T08:36:18.294000+00:00</time>
      </trkpt>
      <trkpt lat="0" lon="0">
        <time>2020-12-20T08:36:18.295000+00:00</time>
      </trkpt>
      <trkpt lat="47.31968" lon="-1.30823">
        <ele>81</ele>
        <time>2020-12-20T08:36:19.307000+00:00</time>
      </trkpt>
      <trkpt lat="0" lon="0">
        <time>2020-12-20T08:36:19.318000+00:00</time>
      </trkpt>
      <trkpt lat="0" lon="0">
        <time>2020-12-20T08:36:19.331000+00:00</time>
      </trkpt>
      <trkpt lat="0" lon="0">
        <time>2020-12-20T08:36:19.333000+00:00</time>
      </trkpt>
      <trkpt lat="47.31966" lon="-1.30822">
        <ele>81</ele>
        <time>2020-12-20T08:36:20.316000+00:00</time>
      </trkpt>
      <trkpt lat="0" lon="0">
        <time>2020-12-20T08:36:20.321000+00:00</time>
      </trkpt>
      <trkpt lat="0" lon="0">
        <time>2020-12-20T08:36:20.333000+00:00</time>
      </trkpt>
      <trkpt lat="0" lon="0">
        <time>2020-12-20T08:36:20.335000+00:00</time>
      </trkpt>
      <trkpt lat="47.31964" lon="-1.30821">
        <ele>82</ele>
        <time>2020-12-20T08:36:21.328000+00:00</time>
      </trkpt>
      <trkpt lat="0" lon="0">
        <time>2020-12-20T08:36:21.348000+00:00</time>
      </trkpt>
      <trkpt lat="0" lon="0">
        <time>2020-12-20T08:36:21.352000+00:00</time>
      </trkpt>
      <trkpt lat="0" lon="0">
        <time>2020-12-20T08:36:21.353000+00:00</time>
      </trkpt>
      <trkpt lat="47.31963" lon="-1.3082">
        <ele>82</ele>
        <time>2020-12-20T08:36:22.278000+00:00</time>
      </trkpt>
      <trkpt lat="0" lon="0">
        <time>2020-12-20T08:36:22.280000+00:00</time>
      </trkpt>
      <trkpt lat="0" lon="0">
        <time>2020-12-20T08:36:22.283000+00:00</time>
      </trkpt>
      <trkpt lat="0" lon="0">
        <time>2020-12-20T08:36:22.284000+00:00</time>
      </trkpt>
      <trkpt lat="47.31961" lon="-1.30818">
        <ele>83</ele>
        <time>2020-12-20T08:36:23.315000+00:00</time>
      </trkpt>
      <trkpt lat="0" lon="0">
        <time>2020-12-20T08:36:23.322000+00:00</time>
      </trkpt>
      <trkpt lat="0" lon="0">
        <time>2020-12-20T08:36:23.327000+00:00</time>
      </trkpt>
      <trkpt lat="0" lon="0">
        <time>2020-12-20T08:36:23.329000+00:00</time>
      </trkpt>
      <trkpt lat="47.31959" lon="-1.30817">
        <ele>84</ele>
        <time>2020-12-20T08:36:24.299000+00:00</time>
      </trkpt>
      <trkpt lat="0" lon="0">
        <time>2020-12-20T08:36:24.308000+00:00</time>
      </trkpt>
      <trkpt lat="0" lon="0">
        <time>2020-12-20T08:36:24.317000+00:00</time>
      </trkpt>
      <trkpt lat="0" lon="0">
        <time>2020-12-20T08:36:24.321000+00:00</time>
      </trkpt>
      <trkpt lat="47.31957" lon="-1.30815">
        <ele>84</ele>
        <time>2020-12-20T08:36:25.327000+00:00</time>
      </trkpt>
      <trkpt lat="0" lon="0">
        <time>2020-12-20T08:36:25.335000+00:00</time>
      </trkpt>
      <trkpt lat="0" lon="0">
        <time>2020-12-20T08:36:25.342000+00:00</time>
      </trkpt>
      <trkpt lat="0" lon="0">
        <time>2020-12-20T08:36:25.345000+00:00</time>
      </trkpt>
      <trkpt lat="47.31956" lon="-1.30814">
        <ele>84</ele>
        <time>2020-12-20T08:36:26.322000+00:00</time>
      </trkpt>
      <trkpt lat="0" lon="0">
        <time>2020-12-20T08:36:26.331000+00:00</time>
      </trkpt>
      <trkpt lat="0" lon="0">
        <time>2020-12-20T08:36:26.344000+00:00</time>
      </trkpt>
      <trkpt lat="0" lon="0">
        <time>2020-12-20T08:36:26.356000+00:00</time>
      </trkpt>
      <trkpt lat="47.31954" lon="-1.30813">
        <ele>85</ele>
        <time>2020-12-20T08:36:27.338000+00:00</time>
      </trkpt>
      <trkpt lat="0" lon="0">
        <time>2020-12-20T08:36:27.364000+00:00</time>
      </trkpt>
      <trkpt lat="0" lon="0">
        <time>2020-12-20T08:36:27.382000+00:00</time>
      </trkpt>
      <trkpt lat="0" lon="0">
        <time>2020-12-20T08:36:27.385000+00:00</time>
      </trkpt>
      <trkpt lat="47.31953" lon="-1.30811">
        <ele>85</ele>
        <time>2020-12-20T08:36:28.338000+00:00</time>
      </trkpt>
      <trkpt lat="0" lon="0">
        <time>2020-12-20T08:36:28.357000+00:00</time>
      </trkpt>
      <trkpt lat="0" lon="0">
        <time>2020-12-20T08:36:28.361000+00:00</time>
      </trkpt>
      <trkpt lat="0" lon="0">
        <time>2020-12-20T08:36:28.364000+00:00</time>
      </trkpt>
      <trkpt lat="47.31951" lon="-1.3081">
        <ele>85</ele>
        <time>2020-12-20T08:36:29.274000+00:00</time>
      </trkpt>
      <trkpt lat="0" lon="0">
        <time>2020-12-20T08:36:29.282000+00:00</time>
      </trkpt>
      <trkpt lat="0" lon="0">
        <time>2020-12-20T08:36:29.288000+00:00</time>
      </trkpt>
      <trkpt lat="0" lon="0">
        <time>2020-12-20T08:36:29.290000+00:00</time>
      </trkpt>
      <trkpt lat="47.31949" lon="-1.30808">
        <ele>85</ele>
        <time>2020-12-20T08:36:30.292000+00:00</time>
      </trkpt>
      <trkpt lat="0" lon="0">
        <time>2020-12-20T08:36:30.303000+00:00</time>
      </trkpt>
      <trkpt lat="0" lon="0">
        <time>2020-12-20T08:36:30.309000+00:00</time>
      </trkpt>
      <trkpt lat="0" lon="0">
        <time>2020-12-20T08:36:30.312000+00:00</time>
      </trkpt>
      <trkpt lat="47.31948" lon="-1.30806">
        <ele>85</ele>
        <time>2020-12-20T08:36:31.310000+00:00</time>
      </trkpt>
      <trkpt lat="0" lon="0">
        <time>2020-12-20T08:36:31.319000+00:00</time>
      </trkpt>
      <trkpt lat="0" lon="0">
        <time>2020-12-20T08:36:31.324000+00:00</time>
      </trkpt>
      <trkpt lat="0" lon="0">
        <time>2020-12-20T08:36:31.326000+00:00</time>
      </trkpt>
      <trkpt lat="47.31946" lon="-1.30805">
        <ele>86</ele>
        <time>2020-12-20T08:36:32.344000+00:00</time>
      </trkpt>
      <trkpt lat="0" lon="0">
        <time>2020-12-20T08:36:32.351000+00:00</time>
      </trkpt>
      <trkpt lat="0" lon="0">
        <time>2020-12-20T08:36:32.355000+00:00</time>
      </trkpt>
      <trkpt lat="0" lon="0">
        <time>2020-12-20T08:36:32.357000+00:00</time>
      </trkpt>
      <trkpt lat="47.31944" lon="-1.30803">
        <ele>86</ele>
        <time>2020-12-20T08:36:33.337000+00:00</time>
      </trkpt>
      <trkpt lat="0" lon="0">
        <time>2020-12-20T08:36:33.344000+00:00</time>
      </trkpt>
      <trkpt lat="0" lon="0">
        <time>2020-12-20T08:36:33.346000+00:00</time>
      </trkpt>
      <trkpt lat="0" lon="0">
        <time>2020-12-20T08:36:33.348000+00:00</time>
      </trkpt>
      <trkpt lat="47.31943" lon="-1.30801">
        <ele>86</ele>
        <time>2020-12-20T08:36:34.298000+00:00</time>
      </trkpt>
      <trkpt lat="0" lon="0">
        <time>2020-12-20T08:36:34.305000+00:00</time>
      </trkpt>
      <trkpt lat="0" lon="0">
        <time>2020-12-20T08:36:34.311000+00:00</time>
      </trkpt>
      <trkpt lat="0" lon="0">
        <time>2020-12-20T08:36:34.314000+00:00</time>
      </trkpt>
      <trkpt lat="47.31941" lon="-1.308">
        <ele>86</ele>
        <time>2020-12-20T08:36:35.337000+00:00</time>
      </trkpt>
      <trkpt lat="0" lon="0">
        <time>2020-12-20T08:36:35.342000+00:00</time>
      </trkpt>
      <trkpt lat="0" lon="0">
        <time>2020-12-20T08:36:35.347000+00:00</time>
      </trkpt>
      <trkpt lat="0" lon="0">
        <time>2020-12-20T08:36:35.352000+00:00</time>
      </trkpt>
      <trkpt lat="47.31939" lon="-1.30798">
        <ele>86</ele>
        <time>2020-12-20T08:36:36.338000+00:00</time>
      </trkpt>
      <trkpt lat="0" lon="0">
        <time>2020-12-20T08:36:36.354000+00:00</time>
      </trkpt>
      <trkpt lat="0" lon="0">
        <time>2020-12-20T08:36:36.363000+00:00</time>
      </trkpt>
      <trkpt lat="0" lon="0">
        <time>2020-12-20T08:36:36.369000+00:00</time>
      </trkpt>
      <trkpt lat="47.31937" lon="-1.30796">
        <ele>86</ele>
        <time>2020-12-20T08:36:37.328000+00:00</time>
      </trkpt>
      <trkpt lat="0" lon="0">
        <time>2020-12-20T08:36:37.355000+00:00</time>
      </trkpt>
      <trkpt lat="0" lon="0">
        <time>2020-12-20T08:36:37.358000+00:00</time>
      </trkpt>
      <trkpt lat="0" lon="0">
        <time>2020-12-20T08:36:37.362000+00:00</time>
      </trkpt>
      <trkpt lat="47.31936" lon="-1.30794">
        <ele>86</ele>
        <time>2020-12-20T08:36:38.306000+00:00</time>
      </trkpt>
      <trkpt lat="0" lon="0">
        <time>2020-12-20T08:36:38.314000+00:00</time>
      </trkpt>
      <trkpt lat="0" lon="0">
        <time>2020-12-20T08:36:38.320000+00:00</time>
      </trkpt>
      <trkpt lat="0" lon="0">
        <time>2020-12-20T08:36:38.322000+00:00</time>
      </trkpt>
      <trkpt lat="47.31934" lon="-1.30792">
        <ele>86</ele>
        <time>2020-12-20T08:36:39.338000+00:00</time>
      </trkpt>
      <trkpt lat="0" lon="0">
        <time>2020-12-20T08:36:39.351000+00:00</time>
      </trkpt>
      <trkpt lat="0" lon="0">
        <time>2020-12-20T08:36:39.362000+00:00</time>
      </trkpt>
      <trkpt lat="0" lon="0">
        <time>2020-12-20T08:36:39.364000+00:00</time>
      </trkpt>
      <trkpt lat="47.31932" lon="-1.30791">
        <ele>86</ele>
        <time>2020-12-20T08:36:40.310000+00:00</time>
      </trkpt>
      <trkpt lat="0" lon="0">
        <time>2020-12-20T08:36:40.318000+00:00</time>
      </trkpt>
      <trkpt lat="0" lon="0">
        <time>2020-12-20T08:36:40.325000+00:00</time>
      </trkpt>
      <trkpt lat="0" lon="0">
        <time>2020-12-20T08:36:40.328000+00:00</time>
      </trkpt>
      <trkpt lat="47.3193" lon="-1.30789">
        <ele>87</ele>
        <time>2020-12-20T08:36:41.312000+00:00</time>
      </trkpt>
      <trkpt lat="0" lon="0">
        <time>2020-12-20T08:36:41.322000+00:00</time>
      </trkpt>
      <trkpt lat="0" lon="0">
        <time>2020-12-20T08:36:41.328000+00:00</time>
      </trkpt>
      <trkpt lat="0" lon="0">
        <time>2020-12-20T08:36:41.330000+00:00</time>
      </trkpt>
      <trkpt lat="47.31927" lon="-1.30787">
        <ele>87</ele>
        <time>2020-12-20T08:36:42.320000+00:00</time>
      </trkpt>
      <trkpt lat="0" lon="0">
        <time>2020-12-20T08:36:42.328000+00:00</time>
      </trkpt>
      <trkpt lat="0" lon="0">
        <time>2020-12-20T08:36:42.332000+00:00</time>
      </trkpt>
      <trkpt lat="0" lon="0">
        <time>2020-12-20T08:36:42.334000+00:00</time>
      </trkpt>
      <trkpt lat="47.31925" lon="-1.30785">
        <ele>87</ele>
        <time>2020-12-20T08:36:43.324000+00:00</time>
      </trkpt>
      <trkpt lat="0" lon="0">
        <time>2020-12-20T08:36:43.329000+00:00</time>
      </trkpt>
      <trkpt lat="0" lon="0">
        <time>2020-12-20T08:36:43.333000+00:00</time>
      </trkpt>
      <trkpt lat="0" lon="0">
        <time>2020-12-20T08:36:43.336000+00:00</time>
      </trkpt>
      <trkpt lat="47.31923" lon="-1.30783">
        <ele>88</ele>
        <time>2020-12-20T08:36:44.366000+00:00</time>
      </trkpt>
      <trkpt lat="0" lon="0">
        <time>2020-12-20T08:36:44.371000+00:00</time>
      </trkpt>
      <trkpt lat="0" lon="0">
        <time>2020-12-20T08:36:44.375000+00:00</time>
      </trkpt>
      <trkpt lat="0" lon="0">
        <time>2020-12-20T08:36:44.382000+00:00</time>
      </trkpt>
      <trkpt lat="47.31921" lon="-1.30781">
        <ele>88</ele>
        <time>2020-12-20T08:36:45.351000+00:00</time>
      </trkpt>
      <trkpt lat="0" lon="0">
        <time>2020-12-20T08:36:45.354000+00:00</time>
      </trkpt>
      <trkpt lat="0" lon="0">
        <time>2020-12-20T08:36:45.356000+00:00</time>
      </trkpt>
      <trkpt lat="0" lon="0">
        <time>2020-12-20T08:36:45.357000+00:00</time>
      </trkpt>
      <trkpt lat="47.31919" lon="-1.30779">
        <ele>88</ele>
        <time>2020-12-20T08:36:46.308000+00:00</time>
      </trkpt>
      <trkpt lat="0" lon="0">
        <time>2020-12-20T08:36:46.321000+00:00</time>
      </trkpt>
      <trkpt lat="0" lon="0">
        <time>2020-12-20T08:36:46.327000+00:00</time>
      </trkpt>
      <trkpt lat="0" lon="0">
        <time>2020-12-20T08:36:46.329000+00:00</time>
      </trkpt>
      <trkpt lat="47.31917" lon="-1.30778">
        <ele>88</ele>
        <time>2020-12-20T08:36:47.329000+00:00</time>
      </trkpt>
      <trkpt lat="0" lon="0">
        <time>2020-12-20T08:36:47.352000+00:00</time>
      </trkpt>
      <trkpt lat="0" lon="0">
        <time>2020-12-20T08:36:47.360000+00:00</time>
      </trkpt>
      <trkpt lat="0" lon="0">
        <time>2020-12-20T08:36:47.365000+00:00</time>
      </trkpt>
      <trkpt lat="47.31915" lon="-1.30776">
        <ele>88</ele>
        <time>2020-12-20T08:36:48.329000+00:00</time>
      </trkpt>
      <trkpt lat="0" lon="0">
        <time>2020-12-20T08:36:48.340000+00:00</time>
      </trkpt>
      <trkpt lat="0" lon="0">
        <time>2020-12-20T08:36:48.343000+00:00</time>
      </trkpt>
      <trkpt lat="0" lon="0">
        <time>2020-12-20T08:36:48.346000+00:00</time>
      </trkpt>
      <trkpt lat="47.31912" lon="-1.30774">
        <ele>88</ele>
        <time>2020-12-20T08:36:49.338000+00:00</time>
      </trkpt>
      <trkpt lat="0" lon="0">
        <time>2020-12-20T08:36:49.343000+00:00</time>
      </trkpt>
      <trkpt lat="0" lon="0">
        <time>2020-12-20T08:36:49.347000+00:00</time>
      </trkpt>
      <trkpt lat="0" lon="0">
        <time>2020-12-20T08:36:49.350000+00:00</time>
      </trkpt>
      <trkpt lat="47.3191" lon="-1.30772">
        <ele>88</ele>
        <time>2020-12-20T08:36:50.314000+00:00</time>
      </trkpt>
      <trkpt lat="0" lon="0">
        <time>2020-12-20T08:36:50.322000+00:00</time>
      </trkpt>
      <trkpt lat="0" lon="0">
        <time>2020-12-20T08:36:50.330000+00:00</time>
      </trkpt>
      <trkpt lat="0" lon="0">
        <time>2020-12-20T08:36:50.335000+00:00</time>
      </trkpt>
      <trkpt lat="47.31908" lon="-1.3077">
        <ele>88</ele>
        <time>2020-12-20T08:36:51.304000+00:00</time>
      </trkpt>
      <trkpt lat="0" lon="0">
        <time>2020-12-20T08:36:51.313000+00:00</time>
      </trkpt>
      <trkpt lat="0" lon="0">
        <time>2020-12-20T08:36:51.315000+00:00</time>
      </trkpt>
      <trkpt lat="0" lon="0">
        <time>2020-12-20T08:36:51.316000+00:00</time>
      </trkpt>
      <trkpt lat="47.31906" lon="-1.30768">
        <ele>88</ele>
        <time>2020-12-20T08:36:52.324000+00:00</time>
      </trkpt>
      <trkpt lat="0" lon="0">
        <time>2020-12-20T08:36:52.328000+00:00</time>
      </trkpt>
      <trkpt lat="0" lon="0">
        <time>2020-12-20T08:36:52.332000+00:00</time>
      </trkpt>
      <trkpt lat="0" lon="0">
        <time>2020-12-20T08:36:52.334000+00:00</time>
      </trkpt>
      <trkpt lat="47.31904" lon="-1.30767">
        <ele>88</ele>
        <time>2020-12-20T08:36:53.312000+00:00</time>
      </trkpt>
      <trkpt lat="0" lon="0">
        <time>2020-12-20T08:36:53.319000+00:00</time>
      </trkpt>
      <trkpt lat="0" lon="0">
        <time>2020-12-20T08:36:53.329000+00:00</time>
      </trkpt>
      <trkpt lat="0" lon="0">
        <time>2020-12-20T08:36:53.331000+00:00</time>
      </trkpt>
      <trkpt lat="47.31902" lon="-1.30765">
        <ele>89</ele>
        <time>2020-12-20T08:36:54.319000+00:00</time>
      </trkpt>
      <trkpt lat="0" lon="0">
        <time>2020-12-20T08:36:54.326000+00:00</time>
      </trkpt>
      <trkpt lat="0" lon="0">
        <time>2020-12-20T08:36:54.331000+00:00</time>
      </trkpt>
      <trkpt lat="0" lon="0">
        <time>2020-12-20T08:36:54.334000+00:00</time>
      </trkpt>
      <trkpt lat="47.319" lon="-1.30763">
        <ele>89</ele>
        <time>2020-12-20T08:36:55.308000+00:00</time>
      </trkpt>
      <trkpt lat="0" lon="0">
        <time>2020-12-20T08:36:55.322000+00:00</time>
      </trkpt>
      <trkpt lat="0" lon="0">
        <time>2020-12-20T08:36:55.333000+00:00</time>
      </trkpt>
      <trkpt lat="0" lon="0">
        <time>2020-12-20T08:36:55.338000+00:00</time>
      </trkpt>
      <trkpt lat="47.31898" lon="-1.30761">
        <ele>90</ele>
        <time>2020-12-20T08:36:56.346000+00:00</time>
      </trkpt>
      <trkpt lat="0" lon="0">
        <time>2020-12-20T08:36:56.357000+00:00</time>
      </trkpt>
      <trkpt lat="0" lon="0">
        <time>2020-12-20T08:36:56.368000+00:00</time>
      </trkpt>
      <trkpt lat="0" lon="0">
        <time>2020-12-20T08:36:56.370000+00:00</time>
      </trkpt>
      <trkpt lat="47.31896" lon="-1.3076">
        <ele>90</ele>
        <time>2020-12-20T08:36:57.342000+00:00</time>
      </trkpt>
      <trkpt lat="0" lon="0">
        <time>2020-12-20T08:36:57.350000+00:00</time>
      </trkpt>
      <trkpt lat="0" lon="0">
        <time>2020-12-20T08:36:57.355000+00:00</time>
      </trkpt>
      <trkpt lat="0" lon="0">
        <time>2020-12-20T08:36:57.357000+00:00</time>
      </trkpt>
      <trkpt lat="47.31894" lon="-1.30758">
        <ele>91</ele>
        <time>2020-12-20T08:36:58.349000+00:00</time>
      </trkpt>
      <trkpt lat="0" lon="0">
        <time>2020-12-20T08:36:58.355000+00:00</time>
      </trkpt>
      <trkpt lat="0" lon="0">
        <time>2020-12-20T08:36:58.359000+00:00</time>
      </trkpt>
      <trkpt lat="0" lon="0">
        <time>2020-12-20T08:36:58.362000+00:00</time>
      </trkpt>
      <trkpt lat="47.31892" lon="-1.30757">
        <ele>91</ele>
        <time>2020-12-20T08:36:59.333000+00:00</time>
      </trkpt>
      <trkpt lat="0" lon="0">
        <time>2020-12-20T08:36:59.340000+00:00</time>
      </trkpt>
      <trkpt lat="0" lon="0">
        <time>2020-12-20T08:36:59.345000+00:00</time>
      </trkpt>
      <trkpt lat="0" lon="0">
        <time>2020-12-20T08:36:59.347000+00:00</time>
      </trkpt>
      <trkpt lat="47.3189" lon="-1.30755">
        <ele>92</ele>
        <time>2020-12-20T08:37:00.334000+00:00</time>
      </trkpt>
      <trkpt lat="0" lon="0">
        <time>2020-12-20T08:37:00.344000+00:00</time>
      </trkpt>
      <trkpt lat="0" lon="0">
        <time>2020-12-20T08:37:00.349000+00:00</time>
      </trkpt>
      <trkpt lat="0" lon="0">
        <time>2020-12-20T08:37:00.351000+00:00</time>
      </trkpt>
      <trkpt lat="47.31888" lon="-1.30754">
        <ele>92</ele>
        <time>2020-12-20T08:37:01.338000+00:00</time>
      </trkpt>
      <trkpt lat="0" lon="0">
        <time>2020-12-20T08:37:01.344000+00:00</time>
      </trkpt>
      <trkpt lat="0" lon="0">
        <time>2020-12-20T08:37:01.348000+00:00</time>
      </trkpt>
      <trkpt lat="0" lon="0">
        <time>2020-12-20T08:37:01.350000+00:00</time>
      </trkpt>
      <trkpt lat="47.31886" lon="-1.30753">
        <ele>91</ele>
        <time>2020-12-20T08:37:02.326000+00:00</time>
      </trkpt>
      <trkpt lat="0" lon="0">
        <time>2020-12-20T08:37:02.337000+00:00</time>
      </trkpt>
      <trkpt lat="0" lon="0">
        <time>2020-12-20T08:37:02.341000+00:00</time>
      </trkpt>
      <trkpt lat="0" lon="0">
        <time>2020-12-20T08:37:02.344000+00:00</time>
      </trkpt>
      <trkpt lat="47.31884" lon="-1.30752">
        <ele>91</ele>
        <time>2020-12-20T08:37:03.311000+00:00</time>
      </trkpt>
      <trkpt lat="0" lon="0">
        <time>2020-12-20T08:37:03.314000+00:00</time>
      </trkpt>
      <trkpt lat="0" lon="0">
        <time>2020-12-20T08:37:03.316000+00:00</time>
      </trkpt>
      <trkpt lat="0" lon="0">
        <time>2020-12-20T08:37:03.317000+00:00</time>
      </trkpt>
      <trkpt lat="47.31881" lon="-1.30751">
        <ele>91</ele>
        <time>2020-12-20T08:37:04.316000+00:00</time>
      </trkpt>
      <trkpt lat="0" lon="0">
        <time>2020-12-20T08:37:04.327000+00:00</time>
      </trkpt>
      <trkpt lat="0" lon="0">
        <time>2020-12-20T08:37:04.331000+00:00</time>
      </trkpt>
      <trkpt lat="0" lon="0">
        <time>2020-12-20T08:37:04.333000+00:00</time>
      </trkpt>
      <trkpt lat="47.31879" lon="-1.3075">
        <ele>91</ele>
        <time>2020-12-20T08:37:05.332000+00:00</time>
      </trkpt>
      <trkpt lat="0" lon="0">
        <time>2020-12-20T08:37:05.338000+00:00</time>
      </trkpt>
      <trkpt lat="0" lon="0">
        <time>2020-12-20T08:37:05.352000+00:00</time>
      </trkpt>
      <trkpt lat="0" lon="0">
        <time>2020-12-20T08:37:05.355000+00:00</time>
      </trkpt>
      <trkpt lat="47.31877" lon="-1.30749">
        <ele>91</ele>
        <time>2020-12-20T08:37:06.326000+00:00</time>
      </trkpt>
      <trkpt lat="0" lon="0">
        <time>2020-12-20T08:37:06.340000+00:00</time>
      </trkpt>
      <trkpt lat="0" lon="0">
        <time>2020-12-20T08:37:06.345000+00:00</time>
      </trkpt>
      <trkpt lat="0" lon="0">
        <time>2020-12-20T08:37:06.350000+00:00</time>
      </trkpt>
      <trkpt lat="47.31875" lon="-1.30748">
        <ele>91</ele>
        <time>2020-12-20T08:37:07.317000+00:00</time>
      </trkpt>
      <trkpt lat="0" lon="0">
        <time>2020-12-20T08:37:07.328000+00:00</time>
      </trkpt>
      <trkpt lat="0" lon="0">
        <time>2020-12-20T08:37:07.332000+00:00</time>
      </trkpt>
      <trkpt lat="0" lon="0">
        <time>2020-12-20T08:37:07.335000+00:00</time>
      </trkpt>
      <trkpt lat="47.31873" lon="-1.30748">
        <ele>91</ele>
        <time>2020-12-20T08:37:08.304000+00:00</time>
      </trkpt>
      <trkpt lat="0" lon="0">
        <time>2020-12-20T08:37:08.310000+00:00</time>
      </trkpt>
      <trkpt lat="0" lon="0">
        <time>2020-12-20T08:37:08.314000+00:00</time>
      </trkpt>
      <trkpt lat="0" lon="0">
        <time>2020-12-20T08:37:08.318000+00:00</time>
      </trkpt>
      <trkpt lat="47.3187" lon="-1.30747">
        <ele>91</ele>
        <time>2020-12-20T08:37:09.310000+00:00</time>
      </trkpt>
      <trkpt lat="0" lon="0">
        <time>2020-12-20T08:37:09.317000+00:00</time>
      </trkpt>
      <trkpt lat="0" lon="0">
        <time>2020-12-20T08:37:09.320000+00:00</time>
      </trkpt>
      <trkpt lat="0" lon="0">
        <time>2020-12-20T08:37:09.321000+00:00</time>
      </trkpt>
      <trkpt lat="47.31868" lon="-1.30747">
        <ele>92</ele>
        <time>2020-12-20T08:37:10.298000+00:00</time>
      </trkpt>
      <trkpt lat="0" lon="0">
        <time>2020-12-20T08:37:10.306000+00:00</time>
      </trkpt>
      <trkpt lat="0" lon="0">
        <time>2020-12-20T08:37:10.314000+00:00</time>
      </trkpt>
      <trkpt lat="0" lon="0">
        <time>2020-12-20T08:37:10.321000+00:00</time>
      </trkpt>
      <trkpt lat="47.31866" lon="-1.30746">
        <ele>92</ele>
        <time>2020-12-20T08:37:11.314000+00:00</time>
      </trkpt>
      <trkpt lat="0" lon="0">
        <time>2020-12-20T08:37:11.330000+00:00</time>
      </trkpt>
      <trkpt lat="0" lon="0">
        <time>2020-12-20T08:37:11.336000+00:00</time>
      </trkpt>
      <trkpt lat="0" lon="0">
        <time>2020-12-20T08:37:11.338000+00:00</time>
      </trkpt>
      <trkpt lat="47.31864" lon="-1.30746">
        <ele>92</ele>
        <time>2020-12-20T08:37:12.322000+00:00</time>
      </trkpt>
      <trkpt lat="0" lon="0">
        <time>2020-12-20T08:37:12.335000+00:00</time>
      </trkpt>
      <trkpt lat="0" lon="0">
        <time>2020-12-20T08:37:12.347000+00:00</time>
      </trkpt>
      <trkpt lat="0" lon="0">
        <time>2020-12-20T08:37:12.354000+00:00</time>
      </trkpt>
      <trkpt lat="47.31862" lon="-1.30745">
        <ele>93</ele>
        <time>2020-12-20T08:37:13.324000+00:00</time>
      </trkpt>
      <trkpt lat="0" lon="0">
        <time>2020-12-20T08:37:13.344000+00:00</time>
      </trkpt>
      <trkpt lat="0" lon="0">
        <time>2020-12-20T08:37:13.349000+00:00</time>
      </trkpt>
      <trkpt lat="0" lon="0">
        <time>2020-12-20T08:37:13.350000+00:00</time>
      </trkpt>
      <trkpt lat="47.3186" lon="-1.30745">
        <ele>93</ele>
        <time>2020-12-20T08:37:14.326000+00:00</time>
      </trkpt>
      <trkpt lat="0" lon="0">
        <time>2020-12-20T08:37:14.335000+00:00</time>
      </trkpt>
      <trkpt lat="0" lon="0">
        <time>2020-12-20T08:37:14.339000+00:00</time>
      </trkpt>
      <trkpt lat="0" lon="0">
        <time>2020-12-20T08:37:14.342000+00:00</time>
      </trkpt>
      <trkpt lat="47.31857" lon="-1.30744">
        <ele>93</ele>
        <time>2020-12-20T08:37:15.332000+00:00</time>
      </trkpt>
      <trkpt lat="0" lon="0">
        <time>2020-12-20T08:37:15.340000+00:00</time>
      </trkpt>
      <trkpt lat="0" lon="0">
        <time>2020-12-20T08:37:15.342000+00:00</time>
      </trkpt>
      <trkpt lat="0" lon="0">
        <time>2020-12-20T08:37:15.344000+00:00</time>
      </trkpt>
      <trkpt lat="47.31855" lon="-1.30744">
        <ele>93</ele>
        <time>2020-12-20T08:37:16.343000+00:00</time>
      </trkpt>
      <trkpt lat="0" lon="0">
        <time>2020-12-20T08:37:16.353000+00:00</time>
      </trkpt>
      <trkpt lat="0" lon="0">
        <time>2020-12-20T08:37:16.363000+00:00</time>
      </trkpt>
      <trkpt lat="0" lon="0">
        <time>2020-12-20T08:37:16.366000+00:00</time>
      </trkpt>
      <trkpt lat="47.31853" lon="-1.30743">
        <ele>93</ele>
        <time>2020-12-20T08:37:17.337000+00:00</time>
      </trkpt>
      <trkpt lat="0" lon="0">
        <time>2020-12-20T08:37:17.346000+00:00</time>
      </trkpt>
      <trkpt lat="0" lon="0">
        <time>2020-12-20T08:37:17.350000+00:00</time>
      </trkpt>
      <trkpt lat="0" lon="0">
        <time>2020-12-20T08:37:17.353000+00:00</time>
      </trkpt>
      <trkpt lat="47.31851" lon="-1.30742">
        <ele>93</ele>
        <time>2020-12-20T08:37:18.322000+00:00</time>
      </trkpt>
      <trkpt lat="0" lon="0">
        <time>2020-12-20T08:37:18.342000+00:00</time>
      </trkpt>
      <trkpt lat="0" lon="0">
        <time>2020-12-20T08:37:18.350000+00:00</time>
      </trkpt>
      <trkpt lat="0" lon="0">
        <time>2020-12-20T08:37:18.354000+00:00</time>
      </trkpt>
      <trkpt lat="47.31848" lon="-1.30742">
        <ele>94</ele>
        <time>2020-12-20T08:37:19.313000+00:00</time>
      </trkpt>
      <trkpt lat="0" lon="0">
        <time>2020-12-20T08:37:19.320000+00:00</time>
      </trkpt>
      <trkpt lat="0" lon="0">
        <time>2020-12-20T08:37:19.324000+00:00</time>
      </trkpt>
      <trkpt lat="0" lon="0">
        <time>2020-12-20T08:37:19.327000+00:00</time>
      </trkpt>
      <trkpt lat="47.31846" lon="-1.30741">
        <ele>94</ele>
        <time>2020-12-20T08:37:20.301000+00:00</time>
      </trkpt>
      <trkpt lat="0" lon="0">
        <time>2020-12-20T08:37:20.308000+00:00</time>
      </trkpt>
      <trkpt lat="0" lon="0">
        <time>2020-12-20T08:37:20.312000+00:00</time>
      </trkpt>
      <trkpt lat="0" lon="0">
        <time>2020-12-20T08:37:20.314000+00:00</time>
      </trkpt>
      <trkpt lat="47.31844" lon="-1.3074">
        <ele>94</ele>
        <time>2020-12-20T08:37:21.300000+00:00</time>
      </trkpt>
      <trkpt lat="0" lon="0">
        <time>2020-12-20T08:37:21.307000+00:00</time>
      </trkpt>
      <trkpt lat="0" lon="0">
        <time>2020-12-20T08:37:21.309000+00:00</time>
      </trkpt>
      <trkpt lat="0" lon="0">
        <time>2020-12-20T08:37:21.310000+00:00</time>
      </trkpt>
      <trkpt lat="47.31842" lon="-1.30739">
        <ele>95</ele>
        <time>2020-12-20T08:37:22.334000+00:00</time>
      </trkpt>
      <trkpt lat="0" lon="0">
        <time>2020-12-20T08:37:22.345000+00:00</time>
      </trkpt>
      <trkpt lat="0" lon="0">
        <time>2020-12-20T08:37:22.351000+00:00</time>
      </trkpt>
      <trkpt lat="0" lon="0">
        <time>2020-12-20T08:37:22.354000+00:00</time>
      </trkpt>
      <trkpt lat="47.31839" lon="-1.30738">
        <ele>95</ele>
        <time>2020-12-20T08:37:23.273000+00:00</time>
      </trkpt>
      <trkpt lat="0" lon="0">
        <time>2020-12-20T08:37:23.282000+00:00</time>
      </trkpt>
      <trkpt lat="0" lon="0">
        <time>2020-12-20T08:37:23.289000+00:00</time>
      </trkpt>
      <trkpt lat="0" lon="0">
        <time>2020-12-20T08:37:23.292000+00:00</time>
      </trkpt>
      <trkpt lat="47.31837" lon="-1.30738">
        <ele>95</ele>
        <time>2020-12-20T08:37:24.325000+00:00</time>
      </trkpt>
      <trkpt lat="0" lon="0">
        <time>2020-12-20T08:37:24.336000+00:00</time>
      </trkpt>
      <trkpt lat="0" lon="0">
        <time>2020-12-20T08:37:24.342000+00:00</time>
      </trkpt>
      <trkpt lat="0" lon="0">
        <time>2020-12-20T08:37:24.344000+00:00</time>
      </trkpt>
      <trkpt lat="47.31834" lon="-1.30737">
        <ele>95</ele>
        <time>2020-12-20T08:37:25.326000+00:00</time>
      </trkpt>
      <trkpt lat="0" lon="0">
        <time>2020-12-20T08:37:25.343000+00:00</time>
      </trkpt>
      <trkpt lat="0" lon="0">
        <time>2020-12-20T08:37:25.350000+00:00</time>
      </trkpt>
      <trkpt lat="0" lon="0">
        <time>2020-12-20T08:37:25.354000+00:00</time>
      </trkpt>
      <trkpt lat="47.31832" lon="-1.30736">
        <ele>95</ele>
        <time>2020-12-20T08:37:26.326000+00:00</time>
      </trkpt>
      <trkpt lat="0" lon="0">
        <time>2020-12-20T08:37:26.340000+00:00</time>
      </trkpt>
      <trkpt lat="0" lon="0">
        <time>2020-12-20T08:37:26.348000+00:00</time>
      </trkpt>
      <trkpt lat="0" lon="0">
        <time>2020-12-20T08:37:26.351000+00:00</time>
      </trkpt>
      <trkpt lat="47.3183" lon="-1.30735">
        <ele>96</ele>
        <time>2020-12-20T08:37:27.307000+00:00</time>
      </trkpt>
      <trkpt lat="0" lon="0">
        <time>2020-12-20T08:37:27.309000+00:00</time>
      </trkpt>
      <trkpt lat="0" lon="0">
        <time>2020-12-20T08:37:27.311000+00:00</time>
      </trkpt>
      <trkpt lat="0" lon="0">
        <time>2020-12-20T08:37:27.313000+00:00</time>
      </trkpt>
      <trkpt lat="47.31827" lon="-1.30735">
        <ele>96</ele>
        <time>2020-12-20T08:37:28.301000+00:00</time>
      </trkpt>
      <trkpt lat="0" lon="0">
        <time>2020-12-20T08:37:28.311000+00:00</time>
      </trkpt>
      <trkpt lat="0" lon="0">
        <time>2020-12-20T08:37:28.315000+00:00</time>
      </trkpt>
      <trkpt lat="0" lon="0">
        <time>2020-12-20T08:37:28.317000+00:00</time>
      </trkpt>
      <trkpt lat="47.31825" lon="-1.30734">
        <ele>97</ele>
        <time>2020-12-20T08:37:29.294000+00:00</time>
      </trkpt>
      <trkpt lat="0" lon="0">
        <time>2020-12-20T08:37:29.303000+00:00</time>
      </trkpt>
      <trkpt lat="0" lon="0">
        <time>2020-12-20T08:37:29.308000+00:00</time>
      </trkpt>
      <trkpt lat="0" lon="0">
        <time>2020-12-20T08:37:29.311000+00:00</time>
      </trkpt>
      <trkpt lat="47.31823" lon="-1.30733">
        <ele>97</ele>
        <time>2020-12-20T08:37:30.323000+00:00</time>
      </trkpt>
      <trkpt lat="0" lon="0">
        <time>2020-12-20T08:37:30.334000+00:00</time>
      </trkpt>
      <trkpt lat="0" lon="0">
        <time>2020-12-20T08:37:30.343000+00:00</time>
      </trkpt>
      <trkpt lat="0" lon="0">
        <time>2020-12-20T08:37:30.345000+00:00</time>
      </trkpt>
      <trkpt lat="47.3182" lon="-1.30732">
        <ele>98</ele>
        <time>2020-12-20T08:37:31.341000+00:00</time>
      </trkpt>
      <trkpt lat="0" lon="0">
        <time>2020-12-20T08:37:31.347000+00:00</time>
      </trkpt>
      <trkpt lat="0" lon="0">
        <time>2020-12-20T08:37:31.352000+00:00</time>
      </trkpt>
      <trkpt lat="0" lon="0">
        <time>2020-12-20T08:37:31.354000+00:00</time>
      </trkpt>
      <trkpt lat="47.31818" lon="-1.30731">
        <ele>98</ele>
        <time>2020-12-20T08:37:32.321000+00:00</time>
      </trkpt>
      <trkpt lat="0" lon="0">
        <time>2020-12-20T08:37:32.328000+00:00</time>
      </trkpt>
      <trkpt lat="0" lon="0">
        <time>2020-12-20T08:37:32.335000+00:00</time>
      </trkpt>
      <trkpt lat="0" lon="0">
        <time>2020-12-20T08:37:32.338000+00:00</time>
      </trkpt>
      <trkpt lat="47.31816" lon="-1.3073">
        <ele>98</ele>
        <time>2020-12-20T08:37:33.343000+00:00</time>
      </trkpt>
      <trkpt lat="0" lon="0">
        <time>2020-12-20T08:37:33.349000+00:00</time>
      </trkpt>
      <trkpt lat="0" lon="0">
        <time>2020-12-20T08:37:33.354000+00:00</time>
      </trkpt>
      <trkpt lat="0" lon="0">
        <time>2020-12-20T08:37:33.358000+00:00</time>
      </trkpt>
      <trkpt lat="47.31813" lon="-1.30729">
        <ele>98</ele>
        <time>2020-12-20T08:37:34.305000+00:00</time>
      </trkpt>
      <trkpt lat="0" lon="0">
        <time>2020-12-20T08:37:34.313000+00:00</time>
      </trkpt>
      <trkpt lat="0" lon="0">
        <time>2020-12-20T08:37:34.320000+00:00</time>
      </trkpt>
      <trkpt lat="0" lon="0">
        <time>2020-12-20T08:37:34.322000+00:00</time>
      </trkpt>
      <trkpt lat="47.31811" lon="-1.30728">
        <ele>98</ele>
        <time>2020-12-20T08:37:35.319000+00:00</time>
      </trkpt>
      <trkpt lat="0" lon="0">
        <time>2020-12-20T08:37:35.335000+00:00</time>
      </trkpt>
      <trkpt lat="0" lon="0">
        <time>2020-12-20T08:37:35.339000+00:00</time>
      </trkpt>
      <trkpt lat="0" lon="0">
        <time>2020-12-20T08:37:35.344000+00:00</time>
      </trkpt>
      <trkpt lat="47.31809" lon="-1.30728">
        <ele>98</ele>
        <time>2020-12-20T08:37:36.332000+00:00</time>
      </trkpt>
      <trkpt lat="0" lon="0">
        <time>2020-12-20T08:37:36.339000+00:00</time>
      </trkpt>
      <trkpt lat="0" lon="0">
        <time>2020-12-20T08:37:36.346000+00:00</time>
      </trkpt>
      <trkpt lat="0" lon="0">
        <time>2020-12-20T08:37:36.350000+00:00</time>
      </trkpt>
      <trkpt lat="47.31807" lon="-1.30727">
        <ele>98</ele>
        <time>2020-12-20T08:37:37.314000+00:00</time>
      </trkpt>
      <trkpt lat="0" lon="0">
        <time>2020-12-20T08:37:37.331000+00:00</time>
      </trkpt>
      <trkpt lat="0" lon="0">
        <time>2020-12-20T08:37:37.335000+00:00</time>
      </trkpt>
      <trkpt lat="0" lon="0">
        <time>2020-12-20T08:37:37.338000+00:00</time>
      </trkpt>
      <trkpt lat="47.31805" lon="-1.30726">
        <ele>99</ele>
        <time>2020-12-20T08:37:38.303000+00:00</time>
      </trkpt>
      <trkpt lat="0" lon="0">
        <time>2020-12-20T08:37:38.313000+00:00</time>
      </trkpt>
      <trkpt lat="0" lon="0">
        <time>2020-12-20T08:37:38.318000+00:00</time>
      </trkpt>
      <trkpt lat="0" lon="0">
        <time>2020-12-20T08:37:38.321000+00:00</time>
      </trkpt>
      <trkpt lat="47.31802" lon="-1.30725">
        <ele>99</ele>
        <time>2020-12-20T08:37:39.292000+00:00</time>
      </trkpt>
      <trkpt lat="0" lon="0">
        <time>2020-12-20T08:37:39.302000+00:00</time>
      </trkpt>
      <trkpt lat="0" lon="0">
        <time>2020-12-20T08:37:39.305000+00:00</time>
      </trkpt>
      <trkpt lat="0" lon="0">
        <time>2020-12-20T08:37:39.308000+00:00</time>
      </trkpt>
      <trkpt lat="47.318" lon="-1.30725">
        <ele>99</ele>
        <time>2020-12-20T08:37:40.295000+00:00</time>
      </trkpt>
      <trkpt lat="0" lon="0">
        <time>2020-12-20T08:37:40.303000+00:00</time>
      </trkpt>
      <trkpt lat="0" lon="0">
        <time>2020-12-20T08:37:40.317000+00:00</time>
      </trkpt>
      <trkpt lat="0" lon="0">
        <time>2020-12-20T08:37:40.322000+00:00</time>
      </trkpt>
      <trkpt lat="47.31797" lon="-1.30724">
        <ele>99</ele>
        <time>2020-12-20T08:37:41.307000+00:00</time>
      </trkpt>
      <trkpt lat="0" lon="0">
        <time>2020-12-20T08:37:41.315000+00:00</time>
      </trkpt>
      <trkpt lat="0" lon="0">
        <time>2020-12-20T08:37:41.333000+00:00</time>
      </trkpt>
      <trkpt lat="0" lon="0">
        <time>2020-12-20T08:37:41.335000+00:00</time>
      </trkpt>
      <trkpt lat="47.31795" lon="-1.30723">
        <ele>99</ele>
        <time>2020-12-20T08:37:42.305000+00:00</time>
      </trkpt>
      <trkpt lat="0" lon="0">
        <time>2020-12-20T08:37:42.328000+00:00</time>
      </trkpt>
      <trkpt lat="0" lon="0">
        <time>2020-12-20T08:37:42.332000+00:00</time>
      </trkpt>
      <trkpt lat="0" lon="0">
        <time>2020-12-20T08:37:42.335000+00:00</time>
      </trkpt>
      <trkpt lat="47.31792" lon="-1.30723">
        <ele>99</ele>
        <time>2020-12-20T08:37:43.309000+00:00</time>
      </trkpt>
      <trkpt lat="0" lon="0">
        <time>2020-12-20T08:37:43.328000+00:00</time>
      </trkpt>
      <trkpt lat="0" lon="0">
        <time>2020-12-20T08:37:43.332000+00:00</time>
      </trkpt>
      <trkpt lat="0" lon="0">
        <time>2020-12-20T08:37:43.335000+00:00</time>
      </trkpt>
      <trkpt lat="47.3179" lon="-1.30722">
        <ele>99</ele>
        <time>2020-12-20T08:37:44.334000+00:00</time>
      </trkpt>
      <trkpt lat="0" lon="0">
        <time>2020-12-20T08:37:44.340000+00:00</time>
      </trkpt>
      <trkpt lat="0" lon="0">
        <time>2020-12-20T08:37:44.346000+00:00</time>
      </trkpt>
      <trkpt lat="0" lon="0">
        <time>2020-12-20T08:37:44.351000+00:00</time>
      </trkpt>
      <trkpt lat="47.31787" lon="-1.30721">
        <ele>99</ele>
        <time>2020-12-20T08:37:45.308000+00:00</time>
      </trkpt>
      <trkpt lat="0" lon="0">
        <time>2020-12-20T08:37:45.315000+00:00</time>
      </trkpt>
      <trkpt lat="0" lon="0">
        <time>2020-12-20T08:37:45.317000+00:00</time>
      </trkpt>
      <trkpt lat="0" lon="0">
        <time>2020-12-20T08:37:45.318000+00:00</time>
      </trkpt>
      <trkpt lat="47.31785" lon="-1.30721">
        <ele>98</ele>
        <time>2020-12-20T08:37:46.301000+00:00</time>
      </trkpt>
      <trkpt lat="0" lon="0">
        <time>2020-12-20T08:37:46.309000+00:00</time>
      </trkpt>
      <trkpt lat="0" lon="0">
        <time>2020-12-20T08:37:46.316000+00:00</time>
      </trkpt>
      <trkpt lat="0" lon="0">
        <time>2020-12-20T08:37:46.322000+00:00</time>
      </trkpt>
      <trkpt lat="47.31782" lon="-1.3072">
        <ele>98</ele>
        <time>2020-12-20T08:37:47.307000+00:00</time>
      </trkpt>
      <trkpt lat="0" lon="0">
        <time>2020-12-20T08:37:47.316000+00:00</time>
      </trkpt>
      <trkpt lat="0" lon="0">
        <time>2020-12-20T08:37:47.321000+00:00</time>
      </trkpt>
      <trkpt lat="0" lon="0">
        <time>2020-12-20T08:37:47.324000+00:00</time>
      </trkpt>
      <trkpt lat="47.3178" lon="-1.30719">
        <ele>99</ele>
        <time>2020-12-20T08:37:48.317000+00:00</time>
      </trkpt>
      <trkpt lat="0" lon="0">
        <time>2020-12-20T08:37:48.329000+00:00</time>
      </trkpt>
      <trkpt lat="0" lon="0">
        <time>2020-12-20T08:37:48.336000+00:00</time>
      </trkpt>
      <trkpt lat="0" lon="0">
        <time>2020-12-20T08:37:48.339000+00:00</time>
      </trkpt>
      <trkpt lat="47.31777" lon="-1.30718">
        <ele>98</ele>
        <time>2020-12-20T08:37:49.312000+00:00</time>
      </trkpt>
      <trkpt lat="0" lon="0">
        <time>2020-12-20T08:37:49.322000+00:00</time>
      </trkpt>
      <trkpt lat="0" lon="0">
        <time>2020-12-20T08:37:49.330000+00:00</time>
      </trkpt>
      <trkpt lat="0" lon="0">
        <time>2020-12-20T08:37:49.334000+00:00</time>
      </trkpt>
      <trkpt lat="47.31774" lon="-1.30717">
        <ele>99</ele>
        <time>2020-12-20T08:37:50.314000+00:00</time>
      </trkpt>
      <trkpt lat="0" lon="0">
        <time>2020-12-20T08:37:50.323000+00:00</time>
      </trkpt>
      <trkpt lat="0" lon="0">
        <time>2020-12-20T08:37:50.328000+00:00</time>
      </trkpt>
      <trkpt lat="0" lon="0">
        <time>2020-12-20T08:37:50.330000+00:00</time>
      </trkpt>
      <trkpt lat="47.31772" lon="-1.30717">
        <ele>99</ele>
        <time>2020-12-20T08:37:51.333000+00:00</time>
      </trkpt>
      <trkpt lat="0" lon="0">
        <time>2020-12-20T08:37:51.346000+00:00</time>
      </trkpt>
      <trkpt lat="0" lon="0">
        <time>2020-12-20T08:37:51.356000+00:00</time>
      </trkpt>
      <trkpt lat="0" lon="0">
        <time>2020-12-20T08:37:51.358000+00:00</time>
      </trkpt>
      <trkpt lat="47.31769" lon="-1.30716">
        <ele>99</ele>
        <time>2020-12-20T08:37:52.322000+00:00</time>
      </trkpt>
      <trkpt lat="0" lon="0">
        <time>2020-12-20T08:37:52.329000+00:00</time>
      </trkpt>
      <trkpt lat="0" lon="0">
        <time>2020-12-20T08:37:52.333000+00:00</time>
      </trkpt>
      <trkpt lat="0" lon="0">
        <time>2020-12-20T08:37:52.336000+00:00</time>
      </trkpt>
      <trkpt lat="47.31766" lon="-1.30715">
        <ele>99</ele>
        <time>2020-12-20T08:37:53.319000+00:00</time>
      </trkpt>
      <trkpt lat="0" lon="0">
        <time>2020-12-20T08:37:53.330000+00:00</time>
      </trkpt>
      <trkpt lat="0" lon="0">
        <time>2020-12-20T08:37:53.334000+00:00</time>
      </trkpt>
      <trkpt lat="0" lon="0">
        <time>2020-12-20T08:37:53.339000+00:00</time>
      </trkpt>
      <trkpt lat="47.31764" lon="-1.30715">
        <ele>99</ele>
        <time>2020-12-20T08:37:54.313000+00:00</time>
      </trkpt>
      <trkpt lat="0" lon="0">
        <time>2020-12-20T08:37:54.340000+00:00</time>
      </trkpt>
      <trkpt lat="0" lon="0">
        <time>2020-12-20T08:37:54.347000+00:00</time>
      </trkpt>
      <trkpt lat="0" lon="0">
        <time>2020-12-20T08:37:54.350000+00:00</time>
      </trkpt>
      <trkpt lat="47.31761" lon="-1.30714">
        <ele>99</ele>
        <time>2020-12-20T08:37:55.357000+00:00</time>
      </trkpt>
      <trkpt lat="0" lon="0">
        <time>2020-12-20T08:37:55.377000+00:00</time>
      </trkpt>
      <trkpt lat="0" lon="0">
        <time>2020-12-20T08:37:55.381000+00:00</time>
      </trkpt>
      <trkpt lat="0" lon="0">
        <time>2020-12-20T08:37:55.383000+00:00</time>
      </trkpt>
      <trkpt lat="47.31758" lon="-1.30713">
        <ele>99</ele>
        <time>2020-12-20T08:37:56.290000+00:00</time>
      </trkpt>
      <trkpt lat="0" lon="0">
        <time>2020-12-20T08:37:56.299000+00:00</time>
      </trkpt>
      <trkpt lat="0" lon="0">
        <time>2020-12-20T08:37:56.304000+00:00</time>
      </trkpt>
      <trkpt lat="0" lon="0">
        <time>2020-12-20T08:37:56.306000+00:00</time>
      </trkpt>
      <trkpt lat="47.31756" lon="-1.30713">
        <ele>99</ele>
        <time>2020-12-20T08:37:57.282000+00:00</time>
      </trkpt>
      <trkpt lat="0" lon="0">
        <time>2020-12-20T08:37:57.288000+00:00</time>
      </trkpt>
      <trkpt lat="0" lon="0">
        <time>2020-12-20T08:37:57.298000+00:00</time>
      </trkpt>
      <trkpt lat="0" lon="0">
        <time>2020-12-20T08:37:57.301000+00:00</time>
      </trkpt>
      <trkpt lat="47.31753" lon="-1.30712">
        <ele>99</ele>
        <time>2020-12-20T08:37:58.308000+00:00</time>
      </trkpt>
      <trkpt lat="0" lon="0">
        <time>2020-12-20T08:37:58.325000+00:00</time>
      </trkpt>
      <trkpt lat="0" lon="0">
        <time>2020-12-20T08:37:58.329000+00:00</time>
      </trkpt>
      <trkpt lat="0" lon="0">
        <time>2020-12-20T08:37:58.332000+00:00</time>
      </trkpt>
      <trkpt lat="47.3175" lon="-1.30711">
        <ele>99</ele>
        <time>2020-12-20T08:37:59.300000+00:00</time>
      </trkpt>
      <trkpt lat="0" lon="0">
        <time>2020-12-20T08:37:59.308000+00:00</time>
      </trkpt>
      <trkpt lat="0" lon="0">
        <time>2020-12-20T08:37:59.313000+00:00</time>
      </trkpt>
      <trkpt lat="0" lon="0">
        <time>2020-12-20T08:37:59.317000+00:00</time>
      </trkpt>
      <trkpt lat="47.31747" lon="-1.3071">
        <ele>99</ele>
        <time>2020-12-20T08:38:00.287000+00:00</time>
      </trkpt>
      <trkpt lat="0" lon="0">
        <time>2020-12-20T08:38:00.295000+00:00</time>
      </trkpt>
      <trkpt lat="0" lon="0">
        <time>2020-12-20T08:38:00.302000+00:00</time>
      </trkpt>
      <trkpt lat="0" lon="0">
        <time>2020-12-20T08:38:00.304000+00:00</time>
      </trkpt>
      <trkpt lat="47.31745" lon="-1.30709">
        <ele>100</ele>
        <time>2020-12-20T08:38:01.307000+00:00</time>
      </trkpt>
      <trkpt lat="0" lon="0">
        <time>2020-12-20T08:38:01.330000+00:00</time>
      </trkpt>
      <trkpt lat="0" lon="0">
        <time>2020-12-20T08:38:01.334000+00:00</time>
      </trkpt>
      <trkpt lat="0" lon="0">
        <time>2020-12-20T08:38:01.339000+00:00</time>
      </trkpt>
      <trkpt lat="47.31742" lon="-1.30709">
        <ele>100</ele>
        <time>2020-12-20T08:38:02.292000+00:00</time>
      </trkpt>
      <trkpt lat="0" lon="0">
        <time>2020-12-20T08:38:02.298000+00:00</time>
      </trkpt>
      <trkpt lat="0" lon="0">
        <time>2020-12-20T08:38:02.299000+00:00</time>
      </trkpt>
      <trkpt lat="47.31739" lon="-1.30708">
        <ele>100</ele>
        <time>2020-12-20T08:38:03.311000+00:00</time>
      </trkpt>
      <trkpt lat="0" lon="0">
        <time>2020-12-20T08:38:03.320000+00:00</time>
      </trkpt>
      <trkpt lat="0" lon="0">
        <time>2020-12-20T08:38:03.329000+00:00</time>
      </trkpt>
      <trkpt lat="0" lon="0">
        <time>2020-12-20T08:38:03.333000+00:00</time>
      </trkpt>
      <trkpt lat="47.31737" lon="-1.30707">
        <ele>100</ele>
        <time>2020-12-20T08:38:04.341000+00:00</time>
      </trkpt>
      <trkpt lat="0" lon="0">
        <time>2020-12-20T08:38:04.349000+00:00</time>
      </trkpt>
      <trkpt lat="0" lon="0">
        <time>2020-12-20T08:38:04.353000+00:00</time>
      </trkpt>
      <trkpt lat="0" lon="0">
        <time>2020-12-20T08:38:04.356000+00:00</time>
      </trkpt>
      <trkpt lat="47.31734" lon="-1.30706">
        <ele>101</ele>
        <time>2020-12-20T08:38:05.317000+00:00</time>
      </trkpt>
      <trkpt lat="0" lon="0">
        <time>2020-12-20T08:38:05.323000+00:00</time>
      </trkpt>
      <trkpt lat="0" lon="0">
        <time>2020-12-20T08:38:05.328000+00:00</time>
      </trkpt>
      <trkpt lat="0" lon="0">
        <time>2020-12-20T08:38:05.332000+00:00</time>
      </trkpt>
      <trkpt lat="47.31732" lon="-1.30705">
        <ele>101</ele>
        <time>2020-12-20T08:38:06.336000+00:00</time>
      </trkpt>
      <trkpt lat="0" lon="0">
        <time>2020-12-20T08:38:06.342000+00:00</time>
      </trkpt>
      <trkpt lat="0" lon="0">
        <time>2020-12-20T08:38:06.356000+00:00</time>
      </trkpt>
      <trkpt lat="0" lon="0">
        <time>2020-12-20T08:38:06.358000+00:00</time>
      </trkpt>
      <trkpt lat="47.31729" lon="-1.30705">
        <ele>101</ele>
        <time>2020-12-20T08:38:07.254000+00:00</time>
      </trkpt>
      <trkpt lat="0" lon="0">
        <time>2020-12-20T08:38:07.256000+00:00</time>
      </trkpt>
      <trkpt lat="0" lon="0">
        <time>2020-12-20T08:38:07.257000+00:00</time>
      </trkpt>
      <trkpt lat="47.31726" lon="-1.30704">
        <ele>101</ele>
        <time>2020-12-20T08:38:08.264000+00:00</time>
      </trkpt>
      <trkpt lat="0" lon="0">
        <time>2020-12-20T08:38:08.266000+00:00</time>
      </trkpt>
      <trkpt lat="0" lon="0">
        <time>2020-12-20T08:38:08.278000+00:00</time>
      </trkpt>
      <trkpt lat="0" lon="0">
        <time>2020-12-20T08:38:08.281000+00:00</time>
      </trkpt>
      <trkpt lat="47.31724" lon="-1.30703">
        <ele>100</ele>
        <time>2020-12-20T08:38:09.308000+00:00</time>
      </trkpt>
      <trkpt lat="0" lon="0">
        <time>2020-12-20T08:38:09.310000+00:00</time>
      </trkpt>
      <trkpt lat="0" lon="0">
        <time>2020-12-20T08:38:09.312000+00:00</time>
      </trkpt>
      <trkpt lat="0" lon="0">
        <time>2020-12-20T08:38:09.313000+00:00</time>
      </trkpt>
      <trkpt lat="47.31721" lon="-1.30703">
        <ele>101</ele>
        <time>2020-12-20T08:38:10.313000+00:00</time>
      </trkpt>
      <trkpt lat="0" lon="0">
        <time>2020-12-20T08:38:10.324000+00:00</time>
      </trkpt>
      <trkpt lat="0" lon="0">
        <time>2020-12-20T08:38:10.329000+00:00</time>
      </trkpt>
      <trkpt lat="0" lon="0">
        <time>2020-12-20T08:38:10.331000+00:00</time>
      </trkpt>
      <trkpt lat="47.31719" lon="-1.30702">
        <ele>101</ele>
        <time>2020-12-20T08:38:11.298000+00:00</time>
      </trkpt>
      <trkpt lat="0" lon="0">
        <time>2020-12-20T08:38:11.307000+00:00</time>
      </trkpt>
      <trkpt lat="0" lon="0">
        <time>2020-12-20T08:38:11.316000+00:00</time>
      </trkpt>
      <trkpt lat="0" lon="0">
        <time>2020-12-20T08:38:11.322000+00:00</time>
      </trkpt>
      <trkpt lat="47.31716" lon="-1.30701">
        <ele>101</ele>
        <time>2020-12-20T08:38:12.304000+00:00</time>
      </trkpt>
      <trkpt lat="0" lon="0">
        <time>2020-12-20T08:38:12.315000+00:00</time>
      </trkpt>
      <trkpt lat="0" lon="0">
        <time>2020-12-20T08:38:12.324000+00:00</time>
      </trkpt>
      <trkpt lat="0" lon="0">
        <time>2020-12-20T08:38:12.333000+00:00</time>
      </trkpt>
      <trkpt lat="47.31713" lon="-1.30701">
        <ele>101</ele>
        <time>2020-12-20T08:38:13.306000+00:00</time>
      </trkpt>
      <trkpt lat="0" lon="0">
        <time>2020-12-20T08:38:13.312000+00:00</time>
      </trkpt>
      <trkpt lat="0" lon="0">
        <time>2020-12-20T08:38:13.317000+00:00</time>
      </trkpt>
      <trkpt lat="0" lon="0">
        <time>2020-12-20T08:38:13.319000+00:00</time>
      </trkpt>
      <trkpt lat="47.31711" lon="-1.307">
        <ele>102</ele>
        <time>2020-12-20T08:38:14.275000+00:00</time>
      </trkpt>
      <trkpt lat="0" lon="0">
        <time>2020-12-20T08:38:14.280000+00:00</time>
      </trkpt>
      <trkpt lat="0" lon="0">
        <time>2020-12-20T08:38:14.290000+00:00</time>
      </trkpt>
      <trkpt lat="0" lon="0">
        <time>2020-12-20T08:38:14.292000+00:00</time>
      </trkpt>
      <trkpt lat="47.31708" lon="-1.30699">
        <ele>102</ele>
        <time>2020-12-20T08:38:15.304000+00:00</time>
      </trkpt>
      <trkpt lat="0" lon="0">
        <time>2020-12-20T08:38:15.311000+00:00</time>
      </trkpt>
      <trkpt lat="0" lon="0">
        <time>2020-12-20T08:38:15.313000+00:00</time>
      </trkpt>
      <trkpt lat="0" lon="0">
        <time>2020-12-20T08:38:15.314000+00:00</time>
      </trkpt>
      <trkpt lat="47.31705" lon="-1.30698">
        <ele>102</ele>
        <time>2020-12-20T08:38:16.299000+00:00</time>
      </trkpt>
      <trkpt lat="0" lon="0">
        <time>2020-12-20T08:38:16.312000+00:00</time>
      </trkpt>
      <trkpt lat="0" lon="0">
        <time>2020-12-20T08:38:16.318000+00:00</time>
      </trkpt>
      <trkpt lat="0" lon="0">
        <time>2020-12-20T08:38:16.321000+00:00</time>
      </trkpt>
      <trkpt lat="47.31702" lon="-1.30698">
        <ele>102</ele>
        <time>2020-12-20T08:38:17.314000+00:00</time>
      </trkpt>
      <trkpt lat="0" lon="0">
        <time>2020-12-20T08:38:17.344000+00:00</time>
      </trkpt>
      <trkpt lat="0" lon="0">
        <time>2020-12-20T08:38:17.350000+00:00</time>
      </trkpt>
      <trkpt lat="0" lon="0">
        <time>2020-12-20T08:38:17.357000+00:00</time>
      </trkpt>
      <trkpt lat="47.317" lon="-1.30697">
        <ele>102</ele>
        <time>2020-12-20T08:38:18.312000+00:00</time>
      </trkpt>
      <trkpt lat="0" lon="0">
        <time>2020-12-20T08:38:18.325000+00:00</time>
      </trkpt>
      <trkpt lat="0" lon="0">
        <time>2020-12-20T08:38:18.331000+00:00</time>
      </trkpt>
      <trkpt lat="0" lon="0">
        <time>2020-12-20T08:38:18.334000+00:00</time>
      </trkpt>
      <trkpt lat="47.31697" lon="-1.30696">
        <ele>102</ele>
        <time>2020-12-20T08:38:19.313000+00:00</time>
      </trkpt>
      <trkpt lat="0" lon="0">
        <time>2020-12-20T08:38:19.323000+00:00</time>
      </trkpt>
      <trkpt lat="0" lon="0">
        <time>2020-12-20T08:38:19.326000+00:00</time>
      </trkpt>
      <trkpt lat="0" lon="0">
        <time>2020-12-20T08:38:19.329000+00:00</time>
      </trkpt>
      <trkpt lat="47.31694" lon="-1.30695">
        <ele>102</ele>
        <time>2020-12-20T08:38:20.332000+00:00</time>
      </trkpt>
      <trkpt lat="0" lon="0">
        <time>2020-12-20T08:38:20.339000+00:00</time>
      </trkpt>
      <trkpt lat="0" lon="0">
        <time>2020-12-20T08:38:20.347000+00:00</time>
      </trkpt>
      <trkpt lat="0" lon="0">
        <time>2020-12-20T08:38:20.349000+00:00</time>
      </trkpt>
      <trkpt lat="47.31691" lon="-1.30694">
        <ele>103</ele>
        <time>2020-12-20T08:38:21.295000+00:00</time>
      </trkpt>
      <trkpt lat="0" lon="0">
        <time>2020-12-20T08:38:21.299000+00:00</time>
      </trkpt>
      <trkpt lat="0" lon="0">
        <time>2020-12-20T08:38:21.301000+00:00</time>
      </trkpt>
      <trkpt lat="0" lon="0">
        <time>2020-12-20T08:38:21.302000+00:00</time>
      </trkpt>
      <trkpt lat="47.31689" lon="-1.30693">
        <ele>103</ele>
        <time>2020-12-20T08:38:22.305000+00:00</time>
      </trkpt>
      <trkpt lat="0" lon="0">
        <time>2020-12-20T08:38:22.311000+00:00</time>
      </trkpt>
      <trkpt lat="0" lon="0">
        <time>2020-12-20T08:38:22.318000+00:00</time>
      </trkpt>
      <trkpt lat="0" lon="0">
        <time>2020-12-20T08:38:22.329000+00:00</time>
      </trkpt>
      <trkpt lat="47.31686" lon="-1.30691">
        <ele>103</ele>
        <time>2020-12-20T08:38:23.339000+00:00</time>
      </trkpt>
      <trkpt lat="0" lon="0">
        <time>2020-12-20T08:38:23.349000+00:00</time>
      </trkpt>
      <trkpt lat="0" lon="0">
        <time>2020-12-20T08:38:23.357000+00:00</time>
      </trkpt>
      <trkpt lat="0" lon="0">
        <time>2020-12-20T08:38:23.359000+00:00</time>
      </trkpt>
      <trkpt lat="47.31683" lon="-1.3069">
        <ele>103</ele>
        <time>2020-12-20T08:38:24.307000+00:00</time>
      </trkpt>
      <trkpt lat="0" lon="0">
        <time>2020-12-20T08:38:24.317000+00:00</time>
      </trkpt>
      <trkpt lat="0" lon="0">
        <time>2020-12-20T08:38:24.321000+00:00</time>
      </trkpt>
      <trkpt lat="0" lon="0">
        <time>2020-12-20T08:38:24.324000+00:00</time>
      </trkpt>
      <trkpt lat="47.3168" lon="-1.30689">
        <ele>103</ele>
        <time>2020-12-20T08:38:25.296000+00:00</time>
      </trkpt>
      <trkpt lat="0" lon="0">
        <time>2020-12-20T08:38:25.314000+00:00</time>
      </trkpt>
      <trkpt lat="0" lon="0">
        <time>2020-12-20T08:38:25.319000+00:00</time>
      </trkpt>
      <trkpt lat="0" lon="0">
        <time>2020-12-20T08:38:25.321000+00:00</time>
      </trkpt>
      <trkpt lat="47.31678" lon="-1.30688">
        <ele>103</ele>
        <time>2020-12-20T08:38:26.354000+00:00</time>
      </trkpt>
      <trkpt lat="0" lon="0">
        <time>2020-12-20T08:38:26.374000+00:00</time>
      </trkpt>
      <trkpt lat="0" lon="0">
        <time>2020-12-20T08:38:26.382000+00:00</time>
      </trkpt>
      <trkpt lat="0" lon="0">
        <time>2020-12-20T08:38:26.386000+00:00</time>
      </trkpt>
      <trkpt lat="47.31675" lon="-1.30687">
        <ele>104</ele>
        <time>2020-12-20T08:38:27.303000+00:00</time>
      </trkpt>
      <trkpt lat="0" lon="0">
        <time>2020-12-20T08:38:27.324000+00:00</time>
      </trkpt>
      <trkpt lat="0" lon="0">
        <time>2020-12-20T08:38:27.326000+00:00</time>
      </trkpt>
      <trkpt lat="0" lon="0">
        <time>2020-12-20T08:38:27.327000+00:00</time>
      </trkpt>
      <trkpt lat="47.31673" lon="-1.30686">
        <ele>104</ele>
        <time>2020-12-20T08:38:28.330000+00:00</time>
      </trkpt>
      <trkpt lat="0" lon="0">
        <time>2020-12-20T08:38:28.343000+00:00</time>
      </trkpt>
      <trkpt lat="0" lon="0">
        <time>2020-12-20T08:38:28.349000+00:00</time>
      </trkpt>
      <trkpt lat="0" lon="0">
        <time>2020-12-20T08:38:28.353000+00:00</time>
      </trkpt>
      <trkpt lat="47.3167" lon="-1.30685">
        <ele>105</ele>
        <time>2020-12-20T08:38:29.318000+00:00</time>
      </trkpt>
      <trkpt lat="0" lon="0">
        <time>2020-12-20T08:38:29.328000+00:00</time>
      </trkpt>
      <trkpt lat="0" lon="0">
        <time>2020-12-20T08:38:29.333000+00:00</time>
      </trkpt>
      <trkpt lat="0" lon="0">
        <time>2020-12-20T08:38:29.335000+00:00</time>
      </trkpt>
      <trkpt lat="47.31667" lon="-1.30684">
        <ele>105</ele>
        <time>2020-12-20T08:38:30.342000+00:00</time>
      </trkpt>
      <trkpt lat="0" lon="0">
        <time>2020-12-20T08:38:30.358000+00:00</time>
      </trkpt>
      <trkpt lat="0" lon="0">
        <time>2020-12-20T08:38:30.360000+00:00</time>
      </trkpt>
      <trkpt lat="0" lon="0">
        <time>2020-12-20T08:38:30.362000+00:00</time>
      </trkpt>
      <trkpt lat="47.31665" lon="-1.30683">
        <ele>105</ele>
        <time>2020-12-20T08:38:31.316000+00:00</time>
      </trkpt>
      <trkpt lat="0" lon="0">
        <time>2020-12-20T08:38:31.320000+00:00</time>
      </trkpt>
      <trkpt lat="0" lon="0">
        <time>2020-12-20T08:38:31.333000+00:00</time>
      </trkpt>
      <trkpt lat="0" lon="0">
        <time>2020-12-20T08:38:31.342000+00:00</time>
      </trkpt>
      <trkpt lat="47.31662" lon="-1.30682">
        <ele>105</ele>
        <time>2020-12-20T08:38:32.350000+00:00</time>
      </trkpt>
      <trkpt lat="0" lon="0">
        <time>2020-12-20T08:38:32.358000+00:00</time>
      </trkpt>
      <trkpt lat="0" lon="0">
        <time>2020-12-20T08:38:32.362000+00:00</time>
      </trkpt>
      <trkpt lat="0" lon="0">
        <time>2020-12-20T08:38:32.364000+00:00</time>
      </trkpt>
      <trkpt lat="47.3166" lon="-1.30681">
        <ele>106</ele>
        <time>2020-12-20T08:38:33.339000+00:00</time>
      </trkpt>
      <trkpt lat="0" lon="0">
        <time>2020-12-20T08:38:33.347000+00:00</time>
      </trkpt>
      <trkpt lat="0" lon="0">
        <time>2020-12-20T08:38:33.349000+00:00</time>
      </trkpt>
      <trkpt lat="0" lon="0">
        <time>2020-12-20T08:38:33.351000+00:00</time>
      </trkpt>
      <trkpt lat="47.31657" lon="-1.3068">
        <ele>106</ele>
        <time>2020-12-20T08:38:34.317000+00:00</time>
      </trkpt>
      <trkpt lat="0" lon="0">
        <time>2020-12-20T08:38:34.324000+00:00</time>
      </trkpt>
      <trkpt lat="0" lon="0">
        <time>2020-12-20T08:38:34.329000+00:00</time>
      </trkpt>
      <trkpt lat="0" lon="0">
        <time>2020-12-20T08:38:34.331000+00:00</time>
      </trkpt>
      <trkpt lat="47.31654" lon="-1.30679">
        <ele>106</ele>
        <time>2020-12-20T08:38:35.328000+00:00</time>
      </trkpt>
      <trkpt lat="0" lon="0">
        <time>2020-12-20T08:38:35.351000+00:00</time>
      </trkpt>
      <trkpt lat="0" lon="0">
        <time>2020-12-20T08:38:35.360000+00:00</time>
      </trkpt>
      <trkpt lat="0" lon="0">
        <time>2020-12-20T08:38:35.361000+00:00</time>
      </trkpt>
      <trkpt lat="47.31652" lon="-1.30678">
        <ele>106</ele>
        <time>2020-12-20T08:38:36.309000+00:00</time>
      </trkpt>
      <trkpt lat="0" lon="0">
        <time>2020-12-20T08:38:36.326000+00:00</time>
      </trkpt>
      <trkpt lat="0" lon="0">
        <time>2020-12-20T08:38:36.333000+00:00</time>
      </trkpt>
      <trkpt lat="0" lon="0">
        <time>2020-12-20T08:38:36.338000+00:00</time>
      </trkpt>
      <trkpt lat="47.31649" lon="-1.30677">
        <ele>107</ele>
        <time>2020-12-20T08:38:37.305000+00:00</time>
      </trkpt>
      <trkpt lat="0" lon="0">
        <time>2020-12-20T08:38:37.317000+00:00</time>
      </trkpt>
      <trkpt lat="0" lon="0">
        <time>2020-12-20T08:38:37.324000+00:00</time>
      </trkpt>
      <trkpt lat="0" lon="0">
        <time>2020-12-20T08:38:37.326000+00:00</time>
      </trkpt>
      <trkpt lat="47.31646" lon="-1.30676">
        <ele>107</ele>
        <time>2020-12-20T08:38:38.328000+00:00</time>
      </trkpt>
      <trkpt lat="0" lon="0">
        <time>2020-12-20T08:38:38.348000+00:00</time>
      </trkpt>
      <trkpt lat="0" lon="0">
        <time>2020-12-20T08:38:38.356000+00:00</time>
      </trkpt>
      <trkpt lat="0" lon="0">
        <time>2020-12-20T08:38:38.359000+00:00</time>
      </trkpt>
      <trkpt lat="47.31644" lon="-1.30675">
        <ele>108</ele>
        <time>2020-12-20T08:38:39.352000+00:00</time>
      </trkpt>
      <trkpt lat="0" lon="0">
        <time>2020-12-20T08:38:39.358000+00:00</time>
      </trkpt>
      <trkpt lat="0" lon="0">
        <time>2020-12-20T08:38:39.360000+00:00</time>
      </trkpt>
      <trkpt lat="0" lon="0">
        <time>2020-12-20T08:38:39.361000+00:00</time>
      </trkpt>
      <trkpt lat="47.31641" lon="-1.30674">
        <ele>108</ele>
        <time>2020-12-20T08:38:40.315000+00:00</time>
      </trkpt>
      <trkpt lat="0" lon="0">
        <time>2020-12-20T08:38:40.331000+00:00</time>
      </trkpt>
      <trkpt lat="0" lon="0">
        <time>2020-12-20T08:38:40.335000+00:00</time>
      </trkpt>
      <trkpt lat="0" lon="0">
        <time>2020-12-20T08:38:40.337000+00:00</time>
      </trkpt>
      <trkpt lat="47.31639" lon="-1.30673">
        <ele>108</ele>
        <time>2020-12-20T08:38:41.309000+00:00</time>
      </trkpt>
      <trkpt lat="0" lon="0">
        <time>2020-12-20T08:38:41.318000+00:00</time>
      </trkpt>
      <trkpt lat="0" lon="0">
        <time>2020-12-20T08:38:41.326000+00:00</time>
      </trkpt>
      <trkpt lat="0" lon="0">
        <time>2020-12-20T08:38:41.331000+00:00</time>
      </trkpt>
      <trkpt lat="47.31636" lon="-1.30671">
        <ele>108</ele>
        <time>2020-12-20T08:38:42.319000+00:00</time>
      </trkpt>
      <trkpt lat="0" lon="0">
        <time>2020-12-20T08:38:42.328000+00:00</time>
      </trkpt>
      <trkpt lat="0" lon="0">
        <time>2020-12-20T08:38:42.346000+00:00</time>
      </trkpt>
      <trkpt lat="0" lon="0">
        <time>2020-12-20T08:38:42.348000+00:00</time>
      </trkpt>
      <trkpt lat="47.31633" lon="-1.3067">
        <ele>109</ele>
        <time>2020-12-20T08:38:43.328000+00:00</time>
      </trkpt>
      <trkpt lat="0" lon="0">
        <time>2020-12-20T08:38:43.342000+00:00</time>
      </trkpt>
      <trkpt lat="0" lon="0">
        <time>2020-12-20T08:38:43.350000+00:00</time>
      </trkpt>
      <trkpt lat="0" lon="0">
        <time>2020-12-20T08:38:43.353000+00:00</time>
      </trkpt>
      <trkpt lat="47.31631" lon="-1.30669">
        <ele>108</ele>
        <time>2020-12-20T08:38:44.333000+00:00</time>
      </trkpt>
      <trkpt lat="0" lon="0">
        <time>2020-12-20T08:38:44.350000+00:00</time>
      </trkpt>
      <trkpt lat="0" lon="0">
        <time>2020-12-20T08:38:44.354000+00:00</time>
      </trkpt>
      <trkpt lat="0" lon="0">
        <time>2020-12-20T08:38:44.356000+00:00</time>
      </trkpt>
      <trkpt lat="47.31628" lon="-1.30668">
        <ele>108</ele>
        <time>2020-12-20T08:38:45.346000+00:00</time>
      </trkpt>
      <trkpt lat="0" lon="0">
        <time>2020-12-20T08:38:45.370000+00:00</time>
      </trkpt>
      <trkpt lat="0" lon="0">
        <time>2020-12-20T08:38:45.376000+00:00</time>
      </trkpt>
      <trkpt lat="0" lon="0">
        <time>2020-12-20T08:38:45.377000+00:00</time>
      </trkpt>
      <trkpt lat="47.31626" lon="-1.30666">
        <ele>108</ele>
        <time>2020-12-20T08:38:46.342000+00:00</time>
      </trkpt>
      <trkpt lat="0" lon="0">
        <time>2020-12-20T08:38:46.350000+00:00</time>
      </trkpt>
      <trkpt lat="0" lon="0">
        <time>2020-12-20T08:38:46.359000+00:00</time>
      </trkpt>
      <trkpt lat="0" lon="0">
        <time>2020-12-20T08:38:46.362000+00:00</time>
      </trkpt>
      <trkpt lat="47.31623" lon="-1.30665">
        <ele>109</ele>
        <time>2020-12-20T08:38:47.313000+00:00</time>
      </trkpt>
      <trkpt lat="0" lon="0">
        <time>2020-12-20T08:38:47.320000+00:00</time>
      </trkpt>
      <trkpt lat="0" lon="0">
        <time>2020-12-20T08:38:47.332000+00:00</time>
      </trkpt>
      <trkpt lat="0" lon="0">
        <time>2020-12-20T08:38:47.335000+00:00</time>
      </trkpt>
      <trkpt lat="47.3162" lon="-1.30664">
        <ele>109</ele>
        <time>2020-12-20T08:38:48.332000+00:00</time>
      </trkpt>
      <trkpt lat="0" lon="0">
        <time>2020-12-20T08:38:48.354000+00:00</time>
      </trkpt>
      <trkpt lat="0" lon="0">
        <time>2020-12-20T08:38:48.358000+00:00</time>
      </trkpt>
      <trkpt lat="0" lon="0">
        <time>2020-12-20T08:38:48.365000+00:00</time>
      </trkpt>
      <trkpt lat="47.31618" lon="-1.30662">
        <ele>110</ele>
        <time>2020-12-20T08:38:49.327000+00:00</time>
      </trkpt>
      <trkpt lat="0" lon="0">
        <time>2020-12-20T08:38:49.336000+00:00</time>
      </trkpt>
      <trkpt lat="0" lon="0">
        <time>2020-12-20T08:38:49.341000+00:00</time>
      </trkpt>
      <trkpt lat="0" lon="0">
        <time>2020-12-20T08:38:49.343000+00:00</time>
      </trkpt>
      <trkpt lat="47.31615" lon="-1.30661">
        <ele>110</ele>
        <time>2020-12-20T08:38:50.330000+00:00</time>
      </trkpt>
      <trkpt lat="0" lon="0">
        <time>2020-12-20T08:38:50.347000+00:00</time>
      </trkpt>
      <trkpt lat="0" lon="0">
        <time>2020-12-20T08:38:50.351000+00:00</time>
      </trkpt>
      <trkpt lat="0" lon="0">
        <time>2020-12-20T08:38:50.353000+00:00</time>
      </trkpt>
      <trkpt lat="47.31612" lon="-1.3066">
        <ele>110</ele>
        <time>2020-12-20T08:38:51.305000+00:00</time>
      </trkpt>
      <trkpt lat="0" lon="0">
        <time>2020-12-20T08:38:51.310000+00:00</time>
      </trkpt>
      <trkpt lat="0" lon="0">
        <time>2020-12-20T08:38:51.314000+00:00</time>
      </trkpt>
      <trkpt lat="0" lon="0">
        <time>2020-12-20T08:38:51.318000+00:00</time>
      </trkpt>
      <trkpt lat="47.31609" lon="-1.30658">
        <ele>110</ele>
        <time>2020-12-20T08:38:52.331000+00:00</time>
      </trkpt>
      <trkpt lat="0" lon="0">
        <time>2020-12-20T08:38:52.348000+00:00</time>
      </trkpt>
      <trkpt lat="0" lon="0">
        <time>2020-12-20T08:38:52.353000+00:00</time>
      </trkpt>
      <trkpt lat="0" lon="0">
        <time>2020-12-20T08:38:52.356000+00:00</time>
      </trkpt>
      <trkpt lat="47.31606" lon="-1.30657">
        <ele>111</ele>
        <time>2020-12-20T08:38:53.330000+00:00</time>
      </trkpt>
      <trkpt lat="0" lon="0">
        <time>2020-12-20T08:38:53.337000+00:00</time>
      </trkpt>
      <trkpt lat="0" lon="0">
        <time>2020-12-20T08:38:53.341000+00:00</time>
      </trkpt>
      <trkpt lat="0" lon="0">
        <time>2020-12-20T08:38:53.343000+00:00</time>
      </trkpt>
      <trkpt lat="47.31603" lon="-1.30656">
        <ele>112</ele>
        <time>2020-12-20T08:38:54.312000+00:00</time>
      </trkpt>
      <trkpt lat="0" lon="0">
        <time>2020-12-20T08:38:54.328000+00:00</time>
      </trkpt>
      <trkpt lat="0" lon="0">
        <time>2020-12-20T08:38:54.338000+00:00</time>
      </trkpt>
      <trkpt lat="0" lon="0">
        <time>2020-12-20T08:38:54.347000+00:00</time>
      </trkpt>
      <trkpt lat="47.31601" lon="-1.30654">
        <ele>113</ele>
        <time>2020-12-20T08:38:55.330000+00:00</time>
      </trkpt>
      <trkpt lat="0" lon="0">
        <time>2020-12-20T08:38:55.352000+00:00</time>
      </trkpt>
      <trkpt lat="0" lon="0">
        <time>2020-12-20T08:38:55.358000+00:00</time>
      </trkpt>
      <trkpt lat="0" lon="0">
        <time>2020-12-20T08:38:55.364000+00:00</time>
      </trkpt>
      <trkpt lat="47.31598" lon="-1.30652">
        <ele>112</ele>
        <time>2020-12-20T08:38:56.336000+00:00</time>
      </trkpt>
      <trkpt lat="0" lon="0">
        <time>2020-12-20T08:38:56.348000+00:00</time>
      </trkpt>
      <trkpt lat="0" lon="0">
        <time>2020-12-20T08:38:56.354000+00:00</time>
      </trkpt>
      <trkpt lat="0" lon="0">
        <time>2020-12-20T08:38:56.357000+00:00</time>
      </trkpt>
      <trkpt lat="47.31595" lon="-1.30649">
        <ele>112</ele>
        <time>2020-12-20T08:38:57.306000+00:00</time>
      </trkpt>
      <trkpt lat="0" lon="0">
        <time>2020-12-20T08:38:57.312000+00:00</time>
      </trkpt>
      <trkpt lat="0" lon="0">
        <time>2020-12-20T08:38:57.315000+00:00</time>
      </trkpt>
      <trkpt lat="0" lon="0">
        <time>2020-12-20T08:38:57.316000+00:00</time>
      </trkpt>
      <trkpt lat="47.31593" lon="-1.30646">
        <ele>112</ele>
        <time>2020-12-20T08:38:58.309000+00:00</time>
      </trkpt>
      <trkpt lat="0" lon="0">
        <time>2020-12-20T08:38:58.325000+00:00</time>
      </trkpt>
      <trkpt lat="0" lon="0">
        <time>2020-12-20T08:38:58.330000+00:00</time>
      </trkpt>
      <trkpt lat="0" lon="0">
        <time>2020-12-20T08:38:58.336000+00:00</time>
      </trkpt>
      <trkpt lat="47.31591" lon="-1.30643">
        <ele>113</ele>
        <time>2020-12-20T08:38:59.285000+00:00</time>
      </trkpt>
      <trkpt lat="0" lon="0">
        <time>2020-12-20T08:38:59.299000+00:00</time>
      </trkpt>
      <trkpt lat="0" lon="0">
        <time>2020-12-20T08:38:59.302000+00:00</time>
      </trkpt>
      <trkpt lat="0" lon="0">
        <time>2020-12-20T08:38:59.304000+00:00</time>
      </trkpt>
      <trkpt lat="47.31589" lon="-1.30639">
        <ele>113</ele>
        <time>2020-12-20T08:39:00.338000+00:00</time>
      </trkpt>
      <trkpt lat="0" lon="0">
        <time>2020-12-20T08:39:00.344000+00:00</time>
      </trkpt>
      <trkpt lat="0" lon="0">
        <time>2020-12-20T08:39:00.349000+00:00</time>
      </trkpt>
      <trkpt lat="0" lon="0">
        <time>2020-12-20T08:39:00.351000+00:00</time>
      </trkpt>
      <trkpt lat="47.31588" lon="-1.30635">
        <ele>113</ele>
        <time>2020-12-20T08:39:01.321000+00:00</time>
      </trkpt>
      <trkpt lat="0" lon="0">
        <time>2020-12-20T08:39:01.339000+00:00</time>
      </trkpt>
      <trkpt lat="0" lon="0">
        <time>2020-12-20T08:39:01.343000+00:00</time>
      </trkpt>
      <trkpt lat="0" lon="0">
        <time>2020-12-20T08:39:01.345000+00:00</time>
      </trkpt>
      <trkpt lat="47.31586" lon="-1.3063">
        <ele>114</ele>
        <time>2020-12-20T08:39:02.310000+00:00</time>
      </trkpt>
      <trkpt lat="0" lon="0">
        <time>2020-12-20T08:39:02.322000+00:00</time>
      </trkpt>
      <trkpt lat="0" lon="0">
        <time>2020-12-20T08:39:02.325000+00:00</time>
      </trkpt>
      <trkpt lat="0" lon="0">
        <time>2020-12-20T08:39:02.327000+00:00</time>
      </trkpt>
      <trkpt lat="47.31585" lon="-1.30625">
        <ele>114</ele>
        <time>2020-12-20T08:39:03.338000+00:00</time>
      </trkpt>
      <trkpt lat="0" lon="0">
        <time>2020-12-20T08:39:03.342000+00:00</time>
      </trkpt>
      <trkpt lat="0" lon="0">
        <time>2020-12-20T08:39:03.344000+00:00</time>
      </trkpt>
      <trkpt lat="0" lon="0">
        <time>2020-12-20T08:39:03.345000+00:00</time>
      </trkpt>
      <trkpt lat="47.31584" lon="-1.3062">
        <ele>114</ele>
        <time>2020-12-20T08:39:04.313000+00:00</time>
      </trkpt>
      <trkpt lat="0" lon="0">
        <time>2020-12-20T08:39:04.318000+00:00</time>
      </trkpt>
      <trkpt lat="0" lon="0">
        <time>2020-12-20T08:39:04.326000+00:00</time>
      </trkpt>
      <trkpt lat="0" lon="0">
        <time>2020-12-20T08:39:04.328000+00:00</time>
      </trkpt>
      <trkpt lat="47.31584" lon="-1.30615">
        <ele>114</ele>
        <time>2020-12-20T08:39:05.339000+00:00</time>
      </trkpt>
      <trkpt lat="0" lon="0">
        <time>2020-12-20T08:39:05.357000+00:00</time>
      </trkpt>
      <trkpt lat="0" lon="0">
        <time>2020-12-20T08:39:05.361000+00:00</time>
      </trkpt>
      <trkpt lat="0" lon="0">
        <time>2020-12-20T08:39:05.364000+00:00</time>
      </trkpt>
      <trkpt lat="47.31583" lon="-1.3061">
        <ele>114</ele>
        <time>2020-12-20T08:39:06.347000+00:00</time>
      </trkpt>
      <trkpt lat="0" lon="0">
        <time>2020-12-20T08:39:06.373000+00:00</time>
      </trkpt>
      <trkpt lat="0" lon="0">
        <time>2020-12-20T08:39:06.382000+00:00</time>
      </trkpt>
      <trkpt lat="0" lon="0">
        <time>2020-12-20T08:39:06.388000+00:00</time>
      </trkpt>
      <trkpt lat="47.31582" lon="-1.30605">
        <ele>115</ele>
        <time>2020-12-20T08:39:07.315000+00:00</time>
      </trkpt>
      <trkpt lat="0" lon="0">
        <time>2020-12-20T08:39:07.331000+00:00</time>
      </trkpt>
      <trkpt lat="0" lon="0">
        <time>2020-12-20T08:39:07.340000+00:00</time>
      </trkpt>
      <trkpt lat="0" lon="0">
        <time>2020-12-20T08:39:07.350000+00:00</time>
      </trkpt>
      <trkpt lat="47.31582" lon="-1.306">
        <ele>115</ele>
        <time>2020-12-20T08:39:08.267000+00:00</time>
      </trkpt>
      <trkpt lat="0" lon="0">
        <time>2020-12-20T08:39:08.276000+00:00</time>
      </trkpt>
      <trkpt lat="0" lon="0">
        <time>2020-12-20T08:39:08.278000+00:00</time>
      </trkpt>
      <trkpt lat="0" lon="0">
        <time>2020-12-20T08:39:08.279000+00:00</time>
      </trkpt>
      <trkpt lat="47.31581" lon="-1.30595">
        <ele>115</ele>
        <time>2020-12-20T08:39:09.298000+00:00</time>
      </trkpt>
      <trkpt lat="0" lon="0">
        <time>2020-12-20T08:39:09.303000+00:00</time>
      </trkpt>
      <trkpt lat="0" lon="0">
        <time>2020-12-20T08:39:09.306000+00:00</time>
      </trkpt>
      <trkpt lat="0" lon="0">
        <time>2020-12-20T08:39:09.307000+00:00</time>
      </trkpt>
      <trkpt lat="47.3158" lon="-1.30591">
        <ele>115</ele>
        <time>2020-12-20T08:39:10.297000+00:00</time>
      </trkpt>
      <trkpt lat="0" lon="0">
        <time>2020-12-20T08:39:10.311000+00:00</time>
      </trkpt>
      <trkpt lat="0" lon="0">
        <time>2020-12-20T08:39:10.316000+00:00</time>
      </trkpt>
      <trkpt lat="0" lon="0">
        <time>2020-12-20T08:39:10.318000+00:00</time>
      </trkpt>
      <trkpt lat="47.3158" lon="-1.30586">
        <ele>116</ele>
        <time>2020-12-20T08:39:11.332000+00:00</time>
      </trkpt>
      <trkpt lat="0" lon="0">
        <time>2020-12-20T08:39:11.340000+00:00</time>
      </trkpt>
      <trkpt lat="0" lon="0">
        <time>2020-12-20T08:39:11.351000+00:00</time>
      </trkpt>
      <trkpt lat="0" lon="0">
        <time>2020-12-20T08:39:11.354000+00:00</time>
      </trkpt>
      <trkpt lat="47.31579" lon="-1.30582">
        <ele>116</ele>
        <time>2020-12-20T08:39:12.352000+00:00</time>
      </trkpt>
      <trkpt lat="0" lon="0">
        <time>2020-12-20T08:39:12.365000+00:00</time>
      </trkpt>
      <trkpt lat="0" lon="0">
        <time>2020-12-20T08:39:12.374000+00:00</time>
      </trkpt>
      <trkpt lat="0" lon="0">
        <time>2020-12-20T08:39:12.376000+00:00</time>
      </trkpt>
      <trkpt lat="47.31578" lon="-1.30578">
        <ele>116</ele>
        <time>2020-12-20T08:39:13.341000+00:00</time>
      </trkpt>
      <trkpt lat="0" lon="0">
        <time>2020-12-20T08:39:13.350000+00:00</time>
      </trkpt>
      <trkpt lat="0" lon="0">
        <time>2020-12-20T08:39:13.352000+00:00</time>
      </trkpt>
      <trkpt lat="0" lon="0">
        <time>2020-12-20T08:39:13.353000+00:00</time>
      </trkpt>
      <trkpt lat="47.31577" lon="-1.30573">
        <ele>117</ele>
        <time>2020-12-20T08:39:14.320000+00:00</time>
      </trkpt>
      <trkpt lat="0" lon="0">
        <time>2020-12-20T08:39:14.325000+00:00</time>
      </trkpt>
      <trkpt lat="0" lon="0">
        <time>2020-12-20T08:39:14.342000+00:00</time>
      </trkpt>
      <trkpt lat="0" lon="0">
        <time>2020-12-20T08:39:14.345000+00:00</time>
      </trkpt>
      <trkpt lat="47.31576" lon="-1.30569">
        <ele>117</ele>
        <time>2020-12-20T08:39:15.270000+00:00</time>
      </trkpt>
      <trkpt lat="0" lon="0">
        <time>2020-12-20T08:39:15.275000+00:00</time>
      </trkpt>
      <trkpt lat="0" lon="0">
        <time>2020-12-20T08:39:15.277000+00:00</time>
      </trkpt>
      <trkpt lat="0" lon="0">
        <time>2020-12-20T08:39:15.278000+00:00</time>
      </trkpt>
      <trkpt lat="47.31575" lon="-1.30566">
        <ele>116</ele>
        <time>2020-12-20T08:39:16.260000+00:00</time>
      </trkpt>
      <trkpt lat="0" lon="0">
        <time>2020-12-20T08:39:16.266000+00:00</time>
      </trkpt>
      <trkpt lat="0" lon="0">
        <time>2020-12-20T08:39:16.267000+00:00</time>
      </trkpt>
      <trkpt lat="0" lon="0">
        <time>2020-12-20T08:39:16.268000+00:00</time>
      </trkpt>
      <trkpt lat="47.31573" lon="-1.30562">
        <ele>117</ele>
        <time>2020-12-20T08:39:17.295000+00:00</time>
      </trkpt>
      <trkpt lat="0" lon="0">
        <time>2020-12-20T08:39:17.304000+00:00</time>
      </trkpt>
      <trkpt lat="0" lon="0">
        <time>2020-12-20T08:39:17.308000+00:00</time>
      </trkpt>
      <trkpt lat="0" lon="0">
        <time>2020-12-20T08:39:17.310000+00:00</time>
      </trkpt>
      <trkpt lat="47.31572" lon="-1.30558">
        <ele>117</ele>
        <time>2020-12-20T08:39:18.304000+00:00</time>
      </trkpt>
      <trkpt lat="0" lon="0">
        <time>2020-12-20T08:39:18.314000+00:00</time>
      </trkpt>
      <trkpt lat="0" lon="0">
        <time>2020-12-20T08:39:18.319000+00:00</time>
      </trkpt>
      <trkpt lat="0" lon="0">
        <time>2020-12-20T08:39:18.326000+00:00</time>
      </trkpt>
      <trkpt lat="47.3157" lon="-1.30555">
        <ele>117</ele>
        <time>2020-12-20T08:39:19.304000+00:00</time>
      </trkpt>
      <trkpt lat="0" lon="0">
        <time>2020-12-20T08:39:19.319000+00:00</time>
      </trkpt>
      <trkpt lat="0" lon="0">
        <time>2020-12-20T08:39:19.323000+00:00</time>
      </trkpt>
      <trkpt lat="0" lon="0">
        <time>2020-12-20T08:39:19.328000+00:00</time>
      </trkpt>
      <trkpt lat="47.31568" lon="-1.30551">
        <ele>117</ele>
        <time>2020-12-20T08:39:20.283000+00:00</time>
      </trkpt>
      <trkpt lat="0" lon="0">
        <time>2020-12-20T08:39:20.294000+00:00</time>
      </trkpt>
      <trkpt lat="0" lon="0">
        <time>2020-12-20T08:39:20.298000+00:00</time>
      </trkpt>
      <trkpt lat="0" lon="0">
        <time>2020-12-20T08:39:20.301000+00:00</time>
      </trkpt>
      <trkpt lat="47.31566" lon="-1.30548">
        <ele>117</ele>
        <time>2020-12-20T08:39:21.295000+00:00</time>
      </trkpt>
      <trkpt lat="0" lon="0">
        <time>2020-12-20T08:39:21.301000+00:00</time>
      </trkpt>
      <trkpt lat="0" lon="0">
        <time>2020-12-20T08:39:21.315000+00:00</time>
      </trkpt>
      <trkpt lat="0" lon="0">
        <time>2020-12-20T08:39:21.325000+00:00</time>
      </trkpt>
      <trkpt lat="47.31564" lon="-1.30545">
        <ele>118</ele>
        <time>2020-12-20T08:39:22.340000+00:00</time>
      </trkpt>
      <trkpt lat="0" lon="0">
        <time>2020-12-20T08:39:22.354000+00:00</time>
      </trkpt>
      <trkpt lat="0" lon="0">
        <time>2020-12-20T08:39:22.359000+00:00</time>
      </trkpt>
      <trkpt lat="0" lon="0">
        <time>2020-12-20T08:39:22.361000+00:00</time>
      </trkpt>
      <trkpt lat="47.31562" lon="-1.30542">
        <ele>117</ele>
        <time>2020-12-20T08:39:23.339000+00:00</time>
      </trkpt>
      <trkpt lat="0" lon="0">
        <time>2020-12-20T08:39:23.346000+00:00</time>
      </trkpt>
      <trkpt lat="0" lon="0">
        <time>2020-12-20T08:39:23.351000+00:00</time>
      </trkpt>
      <trkpt lat="0" lon="0">
        <time>2020-12-20T08:39:23.354000+00:00</time>
      </trkpt>
      <trkpt lat="47.31559" lon="-1.30539">
        <ele>118</ele>
        <time>2020-12-20T08:39:24.311000+00:00</time>
      </trkpt>
      <trkpt lat="0" lon="0">
        <time>2020-12-20T08:39:24.318000+00:00</time>
      </trkpt>
      <trkpt lat="0" lon="0">
        <time>2020-12-20T08:39:24.327000+00:00</time>
      </trkpt>
      <trkpt lat="0" lon="0">
        <time>2020-12-20T08:39:24.331000+00:00</time>
      </trkpt>
      <trkpt lat="47.31557" lon="-1.30537">
        <ele>118</ele>
        <time>2020-12-20T08:39:25.291000+00:00</time>
      </trkpt>
      <trkpt lat="0" lon="0">
        <time>2020-12-20T08:39:25.296000+00:00</time>
      </trkpt>
      <trkpt lat="0" lon="0">
        <time>2020-12-20T08:39:25.300000+00:00</time>
      </trkpt>
      <trkpt lat="0" lon="0">
        <time>2020-12-20T08:39:25.304000+00:00</time>
      </trkpt>
      <trkpt lat="47.31554" lon="-1.30534">
        <ele>118</ele>
        <time>2020-12-20T08:39:26.299000+00:00</time>
      </trkpt>
      <trkpt lat="0" lon="0">
        <time>2020-12-20T08:39:26.312000+00:00</time>
      </trkpt>
      <trkpt lat="0" lon="0">
        <time>2020-12-20T08:39:26.320000+00:00</time>
      </trkpt>
      <trkpt lat="0" lon="0">
        <time>2020-12-20T08:39:26.322000+00:00</time>
      </trkpt>
      <trkpt lat="47.31552" lon="-1.30532">
        <ele>119</ele>
        <time>2020-12-20T08:39:27.313000+00:00</time>
      </trkpt>
      <trkpt lat="0" lon="0">
        <time>2020-12-20T08:39:27.326000+00:00</time>
      </trkpt>
      <trkpt lat="0" lon="0">
        <time>2020-12-20T08:39:27.334000+00:00</time>
      </trkpt>
      <trkpt lat="0" lon="0">
        <time>2020-12-20T08:39:27.348000+00:00</time>
      </trkpt>
      <trkpt lat="47.31549" lon="-1.30529">
        <ele>119</ele>
        <time>2020-12-20T08:39:28.287000+00:00</time>
      </trkpt>
      <trkpt lat="0" lon="0">
        <time>2020-12-20T08:39:28.304000+00:00</time>
      </trkpt>
      <trkpt lat="0" lon="0">
        <time>2020-12-20T08:39:28.308000+00:00</time>
      </trkpt>
      <trkpt lat="0" lon="0">
        <time>2020-12-20T08:39:28.310000+00:00</time>
      </trkpt>
      <trkpt lat="47.31547" lon="-1.30527">
        <ele>119</ele>
        <time>2020-12-20T08:39:29.314000+00:00</time>
      </trkpt>
      <trkpt lat="0" lon="0">
        <time>2020-12-20T08:39:29.326000+00:00</time>
      </trkpt>
      <trkpt lat="0" lon="0">
        <time>2020-12-20T08:39:29.333000+00:00</time>
      </trkpt>
      <trkpt lat="0" lon="0">
        <time>2020-12-20T08:39:29.339000+00:00</time>
      </trkpt>
      <trkpt lat="47.31544" lon="-1.30525">
        <ele>119</ele>
        <time>2020-12-20T08:39:30.348000+00:00</time>
      </trkpt>
      <trkpt lat="0" lon="0">
        <time>2020-12-20T08:39:30.352000+00:00</time>
      </trkpt>
      <trkpt lat="0" lon="0">
        <time>2020-12-20T08:39:30.357000+00:00</time>
      </trkpt>
      <trkpt lat="0" lon="0">
        <time>2020-12-20T08:39:30.359000+00:00</time>
      </trkpt>
      <trkpt lat="47.31542" lon="-1.30523">
        <ele>118</ele>
        <time>2020-12-20T08:39:31.321000+00:00</time>
      </trkpt>
      <trkpt lat="0" lon="0">
        <time>2020-12-20T08:39:31.329000+00:00</time>
      </trkpt>
      <trkpt lat="0" lon="0">
        <time>2020-12-20T08:39:31.334000+00:00</time>
      </trkpt>
      <trkpt lat="0" lon="0">
        <time>2020-12-20T08:39:31.336000+00:00</time>
      </trkpt>
      <trkpt lat="47.31539" lon="-1.30521">
        <ele>118</ele>
        <time>2020-12-20T08:39:32.335000+00:00</time>
      </trkpt>
      <trkpt lat="0" lon="0">
        <time>2020-12-20T08:39:32.346000+00:00</time>
      </trkpt>
      <trkpt lat="0" lon="0">
        <time>2020-12-20T08:39:32.349000+00:00</time>
      </trkpt>
      <trkpt lat="0" lon="0">
        <time>2020-12-20T08:39:32.351000+00:00</time>
      </trkpt>
      <trkpt lat="47.31536" lon="-1.3052">
        <ele>119</ele>
        <time>2020-12-20T08:39:33.304000+00:00</time>
      </trkpt>
      <trkpt lat="0" lon="0">
        <time>2020-12-20T08:39:33.316000+00:00</time>
      </trkpt>
      <trkpt lat="0" lon="0">
        <time>2020-12-20T08:39:33.325000+00:00</time>
      </trkpt>
      <trkpt lat="0" lon="0">
        <time>2020-12-20T08:39:33.327000+00:00</time>
      </trkpt>
      <trkpt lat="47.31533" lon="-1.30518">
        <ele>119</ele>
        <time>2020-12-20T08:39:34.340000+00:00</time>
      </trkpt>
      <trkpt lat="0" lon="0">
        <time>2020-12-20T08:39:34.355000+00:00</time>
      </trkpt>
      <trkpt lat="0" lon="0">
        <time>2020-12-20T08:39:34.361000+00:00</time>
      </trkpt>
      <trkpt lat="0" lon="0">
        <time>2020-12-20T08:39:34.364000+00:00</time>
      </trkpt>
      <trkpt lat="47.3153" lon="-1.30517">
        <ele>119</ele>
        <time>2020-12-20T08:39:35.325000+00:00</time>
      </trkpt>
      <trkpt lat="0" lon="0">
        <time>2020-12-20T08:39:35.340000+00:00</time>
      </trkpt>
      <trkpt lat="0" lon="0">
        <time>2020-12-20T08:39:35.344000+00:00</time>
      </trkpt>
      <trkpt lat="0" lon="0">
        <time>2020-12-20T08:39:35.348000+00:00</time>
      </trkpt>
      <trkpt lat="47.31527" lon="-1.30516">
        <ele>120</ele>
        <time>2020-12-20T08:39:36.330000+00:00</time>
      </trkpt>
      <trkpt lat="0" lon="0">
        <time>2020-12-20T08:39:36.336000+00:00</time>
      </trkpt>
      <trkpt lat="0" lon="0">
        <time>2020-12-20T08:39:36.340000+00:00</time>
      </trkpt>
      <trkpt lat="0" lon="0">
        <time>2020-12-20T08:39:36.342000+00:00</time>
      </trkpt>
      <trkpt lat="47.31523" lon="-1.30515">
        <ele>120</ele>
        <time>2020-12-20T08:39:37.320000+00:00</time>
      </trkpt>
      <trkpt lat="0" lon="0">
        <time>2020-12-20T08:39:37.333000+00:00</time>
      </trkpt>
      <trkpt lat="0" lon="0">
        <time>2020-12-20T08:39:37.342000+00:00</time>
      </trkpt>
      <trkpt lat="0" lon="0">
        <time>2020-12-20T08:39:37.344000+00:00</time>
      </trkpt>
      <trkpt lat="47.31521" lon="-1.30513">
        <ele>121</ele>
        <time>2020-12-20T08:39:38.319000+00:00</time>
      </trkpt>
      <trkpt lat="0" lon="0">
        <time>2020-12-20T08:39:38.323000+00:00</time>
      </trkpt>
      <trkpt lat="0" lon="0">
        <time>2020-12-20T08:39:38.325000+00:00</time>
      </trkpt>
      <trkpt lat="0" lon="0">
        <time>2020-12-20T08:39:38.326000+00:00</time>
      </trkpt>
      <trkpt lat="47.31518" lon="-1.30512">
        <ele>121</ele>
        <time>2020-12-20T08:39:39.312000+00:00</time>
      </trkpt>
      <trkpt lat="0" lon="0">
        <time>2020-12-20T08:39:39.327000+00:00</time>
      </trkpt>
      <trkpt lat="0" lon="0">
        <time>2020-12-20T08:39:39.333000+00:00</time>
      </trkpt>
      <trkpt lat="0" lon="0">
        <time>2020-12-20T08:39:39.335000+00:00</time>
      </trkpt>
      <trkpt lat="47.31516" lon="-1.30511">
        <ele>121</ele>
        <time>2020-12-20T08:39:40.320000+00:00</time>
      </trkpt>
      <trkpt lat="0" lon="0">
        <time>2020-12-20T08:39:40.345000+00:00</time>
      </trkpt>
      <trkpt lat="0" lon="0">
        <time>2020-12-20T08:39:40.349000+00:00</time>
      </trkpt>
      <trkpt lat="0" lon="0">
        <time>2020-12-20T08:39:40.351000+00:00</time>
      </trkpt>
      <trkpt lat="47.31514" lon="-1.30509">
        <ele>121</ele>
        <time>2020-12-20T08:39:41.348000+00:00</time>
      </trkpt>
      <trkpt lat="0" lon="0">
        <time>2020-12-20T08:39:41.355000+00:00</time>
      </trkpt>
      <trkpt lat="0" lon="0">
        <time>2020-12-20T08:39:41.359000+00:00</time>
      </trkpt>
      <trkpt lat="0" lon="0">
        <time>2020-12-20T08:39:41.362000+00:00</time>
      </trkpt>
      <trkpt lat="47.31513" lon="-1.30507">
        <ele>121</ele>
        <time>2020-12-20T08:39:42.292000+00:00</time>
      </trkpt>
      <trkpt lat="0" lon="0">
        <time>2020-12-20T08:39:42.305000+00:00</time>
      </trkpt>
      <trkpt lat="0" lon="0">
        <time>2020-12-20T08:39:42.310000+00:00</time>
      </trkpt>
      <trkpt lat="0" lon="0">
        <time>2020-12-20T08:39:42.313000+00:00</time>
      </trkpt>
      <trkpt lat="47.31512" lon="-1.30504">
        <ele>120</ele>
        <time>2020-12-20T08:39:43.316000+00:00</time>
      </trkpt>
      <trkpt lat="0" lon="0">
        <time>2020-12-20T08:39:43.324000+00:00</time>
      </trkpt>
      <trkpt lat="0" lon="0">
        <time>2020-12-20T08:39:43.330000+00:00</time>
      </trkpt>
      <trkpt lat="0" lon="0">
        <time>2020-12-20T08:39:43.334000+00:00</time>
      </trkpt>
      <trkpt lat="47.31511" lon="-1.30501">
        <ele>119</ele>
        <time>2020-12-20T08:39:44.298000+00:00</time>
      </trkpt>
      <trkpt lat="0" lon="0">
        <time>2020-12-20T08:39:44.317000+00:00</time>
      </trkpt>
      <trkpt lat="0" lon="0">
        <time>2020-12-20T08:39:44.321000+00:00</time>
      </trkpt>
      <trkpt lat="0" lon="0">
        <time>2020-12-20T08:39:44.323000+00:00</time>
      </trkpt>
      <trkpt lat="47.31511" lon="-1.30497">
        <ele>118</ele>
        <time>2020-12-20T08:39:45.297000+00:00</time>
      </trkpt>
      <trkpt lat="0" lon="0">
        <time>2020-12-20T08:39:45.311000+00:00</time>
      </trkpt>
      <trkpt lat="0" lon="0">
        <time>2020-12-20T08:39:45.316000+00:00</time>
      </trkpt>
      <trkpt lat="0" lon="0">
        <time>2020-12-20T08:39:45.320000+00:00</time>
      </trkpt>
      <trkpt lat="47.31511" lon="-1.30493">
        <ele>117</ele>
        <time>2020-12-20T08:39:46.325000+00:00</time>
      </trkpt>
      <trkpt lat="0" lon="0">
        <time>2020-12-20T08:39:46.346000+00:00</time>
      </trkpt>
      <trkpt lat="0" lon="0">
        <time>2020-12-20T08:39:46.354000+00:00</time>
      </trkpt>
      <trkpt lat="0" lon="0">
        <time>2020-12-20T08:39:46.356000+00:00</time>
      </trkpt>
      <trkpt lat="47.31512" lon="-1.30488">
        <ele>116</ele>
        <time>2020-12-20T08:39:47.314000+00:00</time>
      </trkpt>
      <trkpt lat="0" lon="0">
        <time>2020-12-20T08:39:47.328000+00:00</time>
      </trkpt>
      <trkpt lat="0" lon="0">
        <time>2020-12-20T08:39:47.333000+00:00</time>
      </trkpt>
      <trkpt lat="0" lon="0">
        <time>2020-12-20T08:39:47.336000+00:00</time>
      </trkpt>
      <trkpt lat="47.31513" lon="-1.30483">
        <ele>117</ele>
        <time>2020-12-20T08:39:48.304000+00:00</time>
      </trkpt>
      <trkpt lat="0" lon="0">
        <time>2020-12-20T08:39:48.314000+00:00</time>
      </trkpt>
      <trkpt lat="0" lon="0">
        <time>2020-12-20T08:39:48.318000+00:00</time>
      </trkpt>
      <trkpt lat="0" lon="0">
        <time>2020-12-20T08:39:48.321000+00:00</time>
      </trkpt>
      <trkpt lat="47.31515" lon="-1.30479">
        <ele>117</ele>
        <time>2020-12-20T08:39:49.335000+00:00</time>
      </trkpt>
      <trkpt lat="0" lon="0">
        <time>2020-12-20T08:39:49.343000+00:00</time>
      </trkpt>
      <trkpt lat="0" lon="0">
        <time>2020-12-20T08:39:49.345000+00:00</time>
      </trkpt>
      <trkpt lat="0" lon="0">
        <time>2020-12-20T08:39:49.346000+00:00</time>
      </trkpt>
      <trkpt lat="47.31517" lon="-1.30474">
        <ele>116</ele>
        <time>2020-12-20T08:39:50.310000+00:00</time>
      </trkpt>
      <trkpt lat="0" lon="0">
        <time>2020-12-20T08:39:50.316000+00:00</time>
      </trkpt>
      <trkpt lat="0" lon="0">
        <time>2020-12-20T08:39:50.322000+00:00</time>
      </trkpt>
      <trkpt lat="0" lon="0">
        <time>2020-12-20T08:39:50.324000+00:00</time>
      </trkpt>
      <trkpt lat="47.31519" lon="-1.30469">
        <ele>116</ele>
        <time>2020-12-20T08:39:51.325000+00:00</time>
      </trkpt>
      <trkpt lat="0" lon="0">
        <time>2020-12-20T08:39:51.331000+00:00</time>
      </trkpt>
      <trkpt lat="0" lon="0">
        <time>2020-12-20T08:39:51.336000+00:00</time>
      </trkpt>
      <trkpt lat="0" lon="0">
        <time>2020-12-20T08:39:51.339000+00:00</time>
      </trkpt>
      <trkpt lat="47.31521" lon="-1.30464">
        <ele>116</ele>
        <time>2020-12-20T08:39:52.329000+00:00</time>
      </trkpt>
      <trkpt lat="0" lon="0">
        <time>2020-12-20T08:39:52.334000+00:00</time>
      </trkpt>
      <trkpt lat="0" lon="0">
        <time>2020-12-20T08:39:52.353000+00:00</time>
      </trkpt>
      <trkpt lat="0" lon="0">
        <time>2020-12-20T08:39:52.356000+00:00</time>
      </trkpt>
      <trkpt lat="47.31523" lon="-1.30459">
        <ele>117</ele>
        <time>2020-12-20T08:39:53.369000+00:00</time>
      </trkpt>
      <trkpt lat="0" lon="0">
        <time>2020-12-20T08:39:53.397000+00:00</time>
      </trkpt>
      <trkpt lat="0" lon="0">
        <time>2020-12-20T08:39:53.404000+00:00</time>
      </trkpt>
      <trkpt lat="0" lon="0">
        <time>2020-12-20T08:39:53.405000+00:00</time>
      </trkpt>
      <trkpt lat="47.31525" lon="-1.30454">
        <ele>117</ele>
        <time>2020-12-20T08:39:54.346000+00:00</time>
      </trkpt>
      <trkpt lat="0" lon="0">
        <time>2020-12-20T08:39:54.362000+00:00</time>
      </trkpt>
      <trkpt lat="0" lon="0">
        <time>2020-12-20T08:39:54.367000+00:00</time>
      </trkpt>
      <trkpt lat="0" lon="0">
        <time>2020-12-20T08:39:54.370000+00:00</time>
      </trkpt>
      <trkpt lat="47.31527" lon="-1.30449">
        <ele>118</ele>
        <time>2020-12-20T08:39:55.351000+00:00</time>
      </trkpt>
      <trkpt lat="0" lon="0">
        <time>2020-12-20T08:39:55.365000+00:00</time>
      </trkpt>
      <trkpt lat="0" lon="0">
        <time>2020-12-20T08:39:55.375000+00:00</time>
      </trkpt>
      <trkpt lat="0" lon="0">
        <time>2020-12-20T08:39:55.377000+00:00</time>
      </trkpt>
      <trkpt lat="47.31529" lon="-1.30444">
        <ele>118</ele>
        <time>2020-12-20T08:39:56.330000+00:00</time>
      </trkpt>
      <trkpt lat="0" lon="0">
        <time>2020-12-20T08:39:56.337000+00:00</time>
      </trkpt>
      <trkpt lat="0" lon="0">
        <time>2020-12-20T08:39:56.345000+00:00</time>
      </trkpt>
      <trkpt lat="0" lon="0">
        <time>2020-12-20T08:39:56.348000+00:00</time>
      </trkpt>
      <trkpt lat="47.31532" lon="-1.30439">
        <ele>117</ele>
        <time>2020-12-20T08:39:57.312000+00:00</time>
      </trkpt>
      <trkpt lat="0" lon="0">
        <time>2020-12-20T08:39:57.319000+00:00</time>
      </trkpt>
      <trkpt lat="0" lon="0">
        <time>2020-12-20T08:39:57.323000+00:00</time>
      </trkpt>
      <trkpt lat="0" lon="0">
        <time>2020-12-20T08:39:57.325000+00:00</time>
      </trkpt>
      <trkpt lat="47.31534" lon="-1.30434">
        <ele>117</ele>
        <time>2020-12-20T08:39:58.334000+00:00</time>
      </trkpt>
      <trkpt lat="0" lon="0">
        <time>2020-12-20T08:39:58.343000+00:00</time>
      </trkpt>
      <trkpt lat="0" lon="0">
        <time>2020-12-20T08:39:58.345000+00:00</time>
      </trkpt>
      <trkpt lat="0" lon="0">
        <time>2020-12-20T08:39:58.346000+00:00</time>
      </trkpt>
      <trkpt lat="47.31536" lon="-1.30429">
        <ele>117</ele>
        <time>2020-12-20T08:39:59.310000+00:00</time>
      </trkpt>
      <trkpt lat="0" lon="0">
        <time>2020-12-20T08:39:59.329000+00:00</time>
      </trkpt>
      <trkpt lat="0" lon="0">
        <time>2020-12-20T08:39:59.338000+00:00</time>
      </trkpt>
      <trkpt lat="0" lon="0">
        <time>2020-12-20T08:39:59.340000+00:00</time>
      </trkpt>
      <trkpt lat="47.31538" lon="-1.30424">
        <ele>117</ele>
        <time>2020-12-20T08:40:00.320000+00:00</time>
      </trkpt>
      <trkpt lat="0" lon="0">
        <time>2020-12-20T08:40:00.345000+00:00</time>
      </trkpt>
      <trkpt lat="0" lon="0">
        <time>2020-12-20T08:40:00.349000+00:00</time>
      </trkpt>
      <trkpt lat="0" lon="0">
        <time>2020-12-20T08:40:00.350000+00:00</time>
      </trkpt>
      <trkpt lat="47.3154" lon="-1.30419">
        <ele>118</ele>
        <time>2020-12-20T08:40:01.291000+00:00</time>
      </trkpt>
      <trkpt lat="0" lon="0">
        <time>2020-12-20T08:40:01.304000+00:00</time>
      </trkpt>
      <trkpt lat="0" lon="0">
        <time>2020-12-20T08:40:01.309000+00:00</time>
      </trkpt>
      <trkpt lat="0" lon="0">
        <time>2020-12-20T08:40:01.311000+00:00</time>
      </trkpt>
      <trkpt lat="47.31542" lon="-1.30413">
        <ele>116</ele>
        <time>2020-12-20T08:40:02.316000+00:00</time>
      </trkpt>
      <trkpt lat="0" lon="0">
        <time>2020-12-20T08:40:02.326000+00:00</time>
      </trkpt>
      <trkpt lat="0" lon="0">
        <time>2020-12-20T08:40:02.337000+00:00</time>
      </trkpt>
      <trkpt lat="0" lon="0">
        <time>2020-12-20T08:40:02.339000+00:00</time>
      </trkpt>
      <trkpt lat="47.31544" lon="-1.30408">
        <ele>116</ele>
        <time>2020-12-20T08:40:03.340000+00:00</time>
      </trkpt>
      <trkpt lat="0" lon="0">
        <time>2020-12-20T08:40:03.358000+00:00</time>
      </trkpt>
      <trkpt lat="0" lon="0">
        <time>2020-12-20T08:40:03.361000+00:00</time>
      </trkpt>
      <trkpt lat="0" lon="0">
        <time>2020-12-20T08:40:03.362000+00:00</time>
      </trkpt>
      <trkpt lat="47.31546" lon="-1.30403">
        <ele>116</ele>
        <time>2020-12-20T08:40:04.334000+00:00</time>
      </trkpt>
      <trkpt lat="0" lon="0">
        <time>2020-12-20T08:40:04.338000+00:00</time>
      </trkpt>
      <trkpt lat="0" lon="0">
        <time>2020-12-20T08:40:04.347000+00:00</time>
      </trkpt>
      <trkpt lat="0" lon="0">
        <time>2020-12-20T08:40:04.350000+00:00</time>
      </trkpt>
      <trkpt lat="47.31548" lon="-1.30398">
        <ele>116</ele>
        <time>2020-12-20T08:40:05.317000+00:00</time>
      </trkpt>
      <trkpt lat="0" lon="0">
        <time>2020-12-20T08:40:05.327000+00:00</time>
      </trkpt>
      <trkpt lat="0" lon="0">
        <time>2020-12-20T08:40:05.332000+00:00</time>
      </trkpt>
      <trkpt lat="0" lon="0">
        <time>2020-12-20T08:40:05.335000+00:00</time>
      </trkpt>
      <trkpt lat="47.31549" lon="-1.30393">
        <ele>116</ele>
        <time>2020-12-20T08:40:06.309000+00:00</time>
      </trkpt>
      <trkpt lat="0" lon="0">
        <time>2020-12-20T08:40:06.317000+00:00</time>
      </trkpt>
      <trkpt lat="0" lon="0">
        <time>2020-12-20T08:40:06.323000+00:00</time>
      </trkpt>
      <trkpt lat="0" lon="0">
        <time>2020-12-20T08:40:06.326000+00:00</time>
      </trkpt>
      <trkpt lat="47.31551" lon="-1.30388">
        <ele>117</ele>
        <time>2020-12-20T08:40:07.340000+00:00</time>
      </trkpt>
      <trkpt lat="0" lon="0">
        <time>2020-12-20T08:40:07.348000+00:00</time>
      </trkpt>
      <trkpt lat="0" lon="0">
        <time>2020-12-20T08:40:07.360000+00:00</time>
      </trkpt>
      <trkpt lat="0" lon="0">
        <time>2020-12-20T08:40:07.363000+00:00</time>
      </trkpt>
      <trkpt lat="47.31553" lon="-1.30383">
        <ele>117</ele>
        <time>2020-12-20T08:40:08.332000+00:00</time>
      </trkpt>
      <trkpt lat="0" lon="0">
        <time>2020-12-20T08:40:08.341000+00:00</time>
      </trkpt>
      <trkpt lat="0" lon="0">
        <time>2020-12-20T08:40:08.346000+00:00</time>
      </trkpt>
      <trkpt lat="0" lon="0">
        <time>2020-12-20T08:40:08.350000+00:00</time>
      </trkpt>
      <trkpt lat="47.31555" lon="-1.30378">
        <ele>118</ele>
        <time>2020-12-20T08:40:09.338000+00:00</time>
      </trkpt>
      <trkpt lat="0" lon="0">
        <time>2020-12-20T08:40:09.352000+00:00</time>
      </trkpt>
      <trkpt lat="0" lon="0">
        <time>2020-12-20T08:40:09.355000+00:00</time>
      </trkpt>
      <trkpt lat="0" lon="0">
        <time>2020-12-20T08:40:09.358000+00:00</time>
      </trkpt>
      <trkpt lat="47.31556" lon="-1.30373">
        <ele>118</ele>
        <time>2020-12-20T08:40:10.354000+00:00</time>
      </trkpt>
      <trkpt lat="0" lon="0">
        <time>2020-12-20T08:40:10.376000+00:00</time>
      </trkpt>
      <trkpt lat="0" lon="0">
        <time>2020-12-20T08:40:10.384000+00:00</time>
      </trkpt>
      <trkpt lat="0" lon="0">
        <time>2020-12-20T08:40:10.391000+00:00</time>
      </trkpt>
      <trkpt lat="47.31558" lon="-1.30368">
        <ele>118</ele>
        <time>2020-12-20T08:40:11.348000+00:00</time>
      </trkpt>
      <trkpt lat="0" lon="0">
        <time>2020-12-20T08:40:11.357000+00:00</time>
      </trkpt>
      <trkpt lat="0" lon="0">
        <time>2020-12-20T08:40:11.364000+00:00</time>
      </trkpt>
      <trkpt lat="0" lon="0">
        <time>2020-12-20T08:40:11.367000+00:00</time>
      </trkpt>
      <trkpt lat="47.3156" lon="-1.30363">
        <ele>118</ele>
        <time>2020-12-20T08:40:12.261000+00:00</time>
      </trkpt>
      <trkpt lat="0" lon="0">
        <time>2020-12-20T08:40:12.265000+00:00</time>
      </trkpt>
      <trkpt lat="0" lon="0">
        <time>2020-12-20T08:40:12.266000+00:00</time>
      </trkpt>
      <trkpt lat="0" lon="0">
        <time>2020-12-20T08:40:12.270000+00:00</time>
      </trkpt>
      <trkpt lat="47.31562" lon="-1.30358">
        <ele>118</ele>
        <time>2020-12-20T08:40:13.331000+00:00</time>
      </trkpt>
      <trkpt lat="0" lon="0">
        <time>2020-12-20T08:40:13.363000+00:00</time>
      </trkpt>
      <trkpt lat="0" lon="0">
        <time>2020-12-20T08:40:13.369000+00:00</time>
      </trkpt>
      <trkpt lat="0" lon="0">
        <time>2020-12-20T08:40:13.371000+00:00</time>
      </trkpt>
      <trkpt lat="47.31564" lon="-1.30352">
        <ele>118</ele>
        <time>2020-12-20T08:40:14.311000+00:00</time>
      </trkpt>
      <trkpt lat="0" lon="0">
        <time>2020-12-20T08:40:14.316000+00:00</time>
      </trkpt>
      <trkpt lat="0" lon="0">
        <time>2020-12-20T08:40:14.320000+00:00</time>
      </trkpt>
      <trkpt lat="0" lon="0">
        <time>2020-12-20T08:40:14.322000+00:00</time>
      </trkpt>
      <trkpt lat="47.31566" lon="-1.30347">
        <ele>118</ele>
        <time>2020-12-20T08:40:15.326000+00:00</time>
      </trkpt>
      <trkpt lat="0" lon="0">
        <time>2020-12-20T08:40:15.336000+00:00</time>
      </trkpt>
      <trkpt lat="0" lon="0">
        <time>2020-12-20T08:40:15.345000+00:00</time>
      </trkpt>
      <trkpt lat="0" lon="0">
        <time>2020-12-20T08:40:15.348000+00:00</time>
      </trkpt>
      <trkpt lat="47.31568" lon="-1.30342">
        <ele>118</ele>
        <time>2020-12-20T08:40:16.374000+00:00</time>
      </trkpt>
      <trkpt lat="0" lon="0">
        <time>2020-12-20T08:40:16.383000+00:00</time>
      </trkpt>
      <trkpt lat="0" lon="0">
        <time>2020-12-20T08:40:16.385000+00:00</time>
      </trkpt>
      <trkpt lat="0" lon="0">
        <time>2020-12-20T08:40:16.387000+00:00</time>
      </trkpt>
      <trkpt lat="47.3157" lon="-1.30336">
        <ele>118</ele>
        <time>2020-12-20T08:40:17.326000+00:00</time>
      </trkpt>
      <trkpt lat="0" lon="0">
        <time>2020-12-20T08:40:17.336000+00:00</time>
      </trkpt>
      <trkpt lat="0" lon="0">
        <time>2020-12-20T08:40:17.344000+00:00</time>
      </trkpt>
      <trkpt lat="0" lon="0">
        <time>2020-12-20T08:40:17.346000+00:00</time>
      </trkpt>
      <trkpt lat="47.31572" lon="-1.30331">
        <ele>118</ele>
        <time>2020-12-20T08:40:18.326000+00:00</time>
      </trkpt>
      <trkpt lat="0" lon="0">
        <time>2020-12-20T08:40:18.336000+00:00</time>
      </trkpt>
      <trkpt lat="0" lon="0">
        <time>2020-12-20T08:40:18.341000+00:00</time>
      </trkpt>
      <trkpt lat="0" lon="0">
        <time>2020-12-20T08:40:18.343000+00:00</time>
      </trkpt>
      <trkpt lat="47.31574" lon="-1.30325">
        <ele>118</ele>
        <time>2020-12-20T08:40:19.348000+00:00</time>
      </trkpt>
      <trkpt lat="0" lon="0">
        <time>2020-12-20T08:40:19.363000+00:00</time>
      </trkpt>
      <trkpt lat="0" lon="0">
        <time>2020-12-20T08:40:19.368000+00:00</time>
      </trkpt>
      <trkpt lat="0" lon="0">
        <time>2020-12-20T08:40:19.371000+00:00</time>
      </trkpt>
      <trkpt lat="47.31576" lon="-1.3032">
        <ele>118</ele>
        <time>2020-12-20T08:40:20.317000+00:00</time>
      </trkpt>
      <trkpt lat="0" lon="0">
        <time>2020-12-20T08:40:20.337000+00:00</time>
      </trkpt>
      <trkpt lat="0" lon="0">
        <time>2020-12-20T08:40:20.344000+00:00</time>
      </trkpt>
      <trkpt lat="0" lon="0">
        <time>2020-12-20T08:40:20.347000+00:00</time>
      </trkpt>
      <trkpt lat="47.31578" lon="-1.30314">
        <ele>119</ele>
        <time>2020-12-20T08:40:21.306000+00:00</time>
      </trkpt>
      <trkpt lat="0" lon="0">
        <time>2020-12-20T08:40:21.324000+00:00</time>
      </trkpt>
      <trkpt lat="0" lon="0">
        <time>2020-12-20T08:40:21.328000+00:00</time>
      </trkpt>
      <trkpt lat="0" lon="0">
        <time>2020-12-20T08:40:21.330000+00:00</time>
      </trkpt>
      <trkpt lat="47.3158" lon="-1.30308">
        <ele>118</ele>
        <time>2020-12-20T08:40:22.322000+00:00</time>
      </trkpt>
      <trkpt lat="0" lon="0">
        <time>2020-12-20T08:40:22.332000+00:00</time>
      </trkpt>
      <trkpt lat="0" lon="0">
        <time>2020-12-20T08:40:22.336000+00:00</time>
      </trkpt>
      <trkpt lat="0" lon="0">
        <time>2020-12-20T08:40:22.338000+00:00</time>
      </trkpt>
      <trkpt lat="47.31583" lon="-1.30303">
        <ele>118</ele>
        <time>2020-12-20T08:40:23.335000+00:00</time>
      </trkpt>
      <trkpt lat="0" lon="0">
        <time>2020-12-20T08:40:23.358000+00:00</time>
      </trkpt>
      <trkpt lat="0" lon="0">
        <time>2020-12-20T08:40:23.362000+00:00</time>
      </trkpt>
      <trkpt lat="0" lon="0">
        <time>2020-12-20T08:40:23.364000+00:00</time>
      </trkpt>
      <trkpt lat="47.31585" lon="-1.30297">
        <ele>118</ele>
        <time>2020-12-20T08:40:24.363000+00:00</time>
      </trkpt>
      <trkpt lat="0" lon="0">
        <time>2020-12-20T08:40:24.370000+00:00</time>
      </trkpt>
      <trkpt lat="0" lon="0">
        <time>2020-12-20T08:40:24.373000+00:00</time>
      </trkpt>
      <trkpt lat="0" lon="0">
        <time>2020-12-20T08:40:24.375000+00:00</time>
      </trkpt>
      <trkpt lat="47.31587" lon="-1.30291">
        <ele>118</ele>
        <time>2020-12-20T08:40:25.354000+00:00</time>
      </trkpt>
      <trkpt lat="0" lon="0">
        <time>2020-12-20T08:40:25.365000+00:00</time>
      </trkpt>
      <trkpt lat="0" lon="0">
        <time>2020-12-20T08:40:25.371000+00:00</time>
      </trkpt>
      <trkpt lat="0" lon="0">
        <time>2020-12-20T08:40:25.374000+00:00</time>
      </trkpt>
      <trkpt lat="47.31589" lon="-1.30284">
        <ele>117</ele>
        <time>2020-12-20T08:40:26.342000+00:00</time>
      </trkpt>
      <trkpt lat="0" lon="0">
        <time>2020-12-20T08:40:26.352000+00:00</time>
      </trkpt>
      <trkpt lat="0" lon="0">
        <time>2020-12-20T08:40:26.357000+00:00</time>
      </trkpt>
      <trkpt lat="0" lon="0">
        <time>2020-12-20T08:40:26.360000+00:00</time>
      </trkpt>
      <trkpt lat="47.31591" lon="-1.30278">
        <ele>117</ele>
        <time>2020-12-20T08:40:27.352000+00:00</time>
      </trkpt>
      <trkpt lat="0" lon="0">
        <time>2020-12-20T08:40:27.360000+00:00</time>
      </trkpt>
      <trkpt lat="0" lon="0">
        <time>2020-12-20T08:40:27.362000+00:00</time>
      </trkpt>
      <trkpt lat="0" lon="0">
        <time>2020-12-20T08:40:27.363000+00:00</time>
      </trkpt>
      <trkpt lat="47.31594" lon="-1.30272">
        <ele>117</ele>
        <time>2020-12-20T08:40:28.310000+00:00</time>
      </trkpt>
      <trkpt lat="0" lon="0">
        <time>2020-12-20T08:40:28.314000+00:00</time>
      </trkpt>
      <trkpt lat="0" lon="0">
        <time>2020-12-20T08:40:28.320000+00:00</time>
      </trkpt>
      <trkpt lat="0" lon="0">
        <time>2020-12-20T08:40:28.323000+00:00</time>
      </trkpt>
      <trkpt lat="47.31596" lon="-1.30266">
        <ele>117</ele>
        <time>2020-12-20T08:40:29.310000+00:00</time>
      </trkpt>
      <trkpt lat="0" lon="0">
        <time>2020-12-20T08:40:29.332000+00:00</time>
      </trkpt>
      <trkpt lat="0" lon="0">
        <time>2020-12-20T08:40:29.336000+00:00</time>
      </trkpt>
      <trkpt lat="0" lon="0">
        <time>2020-12-20T08:40:29.338000+00:00</time>
      </trkpt>
      <trkpt lat="47.31599" lon="-1.3026">
        <ele>117</ele>
        <time>2020-12-20T08:40:30.343000+00:00</time>
      </trkpt>
      <trkpt lat="0" lon="0">
        <time>2020-12-20T08:40:30.357000+00:00</time>
      </trkpt>
      <trkpt lat="0" lon="0">
        <time>2020-12-20T08:40:30.361000+00:00</time>
      </trkpt>
      <trkpt lat="0" lon="0">
        <time>2020-12-20T08:40:30.364000+00:00</time>
      </trkpt>
      <trkpt lat="47.31602" lon="-1.30256">
        <ele>118</ele>
        <time>2020-12-20T08:40:31.301000+00:00</time>
      </trkpt>
      <trkpt lat="0" lon="0">
        <time>2020-12-20T08:40:31.314000+00:00</time>
      </trkpt>
      <trkpt lat="0" lon="0">
        <time>2020-12-20T08:40:31.317000+00:00</time>
      </trkpt>
      <trkpt lat="0" lon="0">
        <time>2020-12-20T08:40:31.320000+00:00</time>
      </trkpt>
      <trkpt lat="47.31606" lon="-1.30253">
        <ele>118</ele>
        <time>2020-12-20T08:40:32.293000+00:00</time>
      </trkpt>
      <trkpt lat="0" lon="0">
        <time>2020-12-20T08:40:32.301000+00:00</time>
      </trkpt>
      <trkpt lat="0" lon="0">
        <time>2020-12-20T08:40:32.306000+00:00</time>
      </trkpt>
      <trkpt lat="0" lon="0">
        <time>2020-12-20T08:40:32.310000+00:00</time>
      </trkpt>
      <trkpt lat="47.3161" lon="-1.30252">
        <ele>118</ele>
        <time>2020-12-20T08:40:33.316000+00:00</time>
      </trkpt>
      <trkpt lat="0" lon="0">
        <time>2020-12-20T08:40:33.321000+00:00</time>
      </trkpt>
      <trkpt lat="0" lon="0">
        <time>2020-12-20T08:40:33.325000+00:00</time>
      </trkpt>
      <trkpt lat="0" lon="0">
        <time>2020-12-20T08:40:33.328000+00:00</time>
      </trkpt>
      <trkpt lat="47.31614" lon="-1.30253">
        <ele>118</ele>
        <time>2020-12-20T08:40:34.310000+00:00</time>
      </trkpt>
      <trkpt lat="0" lon="0">
        <time>2020-12-20T08:40:34.316000+00:00</time>
      </trkpt>
      <trkpt lat="0" lon="0">
        <time>2020-12-20T08:40:34.325000+00:00</time>
      </trkpt>
      <trkpt lat="0" lon="0">
        <time>2020-12-20T08:40:34.328000+00:00</time>
      </trkpt>
      <trkpt lat="47.31618" lon="-1.30254">
        <ele>118</ele>
        <time>2020-12-20T08:40:35.347000+00:00</time>
      </trkpt>
      <trkpt lat="0" lon="0">
        <time>2020-12-20T08:40:35.357000+00:00</time>
      </trkpt>
      <trkpt lat="0" lon="0">
        <time>2020-12-20T08:40:35.364000+00:00</time>
      </trkpt>
      <trkpt lat="0" lon="0">
        <time>2020-12-20T08:40:35.369000+00:00</time>
      </trkpt>
      <trkpt lat="47.31623" lon="-1.30257">
        <ele>118</ele>
        <time>2020-12-20T08:40:36.338000+00:00</time>
      </trkpt>
      <trkpt lat="0" lon="0">
        <time>2020-12-20T08:40:36.344000+00:00</time>
      </trkpt>
      <trkpt lat="0" lon="0">
        <time>2020-12-20T08:40:36.350000+00:00</time>
      </trkpt>
      <trkpt lat="0" lon="0">
        <time>2020-12-20T08:40:36.352000+00:00</time>
      </trkpt>
      <trkpt lat="47.31629" lon="-1.3026">
        <ele>119</ele>
        <time>2020-12-20T08:40:37.341000+00:00</time>
      </trkpt>
      <trkpt lat="0" lon="0">
        <time>2020-12-20T08:40:37.346000+00:00</time>
      </trkpt>
      <trkpt lat="0" lon="0">
        <time>2020-12-20T08:40:37.351000+00:00</time>
      </trkpt>
      <trkpt lat="0" lon="0">
        <time>2020-12-20T08:40:37.353000+00:00</time>
      </trkpt>
      <trkpt lat="47.31636" lon="-1.30264">
        <ele>118</ele>
        <time>2020-12-20T08:40:38.314000+00:00</time>
      </trkpt>
      <trkpt lat="0" lon="0">
        <time>2020-12-20T08:40:38.316000+00:00</time>
      </trkpt>
      <trkpt lat="0" lon="0">
        <time>2020-12-20T08:40:38.319000+00:00</time>
      </trkpt>
      <trkpt lat="0" lon="0">
        <time>2020-12-20T08:40:38.320000+00:00</time>
      </trkpt>
      <trkpt lat="47.31642" lon="-1.30269">
        <ele>117</ele>
        <time>2020-12-20T08:40:39.286000+00:00</time>
      </trkpt>
      <trkpt lat="0" lon="0">
        <time>2020-12-20T08:40:39.300000+00:00</time>
      </trkpt>
      <trkpt lat="0" lon="0">
        <time>2020-12-20T08:40:39.309000+00:00</time>
      </trkpt>
      <trkpt lat="0" lon="0">
        <time>2020-12-20T08:40:39.312000+00:00</time>
      </trkpt>
      <trkpt lat="47.3165" lon="-1.30274">
        <ele>116</ele>
        <time>2020-12-20T08:40:40.310000+00:00</time>
      </trkpt>
      <trkpt lat="0" lon="0">
        <time>2020-12-20T08:40:40.320000+00:00</time>
      </trkpt>
      <trkpt lat="0" lon="0">
        <time>2020-12-20T08:40:40.325000+00:00</time>
      </trkpt>
      <trkpt lat="0" lon="0">
        <time>2020-12-20T08:40:40.328000+00:00</time>
      </trkpt>
      <trkpt lat="47.31658" lon="-1.30279">
        <ele>115</ele>
        <time>2020-12-20T08:40:41.312000+00:00</time>
      </trkpt>
      <trkpt lat="0" lon="0">
        <time>2020-12-20T08:40:41.317000+00:00</time>
      </trkpt>
      <trkpt lat="0" lon="0">
        <time>2020-12-20T08:40:41.322000+00:00</time>
      </trkpt>
      <trkpt lat="0" lon="0">
        <time>2020-12-20T08:40:41.325000+00:00</time>
      </trkpt>
      <trkpt lat="47.31666" lon="-1.30285">
        <ele>114</ele>
        <time>2020-12-20T08:40:42.298000+00:00</time>
      </trkpt>
      <trkpt lat="0" lon="0">
        <time>2020-12-20T08:40:42.305000+00:00</time>
      </trkpt>
      <trkpt lat="0" lon="0">
        <time>2020-12-20T08:40:42.309000+00:00</time>
      </trkpt>
      <trkpt lat="0" lon="0">
        <time>2020-12-20T08:40:42.312000+00:00</time>
      </trkpt>
      <trkpt lat="47.31675" lon="-1.30291">
        <ele>114</ele>
        <time>2020-12-20T08:40:43.320000+00:00</time>
      </trkpt>
      <trkpt lat="0" lon="0">
        <time>2020-12-20T08:40:43.326000+00:00</time>
      </trkpt>
      <trkpt lat="0" lon="0">
        <time>2020-12-20T08:40:43.331000+00:00</time>
      </trkpt>
      <trkpt lat="0" lon="0">
        <time>2020-12-20T08:40:43.338000+00:00</time>
      </trkpt>
      <trkpt lat="47.31685" lon="-1.30296">
        <ele>113</ele>
        <time>2020-12-20T08:40:44.324000+00:00</time>
      </trkpt>
      <trkpt lat="0" lon="0">
        <time>2020-12-20T08:40:44.339000+00:00</time>
      </trkpt>
      <trkpt lat="0" lon="0">
        <time>2020-12-20T08:40:44.347000+00:00</time>
      </trkpt>
      <trkpt lat="0" lon="0">
        <time>2020-12-20T08:40:44.352000+00:00</time>
      </trkpt>
      <trkpt lat="47.31695" lon="-1.30302">
        <ele>113</ele>
        <time>2020-12-20T08:40:45.311000+00:00</time>
      </trkpt>
      <trkpt lat="0" lon="0">
        <time>2020-12-20T08:40:45.318000+00:00</time>
      </trkpt>
      <trkpt lat="0" lon="0">
        <time>2020-12-20T08:40:45.322000+00:00</time>
      </trkpt>
      <trkpt lat="0" lon="0">
        <time>2020-12-20T08:40:45.325000+00:00</time>
      </trkpt>
      <trkpt lat="47.31705" lon="-1.30307">
        <ele>112</ele>
        <time>2020-12-20T08:40:46.349000+00:00</time>
      </trkpt>
      <trkpt lat="0" lon="0">
        <time>2020-12-20T08:40:46.360000+00:00</time>
      </trkpt>
      <trkpt lat="0" lon="0">
        <time>2020-12-20T08:40:46.375000+00:00</time>
      </trkpt>
      <trkpt lat="0" lon="0">
        <time>2020-12-20T08:40:46.378000+00:00</time>
      </trkpt>
      <trkpt lat="47.31715" lon="-1.30313">
        <ele>112</ele>
        <time>2020-12-20T08:40:47.260000+00:00</time>
      </trkpt>
      <trkpt lat="0" lon="0">
        <time>2020-12-20T08:40:47.261000+00:00</time>
      </trkpt>
      <trkpt lat="0" lon="0">
        <time>2020-12-20T08:40:47.262000+00:00</time>
      </trkpt>
      <trkpt lat="0" lon="0">
        <time>2020-12-20T08:40:47.263000+00:00</time>
      </trkpt>
      <trkpt lat="47.31726" lon="-1.30318">
        <ele>112</ele>
        <time>2020-12-20T08:40:48.278000+00:00</time>
      </trkpt>
      <trkpt lat="0" lon="0">
        <time>2020-12-20T08:40:48.285000+00:00</time>
      </trkpt>
      <trkpt lat="0" lon="0">
        <time>2020-12-20T08:40:48.289000+00:00</time>
      </trkpt>
      <trkpt lat="0" lon="0">
        <time>2020-12-20T08:40:48.294000+00:00</time>
      </trkpt>
      <trkpt lat="47.31737" lon="-1.30323">
        <ele>112</ele>
        <time>2020-12-20T08:40:49.269000+00:00</time>
      </trkpt>
      <trkpt lat="0" lon="0">
        <time>2020-12-20T08:40:49.272000+00:00</time>
      </trkpt>
      <trkpt lat="0" lon="0">
        <time>2020-12-20T08:40:49.273000+00:00</time>
      </trkpt>
      <trkpt lat="0" lon="0">
        <time>2020-12-20T08:40:49.274000+00:00</time>
      </trkpt>
      <trkpt lat="47.31747" lon="-1.30327">
        <ele>112</ele>
        <time>2020-12-20T08:40:50.273000+00:00</time>
      </trkpt>
      <trkpt lat="0" lon="0">
        <time>2020-12-20T08:40:50.278000+00:00</time>
      </trkpt>
      <trkpt lat="0" lon="0">
        <time>2020-12-20T08:40:50.282000+00:00</time>
      </trkpt>
      <trkpt lat="0" lon="0">
        <time>2020-12-20T08:40:50.286000+00:00</time>
      </trkpt>
      <trkpt lat="47.31758" lon="-1.30332">
        <ele>111</ele>
        <time>2020-12-20T08:40:51.289000+00:00</time>
      </trkpt>
      <trkpt lat="0" lon="0">
        <time>2020-12-20T08:40:51.293000+00:00</time>
      </trkpt>
      <trkpt lat="0" lon="0">
        <time>2020-12-20T08:40:51.299000+00:00</time>
      </trkpt>
      <trkpt lat="0" lon="0">
        <time>2020-12-20T08:40:51.302000+00:00</time>
      </trkpt>
      <trkpt lat="47.31768" lon="-1.30336">
        <ele>110</ele>
        <time>2020-12-20T08:40:52.231000+00:00</time>
      </trkpt>
      <trkpt lat="0" lon="0">
        <time>2020-12-20T08:40:52.238000+00:00</time>
      </trkpt>
      <trkpt lat="0" lon="0">
        <time>2020-12-20T08:40:52.245000+00:00</time>
      </trkpt>
      <trkpt lat="0" lon="0">
        <time>2020-12-20T08:40:52.247000+00:00</time>
      </trkpt>
      <trkpt lat="47.31779" lon="-1.3034">
        <ele>109</ele>
        <time>2020-12-20T08:40:53.285000+00:00</time>
      </trkpt>
      <trkpt lat="0" lon="0">
        <time>2020-12-20T08:40:53.298000+00:00</time>
      </trkpt>
      <trkpt lat="0" lon="0">
        <time>2020-12-20T08:40:53.308000+00:00</time>
      </trkpt>
      <trkpt lat="0" lon="0">
        <time>2020-12-20T08:40:53.311000+00:00</time>
      </trkpt>
      <trkpt lat="47.31789" lon="-1.30343">
        <ele>108</ele>
        <time>2020-12-20T08:40:54.297000+00:00</time>
      </trkpt>
      <trkpt lat="0" lon="0">
        <time>2020-12-20T08:40:54.306000+00:00</time>
      </trkpt>
      <trkpt lat="0" lon="0">
        <time>2020-12-20T08:40:54.317000+00:00</time>
      </trkpt>
      <trkpt lat="0" lon="0">
        <time>2020-12-20T08:40:54.319000+00:00</time>
      </trkpt>
      <trkpt lat="47.31799" lon="-1.30346">
        <ele>107</ele>
        <time>2020-12-20T08:40:55.320000+00:00</time>
      </trkpt>
      <trkpt lat="0" lon="0">
        <time>2020-12-20T08:40:55.327000+00:00</time>
      </trkpt>
      <trkpt lat="0" lon="0">
        <time>2020-12-20T08:40:55.333000+00:00</time>
      </trkpt>
      <trkpt lat="0" lon="0">
        <time>2020-12-20T08:40:55.336000+00:00</time>
      </trkpt>
      <trkpt lat="47.31809" lon="-1.30348">
        <ele>106</ele>
        <time>2020-12-20T08:40:56.313000+00:00</time>
      </trkpt>
      <trkpt lat="0" lon="0">
        <time>2020-12-20T08:40:56.318000+00:00</time>
      </trkpt>
      <trkpt lat="0" lon="0">
        <time>2020-12-20T08:40:56.322000+00:00</time>
      </trkpt>
      <trkpt lat="0" lon="0">
        <time>2020-12-20T08:40:56.323000+00:00</time>
      </trkpt>
      <trkpt lat="47.31819" lon="-1.3035">
        <ele>105</ele>
        <time>2020-12-20T08:40:57.282000+00:00</time>
      </trkpt>
      <trkpt lat="0" lon="0">
        <time>2020-12-20T08:40:57.298000+00:00</time>
      </trkpt>
      <trkpt lat="0" lon="0">
        <time>2020-12-20T08:40:57.309000+00:00</time>
      </trkpt>
      <trkpt lat="0" lon="0">
        <time>2020-12-20T08:40:57.311000+00:00</time>
      </trkpt>
      <trkpt lat="47.31829" lon="-1.30352">
        <ele>104</ele>
        <time>2020-12-20T08:40:58.309000+00:00</time>
      </trkpt>
      <trkpt lat="0" lon="0">
        <time>2020-12-20T08:40:58.315000+00:00</time>
      </trkpt>
      <trkpt lat="0" lon="0">
        <time>2020-12-20T08:40:58.326000+00:00</time>
      </trkpt>
      <trkpt lat="0" lon="0">
        <time>2020-12-20T08:40:58.328000+00:00</time>
      </trkpt>
      <trkpt lat="47.31838" lon="-1.30354">
        <ele>103</ele>
        <time>2020-12-20T08:40:59.288000+00:00</time>
      </trkpt>
      <trkpt lat="0" lon="0">
        <time>2020-12-20T08:40:59.302000+00:00</time>
      </trkpt>
      <trkpt lat="0" lon="0">
        <time>2020-12-20T08:40:59.305000+00:00</time>
      </trkpt>
      <trkpt lat="0" lon="0">
        <time>2020-12-20T08:40:59.308000+00:00</time>
      </trkpt>
      <trkpt lat="47.31847" lon="-1.30355">
        <ele>103</ele>
        <time>2020-12-20T08:41:00.285000+00:00</time>
      </trkpt>
      <trkpt lat="0" lon="0">
        <time>2020-12-20T08:41:00.297000+00:00</time>
      </trkpt>
      <trkpt lat="0" lon="0">
        <time>2020-12-20T08:41:00.309000+00:00</time>
      </trkpt>
      <trkpt lat="0" lon="0">
        <time>2020-12-20T08:41:00.318000+00:00</time>
      </trkpt>
      <trkpt lat="47.31857" lon="-1.30357">
        <ele>102</ele>
        <time>2020-12-20T08:41:01.286000+00:00</time>
      </trkpt>
      <trkpt lat="0" lon="0">
        <time>2020-12-20T08:41:01.299000+00:00</time>
      </trkpt>
      <trkpt lat="0" lon="0">
        <time>2020-12-20T08:41:01.306000+00:00</time>
      </trkpt>
      <trkpt lat="0" lon="0">
        <time>2020-12-20T08:41:01.308000+00:00</time>
      </trkpt>
      <trkpt lat="47.31865" lon="-1.30359">
        <ele>101</ele>
        <time>2020-12-20T08:41:02.296000+00:00</time>
      </trkpt>
      <trkpt lat="0" lon="0">
        <time>2020-12-20T08:41:02.303000+00:00</time>
      </trkpt>
      <trkpt lat="0" lon="0">
        <time>2020-12-20T08:41:02.305000+00:00</time>
      </trkpt>
      <trkpt lat="0" lon="0">
        <time>2020-12-20T08:41:02.306000+00:00</time>
      </trkpt>
      <trkpt lat="47.31874" lon="-1.3036">
        <ele>101</ele>
        <time>2020-12-20T08:41:03.298000+00:00</time>
      </trkpt>
      <trkpt lat="0" lon="0">
        <time>2020-12-20T08:41:03.314000+00:00</time>
      </trkpt>
      <trkpt lat="0" lon="0">
        <time>2020-12-20T08:41:03.320000+00:00</time>
      </trkpt>
      <trkpt lat="0" lon="0">
        <time>2020-12-20T08:41:03.324000+00:00</time>
      </trkpt>
      <trkpt lat="47.31882" lon="-1.30362">
        <ele>100</ele>
        <time>2020-12-20T08:41:04.318000+00:00</time>
      </trkpt>
      <trkpt lat="0" lon="0">
        <time>2020-12-20T08:41:04.322000+00:00</time>
      </trkpt>
      <trkpt lat="0" lon="0">
        <time>2020-12-20T08:41:04.333000+00:00</time>
      </trkpt>
      <trkpt lat="0" lon="0">
        <time>2020-12-20T08:41:04.338000+00:00</time>
      </trkpt>
      <trkpt lat="47.3189" lon="-1.30364">
        <ele>99</ele>
        <time>2020-12-20T08:41:05.326000+00:00</time>
      </trkpt>
      <trkpt lat="0" lon="0">
        <time>2020-12-20T08:41:05.347000+00:00</time>
      </trkpt>
      <trkpt lat="0" lon="0">
        <time>2020-12-20T08:41:05.350000+00:00</time>
      </trkpt>
      <trkpt lat="0" lon="0">
        <time>2020-12-20T08:41:05.356000+00:00</time>
      </trkpt>
      <trkpt lat="47.31898" lon="-1.30367">
        <ele>99</ele>
        <time>2020-12-20T08:41:06.325000+00:00</time>
      </trkpt>
      <trkpt lat="0" lon="0">
        <time>2020-12-20T08:41:06.337000+00:00</time>
      </trkpt>
      <trkpt lat="0" lon="0">
        <time>2020-12-20T08:41:06.343000+00:00</time>
      </trkpt>
      <trkpt lat="0" lon="0">
        <time>2020-12-20T08:41:06.347000+00:00</time>
      </trkpt>
      <trkpt lat="47.31906" lon="-1.30369">
        <ele>98</ele>
        <time>2020-12-20T08:41:07.288000+00:00</time>
      </trkpt>
      <trkpt lat="0" lon="0">
        <time>2020-12-20T08:41:07.297000+00:00</time>
      </trkpt>
      <trkpt lat="0" lon="0">
        <time>2020-12-20T08:41:07.300000+00:00</time>
      </trkpt>
      <trkpt lat="0" lon="0">
        <time>2020-12-20T08:41:07.302000+00:00</time>
      </trkpt>
      <trkpt lat="47.31913" lon="-1.30372">
        <ele>98</ele>
        <time>2020-12-20T08:41:08.303000+00:00</time>
      </trkpt>
      <trkpt lat="0" lon="0">
        <time>2020-12-20T08:41:08.310000+00:00</time>
      </trkpt>
      <trkpt lat="0" lon="0">
        <time>2020-12-20T08:41:08.314000+00:00</time>
      </trkpt>
      <trkpt lat="0" lon="0">
        <time>2020-12-20T08:41:08.321000+00:00</time>
      </trkpt>
      <trkpt lat="47.31921" lon="-1.30375">
        <ele>97</ele>
        <time>2020-12-20T08:41:09.313000+00:00</time>
      </trkpt>
      <trkpt lat="0" lon="0">
        <time>2020-12-20T08:41:09.324000+00:00</time>
      </trkpt>
      <trkpt lat="0" lon="0">
        <time>2020-12-20T08:41:09.328000+00:00</time>
      </trkpt>
      <trkpt lat="0" lon="0">
        <time>2020-12-20T08:41:09.331000+00:00</time>
      </trkpt>
      <trkpt lat="47.31929" lon="-1.30379">
        <ele>96</ele>
        <time>2020-12-20T08:41:10.243000+00:00</time>
      </trkpt>
      <trkpt lat="0" lon="0">
        <time>2020-12-20T08:41:10.249000+00:00</time>
      </trkpt>
      <trkpt lat="0" lon="0">
        <time>2020-12-20T08:41:10.253000+00:00</time>
      </trkpt>
      <trkpt lat="0" lon="0">
        <time>2020-12-20T08:41:10.254000+00:00</time>
      </trkpt>
      <trkpt lat="47.31936" lon="-1.30383">
        <ele>95</ele>
        <time>2020-12-20T08:41:11.245000+00:00</time>
      </trkpt>
      <trkpt lat="0" lon="0">
        <time>2020-12-20T08:41:11.248000+00:00</time>
      </trkpt>
      <trkpt lat="0" lon="0">
        <time>2020-12-20T08:41:11.250000+00:00</time>
      </trkpt>
      <trkpt lat="0" lon="0">
        <time>2020-12-20T08:41:11.251000+00:00</time>
      </trkpt>
      <trkpt lat="47.31944" lon="-1.30388">
        <ele>94</ele>
        <time>2020-12-20T08:41:12.280000+00:00</time>
      </trkpt>
      <trkpt lat="0" lon="0">
        <time>2020-12-20T08:41:12.291000+00:00</time>
      </trkpt>
      <trkpt lat="0" lon="0">
        <time>2020-12-20T08:41:12.295000+00:00</time>
      </trkpt>
      <trkpt lat="0" lon="0">
        <time>2020-12-20T08:41:12.298000+00:00</time>
      </trkpt>
      <trkpt lat="47.31952" lon="-1.30393">
        <ele>93</ele>
        <time>2020-12-20T08:41:13.315000+00:00</time>
      </trkpt>
      <trkpt lat="0" lon="0">
        <time>2020-12-20T08:41:13.322000+00:00</time>
      </trkpt>
      <trkpt lat="0" lon="0">
        <time>2020-12-20T08:41:13.324000+00:00</time>
      </trkpt>
      <trkpt lat="0" lon="0">
        <time>2020-12-20T08:41:13.325000+00:00</time>
      </trkpt>
      <trkpt lat="47.3196" lon="-1.30398">
        <ele>92</ele>
        <time>2020-12-20T08:41:14.307000+00:00</time>
      </trkpt>
      <trkpt lat="0" lon="0">
        <time>2020-12-20T08:41:14.318000+00:00</time>
      </trkpt>
      <trkpt lat="0" lon="0">
        <time>2020-12-20T08:41:14.323000+00:00</time>
      </trkpt>
      <trkpt lat="0" lon="0">
        <time>2020-12-20T08:41:14.325000+00:00</time>
      </trkpt>
      <trkpt lat="47.31968" lon="-1.30404">
        <ele>91</ele>
        <time>2020-12-20T08:41:15.290000+00:00</time>
      </trkpt>
      <trkpt lat="0" lon="0">
        <time>2020-12-20T08:41:15.298000+00:00</time>
      </trkpt>
      <trkpt lat="0" lon="0">
        <time>2020-12-20T08:41:15.304000+00:00</time>
      </trkpt>
      <trkpt lat="0" lon="0">
        <time>2020-12-20T08:41:15.306000+00:00</time>
      </trkpt>
      <trkpt lat="47.31976" lon="-1.30411">
        <ele>90</ele>
        <time>2020-12-20T08:41:16.279000+00:00</time>
      </trkpt>
      <trkpt lat="0" lon="0">
        <time>2020-12-20T08:41:16.282000+00:00</time>
      </trkpt>
      <trkpt lat="0" lon="0">
        <time>2020-12-20T08:41:16.289000+00:00</time>
      </trkpt>
      <trkpt lat="0" lon="0">
        <time>2020-12-20T08:41:16.291000+00:00</time>
      </trkpt>
      <trkpt lat="47.31985" lon="-1.30417">
        <ele>89</ele>
        <time>2020-12-20T08:41:17.287000+00:00</time>
      </trkpt>
      <trkpt lat="0" lon="0">
        <time>2020-12-20T08:41:17.289000+00:00</time>
      </trkpt>
      <trkpt lat="0" lon="0">
        <time>2020-12-20T08:41:17.291000+00:00</time>
      </trkpt>
      <trkpt lat="0" lon="0">
        <time>2020-12-20T08:41:17.292000+00:00</time>
      </trkpt>
      <trkpt lat="47.31993" lon="-1.30423">
        <ele>89</ele>
        <time>2020-12-20T08:41:18.287000+00:00</time>
      </trkpt>
      <trkpt lat="0" lon="0">
        <time>2020-12-20T08:41:18.295000+00:00</time>
      </trkpt>
      <trkpt lat="0" lon="0">
        <time>2020-12-20T08:41:18.300000+00:00</time>
      </trkpt>
      <trkpt lat="0" lon="0">
        <time>2020-12-20T08:41:18.302000+00:00</time>
      </trkpt>
      <trkpt lat="47.32002" lon="-1.30429">
        <ele>88</ele>
        <time>2020-12-20T08:41:19.308000+00:00</time>
      </trkpt>
      <trkpt lat="0" lon="0">
        <time>2020-12-20T08:41:19.322000+00:00</time>
      </trkpt>
      <trkpt lat="0" lon="0">
        <time>2020-12-20T08:41:19.327000+00:00</time>
      </trkpt>
      <trkpt lat="0" lon="0">
        <time>2020-12-20T08:41:19.329000+00:00</time>
      </trkpt>
      <trkpt lat="47.32011" lon="-1.30435">
        <ele>88</ele>
        <time>2020-12-20T08:41:20.313000+00:00</time>
      </trkpt>
      <trkpt lat="0" lon="0">
        <time>2020-12-20T08:41:20.321000+00:00</time>
      </trkpt>
      <trkpt lat="0" lon="0">
        <time>2020-12-20T08:41:20.329000+00:00</time>
      </trkpt>
      <trkpt lat="0" lon="0">
        <time>2020-12-20T08:41:20.334000+00:00</time>
      </trkpt>
      <trkpt lat="47.3202" lon="-1.30441">
        <ele>87</ele>
        <time>2020-12-20T08:41:21.274000+00:00</time>
      </trkpt>
      <trkpt lat="0" lon="0">
        <time>2020-12-20T08:41:21.291000+00:00</time>
      </trkpt>
      <trkpt lat="0" lon="0">
        <time>2020-12-20T08:41:21.295000+00:00</time>
      </trkpt>
      <trkpt lat="0" lon="0">
        <time>2020-12-20T08:41:21.297000+00:00</time>
      </trkpt>
      <trkpt lat="47.3203" lon="-1.30447">
        <ele>86</ele>
        <time>2020-12-20T08:41:22.312000+00:00</time>
      </trkpt>
      <trkpt lat="0" lon="0">
        <time>2020-12-20T08:41:22.331000+00:00</time>
      </trkpt>
      <trkpt lat="0" lon="0">
        <time>2020-12-20T08:41:22.343000+00:00</time>
      </trkpt>
      <trkpt lat="0" lon="0">
        <time>2020-12-20T08:41:22.345000+00:00</time>
      </trkpt>
      <trkpt lat="47.3204" lon="-1.30452">
        <ele>85</ele>
        <time>2020-12-20T08:41:23.281000+00:00</time>
      </trkpt>
      <trkpt lat="0" lon="0">
        <time>2020-12-20T08:41:23.291000+00:00</time>
      </trkpt>
      <trkpt lat="0" lon="0">
        <time>2020-12-20T08:41:23.294000+00:00</time>
      </trkpt>
      <trkpt lat="0" lon="0">
        <time>2020-12-20T08:41:23.296000+00:00</time>
      </trkpt>
      <trkpt lat="47.32049" lon="-1.30459">
        <ele>85</ele>
        <time>2020-12-20T08:41:24.298000+00:00</time>
      </trkpt>
      <trkpt lat="0" lon="0">
        <time>2020-12-20T08:41:24.314000+00:00</time>
      </trkpt>
      <trkpt lat="0" lon="0">
        <time>2020-12-20T08:41:24.318000+00:00</time>
      </trkpt>
      <trkpt lat="0" lon="0">
        <time>2020-12-20T08:41:24.322000+00:00</time>
      </trkpt>
      <trkpt lat="47.32058" lon="-1.30465">
        <ele>84</ele>
        <time>2020-12-20T08:41:25.317000+00:00</time>
      </trkpt>
      <trkpt lat="0" lon="0">
        <time>2020-12-20T08:41:25.330000+00:00</time>
      </trkpt>
      <trkpt lat="0" lon="0">
        <time>2020-12-20T08:41:25.334000+00:00</time>
      </trkpt>
      <trkpt lat="0" lon="0">
        <time>2020-12-20T08:41:25.339000+00:00</time>
      </trkpt>
      <trkpt lat="47.32067" lon="-1.30473">
        <ele>84</ele>
        <time>2020-12-20T08:41:26.288000+00:00</time>
      </trkpt>
      <trkpt lat="0" lon="0">
        <time>2020-12-20T08:41:26.294000+00:00</time>
      </trkpt>
      <trkpt lat="0" lon="0">
        <time>2020-12-20T08:41:26.311000+00:00</time>
      </trkpt>
      <trkpt lat="0" lon="0">
        <time>2020-12-20T08:41:26.313000+00:00</time>
      </trkpt>
      <trkpt lat="47.32075" lon="-1.30481">
        <ele>83</ele>
        <time>2020-12-20T08:41:27.292000+00:00</time>
      </trkpt>
      <trkpt lat="0" lon="0">
        <time>2020-12-20T08:41:27.314000+00:00</time>
      </trkpt>
      <trkpt lat="0" lon="0">
        <time>2020-12-20T08:41:27.328000+00:00</time>
      </trkpt>
      <trkpt lat="0" lon="0">
        <time>2020-12-20T08:41:27.329000+00:00</time>
      </trkpt>
      <trkpt lat="47.32082" lon="-1.30491">
        <ele>82</ele>
        <time>2020-12-20T08:41:28.282000+00:00</time>
      </trkpt>
      <trkpt lat="0" lon="0">
        <time>2020-12-20T08:41:28.290000+00:00</time>
      </trkpt>
      <trkpt lat="0" lon="0">
        <time>2020-12-20T08:41:28.294000+00:00</time>
      </trkpt>
      <trkpt lat="0" lon="0">
        <time>2020-12-20T08:41:28.302000+00:00</time>
      </trkpt>
      <trkpt lat="47.32088" lon="-1.30502">
        <ele>80</ele>
        <time>2020-12-20T08:41:29.263000+00:00</time>
      </trkpt>
      <trkpt lat="0" lon="0">
        <time>2020-12-20T08:41:29.279000+00:00</time>
      </trkpt>
      <trkpt lat="0" lon="0">
        <time>2020-12-20T08:41:29.283000+00:00</time>
      </trkpt>
      <trkpt lat="0" lon="0">
        <time>2020-12-20T08:41:29.285000+00:00</time>
      </trkpt>
      <trkpt lat="47.32095" lon="-1.30513">
        <ele>78</ele>
        <time>2020-12-20T08:41:30.274000+00:00</time>
      </trkpt>
      <trkpt lat="0" lon="0">
        <time>2020-12-20T08:41:30.287000+00:00</time>
      </trkpt>
      <trkpt lat="0" lon="0">
        <time>2020-12-20T08:41:30.291000+00:00</time>
      </trkpt>
      <trkpt lat="0" lon="0">
        <time>2020-12-20T08:41:30.296000+00:00</time>
      </trkpt>
      <trkpt lat="47.32101" lon="-1.30524">
        <ele>78</ele>
        <time>2020-12-20T08:41:31.344000+00:00</time>
      </trkpt>
      <trkpt lat="0" lon="0">
        <time>2020-12-20T08:41:31.352000+00:00</time>
      </trkpt>
      <trkpt lat="0" lon="0">
        <time>2020-12-20T08:41:31.357000+00:00</time>
      </trkpt>
      <trkpt lat="0" lon="0">
        <time>2020-12-20T08:41:31.359000+00:00</time>
      </trkpt>
      <trkpt lat="47.32108" lon="-1.30536">
        <ele>76</ele>
        <time>2020-12-20T08:41:32.298000+00:00</time>
      </trkpt>
      <trkpt lat="0" lon="0">
        <time>2020-12-20T08:41:32.303000+00:00</time>
      </trkpt>
      <trkpt lat="0" lon="0">
        <time>2020-12-20T08:41:32.307000+00:00</time>
      </trkpt>
      <trkpt lat="0" lon="0">
        <time>2020-12-20T08:41:32.309000+00:00</time>
      </trkpt>
      <trkpt lat="47.32115" lon="-1.30547">
        <ele>74</ele>
        <time>2020-12-20T08:41:33.291000+00:00</time>
      </trkpt>
      <trkpt lat="0" lon="0">
        <time>2020-12-20T08:41:33.317000+00:00</time>
      </trkpt>
      <trkpt lat="0" lon="0">
        <time>2020-12-20T08:41:33.331000+00:00</time>
      </trkpt>
      <trkpt lat="0" lon="0">
        <time>2020-12-20T08:41:33.332000+00:00</time>
      </trkpt>
      <trkpt lat="47.32122" lon="-1.30557">
        <ele>73</ele>
        <time>2020-12-20T08:41:34.296000+00:00</time>
      </trkpt>
      <trkpt lat="0" lon="0">
        <time>2020-12-20T08:41:34.306000+00:00</time>
      </trkpt>
      <trkpt lat="0" lon="0">
        <time>2020-12-20T08:41:34.313000+00:00</time>
      </trkpt>
      <trkpt lat="0" lon="0">
        <time>2020-12-20T08:41:34.315000+00:00</time>
      </trkpt>
      <trkpt lat="47.32129" lon="-1.30566">
        <ele>73</ele>
        <time>2020-12-20T08:41:35.312000+00:00</time>
      </trkpt>
      <trkpt lat="0" lon="0">
        <time>2020-12-20T08:41:35.335000+00:00</time>
      </trkpt>
      <trkpt lat="0" lon="0">
        <time>2020-12-20T08:41:35.344000+00:00</time>
      </trkpt>
      <trkpt lat="0" lon="0">
        <time>2020-12-20T08:41:35.345000+00:00</time>
      </trkpt>
      <trkpt lat="47.32136" lon="-1.30573">
        <ele>73</ele>
        <time>2020-12-20T08:41:36.332000+00:00</time>
      </trkpt>
      <trkpt lat="0" lon="0">
        <time>2020-12-20T08:41:36.341000+00:00</time>
      </trkpt>
      <trkpt lat="0" lon="0">
        <time>2020-12-20T08:41:36.346000+00:00</time>
      </trkpt>
      <trkpt lat="0" lon="0">
        <time>2020-12-20T08:41:36.348000+00:00</time>
      </trkpt>
      <trkpt lat="47.32143" lon="-1.30579">
        <ele>73</ele>
        <time>2020-12-20T08:41:37.273000+00:00</time>
      </trkpt>
      <trkpt lat="0" lon="0">
        <time>2020-12-20T08:41:37.290000+00:00</time>
      </trkpt>
      <trkpt lat="0" lon="0">
        <time>2020-12-20T08:41:37.295000+00:00</time>
      </trkpt>
      <trkpt lat="0" lon="0">
        <time>2020-12-20T08:41:37.297000+00:00</time>
      </trkpt>
      <trkpt lat="47.3215" lon="-1.30583">
        <ele>72</ele>
        <time>2020-12-20T08:41:38.278000+00:00</time>
      </trkpt>
      <trkpt lat="0" lon="0">
        <time>2020-12-20T08:41:38.287000+00:00</time>
      </trkpt>
      <trkpt lat="0" lon="0">
        <time>2020-12-20T08:41:38.295000+00:00</time>
      </trkpt>
      <trkpt lat="0" lon="0">
        <time>2020-12-20T08:41:38.299000+00:00</time>
      </trkpt>
      <trkpt lat="47.32158" lon="-1.30585">
        <ele>72</ele>
        <time>2020-12-20T08:41:39.307000+00:00</time>
      </trkpt>
      <trkpt lat="0" lon="0">
        <time>2020-12-20T08:41:39.317000+00:00</time>
      </trkpt>
      <trkpt lat="0" lon="0">
        <time>2020-12-20T08:41:39.321000+00:00</time>
      </trkpt>
      <trkpt lat="0" lon="0">
        <time>2020-12-20T08:41:39.323000+00:00</time>
      </trkpt>
      <trkpt lat="47.32165" lon="-1.30585">
        <ele>72</ele>
        <time>2020-12-20T08:41:40.302000+00:00</time>
      </trkpt>
      <trkpt lat="0" lon="0">
        <time>2020-12-20T08:41:40.313000+00:00</time>
      </trkpt>
      <trkpt lat="0" lon="0">
        <time>2020-12-20T08:41:40.319000+00:00</time>
      </trkpt>
      <trkpt lat="0" lon="0">
        <time>2020-12-20T08:41:40.321000+00:00</time>
      </trkpt>
      <trkpt lat="47.32173" lon="-1.30584">
        <ele>72</ele>
        <time>2020-12-20T08:41:41.309000+00:00</time>
      </trkpt>
      <trkpt lat="0" lon="0">
        <time>2020-12-20T08:41:41.314000+00:00</time>
      </trkpt>
      <trkpt lat="0" lon="0">
        <time>2020-12-20T08:41:41.320000+00:00</time>
      </trkpt>
      <trkpt lat="0" lon="0">
        <time>2020-12-20T08:41:41.326000+00:00</time>
      </trkpt>
      <trkpt lat="47.32181" lon="-1.30582">
        <ele>72</ele>
        <time>2020-12-20T08:41:42.349000+00:00</time>
      </trkpt>
      <trkpt lat="0" lon="0">
        <time>2020-12-20T08:41:42.358000+00:00</time>
      </trkpt>
      <trkpt lat="0" lon="0">
        <time>2020-12-20T08:41:42.365000+00:00</time>
      </trkpt>
      <trkpt lat="0" lon="0">
        <time>2020-12-20T08:41:42.367000+00:00</time>
      </trkpt>
      <trkpt lat="47.32189" lon="-1.30579">
        <ele>72</ele>
        <time>2020-12-20T08:41:43.334000+00:00</time>
      </trkpt>
      <trkpt lat="0" lon="0">
        <time>2020-12-20T08:41:43.342000+00:00</time>
      </trkpt>
      <trkpt lat="0" lon="0">
        <time>2020-12-20T08:41:43.346000+00:00</time>
      </trkpt>
      <trkpt lat="0" lon="0">
        <time>2020-12-20T08:41:43.349000+00:00</time>
      </trkpt>
      <trkpt lat="47.32196" lon="-1.30574">
        <ele>73</ele>
        <time>2020-12-20T08:41:44.337000+00:00</time>
      </trkpt>
      <trkpt lat="0" lon="0">
        <time>2020-12-20T08:41:44.356000+00:00</time>
      </trkpt>
      <trkpt lat="0" lon="0">
        <time>2020-12-20T08:41:44.359000+00:00</time>
      </trkpt>
      <trkpt lat="0" lon="0">
        <time>2020-12-20T08:41:44.361000+00:00</time>
      </trkpt>
      <trkpt lat="47.32203" lon="-1.30568">
        <ele>72</ele>
        <time>2020-12-20T08:41:45.318000+00:00</time>
      </trkpt>
      <trkpt lat="0" lon="0">
        <time>2020-12-20T08:41:45.328000+00:00</time>
      </trkpt>
      <trkpt lat="0" lon="0">
        <time>2020-12-20T08:41:45.333000+00:00</time>
      </trkpt>
      <trkpt lat="0" lon="0">
        <time>2020-12-20T08:41:45.335000+00:00</time>
      </trkpt>
      <trkpt lat="47.3221" lon="-1.30562">
        <ele>72</ele>
        <time>2020-12-20T08:41:46.307000+00:00</time>
      </trkpt>
      <trkpt lat="0" lon="0">
        <time>2020-12-20T08:41:46.312000+00:00</time>
      </trkpt>
      <trkpt lat="0" lon="0">
        <time>2020-12-20T08:41:46.321000+00:00</time>
      </trkpt>
      <trkpt lat="0" lon="0">
        <time>2020-12-20T08:41:46.324000+00:00</time>
      </trkpt>
      <trkpt lat="47.32217" lon="-1.30555">
        <ele>71</ele>
        <time>2020-12-20T08:41:47.350000+00:00</time>
      </trkpt>
      <trkpt lat="0" lon="0">
        <time>2020-12-20T08:41:47.361000+00:00</time>
      </trkpt>
      <trkpt lat="0" lon="0">
        <time>2020-12-20T08:41:47.373000+00:00</time>
      </trkpt>
      <trkpt lat="0" lon="0">
        <time>2020-12-20T08:41:47.377000+00:00</time>
      </trkpt>
      <trkpt lat="47.32225" lon="-1.30548">
        <ele>70</ele>
        <time>2020-12-20T08:41:48.353000+00:00</time>
      </trkpt>
      <trkpt lat="0" lon="0">
        <time>2020-12-20T08:41:48.357000+00:00</time>
      </trkpt>
      <trkpt lat="0" lon="0">
        <time>2020-12-20T08:41:48.363000+00:00</time>
      </trkpt>
      <trkpt lat="0" lon="0">
        <time>2020-12-20T08:41:48.366000+00:00</time>
      </trkpt>
      <trkpt lat="47.32232" lon="-1.30541">
        <ele>70</ele>
        <time>2020-12-20T08:41:49.328000+00:00</time>
      </trkpt>
      <trkpt lat="0" lon="0">
        <time>2020-12-20T08:41:49.342000+00:00</time>
      </trkpt>
      <trkpt lat="0" lon="0">
        <time>2020-12-20T08:41:49.346000+00:00</time>
      </trkpt>
      <trkpt lat="0" lon="0">
        <time>2020-12-20T08:41:49.349000+00:00</time>
      </trkpt>
      <trkpt lat="47.3224" lon="-1.30533">
        <ele>69</ele>
        <time>2020-12-20T08:41:50.319000+00:00</time>
      </trkpt>
      <trkpt lat="0" lon="0">
        <time>2020-12-20T08:41:50.327000+00:00</time>
      </trkpt>
      <trkpt lat="0" lon="0">
        <time>2020-12-20T08:41:50.329000+00:00</time>
      </trkpt>
      <trkpt lat="0" lon="0">
        <time>2020-12-20T08:41:50.330000+00:00</time>
      </trkpt>
      <trkpt lat="47.32248" lon="-1.30526">
        <ele>69</ele>
        <time>2020-12-20T08:41:51.320000+00:00</time>
      </trkpt>
      <trkpt lat="0" lon="0">
        <time>2020-12-20T08:41:51.328000+00:00</time>
      </trkpt>
      <trkpt lat="0" lon="0">
        <time>2020-12-20T08:41:51.333000+00:00</time>
      </trkpt>
      <trkpt lat="0" lon="0">
        <time>2020-12-20T08:41:51.336000+00:00</time>
      </trkpt>
      <trkpt lat="47.32255" lon="-1.3052">
        <ele>69</ele>
        <time>2020-12-20T08:41:52.320000+00:00</time>
      </trkpt>
      <trkpt lat="0" lon="0">
        <time>2020-12-20T08:41:52.345000+00:00</time>
      </trkpt>
      <trkpt lat="0" lon="0">
        <time>2020-12-20T08:41:52.352000+00:00</time>
      </trkpt>
      <trkpt lat="0" lon="0">
        <time>2020-12-20T08:41:52.359000+00:00</time>
      </trkpt>
      <trkpt lat="47.32262" lon="-1.30514">
        <ele>69</ele>
        <time>2020-12-20T08:41:53.297000+00:00</time>
      </trkpt>
      <trkpt lat="0" lon="0">
        <time>2020-12-20T08:41:53.305000+00:00</time>
      </trkpt>
      <trkpt lat="0" lon="0">
        <time>2020-12-20T08:41:53.309000+00:00</time>
      </trkpt>
      <trkpt lat="0" lon="0">
        <time>2020-12-20T08:41:53.312000+00:00</time>
      </trkpt>
      <trkpt lat="47.32269" lon="-1.3051">
        <ele>68</ele>
        <time>2020-12-20T08:41:54.330000+00:00</time>
      </trkpt>
      <trkpt lat="0" lon="0">
        <time>2020-12-20T08:41:54.347000+00:00</time>
      </trkpt>
      <trkpt lat="0" lon="0">
        <time>2020-12-20T08:41:54.353000+00:00</time>
      </trkpt>
      <trkpt lat="0" lon="0">
        <time>2020-12-20T08:41:54.355000+00:00</time>
      </trkpt>
      <trkpt lat="47.32275" lon="-1.30507">
        <ele>69</ele>
        <time>2020-12-20T08:41:55.317000+00:00</time>
      </trkpt>
      <trkpt lat="0" lon="0">
        <time>2020-12-20T08:41:55.330000+00:00</time>
      </trkpt>
      <trkpt lat="0" lon="0">
        <time>2020-12-20T08:41:55.335000+00:00</time>
      </trkpt>
      <trkpt lat="0" lon="0">
        <time>2020-12-20T08:41:55.337000+00:00</time>
      </trkpt>
      <trkpt lat="47.3228" lon="-1.30504">
        <ele>68</ele>
        <time>2020-12-20T08:41:56.304000+00:00</time>
      </trkpt>
      <trkpt lat="0" lon="0">
        <time>2020-12-20T08:41:56.312000+00:00</time>
      </trkpt>
      <trkpt lat="0" lon="0">
        <time>2020-12-20T08:41:56.314000+00:00</time>
      </trkpt>
      <trkpt lat="0" lon="0">
        <time>2020-12-20T08:41:56.315000+00:00</time>
      </trkpt>
      <trkpt lat="47.32285" lon="-1.30502">
        <ele>68</ele>
        <time>2020-12-20T08:41:57.294000+00:00</time>
      </trkpt>
      <trkpt lat="0" lon="0">
        <time>2020-12-20T08:41:57.312000+00:00</time>
      </trkpt>
      <trkpt lat="0" lon="0">
        <time>2020-12-20T08:41:57.316000+00:00</time>
      </trkpt>
      <trkpt lat="0" lon="0">
        <time>2020-12-20T08:41:57.318000+00:00</time>
      </trkpt>
      <trkpt lat="47.32289" lon="-1.305">
        <ele>68</ele>
        <time>2020-12-20T08:41:58.332000+00:00</time>
      </trkpt>
      <trkpt lat="0" lon="0">
        <time>2020-12-20T08:41:58.343000+00:00</time>
      </trkpt>
      <trkpt lat="0" lon="0">
        <time>2020-12-20T08:41:58.347000+00:00</time>
      </trkpt>
      <trkpt lat="0" lon="0">
        <time>2020-12-20T08:41:58.350000+00:00</time>
      </trkpt>
      <trkpt lat="47.32293" lon="-1.30498">
        <ele>68</ele>
        <time>2020-12-20T08:41:59.277000+00:00</time>
      </trkpt>
      <trkpt lat="0" lon="0">
        <time>2020-12-20T08:41:59.294000+00:00</time>
      </trkpt>
      <trkpt lat="0" lon="0">
        <time>2020-12-20T08:41:59.307000+00:00</time>
      </trkpt>
      <trkpt lat="0" lon="0">
        <time>2020-12-20T08:41:59.312000+00:00</time>
      </trkpt>
      <trkpt lat="47.32296" lon="-1.30496">
        <ele>68</ele>
        <time>2020-12-20T08:42:00.270000+00:00</time>
      </trkpt>
      <trkpt lat="0" lon="0">
        <time>2020-12-20T08:42:00.279000+00:00</time>
      </trkpt>
      <trkpt lat="0" lon="0">
        <time>2020-12-20T08:42:00.282000+00:00</time>
      </trkpt>
      <trkpt lat="0" lon="0">
        <time>2020-12-20T08:42:00.285000+00:00</time>
      </trkpt>
      <trkpt lat="47.32299" lon="-1.30494">
        <ele>68</ele>
        <time>2020-12-20T08:42:01.276000+00:00</time>
      </trkpt>
      <trkpt lat="0" lon="0">
        <time>2020-12-20T08:42:01.292000+00:00</time>
      </trkpt>
      <trkpt lat="0" lon="0">
        <time>2020-12-20T08:42:01.298000+00:00</time>
      </trkpt>
      <trkpt lat="0" lon="0">
        <time>2020-12-20T08:42:01.300000+00:00</time>
      </trkpt>
      <trkpt lat="47.32301" lon="-1.30492">
        <ele>68</ele>
        <time>2020-12-20T08:42:02.360000+00:00</time>
      </trkpt>
      <trkpt lat="0" lon="0">
        <time>2020-12-20T08:42:02.364000+00:00</time>
      </trkpt>
      <trkpt lat="0" lon="0">
        <time>2020-12-20T08:42:02.366000+00:00</time>
      </trkpt>
      <trkpt lat="0" lon="0">
        <time>2020-12-20T08:42:02.368000+00:00</time>
      </trkpt>
      <trkpt lat="47.32303" lon="-1.3049">
        <ele>68</ele>
        <time>2020-12-20T08:42:03.305000+00:00</time>
      </trkpt>
      <trkpt lat="0" lon="0">
        <time>2020-12-20T08:42:03.316000+00:00</time>
      </trkpt>
      <trkpt lat="0" lon="0">
        <time>2020-12-20T08:42:03.318000+00:00</time>
      </trkpt>
      <trkpt lat="0" lon="0">
        <time>2020-12-20T08:42:03.319000+00:00</time>
      </trkpt>
      <trkpt lat="47.32304" lon="-1.30489">
        <ele>68</ele>
        <time>2020-12-20T08:42:04.309000+00:00</time>
      </trkpt>
      <trkpt lat="0" lon="0">
        <time>2020-12-20T08:42:04.311000+00:00</time>
      </trkpt>
      <trkpt lat="0" lon="0">
        <time>2020-12-20T08:42:04.313000+00:00</time>
      </trkpt>
      <trkpt lat="0" lon="0">
        <time>2020-12-20T08:42:04.315000+00:00</time>
      </trkpt>
      <trkpt lat="47.32305" lon="-1.30487">
        <ele>68</ele>
        <time>2020-12-20T08:42:05.289000+00:00</time>
      </trkpt>
      <trkpt lat="0" lon="0">
        <time>2020-12-20T08:42:05.299000+00:00</time>
      </trkpt>
      <trkpt lat="0" lon="0">
        <time>2020-12-20T08:42:05.305000+00:00</time>
      </trkpt>
      <trkpt lat="0" lon="0">
        <time>2020-12-20T08:42:05.323000+00:00</time>
      </trkpt>
      <trkpt lat="47.32306" lon="-1.30486">
        <ele>69</ele>
        <time>2020-12-20T08:42:06.330000+00:00</time>
      </trkpt>
      <trkpt lat="0" lon="0">
        <time>2020-12-20T08:42:06.343000+00:00</time>
      </trkpt>
      <trkpt lat="0" lon="0">
        <time>2020-12-20T08:42:06.345000+00:00</time>
      </trkpt>
      <trkpt lat="0" lon="0">
        <time>2020-12-20T08:42:06.346000+00:00</time>
      </trkpt>
      <trkpt lat="47.32306" lon="-1.30484">
        <ele>69</ele>
        <time>2020-12-20T08:42:07.312000+00:00</time>
      </trkpt>
      <trkpt lat="0" lon="0">
        <time>2020-12-20T08:42:07.316000+00:00</time>
      </trkpt>
      <trkpt lat="0" lon="0">
        <time>2020-12-20T08:42:07.319000+00:00</time>
      </trkpt>
      <trkpt lat="0" lon="0">
        <time>2020-12-20T08:42:07.321000+00:00</time>
      </trkpt>
      <trkpt lat="47.32307" lon="-1.30483">
        <ele>69</ele>
        <time>2020-12-20T08:42:08.278000+00:00</time>
      </trkpt>
      <trkpt lat="0" lon="0">
        <time>2020-12-20T08:42:08.284000+00:00</time>
      </trkpt>
      <trkpt lat="0" lon="0">
        <time>2020-12-20T08:42:08.290000+00:00</time>
      </trkpt>
      <trkpt lat="0" lon="0">
        <time>2020-12-20T08:42:08.292000+00:00</time>
      </trkpt>
      <trkpt lat="47.32307" lon="-1.30481">
        <ele>70</ele>
        <time>2020-12-20T08:42:09.318000+00:00</time>
      </trkpt>
      <trkpt lat="0" lon="0">
        <time>2020-12-20T08:42:09.326000+00:00</time>
      </trkpt>
      <trkpt lat="0" lon="0">
        <time>2020-12-20T08:42:09.330000+00:00</time>
      </trkpt>
      <trkpt lat="0" lon="0">
        <time>2020-12-20T08:42:09.334000+00:00</time>
      </trkpt>
      <trkpt lat="47.32308" lon="-1.3048">
        <ele>70</ele>
        <time>2020-12-20T08:42:10.282000+00:00</time>
      </trkpt>
      <trkpt lat="0" lon="0">
        <time>2020-12-20T08:42:10.301000+00:00</time>
      </trkpt>
      <trkpt lat="0" lon="0">
        <time>2020-12-20T08:42:10.306000+00:00</time>
      </trkpt>
      <trkpt lat="0" lon="0">
        <time>2020-12-20T08:42:10.313000+00:00</time>
      </trkpt>
      <trkpt lat="47.32308" lon="-1.30478">
        <ele>70</ele>
        <time>2020-12-20T08:42:11.244000+00:00</time>
      </trkpt>
      <trkpt lat="0" lon="0">
        <time>2020-12-20T08:42:11.251000+00:00</time>
      </trkpt>
      <trkpt lat="0" lon="0">
        <time>2020-12-20T08:42:11.255000+00:00</time>
      </trkpt>
      <trkpt lat="0" lon="0">
        <time>2020-12-20T08:42:11.257000+00:00</time>
      </trkpt>
      <trkpt lat="47.32309" lon="-1.30476">
        <ele>70</ele>
        <time>2020-12-20T08:42:12.294000+00:00</time>
      </trkpt>
      <trkpt lat="0" lon="0">
        <time>2020-12-20T08:42:12.309000+00:00</time>
      </trkpt>
      <trkpt lat="0" lon="0">
        <time>2020-12-20T08:42:12.313000+00:00</time>
      </trkpt>
      <trkpt lat="0" lon="0">
        <time>2020-12-20T08:42:12.315000+00:00</time>
      </trkpt>
      <trkpt lat="47.32309" lon="-1.30474">
        <ele>70</ele>
        <time>2020-12-20T08:42:13.267000+00:00</time>
      </trkpt>
      <trkpt lat="0" lon="0">
        <time>2020-12-20T08:42:13.278000+00:00</time>
      </trkpt>
      <trkpt lat="0" lon="0">
        <time>2020-12-20T08:42:13.282000+00:00</time>
      </trkpt>
      <trkpt lat="0" lon="0">
        <time>2020-12-20T08:42:13.284000+00:00</time>
      </trkpt>
      <trkpt lat="47.3231" lon="-1.30472">
        <ele>71</ele>
        <time>2020-12-20T08:42:14.259000+00:00</time>
      </trkpt>
      <trkpt lat="0" lon="0">
        <time>2020-12-20T08:42:14.268000+00:00</time>
      </trkpt>
      <trkpt lat="0" lon="0">
        <time>2020-12-20T08:42:14.272000+00:00</time>
      </trkpt>
      <trkpt lat="0" lon="0">
        <time>2020-12-20T08:42:14.274000+00:00</time>
      </trkpt>
      <trkpt lat="47.32311" lon="-1.3047">
        <ele>71</ele>
        <time>2020-12-20T08:42:15.346000+00:00</time>
      </trkpt>
      <trkpt lat="0" lon="0">
        <time>2020-12-20T08:42:15.350000+00:00</time>
      </trkpt>
      <trkpt lat="0" lon="0">
        <time>2020-12-20T08:42:15.366000+00:00</time>
      </trkpt>
      <trkpt lat="0" lon="0">
        <time>2020-12-20T08:42:15.368000+00:00</time>
      </trkpt>
      <trkpt lat="47.32312" lon="-1.30468">
        <ele>71</ele>
        <time>2020-12-20T08:42:16.285000+00:00</time>
      </trkpt>
      <trkpt lat="0" lon="0">
        <time>2020-12-20T08:42:16.289000+00:00</time>
      </trkpt>
      <trkpt lat="0" lon="0">
        <time>2020-12-20T08:42:16.293000+00:00</time>
      </trkpt>
      <trkpt lat="0" lon="0">
        <time>2020-12-20T08:42:16.295000+00:00</time>
      </trkpt>
      <trkpt lat="47.32313" lon="-1.30466">
        <ele>71</ele>
        <time>2020-12-20T08:42:17.355000+00:00</time>
      </trkpt>
      <trkpt lat="0" lon="0">
        <time>2020-12-20T08:42:17.369000+00:00</time>
      </trkpt>
      <trkpt lat="0" lon="0">
        <time>2020-12-20T08:42:17.373000+00:00</time>
      </trkpt>
      <trkpt lat="0" lon="0">
        <time>2020-12-20T08:42:17.376000+00:00</time>
      </trkpt>
      <trkpt lat="47.32315" lon="-1.30464">
        <ele>71</ele>
        <time>2020-12-20T08:42:18.320000+00:00</time>
      </trkpt>
      <trkpt lat="0" lon="0">
        <time>2020-12-20T08:42:18.326000+00:00</time>
      </trkpt>
      <trkpt lat="0" lon="0">
        <time>2020-12-20T08:42:18.328000+00:00</time>
      </trkpt>
      <trkpt lat="0" lon="0">
        <time>2020-12-20T08:42:18.330000+00:00</time>
      </trkpt>
      <trkpt lat="47.32316" lon="-1.30461">
        <ele>71</ele>
        <time>2020-12-20T08:42:19.283000+00:00</time>
      </trkpt>
      <trkpt lat="0" lon="0">
        <time>2020-12-20T08:42:19.288000+00:00</time>
      </trkpt>
      <trkpt lat="0" lon="0">
        <time>2020-12-20T08:42:19.296000+00:00</time>
      </trkpt>
      <trkpt lat="0" lon="0">
        <time>2020-12-20T08:42:19.298000+00:00</time>
      </trkpt>
      <trkpt lat="47.32318" lon="-1.30459">
        <ele>71</ele>
        <time>2020-12-20T08:42:20.276000+00:00</time>
      </trkpt>
      <trkpt lat="0" lon="0">
        <time>2020-12-20T08:42:20.282000+00:00</time>
      </trkpt>
      <trkpt lat="0" lon="0">
        <time>2020-12-20T08:42:20.285000+00:00</time>
      </trkpt>
      <trkpt lat="0" lon="0">
        <time>2020-12-20T08:42:20.287000+00:00</time>
      </trkpt>
      <trkpt lat="47.3232" lon="-1.30456">
        <ele>71</ele>
        <time>2020-12-20T08:42:21.269000+00:00</time>
      </trkpt>
      <trkpt lat="0" lon="0">
        <time>2020-12-20T08:42:21.275000+00:00</time>
      </trkpt>
      <trkpt lat="0" lon="0">
        <time>2020-12-20T08:42:21.285000+00:00</time>
      </trkpt>
      <trkpt lat="0" lon="0">
        <time>2020-12-20T08:42:21.287000+00:00</time>
      </trkpt>
      <trkpt lat="47.32322" lon="-1.30453">
        <ele>71</ele>
        <time>2020-12-20T08:42:22.287000+00:00</time>
      </trkpt>
      <trkpt lat="0" lon="0">
        <time>2020-12-20T08:42:22.297000+00:00</time>
      </trkpt>
      <trkpt lat="0" lon="0">
        <time>2020-12-20T08:42:22.309000+00:00</time>
      </trkpt>
      <trkpt lat="0" lon="0">
        <time>2020-12-20T08:42:22.311000+00:00</time>
      </trkpt>
      <trkpt lat="47.32324" lon="-1.3045">
        <ele>71</ele>
        <time>2020-12-20T08:42:23.287000+00:00</time>
      </trkpt>
      <trkpt lat="0" lon="0">
        <time>2020-12-20T08:42:23.301000+00:00</time>
      </trkpt>
      <trkpt lat="0" lon="0">
        <time>2020-12-20T08:42:23.305000+00:00</time>
      </trkpt>
      <trkpt lat="0" lon="0">
        <time>2020-12-20T08:42:23.310000+00:00</time>
      </trkpt>
      <trkpt lat="47.32327" lon="-1.30447">
        <ele>71</ele>
        <time>2020-12-20T08:42:24.331000+00:00</time>
      </trkpt>
      <trkpt lat="0" lon="0">
        <time>2020-12-20T08:42:24.340000+00:00</time>
      </trkpt>
      <trkpt lat="0" lon="0">
        <time>2020-12-20T08:42:24.342000+00:00</time>
      </trkpt>
      <trkpt lat="0" lon="0">
        <time>2020-12-20T08:42:24.344000+00:00</time>
      </trkpt>
      <trkpt lat="47.32329" lon="-1.30443">
        <ele>70</ele>
        <time>2020-12-20T08:42:25.279000+00:00</time>
      </trkpt>
      <trkpt lat="0" lon="0">
        <time>2020-12-20T08:42:25.285000+00:00</time>
      </trkpt>
      <trkpt lat="0" lon="0">
        <time>2020-12-20T08:42:25.286000+00:00</time>
      </trkpt>
      <trkpt lat="0" lon="0">
        <time>2020-12-20T08:42:25.287000+00:00</time>
      </trkpt>
      <trkpt lat="47.32332" lon="-1.30439">
        <ele>70</ele>
        <time>2020-12-20T08:42:26.274000+00:00</time>
      </trkpt>
      <trkpt lat="0" lon="0">
        <time>2020-12-20T08:42:26.282000+00:00</time>
      </trkpt>
      <trkpt lat="0" lon="0">
        <time>2020-12-20T08:42:26.286000+00:00</time>
      </trkpt>
      <trkpt lat="0" lon="0">
        <time>2020-12-20T08:42:26.289000+00:00</time>
      </trkpt>
      <trkpt lat="47.32335" lon="-1.30435">
        <ele>71</ele>
        <time>2020-12-20T08:42:27.298000+00:00</time>
      </trkpt>
      <trkpt lat="0" lon="0">
        <time>2020-12-20T08:42:27.302000+00:00</time>
      </trkpt>
      <trkpt lat="0" lon="0">
        <time>2020-12-20T08:42:27.310000+00:00</time>
      </trkpt>
      <trkpt lat="0" lon="0">
        <time>2020-12-20T08:42:27.312000+00:00</time>
      </trkpt>
      <trkpt lat="47.32338" lon="-1.30431">
        <ele>71</ele>
        <time>2020-12-20T08:42:28.303000+00:00</time>
      </trkpt>
      <trkpt lat="0" lon="0">
        <time>2020-12-20T08:42:28.307000+00:00</time>
      </trkpt>
      <trkpt lat="0" lon="0">
        <time>2020-12-20T08:42:28.311000+00:00</time>
      </trkpt>
      <trkpt lat="0" lon="0">
        <time>2020-12-20T08:42:28.314000+00:00</time>
      </trkpt>
      <trkpt lat="47.32341" lon="-1.30427">
        <ele>71</ele>
        <time>2020-12-20T08:42:29.277000+00:00</time>
      </trkpt>
      <trkpt lat="0" lon="0">
        <time>2020-12-20T08:42:29.288000+00:00</time>
      </trkpt>
      <trkpt lat="0" lon="0">
        <time>2020-12-20T08:42:29.293000+00:00</time>
      </trkpt>
      <trkpt lat="0" lon="0">
        <time>2020-12-20T08:42:29.295000+00:00</time>
      </trkpt>
      <trkpt lat="47.32344" lon="-1.30423">
        <ele>70</ele>
        <time>2020-12-20T08:42:30.290000+00:00</time>
      </trkpt>
      <trkpt lat="0" lon="0">
        <time>2020-12-20T08:42:30.297000+00:00</time>
      </trkpt>
      <trkpt lat="0" lon="0">
        <time>2020-12-20T08:42:30.306000+00:00</time>
      </trkpt>
      <trkpt lat="0" lon="0">
        <time>2020-12-20T08:42:30.310000+00:00</time>
      </trkpt>
      <trkpt lat="47.32348" lon="-1.30419">
        <ele>69</ele>
        <time>2020-12-20T08:42:31.280000+00:00</time>
      </trkpt>
      <trkpt lat="0" lon="0">
        <time>2020-12-20T08:42:31.294000+00:00</time>
      </trkpt>
      <trkpt lat="0" lon="0">
        <time>2020-12-20T08:42:31.300000+00:00</time>
      </trkpt>
      <trkpt lat="0" lon="0">
        <time>2020-12-20T08:42:31.307000+00:00</time>
      </trkpt>
      <trkpt lat="47.32351" lon="-1.30415">
        <ele>68</ele>
        <time>2020-12-20T08:42:32.282000+00:00</time>
      </trkpt>
      <trkpt lat="0" lon="0">
        <time>2020-12-20T08:42:32.294000+00:00</time>
      </trkpt>
      <trkpt lat="0" lon="0">
        <time>2020-12-20T08:42:32.305000+00:00</time>
      </trkpt>
      <trkpt lat="0" lon="0">
        <time>2020-12-20T08:42:32.307000+00:00</time>
      </trkpt>
      <trkpt lat="47.32355" lon="-1.30411">
        <ele>68</ele>
        <time>2020-12-20T08:42:33.312000+00:00</time>
      </trkpt>
      <trkpt lat="0" lon="0">
        <time>2020-12-20T08:42:33.321000+00:00</time>
      </trkpt>
      <trkpt lat="0" lon="0">
        <time>2020-12-20T08:42:33.326000+00:00</time>
      </trkpt>
      <trkpt lat="0" lon="0">
        <time>2020-12-20T08:42:33.329000+00:00</time>
      </trkpt>
      <trkpt lat="47.32359" lon="-1.30406">
        <ele>68</ele>
        <time>2020-12-20T08:42:34.288000+00:00</time>
      </trkpt>
      <trkpt lat="0" lon="0">
        <time>2020-12-20T08:42:34.296000+00:00</time>
      </trkpt>
      <trkpt lat="0" lon="0">
        <time>2020-12-20T08:42:34.300000+00:00</time>
      </trkpt>
      <trkpt lat="0" lon="0">
        <time>2020-12-20T08:42:34.302000+00:00</time>
      </trkpt>
      <trkpt lat="47.32363" lon="-1.30403">
        <ele>67</ele>
        <time>2020-12-20T08:42:35.292000+00:00</time>
      </trkpt>
      <trkpt lat="0" lon="0">
        <time>2020-12-20T08:42:35.298000+00:00</time>
      </trkpt>
      <trkpt lat="0" lon="0">
        <time>2020-12-20T08:42:35.302000+00:00</time>
      </trkpt>
      <trkpt lat="0" lon="0">
        <time>2020-12-20T08:42:35.305000+00:00</time>
      </trkpt>
      <trkpt lat="47.32366" lon="-1.30399">
        <ele>67</ele>
        <time>2020-12-20T08:42:36.267000+00:00</time>
      </trkpt>
      <trkpt lat="0" lon="0">
        <time>2020-12-20T08:42:36.285000+00:00</time>
      </trkpt>
      <trkpt lat="0" lon="0">
        <time>2020-12-20T08:42:36.291000+00:00</time>
      </trkpt>
      <trkpt lat="0" lon="0">
        <time>2020-12-20T08:42:36.294000+00:00</time>
      </trkpt>
      <trkpt lat="47.3237" lon="-1.30396">
        <ele>67</ele>
        <time>2020-12-20T08:42:37.309000+00:00</time>
      </trkpt>
      <trkpt lat="0" lon="0">
        <time>2020-12-20T08:42:37.319000+00:00</time>
      </trkpt>
      <trkpt lat="0" lon="0">
        <time>2020-12-20T08:42:37.323000+00:00</time>
      </trkpt>
      <trkpt lat="0" lon="0">
        <time>2020-12-20T08:42:37.325000+00:00</time>
      </trkpt>
      <trkpt lat="47.32374" lon="-1.30393">
        <ele>68</ele>
        <time>2020-12-20T08:42:38.306000+00:00</time>
      </trkpt>
      <trkpt lat="0" lon="0">
        <time>2020-12-20T08:42:38.318000+00:00</time>
      </trkpt>
      <trkpt lat="0" lon="0">
        <time>2020-12-20T08:42:38.322000+00:00</time>
      </trkpt>
      <trkpt lat="0" lon="0">
        <time>2020-12-20T08:42:38.325000+00:00</time>
      </trkpt>
      <trkpt lat="47.32378" lon="-1.3039">
        <ele>68</ele>
        <time>2020-12-20T08:42:39.253000+00:00</time>
      </trkpt>
      <trkpt lat="0" lon="0">
        <time>2020-12-20T08:42:39.258000+00:00</time>
      </trkpt>
      <trkpt lat="0" lon="0">
        <time>2020-12-20T08:42:39.262000+00:00</time>
      </trkpt>
      <trkpt lat="0" lon="0">
        <time>2020-12-20T08:42:39.264000+00:00</time>
      </trkpt>
      <trkpt lat="47.32382" lon="-1.30388">
        <ele>68</ele>
        <time>2020-12-20T08:42:40.274000+00:00</time>
      </trkpt>
      <trkpt lat="0" lon="0">
        <time>2020-12-20T08:42:40.292000+00:00</time>
      </trkpt>
      <trkpt lat="0" lon="0">
        <time>2020-12-20T08:42:40.300000+00:00</time>
      </trkpt>
      <trkpt lat="0" lon="0">
        <time>2020-12-20T08:42:40.305000+00:00</time>
      </trkpt>
      <trkpt lat="47.32386" lon="-1.30385">
        <ele>67</ele>
        <time>2020-12-20T08:42:41.271000+00:00</time>
      </trkpt>
      <trkpt lat="0" lon="0">
        <time>2020-12-20T08:42:41.279000+00:00</time>
      </trkpt>
      <trkpt lat="0" lon="0">
        <time>2020-12-20T08:42:41.282000+00:00</time>
      </trkpt>
      <trkpt lat="0" lon="0">
        <time>2020-12-20T08:42:41.286000+00:00</time>
      </trkpt>
      <trkpt lat="47.3239" lon="-1.30383">
        <ele>67</ele>
        <time>2020-12-20T08:42:42.305000+00:00</time>
      </trkpt>
      <trkpt lat="0" lon="0">
        <time>2020-12-20T08:42:42.317000+00:00</time>
      </trkpt>
      <trkpt lat="0" lon="0">
        <time>2020-12-20T08:42:42.328000+00:00</time>
      </trkpt>
      <trkpt lat="0" lon="0">
        <time>2020-12-20T08:42:42.332000+00:00</time>
      </trkpt>
      <trkpt lat="47.32394" lon="-1.3038">
        <ele>67</ele>
        <time>2020-12-20T08:42:43.304000+00:00</time>
      </trkpt>
      <trkpt lat="0" lon="0">
        <time>2020-12-20T08:42:43.313000+00:00</time>
      </trkpt>
      <trkpt lat="0" lon="0">
        <time>2020-12-20T08:42:43.319000+00:00</time>
      </trkpt>
      <trkpt lat="0" lon="0">
        <time>2020-12-20T08:42:43.326000+00:00</time>
      </trkpt>
      <trkpt lat="47.32398" lon="-1.30378">
        <ele>66</ele>
        <time>2020-12-20T08:42:44.323000+00:00</time>
      </trkpt>
      <trkpt lat="0" lon="0">
        <time>2020-12-20T08:42:44.333000+00:00</time>
      </trkpt>
      <trkpt lat="0" lon="0">
        <time>2020-12-20T08:42:44.338000+00:00</time>
      </trkpt>
      <trkpt lat="0" lon="0">
        <time>2020-12-20T08:42:44.341000+00:00</time>
      </trkpt>
      <trkpt lat="47.32402" lon="-1.30376">
        <ele>66</ele>
        <time>2020-12-20T08:42:45.294000+00:00</time>
      </trkpt>
      <trkpt lat="0" lon="0">
        <time>2020-12-20T08:42:45.299000+00:00</time>
      </trkpt>
      <trkpt lat="0" lon="0">
        <time>2020-12-20T08:42:45.304000+00:00</time>
      </trkpt>
      <trkpt lat="0" lon="0">
        <time>2020-12-20T08:42:45.306000+00:00</time>
      </trkpt>
      <trkpt lat="47.32406" lon="-1.30374">
        <ele>66</ele>
        <time>2020-12-20T08:42:46.307000+00:00</time>
      </trkpt>
      <trkpt lat="0" lon="0">
        <time>2020-12-20T08:42:46.318000+00:00</time>
      </trkpt>
      <trkpt lat="0" lon="0">
        <time>2020-12-20T08:42:46.322000+00:00</time>
      </trkpt>
      <trkpt lat="0" lon="0">
        <time>2020-12-20T08:42:46.325000+00:00</time>
      </trkpt>
      <trkpt lat="47.3241" lon="-1.30371">
        <ele>66</ele>
        <time>2020-12-20T08:42:47.286000+00:00</time>
      </trkpt>
      <trkpt lat="0" lon="0">
        <time>2020-12-20T08:42:47.294000+00:00</time>
      </trkpt>
      <trkpt lat="0" lon="0">
        <time>2020-12-20T08:42:47.298000+00:00</time>
      </trkpt>
      <trkpt lat="0" lon="0">
        <time>2020-12-20T08:42:47.305000+00:00</time>
      </trkpt>
      <trkpt lat="47.32415" lon="-1.30369">
        <ele>66</ele>
        <time>2020-12-20T08:42:48.294000+00:00</time>
      </trkpt>
      <trkpt lat="0" lon="0">
        <time>2020-12-20T08:42:48.299000+00:00</time>
      </trkpt>
      <trkpt lat="0" lon="0">
        <time>2020-12-20T08:42:48.305000+00:00</time>
      </trkpt>
      <trkpt lat="0" lon="0">
        <time>2020-12-20T08:42:48.308000+00:00</time>
      </trkpt>
      <trkpt lat="47.32419" lon="-1.30367">
        <ele>66</ele>
        <time>2020-12-20T08:42:49.325000+00:00</time>
      </trkpt>
      <trkpt lat="0" lon="0">
        <time>2020-12-20T08:42:49.341000+00:00</time>
      </trkpt>
      <trkpt lat="0" lon="0">
        <time>2020-12-20T08:42:49.347000+00:00</time>
      </trkpt>
      <trkpt lat="0" lon="0">
        <time>2020-12-20T08:42:49.351000+00:00</time>
      </trkpt>
      <trkpt lat="47.32422" lon="-1.30365">
        <ele>66</ele>
        <time>2020-12-20T08:42:50.336000+00:00</time>
      </trkpt>
      <trkpt lat="0" lon="0">
        <time>2020-12-20T08:42:50.338000+00:00</time>
      </trkpt>
      <trkpt lat="0" lon="0">
        <time>2020-12-20T08:42:50.340000+00:00</time>
      </trkpt>
      <trkpt lat="0" lon="0">
        <time>2020-12-20T08:42:50.341000+00:00</time>
      </trkpt>
      <trkpt lat="47.32426" lon="-1.30363">
        <ele>66</ele>
        <time>2020-12-20T08:42:51.325000+00:00</time>
      </trkpt>
      <trkpt lat="0" lon="0">
        <time>2020-12-20T08:42:51.327000+00:00</time>
      </trkpt>
      <trkpt lat="0" lon="0">
        <time>2020-12-20T08:42:51.330000+00:00</time>
      </trkpt>
      <trkpt lat="0" lon="0">
        <time>2020-12-20T08:42:51.332000+00:00</time>
      </trkpt>
      <trkpt lat="47.3243" lon="-1.30361">
        <ele>66</ele>
        <time>2020-12-20T08:42:52.277000+00:00</time>
      </trkpt>
      <trkpt lat="0" lon="0">
        <time>2020-12-20T08:42:52.285000+00:00</time>
      </trkpt>
      <trkpt lat="0" lon="0">
        <time>2020-12-20T08:42:52.293000+00:00</time>
      </trkpt>
      <trkpt lat="0" lon="0">
        <time>2020-12-20T08:42:52.295000+00:00</time>
      </trkpt>
      <trkpt lat="47.32434" lon="-1.30358">
        <ele>66</ele>
        <time>2020-12-20T08:42:53.300000+00:00</time>
      </trkpt>
      <trkpt lat="0" lon="0">
        <time>2020-12-20T08:42:53.307000+00:00</time>
      </trkpt>
      <trkpt lat="0" lon="0">
        <time>2020-12-20T08:42:53.309000+00:00</time>
      </trkpt>
      <trkpt lat="0" lon="0">
        <time>2020-12-20T08:42:53.313000+00:00</time>
      </trkpt>
      <trkpt lat="47.32438" lon="-1.30356">
        <ele>67</ele>
        <time>2020-12-20T08:42:54.313000+00:00</time>
      </trkpt>
      <trkpt lat="0" lon="0">
        <time>2020-12-20T08:42:54.334000+00:00</time>
      </trkpt>
      <trkpt lat="0" lon="0">
        <time>2020-12-20T08:42:54.338000+00:00</time>
      </trkpt>
      <trkpt lat="0" lon="0">
        <time>2020-12-20T08:42:54.340000+00:00</time>
      </trkpt>
      <trkpt lat="47.32442" lon="-1.30354">
        <ele>67</ele>
        <time>2020-12-20T08:42:55.331000+00:00</time>
      </trkpt>
      <trkpt lat="0" lon="0">
        <time>2020-12-20T08:42:55.338000+00:00</time>
      </trkpt>
      <trkpt lat="0" lon="0">
        <time>2020-12-20T08:42:55.342000+00:00</time>
      </trkpt>
      <trkpt lat="0" lon="0">
        <time>2020-12-20T08:42:55.347000+00:00</time>
      </trkpt>
      <trkpt lat="47.32445" lon="-1.30351">
        <ele>67</ele>
        <time>2020-12-20T08:42:56.317000+00:00</time>
      </trkpt>
      <trkpt lat="0" lon="0">
        <time>2020-12-20T08:42:56.337000+00:00</time>
      </trkpt>
      <trkpt lat="0" lon="0">
        <time>2020-12-20T08:42:56.347000+00:00</time>
      </trkpt>
      <trkpt lat="0" lon="0">
        <time>2020-12-20T08:42:56.349000+00:00</time>
      </trkpt>
      <trkpt lat="47.32449" lon="-1.30348">
        <ele>67</ele>
        <time>2020-12-20T08:42:57.301000+00:00</time>
      </trkpt>
      <trkpt lat="0" lon="0">
        <time>2020-12-20T08:42:57.309000+00:00</time>
      </trkpt>
      <trkpt lat="0" lon="0">
        <time>2020-12-20T08:42:57.317000+00:00</time>
      </trkpt>
      <trkpt lat="0" lon="0">
        <time>2020-12-20T08:42:57.319000+00:00</time>
      </trkpt>
      <trkpt lat="47.32452" lon="-1.30344">
        <ele>68</ele>
        <time>2020-12-20T08:42:58.307000+00:00</time>
      </trkpt>
      <trkpt lat="0" lon="0">
        <time>2020-12-20T08:42:58.312000+00:00</time>
      </trkpt>
      <trkpt lat="0" lon="0">
        <time>2020-12-20T08:42:58.314000+00:00</time>
      </trkpt>
      <trkpt lat="0" lon="0">
        <time>2020-12-20T08:42:58.315000+00:00</time>
      </trkpt>
      <trkpt lat="47.32455" lon="-1.3034">
        <ele>67</ele>
        <time>2020-12-20T08:42:59.307000+00:00</time>
      </trkpt>
      <trkpt lat="0" lon="0">
        <time>2020-12-20T08:42:59.315000+00:00</time>
      </trkpt>
      <trkpt lat="0" lon="0">
        <time>2020-12-20T08:42:59.319000+00:00</time>
      </trkpt>
      <trkpt lat="0" lon="0">
        <time>2020-12-20T08:42:59.323000+00:00</time>
      </trkpt>
      <trkpt lat="47.32458" lon="-1.30336">
        <ele>67</ele>
        <time>2020-12-20T08:43:00.302000+00:00</time>
      </trkpt>
      <trkpt lat="0" lon="0">
        <time>2020-12-20T08:43:00.304000+00:00</time>
      </trkpt>
      <trkpt lat="0" lon="0">
        <time>2020-12-20T08:43:00.306000+00:00</time>
      </trkpt>
      <trkpt lat="0" lon="0">
        <time>2020-12-20T08:43:00.307000+00:00</time>
      </trkpt>
      <trkpt lat="47.3246" lon="-1.30332">
        <ele>67</ele>
        <time>2020-12-20T08:43:01.278000+00:00</time>
      </trkpt>
      <trkpt lat="0" lon="0">
        <time>2020-12-20T08:43:01.296000+00:00</time>
      </trkpt>
      <trkpt lat="0" lon="0">
        <time>2020-12-20T08:43:01.300000+00:00</time>
      </trkpt>
      <trkpt lat="0" lon="0">
        <time>2020-12-20T08:43:01.302000+00:00</time>
      </trkpt>
      <trkpt lat="47.32463" lon="-1.30327">
        <ele>67</ele>
        <time>2020-12-20T08:43:02.299000+00:00</time>
      </trkpt>
      <trkpt lat="0" lon="0">
        <time>2020-12-20T08:43:02.318000+00:00</time>
      </trkpt>
      <trkpt lat="0" lon="0">
        <time>2020-12-20T08:43:02.321000+00:00</time>
      </trkpt>
      <trkpt lat="0" lon="0">
        <time>2020-12-20T08:43:02.323000+00:00</time>
      </trkpt>
      <trkpt lat="47.32466" lon="-1.30322">
        <ele>67</ele>
        <time>2020-12-20T08:43:03.299000+00:00</time>
      </trkpt>
      <trkpt lat="0" lon="0">
        <time>2020-12-20T08:43:03.306000+00:00</time>
      </trkpt>
      <trkpt lat="0" lon="0">
        <time>2020-12-20T08:43:03.314000+00:00</time>
      </trkpt>
      <trkpt lat="0" lon="0">
        <time>2020-12-20T08:43:03.316000+00:00</time>
      </trkpt>
      <trkpt lat="47.32468" lon="-1.30317">
        <ele>67</ele>
        <time>2020-12-20T08:43:04.314000+00:00</time>
      </trkpt>
      <trkpt lat="0" lon="0">
        <time>2020-12-20T08:43:04.326000+00:00</time>
      </trkpt>
      <trkpt lat="0" lon="0">
        <time>2020-12-20T08:43:04.335000+00:00</time>
      </trkpt>
      <trkpt lat="0" lon="0">
        <time>2020-12-20T08:43:04.337000+00:00</time>
      </trkpt>
      <trkpt lat="47.32471" lon="-1.30312">
        <ele>68</ele>
        <time>2020-12-20T08:43:05.295000+00:00</time>
      </trkpt>
      <trkpt lat="0" lon="0">
        <time>2020-12-20T08:43:05.305000+00:00</time>
      </trkpt>
      <trkpt lat="0" lon="0">
        <time>2020-12-20T08:43:05.312000+00:00</time>
      </trkpt>
      <trkpt lat="0" lon="0">
        <time>2020-12-20T08:43:05.314000+00:00</time>
      </trkpt>
      <trkpt lat="47.32473" lon="-1.30306">
        <ele>68</ele>
        <time>2020-12-20T08:43:06.305000+00:00</time>
      </trkpt>
      <trkpt lat="0" lon="0">
        <time>2020-12-20T08:43:06.317000+00:00</time>
      </trkpt>
      <trkpt lat="0" lon="0">
        <time>2020-12-20T08:43:06.327000+00:00</time>
      </trkpt>
      <trkpt lat="0" lon="0">
        <time>2020-12-20T08:43:06.329000+00:00</time>
      </trkpt>
      <trkpt lat="47.32475" lon="-1.303">
        <ele>68</ele>
        <time>2020-12-20T08:43:07.313000+00:00</time>
      </trkpt>
      <trkpt lat="0" lon="0">
        <time>2020-12-20T08:43:07.330000+00:00</time>
      </trkpt>
      <trkpt lat="0" lon="0">
        <time>2020-12-20T08:43:07.337000+00:00</time>
      </trkpt>
      <trkpt lat="0" lon="0">
        <time>2020-12-20T08:43:07.340000+00:00</time>
      </trkpt>
      <trkpt lat="47.32477" lon="-1.30294">
        <ele>68</ele>
        <time>2020-12-20T08:43:08.311000+00:00</time>
      </trkpt>
      <trkpt lat="0" lon="0">
        <time>2020-12-20T08:43:08.318000+00:00</time>
      </trkpt>
      <trkpt lat="0" lon="0">
        <time>2020-12-20T08:43:08.328000+00:00</time>
      </trkpt>
      <trkpt lat="0" lon="0">
        <time>2020-12-20T08:43:08.330000+00:00</time>
      </trkpt>
      <trkpt lat="47.32478" lon="-1.30287">
        <ele>69</ele>
        <time>2020-12-20T08:43:09.299000+00:00</time>
      </trkpt>
      <trkpt lat="0" lon="0">
        <time>2020-12-20T08:43:09.320000+00:00</time>
      </trkpt>
      <trkpt lat="0" lon="0">
        <time>2020-12-20T08:43:09.323000+00:00</time>
      </trkpt>
      <trkpt lat="0" lon="0">
        <time>2020-12-20T08:43:09.325000+00:00</time>
      </trkpt>
      <trkpt lat="47.3248" lon="-1.30281">
        <ele>69</ele>
        <time>2020-12-20T08:43:10.294000+00:00</time>
      </trkpt>
      <trkpt lat="0" lon="0">
        <time>2020-12-20T08:43:10.301000+00:00</time>
      </trkpt>
      <trkpt lat="0" lon="0">
        <time>2020-12-20T08:43:10.303000+00:00</time>
      </trkpt>
      <trkpt lat="0" lon="0">
        <time>2020-12-20T08:43:10.304000+00:00</time>
      </trkpt>
      <trkpt lat="47.32482" lon="-1.30274">
        <ele>68</ele>
        <time>2020-12-20T08:43:11.301000+00:00</time>
      </trkpt>
      <trkpt lat="0" lon="0">
        <time>2020-12-20T08:43:11.303000+00:00</time>
      </trkpt>
      <trkpt lat="0" lon="0">
        <time>2020-12-20T08:43:11.305000+00:00</time>
      </trkpt>
      <trkpt lat="0" lon="0">
        <time>2020-12-20T08:43:11.306000+00:00</time>
      </trkpt>
      <trkpt lat="47.32483" lon="-1.30268">
        <ele>68</ele>
        <time>2020-12-20T08:43:12.303000+00:00</time>
      </trkpt>
      <trkpt lat="0" lon="0">
        <time>2020-12-20T08:43:12.308000+00:00</time>
      </trkpt>
      <trkpt lat="0" lon="0">
        <time>2020-12-20T08:43:12.315000+00:00</time>
      </trkpt>
      <trkpt lat="0" lon="0">
        <time>2020-12-20T08:43:12.330000+00:00</time>
      </trkpt>
      <trkpt lat="47.32484" lon="-1.30261">
        <ele>68</ele>
        <time>2020-12-20T08:43:13.320000+00:00</time>
      </trkpt>
      <trkpt lat="0" lon="0">
        <time>2020-12-20T08:43:13.330000+00:00</time>
      </trkpt>
      <trkpt lat="0" lon="0">
        <time>2020-12-20T08:43:13.335000+00:00</time>
      </trkpt>
      <trkpt lat="0" lon="0">
        <time>2020-12-20T08:43:13.339000+00:00</time>
      </trkpt>
      <trkpt lat="47.32486" lon="-1.30255">
        <ele>68</ele>
        <time>2020-12-20T08:43:14.324000+00:00</time>
      </trkpt>
      <trkpt lat="0" lon="0">
        <time>2020-12-20T08:43:14.329000+00:00</time>
      </trkpt>
      <trkpt lat="0" lon="0">
        <time>2020-12-20T08:43:14.330000+00:00</time>
      </trkpt>
      <trkpt lat="0" lon="0">
        <time>2020-12-20T08:43:14.332000+00:00</time>
      </trkpt>
      <trkpt lat="47.32487" lon="-1.30249">
        <ele>68</ele>
        <time>2020-12-20T08:43:15.300000+00:00</time>
      </trkpt>
      <trkpt lat="0" lon="0">
        <time>2020-12-20T08:43:15.311000+00:00</time>
      </trkpt>
      <trkpt lat="0" lon="0">
        <time>2020-12-20T08:43:15.313000+00:00</time>
      </trkpt>
      <trkpt lat="0" lon="0">
        <time>2020-12-20T08:43:15.314000+00:00</time>
      </trkpt>
      <trkpt lat="47.32487" lon="-1.30243">
        <ele>68</ele>
        <time>2020-12-20T08:43:16.333000+00:00</time>
      </trkpt>
      <trkpt lat="0" lon="0">
        <time>2020-12-20T08:43:16.345000+00:00</time>
      </trkpt>
      <trkpt lat="0" lon="0">
        <time>2020-12-20T08:43:16.349000+00:00</time>
      </trkpt>
      <trkpt lat="0" lon="0">
        <time>2020-12-20T08:43:16.352000+00:00</time>
      </trkpt>
      <trkpt lat="47.32488" lon="-1.30236">
        <ele>68</ele>
        <time>2020-12-20T08:43:17.293000+00:00</time>
      </trkpt>
      <trkpt lat="0" lon="0">
        <time>2020-12-20T08:43:17.297000+00:00</time>
      </trkpt>
      <trkpt lat="0" lon="0">
        <time>2020-12-20T08:43:17.301000+00:00</time>
      </trkpt>
      <trkpt lat="0" lon="0">
        <time>2020-12-20T08:43:17.302000+00:00</time>
      </trkpt>
      <trkpt lat="47.32489" lon="-1.3023">
        <ele>68</ele>
        <time>2020-12-20T08:43:18.282000+00:00</time>
      </trkpt>
      <trkpt lat="0" lon="0">
        <time>2020-12-20T08:43:18.286000+00:00</time>
      </trkpt>
      <trkpt lat="0" lon="0">
        <time>2020-12-20T08:43:18.290000+00:00</time>
      </trkpt>
      <trkpt lat="0" lon="0">
        <time>2020-12-20T08:43:18.294000+00:00</time>
      </trkpt>
      <trkpt lat="47.3249" lon="-1.30224">
        <ele>68</ele>
        <time>2020-12-20T08:43:19.295000+00:00</time>
      </trkpt>
      <trkpt lat="0" lon="0">
        <time>2020-12-20T08:43:19.310000+00:00</time>
      </trkpt>
      <trkpt lat="0" lon="0">
        <time>2020-12-20T08:43:19.314000+00:00</time>
      </trkpt>
      <trkpt lat="0" lon="0">
        <time>2020-12-20T08:43:19.316000+00:00</time>
      </trkpt>
      <trkpt lat="47.32492" lon="-1.30218">
        <ele>68</ele>
        <time>2020-12-20T08:43:20.345000+00:00</time>
      </trkpt>
      <trkpt lat="0" lon="0">
        <time>2020-12-20T08:43:20.347000+00:00</time>
      </trkpt>
      <trkpt lat="0" lon="0">
        <time>2020-12-20T08:43:20.349000+00:00</time>
      </trkpt>
      <trkpt lat="0" lon="0">
        <time>2020-12-20T08:43:20.350000+00:00</time>
      </trkpt>
      <trkpt lat="47.32493" lon="-1.30212">
        <ele>68</ele>
        <time>2020-12-20T08:43:21.298000+00:00</time>
      </trkpt>
      <trkpt lat="0" lon="0">
        <time>2020-12-20T08:43:21.309000+00:00</time>
      </trkpt>
      <trkpt lat="0" lon="0">
        <time>2020-12-20T08:43:21.317000+00:00</time>
      </trkpt>
      <trkpt lat="0" lon="0">
        <time>2020-12-20T08:43:21.319000+00:00</time>
      </trkpt>
      <trkpt lat="47.32496" lon="-1.30207">
        <ele>68</ele>
        <time>2020-12-20T08:43:22.292000+00:00</time>
      </trkpt>
      <trkpt lat="0" lon="0">
        <time>2020-12-20T08:43:22.303000+00:00</time>
      </trkpt>
      <trkpt lat="0" lon="0">
        <time>2020-12-20T08:43:22.308000+00:00</time>
      </trkpt>
      <trkpt lat="0" lon="0">
        <time>2020-12-20T08:43:22.312000+00:00</time>
      </trkpt>
      <trkpt lat="47.32498" lon="-1.30202">
        <ele>68</ele>
        <time>2020-12-20T08:43:23.294000+00:00</time>
      </trkpt>
      <trkpt lat="0" lon="0">
        <time>2020-12-20T08:43:23.298000+00:00</time>
      </trkpt>
      <trkpt lat="0" lon="0">
        <time>2020-12-20T08:43:23.303000+00:00</time>
      </trkpt>
      <trkpt lat="0" lon="0">
        <time>2020-12-20T08:43:23.305000+00:00</time>
      </trkpt>
      <trkpt lat="47.32501" lon="-1.30197">
        <ele>68</ele>
        <time>2020-12-20T08:43:24.301000+00:00</time>
      </trkpt>
      <trkpt lat="0" lon="0">
        <time>2020-12-20T08:43:24.312000+00:00</time>
      </trkpt>
      <trkpt lat="0" lon="0">
        <time>2020-12-20T08:43:24.316000+00:00</time>
      </trkpt>
      <trkpt lat="0" lon="0">
        <time>2020-12-20T08:43:24.319000+00:00</time>
      </trkpt>
      <trkpt lat="47.32505" lon="-1.30193">
        <ele>68</ele>
        <time>2020-12-20T08:43:25.285000+00:00</time>
      </trkpt>
      <trkpt lat="0" lon="0">
        <time>2020-12-20T08:43:25.291000+00:00</time>
      </trkpt>
      <trkpt lat="0" lon="0">
        <time>2020-12-20T08:43:25.296000+00:00</time>
      </trkpt>
      <trkpt lat="0" lon="0">
        <time>2020-12-20T08:43:25.297000+00:00</time>
      </trkpt>
      <trkpt lat="47.32508" lon="-1.30188">
        <ele>68</ele>
        <time>2020-12-20T08:43:26.283000+00:00</time>
      </trkpt>
      <trkpt lat="0" lon="0">
        <time>2020-12-20T08:43:26.284000+00:00</time>
      </trkpt>
      <trkpt lat="0" lon="0">
        <time>2020-12-20T08:43:26.286000+00:00</time>
      </trkpt>
      <trkpt lat="0" lon="0">
        <time>2020-12-20T08:43:26.287000+00:00</time>
      </trkpt>
      <trkpt lat="47.32512" lon="-1.30184">
        <ele>69</ele>
        <time>2020-12-20T08:43:27.282000+00:00</time>
      </trkpt>
      <trkpt lat="0" lon="0">
        <time>2020-12-20T08:43:27.300000+00:00</time>
      </trkpt>
      <trkpt lat="0" lon="0">
        <time>2020-12-20T08:43:27.302000+00:00</time>
      </trkpt>
      <trkpt lat="0" lon="0">
        <time>2020-12-20T08:43:27.303000+00:00</time>
      </trkpt>
      <trkpt lat="47.32516" lon="-1.3018">
        <ele>69</ele>
        <time>2020-12-20T08:43:28.270000+00:00</time>
      </trkpt>
      <trkpt lat="0" lon="0">
        <time>2020-12-20T08:43:28.277000+00:00</time>
      </trkpt>
      <trkpt lat="0" lon="0">
        <time>2020-12-20T08:43:28.281000+00:00</time>
      </trkpt>
      <trkpt lat="0" lon="0">
        <time>2020-12-20T08:43:28.284000+00:00</time>
      </trkpt>
      <trkpt lat="47.3252" lon="-1.30176">
        <ele>69</ele>
        <time>2020-12-20T08:43:29.307000+00:00</time>
      </trkpt>
      <trkpt lat="0" lon="0">
        <time>2020-12-20T08:43:29.323000+00:00</time>
      </trkpt>
      <trkpt lat="0" lon="0">
        <time>2020-12-20T08:43:29.326000+00:00</time>
      </trkpt>
      <trkpt lat="0" lon="0">
        <time>2020-12-20T08:43:29.330000+00:00</time>
      </trkpt>
      <trkpt lat="47.32523" lon="-1.30171">
        <ele>69</ele>
        <time>2020-12-20T08:43:30.286000+00:00</time>
      </trkpt>
      <trkpt lat="0" lon="0">
        <time>2020-12-20T08:43:30.303000+00:00</time>
      </trkpt>
      <trkpt lat="0" lon="0">
        <time>2020-12-20T08:43:30.306000+00:00</time>
      </trkpt>
      <trkpt lat="0" lon="0">
        <time>2020-12-20T08:43:30.309000+00:00</time>
      </trkpt>
      <trkpt lat="47.32527" lon="-1.30167">
        <ele>69</ele>
        <time>2020-12-20T08:43:31.276000+00:00</time>
      </trkpt>
      <trkpt lat="0" lon="0">
        <time>2020-12-20T08:43:31.283000+00:00</time>
      </trkpt>
      <trkpt lat="0" lon="0">
        <time>2020-12-20T08:43:31.294000+00:00</time>
      </trkpt>
      <trkpt lat="0" lon="0">
        <time>2020-12-20T08:43:31.296000+00:00</time>
      </trkpt>
      <trkpt lat="47.32531" lon="-1.30162">
        <ele>69</ele>
        <time>2020-12-20T08:43:32.274000+00:00</time>
      </trkpt>
      <trkpt lat="0" lon="0">
        <time>2020-12-20T08:43:32.276000+00:00</time>
      </trkpt>
      <trkpt lat="0" lon="0">
        <time>2020-12-20T08:43:32.277000+00:00</time>
      </trkpt>
      <trkpt lat="0" lon="0">
        <time>2020-12-20T08:43:32.278000+00:00</time>
      </trkpt>
      <trkpt lat="47.32535" lon="-1.30158">
        <ele>69</ele>
        <time>2020-12-20T08:43:33.275000+00:00</time>
      </trkpt>
      <trkpt lat="0" lon="0">
        <time>2020-12-20T08:43:33.282000+00:00</time>
      </trkpt>
      <trkpt lat="0" lon="0">
        <time>2020-12-20T08:43:33.284000+00:00</time>
      </trkpt>
      <trkpt lat="0" lon="0">
        <time>2020-12-20T08:43:33.285000+00:00</time>
      </trkpt>
      <trkpt lat="47.32539" lon="-1.30154">
        <ele>68</ele>
        <time>2020-12-20T08:43:34.290000+00:00</time>
      </trkpt>
      <trkpt lat="0" lon="0">
        <time>2020-12-20T08:43:34.295000+00:00</time>
      </trkpt>
      <trkpt lat="0" lon="0">
        <time>2020-12-20T08:43:34.302000+00:00</time>
      </trkpt>
      <trkpt lat="0" lon="0">
        <time>2020-12-20T08:43:34.306000+00:00</time>
      </trkpt>
      <trkpt lat="47.32542" lon="-1.30149">
        <ele>68</ele>
        <time>2020-12-20T08:43:35.285000+00:00</time>
      </trkpt>
      <trkpt lat="0" lon="0">
        <time>2020-12-20T08:43:35.289000+00:00</time>
      </trkpt>
      <trkpt lat="0" lon="0">
        <time>2020-12-20T08:43:35.293000+00:00</time>
      </trkpt>
      <trkpt lat="0" lon="0">
        <time>2020-12-20T08:43:35.296000+00:00</time>
      </trkpt>
      <trkpt lat="47.32546" lon="-1.30145">
        <ele>68</ele>
        <time>2020-12-20T08:43:36.305000+00:00</time>
      </trkpt>
      <trkpt lat="0" lon="0">
        <time>2020-12-20T08:43:36.312000+00:00</time>
      </trkpt>
      <trkpt lat="0" lon="0">
        <time>2020-12-20T08:43:36.315000+00:00</time>
      </trkpt>
      <trkpt lat="0" lon="0">
        <time>2020-12-20T08:43:36.317000+00:00</time>
      </trkpt>
      <trkpt lat="47.32549" lon="-1.30141">
        <ele>68</ele>
        <time>2020-12-20T08:43:37.303000+00:00</time>
      </trkpt>
      <trkpt lat="0" lon="0">
        <time>2020-12-20T08:43:37.310000+00:00</time>
      </trkpt>
      <trkpt lat="0" lon="0">
        <time>2020-12-20T08:43:37.314000+00:00</time>
      </trkpt>
      <trkpt lat="0" lon="0">
        <time>2020-12-20T08:43:37.317000+00:00</time>
      </trkpt>
      <trkpt lat="47.32552" lon="-1.30137">
        <ele>68</ele>
        <time>2020-12-20T08:43:38.308000+00:00</time>
      </trkpt>
      <trkpt lat="0" lon="0">
        <time>2020-12-20T08:43:38.318000+00:00</time>
      </trkpt>
      <trkpt lat="0" lon="0">
        <time>2020-12-20T08:43:38.322000+00:00</time>
      </trkpt>
      <trkpt lat="0" lon="0">
        <time>2020-12-20T08:43:38.324000+00:00</time>
      </trkpt>
      <trkpt lat="47.32556" lon="-1.30134">
        <ele>67</ele>
        <time>2020-12-20T08:43:39.282000+00:00</time>
      </trkpt>
      <trkpt lat="0" lon="0">
        <time>2020-12-20T08:43:39.289000+00:00</time>
      </trkpt>
      <trkpt lat="0" lon="0">
        <time>2020-12-20T08:43:39.291000+00:00</time>
      </trkpt>
      <trkpt lat="0" lon="0">
        <time>2020-12-20T08:43:39.292000+00:00</time>
      </trkpt>
      <trkpt lat="47.32559" lon="-1.30131">
        <ele>67</ele>
        <time>2020-12-20T08:43:40.282000+00:00</time>
      </trkpt>
      <trkpt lat="0" lon="0">
        <time>2020-12-20T08:43:40.288000+00:00</time>
      </trkpt>
      <trkpt lat="0" lon="0">
        <time>2020-12-20T08:43:40.292000+00:00</time>
      </trkpt>
      <trkpt lat="0" lon="0">
        <time>2020-12-20T08:43:40.295000+00:00</time>
      </trkpt>
      <trkpt lat="47.32562" lon="-1.3013">
        <ele>67</ele>
        <time>2020-12-20T08:43:41.275000+00:00</time>
      </trkpt>
      <trkpt lat="0" lon="0">
        <time>2020-12-20T08:43:41.281000+00:00</time>
      </trkpt>
      <trkpt lat="0" lon="0">
        <time>2020-12-20T08:43:41.283000+00:00</time>
      </trkpt>
      <trkpt lat="0" lon="0">
        <time>2020-12-20T08:43:41.284000+00:00</time>
      </trkpt>
      <trkpt lat="47.32566" lon="-1.3013">
        <ele>67</ele>
        <time>2020-12-20T08:43:42.270000+00:00</time>
      </trkpt>
      <trkpt lat="0" lon="0">
        <time>2020-12-20T08:43:42.288000+00:00</time>
      </trkpt>
      <trkpt lat="0" lon="0">
        <time>2020-12-20T08:43:42.292000+00:00</time>
      </trkpt>
      <trkpt lat="0" lon="0">
        <time>2020-12-20T08:43:42.294000+00:00</time>
      </trkpt>
      <trkpt lat="47.3257" lon="-1.30131">
        <ele>67</ele>
        <time>2020-12-20T08:43:43.263000+00:00</time>
      </trkpt>
      <trkpt lat="0" lon="0">
        <time>2020-12-20T08:43:43.272000+00:00</time>
      </trkpt>
      <trkpt lat="0" lon="0">
        <time>2020-12-20T08:43:43.277000+00:00</time>
      </trkpt>
      <trkpt lat="0" lon="0">
        <time>2020-12-20T08:43:43.279000+00:00</time>
      </trkpt>
      <trkpt lat="47.32574" lon="-1.30132">
        <ele>66</ele>
        <time>2020-12-20T08:43:44.286000+00:00</time>
      </trkpt>
      <trkpt lat="0" lon="0">
        <time>2020-12-20T08:43:44.288000+00:00</time>
      </trkpt>
      <trkpt lat="0" lon="0">
        <time>2020-12-20T08:43:44.290000+00:00</time>
      </trkpt>
      <trkpt lat="0" lon="0">
        <time>2020-12-20T08:43:44.295000+00:00</time>
      </trkpt>
      <trkpt lat="47.32578" lon="-1.30134">
        <ele>66</ele>
        <time>2020-12-20T08:43:45.289000+00:00</time>
      </trkpt>
      <trkpt lat="0" lon="0">
        <time>2020-12-20T08:43:45.293000+00:00</time>
      </trkpt>
      <trkpt lat="0" lon="0">
        <time>2020-12-20T08:43:45.298000+00:00</time>
      </trkpt>
      <trkpt lat="0" lon="0">
        <time>2020-12-20T08:43:45.299000+00:00</time>
      </trkpt>
      <trkpt lat="47.32582" lon="-1.30138">
        <ele>66</ele>
        <time>2020-12-20T08:43:46.303000+00:00</time>
      </trkpt>
      <trkpt lat="0" lon="0">
        <time>2020-12-20T08:43:46.315000+00:00</time>
      </trkpt>
      <trkpt lat="0" lon="0">
        <time>2020-12-20T08:43:46.319000+00:00</time>
      </trkpt>
      <trkpt lat="0" lon="0">
        <time>2020-12-20T08:43:46.321000+00:00</time>
      </trkpt>
      <trkpt lat="47.32586" lon="-1.30142">
        <ele>66</ele>
        <time>2020-12-20T08:43:47.281000+00:00</time>
      </trkpt>
      <trkpt lat="0" lon="0">
        <time>2020-12-20T08:43:47.285000+00:00</time>
      </trkpt>
      <trkpt lat="0" lon="0">
        <time>2020-12-20T08:43:47.287000+00:00</time>
      </trkpt>
      <trkpt lat="0" lon="0">
        <time>2020-12-20T08:43:47.288000+00:00</time>
      </trkpt>
      <trkpt lat="47.3259" lon="-1.30147">
        <ele>66</ele>
        <time>2020-12-20T08:43:48.297000+00:00</time>
      </trkpt>
      <trkpt lat="0" lon="0">
        <time>2020-12-20T08:43:48.303000+00:00</time>
      </trkpt>
      <trkpt lat="0" lon="0">
        <time>2020-12-20T08:43:48.306000+00:00</time>
      </trkpt>
      <trkpt lat="0" lon="0">
        <time>2020-12-20T08:43:48.309000+00:00</time>
      </trkpt>
      <trkpt lat="47.32593" lon="-1.30153">
        <ele>66</ele>
        <time>2020-12-20T08:43:49.330000+00:00</time>
      </trkpt>
      <trkpt lat="0" lon="0">
        <time>2020-12-20T08:43:49.340000+00:00</time>
      </trkpt>
      <trkpt lat="0" lon="0">
        <time>2020-12-20T08:43:49.345000+00:00</time>
      </trkpt>
      <trkpt lat="0" lon="0">
        <time>2020-12-20T08:43:49.346000+00:00</time>
      </trkpt>
      <trkpt lat="47.32596" lon="-1.3016">
        <ele>66</ele>
        <time>2020-12-20T08:43:50.269000+00:00</time>
      </trkpt>
      <trkpt lat="0" lon="0">
        <time>2020-12-20T08:43:50.271000+00:00</time>
      </trkpt>
      <trkpt lat="0" lon="0">
        <time>2020-12-20T08:43:50.272000+00:00</time>
      </trkpt>
      <trkpt lat="0" lon="0">
        <time>2020-12-20T08:43:50.273000+00:00</time>
      </trkpt>
      <trkpt lat="47.326" lon="-1.30167">
        <ele>67</ele>
        <time>2020-12-20T08:43:51.286000+00:00</time>
      </trkpt>
      <trkpt lat="0" lon="0">
        <time>2020-12-20T08:43:51.298000+00:00</time>
      </trkpt>
      <trkpt lat="0" lon="0">
        <time>2020-12-20T08:43:51.302000+00:00</time>
      </trkpt>
      <trkpt lat="0" lon="0">
        <time>2020-12-20T08:43:51.305000+00:00</time>
      </trkpt>
      <trkpt lat="47.32603" lon="-1.30174">
        <ele>66</ele>
        <time>2020-12-20T08:43:52.299000+00:00</time>
      </trkpt>
      <trkpt lat="0" lon="0">
        <time>2020-12-20T08:43:52.305000+00:00</time>
      </trkpt>
      <trkpt lat="0" lon="0">
        <time>2020-12-20T08:43:52.308000+00:00</time>
      </trkpt>
      <trkpt lat="0" lon="0">
        <time>2020-12-20T08:43:52.309000+00:00</time>
      </trkpt>
      <trkpt lat="47.32607" lon="-1.30182">
        <ele>66</ele>
        <time>2020-12-20T08:43:53.297000+00:00</time>
      </trkpt>
      <trkpt lat="0" lon="0">
        <time>2020-12-20T08:43:53.302000+00:00</time>
      </trkpt>
      <trkpt lat="0" lon="0">
        <time>2020-12-20T08:43:53.311000+00:00</time>
      </trkpt>
      <trkpt lat="0" lon="0">
        <time>2020-12-20T08:43:53.313000+00:00</time>
      </trkpt>
      <trkpt lat="47.3261" lon="-1.3019">
        <ele>66</ele>
        <time>2020-12-20T08:43:54.286000+00:00</time>
      </trkpt>
      <trkpt lat="0" lon="0">
        <time>2020-12-20T08:43:54.301000+00:00</time>
      </trkpt>
      <trkpt lat="0" lon="0">
        <time>2020-12-20T08:43:54.304000+00:00</time>
      </trkpt>
      <trkpt lat="0" lon="0">
        <time>2020-12-20T08:43:54.308000+00:00</time>
      </trkpt>
      <trkpt lat="47.32613" lon="-1.30198">
        <ele>67</ele>
        <time>2020-12-20T08:43:55.321000+00:00</time>
      </trkpt>
      <trkpt lat="0" lon="0">
        <time>2020-12-20T08:43:55.330000+00:00</time>
      </trkpt>
      <trkpt lat="0" lon="0">
        <time>2020-12-20T08:43:55.334000+00:00</time>
      </trkpt>
      <trkpt lat="0" lon="0">
        <time>2020-12-20T08:43:55.336000+00:00</time>
      </trkpt>
      <trkpt lat="47.32616" lon="-1.30205">
        <ele>66</ele>
        <time>2020-12-20T08:43:56.300000+00:00</time>
      </trkpt>
      <trkpt lat="0" lon="0">
        <time>2020-12-20T08:43:56.307000+00:00</time>
      </trkpt>
      <trkpt lat="0" lon="0">
        <time>2020-12-20T08:43:56.309000+00:00</time>
      </trkpt>
      <trkpt lat="0" lon="0">
        <time>2020-12-20T08:43:56.310000+00:00</time>
      </trkpt>
      <trkpt lat="47.32619" lon="-1.30213">
        <ele>67</ele>
        <time>2020-12-20T08:43:57.283000+00:00</time>
      </trkpt>
      <trkpt lat="0" lon="0">
        <time>2020-12-20T08:43:57.296000+00:00</time>
      </trkpt>
      <trkpt lat="0" lon="0">
        <time>2020-12-20T08:43:57.304000+00:00</time>
      </trkpt>
      <trkpt lat="47.32622" lon="-1.30221">
        <ele>67</ele>
        <time>2020-12-20T08:43:58.274000+00:00</time>
      </trkpt>
      <trkpt lat="0" lon="0">
        <time>2020-12-20T08:43:58.283000+00:00</time>
      </trkpt>
      <trkpt lat="0" lon="0">
        <time>2020-12-20T08:43:58.285000+00:00</time>
      </trkpt>
      <trkpt lat="47.32624" lon="-1.30229">
        <ele>67</ele>
        <time>2020-12-20T08:43:59.301000+00:00</time>
      </trkpt>
      <trkpt lat="0" lon="0">
        <time>2020-12-20T08:43:59.308000+00:00</time>
      </trkpt>
      <trkpt lat="0" lon="0">
        <time>2020-12-20T08:43:59.310000+00:00</time>
      </trkpt>
      <trkpt lat="0" lon="0">
        <time>2020-12-20T08:43:59.311000+00:00</time>
      </trkpt>
      <trkpt lat="47.32627" lon="-1.30236">
        <ele>67</ele>
        <time>2020-12-20T08:44:00.306000+00:00</time>
      </trkpt>
      <trkpt lat="0" lon="0">
        <time>2020-12-20T08:44:00.317000+00:00</time>
      </trkpt>
      <trkpt lat="0" lon="0">
        <time>2020-12-20T08:44:00.324000+00:00</time>
      </trkpt>
      <trkpt lat="0" lon="0">
        <time>2020-12-20T08:44:00.325000+00:00</time>
      </trkpt>
      <trkpt lat="47.3263" lon="-1.30243">
        <ele>67</ele>
        <time>2020-12-20T08:44:01.313000+00:00</time>
      </trkpt>
      <trkpt lat="0" lon="0">
        <time>2020-12-20T08:44:01.318000+00:00</time>
      </trkpt>
      <trkpt lat="0" lon="0">
        <time>2020-12-20T08:44:01.321000+00:00</time>
      </trkpt>
      <trkpt lat="0" lon="0">
        <time>2020-12-20T08:44:01.322000+00:00</time>
      </trkpt>
      <trkpt lat="47.32633" lon="-1.30249">
        <ele>66</ele>
        <time>2020-12-20T08:44:02.289000+00:00</time>
      </trkpt>
      <trkpt lat="0" lon="0">
        <time>2020-12-20T08:44:02.297000+00:00</time>
      </trkpt>
      <trkpt lat="0" lon="0">
        <time>2020-12-20T08:44:02.312000+00:00</time>
      </trkpt>
      <trkpt lat="0" lon="0">
        <time>2020-12-20T08:44:02.314000+00:00</time>
      </trkpt>
      <trkpt lat="47.32636" lon="-1.30254">
        <ele>66</ele>
        <time>2020-12-20T08:44:03.253000+00:00</time>
      </trkpt>
      <trkpt lat="0" lon="0">
        <time>2020-12-20T08:44:03.260000+00:00</time>
      </trkpt>
      <trkpt lat="0" lon="0">
        <time>2020-12-20T08:44:03.264000+00:00</time>
      </trkpt>
      <trkpt lat="0" lon="0">
        <time>2020-12-20T08:44:03.265000+00:00</time>
      </trkpt>
      <trkpt lat="47.3264" lon="-1.30257">
        <ele>66</ele>
        <time>2020-12-20T08:44:04.296000+00:00</time>
      </trkpt>
      <trkpt lat="0" lon="0">
        <time>2020-12-20T08:44:04.320000+00:00</time>
      </trkpt>
      <trkpt lat="0" lon="0">
        <time>2020-12-20T08:44:04.327000+00:00</time>
      </trkpt>
      <trkpt lat="0" lon="0">
        <time>2020-12-20T08:44:04.328000+00:00</time>
      </trkpt>
      <trkpt lat="47.32643" lon="-1.30258">
        <ele>66</ele>
        <time>2020-12-20T08:44:05.257000+00:00</time>
      </trkpt>
      <trkpt lat="0" lon="0">
        <time>2020-12-20T08:44:05.272000+00:00</time>
      </trkpt>
      <trkpt lat="0" lon="0">
        <time>2020-12-20T08:44:05.281000+00:00</time>
      </trkpt>
      <trkpt lat="0" lon="0">
        <time>2020-12-20T08:44:05.285000+00:00</time>
      </trkpt>
      <trkpt lat="47.32647" lon="-1.30257">
        <ele>66</ele>
        <time>2020-12-20T08:44:06.276000+00:00</time>
      </trkpt>
      <trkpt lat="0" lon="0">
        <time>2020-12-20T08:44:06.294000+00:00</time>
      </trkpt>
      <trkpt lat="0" lon="0">
        <time>2020-12-20T08:44:06.299000+00:00</time>
      </trkpt>
      <trkpt lat="0" lon="0">
        <time>2020-12-20T08:44:06.301000+00:00</time>
      </trkpt>
      <trkpt lat="47.3265" lon="-1.30255">
        <ele>67</ele>
        <time>2020-12-20T08:44:07.308000+00:00</time>
      </trkpt>
      <trkpt lat="0" lon="0">
        <time>2020-12-20T08:44:07.310000+00:00</time>
      </trkpt>
      <trkpt lat="0" lon="0">
        <time>2020-12-20T08:44:07.313000+00:00</time>
      </trkpt>
      <trkpt lat="0" lon="0">
        <time>2020-12-20T08:44:07.314000+00:00</time>
      </trkpt>
      <trkpt lat="47.32653" lon="-1.30251">
        <ele>67</ele>
        <time>2020-12-20T08:44:08.303000+00:00</time>
      </trkpt>
      <trkpt lat="0" lon="0">
        <time>2020-12-20T08:44:08.319000+00:00</time>
      </trkpt>
      <trkpt lat="0" lon="0">
        <time>2020-12-20T08:44:08.324000+00:00</time>
      </trkpt>
      <trkpt lat="0" lon="0">
        <time>2020-12-20T08:44:08.326000+00:00</time>
      </trkpt>
      <trkpt lat="47.32656" lon="-1.30246">
        <ele>68</ele>
        <time>2020-12-20T08:44:09.288000+00:00</time>
      </trkpt>
      <trkpt lat="0" lon="0">
        <time>2020-12-20T08:44:09.291000+00:00</time>
      </trkpt>
      <trkpt lat="0" lon="0">
        <time>2020-12-20T08:44:09.294000+00:00</time>
      </trkpt>
      <trkpt lat="0" lon="0">
        <time>2020-12-20T08:44:09.295000+00:00</time>
      </trkpt>
      <trkpt lat="47.32659" lon="-1.3024">
        <ele>67</ele>
        <time>2020-12-20T08:44:10.294000+00:00</time>
      </trkpt>
      <trkpt lat="0" lon="0">
        <time>2020-12-20T08:44:10.303000+00:00</time>
      </trkpt>
      <trkpt lat="0" lon="0">
        <time>2020-12-20T08:44:10.312000+00:00</time>
      </trkpt>
      <trkpt lat="0" lon="0">
        <time>2020-12-20T08:44:10.313000+00:00</time>
      </trkpt>
      <trkpt lat="47.32662" lon="-1.30235">
        <ele>67</ele>
        <time>2020-12-20T08:44:11.306000+00:00</time>
      </trkpt>
      <trkpt lat="0" lon="0">
        <time>2020-12-20T08:44:11.311000+00:00</time>
      </trkpt>
      <trkpt lat="0" lon="0">
        <time>2020-12-20T08:44:11.313000+00:00</time>
      </trkpt>
      <trkpt lat="0" lon="0">
        <time>2020-12-20T08:44:11.314000+00:00</time>
      </trkpt>
      <trkpt lat="47.32665" lon="-1.30228">
        <ele>68</ele>
        <time>2020-12-20T08:44:12.311000+00:00</time>
      </trkpt>
      <trkpt lat="0" lon="0">
        <time>2020-12-20T08:44:12.317000+00:00</time>
      </trkpt>
      <trkpt lat="0" lon="0">
        <time>2020-12-20T08:44:12.319000+00:00</time>
      </trkpt>
      <trkpt lat="0" lon="0">
        <time>2020-12-20T08:44:12.320000+00:00</time>
      </trkpt>
      <trkpt lat="47.32668" lon="-1.30222">
        <ele>68</ele>
        <time>2020-12-20T08:44:13.341000+00:00</time>
      </trkpt>
      <trkpt lat="0" lon="0">
        <time>2020-12-20T08:44:13.351000+00:00</time>
      </trkpt>
      <trkpt lat="0" lon="0">
        <time>2020-12-20T08:44:13.357000+00:00</time>
      </trkpt>
      <trkpt lat="0" lon="0">
        <time>2020-12-20T08:44:13.358000+00:00</time>
      </trkpt>
      <trkpt lat="47.32671" lon="-1.30215">
        <ele>68</ele>
        <time>2020-12-20T08:44:14.296000+00:00</time>
      </trkpt>
      <trkpt lat="0" lon="0">
        <time>2020-12-20T08:44:14.301000+00:00</time>
      </trkpt>
      <trkpt lat="0" lon="0">
        <time>2020-12-20T08:44:14.303000+00:00</time>
      </trkpt>
      <trkpt lat="0" lon="0">
        <time>2020-12-20T08:44:14.304000+00:00</time>
      </trkpt>
      <trkpt lat="47.32674" lon="-1.30208">
        <ele>68</ele>
        <time>2020-12-20T08:44:15.313000+00:00</time>
      </trkpt>
      <trkpt lat="0" lon="0">
        <time>2020-12-20T08:44:15.334000+00:00</time>
      </trkpt>
      <trkpt lat="0" lon="0">
        <time>2020-12-20T08:44:15.337000+00:00</time>
      </trkpt>
      <trkpt lat="0" lon="0">
        <time>2020-12-20T08:44:15.340000+00:00</time>
      </trkpt>
      <trkpt lat="47.32677" lon="-1.30202">
        <ele>68</ele>
        <time>2020-12-20T08:44:16.305000+00:00</time>
      </trkpt>
      <trkpt lat="0" lon="0">
        <time>2020-12-20T08:44:16.319000+00:00</time>
      </trkpt>
      <trkpt lat="0" lon="0">
        <time>2020-12-20T08:44:16.328000+00:00</time>
      </trkpt>
      <trkpt lat="0" lon="0">
        <time>2020-12-20T08:44:16.330000+00:00</time>
      </trkpt>
      <trkpt lat="47.3268" lon="-1.30195">
        <ele>68</ele>
        <time>2020-12-20T08:44:17.316000+00:00</time>
      </trkpt>
      <trkpt lat="0" lon="0">
        <time>2020-12-20T08:44:17.318000+00:00</time>
      </trkpt>
      <trkpt lat="0" lon="0">
        <time>2020-12-20T08:44:17.320000+00:00</time>
      </trkpt>
      <trkpt lat="0" lon="0">
        <time>2020-12-20T08:44:17.321000+00:00</time>
      </trkpt>
      <trkpt lat="47.32683" lon="-1.30189">
        <ele>68</ele>
        <time>2020-12-20T08:44:18.332000+00:00</time>
      </trkpt>
      <trkpt lat="0" lon="0">
        <time>2020-12-20T08:44:18.335000+00:00</time>
      </trkpt>
      <trkpt lat="0" lon="0">
        <time>2020-12-20T08:44:18.349000+00:00</time>
      </trkpt>
      <trkpt lat="0" lon="0">
        <time>2020-12-20T08:44:18.351000+00:00</time>
      </trkpt>
      <trkpt lat="47.32686" lon="-1.30183">
        <ele>68</ele>
        <time>2020-12-20T08:44:19.304000+00:00</time>
      </trkpt>
      <trkpt lat="0" lon="0">
        <time>2020-12-20T08:44:19.316000+00:00</time>
      </trkpt>
      <trkpt lat="0" lon="0">
        <time>2020-12-20T08:44:19.321000+00:00</time>
      </trkpt>
      <trkpt lat="0" lon="0">
        <time>2020-12-20T08:44:19.323000+00:00</time>
      </trkpt>
      <trkpt lat="47.32689" lon="-1.30177">
        <ele>68</ele>
        <time>2020-12-20T08:44:20.317000+00:00</time>
      </trkpt>
      <trkpt lat="0" lon="0">
        <time>2020-12-20T08:44:20.334000+00:00</time>
      </trkpt>
      <trkpt lat="0" lon="0">
        <time>2020-12-20T08:44:20.338000+00:00</time>
      </trkpt>
      <trkpt lat="0" lon="0">
        <time>2020-12-20T08:44:20.344000+00:00</time>
      </trkpt>
      <trkpt lat="47.32692" lon="-1.30171">
        <ele>68</ele>
        <time>2020-12-20T08:44:21.328000+00:00</time>
      </trkpt>
      <trkpt lat="0" lon="0">
        <time>2020-12-20T08:44:21.332000+00:00</time>
      </trkpt>
      <trkpt lat="0" lon="0">
        <time>2020-12-20T08:44:21.351000+00:00</time>
      </trkpt>
      <trkpt lat="0" lon="0">
        <time>2020-12-20T08:44:21.353000+00:00</time>
      </trkpt>
      <trkpt lat="47.32695" lon="-1.30165">
        <ele>68</ele>
        <time>2020-12-20T08:44:22.319000+00:00</time>
      </trkpt>
      <trkpt lat="0" lon="0">
        <time>2020-12-20T08:44:22.328000+00:00</time>
      </trkpt>
      <trkpt lat="0" lon="0">
        <time>2020-12-20T08:44:22.332000+00:00</time>
      </trkpt>
      <trkpt lat="0" lon="0">
        <time>2020-12-20T08:44:22.336000+00:00</time>
      </trkpt>
      <trkpt lat="47.32698" lon="-1.30159">
        <ele>68</ele>
        <time>2020-12-20T08:44:23.313000+00:00</time>
      </trkpt>
      <trkpt lat="0" lon="0">
        <time>2020-12-20T08:44:23.338000+00:00</time>
      </trkpt>
      <trkpt lat="0" lon="0">
        <time>2020-12-20T08:44:23.342000+00:00</time>
      </trkpt>
      <trkpt lat="0" lon="0">
        <time>2020-12-20T08:44:23.344000+00:00</time>
      </trkpt>
      <trkpt lat="47.327" lon="-1.30154">
        <ele>68</ele>
        <time>2020-12-20T08:44:24.319000+00:00</time>
      </trkpt>
      <trkpt lat="0" lon="0">
        <time>2020-12-20T08:44:24.324000+00:00</time>
      </trkpt>
      <trkpt lat="0" lon="0">
        <time>2020-12-20T08:44:24.325000+00:00</time>
      </trkpt>
      <trkpt lat="47.32703" lon="-1.30148">
        <ele>69</ele>
        <time>2020-12-20T08:44:25.307000+00:00</time>
      </trkpt>
      <trkpt lat="0" lon="0">
        <time>2020-12-20T08:44:25.315000+00:00</time>
      </trkpt>
      <trkpt lat="0" lon="0">
        <time>2020-12-20T08:44:25.322000+00:00</time>
      </trkpt>
      <trkpt lat="0" lon="0">
        <time>2020-12-20T08:44:25.328000+00:00</time>
      </trkpt>
      <trkpt lat="47.32706" lon="-1.30143">
        <ele>69</ele>
        <time>2020-12-20T08:44:26.294000+00:00</time>
      </trkpt>
      <trkpt lat="0" lon="0">
        <time>2020-12-20T08:44:26.308000+00:00</time>
      </trkpt>
      <trkpt lat="0" lon="0">
        <time>2020-12-20T08:44:26.313000+00:00</time>
      </trkpt>
      <trkpt lat="0" lon="0">
        <time>2020-12-20T08:44:26.315000+00:00</time>
      </trkpt>
      <trkpt lat="47.32709" lon="-1.30137">
        <ele>69</ele>
        <time>2020-12-20T08:44:27.295000+00:00</time>
      </trkpt>
      <trkpt lat="0" lon="0">
        <time>2020-12-20T08:44:27.324000+00:00</time>
      </trkpt>
      <trkpt lat="0" lon="0">
        <time>2020-12-20T08:44:27.327000+00:00</time>
      </trkpt>
      <trkpt lat="0" lon="0">
        <time>2020-12-20T08:44:27.329000+00:00</time>
      </trkpt>
      <trkpt lat="47.32712" lon="-1.30131">
        <ele>69</ele>
        <time>2020-12-20T08:44:28.310000+00:00</time>
      </trkpt>
      <trkpt lat="0" lon="0">
        <time>2020-12-20T08:44:28.326000+00:00</time>
      </trkpt>
      <trkpt lat="0" lon="0">
        <time>2020-12-20T08:44:28.331000+00:00</time>
      </trkpt>
      <trkpt lat="0" lon="0">
        <time>2020-12-20T08:44:28.336000+00:00</time>
      </trkpt>
      <trkpt lat="47.32715" lon="-1.30126">
        <ele>70</ele>
        <time>2020-12-20T08:44:29.292000+00:00</time>
      </trkpt>
      <trkpt lat="0" lon="0">
        <time>2020-12-20T08:44:29.301000+00:00</time>
      </trkpt>
      <trkpt lat="0" lon="0">
        <time>2020-12-20T08:44:29.308000+00:00</time>
      </trkpt>
      <trkpt lat="0" lon="0">
        <time>2020-12-20T08:44:29.309000+00:00</time>
      </trkpt>
      <trkpt lat="47.32718" lon="-1.3012">
        <ele>70</ele>
        <time>2020-12-20T08:44:30.307000+00:00</time>
      </trkpt>
      <trkpt lat="0" lon="0">
        <time>2020-12-20T08:44:30.315000+00:00</time>
      </trkpt>
      <trkpt lat="0" lon="0">
        <time>2020-12-20T08:44:30.320000+00:00</time>
      </trkpt>
      <trkpt lat="0" lon="0">
        <time>2020-12-20T08:44:30.321000+00:00</time>
      </trkpt>
      <trkpt lat="47.32721" lon="-1.30115">
        <ele>70</ele>
        <time>2020-12-20T08:44:31.302000+00:00</time>
      </trkpt>
      <trkpt lat="0" lon="0">
        <time>2020-12-20T08:44:31.308000+00:00</time>
      </trkpt>
      <trkpt lat="0" lon="0">
        <time>2020-12-20T08:44:31.309000+00:00</time>
      </trkpt>
      <trkpt lat="0" lon="0">
        <time>2020-12-20T08:44:31.311000+00:00</time>
      </trkpt>
      <trkpt lat="47.32724" lon="-1.30109">
        <ele>70</ele>
        <time>2020-12-20T08:44:32.306000+00:00</time>
      </trkpt>
      <trkpt lat="0" lon="0">
        <time>2020-12-20T08:44:32.318000+00:00</time>
      </trkpt>
      <trkpt lat="0" lon="0">
        <time>2020-12-20T08:44:32.325000+00:00</time>
      </trkpt>
      <trkpt lat="0" lon="0">
        <time>2020-12-20T08:44:32.327000+00:00</time>
      </trkpt>
      <trkpt lat="47.32727" lon="-1.30103">
        <ele>69</ele>
        <time>2020-12-20T08:44:33.318000+00:00</time>
      </trkpt>
      <trkpt lat="0" lon="0">
        <time>2020-12-20T08:44:33.320000+00:00</time>
      </trkpt>
      <trkpt lat="0" lon="0">
        <time>2020-12-20T08:44:33.322000+00:00</time>
      </trkpt>
      <trkpt lat="0" lon="0">
        <time>2020-12-20T08:44:33.324000+00:00</time>
      </trkpt>
      <trkpt lat="47.3273" lon="-1.30097">
        <ele>69</ele>
        <time>2020-12-20T08:44:34.322000+00:00</time>
      </trkpt>
      <trkpt lat="0" lon="0">
        <time>2020-12-20T08:44:34.330000+00:00</time>
      </trkpt>
      <trkpt lat="0" lon="0">
        <time>2020-12-20T08:44:34.335000+00:00</time>
      </trkpt>
      <trkpt lat="0" lon="0">
        <time>2020-12-20T08:44:34.337000+00:00</time>
      </trkpt>
      <trkpt lat="47.32733" lon="-1.30091">
        <ele>68</ele>
        <time>2020-12-20T08:44:35.308000+00:00</time>
      </trkpt>
      <trkpt lat="0" lon="0">
        <time>2020-12-20T08:44:35.314000+00:00</time>
      </trkpt>
      <trkpt lat="0" lon="0">
        <time>2020-12-20T08:44:35.323000+00:00</time>
      </trkpt>
      <trkpt lat="0" lon="0">
        <time>2020-12-20T08:44:35.325000+00:00</time>
      </trkpt>
      <trkpt lat="47.32736" lon="-1.30085">
        <ele>68</ele>
        <time>2020-12-20T08:44:36.329000+00:00</time>
      </trkpt>
      <trkpt lat="0" lon="0">
        <time>2020-12-20T08:44:36.334000+00:00</time>
      </trkpt>
      <trkpt lat="0" lon="0">
        <time>2020-12-20T08:44:36.338000+00:00</time>
      </trkpt>
      <trkpt lat="0" lon="0">
        <time>2020-12-20T08:44:36.339000+00:00</time>
      </trkpt>
      <trkpt lat="47.32739" lon="-1.30078">
        <ele>68</ele>
        <time>2020-12-20T08:44:37.308000+00:00</time>
      </trkpt>
      <trkpt lat="0" lon="0">
        <time>2020-12-20T08:44:37.314000+00:00</time>
      </trkpt>
      <trkpt lat="0" lon="0">
        <time>2020-12-20T08:44:37.318000+00:00</time>
      </trkpt>
      <trkpt lat="0" lon="0">
        <time>2020-12-20T08:44:37.323000+00:00</time>
      </trkpt>
      <trkpt lat="47.32742" lon="-1.30072">
        <ele>68</ele>
        <time>2020-12-20T08:44:38.331000+00:00</time>
      </trkpt>
      <trkpt lat="0" lon="0">
        <time>2020-12-20T08:44:38.345000+00:00</time>
      </trkpt>
      <trkpt lat="0" lon="0">
        <time>2020-12-20T08:44:38.350000+00:00</time>
      </trkpt>
      <trkpt lat="0" lon="0">
        <time>2020-12-20T08:44:38.352000+00:00</time>
      </trkpt>
      <trkpt lat="47.32746" lon="-1.30066">
        <ele>68</ele>
        <time>2020-12-20T08:44:39.330000+00:00</time>
      </trkpt>
      <trkpt lat="0" lon="0">
        <time>2020-12-20T08:44:39.346000+00:00</time>
      </trkpt>
      <trkpt lat="0" lon="0">
        <time>2020-12-20T08:44:39.354000+00:00</time>
      </trkpt>
      <trkpt lat="0" lon="0">
        <time>2020-12-20T08:44:39.356000+00:00</time>
      </trkpt>
      <trkpt lat="47.32749" lon="-1.3006">
        <ele>68</ele>
        <time>2020-12-20T08:44:40.307000+00:00</time>
      </trkpt>
      <trkpt lat="0" lon="0">
        <time>2020-12-20T08:44:40.315000+00:00</time>
      </trkpt>
      <trkpt lat="0" lon="0">
        <time>2020-12-20T08:44:40.320000+00:00</time>
      </trkpt>
      <trkpt lat="0" lon="0">
        <time>2020-12-20T08:44:40.329000+00:00</time>
      </trkpt>
      <trkpt lat="47.32752" lon="-1.30054">
        <ele>68</ele>
        <time>2020-12-20T08:44:41.308000+00:00</time>
      </trkpt>
      <trkpt lat="0" lon="0">
        <time>2020-12-20T08:44:41.321000+00:00</time>
      </trkpt>
      <trkpt lat="0" lon="0">
        <time>2020-12-20T08:44:41.326000+00:00</time>
      </trkpt>
      <trkpt lat="0" lon="0">
        <time>2020-12-20T08:44:41.328000+00:00</time>
      </trkpt>
      <trkpt lat="47.32755" lon="-1.30048">
        <ele>68</ele>
        <time>2020-12-20T08:44:42.304000+00:00</time>
      </trkpt>
      <trkpt lat="0" lon="0">
        <time>2020-12-20T08:44:42.312000+00:00</time>
      </trkpt>
      <trkpt lat="0" lon="0">
        <time>2020-12-20T08:44:42.314000+00:00</time>
      </trkpt>
      <trkpt lat="47.32758" lon="-1.30042">
        <ele>68</ele>
        <time>2020-12-20T08:44:43.331000+00:00</time>
      </trkpt>
      <trkpt lat="0" lon="0">
        <time>2020-12-20T08:44:43.348000+00:00</time>
      </trkpt>
      <trkpt lat="0" lon="0">
        <time>2020-12-20T08:44:43.352000+00:00</time>
      </trkpt>
      <trkpt lat="0" lon="0">
        <time>2020-12-20T08:44:43.354000+00:00</time>
      </trkpt>
      <trkpt lat="47.32761" lon="-1.30036">
        <ele>68</ele>
        <time>2020-12-20T08:44:44.309000+00:00</time>
      </trkpt>
      <trkpt lat="0" lon="0">
        <time>2020-12-20T08:44:44.323000+00:00</time>
      </trkpt>
      <trkpt lat="0" lon="0">
        <time>2020-12-20T08:44:44.330000+00:00</time>
      </trkpt>
      <trkpt lat="0" lon="0">
        <time>2020-12-20T08:44:44.332000+00:00</time>
      </trkpt>
      <trkpt lat="47.32764" lon="-1.3003">
        <ele>67</ele>
        <time>2020-12-20T08:44:45.305000+00:00</time>
      </trkpt>
      <trkpt lat="0" lon="0">
        <time>2020-12-20T08:44:45.317000+00:00</time>
      </trkpt>
      <trkpt lat="0" lon="0">
        <time>2020-12-20T08:44:45.320000+00:00</time>
      </trkpt>
      <trkpt lat="0" lon="0">
        <time>2020-12-20T08:44:45.326000+00:00</time>
      </trkpt>
      <trkpt lat="47.32767" lon="-1.30024">
        <ele>67</ele>
        <time>2020-12-20T08:44:46.298000+00:00</time>
      </trkpt>
      <trkpt lat="0" lon="0">
        <time>2020-12-20T08:44:46.312000+00:00</time>
      </trkpt>
      <trkpt lat="0" lon="0">
        <time>2020-12-20T08:44:46.315000+00:00</time>
      </trkpt>
      <trkpt lat="0" lon="0">
        <time>2020-12-20T08:44:46.317000+00:00</time>
      </trkpt>
      <trkpt lat="47.3277" lon="-1.30018">
        <ele>66</ele>
        <time>2020-12-20T08:44:47.289000+00:00</time>
      </trkpt>
      <trkpt lat="0" lon="0">
        <time>2020-12-20T08:44:47.296000+00:00</time>
      </trkpt>
      <trkpt lat="0" lon="0">
        <time>2020-12-20T08:44:47.302000+00:00</time>
      </trkpt>
      <trkpt lat="0" lon="0">
        <time>2020-12-20T08:44:47.305000+00:00</time>
      </trkpt>
      <trkpt lat="47.32773" lon="-1.30013">
        <ele>66</ele>
        <time>2020-12-20T08:44:48.300000+00:00</time>
      </trkpt>
      <trkpt lat="0" lon="0">
        <time>2020-12-20T08:44:48.308000+00:00</time>
      </trkpt>
      <trkpt lat="0" lon="0">
        <time>2020-12-20T08:44:48.309000+00:00</time>
      </trkpt>
      <trkpt lat="0" lon="0">
        <time>2020-12-20T08:44:48.310000+00:00</time>
      </trkpt>
      <trkpt lat="47.32776" lon="-1.30007">
        <ele>65</ele>
        <time>2020-12-20T08:44:49.301000+00:00</time>
      </trkpt>
      <trkpt lat="0" lon="0">
        <time>2020-12-20T08:44:49.320000+00:00</time>
      </trkpt>
      <trkpt lat="0" lon="0">
        <time>2020-12-20T08:44:49.327000+00:00</time>
      </trkpt>
      <trkpt lat="0" lon="0">
        <time>2020-12-20T08:44:49.330000+00:00</time>
      </trkpt>
      <trkpt lat="47.32779" lon="-1.30001">
        <ele>65</ele>
        <time>2020-12-20T08:44:50.316000+00:00</time>
      </trkpt>
      <trkpt lat="0" lon="0">
        <time>2020-12-20T08:44:50.340000+00:00</time>
      </trkpt>
      <trkpt lat="0" lon="0">
        <time>2020-12-20T08:44:50.342000+00:00</time>
      </trkpt>
      <trkpt lat="0" lon="0">
        <time>2020-12-20T08:44:50.343000+00:00</time>
      </trkpt>
      <trkpt lat="47.32782" lon="-1.29995">
        <ele>64</ele>
        <time>2020-12-20T08:44:51.315000+00:00</time>
      </trkpt>
      <trkpt lat="0" lon="0">
        <time>2020-12-20T08:44:51.334000+00:00</time>
      </trkpt>
      <trkpt lat="0" lon="0">
        <time>2020-12-20T08:44:51.337000+00:00</time>
      </trkpt>
      <trkpt lat="0" lon="0">
        <time>2020-12-20T08:44:51.338000+00:00</time>
      </trkpt>
      <trkpt lat="47.32785" lon="-1.2999">
        <ele>64</ele>
        <time>2020-12-20T08:44:52.302000+00:00</time>
      </trkpt>
      <trkpt lat="0" lon="0">
        <time>2020-12-20T08:44:52.309000+00:00</time>
      </trkpt>
      <trkpt lat="0" lon="0">
        <time>2020-12-20T08:44:52.313000+00:00</time>
      </trkpt>
      <trkpt lat="0" lon="0">
        <time>2020-12-20T08:44:52.316000+00:00</time>
      </trkpt>
      <trkpt lat="47.32788" lon="-1.29984">
        <ele>64</ele>
        <time>2020-12-20T08:44:53.312000+00:00</time>
      </trkpt>
      <trkpt lat="0" lon="0">
        <time>2020-12-20T08:44:53.317000+00:00</time>
      </trkpt>
      <trkpt lat="0" lon="0">
        <time>2020-12-20T08:44:53.324000+00:00</time>
      </trkpt>
      <trkpt lat="0" lon="0">
        <time>2020-12-20T08:44:53.326000+00:00</time>
      </trkpt>
      <trkpt lat="47.3279" lon="-1.29979">
        <ele>63</ele>
        <time>2020-12-20T08:44:54.306000+00:00</time>
      </trkpt>
      <trkpt lat="0" lon="0">
        <time>2020-12-20T08:44:54.318000+00:00</time>
      </trkpt>
      <trkpt lat="0" lon="0">
        <time>2020-12-20T08:44:54.320000+00:00</time>
      </trkpt>
      <trkpt lat="0" lon="0">
        <time>2020-12-20T08:44:54.322000+00:00</time>
      </trkpt>
      <trkpt lat="47.32793" lon="-1.29973">
        <ele>63</ele>
        <time>2020-12-20T08:44:55.277000+00:00</time>
      </trkpt>
      <trkpt lat="0" lon="0">
        <time>2020-12-20T08:44:55.280000+00:00</time>
      </trkpt>
      <trkpt lat="0" lon="0">
        <time>2020-12-20T08:44:55.288000+00:00</time>
      </trkpt>
      <trkpt lat="0" lon="0">
        <time>2020-12-20T08:44:55.290000+00:00</time>
      </trkpt>
      <trkpt lat="47.32796" lon="-1.29968">
        <ele>63</ele>
        <time>2020-12-20T08:44:56.330000+00:00</time>
      </trkpt>
      <trkpt lat="0" lon="0">
        <time>2020-12-20T08:44:56.341000+00:00</time>
      </trkpt>
      <trkpt lat="0" lon="0">
        <time>2020-12-20T08:44:56.351000+00:00</time>
      </trkpt>
      <trkpt lat="0" lon="0">
        <time>2020-12-20T08:44:56.358000+00:00</time>
      </trkpt>
      <trkpt lat="47.32799" lon="-1.29963">
        <ele>64</ele>
        <time>2020-12-20T08:44:57.283000+00:00</time>
      </trkpt>
      <trkpt lat="0" lon="0">
        <time>2020-12-20T08:44:57.304000+00:00</time>
      </trkpt>
      <trkpt lat="0" lon="0">
        <time>2020-12-20T08:44:57.307000+00:00</time>
      </trkpt>
      <trkpt lat="0" lon="0">
        <time>2020-12-20T08:44:57.311000+00:00</time>
      </trkpt>
      <trkpt lat="47.32801" lon="-1.29958">
        <ele>64</ele>
        <time>2020-12-20T08:44:58.283000+00:00</time>
      </trkpt>
      <trkpt lat="0" lon="0">
        <time>2020-12-20T08:44:58.289000+00:00</time>
      </trkpt>
      <trkpt lat="0" lon="0">
        <time>2020-12-20T08:44:58.302000+00:00</time>
      </trkpt>
      <trkpt lat="0" lon="0">
        <time>2020-12-20T08:44:58.307000+00:00</time>
      </trkpt>
      <trkpt lat="47.32804" lon="-1.29952">
        <ele>64</ele>
        <time>2020-12-20T08:44:59.300000+00:00</time>
      </trkpt>
      <trkpt lat="0" lon="0">
        <time>2020-12-20T08:44:59.307000+00:00</time>
      </trkpt>
      <trkpt lat="0" lon="0">
        <time>2020-12-20T08:44:59.323000+00:00</time>
      </trkpt>
      <trkpt lat="0" lon="0">
        <time>2020-12-20T08:44:59.326000+00:00</time>
      </trkpt>
      <trkpt lat="47.32807" lon="-1.29947">
        <ele>64</ele>
        <time>2020-12-20T08:45:00.321000+00:00</time>
      </trkpt>
      <trkpt lat="0" lon="0">
        <time>2020-12-20T08:45:00.326000+00:00</time>
      </trkpt>
      <trkpt lat="0" lon="0">
        <time>2020-12-20T08:45:00.328000+00:00</time>
      </trkpt>
      <trkpt lat="0" lon="0">
        <time>2020-12-20T08:45:00.329000+00:00</time>
      </trkpt>
      <trkpt lat="47.3281" lon="-1.29942">
        <ele>64</ele>
        <time>2020-12-20T08:45:01.329000+00:00</time>
      </trkpt>
      <trkpt lat="0" lon="0">
        <time>2020-12-20T08:45:01.345000+00:00</time>
      </trkpt>
      <trkpt lat="0" lon="0">
        <time>2020-12-20T08:45:01.349000+00:00</time>
      </trkpt>
      <trkpt lat="0" lon="0">
        <time>2020-12-20T08:45:01.352000+00:00</time>
      </trkpt>
      <trkpt lat="47.32812" lon="-1.29937">
        <ele>64</ele>
        <time>2020-12-20T08:45:02.295000+00:00</time>
      </trkpt>
      <trkpt lat="0" lon="0">
        <time>2020-12-20T08:45:02.304000+00:00</time>
      </trkpt>
      <trkpt lat="0" lon="0">
        <time>2020-12-20T08:45:02.320000+00:00</time>
      </trkpt>
      <trkpt lat="0" lon="0">
        <time>2020-12-20T08:45:02.325000+00:00</time>
      </trkpt>
      <trkpt lat="47.32815" lon="-1.29931">
        <ele>63</ele>
        <time>2020-12-20T08:45:03.284000+00:00</time>
      </trkpt>
      <trkpt lat="0" lon="0">
        <time>2020-12-20T08:45:03.296000+00:00</time>
      </trkpt>
      <trkpt lat="0" lon="0">
        <time>2020-12-20T08:45:03.305000+00:00</time>
      </trkpt>
      <trkpt lat="0" lon="0">
        <time>2020-12-20T08:45:03.311000+00:00</time>
      </trkpt>
      <trkpt lat="47.32818" lon="-1.29926">
        <ele>63</ele>
        <time>2020-12-20T08:45:04.316000+00:00</time>
      </trkpt>
      <trkpt lat="0" lon="0">
        <time>2020-12-20T08:45:04.332000+00:00</time>
      </trkpt>
      <trkpt lat="0" lon="0">
        <time>2020-12-20T08:45:04.336000+00:00</time>
      </trkpt>
      <trkpt lat="0" lon="0">
        <time>2020-12-20T08:45:04.338000+00:00</time>
      </trkpt>
      <trkpt lat="47.3282" lon="-1.2992">
        <ele>63</ele>
        <time>2020-12-20T08:45:05.322000+00:00</time>
      </trkpt>
      <trkpt lat="0" lon="0">
        <time>2020-12-20T08:45:05.324000+00:00</time>
      </trkpt>
      <trkpt lat="0" lon="0">
        <time>2020-12-20T08:45:05.326000+00:00</time>
      </trkpt>
      <trkpt lat="0" lon="0">
        <time>2020-12-20T08:45:05.327000+00:00</time>
      </trkpt>
      <trkpt lat="47.32823" lon="-1.29915">
        <ele>63</ele>
        <time>2020-12-20T08:45:06.301000+00:00</time>
      </trkpt>
      <trkpt lat="0" lon="0">
        <time>2020-12-20T08:45:06.304000+00:00</time>
      </trkpt>
      <trkpt lat="0" lon="0">
        <time>2020-12-20T08:45:06.305000+00:00</time>
      </trkpt>
      <trkpt lat="0" lon="0">
        <time>2020-12-20T08:45:06.306000+00:00</time>
      </trkpt>
      <trkpt lat="47.32825" lon="-1.2991">
        <ele>63</ele>
        <time>2020-12-20T08:45:07.326000+00:00</time>
      </trkpt>
      <trkpt lat="0" lon="0">
        <time>2020-12-20T08:45:07.346000+00:00</time>
      </trkpt>
      <trkpt lat="0" lon="0">
        <time>2020-12-20T08:45:07.353000+00:00</time>
      </trkpt>
      <trkpt lat="0" lon="0">
        <time>2020-12-20T08:45:07.355000+00:00</time>
      </trkpt>
      <trkpt lat="47.32827" lon="-1.29905">
        <ele>63</ele>
        <time>2020-12-20T08:45:08.323000+00:00</time>
      </trkpt>
      <trkpt lat="0" lon="0">
        <time>2020-12-20T08:45:08.331000+00:00</time>
      </trkpt>
      <trkpt lat="0" lon="0">
        <time>2020-12-20T08:45:08.335000+00:00</time>
      </trkpt>
      <trkpt lat="0" lon="0">
        <time>2020-12-20T08:45:08.339000+00:00</time>
      </trkpt>
      <trkpt lat="47.32829" lon="-1.299">
        <ele>63</ele>
        <time>2020-12-20T08:45:09.295000+00:00</time>
      </trkpt>
      <trkpt lat="0" lon="0">
        <time>2020-12-20T08:45:09.297000+00:00</time>
      </trkpt>
      <trkpt lat="0" lon="0">
        <time>2020-12-20T08:45:09.299000+00:00</time>
      </trkpt>
      <trkpt lat="0" lon="0">
        <time>2020-12-20T08:45:09.300000+00:00</time>
      </trkpt>
      <trkpt lat="47.32831" lon="-1.29896">
        <ele>64</ele>
        <time>2020-12-20T08:45:10.318000+00:00</time>
      </trkpt>
      <trkpt lat="0" lon="0">
        <time>2020-12-20T08:45:10.326000+00:00</time>
      </trkpt>
      <trkpt lat="0" lon="0">
        <time>2020-12-20T08:45:10.331000+00:00</time>
      </trkpt>
      <trkpt lat="0" lon="0">
        <time>2020-12-20T08:45:10.333000+00:00</time>
      </trkpt>
      <trkpt lat="47.32834" lon="-1.29891">
        <ele>64</ele>
        <time>2020-12-20T08:45:11.290000+00:00</time>
      </trkpt>
      <trkpt lat="0" lon="0">
        <time>2020-12-20T08:45:11.294000+00:00</time>
      </trkpt>
      <trkpt lat="0" lon="0">
        <time>2020-12-20T08:45:11.302000+00:00</time>
      </trkpt>
      <trkpt lat="0" lon="0">
        <time>2020-12-20T08:45:11.304000+00:00</time>
      </trkpt>
      <trkpt lat="47.32836" lon="-1.29886">
        <ele>63</ele>
        <time>2020-12-20T08:45:12.318000+00:00</time>
      </trkpt>
      <trkpt lat="0" lon="0">
        <time>2020-12-20T08:45:12.337000+00:00</time>
      </trkpt>
      <trkpt lat="0" lon="0">
        <time>2020-12-20T08:45:12.346000+00:00</time>
      </trkpt>
      <trkpt lat="0" lon="0">
        <time>2020-12-20T08:45:12.348000+00:00</time>
      </trkpt>
      <trkpt lat="47.32839" lon="-1.29882">
        <ele>63</ele>
        <time>2020-12-20T08:45:13.311000+00:00</time>
      </trkpt>
      <trkpt lat="0" lon="0">
        <time>2020-12-20T08:45:13.327000+00:00</time>
      </trkpt>
      <trkpt lat="0" lon="0">
        <time>2020-12-20T08:45:13.334000+00:00</time>
      </trkpt>
      <trkpt lat="0" lon="0">
        <time>2020-12-20T08:45:13.337000+00:00</time>
      </trkpt>
      <trkpt lat="47.32841" lon="-1.29877">
        <ele>63</ele>
        <time>2020-12-20T08:45:14.330000+00:00</time>
      </trkpt>
      <trkpt lat="0" lon="0">
        <time>2020-12-20T08:45:14.342000+00:00</time>
      </trkpt>
      <trkpt lat="0" lon="0">
        <time>2020-12-20T08:45:14.351000+00:00</time>
      </trkpt>
      <trkpt lat="0" lon="0">
        <time>2020-12-20T08:45:14.353000+00:00</time>
      </trkpt>
      <trkpt lat="47.32844" lon="-1.29873">
        <ele>63</ele>
        <time>2020-12-20T08:45:15.306000+00:00</time>
      </trkpt>
      <trkpt lat="0" lon="0">
        <time>2020-12-20T08:45:15.315000+00:00</time>
      </trkpt>
      <trkpt lat="0" lon="0">
        <time>2020-12-20T08:45:15.319000+00:00</time>
      </trkpt>
      <trkpt lat="0" lon="0">
        <time>2020-12-20T08:45:15.321000+00:00</time>
      </trkpt>
      <trkpt lat="47.32846" lon="-1.29869">
        <ele>64</ele>
        <time>2020-12-20T08:45:16.316000+00:00</time>
      </trkpt>
      <trkpt lat="0" lon="0">
        <time>2020-12-20T08:45:16.327000+00:00</time>
      </trkpt>
      <trkpt lat="0" lon="0">
        <time>2020-12-20T08:45:16.343000+00:00</time>
      </trkpt>
      <trkpt lat="0" lon="0">
        <time>2020-12-20T08:45:16.346000+00:00</time>
      </trkpt>
      <trkpt lat="47.32849" lon="-1.29864">
        <ele>64</ele>
        <time>2020-12-20T08:45:17.320000+00:00</time>
      </trkpt>
      <trkpt lat="0" lon="0">
        <time>2020-12-20T08:45:17.337000+00:00</time>
      </trkpt>
      <trkpt lat="0" lon="0">
        <time>2020-12-20T08:45:17.340000+00:00</time>
      </trkpt>
      <trkpt lat="0" lon="0">
        <time>2020-12-20T08:45:17.343000+00:00</time>
      </trkpt>
      <trkpt lat="47.32851" lon="-1.2986">
        <ele>64</ele>
        <time>2020-12-20T08:45:18.342000+00:00</time>
      </trkpt>
      <trkpt lat="0" lon="0">
        <time>2020-12-20T08:45:18.347000+00:00</time>
      </trkpt>
      <trkpt lat="0" lon="0">
        <time>2020-12-20T08:45:18.352000+00:00</time>
      </trkpt>
      <trkpt lat="0" lon="0">
        <time>2020-12-20T08:45:18.358000+00:00</time>
      </trkpt>
      <trkpt lat="47.32854" lon="-1.29855">
        <ele>63</ele>
        <time>2020-12-20T08:45:19.295000+00:00</time>
      </trkpt>
      <trkpt lat="0" lon="0">
        <time>2020-12-20T08:45:19.305000+00:00</time>
      </trkpt>
      <trkpt lat="0" lon="0">
        <time>2020-12-20T08:45:19.307000+00:00</time>
      </trkpt>
      <trkpt lat="0" lon="0">
        <time>2020-12-20T08:45:19.309000+00:00</time>
      </trkpt>
      <trkpt lat="47.32857" lon="-1.29849">
        <ele>63</ele>
        <time>2020-12-20T08:45:20.286000+00:00</time>
      </trkpt>
      <trkpt lat="0" lon="0">
        <time>2020-12-20T08:45:20.293000+00:00</time>
      </trkpt>
      <trkpt lat="0" lon="0">
        <time>2020-12-20T08:45:20.300000+00:00</time>
      </trkpt>
      <trkpt lat="0" lon="0">
        <time>2020-12-20T08:45:20.302000+00:00</time>
      </trkpt>
      <trkpt lat="47.32861" lon="-1.29844">
        <ele>63</ele>
        <time>2020-12-20T08:45:21.297000+00:00</time>
      </trkpt>
      <trkpt lat="0" lon="0">
        <time>2020-12-20T08:45:21.309000+00:00</time>
      </trkpt>
      <trkpt lat="0" lon="0">
        <time>2020-12-20T08:45:21.314000+00:00</time>
      </trkpt>
      <trkpt lat="0" lon="0">
        <time>2020-12-20T08:45:21.316000+00:00</time>
      </trkpt>
      <trkpt lat="47.32864" lon="-1.29837">
        <ele>62</ele>
        <time>2020-12-20T08:45:22.309000+00:00</time>
      </trkpt>
      <trkpt lat="0" lon="0">
        <time>2020-12-20T08:45:22.318000+00:00</time>
      </trkpt>
      <trkpt lat="0" lon="0">
        <time>2020-12-20T08:45:22.328000+00:00</time>
      </trkpt>
      <trkpt lat="0" lon="0">
        <time>2020-12-20T08:45:22.330000+00:00</time>
      </trkpt>
      <trkpt lat="47.32867" lon="-1.29831">
        <ele>62</ele>
        <time>2020-12-20T08:45:23.304000+00:00</time>
      </trkpt>
      <trkpt lat="0" lon="0">
        <time>2020-12-20T08:45:23.316000+00:00</time>
      </trkpt>
      <trkpt lat="0" lon="0">
        <time>2020-12-20T08:45:23.320000+00:00</time>
      </trkpt>
      <trkpt lat="0" lon="0">
        <time>2020-12-20T08:45:23.323000+00:00</time>
      </trkpt>
      <trkpt lat="47.32871" lon="-1.29825">
        <ele>63</ele>
        <time>2020-12-20T08:45:24.302000+00:00</time>
      </trkpt>
      <trkpt lat="0" lon="0">
        <time>2020-12-20T08:45:24.313000+00:00</time>
      </trkpt>
      <trkpt lat="0" lon="0">
        <time>2020-12-20T08:45:24.323000+00:00</time>
      </trkpt>
      <trkpt lat="0" lon="0">
        <time>2020-12-20T08:45:24.326000+00:00</time>
      </trkpt>
      <trkpt lat="47.32875" lon="-1.29819">
        <ele>63</ele>
        <time>2020-12-20T08:45:25.304000+00:00</time>
      </trkpt>
      <trkpt lat="0" lon="0">
        <time>2020-12-20T08:45:25.323000+00:00</time>
      </trkpt>
      <trkpt lat="0" lon="0">
        <time>2020-12-20T08:45:25.332000+00:00</time>
      </trkpt>
      <trkpt lat="0" lon="0">
        <time>2020-12-20T08:45:25.341000+00:00</time>
      </trkpt>
      <trkpt lat="47.32878" lon="-1.29812">
        <ele>63</ele>
        <time>2020-12-20T08:45:26.293000+00:00</time>
      </trkpt>
      <trkpt lat="0" lon="0">
        <time>2020-12-20T08:45:26.304000+00:00</time>
      </trkpt>
      <trkpt lat="0" lon="0">
        <time>2020-12-20T08:45:26.313000+00:00</time>
      </trkpt>
      <trkpt lat="0" lon="0">
        <time>2020-12-20T08:45:26.323000+00:00</time>
      </trkpt>
      <trkpt lat="47.32882" lon="-1.29806">
        <ele>63</ele>
        <time>2020-12-20T08:45:27.306000+00:00</time>
      </trkpt>
      <trkpt lat="0" lon="0">
        <time>2020-12-20T08:45:27.312000+00:00</time>
      </trkpt>
      <trkpt lat="0" lon="0">
        <time>2020-12-20T08:45:27.330000+00:00</time>
      </trkpt>
      <trkpt lat="0" lon="0">
        <time>2020-12-20T08:45:27.332000+00:00</time>
      </trkpt>
      <trkpt lat="47.32885" lon="-1.298">
        <ele>64</ele>
        <time>2020-12-20T08:45:28.296000+00:00</time>
      </trkpt>
      <trkpt lat="0" lon="0">
        <time>2020-12-20T08:45:28.303000+00:00</time>
      </trkpt>
      <trkpt lat="0" lon="0">
        <time>2020-12-20T08:45:28.308000+00:00</time>
      </trkpt>
      <trkpt lat="0" lon="0">
        <time>2020-12-20T08:45:28.310000+00:00</time>
      </trkpt>
      <trkpt lat="47.32889" lon="-1.29794">
        <ele>64</ele>
        <time>2020-12-20T08:45:29.294000+00:00</time>
      </trkpt>
      <trkpt lat="0" lon="0">
        <time>2020-12-20T08:45:29.301000+00:00</time>
      </trkpt>
      <trkpt lat="0" lon="0">
        <time>2020-12-20T08:45:29.307000+00:00</time>
      </trkpt>
      <trkpt lat="0" lon="0">
        <time>2020-12-20T08:45:29.310000+00:00</time>
      </trkpt>
      <trkpt lat="47.32892" lon="-1.29788">
        <ele>64</ele>
        <time>2020-12-20T08:45:30.312000+00:00</time>
      </trkpt>
      <trkpt lat="0" lon="0">
        <time>2020-12-20T08:45:30.326000+00:00</time>
      </trkpt>
      <trkpt lat="0" lon="0">
        <time>2020-12-20T08:45:30.333000+00:00</time>
      </trkpt>
      <trkpt lat="0" lon="0">
        <time>2020-12-20T08:45:30.338000+00:00</time>
      </trkpt>
      <trkpt lat="47.32895" lon="-1.29783">
        <ele>64</ele>
        <time>2020-12-20T08:45:31.317000+00:00</time>
      </trkpt>
      <trkpt lat="0" lon="0">
        <time>2020-12-20T08:45:31.323000+00:00</time>
      </trkpt>
      <trkpt lat="0" lon="0">
        <time>2020-12-20T08:45:31.328000+00:00</time>
      </trkpt>
      <trkpt lat="0" lon="0">
        <time>2020-12-20T08:45:31.333000+00:00</time>
      </trkpt>
      <trkpt lat="47.32899" lon="-1.29777">
        <ele>64</ele>
        <time>2020-12-20T08:45:32.346000+00:00</time>
      </trkpt>
      <trkpt lat="0" lon="0">
        <time>2020-12-20T08:45:32.360000+00:00</time>
      </trkpt>
      <trkpt lat="0" lon="0">
        <time>2020-12-20T08:45:32.371000+00:00</time>
      </trkpt>
      <trkpt lat="0" lon="0">
        <time>2020-12-20T08:45:32.380000+00:00</time>
      </trkpt>
      <trkpt lat="47.32902" lon="-1.29772">
        <ele>64</ele>
        <time>2020-12-20T08:45:33.298000+00:00</time>
      </trkpt>
      <trkpt lat="0" lon="0">
        <time>2020-12-20T08:45:33.304000+00:00</time>
      </trkpt>
      <trkpt lat="0" lon="0">
        <time>2020-12-20T08:45:33.309000+00:00</time>
      </trkpt>
      <trkpt lat="0" lon="0">
        <time>2020-12-20T08:45:33.312000+00:00</time>
      </trkpt>
      <trkpt lat="47.32905" lon="-1.29766">
        <ele>64</ele>
        <time>2020-12-20T08:45:34.355000+00:00</time>
      </trkpt>
      <trkpt lat="0" lon="0">
        <time>2020-12-20T08:45:34.368000+00:00</time>
      </trkpt>
      <trkpt lat="0" lon="0">
        <time>2020-12-20T08:45:34.372000+00:00</time>
      </trkpt>
      <trkpt lat="0" lon="0">
        <time>2020-12-20T08:45:34.376000+00:00</time>
      </trkpt>
      <trkpt lat="47.32909" lon="-1.29761">
        <ele>64</ele>
        <time>2020-12-20T08:45:35.290000+00:00</time>
      </trkpt>
      <trkpt lat="0" lon="0">
        <time>2020-12-20T08:45:35.296000+00:00</time>
      </trkpt>
      <trkpt lat="0" lon="0">
        <time>2020-12-20T08:45:35.301000+00:00</time>
      </trkpt>
      <trkpt lat="0" lon="0">
        <time>2020-12-20T08:45:35.305000+00:00</time>
      </trkpt>
      <trkpt lat="47.32912" lon="-1.29756">
        <ele>64</ele>
        <time>2020-12-20T08:45:36.327000+00:00</time>
      </trkpt>
      <trkpt lat="0" lon="0">
        <time>2020-12-20T08:45:36.341000+00:00</time>
      </trkpt>
      <trkpt lat="0" lon="0">
        <time>2020-12-20T08:45:36.349000+00:00</time>
      </trkpt>
      <trkpt lat="0" lon="0">
        <time>2020-12-20T08:45:36.351000+00:00</time>
      </trkpt>
      <trkpt lat="47.32915" lon="-1.2975">
        <ele>64</ele>
        <time>2020-12-20T08:45:37.362000+00:00</time>
      </trkpt>
      <trkpt lat="0" lon="0">
        <time>2020-12-20T08:45:37.372000+00:00</time>
      </trkpt>
      <trkpt lat="0" lon="0">
        <time>2020-12-20T08:45:37.376000+00:00</time>
      </trkpt>
      <trkpt lat="0" lon="0">
        <time>2020-12-20T08:45:37.381000+00:00</time>
      </trkpt>
      <trkpt lat="47.32918" lon="-1.29745">
        <ele>64</ele>
        <time>2020-12-20T08:45:38.306000+00:00</time>
      </trkpt>
      <trkpt lat="0" lon="0">
        <time>2020-12-20T08:45:38.318000+00:00</time>
      </trkpt>
      <trkpt lat="0" lon="0">
        <time>2020-12-20T08:45:38.324000+00:00</time>
      </trkpt>
      <trkpt lat="0" lon="0">
        <time>2020-12-20T08:45:38.334000+00:00</time>
      </trkpt>
      <trkpt lat="47.32921" lon="-1.2974">
        <ele>64</ele>
        <time>2020-12-20T08:45:39.301000+00:00</time>
      </trkpt>
      <trkpt lat="0" lon="0">
        <time>2020-12-20T08:45:39.310000+00:00</time>
      </trkpt>
      <trkpt lat="0" lon="0">
        <time>2020-12-20T08:45:39.316000+00:00</time>
      </trkpt>
      <trkpt lat="0" lon="0">
        <time>2020-12-20T08:45:39.318000+00:00</time>
      </trkpt>
      <trkpt lat="47.32925" lon="-1.29734">
        <ele>64</ele>
        <time>2020-12-20T08:45:40.311000+00:00</time>
      </trkpt>
      <trkpt lat="0" lon="0">
        <time>2020-12-20T08:45:40.319000+00:00</time>
      </trkpt>
      <trkpt lat="0" lon="0">
        <time>2020-12-20T08:45:40.326000+00:00</time>
      </trkpt>
      <trkpt lat="0" lon="0">
        <time>2020-12-20T08:45:40.329000+00:00</time>
      </trkpt>
      <trkpt lat="47.32928" lon="-1.29729">
        <ele>65</ele>
        <time>2020-12-20T08:45:41.301000+00:00</time>
      </trkpt>
      <trkpt lat="0" lon="0">
        <time>2020-12-20T08:45:41.308000+00:00</time>
      </trkpt>
      <trkpt lat="0" lon="0">
        <time>2020-12-20T08:45:41.314000+00:00</time>
      </trkpt>
      <trkpt lat="0" lon="0">
        <time>2020-12-20T08:45:41.316000+00:00</time>
      </trkpt>
      <trkpt lat="47.3293" lon="-1.29723">
        <ele>65</ele>
        <time>2020-12-20T08:45:42.321000+00:00</time>
      </trkpt>
      <trkpt lat="0" lon="0">
        <time>2020-12-20T08:45:42.325000+00:00</time>
      </trkpt>
      <trkpt lat="0" lon="0">
        <time>2020-12-20T08:45:42.331000+00:00</time>
      </trkpt>
      <trkpt lat="0" lon="0">
        <time>2020-12-20T08:45:42.337000+00:00</time>
      </trkpt>
      <trkpt lat="47.32933" lon="-1.29718">
        <ele>65</ele>
        <time>2020-12-20T08:45:43.314000+00:00</time>
      </trkpt>
      <trkpt lat="0" lon="0">
        <time>2020-12-20T08:45:43.328000+00:00</time>
      </trkpt>
      <trkpt lat="0" lon="0">
        <time>2020-12-20T08:45:43.332000+00:00</time>
      </trkpt>
      <trkpt lat="0" lon="0">
        <time>2020-12-20T08:45:43.335000+00:00</time>
      </trkpt>
      <trkpt lat="47.32936" lon="-1.29713">
        <ele>65</ele>
        <time>2020-12-20T08:45:44.318000+00:00</time>
      </trkpt>
      <trkpt lat="0" lon="0">
        <time>2020-12-20T08:45:44.328000+00:00</time>
      </trkpt>
      <trkpt lat="0" lon="0">
        <time>2020-12-20T08:45:44.330000+00:00</time>
      </trkpt>
      <trkpt lat="0" lon="0">
        <time>2020-12-20T08:45:44.332000+00:00</time>
      </trkpt>
      <trkpt lat="47.32939" lon="-1.29707">
        <ele>65</ele>
        <time>2020-12-20T08:45:45.339000+00:00</time>
      </trkpt>
      <trkpt lat="0" lon="0">
        <time>2020-12-20T08:45:45.350000+00:00</time>
      </trkpt>
      <trkpt lat="0" lon="0">
        <time>2020-12-20T08:45:45.355000+00:00</time>
      </trkpt>
      <trkpt lat="0" lon="0">
        <time>2020-12-20T08:45:45.360000+00:00</time>
      </trkpt>
      <trkpt lat="47.32941" lon="-1.29702">
        <ele>65</ele>
        <time>2020-12-20T08:45:46.334000+00:00</time>
      </trkpt>
      <trkpt lat="0" lon="0">
        <time>2020-12-20T08:45:46.337000+00:00</time>
      </trkpt>
      <trkpt lat="0" lon="0">
        <time>2020-12-20T08:45:46.339000+00:00</time>
      </trkpt>
      <trkpt lat="0" lon="0">
        <time>2020-12-20T08:45:46.340000+00:00</time>
      </trkpt>
      <trkpt lat="47.32945" lon="-1.29696">
        <ele>65</ele>
        <time>2020-12-20T08:45:47.332000+00:00</time>
      </trkpt>
      <trkpt lat="0" lon="0">
        <time>2020-12-20T08:45:47.341000+00:00</time>
      </trkpt>
      <trkpt lat="0" lon="0">
        <time>2020-12-20T08:45:47.348000+00:00</time>
      </trkpt>
      <trkpt lat="0" lon="0">
        <time>2020-12-20T08:45:47.350000+00:00</time>
      </trkpt>
      <trkpt lat="47.32948" lon="-1.29691">
        <ele>65</ele>
        <time>2020-12-20T08:45:48.332000+00:00</time>
      </trkpt>
      <trkpt lat="0" lon="0">
        <time>2020-12-20T08:45:48.353000+00:00</time>
      </trkpt>
      <trkpt lat="0" lon="0">
        <time>2020-12-20T08:45:48.370000+00:00</time>
      </trkpt>
      <trkpt lat="0" lon="0">
        <time>2020-12-20T08:45:48.377000+00:00</time>
      </trkpt>
      <trkpt lat="47.32951" lon="-1.29685">
        <ele>65</ele>
        <time>2020-12-20T08:45:49.321000+00:00</time>
      </trkpt>
      <trkpt lat="0" lon="0">
        <time>2020-12-20T08:45:49.329000+00:00</time>
      </trkpt>
      <trkpt lat="0" lon="0">
        <time>2020-12-20T08:45:49.334000+00:00</time>
      </trkpt>
      <trkpt lat="0" lon="0">
        <time>2020-12-20T08:45:49.337000+00:00</time>
      </trkpt>
      <trkpt lat="47.32954" lon="-1.2968">
        <ele>65</ele>
        <time>2020-12-20T08:45:50.324000+00:00</time>
      </trkpt>
      <trkpt lat="0" lon="0">
        <time>2020-12-20T08:45:50.330000+00:00</time>
      </trkpt>
      <trkpt lat="0" lon="0">
        <time>2020-12-20T08:45:50.338000+00:00</time>
      </trkpt>
      <trkpt lat="0" lon="0">
        <time>2020-12-20T08:45:50.345000+00:00</time>
      </trkpt>
      <trkpt lat="47.32958" lon="-1.29674">
        <ele>65</ele>
        <time>2020-12-20T08:45:51.333000+00:00</time>
      </trkpt>
      <trkpt lat="0" lon="0">
        <time>2020-12-20T08:45:51.337000+00:00</time>
      </trkpt>
      <trkpt lat="0" lon="0">
        <time>2020-12-20T08:45:51.343000+00:00</time>
      </trkpt>
      <trkpt lat="0" lon="0">
        <time>2020-12-20T08:45:51.346000+00:00</time>
      </trkpt>
      <trkpt lat="47.32961" lon="-1.29669">
        <ele>65</ele>
        <time>2020-12-20T08:45:52.349000+00:00</time>
      </trkpt>
      <trkpt lat="0" lon="0">
        <time>2020-12-20T08:45:52.356000+00:00</time>
      </trkpt>
      <trkpt lat="0" lon="0">
        <time>2020-12-20T08:45:52.358000+00:00</time>
      </trkpt>
      <trkpt lat="0" lon="0">
        <time>2020-12-20T08:45:52.359000+00:00</time>
      </trkpt>
      <trkpt lat="47.32965" lon="-1.29664">
        <ele>65</ele>
        <time>2020-12-20T08:45:53.297000+00:00</time>
      </trkpt>
      <trkpt lat="0" lon="0">
        <time>2020-12-20T08:45:53.301000+00:00</time>
      </trkpt>
      <trkpt lat="0" lon="0">
        <time>2020-12-20T08:45:53.308000+00:00</time>
      </trkpt>
      <trkpt lat="0" lon="0">
        <time>2020-12-20T08:45:53.310000+00:00</time>
      </trkpt>
      <trkpt lat="47.32968" lon="-1.29659">
        <ele>65</ele>
        <time>2020-12-20T08:45:54.317000+00:00</time>
      </trkpt>
      <trkpt lat="0" lon="0">
        <time>2020-12-20T08:45:54.328000+00:00</time>
      </trkpt>
      <trkpt lat="0" lon="0">
        <time>2020-12-20T08:45:54.335000+00:00</time>
      </trkpt>
      <trkpt lat="0" lon="0">
        <time>2020-12-20T08:45:54.337000+00:00</time>
      </trkpt>
      <trkpt lat="47.32972" lon="-1.29653">
        <ele>65</ele>
        <time>2020-12-20T08:45:55.336000+00:00</time>
      </trkpt>
      <trkpt lat="0" lon="0">
        <time>2020-12-20T08:45:55.362000+00:00</time>
      </trkpt>
      <trkpt lat="0" lon="0">
        <time>2020-12-20T08:45:55.368000+00:00</time>
      </trkpt>
      <trkpt lat="0" lon="0">
        <time>2020-12-20T08:45:55.369000+00:00</time>
      </trkpt>
      <trkpt lat="47.32976" lon="-1.29648">
        <ele>65</ele>
        <time>2020-12-20T08:45:56.301000+00:00</time>
      </trkpt>
      <trkpt lat="0" lon="0">
        <time>2020-12-20T08:45:56.317000+00:00</time>
      </trkpt>
      <trkpt lat="0" lon="0">
        <time>2020-12-20T08:45:56.326000+00:00</time>
      </trkpt>
      <trkpt lat="0" lon="0">
        <time>2020-12-20T08:45:56.330000+00:00</time>
      </trkpt>
      <trkpt lat="47.3298" lon="-1.29642">
        <ele>65</ele>
        <time>2020-12-20T08:45:57.319000+00:00</time>
      </trkpt>
      <trkpt lat="0" lon="0">
        <time>2020-12-20T08:45:57.333000+00:00</time>
      </trkpt>
      <trkpt lat="0" lon="0">
        <time>2020-12-20T08:45:57.337000+00:00</time>
      </trkpt>
      <trkpt lat="0" lon="0">
        <time>2020-12-20T08:45:57.344000+00:00</time>
      </trkpt>
      <trkpt lat="47.32983" lon="-1.29637">
        <ele>64</ele>
        <time>2020-12-20T08:45:58.308000+00:00</time>
      </trkpt>
      <trkpt lat="0" lon="0">
        <time>2020-12-20T08:45:58.315000+00:00</time>
      </trkpt>
      <trkpt lat="0" lon="0">
        <time>2020-12-20T08:45:58.317000+00:00</time>
      </trkpt>
      <trkpt lat="47.32987" lon="-1.29632">
        <ele>64</ele>
        <time>2020-12-20T08:45:59.230000+00:00</time>
      </trkpt>
      <trkpt lat="0" lon="0">
        <time>2020-12-20T08:45:59.233000+00:00</time>
      </trkpt>
      <trkpt lat="0" lon="0">
        <time>2020-12-20T08:45:59.234000+00:00</time>
      </trkpt>
      <trkpt lat="0" lon="0">
        <time>2020-12-20T08:45:59.242000+00:00</time>
      </trkpt>
      <trkpt lat="47.3299" lon="-1.29626">
        <ele>64</ele>
        <time>2020-12-20T08:46:00.307000+00:00</time>
      </trkpt>
      <trkpt lat="0" lon="0">
        <time>2020-12-20T08:46:00.310000+00:00</time>
      </trkpt>
      <trkpt lat="0" lon="0">
        <time>2020-12-20T08:46:00.313000+00:00</time>
      </trkpt>
      <trkpt lat="0" lon="0">
        <time>2020-12-20T08:46:00.314000+00:00</time>
      </trkpt>
      <trkpt lat="47.32993" lon="-1.2962">
        <ele>64</ele>
        <time>2020-12-20T08:46:01.313000+00:00</time>
      </trkpt>
      <trkpt lat="0" lon="0">
        <time>2020-12-20T08:46:01.320000+00:00</time>
      </trkpt>
      <trkpt lat="0" lon="0">
        <time>2020-12-20T08:46:01.331000+00:00</time>
      </trkpt>
      <trkpt lat="0" lon="0">
        <time>2020-12-20T08:46:01.333000+00:00</time>
      </trkpt>
      <trkpt lat="47.32996" lon="-1.29614">
        <ele>64</ele>
        <time>2020-12-20T08:46:02.351000+00:00</time>
      </trkpt>
      <trkpt lat="0" lon="0">
        <time>2020-12-20T08:46:02.364000+00:00</time>
      </trkpt>
      <trkpt lat="0" lon="0">
        <time>2020-12-20T08:46:02.370000+00:00</time>
      </trkpt>
      <trkpt lat="0" lon="0">
        <time>2020-12-20T08:46:02.373000+00:00</time>
      </trkpt>
      <trkpt lat="47.32999" lon="-1.29608">
        <ele>64</ele>
        <time>2020-12-20T08:46:03.333000+00:00</time>
      </trkpt>
      <trkpt lat="0" lon="0">
        <time>2020-12-20T08:46:03.341000+00:00</time>
      </trkpt>
      <trkpt lat="0" lon="0">
        <time>2020-12-20T08:46:03.346000+00:00</time>
      </trkpt>
      <trkpt lat="0" lon="0">
        <time>2020-12-20T08:46:03.348000+00:00</time>
      </trkpt>
      <trkpt lat="47.33002" lon="-1.29602">
        <ele>64</ele>
        <time>2020-12-20T08:46:04.299000+00:00</time>
      </trkpt>
      <trkpt lat="0" lon="0">
        <time>2020-12-20T08:46:04.302000+00:00</time>
      </trkpt>
      <trkpt lat="0" lon="0">
        <time>2020-12-20T08:46:04.310000+00:00</time>
      </trkpt>
      <trkpt lat="0" lon="0">
        <time>2020-12-20T08:46:04.311000+00:00</time>
      </trkpt>
      <trkpt lat="47.33005" lon="-1.29596">
        <ele>64</ele>
        <time>2020-12-20T08:46:05.301000+00:00</time>
      </trkpt>
      <trkpt lat="0" lon="0">
        <time>2020-12-20T08:46:05.312000+00:00</time>
      </trkpt>
      <trkpt lat="0" lon="0">
        <time>2020-12-20T08:46:05.318000+00:00</time>
      </trkpt>
      <trkpt lat="0" lon="0">
        <time>2020-12-20T08:46:05.320000+00:00</time>
      </trkpt>
      <trkpt lat="47.33008" lon="-1.29589">
        <ele>64</ele>
        <time>2020-12-20T08:46:06.309000+00:00</time>
      </trkpt>
      <trkpt lat="0" lon="0">
        <time>2020-12-20T08:46:06.318000+00:00</time>
      </trkpt>
      <trkpt lat="0" lon="0">
        <time>2020-12-20T08:46:06.324000+00:00</time>
      </trkpt>
      <trkpt lat="0" lon="0">
        <time>2020-12-20T08:46:06.326000+00:00</time>
      </trkpt>
      <trkpt lat="47.33011" lon="-1.29583">
        <ele>64</ele>
        <time>2020-12-20T08:46:07.324000+00:00</time>
      </trkpt>
      <trkpt lat="0" lon="0">
        <time>2020-12-20T08:46:07.328000+00:00</time>
      </trkpt>
      <trkpt lat="0" lon="0">
        <time>2020-12-20T08:46:07.333000+00:00</time>
      </trkpt>
      <trkpt lat="0" lon="0">
        <time>2020-12-20T08:46:07.336000+00:00</time>
      </trkpt>
      <trkpt lat="47.33014" lon="-1.29576">
        <ele>64</ele>
        <time>2020-12-20T08:46:08.311000+00:00</time>
      </trkpt>
      <trkpt lat="0" lon="0">
        <time>2020-12-20T08:46:08.319000+00:00</time>
      </trkpt>
      <trkpt lat="0" lon="0">
        <time>2020-12-20T08:46:08.324000+00:00</time>
      </trkpt>
      <trkpt lat="0" lon="0">
        <time>2020-12-20T08:46:08.327000+00:00</time>
      </trkpt>
      <trkpt lat="47.33017" lon="-1.2957">
        <ele>65</ele>
        <time>2020-12-20T08:46:09.360000+00:00</time>
      </trkpt>
      <trkpt lat="0" lon="0">
        <time>2020-12-20T08:46:09.364000+00:00</time>
      </trkpt>
      <trkpt lat="0" lon="0">
        <time>2020-12-20T08:46:09.370000+00:00</time>
      </trkpt>
      <trkpt lat="0" lon="0">
        <time>2020-12-20T08:46:09.373000+00:00</time>
      </trkpt>
      <trkpt lat="47.33021" lon="-1.29563">
        <ele>65</ele>
        <time>2020-12-20T08:46:10.310000+00:00</time>
      </trkpt>
      <trkpt lat="0" lon="0">
        <time>2020-12-20T08:46:10.321000+00:00</time>
      </trkpt>
      <trkpt lat="0" lon="0">
        <time>2020-12-20T08:46:10.329000+00:00</time>
      </trkpt>
      <trkpt lat="0" lon="0">
        <time>2020-12-20T08:46:10.333000+00:00</time>
      </trkpt>
      <trkpt lat="47.33024" lon="-1.29556">
        <ele>65</ele>
        <time>2020-12-20T08:46:11.294000+00:00</time>
      </trkpt>
      <trkpt lat="0" lon="0">
        <time>2020-12-20T08:46:11.302000+00:00</time>
      </trkpt>
      <trkpt lat="0" lon="0">
        <time>2020-12-20T08:46:11.311000+00:00</time>
      </trkpt>
      <trkpt lat="0" lon="0">
        <time>2020-12-20T08:46:11.313000+00:00</time>
      </trkpt>
      <trkpt lat="47.33027" lon="-1.29549">
        <ele>65</ele>
        <time>2020-12-20T08:46:12.290000+00:00</time>
      </trkpt>
      <trkpt lat="0" lon="0">
        <time>2020-12-20T08:46:12.301000+00:00</time>
      </trkpt>
      <trkpt lat="0" lon="0">
        <time>2020-12-20T08:46:12.305000+00:00</time>
      </trkpt>
      <trkpt lat="0" lon="0">
        <time>2020-12-20T08:46:12.307000+00:00</time>
      </trkpt>
      <trkpt lat="47.33031" lon="-1.29542">
        <ele>65</ele>
        <time>2020-12-20T08:46:13.313000+00:00</time>
      </trkpt>
      <trkpt lat="0" lon="0">
        <time>2020-12-20T08:46:13.321000+00:00</time>
      </trkpt>
      <trkpt lat="0" lon="0">
        <time>2020-12-20T08:46:13.325000+00:00</time>
      </trkpt>
      <trkpt lat="0" lon="0">
        <time>2020-12-20T08:46:13.326000+00:00</time>
      </trkpt>
      <trkpt lat="47.33034" lon="-1.29536">
        <ele>65</ele>
        <time>2020-12-20T08:46:14.291000+00:00</time>
      </trkpt>
      <trkpt lat="0" lon="0">
        <time>2020-12-20T08:46:14.299000+00:00</time>
      </trkpt>
      <trkpt lat="0" lon="0">
        <time>2020-12-20T08:46:14.304000+00:00</time>
      </trkpt>
      <trkpt lat="0" lon="0">
        <time>2020-12-20T08:46:14.311000+00:00</time>
      </trkpt>
      <trkpt lat="47.33038" lon="-1.29529">
        <ele>65</ele>
        <time>2020-12-20T08:46:15.341000+00:00</time>
      </trkpt>
      <trkpt lat="0" lon="0">
        <time>2020-12-20T08:46:15.357000+00:00</time>
      </trkpt>
      <trkpt lat="0" lon="0">
        <time>2020-12-20T08:46:15.361000+00:00</time>
      </trkpt>
      <trkpt lat="0" lon="0">
        <time>2020-12-20T08:46:15.363000+00:00</time>
      </trkpt>
      <trkpt lat="47.33041" lon="-1.29523">
        <ele>65</ele>
        <time>2020-12-20T08:46:16.313000+00:00</time>
      </trkpt>
      <trkpt lat="0" lon="0">
        <time>2020-12-20T08:46:16.317000+00:00</time>
      </trkpt>
      <trkpt lat="0" lon="0">
        <time>2020-12-20T08:46:16.321000+00:00</time>
      </trkpt>
      <trkpt lat="0" lon="0">
        <time>2020-12-20T08:46:16.325000+00:00</time>
      </trkpt>
      <trkpt lat="47.33045" lon="-1.29517">
        <ele>65</ele>
        <time>2020-12-20T08:46:17.343000+00:00</time>
      </trkpt>
      <trkpt lat="0" lon="0">
        <time>2020-12-20T08:46:17.364000+00:00</time>
      </trkpt>
      <trkpt lat="0" lon="0">
        <time>2020-12-20T08:46:17.372000+00:00</time>
      </trkpt>
      <trkpt lat="0" lon="0">
        <time>2020-12-20T08:46:17.378000+00:00</time>
      </trkpt>
      <trkpt lat="47.33049" lon="-1.2951">
        <ele>66</ele>
        <time>2020-12-20T08:46:18.321000+00:00</time>
      </trkpt>
      <trkpt lat="0" lon="0">
        <time>2020-12-20T08:46:18.326000+00:00</time>
      </trkpt>
      <trkpt lat="0" lon="0">
        <time>2020-12-20T08:46:18.334000+00:00</time>
      </trkpt>
      <trkpt lat="0" lon="0">
        <time>2020-12-20T08:46:18.338000+00:00</time>
      </trkpt>
      <trkpt lat="47.33052" lon="-1.29504">
        <ele>66</ele>
        <time>2020-12-20T08:46:19.309000+00:00</time>
      </trkpt>
      <trkpt lat="0" lon="0">
        <time>2020-12-20T08:46:19.316000+00:00</time>
      </trkpt>
      <trkpt lat="0" lon="0">
        <time>2020-12-20T08:46:19.319000+00:00</time>
      </trkpt>
      <trkpt lat="0" lon="0">
        <time>2020-12-20T08:46:19.323000+00:00</time>
      </trkpt>
      <trkpt lat="47.33056" lon="-1.29498">
        <ele>66</ele>
        <time>2020-12-20T08:46:20.307000+00:00</time>
      </trkpt>
      <trkpt lat="0" lon="0">
        <time>2020-12-20T08:46:20.330000+00:00</time>
      </trkpt>
      <trkpt lat="0" lon="0">
        <time>2020-12-20T08:46:20.332000+00:00</time>
      </trkpt>
      <trkpt lat="0" lon="0">
        <time>2020-12-20T08:46:20.333000+00:00</time>
      </trkpt>
      <trkpt lat="47.3306" lon="-1.29492">
        <ele>66</ele>
        <time>2020-12-20T08:46:21.289000+00:00</time>
      </trkpt>
      <trkpt lat="0" lon="0">
        <time>2020-12-20T08:46:21.292000+00:00</time>
      </trkpt>
      <trkpt lat="0" lon="0">
        <time>2020-12-20T08:46:21.295000+00:00</time>
      </trkpt>
      <trkpt lat="0" lon="0">
        <time>2020-12-20T08:46:21.296000+00:00</time>
      </trkpt>
      <trkpt lat="47.33063" lon="-1.29486">
        <ele>66</ele>
        <time>2020-12-20T08:46:22.321000+00:00</time>
      </trkpt>
      <trkpt lat="0" lon="0">
        <time>2020-12-20T08:46:22.333000+00:00</time>
      </trkpt>
      <trkpt lat="0" lon="0">
        <time>2020-12-20T08:46:22.337000+00:00</time>
      </trkpt>
      <trkpt lat="0" lon="0">
        <time>2020-12-20T08:46:22.342000+00:00</time>
      </trkpt>
      <trkpt lat="47.33067" lon="-1.29481">
        <ele>67</ele>
        <time>2020-12-20T08:46:23.337000+00:00</time>
      </trkpt>
      <trkpt lat="0" lon="0">
        <time>2020-12-20T08:46:23.345000+00:00</time>
      </trkpt>
      <trkpt lat="0" lon="0">
        <time>2020-12-20T08:46:23.349000+00:00</time>
      </trkpt>
      <trkpt lat="0" lon="0">
        <time>2020-12-20T08:46:23.352000+00:00</time>
      </trkpt>
      <trkpt lat="47.33071" lon="-1.29475">
        <ele>67</ele>
        <time>2020-12-20T08:46:24.325000+00:00</time>
      </trkpt>
      <trkpt lat="0" lon="0">
        <time>2020-12-20T08:46:24.335000+00:00</time>
      </trkpt>
      <trkpt lat="0" lon="0">
        <time>2020-12-20T08:46:24.342000+00:00</time>
      </trkpt>
      <trkpt lat="0" lon="0">
        <time>2020-12-20T08:46:24.347000+00:00</time>
      </trkpt>
      <trkpt lat="47.33074" lon="-1.2947">
        <ele>67</ele>
        <time>2020-12-20T08:46:25.341000+00:00</time>
      </trkpt>
      <trkpt lat="0" lon="0">
        <time>2020-12-20T08:46:25.349000+00:00</time>
      </trkpt>
      <trkpt lat="0" lon="0">
        <time>2020-12-20T08:46:25.358000+00:00</time>
      </trkpt>
      <trkpt lat="0" lon="0">
        <time>2020-12-20T08:46:25.360000+00:00</time>
      </trkpt>
      <trkpt lat="47.33078" lon="-1.29464">
        <ele>67</ele>
        <time>2020-12-20T08:46:26.338000+00:00</time>
      </trkpt>
      <trkpt lat="0" lon="0">
        <time>2020-12-20T08:46:26.342000+00:00</time>
      </trkpt>
      <trkpt lat="0" lon="0">
        <time>2020-12-20T08:46:26.355000+00:00</time>
      </trkpt>
      <trkpt lat="0" lon="0">
        <time>2020-12-20T08:46:26.360000+00:00</time>
      </trkpt>
      <trkpt lat="47.33082" lon="-1.29459">
        <ele>66</ele>
        <time>2020-12-20T08:46:27.340000+00:00</time>
      </trkpt>
      <trkpt lat="0" lon="0">
        <time>2020-12-20T08:46:27.342000+00:00</time>
      </trkpt>
      <trkpt lat="0" lon="0">
        <time>2020-12-20T08:46:27.344000+00:00</time>
      </trkpt>
      <trkpt lat="0" lon="0">
        <time>2020-12-20T08:46:27.346000+00:00</time>
      </trkpt>
      <trkpt lat="47.33086" lon="-1.29453">
        <ele>66</ele>
        <time>2020-12-20T08:46:28.326000+00:00</time>
      </trkpt>
      <trkpt lat="0" lon="0">
        <time>2020-12-20T08:46:28.332000+00:00</time>
      </trkpt>
      <trkpt lat="0" lon="0">
        <time>2020-12-20T08:46:28.335000+00:00</time>
      </trkpt>
      <trkpt lat="0" lon="0">
        <time>2020-12-20T08:46:28.337000+00:00</time>
      </trkpt>
      <trkpt lat="47.3309" lon="-1.29447">
        <ele>66</ele>
        <time>2020-12-20T08:46:29.332000+00:00</time>
      </trkpt>
      <trkpt lat="0" lon="0">
        <time>2020-12-20T08:46:29.346000+00:00</time>
      </trkpt>
      <trkpt lat="0" lon="0">
        <time>2020-12-20T08:46:29.353000+00:00</time>
      </trkpt>
      <trkpt lat="0" lon="0">
        <time>2020-12-20T08:46:29.355000+00:00</time>
      </trkpt>
      <trkpt lat="47.33094" lon="-1.29442">
        <ele>66</ele>
        <time>2020-12-20T08:46:30.315000+00:00</time>
      </trkpt>
      <trkpt lat="0" lon="0">
        <time>2020-12-20T08:46:30.320000+00:00</time>
      </trkpt>
      <trkpt lat="0" lon="0">
        <time>2020-12-20T08:46:30.324000+00:00</time>
      </trkpt>
      <trkpt lat="0" lon="0">
        <time>2020-12-20T08:46:30.327000+00:00</time>
      </trkpt>
      <trkpt lat="47.33098" lon="-1.29436">
        <ele>65</ele>
        <time>2020-12-20T08:46:31.323000+00:00</time>
      </trkpt>
      <trkpt lat="0" lon="0">
        <time>2020-12-20T08:46:31.337000+00:00</time>
      </trkpt>
      <trkpt lat="0" lon="0">
        <time>2020-12-20T08:46:31.340000+00:00</time>
      </trkpt>
      <trkpt lat="0" lon="0">
        <time>2020-12-20T08:46:31.343000+00:00</time>
      </trkpt>
      <trkpt lat="47.33102" lon="-1.2943">
        <ele>66</ele>
        <time>2020-12-20T08:46:32.328000+00:00</time>
      </trkpt>
      <trkpt lat="0" lon="0">
        <time>2020-12-20T08:46:32.344000+00:00</time>
      </trkpt>
      <trkpt lat="0" lon="0">
        <time>2020-12-20T08:46:32.348000+00:00</time>
      </trkpt>
      <trkpt lat="0" lon="0">
        <time>2020-12-20T08:46:32.351000+00:00</time>
      </trkpt>
      <trkpt lat="47.33106" lon="-1.29424">
        <ele>65</ele>
        <time>2020-12-20T08:46:33.336000+00:00</time>
      </trkpt>
      <trkpt lat="0" lon="0">
        <time>2020-12-20T08:46:33.343000+00:00</time>
      </trkpt>
      <trkpt lat="0" lon="0">
        <time>2020-12-20T08:46:33.347000+00:00</time>
      </trkpt>
      <trkpt lat="0" lon="0">
        <time>2020-12-20T08:46:33.350000+00:00</time>
      </trkpt>
      <trkpt lat="47.3311" lon="-1.29419">
        <ele>65</ele>
        <time>2020-12-20T08:46:34.312000+00:00</time>
      </trkpt>
      <trkpt lat="0" lon="0">
        <time>2020-12-20T08:46:34.324000+00:00</time>
      </trkpt>
      <trkpt lat="0" lon="0">
        <time>2020-12-20T08:46:34.327000+00:00</time>
      </trkpt>
      <trkpt lat="0" lon="0">
        <time>2020-12-20T08:46:34.329000+00:00</time>
      </trkpt>
      <trkpt lat="47.33115" lon="-1.29413">
        <ele>65</ele>
        <time>2020-12-20T08:46:35.325000+00:00</time>
      </trkpt>
      <trkpt lat="0" lon="0">
        <time>2020-12-20T08:46:35.336000+00:00</time>
      </trkpt>
      <trkpt lat="0" lon="0">
        <time>2020-12-20T08:46:35.339000+00:00</time>
      </trkpt>
      <trkpt lat="0" lon="0">
        <time>2020-12-20T08:46:35.343000+00:00</time>
      </trkpt>
      <trkpt lat="47.33119" lon="-1.29407">
        <ele>65</ele>
        <time>2020-12-20T08:46:36.295000+00:00</time>
      </trkpt>
      <trkpt lat="0" lon="0">
        <time>2020-12-20T08:46:36.299000+00:00</time>
      </trkpt>
      <trkpt lat="0" lon="0">
        <time>2020-12-20T08:46:36.303000+00:00</time>
      </trkpt>
      <trkpt lat="0" lon="0">
        <time>2020-12-20T08:46:36.305000+00:00</time>
      </trkpt>
      <trkpt lat="47.33123" lon="-1.29402">
        <ele>65</ele>
        <time>2020-12-20T08:46:37.353000+00:00</time>
      </trkpt>
      <trkpt lat="0" lon="0">
        <time>2020-12-20T08:46:37.376000+00:00</time>
      </trkpt>
      <trkpt lat="0" lon="0">
        <time>2020-12-20T08:46:37.384000+00:00</time>
      </trkpt>
      <trkpt lat="0" lon="0">
        <time>2020-12-20T08:46:37.389000+00:00</time>
      </trkpt>
      <trkpt lat="47.33127" lon="-1.29396">
        <ele>66</ele>
        <time>2020-12-20T08:46:38.327000+00:00</time>
      </trkpt>
      <trkpt lat="0" lon="0">
        <time>2020-12-20T08:46:38.334000+00:00</time>
      </trkpt>
      <trkpt lat="0" lon="0">
        <time>2020-12-20T08:46:38.339000+00:00</time>
      </trkpt>
      <trkpt lat="0" lon="0">
        <time>2020-12-20T08:46:38.342000+00:00</time>
      </trkpt>
      <trkpt lat="47.3313" lon="-1.2939">
        <ele>66</ele>
        <time>2020-12-20T08:46:39.325000+00:00</time>
      </trkpt>
      <trkpt lat="0" lon="0">
        <time>2020-12-20T08:46:39.327000+00:00</time>
      </trkpt>
      <trkpt lat="0" lon="0">
        <time>2020-12-20T08:46:39.329000+00:00</time>
      </trkpt>
      <trkpt lat="0" lon="0">
        <time>2020-12-20T08:46:39.330000+00:00</time>
      </trkpt>
      <trkpt lat="47.33134" lon="-1.29384">
        <ele>66</ele>
        <time>2020-12-20T08:46:40.312000+00:00</time>
      </trkpt>
      <trkpt lat="0" lon="0">
        <time>2020-12-20T08:46:40.326000+00:00</time>
      </trkpt>
      <trkpt lat="0" lon="0">
        <time>2020-12-20T08:46:40.333000+00:00</time>
      </trkpt>
      <trkpt lat="0" lon="0">
        <time>2020-12-20T08:46:40.336000+00:00</time>
      </trkpt>
      <trkpt lat="47.33137" lon="-1.29379">
        <ele>66</ele>
        <time>2020-12-20T08:46:41.341000+00:00</time>
      </trkpt>
      <trkpt lat="0" lon="0">
        <time>2020-12-20T08:46:41.355000+00:00</time>
      </trkpt>
      <trkpt lat="0" lon="0">
        <time>2020-12-20T08:46:41.361000+00:00</time>
      </trkpt>
      <trkpt lat="0" lon="0">
        <time>2020-12-20T08:46:41.366000+00:00</time>
      </trkpt>
      <trkpt lat="47.3314" lon="-1.29373">
        <ele>66</ele>
        <time>2020-12-20T08:46:42.309000+00:00</time>
      </trkpt>
      <trkpt lat="0" lon="0">
        <time>2020-12-20T08:46:42.322000+00:00</time>
      </trkpt>
      <trkpt lat="0" lon="0">
        <time>2020-12-20T08:46:42.326000+00:00</time>
      </trkpt>
      <trkpt lat="0" lon="0">
        <time>2020-12-20T08:46:42.329000+00:00</time>
      </trkpt>
      <trkpt lat="47.33143" lon="-1.29367">
        <ele>67</ele>
        <time>2020-12-20T08:46:43.326000+00:00</time>
      </trkpt>
      <trkpt lat="0" lon="0">
        <time>2020-12-20T08:46:43.332000+00:00</time>
      </trkpt>
      <trkpt lat="0" lon="0">
        <time>2020-12-20T08:46:43.337000+00:00</time>
      </trkpt>
      <trkpt lat="0" lon="0">
        <time>2020-12-20T08:46:43.340000+00:00</time>
      </trkpt>
      <trkpt lat="47.33145" lon="-1.29362">
        <ele>67</ele>
        <time>2020-12-20T08:46:44.331000+00:00</time>
      </trkpt>
      <trkpt lat="0" lon="0">
        <time>2020-12-20T08:46:44.342000+00:00</time>
      </trkpt>
      <trkpt lat="0" lon="0">
        <time>2020-12-20T08:46:44.352000+00:00</time>
      </trkpt>
      <trkpt lat="0" lon="0">
        <time>2020-12-20T08:46:44.356000+00:00</time>
      </trkpt>
      <trkpt lat="47.33146" lon="-1.29357">
        <ele>67</ele>
        <time>2020-12-20T08:46:45.287000+00:00</time>
      </trkpt>
      <trkpt lat="0" lon="0">
        <time>2020-12-20T08:46:45.291000+00:00</time>
      </trkpt>
      <trkpt lat="0" lon="0">
        <time>2020-12-20T08:46:45.295000+00:00</time>
      </trkpt>
      <trkpt lat="0" lon="0">
        <time>2020-12-20T08:46:45.298000+00:00</time>
      </trkpt>
      <trkpt lat="47.33146" lon="-1.29352">
        <ele>67</ele>
        <time>2020-12-20T08:46:46.287000+00:00</time>
      </trkpt>
      <trkpt lat="0" lon="0">
        <time>2020-12-20T08:46:46.291000+00:00</time>
      </trkpt>
      <trkpt lat="0" lon="0">
        <time>2020-12-20T08:46:46.295000+00:00</time>
      </trkpt>
      <trkpt lat="0" lon="0">
        <time>2020-12-20T08:46:46.297000+00:00</time>
      </trkpt>
      <trkpt lat="47.33146" lon="-1.29348">
        <ele>67</ele>
        <time>2020-12-20T08:46:47.278000+00:00</time>
      </trkpt>
      <trkpt lat="0" lon="0">
        <time>2020-12-20T08:46:47.289000+00:00</time>
      </trkpt>
      <trkpt lat="0" lon="0">
        <time>2020-12-20T08:46:47.293000+00:00</time>
      </trkpt>
      <trkpt lat="0" lon="0">
        <time>2020-12-20T08:46:47.294000+00:00</time>
      </trkpt>
      <trkpt lat="47.33145" lon="-1.29344">
        <ele>67</ele>
        <time>2020-12-20T08:46:48.303000+00:00</time>
      </trkpt>
      <trkpt lat="0" lon="0">
        <time>2020-12-20T08:46:48.309000+00:00</time>
      </trkpt>
      <trkpt lat="0" lon="0">
        <time>2020-12-20T08:46:48.321000+00:00</time>
      </trkpt>
      <trkpt lat="0" lon="0">
        <time>2020-12-20T08:46:48.323000+00:00</time>
      </trkpt>
      <trkpt lat="47.33143" lon="-1.29341">
        <ele>66</ele>
        <time>2020-12-20T08:46:49.301000+00:00</time>
      </trkpt>
      <trkpt lat="0" lon="0">
        <time>2020-12-20T08:46:49.320000+00:00</time>
      </trkpt>
      <trkpt lat="0" lon="0">
        <time>2020-12-20T08:46:49.328000+00:00</time>
      </trkpt>
      <trkpt lat="0" lon="0">
        <time>2020-12-20T08:46:49.329000+00:00</time>
      </trkpt>
      <trkpt lat="47.3314" lon="-1.29338">
        <ele>66</ele>
        <time>2020-12-20T08:46:50.318000+00:00</time>
      </trkpt>
      <trkpt lat="0" lon="0">
        <time>2020-12-20T08:46:50.322000+00:00</time>
      </trkpt>
      <trkpt lat="0" lon="0">
        <time>2020-12-20T08:46:50.332000+00:00</time>
      </trkpt>
      <trkpt lat="0" lon="0">
        <time>2020-12-20T08:46:50.334000+00:00</time>
      </trkpt>
      <trkpt lat="47.33138" lon="-1.29335">
        <ele>66</ele>
        <time>2020-12-20T08:46:51.287000+00:00</time>
      </trkpt>
      <trkpt lat="0" lon="0">
        <time>2020-12-20T08:46:51.290000+00:00</time>
      </trkpt>
      <trkpt lat="0" lon="0">
        <time>2020-12-20T08:46:51.297000+00:00</time>
      </trkpt>
      <trkpt lat="0" lon="0">
        <time>2020-12-20T08:46:51.299000+00:00</time>
      </trkpt>
      <trkpt lat="47.33135" lon="-1.29332">
        <ele>66</ele>
        <time>2020-12-20T08:46:52.317000+00:00</time>
      </trkpt>
      <trkpt lat="0" lon="0">
        <time>2020-12-20T08:46:52.340000+00:00</time>
      </trkpt>
      <trkpt lat="0" lon="0">
        <time>2020-12-20T08:46:52.344000+00:00</time>
      </trkpt>
      <trkpt lat="0" lon="0">
        <time>2020-12-20T08:46:52.345000+00:00</time>
      </trkpt>
      <trkpt lat="47.33132" lon="-1.29329">
        <ele>66</ele>
        <time>2020-12-20T08:46:53.314000+00:00</time>
      </trkpt>
      <trkpt lat="0" lon="0">
        <time>2020-12-20T08:46:53.323000+00:00</time>
      </trkpt>
      <trkpt lat="0" lon="0">
        <time>2020-12-20T08:46:53.327000+00:00</time>
      </trkpt>
      <trkpt lat="0" lon="0">
        <time>2020-12-20T08:46:53.334000+00:00</time>
      </trkpt>
      <trkpt lat="47.3313" lon="-1.29326">
        <ele>66</ele>
        <time>2020-12-20T08:46:54.303000+00:00</time>
      </trkpt>
      <trkpt lat="0" lon="0">
        <time>2020-12-20T08:46:54.316000+00:00</time>
      </trkpt>
      <trkpt lat="0" lon="0">
        <time>2020-12-20T08:46:54.319000+00:00</time>
      </trkpt>
      <trkpt lat="0" lon="0">
        <time>2020-12-20T08:46:54.321000+00:00</time>
      </trkpt>
      <trkpt lat="47.33128" lon="-1.29323">
        <ele>66</ele>
        <time>2020-12-20T08:46:55.264000+00:00</time>
      </trkpt>
      <trkpt lat="0" lon="0">
        <time>2020-12-20T08:46:55.271000+00:00</time>
      </trkpt>
      <trkpt lat="0" lon="0">
        <time>2020-12-20T08:46:55.279000+00:00</time>
      </trkpt>
      <trkpt lat="0" lon="0">
        <time>2020-12-20T08:46:55.281000+00:00</time>
      </trkpt>
      <trkpt lat="47.33126" lon="-1.29319">
        <ele>67</ele>
        <time>2020-12-20T08:46:56.337000+00:00</time>
      </trkpt>
      <trkpt lat="0" lon="0">
        <time>2020-12-20T08:46:56.342000+00:00</time>
      </trkpt>
      <trkpt lat="0" lon="0">
        <time>2020-12-20T08:46:56.346000+00:00</time>
      </trkpt>
      <trkpt lat="0" lon="0">
        <time>2020-12-20T08:46:56.348000+00:00</time>
      </trkpt>
      <trkpt lat="47.33124" lon="-1.29316">
        <ele>67</ele>
        <time>2020-12-20T08:46:57.320000+00:00</time>
      </trkpt>
      <trkpt lat="0" lon="0">
        <time>2020-12-20T08:46:57.336000+00:00</time>
      </trkpt>
      <trkpt lat="0" lon="0">
        <time>2020-12-20T08:46:57.343000+00:00</time>
      </trkpt>
      <trkpt lat="0" lon="0">
        <time>2020-12-20T08:46:57.345000+00:00</time>
      </trkpt>
      <trkpt lat="47.33122" lon="-1.29312">
        <ele>67</ele>
        <time>2020-12-20T08:46:58.329000+00:00</time>
      </trkpt>
      <trkpt lat="0" lon="0">
        <time>2020-12-20T08:46:58.341000+00:00</time>
      </trkpt>
      <trkpt lat="0" lon="0">
        <time>2020-12-20T08:46:58.346000+00:00</time>
      </trkpt>
      <trkpt lat="0" lon="0">
        <time>2020-12-20T08:46:58.348000+00:00</time>
      </trkpt>
      <trkpt lat="47.33121" lon="-1.29308">
        <ele>67</ele>
        <time>2020-12-20T08:46:59.325000+00:00</time>
      </trkpt>
      <trkpt lat="0" lon="0">
        <time>2020-12-20T08:46:59.336000+00:00</time>
      </trkpt>
      <trkpt lat="0" lon="0">
        <time>2020-12-20T08:46:59.340000+00:00</time>
      </trkpt>
      <trkpt lat="0" lon="0">
        <time>2020-12-20T08:46:59.343000+00:00</time>
      </trkpt>
      <trkpt lat="47.3312" lon="-1.29304">
        <ele>67</ele>
        <time>2020-12-20T08:47:00.328000+00:00</time>
      </trkpt>
      <trkpt lat="0" lon="0">
        <time>2020-12-20T08:47:00.343000+00:00</time>
      </trkpt>
      <trkpt lat="0" lon="0">
        <time>2020-12-20T08:47:00.348000+00:00</time>
      </trkpt>
      <trkpt lat="0" lon="0">
        <time>2020-12-20T08:47:00.350000+00:00</time>
      </trkpt>
      <trkpt lat="47.3312" lon="-1.29301">
        <ele>68</ele>
        <time>2020-12-20T08:47:01.313000+00:00</time>
      </trkpt>
      <trkpt lat="0" lon="0">
        <time>2020-12-20T08:47:01.318000+00:00</time>
      </trkpt>
      <trkpt lat="0" lon="0">
        <time>2020-12-20T08:47:01.323000+00:00</time>
      </trkpt>
      <trkpt lat="0" lon="0">
        <time>2020-12-20T08:47:01.326000+00:00</time>
      </trkpt>
      <trkpt lat="47.33119" lon="-1.29297">
        <ele>68</ele>
        <time>2020-12-20T08:47:02.311000+00:00</time>
      </trkpt>
      <trkpt lat="0" lon="0">
        <time>2020-12-20T08:47:02.322000+00:00</time>
      </trkpt>
      <trkpt lat="0" lon="0">
        <time>2020-12-20T08:47:02.327000+00:00</time>
      </trkpt>
      <trkpt lat="0" lon="0">
        <time>2020-12-20T08:47:02.331000+00:00</time>
      </trkpt>
      <trkpt lat="47.33119" lon="-1.29294">
        <ele>68</ele>
        <time>2020-12-20T08:47:03.323000+00:00</time>
      </trkpt>
      <trkpt lat="0" lon="0">
        <time>2020-12-20T08:47:03.325000+00:00</time>
      </trkpt>
      <trkpt lat="0" lon="0">
        <time>2020-12-20T08:47:03.327000+00:00</time>
      </trkpt>
      <trkpt lat="0" lon="0">
        <time>2020-12-20T08:47:03.329000+00:00</time>
      </trkpt>
      <trkpt lat="47.3312" lon="-1.29291">
        <ele>68</ele>
        <time>2020-12-20T08:47:04.341000+00:00</time>
      </trkpt>
      <trkpt lat="0" lon="0">
        <time>2020-12-20T08:47:04.348000+00:00</time>
      </trkpt>
      <trkpt lat="0" lon="0">
        <time>2020-12-20T08:47:04.352000+00:00</time>
      </trkpt>
      <trkpt lat="0" lon="0">
        <time>2020-12-20T08:47:04.355000+00:00</time>
      </trkpt>
      <trkpt lat="47.3312" lon="-1.29288">
        <ele>69</ele>
        <time>2020-12-20T08:47:05.341000+00:00</time>
      </trkpt>
      <trkpt lat="0" lon="0">
        <time>2020-12-20T08:47:05.351000+00:00</time>
      </trkpt>
      <trkpt lat="0" lon="0">
        <time>2020-12-20T08:47:05.356000+00:00</time>
      </trkpt>
      <trkpt lat="0" lon="0">
        <time>2020-12-20T08:47:05.358000+00:00</time>
      </trkpt>
      <trkpt lat="47.3312" lon="-1.29286">
        <ele>69</ele>
        <time>2020-12-20T08:47:06.311000+00:00</time>
      </trkpt>
      <trkpt lat="0" lon="0">
        <time>2020-12-20T08:47:06.324000+00:00</time>
      </trkpt>
      <trkpt lat="0" lon="0">
        <time>2020-12-20T08:47:06.332000+00:00</time>
      </trkpt>
      <trkpt lat="0" lon="0">
        <time>2020-12-20T08:47:06.335000+00:00</time>
      </trkpt>
      <trkpt lat="47.33121" lon="-1.29283">
        <ele>69</ele>
        <time>2020-12-20T08:47:07.319000+00:00</time>
      </trkpt>
      <trkpt lat="0" lon="0">
        <time>2020-12-20T08:47:07.326000+00:00</time>
      </trkpt>
      <trkpt lat="0" lon="0">
        <time>2020-12-20T08:47:07.335000+00:00</time>
      </trkpt>
      <trkpt lat="0" lon="0">
        <time>2020-12-20T08:47:07.337000+00:00</time>
      </trkpt>
      <trkpt lat="47.33121" lon="-1.29281">
        <ele>69</ele>
        <time>2020-12-20T08:47:08.344000+00:00</time>
      </trkpt>
      <trkpt lat="0" lon="0">
        <time>2020-12-20T08:47:08.350000+00:00</time>
      </trkpt>
      <trkpt lat="0" lon="0">
        <time>2020-12-20T08:47:08.354000+00:00</time>
      </trkpt>
      <trkpt lat="0" lon="0">
        <time>2020-12-20T08:47:08.356000+00:00</time>
      </trkpt>
      <trkpt lat="47.33122" lon="-1.29278">
        <ele>69</ele>
        <time>2020-12-20T08:47:09.325000+00:00</time>
      </trkpt>
      <trkpt lat="0" lon="0">
        <time>2020-12-20T08:47:09.330000+00:00</time>
      </trkpt>
      <trkpt lat="0" lon="0">
        <time>2020-12-20T08:47:09.332000+00:00</time>
      </trkpt>
      <trkpt lat="0" lon="0">
        <time>2020-12-20T08:47:09.334000+00:00</time>
      </trkpt>
      <trkpt lat="47.33123" lon="-1.29276">
        <ele>69</ele>
        <time>2020-12-20T08:47:10.356000+00:00</time>
      </trkpt>
      <trkpt lat="0" lon="0">
        <time>2020-12-20T08:47:10.366000+00:00</time>
      </trkpt>
      <trkpt lat="0" lon="0">
        <time>2020-12-20T08:47:10.384000+00:00</time>
      </trkpt>
      <trkpt lat="0" lon="0">
        <time>2020-12-20T08:47:10.386000+00:00</time>
      </trkpt>
      <trkpt lat="47.33124" lon="-1.29274">
        <ele>69</ele>
        <time>2020-12-20T08:47:11.328000+00:00</time>
      </trkpt>
      <trkpt lat="0" lon="0">
        <time>2020-12-20T08:47:11.337000+00:00</time>
      </trkpt>
      <trkpt lat="0" lon="0">
        <time>2020-12-20T08:47:11.346000+00:00</time>
      </trkpt>
      <trkpt lat="0" lon="0">
        <time>2020-12-20T08:47:11.354000+00:00</time>
      </trkpt>
      <trkpt lat="47.33125" lon="-1.29271">
        <ele>69</ele>
        <time>2020-12-20T08:47:12.292000+00:00</time>
      </trkpt>
      <trkpt lat="0" lon="0">
        <time>2020-12-20T08:47:12.304000+00:00</time>
      </trkpt>
      <trkpt lat="0" lon="0">
        <time>2020-12-20T08:47:12.309000+00:00</time>
      </trkpt>
      <trkpt lat="0" lon="0">
        <time>2020-12-20T08:47:12.311000+00:00</time>
      </trkpt>
      <trkpt lat="47.33126" lon="-1.29268">
        <ele>70</ele>
        <time>2020-12-20T08:47:13.347000+00:00</time>
      </trkpt>
      <trkpt lat="0" lon="0">
        <time>2020-12-20T08:47:13.361000+00:00</time>
      </trkpt>
      <trkpt lat="0" lon="0">
        <time>2020-12-20T08:47:13.366000+00:00</time>
      </trkpt>
      <trkpt lat="0" lon="0">
        <time>2020-12-20T08:47:13.367000+00:00</time>
      </trkpt>
      <trkpt lat="47.33127" lon="-1.29266">
        <ele>70</ele>
        <time>2020-12-20T08:47:14.282000+00:00</time>
      </trkpt>
      <trkpt lat="0" lon="0">
        <time>2020-12-20T08:47:14.286000+00:00</time>
      </trkpt>
      <trkpt lat="0" lon="0">
        <time>2020-12-20T08:47:14.288000+00:00</time>
      </trkpt>
      <trkpt lat="0" lon="0">
        <time>2020-12-20T08:47:14.289000+00:00</time>
      </trkpt>
      <trkpt lat="47.33128" lon="-1.29263">
        <ele>69</ele>
        <time>2020-12-20T08:47:15.288000+00:00</time>
      </trkpt>
      <trkpt lat="0" lon="0">
        <time>2020-12-20T08:47:15.296000+00:00</time>
      </trkpt>
      <trkpt lat="0" lon="0">
        <time>2020-12-20T08:47:15.301000+00:00</time>
      </trkpt>
      <trkpt lat="0" lon="0">
        <time>2020-12-20T08:47:15.304000+00:00</time>
      </trkpt>
      <trkpt lat="47.3313" lon="-1.29262">
        <ele>69</ele>
        <time>2020-12-20T08:47:16.305000+00:00</time>
      </trkpt>
      <trkpt lat="0" lon="0">
        <time>2020-12-20T08:47:16.312000+00:00</time>
      </trkpt>
      <trkpt lat="0" lon="0">
        <time>2020-12-20T08:47:16.320000+00:00</time>
      </trkpt>
      <trkpt lat="0" lon="0">
        <time>2020-12-20T08:47:16.322000+00:00</time>
      </trkpt>
      <trkpt lat="47.33131" lon="-1.2926">
        <ele>69</ele>
        <time>2020-12-20T08:47:17.313000+00:00</time>
      </trkpt>
      <trkpt lat="0" lon="0">
        <time>2020-12-20T08:47:17.333000+00:00</time>
      </trkpt>
      <trkpt lat="0" lon="0">
        <time>2020-12-20T08:47:17.343000+00:00</time>
      </trkpt>
      <trkpt lat="0" lon="0">
        <time>2020-12-20T08:47:17.346000+00:00</time>
      </trkpt>
      <trkpt lat="47.33132" lon="-1.2926">
        <ele>69</ele>
        <time>2020-12-20T08:47:18.290000+00:00</time>
      </trkpt>
      <trkpt lat="0" lon="0">
        <time>2020-12-20T08:47:18.305000+00:00</time>
      </trkpt>
      <trkpt lat="0" lon="0">
        <time>2020-12-20T08:47:18.313000+00:00</time>
      </trkpt>
      <trkpt lat="0" lon="0">
        <time>2020-12-20T08:47:18.316000+00:00</time>
      </trkpt>
      <trkpt lat="47.33133" lon="-1.2926">
        <ele>70</ele>
        <time>2020-12-20T08:47:19.335000+00:00</time>
      </trkpt>
      <trkpt lat="0" lon="0">
        <time>2020-12-20T08:47:19.357000+00:00</time>
      </trkpt>
      <trkpt lat="0" lon="0">
        <time>2020-12-20T08:47:19.360000+00:00</time>
      </trkpt>
      <trkpt lat="0" lon="0">
        <time>2020-12-20T08:47:19.361000+00:00</time>
      </trkpt>
      <trkpt lat="47.33134" lon="-1.29261">
        <ele>70</ele>
        <time>2020-12-20T08:47:20.280000+00:00</time>
      </trkpt>
      <trkpt lat="0" lon="0">
        <time>2020-12-20T08:47:20.282000+00:00</time>
      </trkpt>
      <trkpt lat="0" lon="0">
        <time>2020-12-20T08:47:20.284000+00:00</time>
      </trkpt>
      <trkpt lat="0" lon="0">
        <time>2020-12-20T08:47:20.287000+00:00</time>
      </trkpt>
      <trkpt lat="47.33134" lon="-1.29262">
        <ele>70</ele>
        <time>2020-12-20T08:47:21.315000+00:00</time>
      </trkpt>
      <trkpt lat="0" lon="0">
        <time>2020-12-20T08:47:21.330000+00:00</time>
      </trkpt>
      <trkpt lat="0" lon="0">
        <time>2020-12-20T08:47:21.343000+00:00</time>
      </trkpt>
      <trkpt lat="0" lon="0">
        <time>2020-12-20T08:47:21.346000+00:00</time>
      </trkpt>
      <trkpt lat="47.33134" lon="-1.29264">
        <ele>69</ele>
        <time>2020-12-20T08:47:22.363000+00:00</time>
      </trkpt>
      <trkpt lat="0" lon="0">
        <time>2020-12-20T08:47:22.373000+00:00</time>
      </trkpt>
      <trkpt lat="0" lon="0">
        <time>2020-12-20T08:47:22.379000+00:00</time>
      </trkpt>
      <trkpt lat="0" lon="0">
        <time>2020-12-20T08:47:22.382000+00:00</time>
      </trkpt>
      <trkpt lat="47.33134" lon="-1.29267">
        <ele>69</ele>
        <time>2020-12-20T08:47:23.344000+00:00</time>
      </trkpt>
      <trkpt lat="0" lon="0">
        <time>2020-12-20T08:47:23.352000+00:00</time>
      </trkpt>
      <trkpt lat="0" lon="0">
        <time>2020-12-20T08:47:23.362000+00:00</time>
      </trkpt>
      <trkpt lat="0" lon="0">
        <time>2020-12-20T08:47:23.365000+00:00</time>
      </trkpt>
      <trkpt lat="47.33133" lon="-1.2927">
        <ele>68</ele>
        <time>2020-12-20T08:47:24.349000+00:00</time>
      </trkpt>
      <trkpt lat="0" lon="0">
        <time>2020-12-20T08:47:24.356000+00:00</time>
      </trkpt>
      <trkpt lat="0" lon="0">
        <time>2020-12-20T08:47:24.359000+00:00</time>
      </trkpt>
      <trkpt lat="0" lon="0">
        <time>2020-12-20T08:47:24.367000+00:00</time>
      </trkpt>
      <trkpt lat="47.33128" lon="-1.29294">
        <ele>69</ele>
        <time>2020-12-20T08:47:25.365000+00:00</time>
      </trkpt>
      <trkpt lat="0" lon="0">
        <time>2020-12-20T08:47:25.373000+00:00</time>
      </trkpt>
      <trkpt lat="0" lon="0">
        <time>2020-12-20T08:47:25.379000+00:00</time>
      </trkpt>
      <trkpt lat="0" lon="0">
        <time>2020-12-20T08:47:25.381000+00:00</time>
      </trkpt>
      <trkpt lat="47.33127" lon="-1.29296">
        <ele>70</ele>
        <time>2020-12-20T08:47:26.423000+00:00</time>
      </trkpt>
      <trkpt lat="0" lon="0">
        <time>2020-12-20T08:47:26.430000+00:00</time>
      </trkpt>
      <trkpt lat="0" lon="0">
        <time>2020-12-20T08:47:26.443000+00:00</time>
      </trkpt>
      <trkpt lat="0" lon="0">
        <time>2020-12-20T08:47:26.445000+00:00</time>
      </trkpt>
      <trkpt lat="47.33127" lon="-1.29298">
        <ele>70</ele>
        <time>2020-12-20T08:47:27.358000+00:00</time>
      </trkpt>
      <trkpt lat="0" lon="0">
        <time>2020-12-20T08:47:27.370000+00:00</time>
      </trkpt>
      <trkpt lat="0" lon="0">
        <time>2020-12-20T08:47:27.378000+00:00</time>
      </trkpt>
      <trkpt lat="0" lon="0">
        <time>2020-12-20T08:47:27.382000+00:00</time>
      </trkpt>
      <trkpt lat="47.33126" lon="-1.293">
        <ele>70</ele>
        <time>2020-12-20T08:47:28.351000+00:00</time>
      </trkpt>
      <trkpt lat="0" lon="0">
        <time>2020-12-20T08:47:28.357000+00:00</time>
      </trkpt>
      <trkpt lat="0" lon="0">
        <time>2020-12-20T08:47:28.369000+00:00</time>
      </trkpt>
      <trkpt lat="0" lon="0">
        <time>2020-12-20T08:47:28.372000+00:00</time>
      </trkpt>
      <trkpt lat="47.33125" lon="-1.29302">
        <ele>70</ele>
        <time>2020-12-20T08:47:29.373000+00:00</time>
      </trkpt>
      <trkpt lat="0" lon="0">
        <time>2020-12-20T08:47:29.384000+00:00</time>
      </trkpt>
      <trkpt lat="0" lon="0">
        <time>2020-12-20T08:47:29.389000+00:00</time>
      </trkpt>
      <trkpt lat="0" lon="0">
        <time>2020-12-20T08:47:29.393000+00:00</time>
      </trkpt>
      <trkpt lat="47.33125" lon="-1.29303">
        <ele>70</ele>
        <time>2020-12-20T08:47:30.350000+00:00</time>
      </trkpt>
      <trkpt lat="0" lon="0">
        <time>2020-12-20T08:47:30.357000+00:00</time>
      </trkpt>
      <trkpt lat="0" lon="0">
        <time>2020-12-20T08:47:30.361000+00:00</time>
      </trkpt>
      <trkpt lat="0" lon="0">
        <time>2020-12-20T08:47:30.363000+00:00</time>
      </trkpt>
      <trkpt lat="47.33124" lon="-1.29305">
        <ele>71</ele>
        <time>2020-12-20T08:47:31.341000+00:00</time>
      </trkpt>
      <trkpt lat="0" lon="0">
        <time>2020-12-20T08:47:31.355000+00:00</time>
      </trkpt>
      <trkpt lat="0" lon="0">
        <time>2020-12-20T08:47:31.358000+00:00</time>
      </trkpt>
      <trkpt lat="0" lon="0">
        <time>2020-12-20T08:47:31.359000+00:00</time>
      </trkpt>
      <trkpt lat="47.33123" lon="-1.29307">
        <ele>71</ele>
        <time>2020-12-20T08:47:32.365000+00:00</time>
      </trkpt>
      <trkpt lat="0" lon="0">
        <time>2020-12-20T08:47:32.380000+00:00</time>
      </trkpt>
      <trkpt lat="0" lon="0">
        <time>2020-12-20T08:47:32.385000+00:00</time>
      </trkpt>
      <trkpt lat="0" lon="0">
        <time>2020-12-20T08:47:32.387000+00:00</time>
      </trkpt>
      <trkpt lat="47.33123" lon="-1.29309">
        <ele>71</ele>
        <time>2020-12-20T08:47:33.370000+00:00</time>
      </trkpt>
      <trkpt lat="0" lon="0">
        <time>2020-12-20T08:47:33.383000+00:00</time>
      </trkpt>
      <trkpt lat="0" lon="0">
        <time>2020-12-20T08:47:33.386000+00:00</time>
      </trkpt>
      <trkpt lat="0" lon="0">
        <time>2020-12-20T08:47:33.388000+00:00</time>
      </trkpt>
      <trkpt lat="47.33122" lon="-1.29311">
        <ele>71</ele>
        <time>2020-12-20T08:47:34.360000+00:00</time>
      </trkpt>
      <trkpt lat="0" lon="0">
        <time>2020-12-20T08:47:34.365000+00:00</time>
      </trkpt>
      <trkpt lat="0" lon="0">
        <time>2020-12-20T08:47:34.373000+00:00</time>
      </trkpt>
      <trkpt lat="0" lon="0">
        <time>2020-12-20T08:47:34.376000+00:00</time>
      </trkpt>
      <trkpt lat="47.33122" lon="-1.29313">
        <ele>72</ele>
        <time>2020-12-20T08:47:35.332000+00:00</time>
      </trkpt>
      <trkpt lat="0" lon="0">
        <time>2020-12-20T08:47:35.335000+00:00</time>
      </trkpt>
      <trkpt lat="0" lon="0">
        <time>2020-12-20T08:47:35.343000+00:00</time>
      </trkpt>
      <trkpt lat="0" lon="0">
        <time>2020-12-20T08:47:35.348000+00:00</time>
      </trkpt>
      <trkpt lat="47.33121" lon="-1.29314">
        <ele>72</ele>
        <time>2020-12-20T08:47:36.354000+00:00</time>
      </trkpt>
      <trkpt lat="0" lon="0">
        <time>2020-12-20T08:47:36.367000+00:00</time>
      </trkpt>
      <trkpt lat="0" lon="0">
        <time>2020-12-20T08:47:36.374000+00:00</time>
      </trkpt>
      <trkpt lat="0" lon="0">
        <time>2020-12-20T08:47:36.376000+00:00</time>
      </trkpt>
      <trkpt lat="47.33121" lon="-1.29316">
        <ele>72</ele>
        <time>2020-12-20T08:47:37.346000+00:00</time>
      </trkpt>
      <trkpt lat="0" lon="0">
        <time>2020-12-20T08:47:37.357000+00:00</time>
      </trkpt>
      <trkpt lat="0" lon="0">
        <time>2020-12-20T08:47:37.362000+00:00</time>
      </trkpt>
      <trkpt lat="0" lon="0">
        <time>2020-12-20T08:47:37.363000+00:00</time>
      </trkpt>
      <trkpt lat="47.3312" lon="-1.29316">
        <ele>71</ele>
        <time>2020-12-20T08:47:38.387000+00:00</time>
      </trkpt>
      <trkpt lat="0" lon="0">
        <time>2020-12-20T08:47:38.406000+00:00</time>
      </trkpt>
      <trkpt lat="0" lon="0">
        <time>2020-12-20T08:47:38.412000+00:00</time>
      </trkpt>
      <trkpt lat="0" lon="0">
        <time>2020-12-20T08:47:38.414000+00:00</time>
      </trkpt>
      <trkpt lat="47.3312" lon="-1.29317">
        <ele>71</ele>
        <time>2020-12-20T08:47:39.375000+00:00</time>
      </trkpt>
      <trkpt lat="0" lon="0">
        <time>2020-12-20T08:47:39.388000+00:00</time>
      </trkpt>
      <trkpt lat="0" lon="0">
        <time>2020-12-20T08:47:39.397000+00:00</time>
      </trkpt>
      <trkpt lat="0" lon="0">
        <time>2020-12-20T08:47:39.402000+00:00</time>
      </trkpt>
      <trkpt lat="47.33119" lon="-1.29318">
        <ele>72</ele>
        <time>2020-12-20T08:47:40.369000+00:00</time>
      </trkpt>
      <trkpt lat="0" lon="0">
        <time>2020-12-20T08:47:40.375000+00:00</time>
      </trkpt>
      <trkpt lat="0" lon="0">
        <time>2020-12-20T08:47:40.379000+00:00</time>
      </trkpt>
      <trkpt lat="0" lon="0">
        <time>2020-12-20T08:47:40.381000+00:00</time>
      </trkpt>
      <trkpt lat="47.33119" lon="-1.29319">
        <ele>72</ele>
        <time>2020-12-20T08:47:41.393000+00:00</time>
      </trkpt>
      <trkpt lat="0" lon="0">
        <time>2020-12-20T08:47:41.404000+00:00</time>
      </trkpt>
      <trkpt lat="0" lon="0">
        <time>2020-12-20T08:47:41.408000+00:00</time>
      </trkpt>
      <trkpt lat="0" lon="0">
        <time>2020-12-20T08:47:41.410000+00:00</time>
      </trkpt>
      <trkpt lat="47.33118" lon="-1.29319">
        <ele>72</ele>
        <time>2020-12-20T08:47:42.371000+00:00</time>
      </trkpt>
      <trkpt lat="0" lon="0">
        <time>2020-12-20T08:47:42.383000+00:00</time>
      </trkpt>
      <trkpt lat="0" lon="0">
        <time>2020-12-20T08:47:42.388000+00:00</time>
      </trkpt>
      <trkpt lat="0" lon="0">
        <time>2020-12-20T08:47:42.391000+00:00</time>
      </trkpt>
      <trkpt lat="47.33117" lon="-1.2932">
        <ele>72</ele>
        <time>2020-12-20T08:47:43.355000+00:00</time>
      </trkpt>
      <trkpt lat="0" lon="0">
        <time>2020-12-20T08:47:43.383000+00:00</time>
      </trkpt>
      <trkpt lat="0" lon="0">
        <time>2020-12-20T08:47:43.388000+00:00</time>
      </trkpt>
      <trkpt lat="0" lon="0">
        <time>2020-12-20T08:47:43.389000+00:00</time>
      </trkpt>
      <trkpt lat="47.33117" lon="-1.2932">
        <ele>72</ele>
        <time>2020-12-20T08:47:44.379000+00:00</time>
      </trkpt>
      <trkpt lat="0" lon="0">
        <time>2020-12-20T08:47:44.385000+00:00</time>
      </trkpt>
      <trkpt lat="0" lon="0">
        <time>2020-12-20T08:47:44.392000+00:00</time>
      </trkpt>
      <trkpt lat="0" lon="0">
        <time>2020-12-20T08:47:44.394000+00:00</time>
      </trkpt>
      <trkpt lat="47.33116" lon="-1.29321">
        <ele>72</ele>
        <time>2020-12-20T08:47:45.357000+00:00</time>
      </trkpt>
      <trkpt lat="0" lon="0">
        <time>2020-12-20T08:47:45.363000+00:00</time>
      </trkpt>
      <trkpt lat="0" lon="0">
        <time>2020-12-20T08:47:45.367000+00:00</time>
      </trkpt>
      <trkpt lat="0" lon="0">
        <time>2020-12-20T08:47:45.369000+00:00</time>
      </trkpt>
      <trkpt lat="47.33116" lon="-1.29321">
        <ele>72</ele>
        <time>2020-12-20T08:47:46.369000+00:00</time>
      </trkpt>
      <trkpt lat="0" lon="0">
        <time>2020-12-20T08:47:46.377000+00:00</time>
      </trkpt>
      <trkpt lat="0" lon="0">
        <time>2020-12-20T08:47:46.383000+00:00</time>
      </trkpt>
      <trkpt lat="0" lon="0">
        <time>2020-12-20T08:47:46.385000+00:00</time>
      </trkpt>
      <trkpt lat="47.33115" lon="-1.29322">
        <ele>72</ele>
        <time>2020-12-20T08:47:47.379000+00:00</time>
      </trkpt>
      <trkpt lat="0" lon="0">
        <time>2020-12-20T08:47:47.387000+00:00</time>
      </trkpt>
      <trkpt lat="0" lon="0">
        <time>2020-12-20T08:47:47.391000+00:00</time>
      </trkpt>
      <trkpt lat="0" lon="0">
        <time>2020-12-20T08:47:47.400000+00:00</time>
      </trkpt>
      <trkpt lat="47.33102" lon="-1.2933">
        <ele>72</ele>
        <time>2020-12-20T08:47:48.366000+00:00</time>
      </trkpt>
      <trkpt lat="0" lon="0">
        <time>2020-12-20T08:47:48.375000+00:00</time>
      </trkpt>
      <trkpt lat="0" lon="0">
        <time>2020-12-20T08:47:48.376000+00:00</time>
      </trkpt>
      <trkpt lat="0" lon="0">
        <time>2020-12-20T08:47:48.377000+00:00</time>
      </trkpt>
      <trkpt lat="47.33101" lon="-1.29331">
        <ele>72</ele>
        <time>2020-12-20T08:47:49.411000+00:00</time>
      </trkpt>
      <trkpt lat="0" lon="0">
        <time>2020-12-20T08:47:49.422000+00:00</time>
      </trkpt>
      <trkpt lat="0" lon="0">
        <time>2020-12-20T08:47:49.427000+00:00</time>
      </trkpt>
      <trkpt lat="0" lon="0">
        <time>2020-12-20T08:47:49.429000+00:00</time>
      </trkpt>
      <trkpt lat="47.33101" lon="-1.29332">
        <ele>72</ele>
        <time>2020-12-20T08:47:50.401000+00:00</time>
      </trkpt>
      <trkpt lat="0" lon="0">
        <time>2020-12-20T08:47:50.428000+00:00</time>
      </trkpt>
      <trkpt lat="0" lon="0">
        <time>2020-12-20T08:47:50.438000+00:00</time>
      </trkpt>
      <trkpt lat="0" lon="0">
        <time>2020-12-20T08:47:50.444000+00:00</time>
      </trkpt>
      <trkpt lat="47.33099" lon="-1.29333">
        <ele>73</ele>
        <time>2020-12-20T08:47:51.410000+00:00</time>
      </trkpt>
      <trkpt lat="0" lon="0">
        <time>2020-12-20T08:47:51.426000+00:00</time>
      </trkpt>
      <trkpt lat="0" lon="0">
        <time>2020-12-20T08:47:51.431000+00:00</time>
      </trkpt>
      <trkpt lat="0" lon="0">
        <time>2020-12-20T08:47:51.433000+00:00</time>
      </trkpt>
      <trkpt lat="47.33098" lon="-1.29334">
        <ele>73</ele>
        <time>2020-12-20T08:47:52.426000+00:00</time>
      </trkpt>
      <trkpt lat="0" lon="0">
        <time>2020-12-20T08:47:52.439000+00:00</time>
      </trkpt>
      <trkpt lat="0" lon="0">
        <time>2020-12-20T08:47:52.444000+00:00</time>
      </trkpt>
      <trkpt lat="0" lon="0">
        <time>2020-12-20T08:47:52.447000+00:00</time>
      </trkpt>
      <trkpt lat="47.33097" lon="-1.29335">
        <ele>73</ele>
        <time>2020-12-20T08:47:53.430000+00:00</time>
      </trkpt>
      <trkpt lat="0" lon="0">
        <time>2020-12-20T08:47:53.449000+00:00</time>
      </trkpt>
      <trkpt lat="0" lon="0">
        <time>2020-12-20T08:47:53.456000+00:00</time>
      </trkpt>
      <trkpt lat="0" lon="0">
        <time>2020-12-20T08:47:53.460000+00:00</time>
      </trkpt>
      <trkpt lat="47.33096" lon="-1.29336">
        <ele>73</ele>
        <time>2020-12-20T08:47:54.453000+00:00</time>
      </trkpt>
      <trkpt lat="0" lon="0">
        <time>2020-12-20T08:47:54.462000+00:00</time>
      </trkpt>
      <trkpt lat="0" lon="0">
        <time>2020-12-20T08:47:54.468000+00:00</time>
      </trkpt>
      <trkpt lat="0" lon="0">
        <time>2020-12-20T08:47:54.470000+00:00</time>
      </trkpt>
      <trkpt lat="47.33096" lon="-1.29336">
        <ele>73</ele>
        <time>2020-12-20T08:47:55.436000+00:00</time>
      </trkpt>
      <trkpt lat="0" lon="0">
        <time>2020-12-20T08:47:55.452000+00:00</time>
      </trkpt>
      <trkpt lat="0" lon="0">
        <time>2020-12-20T08:47:55.458000+00:00</time>
      </trkpt>
      <trkpt lat="0" lon="0">
        <time>2020-12-20T08:47:55.461000+00:00</time>
      </trkpt>
      <trkpt lat="47.33095" lon="-1.29337">
        <ele>73</ele>
        <time>2020-12-20T08:47:56.453000+00:00</time>
      </trkpt>
      <trkpt lat="0" lon="0">
        <time>2020-12-20T08:47:56.469000+00:00</time>
      </trkpt>
      <trkpt lat="0" lon="0">
        <time>2020-12-20T08:47:56.472000+00:00</time>
      </trkpt>
      <trkpt lat="0" lon="0">
        <time>2020-12-20T08:47:56.474000+00:00</time>
      </trkpt>
      <trkpt lat="47.33094" lon="-1.29338">
        <ele>72</ele>
        <time>2020-12-20T08:47:57.392000+00:00</time>
      </trkpt>
      <trkpt lat="0" lon="0">
        <time>2020-12-20T08:47:57.401000+00:00</time>
      </trkpt>
      <trkpt lat="0" lon="0">
        <time>2020-12-20T08:47:57.403000+00:00</time>
      </trkpt>
      <trkpt lat="0" lon="0">
        <time>2020-12-20T08:47:57.404000+00:00</time>
      </trkpt>
      <trkpt lat="47.33094" lon="-1.29338">
        <ele>72</ele>
        <time>2020-12-20T08:47:58.357000+00:00</time>
      </trkpt>
      <trkpt lat="0" lon="0">
        <time>2020-12-20T08:47:58.359000+00:00</time>
      </trkpt>
      <trkpt lat="0" lon="0">
        <time>2020-12-20T08:47:58.384000+00:00</time>
      </trkpt>
      <trkpt lat="0" lon="0">
        <time>2020-12-20T08:47:58.385000+00:00</time>
      </trkpt>
      <trkpt lat="47.33093" lon="-1.29338">
        <ele>72</ele>
        <time>2020-12-20T08:47:59.368000+00:00</time>
      </trkpt>
      <trkpt lat="0" lon="0">
        <time>2020-12-20T08:47:59.373000+00:00</time>
      </trkpt>
      <trkpt lat="0" lon="0">
        <time>2020-12-20T08:47:59.381000+00:00</time>
      </trkpt>
      <trkpt lat="0" lon="0">
        <time>2020-12-20T08:47:59.382000+00:00</time>
      </trkpt>
      <trkpt lat="47.33093" lon="-1.29339">
        <ele>72</ele>
        <time>2020-12-20T08:48:00.415000+00:00</time>
      </trkpt>
      <trkpt lat="0" lon="0">
        <time>2020-12-20T08:48:00.416000+00:00</time>
      </trkpt>
      <trkpt lat="0" lon="0">
        <time>2020-12-20T08:48:00.417000+00:00</time>
      </trkpt>
      <trkpt lat="0" lon="0">
        <time>2020-12-20T08:48:00.418000+00:00</time>
      </trkpt>
      <trkpt lat="47.33093" lon="-1.29339">
        <ele>72</ele>
        <time>2020-12-20T08:48:01.438000+00:00</time>
      </trkpt>
      <trkpt lat="0" lon="0">
        <time>2020-12-20T08:48:01.444000+00:00</time>
      </trkpt>
      <trkpt lat="0" lon="0">
        <time>2020-12-20T08:48:01.455000+00:00</time>
      </trkpt>
      <trkpt lat="0" lon="0">
        <time>2020-12-20T08:48:01.457000+00:00</time>
      </trkpt>
      <trkpt lat="47.33092" lon="-1.29339">
        <ele>72</ele>
        <time>2020-12-20T08:48:02.430000+00:00</time>
      </trkpt>
      <trkpt lat="0" lon="0">
        <time>2020-12-20T08:48:02.437000+00:00</time>
      </trkpt>
      <trkpt lat="0" lon="0">
        <time>2020-12-20T08:48:02.443000+00:00</time>
      </trkpt>
      <trkpt lat="0" lon="0">
        <time>2020-12-20T08:48:02.463000+00:00</time>
      </trkpt>
      <trkpt lat="47.33074" lon="-1.29338">
        <ele>81</ele>
        <time>2020-12-20T08:48:03.410000+00:00</time>
      </trkpt>
      <trkpt lat="0" lon="0">
        <time>2020-12-20T08:48:03.412000+00:00</time>
      </trkpt>
      <trkpt lat="0" lon="0">
        <time>2020-12-20T08:48:03.415000+00:00</time>
      </trkpt>
      <trkpt lat="0" lon="0">
        <time>2020-12-20T08:48:03.417000+00:00</time>
      </trkpt>
      <trkpt lat="47.33072" lon="-1.29338">
        <ele>81</ele>
        <time>2020-12-20T08:48:04.461000+00:00</time>
      </trkpt>
      <trkpt lat="0" lon="0">
        <time>2020-12-20T08:48:04.473000+00:00</time>
      </trkpt>
      <trkpt lat="0" lon="0">
        <time>2020-12-20T08:48:04.483000+00:00</time>
      </trkpt>
      <trkpt lat="0" lon="0">
        <time>2020-12-20T08:48:04.487000+00:00</time>
      </trkpt>
      <trkpt lat="47.33071" lon="-1.29337">
        <ele>81</ele>
        <time>2020-12-20T08:48:05.459000+00:00</time>
      </trkpt>
      <trkpt lat="0" lon="0">
        <time>2020-12-20T08:48:05.468000+00:00</time>
      </trkpt>
      <trkpt lat="0" lon="0">
        <time>2020-12-20T08:48:05.481000+00:00</time>
      </trkpt>
      <trkpt lat="0" lon="0">
        <time>2020-12-20T08:48:05.485000+00:00</time>
      </trkpt>
      <trkpt lat="47.3307" lon="-1.29337">
        <ele>81</ele>
        <time>2020-12-20T08:48:06.462000+00:00</time>
      </trkpt>
      <trkpt lat="0" lon="0">
        <time>2020-12-20T08:48:06.473000+00:00</time>
      </trkpt>
      <trkpt lat="0" lon="0">
        <time>2020-12-20T08:48:06.477000+00:00</time>
      </trkpt>
      <trkpt lat="0" lon="0">
        <time>2020-12-20T08:48:06.480000+00:00</time>
      </trkpt>
      <trkpt lat="47.33068" lon="-1.29337">
        <ele>83</ele>
        <time>2020-12-20T08:48:07.452000+00:00</time>
      </trkpt>
      <trkpt lat="0" lon="0">
        <time>2020-12-20T08:48:07.457000+00:00</time>
      </trkpt>
      <trkpt lat="0" lon="0">
        <time>2020-12-20T08:48:07.462000+00:00</time>
      </trkpt>
      <trkpt lat="0" lon="0">
        <time>2020-12-20T08:48:07.464000+00:00</time>
      </trkpt>
      <trkpt lat="47.33067" lon="-1.29337">
        <ele>83</ele>
        <time>2020-12-20T08:48:08.470000+00:00</time>
      </trkpt>
      <trkpt lat="0" lon="0">
        <time>2020-12-20T08:48:08.479000+00:00</time>
      </trkpt>
      <trkpt lat="0" lon="0">
        <time>2020-12-20T08:48:08.484000+00:00</time>
      </trkpt>
      <trkpt lat="0" lon="0">
        <time>2020-12-20T08:48:08.486000+00:00</time>
      </trkpt>
      <trkpt lat="47.33066" lon="-1.29337">
        <ele>84</ele>
        <time>2020-12-20T08:48:09.474000+00:00</time>
      </trkpt>
      <trkpt lat="0" lon="0">
        <time>2020-12-20T08:48:09.491000+00:00</time>
      </trkpt>
      <trkpt lat="0" lon="0">
        <time>2020-12-20T08:48:09.495000+00:00</time>
      </trkpt>
      <trkpt lat="0" lon="0">
        <time>2020-12-20T08:48:09.497000+00:00</time>
      </trkpt>
      <trkpt lat="47.33064" lon="-1.29338">
        <ele>84</ele>
        <time>2020-12-20T08:48:10.437000+00:00</time>
      </trkpt>
      <trkpt lat="0" lon="0">
        <time>2020-12-20T08:48:10.444000+00:00</time>
      </trkpt>
      <trkpt lat="0" lon="0">
        <time>2020-12-20T08:48:10.452000+00:00</time>
      </trkpt>
      <trkpt lat="0" lon="0">
        <time>2020-12-20T08:48:10.455000+00:00</time>
      </trkpt>
      <trkpt lat="47.33063" lon="-1.29338">
        <ele>85</ele>
        <time>2020-12-20T08:48:11.456000+00:00</time>
      </trkpt>
      <trkpt lat="0" lon="0">
        <time>2020-12-20T08:48:11.462000+00:00</time>
      </trkpt>
      <trkpt lat="0" lon="0">
        <time>2020-12-20T08:48:11.467000+00:00</time>
      </trkpt>
      <trkpt lat="0" lon="0">
        <time>2020-12-20T08:48:11.469000+00:00</time>
      </trkpt>
      <trkpt lat="47.33062" lon="-1.29339">
        <ele>85</ele>
        <time>2020-12-20T08:48:12.480000+00:00</time>
      </trkpt>
      <trkpt lat="0" lon="0">
        <time>2020-12-20T08:48:12.488000+00:00</time>
      </trkpt>
      <trkpt lat="0" lon="0">
        <time>2020-12-20T08:48:12.492000+00:00</time>
      </trkpt>
      <trkpt lat="0" lon="0">
        <time>2020-12-20T08:48:12.495000+00:00</time>
      </trkpt>
      <trkpt lat="47.33061" lon="-1.29339">
        <ele>85</ele>
        <time>2020-12-20T08:48:13.464000+00:00</time>
      </trkpt>
      <trkpt lat="0" lon="0">
        <time>2020-12-20T08:48:13.469000+00:00</time>
      </trkpt>
      <trkpt lat="0" lon="0">
        <time>2020-12-20T08:48:13.473000+00:00</time>
      </trkpt>
      <trkpt lat="0" lon="0">
        <time>2020-12-20T08:48:13.475000+00:00</time>
      </trkpt>
      <trkpt lat="47.3306" lon="-1.29339">
        <ele>85</ele>
        <time>2020-12-20T08:48:14.479000+00:00</time>
      </trkpt>
      <trkpt lat="0" lon="0">
        <time>2020-12-20T08:48:14.486000+00:00</time>
      </trkpt>
      <trkpt lat="0" lon="0">
        <time>2020-12-20T08:48:14.490000+00:00</time>
      </trkpt>
      <trkpt lat="0" lon="0">
        <time>2020-12-20T08:48:14.495000+00:00</time>
      </trkpt>
      <trkpt lat="47.33059" lon="-1.2934">
        <ele>85</ele>
        <time>2020-12-20T08:48:15.466000+00:00</time>
      </trkpt>
      <trkpt lat="0" lon="0">
        <time>2020-12-20T08:48:15.471000+00:00</time>
      </trkpt>
      <trkpt lat="0" lon="0">
        <time>2020-12-20T08:48:15.480000+00:00</time>
      </trkpt>
      <trkpt lat="0" lon="0">
        <time>2020-12-20T08:48:15.481000+00:00</time>
      </trkpt>
      <trkpt lat="47.33058" lon="-1.2934">
        <ele>86</ele>
        <time>2020-12-20T08:48:16.469000+00:00</time>
      </trkpt>
      <trkpt lat="0" lon="0">
        <time>2020-12-20T08:48:16.478000+00:00</time>
      </trkpt>
      <trkpt lat="0" lon="0">
        <time>2020-12-20T08:48:16.484000+00:00</time>
      </trkpt>
      <trkpt lat="0" lon="0">
        <time>2020-12-20T08:48:16.492000+00:00</time>
      </trkpt>
      <trkpt lat="47.33056" lon="-1.2934">
        <ele>86</ele>
        <time>2020-12-20T08:48:17.448000+00:00</time>
      </trkpt>
      <trkpt lat="0" lon="0">
        <time>2020-12-20T08:48:17.468000+00:00</time>
      </trkpt>
      <trkpt lat="0" lon="0">
        <time>2020-12-20T08:48:17.474000+00:00</time>
      </trkpt>
      <trkpt lat="0" lon="0">
        <time>2020-12-20T08:48:17.477000+00:00</time>
      </trkpt>
      <trkpt lat="47.33055" lon="-1.29341">
        <ele>86</ele>
        <time>2020-12-20T08:48:18.459000+00:00</time>
      </trkpt>
      <trkpt lat="0" lon="0">
        <time>2020-12-20T08:48:18.478000+00:00</time>
      </trkpt>
      <trkpt lat="0" lon="0">
        <time>2020-12-20T08:48:18.485000+00:00</time>
      </trkpt>
      <trkpt lat="0" lon="0">
        <time>2020-12-20T08:48:18.486000+00:00</time>
      </trkpt>
      <trkpt lat="47.33054" lon="-1.29341">
        <ele>86</ele>
        <time>2020-12-20T08:48:19.466000+00:00</time>
      </trkpt>
      <trkpt lat="0" lon="0">
        <time>2020-12-20T08:48:19.486000+00:00</time>
      </trkpt>
      <trkpt lat="0" lon="0">
        <time>2020-12-20T08:48:19.490000+00:00</time>
      </trkpt>
      <trkpt lat="0" lon="0">
        <time>2020-12-20T08:48:19.496000+00:00</time>
      </trkpt>
      <trkpt lat="47.33053" lon="-1.29341">
        <ele>86</ele>
        <time>2020-12-20T08:48:20.448000+00:00</time>
      </trkpt>
      <trkpt lat="0" lon="0">
        <time>2020-12-20T08:48:20.456000+00:00</time>
      </trkpt>
      <trkpt lat="0" lon="0">
        <time>2020-12-20T08:48:20.462000+00:00</time>
      </trkpt>
      <trkpt lat="0" lon="0">
        <time>2020-12-20T08:48:20.465000+00:00</time>
      </trkpt>
      <trkpt lat="47.33052" lon="-1.29341">
        <ele>86</ele>
        <time>2020-12-20T08:48:21.496000+00:00</time>
      </trkpt>
      <trkpt lat="0" lon="0">
        <time>2020-12-20T08:48:21.501000+00:00</time>
      </trkpt>
      <trkpt lat="0" lon="0">
        <time>2020-12-20T08:48:21.503000+00:00</time>
      </trkpt>
      <trkpt lat="0" lon="0">
        <time>2020-12-20T08:48:21.504000+00:00</time>
      </trkpt>
      <trkpt lat="47.33051" lon="-1.29341">
        <ele>88</ele>
        <time>2020-12-20T08:48:22.445000+00:00</time>
      </trkpt>
      <trkpt lat="0" lon="0">
        <time>2020-12-20T08:48:22.460000+00:00</time>
      </trkpt>
      <trkpt lat="0" lon="0">
        <time>2020-12-20T08:48:22.464000+00:00</time>
      </trkpt>
      <trkpt lat="0" lon="0">
        <time>2020-12-20T08:48:22.474000+00:00</time>
      </trkpt>
      <trkpt lat="47.3305" lon="-1.29341">
        <ele>88</ele>
        <time>2020-12-20T08:48:23.477000+00:00</time>
      </trkpt>
      <trkpt lat="0" lon="0">
        <time>2020-12-20T08:48:23.484000+00:00</time>
      </trkpt>
      <trkpt lat="0" lon="0">
        <time>2020-12-20T08:48:23.490000+00:00</time>
      </trkpt>
      <trkpt lat="0" lon="0">
        <time>2020-12-20T08:48:23.498000+00:00</time>
      </trkpt>
      <trkpt lat="47.33049" lon="-1.29341">
        <ele>88</ele>
        <time>2020-12-20T08:48:24.459000+00:00</time>
      </trkpt>
      <trkpt lat="0" lon="0">
        <time>2020-12-20T08:48:24.476000+00:00</time>
      </trkpt>
      <trkpt lat="0" lon="0">
        <time>2020-12-20T08:48:24.484000+00:00</time>
      </trkpt>
      <trkpt lat="0" lon="0">
        <time>2020-12-20T08:48:24.497000+00:00</time>
      </trkpt>
      <trkpt lat="47.33048" lon="-1.29341">
        <ele>88</ele>
        <time>2020-12-20T08:48:25.455000+00:00</time>
      </trkpt>
      <trkpt lat="0" lon="0">
        <time>2020-12-20T08:48:25.462000+00:00</time>
      </trkpt>
      <trkpt lat="0" lon="0">
        <time>2020-12-20T08:48:25.467000+00:00</time>
      </trkpt>
      <trkpt lat="0" lon="0">
        <time>2020-12-20T08:48:25.469000+00:00</time>
      </trkpt>
      <trkpt lat="47.33047" lon="-1.29341">
        <ele>88</ele>
        <time>2020-12-20T08:48:26.438000+00:00</time>
      </trkpt>
      <trkpt lat="0" lon="0">
        <time>2020-12-20T08:48:26.445000+00:00</time>
      </trkpt>
      <trkpt lat="0" lon="0">
        <time>2020-12-20T08:48:26.448000+00:00</time>
      </trkpt>
      <trkpt lat="0" lon="0">
        <time>2020-12-20T08:48:26.450000+00:00</time>
      </trkpt>
      <trkpt lat="47.33047" lon="-1.29341">
        <ele>88</ele>
        <time>2020-12-20T08:48:27.437000+00:00</time>
      </trkpt>
      <trkpt lat="0" lon="0">
        <time>2020-12-20T08:48:27.448000+00:00</time>
      </trkpt>
      <trkpt lat="0" lon="0">
        <time>2020-12-20T08:48:27.455000+00:00</time>
      </trkpt>
      <trkpt lat="0" lon="0">
        <time>2020-12-20T08:48:27.461000+00:00</time>
      </trkpt>
      <trkpt lat="47.33046" lon="-1.29341">
        <ele>87</ele>
        <time>2020-12-20T08:48:28.450000+00:00</time>
      </trkpt>
      <trkpt lat="0" lon="0">
        <time>2020-12-20T08:48:28.463000+00:00</time>
      </trkpt>
      <trkpt lat="0" lon="0">
        <time>2020-12-20T08:48:28.472000+00:00</time>
      </trkpt>
      <trkpt lat="0" lon="0">
        <time>2020-12-20T08:48:28.483000+00:00</time>
      </trkpt>
      <trkpt lat="47.33044" lon="-1.29342">
        <ele>87</ele>
        <time>2020-12-20T08:48:29.456000+00:00</time>
      </trkpt>
      <trkpt lat="0" lon="0">
        <time>2020-12-20T08:48:29.469000+00:00</time>
      </trkpt>
      <trkpt lat="0" lon="0">
        <time>2020-12-20T08:48:29.474000+00:00</time>
      </trkpt>
      <trkpt lat="0" lon="0">
        <time>2020-12-20T08:48:29.478000+00:00</time>
      </trkpt>
      <trkpt lat="47.33043" lon="-1.29343">
        <ele>87</ele>
        <time>2020-12-20T08:48:30.455000+00:00</time>
      </trkpt>
      <trkpt lat="0" lon="0">
        <time>2020-12-20T08:48:30.458000+00:00</time>
      </trkpt>
      <trkpt lat="0" lon="0">
        <time>2020-12-20T08:48:30.460000+00:00</time>
      </trkpt>
      <trkpt lat="0" lon="0">
        <time>2020-12-20T08:48:30.461000+00:00</time>
      </trkpt>
      <trkpt lat="47.33042" lon="-1.29344">
        <ele>87</ele>
        <time>2020-12-20T08:48:31.435000+00:00</time>
      </trkpt>
      <trkpt lat="0" lon="0">
        <time>2020-12-20T08:48:31.453000+00:00</time>
      </trkpt>
      <trkpt lat="0" lon="0">
        <time>2020-12-20T08:48:31.459000+00:00</time>
      </trkpt>
      <trkpt lat="0" lon="0">
        <time>2020-12-20T08:48:31.461000+00:00</time>
      </trkpt>
      <trkpt lat="47.33041" lon="-1.29345">
        <ele>87</ele>
        <time>2020-12-20T08:48:32.449000+00:00</time>
      </trkpt>
      <trkpt lat="0" lon="0">
        <time>2020-12-20T08:48:32.459000+00:00</time>
      </trkpt>
      <trkpt lat="0" lon="0">
        <time>2020-12-20T08:48:32.466000+00:00</time>
      </trkpt>
      <trkpt lat="0" lon="0">
        <time>2020-12-20T08:48:32.469000+00:00</time>
      </trkpt>
      <trkpt lat="47.33039" lon="-1.29346">
        <ele>87</ele>
        <time>2020-12-20T08:48:33.479000+00:00</time>
      </trkpt>
      <trkpt lat="0" lon="0">
        <time>2020-12-20T08:48:33.486000+00:00</time>
      </trkpt>
      <trkpt lat="0" lon="0">
        <time>2020-12-20T08:48:33.488000+00:00</time>
      </trkpt>
      <trkpt lat="0" lon="0">
        <time>2020-12-20T08:48:33.489000+00:00</time>
      </trkpt>
      <trkpt lat="47.33039" lon="-1.29347">
        <ele>87</ele>
        <time>2020-12-20T08:48:34.488000+00:00</time>
      </trkpt>
      <trkpt lat="0" lon="0">
        <time>2020-12-20T08:48:34.506000+00:00</time>
      </trkpt>
      <trkpt lat="0" lon="0">
        <time>2020-12-20T08:48:34.512000+00:00</time>
      </trkpt>
      <trkpt lat="0" lon="0">
        <time>2020-12-20T08:48:34.516000+00:00</time>
      </trkpt>
      <trkpt lat="47.33038" lon="-1.29347">
        <ele>87</ele>
        <time>2020-12-20T08:48:35.463000+00:00</time>
      </trkpt>
      <trkpt lat="0" lon="0">
        <time>2020-12-20T08:48:35.477000+00:00</time>
      </trkpt>
      <trkpt lat="0" lon="0">
        <time>2020-12-20T08:48:35.485000+00:00</time>
      </trkpt>
      <trkpt lat="0" lon="0">
        <time>2020-12-20T08:48:35.487000+00:00</time>
      </trkpt>
      <trkpt lat="47.33036" lon="-1.29348">
        <ele>88</ele>
        <time>2020-12-20T08:48:36.474000+00:00</time>
      </trkpt>
      <trkpt lat="0" lon="0">
        <time>2020-12-20T08:48:36.485000+00:00</time>
      </trkpt>
      <trkpt lat="0" lon="0">
        <time>2020-12-20T08:48:36.492000+00:00</time>
      </trkpt>
      <trkpt lat="0" lon="0">
        <time>2020-12-20T08:48:36.495000+00:00</time>
      </trkpt>
      <trkpt lat="47.33035" lon="-1.2935">
        <ele>88</ele>
        <time>2020-12-20T08:48:37.453000+00:00</time>
      </trkpt>
      <trkpt lat="0" lon="0">
        <time>2020-12-20T08:48:37.461000+00:00</time>
      </trkpt>
      <trkpt lat="0" lon="0">
        <time>2020-12-20T08:48:37.469000+00:00</time>
      </trkpt>
      <trkpt lat="0" lon="0">
        <time>2020-12-20T08:48:37.474000+00:00</time>
      </trkpt>
      <trkpt lat="47.33034" lon="-1.29351">
        <ele>88</ele>
        <time>2020-12-20T08:48:38.475000+00:00</time>
      </trkpt>
      <trkpt lat="0" lon="0">
        <time>2020-12-20T08:48:38.503000+00:00</time>
      </trkpt>
      <trkpt lat="0" lon="0">
        <time>2020-12-20T08:48:38.507000+00:00</time>
      </trkpt>
      <trkpt lat="0" lon="0">
        <time>2020-12-20T08:48:38.508000+00:00</time>
      </trkpt>
      <trkpt lat="47.33032" lon="-1.29351">
        <ele>88</ele>
        <time>2020-12-20T08:48:39.453000+00:00</time>
      </trkpt>
      <trkpt lat="0" lon="0">
        <time>2020-12-20T08:48:39.465000+00:00</time>
      </trkpt>
      <trkpt lat="0" lon="0">
        <time>2020-12-20T08:48:39.469000+00:00</time>
      </trkpt>
      <trkpt lat="0" lon="0">
        <time>2020-12-20T08:48:39.471000+00:00</time>
      </trkpt>
      <trkpt lat="47.33031" lon="-1.29352">
        <ele>88</ele>
        <time>2020-12-20T08:48:40.459000+00:00</time>
      </trkpt>
      <trkpt lat="0" lon="0">
        <time>2020-12-20T08:48:40.471000+00:00</time>
      </trkpt>
      <trkpt lat="0" lon="0">
        <time>2020-12-20T08:48:40.475000+00:00</time>
      </trkpt>
      <trkpt lat="0" lon="0">
        <time>2020-12-20T08:48:40.478000+00:00</time>
      </trkpt>
      <trkpt lat="47.33029" lon="-1.29352">
        <ele>89</ele>
        <time>2020-12-20T08:48:41.467000+00:00</time>
      </trkpt>
      <trkpt lat="0" lon="0">
        <time>2020-12-20T08:48:41.479000+00:00</time>
      </trkpt>
      <trkpt lat="0" lon="0">
        <time>2020-12-20T08:48:41.485000+00:00</time>
      </trkpt>
      <trkpt lat="0" lon="0">
        <time>2020-12-20T08:48:41.488000+00:00</time>
      </trkpt>
      <trkpt lat="47.33028" lon="-1.29353">
        <ele>89</ele>
        <time>2020-12-20T08:48:42.466000+00:00</time>
      </trkpt>
      <trkpt lat="0" lon="0">
        <time>2020-12-20T08:48:42.489000+00:00</time>
      </trkpt>
      <trkpt lat="0" lon="0">
        <time>2020-12-20T08:48:42.495000+00:00</time>
      </trkpt>
      <trkpt lat="0" lon="0">
        <time>2020-12-20T08:48:42.497000+00:00</time>
      </trkpt>
      <trkpt lat="47.33027" lon="-1.29353">
        <ele>89</ele>
        <time>2020-12-20T08:48:43.466000+00:00</time>
      </trkpt>
      <trkpt lat="0" lon="0">
        <time>2020-12-20T08:48:43.472000+00:00</time>
      </trkpt>
      <trkpt lat="0" lon="0">
        <time>2020-12-20T08:48:43.485000+00:00</time>
      </trkpt>
      <trkpt lat="0" lon="0">
        <time>2020-12-20T08:48:43.488000+00:00</time>
      </trkpt>
      <trkpt lat="47.33026" lon="-1.29353">
        <ele>89</ele>
        <time>2020-12-20T08:48:44.480000+00:00</time>
      </trkpt>
      <trkpt lat="0" lon="0">
        <time>2020-12-20T08:48:44.483000+00:00</time>
      </trkpt>
      <trkpt lat="0" lon="0">
        <time>2020-12-20T08:48:44.486000+00:00</time>
      </trkpt>
      <trkpt lat="0" lon="0">
        <time>2020-12-20T08:48:44.488000+00:00</time>
      </trkpt>
      <trkpt lat="47.33025" lon="-1.29353">
        <ele>89</ele>
        <time>2020-12-20T08:48:45.440000+00:00</time>
      </trkpt>
      <trkpt lat="0" lon="0">
        <time>2020-12-20T08:48:45.458000+00:00</time>
      </trkpt>
      <trkpt lat="0" lon="0">
        <time>2020-12-20T08:48:45.470000+00:00</time>
      </trkpt>
      <trkpt lat="0" lon="0">
        <time>2020-12-20T08:48:45.472000+00:00</time>
      </trkpt>
      <trkpt lat="47.33023" lon="-1.29354">
        <ele>89</ele>
        <time>2020-12-20T08:48:46.450000+00:00</time>
      </trkpt>
      <trkpt lat="0" lon="0">
        <time>2020-12-20T08:48:46.463000+00:00</time>
      </trkpt>
      <trkpt lat="0" lon="0">
        <time>2020-12-20T08:48:46.474000+00:00</time>
      </trkpt>
      <trkpt lat="0" lon="0">
        <time>2020-12-20T08:48:46.476000+00:00</time>
      </trkpt>
      <trkpt lat="47.33022" lon="-1.29354">
        <ele>90</ele>
        <time>2020-12-20T08:48:47.460000+00:00</time>
      </trkpt>
      <trkpt lat="0" lon="0">
        <time>2020-12-20T08:48:47.466000+00:00</time>
      </trkpt>
      <trkpt lat="0" lon="0">
        <time>2020-12-20T08:48:47.470000+00:00</time>
      </trkpt>
      <trkpt lat="0" lon="0">
        <time>2020-12-20T08:48:47.473000+00:00</time>
      </trkpt>
      <trkpt lat="47.3302" lon="-1.29355">
        <ele>90</ele>
        <time>2020-12-20T08:48:48.463000+00:00</time>
      </trkpt>
      <trkpt lat="0" lon="0">
        <time>2020-12-20T08:48:48.479000+00:00</time>
      </trkpt>
      <trkpt lat="0" lon="0">
        <time>2020-12-20T08:48:48.484000+00:00</time>
      </trkpt>
      <trkpt lat="0" lon="0">
        <time>2020-12-20T08:48:48.487000+00:00</time>
      </trkpt>
      <trkpt lat="47.33019" lon="-1.29355">
        <ele>91</ele>
        <time>2020-12-20T08:48:49.460000+00:00</time>
      </trkpt>
      <trkpt lat="0" lon="0">
        <time>2020-12-20T08:48:49.466000+00:00</time>
      </trkpt>
      <trkpt lat="0" lon="0">
        <time>2020-12-20T08:48:49.471000+00:00</time>
      </trkpt>
      <trkpt lat="0" lon="0">
        <time>2020-12-20T08:48:49.473000+00:00</time>
      </trkpt>
      <trkpt lat="47.33017" lon="-1.29356">
        <ele>92</ele>
        <time>2020-12-20T08:48:50.490000+00:00</time>
      </trkpt>
      <trkpt lat="0" lon="0">
        <time>2020-12-20T08:48:50.496000+00:00</time>
      </trkpt>
      <trkpt lat="0" lon="0">
        <time>2020-12-20T08:48:50.501000+00:00</time>
      </trkpt>
      <trkpt lat="0" lon="0">
        <time>2020-12-20T08:48:50.503000+00:00</time>
      </trkpt>
      <trkpt lat="47.33016" lon="-1.29356">
        <ele>93</ele>
        <time>2020-12-20T08:48:51.448000+00:00</time>
      </trkpt>
      <trkpt lat="0" lon="0">
        <time>2020-12-20T08:48:51.455000+00:00</time>
      </trkpt>
      <trkpt lat="0" lon="0">
        <time>2020-12-20T08:48:51.459000+00:00</time>
      </trkpt>
      <trkpt lat="0" lon="0">
        <time>2020-12-20T08:48:51.462000+00:00</time>
      </trkpt>
      <trkpt lat="47.33015" lon="-1.29356">
        <ele>93</ele>
        <time>2020-12-20T08:48:52.466000+00:00</time>
      </trkpt>
      <trkpt lat="0" lon="0">
        <time>2020-12-20T08:48:52.471000+00:00</time>
      </trkpt>
      <trkpt lat="0" lon="0">
        <time>2020-12-20T08:48:52.478000+00:00</time>
      </trkpt>
      <trkpt lat="0" lon="0">
        <time>2020-12-20T08:48:52.483000+00:00</time>
      </trkpt>
      <trkpt lat="47.33014" lon="-1.29357">
        <ele>93</ele>
        <time>2020-12-20T08:48:53.462000+00:00</time>
      </trkpt>
      <trkpt lat="0" lon="0">
        <time>2020-12-20T08:48:53.468000+00:00</time>
      </trkpt>
      <trkpt lat="0" lon="0">
        <time>2020-12-20T08:48:53.474000+00:00</time>
      </trkpt>
      <trkpt lat="0" lon="0">
        <time>2020-12-20T08:48:53.476000+00:00</time>
      </trkpt>
      <trkpt lat="47.33013" lon="-1.29357">
        <ele>93</ele>
        <time>2020-12-20T08:48:54.451000+00:00</time>
      </trkpt>
      <trkpt lat="0" lon="0">
        <time>2020-12-20T08:48:54.465000+00:00</time>
      </trkpt>
      <trkpt lat="0" lon="0">
        <time>2020-12-20T08:48:54.474000+00:00</time>
      </trkpt>
      <trkpt lat="0" lon="0">
        <time>2020-12-20T08:48:54.477000+00:00</time>
      </trkpt>
      <trkpt lat="47.33012" lon="-1.29357">
        <ele>93</ele>
        <time>2020-12-20T08:48:55.486000+00:00</time>
      </trkpt>
      <trkpt lat="0" lon="0">
        <time>2020-12-20T08:48:55.499000+00:00</time>
      </trkpt>
      <trkpt lat="0" lon="0">
        <time>2020-12-20T08:48:55.503000+00:00</time>
      </trkpt>
      <trkpt lat="0" lon="0">
        <time>2020-12-20T08:48:55.505000+00:00</time>
      </trkpt>
      <trkpt lat="47.33011" lon="-1.29358">
        <ele>93</ele>
        <time>2020-12-20T08:48:56.475000+00:00</time>
      </trkpt>
      <trkpt lat="0" lon="0">
        <time>2020-12-20T08:48:56.479000+00:00</time>
      </trkpt>
      <trkpt lat="0" lon="0">
        <time>2020-12-20T08:48:56.482000+00:00</time>
      </trkpt>
      <trkpt lat="0" lon="0">
        <time>2020-12-20T08:48:56.484000+00:00</time>
      </trkpt>
      <trkpt lat="47.3301" lon="-1.29358">
        <ele>93</ele>
        <time>2020-12-20T08:48:57.457000+00:00</time>
      </trkpt>
      <trkpt lat="0" lon="0">
        <time>2020-12-20T08:48:57.461000+00:00</time>
      </trkpt>
      <trkpt lat="0" lon="0">
        <time>2020-12-20T08:48:57.478000+00:00</time>
      </trkpt>
      <trkpt lat="0" lon="0">
        <time>2020-12-20T08:48:57.488000+00:00</time>
      </trkpt>
      <trkpt lat="47.33008" lon="-1.29359">
        <ele>93</ele>
        <time>2020-12-20T08:48:58.458000+00:00</time>
      </trkpt>
      <trkpt lat="0" lon="0">
        <time>2020-12-20T08:48:58.482000+00:00</time>
      </trkpt>
      <trkpt lat="0" lon="0">
        <time>2020-12-20T08:48:58.489000+00:00</time>
      </trkpt>
      <trkpt lat="0" lon="0">
        <time>2020-12-20T08:48:58.491000+00:00</time>
      </trkpt>
      <trkpt lat="47.33007" lon="-1.29359">
        <ele>93</ele>
        <time>2020-12-20T08:48:59.493000+00:00</time>
      </trkpt>
      <trkpt lat="0" lon="0">
        <time>2020-12-20T08:48:59.505000+00:00</time>
      </trkpt>
      <trkpt lat="0" lon="0">
        <time>2020-12-20T08:48:59.512000+00:00</time>
      </trkpt>
      <trkpt lat="0" lon="0">
        <time>2020-12-20T08:48:59.519000+00:00</time>
      </trkpt>
      <trkpt lat="47.33007" lon="-1.29359">
        <ele>93</ele>
        <time>2020-12-20T08:49:00.462000+00:00</time>
      </trkpt>
      <trkpt lat="0" lon="0">
        <time>2020-12-20T08:49:00.469000+00:00</time>
      </trkpt>
      <trkpt lat="0" lon="0">
        <time>2020-12-20T08:49:00.475000+00:00</time>
      </trkpt>
      <trkpt lat="0" lon="0">
        <time>2020-12-20T08:49:00.478000+00:00</time>
      </trkpt>
      <trkpt lat="47.33005" lon="-1.2936">
        <ele>93</ele>
        <time>2020-12-20T08:49:01.496000+00:00</time>
      </trkpt>
      <trkpt lat="0" lon="0">
        <time>2020-12-20T08:49:01.509000+00:00</time>
      </trkpt>
      <trkpt lat="0" lon="0">
        <time>2020-12-20T08:49:01.517000+00:00</time>
      </trkpt>
      <trkpt lat="0" lon="0">
        <time>2020-12-20T08:49:01.519000+00:00</time>
      </trkpt>
      <trkpt lat="47.33003" lon="-1.2936">
        <ele>94</ele>
        <time>2020-12-20T08:49:02.474000+00:00</time>
      </trkpt>
      <trkpt lat="0" lon="0">
        <time>2020-12-20T08:49:02.489000+00:00</time>
      </trkpt>
      <trkpt lat="0" lon="0">
        <time>2020-12-20T08:49:02.494000+00:00</time>
      </trkpt>
      <trkpt lat="0" lon="0">
        <time>2020-12-20T08:49:02.498000+00:00</time>
      </trkpt>
      <trkpt lat="47.33001" lon="-1.2936">
        <ele>94</ele>
        <time>2020-12-20T08:49:03.471000+00:00</time>
      </trkpt>
      <trkpt lat="0" lon="0">
        <time>2020-12-20T08:49:03.490000+00:00</time>
      </trkpt>
      <trkpt lat="0" lon="0">
        <time>2020-12-20T08:49:03.501000+00:00</time>
      </trkpt>
      <trkpt lat="0" lon="0">
        <time>2020-12-20T08:49:03.505000+00:00</time>
      </trkpt>
      <trkpt lat="47.32998" lon="-1.2936">
        <ele>95</ele>
        <time>2020-12-20T08:49:04.458000+00:00</time>
      </trkpt>
      <trkpt lat="0" lon="0">
        <time>2020-12-20T08:49:04.473000+00:00</time>
      </trkpt>
      <trkpt lat="0" lon="0">
        <time>2020-12-20T08:49:04.480000+00:00</time>
      </trkpt>
      <trkpt lat="0" lon="0">
        <time>2020-12-20T08:49:04.485000+00:00</time>
      </trkpt>
      <trkpt lat="47.32996" lon="-1.29359">
        <ele>96</ele>
        <time>2020-12-20T08:49:05.466000+00:00</time>
      </trkpt>
      <trkpt lat="0" lon="0">
        <time>2020-12-20T08:49:05.472000+00:00</time>
      </trkpt>
      <trkpt lat="0" lon="0">
        <time>2020-12-20T08:49:05.480000+00:00</time>
      </trkpt>
      <trkpt lat="0" lon="0">
        <time>2020-12-20T08:49:05.483000+00:00</time>
      </trkpt>
      <trkpt lat="47.32993" lon="-1.29358">
        <ele>97</ele>
        <time>2020-12-20T08:49:06.503000+00:00</time>
      </trkpt>
      <trkpt lat="0" lon="0">
        <time>2020-12-20T08:49:06.517000+00:00</time>
      </trkpt>
      <trkpt lat="0" lon="0">
        <time>2020-12-20T08:49:06.533000+00:00</time>
      </trkpt>
      <trkpt lat="0" lon="0">
        <time>2020-12-20T08:49:06.535000+00:00</time>
      </trkpt>
      <trkpt lat="47.3299" lon="-1.29357">
        <ele>97</ele>
        <time>2020-12-20T08:49:07.426000+00:00</time>
      </trkpt>
      <trkpt lat="0" lon="0">
        <time>2020-12-20T08:49:07.441000+00:00</time>
      </trkpt>
      <trkpt lat="0" lon="0">
        <time>2020-12-20T08:49:07.448000+00:00</time>
      </trkpt>
      <trkpt lat="0" lon="0">
        <time>2020-12-20T08:49:07.452000+00:00</time>
      </trkpt>
      <trkpt lat="47.32986" lon="-1.29356">
        <ele>97</ele>
        <time>2020-12-20T08:49:08.444000+00:00</time>
      </trkpt>
      <trkpt lat="0" lon="0">
        <time>2020-12-20T08:49:08.460000+00:00</time>
      </trkpt>
      <trkpt lat="0" lon="0">
        <time>2020-12-20T08:49:08.465000+00:00</time>
      </trkpt>
      <trkpt lat="0" lon="0">
        <time>2020-12-20T08:49:08.472000+00:00</time>
      </trkpt>
      <trkpt lat="47.32983" lon="-1.29354">
        <ele>98</ele>
        <time>2020-12-20T08:49:09.471000+00:00</time>
      </trkpt>
      <trkpt lat="0" lon="0">
        <time>2020-12-20T08:49:09.484000+00:00</time>
      </trkpt>
      <trkpt lat="0" lon="0">
        <time>2020-12-20T08:49:09.489000+00:00</time>
      </trkpt>
      <trkpt lat="0" lon="0">
        <time>2020-12-20T08:49:09.492000+00:00</time>
      </trkpt>
      <trkpt lat="47.3298" lon="-1.29352">
        <ele>98</ele>
        <time>2020-12-20T08:49:10.484000+00:00</time>
      </trkpt>
      <trkpt lat="0" lon="0">
        <time>2020-12-20T08:49:10.495000+00:00</time>
      </trkpt>
      <trkpt lat="0" lon="0">
        <time>2020-12-20T08:49:10.499000+00:00</time>
      </trkpt>
      <trkpt lat="0" lon="0">
        <time>2020-12-20T08:49:10.502000+00:00</time>
      </trkpt>
      <trkpt lat="47.32977" lon="-1.29351">
        <ele>98</ele>
        <time>2020-12-20T08:49:11.461000+00:00</time>
      </trkpt>
      <trkpt lat="0" lon="0">
        <time>2020-12-20T08:49:11.470000+00:00</time>
      </trkpt>
      <trkpt lat="0" lon="0">
        <time>2020-12-20T08:49:11.474000+00:00</time>
      </trkpt>
      <trkpt lat="0" lon="0">
        <time>2020-12-20T08:49:11.476000+00:00</time>
      </trkpt>
      <trkpt lat="47.32974" lon="-1.29348">
        <ele>99</ele>
        <time>2020-12-20T08:49:12.486000+00:00</time>
      </trkpt>
      <trkpt lat="0" lon="0">
        <time>2020-12-20T08:49:12.498000+00:00</time>
      </trkpt>
      <trkpt lat="0" lon="0">
        <time>2020-12-20T08:49:12.502000+00:00</time>
      </trkpt>
      <trkpt lat="0" lon="0">
        <time>2020-12-20T08:49:12.505000+00:00</time>
      </trkpt>
      <trkpt lat="47.32971" lon="-1.29346">
        <ele>100</ele>
        <time>2020-12-20T08:49:13.430000+00:00</time>
      </trkpt>
      <trkpt lat="0" lon="0">
        <time>2020-12-20T08:49:13.442000+00:00</time>
      </trkpt>
      <trkpt lat="0" lon="0">
        <time>2020-12-20T08:49:13.445000+00:00</time>
      </trkpt>
      <trkpt lat="0" lon="0">
        <time>2020-12-20T08:49:13.446000+00:00</time>
      </trkpt>
      <trkpt lat="47.32968" lon="-1.29344">
        <ele>100</ele>
        <time>2020-12-20T08:49:14.486000+00:00</time>
      </trkpt>
      <trkpt lat="0" lon="0">
        <time>2020-12-20T08:49:14.496000+00:00</time>
      </trkpt>
      <trkpt lat="0" lon="0">
        <time>2020-12-20T08:49:14.501000+00:00</time>
      </trkpt>
      <trkpt lat="0" lon="0">
        <time>2020-12-20T08:49:14.503000+00:00</time>
      </trkpt>
      <trkpt lat="47.32965" lon="-1.29342">
        <ele>100</ele>
        <time>2020-12-20T08:49:15.486000+00:00</time>
      </trkpt>
      <trkpt lat="0" lon="0">
        <time>2020-12-20T08:49:15.502000+00:00</time>
      </trkpt>
      <trkpt lat="0" lon="0">
        <time>2020-12-20T08:49:15.510000+00:00</time>
      </trkpt>
      <trkpt lat="0" lon="0">
        <time>2020-12-20T08:49:15.515000+00:00</time>
      </trkpt>
      <trkpt lat="47.32963" lon="-1.29339">
        <ele>101</ele>
        <time>2020-12-20T08:49:16.467000+00:00</time>
      </trkpt>
      <trkpt lat="0" lon="0">
        <time>2020-12-20T08:49:16.476000+00:00</time>
      </trkpt>
      <trkpt lat="0" lon="0">
        <time>2020-12-20T08:49:16.481000+00:00</time>
      </trkpt>
      <trkpt lat="0" lon="0">
        <time>2020-12-20T08:49:16.483000+00:00</time>
      </trkpt>
      <trkpt lat="47.3296" lon="-1.29336">
        <ele>102</ele>
        <time>2020-12-20T08:49:17.470000+00:00</time>
      </trkpt>
      <trkpt lat="0" lon="0">
        <time>2020-12-20T08:49:17.477000+00:00</time>
      </trkpt>
      <trkpt lat="0" lon="0">
        <time>2020-12-20T08:49:17.482000+00:00</time>
      </trkpt>
      <trkpt lat="0" lon="0">
        <time>2020-12-20T08:49:17.488000+00:00</time>
      </trkpt>
      <trkpt lat="47.32958" lon="-1.29334">
        <ele>102</ele>
        <time>2020-12-20T08:49:18.477000+00:00</time>
      </trkpt>
      <trkpt lat="0" lon="0">
        <time>2020-12-20T08:49:18.489000+00:00</time>
      </trkpt>
      <trkpt lat="0" lon="0">
        <time>2020-12-20T08:49:18.496000+00:00</time>
      </trkpt>
      <trkpt lat="0" lon="0">
        <time>2020-12-20T08:49:18.498000+00:00</time>
      </trkpt>
      <trkpt lat="47.32956" lon="-1.29331">
        <ele>102</ele>
        <time>2020-12-20T08:49:19.450000+00:00</time>
      </trkpt>
      <trkpt lat="0" lon="0">
        <time>2020-12-20T08:49:19.460000+00:00</time>
      </trkpt>
      <trkpt lat="0" lon="0">
        <time>2020-12-20T08:49:19.464000+00:00</time>
      </trkpt>
      <trkpt lat="0" lon="0">
        <time>2020-12-20T08:49:19.466000+00:00</time>
      </trkpt>
      <trkpt lat="47.32954" lon="-1.29328">
        <ele>102</ele>
        <time>2020-12-20T08:49:20.474000+00:00</time>
      </trkpt>
      <trkpt lat="0" lon="0">
        <time>2020-12-20T08:49:20.484000+00:00</time>
      </trkpt>
      <trkpt lat="0" lon="0">
        <time>2020-12-20T08:49:20.488000+00:00</time>
      </trkpt>
      <trkpt lat="0" lon="0">
        <time>2020-12-20T08:49:20.492000+00:00</time>
      </trkpt>
      <trkpt lat="47.32952" lon="-1.29325">
        <ele>102</ele>
        <time>2020-12-20T08:49:21.483000+00:00</time>
      </trkpt>
      <trkpt lat="0" lon="0">
        <time>2020-12-20T08:49:21.507000+00:00</time>
      </trkpt>
      <trkpt lat="0" lon="0">
        <time>2020-12-20T08:49:21.517000+00:00</time>
      </trkpt>
      <trkpt lat="0" lon="0">
        <time>2020-12-20T08:49:21.520000+00:00</time>
      </trkpt>
      <trkpt lat="47.3295" lon="-1.29322">
        <ele>102</ele>
        <time>2020-12-20T08:49:22.478000+00:00</time>
      </trkpt>
      <trkpt lat="0" lon="0">
        <time>2020-12-20T08:49:22.488000+00:00</time>
      </trkpt>
      <trkpt lat="0" lon="0">
        <time>2020-12-20T08:49:22.492000+00:00</time>
      </trkpt>
      <trkpt lat="0" lon="0">
        <time>2020-12-20T08:49:22.494000+00:00</time>
      </trkpt>
      <trkpt lat="47.32948" lon="-1.2932">
        <ele>102</ele>
        <time>2020-12-20T08:49:23.410000+00:00</time>
      </trkpt>
      <trkpt lat="0" lon="0">
        <time>2020-12-20T08:49:23.420000+00:00</time>
      </trkpt>
      <trkpt lat="0" lon="0">
        <time>2020-12-20T08:49:23.439000+00:00</time>
      </trkpt>
      <trkpt lat="0" lon="0">
        <time>2020-12-20T08:49:23.441000+00:00</time>
      </trkpt>
      <trkpt lat="47.32947" lon="-1.29317">
        <ele>102</ele>
        <time>2020-12-20T08:49:24.430000+00:00</time>
      </trkpt>
      <trkpt lat="0" lon="0">
        <time>2020-12-20T08:49:24.435000+00:00</time>
      </trkpt>
      <trkpt lat="0" lon="0">
        <time>2020-12-20T08:49:24.439000+00:00</time>
      </trkpt>
      <trkpt lat="0" lon="0">
        <time>2020-12-20T08:49:24.448000+00:00</time>
      </trkpt>
      <trkpt lat="47.32945" lon="-1.29314">
        <ele>103</ele>
        <time>2020-12-20T08:49:25.458000+00:00</time>
      </trkpt>
      <trkpt lat="0" lon="0">
        <time>2020-12-20T08:49:25.479000+00:00</time>
      </trkpt>
      <trkpt lat="0" lon="0">
        <time>2020-12-20T08:49:25.482000+00:00</time>
      </trkpt>
      <trkpt lat="0" lon="0">
        <time>2020-12-20T08:49:25.484000+00:00</time>
      </trkpt>
      <trkpt lat="47.32943" lon="-1.29312">
        <ele>104</ele>
        <time>2020-12-20T08:49:26.419000+00:00</time>
      </trkpt>
      <trkpt lat="0" lon="0">
        <time>2020-12-20T08:49:26.426000+00:00</time>
      </trkpt>
      <trkpt lat="0" lon="0">
        <time>2020-12-20T08:49:26.429000+00:00</time>
      </trkpt>
      <trkpt lat="0" lon="0">
        <time>2020-12-20T08:49:26.432000+00:00</time>
      </trkpt>
      <trkpt lat="47.32942" lon="-1.2931">
        <ele>103</ele>
        <time>2020-12-20T08:49:27.450000+00:00</time>
      </trkpt>
      <trkpt lat="0" lon="0">
        <time>2020-12-20T08:49:27.463000+00:00</time>
      </trkpt>
      <trkpt lat="0" lon="0">
        <time>2020-12-20T08:49:27.472000+00:00</time>
      </trkpt>
      <trkpt lat="0" lon="0">
        <time>2020-12-20T08:49:27.474000+00:00</time>
      </trkpt>
      <trkpt lat="47.3294" lon="-1.29308">
        <ele>103</ele>
        <time>2020-12-20T08:49:28.441000+00:00</time>
      </trkpt>
      <trkpt lat="0" lon="0">
        <time>2020-12-20T08:49:28.462000+00:00</time>
      </trkpt>
      <trkpt lat="0" lon="0">
        <time>2020-12-20T08:49:28.469000+00:00</time>
      </trkpt>
      <trkpt lat="0" lon="0">
        <time>2020-12-20T08:49:28.474000+00:00</time>
      </trkpt>
      <trkpt lat="47.32938" lon="-1.29307">
        <ele>103</ele>
        <time>2020-12-20T08:49:29.431000+00:00</time>
      </trkpt>
      <trkpt lat="0" lon="0">
        <time>2020-12-20T08:49:29.448000+00:00</time>
      </trkpt>
      <trkpt lat="0" lon="0">
        <time>2020-12-20T08:49:29.451000+00:00</time>
      </trkpt>
      <trkpt lat="0" lon="0">
        <time>2020-12-20T08:49:29.454000+00:00</time>
      </trkpt>
      <trkpt lat="47.32936" lon="-1.29306">
        <ele>103</ele>
        <time>2020-12-20T08:49:30.454000+00:00</time>
      </trkpt>
      <trkpt lat="0" lon="0">
        <time>2020-12-20T08:49:30.463000+00:00</time>
      </trkpt>
      <trkpt lat="0" lon="0">
        <time>2020-12-20T08:49:30.467000+00:00</time>
      </trkpt>
      <trkpt lat="0" lon="0">
        <time>2020-12-20T08:49:30.472000+00:00</time>
      </trkpt>
      <trkpt lat="47.32935" lon="-1.29305">
        <ele>103</ele>
        <time>2020-12-20T08:49:31.411000+00:00</time>
      </trkpt>
      <trkpt lat="0" lon="0">
        <time>2020-12-20T08:49:31.421000+00:00</time>
      </trkpt>
      <trkpt lat="0" lon="0">
        <time>2020-12-20T08:49:31.428000+00:00</time>
      </trkpt>
      <trkpt lat="0" lon="0">
        <time>2020-12-20T08:49:31.430000+00:00</time>
      </trkpt>
      <trkpt lat="47.32933" lon="-1.29304">
        <ele>103</ele>
        <time>2020-12-20T08:49:32.503000+00:00</time>
      </trkpt>
      <trkpt lat="0" lon="0">
        <time>2020-12-20T08:49:32.515000+00:00</time>
      </trkpt>
      <trkpt lat="0" lon="0">
        <time>2020-12-20T08:49:32.530000+00:00</time>
      </trkpt>
      <trkpt lat="0" lon="0">
        <time>2020-12-20T08:49:32.534000+00:00</time>
      </trkpt>
      <trkpt lat="47.32931" lon="-1.29304">
        <ele>103</ele>
        <time>2020-12-20T08:49:33.479000+00:00</time>
      </trkpt>
      <trkpt lat="0" lon="0">
        <time>2020-12-20T08:49:33.487000+00:00</time>
      </trkpt>
      <trkpt lat="0" lon="0">
        <time>2020-12-20T08:49:33.492000+00:00</time>
      </trkpt>
      <trkpt lat="0" lon="0">
        <time>2020-12-20T08:49:33.498000+00:00</time>
      </trkpt>
      <trkpt lat="47.32929" lon="-1.29304">
        <ele>103</ele>
        <time>2020-12-20T08:49:34.474000+00:00</time>
      </trkpt>
      <trkpt lat="0" lon="0">
        <time>2020-12-20T08:49:34.489000+00:00</time>
      </trkpt>
      <trkpt lat="0" lon="0">
        <time>2020-12-20T08:49:34.496000+00:00</time>
      </trkpt>
      <trkpt lat="0" lon="0">
        <time>2020-12-20T08:49:34.505000+00:00</time>
      </trkpt>
      <trkpt lat="47.32926" lon="-1.29303">
        <ele>103</ele>
        <time>2020-12-20T08:49:35.475000+00:00</time>
      </trkpt>
      <trkpt lat="0" lon="0">
        <time>2020-12-20T08:49:35.490000+00:00</time>
      </trkpt>
      <trkpt lat="0" lon="0">
        <time>2020-12-20T08:49:35.502000+00:00</time>
      </trkpt>
      <trkpt lat="0" lon="0">
        <time>2020-12-20T08:49:35.504000+00:00</time>
      </trkpt>
      <trkpt lat="47.32924" lon="-1.29303">
        <ele>103</ele>
        <time>2020-12-20T08:49:36.424000+00:00</time>
      </trkpt>
      <trkpt lat="0" lon="0">
        <time>2020-12-20T08:49:36.432000+00:00</time>
      </trkpt>
      <trkpt lat="0" lon="0">
        <time>2020-12-20T08:49:36.434000+00:00</time>
      </trkpt>
      <trkpt lat="0" lon="0">
        <time>2020-12-20T08:49:36.435000+00:00</time>
      </trkpt>
      <trkpt lat="47.32922" lon="-1.29303">
        <ele>102</ele>
        <time>2020-12-20T08:49:37.462000+00:00</time>
      </trkpt>
      <trkpt lat="0" lon="0">
        <time>2020-12-20T08:49:37.472000+00:00</time>
      </trkpt>
      <trkpt lat="0" lon="0">
        <time>2020-12-20T08:49:37.486000+00:00</time>
      </trkpt>
      <trkpt lat="0" lon="0">
        <time>2020-12-20T08:49:37.490000+00:00</time>
      </trkpt>
      <trkpt lat="47.3292" lon="-1.29303">
        <ele>102</ele>
        <time>2020-12-20T08:49:38.472000+00:00</time>
      </trkpt>
      <trkpt lat="0" lon="0">
        <time>2020-12-20T08:49:38.487000+00:00</time>
      </trkpt>
      <trkpt lat="0" lon="0">
        <time>2020-12-20T08:49:38.492000+00:00</time>
      </trkpt>
      <trkpt lat="0" lon="0">
        <time>2020-12-20T08:49:38.495000+00:00</time>
      </trkpt>
      <trkpt lat="47.32918" lon="-1.29302">
        <ele>102</ele>
        <time>2020-12-20T08:49:39.451000+00:00</time>
      </trkpt>
      <trkpt lat="0" lon="0">
        <time>2020-12-20T08:49:39.464000+00:00</time>
      </trkpt>
      <trkpt lat="0" lon="0">
        <time>2020-12-20T08:49:39.469000+00:00</time>
      </trkpt>
      <trkpt lat="0" lon="0">
        <time>2020-12-20T08:49:39.472000+00:00</time>
      </trkpt>
      <trkpt lat="47.32915" lon="-1.29301">
        <ele>102</ele>
        <time>2020-12-20T08:49:40.463000+00:00</time>
      </trkpt>
      <trkpt lat="0" lon="0">
        <time>2020-12-20T08:49:40.476000+00:00</time>
      </trkpt>
      <trkpt lat="0" lon="0">
        <time>2020-12-20T08:49:40.487000+00:00</time>
      </trkpt>
      <trkpt lat="0" lon="0">
        <time>2020-12-20T08:49:40.489000+00:00</time>
      </trkpt>
      <trkpt lat="47.32913" lon="-1.293">
        <ele>102</ele>
        <time>2020-12-20T08:49:41.499000+00:00</time>
      </trkpt>
      <trkpt lat="0" lon="0">
        <time>2020-12-20T08:49:41.518000+00:00</time>
      </trkpt>
      <trkpt lat="0" lon="0">
        <time>2020-12-20T08:49:41.528000+00:00</time>
      </trkpt>
      <trkpt lat="0" lon="0">
        <time>2020-12-20T08:49:41.531000+00:00</time>
      </trkpt>
      <trkpt lat="47.32911" lon="-1.29299">
        <ele>102</ele>
        <time>2020-12-20T08:49:42.439000+00:00</time>
      </trkpt>
      <trkpt lat="0" lon="0">
        <time>2020-12-20T08:49:42.444000+00:00</time>
      </trkpt>
      <trkpt lat="0" lon="0">
        <time>2020-12-20T08:49:42.446000+00:00</time>
      </trkpt>
      <trkpt lat="47.32908" lon="-1.29298">
        <ele>102</ele>
        <time>2020-12-20T08:49:43.452000+00:00</time>
      </trkpt>
      <trkpt lat="0" lon="0">
        <time>2020-12-20T08:49:43.459000+00:00</time>
      </trkpt>
      <trkpt lat="0" lon="0">
        <time>2020-12-20T08:49:43.461000+00:00</time>
      </trkpt>
      <trkpt lat="0" lon="0">
        <time>2020-12-20T08:49:43.462000+00:00</time>
      </trkpt>
      <trkpt lat="47.32906" lon="-1.29296">
        <ele>102</ele>
        <time>2020-12-20T08:49:44.414000+00:00</time>
      </trkpt>
      <trkpt lat="0" lon="0">
        <time>2020-12-20T08:49:44.427000+00:00</time>
      </trkpt>
      <trkpt lat="0" lon="0">
        <time>2020-12-20T08:49:44.437000+00:00</time>
      </trkpt>
      <trkpt lat="0" lon="0">
        <time>2020-12-20T08:49:44.441000+00:00</time>
      </trkpt>
      <trkpt lat="47.32904" lon="-1.29295">
        <ele>101</ele>
        <time>2020-12-20T08:49:45.479000+00:00</time>
      </trkpt>
      <trkpt lat="0" lon="0">
        <time>2020-12-20T08:49:45.489000+00:00</time>
      </trkpt>
      <trkpt lat="0" lon="0">
        <time>2020-12-20T08:49:45.494000+00:00</time>
      </trkpt>
      <trkpt lat="0" lon="0">
        <time>2020-12-20T08:49:45.497000+00:00</time>
      </trkpt>
      <trkpt lat="47.32901" lon="-1.29293">
        <ele>101</ele>
        <time>2020-12-20T08:49:46.441000+00:00</time>
      </trkpt>
      <trkpt lat="0" lon="0">
        <time>2020-12-20T08:49:46.448000+00:00</time>
      </trkpt>
      <trkpt lat="0" lon="0">
        <time>2020-12-20T08:49:46.452000+00:00</time>
      </trkpt>
      <trkpt lat="0" lon="0">
        <time>2020-12-20T08:49:46.454000+00:00</time>
      </trkpt>
      <trkpt lat="47.32899" lon="-1.29291">
        <ele>101</ele>
        <time>2020-12-20T08:49:47.470000+00:00</time>
      </trkpt>
      <trkpt lat="0" lon="0">
        <time>2020-12-20T08:49:47.479000+00:00</time>
      </trkpt>
      <trkpt lat="0" lon="0">
        <time>2020-12-20T08:49:47.483000+00:00</time>
      </trkpt>
      <trkpt lat="0" lon="0">
        <time>2020-12-20T08:49:47.484000+00:00</time>
      </trkpt>
      <trkpt lat="47.32896" lon="-1.29289">
        <ele>101</ele>
        <time>2020-12-20T08:49:48.434000+00:00</time>
      </trkpt>
      <trkpt lat="0" lon="0">
        <time>2020-12-20T08:49:48.440000+00:00</time>
      </trkpt>
      <trkpt lat="0" lon="0">
        <time>2020-12-20T08:49:48.448000+00:00</time>
      </trkpt>
      <trkpt lat="0" lon="0">
        <time>2020-12-20T08:49:48.452000+00:00</time>
      </trkpt>
      <trkpt lat="47.32894" lon="-1.29287">
        <ele>101</ele>
        <time>2020-12-20T08:49:49.432000+00:00</time>
      </trkpt>
      <trkpt lat="0" lon="0">
        <time>2020-12-20T08:49:49.450000+00:00</time>
      </trkpt>
      <trkpt lat="0" lon="0">
        <time>2020-12-20T08:49:49.455000+00:00</time>
      </trkpt>
      <trkpt lat="0" lon="0">
        <time>2020-12-20T08:49:49.457000+00:00</time>
      </trkpt>
      <trkpt lat="47.32891" lon="-1.29285">
        <ele>101</ele>
        <time>2020-12-20T08:49:50.424000+00:00</time>
      </trkpt>
      <trkpt lat="0" lon="0">
        <time>2020-12-20T08:49:50.433000+00:00</time>
      </trkpt>
      <trkpt lat="0" lon="0">
        <time>2020-12-20T08:49:50.437000+00:00</time>
      </trkpt>
      <trkpt lat="0" lon="0">
        <time>2020-12-20T08:49:50.440000+00:00</time>
      </trkpt>
      <trkpt lat="47.32888" lon="-1.29283">
        <ele>101</ele>
        <time>2020-12-20T08:49:51.469000+00:00</time>
      </trkpt>
      <trkpt lat="0" lon="0">
        <time>2020-12-20T08:49:51.479000+00:00</time>
      </trkpt>
      <trkpt lat="0" lon="0">
        <time>2020-12-20T08:49:51.488000+00:00</time>
      </trkpt>
      <trkpt lat="0" lon="0">
        <time>2020-12-20T08:49:51.494000+00:00</time>
      </trkpt>
      <trkpt lat="47.32886" lon="-1.29281">
        <ele>100</ele>
        <time>2020-12-20T08:49:52.459000+00:00</time>
      </trkpt>
      <trkpt lat="0" lon="0">
        <time>2020-12-20T08:49:52.468000+00:00</time>
      </trkpt>
      <trkpt lat="0" lon="0">
        <time>2020-12-20T08:49:52.472000+00:00</time>
      </trkpt>
      <trkpt lat="0" lon="0">
        <time>2020-12-20T08:49:52.475000+00:00</time>
      </trkpt>
      <trkpt lat="47.32883" lon="-1.29279">
        <ele>100</ele>
        <time>2020-12-20T08:49:53.458000+00:00</time>
      </trkpt>
      <trkpt lat="0" lon="0">
        <time>2020-12-20T08:49:53.470000+00:00</time>
      </trkpt>
      <trkpt lat="0" lon="0">
        <time>2020-12-20T08:49:53.474000+00:00</time>
      </trkpt>
      <trkpt lat="0" lon="0">
        <time>2020-12-20T08:49:53.476000+00:00</time>
      </trkpt>
      <trkpt lat="47.3288" lon="-1.29277">
        <ele>100</ele>
        <time>2020-12-20T08:49:54.475000+00:00</time>
      </trkpt>
      <trkpt lat="0" lon="0">
        <time>2020-12-20T08:49:54.483000+00:00</time>
      </trkpt>
      <trkpt lat="0" lon="0">
        <time>2020-12-20T08:49:54.493000+00:00</time>
      </trkpt>
      <trkpt lat="0" lon="0">
        <time>2020-12-20T08:49:54.500000+00:00</time>
      </trkpt>
      <trkpt lat="47.32878" lon="-1.29275">
        <ele>101</ele>
        <time>2020-12-20T08:49:55.476000+00:00</time>
      </trkpt>
      <trkpt lat="0" lon="0">
        <time>2020-12-20T08:49:55.497000+00:00</time>
      </trkpt>
      <trkpt lat="0" lon="0">
        <time>2020-12-20T08:49:55.506000+00:00</time>
      </trkpt>
      <trkpt lat="0" lon="0">
        <time>2020-12-20T08:49:55.512000+00:00</time>
      </trkpt>
      <trkpt lat="47.32875" lon="-1.29273">
        <ele>101</ele>
        <time>2020-12-20T08:49:56.434000+00:00</time>
      </trkpt>
      <trkpt lat="0" lon="0">
        <time>2020-12-20T08:49:56.447000+00:00</time>
      </trkpt>
      <trkpt lat="0" lon="0">
        <time>2020-12-20T08:49:56.452000+00:00</time>
      </trkpt>
      <trkpt lat="0" lon="0">
        <time>2020-12-20T08:49:56.454000+00:00</time>
      </trkpt>
      <trkpt lat="47.32872" lon="-1.29271">
        <ele>101</ele>
        <time>2020-12-20T08:49:57.464000+00:00</time>
      </trkpt>
      <trkpt lat="0" lon="0">
        <time>2020-12-20T08:49:57.474000+00:00</time>
      </trkpt>
      <trkpt lat="0" lon="0">
        <time>2020-12-20T08:49:57.483000+00:00</time>
      </trkpt>
      <trkpt lat="0" lon="0">
        <time>2020-12-20T08:49:57.485000+00:00</time>
      </trkpt>
      <trkpt lat="47.3287" lon="-1.29269">
        <ele>100</ele>
        <time>2020-12-20T08:49:58.451000+00:00</time>
      </trkpt>
      <trkpt lat="0" lon="0">
        <time>2020-12-20T08:49:58.460000+00:00</time>
      </trkpt>
      <trkpt lat="0" lon="0">
        <time>2020-12-20T08:49:58.465000+00:00</time>
      </trkpt>
      <trkpt lat="0" lon="0">
        <time>2020-12-20T08:49:58.468000+00:00</time>
      </trkpt>
      <trkpt lat="47.32867" lon="-1.29267">
        <ele>100</ele>
        <time>2020-12-20T08:49:59.472000+00:00</time>
      </trkpt>
      <trkpt lat="0" lon="0">
        <time>2020-12-20T08:49:59.494000+00:00</time>
      </trkpt>
      <trkpt lat="0" lon="0">
        <time>2020-12-20T08:49:59.498000+00:00</time>
      </trkpt>
      <trkpt lat="0" lon="0">
        <time>2020-12-20T08:49:59.500000+00:00</time>
      </trkpt>
      <trkpt lat="47.32865" lon="-1.29264">
        <ele>100</ele>
        <time>2020-12-20T08:50:00.479000+00:00</time>
      </trkpt>
      <trkpt lat="0" lon="0">
        <time>2020-12-20T08:50:00.488000+00:00</time>
      </trkpt>
      <trkpt lat="0" lon="0">
        <time>2020-12-20T08:50:00.492000+00:00</time>
      </trkpt>
      <trkpt lat="0" lon="0">
        <time>2020-12-20T08:50:00.494000+00:00</time>
      </trkpt>
      <trkpt lat="47.32863" lon="-1.29262">
        <ele>100</ele>
        <time>2020-12-20T08:50:01.466000+00:00</time>
      </trkpt>
      <trkpt lat="0" lon="0">
        <time>2020-12-20T08:50:01.485000+00:00</time>
      </trkpt>
      <trkpt lat="0" lon="0">
        <time>2020-12-20T08:50:01.492000+00:00</time>
      </trkpt>
      <trkpt lat="0" lon="0">
        <time>2020-12-20T08:50:01.494000+00:00</time>
      </trkpt>
      <trkpt lat="47.32861" lon="-1.2926">
        <ele>100</ele>
        <time>2020-12-20T08:50:02.454000+00:00</time>
      </trkpt>
      <trkpt lat="0" lon="0">
        <time>2020-12-20T08:50:02.472000+00:00</time>
      </trkpt>
      <trkpt lat="0" lon="0">
        <time>2020-12-20T08:50:02.479000+00:00</time>
      </trkpt>
      <trkpt lat="0" lon="0">
        <time>2020-12-20T08:50:02.481000+00:00</time>
      </trkpt>
      <trkpt lat="47.32859" lon="-1.29257">
        <ele>100</ele>
        <time>2020-12-20T08:50:03.459000+00:00</time>
      </trkpt>
      <trkpt lat="0" lon="0">
        <time>2020-12-20T08:50:03.476000+00:00</time>
      </trkpt>
      <trkpt lat="0" lon="0">
        <time>2020-12-20T08:50:03.486000+00:00</time>
      </trkpt>
      <trkpt lat="0" lon="0">
        <time>2020-12-20T08:50:03.495000+00:00</time>
      </trkpt>
      <trkpt lat="47.32858" lon="-1.29254">
        <ele>100</ele>
        <time>2020-12-20T08:50:04.446000+00:00</time>
      </trkpt>
      <trkpt lat="0" lon="0">
        <time>2020-12-20T08:50:04.461000+00:00</time>
      </trkpt>
      <trkpt lat="0" lon="0">
        <time>2020-12-20T08:50:04.472000+00:00</time>
      </trkpt>
      <trkpt lat="0" lon="0">
        <time>2020-12-20T08:50:04.474000+00:00</time>
      </trkpt>
      <trkpt lat="47.32858" lon="-1.29252">
        <ele>100</ele>
        <time>2020-12-20T08:50:05.463000+00:00</time>
      </trkpt>
      <trkpt lat="0" lon="0">
        <time>2020-12-20T08:50:05.482000+00:00</time>
      </trkpt>
      <trkpt lat="0" lon="0">
        <time>2020-12-20T08:50:05.487000+00:00</time>
      </trkpt>
      <trkpt lat="0" lon="0">
        <time>2020-12-20T08:50:05.492000+00:00</time>
      </trkpt>
      <trkpt lat="47.32858" lon="-1.29249">
        <ele>101</ele>
        <time>2020-12-20T08:50:06.465000+00:00</time>
      </trkpt>
      <trkpt lat="0" lon="0">
        <time>2020-12-20T08:50:06.479000+00:00</time>
      </trkpt>
      <trkpt lat="0" lon="0">
        <time>2020-12-20T08:50:06.484000+00:00</time>
      </trkpt>
      <trkpt lat="0" lon="0">
        <time>2020-12-20T08:50:06.485000+00:00</time>
      </trkpt>
      <trkpt lat="47.32858" lon="-1.29246">
        <ele>101</ele>
        <time>2020-12-20T08:50:07.468000+00:00</time>
      </trkpt>
      <trkpt lat="0" lon="0">
        <time>2020-12-20T08:50:07.482000+00:00</time>
      </trkpt>
      <trkpt lat="0" lon="0">
        <time>2020-12-20T08:50:07.493000+00:00</time>
      </trkpt>
      <trkpt lat="0" lon="0">
        <time>2020-12-20T08:50:07.501000+00:00</time>
      </trkpt>
      <trkpt lat="47.32859" lon="-1.29244">
        <ele>101</ele>
        <time>2020-12-20T08:50:08.463000+00:00</time>
      </trkpt>
      <trkpt lat="0" lon="0">
        <time>2020-12-20T08:50:08.484000+00:00</time>
      </trkpt>
      <trkpt lat="0" lon="0">
        <time>2020-12-20T08:50:08.491000+00:00</time>
      </trkpt>
      <trkpt lat="0" lon="0">
        <time>2020-12-20T08:50:08.494000+00:00</time>
      </trkpt>
      <trkpt lat="47.32859" lon="-1.29241">
        <ele>101</ele>
        <time>2020-12-20T08:50:09.479000+00:00</time>
      </trkpt>
      <trkpt lat="0" lon="0">
        <time>2020-12-20T08:50:09.487000+00:00</time>
      </trkpt>
      <trkpt lat="0" lon="0">
        <time>2020-12-20T08:50:09.499000+00:00</time>
      </trkpt>
      <trkpt lat="0" lon="0">
        <time>2020-12-20T08:50:09.502000+00:00</time>
      </trkpt>
      <trkpt lat="47.32861" lon="-1.29238">
        <ele>101</ele>
        <time>2020-12-20T08:50:10.389000+00:00</time>
      </trkpt>
      <trkpt lat="0" lon="0">
        <time>2020-12-20T08:50:10.390000+00:00</time>
      </trkpt>
      <trkpt lat="0" lon="0">
        <time>2020-12-20T08:50:10.391000+00:00</time>
      </trkpt>
      <trkpt lat="47.32862" lon="-1.29235">
        <ele>101</ele>
        <time>2020-12-20T08:50:11.456000+00:00</time>
      </trkpt>
      <trkpt lat="0" lon="0">
        <time>2020-12-20T08:50:11.465000+00:00</time>
      </trkpt>
      <trkpt lat="0" lon="0">
        <time>2020-12-20T08:50:11.479000+00:00</time>
      </trkpt>
      <trkpt lat="0" lon="0">
        <time>2020-12-20T08:50:11.482000+00:00</time>
      </trkpt>
      <trkpt lat="47.32863" lon="-1.29233">
        <ele>101</ele>
        <time>2020-12-20T08:50:12.501000+00:00</time>
      </trkpt>
      <trkpt lat="0" lon="0">
        <time>2020-12-20T08:50:12.518000+00:00</time>
      </trkpt>
      <trkpt lat="0" lon="0">
        <time>2020-12-20T08:50:12.528000+00:00</time>
      </trkpt>
      <trkpt lat="0" lon="0">
        <time>2020-12-20T08:50:12.530000+00:00</time>
      </trkpt>
      <trkpt lat="47.32865" lon="-1.2923">
        <ele>101</ele>
        <time>2020-12-20T08:50:13.449000+00:00</time>
      </trkpt>
      <trkpt lat="0" lon="0">
        <time>2020-12-20T08:50:13.457000+00:00</time>
      </trkpt>
      <trkpt lat="0" lon="0">
        <time>2020-12-20T08:50:13.462000+00:00</time>
      </trkpt>
      <trkpt lat="0" lon="0">
        <time>2020-12-20T08:50:13.469000+00:00</time>
      </trkpt>
      <trkpt lat="47.32866" lon="-1.29227">
        <ele>101</ele>
        <time>2020-12-20T08:50:14.472000+00:00</time>
      </trkpt>
      <trkpt lat="0" lon="0">
        <time>2020-12-20T08:50:14.488000+00:00</time>
      </trkpt>
      <trkpt lat="0" lon="0">
        <time>2020-12-20T08:50:14.495000+00:00</time>
      </trkpt>
      <trkpt lat="0" lon="0">
        <time>2020-12-20T08:50:14.498000+00:00</time>
      </trkpt>
      <trkpt lat="47.32868" lon="-1.29223">
        <ele>102</ele>
        <time>2020-12-20T08:50:15.488000+00:00</time>
      </trkpt>
      <trkpt lat="0" lon="0">
        <time>2020-12-20T08:50:15.501000+00:00</time>
      </trkpt>
      <trkpt lat="0" lon="0">
        <time>2020-12-20T08:50:15.506000+00:00</time>
      </trkpt>
      <trkpt lat="0" lon="0">
        <time>2020-12-20T08:50:15.508000+00:00</time>
      </trkpt>
      <trkpt lat="47.32869" lon="-1.2922">
        <ele>102</ele>
        <time>2020-12-20T08:50:16.430000+00:00</time>
      </trkpt>
      <trkpt lat="0" lon="0">
        <time>2020-12-20T08:50:16.439000+00:00</time>
      </trkpt>
      <trkpt lat="0" lon="0">
        <time>2020-12-20T08:50:16.452000+00:00</time>
      </trkpt>
      <trkpt lat="0" lon="0">
        <time>2020-12-20T08:50:16.456000+00:00</time>
      </trkpt>
      <trkpt lat="47.32871" lon="-1.29217">
        <ele>102</ele>
        <time>2020-12-20T08:50:17.444000+00:00</time>
      </trkpt>
      <trkpt lat="0" lon="0">
        <time>2020-12-20T08:50:17.454000+00:00</time>
      </trkpt>
      <trkpt lat="0" lon="0">
        <time>2020-12-20T08:50:17.464000+00:00</time>
      </trkpt>
      <trkpt lat="0" lon="0">
        <time>2020-12-20T08:50:17.470000+00:00</time>
      </trkpt>
      <trkpt lat="47.32873" lon="-1.29213">
        <ele>103</ele>
        <time>2020-12-20T08:50:18.472000+00:00</time>
      </trkpt>
      <trkpt lat="0" lon="0">
        <time>2020-12-20T08:50:18.480000+00:00</time>
      </trkpt>
      <trkpt lat="0" lon="0">
        <time>2020-12-20T08:50:18.489000+00:00</time>
      </trkpt>
      <trkpt lat="0" lon="0">
        <time>2020-12-20T08:50:18.492000+00:00</time>
      </trkpt>
      <trkpt lat="47.32875" lon="-1.2921">
        <ele>103</ele>
        <time>2020-12-20T08:50:19.480000+00:00</time>
      </trkpt>
      <trkpt lat="0" lon="0">
        <time>2020-12-20T08:50:19.488000+00:00</time>
      </trkpt>
      <trkpt lat="0" lon="0">
        <time>2020-12-20T08:50:19.499000+00:00</time>
      </trkpt>
      <trkpt lat="0" lon="0">
        <time>2020-12-20T08:50:19.501000+00:00</time>
      </trkpt>
      <trkpt lat="47.32876" lon="-1.29207">
        <ele>103</ele>
        <time>2020-12-20T08:50:20.473000+00:00</time>
      </trkpt>
      <trkpt lat="0" lon="0">
        <time>2020-12-20T08:50:20.482000+00:00</time>
      </trkpt>
      <trkpt lat="0" lon="0">
        <time>2020-12-20T08:50:20.486000+00:00</time>
      </trkpt>
      <trkpt lat="0" lon="0">
        <time>2020-12-20T08:50:20.488000+00:00</time>
      </trkpt>
      <trkpt lat="47.32878" lon="-1.29203">
        <ele>103</ele>
        <time>2020-12-20T08:50:21.464000+00:00</time>
      </trkpt>
      <trkpt lat="0" lon="0">
        <time>2020-12-20T08:50:21.469000+00:00</time>
      </trkpt>
      <trkpt lat="0" lon="0">
        <time>2020-12-20T08:50:21.473000+00:00</time>
      </trkpt>
      <trkpt lat="0" lon="0">
        <time>2020-12-20T08:50:21.475000+00:00</time>
      </trkpt>
      <trkpt lat="47.3288" lon="-1.292">
        <ele>102</ele>
        <time>2020-12-20T08:50:22.448000+00:00</time>
      </trkpt>
      <trkpt lat="0" lon="0">
        <time>2020-12-20T08:50:22.459000+00:00</time>
      </trkpt>
      <trkpt lat="0" lon="0">
        <time>2020-12-20T08:50:22.465000+00:00</time>
      </trkpt>
      <trkpt lat="0" lon="0">
        <time>2020-12-20T08:50:22.470000+00:00</time>
      </trkpt>
      <trkpt lat="47.32882" lon="-1.29197">
        <ele>102</ele>
        <time>2020-12-20T08:50:23.469000+00:00</time>
      </trkpt>
      <trkpt lat="0" lon="0">
        <time>2020-12-20T08:50:23.482000+00:00</time>
      </trkpt>
      <trkpt lat="0" lon="0">
        <time>2020-12-20T08:50:23.486000+00:00</time>
      </trkpt>
      <trkpt lat="0" lon="0">
        <time>2020-12-20T08:50:23.488000+00:00</time>
      </trkpt>
      <trkpt lat="47.32885" lon="-1.29194">
        <ele>102</ele>
        <time>2020-12-20T08:50:24.465000+00:00</time>
      </trkpt>
      <trkpt lat="0" lon="0">
        <time>2020-12-20T08:50:24.470000+00:00</time>
      </trkpt>
      <trkpt lat="0" lon="0">
        <time>2020-12-20T08:50:24.475000+00:00</time>
      </trkpt>
      <trkpt lat="0" lon="0">
        <time>2020-12-20T08:50:24.478000+00:00</time>
      </trkpt>
      <trkpt lat="47.32887" lon="-1.2919">
        <ele>102</ele>
        <time>2020-12-20T08:50:25.469000+00:00</time>
      </trkpt>
      <trkpt lat="0" lon="0">
        <time>2020-12-20T08:50:25.478000+00:00</time>
      </trkpt>
      <trkpt lat="0" lon="0">
        <time>2020-12-20T08:50:25.487000+00:00</time>
      </trkpt>
      <trkpt lat="0" lon="0">
        <time>2020-12-20T08:50:25.492000+00:00</time>
      </trkpt>
      <trkpt lat="47.32889" lon="-1.29187">
        <ele>102</ele>
        <time>2020-12-20T08:50:26.476000+00:00</time>
      </trkpt>
      <trkpt lat="0" lon="0">
        <time>2020-12-20T08:50:26.494000+00:00</time>
      </trkpt>
      <trkpt lat="0" lon="0">
        <time>2020-12-20T08:50:26.498000+00:00</time>
      </trkpt>
      <trkpt lat="0" lon="0">
        <time>2020-12-20T08:50:26.503000+00:00</time>
      </trkpt>
      <trkpt lat="47.32891" lon="-1.29185">
        <ele>102</ele>
        <time>2020-12-20T08:50:27.488000+00:00</time>
      </trkpt>
      <trkpt lat="0" lon="0">
        <time>2020-12-20T08:50:27.496000+00:00</time>
      </trkpt>
      <trkpt lat="0" lon="0">
        <time>2020-12-20T08:50:27.498000+00:00</time>
      </trkpt>
      <trkpt lat="0" lon="0">
        <time>2020-12-20T08:50:27.499000+00:00</time>
      </trkpt>
      <trkpt lat="47.32893" lon="-1.29182">
        <ele>102</ele>
        <time>2020-12-20T08:50:28.463000+00:00</time>
      </trkpt>
      <trkpt lat="0" lon="0">
        <time>2020-12-20T08:50:28.468000+00:00</time>
      </trkpt>
      <trkpt lat="0" lon="0">
        <time>2020-12-20T08:50:28.476000+00:00</time>
      </trkpt>
      <trkpt lat="0" lon="0">
        <time>2020-12-20T08:50:28.478000+00:00</time>
      </trkpt>
      <trkpt lat="47.32895" lon="-1.29179">
        <ele>101</ele>
        <time>2020-12-20T08:50:29.453000+00:00</time>
      </trkpt>
      <trkpt lat="0" lon="0">
        <time>2020-12-20T08:50:29.464000+00:00</time>
      </trkpt>
      <trkpt lat="0" lon="0">
        <time>2020-12-20T08:50:29.477000+00:00</time>
      </trkpt>
      <trkpt lat="0" lon="0">
        <time>2020-12-20T08:50:29.482000+00:00</time>
      </trkpt>
      <trkpt lat="47.32897" lon="-1.29176">
        <ele>101</ele>
        <time>2020-12-20T08:50:30.456000+00:00</time>
      </trkpt>
      <trkpt lat="0" lon="0">
        <time>2020-12-20T08:50:30.474000+00:00</time>
      </trkpt>
      <trkpt lat="0" lon="0">
        <time>2020-12-20T08:50:30.484000+00:00</time>
      </trkpt>
      <trkpt lat="0" lon="0">
        <time>2020-12-20T08:50:30.490000+00:00</time>
      </trkpt>
      <trkpt lat="47.329" lon="-1.29173">
        <ele>101</ele>
        <time>2020-12-20T08:50:31.461000+00:00</time>
      </trkpt>
      <trkpt lat="0" lon="0">
        <time>2020-12-20T08:50:31.471000+00:00</time>
      </trkpt>
      <trkpt lat="0" lon="0">
        <time>2020-12-20T08:50:31.479000+00:00</time>
      </trkpt>
      <trkpt lat="0" lon="0">
        <time>2020-12-20T08:50:31.480000+00:00</time>
      </trkpt>
      <trkpt lat="47.32902" lon="-1.29171">
        <ele>100</ele>
        <time>2020-12-20T08:50:32.430000+00:00</time>
      </trkpt>
      <trkpt lat="0" lon="0">
        <time>2020-12-20T08:50:32.436000+00:00</time>
      </trkpt>
      <trkpt lat="0" lon="0">
        <time>2020-12-20T08:50:32.443000+00:00</time>
      </trkpt>
      <trkpt lat="0" lon="0">
        <time>2020-12-20T08:50:32.447000+00:00</time>
      </trkpt>
      <trkpt lat="47.32904" lon="-1.29168">
        <ele>100</ele>
        <time>2020-12-20T08:50:33.477000+00:00</time>
      </trkpt>
      <trkpt lat="0" lon="0">
        <time>2020-12-20T08:50:33.497000+00:00</time>
      </trkpt>
      <trkpt lat="0" lon="0">
        <time>2020-12-20T08:50:33.505000+00:00</time>
      </trkpt>
      <trkpt lat="0" lon="0">
        <time>2020-12-20T08:50:33.511000+00:00</time>
      </trkpt>
      <trkpt lat="47.32906" lon="-1.29165">
        <ele>101</ele>
        <time>2020-12-20T08:50:34.447000+00:00</time>
      </trkpt>
      <trkpt lat="0" lon="0">
        <time>2020-12-20T08:50:34.456000+00:00</time>
      </trkpt>
      <trkpt lat="0" lon="0">
        <time>2020-12-20T08:50:34.462000+00:00</time>
      </trkpt>
      <trkpt lat="0" lon="0">
        <time>2020-12-20T08:50:34.466000+00:00</time>
      </trkpt>
      <trkpt lat="47.32907" lon="-1.29163">
        <ele>101</ele>
        <time>2020-12-20T08:50:35.514000+00:00</time>
      </trkpt>
      <trkpt lat="0" lon="0">
        <time>2020-12-20T08:50:35.537000+00:00</time>
      </trkpt>
      <trkpt lat="0" lon="0">
        <time>2020-12-20T08:50:35.546000+00:00</time>
      </trkpt>
      <trkpt lat="0" lon="0">
        <time>2020-12-20T08:50:35.548000+00:00</time>
      </trkpt>
      <trkpt lat="47.32909" lon="-1.29161">
        <ele>101</ele>
        <time>2020-12-20T08:50:36.422000+00:00</time>
      </trkpt>
      <trkpt lat="0" lon="0">
        <time>2020-12-20T08:50:36.428000+00:00</time>
      </trkpt>
      <trkpt lat="0" lon="0">
        <time>2020-12-20T08:50:36.437000+00:00</time>
      </trkpt>
      <trkpt lat="0" lon="0">
        <time>2020-12-20T08:50:36.439000+00:00</time>
      </trkpt>
      <trkpt lat="47.32911" lon="-1.29158">
        <ele>102</ele>
        <time>2020-12-20T08:50:37.414000+00:00</time>
      </trkpt>
      <trkpt lat="0" lon="0">
        <time>2020-12-20T08:50:37.415000+00:00</time>
      </trkpt>
      <trkpt lat="0" lon="0">
        <time>2020-12-20T08:50:37.416000+00:00</time>
      </trkpt>
      <trkpt lat="0" lon="0">
        <time>2020-12-20T08:50:37.417000+00:00</time>
      </trkpt>
      <trkpt lat="47.32913" lon="-1.29155">
        <ele>102</ele>
        <time>2020-12-20T08:50:38.452000+00:00</time>
      </trkpt>
      <trkpt lat="0" lon="0">
        <time>2020-12-20T08:50:38.463000+00:00</time>
      </trkpt>
      <trkpt lat="0" lon="0">
        <time>2020-12-20T08:50:38.465000+00:00</time>
      </trkpt>
      <trkpt lat="0" lon="0">
        <time>2020-12-20T08:50:38.466000+00:00</time>
      </trkpt>
      <trkpt lat="47.32914" lon="-1.29153">
        <ele>102</ele>
        <time>2020-12-20T08:50:39.474000+00:00</time>
      </trkpt>
      <trkpt lat="0" lon="0">
        <time>2020-12-20T08:50:39.480000+00:00</time>
      </trkpt>
      <trkpt lat="0" lon="0">
        <time>2020-12-20T08:50:39.484000+00:00</time>
      </trkpt>
      <trkpt lat="0" lon="0">
        <time>2020-12-20T08:50:39.487000+00:00</time>
      </trkpt>
      <trkpt lat="47.32916" lon="-1.2915">
        <ele>102</ele>
        <time>2020-12-20T08:50:40.471000+00:00</time>
      </trkpt>
      <trkpt lat="0" lon="0">
        <time>2020-12-20T08:50:40.485000+00:00</time>
      </trkpt>
      <trkpt lat="0" lon="0">
        <time>2020-12-20T08:50:40.495000+00:00</time>
      </trkpt>
      <trkpt lat="0" lon="0">
        <time>2020-12-20T08:50:40.497000+00:00</time>
      </trkpt>
      <trkpt lat="47.32917" lon="-1.29147">
        <ele>102</ele>
        <time>2020-12-20T08:50:41.494000+00:00</time>
      </trkpt>
      <trkpt lat="0" lon="0">
        <time>2020-12-20T08:50:41.516000+00:00</time>
      </trkpt>
      <trkpt lat="0" lon="0">
        <time>2020-12-20T08:50:41.518000+00:00</time>
      </trkpt>
      <trkpt lat="0" lon="0">
        <time>2020-12-20T08:50:41.519000+00:00</time>
      </trkpt>
      <trkpt lat="47.32918" lon="-1.29144">
        <ele>102</ele>
        <time>2020-12-20T08:50:42.479000+00:00</time>
      </trkpt>
      <trkpt lat="0" lon="0">
        <time>2020-12-20T08:50:42.494000+00:00</time>
      </trkpt>
      <trkpt lat="0" lon="0">
        <time>2020-12-20T08:50:42.504000+00:00</time>
      </trkpt>
      <trkpt lat="0" lon="0">
        <time>2020-12-20T08:50:42.507000+00:00</time>
      </trkpt>
      <trkpt lat="47.32918" lon="-1.29141">
        <ele>103</ele>
        <time>2020-12-20T08:50:43.477000+00:00</time>
      </trkpt>
      <trkpt lat="0" lon="0">
        <time>2020-12-20T08:50:43.489000+00:00</time>
      </trkpt>
      <trkpt lat="0" lon="0">
        <time>2020-12-20T08:50:43.492000+00:00</time>
      </trkpt>
      <trkpt lat="0" lon="0">
        <time>2020-12-20T08:50:43.493000+00:00</time>
      </trkpt>
      <trkpt lat="47.32919" lon="-1.29138">
        <ele>103</ele>
        <time>2020-12-20T08:50:44.471000+00:00</time>
      </trkpt>
      <trkpt lat="0" lon="0">
        <time>2020-12-20T08:50:44.478000+00:00</time>
      </trkpt>
      <trkpt lat="0" lon="0">
        <time>2020-12-20T08:50:44.484000+00:00</time>
      </trkpt>
      <trkpt lat="0" lon="0">
        <time>2020-12-20T08:50:44.488000+00:00</time>
      </trkpt>
      <trkpt lat="47.32919" lon="-1.29135">
        <ele>103</ele>
        <time>2020-12-20T08:50:45.481000+00:00</time>
      </trkpt>
      <trkpt lat="0" lon="0">
        <time>2020-12-20T08:50:45.488000+00:00</time>
      </trkpt>
      <trkpt lat="0" lon="0">
        <time>2020-12-20T08:50:45.493000+00:00</time>
      </trkpt>
      <trkpt lat="0" lon="0">
        <time>2020-12-20T08:50:45.495000+00:00</time>
      </trkpt>
      <trkpt lat="47.32919" lon="-1.29131">
        <ele>103</ele>
        <time>2020-12-20T08:50:46.471000+00:00</time>
      </trkpt>
      <trkpt lat="0" lon="0">
        <time>2020-12-20T08:50:46.479000+00:00</time>
      </trkpt>
      <trkpt lat="0" lon="0">
        <time>2020-12-20T08:50:46.487000+00:00</time>
      </trkpt>
      <trkpt lat="0" lon="0">
        <time>2020-12-20T08:50:46.490000+00:00</time>
      </trkpt>
      <trkpt lat="47.32919" lon="-1.29128">
        <ele>104</ele>
        <time>2020-12-20T08:50:47.471000+00:00</time>
      </trkpt>
      <trkpt lat="0" lon="0">
        <time>2020-12-20T08:50:47.493000+00:00</time>
      </trkpt>
      <trkpt lat="0" lon="0">
        <time>2020-12-20T08:50:47.499000+00:00</time>
      </trkpt>
      <trkpt lat="0" lon="0">
        <time>2020-12-20T08:50:47.504000+00:00</time>
      </trkpt>
      <trkpt lat="47.3292" lon="-1.29125">
        <ele>105</ele>
        <time>2020-12-20T08:50:48.468000+00:00</time>
      </trkpt>
      <trkpt lat="0" lon="0">
        <time>2020-12-20T08:50:48.493000+00:00</time>
      </trkpt>
      <trkpt lat="0" lon="0">
        <time>2020-12-20T08:50:48.505000+00:00</time>
      </trkpt>
      <trkpt lat="0" lon="0">
        <time>2020-12-20T08:50:48.508000+00:00</time>
      </trkpt>
      <trkpt lat="47.32919" lon="-1.29122">
        <ele>105</ele>
        <time>2020-12-20T08:50:49.491000+00:00</time>
      </trkpt>
      <trkpt lat="0" lon="0">
        <time>2020-12-20T08:50:49.495000+00:00</time>
      </trkpt>
      <trkpt lat="0" lon="0">
        <time>2020-12-20T08:50:49.497000+00:00</time>
      </trkpt>
      <trkpt lat="0" lon="0">
        <time>2020-12-20T08:50:49.498000+00:00</time>
      </trkpt>
      <trkpt lat="47.32919" lon="-1.29119">
        <ele>105</ele>
        <time>2020-12-20T08:50:50.491000+00:00</time>
      </trkpt>
      <trkpt lat="0" lon="0">
        <time>2020-12-20T08:50:50.498000+00:00</time>
      </trkpt>
      <trkpt lat="0" lon="0">
        <time>2020-12-20T08:50:50.502000+00:00</time>
      </trkpt>
      <trkpt lat="0" lon="0">
        <time>2020-12-20T08:50:50.504000+00:00</time>
      </trkpt>
      <trkpt lat="47.32919" lon="-1.29116">
        <ele>105</ele>
        <time>2020-12-20T08:50:51.464000+00:00</time>
      </trkpt>
      <trkpt lat="0" lon="0">
        <time>2020-12-20T08:50:51.475000+00:00</time>
      </trkpt>
      <trkpt lat="0" lon="0">
        <time>2020-12-20T08:50:51.480000+00:00</time>
      </trkpt>
      <trkpt lat="0" lon="0">
        <time>2020-12-20T08:50:51.486000+00:00</time>
      </trkpt>
      <trkpt lat="47.32919" lon="-1.29113">
        <ele>105</ele>
        <time>2020-12-20T08:50:52.476000+00:00</time>
      </trkpt>
      <trkpt lat="0" lon="0">
        <time>2020-12-20T08:50:52.492000+00:00</time>
      </trkpt>
      <trkpt lat="0" lon="0">
        <time>2020-12-20T08:50:52.495000+00:00</time>
      </trkpt>
      <trkpt lat="0" lon="0">
        <time>2020-12-20T08:50:52.499000+00:00</time>
      </trkpt>
      <trkpt lat="47.32919" lon="-1.2911">
        <ele>105</ele>
        <time>2020-12-20T08:50:53.512000+00:00</time>
      </trkpt>
      <trkpt lat="0" lon="0">
        <time>2020-12-20T08:50:53.525000+00:00</time>
      </trkpt>
      <trkpt lat="0" lon="0">
        <time>2020-12-20T08:50:53.531000+00:00</time>
      </trkpt>
      <trkpt lat="0" lon="0">
        <time>2020-12-20T08:50:53.534000+00:00</time>
      </trkpt>
      <trkpt lat="47.32919" lon="-1.29108">
        <ele>105</ele>
        <time>2020-12-20T08:50:54.488000+00:00</time>
      </trkpt>
      <trkpt lat="0" lon="0">
        <time>2020-12-20T08:50:54.492000+00:00</time>
      </trkpt>
      <trkpt lat="0" lon="0">
        <time>2020-12-20T08:50:54.507000+00:00</time>
      </trkpt>
      <trkpt lat="0" lon="0">
        <time>2020-12-20T08:50:54.510000+00:00</time>
      </trkpt>
      <trkpt lat="47.32919" lon="-1.29105">
        <ele>106</ele>
        <time>2020-12-20T08:50:55.479000+00:00</time>
      </trkpt>
      <trkpt lat="0" lon="0">
        <time>2020-12-20T08:50:55.499000+00:00</time>
      </trkpt>
      <trkpt lat="0" lon="0">
        <time>2020-12-20T08:50:55.508000+00:00</time>
      </trkpt>
      <trkpt lat="0" lon="0">
        <time>2020-12-20T08:50:55.511000+00:00</time>
      </trkpt>
      <trkpt lat="47.32919" lon="-1.29102">
        <ele>106</ele>
        <time>2020-12-20T08:50:56.450000+00:00</time>
      </trkpt>
      <trkpt lat="0" lon="0">
        <time>2020-12-20T08:50:56.468000+00:00</time>
      </trkpt>
      <trkpt lat="0" lon="0">
        <time>2020-12-20T08:50:56.475000+00:00</time>
      </trkpt>
      <trkpt lat="0" lon="0">
        <time>2020-12-20T08:50:56.479000+00:00</time>
      </trkpt>
      <trkpt lat="47.3292" lon="-1.29099">
        <ele>106</ele>
        <time>2020-12-20T08:50:57.486000+00:00</time>
      </trkpt>
      <trkpt lat="0" lon="0">
        <time>2020-12-20T08:50:57.496000+00:00</time>
      </trkpt>
      <trkpt lat="0" lon="0">
        <time>2020-12-20T08:50:57.500000+00:00</time>
      </trkpt>
      <trkpt lat="0" lon="0">
        <time>2020-12-20T08:50:57.502000+00:00</time>
      </trkpt>
      <trkpt lat="47.32921" lon="-1.29097">
        <ele>106</ele>
        <time>2020-12-20T08:50:58.448000+00:00</time>
      </trkpt>
      <trkpt lat="0" lon="0">
        <time>2020-12-20T08:50:58.455000+00:00</time>
      </trkpt>
      <trkpt lat="0" lon="0">
        <time>2020-12-20T08:50:58.459000+00:00</time>
      </trkpt>
      <trkpt lat="0" lon="0">
        <time>2020-12-20T08:50:58.461000+00:00</time>
      </trkpt>
      <trkpt lat="47.32922" lon="-1.29094">
        <ele>106</ele>
        <time>2020-12-20T08:50:59.481000+00:00</time>
      </trkpt>
      <trkpt lat="0" lon="0">
        <time>2020-12-20T08:50:59.506000+00:00</time>
      </trkpt>
      <trkpt lat="0" lon="0">
        <time>2020-12-20T08:50:59.510000+00:00</time>
      </trkpt>
      <trkpt lat="0" lon="0">
        <time>2020-12-20T08:50:59.512000+00:00</time>
      </trkpt>
      <trkpt lat="47.32923" lon="-1.29091">
        <ele>106</ele>
        <time>2020-12-20T08:51:00.455000+00:00</time>
      </trkpt>
      <trkpt lat="0" lon="0">
        <time>2020-12-20T08:51:00.473000+00:00</time>
      </trkpt>
      <trkpt lat="0" lon="0">
        <time>2020-12-20T08:51:00.475000+00:00</time>
      </trkpt>
      <trkpt lat="0" lon="0">
        <time>2020-12-20T08:51:00.477000+00:00</time>
      </trkpt>
      <trkpt lat="47.32924" lon="-1.29089">
        <ele>106</ele>
        <time>2020-12-20T08:51:01.490000+00:00</time>
      </trkpt>
      <trkpt lat="0" lon="0">
        <time>2020-12-20T08:51:01.495000+00:00</time>
      </trkpt>
      <trkpt lat="0" lon="0">
        <time>2020-12-20T08:51:01.499000+00:00</time>
      </trkpt>
      <trkpt lat="0" lon="0">
        <time>2020-12-20T08:51:01.501000+00:00</time>
      </trkpt>
      <trkpt lat="47.32926" lon="-1.29086">
        <ele>106</ele>
        <time>2020-12-20T08:51:02.478000+00:00</time>
      </trkpt>
      <trkpt lat="0" lon="0">
        <time>2020-12-20T08:51:02.487000+00:00</time>
      </trkpt>
      <trkpt lat="0" lon="0">
        <time>2020-12-20T08:51:02.491000+00:00</time>
      </trkpt>
      <trkpt lat="0" lon="0">
        <time>2020-12-20T08:51:02.496000+00:00</time>
      </trkpt>
      <trkpt lat="47.32928" lon="-1.29084">
        <ele>106</ele>
        <time>2020-12-20T08:51:03.436000+00:00</time>
      </trkpt>
      <trkpt lat="0" lon="0">
        <time>2020-12-20T08:51:03.447000+00:00</time>
      </trkpt>
      <trkpt lat="0" lon="0">
        <time>2020-12-20T08:51:03.451000+00:00</time>
      </trkpt>
      <trkpt lat="0" lon="0">
        <time>2020-12-20T08:51:03.453000+00:00</time>
      </trkpt>
      <trkpt lat="47.3293" lon="-1.29081">
        <ele>106</ele>
        <time>2020-12-20T08:51:04.479000+00:00</time>
      </trkpt>
      <trkpt lat="0" lon="0">
        <time>2020-12-20T08:51:04.486000+00:00</time>
      </trkpt>
      <trkpt lat="0" lon="0">
        <time>2020-12-20T08:51:04.499000+00:00</time>
      </trkpt>
      <trkpt lat="0" lon="0">
        <time>2020-12-20T08:51:04.503000+00:00</time>
      </trkpt>
      <trkpt lat="47.32931" lon="-1.29079">
        <ele>106</ele>
        <time>2020-12-20T08:51:05.448000+00:00</time>
      </trkpt>
      <trkpt lat="0" lon="0">
        <time>2020-12-20T08:51:05.460000+00:00</time>
      </trkpt>
      <trkpt lat="0" lon="0">
        <time>2020-12-20T08:51:05.464000+00:00</time>
      </trkpt>
      <trkpt lat="0" lon="0">
        <time>2020-12-20T08:51:05.467000+00:00</time>
      </trkpt>
      <trkpt lat="47.32933" lon="-1.29076">
        <ele>105</ele>
        <time>2020-12-20T08:51:06.473000+00:00</time>
      </trkpt>
      <trkpt lat="0" lon="0">
        <time>2020-12-20T08:51:06.492000+00:00</time>
      </trkpt>
      <trkpt lat="0" lon="0">
        <time>2020-12-20T08:51:06.500000+00:00</time>
      </trkpt>
      <trkpt lat="0" lon="0">
        <time>2020-12-20T08:51:06.503000+00:00</time>
      </trkpt>
      <trkpt lat="47.32935" lon="-1.29073">
        <ele>105</ele>
        <time>2020-12-20T08:51:07.468000+00:00</time>
      </trkpt>
      <trkpt lat="0" lon="0">
        <time>2020-12-20T08:51:07.482000+00:00</time>
      </trkpt>
      <trkpt lat="0" lon="0">
        <time>2020-12-20T08:51:07.488000+00:00</time>
      </trkpt>
      <trkpt lat="0" lon="0">
        <time>2020-12-20T08:51:07.491000+00:00</time>
      </trkpt>
      <trkpt lat="47.32937" lon="-1.2907">
        <ele>105</ele>
        <time>2020-12-20T08:51:08.461000+00:00</time>
      </trkpt>
      <trkpt lat="0" lon="0">
        <time>2020-12-20T08:51:08.470000+00:00</time>
      </trkpt>
      <trkpt lat="0" lon="0">
        <time>2020-12-20T08:51:08.483000+00:00</time>
      </trkpt>
      <trkpt lat="0" lon="0">
        <time>2020-12-20T08:51:08.487000+00:00</time>
      </trkpt>
      <trkpt lat="47.32939" lon="-1.29067">
        <ele>105</ele>
        <time>2020-12-20T08:51:09.463000+00:00</time>
      </trkpt>
      <trkpt lat="0" lon="0">
        <time>2020-12-20T08:51:09.481000+00:00</time>
      </trkpt>
      <trkpt lat="0" lon="0">
        <time>2020-12-20T08:51:09.486000+00:00</time>
      </trkpt>
      <trkpt lat="0" lon="0">
        <time>2020-12-20T08:51:09.489000+00:00</time>
      </trkpt>
      <trkpt lat="47.32941" lon="-1.29065">
        <ele>105</ele>
        <time>2020-12-20T08:51:10.461000+00:00</time>
      </trkpt>
      <trkpt lat="0" lon="0">
        <time>2020-12-20T08:51:10.481000+00:00</time>
      </trkpt>
      <trkpt lat="0" lon="0">
        <time>2020-12-20T08:51:10.485000+00:00</time>
      </trkpt>
      <trkpt lat="0" lon="0">
        <time>2020-12-20T08:51:10.487000+00:00</time>
      </trkpt>
      <trkpt lat="47.32943" lon="-1.29062">
        <ele>105</ele>
        <time>2020-12-20T08:51:11.431000+00:00</time>
      </trkpt>
      <trkpt lat="0" lon="0">
        <time>2020-12-20T08:51:11.435000+00:00</time>
      </trkpt>
      <trkpt lat="0" lon="0">
        <time>2020-12-20T08:51:11.437000+00:00</time>
      </trkpt>
      <trkpt lat="0" lon="0">
        <time>2020-12-20T08:51:11.438000+00:00</time>
      </trkpt>
      <trkpt lat="47.32945" lon="-1.29059">
        <ele>105</ele>
        <time>2020-12-20T08:51:12.462000+00:00</time>
      </trkpt>
      <trkpt lat="0" lon="0">
        <time>2020-12-20T08:51:12.471000+00:00</time>
      </trkpt>
      <trkpt lat="0" lon="0">
        <time>2020-12-20T08:51:12.477000+00:00</time>
      </trkpt>
      <trkpt lat="0" lon="0">
        <time>2020-12-20T08:51:12.480000+00:00</time>
      </trkpt>
      <trkpt lat="47.32947" lon="-1.29056">
        <ele>105</ele>
        <time>2020-12-20T08:51:13.447000+00:00</time>
      </trkpt>
      <trkpt lat="0" lon="0">
        <time>2020-12-20T08:51:13.452000+00:00</time>
      </trkpt>
      <trkpt lat="0" lon="0">
        <time>2020-12-20T08:51:13.457000+00:00</time>
      </trkpt>
      <trkpt lat="0" lon="0">
        <time>2020-12-20T08:51:13.467000+00:00</time>
      </trkpt>
      <trkpt lat="47.32949" lon="-1.29053">
        <ele>105</ele>
        <time>2020-12-20T08:51:14.454000+00:00</time>
      </trkpt>
      <trkpt lat="0" lon="0">
        <time>2020-12-20T08:51:14.470000+00:00</time>
      </trkpt>
      <trkpt lat="0" lon="0">
        <time>2020-12-20T08:51:14.474000+00:00</time>
      </trkpt>
      <trkpt lat="0" lon="0">
        <time>2020-12-20T08:51:14.477000+00:00</time>
      </trkpt>
      <trkpt lat="47.32952" lon="-1.2905">
        <ele>105</ele>
        <time>2020-12-20T08:51:15.434000+00:00</time>
      </trkpt>
      <trkpt lat="0" lon="0">
        <time>2020-12-20T08:51:15.439000+00:00</time>
      </trkpt>
      <trkpt lat="0" lon="0">
        <time>2020-12-20T08:51:15.448000+00:00</time>
      </trkpt>
      <trkpt lat="0" lon="0">
        <time>2020-12-20T08:51:15.450000+00:00</time>
      </trkpt>
      <trkpt lat="47.32954" lon="-1.29048">
        <ele>105</ele>
        <time>2020-12-20T08:51:16.430000+00:00</time>
      </trkpt>
      <trkpt lat="0" lon="0">
        <time>2020-12-20T08:51:16.437000+00:00</time>
      </trkpt>
      <trkpt lat="0" lon="0">
        <time>2020-12-20T08:51:16.438000+00:00</time>
      </trkpt>
      <trkpt lat="0" lon="0">
        <time>2020-12-20T08:51:16.439000+00:00</time>
      </trkpt>
      <trkpt lat="47.32957" lon="-1.29047">
        <ele>105</ele>
        <time>2020-12-20T08:51:17.424000+00:00</time>
      </trkpt>
      <trkpt lat="0" lon="0">
        <time>2020-12-20T08:51:17.439000+00:00</time>
      </trkpt>
      <trkpt lat="0" lon="0">
        <time>2020-12-20T08:51:17.445000+00:00</time>
      </trkpt>
      <trkpt lat="0" lon="0">
        <time>2020-12-20T08:51:17.448000+00:00</time>
      </trkpt>
      <trkpt lat="47.3296" lon="-1.29047">
        <ele>104</ele>
        <time>2020-12-20T08:51:18.453000+00:00</time>
      </trkpt>
      <trkpt lat="0" lon="0">
        <time>2020-12-20T08:51:18.462000+00:00</time>
      </trkpt>
      <trkpt lat="0" lon="0">
        <time>2020-12-20T08:51:18.467000+00:00</time>
      </trkpt>
      <trkpt lat="0" lon="0">
        <time>2020-12-20T08:51:18.469000+00:00</time>
      </trkpt>
      <trkpt lat="47.32963" lon="-1.29049">
        <ele>104</ele>
        <time>2020-12-20T08:51:19.460000+00:00</time>
      </trkpt>
      <trkpt lat="0" lon="0">
        <time>2020-12-20T08:51:19.468000+00:00</time>
      </trkpt>
      <trkpt lat="0" lon="0">
        <time>2020-12-20T08:51:19.472000+00:00</time>
      </trkpt>
      <trkpt lat="0" lon="0">
        <time>2020-12-20T08:51:19.475000+00:00</time>
      </trkpt>
      <trkpt lat="47.32966" lon="-1.29051">
        <ele>103</ele>
        <time>2020-12-20T08:51:20.476000+00:00</time>
      </trkpt>
      <trkpt lat="0" lon="0">
        <time>2020-12-20T08:51:20.481000+00:00</time>
      </trkpt>
      <trkpt lat="0" lon="0">
        <time>2020-12-20T08:51:20.498000+00:00</time>
      </trkpt>
      <trkpt lat="0" lon="0">
        <time>2020-12-20T08:51:20.500000+00:00</time>
      </trkpt>
      <trkpt lat="47.32969" lon="-1.29053">
        <ele>103</ele>
        <time>2020-12-20T08:51:21.457000+00:00</time>
      </trkpt>
      <trkpt lat="0" lon="0">
        <time>2020-12-20T08:51:21.471000+00:00</time>
      </trkpt>
      <trkpt lat="0" lon="0">
        <time>2020-12-20T08:51:21.475000+00:00</time>
      </trkpt>
      <trkpt lat="0" lon="0">
        <time>2020-12-20T08:51:21.478000+00:00</time>
      </trkpt>
      <trkpt lat="47.32973" lon="-1.29057">
        <ele>103</ele>
        <time>2020-12-20T08:51:22.453000+00:00</time>
      </trkpt>
      <trkpt lat="0" lon="0">
        <time>2020-12-20T08:51:22.455000+00:00</time>
      </trkpt>
      <trkpt lat="0" lon="0">
        <time>2020-12-20T08:51:22.458000+00:00</time>
      </trkpt>
      <trkpt lat="0" lon="0">
        <time>2020-12-20T08:51:22.459000+00:00</time>
      </trkpt>
      <trkpt lat="47.32977" lon="-1.29062">
        <ele>104</ele>
        <time>2020-12-20T08:51:23.508000+00:00</time>
      </trkpt>
      <trkpt lat="0" lon="0">
        <time>2020-12-20T08:51:23.519000+00:00</time>
      </trkpt>
      <trkpt lat="0" lon="0">
        <time>2020-12-20T08:51:23.528000+00:00</time>
      </trkpt>
      <trkpt lat="0" lon="0">
        <time>2020-12-20T08:51:23.530000+00:00</time>
      </trkpt>
      <trkpt lat="47.32981" lon="-1.29068">
        <ele>104</ele>
        <time>2020-12-20T08:51:24.478000+00:00</time>
      </trkpt>
      <trkpt lat="0" lon="0">
        <time>2020-12-20T08:51:24.486000+00:00</time>
      </trkpt>
      <trkpt lat="0" lon="0">
        <time>2020-12-20T08:51:24.494000+00:00</time>
      </trkpt>
      <trkpt lat="0" lon="0">
        <time>2020-12-20T08:51:24.497000+00:00</time>
      </trkpt>
      <trkpt lat="47.32986" lon="-1.29075">
        <ele>104</ele>
        <time>2020-12-20T08:51:25.472000+00:00</time>
      </trkpt>
      <trkpt lat="0" lon="0">
        <time>2020-12-20T08:51:25.483000+00:00</time>
      </trkpt>
      <trkpt lat="0" lon="0">
        <time>2020-12-20T08:51:25.487000+00:00</time>
      </trkpt>
      <trkpt lat="0" lon="0">
        <time>2020-12-20T08:51:25.489000+00:00</time>
      </trkpt>
      <trkpt lat="47.32991" lon="-1.29083">
        <ele>104</ele>
        <time>2020-12-20T08:51:26.487000+00:00</time>
      </trkpt>
      <trkpt lat="0" lon="0">
        <time>2020-12-20T08:51:26.497000+00:00</time>
      </trkpt>
      <trkpt lat="0" lon="0">
        <time>2020-12-20T08:51:26.503000+00:00</time>
      </trkpt>
      <trkpt lat="0" lon="0">
        <time>2020-12-20T08:51:26.505000+00:00</time>
      </trkpt>
      <trkpt lat="47.32996" lon="-1.29092">
        <ele>104</ele>
        <time>2020-12-20T08:51:27.466000+00:00</time>
      </trkpt>
      <trkpt lat="0" lon="0">
        <time>2020-12-20T08:51:27.472000+00:00</time>
      </trkpt>
      <trkpt lat="0" lon="0">
        <time>2020-12-20T08:51:27.474000+00:00</time>
      </trkpt>
      <trkpt lat="0" lon="0">
        <time>2020-12-20T08:51:27.475000+00:00</time>
      </trkpt>
      <trkpt lat="47.33002" lon="-1.29102">
        <ele>103</ele>
        <time>2020-12-20T08:51:28.454000+00:00</time>
      </trkpt>
      <trkpt lat="0" lon="0">
        <time>2020-12-20T08:51:28.459000+00:00</time>
      </trkpt>
      <trkpt lat="0" lon="0">
        <time>2020-12-20T08:51:28.463000+00:00</time>
      </trkpt>
      <trkpt lat="0" lon="0">
        <time>2020-12-20T08:51:28.466000+00:00</time>
      </trkpt>
      <trkpt lat="47.33008" lon="-1.29112">
        <ele>102</ele>
        <time>2020-12-20T08:51:29.472000+00:00</time>
      </trkpt>
      <trkpt lat="0" lon="0">
        <time>2020-12-20T08:51:29.483000+00:00</time>
      </trkpt>
      <trkpt lat="0" lon="0">
        <time>2020-12-20T08:51:29.489000+00:00</time>
      </trkpt>
      <trkpt lat="0" lon="0">
        <time>2020-12-20T08:51:29.492000+00:00</time>
      </trkpt>
      <trkpt lat="47.33014" lon="-1.29123">
        <ele>101</ele>
        <time>2020-12-20T08:51:30.503000+00:00</time>
      </trkpt>
      <trkpt lat="0" lon="0">
        <time>2020-12-20T08:51:30.521000+00:00</time>
      </trkpt>
      <trkpt lat="0" lon="0">
        <time>2020-12-20T08:51:30.525000+00:00</time>
      </trkpt>
      <trkpt lat="0" lon="0">
        <time>2020-12-20T08:51:30.528000+00:00</time>
      </trkpt>
      <trkpt lat="47.33021" lon="-1.29134">
        <ele>99</ele>
        <time>2020-12-20T08:51:31.461000+00:00</time>
      </trkpt>
      <trkpt lat="0" lon="0">
        <time>2020-12-20T08:51:31.466000+00:00</time>
      </trkpt>
      <trkpt lat="0" lon="0">
        <time>2020-12-20T08:51:31.471000+00:00</time>
      </trkpt>
      <trkpt lat="0" lon="0">
        <time>2020-12-20T08:51:31.474000+00:00</time>
      </trkpt>
      <trkpt lat="47.33029" lon="-1.29146">
        <ele>97</ele>
        <time>2020-12-20T08:51:32.487000+00:00</time>
      </trkpt>
      <trkpt lat="0" lon="0">
        <time>2020-12-20T08:51:32.503000+00:00</time>
      </trkpt>
      <trkpt lat="0" lon="0">
        <time>2020-12-20T08:51:32.511000+00:00</time>
      </trkpt>
      <trkpt lat="0" lon="0">
        <time>2020-12-20T08:51:32.513000+00:00</time>
      </trkpt>
      <trkpt lat="47.33037" lon="-1.29157">
        <ele>95</ele>
        <time>2020-12-20T08:51:33.442000+00:00</time>
      </trkpt>
      <trkpt lat="0" lon="0">
        <time>2020-12-20T08:51:33.447000+00:00</time>
      </trkpt>
      <trkpt lat="0" lon="0">
        <time>2020-12-20T08:51:33.452000+00:00</time>
      </trkpt>
      <trkpt lat="0" lon="0">
        <time>2020-12-20T08:51:33.454000+00:00</time>
      </trkpt>
      <trkpt lat="47.33046" lon="-1.29169">
        <ele>92</ele>
        <time>2020-12-20T08:51:34.467000+00:00</time>
      </trkpt>
      <trkpt lat="0" lon="0">
        <time>2020-12-20T08:51:34.475000+00:00</time>
      </trkpt>
      <trkpt lat="0" lon="0">
        <time>2020-12-20T08:51:34.480000+00:00</time>
      </trkpt>
      <trkpt lat="0" lon="0">
        <time>2020-12-20T08:51:34.482000+00:00</time>
      </trkpt>
      <trkpt lat="47.33055" lon="-1.2918">
        <ele>91</ele>
        <time>2020-12-20T08:51:35.496000+00:00</time>
      </trkpt>
      <trkpt lat="0" lon="0">
        <time>2020-12-20T08:51:35.505000+00:00</time>
      </trkpt>
      <trkpt lat="0" lon="0">
        <time>2020-12-20T08:51:35.509000+00:00</time>
      </trkpt>
      <trkpt lat="0" lon="0">
        <time>2020-12-20T08:51:35.512000+00:00</time>
      </trkpt>
      <trkpt lat="47.33065" lon="-1.2919">
        <ele>90</ele>
        <time>2020-12-20T08:51:36.467000+00:00</time>
      </trkpt>
      <trkpt lat="0" lon="0">
        <time>2020-12-20T08:51:36.492000+00:00</time>
      </trkpt>
      <trkpt lat="0" lon="0">
        <time>2020-12-20T08:51:36.499000+00:00</time>
      </trkpt>
      <trkpt lat="0" lon="0">
        <time>2020-12-20T08:51:36.501000+00:00</time>
      </trkpt>
      <trkpt lat="47.33074" lon="-1.292">
        <ele>88</ele>
        <time>2020-12-20T08:51:37.458000+00:00</time>
      </trkpt>
      <trkpt lat="0" lon="0">
        <time>2020-12-20T08:51:37.472000+00:00</time>
      </trkpt>
      <trkpt lat="0" lon="0">
        <time>2020-12-20T08:51:37.479000+00:00</time>
      </trkpt>
      <trkpt lat="0" lon="0">
        <time>2020-12-20T08:51:37.481000+00:00</time>
      </trkpt>
      <trkpt lat="47.33084" lon="-1.29209">
        <ele>87</ele>
        <time>2020-12-20T08:51:38.482000+00:00</time>
      </trkpt>
      <trkpt lat="0" lon="0">
        <time>2020-12-20T08:51:38.488000+00:00</time>
      </trkpt>
      <trkpt lat="0" lon="0">
        <time>2020-12-20T08:51:38.497000+00:00</time>
      </trkpt>
      <trkpt lat="0" lon="0">
        <time>2020-12-20T08:51:38.501000+00:00</time>
      </trkpt>
      <trkpt lat="47.33093" lon="-1.29217">
        <ele>86</ele>
        <time>2020-12-20T08:51:39.461000+00:00</time>
      </trkpt>
      <trkpt lat="0" lon="0">
        <time>2020-12-20T08:51:39.468000+00:00</time>
      </trkpt>
      <trkpt lat="0" lon="0">
        <time>2020-12-20T08:51:39.473000+00:00</time>
      </trkpt>
      <trkpt lat="0" lon="0">
        <time>2020-12-20T08:51:39.476000+00:00</time>
      </trkpt>
      <trkpt lat="47.33102" lon="-1.29223">
        <ele>85</ele>
        <time>2020-12-20T08:51:40.448000+00:00</time>
      </trkpt>
      <trkpt lat="0" lon="0">
        <time>2020-12-20T08:51:40.471000+00:00</time>
      </trkpt>
      <trkpt lat="0" lon="0">
        <time>2020-12-20T08:51:40.475000+00:00</time>
      </trkpt>
      <trkpt lat="0" lon="0">
        <time>2020-12-20T08:51:40.476000+00:00</time>
      </trkpt>
      <trkpt lat="47.33111" lon="-1.29229">
        <ele>84</ele>
        <time>2020-12-20T08:51:41.460000+00:00</time>
      </trkpt>
      <trkpt lat="0" lon="0">
        <time>2020-12-20T08:51:41.468000+00:00</time>
      </trkpt>
      <trkpt lat="0" lon="0">
        <time>2020-12-20T08:51:41.472000+00:00</time>
      </trkpt>
      <trkpt lat="0" lon="0">
        <time>2020-12-20T08:51:41.476000+00:00</time>
      </trkpt>
      <trkpt lat="47.33119" lon="-1.29233">
        <ele>84</ele>
        <time>2020-12-20T08:51:42.476000+00:00</time>
      </trkpt>
      <trkpt lat="0" lon="0">
        <time>2020-12-20T08:51:42.487000+00:00</time>
      </trkpt>
      <trkpt lat="0" lon="0">
        <time>2020-12-20T08:51:42.495000+00:00</time>
      </trkpt>
      <trkpt lat="0" lon="0">
        <time>2020-12-20T08:51:42.497000+00:00</time>
      </trkpt>
      <trkpt lat="47.33127" lon="-1.29236">
        <ele>83</ele>
        <time>2020-12-20T08:51:43.456000+00:00</time>
      </trkpt>
      <trkpt lat="0" lon="0">
        <time>2020-12-20T08:51:43.471000+00:00</time>
      </trkpt>
      <trkpt lat="0" lon="0">
        <time>2020-12-20T08:51:43.476000+00:00</time>
      </trkpt>
      <trkpt lat="0" lon="0">
        <time>2020-12-20T08:51:43.479000+00:00</time>
      </trkpt>
      <trkpt lat="47.33134" lon="-1.2924">
        <ele>82</ele>
        <time>2020-12-20T08:51:44.416000+00:00</time>
      </trkpt>
      <trkpt lat="0" lon="0">
        <time>2020-12-20T08:51:44.425000+00:00</time>
      </trkpt>
      <trkpt lat="0" lon="0">
        <time>2020-12-20T08:51:44.433000+00:00</time>
      </trkpt>
      <trkpt lat="0" lon="0">
        <time>2020-12-20T08:51:44.447000+00:00</time>
      </trkpt>
      <trkpt lat="47.3314" lon="-1.29243">
        <ele>81</ele>
        <time>2020-12-20T08:51:45.442000+00:00</time>
      </trkpt>
      <trkpt lat="0" lon="0">
        <time>2020-12-20T08:51:45.463000+00:00</time>
      </trkpt>
      <trkpt lat="0" lon="0">
        <time>2020-12-20T08:51:45.467000+00:00</time>
      </trkpt>
      <trkpt lat="0" lon="0">
        <time>2020-12-20T08:51:45.480000+00:00</time>
      </trkpt>
      <trkpt lat="47.33145" lon="-1.29246">
        <ele>81</ele>
        <time>2020-12-20T08:51:46.449000+00:00</time>
      </trkpt>
      <trkpt lat="0" lon="0">
        <time>2020-12-20T08:51:46.466000+00:00</time>
      </trkpt>
      <trkpt lat="0" lon="0">
        <time>2020-12-20T08:51:46.470000+00:00</time>
      </trkpt>
      <trkpt lat="0" lon="0">
        <time>2020-12-20T08:51:46.477000+00:00</time>
      </trkpt>
      <trkpt lat="47.33149" lon="-1.29249">
        <ele>81</ele>
        <time>2020-12-20T08:51:47.452000+00:00</time>
      </trkpt>
      <trkpt lat="0" lon="0">
        <time>2020-12-20T08:51:47.468000+00:00</time>
      </trkpt>
      <trkpt lat="0" lon="0">
        <time>2020-12-20T08:51:47.479000+00:00</time>
      </trkpt>
      <trkpt lat="0" lon="0">
        <time>2020-12-20T08:51:47.490000+00:00</time>
      </trkpt>
      <trkpt lat="47.33152" lon="-1.29251">
        <ele>82</ele>
        <time>2020-12-20T08:51:48.420000+00:00</time>
      </trkpt>
      <trkpt lat="0" lon="0">
        <time>2020-12-20T08:51:48.426000+00:00</time>
      </trkpt>
      <trkpt lat="0" lon="0">
        <time>2020-12-20T08:51:48.429000+00:00</time>
      </trkpt>
      <trkpt lat="0" lon="0">
        <time>2020-12-20T08:51:48.431000+00:00</time>
      </trkpt>
      <trkpt lat="47.33155" lon="-1.29253">
        <ele>82</ele>
        <time>2020-12-20T08:51:49.442000+00:00</time>
      </trkpt>
      <trkpt lat="0" lon="0">
        <time>2020-12-20T08:51:49.455000+00:00</time>
      </trkpt>
      <trkpt lat="0" lon="0">
        <time>2020-12-20T08:51:49.459000+00:00</time>
      </trkpt>
      <trkpt lat="0" lon="0">
        <time>2020-12-20T08:51:49.464000+00:00</time>
      </trkpt>
      <trkpt lat="47.33158" lon="-1.29253">
        <ele>81</ele>
        <time>2020-12-20T08:51:50.435000+00:00</time>
      </trkpt>
      <trkpt lat="0" lon="0">
        <time>2020-12-20T08:51:50.442000+00:00</time>
      </trkpt>
      <trkpt lat="0" lon="0">
        <time>2020-12-20T08:51:50.450000+00:00</time>
      </trkpt>
      <trkpt lat="0" lon="0">
        <time>2020-12-20T08:51:50.452000+00:00</time>
      </trkpt>
      <trkpt lat="47.3316" lon="-1.29253">
        <ele>81</ele>
        <time>2020-12-20T08:51:51.439000+00:00</time>
      </trkpt>
      <trkpt lat="0" lon="0">
        <time>2020-12-20T08:51:51.452000+00:00</time>
      </trkpt>
      <trkpt lat="0" lon="0">
        <time>2020-12-20T08:51:51.456000+00:00</time>
      </trkpt>
      <trkpt lat="0" lon="0">
        <time>2020-12-20T08:51:51.465000+00:00</time>
      </trkpt>
      <trkpt lat="47.33162" lon="-1.29252">
        <ele>79</ele>
        <time>2020-12-20T08:51:52.449000+00:00</time>
      </trkpt>
      <trkpt lat="0" lon="0">
        <time>2020-12-20T08:51:52.456000+00:00</time>
      </trkpt>
      <trkpt lat="0" lon="0">
        <time>2020-12-20T08:51:52.461000+00:00</time>
      </trkpt>
      <trkpt lat="0" lon="0">
        <time>2020-12-20T08:51:52.464000+00:00</time>
      </trkpt>
      <trkpt lat="47.33164" lon="-1.2925">
        <ele>77</ele>
        <time>2020-12-20T08:51:53.466000+00:00</time>
      </trkpt>
      <trkpt lat="0" lon="0">
        <time>2020-12-20T08:51:53.476000+00:00</time>
      </trkpt>
      <trkpt lat="0" lon="0">
        <time>2020-12-20T08:51:53.482000+00:00</time>
      </trkpt>
      <trkpt lat="0" lon="0">
        <time>2020-12-20T08:51:53.484000+00:00</time>
      </trkpt>
      <trkpt lat="47.33165" lon="-1.29247">
        <ele>76</ele>
        <time>2020-12-20T08:51:54.478000+00:00</time>
      </trkpt>
      <trkpt lat="0" lon="0">
        <time>2020-12-20T08:51:54.500000+00:00</time>
      </trkpt>
      <trkpt lat="0" lon="0">
        <time>2020-12-20T08:51:54.511000+00:00</time>
      </trkpt>
      <trkpt lat="0" lon="0">
        <time>2020-12-20T08:51:54.513000+00:00</time>
      </trkpt>
      <trkpt lat="47.33167" lon="-1.29243">
        <ele>76</ele>
        <time>2020-12-20T08:51:55.441000+00:00</time>
      </trkpt>
      <trkpt lat="0" lon="0">
        <time>2020-12-20T08:51:55.443000+00:00</time>
      </trkpt>
      <trkpt lat="0" lon="0">
        <time>2020-12-20T08:51:55.447000+00:00</time>
      </trkpt>
      <trkpt lat="0" lon="0">
        <time>2020-12-20T08:51:55.448000+00:00</time>
      </trkpt>
      <trkpt lat="47.33169" lon="-1.29239">
        <ele>76</ele>
        <time>2020-12-20T08:51:56.479000+00:00</time>
      </trkpt>
      <trkpt lat="0" lon="0">
        <time>2020-12-20T08:51:56.493000+00:00</time>
      </trkpt>
      <trkpt lat="0" lon="0">
        <time>2020-12-20T08:51:56.497000+00:00</time>
      </trkpt>
      <trkpt lat="0" lon="0">
        <time>2020-12-20T08:51:56.499000+00:00</time>
      </trkpt>
      <trkpt lat="47.3317" lon="-1.29234">
        <ele>77</ele>
        <time>2020-12-20T08:51:57.467000+00:00</time>
      </trkpt>
      <trkpt lat="0" lon="0">
        <time>2020-12-20T08:51:57.471000+00:00</time>
      </trkpt>
      <trkpt lat="0" lon="0">
        <time>2020-12-20T08:51:57.476000+00:00</time>
      </trkpt>
      <trkpt lat="0" lon="0">
        <time>2020-12-20T08:51:57.478000+00:00</time>
      </trkpt>
      <trkpt lat="47.33172" lon="-1.29229">
        <ele>77</ele>
        <time>2020-12-20T08:51:58.459000+00:00</time>
      </trkpt>
      <trkpt lat="0" lon="0">
        <time>2020-12-20T08:51:58.472000+00:00</time>
      </trkpt>
      <trkpt lat="0" lon="0">
        <time>2020-12-20T08:51:58.479000+00:00</time>
      </trkpt>
      <trkpt lat="0" lon="0">
        <time>2020-12-20T08:51:58.482000+00:00</time>
      </trkpt>
      <trkpt lat="47.33173" lon="-1.29223">
        <ele>77</ele>
        <time>2020-12-20T08:51:59.477000+00:00</time>
      </trkpt>
      <trkpt lat="0" lon="0">
        <time>2020-12-20T08:51:59.486000+00:00</time>
      </trkpt>
      <trkpt lat="0" lon="0">
        <time>2020-12-20T08:51:59.496000+00:00</time>
      </trkpt>
      <trkpt lat="0" lon="0">
        <time>2020-12-20T08:51:59.499000+00:00</time>
      </trkpt>
      <trkpt lat="47.33174" lon="-1.29217">
        <ele>76</ele>
        <time>2020-12-20T08:52:00.451000+00:00</time>
      </trkpt>
      <trkpt lat="0" lon="0">
        <time>2020-12-20T08:52:00.461000+00:00</time>
      </trkpt>
      <trkpt lat="0" lon="0">
        <time>2020-12-20T08:52:00.467000+00:00</time>
      </trkpt>
      <trkpt lat="0" lon="0">
        <time>2020-12-20T08:52:00.469000+00:00</time>
      </trkpt>
      <trkpt lat="47.33174" lon="-1.2921">
        <ele>76</ele>
        <time>2020-12-20T08:52:01.461000+00:00</time>
      </trkpt>
      <trkpt lat="0" lon="0">
        <time>2020-12-20T08:52:01.466000+00:00</time>
      </trkpt>
      <trkpt lat="0" lon="0">
        <time>2020-12-20T08:52:01.470000+00:00</time>
      </trkpt>
      <trkpt lat="0" lon="0">
        <time>2020-12-20T08:52:01.474000+00:00</time>
      </trkpt>
      <trkpt lat="47.33174" lon="-1.29203">
        <ele>76</ele>
        <time>2020-12-20T08:52:02.498000+00:00</time>
      </trkpt>
      <trkpt lat="0" lon="0">
        <time>2020-12-20T08:52:02.516000+00:00</time>
      </trkpt>
      <trkpt lat="0" lon="0">
        <time>2020-12-20T08:52:02.524000+00:00</time>
      </trkpt>
      <trkpt lat="0" lon="0">
        <time>2020-12-20T08:52:02.526000+00:00</time>
      </trkpt>
      <trkpt lat="47.33174" lon="-1.29197">
        <ele>76</ele>
        <time>2020-12-20T08:52:03.483000+00:00</time>
      </trkpt>
      <trkpt lat="0" lon="0">
        <time>2020-12-20T08:52:03.494000+00:00</time>
      </trkpt>
      <trkpt lat="0" lon="0">
        <time>2020-12-20T08:52:03.500000+00:00</time>
      </trkpt>
      <trkpt lat="0" lon="0">
        <time>2020-12-20T08:52:03.505000+00:00</time>
      </trkpt>
      <trkpt lat="47.33174" lon="-1.2919">
        <ele>76</ele>
        <time>2020-12-20T08:52:04.462000+00:00</time>
      </trkpt>
      <trkpt lat="0" lon="0">
        <time>2020-12-20T08:52:04.475000+00:00</time>
      </trkpt>
      <trkpt lat="0" lon="0">
        <time>2020-12-20T08:52:04.479000+00:00</time>
      </trkpt>
      <trkpt lat="0" lon="0">
        <time>2020-12-20T08:52:04.482000+00:00</time>
      </trkpt>
      <trkpt lat="47.33174" lon="-1.29184">
        <ele>76</ele>
        <time>2020-12-20T08:52:05.469000+00:00</time>
      </trkpt>
      <trkpt lat="0" lon="0">
        <time>2020-12-20T08:52:05.476000+00:00</time>
      </trkpt>
      <trkpt lat="0" lon="0">
        <time>2020-12-20T08:52:05.482000+00:00</time>
      </trkpt>
      <trkpt lat="0" lon="0">
        <time>2020-12-20T08:52:05.484000+00:00</time>
      </trkpt>
      <trkpt lat="47.33174" lon="-1.29178">
        <ele>76</ele>
        <time>2020-12-20T08:52:06.420000+00:00</time>
      </trkpt>
      <trkpt lat="0" lon="0">
        <time>2020-12-20T08:52:06.426000+00:00</time>
      </trkpt>
      <trkpt lat="0" lon="0">
        <time>2020-12-20T08:52:06.431000+00:00</time>
      </trkpt>
      <trkpt lat="0" lon="0">
        <time>2020-12-20T08:52:06.433000+00:00</time>
      </trkpt>
      <trkpt lat="47.33175" lon="-1.29173">
        <ele>76</ele>
        <time>2020-12-20T08:52:07.454000+00:00</time>
      </trkpt>
      <trkpt lat="0" lon="0">
        <time>2020-12-20T08:52:07.465000+00:00</time>
      </trkpt>
      <trkpt lat="0" lon="0">
        <time>2020-12-20T08:52:07.472000+00:00</time>
      </trkpt>
      <trkpt lat="0" lon="0">
        <time>2020-12-20T08:52:07.475000+00:00</time>
      </trkpt>
      <trkpt lat="47.33177" lon="-1.29169">
        <ele>76</ele>
        <time>2020-12-20T08:52:08.480000+00:00</time>
      </trkpt>
      <trkpt lat="0" lon="0">
        <time>2020-12-20T08:52:08.497000+00:00</time>
      </trkpt>
      <trkpt lat="0" lon="0">
        <time>2020-12-20T08:52:08.507000+00:00</time>
      </trkpt>
      <trkpt lat="0" lon="0">
        <time>2020-12-20T08:52:08.513000+00:00</time>
      </trkpt>
      <trkpt lat="47.33178" lon="-1.29164">
        <ele>76</ele>
        <time>2020-12-20T08:52:09.479000+00:00</time>
      </trkpt>
      <trkpt lat="0" lon="0">
        <time>2020-12-20T08:52:09.486000+00:00</time>
      </trkpt>
      <trkpt lat="0" lon="0">
        <time>2020-12-20T08:52:09.496000+00:00</time>
      </trkpt>
      <trkpt lat="0" lon="0">
        <time>2020-12-20T08:52:09.499000+00:00</time>
      </trkpt>
      <trkpt lat="47.3318" lon="-1.29161">
        <ele>76</ele>
        <time>2020-12-20T08:52:10.480000+00:00</time>
      </trkpt>
      <trkpt lat="0" lon="0">
        <time>2020-12-20T08:52:10.496000+00:00</time>
      </trkpt>
      <trkpt lat="0" lon="0">
        <time>2020-12-20T08:52:10.505000+00:00</time>
      </trkpt>
      <trkpt lat="0" lon="0">
        <time>2020-12-20T08:52:10.507000+00:00</time>
      </trkpt>
      <trkpt lat="47.33182" lon="-1.29157">
        <ele>76</ele>
        <time>2020-12-20T08:52:11.480000+00:00</time>
      </trkpt>
      <trkpt lat="0" lon="0">
        <time>2020-12-20T08:52:11.504000+00:00</time>
      </trkpt>
      <trkpt lat="0" lon="0">
        <time>2020-12-20T08:52:11.508000+00:00</time>
      </trkpt>
      <trkpt lat="0" lon="0">
        <time>2020-12-20T08:52:11.511000+00:00</time>
      </trkpt>
      <trkpt lat="47.33184" lon="-1.29154">
        <ele>75</ele>
        <time>2020-12-20T08:52:12.478000+00:00</time>
      </trkpt>
      <trkpt lat="0" lon="0">
        <time>2020-12-20T08:52:12.484000+00:00</time>
      </trkpt>
      <trkpt lat="0" lon="0">
        <time>2020-12-20T08:52:12.488000+00:00</time>
      </trkpt>
      <trkpt lat="0" lon="0">
        <time>2020-12-20T08:52:12.490000+00:00</time>
      </trkpt>
      <trkpt lat="47.33186" lon="-1.29151">
        <ele>75</ele>
        <time>2020-12-20T08:52:13.463000+00:00</time>
      </trkpt>
      <trkpt lat="0" lon="0">
        <time>2020-12-20T08:52:13.468000+00:00</time>
      </trkpt>
      <trkpt lat="0" lon="0">
        <time>2020-12-20T08:52:13.474000+00:00</time>
      </trkpt>
      <trkpt lat="0" lon="0">
        <time>2020-12-20T08:52:13.477000+00:00</time>
      </trkpt>
      <trkpt lat="47.33188" lon="-1.29149">
        <ele>75</ele>
        <time>2020-12-20T08:52:14.481000+00:00</time>
      </trkpt>
      <trkpt lat="0" lon="0">
        <time>2020-12-20T08:52:14.493000+00:00</time>
      </trkpt>
      <trkpt lat="0" lon="0">
        <time>2020-12-20T08:52:14.497000+00:00</time>
      </trkpt>
      <trkpt lat="0" lon="0">
        <time>2020-12-20T08:52:14.499000+00:00</time>
      </trkpt>
      <trkpt lat="47.3319" lon="-1.29147">
        <ele>75</ele>
        <time>2020-12-20T08:52:15.454000+00:00</time>
      </trkpt>
      <trkpt lat="0" lon="0">
        <time>2020-12-20T08:52:15.462000+00:00</time>
      </trkpt>
      <trkpt lat="0" lon="0">
        <time>2020-12-20T08:52:15.468000+00:00</time>
      </trkpt>
      <trkpt lat="0" lon="0">
        <time>2020-12-20T08:52:15.472000+00:00</time>
      </trkpt>
      <trkpt lat="47.33192" lon="-1.29145">
        <ele>75</ele>
        <time>2020-12-20T08:52:16.479000+00:00</time>
      </trkpt>
      <trkpt lat="0" lon="0">
        <time>2020-12-20T08:52:16.497000+00:00</time>
      </trkpt>
      <trkpt lat="0" lon="0">
        <time>2020-12-20T08:52:16.505000+00:00</time>
      </trkpt>
      <trkpt lat="0" lon="0">
        <time>2020-12-20T08:52:16.507000+00:00</time>
      </trkpt>
      <trkpt lat="47.33194" lon="-1.29143">
        <ele>75</ele>
        <time>2020-12-20T08:52:17.456000+00:00</time>
      </trkpt>
      <trkpt lat="0" lon="0">
        <time>2020-12-20T08:52:17.468000+00:00</time>
      </trkpt>
      <trkpt lat="0" lon="0">
        <time>2020-12-20T08:52:17.476000+00:00</time>
      </trkpt>
      <trkpt lat="0" lon="0">
        <time>2020-12-20T08:52:17.479000+00:00</time>
      </trkpt>
      <trkpt lat="47.33196" lon="-1.2914">
        <ele>75</ele>
        <time>2020-12-20T08:52:18.499000+00:00</time>
      </trkpt>
      <trkpt lat="0" lon="0">
        <time>2020-12-20T08:52:18.506000+00:00</time>
      </trkpt>
      <trkpt lat="0" lon="0">
        <time>2020-12-20T08:52:18.508000+00:00</time>
      </trkpt>
      <trkpt lat="0" lon="0">
        <time>2020-12-20T08:52:18.510000+00:00</time>
      </trkpt>
      <trkpt lat="47.33199" lon="-1.29138">
        <ele>75</ele>
        <time>2020-12-20T08:52:19.417000+00:00</time>
      </trkpt>
      <trkpt lat="0" lon="0">
        <time>2020-12-20T08:52:19.423000+00:00</time>
      </trkpt>
      <trkpt lat="0" lon="0">
        <time>2020-12-20T08:52:19.426000+00:00</time>
      </trkpt>
      <trkpt lat="0" lon="0">
        <time>2020-12-20T08:52:19.427000+00:00</time>
      </trkpt>
      <trkpt lat="47.33201" lon="-1.29136">
        <ele>75</ele>
        <time>2020-12-20T08:52:20.454000+00:00</time>
      </trkpt>
      <trkpt lat="0" lon="0">
        <time>2020-12-20T08:52:20.468000+00:00</time>
      </trkpt>
      <trkpt lat="0" lon="0">
        <time>2020-12-20T08:52:20.473000+00:00</time>
      </trkpt>
      <trkpt lat="0" lon="0">
        <time>2020-12-20T08:52:20.475000+00:00</time>
      </trkpt>
      <trkpt lat="47.33204" lon="-1.29133">
        <ele>75</ele>
        <time>2020-12-20T08:52:21.476000+00:00</time>
      </trkpt>
      <trkpt lat="0" lon="0">
        <time>2020-12-20T08:52:21.481000+00:00</time>
      </trkpt>
      <trkpt lat="0" lon="0">
        <time>2020-12-20T08:52:21.499000+00:00</time>
      </trkpt>
      <trkpt lat="0" lon="0">
        <time>2020-12-20T08:52:21.512000+00:00</time>
      </trkpt>
      <trkpt lat="47.33207" lon="-1.29131">
        <ele>75</ele>
        <time>2020-12-20T08:52:22.479000+00:00</time>
      </trkpt>
      <trkpt lat="0" lon="0">
        <time>2020-12-20T08:52:22.489000+00:00</time>
      </trkpt>
      <trkpt lat="0" lon="0">
        <time>2020-12-20T08:52:22.501000+00:00</time>
      </trkpt>
      <trkpt lat="0" lon="0">
        <time>2020-12-20T08:52:22.503000+00:00</time>
      </trkpt>
      <trkpt lat="47.3321" lon="-1.29128">
        <ele>75</ele>
        <time>2020-12-20T08:52:23.503000+00:00</time>
      </trkpt>
      <trkpt lat="0" lon="0">
        <time>2020-12-20T08:52:23.518000+00:00</time>
      </trkpt>
      <trkpt lat="0" lon="0">
        <time>2020-12-20T08:52:23.528000+00:00</time>
      </trkpt>
      <trkpt lat="0" lon="0">
        <time>2020-12-20T08:52:23.536000+00:00</time>
      </trkpt>
      <trkpt lat="47.33213" lon="-1.29126">
        <ele>74</ele>
        <time>2020-12-20T08:52:24.473000+00:00</time>
      </trkpt>
      <trkpt lat="0" lon="0">
        <time>2020-12-20T08:52:24.476000+00:00</time>
      </trkpt>
      <trkpt lat="0" lon="0">
        <time>2020-12-20T08:52:24.478000+00:00</time>
      </trkpt>
      <trkpt lat="0" lon="0">
        <time>2020-12-20T08:52:24.480000+00:00</time>
      </trkpt>
      <trkpt lat="47.33216" lon="-1.29124">
        <ele>74</ele>
        <time>2020-12-20T08:52:25.479000+00:00</time>
      </trkpt>
      <trkpt lat="0" lon="0">
        <time>2020-12-20T08:52:25.494000+00:00</time>
      </trkpt>
      <trkpt lat="0" lon="0">
        <time>2020-12-20T08:52:25.496000+00:00</time>
      </trkpt>
      <trkpt lat="0" lon="0">
        <time>2020-12-20T08:52:25.497000+00:00</time>
      </trkpt>
      <trkpt lat="47.33219" lon="-1.29122">
        <ele>74</ele>
        <time>2020-12-20T08:52:26.473000+00:00</time>
      </trkpt>
      <trkpt lat="0" lon="0">
        <time>2020-12-20T08:52:26.485000+00:00</time>
      </trkpt>
      <trkpt lat="0" lon="0">
        <time>2020-12-20T08:52:26.493000+00:00</time>
      </trkpt>
      <trkpt lat="0" lon="0">
        <time>2020-12-20T08:52:26.495000+00:00</time>
      </trkpt>
      <trkpt lat="47.33222" lon="-1.2912">
        <ele>74</ele>
        <time>2020-12-20T08:52:27.482000+00:00</time>
      </trkpt>
      <trkpt lat="0" lon="0">
        <time>2020-12-20T08:52:27.488000+00:00</time>
      </trkpt>
      <trkpt lat="0" lon="0">
        <time>2020-12-20T08:52:27.495000+00:00</time>
      </trkpt>
      <trkpt lat="0" lon="0">
        <time>2020-12-20T08:52:27.499000+00:00</time>
      </trkpt>
      <trkpt lat="47.33224" lon="-1.29118">
        <ele>74</ele>
        <time>2020-12-20T08:52:28.477000+00:00</time>
      </trkpt>
      <trkpt lat="0" lon="0">
        <time>2020-12-20T08:52:28.487000+00:00</time>
      </trkpt>
      <trkpt lat="0" lon="0">
        <time>2020-12-20T08:52:28.499000+00:00</time>
      </trkpt>
      <trkpt lat="0" lon="0">
        <time>2020-12-20T08:52:28.502000+00:00</time>
      </trkpt>
      <trkpt lat="47.33228" lon="-1.29116">
        <ele>74</ele>
        <time>2020-12-20T08:52:29.468000+00:00</time>
      </trkpt>
      <trkpt lat="0" lon="0">
        <time>2020-12-20T08:52:29.478000+00:00</time>
      </trkpt>
      <trkpt lat="0" lon="0">
        <time>2020-12-20T08:52:29.485000+00:00</time>
      </trkpt>
      <trkpt lat="0" lon="0">
        <time>2020-12-20T08:52:29.487000+00:00</time>
      </trkpt>
      <trkpt lat="47.33231" lon="-1.29114">
        <ele>75</ele>
        <time>2020-12-20T08:52:30.420000+00:00</time>
      </trkpt>
      <trkpt lat="0" lon="0">
        <time>2020-12-20T08:52:30.433000+00:00</time>
      </trkpt>
      <trkpt lat="0" lon="0">
        <time>2020-12-20T08:52:30.435000+00:00</time>
      </trkpt>
      <trkpt lat="0" lon="0">
        <time>2020-12-20T08:52:30.436000+00:00</time>
      </trkpt>
      <trkpt lat="47.33234" lon="-1.29111">
        <ele>75</ele>
        <time>2020-12-20T08:52:31.465000+00:00</time>
      </trkpt>
      <trkpt lat="0" lon="0">
        <time>2020-12-20T08:52:31.477000+00:00</time>
      </trkpt>
      <trkpt lat="0" lon="0">
        <time>2020-12-20T08:52:31.482000+00:00</time>
      </trkpt>
      <trkpt lat="0" lon="0">
        <time>2020-12-20T08:52:31.490000+00:00</time>
      </trkpt>
      <trkpt lat="47.33237" lon="-1.29108">
        <ele>75</ele>
        <time>2020-12-20T08:52:32.441000+00:00</time>
      </trkpt>
      <trkpt lat="0" lon="0">
        <time>2020-12-20T08:52:32.455000+00:00</time>
      </trkpt>
      <trkpt lat="0" lon="0">
        <time>2020-12-20T08:52:32.463000+00:00</time>
      </trkpt>
      <trkpt lat="0" lon="0">
        <time>2020-12-20T08:52:32.465000+00:00</time>
      </trkpt>
      <trkpt lat="47.3324" lon="-1.29104">
        <ele>76</ele>
        <time>2020-12-20T08:52:33.459000+00:00</time>
      </trkpt>
      <trkpt lat="0" lon="0">
        <time>2020-12-20T08:52:33.478000+00:00</time>
      </trkpt>
      <trkpt lat="0" lon="0">
        <time>2020-12-20T08:52:33.485000+00:00</time>
      </trkpt>
      <trkpt lat="0" lon="0">
        <time>2020-12-20T08:52:33.492000+00:00</time>
      </trkpt>
      <trkpt lat="47.33244" lon="-1.291">
        <ele>75</ele>
        <time>2020-12-20T08:52:34.476000+00:00</time>
      </trkpt>
      <trkpt lat="0" lon="0">
        <time>2020-12-20T08:52:34.486000+00:00</time>
      </trkpt>
      <trkpt lat="0" lon="0">
        <time>2020-12-20T08:52:34.491000+00:00</time>
      </trkpt>
      <trkpt lat="0" lon="0">
        <time>2020-12-20T08:52:34.493000+00:00</time>
      </trkpt>
      <trkpt lat="47.33247" lon="-1.29096">
        <ele>75</ele>
        <time>2020-12-20T08:52:35.454000+00:00</time>
      </trkpt>
      <trkpt lat="0" lon="0">
        <time>2020-12-20T08:52:35.460000+00:00</time>
      </trkpt>
      <trkpt lat="0" lon="0">
        <time>2020-12-20T08:52:35.467000+00:00</time>
      </trkpt>
      <trkpt lat="0" lon="0">
        <time>2020-12-20T08:52:35.470000+00:00</time>
      </trkpt>
      <trkpt lat="47.33251" lon="-1.29092">
        <ele>75</ele>
        <time>2020-12-20T08:52:36.472000+00:00</time>
      </trkpt>
      <trkpt lat="0" lon="0">
        <time>2020-12-20T08:52:36.485000+00:00</time>
      </trkpt>
      <trkpt lat="0" lon="0">
        <time>2020-12-20T08:52:36.493000+00:00</time>
      </trkpt>
      <trkpt lat="0" lon="0">
        <time>2020-12-20T08:52:36.496000+00:00</time>
      </trkpt>
      <trkpt lat="47.33254" lon="-1.29088">
        <ele>75</ele>
        <time>2020-12-20T08:52:37.479000+00:00</time>
      </trkpt>
      <trkpt lat="0" lon="0">
        <time>2020-12-20T08:52:37.485000+00:00</time>
      </trkpt>
      <trkpt lat="0" lon="0">
        <time>2020-12-20T08:52:37.499000+00:00</time>
      </trkpt>
      <trkpt lat="0" lon="0">
        <time>2020-12-20T08:52:37.501000+00:00</time>
      </trkpt>
      <trkpt lat="47.33257" lon="-1.29084">
        <ele>76</ele>
        <time>2020-12-20T08:52:38.469000+00:00</time>
      </trkpt>
      <trkpt lat="0" lon="0">
        <time>2020-12-20T08:52:38.482000+00:00</time>
      </trkpt>
      <trkpt lat="0" lon="0">
        <time>2020-12-20T08:52:38.488000+00:00</time>
      </trkpt>
      <trkpt lat="0" lon="0">
        <time>2020-12-20T08:52:38.490000+00:00</time>
      </trkpt>
      <trkpt lat="47.3326" lon="-1.2908">
        <ele>76</ele>
        <time>2020-12-20T08:52:39.490000+00:00</time>
      </trkpt>
      <trkpt lat="0" lon="0">
        <time>2020-12-20T08:52:39.499000+00:00</time>
      </trkpt>
      <trkpt lat="0" lon="0">
        <time>2020-12-20T08:52:39.503000+00:00</time>
      </trkpt>
      <trkpt lat="0" lon="0">
        <time>2020-12-20T08:52:39.506000+00:00</time>
      </trkpt>
      <trkpt lat="47.33264" lon="-1.29075">
        <ele>76</ele>
        <time>2020-12-20T08:52:40.470000+00:00</time>
      </trkpt>
      <trkpt lat="0" lon="0">
        <time>2020-12-20T08:52:40.478000+00:00</time>
      </trkpt>
      <trkpt lat="0" lon="0">
        <time>2020-12-20T08:52:40.483000+00:00</time>
      </trkpt>
      <trkpt lat="0" lon="0">
        <time>2020-12-20T08:52:40.485000+00:00</time>
      </trkpt>
      <trkpt lat="47.33267" lon="-1.29071">
        <ele>75</ele>
        <time>2020-12-20T08:52:41.451000+00:00</time>
      </trkpt>
      <trkpt lat="0" lon="0">
        <time>2020-12-20T08:52:41.453000+00:00</time>
      </trkpt>
      <trkpt lat="0" lon="0">
        <time>2020-12-20T08:52:41.455000+00:00</time>
      </trkpt>
      <trkpt lat="0" lon="0">
        <time>2020-12-20T08:52:41.457000+00:00</time>
      </trkpt>
      <trkpt lat="47.33271" lon="-1.29066">
        <ele>75</ele>
        <time>2020-12-20T08:52:42.444000+00:00</time>
      </trkpt>
      <trkpt lat="0" lon="0">
        <time>2020-12-20T08:52:42.451000+00:00</time>
      </trkpt>
      <trkpt lat="0" lon="0">
        <time>2020-12-20T08:52:42.463000+00:00</time>
      </trkpt>
      <trkpt lat="0" lon="0">
        <time>2020-12-20T08:52:42.469000+00:00</time>
      </trkpt>
      <trkpt lat="47.33275" lon="-1.29061">
        <ele>75</ele>
        <time>2020-12-20T08:52:43.457000+00:00</time>
      </trkpt>
      <trkpt lat="0" lon="0">
        <time>2020-12-20T08:52:43.465000+00:00</time>
      </trkpt>
      <trkpt lat="0" lon="0">
        <time>2020-12-20T08:52:43.475000+00:00</time>
      </trkpt>
      <trkpt lat="0" lon="0">
        <time>2020-12-20T08:52:43.478000+00:00</time>
      </trkpt>
      <trkpt lat="47.33279" lon="-1.29055">
        <ele>75</ele>
        <time>2020-12-20T08:52:44.454000+00:00</time>
      </trkpt>
      <trkpt lat="0" lon="0">
        <time>2020-12-20T08:52:44.467000+00:00</time>
      </trkpt>
      <trkpt lat="0" lon="0">
        <time>2020-12-20T08:52:44.475000+00:00</time>
      </trkpt>
      <trkpt lat="0" lon="0">
        <time>2020-12-20T08:52:44.477000+00:00</time>
      </trkpt>
      <trkpt lat="47.33283" lon="-1.29049">
        <ele>75</ele>
        <time>2020-12-20T08:52:45.467000+00:00</time>
      </trkpt>
      <trkpt lat="0" lon="0">
        <time>2020-12-20T08:52:45.483000+00:00</time>
      </trkpt>
      <trkpt lat="0" lon="0">
        <time>2020-12-20T08:52:45.488000+00:00</time>
      </trkpt>
      <trkpt lat="0" lon="0">
        <time>2020-12-20T08:52:45.490000+00:00</time>
      </trkpt>
      <trkpt lat="47.33286" lon="-1.29043">
        <ele>75</ele>
        <time>2020-12-20T08:52:46.441000+00:00</time>
      </trkpt>
      <trkpt lat="0" lon="0">
        <time>2020-12-20T08:52:46.447000+00:00</time>
      </trkpt>
      <trkpt lat="0" lon="0">
        <time>2020-12-20T08:52:46.456000+00:00</time>
      </trkpt>
      <trkpt lat="0" lon="0">
        <time>2020-12-20T08:52:46.465000+00:00</time>
      </trkpt>
      <trkpt lat="47.33291" lon="-1.29037">
        <ele>75</ele>
        <time>2020-12-20T08:52:47.466000+00:00</time>
      </trkpt>
      <trkpt lat="0" lon="0">
        <time>2020-12-20T08:52:47.477000+00:00</time>
      </trkpt>
      <trkpt lat="0" lon="0">
        <time>2020-12-20T08:52:47.489000+00:00</time>
      </trkpt>
      <trkpt lat="0" lon="0">
        <time>2020-12-20T08:52:47.495000+00:00</time>
      </trkpt>
      <trkpt lat="47.33295" lon="-1.2903">
        <ele>75</ele>
        <time>2020-12-20T08:52:48.453000+00:00</time>
      </trkpt>
      <trkpt lat="0" lon="0">
        <time>2020-12-20T08:52:48.458000+00:00</time>
      </trkpt>
      <trkpt lat="0" lon="0">
        <time>2020-12-20T08:52:48.465000+00:00</time>
      </trkpt>
      <trkpt lat="0" lon="0">
        <time>2020-12-20T08:52:48.468000+00:00</time>
      </trkpt>
      <trkpt lat="47.33299" lon="-1.29024">
        <ele>75</ele>
        <time>2020-12-20T08:52:49.447000+00:00</time>
      </trkpt>
      <trkpt lat="0" lon="0">
        <time>2020-12-20T08:52:49.456000+00:00</time>
      </trkpt>
      <trkpt lat="0" lon="0">
        <time>2020-12-20T08:52:49.467000+00:00</time>
      </trkpt>
      <trkpt lat="0" lon="0">
        <time>2020-12-20T08:52:49.471000+00:00</time>
      </trkpt>
      <trkpt lat="47.33303" lon="-1.29017">
        <ele>75</ele>
        <time>2020-12-20T08:52:50.459000+00:00</time>
      </trkpt>
      <trkpt lat="0" lon="0">
        <time>2020-12-20T08:52:50.473000+00:00</time>
      </trkpt>
      <trkpt lat="0" lon="0">
        <time>2020-12-20T08:52:50.490000+00:00</time>
      </trkpt>
      <trkpt lat="0" lon="0">
        <time>2020-12-20T08:52:50.494000+00:00</time>
      </trkpt>
      <trkpt lat="47.33307" lon="-1.29009">
        <ele>75</ele>
        <time>2020-12-20T08:52:51.426000+00:00</time>
      </trkpt>
      <trkpt lat="0" lon="0">
        <time>2020-12-20T08:52:51.438000+00:00</time>
      </trkpt>
      <trkpt lat="0" lon="0">
        <time>2020-12-20T08:52:51.442000+00:00</time>
      </trkpt>
      <trkpt lat="0" lon="0">
        <time>2020-12-20T08:52:51.445000+00:00</time>
      </trkpt>
      <trkpt lat="47.33311" lon="-1.29002">
        <ele>75</ele>
        <time>2020-12-20T08:52:52.404000+00:00</time>
      </trkpt>
      <trkpt lat="0" lon="0">
        <time>2020-12-20T08:52:52.411000+00:00</time>
      </trkpt>
      <trkpt lat="0" lon="0">
        <time>2020-12-20T08:52:52.419000+00:00</time>
      </trkpt>
      <trkpt lat="0" lon="0">
        <time>2020-12-20T08:52:52.421000+00:00</time>
      </trkpt>
      <trkpt lat="47.33315" lon="-1.28994">
        <ele>75</ele>
        <time>2020-12-20T08:52:53.467000+00:00</time>
      </trkpt>
      <trkpt lat="0" lon="0">
        <time>2020-12-20T08:52:53.475000+00:00</time>
      </trkpt>
      <trkpt lat="0" lon="0">
        <time>2020-12-20T08:52:53.480000+00:00</time>
      </trkpt>
      <trkpt lat="0" lon="0">
        <time>2020-12-20T08:52:53.482000+00:00</time>
      </trkpt>
      <trkpt lat="47.33319" lon="-1.28987">
        <ele>74</ele>
        <time>2020-12-20T08:52:54.454000+00:00</time>
      </trkpt>
      <trkpt lat="0" lon="0">
        <time>2020-12-20T08:52:54.465000+00:00</time>
      </trkpt>
      <trkpt lat="0" lon="0">
        <time>2020-12-20T08:52:54.471000+00:00</time>
      </trkpt>
      <trkpt lat="0" lon="0">
        <time>2020-12-20T08:52:54.473000+00:00</time>
      </trkpt>
      <trkpt lat="47.33324" lon="-1.28979">
        <ele>75</ele>
        <time>2020-12-20T08:52:55.453000+00:00</time>
      </trkpt>
      <trkpt lat="0" lon="0">
        <time>2020-12-20T08:52:55.464000+00:00</time>
      </trkpt>
      <trkpt lat="0" lon="0">
        <time>2020-12-20T08:52:55.470000+00:00</time>
      </trkpt>
      <trkpt lat="0" lon="0">
        <time>2020-12-20T08:52:55.473000+00:00</time>
      </trkpt>
      <trkpt lat="47.33328" lon="-1.28971">
        <ele>75</ele>
        <time>2020-12-20T08:52:56.454000+00:00</time>
      </trkpt>
      <trkpt lat="0" lon="0">
        <time>2020-12-20T08:52:56.461000+00:00</time>
      </trkpt>
      <trkpt lat="0" lon="0">
        <time>2020-12-20T08:52:56.467000+00:00</time>
      </trkpt>
      <trkpt lat="0" lon="0">
        <time>2020-12-20T08:52:56.470000+00:00</time>
      </trkpt>
      <trkpt lat="47.33332" lon="-1.28964">
        <ele>75</ele>
        <time>2020-12-20T08:52:57.474000+00:00</time>
      </trkpt>
      <trkpt lat="0" lon="0">
        <time>2020-12-20T08:52:57.486000+00:00</time>
      </trkpt>
      <trkpt lat="0" lon="0">
        <time>2020-12-20T08:52:57.490000+00:00</time>
      </trkpt>
      <trkpt lat="0" lon="0">
        <time>2020-12-20T08:52:57.492000+00:00</time>
      </trkpt>
      <trkpt lat="47.33336" lon="-1.28957">
        <ele>75</ele>
        <time>2020-12-20T08:52:58.458000+00:00</time>
      </trkpt>
      <trkpt lat="0" lon="0">
        <time>2020-12-20T08:52:58.469000+00:00</time>
      </trkpt>
      <trkpt lat="0" lon="0">
        <time>2020-12-20T08:52:58.474000+00:00</time>
      </trkpt>
      <trkpt lat="0" lon="0">
        <time>2020-12-20T08:52:58.476000+00:00</time>
      </trkpt>
      <trkpt lat="47.3334" lon="-1.28949">
        <ele>75</ele>
        <time>2020-12-20T08:52:59.463000+00:00</time>
      </trkpt>
      <trkpt lat="0" lon="0">
        <time>2020-12-20T08:52:59.465000+00:00</time>
      </trkpt>
      <trkpt lat="0" lon="0">
        <time>2020-12-20T08:52:59.472000+00:00</time>
      </trkpt>
      <trkpt lat="0" lon="0">
        <time>2020-12-20T08:52:59.475000+00:00</time>
      </trkpt>
      <trkpt lat="47.33344" lon="-1.28942">
        <ele>75</ele>
        <time>2020-12-20T08:53:00.471000+00:00</time>
      </trkpt>
      <trkpt lat="0" lon="0">
        <time>2020-12-20T08:53:00.478000+00:00</time>
      </trkpt>
      <trkpt lat="0" lon="0">
        <time>2020-12-20T08:53:00.485000+00:00</time>
      </trkpt>
      <trkpt lat="0" lon="0">
        <time>2020-12-20T08:53:00.487000+00:00</time>
      </trkpt>
      <trkpt lat="47.33347" lon="-1.28935">
        <ele>74</ele>
        <time>2020-12-20T08:53:01.446000+00:00</time>
      </trkpt>
      <trkpt lat="0" lon="0">
        <time>2020-12-20T08:53:01.458000+00:00</time>
      </trkpt>
      <trkpt lat="0" lon="0">
        <time>2020-12-20T08:53:01.467000+00:00</time>
      </trkpt>
      <trkpt lat="0" lon="0">
        <time>2020-12-20T08:53:01.471000+00:00</time>
      </trkpt>
      <trkpt lat="47.33351" lon="-1.28928">
        <ele>74</ele>
        <time>2020-12-20T08:53:02.448000+00:00</time>
      </trkpt>
      <trkpt lat="0" lon="0">
        <time>2020-12-20T08:53:02.457000+00:00</time>
      </trkpt>
      <trkpt lat="0" lon="0">
        <time>2020-12-20T08:53:02.468000+00:00</time>
      </trkpt>
      <trkpt lat="0" lon="0">
        <time>2020-12-20T08:53:02.470000+00:00</time>
      </trkpt>
      <trkpt lat="47.33354" lon="-1.28922">
        <ele>74</ele>
        <time>2020-12-20T08:53:03.466000+00:00</time>
      </trkpt>
      <trkpt lat="0" lon="0">
        <time>2020-12-20T08:53:03.474000+00:00</time>
      </trkpt>
      <trkpt lat="0" lon="0">
        <time>2020-12-20T08:53:03.482000+00:00</time>
      </trkpt>
      <trkpt lat="0" lon="0">
        <time>2020-12-20T08:53:03.484000+00:00</time>
      </trkpt>
      <trkpt lat="47.33358" lon="-1.28915">
        <ele>74</ele>
        <time>2020-12-20T08:53:04.466000+00:00</time>
      </trkpt>
      <trkpt lat="0" lon="0">
        <time>2020-12-20T08:53:04.479000+00:00</time>
      </trkpt>
      <trkpt lat="0" lon="0">
        <time>2020-12-20T08:53:04.486000+00:00</time>
      </trkpt>
      <trkpt lat="0" lon="0">
        <time>2020-12-20T08:53:04.488000+00:00</time>
      </trkpt>
      <trkpt lat="47.33361" lon="-1.28909">
        <ele>73</ele>
        <time>2020-12-20T08:53:05.476000+00:00</time>
      </trkpt>
      <trkpt lat="0" lon="0">
        <time>2020-12-20T08:53:05.486000+00:00</time>
      </trkpt>
      <trkpt lat="0" lon="0">
        <time>2020-12-20T08:53:05.495000+00:00</time>
      </trkpt>
      <trkpt lat="0" lon="0">
        <time>2020-12-20T08:53:05.498000+00:00</time>
      </trkpt>
      <trkpt lat="47.33363" lon="-1.28902">
        <ele>73</ele>
        <time>2020-12-20T08:53:06.453000+00:00</time>
      </trkpt>
      <trkpt lat="0" lon="0">
        <time>2020-12-20T08:53:06.464000+00:00</time>
      </trkpt>
      <trkpt lat="0" lon="0">
        <time>2020-12-20T08:53:06.470000+00:00</time>
      </trkpt>
      <trkpt lat="0" lon="0">
        <time>2020-12-20T08:53:06.473000+00:00</time>
      </trkpt>
      <trkpt lat="47.33366" lon="-1.28896">
        <ele>72</ele>
        <time>2020-12-20T08:53:07.469000+00:00</time>
      </trkpt>
      <trkpt lat="0" lon="0">
        <time>2020-12-20T08:53:07.475000+00:00</time>
      </trkpt>
      <trkpt lat="0" lon="0">
        <time>2020-12-20T08:53:07.480000+00:00</time>
      </trkpt>
      <trkpt lat="0" lon="0">
        <time>2020-12-20T08:53:07.483000+00:00</time>
      </trkpt>
      <trkpt lat="47.33369" lon="-1.28891">
        <ele>72</ele>
        <time>2020-12-20T08:53:08.463000+00:00</time>
      </trkpt>
      <trkpt lat="0" lon="0">
        <time>2020-12-20T08:53:08.475000+00:00</time>
      </trkpt>
      <trkpt lat="0" lon="0">
        <time>2020-12-20T08:53:08.479000+00:00</time>
      </trkpt>
      <trkpt lat="0" lon="0">
        <time>2020-12-20T08:53:08.482000+00:00</time>
      </trkpt>
      <trkpt lat="47.33372" lon="-1.28886">
        <ele>72</ele>
        <time>2020-12-20T08:53:09.456000+00:00</time>
      </trkpt>
      <trkpt lat="0" lon="0">
        <time>2020-12-20T08:53:09.465000+00:00</time>
      </trkpt>
      <trkpt lat="0" lon="0">
        <time>2020-12-20T08:53:09.469000+00:00</time>
      </trkpt>
      <trkpt lat="0" lon="0">
        <time>2020-12-20T08:53:09.472000+00:00</time>
      </trkpt>
      <trkpt lat="47.33374" lon="-1.2888">
        <ele>71</ele>
        <time>2020-12-20T08:53:10.432000+00:00</time>
      </trkpt>
      <trkpt lat="0" lon="0">
        <time>2020-12-20T08:53:10.452000+00:00</time>
      </trkpt>
      <trkpt lat="0" lon="0">
        <time>2020-12-20T08:53:10.454000+00:00</time>
      </trkpt>
      <trkpt lat="0" lon="0">
        <time>2020-12-20T08:53:10.455000+00:00</time>
      </trkpt>
      <trkpt lat="47.33377" lon="-1.28875">
        <ele>71</ele>
        <time>2020-12-20T08:53:11.464000+00:00</time>
      </trkpt>
      <trkpt lat="0" lon="0">
        <time>2020-12-20T08:53:11.476000+00:00</time>
      </trkpt>
      <trkpt lat="0" lon="0">
        <time>2020-12-20T08:53:11.480000+00:00</time>
      </trkpt>
      <trkpt lat="0" lon="0">
        <time>2020-12-20T08:53:11.483000+00:00</time>
      </trkpt>
      <trkpt lat="47.33379" lon="-1.2887">
        <ele>71</ele>
        <time>2020-12-20T08:53:12.466000+00:00</time>
      </trkpt>
      <trkpt lat="0" lon="0">
        <time>2020-12-20T08:53:12.477000+00:00</time>
      </trkpt>
      <trkpt lat="0" lon="0">
        <time>2020-12-20T08:53:12.481000+00:00</time>
      </trkpt>
      <trkpt lat="0" lon="0">
        <time>2020-12-20T08:53:12.484000+00:00</time>
      </trkpt>
      <trkpt lat="47.33382" lon="-1.28866">
        <ele>71</ele>
        <time>2020-12-20T08:53:13.458000+00:00</time>
      </trkpt>
      <trkpt lat="0" lon="0">
        <time>2020-12-20T08:53:13.468000+00:00</time>
      </trkpt>
      <trkpt lat="0" lon="0">
        <time>2020-12-20T08:53:13.477000+00:00</time>
      </trkpt>
      <trkpt lat="0" lon="0">
        <time>2020-12-20T08:53:13.481000+00:00</time>
      </trkpt>
      <trkpt lat="47.33384" lon="-1.28861">
        <ele>71</ele>
        <time>2020-12-20T08:53:14.461000+00:00</time>
      </trkpt>
      <trkpt lat="0" lon="0">
        <time>2020-12-20T08:53:14.471000+00:00</time>
      </trkpt>
      <trkpt lat="0" lon="0">
        <time>2020-12-20T08:53:14.475000+00:00</time>
      </trkpt>
      <trkpt lat="0" lon="0">
        <time>2020-12-20T08:53:14.481000+00:00</time>
      </trkpt>
      <trkpt lat="47.33387" lon="-1.28856">
        <ele>71</ele>
        <time>2020-12-20T08:53:15.461000+00:00</time>
      </trkpt>
      <trkpt lat="0" lon="0">
        <time>2020-12-20T08:53:15.470000+00:00</time>
      </trkpt>
      <trkpt lat="0" lon="0">
        <time>2020-12-20T08:53:15.482000+00:00</time>
      </trkpt>
      <trkpt lat="0" lon="0">
        <time>2020-12-20T08:53:15.484000+00:00</time>
      </trkpt>
      <trkpt lat="47.33389" lon="-1.28851">
        <ele>71</ele>
        <time>2020-12-20T08:53:16.439000+00:00</time>
      </trkpt>
      <trkpt lat="0" lon="0">
        <time>2020-12-20T08:53:16.447000+00:00</time>
      </trkpt>
      <trkpt lat="0" lon="0">
        <time>2020-12-20T08:53:16.454000+00:00</time>
      </trkpt>
      <trkpt lat="0" lon="0">
        <time>2020-12-20T08:53:16.458000+00:00</time>
      </trkpt>
      <trkpt lat="47.33391" lon="-1.28846">
        <ele>71</ele>
        <time>2020-12-20T08:53:17.469000+00:00</time>
      </trkpt>
      <trkpt lat="0" lon="0">
        <time>2020-12-20T08:53:17.477000+00:00</time>
      </trkpt>
      <trkpt lat="0" lon="0">
        <time>2020-12-20T08:53:17.482000+00:00</time>
      </trkpt>
      <trkpt lat="0" lon="0">
        <time>2020-12-20T08:53:17.488000+00:00</time>
      </trkpt>
      <trkpt lat="47.33392" lon="-1.28842">
        <ele>71</ele>
        <time>2020-12-20T08:53:18.463000+00:00</time>
      </trkpt>
      <trkpt lat="0" lon="0">
        <time>2020-12-20T08:53:18.487000+00:00</time>
      </trkpt>
      <trkpt lat="0" lon="0">
        <time>2020-12-20T08:53:18.492000+00:00</time>
      </trkpt>
      <trkpt lat="0" lon="0">
        <time>2020-12-20T08:53:18.495000+00:00</time>
      </trkpt>
      <trkpt lat="47.33394" lon="-1.28837">
        <ele>71</ele>
        <time>2020-12-20T08:53:19.495000+00:00</time>
      </trkpt>
      <trkpt lat="0" lon="0">
        <time>2020-12-20T08:53:19.514000+00:00</time>
      </trkpt>
      <trkpt lat="0" lon="0">
        <time>2020-12-20T08:53:19.518000+00:00</time>
      </trkpt>
      <trkpt lat="0" lon="0">
        <time>2020-12-20T08:53:19.520000+00:00</time>
      </trkpt>
      <trkpt lat="47.33396" lon="-1.28832">
        <ele>71</ele>
        <time>2020-12-20T08:53:20.462000+00:00</time>
      </trkpt>
      <trkpt lat="0" lon="0">
        <time>2020-12-20T08:53:20.475000+00:00</time>
      </trkpt>
      <trkpt lat="0" lon="0">
        <time>2020-12-20T08:53:20.480000+00:00</time>
      </trkpt>
      <trkpt lat="0" lon="0">
        <time>2020-12-20T08:53:20.483000+00:00</time>
      </trkpt>
      <trkpt lat="47.33397" lon="-1.28828">
        <ele>71</ele>
        <time>2020-12-20T08:53:21.485000+00:00</time>
      </trkpt>
      <trkpt lat="0" lon="0">
        <time>2020-12-20T08:53:21.492000+00:00</time>
      </trkpt>
      <trkpt lat="0" lon="0">
        <time>2020-12-20T08:53:21.496000+00:00</time>
      </trkpt>
      <trkpt lat="0" lon="0">
        <time>2020-12-20T08:53:21.499000+00:00</time>
      </trkpt>
      <trkpt lat="47.33399" lon="-1.28823">
        <ele>71</ele>
        <time>2020-12-20T08:53:22.456000+00:00</time>
      </trkpt>
      <trkpt lat="0" lon="0">
        <time>2020-12-20T08:53:22.468000+00:00</time>
      </trkpt>
      <trkpt lat="0" lon="0">
        <time>2020-12-20T08:53:22.470000+00:00</time>
      </trkpt>
      <trkpt lat="0" lon="0">
        <time>2020-12-20T08:53:22.471000+00:00</time>
      </trkpt>
      <trkpt lat="47.33401" lon="-1.28819">
        <ele>71</ele>
        <time>2020-12-20T08:53:23.478000+00:00</time>
      </trkpt>
      <trkpt lat="0" lon="0">
        <time>2020-12-20T08:53:23.495000+00:00</time>
      </trkpt>
      <trkpt lat="0" lon="0">
        <time>2020-12-20T08:53:23.499000+00:00</time>
      </trkpt>
      <trkpt lat="0" lon="0">
        <time>2020-12-20T08:53:23.502000+00:00</time>
      </trkpt>
      <trkpt lat="47.33403" lon="-1.28815">
        <ele>71</ele>
        <time>2020-12-20T08:53:24.479000+00:00</time>
      </trkpt>
      <trkpt lat="0" lon="0">
        <time>2020-12-20T08:53:24.493000+00:00</time>
      </trkpt>
      <trkpt lat="0" lon="0">
        <time>2020-12-20T08:53:24.499000+00:00</time>
      </trkpt>
      <trkpt lat="0" lon="0">
        <time>2020-12-20T08:53:24.503000+00:00</time>
      </trkpt>
      <trkpt lat="47.33405" lon="-1.2881">
        <ele>70</ele>
        <time>2020-12-20T08:53:25.478000+00:00</time>
      </trkpt>
      <trkpt lat="0" lon="0">
        <time>2020-12-20T08:53:25.486000+00:00</time>
      </trkpt>
      <trkpt lat="0" lon="0">
        <time>2020-12-20T08:53:25.492000+00:00</time>
      </trkpt>
      <trkpt lat="0" lon="0">
        <time>2020-12-20T08:53:25.496000+00:00</time>
      </trkpt>
      <trkpt lat="47.33407" lon="-1.28806">
        <ele>70</ele>
        <time>2020-12-20T08:53:26.477000+00:00</time>
      </trkpt>
      <trkpt lat="0" lon="0">
        <time>2020-12-20T08:53:26.498000+00:00</time>
      </trkpt>
      <trkpt lat="0" lon="0">
        <time>2020-12-20T08:53:26.502000+00:00</time>
      </trkpt>
      <trkpt lat="0" lon="0">
        <time>2020-12-20T08:53:26.505000+00:00</time>
      </trkpt>
      <trkpt lat="47.3341" lon="-1.28802">
        <ele>71</ele>
        <time>2020-12-20T08:53:27.497000+00:00</time>
      </trkpt>
      <trkpt lat="0" lon="0">
        <time>2020-12-20T08:53:27.507000+00:00</time>
      </trkpt>
      <trkpt lat="0" lon="0">
        <time>2020-12-20T08:53:27.510000+00:00</time>
      </trkpt>
      <trkpt lat="0" lon="0">
        <time>2020-12-20T08:53:27.513000+00:00</time>
      </trkpt>
      <trkpt lat="47.33412" lon="-1.28798">
        <ele>71</ele>
        <time>2020-12-20T08:53:28.464000+00:00</time>
      </trkpt>
      <trkpt lat="0" lon="0">
        <time>2020-12-20T08:53:28.468000+00:00</time>
      </trkpt>
      <trkpt lat="0" lon="0">
        <time>2020-12-20T08:53:28.474000+00:00</time>
      </trkpt>
      <trkpt lat="0" lon="0">
        <time>2020-12-20T08:53:28.478000+00:00</time>
      </trkpt>
      <trkpt lat="47.33414" lon="-1.28795">
        <ele>71</ele>
        <time>2020-12-20T08:53:29.470000+00:00</time>
      </trkpt>
      <trkpt lat="0" lon="0">
        <time>2020-12-20T08:53:29.483000+00:00</time>
      </trkpt>
      <trkpt lat="0" lon="0">
        <time>2020-12-20T08:53:29.487000+00:00</time>
      </trkpt>
      <trkpt lat="0" lon="0">
        <time>2020-12-20T08:53:29.492000+00:00</time>
      </trkpt>
      <trkpt lat="47.33416" lon="-1.28791">
        <ele>71</ele>
        <time>2020-12-20T08:53:30.454000+00:00</time>
      </trkpt>
      <trkpt lat="0" lon="0">
        <time>2020-12-20T08:53:30.480000+00:00</time>
      </trkpt>
      <trkpt lat="0" lon="0">
        <time>2020-12-20T08:53:30.485000+00:00</time>
      </trkpt>
      <trkpt lat="0" lon="0">
        <time>2020-12-20T08:53:30.490000+00:00</time>
      </trkpt>
      <trkpt lat="47.33418" lon="-1.28787">
        <ele>71</ele>
        <time>2020-12-20T08:53:31.472000+00:00</time>
      </trkpt>
      <trkpt lat="0" lon="0">
        <time>2020-12-20T08:53:31.479000+00:00</time>
      </trkpt>
      <trkpt lat="0" lon="0">
        <time>2020-12-20T08:53:31.484000+00:00</time>
      </trkpt>
      <trkpt lat="0" lon="0">
        <time>2020-12-20T08:53:31.486000+00:00</time>
      </trkpt>
      <trkpt lat="47.3342" lon="-1.28783">
        <ele>71</ele>
        <time>2020-12-20T08:53:32.472000+00:00</time>
      </trkpt>
      <trkpt lat="0" lon="0">
        <time>2020-12-20T08:53:32.498000+00:00</time>
      </trkpt>
      <trkpt lat="0" lon="0">
        <time>2020-12-20T08:53:32.505000+00:00</time>
      </trkpt>
      <trkpt lat="0" lon="0">
        <time>2020-12-20T08:53:32.507000+00:00</time>
      </trkpt>
      <trkpt lat="47.33422" lon="-1.28779">
        <ele>71</ele>
        <time>2020-12-20T08:53:33.487000+00:00</time>
      </trkpt>
      <trkpt lat="0" lon="0">
        <time>2020-12-20T08:53:33.502000+00:00</time>
      </trkpt>
      <trkpt lat="0" lon="0">
        <time>2020-12-20T08:53:33.511000+00:00</time>
      </trkpt>
      <trkpt lat="0" lon="0">
        <time>2020-12-20T08:53:33.514000+00:00</time>
      </trkpt>
      <trkpt lat="47.33424" lon="-1.28775">
        <ele>71</ele>
        <time>2020-12-20T08:53:34.458000+00:00</time>
      </trkpt>
      <trkpt lat="0" lon="0">
        <time>2020-12-20T08:53:34.460000+00:00</time>
      </trkpt>
      <trkpt lat="0" lon="0">
        <time>2020-12-20T08:53:34.462000+00:00</time>
      </trkpt>
      <trkpt lat="0" lon="0">
        <time>2020-12-20T08:53:34.463000+00:00</time>
      </trkpt>
      <trkpt lat="47.33426" lon="-1.28772">
        <ele>71</ele>
        <time>2020-12-20T08:53:35.462000+00:00</time>
      </trkpt>
      <trkpt lat="0" lon="0">
        <time>2020-12-20T08:53:35.478000+00:00</time>
      </trkpt>
      <trkpt lat="0" lon="0">
        <time>2020-12-20T08:53:35.483000+00:00</time>
      </trkpt>
      <trkpt lat="0" lon="0">
        <time>2020-12-20T08:53:35.486000+00:00</time>
      </trkpt>
      <trkpt lat="47.33427" lon="-1.28768">
        <ele>71</ele>
        <time>2020-12-20T08:53:36.471000+00:00</time>
      </trkpt>
      <trkpt lat="0" lon="0">
        <time>2020-12-20T08:53:36.477000+00:00</time>
      </trkpt>
      <trkpt lat="0" lon="0">
        <time>2020-12-20T08:53:36.490000+00:00</time>
      </trkpt>
      <trkpt lat="0" lon="0">
        <time>2020-12-20T08:53:36.492000+00:00</time>
      </trkpt>
      <trkpt lat="47.3343" lon="-1.28765">
        <ele>71</ele>
        <time>2020-12-20T08:53:37.471000+00:00</time>
      </trkpt>
      <trkpt lat="0" lon="0">
        <time>2020-12-20T08:53:37.482000+00:00</time>
      </trkpt>
      <trkpt lat="0" lon="0">
        <time>2020-12-20T08:53:37.493000+00:00</time>
      </trkpt>
      <trkpt lat="0" lon="0">
        <time>2020-12-20T08:53:37.500000+00:00</time>
      </trkpt>
      <trkpt lat="47.33432" lon="-1.28762">
        <ele>71</ele>
        <time>2020-12-20T08:53:38.458000+00:00</time>
      </trkpt>
      <trkpt lat="0" lon="0">
        <time>2020-12-20T08:53:38.462000+00:00</time>
      </trkpt>
      <trkpt lat="0" lon="0">
        <time>2020-12-20T08:53:38.467000+00:00</time>
      </trkpt>
      <trkpt lat="0" lon="0">
        <time>2020-12-20T08:53:38.469000+00:00</time>
      </trkpt>
      <trkpt lat="47.33434" lon="-1.28759">
        <ele>71</ele>
        <time>2020-12-20T08:53:39.458000+00:00</time>
      </trkpt>
      <trkpt lat="0" lon="0">
        <time>2020-12-20T08:53:39.471000+00:00</time>
      </trkpt>
      <trkpt lat="0" lon="0">
        <time>2020-12-20T08:53:39.475000+00:00</time>
      </trkpt>
      <trkpt lat="0" lon="0">
        <time>2020-12-20T08:53:39.481000+00:00</time>
      </trkpt>
      <trkpt lat="47.33437" lon="-1.28756">
        <ele>71</ele>
        <time>2020-12-20T08:53:40.464000+00:00</time>
      </trkpt>
      <trkpt lat="0" lon="0">
        <time>2020-12-20T08:53:40.470000+00:00</time>
      </trkpt>
      <trkpt lat="0" lon="0">
        <time>2020-12-20T08:53:40.472000+00:00</time>
      </trkpt>
      <trkpt lat="0" lon="0">
        <time>2020-12-20T08:53:40.474000+00:00</time>
      </trkpt>
      <trkpt lat="47.3344" lon="-1.28752">
        <ele>71</ele>
        <time>2020-12-20T08:53:41.501000+00:00</time>
      </trkpt>
      <trkpt lat="0" lon="0">
        <time>2020-12-20T08:53:41.517000+00:00</time>
      </trkpt>
      <trkpt lat="0" lon="0">
        <time>2020-12-20T08:53:41.526000+00:00</time>
      </trkpt>
      <trkpt lat="0" lon="0">
        <time>2020-12-20T08:53:41.529000+00:00</time>
      </trkpt>
      <trkpt lat="47.33442" lon="-1.28749">
        <ele>71</ele>
        <time>2020-12-20T08:53:42.463000+00:00</time>
      </trkpt>
      <trkpt lat="0" lon="0">
        <time>2020-12-20T08:53:42.472000+00:00</time>
      </trkpt>
      <trkpt lat="0" lon="0">
        <time>2020-12-20T08:53:42.476000+00:00</time>
      </trkpt>
      <trkpt lat="0" lon="0">
        <time>2020-12-20T08:53:42.478000+00:00</time>
      </trkpt>
      <trkpt lat="47.33445" lon="-1.28745">
        <ele>71</ele>
        <time>2020-12-20T08:53:43.455000+00:00</time>
      </trkpt>
      <trkpt lat="0" lon="0">
        <time>2020-12-20T08:53:43.462000+00:00</time>
      </trkpt>
      <trkpt lat="0" lon="0">
        <time>2020-12-20T08:53:43.469000+00:00</time>
      </trkpt>
      <trkpt lat="0" lon="0">
        <time>2020-12-20T08:53:43.473000+00:00</time>
      </trkpt>
      <trkpt lat="47.33446" lon="-1.28741">
        <ele>71</ele>
        <time>2020-12-20T08:53:44.425000+00:00</time>
      </trkpt>
      <trkpt lat="0" lon="0">
        <time>2020-12-20T08:53:44.432000+00:00</time>
      </trkpt>
      <trkpt lat="0" lon="0">
        <time>2020-12-20T08:53:44.436000+00:00</time>
      </trkpt>
      <trkpt lat="0" lon="0">
        <time>2020-12-20T08:53:44.439000+00:00</time>
      </trkpt>
      <trkpt lat="47.33448" lon="-1.28737">
        <ele>71</ele>
        <time>2020-12-20T08:53:45.456000+00:00</time>
      </trkpt>
      <trkpt lat="0" lon="0">
        <time>2020-12-20T08:53:45.470000+00:00</time>
      </trkpt>
      <trkpt lat="0" lon="0">
        <time>2020-12-20T08:53:45.477000+00:00</time>
      </trkpt>
      <trkpt lat="0" lon="0">
        <time>2020-12-20T08:53:45.480000+00:00</time>
      </trkpt>
      <trkpt lat="47.33449" lon="-1.28733">
        <ele>71</ele>
        <time>2020-12-20T08:53:46.491000+00:00</time>
      </trkpt>
      <trkpt lat="0" lon="0">
        <time>2020-12-20T08:53:46.500000+00:00</time>
      </trkpt>
      <trkpt lat="0" lon="0">
        <time>2020-12-20T08:53:46.503000+00:00</time>
      </trkpt>
      <trkpt lat="0" lon="0">
        <time>2020-12-20T08:53:46.506000+00:00</time>
      </trkpt>
      <trkpt lat="47.3345" lon="-1.28729">
        <ele>71</ele>
        <time>2020-12-20T08:53:47.470000+00:00</time>
      </trkpt>
      <trkpt lat="0" lon="0">
        <time>2020-12-20T08:53:47.480000+00:00</time>
      </trkpt>
      <trkpt lat="0" lon="0">
        <time>2020-12-20T08:53:47.492000+00:00</time>
      </trkpt>
      <trkpt lat="0" lon="0">
        <time>2020-12-20T08:53:47.499000+00:00</time>
      </trkpt>
      <trkpt lat="47.33451" lon="-1.28725">
        <ele>71</ele>
        <time>2020-12-20T08:53:48.445000+00:00</time>
      </trkpt>
      <trkpt lat="0" lon="0">
        <time>2020-12-20T08:53:48.454000+00:00</time>
      </trkpt>
      <trkpt lat="0" lon="0">
        <time>2020-12-20T08:53:48.458000+00:00</time>
      </trkpt>
      <trkpt lat="0" lon="0">
        <time>2020-12-20T08:53:48.460000+00:00</time>
      </trkpt>
      <trkpt lat="47.33452" lon="-1.28722">
        <ele>71</ele>
        <time>2020-12-20T08:53:49.455000+00:00</time>
      </trkpt>
      <trkpt lat="0" lon="0">
        <time>2020-12-20T08:53:49.457000+00:00</time>
      </trkpt>
      <trkpt lat="0" lon="0">
        <time>2020-12-20T08:53:49.460000+00:00</time>
      </trkpt>
      <trkpt lat="0" lon="0">
        <time>2020-12-20T08:53:49.461000+00:00</time>
      </trkpt>
      <trkpt lat="47.33453" lon="-1.28718">
        <ele>71</ele>
        <time>2020-12-20T08:53:50.434000+00:00</time>
      </trkpt>
      <trkpt lat="0" lon="0">
        <time>2020-12-20T08:53:50.452000+00:00</time>
      </trkpt>
      <trkpt lat="0" lon="0">
        <time>2020-12-20T08:53:50.457000+00:00</time>
      </trkpt>
      <trkpt lat="0" lon="0">
        <time>2020-12-20T08:53:50.460000+00:00</time>
      </trkpt>
      <trkpt lat="47.33453" lon="-1.28715">
        <ele>71</ele>
        <time>2020-12-20T08:53:51.439000+00:00</time>
      </trkpt>
      <trkpt lat="0" lon="0">
        <time>2020-12-20T08:53:51.447000+00:00</time>
      </trkpt>
      <trkpt lat="0" lon="0">
        <time>2020-12-20T08:53:51.449000+00:00</time>
      </trkpt>
      <trkpt lat="0" lon="0">
        <time>2020-12-20T08:53:51.450000+00:00</time>
      </trkpt>
      <trkpt lat="47.33453" lon="-1.28712">
        <ele>71</ele>
        <time>2020-12-20T08:53:52.460000+00:00</time>
      </trkpt>
      <trkpt lat="0" lon="0">
        <time>2020-12-20T08:53:52.473000+00:00</time>
      </trkpt>
      <trkpt lat="0" lon="0">
        <time>2020-12-20T08:53:52.478000+00:00</time>
      </trkpt>
      <trkpt lat="0" lon="0">
        <time>2020-12-20T08:53:52.480000+00:00</time>
      </trkpt>
      <trkpt lat="47.33454" lon="-1.28709">
        <ele>71</ele>
        <time>2020-12-20T08:53:53.498000+00:00</time>
      </trkpt>
      <trkpt lat="0" lon="0">
        <time>2020-12-20T08:53:53.505000+00:00</time>
      </trkpt>
      <trkpt lat="0" lon="0">
        <time>2020-12-20T08:53:53.509000+00:00</time>
      </trkpt>
      <trkpt lat="0" lon="0">
        <time>2020-12-20T08:53:53.511000+00:00</time>
      </trkpt>
      <trkpt lat="47.33454" lon="-1.28705">
        <ele>71</ele>
        <time>2020-12-20T08:53:54.415000+00:00</time>
      </trkpt>
      <trkpt lat="0" lon="0">
        <time>2020-12-20T08:53:54.426000+00:00</time>
      </trkpt>
      <trkpt lat="0" lon="0">
        <time>2020-12-20T08:53:54.437000+00:00</time>
      </trkpt>
      <trkpt lat="0" lon="0">
        <time>2020-12-20T08:53:54.443000+00:00</time>
      </trkpt>
      <trkpt lat="47.33455" lon="-1.28702">
        <ele>71</ele>
        <time>2020-12-20T08:53:55.457000+00:00</time>
      </trkpt>
      <trkpt lat="0" lon="0">
        <time>2020-12-20T08:53:55.471000+00:00</time>
      </trkpt>
      <trkpt lat="0" lon="0">
        <time>2020-12-20T08:53:55.476000+00:00</time>
      </trkpt>
      <trkpt lat="0" lon="0">
        <time>2020-12-20T08:53:55.479000+00:00</time>
      </trkpt>
      <trkpt lat="47.33455" lon="-1.28699">
        <ele>71</ele>
        <time>2020-12-20T08:53:56.475000+00:00</time>
      </trkpt>
      <trkpt lat="0" lon="0">
        <time>2020-12-20T08:53:56.486000+00:00</time>
      </trkpt>
      <trkpt lat="0" lon="0">
        <time>2020-12-20T08:53:56.499000+00:00</time>
      </trkpt>
      <trkpt lat="0" lon="0">
        <time>2020-12-20T08:53:56.501000+00:00</time>
      </trkpt>
      <trkpt lat="47.33456" lon="-1.28695">
        <ele>71</ele>
        <time>2020-12-20T08:53:57.459000+00:00</time>
      </trkpt>
      <trkpt lat="0" lon="0">
        <time>2020-12-20T08:53:57.461000+00:00</time>
      </trkpt>
      <trkpt lat="0" lon="0">
        <time>2020-12-20T08:53:57.462000+00:00</time>
      </trkpt>
      <trkpt lat="0" lon="0">
        <time>2020-12-20T08:53:57.463000+00:00</time>
      </trkpt>
      <trkpt lat="47.33456" lon="-1.28691">
        <ele>71</ele>
        <time>2020-12-20T08:53:58.483000+00:00</time>
      </trkpt>
      <trkpt lat="0" lon="0">
        <time>2020-12-20T08:53:58.498000+00:00</time>
      </trkpt>
      <trkpt lat="0" lon="0">
        <time>2020-12-20T08:53:58.503000+00:00</time>
      </trkpt>
      <trkpt lat="0" lon="0">
        <time>2020-12-20T08:53:58.505000+00:00</time>
      </trkpt>
      <trkpt lat="47.33457" lon="-1.28688">
        <ele>71</ele>
        <time>2020-12-20T08:53:59.480000+00:00</time>
      </trkpt>
      <trkpt lat="0" lon="0">
        <time>2020-12-20T08:53:59.490000+00:00</time>
      </trkpt>
      <trkpt lat="0" lon="0">
        <time>2020-12-20T08:53:59.498000+00:00</time>
      </trkpt>
      <trkpt lat="0" lon="0">
        <time>2020-12-20T08:53:59.500000+00:00</time>
      </trkpt>
      <trkpt lat="47.33458" lon="-1.28684">
        <ele>71</ele>
        <time>2020-12-20T08:54:00.484000+00:00</time>
      </trkpt>
      <trkpt lat="0" lon="0">
        <time>2020-12-20T08:54:00.501000+00:00</time>
      </trkpt>
      <trkpt lat="0" lon="0">
        <time>2020-12-20T08:54:00.509000+00:00</time>
      </trkpt>
      <trkpt lat="0" lon="0">
        <time>2020-12-20T08:54:00.511000+00:00</time>
      </trkpt>
      <trkpt lat="47.33458" lon="-1.2868">
        <ele>71</ele>
        <time>2020-12-20T08:54:01.499000+00:00</time>
      </trkpt>
      <trkpt lat="0" lon="0">
        <time>2020-12-20T08:54:01.517000+00:00</time>
      </trkpt>
      <trkpt lat="0" lon="0">
        <time>2020-12-20T08:54:01.524000+00:00</time>
      </trkpt>
      <trkpt lat="0" lon="0">
        <time>2020-12-20T08:54:01.526000+00:00</time>
      </trkpt>
      <trkpt lat="47.33459" lon="-1.28676">
        <ele>72</ele>
        <time>2020-12-20T08:54:02.459000+00:00</time>
      </trkpt>
      <trkpt lat="0" lon="0">
        <time>2020-12-20T08:54:02.471000+00:00</time>
      </trkpt>
      <trkpt lat="0" lon="0">
        <time>2020-12-20T08:54:02.482000+00:00</time>
      </trkpt>
      <trkpt lat="0" lon="0">
        <time>2020-12-20T08:54:02.485000+00:00</time>
      </trkpt>
      <trkpt lat="47.3346" lon="-1.28673">
        <ele>72</ele>
        <time>2020-12-20T08:54:03.449000+00:00</time>
      </trkpt>
      <trkpt lat="0" lon="0">
        <time>2020-12-20T08:54:03.453000+00:00</time>
      </trkpt>
      <trkpt lat="0" lon="0">
        <time>2020-12-20T08:54:03.457000+00:00</time>
      </trkpt>
      <trkpt lat="0" lon="0">
        <time>2020-12-20T08:54:03.460000+00:00</time>
      </trkpt>
      <trkpt lat="47.33461" lon="-1.28669">
        <ele>72</ele>
        <time>2020-12-20T08:54:04.462000+00:00</time>
      </trkpt>
      <trkpt lat="0" lon="0">
        <time>2020-12-20T08:54:04.474000+00:00</time>
      </trkpt>
      <trkpt lat="0" lon="0">
        <time>2020-12-20T08:54:04.479000+00:00</time>
      </trkpt>
      <trkpt lat="0" lon="0">
        <time>2020-12-20T08:54:04.484000+00:00</time>
      </trkpt>
      <trkpt lat="47.33463" lon="-1.28666">
        <ele>73</ele>
        <time>2020-12-20T08:54:05.478000+00:00</time>
      </trkpt>
      <trkpt lat="0" lon="0">
        <time>2020-12-20T08:54:05.488000+00:00</time>
      </trkpt>
      <trkpt lat="0" lon="0">
        <time>2020-12-20T08:54:05.508000+00:00</time>
      </trkpt>
      <trkpt lat="0" lon="0">
        <time>2020-12-20T08:54:05.511000+00:00</time>
      </trkpt>
      <trkpt lat="47.33464" lon="-1.28663">
        <ele>73</ele>
        <time>2020-12-20T08:54:06.467000+00:00</time>
      </trkpt>
      <trkpt lat="0" lon="0">
        <time>2020-12-20T08:54:06.478000+00:00</time>
      </trkpt>
      <trkpt lat="0" lon="0">
        <time>2020-12-20T08:54:06.481000+00:00</time>
      </trkpt>
      <trkpt lat="0" lon="0">
        <time>2020-12-20T08:54:06.483000+00:00</time>
      </trkpt>
      <trkpt lat="47.33465" lon="-1.28661">
        <ele>73</ele>
        <time>2020-12-20T08:54:07.483000+00:00</time>
      </trkpt>
      <trkpt lat="0" lon="0">
        <time>2020-12-20T08:54:07.498000+00:00</time>
      </trkpt>
      <trkpt lat="0" lon="0">
        <time>2020-12-20T08:54:07.502000+00:00</time>
      </trkpt>
      <trkpt lat="0" lon="0">
        <time>2020-12-20T08:54:07.505000+00:00</time>
      </trkpt>
      <trkpt lat="47.33466" lon="-1.28658">
        <ele>74</ele>
        <time>2020-12-20T08:54:08.479000+00:00</time>
      </trkpt>
      <trkpt lat="0" lon="0">
        <time>2020-12-20T08:54:08.488000+00:00</time>
      </trkpt>
      <trkpt lat="0" lon="0">
        <time>2020-12-20T08:54:08.493000+00:00</time>
      </trkpt>
      <trkpt lat="0" lon="0">
        <time>2020-12-20T08:54:08.495000+00:00</time>
      </trkpt>
      <trkpt lat="47.33467" lon="-1.28656">
        <ele>74</ele>
        <time>2020-12-20T08:54:09.467000+00:00</time>
      </trkpt>
      <trkpt lat="0" lon="0">
        <time>2020-12-20T08:54:09.474000+00:00</time>
      </trkpt>
      <trkpt lat="0" lon="0">
        <time>2020-12-20T08:54:09.476000+00:00</time>
      </trkpt>
      <trkpt lat="0" lon="0">
        <time>2020-12-20T08:54:09.478000+00:00</time>
      </trkpt>
      <trkpt lat="47.33468" lon="-1.28653">
        <ele>75</ele>
        <time>2020-12-20T08:54:10.436000+00:00</time>
      </trkpt>
      <trkpt lat="0" lon="0">
        <time>2020-12-20T08:54:10.444000+00:00</time>
      </trkpt>
      <trkpt lat="0" lon="0">
        <time>2020-12-20T08:54:10.450000+00:00</time>
      </trkpt>
      <trkpt lat="0" lon="0">
        <time>2020-12-20T08:54:10.452000+00:00</time>
      </trkpt>
      <trkpt lat="47.33468" lon="-1.28651">
        <ele>75</ele>
        <time>2020-12-20T08:54:11.454000+00:00</time>
      </trkpt>
      <trkpt lat="0" lon="0">
        <time>2020-12-20T08:54:11.469000+00:00</time>
      </trkpt>
      <trkpt lat="0" lon="0">
        <time>2020-12-20T08:54:11.478000+00:00</time>
      </trkpt>
      <trkpt lat="0" lon="0">
        <time>2020-12-20T08:54:11.482000+00:00</time>
      </trkpt>
      <trkpt lat="47.33468" lon="-1.2865">
        <ele>76</ele>
        <time>2020-12-20T08:54:12.461000+00:00</time>
      </trkpt>
      <trkpt lat="0" lon="0">
        <time>2020-12-20T08:54:12.478000+00:00</time>
      </trkpt>
      <trkpt lat="0" lon="0">
        <time>2020-12-20T08:54:12.487000+00:00</time>
      </trkpt>
      <trkpt lat="0" lon="0">
        <time>2020-12-20T08:54:12.492000+00:00</time>
      </trkpt>
      <trkpt lat="47.33469" lon="-1.28648">
        <ele>76</ele>
        <time>2020-12-20T08:54:13.507000+00:00</time>
      </trkpt>
      <trkpt lat="0" lon="0">
        <time>2020-12-20T08:54:13.520000+00:00</time>
      </trkpt>
      <trkpt lat="0" lon="0">
        <time>2020-12-20T08:54:13.523000+00:00</time>
      </trkpt>
      <trkpt lat="0" lon="0">
        <time>2020-12-20T08:54:13.526000+00:00</time>
      </trkpt>
      <trkpt lat="47.3347" lon="-1.28647">
        <ele>76</ele>
        <time>2020-12-20T08:54:14.412000+00:00</time>
      </trkpt>
      <trkpt lat="0" lon="0">
        <time>2020-12-20T08:54:14.416000+00:00</time>
      </trkpt>
      <trkpt lat="0" lon="0">
        <time>2020-12-20T08:54:14.429000+00:00</time>
      </trkpt>
      <trkpt lat="0" lon="0">
        <time>2020-12-20T08:54:14.431000+00:00</time>
      </trkpt>
      <trkpt lat="47.33471" lon="-1.28645">
        <ele>77</ele>
        <time>2020-12-20T08:54:15.444000+00:00</time>
      </trkpt>
      <trkpt lat="0" lon="0">
        <time>2020-12-20T08:54:15.454000+00:00</time>
      </trkpt>
      <trkpt lat="0" lon="0">
        <time>2020-12-20T08:54:15.459000+00:00</time>
      </trkpt>
      <trkpt lat="0" lon="0">
        <time>2020-12-20T08:54:15.461000+00:00</time>
      </trkpt>
      <trkpt lat="47.33472" lon="-1.28643">
        <ele>77</ele>
        <time>2020-12-20T08:54:16.479000+00:00</time>
      </trkpt>
      <trkpt lat="0" lon="0">
        <time>2020-12-20T08:54:16.488000+00:00</time>
      </trkpt>
      <trkpt lat="0" lon="0">
        <time>2020-12-20T08:54:16.493000+00:00</time>
      </trkpt>
      <trkpt lat="0" lon="0">
        <time>2020-12-20T08:54:16.495000+00:00</time>
      </trkpt>
      <trkpt lat="47.33472" lon="-1.2864">
        <ele>77</ele>
        <time>2020-12-20T08:54:17.474000+00:00</time>
      </trkpt>
      <trkpt lat="0" lon="0">
        <time>2020-12-20T08:54:17.481000+00:00</time>
      </trkpt>
      <trkpt lat="0" lon="0">
        <time>2020-12-20T08:54:17.490000+00:00</time>
      </trkpt>
      <trkpt lat="0" lon="0">
        <time>2020-12-20T08:54:17.497000+00:00</time>
      </trkpt>
      <trkpt lat="47.33473" lon="-1.28637">
        <ele>77</ele>
        <time>2020-12-20T08:54:18.476000+00:00</time>
      </trkpt>
      <trkpt lat="0" lon="0">
        <time>2020-12-20T08:54:18.501000+00:00</time>
      </trkpt>
      <trkpt lat="0" lon="0">
        <time>2020-12-20T08:54:18.507000+00:00</time>
      </trkpt>
      <trkpt lat="0" lon="0">
        <time>2020-12-20T08:54:18.509000+00:00</time>
      </trkpt>
      <trkpt lat="47.33474" lon="-1.28635">
        <ele>77</ele>
        <time>2020-12-20T08:54:19.463000+00:00</time>
      </trkpt>
      <trkpt lat="0" lon="0">
        <time>2020-12-20T08:54:19.484000+00:00</time>
      </trkpt>
      <trkpt lat="0" lon="0">
        <time>2020-12-20T08:54:19.488000+00:00</time>
      </trkpt>
      <trkpt lat="0" lon="0">
        <time>2020-12-20T08:54:19.493000+00:00</time>
      </trkpt>
      <trkpt lat="47.33475" lon="-1.28631">
        <ele>77</ele>
        <time>2020-12-20T08:54:20.440000+00:00</time>
      </trkpt>
      <trkpt lat="0" lon="0">
        <time>2020-12-20T08:54:20.444000+00:00</time>
      </trkpt>
      <trkpt lat="0" lon="0">
        <time>2020-12-20T08:54:20.464000+00:00</time>
      </trkpt>
      <trkpt lat="0" lon="0">
        <time>2020-12-20T08:54:20.466000+00:00</time>
      </trkpt>
      <trkpt lat="47.33477" lon="-1.28627">
        <ele>77</ele>
        <time>2020-12-20T08:54:21.467000+00:00</time>
      </trkpt>
      <trkpt lat="0" lon="0">
        <time>2020-12-20T08:54:21.473000+00:00</time>
      </trkpt>
      <trkpt lat="0" lon="0">
        <time>2020-12-20T08:54:21.479000+00:00</time>
      </trkpt>
      <trkpt lat="0" lon="0">
        <time>2020-12-20T08:54:21.482000+00:00</time>
      </trkpt>
      <trkpt lat="47.33478" lon="-1.28623">
        <ele>77</ele>
        <time>2020-12-20T08:54:22.453000+00:00</time>
      </trkpt>
      <trkpt lat="0" lon="0">
        <time>2020-12-20T08:54:22.473000+00:00</time>
      </trkpt>
      <trkpt lat="0" lon="0">
        <time>2020-12-20T08:54:22.476000+00:00</time>
      </trkpt>
      <trkpt lat="0" lon="0">
        <time>2020-12-20T08:54:22.478000+00:00</time>
      </trkpt>
      <trkpt lat="47.33479" lon="-1.28619">
        <ele>78</ele>
        <time>2020-12-20T08:54:23.482000+00:00</time>
      </trkpt>
      <trkpt lat="0" lon="0">
        <time>2020-12-20T08:54:23.495000+00:00</time>
      </trkpt>
      <trkpt lat="0" lon="0">
        <time>2020-12-20T08:54:23.504000+00:00</time>
      </trkpt>
      <trkpt lat="0" lon="0">
        <time>2020-12-20T08:54:23.508000+00:00</time>
      </trkpt>
      <trkpt lat="47.33481" lon="-1.28616">
        <ele>78</ele>
        <time>2020-12-20T08:54:24.509000+00:00</time>
      </trkpt>
      <trkpt lat="0" lon="0">
        <time>2020-12-20T08:54:24.518000+00:00</time>
      </trkpt>
      <trkpt lat="0" lon="0">
        <time>2020-12-20T08:54:24.523000+00:00</time>
      </trkpt>
      <trkpt lat="0" lon="0">
        <time>2020-12-20T08:54:24.526000+00:00</time>
      </trkpt>
      <trkpt lat="47.33482" lon="-1.28612">
        <ele>78</ele>
        <time>2020-12-20T08:54:25.455000+00:00</time>
      </trkpt>
      <trkpt lat="0" lon="0">
        <time>2020-12-20T08:54:25.488000+00:00</time>
      </trkpt>
      <trkpt lat="0" lon="0">
        <time>2020-12-20T08:54:25.494000+00:00</time>
      </trkpt>
      <trkpt lat="0" lon="0">
        <time>2020-12-20T08:54:25.495000+00:00</time>
      </trkpt>
      <trkpt lat="47.33484" lon="-1.28608">
        <ele>78</ele>
        <time>2020-12-20T08:54:26.475000+00:00</time>
      </trkpt>
      <trkpt lat="0" lon="0">
        <time>2020-12-20T08:54:26.483000+00:00</time>
      </trkpt>
      <trkpt lat="0" lon="0">
        <time>2020-12-20T08:54:26.490000+00:00</time>
      </trkpt>
      <trkpt lat="0" lon="0">
        <time>2020-12-20T08:54:26.494000+00:00</time>
      </trkpt>
      <trkpt lat="47.33486" lon="-1.28604">
        <ele>79</ele>
        <time>2020-12-20T08:54:27.477000+00:00</time>
      </trkpt>
      <trkpt lat="0" lon="0">
        <time>2020-12-20T08:54:27.486000+00:00</time>
      </trkpt>
      <trkpt lat="0" lon="0">
        <time>2020-12-20T08:54:27.494000+00:00</time>
      </trkpt>
      <trkpt lat="0" lon="0">
        <time>2020-12-20T08:54:27.496000+00:00</time>
      </trkpt>
      <trkpt lat="47.33487" lon="-1.286">
        <ele>79</ele>
        <time>2020-12-20T08:54:28.475000+00:00</time>
      </trkpt>
      <trkpt lat="0" lon="0">
        <time>2020-12-20T08:54:28.483000+00:00</time>
      </trkpt>
      <trkpt lat="0" lon="0">
        <time>2020-12-20T08:54:28.487000+00:00</time>
      </trkpt>
      <trkpt lat="0" lon="0">
        <time>2020-12-20T08:54:28.491000+00:00</time>
      </trkpt>
      <trkpt lat="47.33489" lon="-1.28596">
        <ele>79</ele>
        <time>2020-12-20T08:54:29.467000+00:00</time>
      </trkpt>
      <trkpt lat="0" lon="0">
        <time>2020-12-20T08:54:29.474000+00:00</time>
      </trkpt>
      <trkpt lat="0" lon="0">
        <time>2020-12-20T08:54:29.489000+00:00</time>
      </trkpt>
      <trkpt lat="0" lon="0">
        <time>2020-12-20T08:54:29.492000+00:00</time>
      </trkpt>
      <trkpt lat="47.3349" lon="-1.28592">
        <ele>80</ele>
        <time>2020-12-20T08:54:30.458000+00:00</time>
      </trkpt>
      <trkpt lat="0" lon="0">
        <time>2020-12-20T08:54:30.469000+00:00</time>
      </trkpt>
      <trkpt lat="0" lon="0">
        <time>2020-12-20T08:54:30.481000+00:00</time>
      </trkpt>
      <trkpt lat="0" lon="0">
        <time>2020-12-20T08:54:30.484000+00:00</time>
      </trkpt>
      <trkpt lat="47.33491" lon="-1.28588">
        <ele>80</ele>
        <time>2020-12-20T08:54:31.501000+00:00</time>
      </trkpt>
      <trkpt lat="0" lon="0">
        <time>2020-12-20T08:54:31.503000+00:00</time>
      </trkpt>
      <trkpt lat="0" lon="0">
        <time>2020-12-20T08:54:31.505000+00:00</time>
      </trkpt>
      <trkpt lat="0" lon="0">
        <time>2020-12-20T08:54:31.506000+00:00</time>
      </trkpt>
      <trkpt lat="47.33492" lon="-1.28584">
        <ele>80</ele>
        <time>2020-12-20T08:54:32.468000+00:00</time>
      </trkpt>
      <trkpt lat="0" lon="0">
        <time>2020-12-20T08:54:32.482000+00:00</time>
      </trkpt>
      <trkpt lat="0" lon="0">
        <time>2020-12-20T08:54:32.493000+00:00</time>
      </trkpt>
      <trkpt lat="0" lon="0">
        <time>2020-12-20T08:54:32.495000+00:00</time>
      </trkpt>
      <trkpt lat="47.33493" lon="-1.2858">
        <ele>81</ele>
        <time>2020-12-20T08:54:33.459000+00:00</time>
      </trkpt>
      <trkpt lat="0" lon="0">
        <time>2020-12-20T08:54:33.467000+00:00</time>
      </trkpt>
      <trkpt lat="0" lon="0">
        <time>2020-12-20T08:54:33.472000+00:00</time>
      </trkpt>
      <trkpt lat="0" lon="0">
        <time>2020-12-20T08:54:33.474000+00:00</time>
      </trkpt>
      <trkpt lat="47.33494" lon="-1.28576">
        <ele>81</ele>
        <time>2020-12-20T08:54:34.456000+00:00</time>
      </trkpt>
      <trkpt lat="0" lon="0">
        <time>2020-12-20T08:54:34.472000+00:00</time>
      </trkpt>
      <trkpt lat="0" lon="0">
        <time>2020-12-20T08:54:34.478000+00:00</time>
      </trkpt>
      <trkpt lat="0" lon="0">
        <time>2020-12-20T08:54:34.483000+00:00</time>
      </trkpt>
      <trkpt lat="47.33496" lon="-1.28572">
        <ele>81</ele>
        <time>2020-12-20T08:54:35.490000+00:00</time>
      </trkpt>
      <trkpt lat="0" lon="0">
        <time>2020-12-20T08:54:35.496000+00:00</time>
      </trkpt>
      <trkpt lat="0" lon="0">
        <time>2020-12-20T08:54:35.513000+00:00</time>
      </trkpt>
      <trkpt lat="0" lon="0">
        <time>2020-12-20T08:54:35.519000+00:00</time>
      </trkpt>
      <trkpt lat="47.33497" lon="-1.28568">
        <ele>81</ele>
        <time>2020-12-20T08:54:36.481000+00:00</time>
      </trkpt>
      <trkpt lat="0" lon="0">
        <time>2020-12-20T08:54:36.490000+00:00</time>
      </trkpt>
      <trkpt lat="0" lon="0">
        <time>2020-12-20T08:54:36.498000+00:00</time>
      </trkpt>
      <trkpt lat="0" lon="0">
        <time>2020-12-20T08:54:36.507000+00:00</time>
      </trkpt>
      <trkpt lat="47.33498" lon="-1.28564">
        <ele>81</ele>
        <time>2020-12-20T08:54:37.503000+00:00</time>
      </trkpt>
      <trkpt lat="0" lon="0">
        <time>2020-12-20T08:54:37.525000+00:00</time>
      </trkpt>
      <trkpt lat="0" lon="0">
        <time>2020-12-20T08:54:37.528000+00:00</time>
      </trkpt>
      <trkpt lat="0" lon="0">
        <time>2020-12-20T08:54:37.530000+00:00</time>
      </trkpt>
      <trkpt lat="47.33499" lon="-1.2856">
        <ele>81</ele>
        <time>2020-12-20T08:54:38.490000+00:00</time>
      </trkpt>
      <trkpt lat="0" lon="0">
        <time>2020-12-20T08:54:38.499000+00:00</time>
      </trkpt>
      <trkpt lat="0" lon="0">
        <time>2020-12-20T08:54:38.504000+00:00</time>
      </trkpt>
      <trkpt lat="0" lon="0">
        <time>2020-12-20T08:54:38.506000+00:00</time>
      </trkpt>
      <trkpt lat="47.33501" lon="-1.28556">
        <ele>82</ele>
        <time>2020-12-20T08:54:39.471000+00:00</time>
      </trkpt>
      <trkpt lat="0" lon="0">
        <time>2020-12-20T08:54:39.479000+00:00</time>
      </trkpt>
      <trkpt lat="0" lon="0">
        <time>2020-12-20T08:54:39.483000+00:00</time>
      </trkpt>
      <trkpt lat="0" lon="0">
        <time>2020-12-20T08:54:39.486000+00:00</time>
      </trkpt>
      <trkpt lat="47.33502" lon="-1.28552">
        <ele>82</ele>
        <time>2020-12-20T08:54:40.455000+00:00</time>
      </trkpt>
      <trkpt lat="0" lon="0">
        <time>2020-12-20T08:54:40.461000+00:00</time>
      </trkpt>
      <trkpt lat="0" lon="0">
        <time>2020-12-20T08:54:40.468000+00:00</time>
      </trkpt>
      <trkpt lat="0" lon="0">
        <time>2020-12-20T08:54:40.472000+00:00</time>
      </trkpt>
      <trkpt lat="47.33503" lon="-1.28548">
        <ele>82</ele>
        <time>2020-12-20T08:54:41.480000+00:00</time>
      </trkpt>
      <trkpt lat="0" lon="0">
        <time>2020-12-20T08:54:41.495000+00:00</time>
      </trkpt>
      <trkpt lat="0" lon="0">
        <time>2020-12-20T08:54:41.502000+00:00</time>
      </trkpt>
      <trkpt lat="0" lon="0">
        <time>2020-12-20T08:54:41.504000+00:00</time>
      </trkpt>
      <trkpt lat="47.33504" lon="-1.28543">
        <ele>82</ele>
        <time>2020-12-20T08:54:42.498000+00:00</time>
      </trkpt>
      <trkpt lat="0" lon="0">
        <time>2020-12-20T08:54:42.510000+00:00</time>
      </trkpt>
      <trkpt lat="0" lon="0">
        <time>2020-12-20T08:54:42.513000+00:00</time>
      </trkpt>
      <trkpt lat="0" lon="0">
        <time>2020-12-20T08:54:42.515000+00:00</time>
      </trkpt>
      <trkpt lat="47.33506" lon="-1.28539">
        <ele>82</ele>
        <time>2020-12-20T08:54:43.460000+00:00</time>
      </trkpt>
      <trkpt lat="0" lon="0">
        <time>2020-12-20T08:54:43.479000+00:00</time>
      </trkpt>
      <trkpt lat="0" lon="0">
        <time>2020-12-20T08:54:43.487000+00:00</time>
      </trkpt>
      <trkpt lat="0" lon="0">
        <time>2020-12-20T08:54:43.495000+00:00</time>
      </trkpt>
      <trkpt lat="47.33507" lon="-1.28534">
        <ele>83</ele>
        <time>2020-12-20T08:54:44.466000+00:00</time>
      </trkpt>
      <trkpt lat="0" lon="0">
        <time>2020-12-20T08:54:44.474000+00:00</time>
      </trkpt>
      <trkpt lat="0" lon="0">
        <time>2020-12-20T08:54:44.481000+00:00</time>
      </trkpt>
      <trkpt lat="0" lon="0">
        <time>2020-12-20T08:54:44.484000+00:00</time>
      </trkpt>
      <trkpt lat="47.33508" lon="-1.28529">
        <ele>83</ele>
        <time>2020-12-20T08:54:45.473000+00:00</time>
      </trkpt>
      <trkpt lat="0" lon="0">
        <time>2020-12-20T08:54:45.481000+00:00</time>
      </trkpt>
      <trkpt lat="0" lon="0">
        <time>2020-12-20T08:54:45.485000+00:00</time>
      </trkpt>
      <trkpt lat="0" lon="0">
        <time>2020-12-20T08:54:45.488000+00:00</time>
      </trkpt>
      <trkpt lat="47.3351" lon="-1.28525">
        <ele>84</ele>
        <time>2020-12-20T08:54:46.483000+00:00</time>
      </trkpt>
      <trkpt lat="0" lon="0">
        <time>2020-12-20T08:54:46.500000+00:00</time>
      </trkpt>
      <trkpt lat="0" lon="0">
        <time>2020-12-20T08:54:46.504000+00:00</time>
      </trkpt>
      <trkpt lat="0" lon="0">
        <time>2020-12-20T08:54:46.507000+00:00</time>
      </trkpt>
      <trkpt lat="47.33511" lon="-1.2852">
        <ele>84</ele>
        <time>2020-12-20T08:54:47.454000+00:00</time>
      </trkpt>
      <trkpt lat="0" lon="0">
        <time>2020-12-20T08:54:47.464000+00:00</time>
      </trkpt>
      <trkpt lat="0" lon="0">
        <time>2020-12-20T08:54:47.468000+00:00</time>
      </trkpt>
      <trkpt lat="0" lon="0">
        <time>2020-12-20T08:54:47.471000+00:00</time>
      </trkpt>
      <trkpt lat="47.33512" lon="-1.28515">
        <ele>85</ele>
        <time>2020-12-20T08:54:48.435000+00:00</time>
      </trkpt>
      <trkpt lat="0" lon="0">
        <time>2020-12-20T08:54:48.443000+00:00</time>
      </trkpt>
      <trkpt lat="0" lon="0">
        <time>2020-12-20T08:54:48.449000+00:00</time>
      </trkpt>
      <trkpt lat="0" lon="0">
        <time>2020-12-20T08:54:48.451000+00:00</time>
      </trkpt>
      <trkpt lat="47.33513" lon="-1.2851">
        <ele>85</ele>
        <time>2020-12-20T08:54:49.476000+00:00</time>
      </trkpt>
      <trkpt lat="0" lon="0">
        <time>2020-12-20T08:54:49.484000+00:00</time>
      </trkpt>
      <trkpt lat="0" lon="0">
        <time>2020-12-20T08:54:49.499000+00:00</time>
      </trkpt>
      <trkpt lat="0" lon="0">
        <time>2020-12-20T08:54:49.506000+00:00</time>
      </trkpt>
      <trkpt lat="47.33514" lon="-1.28505">
        <ele>86</ele>
        <time>2020-12-20T08:54:50.458000+00:00</time>
      </trkpt>
      <trkpt lat="0" lon="0">
        <time>2020-12-20T08:54:50.470000+00:00</time>
      </trkpt>
      <trkpt lat="0" lon="0">
        <time>2020-12-20T08:54:50.474000+00:00</time>
      </trkpt>
      <trkpt lat="0" lon="0">
        <time>2020-12-20T08:54:50.479000+00:00</time>
      </trkpt>
      <trkpt lat="47.33515" lon="-1.285">
        <ele>86</ele>
        <time>2020-12-20T08:54:51.466000+00:00</time>
      </trkpt>
      <trkpt lat="0" lon="0">
        <time>2020-12-20T08:54:51.488000+00:00</time>
      </trkpt>
      <trkpt lat="0" lon="0">
        <time>2020-12-20T08:54:51.495000+00:00</time>
      </trkpt>
      <trkpt lat="0" lon="0">
        <time>2020-12-20T08:54:51.498000+00:00</time>
      </trkpt>
      <trkpt lat="47.33516" lon="-1.28495">
        <ele>86</ele>
        <time>2020-12-20T08:54:52.471000+00:00</time>
      </trkpt>
      <trkpt lat="0" lon="0">
        <time>2020-12-20T08:54:52.485000+00:00</time>
      </trkpt>
      <trkpt lat="0" lon="0">
        <time>2020-12-20T08:54:52.491000+00:00</time>
      </trkpt>
      <trkpt lat="0" lon="0">
        <time>2020-12-20T08:54:52.493000+00:00</time>
      </trkpt>
      <trkpt lat="47.33517" lon="-1.2849">
        <ele>87</ele>
        <time>2020-12-20T08:54:53.459000+00:00</time>
      </trkpt>
      <trkpt lat="0" lon="0">
        <time>2020-12-20T08:54:53.474000+00:00</time>
      </trkpt>
      <trkpt lat="0" lon="0">
        <time>2020-12-20T08:54:53.479000+00:00</time>
      </trkpt>
      <trkpt lat="0" lon="0">
        <time>2020-12-20T08:54:53.485000+00:00</time>
      </trkpt>
      <trkpt lat="47.33518" lon="-1.28486">
        <ele>87</ele>
        <time>2020-12-20T08:54:54.518000+00:00</time>
      </trkpt>
      <trkpt lat="0" lon="0">
        <time>2020-12-20T08:54:54.528000+00:00</time>
      </trkpt>
      <trkpt lat="0" lon="0">
        <time>2020-12-20T08:54:54.530000+00:00</time>
      </trkpt>
      <trkpt lat="0" lon="0">
        <time>2020-12-20T08:54:54.532000+00:00</time>
      </trkpt>
      <trkpt lat="47.33519" lon="-1.28481">
        <ele>87</ele>
        <time>2020-12-20T08:54:55.482000+00:00</time>
      </trkpt>
      <trkpt lat="0" lon="0">
        <time>2020-12-20T08:54:55.487000+00:00</time>
      </trkpt>
      <trkpt lat="0" lon="0">
        <time>2020-12-20T08:54:55.495000+00:00</time>
      </trkpt>
      <trkpt lat="0" lon="0">
        <time>2020-12-20T08:54:55.497000+00:00</time>
      </trkpt>
      <trkpt lat="47.33521" lon="-1.28477">
        <ele>87</ele>
        <time>2020-12-20T08:54:56.457000+00:00</time>
      </trkpt>
      <trkpt lat="0" lon="0">
        <time>2020-12-20T08:54:56.479000+00:00</time>
      </trkpt>
      <trkpt lat="0" lon="0">
        <time>2020-12-20T08:54:56.499000+00:00</time>
      </trkpt>
      <trkpt lat="0" lon="0">
        <time>2020-12-20T08:54:56.502000+00:00</time>
      </trkpt>
      <trkpt lat="47.33522" lon="-1.28472">
        <ele>87</ele>
        <time>2020-12-20T08:54:57.459000+00:00</time>
      </trkpt>
      <trkpt lat="0" lon="0">
        <time>2020-12-20T08:54:57.462000+00:00</time>
      </trkpt>
      <trkpt lat="0" lon="0">
        <time>2020-12-20T08:54:57.464000+00:00</time>
      </trkpt>
      <trkpt lat="0" lon="0">
        <time>2020-12-20T08:54:57.466000+00:00</time>
      </trkpt>
      <trkpt lat="47.33523" lon="-1.28468">
        <ele>87</ele>
        <time>2020-12-20T08:54:58.436000+00:00</time>
      </trkpt>
      <trkpt lat="0" lon="0">
        <time>2020-12-20T08:54:58.442000+00:00</time>
      </trkpt>
      <trkpt lat="0" lon="0">
        <time>2020-12-20T08:54:58.449000+00:00</time>
      </trkpt>
      <trkpt lat="0" lon="0">
        <time>2020-12-20T08:54:58.452000+00:00</time>
      </trkpt>
      <trkpt lat="47.33524" lon="-1.28464">
        <ele>87</ele>
        <time>2020-12-20T08:54:59.405000+00:00</time>
      </trkpt>
      <trkpt lat="0" lon="0">
        <time>2020-12-20T08:54:59.418000+00:00</time>
      </trkpt>
      <trkpt lat="0" lon="0">
        <time>2020-12-20T08:54:59.421000+00:00</time>
      </trkpt>
      <trkpt lat="0" lon="0">
        <time>2020-12-20T08:54:59.424000+00:00</time>
      </trkpt>
      <trkpt lat="47.33525" lon="-1.28461">
        <ele>87</ele>
        <time>2020-12-20T08:55:00.457000+00:00</time>
      </trkpt>
      <trkpt lat="0" lon="0">
        <time>2020-12-20T08:55:00.472000+00:00</time>
      </trkpt>
      <trkpt lat="0" lon="0">
        <time>2020-12-20T08:55:00.480000+00:00</time>
      </trkpt>
      <trkpt lat="0" lon="0">
        <time>2020-12-20T08:55:00.484000+00:00</time>
      </trkpt>
      <trkpt lat="47.33526" lon="-1.28458">
        <ele>87</ele>
        <time>2020-12-20T08:55:01.410000+00:00</time>
      </trkpt>
      <trkpt lat="0" lon="0">
        <time>2020-12-20T08:55:01.414000+00:00</time>
      </trkpt>
      <trkpt lat="0" lon="0">
        <time>2020-12-20T08:55:01.419000+00:00</time>
      </trkpt>
      <trkpt lat="0" lon="0">
        <time>2020-12-20T08:55:01.421000+00:00</time>
      </trkpt>
      <trkpt lat="47.33527" lon="-1.28455">
        <ele>87</ele>
        <time>2020-12-20T08:55:02.461000+00:00</time>
      </trkpt>
      <trkpt lat="0" lon="0">
        <time>2020-12-20T08:55:02.477000+00:00</time>
      </trkpt>
      <trkpt lat="0" lon="0">
        <time>2020-12-20T08:55:02.481000+00:00</time>
      </trkpt>
      <trkpt lat="0" lon="0">
        <time>2020-12-20T08:55:02.483000+00:00</time>
      </trkpt>
      <trkpt lat="47.33528" lon="-1.28453">
        <ele>87</ele>
        <time>2020-12-20T08:55:03.465000+00:00</time>
      </trkpt>
      <trkpt lat="0" lon="0">
        <time>2020-12-20T08:55:03.482000+00:00</time>
      </trkpt>
      <trkpt lat="0" lon="0">
        <time>2020-12-20T08:55:03.486000+00:00</time>
      </trkpt>
      <trkpt lat="0" lon="0">
        <time>2020-12-20T08:55:03.488000+00:00</time>
      </trkpt>
      <trkpt lat="47.33529" lon="-1.2845">
        <ele>88</ele>
        <time>2020-12-20T08:55:04.462000+00:00</time>
      </trkpt>
      <trkpt lat="0" lon="0">
        <time>2020-12-20T08:55:04.468000+00:00</time>
      </trkpt>
      <trkpt lat="0" lon="0">
        <time>2020-12-20T08:55:04.471000+00:00</time>
      </trkpt>
      <trkpt lat="0" lon="0">
        <time>2020-12-20T08:55:04.477000+00:00</time>
      </trkpt>
      <trkpt lat="47.3353" lon="-1.28447">
        <ele>88</ele>
        <time>2020-12-20T08:55:05.468000+00:00</time>
      </trkpt>
      <trkpt lat="0" lon="0">
        <time>2020-12-20T08:55:05.476000+00:00</time>
      </trkpt>
      <trkpt lat="0" lon="0">
        <time>2020-12-20T08:55:05.483000+00:00</time>
      </trkpt>
      <trkpt lat="0" lon="0">
        <time>2020-12-20T08:55:05.486000+00:00</time>
      </trkpt>
      <trkpt lat="47.33531" lon="-1.28444">
        <ele>88</ele>
        <time>2020-12-20T08:55:06.441000+00:00</time>
      </trkpt>
      <trkpt lat="0" lon="0">
        <time>2020-12-20T08:55:06.458000+00:00</time>
      </trkpt>
      <trkpt lat="0" lon="0">
        <time>2020-12-20T08:55:06.463000+00:00</time>
      </trkpt>
      <trkpt lat="0" lon="0">
        <time>2020-12-20T08:55:06.465000+00:00</time>
      </trkpt>
      <trkpt lat="47.33531" lon="-1.28441">
        <ele>88</ele>
        <time>2020-12-20T08:55:07.473000+00:00</time>
      </trkpt>
      <trkpt lat="0" lon="0">
        <time>2020-12-20T08:55:07.479000+00:00</time>
      </trkpt>
      <trkpt lat="0" lon="0">
        <time>2020-12-20T08:55:07.484000+00:00</time>
      </trkpt>
      <trkpt lat="0" lon="0">
        <time>2020-12-20T08:55:07.489000+00:00</time>
      </trkpt>
      <trkpt lat="47.33532" lon="-1.28437">
        <ele>89</ele>
        <time>2020-12-20T08:55:08.446000+00:00</time>
      </trkpt>
      <trkpt lat="0" lon="0">
        <time>2020-12-20T08:55:08.461000+00:00</time>
      </trkpt>
      <trkpt lat="0" lon="0">
        <time>2020-12-20T08:55:08.469000+00:00</time>
      </trkpt>
      <trkpt lat="0" lon="0">
        <time>2020-12-20T08:55:08.472000+00:00</time>
      </trkpt>
      <trkpt lat="47.33533" lon="-1.28434">
        <ele>89</ele>
        <time>2020-12-20T08:55:09.434000+00:00</time>
      </trkpt>
      <trkpt lat="0" lon="0">
        <time>2020-12-20T08:55:09.440000+00:00</time>
      </trkpt>
      <trkpt lat="0" lon="0">
        <time>2020-12-20T08:55:09.447000+00:00</time>
      </trkpt>
      <trkpt lat="0" lon="0">
        <time>2020-12-20T08:55:09.454000+00:00</time>
      </trkpt>
      <trkpt lat="47.33535" lon="-1.2843">
        <ele>89</ele>
        <time>2020-12-20T08:55:10.449000+00:00</time>
      </trkpt>
      <trkpt lat="0" lon="0">
        <time>2020-12-20T08:55:10.460000+00:00</time>
      </trkpt>
      <trkpt lat="0" lon="0">
        <time>2020-12-20T08:55:10.468000+00:00</time>
      </trkpt>
      <trkpt lat="0" lon="0">
        <time>2020-12-20T08:55:10.471000+00:00</time>
      </trkpt>
      <trkpt lat="47.33536" lon="-1.28427">
        <ele>89</ele>
        <time>2020-12-20T08:55:11.441000+00:00</time>
      </trkpt>
      <trkpt lat="0" lon="0">
        <time>2020-12-20T08:55:11.455000+00:00</time>
      </trkpt>
      <trkpt lat="0" lon="0">
        <time>2020-12-20T08:55:11.461000+00:00</time>
      </trkpt>
      <trkpt lat="0" lon="0">
        <time>2020-12-20T08:55:11.463000+00:00</time>
      </trkpt>
      <trkpt lat="47.33538" lon="-1.28424">
        <ele>89</ele>
        <time>2020-12-20T08:55:12.455000+00:00</time>
      </trkpt>
      <trkpt lat="0" lon="0">
        <time>2020-12-20T08:55:12.469000+00:00</time>
      </trkpt>
      <trkpt lat="0" lon="0">
        <time>2020-12-20T08:55:12.479000+00:00</time>
      </trkpt>
      <trkpt lat="0" lon="0">
        <time>2020-12-20T08:55:12.481000+00:00</time>
      </trkpt>
      <trkpt lat="47.3354" lon="-1.2842">
        <ele>89</ele>
        <time>2020-12-20T08:55:13.456000+00:00</time>
      </trkpt>
      <trkpt lat="0" lon="0">
        <time>2020-12-20T08:55:13.471000+00:00</time>
      </trkpt>
      <trkpt lat="0" lon="0">
        <time>2020-12-20T08:55:13.475000+00:00</time>
      </trkpt>
      <trkpt lat="0" lon="0">
        <time>2020-12-20T08:55:13.478000+00:00</time>
      </trkpt>
      <trkpt lat="47.33542" lon="-1.28416">
        <ele>89</ele>
        <time>2020-12-20T08:55:14.483000+00:00</time>
      </trkpt>
      <trkpt lat="0" lon="0">
        <time>2020-12-20T08:55:14.489000+00:00</time>
      </trkpt>
      <trkpt lat="0" lon="0">
        <time>2020-12-20T08:55:14.495000+00:00</time>
      </trkpt>
      <trkpt lat="0" lon="0">
        <time>2020-12-20T08:55:14.498000+00:00</time>
      </trkpt>
      <trkpt lat="47.33543" lon="-1.28412">
        <ele>89</ele>
        <time>2020-12-20T08:55:15.465000+00:00</time>
      </trkpt>
      <trkpt lat="0" lon="0">
        <time>2020-12-20T08:55:15.481000+00:00</time>
      </trkpt>
      <trkpt lat="0" lon="0">
        <time>2020-12-20T08:55:15.486000+00:00</time>
      </trkpt>
      <trkpt lat="0" lon="0">
        <time>2020-12-20T08:55:15.490000+00:00</time>
      </trkpt>
      <trkpt lat="47.33545" lon="-1.28408">
        <ele>89</ele>
        <time>2020-12-20T08:55:16.488000+00:00</time>
      </trkpt>
      <trkpt lat="0" lon="0">
        <time>2020-12-20T08:55:16.492000+00:00</time>
      </trkpt>
      <trkpt lat="0" lon="0">
        <time>2020-12-20T08:55:16.500000+00:00</time>
      </trkpt>
      <trkpt lat="0" lon="0">
        <time>2020-12-20T08:55:16.503000+00:00</time>
      </trkpt>
      <trkpt lat="47.33547" lon="-1.28402">
        <ele>89</ele>
        <time>2020-12-20T08:55:17.464000+00:00</time>
      </trkpt>
      <trkpt lat="0" lon="0">
        <time>2020-12-20T08:55:17.475000+00:00</time>
      </trkpt>
      <trkpt lat="0" lon="0">
        <time>2020-12-20T08:55:17.480000+00:00</time>
      </trkpt>
      <trkpt lat="0" lon="0">
        <time>2020-12-20T08:55:17.482000+00:00</time>
      </trkpt>
      <trkpt lat="47.33548" lon="-1.28397">
        <ele>89</ele>
        <time>2020-12-20T08:55:18.482000+00:00</time>
      </trkpt>
      <trkpt lat="0" lon="0">
        <time>2020-12-20T08:55:18.493000+00:00</time>
      </trkpt>
      <trkpt lat="0" lon="0">
        <time>2020-12-20T08:55:18.497000+00:00</time>
      </trkpt>
      <trkpt lat="0" lon="0">
        <time>2020-12-20T08:55:18.500000+00:00</time>
      </trkpt>
      <trkpt lat="47.3355" lon="-1.28391">
        <ele>90</ele>
        <time>2020-12-20T08:55:19.448000+00:00</time>
      </trkpt>
      <trkpt lat="0" lon="0">
        <time>2020-12-20T08:55:19.457000+00:00</time>
      </trkpt>
      <trkpt lat="0" lon="0">
        <time>2020-12-20T08:55:19.466000+00:00</time>
      </trkpt>
      <trkpt lat="0" lon="0">
        <time>2020-12-20T08:55:19.468000+00:00</time>
      </trkpt>
      <trkpt lat="47.33551" lon="-1.28384">
        <ele>90</ele>
        <time>2020-12-20T08:55:20.462000+00:00</time>
      </trkpt>
      <trkpt lat="0" lon="0">
        <time>2020-12-20T08:55:20.468000+00:00</time>
      </trkpt>
      <trkpt lat="0" lon="0">
        <time>2020-12-20T08:55:20.482000+00:00</time>
      </trkpt>
      <trkpt lat="0" lon="0">
        <time>2020-12-20T08:55:20.484000+00:00</time>
      </trkpt>
      <trkpt lat="47.33552" lon="-1.28377">
        <ele>90</ele>
        <time>2020-12-20T08:55:21.464000+00:00</time>
      </trkpt>
      <trkpt lat="0" lon="0">
        <time>2020-12-20T08:55:21.473000+00:00</time>
      </trkpt>
      <trkpt lat="0" lon="0">
        <time>2020-12-20T08:55:21.480000+00:00</time>
      </trkpt>
      <trkpt lat="0" lon="0">
        <time>2020-12-20T08:55:21.483000+00:00</time>
      </trkpt>
      <trkpt lat="47.33552" lon="-1.2837">
        <ele>90</ele>
        <time>2020-12-20T08:55:22.472000+00:00</time>
      </trkpt>
      <trkpt lat="0" lon="0">
        <time>2020-12-20T08:55:22.484000+00:00</time>
      </trkpt>
      <trkpt lat="0" lon="0">
        <time>2020-12-20T08:55:22.495000+00:00</time>
      </trkpt>
      <trkpt lat="0" lon="0">
        <time>2020-12-20T08:55:22.500000+00:00</time>
      </trkpt>
      <trkpt lat="47.33552" lon="-1.28364">
        <ele>90</ele>
        <time>2020-12-20T08:55:23.448000+00:00</time>
      </trkpt>
      <trkpt lat="0" lon="0">
        <time>2020-12-20T08:55:23.473000+00:00</time>
      </trkpt>
      <trkpt lat="0" lon="0">
        <time>2020-12-20T08:55:23.480000+00:00</time>
      </trkpt>
      <trkpt lat="0" lon="0">
        <time>2020-12-20T08:55:23.486000+00:00</time>
      </trkpt>
      <trkpt lat="47.33553" lon="-1.28357">
        <ele>90</ele>
        <time>2020-12-20T08:55:24.431000+00:00</time>
      </trkpt>
      <trkpt lat="0" lon="0">
        <time>2020-12-20T08:55:24.444000+00:00</time>
      </trkpt>
      <trkpt lat="0" lon="0">
        <time>2020-12-20T08:55:24.448000+00:00</time>
      </trkpt>
      <trkpt lat="0" lon="0">
        <time>2020-12-20T08:55:24.450000+00:00</time>
      </trkpt>
      <trkpt lat="47.33553" lon="-1.2835">
        <ele>91</ele>
        <time>2020-12-20T08:55:25.445000+00:00</time>
      </trkpt>
      <trkpt lat="0" lon="0">
        <time>2020-12-20T08:55:25.448000+00:00</time>
      </trkpt>
      <trkpt lat="0" lon="0">
        <time>2020-12-20T08:55:25.463000+00:00</time>
      </trkpt>
      <trkpt lat="0" lon="0">
        <time>2020-12-20T08:55:25.465000+00:00</time>
      </trkpt>
      <trkpt lat="47.33553" lon="-1.28343">
        <ele>91</ele>
        <time>2020-12-20T08:55:26.463000+00:00</time>
      </trkpt>
      <trkpt lat="0" lon="0">
        <time>2020-12-20T08:55:26.473000+00:00</time>
      </trkpt>
      <trkpt lat="0" lon="0">
        <time>2020-12-20T08:55:26.483000+00:00</time>
      </trkpt>
      <trkpt lat="0" lon="0">
        <time>2020-12-20T08:55:26.484000+00:00</time>
      </trkpt>
      <trkpt lat="47.33553" lon="-1.28337">
        <ele>91</ele>
        <time>2020-12-20T08:55:27.475000+00:00</time>
      </trkpt>
      <trkpt lat="0" lon="0">
        <time>2020-12-20T08:55:27.481000+00:00</time>
      </trkpt>
      <trkpt lat="0" lon="0">
        <time>2020-12-20T08:55:27.483000+00:00</time>
      </trkpt>
      <trkpt lat="0" lon="0">
        <time>2020-12-20T08:55:27.484000+00:00</time>
      </trkpt>
      <trkpt lat="47.33553" lon="-1.28331">
        <ele>91</ele>
        <time>2020-12-20T08:55:28.451000+00:00</time>
      </trkpt>
      <trkpt lat="0" lon="0">
        <time>2020-12-20T08:55:28.465000+00:00</time>
      </trkpt>
      <trkpt lat="0" lon="0">
        <time>2020-12-20T08:55:28.471000+00:00</time>
      </trkpt>
      <trkpt lat="0" lon="0">
        <time>2020-12-20T08:55:28.475000+00:00</time>
      </trkpt>
      <trkpt lat="47.33553" lon="-1.28324">
        <ele>91</ele>
        <time>2020-12-20T08:55:29.447000+00:00</time>
      </trkpt>
      <trkpt lat="0" lon="0">
        <time>2020-12-20T08:55:29.458000+00:00</time>
      </trkpt>
      <trkpt lat="0" lon="0">
        <time>2020-12-20T08:55:29.468000+00:00</time>
      </trkpt>
      <trkpt lat="0" lon="0">
        <time>2020-12-20T08:55:29.470000+00:00</time>
      </trkpt>
      <trkpt lat="47.33553" lon="-1.28319">
        <ele>91</ele>
        <time>2020-12-20T08:55:30.447000+00:00</time>
      </trkpt>
      <trkpt lat="0" lon="0">
        <time>2020-12-20T08:55:30.462000+00:00</time>
      </trkpt>
      <trkpt lat="0" lon="0">
        <time>2020-12-20T08:55:30.466000+00:00</time>
      </trkpt>
      <trkpt lat="0" lon="0">
        <time>2020-12-20T08:55:30.468000+00:00</time>
      </trkpt>
      <trkpt lat="47.33553" lon="-1.28313">
        <ele>91</ele>
        <time>2020-12-20T08:55:31.445000+00:00</time>
      </trkpt>
      <trkpt lat="0" lon="0">
        <time>2020-12-20T08:55:31.457000+00:00</time>
      </trkpt>
      <trkpt lat="0" lon="0">
        <time>2020-12-20T08:55:31.461000+00:00</time>
      </trkpt>
      <trkpt lat="0" lon="0">
        <time>2020-12-20T08:55:31.463000+00:00</time>
      </trkpt>
      <trkpt lat="47.33553" lon="-1.28307">
        <ele>91</ele>
        <time>2020-12-20T08:55:32.445000+00:00</time>
      </trkpt>
      <trkpt lat="0" lon="0">
        <time>2020-12-20T08:55:32.449000+00:00</time>
      </trkpt>
      <trkpt lat="0" lon="0">
        <time>2020-12-20T08:55:32.455000+00:00</time>
      </trkpt>
      <trkpt lat="0" lon="0">
        <time>2020-12-20T08:55:32.459000+00:00</time>
      </trkpt>
      <trkpt lat="47.33553" lon="-1.28301">
        <ele>90</ele>
        <time>2020-12-20T08:55:33.484000+00:00</time>
      </trkpt>
      <trkpt lat="0" lon="0">
        <time>2020-12-20T08:55:33.493000+00:00</time>
      </trkpt>
      <trkpt lat="0" lon="0">
        <time>2020-12-20T08:55:33.502000+00:00</time>
      </trkpt>
      <trkpt lat="0" lon="0">
        <time>2020-12-20T08:55:33.507000+00:00</time>
      </trkpt>
      <trkpt lat="47.33553" lon="-1.28295">
        <ele>90</ele>
        <time>2020-12-20T08:55:34.465000+00:00</time>
      </trkpt>
      <trkpt lat="0" lon="0">
        <time>2020-12-20T08:55:34.471000+00:00</time>
      </trkpt>
      <trkpt lat="0" lon="0">
        <time>2020-12-20T08:55:34.476000+00:00</time>
      </trkpt>
      <trkpt lat="0" lon="0">
        <time>2020-12-20T08:55:34.478000+00:00</time>
      </trkpt>
      <trkpt lat="47.33553" lon="-1.28289">
        <ele>90</ele>
        <time>2020-12-20T08:55:35.479000+00:00</time>
      </trkpt>
      <trkpt lat="0" lon="0">
        <time>2020-12-20T08:55:35.498000+00:00</time>
      </trkpt>
      <trkpt lat="0" lon="0">
        <time>2020-12-20T08:55:35.507000+00:00</time>
      </trkpt>
      <trkpt lat="0" lon="0">
        <time>2020-12-20T08:55:35.510000+00:00</time>
      </trkpt>
      <trkpt lat="47.33554" lon="-1.28283">
        <ele>89</ele>
        <time>2020-12-20T08:55:36.483000+00:00</time>
      </trkpt>
      <trkpt lat="0" lon="0">
        <time>2020-12-20T08:55:36.499000+00:00</time>
      </trkpt>
      <trkpt lat="0" lon="0">
        <time>2020-12-20T08:55:36.503000+00:00</time>
      </trkpt>
      <trkpt lat="0" lon="0">
        <time>2020-12-20T08:55:36.506000+00:00</time>
      </trkpt>
      <trkpt lat="47.33554" lon="-1.28277">
        <ele>89</ele>
        <time>2020-12-20T08:55:37.488000+00:00</time>
      </trkpt>
      <trkpt lat="0" lon="0">
        <time>2020-12-20T08:55:37.492000+00:00</time>
      </trkpt>
      <trkpt lat="0" lon="0">
        <time>2020-12-20T08:55:37.498000+00:00</time>
      </trkpt>
      <trkpt lat="0" lon="0">
        <time>2020-12-20T08:55:37.502000+00:00</time>
      </trkpt>
      <trkpt lat="47.33554" lon="-1.28271">
        <ele>88</ele>
        <time>2020-12-20T08:55:38.460000+00:00</time>
      </trkpt>
      <trkpt lat="0" lon="0">
        <time>2020-12-20T08:55:38.477000+00:00</time>
      </trkpt>
      <trkpt lat="0" lon="0">
        <time>2020-12-20T08:55:38.482000+00:00</time>
      </trkpt>
      <trkpt lat="0" lon="0">
        <time>2020-12-20T08:55:38.484000+00:00</time>
      </trkpt>
      <trkpt lat="47.33554" lon="-1.28265">
        <ele>88</ele>
        <time>2020-12-20T08:55:39.405000+00:00</time>
      </trkpt>
      <trkpt lat="0" lon="0">
        <time>2020-12-20T08:55:39.408000+00:00</time>
      </trkpt>
      <trkpt lat="0" lon="0">
        <time>2020-12-20T08:55:39.411000+00:00</time>
      </trkpt>
      <trkpt lat="0" lon="0">
        <time>2020-12-20T08:55:39.412000+00:00</time>
      </trkpt>
      <trkpt lat="47.33555" lon="-1.28259">
        <ele>88</ele>
        <time>2020-12-20T08:55:40.445000+00:00</time>
      </trkpt>
      <trkpt lat="0" lon="0">
        <time>2020-12-20T08:55:40.450000+00:00</time>
      </trkpt>
      <trkpt lat="0" lon="0">
        <time>2020-12-20T08:55:40.455000+00:00</time>
      </trkpt>
      <trkpt lat="0" lon="0">
        <time>2020-12-20T08:55:40.457000+00:00</time>
      </trkpt>
      <trkpt lat="47.33556" lon="-1.28253">
        <ele>88</ele>
        <time>2020-12-20T08:55:41.457000+00:00</time>
      </trkpt>
      <trkpt lat="0" lon="0">
        <time>2020-12-20T08:55:41.471000+00:00</time>
      </trkpt>
      <trkpt lat="0" lon="0">
        <time>2020-12-20T08:55:41.475000+00:00</time>
      </trkpt>
      <trkpt lat="0" lon="0">
        <time>2020-12-20T08:55:41.479000+00:00</time>
      </trkpt>
      <trkpt lat="47.33556" lon="-1.28247">
        <ele>88</ele>
        <time>2020-12-20T08:55:42.497000+00:00</time>
      </trkpt>
      <trkpt lat="0" lon="0">
        <time>2020-12-20T08:55:42.502000+00:00</time>
      </trkpt>
      <trkpt lat="0" lon="0">
        <time>2020-12-20T08:55:42.508000+00:00</time>
      </trkpt>
      <trkpt lat="0" lon="0">
        <time>2020-12-20T08:55:42.510000+00:00</time>
      </trkpt>
      <trkpt lat="47.33557" lon="-1.28241">
        <ele>87</ele>
        <time>2020-12-20T08:55:43.436000+00:00</time>
      </trkpt>
      <trkpt lat="0" lon="0">
        <time>2020-12-20T08:55:43.440000+00:00</time>
      </trkpt>
      <trkpt lat="0" lon="0">
        <time>2020-12-20T08:55:43.450000+00:00</time>
      </trkpt>
      <trkpt lat="0" lon="0">
        <time>2020-12-20T08:55:43.457000+00:00</time>
      </trkpt>
      <trkpt lat="47.33558" lon="-1.28235">
        <ele>87</ele>
        <time>2020-12-20T08:55:44.446000+00:00</time>
      </trkpt>
      <trkpt lat="0" lon="0">
        <time>2020-12-20T08:55:44.455000+00:00</time>
      </trkpt>
      <trkpt lat="0" lon="0">
        <time>2020-12-20T08:55:44.463000+00:00</time>
      </trkpt>
      <trkpt lat="0" lon="0">
        <time>2020-12-20T08:55:44.465000+00:00</time>
      </trkpt>
      <trkpt lat="47.33559" lon="-1.28229">
        <ele>87</ele>
        <time>2020-12-20T08:55:45.455000+00:00</time>
      </trkpt>
      <trkpt lat="0" lon="0">
        <time>2020-12-20T08:55:45.466000+00:00</time>
      </trkpt>
      <trkpt lat="0" lon="0">
        <time>2020-12-20T08:55:45.470000+00:00</time>
      </trkpt>
      <trkpt lat="0" lon="0">
        <time>2020-12-20T08:55:45.472000+00:00</time>
      </trkpt>
      <trkpt lat="47.3356" lon="-1.28223">
        <ele>86</ele>
        <time>2020-12-20T08:55:46.443000+00:00</time>
      </trkpt>
      <trkpt lat="0" lon="0">
        <time>2020-12-20T08:55:46.452000+00:00</time>
      </trkpt>
      <trkpt lat="0" lon="0">
        <time>2020-12-20T08:55:46.459000+00:00</time>
      </trkpt>
      <trkpt lat="0" lon="0">
        <time>2020-12-20T08:55:46.464000+00:00</time>
      </trkpt>
      <trkpt lat="47.33562" lon="-1.28216">
        <ele>85</ele>
        <time>2020-12-20T08:55:47.514000+00:00</time>
      </trkpt>
      <trkpt lat="0" lon="0">
        <time>2020-12-20T08:55:47.546000+00:00</time>
      </trkpt>
      <trkpt lat="0" lon="0">
        <time>2020-12-20T08:55:47.553000+00:00</time>
      </trkpt>
      <trkpt lat="0" lon="0">
        <time>2020-12-20T08:55:47.560000+00:00</time>
      </trkpt>
      <trkpt lat="47.33563" lon="-1.28211">
        <ele>85</ele>
        <time>2020-12-20T08:55:48.483000+00:00</time>
      </trkpt>
      <trkpt lat="0" lon="0">
        <time>2020-12-20T08:55:48.495000+00:00</time>
      </trkpt>
      <trkpt lat="0" lon="0">
        <time>2020-12-20T08:55:48.504000+00:00</time>
      </trkpt>
      <trkpt lat="0" lon="0">
        <time>2020-12-20T08:55:48.509000+00:00</time>
      </trkpt>
      <trkpt lat="47.33564" lon="-1.28205">
        <ele>85</ele>
        <time>2020-12-20T08:55:49.479000+00:00</time>
      </trkpt>
      <trkpt lat="0" lon="0">
        <time>2020-12-20T08:55:49.487000+00:00</time>
      </trkpt>
      <trkpt lat="0" lon="0">
        <time>2020-12-20T08:55:49.495000+00:00</time>
      </trkpt>
      <trkpt lat="0" lon="0">
        <time>2020-12-20T08:55:49.498000+00:00</time>
      </trkpt>
      <trkpt lat="47.33566" lon="-1.282">
        <ele>85</ele>
        <time>2020-12-20T08:55:50.503000+00:00</time>
      </trkpt>
      <trkpt lat="0" lon="0">
        <time>2020-12-20T08:55:50.510000+00:00</time>
      </trkpt>
      <trkpt lat="0" lon="0">
        <time>2020-12-20T08:55:50.517000+00:00</time>
      </trkpt>
      <trkpt lat="0" lon="0">
        <time>2020-12-20T08:55:50.520000+00:00</time>
      </trkpt>
      <trkpt lat="47.33567" lon="-1.28195">
        <ele>84</ele>
        <time>2020-12-20T08:55:51.497000+00:00</time>
      </trkpt>
      <trkpt lat="0" lon="0">
        <time>2020-12-20T08:55:51.520000+00:00</time>
      </trkpt>
      <trkpt lat="0" lon="0">
        <time>2020-12-20T08:55:51.530000+00:00</time>
      </trkpt>
      <trkpt lat="0" lon="0">
        <time>2020-12-20T08:55:51.538000+00:00</time>
      </trkpt>
      <trkpt lat="47.33569" lon="-1.28191">
        <ele>83</ele>
        <time>2020-12-20T08:55:52.462000+00:00</time>
      </trkpt>
      <trkpt lat="0" lon="0">
        <time>2020-12-20T08:55:52.479000+00:00</time>
      </trkpt>
      <trkpt lat="0" lon="0">
        <time>2020-12-20T08:55:52.484000+00:00</time>
      </trkpt>
      <trkpt lat="0" lon="0">
        <time>2020-12-20T08:55:52.488000+00:00</time>
      </trkpt>
      <trkpt lat="47.33571" lon="-1.28187">
        <ele>83</ele>
        <time>2020-12-20T08:55:53.475000+00:00</time>
      </trkpt>
      <trkpt lat="0" lon="0">
        <time>2020-12-20T08:55:53.479000+00:00</time>
      </trkpt>
      <trkpt lat="0" lon="0">
        <time>2020-12-20T08:55:53.483000+00:00</time>
      </trkpt>
      <trkpt lat="0" lon="0">
        <time>2020-12-20T08:55:53.486000+00:00</time>
      </trkpt>
      <trkpt lat="47.33572" lon="-1.28183">
        <ele>83</ele>
        <time>2020-12-20T08:55:54.471000+00:00</time>
      </trkpt>
      <trkpt lat="0" lon="0">
        <time>2020-12-20T08:55:54.485000+00:00</time>
      </trkpt>
      <trkpt lat="0" lon="0">
        <time>2020-12-20T08:55:54.490000+00:00</time>
      </trkpt>
      <trkpt lat="0" lon="0">
        <time>2020-12-20T08:55:54.493000+00:00</time>
      </trkpt>
      <trkpt lat="47.33574" lon="-1.28179">
        <ele>83</ele>
        <time>2020-12-20T08:55:55.495000+00:00</time>
      </trkpt>
      <trkpt lat="0" lon="0">
        <time>2020-12-20T08:55:55.499000+00:00</time>
      </trkpt>
      <trkpt lat="0" lon="0">
        <time>2020-12-20T08:55:55.504000+00:00</time>
      </trkpt>
      <trkpt lat="0" lon="0">
        <time>2020-12-20T08:55:55.507000+00:00</time>
      </trkpt>
      <trkpt lat="47.33575" lon="-1.28176">
        <ele>82</ele>
        <time>2020-12-20T08:55:56.496000+00:00</time>
      </trkpt>
      <trkpt lat="0" lon="0">
        <time>2020-12-20T08:55:56.510000+00:00</time>
      </trkpt>
      <trkpt lat="0" lon="0">
        <time>2020-12-20T08:55:56.512000+00:00</time>
      </trkpt>
      <trkpt lat="0" lon="0">
        <time>2020-12-20T08:55:56.513000+00:00</time>
      </trkpt>
      <trkpt lat="47.33577" lon="-1.28172">
        <ele>81</ele>
        <time>2020-12-20T08:55:57.449000+00:00</time>
      </trkpt>
      <trkpt lat="0" lon="0">
        <time>2020-12-20T08:55:57.461000+00:00</time>
      </trkpt>
      <trkpt lat="0" lon="0">
        <time>2020-12-20T08:55:57.468000+00:00</time>
      </trkpt>
      <trkpt lat="0" lon="0">
        <time>2020-12-20T08:55:57.471000+00:00</time>
      </trkpt>
      <trkpt lat="47.33578" lon="-1.28169">
        <ele>81</ele>
        <time>2020-12-20T08:55:58.417000+00:00</time>
      </trkpt>
      <trkpt lat="0" lon="0">
        <time>2020-12-20T08:55:58.440000+00:00</time>
      </trkpt>
      <trkpt lat="0" lon="0">
        <time>2020-12-20T08:55:58.447000+00:00</time>
      </trkpt>
      <trkpt lat="0" lon="0">
        <time>2020-12-20T08:55:58.451000+00:00</time>
      </trkpt>
      <trkpt lat="47.3358" lon="-1.28166">
        <ele>81</ele>
        <time>2020-12-20T08:55:59.430000+00:00</time>
      </trkpt>
      <trkpt lat="0" lon="0">
        <time>2020-12-20T08:55:59.436000+00:00</time>
      </trkpt>
      <trkpt lat="0" lon="0">
        <time>2020-12-20T08:55:59.447000+00:00</time>
      </trkpt>
      <trkpt lat="0" lon="0">
        <time>2020-12-20T08:55:59.449000+00:00</time>
      </trkpt>
      <trkpt lat="47.33582" lon="-1.28162">
        <ele>80</ele>
        <time>2020-12-20T08:56:00.470000+00:00</time>
      </trkpt>
      <trkpt lat="0" lon="0">
        <time>2020-12-20T08:56:00.493000+00:00</time>
      </trkpt>
      <trkpt lat="0" lon="0">
        <time>2020-12-20T08:56:00.500000+00:00</time>
      </trkpt>
      <trkpt lat="0" lon="0">
        <time>2020-12-20T08:56:00.506000+00:00</time>
      </trkpt>
      <trkpt lat="47.33583" lon="-1.28159">
        <ele>80</ele>
        <time>2020-12-20T08:56:01.433000+00:00</time>
      </trkpt>
      <trkpt lat="0" lon="0">
        <time>2020-12-20T08:56:01.443000+00:00</time>
      </trkpt>
      <trkpt lat="0" lon="0">
        <time>2020-12-20T08:56:01.445000+00:00</time>
      </trkpt>
      <trkpt lat="0" lon="0">
        <time>2020-12-20T08:56:01.447000+00:00</time>
      </trkpt>
      <trkpt lat="47.33585" lon="-1.28155">
        <ele>80</ele>
        <time>2020-12-20T08:56:02.486000+00:00</time>
      </trkpt>
      <trkpt lat="0" lon="0">
        <time>2020-12-20T08:56:02.488000+00:00</time>
      </trkpt>
      <trkpt lat="0" lon="0">
        <time>2020-12-20T08:56:02.490000+00:00</time>
      </trkpt>
      <trkpt lat="0" lon="0">
        <time>2020-12-20T08:56:02.498000+00:00</time>
      </trkpt>
      <trkpt lat="47.33587" lon="-1.28151">
        <ele>80</ele>
        <time>2020-12-20T08:56:03.449000+00:00</time>
      </trkpt>
      <trkpt lat="0" lon="0">
        <time>2020-12-20T08:56:03.458000+00:00</time>
      </trkpt>
      <trkpt lat="0" lon="0">
        <time>2020-12-20T08:56:03.460000+00:00</time>
      </trkpt>
      <trkpt lat="0" lon="0">
        <time>2020-12-20T08:56:03.467000+00:00</time>
      </trkpt>
      <trkpt lat="47.33589" lon="-1.28147">
        <ele>80</ele>
        <time>2020-12-20T08:56:04.466000+00:00</time>
      </trkpt>
      <trkpt lat="0" lon="0">
        <time>2020-12-20T08:56:04.473000+00:00</time>
      </trkpt>
      <trkpt lat="0" lon="0">
        <time>2020-12-20T08:56:04.478000+00:00</time>
      </trkpt>
      <trkpt lat="0" lon="0">
        <time>2020-12-20T08:56:04.480000+00:00</time>
      </trkpt>
      <trkpt lat="47.3359" lon="-1.28142">
        <ele>79</ele>
        <time>2020-12-20T08:56:05.455000+00:00</time>
      </trkpt>
      <trkpt lat="0" lon="0">
        <time>2020-12-20T08:56:05.470000+00:00</time>
      </trkpt>
      <trkpt lat="0" lon="0">
        <time>2020-12-20T08:56:05.475000+00:00</time>
      </trkpt>
      <trkpt lat="0" lon="0">
        <time>2020-12-20T08:56:05.477000+00:00</time>
      </trkpt>
      <trkpt lat="47.33592" lon="-1.28138">
        <ele>79</ele>
        <time>2020-12-20T08:56:06.477000+00:00</time>
      </trkpt>
      <trkpt lat="0" lon="0">
        <time>2020-12-20T08:56:06.489000+00:00</time>
      </trkpt>
      <trkpt lat="0" lon="0">
        <time>2020-12-20T08:56:06.496000+00:00</time>
      </trkpt>
      <trkpt lat="0" lon="0">
        <time>2020-12-20T08:56:06.499000+00:00</time>
      </trkpt>
      <trkpt lat="47.33594" lon="-1.28133">
        <ele>79</ele>
        <time>2020-12-20T08:56:07.486000+00:00</time>
      </trkpt>
      <trkpt lat="0" lon="0">
        <time>2020-12-20T08:56:07.492000+00:00</time>
      </trkpt>
      <trkpt lat="0" lon="0">
        <time>2020-12-20T08:56:07.503000+00:00</time>
      </trkpt>
      <trkpt lat="0" lon="0">
        <time>2020-12-20T08:56:07.506000+00:00</time>
      </trkpt>
      <trkpt lat="47.33596" lon="-1.28128">
        <ele>79</ele>
        <time>2020-12-20T08:56:08.469000+00:00</time>
      </trkpt>
      <trkpt lat="0" lon="0">
        <time>2020-12-20T08:56:08.473000+00:00</time>
      </trkpt>
      <trkpt lat="0" lon="0">
        <time>2020-12-20T08:56:08.477000+00:00</time>
      </trkpt>
      <trkpt lat="0" lon="0">
        <time>2020-12-20T08:56:08.480000+00:00</time>
      </trkpt>
      <trkpt lat="47.33598" lon="-1.28124">
        <ele>78</ele>
        <time>2020-12-20T08:56:09.482000+00:00</time>
      </trkpt>
      <trkpt lat="0" lon="0">
        <time>2020-12-20T08:56:09.494000+00:00</time>
      </trkpt>
      <trkpt lat="0" lon="0">
        <time>2020-12-20T08:56:09.498000+00:00</time>
      </trkpt>
      <trkpt lat="0" lon="0">
        <time>2020-12-20T08:56:09.501000+00:00</time>
      </trkpt>
      <trkpt lat="47.33599" lon="-1.28119">
        <ele>78</ele>
        <time>2020-12-20T08:56:10.454000+00:00</time>
      </trkpt>
      <trkpt lat="0" lon="0">
        <time>2020-12-20T08:56:10.477000+00:00</time>
      </trkpt>
      <trkpt lat="0" lon="0">
        <time>2020-12-20T08:56:10.483000+00:00</time>
      </trkpt>
      <trkpt lat="0" lon="0">
        <time>2020-12-20T08:56:10.488000+00:00</time>
      </trkpt>
      <trkpt lat="47.33601" lon="-1.28114">
        <ele>78</ele>
        <time>2020-12-20T08:56:11.463000+00:00</time>
      </trkpt>
      <trkpt lat="0" lon="0">
        <time>2020-12-20T08:56:11.472000+00:00</time>
      </trkpt>
      <trkpt lat="0" lon="0">
        <time>2020-12-20T08:56:11.476000+00:00</time>
      </trkpt>
      <trkpt lat="0" lon="0">
        <time>2020-12-20T08:56:11.479000+00:00</time>
      </trkpt>
      <trkpt lat="47.33603" lon="-1.2811">
        <ele>78</ele>
        <time>2020-12-20T08:56:12.457000+00:00</time>
      </trkpt>
      <trkpt lat="0" lon="0">
        <time>2020-12-20T08:56:12.467000+00:00</time>
      </trkpt>
      <trkpt lat="0" lon="0">
        <time>2020-12-20T08:56:12.472000+00:00</time>
      </trkpt>
      <trkpt lat="0" lon="0">
        <time>2020-12-20T08:56:12.477000+00:00</time>
      </trkpt>
      <trkpt lat="47.33604" lon="-1.28106">
        <ele>78</ele>
        <time>2020-12-20T08:56:13.455000+00:00</time>
      </trkpt>
      <trkpt lat="0" lon="0">
        <time>2020-12-20T08:56:13.459000+00:00</time>
      </trkpt>
      <trkpt lat="0" lon="0">
        <time>2020-12-20T08:56:13.465000+00:00</time>
      </trkpt>
      <trkpt lat="0" lon="0">
        <time>2020-12-20T08:56:13.467000+00:00</time>
      </trkpt>
      <trkpt lat="47.33605" lon="-1.28101">
        <ele>78</ele>
        <time>2020-12-20T08:56:14.449000+00:00</time>
      </trkpt>
      <trkpt lat="0" lon="0">
        <time>2020-12-20T08:56:14.459000+00:00</time>
      </trkpt>
      <trkpt lat="0" lon="0">
        <time>2020-12-20T08:56:14.472000+00:00</time>
      </trkpt>
      <trkpt lat="0" lon="0">
        <time>2020-12-20T08:56:14.475000+00:00</time>
      </trkpt>
      <trkpt lat="47.33607" lon="-1.28097">
        <ele>78</ele>
        <time>2020-12-20T08:56:15.449000+00:00</time>
      </trkpt>
      <trkpt lat="0" lon="0">
        <time>2020-12-20T08:56:15.458000+00:00</time>
      </trkpt>
      <trkpt lat="0" lon="0">
        <time>2020-12-20T08:56:15.462000+00:00</time>
      </trkpt>
      <trkpt lat="0" lon="0">
        <time>2020-12-20T08:56:15.464000+00:00</time>
      </trkpt>
      <trkpt lat="47.33608" lon="-1.28092">
        <ele>78</ele>
        <time>2020-12-20T08:56:16.466000+00:00</time>
      </trkpt>
      <trkpt lat="0" lon="0">
        <time>2020-12-20T08:56:16.478000+00:00</time>
      </trkpt>
      <trkpt lat="0" lon="0">
        <time>2020-12-20T08:56:16.488000+00:00</time>
      </trkpt>
      <trkpt lat="0" lon="0">
        <time>2020-12-20T08:56:16.491000+00:00</time>
      </trkpt>
      <trkpt lat="47.3361" lon="-1.28087">
        <ele>78</ele>
        <time>2020-12-20T08:56:17.467000+00:00</time>
      </trkpt>
      <trkpt lat="0" lon="0">
        <time>2020-12-20T08:56:17.474000+00:00</time>
      </trkpt>
      <trkpt lat="0" lon="0">
        <time>2020-12-20T08:56:17.479000+00:00</time>
      </trkpt>
      <trkpt lat="0" lon="0">
        <time>2020-12-20T08:56:17.481000+00:00</time>
      </trkpt>
      <trkpt lat="47.33612" lon="-1.28083">
        <ele>78</ele>
        <time>2020-12-20T08:56:18.462000+00:00</time>
      </trkpt>
      <trkpt lat="0" lon="0">
        <time>2020-12-20T08:56:18.470000+00:00</time>
      </trkpt>
      <trkpt lat="0" lon="0">
        <time>2020-12-20T08:56:18.478000+00:00</time>
      </trkpt>
      <trkpt lat="0" lon="0">
        <time>2020-12-20T08:56:18.481000+00:00</time>
      </trkpt>
      <trkpt lat="47.33613" lon="-1.28078">
        <ele>78</ele>
        <time>2020-12-20T08:56:19.424000+00:00</time>
      </trkpt>
      <trkpt lat="0" lon="0">
        <time>2020-12-20T08:56:19.434000+00:00</time>
      </trkpt>
      <trkpt lat="0" lon="0">
        <time>2020-12-20T08:56:19.441000+00:00</time>
      </trkpt>
      <trkpt lat="0" lon="0">
        <time>2020-12-20T08:56:19.443000+00:00</time>
      </trkpt>
      <trkpt lat="47.33615" lon="-1.28073">
        <ele>77</ele>
        <time>2020-12-20T08:56:20.470000+00:00</time>
      </trkpt>
      <trkpt lat="0" lon="0">
        <time>2020-12-20T08:56:20.496000+00:00</time>
      </trkpt>
      <trkpt lat="0" lon="0">
        <time>2020-12-20T08:56:20.503000+00:00</time>
      </trkpt>
      <trkpt lat="0" lon="0">
        <time>2020-12-20T08:56:20.505000+00:00</time>
      </trkpt>
      <trkpt lat="47.33617" lon="-1.28068">
        <ele>77</ele>
        <time>2020-12-20T08:56:21.484000+00:00</time>
      </trkpt>
      <trkpt lat="0" lon="0">
        <time>2020-12-20T08:56:21.495000+00:00</time>
      </trkpt>
      <trkpt lat="0" lon="0">
        <time>2020-12-20T08:56:21.501000+00:00</time>
      </trkpt>
      <trkpt lat="0" lon="0">
        <time>2020-12-20T08:56:21.504000+00:00</time>
      </trkpt>
      <trkpt lat="47.33618" lon="-1.28063">
        <ele>77</ele>
        <time>2020-12-20T08:56:22.400000+00:00</time>
      </trkpt>
      <trkpt lat="0" lon="0">
        <time>2020-12-20T08:56:22.403000+00:00</time>
      </trkpt>
      <trkpt lat="0" lon="0">
        <time>2020-12-20T08:56:22.409000+00:00</time>
      </trkpt>
      <trkpt lat="0" lon="0">
        <time>2020-12-20T08:56:22.410000+00:00</time>
      </trkpt>
      <trkpt lat="47.33619" lon="-1.28058">
        <ele>77</ele>
        <time>2020-12-20T08:56:23.459000+00:00</time>
      </trkpt>
      <trkpt lat="0" lon="0">
        <time>2020-12-20T08:56:23.464000+00:00</time>
      </trkpt>
      <trkpt lat="0" lon="0">
        <time>2020-12-20T08:56:23.472000+00:00</time>
      </trkpt>
      <trkpt lat="0" lon="0">
        <time>2020-12-20T08:56:23.474000+00:00</time>
      </trkpt>
      <trkpt lat="47.3362" lon="-1.28053">
        <ele>78</ele>
        <time>2020-12-20T08:56:24.484000+00:00</time>
      </trkpt>
      <trkpt lat="0" lon="0">
        <time>2020-12-20T08:56:24.495000+00:00</time>
      </trkpt>
      <trkpt lat="0" lon="0">
        <time>2020-12-20T08:56:24.502000+00:00</time>
      </trkpt>
      <trkpt lat="0" lon="0">
        <time>2020-12-20T08:56:24.507000+00:00</time>
      </trkpt>
      <trkpt lat="47.33622" lon="-1.28049">
        <ele>78</ele>
        <time>2020-12-20T08:56:25.448000+00:00</time>
      </trkpt>
      <trkpt lat="0" lon="0">
        <time>2020-12-20T08:56:25.458000+00:00</time>
      </trkpt>
      <trkpt lat="0" lon="0">
        <time>2020-12-20T08:56:25.459000+00:00</time>
      </trkpt>
      <trkpt lat="0" lon="0">
        <time>2020-12-20T08:56:25.464000+00:00</time>
      </trkpt>
      <trkpt lat="47.33623" lon="-1.28044">
        <ele>77</ele>
        <time>2020-12-20T08:56:26.456000+00:00</time>
      </trkpt>
      <trkpt lat="0" lon="0">
        <time>2020-12-20T08:56:26.472000+00:00</time>
      </trkpt>
      <trkpt lat="0" lon="0">
        <time>2020-12-20T08:56:26.476000+00:00</time>
      </trkpt>
      <trkpt lat="0" lon="0">
        <time>2020-12-20T08:56:26.478000+00:00</time>
      </trkpt>
      <trkpt lat="47.33624" lon="-1.2804">
        <ele>77</ele>
        <time>2020-12-20T08:56:27.454000+00:00</time>
      </trkpt>
      <trkpt lat="0" lon="0">
        <time>2020-12-20T08:56:27.472000+00:00</time>
      </trkpt>
      <trkpt lat="0" lon="0">
        <time>2020-12-20T08:56:27.477000+00:00</time>
      </trkpt>
      <trkpt lat="0" lon="0">
        <time>2020-12-20T08:56:27.479000+00:00</time>
      </trkpt>
      <trkpt lat="47.33626" lon="-1.28035">
        <ele>78</ele>
        <time>2020-12-20T08:56:28.421000+00:00</time>
      </trkpt>
      <trkpt lat="0" lon="0">
        <time>2020-12-20T08:56:28.440000+00:00</time>
      </trkpt>
      <trkpt lat="0" lon="0">
        <time>2020-12-20T08:56:28.446000+00:00</time>
      </trkpt>
      <trkpt lat="0" lon="0">
        <time>2020-12-20T08:56:28.449000+00:00</time>
      </trkpt>
      <trkpt lat="47.33627" lon="-1.28031">
        <ele>79</ele>
        <time>2020-12-20T08:56:29.463000+00:00</time>
      </trkpt>
      <trkpt lat="0" lon="0">
        <time>2020-12-20T08:56:29.468000+00:00</time>
      </trkpt>
      <trkpt lat="0" lon="0">
        <time>2020-12-20T08:56:29.476000+00:00</time>
      </trkpt>
      <trkpt lat="0" lon="0">
        <time>2020-12-20T08:56:29.478000+00:00</time>
      </trkpt>
      <trkpt lat="47.33629" lon="-1.28027">
        <ele>79</ele>
        <time>2020-12-20T08:56:30.459000+00:00</time>
      </trkpt>
      <trkpt lat="0" lon="0">
        <time>2020-12-20T08:56:30.463000+00:00</time>
      </trkpt>
      <trkpt lat="0" lon="0">
        <time>2020-12-20T08:56:30.470000+00:00</time>
      </trkpt>
      <trkpt lat="0" lon="0">
        <time>2020-12-20T08:56:30.473000+00:00</time>
      </trkpt>
      <trkpt lat="47.33631" lon="-1.28022">
        <ele>79</ele>
        <time>2020-12-20T08:56:31.483000+00:00</time>
      </trkpt>
      <trkpt lat="0" lon="0">
        <time>2020-12-20T08:56:31.487000+00:00</time>
      </trkpt>
      <trkpt lat="0" lon="0">
        <time>2020-12-20T08:56:31.494000+00:00</time>
      </trkpt>
      <trkpt lat="0" lon="0">
        <time>2020-12-20T08:56:31.497000+00:00</time>
      </trkpt>
      <trkpt lat="47.33633" lon="-1.28018">
        <ele>79</ele>
        <time>2020-12-20T08:56:32.480000+00:00</time>
      </trkpt>
      <trkpt lat="0" lon="0">
        <time>2020-12-20T08:56:32.488000+00:00</time>
      </trkpt>
      <trkpt lat="0" lon="0">
        <time>2020-12-20T08:56:32.501000+00:00</time>
      </trkpt>
      <trkpt lat="0" lon="0">
        <time>2020-12-20T08:56:32.505000+00:00</time>
      </trkpt>
      <trkpt lat="47.33635" lon="-1.28014">
        <ele>78</ele>
        <time>2020-12-20T08:56:33.475000+00:00</time>
      </trkpt>
      <trkpt lat="0" lon="0">
        <time>2020-12-20T08:56:33.489000+00:00</time>
      </trkpt>
      <trkpt lat="0" lon="0">
        <time>2020-12-20T08:56:33.495000+00:00</time>
      </trkpt>
      <trkpt lat="0" lon="0">
        <time>2020-12-20T08:56:33.498000+00:00</time>
      </trkpt>
      <trkpt lat="47.33637" lon="-1.2801">
        <ele>79</ele>
        <time>2020-12-20T08:56:34.505000+00:00</time>
      </trkpt>
      <trkpt lat="0" lon="0">
        <time>2020-12-20T08:56:34.527000+00:00</time>
      </trkpt>
      <trkpt lat="0" lon="0">
        <time>2020-12-20T08:56:34.533000+00:00</time>
      </trkpt>
      <trkpt lat="0" lon="0">
        <time>2020-12-20T08:56:34.541000+00:00</time>
      </trkpt>
      <trkpt lat="47.33639" lon="-1.28006">
        <ele>79</ele>
        <time>2020-12-20T08:56:35.491000+00:00</time>
      </trkpt>
      <trkpt lat="0" lon="0">
        <time>2020-12-20T08:56:35.500000+00:00</time>
      </trkpt>
      <trkpt lat="0" lon="0">
        <time>2020-12-20T08:56:35.506000+00:00</time>
      </trkpt>
      <trkpt lat="0" lon="0">
        <time>2020-12-20T08:56:35.514000+00:00</time>
      </trkpt>
      <trkpt lat="47.3364" lon="-1.28002">
        <ele>80</ele>
        <time>2020-12-20T08:56:36.465000+00:00</time>
      </trkpt>
      <trkpt lat="0" lon="0">
        <time>2020-12-20T08:56:36.486000+00:00</time>
      </trkpt>
      <trkpt lat="0" lon="0">
        <time>2020-12-20T08:56:36.491000+00:00</time>
      </trkpt>
      <trkpt lat="0" lon="0">
        <time>2020-12-20T08:56:36.496000+00:00</time>
      </trkpt>
      <trkpt lat="47.33642" lon="-1.27998">
        <ele>81</ele>
        <time>2020-12-20T08:56:37.491000+00:00</time>
      </trkpt>
      <trkpt lat="0" lon="0">
        <time>2020-12-20T08:56:37.496000+00:00</time>
      </trkpt>
      <trkpt lat="0" lon="0">
        <time>2020-12-20T08:56:37.502000+00:00</time>
      </trkpt>
      <trkpt lat="0" lon="0">
        <time>2020-12-20T08:56:37.506000+00:00</time>
      </trkpt>
      <trkpt lat="47.33644" lon="-1.27994">
        <ele>81</ele>
        <time>2020-12-20T08:56:38.482000+00:00</time>
      </trkpt>
      <trkpt lat="0" lon="0">
        <time>2020-12-20T08:56:38.494000+00:00</time>
      </trkpt>
      <trkpt lat="0" lon="0">
        <time>2020-12-20T08:56:38.498000+00:00</time>
      </trkpt>
      <trkpt lat="0" lon="0">
        <time>2020-12-20T08:56:38.501000+00:00</time>
      </trkpt>
      <trkpt lat="47.33646" lon="-1.2799">
        <ele>81</ele>
        <time>2020-12-20T08:56:39.484000+00:00</time>
      </trkpt>
      <trkpt lat="0" lon="0">
        <time>2020-12-20T08:56:39.492000+00:00</time>
      </trkpt>
      <trkpt lat="0" lon="0">
        <time>2020-12-20T08:56:39.498000+00:00</time>
      </trkpt>
      <trkpt lat="0" lon="0">
        <time>2020-12-20T08:56:39.501000+00:00</time>
      </trkpt>
      <trkpt lat="47.33648" lon="-1.27985">
        <ele>80</ele>
        <time>2020-12-20T08:56:40.434000+00:00</time>
      </trkpt>
      <trkpt lat="0" lon="0">
        <time>2020-12-20T08:56:40.446000+00:00</time>
      </trkpt>
      <trkpt lat="0" lon="0">
        <time>2020-12-20T08:56:40.450000+00:00</time>
      </trkpt>
      <trkpt lat="0" lon="0">
        <time>2020-12-20T08:56:40.452000+00:00</time>
      </trkpt>
      <trkpt lat="47.3365" lon="-1.2798">
        <ele>80</ele>
        <time>2020-12-20T08:56:41.466000+00:00</time>
      </trkpt>
      <trkpt lat="0" lon="0">
        <time>2020-12-20T08:56:41.476000+00:00</time>
      </trkpt>
      <trkpt lat="0" lon="0">
        <time>2020-12-20T08:56:41.484000+00:00</time>
      </trkpt>
      <trkpt lat="0" lon="0">
        <time>2020-12-20T08:56:41.491000+00:00</time>
      </trkpt>
      <trkpt lat="47.33652" lon="-1.27974">
        <ele>80</ele>
        <time>2020-12-20T08:56:42.488000+00:00</time>
      </trkpt>
      <trkpt lat="0" lon="0">
        <time>2020-12-20T08:56:42.504000+00:00</time>
      </trkpt>
      <trkpt lat="0" lon="0">
        <time>2020-12-20T08:56:42.507000+00:00</time>
      </trkpt>
      <trkpt lat="0" lon="0">
        <time>2020-12-20T08:56:42.508000+00:00</time>
      </trkpt>
      <trkpt lat="47.33654" lon="-1.27968">
        <ele>79</ele>
        <time>2020-12-20T08:56:43.486000+00:00</time>
      </trkpt>
      <trkpt lat="0" lon="0">
        <time>2020-12-20T08:56:43.494000+00:00</time>
      </trkpt>
      <trkpt lat="0" lon="0">
        <time>2020-12-20T08:56:43.500000+00:00</time>
      </trkpt>
      <trkpt lat="0" lon="0">
        <time>2020-12-20T08:56:43.504000+00:00</time>
      </trkpt>
      <trkpt lat="47.33656" lon="-1.27963">
        <ele>79</ele>
        <time>2020-12-20T08:56:44.478000+00:00</time>
      </trkpt>
      <trkpt lat="0" lon="0">
        <time>2020-12-20T08:56:44.490000+00:00</time>
      </trkpt>
      <trkpt lat="0" lon="0">
        <time>2020-12-20T08:56:44.496000+00:00</time>
      </trkpt>
      <trkpt lat="0" lon="0">
        <time>2020-12-20T08:56:44.503000+00:00</time>
      </trkpt>
      <trkpt lat="47.33659" lon="-1.27956">
        <ele>78</ele>
        <time>2020-12-20T08:56:45.387000+00:00</time>
      </trkpt>
      <trkpt lat="0" lon="0">
        <time>2020-12-20T08:56:45.388000+00:00</time>
      </trkpt>
      <trkpt lat="0" lon="0">
        <time>2020-12-20T08:56:45.392000+00:00</time>
      </trkpt>
      <trkpt lat="0" lon="0">
        <time>2020-12-20T08:56:45.394000+00:00</time>
      </trkpt>
      <trkpt lat="47.33661" lon="-1.2795">
        <ele>78</ele>
        <time>2020-12-20T08:56:46.438000+00:00</time>
      </trkpt>
      <trkpt lat="0" lon="0">
        <time>2020-12-20T08:56:46.450000+00:00</time>
      </trkpt>
      <trkpt lat="0" lon="0">
        <time>2020-12-20T08:56:46.453000+00:00</time>
      </trkpt>
      <trkpt lat="0" lon="0">
        <time>2020-12-20T08:56:46.456000+00:00</time>
      </trkpt>
      <trkpt lat="47.33663" lon="-1.27944">
        <ele>78</ele>
        <time>2020-12-20T08:56:47.434000+00:00</time>
      </trkpt>
      <trkpt lat="0" lon="0">
        <time>2020-12-20T08:56:47.447000+00:00</time>
      </trkpt>
      <trkpt lat="0" lon="0">
        <time>2020-12-20T08:56:47.451000+00:00</time>
      </trkpt>
      <trkpt lat="0" lon="0">
        <time>2020-12-20T08:56:47.455000+00:00</time>
      </trkpt>
      <trkpt lat="47.33666" lon="-1.27939">
        <ele>78</ele>
        <time>2020-12-20T08:56:48.452000+00:00</time>
      </trkpt>
      <trkpt lat="0" lon="0">
        <time>2020-12-20T08:56:48.460000+00:00</time>
      </trkpt>
      <trkpt lat="0" lon="0">
        <time>2020-12-20T08:56:48.464000+00:00</time>
      </trkpt>
      <trkpt lat="0" lon="0">
        <time>2020-12-20T08:56:48.471000+00:00</time>
      </trkpt>
      <trkpt lat="47.33668" lon="-1.27933">
        <ele>78</ele>
        <time>2020-12-20T08:56:49.480000+00:00</time>
      </trkpt>
      <trkpt lat="0" lon="0">
        <time>2020-12-20T08:56:49.491000+00:00</time>
      </trkpt>
      <trkpt lat="0" lon="0">
        <time>2020-12-20T08:56:49.504000+00:00</time>
      </trkpt>
      <trkpt lat="0" lon="0">
        <time>2020-12-20T08:56:49.509000+00:00</time>
      </trkpt>
      <trkpt lat="47.3367" lon="-1.27927">
        <ele>78</ele>
        <time>2020-12-20T08:56:50.470000+00:00</time>
      </trkpt>
      <trkpt lat="0" lon="0">
        <time>2020-12-20T08:56:50.485000+00:00</time>
      </trkpt>
      <trkpt lat="0" lon="0">
        <time>2020-12-20T08:56:50.489000+00:00</time>
      </trkpt>
      <trkpt lat="0" lon="0">
        <time>2020-12-20T08:56:50.491000+00:00</time>
      </trkpt>
      <trkpt lat="47.33672" lon="-1.27921">
        <ele>78</ele>
        <time>2020-12-20T08:56:51.440000+00:00</time>
      </trkpt>
      <trkpt lat="0" lon="0">
        <time>2020-12-20T08:56:51.444000+00:00</time>
      </trkpt>
      <trkpt lat="0" lon="0">
        <time>2020-12-20T08:56:51.448000+00:00</time>
      </trkpt>
      <trkpt lat="0" lon="0">
        <time>2020-12-20T08:56:51.450000+00:00</time>
      </trkpt>
      <trkpt lat="47.33675" lon="-1.27916">
        <ele>78</ele>
        <time>2020-12-20T08:56:52.472000+00:00</time>
      </trkpt>
      <trkpt lat="0" lon="0">
        <time>2020-12-20T08:56:52.476000+00:00</time>
      </trkpt>
      <trkpt lat="0" lon="0">
        <time>2020-12-20T08:56:52.483000+00:00</time>
      </trkpt>
      <trkpt lat="0" lon="0">
        <time>2020-12-20T08:56:52.486000+00:00</time>
      </trkpt>
      <trkpt lat="47.33677" lon="-1.2791">
        <ele>78</ele>
        <time>2020-12-20T08:56:53.454000+00:00</time>
      </trkpt>
      <trkpt lat="0" lon="0">
        <time>2020-12-20T08:56:53.456000+00:00</time>
      </trkpt>
      <trkpt lat="0" lon="0">
        <time>2020-12-20T08:56:53.459000+00:00</time>
      </trkpt>
      <trkpt lat="0" lon="0">
        <time>2020-12-20T08:56:53.461000+00:00</time>
      </trkpt>
      <trkpt lat="47.33679" lon="-1.27905">
        <ele>78</ele>
        <time>2020-12-20T08:56:54.467000+00:00</time>
      </trkpt>
      <trkpt lat="0" lon="0">
        <time>2020-12-20T08:56:54.474000+00:00</time>
      </trkpt>
      <trkpt lat="0" lon="0">
        <time>2020-12-20T08:56:54.488000+00:00</time>
      </trkpt>
      <trkpt lat="0" lon="0">
        <time>2020-12-20T08:56:54.492000+00:00</time>
      </trkpt>
      <trkpt lat="47.33681" lon="-1.27899">
        <ele>78</ele>
        <time>2020-12-20T08:56:55.504000+00:00</time>
      </trkpt>
      <trkpt lat="0" lon="0">
        <time>2020-12-20T08:56:55.512000+00:00</time>
      </trkpt>
      <trkpt lat="0" lon="0">
        <time>2020-12-20T08:56:55.517000+00:00</time>
      </trkpt>
      <trkpt lat="0" lon="0">
        <time>2020-12-20T08:56:55.519000+00:00</time>
      </trkpt>
      <trkpt lat="47.33683" lon="-1.27894">
        <ele>78</ele>
        <time>2020-12-20T08:56:56.474000+00:00</time>
      </trkpt>
      <trkpt lat="0" lon="0">
        <time>2020-12-20T08:56:56.482000+00:00</time>
      </trkpt>
      <trkpt lat="0" lon="0">
        <time>2020-12-20T08:56:56.490000+00:00</time>
      </trkpt>
      <trkpt lat="0" lon="0">
        <time>2020-12-20T08:56:56.498000+00:00</time>
      </trkpt>
      <trkpt lat="47.33685" lon="-1.27889">
        <ele>78</ele>
        <time>2020-12-20T08:56:57.470000+00:00</time>
      </trkpt>
      <trkpt lat="0" lon="0">
        <time>2020-12-20T08:56:57.477000+00:00</time>
      </trkpt>
      <trkpt lat="0" lon="0">
        <time>2020-12-20T08:56:57.482000+00:00</time>
      </trkpt>
      <trkpt lat="0" lon="0">
        <time>2020-12-20T08:56:57.485000+00:00</time>
      </trkpt>
      <trkpt lat="47.33687" lon="-1.27884">
        <ele>79</ele>
        <time>2020-12-20T08:56:58.495000+00:00</time>
      </trkpt>
      <trkpt lat="0" lon="0">
        <time>2020-12-20T08:56:58.501000+00:00</time>
      </trkpt>
      <trkpt lat="0" lon="0">
        <time>2020-12-20T08:56:58.507000+00:00</time>
      </trkpt>
      <trkpt lat="0" lon="0">
        <time>2020-12-20T08:56:58.511000+00:00</time>
      </trkpt>
      <trkpt lat="47.3369" lon="-1.27879">
        <ele>79</ele>
        <time>2020-12-20T08:56:59.471000+00:00</time>
      </trkpt>
      <trkpt lat="0" lon="0">
        <time>2020-12-20T08:56:59.475000+00:00</time>
      </trkpt>
      <trkpt lat="0" lon="0">
        <time>2020-12-20T08:56:59.493000+00:00</time>
      </trkpt>
      <trkpt lat="0" lon="0">
        <time>2020-12-20T08:56:59.501000+00:00</time>
      </trkpt>
      <trkpt lat="47.33692" lon="-1.27874">
        <ele>78</ele>
        <time>2020-12-20T08:57:00.468000+00:00</time>
      </trkpt>
      <trkpt lat="0" lon="0">
        <time>2020-12-20T08:57:00.486000+00:00</time>
      </trkpt>
      <trkpt lat="0" lon="0">
        <time>2020-12-20T08:57:00.493000+00:00</time>
      </trkpt>
      <trkpt lat="0" lon="0">
        <time>2020-12-20T08:57:00.496000+00:00</time>
      </trkpt>
      <trkpt lat="47.33694" lon="-1.27869">
        <ele>78</ele>
        <time>2020-12-20T08:57:01.447000+00:00</time>
      </trkpt>
      <trkpt lat="0" lon="0">
        <time>2020-12-20T08:57:01.470000+00:00</time>
      </trkpt>
      <trkpt lat="0" lon="0">
        <time>2020-12-20T08:57:01.478000+00:00</time>
      </trkpt>
      <trkpt lat="0" lon="0">
        <time>2020-12-20T08:57:01.480000+00:00</time>
      </trkpt>
      <trkpt lat="47.33695" lon="-1.27865">
        <ele>79</ele>
        <time>2020-12-20T08:57:02.452000+00:00</time>
      </trkpt>
      <trkpt lat="0" lon="0">
        <time>2020-12-20T08:57:02.459000+00:00</time>
      </trkpt>
      <trkpt lat="0" lon="0">
        <time>2020-12-20T08:57:02.464000+00:00</time>
      </trkpt>
      <trkpt lat="0" lon="0">
        <time>2020-12-20T08:57:02.467000+00:00</time>
      </trkpt>
      <trkpt lat="47.33697" lon="-1.27861">
        <ele>79</ele>
        <time>2020-12-20T08:57:03.489000+00:00</time>
      </trkpt>
      <trkpt lat="0" lon="0">
        <time>2020-12-20T08:57:03.496000+00:00</time>
      </trkpt>
      <trkpt lat="0" lon="0">
        <time>2020-12-20T08:57:03.506000+00:00</time>
      </trkpt>
      <trkpt lat="0" lon="0">
        <time>2020-12-20T08:57:03.508000+00:00</time>
      </trkpt>
      <trkpt lat="47.33699" lon="-1.27857">
        <ele>79</ele>
        <time>2020-12-20T08:57:04.476000+00:00</time>
      </trkpt>
      <trkpt lat="0" lon="0">
        <time>2020-12-20T08:57:04.503000+00:00</time>
      </trkpt>
      <trkpt lat="0" lon="0">
        <time>2020-12-20T08:57:04.507000+00:00</time>
      </trkpt>
      <trkpt lat="0" lon="0">
        <time>2020-12-20T08:57:04.508000+00:00</time>
      </trkpt>
      <trkpt lat="47.337" lon="-1.27853">
        <ele>80</ele>
        <time>2020-12-20T08:57:05.410000+00:00</time>
      </trkpt>
      <trkpt lat="0" lon="0">
        <time>2020-12-20T08:57:05.423000+00:00</time>
      </trkpt>
      <trkpt lat="0" lon="0">
        <time>2020-12-20T08:57:05.431000+00:00</time>
      </trkpt>
      <trkpt lat="0" lon="0">
        <time>2020-12-20T08:57:05.433000+00:00</time>
      </trkpt>
      <trkpt lat="47.33702" lon="-1.27849">
        <ele>81</ele>
        <time>2020-12-20T08:57:06.481000+00:00</time>
      </trkpt>
      <trkpt lat="0" lon="0">
        <time>2020-12-20T08:57:06.486000+00:00</time>
      </trkpt>
      <trkpt lat="0" lon="0">
        <time>2020-12-20T08:57:06.492000+00:00</time>
      </trkpt>
      <trkpt lat="0" lon="0">
        <time>2020-12-20T08:57:06.495000+00:00</time>
      </trkpt>
      <trkpt lat="47.33704" lon="-1.27845">
        <ele>81</ele>
        <time>2020-12-20T08:57:07.486000+00:00</time>
      </trkpt>
      <trkpt lat="0" lon="0">
        <time>2020-12-20T08:57:07.492000+00:00</time>
      </trkpt>
      <trkpt lat="0" lon="0">
        <time>2020-12-20T08:57:07.496000+00:00</time>
      </trkpt>
      <trkpt lat="0" lon="0">
        <time>2020-12-20T08:57:07.498000+00:00</time>
      </trkpt>
      <trkpt lat="47.33706" lon="-1.27841">
        <ele>81</ele>
        <time>2020-12-20T08:57:08.493000+00:00</time>
      </trkpt>
      <trkpt lat="0" lon="0">
        <time>2020-12-20T08:57:08.498000+00:00</time>
      </trkpt>
      <trkpt lat="0" lon="0">
        <time>2020-12-20T08:57:08.507000+00:00</time>
      </trkpt>
      <trkpt lat="0" lon="0">
        <time>2020-12-20T08:57:08.510000+00:00</time>
      </trkpt>
      <trkpt lat="47.33708" lon="-1.27837">
        <ele>80</ele>
        <time>2020-12-20T08:57:09.495000+00:00</time>
      </trkpt>
      <trkpt lat="0" lon="0">
        <time>2020-12-20T08:57:09.512000+00:00</time>
      </trkpt>
      <trkpt lat="0" lon="0">
        <time>2020-12-20T08:57:09.519000+00:00</time>
      </trkpt>
      <trkpt lat="0" lon="0">
        <time>2020-12-20T08:57:09.523000+00:00</time>
      </trkpt>
      <trkpt lat="47.3371" lon="-1.27832">
        <ele>80</ele>
        <time>2020-12-20T08:57:10.459000+00:00</time>
      </trkpt>
      <trkpt lat="0" lon="0">
        <time>2020-12-20T08:57:10.461000+00:00</time>
      </trkpt>
      <trkpt lat="0" lon="0">
        <time>2020-12-20T08:57:10.464000+00:00</time>
      </trkpt>
      <trkpt lat="0" lon="0">
        <time>2020-12-20T08:57:10.465000+00:00</time>
      </trkpt>
      <trkpt lat="47.33713" lon="-1.27827">
        <ele>80</ele>
        <time>2020-12-20T08:57:11.491000+00:00</time>
      </trkpt>
      <trkpt lat="0" lon="0">
        <time>2020-12-20T08:57:11.495000+00:00</time>
      </trkpt>
      <trkpt lat="0" lon="0">
        <time>2020-12-20T08:57:11.501000+00:00</time>
      </trkpt>
      <trkpt lat="0" lon="0">
        <time>2020-12-20T08:57:11.511000+00:00</time>
      </trkpt>
      <trkpt lat="47.33715" lon="-1.27822">
        <ele>80</ele>
        <time>2020-12-20T08:57:12.471000+00:00</time>
      </trkpt>
      <trkpt lat="0" lon="0">
        <time>2020-12-20T08:57:12.482000+00:00</time>
      </trkpt>
      <trkpt lat="0" lon="0">
        <time>2020-12-20T08:57:12.486000+00:00</time>
      </trkpt>
      <trkpt lat="0" lon="0">
        <time>2020-12-20T08:57:12.488000+00:00</time>
      </trkpt>
      <trkpt lat="47.33718" lon="-1.27817">
        <ele>80</ele>
        <time>2020-12-20T08:57:13.491000+00:00</time>
      </trkpt>
      <trkpt lat="0" lon="0">
        <time>2020-12-20T08:57:13.512000+00:00</time>
      </trkpt>
      <trkpt lat="0" lon="0">
        <time>2020-12-20T08:57:13.516000+00:00</time>
      </trkpt>
      <trkpt lat="0" lon="0">
        <time>2020-12-20T08:57:13.518000+00:00</time>
      </trkpt>
      <trkpt lat="47.3372" lon="-1.27811">
        <ele>80</ele>
        <time>2020-12-20T08:57:14.460000+00:00</time>
      </trkpt>
      <trkpt lat="0" lon="0">
        <time>2020-12-20T08:57:14.467000+00:00</time>
      </trkpt>
      <trkpt lat="0" lon="0">
        <time>2020-12-20T08:57:14.476000+00:00</time>
      </trkpt>
      <trkpt lat="0" lon="0">
        <time>2020-12-20T08:57:14.482000+00:00</time>
      </trkpt>
      <trkpt lat="47.33723" lon="-1.27806">
        <ele>79</ele>
        <time>2020-12-20T08:57:15.484000+00:00</time>
      </trkpt>
      <trkpt lat="0" lon="0">
        <time>2020-12-20T08:57:15.490000+00:00</time>
      </trkpt>
      <trkpt lat="0" lon="0">
        <time>2020-12-20T08:57:15.497000+00:00</time>
      </trkpt>
      <trkpt lat="0" lon="0">
        <time>2020-12-20T08:57:15.499000+00:00</time>
      </trkpt>
      <trkpt lat="47.33725" lon="-1.27801">
        <ele>79</ele>
        <time>2020-12-20T08:57:16.486000+00:00</time>
      </trkpt>
      <trkpt lat="0" lon="0">
        <time>2020-12-20T08:57:16.498000+00:00</time>
      </trkpt>
      <trkpt lat="0" lon="0">
        <time>2020-12-20T08:57:16.508000+00:00</time>
      </trkpt>
      <trkpt lat="0" lon="0">
        <time>2020-12-20T08:57:16.511000+00:00</time>
      </trkpt>
      <trkpt lat="47.33727" lon="-1.27796">
        <ele>79</ele>
        <time>2020-12-20T08:57:17.457000+00:00</time>
      </trkpt>
      <trkpt lat="0" lon="0">
        <time>2020-12-20T08:57:17.468000+00:00</time>
      </trkpt>
      <trkpt lat="0" lon="0">
        <time>2020-12-20T08:57:17.472000+00:00</time>
      </trkpt>
      <trkpt lat="0" lon="0">
        <time>2020-12-20T08:57:17.474000+00:00</time>
      </trkpt>
      <trkpt lat="47.33728" lon="-1.27791">
        <ele>79</ele>
        <time>2020-12-20T08:57:18.452000+00:00</time>
      </trkpt>
      <trkpt lat="0" lon="0">
        <time>2020-12-20T08:57:18.461000+00:00</time>
      </trkpt>
      <trkpt lat="0" lon="0">
        <time>2020-12-20T08:57:18.463000+00:00</time>
      </trkpt>
      <trkpt lat="0" lon="0">
        <time>2020-12-20T08:57:18.464000+00:00</time>
      </trkpt>
      <trkpt lat="47.33729" lon="-1.27786">
        <ele>78</ele>
        <time>2020-12-20T08:57:19.398000+00:00</time>
      </trkpt>
      <trkpt lat="0" lon="0">
        <time>2020-12-20T08:57:19.410000+00:00</time>
      </trkpt>
      <trkpt lat="0" lon="0">
        <time>2020-12-20T08:57:19.420000+00:00</time>
      </trkpt>
      <trkpt lat="0" lon="0">
        <time>2020-12-20T08:57:19.422000+00:00</time>
      </trkpt>
      <trkpt lat="47.3373" lon="-1.27781">
        <ele>79</ele>
        <time>2020-12-20T08:57:20.415000+00:00</time>
      </trkpt>
      <trkpt lat="0" lon="0">
        <time>2020-12-20T08:57:20.438000+00:00</time>
      </trkpt>
      <trkpt lat="0" lon="0">
        <time>2020-12-20T08:57:20.442000+00:00</time>
      </trkpt>
      <trkpt lat="0" lon="0">
        <time>2020-12-20T08:57:20.447000+00:00</time>
      </trkpt>
      <trkpt lat="47.33731" lon="-1.27777">
        <ele>79</ele>
        <time>2020-12-20T08:57:21.451000+00:00</time>
      </trkpt>
      <trkpt lat="0" lon="0">
        <time>2020-12-20T08:57:21.461000+00:00</time>
      </trkpt>
      <trkpt lat="0" lon="0">
        <time>2020-12-20T08:57:21.470000+00:00</time>
      </trkpt>
      <trkpt lat="0" lon="0">
        <time>2020-12-20T08:57:21.473000+00:00</time>
      </trkpt>
      <trkpt lat="47.33731" lon="-1.27772">
        <ele>79</ele>
        <time>2020-12-20T08:57:22.475000+00:00</time>
      </trkpt>
      <trkpt lat="0" lon="0">
        <time>2020-12-20T08:57:22.478000+00:00</time>
      </trkpt>
      <trkpt lat="0" lon="0">
        <time>2020-12-20T08:57:22.485000+00:00</time>
      </trkpt>
      <trkpt lat="0" lon="0">
        <time>2020-12-20T08:57:22.487000+00:00</time>
      </trkpt>
      <trkpt lat="47.33732" lon="-1.27768">
        <ele>80</ele>
        <time>2020-12-20T08:57:23.468000+00:00</time>
      </trkpt>
      <trkpt lat="0" lon="0">
        <time>2020-12-20T08:57:23.474000+00:00</time>
      </trkpt>
      <trkpt lat="0" lon="0">
        <time>2020-12-20T08:57:23.478000+00:00</time>
      </trkpt>
      <trkpt lat="0" lon="0">
        <time>2020-12-20T08:57:23.480000+00:00</time>
      </trkpt>
      <trkpt lat="47.33732" lon="-1.27765">
        <ele>80</ele>
        <time>2020-12-20T08:57:24.450000+00:00</time>
      </trkpt>
      <trkpt lat="0" lon="0">
        <time>2020-12-20T08:57:24.457000+00:00</time>
      </trkpt>
      <trkpt lat="0" lon="0">
        <time>2020-12-20T08:57:24.461000+00:00</time>
      </trkpt>
      <trkpt lat="0" lon="0">
        <time>2020-12-20T08:57:24.463000+00:00</time>
      </trkpt>
      <trkpt lat="47.33732" lon="-1.27762">
        <ele>79</ele>
        <time>2020-12-20T08:57:25.413000+00:00</time>
      </trkpt>
      <trkpt lat="0" lon="0">
        <time>2020-12-20T08:57:25.415000+00:00</time>
      </trkpt>
      <trkpt lat="0" lon="0">
        <time>2020-12-20T08:57:25.427000+00:00</time>
      </trkpt>
      <trkpt lat="0" lon="0">
        <time>2020-12-20T08:57:25.431000+00:00</time>
      </trkpt>
      <trkpt lat="47.33732" lon="-1.27759">
        <ele>80</ele>
        <time>2020-12-20T08:57:26.445000+00:00</time>
      </trkpt>
      <trkpt lat="0" lon="0">
        <time>2020-12-20T08:57:26.460000+00:00</time>
      </trkpt>
      <trkpt lat="0" lon="0">
        <time>2020-12-20T08:57:26.468000+00:00</time>
      </trkpt>
      <trkpt lat="0" lon="0">
        <time>2020-12-20T08:57:26.474000+00:00</time>
      </trkpt>
      <trkpt lat="47.33732" lon="-1.27756">
        <ele>80</ele>
        <time>2020-12-20T08:57:27.478000+00:00</time>
      </trkpt>
      <trkpt lat="0" lon="0">
        <time>2020-12-20T08:57:27.485000+00:00</time>
      </trkpt>
      <trkpt lat="0" lon="0">
        <time>2020-12-20T08:57:27.505000+00:00</time>
      </trkpt>
      <trkpt lat="0" lon="0">
        <time>2020-12-20T08:57:27.507000+00:00</time>
      </trkpt>
      <trkpt lat="47.33732" lon="-1.27754">
        <ele>80</ele>
        <time>2020-12-20T08:57:28.444000+00:00</time>
      </trkpt>
      <trkpt lat="0" lon="0">
        <time>2020-12-20T08:57:28.453000+00:00</time>
      </trkpt>
      <trkpt lat="0" lon="0">
        <time>2020-12-20T08:57:28.462000+00:00</time>
      </trkpt>
      <trkpt lat="0" lon="0">
        <time>2020-12-20T08:57:28.464000+00:00</time>
      </trkpt>
      <trkpt lat="47.33731" lon="-1.27752">
        <ele>80</ele>
        <time>2020-12-20T08:57:29.459000+00:00</time>
      </trkpt>
      <trkpt lat="0" lon="0">
        <time>2020-12-20T08:57:29.467000+00:00</time>
      </trkpt>
      <trkpt lat="0" lon="0">
        <time>2020-12-20T08:57:29.471000+00:00</time>
      </trkpt>
      <trkpt lat="0" lon="0">
        <time>2020-12-20T08:57:29.474000+00:00</time>
      </trkpt>
      <trkpt lat="47.33731" lon="-1.27751">
        <ele>80</ele>
        <time>2020-12-20T08:57:30.446000+00:00</time>
      </trkpt>
      <trkpt lat="0" lon="0">
        <time>2020-12-20T08:57:30.454000+00:00</time>
      </trkpt>
      <trkpt lat="0" lon="0">
        <time>2020-12-20T08:57:30.464000+00:00</time>
      </trkpt>
      <trkpt lat="0" lon="0">
        <time>2020-12-20T08:57:30.467000+00:00</time>
      </trkpt>
      <trkpt lat="47.33731" lon="-1.2775">
        <ele>79</ele>
        <time>2020-12-20T08:57:31.486000+00:00</time>
      </trkpt>
      <trkpt lat="0" lon="0">
        <time>2020-12-20T08:57:31.499000+00:00</time>
      </trkpt>
      <trkpt lat="0" lon="0">
        <time>2020-12-20T08:57:31.505000+00:00</time>
      </trkpt>
      <trkpt lat="0" lon="0">
        <time>2020-12-20T08:57:31.508000+00:00</time>
      </trkpt>
      <trkpt lat="47.33731" lon="-1.2775">
        <ele>79</ele>
        <time>2020-12-20T08:57:32.436000+00:00</time>
      </trkpt>
      <trkpt lat="0" lon="0">
        <time>2020-12-20T08:57:32.440000+00:00</time>
      </trkpt>
      <trkpt lat="0" lon="0">
        <time>2020-12-20T08:57:32.447000+00:00</time>
      </trkpt>
      <trkpt lat="0" lon="0">
        <time>2020-12-20T08:57:32.450000+00:00</time>
      </trkpt>
      <trkpt lat="47.33731" lon="-1.2775">
        <ele>79</ele>
        <time>2020-12-20T08:57:33.444000+00:00</time>
      </trkpt>
      <trkpt lat="0" lon="0">
        <time>2020-12-20T08:57:33.451000+00:00</time>
      </trkpt>
      <trkpt lat="0" lon="0">
        <time>2020-12-20T08:57:33.456000+00:00</time>
      </trkpt>
      <trkpt lat="0" lon="0">
        <time>2020-12-20T08:57:33.459000+00:00</time>
      </trkpt>
      <trkpt lat="47.33731" lon="-1.2775">
        <ele>79</ele>
        <time>2020-12-20T08:57:34.435000+00:00</time>
      </trkpt>
      <trkpt lat="0" lon="0">
        <time>2020-12-20T08:57:34.452000+00:00</time>
      </trkpt>
      <trkpt lat="0" lon="0">
        <time>2020-12-20T08:57:34.462000+00:00</time>
      </trkpt>
      <trkpt lat="0" lon="0">
        <time>2020-12-20T08:57:34.464000+00:00</time>
      </trkpt>
      <trkpt lat="47.33731" lon="-1.2775">
        <ele>79</ele>
        <time>2020-12-20T08:57:35.449000+00:00</time>
      </trkpt>
      <trkpt lat="0" lon="0">
        <time>2020-12-20T08:57:35.452000+00:00</time>
      </trkpt>
      <trkpt lat="0" lon="0">
        <time>2020-12-20T08:57:35.455000+00:00</time>
      </trkpt>
      <trkpt lat="0" lon="0">
        <time>2020-12-20T08:57:35.458000+00:00</time>
      </trkpt>
      <trkpt lat="47.3373" lon="-1.2775">
        <ele>79</ele>
        <time>2020-12-20T08:57:36.462000+00:00</time>
      </trkpt>
      <trkpt lat="0" lon="0">
        <time>2020-12-20T08:57:36.468000+00:00</time>
      </trkpt>
      <trkpt lat="0" lon="0">
        <time>2020-12-20T08:57:36.476000+00:00</time>
      </trkpt>
      <trkpt lat="0" lon="0">
        <time>2020-12-20T08:57:36.479000+00:00</time>
      </trkpt>
      <trkpt lat="47.3373" lon="-1.27751">
        <ele>79</ele>
        <time>2020-12-20T08:57:37.486000+00:00</time>
      </trkpt>
      <trkpt lat="0" lon="0">
        <time>2020-12-20T08:57:37.495000+00:00</time>
      </trkpt>
      <trkpt lat="0" lon="0">
        <time>2020-12-20T08:57:37.510000+00:00</time>
      </trkpt>
      <trkpt lat="0" lon="0">
        <time>2020-12-20T08:57:37.518000+00:00</time>
      </trkpt>
      <trkpt lat="47.3373" lon="-1.27751">
        <ele>79</ele>
        <time>2020-12-20T08:57:38.433000+00:00</time>
      </trkpt>
      <trkpt lat="0" lon="0">
        <time>2020-12-20T08:57:38.444000+00:00</time>
      </trkpt>
      <trkpt lat="0" lon="0">
        <time>2020-12-20T08:57:38.453000+00:00</time>
      </trkpt>
      <trkpt lat="0" lon="0">
        <time>2020-12-20T08:57:38.461000+00:00</time>
      </trkpt>
      <trkpt lat="47.3373" lon="-1.27752">
        <ele>79</ele>
        <time>2020-12-20T08:57:39.460000+00:00</time>
      </trkpt>
      <trkpt lat="0" lon="0">
        <time>2020-12-20T08:57:39.471000+00:00</time>
      </trkpt>
      <trkpt lat="0" lon="0">
        <time>2020-12-20T08:57:39.476000+00:00</time>
      </trkpt>
      <trkpt lat="0" lon="0">
        <time>2020-12-20T08:57:39.491000+00:00</time>
      </trkpt>
      <trkpt lat="47.33713" lon="-1.27754">
        <ele>73</ele>
        <time>2020-12-20T08:57:40.456000+00:00</time>
      </trkpt>
      <trkpt lat="0" lon="0">
        <time>2020-12-20T08:57:40.463000+00:00</time>
      </trkpt>
      <trkpt lat="0" lon="0">
        <time>2020-12-20T08:57:40.464000+00:00</time>
      </trkpt>
      <trkpt lat="0" lon="0">
        <time>2020-12-20T08:57:40.465000+00:00</time>
      </trkpt>
      <trkpt lat="47.3371" lon="-1.27756">
        <ele>73</ele>
        <time>2020-12-20T08:57:41.492000+00:00</time>
      </trkpt>
      <trkpt lat="0" lon="0">
        <time>2020-12-20T08:57:41.503000+00:00</time>
      </trkpt>
      <trkpt lat="0" lon="0">
        <time>2020-12-20T08:57:41.508000+00:00</time>
      </trkpt>
      <trkpt lat="0" lon="0">
        <time>2020-12-20T08:57:41.511000+00:00</time>
      </trkpt>
      <trkpt lat="47.33706" lon="-1.27757">
        <ele>73</ele>
        <time>2020-12-20T08:57:42.494000+00:00</time>
      </trkpt>
      <trkpt lat="0" lon="0">
        <time>2020-12-20T08:57:42.500000+00:00</time>
      </trkpt>
      <trkpt lat="0" lon="0">
        <time>2020-12-20T08:57:42.512000+00:00</time>
      </trkpt>
      <trkpt lat="0" lon="0">
        <time>2020-12-20T08:57:42.519000+00:00</time>
      </trkpt>
      <trkpt lat="47.33703" lon="-1.27759">
        <ele>73</ele>
        <time>2020-12-20T08:57:43.501000+00:00</time>
      </trkpt>
      <trkpt lat="0" lon="0">
        <time>2020-12-20T08:57:43.506000+00:00</time>
      </trkpt>
      <trkpt lat="0" lon="0">
        <time>2020-12-20T08:57:43.524000+00:00</time>
      </trkpt>
      <trkpt lat="0" lon="0">
        <time>2020-12-20T08:57:43.529000+00:00</time>
      </trkpt>
      <trkpt lat="47.33699" lon="-1.2776">
        <ele>73</ele>
        <time>2020-12-20T08:57:44.489000+00:00</time>
      </trkpt>
      <trkpt lat="0" lon="0">
        <time>2020-12-20T08:57:44.505000+00:00</time>
      </trkpt>
      <trkpt lat="0" lon="0">
        <time>2020-12-20T08:57:44.511000+00:00</time>
      </trkpt>
      <trkpt lat="0" lon="0">
        <time>2020-12-20T08:57:44.514000+00:00</time>
      </trkpt>
      <trkpt lat="47.33695" lon="-1.27762">
        <ele>73</ele>
        <time>2020-12-20T08:57:45.466000+00:00</time>
      </trkpt>
      <trkpt lat="0" lon="0">
        <time>2020-12-20T08:57:45.471000+00:00</time>
      </trkpt>
      <trkpt lat="0" lon="0">
        <time>2020-12-20T08:57:45.473000+00:00</time>
      </trkpt>
      <trkpt lat="0" lon="0">
        <time>2020-12-20T08:57:45.474000+00:00</time>
      </trkpt>
      <trkpt lat="47.33692" lon="-1.27763">
        <ele>73</ele>
        <time>2020-12-20T08:57:46.487000+00:00</time>
      </trkpt>
      <trkpt lat="0" lon="0">
        <time>2020-12-20T08:57:46.499000+00:00</time>
      </trkpt>
      <trkpt lat="0" lon="0">
        <time>2020-12-20T08:57:46.510000+00:00</time>
      </trkpt>
      <trkpt lat="0" lon="0">
        <time>2020-12-20T08:57:46.518000+00:00</time>
      </trkpt>
      <trkpt lat="47.33688" lon="-1.27765">
        <ele>73</ele>
        <time>2020-12-20T08:57:47.490000+00:00</time>
      </trkpt>
      <trkpt lat="0" lon="0">
        <time>2020-12-20T08:57:47.496000+00:00</time>
      </trkpt>
      <trkpt lat="0" lon="0">
        <time>2020-12-20T08:57:47.501000+00:00</time>
      </trkpt>
      <trkpt lat="0" lon="0">
        <time>2020-12-20T08:57:47.503000+00:00</time>
      </trkpt>
      <trkpt lat="47.33684" lon="-1.27766">
        <ele>73</ele>
        <time>2020-12-20T08:57:48.498000+00:00</time>
      </trkpt>
      <trkpt lat="0" lon="0">
        <time>2020-12-20T08:57:48.505000+00:00</time>
      </trkpt>
      <trkpt lat="0" lon="0">
        <time>2020-12-20T08:57:48.516000+00:00</time>
      </trkpt>
      <trkpt lat="0" lon="0">
        <time>2020-12-20T08:57:48.519000+00:00</time>
      </trkpt>
      <trkpt lat="47.33681" lon="-1.27767">
        <ele>74</ele>
        <time>2020-12-20T08:57:49.459000+00:00</time>
      </trkpt>
      <trkpt lat="0" lon="0">
        <time>2020-12-20T08:57:49.469000+00:00</time>
      </trkpt>
      <trkpt lat="0" lon="0">
        <time>2020-12-20T08:57:49.476000+00:00</time>
      </trkpt>
      <trkpt lat="0" lon="0">
        <time>2020-12-20T08:57:49.478000+00:00</time>
      </trkpt>
      <trkpt lat="47.33677" lon="-1.27767">
        <ele>74</ele>
        <time>2020-12-20T08:57:50.494000+00:00</time>
      </trkpt>
      <trkpt lat="0" lon="0">
        <time>2020-12-20T08:57:50.504000+00:00</time>
      </trkpt>
      <trkpt lat="0" lon="0">
        <time>2020-12-20T08:57:50.509000+00:00</time>
      </trkpt>
      <trkpt lat="0" lon="0">
        <time>2020-12-20T08:57:50.512000+00:00</time>
      </trkpt>
      <trkpt lat="47.33673" lon="-1.27767">
        <ele>74</ele>
        <time>2020-12-20T08:57:51.487000+00:00</time>
      </trkpt>
      <trkpt lat="0" lon="0">
        <time>2020-12-20T08:57:51.489000+00:00</time>
      </trkpt>
      <trkpt lat="0" lon="0">
        <time>2020-12-20T08:57:51.493000+00:00</time>
      </trkpt>
      <trkpt lat="0" lon="0">
        <time>2020-12-20T08:57:51.494000+00:00</time>
      </trkpt>
      <trkpt lat="47.3367" lon="-1.27766">
        <ele>74</ele>
        <time>2020-12-20T08:57:52.503000+00:00</time>
      </trkpt>
      <trkpt lat="0" lon="0">
        <time>2020-12-20T08:57:52.509000+00:00</time>
      </trkpt>
      <trkpt lat="0" lon="0">
        <time>2020-12-20T08:57:52.514000+00:00</time>
      </trkpt>
      <trkpt lat="0" lon="0">
        <time>2020-12-20T08:57:52.516000+00:00</time>
      </trkpt>
      <trkpt lat="47.33666" lon="-1.27765">
        <ele>74</ele>
        <time>2020-12-20T08:57:53.469000+00:00</time>
      </trkpt>
      <trkpt lat="0" lon="0">
        <time>2020-12-20T08:57:53.483000+00:00</time>
      </trkpt>
      <trkpt lat="0" lon="0">
        <time>2020-12-20T08:57:53.491000+00:00</time>
      </trkpt>
      <trkpt lat="0" lon="0">
        <time>2020-12-20T08:57:53.493000+00:00</time>
      </trkpt>
      <trkpt lat="47.33663" lon="-1.27764">
        <ele>74</ele>
        <time>2020-12-20T08:57:54.457000+00:00</time>
      </trkpt>
      <trkpt lat="0" lon="0">
        <time>2020-12-20T08:57:54.465000+00:00</time>
      </trkpt>
      <trkpt lat="0" lon="0">
        <time>2020-12-20T08:57:54.471000+00:00</time>
      </trkpt>
      <trkpt lat="0" lon="0">
        <time>2020-12-20T08:57:54.474000+00:00</time>
      </trkpt>
      <trkpt lat="47.3366" lon="-1.27763">
        <ele>74</ele>
        <time>2020-12-20T08:57:55.487000+00:00</time>
      </trkpt>
      <trkpt lat="0" lon="0">
        <time>2020-12-20T08:57:55.499000+00:00</time>
      </trkpt>
      <trkpt lat="0" lon="0">
        <time>2020-12-20T08:57:55.508000+00:00</time>
      </trkpt>
      <trkpt lat="0" lon="0">
        <time>2020-12-20T08:57:55.516000+00:00</time>
      </trkpt>
      <trkpt lat="47.33656" lon="-1.27761">
        <ele>74</ele>
        <time>2020-12-20T08:57:56.490000+00:00</time>
      </trkpt>
      <trkpt lat="0" lon="0">
        <time>2020-12-20T08:57:56.501000+00:00</time>
      </trkpt>
      <trkpt lat="0" lon="0">
        <time>2020-12-20T08:57:56.505000+00:00</time>
      </trkpt>
      <trkpt lat="0" lon="0">
        <time>2020-12-20T08:57:56.509000+00:00</time>
      </trkpt>
      <trkpt lat="47.33653" lon="-1.27759">
        <ele>74</ele>
        <time>2020-12-20T08:57:57.489000+00:00</time>
      </trkpt>
      <trkpt lat="0" lon="0">
        <time>2020-12-20T08:57:57.493000+00:00</time>
      </trkpt>
      <trkpt lat="0" lon="0">
        <time>2020-12-20T08:57:57.502000+00:00</time>
      </trkpt>
      <trkpt lat="0" lon="0">
        <time>2020-12-20T08:57:57.503000+00:00</time>
      </trkpt>
      <trkpt lat="47.33649" lon="-1.27757">
        <ele>74</ele>
        <time>2020-12-20T08:57:58.517000+00:00</time>
      </trkpt>
      <trkpt lat="0" lon="0">
        <time>2020-12-20T08:57:58.535000+00:00</time>
      </trkpt>
      <trkpt lat="0" lon="0">
        <time>2020-12-20T08:57:58.539000+00:00</time>
      </trkpt>
      <trkpt lat="0" lon="0">
        <time>2020-12-20T08:57:58.543000+00:00</time>
      </trkpt>
      <trkpt lat="47.33646" lon="-1.27754">
        <ele>74</ele>
        <time>2020-12-20T08:57:59.534000+00:00</time>
      </trkpt>
      <trkpt lat="0" lon="0">
        <time>2020-12-20T08:57:59.544000+00:00</time>
      </trkpt>
      <trkpt lat="0" lon="0">
        <time>2020-12-20T08:57:59.551000+00:00</time>
      </trkpt>
      <trkpt lat="0" lon="0">
        <time>2020-12-20T08:57:59.555000+00:00</time>
      </trkpt>
      <trkpt lat="47.33643" lon="-1.27752">
        <ele>73</ele>
        <time>2020-12-20T08:58:00.475000+00:00</time>
      </trkpt>
      <trkpt lat="0" lon="0">
        <time>2020-12-20T08:58:00.477000+00:00</time>
      </trkpt>
      <trkpt lat="0" lon="0">
        <time>2020-12-20T08:58:00.478000+00:00</time>
      </trkpt>
      <trkpt lat="47.33639" lon="-1.27749">
        <ele>73</ele>
        <time>2020-12-20T08:58:01.504000+00:00</time>
      </trkpt>
      <trkpt lat="0" lon="0">
        <time>2020-12-20T08:58:01.511000+00:00</time>
      </trkpt>
      <trkpt lat="0" lon="0">
        <time>2020-12-20T08:58:01.515000+00:00</time>
      </trkpt>
      <trkpt lat="0" lon="0">
        <time>2020-12-20T08:58:01.517000+00:00</time>
      </trkpt>
      <trkpt lat="47.33636" lon="-1.27746">
        <ele>74</ele>
        <time>2020-12-20T08:58:02.499000+00:00</time>
      </trkpt>
      <trkpt lat="0" lon="0">
        <time>2020-12-20T08:58:02.509000+00:00</time>
      </trkpt>
      <trkpt lat="0" lon="0">
        <time>2020-12-20T08:58:02.517000+00:00</time>
      </trkpt>
      <trkpt lat="0" lon="0">
        <time>2020-12-20T08:58:02.520000+00:00</time>
      </trkpt>
      <trkpt lat="47.33633" lon="-1.27743">
        <ele>73</ele>
        <time>2020-12-20T08:58:03.480000+00:00</time>
      </trkpt>
      <trkpt lat="0" lon="0">
        <time>2020-12-20T08:58:03.483000+00:00</time>
      </trkpt>
      <trkpt lat="0" lon="0">
        <time>2020-12-20T08:58:03.485000+00:00</time>
      </trkpt>
      <trkpt lat="0" lon="0">
        <time>2020-12-20T08:58:03.488000+00:00</time>
      </trkpt>
      <trkpt lat="47.3363" lon="-1.27739">
        <ele>73</ele>
        <time>2020-12-20T08:58:04.461000+00:00</time>
      </trkpt>
      <trkpt lat="0" lon="0">
        <time>2020-12-20T08:58:04.473000+00:00</time>
      </trkpt>
      <trkpt lat="0" lon="0">
        <time>2020-12-20T08:58:04.481000+00:00</time>
      </trkpt>
      <trkpt lat="0" lon="0">
        <time>2020-12-20T08:58:04.484000+00:00</time>
      </trkpt>
      <trkpt lat="47.33627" lon="-1.27736">
        <ele>73</ele>
        <time>2020-12-20T08:58:05.488000+00:00</time>
      </trkpt>
      <trkpt lat="0" lon="0">
        <time>2020-12-20T08:58:05.496000+00:00</time>
      </trkpt>
      <trkpt lat="0" lon="0">
        <time>2020-12-20T08:58:05.503000+00:00</time>
      </trkpt>
      <trkpt lat="0" lon="0">
        <time>2020-12-20T08:58:05.505000+00:00</time>
      </trkpt>
      <trkpt lat="47.33624" lon="-1.27733">
        <ele>73</ele>
        <time>2020-12-20T08:58:06.484000+00:00</time>
      </trkpt>
      <trkpt lat="0" lon="0">
        <time>2020-12-20T08:58:06.505000+00:00</time>
      </trkpt>
      <trkpt lat="0" lon="0">
        <time>2020-12-20T08:58:06.510000+00:00</time>
      </trkpt>
      <trkpt lat="0" lon="0">
        <time>2020-12-20T08:58:06.512000+00:00</time>
      </trkpt>
      <trkpt lat="47.33621" lon="-1.2773">
        <ele>73</ele>
        <time>2020-12-20T08:58:07.472000+00:00</time>
      </trkpt>
      <trkpt lat="0" lon="0">
        <time>2020-12-20T08:58:07.488000+00:00</time>
      </trkpt>
      <trkpt lat="0" lon="0">
        <time>2020-12-20T08:58:07.492000+00:00</time>
      </trkpt>
      <trkpt lat="0" lon="0">
        <time>2020-12-20T08:58:07.495000+00:00</time>
      </trkpt>
      <trkpt lat="47.33618" lon="-1.27727">
        <ele>73</ele>
        <time>2020-12-20T08:58:08.504000+00:00</time>
      </trkpt>
      <trkpt lat="0" lon="0">
        <time>2020-12-20T08:58:08.517000+00:00</time>
      </trkpt>
      <trkpt lat="0" lon="0">
        <time>2020-12-20T08:58:08.522000+00:00</time>
      </trkpt>
      <trkpt lat="0" lon="0">
        <time>2020-12-20T08:58:08.524000+00:00</time>
      </trkpt>
      <trkpt lat="47.33615" lon="-1.27724">
        <ele>74</ele>
        <time>2020-12-20T08:58:09.493000+00:00</time>
      </trkpt>
      <trkpt lat="0" lon="0">
        <time>2020-12-20T08:58:09.495000+00:00</time>
      </trkpt>
      <trkpt lat="0" lon="0">
        <time>2020-12-20T08:58:09.499000+00:00</time>
      </trkpt>
      <trkpt lat="0" lon="0">
        <time>2020-12-20T08:58:09.501000+00:00</time>
      </trkpt>
      <trkpt lat="47.33613" lon="-1.27721">
        <ele>74</ele>
        <time>2020-12-20T08:58:10.487000+00:00</time>
      </trkpt>
      <trkpt lat="0" lon="0">
        <time>2020-12-20T08:58:10.491000+00:00</time>
      </trkpt>
      <trkpt lat="0" lon="0">
        <time>2020-12-20T08:58:10.498000+00:00</time>
      </trkpt>
      <trkpt lat="0" lon="0">
        <time>2020-12-20T08:58:10.500000+00:00</time>
      </trkpt>
      <trkpt lat="47.3361" lon="-1.27718">
        <ele>74</ele>
        <time>2020-12-20T08:58:11.461000+00:00</time>
      </trkpt>
      <trkpt lat="0" lon="0">
        <time>2020-12-20T08:58:11.468000+00:00</time>
      </trkpt>
      <trkpt lat="0" lon="0">
        <time>2020-12-20T08:58:11.471000+00:00</time>
      </trkpt>
      <trkpt lat="0" lon="0">
        <time>2020-12-20T08:58:11.475000+00:00</time>
      </trkpt>
      <trkpt lat="47.33607" lon="-1.27715">
        <ele>74</ele>
        <time>2020-12-20T08:58:12.478000+00:00</time>
      </trkpt>
      <trkpt lat="0" lon="0">
        <time>2020-12-20T08:58:12.501000+00:00</time>
      </trkpt>
      <trkpt lat="0" lon="0">
        <time>2020-12-20T08:58:12.513000+00:00</time>
      </trkpt>
      <trkpt lat="0" lon="0">
        <time>2020-12-20T08:58:12.523000+00:00</time>
      </trkpt>
      <trkpt lat="47.33604" lon="-1.27713">
        <ele>74</ele>
        <time>2020-12-20T08:58:13.508000+00:00</time>
      </trkpt>
      <trkpt lat="0" lon="0">
        <time>2020-12-20T08:58:13.517000+00:00</time>
      </trkpt>
      <trkpt lat="0" lon="0">
        <time>2020-12-20T08:58:13.521000+00:00</time>
      </trkpt>
      <trkpt lat="0" lon="0">
        <time>2020-12-20T08:58:13.524000+00:00</time>
      </trkpt>
      <trkpt lat="47.33601" lon="-1.2771">
        <ele>74</ele>
        <time>2020-12-20T08:58:14.482000+00:00</time>
      </trkpt>
      <trkpt lat="0" lon="0">
        <time>2020-12-20T08:58:14.495000+00:00</time>
      </trkpt>
      <trkpt lat="0" lon="0">
        <time>2020-12-20T08:58:14.504000+00:00</time>
      </trkpt>
      <trkpt lat="0" lon="0">
        <time>2020-12-20T08:58:14.507000+00:00</time>
      </trkpt>
      <trkpt lat="47.33599" lon="-1.27708">
        <ele>74</ele>
        <time>2020-12-20T08:58:15.492000+00:00</time>
      </trkpt>
      <trkpt lat="0" lon="0">
        <time>2020-12-20T08:58:15.500000+00:00</time>
      </trkpt>
      <trkpt lat="0" lon="0">
        <time>2020-12-20T08:58:15.506000+00:00</time>
      </trkpt>
      <trkpt lat="0" lon="0">
        <time>2020-12-20T08:58:15.509000+00:00</time>
      </trkpt>
      <trkpt lat="47.33596" lon="-1.27705">
        <ele>74</ele>
        <time>2020-12-20T08:58:16.488000+00:00</time>
      </trkpt>
      <trkpt lat="0" lon="0">
        <time>2020-12-20T08:58:16.508000+00:00</time>
      </trkpt>
      <trkpt lat="0" lon="0">
        <time>2020-12-20T08:58:16.514000+00:00</time>
      </trkpt>
      <trkpt lat="0" lon="0">
        <time>2020-12-20T08:58:16.517000+00:00</time>
      </trkpt>
      <trkpt lat="47.33594" lon="-1.27702">
        <ele>74</ele>
        <time>2020-12-20T08:58:17.499000+00:00</time>
      </trkpt>
      <trkpt lat="0" lon="0">
        <time>2020-12-20T08:58:17.505000+00:00</time>
      </trkpt>
      <trkpt lat="0" lon="0">
        <time>2020-12-20T08:58:17.511000+00:00</time>
      </trkpt>
      <trkpt lat="0" lon="0">
        <time>2020-12-20T08:58:17.513000+00:00</time>
      </trkpt>
      <trkpt lat="47.33592" lon="-1.277">
        <ele>74</ele>
        <time>2020-12-20T08:58:18.504000+00:00</time>
      </trkpt>
      <trkpt lat="0" lon="0">
        <time>2020-12-20T08:58:18.515000+00:00</time>
      </trkpt>
      <trkpt lat="0" lon="0">
        <time>2020-12-20T08:58:18.523000+00:00</time>
      </trkpt>
      <trkpt lat="0" lon="0">
        <time>2020-12-20T08:58:18.528000+00:00</time>
      </trkpt>
      <trkpt lat="47.3359" lon="-1.27696">
        <ele>75</ele>
        <time>2020-12-20T08:58:19.489000+00:00</time>
      </trkpt>
      <trkpt lat="0" lon="0">
        <time>2020-12-20T08:58:19.495000+00:00</time>
      </trkpt>
      <trkpt lat="0" lon="0">
        <time>2020-12-20T08:58:19.500000+00:00</time>
      </trkpt>
      <trkpt lat="0" lon="0">
        <time>2020-12-20T08:58:19.503000+00:00</time>
      </trkpt>
      <trkpt lat="47.33588" lon="-1.27693">
        <ele>75</ele>
        <time>2020-12-20T08:58:20.483000+00:00</time>
      </trkpt>
      <trkpt lat="0" lon="0">
        <time>2020-12-20T08:58:20.496000+00:00</time>
      </trkpt>
      <trkpt lat="0" lon="0">
        <time>2020-12-20T08:58:20.502000+00:00</time>
      </trkpt>
      <trkpt lat="0" lon="0">
        <time>2020-12-20T08:58:20.503000+00:00</time>
      </trkpt>
      <trkpt lat="47.33587" lon="-1.27689">
        <ele>75</ele>
        <time>2020-12-20T08:58:21.518000+00:00</time>
      </trkpt>
      <trkpt lat="0" lon="0">
        <time>2020-12-20T08:58:21.523000+00:00</time>
      </trkpt>
      <trkpt lat="0" lon="0">
        <time>2020-12-20T08:58:21.525000+00:00</time>
      </trkpt>
      <trkpt lat="0" lon="0">
        <time>2020-12-20T08:58:21.526000+00:00</time>
      </trkpt>
      <trkpt lat="47.33585" lon="-1.27686">
        <ele>75</ele>
        <time>2020-12-20T08:58:22.468000+00:00</time>
      </trkpt>
      <trkpt lat="0" lon="0">
        <time>2020-12-20T08:58:22.489000+00:00</time>
      </trkpt>
      <trkpt lat="0" lon="0">
        <time>2020-12-20T08:58:22.505000+00:00</time>
      </trkpt>
      <trkpt lat="0" lon="0">
        <time>2020-12-20T08:58:22.507000+00:00</time>
      </trkpt>
      <trkpt lat="47.33583" lon="-1.27682">
        <ele>75</ele>
        <time>2020-12-20T08:58:23.487000+00:00</time>
      </trkpt>
      <trkpt lat="0" lon="0">
        <time>2020-12-20T08:58:23.499000+00:00</time>
      </trkpt>
      <trkpt lat="0" lon="0">
        <time>2020-12-20T08:58:23.507000+00:00</time>
      </trkpt>
      <trkpt lat="0" lon="0">
        <time>2020-12-20T08:58:23.512000+00:00</time>
      </trkpt>
      <trkpt lat="47.33581" lon="-1.27678">
        <ele>75</ele>
        <time>2020-12-20T08:58:24.505000+00:00</time>
      </trkpt>
      <trkpt lat="0" lon="0">
        <time>2020-12-20T08:58:24.513000+00:00</time>
      </trkpt>
      <trkpt lat="0" lon="0">
        <time>2020-12-20T08:58:24.525000+00:00</time>
      </trkpt>
      <trkpt lat="0" lon="0">
        <time>2020-12-20T08:58:24.529000+00:00</time>
      </trkpt>
      <trkpt lat="47.3358" lon="-1.27674">
        <ele>75</ele>
        <time>2020-12-20T08:58:25.488000+00:00</time>
      </trkpt>
      <trkpt lat="0" lon="0">
        <time>2020-12-20T08:58:25.494000+00:00</time>
      </trkpt>
      <trkpt lat="0" lon="0">
        <time>2020-12-20T08:58:25.496000+00:00</time>
      </trkpt>
      <trkpt lat="0" lon="0">
        <time>2020-12-20T08:58:25.497000+00:00</time>
      </trkpt>
      <trkpt lat="47.33578" lon="-1.2767">
        <ele>75</ele>
        <time>2020-12-20T08:58:26.509000+00:00</time>
      </trkpt>
      <trkpt lat="0" lon="0">
        <time>2020-12-20T08:58:26.516000+00:00</time>
      </trkpt>
      <trkpt lat="0" lon="0">
        <time>2020-12-20T08:58:26.522000+00:00</time>
      </trkpt>
      <trkpt lat="0" lon="0">
        <time>2020-12-20T08:58:26.524000+00:00</time>
      </trkpt>
      <trkpt lat="47.33577" lon="-1.27666">
        <ele>75</ele>
        <time>2020-12-20T08:58:27.500000+00:00</time>
      </trkpt>
      <trkpt lat="0" lon="0">
        <time>2020-12-20T08:58:27.506000+00:00</time>
      </trkpt>
      <trkpt lat="0" lon="0">
        <time>2020-12-20T08:58:27.521000+00:00</time>
      </trkpt>
      <trkpt lat="0" lon="0">
        <time>2020-12-20T08:58:27.528000+00:00</time>
      </trkpt>
      <trkpt lat="47.33576" lon="-1.27663">
        <ele>75</ele>
        <time>2020-12-20T08:58:28.483000+00:00</time>
      </trkpt>
      <trkpt lat="0" lon="0">
        <time>2020-12-20T08:58:28.496000+00:00</time>
      </trkpt>
      <trkpt lat="0" lon="0">
        <time>2020-12-20T08:58:28.505000+00:00</time>
      </trkpt>
      <trkpt lat="0" lon="0">
        <time>2020-12-20T08:58:28.507000+00:00</time>
      </trkpt>
      <trkpt lat="47.33576" lon="-1.27659">
        <ele>74</ele>
        <time>2020-12-20T08:58:29.508000+00:00</time>
      </trkpt>
      <trkpt lat="0" lon="0">
        <time>2020-12-20T08:58:29.521000+00:00</time>
      </trkpt>
      <trkpt lat="0" lon="0">
        <time>2020-12-20T08:58:29.523000+00:00</time>
      </trkpt>
      <trkpt lat="0" lon="0">
        <time>2020-12-20T08:58:29.524000+00:00</time>
      </trkpt>
      <trkpt lat="47.33575" lon="-1.27655">
        <ele>74</ele>
        <time>2020-12-20T08:58:30.489000+00:00</time>
      </trkpt>
      <trkpt lat="0" lon="0">
        <time>2020-12-20T08:58:30.507000+00:00</time>
      </trkpt>
      <trkpt lat="0" lon="0">
        <time>2020-12-20T08:58:30.516000+00:00</time>
      </trkpt>
      <trkpt lat="0" lon="0">
        <time>2020-12-20T08:58:30.520000+00:00</time>
      </trkpt>
      <trkpt lat="47.33575" lon="-1.27652">
        <ele>74</ele>
        <time>2020-12-20T08:58:31.486000+00:00</time>
      </trkpt>
      <trkpt lat="0" lon="0">
        <time>2020-12-20T08:58:31.500000+00:00</time>
      </trkpt>
      <trkpt lat="0" lon="0">
        <time>2020-12-20T08:58:31.506000+00:00</time>
      </trkpt>
      <trkpt lat="0" lon="0">
        <time>2020-12-20T08:58:31.510000+00:00</time>
      </trkpt>
      <trkpt lat="47.33576" lon="-1.27648">
        <ele>75</ele>
        <time>2020-12-20T08:58:32.496000+00:00</time>
      </trkpt>
      <trkpt lat="0" lon="0">
        <time>2020-12-20T08:58:32.512000+00:00</time>
      </trkpt>
      <trkpt lat="0" lon="0">
        <time>2020-12-20T08:58:32.515000+00:00</time>
      </trkpt>
      <trkpt lat="0" lon="0">
        <time>2020-12-20T08:58:32.516000+00:00</time>
      </trkpt>
      <trkpt lat="47.33576" lon="-1.27645">
        <ele>75</ele>
        <time>2020-12-20T08:58:33.521000+00:00</time>
      </trkpt>
      <trkpt lat="0" lon="0">
        <time>2020-12-20T08:58:33.529000+00:00</time>
      </trkpt>
      <trkpt lat="0" lon="0">
        <time>2020-12-20T08:58:33.542000+00:00</time>
      </trkpt>
      <trkpt lat="0" lon="0">
        <time>2020-12-20T08:58:33.544000+00:00</time>
      </trkpt>
      <trkpt lat="47.33577" lon="-1.27642">
        <ele>75</ele>
        <time>2020-12-20T08:58:34.485000+00:00</time>
      </trkpt>
      <trkpt lat="0" lon="0">
        <time>2020-12-20T08:58:34.491000+00:00</time>
      </trkpt>
      <trkpt lat="0" lon="0">
        <time>2020-12-20T08:58:34.499000+00:00</time>
      </trkpt>
      <trkpt lat="0" lon="0">
        <time>2020-12-20T08:58:34.502000+00:00</time>
      </trkpt>
      <trkpt lat="47.33578" lon="-1.27638">
        <ele>75</ele>
        <time>2020-12-20T08:58:35.487000+00:00</time>
      </trkpt>
      <trkpt lat="0" lon="0">
        <time>2020-12-20T08:58:35.494000+00:00</time>
      </trkpt>
      <trkpt lat="0" lon="0">
        <time>2020-12-20T08:58:35.499000+00:00</time>
      </trkpt>
      <trkpt lat="0" lon="0">
        <time>2020-12-20T08:58:35.502000+00:00</time>
      </trkpt>
      <trkpt lat="47.33579" lon="-1.27635">
        <ele>75</ele>
        <time>2020-12-20T08:58:36.481000+00:00</time>
      </trkpt>
      <trkpt lat="0" lon="0">
        <time>2020-12-20T08:58:36.489000+00:00</time>
      </trkpt>
      <trkpt lat="0" lon="0">
        <time>2020-12-20T08:58:36.497000+00:00</time>
      </trkpt>
      <trkpt lat="0" lon="0">
        <time>2020-12-20T08:58:36.499000+00:00</time>
      </trkpt>
      <trkpt lat="47.3358" lon="-1.27632">
        <ele>76</ele>
        <time>2020-12-20T08:58:37.501000+00:00</time>
      </trkpt>
      <trkpt lat="0" lon="0">
        <time>2020-12-20T08:58:37.513000+00:00</time>
      </trkpt>
      <trkpt lat="0" lon="0">
        <time>2020-12-20T08:58:37.519000+00:00</time>
      </trkpt>
      <trkpt lat="0" lon="0">
        <time>2020-12-20T08:58:37.528000+00:00</time>
      </trkpt>
      <trkpt lat="47.33581" lon="-1.27629">
        <ele>76</ele>
        <time>2020-12-20T08:58:38.509000+00:00</time>
      </trkpt>
      <trkpt lat="0" lon="0">
        <time>2020-12-20T08:58:38.524000+00:00</time>
      </trkpt>
      <trkpt lat="0" lon="0">
        <time>2020-12-20T08:58:38.529000+00:00</time>
      </trkpt>
      <trkpt lat="0" lon="0">
        <time>2020-12-20T08:58:38.536000+00:00</time>
      </trkpt>
      <trkpt lat="47.33582" lon="-1.27626">
        <ele>76</ele>
        <time>2020-12-20T08:58:39.484000+00:00</time>
      </trkpt>
      <trkpt lat="0" lon="0">
        <time>2020-12-20T08:58:39.502000+00:00</time>
      </trkpt>
      <trkpt lat="0" lon="0">
        <time>2020-12-20T08:58:39.508000+00:00</time>
      </trkpt>
      <trkpt lat="0" lon="0">
        <time>2020-12-20T08:58:39.510000+00:00</time>
      </trkpt>
      <trkpt lat="47.33583" lon="-1.27622">
        <ele>76</ele>
        <time>2020-12-20T08:58:40.492000+00:00</time>
      </trkpt>
      <trkpt lat="0" lon="0">
        <time>2020-12-20T08:58:40.504000+00:00</time>
      </trkpt>
      <trkpt lat="0" lon="0">
        <time>2020-12-20T08:58:40.508000+00:00</time>
      </trkpt>
      <trkpt lat="0" lon="0">
        <time>2020-12-20T08:58:40.511000+00:00</time>
      </trkpt>
      <trkpt lat="47.33584" lon="-1.27619">
        <ele>76</ele>
        <time>2020-12-20T08:58:41.527000+00:00</time>
      </trkpt>
      <trkpt lat="0" lon="0">
        <time>2020-12-20T08:58:41.532000+00:00</time>
      </trkpt>
      <trkpt lat="0" lon="0">
        <time>2020-12-20T08:58:41.534000+00:00</time>
      </trkpt>
      <trkpt lat="0" lon="0">
        <time>2020-12-20T08:58:41.535000+00:00</time>
      </trkpt>
      <trkpt lat="47.33585" lon="-1.27616">
        <ele>76</ele>
        <time>2020-12-20T08:58:42.489000+00:00</time>
      </trkpt>
      <trkpt lat="0" lon="0">
        <time>2020-12-20T08:58:42.501000+00:00</time>
      </trkpt>
      <trkpt lat="0" lon="0">
        <time>2020-12-20T08:58:42.505000+00:00</time>
      </trkpt>
      <trkpt lat="0" lon="0">
        <time>2020-12-20T08:58:42.508000+00:00</time>
      </trkpt>
      <trkpt lat="47.33586" lon="-1.27612">
        <ele>77</ele>
        <time>2020-12-20T08:58:43.471000+00:00</time>
      </trkpt>
      <trkpt lat="0" lon="0">
        <time>2020-12-20T08:58:43.478000+00:00</time>
      </trkpt>
      <trkpt lat="0" lon="0">
        <time>2020-12-20T08:58:43.483000+00:00</time>
      </trkpt>
      <trkpt lat="0" lon="0">
        <time>2020-12-20T08:58:43.487000+00:00</time>
      </trkpt>
      <trkpt lat="47.33587" lon="-1.27608">
        <ele>77</ele>
        <time>2020-12-20T08:58:44.496000+00:00</time>
      </trkpt>
      <trkpt lat="0" lon="0">
        <time>2020-12-20T08:58:44.513000+00:00</time>
      </trkpt>
      <trkpt lat="0" lon="0">
        <time>2020-12-20T08:58:44.517000+00:00</time>
      </trkpt>
      <trkpt lat="0" lon="0">
        <time>2020-12-20T08:58:44.520000+00:00</time>
      </trkpt>
      <trkpt lat="47.33588" lon="-1.27605">
        <ele>77</ele>
        <time>2020-12-20T08:58:45.509000+00:00</time>
      </trkpt>
      <trkpt lat="0" lon="0">
        <time>2020-12-20T08:58:45.523000+00:00</time>
      </trkpt>
      <trkpt lat="0" lon="0">
        <time>2020-12-20T08:58:45.527000+00:00</time>
      </trkpt>
      <trkpt lat="0" lon="0">
        <time>2020-12-20T08:58:45.529000+00:00</time>
      </trkpt>
      <trkpt lat="47.33589" lon="-1.27601">
        <ele>78</ele>
        <time>2020-12-20T08:58:46.493000+00:00</time>
      </trkpt>
      <trkpt lat="0" lon="0">
        <time>2020-12-20T08:58:46.499000+00:00</time>
      </trkpt>
      <trkpt lat="0" lon="0">
        <time>2020-12-20T08:58:46.505000+00:00</time>
      </trkpt>
      <trkpt lat="0" lon="0">
        <time>2020-12-20T08:58:46.507000+00:00</time>
      </trkpt>
      <trkpt lat="47.3359" lon="-1.27597">
        <ele>78</ele>
        <time>2020-12-20T08:58:47.509000+00:00</time>
      </trkpt>
      <trkpt lat="0" lon="0">
        <time>2020-12-20T08:58:47.511000+00:00</time>
      </trkpt>
      <trkpt lat="0" lon="0">
        <time>2020-12-20T08:58:47.513000+00:00</time>
      </trkpt>
      <trkpt lat="0" lon="0">
        <time>2020-12-20T08:58:47.517000+00:00</time>
      </trkpt>
      <trkpt lat="47.33592" lon="-1.27593">
        <ele>78</ele>
        <time>2020-12-20T08:58:48.511000+00:00</time>
      </trkpt>
      <trkpt lat="0" lon="0">
        <time>2020-12-20T08:58:48.521000+00:00</time>
      </trkpt>
      <trkpt lat="0" lon="0">
        <time>2020-12-20T08:58:48.534000+00:00</time>
      </trkpt>
      <trkpt lat="0" lon="0">
        <time>2020-12-20T08:58:48.545000+00:00</time>
      </trkpt>
      <trkpt lat="47.33593" lon="-1.27589">
        <ele>78</ele>
        <time>2020-12-20T08:58:49.507000+00:00</time>
      </trkpt>
      <trkpt lat="0" lon="0">
        <time>2020-12-20T08:58:49.515000+00:00</time>
      </trkpt>
      <trkpt lat="0" lon="0">
        <time>2020-12-20T08:58:49.519000+00:00</time>
      </trkpt>
      <trkpt lat="0" lon="0">
        <time>2020-12-20T08:58:49.525000+00:00</time>
      </trkpt>
      <trkpt lat="47.33594" lon="-1.27585">
        <ele>78</ele>
        <time>2020-12-20T08:58:50.509000+00:00</time>
      </trkpt>
      <trkpt lat="0" lon="0">
        <time>2020-12-20T08:58:50.526000+00:00</time>
      </trkpt>
      <trkpt lat="0" lon="0">
        <time>2020-12-20T08:58:50.532000+00:00</time>
      </trkpt>
      <trkpt lat="0" lon="0">
        <time>2020-12-20T08:58:50.536000+00:00</time>
      </trkpt>
      <trkpt lat="47.33596" lon="-1.27581">
        <ele>78</ele>
        <time>2020-12-20T08:58:51.489000+00:00</time>
      </trkpt>
      <trkpt lat="0" lon="0">
        <time>2020-12-20T08:58:51.506000+00:00</time>
      </trkpt>
      <trkpt lat="0" lon="0">
        <time>2020-12-20T08:58:51.512000+00:00</time>
      </trkpt>
      <trkpt lat="0" lon="0">
        <time>2020-12-20T08:58:51.514000+00:00</time>
      </trkpt>
      <trkpt lat="47.33597" lon="-1.27577">
        <ele>78</ele>
        <time>2020-12-20T08:58:52.504000+00:00</time>
      </trkpt>
      <trkpt lat="0" lon="0">
        <time>2020-12-20T08:58:52.518000+00:00</time>
      </trkpt>
      <trkpt lat="0" lon="0">
        <time>2020-12-20T08:58:52.525000+00:00</time>
      </trkpt>
      <trkpt lat="0" lon="0">
        <time>2020-12-20T08:58:52.528000+00:00</time>
      </trkpt>
      <trkpt lat="47.33598" lon="-1.27574">
        <ele>79</ele>
        <time>2020-12-20T08:58:53.477000+00:00</time>
      </trkpt>
      <trkpt lat="0" lon="0">
        <time>2020-12-20T08:58:53.483000+00:00</time>
      </trkpt>
      <trkpt lat="0" lon="0">
        <time>2020-12-20T08:58:53.499000+00:00</time>
      </trkpt>
      <trkpt lat="0" lon="0">
        <time>2020-12-20T08:58:53.505000+00:00</time>
      </trkpt>
      <trkpt lat="47.33599" lon="-1.2757">
        <ele>79</ele>
        <time>2020-12-20T08:58:54.486000+00:00</time>
      </trkpt>
      <trkpt lat="0" lon="0">
        <time>2020-12-20T08:58:54.496000+00:00</time>
      </trkpt>
      <trkpt lat="0" lon="0">
        <time>2020-12-20T08:58:54.501000+00:00</time>
      </trkpt>
      <trkpt lat="0" lon="0">
        <time>2020-12-20T08:58:54.504000+00:00</time>
      </trkpt>
      <trkpt lat="47.336" lon="-1.27566">
        <ele>79</ele>
        <time>2020-12-20T08:58:55.491000+00:00</time>
      </trkpt>
      <trkpt lat="0" lon="0">
        <time>2020-12-20T08:58:55.501000+00:00</time>
      </trkpt>
      <trkpt lat="0" lon="0">
        <time>2020-12-20T08:58:55.506000+00:00</time>
      </trkpt>
      <trkpt lat="0" lon="0">
        <time>2020-12-20T08:58:55.508000+00:00</time>
      </trkpt>
      <trkpt lat="47.33601" lon="-1.27562">
        <ele>80</ele>
        <time>2020-12-20T08:58:56.491000+00:00</time>
      </trkpt>
      <trkpt lat="0" lon="0">
        <time>2020-12-20T08:58:56.501000+00:00</time>
      </trkpt>
      <trkpt lat="0" lon="0">
        <time>2020-12-20T08:58:56.515000+00:00</time>
      </trkpt>
      <trkpt lat="0" lon="0">
        <time>2020-12-20T08:58:56.517000+00:00</time>
      </trkpt>
      <trkpt lat="47.33602" lon="-1.27557">
        <ele>81</ele>
        <time>2020-12-20T08:58:57.512000+00:00</time>
      </trkpt>
      <trkpt lat="0" lon="0">
        <time>2020-12-20T08:58:57.524000+00:00</time>
      </trkpt>
      <trkpt lat="0" lon="0">
        <time>2020-12-20T08:58:57.526000+00:00</time>
      </trkpt>
      <trkpt lat="0" lon="0">
        <time>2020-12-20T08:58:57.527000+00:00</time>
      </trkpt>
      <trkpt lat="47.33603" lon="-1.27553">
        <ele>81</ele>
        <time>2020-12-20T08:58:58.463000+00:00</time>
      </trkpt>
      <trkpt lat="0" lon="0">
        <time>2020-12-20T08:58:58.479000+00:00</time>
      </trkpt>
      <trkpt lat="0" lon="0">
        <time>2020-12-20T08:58:58.486000+00:00</time>
      </trkpt>
      <trkpt lat="0" lon="0">
        <time>2020-12-20T08:58:58.488000+00:00</time>
      </trkpt>
      <trkpt lat="47.33603" lon="-1.27548">
        <ele>82</ele>
        <time>2020-12-20T08:58:59.496000+00:00</time>
      </trkpt>
      <trkpt lat="0" lon="0">
        <time>2020-12-20T08:58:59.498000+00:00</time>
      </trkpt>
      <trkpt lat="0" lon="0">
        <time>2020-12-20T08:58:59.501000+00:00</time>
      </trkpt>
      <trkpt lat="0" lon="0">
        <time>2020-12-20T08:58:59.502000+00:00</time>
      </trkpt>
      <trkpt lat="47.33603" lon="-1.27543">
        <ele>83</ele>
        <time>2020-12-20T08:59:00.463000+00:00</time>
      </trkpt>
      <trkpt lat="0" lon="0">
        <time>2020-12-20T08:59:00.469000+00:00</time>
      </trkpt>
      <trkpt lat="0" lon="0">
        <time>2020-12-20T08:59:00.474000+00:00</time>
      </trkpt>
      <trkpt lat="0" lon="0">
        <time>2020-12-20T08:59:00.476000+00:00</time>
      </trkpt>
      <trkpt lat="47.33603" lon="-1.27538">
        <ele>85</ele>
        <time>2020-12-20T08:59:01.515000+00:00</time>
      </trkpt>
      <trkpt lat="0" lon="0">
        <time>2020-12-20T08:59:01.522000+00:00</time>
      </trkpt>
      <trkpt lat="0" lon="0">
        <time>2020-12-20T08:59:01.533000+00:00</time>
      </trkpt>
      <trkpt lat="0" lon="0">
        <time>2020-12-20T08:59:01.535000+00:00</time>
      </trkpt>
      <trkpt lat="47.33602" lon="-1.27533">
        <ele>87</ele>
        <time>2020-12-20T08:59:02.498000+00:00</time>
      </trkpt>
      <trkpt lat="0" lon="0">
        <time>2020-12-20T08:59:02.506000+00:00</time>
      </trkpt>
      <trkpt lat="0" lon="0">
        <time>2020-12-20T08:59:02.516000+00:00</time>
      </trkpt>
      <trkpt lat="0" lon="0">
        <time>2020-12-20T08:59:02.518000+00:00</time>
      </trkpt>
      <trkpt lat="47.33601" lon="-1.27528">
        <ele>88</ele>
        <time>2020-12-20T08:59:03.496000+00:00</time>
      </trkpt>
      <trkpt lat="0" lon="0">
        <time>2020-12-20T08:59:03.510000+00:00</time>
      </trkpt>
      <trkpt lat="0" lon="0">
        <time>2020-12-20T08:59:03.517000+00:00</time>
      </trkpt>
      <trkpt lat="0" lon="0">
        <time>2020-12-20T08:59:03.519000+00:00</time>
      </trkpt>
      <trkpt lat="47.336" lon="-1.27522">
        <ele>89</ele>
        <time>2020-12-20T08:59:04.499000+00:00</time>
      </trkpt>
      <trkpt lat="0" lon="0">
        <time>2020-12-20T08:59:04.509000+00:00</time>
      </trkpt>
      <trkpt lat="0" lon="0">
        <time>2020-12-20T08:59:04.513000+00:00</time>
      </trkpt>
      <trkpt lat="0" lon="0">
        <time>2020-12-20T08:59:04.515000+00:00</time>
      </trkpt>
      <trkpt lat="47.33599" lon="-1.27517">
        <ele>90</ele>
        <time>2020-12-20T08:59:05.487000+00:00</time>
      </trkpt>
      <trkpt lat="0" lon="0">
        <time>2020-12-20T08:59:05.505000+00:00</time>
      </trkpt>
      <trkpt lat="0" lon="0">
        <time>2020-12-20T08:59:05.508000+00:00</time>
      </trkpt>
      <trkpt lat="0" lon="0">
        <time>2020-12-20T08:59:05.512000+00:00</time>
      </trkpt>
      <trkpt lat="47.33598" lon="-1.27511">
        <ele>90</ele>
        <time>2020-12-20T08:59:06.504000+00:00</time>
      </trkpt>
      <trkpt lat="0" lon="0">
        <time>2020-12-20T08:59:06.511000+00:00</time>
      </trkpt>
      <trkpt lat="0" lon="0">
        <time>2020-12-20T08:59:06.517000+00:00</time>
      </trkpt>
      <trkpt lat="0" lon="0">
        <time>2020-12-20T08:59:06.526000+00:00</time>
      </trkpt>
      <trkpt lat="47.33596" lon="-1.27505">
        <ele>91</ele>
        <time>2020-12-20T08:59:07.484000+00:00</time>
      </trkpt>
      <trkpt lat="0" lon="0">
        <time>2020-12-20T08:59:07.489000+00:00</time>
      </trkpt>
      <trkpt lat="0" lon="0">
        <time>2020-12-20T08:59:07.496000+00:00</time>
      </trkpt>
      <trkpt lat="0" lon="0">
        <time>2020-12-20T08:59:07.498000+00:00</time>
      </trkpt>
      <trkpt lat="47.33595" lon="-1.27498">
        <ele>92</ele>
        <time>2020-12-20T08:59:08.503000+00:00</time>
      </trkpt>
      <trkpt lat="0" lon="0">
        <time>2020-12-20T08:59:08.531000+00:00</time>
      </trkpt>
      <trkpt lat="0" lon="0">
        <time>2020-12-20T08:59:08.537000+00:00</time>
      </trkpt>
      <trkpt lat="0" lon="0">
        <time>2020-12-20T08:59:08.539000+00:00</time>
      </trkpt>
      <trkpt lat="47.33594" lon="-1.27492">
        <ele>92</ele>
        <time>2020-12-20T08:59:09.488000+00:00</time>
      </trkpt>
      <trkpt lat="0" lon="0">
        <time>2020-12-20T08:59:09.493000+00:00</time>
      </trkpt>
      <trkpt lat="0" lon="0">
        <time>2020-12-20T08:59:09.499000+00:00</time>
      </trkpt>
      <trkpt lat="0" lon="0">
        <time>2020-12-20T08:59:09.501000+00:00</time>
      </trkpt>
      <trkpt lat="47.33593" lon="-1.27485">
        <ele>93</ele>
        <time>2020-12-20T08:59:10.472000+00:00</time>
      </trkpt>
      <trkpt lat="0" lon="0">
        <time>2020-12-20T08:59:10.489000+00:00</time>
      </trkpt>
      <trkpt lat="0" lon="0">
        <time>2020-12-20T08:59:10.492000+00:00</time>
      </trkpt>
      <trkpt lat="0" lon="0">
        <time>2020-12-20T08:59:10.493000+00:00</time>
      </trkpt>
      <trkpt lat="47.33592" lon="-1.27478">
        <ele>94</ele>
        <time>2020-12-20T08:59:11.468000+00:00</time>
      </trkpt>
      <trkpt lat="0" lon="0">
        <time>2020-12-20T08:59:11.478000+00:00</time>
      </trkpt>
      <trkpt lat="0" lon="0">
        <time>2020-12-20T08:59:11.488000+00:00</time>
      </trkpt>
      <trkpt lat="0" lon="0">
        <time>2020-12-20T08:59:11.493000+00:00</time>
      </trkpt>
      <trkpt lat="47.33591" lon="-1.27472">
        <ele>95</ele>
        <time>2020-12-20T08:59:12.478000+00:00</time>
      </trkpt>
      <trkpt lat="0" lon="0">
        <time>2020-12-20T08:59:12.497000+00:00</time>
      </trkpt>
      <trkpt lat="0" lon="0">
        <time>2020-12-20T08:59:12.506000+00:00</time>
      </trkpt>
      <trkpt lat="0" lon="0">
        <time>2020-12-20T08:59:12.512000+00:00</time>
      </trkpt>
      <trkpt lat="47.3359" lon="-1.27465">
        <ele>96</ele>
        <time>2020-12-20T08:59:13.482000+00:00</time>
      </trkpt>
      <trkpt lat="0" lon="0">
        <time>2020-12-20T08:59:13.487000+00:00</time>
      </trkpt>
      <trkpt lat="0" lon="0">
        <time>2020-12-20T08:59:13.496000+00:00</time>
      </trkpt>
      <trkpt lat="0" lon="0">
        <time>2020-12-20T08:59:13.499000+00:00</time>
      </trkpt>
      <trkpt lat="47.33589" lon="-1.27459">
        <ele>96</ele>
        <time>2020-12-20T08:59:14.494000+00:00</time>
      </trkpt>
      <trkpt lat="0" lon="0">
        <time>2020-12-20T08:59:14.501000+00:00</time>
      </trkpt>
      <trkpt lat="0" lon="0">
        <time>2020-12-20T08:59:14.505000+00:00</time>
      </trkpt>
      <trkpt lat="0" lon="0">
        <time>2020-12-20T08:59:14.509000+00:00</time>
      </trkpt>
      <trkpt lat="47.33588" lon="-1.27453">
        <ele>96</ele>
        <time>2020-12-20T08:59:15.499000+00:00</time>
      </trkpt>
      <trkpt lat="0" lon="0">
        <time>2020-12-20T08:59:15.519000+00:00</time>
      </trkpt>
      <trkpt lat="0" lon="0">
        <time>2020-12-20T08:59:15.525000+00:00</time>
      </trkpt>
      <trkpt lat="0" lon="0">
        <time>2020-12-20T08:59:15.531000+00:00</time>
      </trkpt>
      <trkpt lat="47.33586" lon="-1.27447">
        <ele>96</ele>
        <time>2020-12-20T08:59:16.511000+00:00</time>
      </trkpt>
      <trkpt lat="0" lon="0">
        <time>2020-12-20T08:59:16.520000+00:00</time>
      </trkpt>
      <trkpt lat="0" lon="0">
        <time>2020-12-20T08:59:16.522000+00:00</time>
      </trkpt>
      <trkpt lat="0" lon="0">
        <time>2020-12-20T08:59:16.526000+00:00</time>
      </trkpt>
      <trkpt lat="47.33585" lon="-1.27443">
        <ele>97</ele>
        <time>2020-12-20T08:59:17.494000+00:00</time>
      </trkpt>
      <trkpt lat="0" lon="0">
        <time>2020-12-20T08:59:17.509000+00:00</time>
      </trkpt>
      <trkpt lat="0" lon="0">
        <time>2020-12-20T08:59:17.513000+00:00</time>
      </trkpt>
      <trkpt lat="0" lon="0">
        <time>2020-12-20T08:59:17.515000+00:00</time>
      </trkpt>
      <trkpt lat="47.33583" lon="-1.27438">
        <ele>97</ele>
        <time>2020-12-20T08:59:18.500000+00:00</time>
      </trkpt>
      <trkpt lat="0" lon="0">
        <time>2020-12-20T08:59:18.519000+00:00</time>
      </trkpt>
      <trkpt lat="0" lon="0">
        <time>2020-12-20T08:59:18.525000+00:00</time>
      </trkpt>
      <trkpt lat="0" lon="0">
        <time>2020-12-20T08:59:18.527000+00:00</time>
      </trkpt>
      <trkpt lat="47.33581" lon="-1.27434">
        <ele>98</ele>
        <time>2020-12-20T08:59:19.485000+00:00</time>
      </trkpt>
      <trkpt lat="0" lon="0">
        <time>2020-12-20T08:59:19.489000+00:00</time>
      </trkpt>
      <trkpt lat="0" lon="0">
        <time>2020-12-20T08:59:19.499000+00:00</time>
      </trkpt>
      <trkpt lat="0" lon="0">
        <time>2020-12-20T08:59:19.502000+00:00</time>
      </trkpt>
      <trkpt lat="47.33578" lon="-1.2743">
        <ele>99</ele>
        <time>2020-12-20T08:59:20.484000+00:00</time>
      </trkpt>
      <trkpt lat="0" lon="0">
        <time>2020-12-20T08:59:20.489000+00:00</time>
      </trkpt>
      <trkpt lat="0" lon="0">
        <time>2020-12-20T08:59:20.499000+00:00</time>
      </trkpt>
      <trkpt lat="0" lon="0">
        <time>2020-12-20T08:59:20.514000+00:00</time>
      </trkpt>
      <trkpt lat="47.33575" lon="-1.27426">
        <ele>100</ele>
        <time>2020-12-20T08:59:21.476000+00:00</time>
      </trkpt>
      <trkpt lat="0" lon="0">
        <time>2020-12-20T08:59:21.495000+00:00</time>
      </trkpt>
      <trkpt lat="0" lon="0">
        <time>2020-12-20T08:59:21.503000+00:00</time>
      </trkpt>
      <trkpt lat="0" lon="0">
        <time>2020-12-20T08:59:21.514000+00:00</time>
      </trkpt>
      <trkpt lat="47.33573" lon="-1.27422">
        <ele>101</ele>
        <time>2020-12-20T08:59:22.465000+00:00</time>
      </trkpt>
      <trkpt lat="0" lon="0">
        <time>2020-12-20T08:59:22.483000+00:00</time>
      </trkpt>
      <trkpt lat="0" lon="0">
        <time>2020-12-20T08:59:22.489000+00:00</time>
      </trkpt>
      <trkpt lat="0" lon="0">
        <time>2020-12-20T08:59:22.492000+00:00</time>
      </trkpt>
      <trkpt lat="47.33569" lon="-1.27418">
        <ele>102</ele>
        <time>2020-12-20T08:59:23.488000+00:00</time>
      </trkpt>
      <trkpt lat="0" lon="0">
        <time>2020-12-20T08:59:23.504000+00:00</time>
      </trkpt>
      <trkpt lat="0" lon="0">
        <time>2020-12-20T08:59:23.515000+00:00</time>
      </trkpt>
      <trkpt lat="0" lon="0">
        <time>2020-12-20T08:59:23.519000+00:00</time>
      </trkpt>
      <trkpt lat="47.33566" lon="-1.27415">
        <ele>102</ele>
        <time>2020-12-20T08:59:24.510000+00:00</time>
      </trkpt>
      <trkpt lat="0" lon="0">
        <time>2020-12-20T08:59:24.525000+00:00</time>
      </trkpt>
      <trkpt lat="0" lon="0">
        <time>2020-12-20T08:59:24.533000+00:00</time>
      </trkpt>
      <trkpt lat="0" lon="0">
        <time>2020-12-20T08:59:24.535000+00:00</time>
      </trkpt>
      <trkpt lat="47.33563" lon="-1.27412">
        <ele>103</ele>
        <time>2020-12-20T08:59:25.453000+00:00</time>
      </trkpt>
      <trkpt lat="0" lon="0">
        <time>2020-12-20T08:59:25.467000+00:00</time>
      </trkpt>
      <trkpt lat="0" lon="0">
        <time>2020-12-20T08:59:25.472000+00:00</time>
      </trkpt>
      <trkpt lat="0" lon="0">
        <time>2020-12-20T08:59:25.474000+00:00</time>
      </trkpt>
      <trkpt lat="47.3356" lon="-1.27408">
        <ele>104</ele>
        <time>2020-12-20T08:59:26.501000+00:00</time>
      </trkpt>
      <trkpt lat="0" lon="0">
        <time>2020-12-20T08:59:26.508000+00:00</time>
      </trkpt>
      <trkpt lat="0" lon="0">
        <time>2020-12-20T08:59:26.516000+00:00</time>
      </trkpt>
      <trkpt lat="0" lon="0">
        <time>2020-12-20T08:59:26.522000+00:00</time>
      </trkpt>
      <trkpt lat="47.33558" lon="-1.27405">
        <ele>104</ele>
        <time>2020-12-20T08:59:27.471000+00:00</time>
      </trkpt>
      <trkpt lat="0" lon="0">
        <time>2020-12-20T08:59:27.480000+00:00</time>
      </trkpt>
      <trkpt lat="0" lon="0">
        <time>2020-12-20T08:59:27.492000+00:00</time>
      </trkpt>
      <trkpt lat="0" lon="0">
        <time>2020-12-20T08:59:27.496000+00:00</time>
      </trkpt>
      <trkpt lat="47.33555" lon="-1.27402">
        <ele>105</ele>
        <time>2020-12-20T08:59:28.495000+00:00</time>
      </trkpt>
      <trkpt lat="0" lon="0">
        <time>2020-12-20T08:59:28.497000+00:00</time>
      </trkpt>
      <trkpt lat="0" lon="0">
        <time>2020-12-20T08:59:28.501000+00:00</time>
      </trkpt>
      <trkpt lat="0" lon="0">
        <time>2020-12-20T08:59:28.502000+00:00</time>
      </trkpt>
      <trkpt lat="47.33552" lon="-1.27399">
        <ele>105</ele>
        <time>2020-12-20T08:59:29.473000+00:00</time>
      </trkpt>
      <trkpt lat="0" lon="0">
        <time>2020-12-20T08:59:29.484000+00:00</time>
      </trkpt>
      <trkpt lat="0" lon="0">
        <time>2020-12-20T08:59:29.493000+00:00</time>
      </trkpt>
      <trkpt lat="0" lon="0">
        <time>2020-12-20T08:59:29.505000+00:00</time>
      </trkpt>
      <trkpt lat="47.3355" lon="-1.27396">
        <ele>106</ele>
        <time>2020-12-20T08:59:30.463000+00:00</time>
      </trkpt>
      <trkpt lat="0" lon="0">
        <time>2020-12-20T08:59:30.471000+00:00</time>
      </trkpt>
      <trkpt lat="0" lon="0">
        <time>2020-12-20T08:59:30.478000+00:00</time>
      </trkpt>
      <trkpt lat="0" lon="0">
        <time>2020-12-20T08:59:30.482000+00:00</time>
      </trkpt>
      <trkpt lat="47.33547" lon="-1.27393">
        <ele>106</ele>
        <time>2020-12-20T08:59:31.506000+00:00</time>
      </trkpt>
      <trkpt lat="0" lon="0">
        <time>2020-12-20T08:59:31.522000+00:00</time>
      </trkpt>
      <trkpt lat="0" lon="0">
        <time>2020-12-20T08:59:31.527000+00:00</time>
      </trkpt>
      <trkpt lat="0" lon="0">
        <time>2020-12-20T08:59:31.529000+00:00</time>
      </trkpt>
      <trkpt lat="47.33545" lon="-1.2739">
        <ele>106</ele>
        <time>2020-12-20T08:59:32.464000+00:00</time>
      </trkpt>
      <trkpt lat="0" lon="0">
        <time>2020-12-20T08:59:32.473000+00:00</time>
      </trkpt>
      <trkpt lat="0" lon="0">
        <time>2020-12-20T08:59:32.485000+00:00</time>
      </trkpt>
      <trkpt lat="0" lon="0">
        <time>2020-12-20T08:59:32.490000+00:00</time>
      </trkpt>
      <trkpt lat="47.33543" lon="-1.27388">
        <ele>106</ele>
        <time>2020-12-20T08:59:33.510000+00:00</time>
      </trkpt>
      <trkpt lat="0" lon="0">
        <time>2020-12-20T08:59:33.519000+00:00</time>
      </trkpt>
      <trkpt lat="0" lon="0">
        <time>2020-12-20T08:59:33.525000+00:00</time>
      </trkpt>
      <trkpt lat="0" lon="0">
        <time>2020-12-20T08:59:33.528000+00:00</time>
      </trkpt>
      <trkpt lat="47.33541" lon="-1.27385">
        <ele>107</ele>
        <time>2020-12-20T08:59:34.516000+00:00</time>
      </trkpt>
      <trkpt lat="0" lon="0">
        <time>2020-12-20T08:59:34.521000+00:00</time>
      </trkpt>
      <trkpt lat="0" lon="0">
        <time>2020-12-20T08:59:34.525000+00:00</time>
      </trkpt>
      <trkpt lat="0" lon="0">
        <time>2020-12-20T08:59:34.528000+00:00</time>
      </trkpt>
      <trkpt lat="47.33539" lon="-1.27382">
        <ele>107</ele>
        <time>2020-12-20T08:59:35.498000+00:00</time>
      </trkpt>
      <trkpt lat="0" lon="0">
        <time>2020-12-20T08:59:35.508000+00:00</time>
      </trkpt>
      <trkpt lat="0" lon="0">
        <time>2020-12-20T08:59:35.518000+00:00</time>
      </trkpt>
      <trkpt lat="0" lon="0">
        <time>2020-12-20T08:59:35.520000+00:00</time>
      </trkpt>
      <trkpt lat="47.33536" lon="-1.2738">
        <ele>108</ele>
        <time>2020-12-20T08:59:36.494000+00:00</time>
      </trkpt>
      <trkpt lat="0" lon="0">
        <time>2020-12-20T08:59:36.507000+00:00</time>
      </trkpt>
      <trkpt lat="0" lon="0">
        <time>2020-12-20T08:59:36.520000+00:00</time>
      </trkpt>
      <trkpt lat="0" lon="0">
        <time>2020-12-20T08:59:36.523000+00:00</time>
      </trkpt>
      <trkpt lat="47.33534" lon="-1.27378">
        <ele>108</ele>
        <time>2020-12-20T08:59:37.493000+00:00</time>
      </trkpt>
      <trkpt lat="0" lon="0">
        <time>2020-12-20T08:59:37.501000+00:00</time>
      </trkpt>
      <trkpt lat="0" lon="0">
        <time>2020-12-20T08:59:37.508000+00:00</time>
      </trkpt>
      <trkpt lat="0" lon="0">
        <time>2020-12-20T08:59:37.511000+00:00</time>
      </trkpt>
      <trkpt lat="47.33532" lon="-1.27376">
        <ele>108</ele>
        <time>2020-12-20T08:59:38.454000+00:00</time>
      </trkpt>
      <trkpt lat="0" lon="0">
        <time>2020-12-20T08:59:38.460000+00:00</time>
      </trkpt>
      <trkpt lat="0" lon="0">
        <time>2020-12-20T08:59:38.462000+00:00</time>
      </trkpt>
      <trkpt lat="0" lon="0">
        <time>2020-12-20T08:59:38.463000+00:00</time>
      </trkpt>
      <trkpt lat="47.3353" lon="-1.27374">
        <ele>108</ele>
        <time>2020-12-20T08:59:39.484000+00:00</time>
      </trkpt>
      <trkpt lat="0" lon="0">
        <time>2020-12-20T08:59:39.496000+00:00</time>
      </trkpt>
      <trkpt lat="0" lon="0">
        <time>2020-12-20T08:59:39.502000+00:00</time>
      </trkpt>
      <trkpt lat="0" lon="0">
        <time>2020-12-20T08:59:39.505000+00:00</time>
      </trkpt>
      <trkpt lat="47.33527" lon="-1.27372">
        <ele>108</ele>
        <time>2020-12-20T08:59:40.492000+00:00</time>
      </trkpt>
      <trkpt lat="0" lon="0">
        <time>2020-12-20T08:59:40.496000+00:00</time>
      </trkpt>
      <trkpt lat="0" lon="0">
        <time>2020-12-20T08:59:40.506000+00:00</time>
      </trkpt>
      <trkpt lat="0" lon="0">
        <time>2020-12-20T08:59:40.508000+00:00</time>
      </trkpt>
      <trkpt lat="47.33525" lon="-1.27369">
        <ele>109</ele>
        <time>2020-12-20T08:59:41.471000+00:00</time>
      </trkpt>
      <trkpt lat="0" lon="0">
        <time>2020-12-20T08:59:41.477000+00:00</time>
      </trkpt>
      <trkpt lat="0" lon="0">
        <time>2020-12-20T08:59:41.479000+00:00</time>
      </trkpt>
      <trkpt lat="0" lon="0">
        <time>2020-12-20T08:59:41.480000+00:00</time>
      </trkpt>
      <trkpt lat="47.33523" lon="-1.27366">
        <ele>109</ele>
        <time>2020-12-20T08:59:42.492000+00:00</time>
      </trkpt>
      <trkpt lat="0" lon="0">
        <time>2020-12-20T08:59:42.515000+00:00</time>
      </trkpt>
      <trkpt lat="0" lon="0">
        <time>2020-12-20T08:59:42.527000+00:00</time>
      </trkpt>
      <trkpt lat="0" lon="0">
        <time>2020-12-20T08:59:42.530000+00:00</time>
      </trkpt>
      <trkpt lat="47.3352" lon="-1.27362">
        <ele>109</ele>
        <time>2020-12-20T08:59:43.481000+00:00</time>
      </trkpt>
      <trkpt lat="0" lon="0">
        <time>2020-12-20T08:59:43.491000+00:00</time>
      </trkpt>
      <trkpt lat="0" lon="0">
        <time>2020-12-20T08:59:43.495000+00:00</time>
      </trkpt>
      <trkpt lat="0" lon="0">
        <time>2020-12-20T08:59:43.496000+00:00</time>
      </trkpt>
      <trkpt lat="47.33518" lon="-1.27358">
        <ele>109</ele>
        <time>2020-12-20T08:59:44.480000+00:00</time>
      </trkpt>
      <trkpt lat="0" lon="0">
        <time>2020-12-20T08:59:44.490000+00:00</time>
      </trkpt>
      <trkpt lat="0" lon="0">
        <time>2020-12-20T08:59:44.495000+00:00</time>
      </trkpt>
      <trkpt lat="0" lon="0">
        <time>2020-12-20T08:59:44.502000+00:00</time>
      </trkpt>
      <trkpt lat="47.33516" lon="-1.27354">
        <ele>109</ele>
        <time>2020-12-20T08:59:45.515000+00:00</time>
      </trkpt>
      <trkpt lat="0" lon="0">
        <time>2020-12-20T08:59:45.530000+00:00</time>
      </trkpt>
      <trkpt lat="0" lon="0">
        <time>2020-12-20T08:59:45.540000+00:00</time>
      </trkpt>
      <trkpt lat="0" lon="0">
        <time>2020-12-20T08:59:45.542000+00:00</time>
      </trkpt>
      <trkpt lat="47.33514" lon="-1.2735">
        <ele>109</ele>
        <time>2020-12-20T08:59:46.492000+00:00</time>
      </trkpt>
      <trkpt lat="0" lon="0">
        <time>2020-12-20T08:59:46.506000+00:00</time>
      </trkpt>
      <trkpt lat="0" lon="0">
        <time>2020-12-20T08:59:46.514000+00:00</time>
      </trkpt>
      <trkpt lat="0" lon="0">
        <time>2020-12-20T08:59:46.519000+00:00</time>
      </trkpt>
      <trkpt lat="47.33511" lon="-1.27346">
        <ele>109</ele>
        <time>2020-12-20T08:59:47.496000+00:00</time>
      </trkpt>
      <trkpt lat="0" lon="0">
        <time>2020-12-20T08:59:47.509000+00:00</time>
      </trkpt>
      <trkpt lat="0" lon="0">
        <time>2020-12-20T08:59:47.524000+00:00</time>
      </trkpt>
      <trkpt lat="0" lon="0">
        <time>2020-12-20T08:59:47.526000+00:00</time>
      </trkpt>
      <trkpt lat="47.33509" lon="-1.27342">
        <ele>109</ele>
        <time>2020-12-20T08:59:48.497000+00:00</time>
      </trkpt>
      <trkpt lat="0" lon="0">
        <time>2020-12-20T08:59:48.527000+00:00</time>
      </trkpt>
      <trkpt lat="0" lon="0">
        <time>2020-12-20T08:59:48.535000+00:00</time>
      </trkpt>
      <trkpt lat="0" lon="0">
        <time>2020-12-20T08:59:48.540000+00:00</time>
      </trkpt>
      <trkpt lat="47.33506" lon="-1.27339">
        <ele>108</ele>
        <time>2020-12-20T08:59:49.487000+00:00</time>
      </trkpt>
      <trkpt lat="0" lon="0">
        <time>2020-12-20T08:59:49.506000+00:00</time>
      </trkpt>
      <trkpt lat="0" lon="0">
        <time>2020-12-20T08:59:49.513000+00:00</time>
      </trkpt>
      <trkpt lat="0" lon="0">
        <time>2020-12-20T08:59:49.515000+00:00</time>
      </trkpt>
      <trkpt lat="47.33504" lon="-1.27335">
        <ele>108</ele>
        <time>2020-12-20T08:59:50.473000+00:00</time>
      </trkpt>
      <trkpt lat="0" lon="0">
        <time>2020-12-20T08:59:50.492000+00:00</time>
      </trkpt>
      <trkpt lat="0" lon="0">
        <time>2020-12-20T08:59:50.496000+00:00</time>
      </trkpt>
      <trkpt lat="0" lon="0">
        <time>2020-12-20T08:59:50.498000+00:00</time>
      </trkpt>
      <trkpt lat="47.33502" lon="-1.27331">
        <ele>107</ele>
        <time>2020-12-20T08:59:51.517000+00:00</time>
      </trkpt>
      <trkpt lat="0" lon="0">
        <time>2020-12-20T08:59:51.520000+00:00</time>
      </trkpt>
      <trkpt lat="0" lon="0">
        <time>2020-12-20T08:59:51.528000+00:00</time>
      </trkpt>
      <trkpt lat="0" lon="0">
        <time>2020-12-20T08:59:51.530000+00:00</time>
      </trkpt>
      <trkpt lat="47.33501" lon="-1.27328">
        <ele>106</ele>
        <time>2020-12-20T08:59:52.469000+00:00</time>
      </trkpt>
      <trkpt lat="0" lon="0">
        <time>2020-12-20T08:59:52.479000+00:00</time>
      </trkpt>
      <trkpt lat="0" lon="0">
        <time>2020-12-20T08:59:52.484000+00:00</time>
      </trkpt>
      <trkpt lat="0" lon="0">
        <time>2020-12-20T08:59:52.486000+00:00</time>
      </trkpt>
      <trkpt lat="47.33499" lon="-1.27325">
        <ele>105</ele>
        <time>2020-12-20T08:59:53.485000+00:00</time>
      </trkpt>
      <trkpt lat="0" lon="0">
        <time>2020-12-20T08:59:53.496000+00:00</time>
      </trkpt>
      <trkpt lat="0" lon="0">
        <time>2020-12-20T08:59:53.502000+00:00</time>
      </trkpt>
      <trkpt lat="0" lon="0">
        <time>2020-12-20T08:59:53.505000+00:00</time>
      </trkpt>
      <trkpt lat="47.33498" lon="-1.27323">
        <ele>104</ele>
        <time>2020-12-20T08:59:54.500000+00:00</time>
      </trkpt>
      <trkpt lat="0" lon="0">
        <time>2020-12-20T08:59:54.516000+00:00</time>
      </trkpt>
      <trkpt lat="0" lon="0">
        <time>2020-12-20T08:59:54.520000+00:00</time>
      </trkpt>
      <trkpt lat="0" lon="0">
        <time>2020-12-20T08:59:54.522000+00:00</time>
      </trkpt>
      <trkpt lat="47.33497" lon="-1.2732">
        <ele>103</ele>
        <time>2020-12-20T08:59:55.517000+00:00</time>
      </trkpt>
      <trkpt lat="0" lon="0">
        <time>2020-12-20T08:59:55.531000+00:00</time>
      </trkpt>
      <trkpt lat="0" lon="0">
        <time>2020-12-20T08:59:55.535000+00:00</time>
      </trkpt>
      <trkpt lat="0" lon="0">
        <time>2020-12-20T08:59:55.539000+00:00</time>
      </trkpt>
      <trkpt lat="47.33497" lon="-1.27318">
        <ele>102</ele>
        <time>2020-12-20T08:59:56.505000+00:00</time>
      </trkpt>
      <trkpt lat="0" lon="0">
        <time>2020-12-20T08:59:56.521000+00:00</time>
      </trkpt>
      <trkpt lat="0" lon="0">
        <time>2020-12-20T08:59:56.525000+00:00</time>
      </trkpt>
      <trkpt lat="0" lon="0">
        <time>2020-12-20T08:59:56.528000+00:00</time>
      </trkpt>
      <trkpt lat="47.33496" lon="-1.27315">
        <ele>100</ele>
        <time>2020-12-20T08:59:57.503000+00:00</time>
      </trkpt>
      <trkpt lat="0" lon="0">
        <time>2020-12-20T08:59:57.510000+00:00</time>
      </trkpt>
      <trkpt lat="0" lon="0">
        <time>2020-12-20T08:59:57.523000+00:00</time>
      </trkpt>
      <trkpt lat="0" lon="0">
        <time>2020-12-20T08:59:57.527000+00:00</time>
      </trkpt>
      <trkpt lat="47.33496" lon="-1.27313">
        <ele>98</ele>
        <time>2020-12-20T08:59:58.503000+00:00</time>
      </trkpt>
      <trkpt lat="0" lon="0">
        <time>2020-12-20T08:59:58.519000+00:00</time>
      </trkpt>
      <trkpt lat="0" lon="0">
        <time>2020-12-20T08:59:58.522000+00:00</time>
      </trkpt>
      <trkpt lat="0" lon="0">
        <time>2020-12-20T08:59:58.524000+00:00</time>
      </trkpt>
      <trkpt lat="47.33496" lon="-1.27311">
        <ele>98</ele>
        <time>2020-12-20T08:59:59.517000+00:00</time>
      </trkpt>
      <trkpt lat="0" lon="0">
        <time>2020-12-20T08:59:59.522000+00:00</time>
      </trkpt>
      <trkpt lat="0" lon="0">
        <time>2020-12-20T08:59:59.531000+00:00</time>
      </trkpt>
      <trkpt lat="0" lon="0">
        <time>2020-12-20T08:59:59.538000+00:00</time>
      </trkpt>
      <trkpt lat="47.33496" lon="-1.2731">
        <ele>98</ele>
        <time>2020-12-20T09:00:00.499000+00:00</time>
      </trkpt>
      <trkpt lat="0" lon="0">
        <time>2020-12-20T09:00:00.513000+00:00</time>
      </trkpt>
      <trkpt lat="0" lon="0">
        <time>2020-12-20T09:00:00.518000+00:00</time>
      </trkpt>
      <trkpt lat="0" lon="0">
        <time>2020-12-20T09:00:00.522000+00:00</time>
      </trkpt>
      <trkpt lat="47.33496" lon="-1.27309">
        <ele>98</ele>
        <time>2020-12-20T09:00:01.538000+00:00</time>
      </trkpt>
      <trkpt lat="0" lon="0">
        <time>2020-12-20T09:00:01.543000+00:00</time>
      </trkpt>
      <trkpt lat="0" lon="0">
        <time>2020-12-20T09:00:01.552000+00:00</time>
      </trkpt>
      <trkpt lat="0" lon="0">
        <time>2020-12-20T09:00:01.555000+00:00</time>
      </trkpt>
      <trkpt lat="47.33496" lon="-1.27308">
        <ele>98</ele>
        <time>2020-12-20T09:00:02.427000+00:00</time>
      </trkpt>
      <trkpt lat="0" lon="0">
        <time>2020-12-20T09:00:02.429000+00:00</time>
      </trkpt>
      <trkpt lat="0" lon="0">
        <time>2020-12-20T09:00:02.434000+00:00</time>
      </trkpt>
      <trkpt lat="0" lon="0">
        <time>2020-12-20T09:00:02.435000+00:00</time>
      </trkpt>
      <trkpt lat="47.33496" lon="-1.27308">
        <ele>98</ele>
        <time>2020-12-20T09:00:03.490000+00:00</time>
      </trkpt>
      <trkpt lat="0" lon="0">
        <time>2020-12-20T09:00:03.495000+00:00</time>
      </trkpt>
      <trkpt lat="0" lon="0">
        <time>2020-12-20T09:00:03.503000+00:00</time>
      </trkpt>
      <trkpt lat="0" lon="0">
        <time>2020-12-20T09:00:03.506000+00:00</time>
      </trkpt>
      <trkpt lat="47.33496" lon="-1.27307">
        <ele>97</ele>
        <time>2020-12-20T09:00:04.500000+00:00</time>
      </trkpt>
      <trkpt lat="0" lon="0">
        <time>2020-12-20T09:00:04.508000+00:00</time>
      </trkpt>
      <trkpt lat="0" lon="0">
        <time>2020-12-20T09:00:04.512000+00:00</time>
      </trkpt>
      <trkpt lat="0" lon="0">
        <time>2020-12-20T09:00:04.515000+00:00</time>
      </trkpt>
      <trkpt lat="47.33496" lon="-1.27306">
        <ele>96</ele>
        <time>2020-12-20T09:00:05.487000+00:00</time>
      </trkpt>
      <trkpt lat="0" lon="0">
        <time>2020-12-20T09:00:05.499000+00:00</time>
      </trkpt>
      <trkpt lat="0" lon="0">
        <time>2020-12-20T09:00:05.503000+00:00</time>
      </trkpt>
      <trkpt lat="0" lon="0">
        <time>2020-12-20T09:00:05.505000+00:00</time>
      </trkpt>
      <trkpt lat="47.33496" lon="-1.27306">
        <ele>96</ele>
        <time>2020-12-20T09:00:06.482000+00:00</time>
      </trkpt>
      <trkpt lat="0" lon="0">
        <time>2020-12-20T09:00:06.492000+00:00</time>
      </trkpt>
      <trkpt lat="0" lon="0">
        <time>2020-12-20T09:00:06.497000+00:00</time>
      </trkpt>
      <trkpt lat="0" lon="0">
        <time>2020-12-20T09:00:06.499000+00:00</time>
      </trkpt>
      <trkpt lat="47.33496" lon="-1.27306">
        <ele>96</ele>
        <time>2020-12-20T09:00:07.478000+00:00</time>
      </trkpt>
      <trkpt lat="0" lon="0">
        <time>2020-12-20T09:00:07.500000+00:00</time>
      </trkpt>
      <trkpt lat="0" lon="0">
        <time>2020-12-20T09:00:07.503000+00:00</time>
      </trkpt>
      <trkpt lat="0" lon="0">
        <time>2020-12-20T09:00:07.504000+00:00</time>
      </trkpt>
      <trkpt lat="47.33496" lon="-1.27305">
        <ele>93</ele>
        <time>2020-12-20T09:00:08.511000+00:00</time>
      </trkpt>
      <trkpt lat="0" lon="0">
        <time>2020-12-20T09:00:08.515000+00:00</time>
      </trkpt>
      <trkpt lat="0" lon="0">
        <time>2020-12-20T09:00:08.530000+00:00</time>
      </trkpt>
      <trkpt lat="0" lon="0">
        <time>2020-12-20T09:00:08.539000+00:00</time>
      </trkpt>
      <trkpt lat="47.33495" lon="-1.27304">
        <ele>92</ele>
        <time>2020-12-20T09:00:09.527000+00:00</time>
      </trkpt>
      <trkpt lat="0" lon="0">
        <time>2020-12-20T09:00:09.544000+00:00</time>
      </trkpt>
      <trkpt lat="0" lon="0">
        <time>2020-12-20T09:00:09.549000+00:00</time>
      </trkpt>
      <trkpt lat="0" lon="0">
        <time>2020-12-20T09:00:09.552000+00:00</time>
      </trkpt>
      <trkpt lat="47.33495" lon="-1.27304">
        <ele>91</ele>
        <time>2020-12-20T09:00:10.479000+00:00</time>
      </trkpt>
      <trkpt lat="0" lon="0">
        <time>2020-12-20T09:00:10.486000+00:00</time>
      </trkpt>
      <trkpt lat="0" lon="0">
        <time>2020-12-20T09:00:10.494000+00:00</time>
      </trkpt>
      <trkpt lat="0" lon="0">
        <time>2020-12-20T09:00:10.497000+00:00</time>
      </trkpt>
      <trkpt lat="47.33495" lon="-1.27304">
        <ele>90</ele>
        <time>2020-12-20T09:00:11.421000+00:00</time>
      </trkpt>
      <trkpt lat="0" lon="0">
        <time>2020-12-20T09:00:11.424000+00:00</time>
      </trkpt>
      <trkpt lat="0" lon="0">
        <time>2020-12-20T09:00:11.429000+00:00</time>
      </trkpt>
      <trkpt lat="0" lon="0">
        <time>2020-12-20T09:00:11.436000+00:00</time>
      </trkpt>
      <trkpt lat="47.33481" lon="-1.27298">
        <ele>84</ele>
        <time>2020-12-20T09:00:12.405000+00:00</time>
      </trkpt>
      <trkpt lat="0" lon="0">
        <time>2020-12-20T09:00:12.406000+00:00</time>
      </trkpt>
      <trkpt lat="0" lon="0">
        <time>2020-12-20T09:00:12.407000+00:00</time>
      </trkpt>
      <trkpt lat="0" lon="0">
        <time>2020-12-20T09:00:12.409000+00:00</time>
      </trkpt>
      <trkpt lat="47.3348" lon="-1.27299">
        <ele>84</ele>
        <time>2020-12-20T09:00:13.481000+00:00</time>
      </trkpt>
      <trkpt lat="0" lon="0">
        <time>2020-12-20T09:00:13.486000+00:00</time>
      </trkpt>
      <trkpt lat="0" lon="0">
        <time>2020-12-20T09:00:13.488000+00:00</time>
      </trkpt>
      <trkpt lat="0" lon="0">
        <time>2020-12-20T09:00:13.489000+00:00</time>
      </trkpt>
      <trkpt lat="47.33478" lon="-1.27299">
        <ele>84</ele>
        <time>2020-12-20T09:00:14.474000+00:00</time>
      </trkpt>
      <trkpt lat="0" lon="0">
        <time>2020-12-20T09:00:14.484000+00:00</time>
      </trkpt>
      <trkpt lat="0" lon="0">
        <time>2020-12-20T09:00:14.488000+00:00</time>
      </trkpt>
      <trkpt lat="0" lon="0">
        <time>2020-12-20T09:00:14.491000+00:00</time>
      </trkpt>
      <trkpt lat="47.33477" lon="-1.27299">
        <ele>84</ele>
        <time>2020-12-20T09:00:15.488000+00:00</time>
      </trkpt>
      <trkpt lat="0" lon="0">
        <time>2020-12-20T09:00:15.493000+00:00</time>
      </trkpt>
      <trkpt lat="0" lon="0">
        <time>2020-12-20T09:00:15.503000+00:00</time>
      </trkpt>
      <trkpt lat="0" lon="0">
        <time>2020-12-20T09:00:15.507000+00:00</time>
      </trkpt>
      <trkpt lat="47.33475" lon="-1.273">
        <ele>84</ele>
        <time>2020-12-20T09:00:16.495000+00:00</time>
      </trkpt>
      <trkpt lat="0" lon="0">
        <time>2020-12-20T09:00:16.501000+00:00</time>
      </trkpt>
      <trkpt lat="0" lon="0">
        <time>2020-12-20T09:00:16.505000+00:00</time>
      </trkpt>
      <trkpt lat="0" lon="0">
        <time>2020-12-20T09:00:16.515000+00:00</time>
      </trkpt>
      <trkpt lat="47.33473" lon="-1.27299">
        <ele>84</ele>
        <time>2020-12-20T09:00:17.477000+00:00</time>
      </trkpt>
      <trkpt lat="0" lon="0">
        <time>2020-12-20T09:00:17.480000+00:00</time>
      </trkpt>
      <trkpt lat="0" lon="0">
        <time>2020-12-20T09:00:17.483000+00:00</time>
      </trkpt>
      <trkpt lat="0" lon="0">
        <time>2020-12-20T09:00:17.484000+00:00</time>
      </trkpt>
      <trkpt lat="47.33472" lon="-1.27299">
        <ele>84</ele>
        <time>2020-12-20T09:00:18.449000+00:00</time>
      </trkpt>
      <trkpt lat="0" lon="0">
        <time>2020-12-20T09:00:18.455000+00:00</time>
      </trkpt>
      <trkpt lat="0" lon="0">
        <time>2020-12-20T09:00:18.464000+00:00</time>
      </trkpt>
      <trkpt lat="0" lon="0">
        <time>2020-12-20T09:00:18.466000+00:00</time>
      </trkpt>
      <trkpt lat="47.3347" lon="-1.27299">
        <ele>84</ele>
        <time>2020-12-20T09:00:19.501000+00:00</time>
      </trkpt>
      <trkpt lat="0" lon="0">
        <time>2020-12-20T09:00:19.512000+00:00</time>
      </trkpt>
      <trkpt lat="0" lon="0">
        <time>2020-12-20T09:00:19.517000+00:00</time>
      </trkpt>
      <trkpt lat="0" lon="0">
        <time>2020-12-20T09:00:19.519000+00:00</time>
      </trkpt>
      <trkpt lat="47.33469" lon="-1.27299">
        <ele>84</ele>
        <time>2020-12-20T09:00:20.504000+00:00</time>
      </trkpt>
      <trkpt lat="0" lon="0">
        <time>2020-12-20T09:00:20.511000+00:00</time>
      </trkpt>
      <trkpt lat="0" lon="0">
        <time>2020-12-20T09:00:20.519000+00:00</time>
      </trkpt>
      <trkpt lat="0" lon="0">
        <time>2020-12-20T09:00:20.524000+00:00</time>
      </trkpt>
      <trkpt lat="47.33467" lon="-1.27299">
        <ele>84</ele>
        <time>2020-12-20T09:00:21.511000+00:00</time>
      </trkpt>
      <trkpt lat="0" lon="0">
        <time>2020-12-20T09:00:21.517000+00:00</time>
      </trkpt>
      <trkpt lat="0" lon="0">
        <time>2020-12-20T09:00:21.525000+00:00</time>
      </trkpt>
      <trkpt lat="0" lon="0">
        <time>2020-12-20T09:00:21.530000+00:00</time>
      </trkpt>
      <trkpt lat="47.33466" lon="-1.27299">
        <ele>85</ele>
        <time>2020-12-20T09:00:22.480000+00:00</time>
      </trkpt>
      <trkpt lat="0" lon="0">
        <time>2020-12-20T09:00:22.486000+00:00</time>
      </trkpt>
      <trkpt lat="0" lon="0">
        <time>2020-12-20T09:00:22.501000+00:00</time>
      </trkpt>
      <trkpt lat="0" lon="0">
        <time>2020-12-20T09:00:22.503000+00:00</time>
      </trkpt>
      <trkpt lat="47.33465" lon="-1.27299">
        <ele>85</ele>
        <time>2020-12-20T09:00:23.475000+00:00</time>
      </trkpt>
      <trkpt lat="0" lon="0">
        <time>2020-12-20T09:00:23.492000+00:00</time>
      </trkpt>
      <trkpt lat="0" lon="0">
        <time>2020-12-20T09:00:23.498000+00:00</time>
      </trkpt>
      <trkpt lat="0" lon="0">
        <time>2020-12-20T09:00:23.500000+00:00</time>
      </trkpt>
      <trkpt lat="47.33463" lon="-1.27299">
        <ele>87</ele>
        <time>2020-12-20T09:00:24.466000+00:00</time>
      </trkpt>
      <trkpt lat="0" lon="0">
        <time>2020-12-20T09:00:24.470000+00:00</time>
      </trkpt>
      <trkpt lat="0" lon="0">
        <time>2020-12-20T09:00:24.479000+00:00</time>
      </trkpt>
      <trkpt lat="0" lon="0">
        <time>2020-12-20T09:00:24.482000+00:00</time>
      </trkpt>
      <trkpt lat="47.33462" lon="-1.27299">
        <ele>90</ele>
        <time>2020-12-20T09:00:25.469000+00:00</time>
      </trkpt>
      <trkpt lat="0" lon="0">
        <time>2020-12-20T09:00:25.487000+00:00</time>
      </trkpt>
      <trkpt lat="0" lon="0">
        <time>2020-12-20T09:00:25.491000+00:00</time>
      </trkpt>
      <trkpt lat="0" lon="0">
        <time>2020-12-20T09:00:25.494000+00:00</time>
      </trkpt>
      <trkpt lat="47.3346" lon="-1.273">
        <ele>94</ele>
        <time>2020-12-20T09:00:26.496000+00:00</time>
      </trkpt>
      <trkpt lat="0" lon="0">
        <time>2020-12-20T09:00:26.515000+00:00</time>
      </trkpt>
      <trkpt lat="0" lon="0">
        <time>2020-12-20T09:00:26.521000+00:00</time>
      </trkpt>
      <trkpt lat="0" lon="0">
        <time>2020-12-20T09:00:26.523000+00:00</time>
      </trkpt>
      <trkpt lat="47.33459" lon="-1.273">
        <ele>98</ele>
        <time>2020-12-20T09:00:27.463000+00:00</time>
      </trkpt>
      <trkpt lat="0" lon="0">
        <time>2020-12-20T09:00:27.487000+00:00</time>
      </trkpt>
      <trkpt lat="0" lon="0">
        <time>2020-12-20T09:00:27.492000+00:00</time>
      </trkpt>
      <trkpt lat="0" lon="0">
        <time>2020-12-20T09:00:27.498000+00:00</time>
      </trkpt>
      <trkpt lat="47.33457" lon="-1.27301">
        <ele>101</ele>
        <time>2020-12-20T09:00:28.462000+00:00</time>
      </trkpt>
      <trkpt lat="0" lon="0">
        <time>2020-12-20T09:00:28.482000+00:00</time>
      </trkpt>
      <trkpt lat="0" lon="0">
        <time>2020-12-20T09:00:28.488000+00:00</time>
      </trkpt>
      <trkpt lat="0" lon="0">
        <time>2020-12-20T09:00:28.493000+00:00</time>
      </trkpt>
      <trkpt lat="47.33455" lon="-1.27301">
        <ele>104</ele>
        <time>2020-12-20T09:00:29.485000+00:00</time>
      </trkpt>
      <trkpt lat="0" lon="0">
        <time>2020-12-20T09:00:29.498000+00:00</time>
      </trkpt>
      <trkpt lat="0" lon="0">
        <time>2020-12-20T09:00:29.502000+00:00</time>
      </trkpt>
      <trkpt lat="0" lon="0">
        <time>2020-12-20T09:00:29.504000+00:00</time>
      </trkpt>
      <trkpt lat="47.33453" lon="-1.27302">
        <ele>106</ele>
        <time>2020-12-20T09:00:30.484000+00:00</time>
      </trkpt>
      <trkpt lat="0" lon="0">
        <time>2020-12-20T09:00:30.490000+00:00</time>
      </trkpt>
      <trkpt lat="0" lon="0">
        <time>2020-12-20T09:00:30.496000+00:00</time>
      </trkpt>
      <trkpt lat="0" lon="0">
        <time>2020-12-20T09:00:30.504000+00:00</time>
      </trkpt>
      <trkpt lat="47.33451" lon="-1.27302">
        <ele>107</ele>
        <time>2020-12-20T09:00:31.491000+00:00</time>
      </trkpt>
      <trkpt lat="0" lon="0">
        <time>2020-12-20T09:00:31.501000+00:00</time>
      </trkpt>
      <trkpt lat="0" lon="0">
        <time>2020-12-20T09:00:31.505000+00:00</time>
      </trkpt>
      <trkpt lat="0" lon="0">
        <time>2020-12-20T09:00:31.508000+00:00</time>
      </trkpt>
      <trkpt lat="47.33449" lon="-1.27301">
        <ele>107</ele>
        <time>2020-12-20T09:00:32.478000+00:00</time>
      </trkpt>
      <trkpt lat="0" lon="0">
        <time>2020-12-20T09:00:32.489000+00:00</time>
      </trkpt>
      <trkpt lat="0" lon="0">
        <time>2020-12-20T09:00:32.495000+00:00</time>
      </trkpt>
      <trkpt lat="0" lon="0">
        <time>2020-12-20T09:00:32.497000+00:00</time>
      </trkpt>
      <trkpt lat="47.33447" lon="-1.27301">
        <ele>107</ele>
        <time>2020-12-20T09:00:33.475000+00:00</time>
      </trkpt>
      <trkpt lat="0" lon="0">
        <time>2020-12-20T09:00:33.481000+00:00</time>
      </trkpt>
      <trkpt lat="0" lon="0">
        <time>2020-12-20T09:00:33.491000+00:00</time>
      </trkpt>
      <trkpt lat="0" lon="0">
        <time>2020-12-20T09:00:33.495000+00:00</time>
      </trkpt>
      <trkpt lat="47.33445" lon="-1.273">
        <ele>107</ele>
        <time>2020-12-20T09:00:34.519000+00:00</time>
      </trkpt>
      <trkpt lat="0" lon="0">
        <time>2020-12-20T09:00:34.536000+00:00</time>
      </trkpt>
      <trkpt lat="0" lon="0">
        <time>2020-12-20T09:00:34.538000+00:00</time>
      </trkpt>
      <trkpt lat="0" lon="0">
        <time>2020-12-20T09:00:34.540000+00:00</time>
      </trkpt>
      <trkpt lat="47.33444" lon="-1.273">
        <ele>106</ele>
        <time>2020-12-20T09:00:35.454000+00:00</time>
      </trkpt>
      <trkpt lat="0" lon="0">
        <time>2020-12-20T09:00:35.464000+00:00</time>
      </trkpt>
      <trkpt lat="0" lon="0">
        <time>2020-12-20T09:00:35.476000+00:00</time>
      </trkpt>
      <trkpt lat="0" lon="0">
        <time>2020-12-20T09:00:35.479000+00:00</time>
      </trkpt>
      <trkpt lat="47.33442" lon="-1.27299">
        <ele>106</ele>
        <time>2020-12-20T09:00:36.466000+00:00</time>
      </trkpt>
      <trkpt lat="0" lon="0">
        <time>2020-12-20T09:00:36.474000+00:00</time>
      </trkpt>
      <trkpt lat="0" lon="0">
        <time>2020-12-20T09:00:36.478000+00:00</time>
      </trkpt>
      <trkpt lat="0" lon="0">
        <time>2020-12-20T09:00:36.482000+00:00</time>
      </trkpt>
      <trkpt lat="47.3344" lon="-1.27297">
        <ele>106</ele>
        <time>2020-12-20T09:00:37.484000+00:00</time>
      </trkpt>
      <trkpt lat="0" lon="0">
        <time>2020-12-20T09:00:37.503000+00:00</time>
      </trkpt>
      <trkpt lat="0" lon="0">
        <time>2020-12-20T09:00:37.509000+00:00</time>
      </trkpt>
      <trkpt lat="0" lon="0">
        <time>2020-12-20T09:00:37.514000+00:00</time>
      </trkpt>
      <trkpt lat="47.33438" lon="-1.27296">
        <ele>107</ele>
        <time>2020-12-20T09:00:38.470000+00:00</time>
      </trkpt>
      <trkpt lat="0" lon="0">
        <time>2020-12-20T09:00:38.483000+00:00</time>
      </trkpt>
      <trkpt lat="0" lon="0">
        <time>2020-12-20T09:00:38.488000+00:00</time>
      </trkpt>
      <trkpt lat="0" lon="0">
        <time>2020-12-20T09:00:38.491000+00:00</time>
      </trkpt>
      <trkpt lat="47.33437" lon="-1.27295">
        <ele>107</ele>
        <time>2020-12-20T09:00:39.460000+00:00</time>
      </trkpt>
      <trkpt lat="0" lon="0">
        <time>2020-12-20T09:00:39.475000+00:00</time>
      </trkpt>
      <trkpt lat="0" lon="0">
        <time>2020-12-20T09:00:39.481000+00:00</time>
      </trkpt>
      <trkpt lat="0" lon="0">
        <time>2020-12-20T09:00:39.485000+00:00</time>
      </trkpt>
      <trkpt lat="47.33435" lon="-1.27293">
        <ele>107</ele>
        <time>2020-12-20T09:00:40.476000+00:00</time>
      </trkpt>
      <trkpt lat="0" lon="0">
        <time>2020-12-20T09:00:40.484000+00:00</time>
      </trkpt>
      <trkpt lat="0" lon="0">
        <time>2020-12-20T09:00:40.487000+00:00</time>
      </trkpt>
      <trkpt lat="0" lon="0">
        <time>2020-12-20T09:00:40.490000+00:00</time>
      </trkpt>
      <trkpt lat="47.33433" lon="-1.27292">
        <ele>107</ele>
        <time>2020-12-20T09:00:41.469000+00:00</time>
      </trkpt>
      <trkpt lat="0" lon="0">
        <time>2020-12-20T09:00:41.474000+00:00</time>
      </trkpt>
      <trkpt lat="0" lon="0">
        <time>2020-12-20T09:00:41.484000+00:00</time>
      </trkpt>
      <trkpt lat="0" lon="0">
        <time>2020-12-20T09:00:41.495000+00:00</time>
      </trkpt>
      <trkpt lat="47.33431" lon="-1.2729">
        <ele>108</ele>
        <time>2020-12-20T09:00:42.477000+00:00</time>
      </trkpt>
      <trkpt lat="0" lon="0">
        <time>2020-12-20T09:00:42.482000+00:00</time>
      </trkpt>
      <trkpt lat="0" lon="0">
        <time>2020-12-20T09:00:42.487000+00:00</time>
      </trkpt>
      <trkpt lat="0" lon="0">
        <time>2020-12-20T09:00:42.490000+00:00</time>
      </trkpt>
      <trkpt lat="47.3343" lon="-1.27288">
        <ele>108</ele>
        <time>2020-12-20T09:00:43.487000+00:00</time>
      </trkpt>
      <trkpt lat="0" lon="0">
        <time>2020-12-20T09:00:43.500000+00:00</time>
      </trkpt>
      <trkpt lat="0" lon="0">
        <time>2020-12-20T09:00:43.511000+00:00</time>
      </trkpt>
      <trkpt lat="0" lon="0">
        <time>2020-12-20T09:00:43.522000+00:00</time>
      </trkpt>
      <trkpt lat="47.33428" lon="-1.27287">
        <ele>107</ele>
        <time>2020-12-20T09:00:44.457000+00:00</time>
      </trkpt>
      <trkpt lat="0" lon="0">
        <time>2020-12-20T09:00:44.467000+00:00</time>
      </trkpt>
      <trkpt lat="0" lon="0">
        <time>2020-12-20T09:00:44.474000+00:00</time>
      </trkpt>
      <trkpt lat="0" lon="0">
        <time>2020-12-20T09:00:44.476000+00:00</time>
      </trkpt>
      <trkpt lat="47.33427" lon="-1.27286">
        <ele>107</ele>
        <time>2020-12-20T09:00:45.521000+00:00</time>
      </trkpt>
      <trkpt lat="0" lon="0">
        <time>2020-12-20T09:00:45.527000+00:00</time>
      </trkpt>
      <trkpt lat="0" lon="0">
        <time>2020-12-20T09:00:45.529000+00:00</time>
      </trkpt>
      <trkpt lat="0" lon="0">
        <time>2020-12-20T09:00:45.531000+00:00</time>
      </trkpt>
      <trkpt lat="47.33425" lon="-1.27285">
        <ele>105</ele>
        <time>2020-12-20T09:00:46.455000+00:00</time>
      </trkpt>
      <trkpt lat="0" lon="0">
        <time>2020-12-20T09:00:46.469000+00:00</time>
      </trkpt>
      <trkpt lat="0" lon="0">
        <time>2020-12-20T09:00:46.474000+00:00</time>
      </trkpt>
      <trkpt lat="0" lon="0">
        <time>2020-12-20T09:00:46.477000+00:00</time>
      </trkpt>
      <trkpt lat="47.33423" lon="-1.27284">
        <ele>105</ele>
        <time>2020-12-20T09:00:47.487000+00:00</time>
      </trkpt>
      <trkpt lat="0" lon="0">
        <time>2020-12-20T09:00:47.506000+00:00</time>
      </trkpt>
      <trkpt lat="0" lon="0">
        <time>2020-12-20T09:00:47.512000+00:00</time>
      </trkpt>
      <trkpt lat="0" lon="0">
        <time>2020-12-20T09:00:47.516000+00:00</time>
      </trkpt>
      <trkpt lat="47.33421" lon="-1.27284">
        <ele>105</ele>
        <time>2020-12-20T09:00:48.453000+00:00</time>
      </trkpt>
      <trkpt lat="0" lon="0">
        <time>2020-12-20T09:00:48.471000+00:00</time>
      </trkpt>
      <trkpt lat="0" lon="0">
        <time>2020-12-20T09:00:48.477000+00:00</time>
      </trkpt>
      <trkpt lat="0" lon="0">
        <time>2020-12-20T09:00:48.481000+00:00</time>
      </trkpt>
      <trkpt lat="47.33419" lon="-1.27283">
        <ele>105</ele>
        <time>2020-12-20T09:00:49.459000+00:00</time>
      </trkpt>
      <trkpt lat="0" lon="0">
        <time>2020-12-20T09:00:49.485000+00:00</time>
      </trkpt>
      <trkpt lat="0" lon="0">
        <time>2020-12-20T09:00:49.489000+00:00</time>
      </trkpt>
      <trkpt lat="0" lon="0">
        <time>2020-12-20T09:00:49.493000+00:00</time>
      </trkpt>
      <trkpt lat="47.33416" lon="-1.27282">
        <ele>105</ele>
        <time>2020-12-20T09:00:50.476000+00:00</time>
      </trkpt>
      <trkpt lat="0" lon="0">
        <time>2020-12-20T09:00:50.483000+00:00</time>
      </trkpt>
      <trkpt lat="0" lon="0">
        <time>2020-12-20T09:00:50.493000+00:00</time>
      </trkpt>
      <trkpt lat="0" lon="0">
        <time>2020-12-20T09:00:50.495000+00:00</time>
      </trkpt>
      <trkpt lat="47.33414" lon="-1.27281">
        <ele>106</ele>
        <time>2020-12-20T09:00:51.475000+00:00</time>
      </trkpt>
      <trkpt lat="0" lon="0">
        <time>2020-12-20T09:00:51.490000+00:00</time>
      </trkpt>
      <trkpt lat="0" lon="0">
        <time>2020-12-20T09:00:51.494000+00:00</time>
      </trkpt>
      <trkpt lat="0" lon="0">
        <time>2020-12-20T09:00:51.496000+00:00</time>
      </trkpt>
      <trkpt lat="47.33412" lon="-1.27279">
        <ele>106</ele>
        <time>2020-12-20T09:00:52.455000+00:00</time>
      </trkpt>
      <trkpt lat="0" lon="0">
        <time>2020-12-20T09:00:52.463000+00:00</time>
      </trkpt>
      <trkpt lat="0" lon="0">
        <time>2020-12-20T09:00:52.464000+00:00</time>
      </trkpt>
      <trkpt lat="0" lon="0">
        <time>2020-12-20T09:00:52.465000+00:00</time>
      </trkpt>
      <trkpt lat="47.3341" lon="-1.27278">
        <ele>105</ele>
        <time>2020-12-20T09:00:53.453000+00:00</time>
      </trkpt>
      <trkpt lat="0" lon="0">
        <time>2020-12-20T09:00:53.470000+00:00</time>
      </trkpt>
      <trkpt lat="0" lon="0">
        <time>2020-12-20T09:00:53.479000+00:00</time>
      </trkpt>
      <trkpt lat="0" lon="0">
        <time>2020-12-20T09:00:53.483000+00:00</time>
      </trkpt>
      <trkpt lat="47.33407" lon="-1.27277">
        <ele>105</ele>
        <time>2020-12-20T09:00:54.445000+00:00</time>
      </trkpt>
      <trkpt lat="0" lon="0">
        <time>2020-12-20T09:00:54.453000+00:00</time>
      </trkpt>
      <trkpt lat="0" lon="0">
        <time>2020-12-20T09:00:54.463000+00:00</time>
      </trkpt>
      <trkpt lat="0" lon="0">
        <time>2020-12-20T09:00:54.465000+00:00</time>
      </trkpt>
      <trkpt lat="47.33405" lon="-1.27276">
        <ele>105</ele>
        <time>2020-12-20T09:00:55.468000+00:00</time>
      </trkpt>
      <trkpt lat="0" lon="0">
        <time>2020-12-20T09:00:55.486000+00:00</time>
      </trkpt>
      <trkpt lat="0" lon="0">
        <time>2020-12-20T09:00:55.493000+00:00</time>
      </trkpt>
      <trkpt lat="0" lon="0">
        <time>2020-12-20T09:00:55.498000+00:00</time>
      </trkpt>
      <trkpt lat="47.33402" lon="-1.27274">
        <ele>106</ele>
        <time>2020-12-20T09:00:56.492000+00:00</time>
      </trkpt>
      <trkpt lat="0" lon="0">
        <time>2020-12-20T09:00:56.497000+00:00</time>
      </trkpt>
      <trkpt lat="0" lon="0">
        <time>2020-12-20T09:00:56.502000+00:00</time>
      </trkpt>
      <trkpt lat="0" lon="0">
        <time>2020-12-20T09:00:56.506000+00:00</time>
      </trkpt>
      <trkpt lat="47.334" lon="-1.27274">
        <ele>106</ele>
        <time>2020-12-20T09:00:57.442000+00:00</time>
      </trkpt>
      <trkpt lat="0" lon="0">
        <time>2020-12-20T09:00:57.451000+00:00</time>
      </trkpt>
      <trkpt lat="0" lon="0">
        <time>2020-12-20T09:00:57.458000+00:00</time>
      </trkpt>
      <trkpt lat="0" lon="0">
        <time>2020-12-20T09:00:57.461000+00:00</time>
      </trkpt>
      <trkpt lat="47.33398" lon="-1.27273">
        <ele>107</ele>
        <time>2020-12-20T09:00:58.452000+00:00</time>
      </trkpt>
      <trkpt lat="0" lon="0">
        <time>2020-12-20T09:00:58.462000+00:00</time>
      </trkpt>
      <trkpt lat="0" lon="0">
        <time>2020-12-20T09:00:58.464000+00:00</time>
      </trkpt>
      <trkpt lat="0" lon="0">
        <time>2020-12-20T09:00:58.465000+00:00</time>
      </trkpt>
      <trkpt lat="47.33395" lon="-1.27272">
        <ele>107</ele>
        <time>2020-12-20T09:00:59.488000+00:00</time>
      </trkpt>
      <trkpt lat="0" lon="0">
        <time>2020-12-20T09:00:59.506000+00:00</time>
      </trkpt>
      <trkpt lat="0" lon="0">
        <time>2020-12-20T09:00:59.511000+00:00</time>
      </trkpt>
      <trkpt lat="0" lon="0">
        <time>2020-12-20T09:00:59.513000+00:00</time>
      </trkpt>
      <trkpt lat="47.33393" lon="-1.27272">
        <ele>107</ele>
        <time>2020-12-20T09:01:00.481000+00:00</time>
      </trkpt>
      <trkpt lat="0" lon="0">
        <time>2020-12-20T09:01:00.489000+00:00</time>
      </trkpt>
      <trkpt lat="0" lon="0">
        <time>2020-12-20T09:01:00.493000+00:00</time>
      </trkpt>
      <trkpt lat="0" lon="0">
        <time>2020-12-20T09:01:00.496000+00:00</time>
      </trkpt>
      <trkpt lat="47.3339" lon="-1.27271">
        <ele>107</ele>
        <time>2020-12-20T09:01:01.474000+00:00</time>
      </trkpt>
      <trkpt lat="0" lon="0">
        <time>2020-12-20T09:01:01.494000+00:00</time>
      </trkpt>
      <trkpt lat="0" lon="0">
        <time>2020-12-20T09:01:01.505000+00:00</time>
      </trkpt>
      <trkpt lat="0" lon="0">
        <time>2020-12-20T09:01:01.507000+00:00</time>
      </trkpt>
      <trkpt lat="47.33388" lon="-1.27271">
        <ele>108</ele>
        <time>2020-12-20T09:01:02.505000+00:00</time>
      </trkpt>
      <trkpt lat="0" lon="0">
        <time>2020-12-20T09:01:02.524000+00:00</time>
      </trkpt>
      <trkpt lat="0" lon="0">
        <time>2020-12-20T09:01:02.528000+00:00</time>
      </trkpt>
      <trkpt lat="0" lon="0">
        <time>2020-12-20T09:01:02.533000+00:00</time>
      </trkpt>
      <trkpt lat="47.33385" lon="-1.2727">
        <ele>109</ele>
        <time>2020-12-20T09:01:03.462000+00:00</time>
      </trkpt>
      <trkpt lat="0" lon="0">
        <time>2020-12-20T09:01:03.486000+00:00</time>
      </trkpt>
      <trkpt lat="0" lon="0">
        <time>2020-12-20T09:01:03.492000+00:00</time>
      </trkpt>
      <trkpt lat="0" lon="0">
        <time>2020-12-20T09:01:03.495000+00:00</time>
      </trkpt>
      <trkpt lat="47.33383" lon="-1.2727">
        <ele>109</ele>
        <time>2020-12-20T09:01:04.487000+00:00</time>
      </trkpt>
      <trkpt lat="0" lon="0">
        <time>2020-12-20T09:01:04.500000+00:00</time>
      </trkpt>
      <trkpt lat="0" lon="0">
        <time>2020-12-20T09:01:04.502000+00:00</time>
      </trkpt>
      <trkpt lat="0" lon="0">
        <time>2020-12-20T09:01:04.503000+00:00</time>
      </trkpt>
      <trkpt lat="47.3338" lon="-1.2727">
        <ele>109</ele>
        <time>2020-12-20T09:01:05.488000+00:00</time>
      </trkpt>
      <trkpt lat="0" lon="0">
        <time>2020-12-20T09:01:05.512000+00:00</time>
      </trkpt>
      <trkpt lat="0" lon="0">
        <time>2020-12-20T09:01:05.518000+00:00</time>
      </trkpt>
      <trkpt lat="0" lon="0">
        <time>2020-12-20T09:01:05.520000+00:00</time>
      </trkpt>
      <trkpt lat="47.33378" lon="-1.27269">
        <ele>109</ele>
        <time>2020-12-20T09:01:06.475000+00:00</time>
      </trkpt>
      <trkpt lat="0" lon="0">
        <time>2020-12-20T09:01:06.486000+00:00</time>
      </trkpt>
      <trkpt lat="0" lon="0">
        <time>2020-12-20T09:01:06.491000+00:00</time>
      </trkpt>
      <trkpt lat="0" lon="0">
        <time>2020-12-20T09:01:06.494000+00:00</time>
      </trkpt>
      <trkpt lat="47.33376" lon="-1.27268">
        <ele>109</ele>
        <time>2020-12-20T09:01:07.493000+00:00</time>
      </trkpt>
      <trkpt lat="0" lon="0">
        <time>2020-12-20T09:01:07.508000+00:00</time>
      </trkpt>
      <trkpt lat="0" lon="0">
        <time>2020-12-20T09:01:07.512000+00:00</time>
      </trkpt>
      <trkpt lat="0" lon="0">
        <time>2020-12-20T09:01:07.516000+00:00</time>
      </trkpt>
      <trkpt lat="47.33373" lon="-1.27267">
        <ele>109</ele>
        <time>2020-12-20T09:01:08.583000+00:00</time>
      </trkpt>
      <trkpt lat="0" lon="0">
        <time>2020-12-20T09:01:08.587000+00:00</time>
      </trkpt>
      <trkpt lat="0" lon="0">
        <time>2020-12-20T09:01:08.593000+00:00</time>
      </trkpt>
      <trkpt lat="0" lon="0">
        <time>2020-12-20T09:01:08.596000+00:00</time>
      </trkpt>
      <trkpt lat="47.33371" lon="-1.27267">
        <ele>110</ele>
        <time>2020-12-20T09:01:09.440000+00:00</time>
      </trkpt>
      <trkpt lat="0" lon="0">
        <time>2020-12-20T09:01:09.444000+00:00</time>
      </trkpt>
      <trkpt lat="0" lon="0">
        <time>2020-12-20T09:01:09.457000+00:00</time>
      </trkpt>
      <trkpt lat="0" lon="0">
        <time>2020-12-20T09:01:09.460000+00:00</time>
      </trkpt>
      <trkpt lat="47.33369" lon="-1.27266">
        <ele>111</ele>
        <time>2020-12-20T09:01:10.469000+00:00</time>
      </trkpt>
      <trkpt lat="0" lon="0">
        <time>2020-12-20T09:01:10.480000+00:00</time>
      </trkpt>
      <trkpt lat="0" lon="0">
        <time>2020-12-20T09:01:10.487000+00:00</time>
      </trkpt>
      <trkpt lat="0" lon="0">
        <time>2020-12-20T09:01:10.493000+00:00</time>
      </trkpt>
      <trkpt lat="47.33367" lon="-1.27265">
        <ele>111</ele>
        <time>2020-12-20T09:01:11.493000+00:00</time>
      </trkpt>
      <trkpt lat="0" lon="0">
        <time>2020-12-20T09:01:11.514000+00:00</time>
      </trkpt>
      <trkpt lat="0" lon="0">
        <time>2020-12-20T09:01:11.521000+00:00</time>
      </trkpt>
      <trkpt lat="0" lon="0">
        <time>2020-12-20T09:01:11.523000+00:00</time>
      </trkpt>
      <trkpt lat="47.33365" lon="-1.27265">
        <ele>111</ele>
        <time>2020-12-20T09:01:12.480000+00:00</time>
      </trkpt>
      <trkpt lat="0" lon="0">
        <time>2020-12-20T09:01:12.485000+00:00</time>
      </trkpt>
      <trkpt lat="0" lon="0">
        <time>2020-12-20T09:01:12.497000+00:00</time>
      </trkpt>
      <trkpt lat="0" lon="0">
        <time>2020-12-20T09:01:12.502000+00:00</time>
      </trkpt>
      <trkpt lat="47.33364" lon="-1.27264">
        <ele>111</ele>
        <time>2020-12-20T09:01:13.480000+00:00</time>
      </trkpt>
      <trkpt lat="0" lon="0">
        <time>2020-12-20T09:01:13.492000+00:00</time>
      </trkpt>
      <trkpt lat="0" lon="0">
        <time>2020-12-20T09:01:13.497000+00:00</time>
      </trkpt>
      <trkpt lat="0" lon="0">
        <time>2020-12-20T09:01:13.500000+00:00</time>
      </trkpt>
      <trkpt lat="47.33362" lon="-1.27264">
        <ele>112</ele>
        <time>2020-12-20T09:01:14.492000+00:00</time>
      </trkpt>
      <trkpt lat="0" lon="0">
        <time>2020-12-20T09:01:14.505000+00:00</time>
      </trkpt>
      <trkpt lat="0" lon="0">
        <time>2020-12-20T09:01:14.512000+00:00</time>
      </trkpt>
      <trkpt lat="0" lon="0">
        <time>2020-12-20T09:01:14.515000+00:00</time>
      </trkpt>
      <trkpt lat="47.3336" lon="-1.27264">
        <ele>112</ele>
        <time>2020-12-20T09:01:15.457000+00:00</time>
      </trkpt>
      <trkpt lat="0" lon="0">
        <time>2020-12-20T09:01:15.473000+00:00</time>
      </trkpt>
      <trkpt lat="0" lon="0">
        <time>2020-12-20T09:01:15.482000+00:00</time>
      </trkpt>
      <trkpt lat="0" lon="0">
        <time>2020-12-20T09:01:15.484000+00:00</time>
      </trkpt>
      <trkpt lat="47.33358" lon="-1.27264">
        <ele>112</ele>
        <time>2020-12-20T09:01:16.476000+00:00</time>
      </trkpt>
      <trkpt lat="0" lon="0">
        <time>2020-12-20T09:01:16.484000+00:00</time>
      </trkpt>
      <trkpt lat="0" lon="0">
        <time>2020-12-20T09:01:16.488000+00:00</time>
      </trkpt>
      <trkpt lat="0" lon="0">
        <time>2020-12-20T09:01:16.493000+00:00</time>
      </trkpt>
      <trkpt lat="47.33356" lon="-1.27263">
        <ele>113</ele>
        <time>2020-12-20T09:01:17.467000+00:00</time>
      </trkpt>
      <trkpt lat="0" lon="0">
        <time>2020-12-20T09:01:17.488000+00:00</time>
      </trkpt>
      <trkpt lat="0" lon="0">
        <time>2020-12-20T09:01:17.498000+00:00</time>
      </trkpt>
      <trkpt lat="0" lon="0">
        <time>2020-12-20T09:01:17.500000+00:00</time>
      </trkpt>
      <trkpt lat="47.33355" lon="-1.27263">
        <ele>113</ele>
        <time>2020-12-20T09:01:18.441000+00:00</time>
      </trkpt>
      <trkpt lat="0" lon="0">
        <time>2020-12-20T09:01:18.453000+00:00</time>
      </trkpt>
      <trkpt lat="0" lon="0">
        <time>2020-12-20T09:01:18.457000+00:00</time>
      </trkpt>
      <trkpt lat="0" lon="0">
        <time>2020-12-20T09:01:18.461000+00:00</time>
      </trkpt>
      <trkpt lat="47.33354" lon="-1.27263">
        <ele>113</ele>
        <time>2020-12-20T09:01:19.481000+00:00</time>
      </trkpt>
      <trkpt lat="0" lon="0">
        <time>2020-12-20T09:01:19.485000+00:00</time>
      </trkpt>
      <trkpt lat="0" lon="0">
        <time>2020-12-20T09:01:19.499000+00:00</time>
      </trkpt>
      <trkpt lat="0" lon="0">
        <time>2020-12-20T09:01:19.501000+00:00</time>
      </trkpt>
      <trkpt lat="47.33352" lon="-1.27263">
        <ele>113</ele>
        <time>2020-12-20T09:01:20.474000+00:00</time>
      </trkpt>
      <trkpt lat="0" lon="0">
        <time>2020-12-20T09:01:20.483000+00:00</time>
      </trkpt>
      <trkpt lat="0" lon="0">
        <time>2020-12-20T09:01:20.490000+00:00</time>
      </trkpt>
      <trkpt lat="0" lon="0">
        <time>2020-12-20T09:01:20.500000+00:00</time>
      </trkpt>
      <trkpt lat="47.33351" lon="-1.27263">
        <ele>113</ele>
        <time>2020-12-20T09:01:21.457000+00:00</time>
      </trkpt>
      <trkpt lat="0" lon="0">
        <time>2020-12-20T09:01:21.463000+00:00</time>
      </trkpt>
      <trkpt lat="0" lon="0">
        <time>2020-12-20T09:01:21.479000+00:00</time>
      </trkpt>
      <trkpt lat="0" lon="0">
        <time>2020-12-20T09:01:21.481000+00:00</time>
      </trkpt>
      <trkpt lat="47.33349" lon="-1.27262">
        <ele>112</ele>
        <time>2020-12-20T09:01:22.485000+00:00</time>
      </trkpt>
      <trkpt lat="0" lon="0">
        <time>2020-12-20T09:01:22.495000+00:00</time>
      </trkpt>
      <trkpt lat="0" lon="0">
        <time>2020-12-20T09:01:22.501000+00:00</time>
      </trkpt>
      <trkpt lat="0" lon="0">
        <time>2020-12-20T09:01:22.504000+00:00</time>
      </trkpt>
      <trkpt lat="47.33347" lon="-1.27262">
        <ele>112</ele>
        <time>2020-12-20T09:01:23.436000+00:00</time>
      </trkpt>
      <trkpt lat="0" lon="0">
        <time>2020-12-20T09:01:23.447000+00:00</time>
      </trkpt>
      <trkpt lat="0" lon="0">
        <time>2020-12-20T09:01:23.454000+00:00</time>
      </trkpt>
      <trkpt lat="0" lon="0">
        <time>2020-12-20T09:01:23.456000+00:00</time>
      </trkpt>
      <trkpt lat="47.33346" lon="-1.27262">
        <ele>112</ele>
        <time>2020-12-20T09:01:24.477000+00:00</time>
      </trkpt>
      <trkpt lat="0" lon="0">
        <time>2020-12-20T09:01:24.493000+00:00</time>
      </trkpt>
      <trkpt lat="0" lon="0">
        <time>2020-12-20T09:01:24.501000+00:00</time>
      </trkpt>
      <trkpt lat="0" lon="0">
        <time>2020-12-20T09:01:24.513000+00:00</time>
      </trkpt>
      <trkpt lat="47.33344" lon="-1.27261">
        <ele>113</ele>
        <time>2020-12-20T09:01:25.477000+00:00</time>
      </trkpt>
      <trkpt lat="0" lon="0">
        <time>2020-12-20T09:01:25.492000+00:00</time>
      </trkpt>
      <trkpt lat="0" lon="0">
        <time>2020-12-20T09:01:25.494000+00:00</time>
      </trkpt>
      <trkpt lat="0" lon="0">
        <time>2020-12-20T09:01:25.495000+00:00</time>
      </trkpt>
      <trkpt lat="47.33343" lon="-1.2726">
        <ele>113</ele>
        <time>2020-12-20T09:01:26.467000+00:00</time>
      </trkpt>
      <trkpt lat="0" lon="0">
        <time>2020-12-20T09:01:26.476000+00:00</time>
      </trkpt>
      <trkpt lat="0" lon="0">
        <time>2020-12-20T09:01:26.485000+00:00</time>
      </trkpt>
      <trkpt lat="0" lon="0">
        <time>2020-12-20T09:01:26.488000+00:00</time>
      </trkpt>
      <trkpt lat="47.33341" lon="-1.2726">
        <ele>113</ele>
        <time>2020-12-20T09:01:27.473000+00:00</time>
      </trkpt>
      <trkpt lat="0" lon="0">
        <time>2020-12-20T09:01:27.484000+00:00</time>
      </trkpt>
      <trkpt lat="0" lon="0">
        <time>2020-12-20T09:01:27.489000+00:00</time>
      </trkpt>
      <trkpt lat="0" lon="0">
        <time>2020-12-20T09:01:27.491000+00:00</time>
      </trkpt>
      <trkpt lat="47.33339" lon="-1.27259">
        <ele>113</ele>
        <time>2020-12-20T09:01:28.477000+00:00</time>
      </trkpt>
      <trkpt lat="0" lon="0">
        <time>2020-12-20T09:01:28.486000+00:00</time>
      </trkpt>
      <trkpt lat="0" lon="0">
        <time>2020-12-20T09:01:28.496000+00:00</time>
      </trkpt>
      <trkpt lat="0" lon="0">
        <time>2020-12-20T09:01:28.499000+00:00</time>
      </trkpt>
      <trkpt lat="47.33336" lon="-1.27258">
        <ele>113</ele>
        <time>2020-12-20T09:01:29.480000+00:00</time>
      </trkpt>
      <trkpt lat="0" lon="0">
        <time>2020-12-20T09:01:29.491000+00:00</time>
      </trkpt>
      <trkpt lat="0" lon="0">
        <time>2020-12-20T09:01:29.501000+00:00</time>
      </trkpt>
      <trkpt lat="0" lon="0">
        <time>2020-12-20T09:01:29.503000+00:00</time>
      </trkpt>
      <trkpt lat="47.33334" lon="-1.27257">
        <ele>113</ele>
        <time>2020-12-20T09:01:30.449000+00:00</time>
      </trkpt>
      <trkpt lat="0" lon="0">
        <time>2020-12-20T09:01:30.462000+00:00</time>
      </trkpt>
      <trkpt lat="0" lon="0">
        <time>2020-12-20T09:01:30.477000+00:00</time>
      </trkpt>
      <trkpt lat="0" lon="0">
        <time>2020-12-20T09:01:30.479000+00:00</time>
      </trkpt>
      <trkpt lat="47.33332" lon="-1.27256">
        <ele>113</ele>
        <time>2020-12-20T09:01:31.504000+00:00</time>
      </trkpt>
      <trkpt lat="0" lon="0">
        <time>2020-12-20T09:01:31.506000+00:00</time>
      </trkpt>
      <trkpt lat="0" lon="0">
        <time>2020-12-20T09:01:31.508000+00:00</time>
      </trkpt>
      <trkpt lat="0" lon="0">
        <time>2020-12-20T09:01:31.512000+00:00</time>
      </trkpt>
      <trkpt lat="47.33329" lon="-1.27255">
        <ele>113</ele>
        <time>2020-12-20T09:01:32.437000+00:00</time>
      </trkpt>
      <trkpt lat="0" lon="0">
        <time>2020-12-20T09:01:32.447000+00:00</time>
      </trkpt>
      <trkpt lat="0" lon="0">
        <time>2020-12-20T09:01:32.453000+00:00</time>
      </trkpt>
      <trkpt lat="0" lon="0">
        <time>2020-12-20T09:01:32.456000+00:00</time>
      </trkpt>
      <trkpt lat="47.33326" lon="-1.27254">
        <ele>113</ele>
        <time>2020-12-20T09:01:33.467000+00:00</time>
      </trkpt>
      <trkpt lat="0" lon="0">
        <time>2020-12-20T09:01:33.483000+00:00</time>
      </trkpt>
      <trkpt lat="0" lon="0">
        <time>2020-12-20T09:01:33.491000+00:00</time>
      </trkpt>
      <trkpt lat="0" lon="0">
        <time>2020-12-20T09:01:33.495000+00:00</time>
      </trkpt>
      <trkpt lat="47.33323" lon="-1.27253">
        <ele>113</ele>
        <time>2020-12-20T09:01:34.452000+00:00</time>
      </trkpt>
      <trkpt lat="0" lon="0">
        <time>2020-12-20T09:01:34.469000+00:00</time>
      </trkpt>
      <trkpt lat="0" lon="0">
        <time>2020-12-20T09:01:34.471000+00:00</time>
      </trkpt>
      <trkpt lat="0" lon="0">
        <time>2020-12-20T09:01:34.472000+00:00</time>
      </trkpt>
      <trkpt lat="47.33321" lon="-1.27252">
        <ele>114</ele>
        <time>2020-12-20T09:01:35.463000+00:00</time>
      </trkpt>
      <trkpt lat="0" lon="0">
        <time>2020-12-20T09:01:35.485000+00:00</time>
      </trkpt>
      <trkpt lat="0" lon="0">
        <time>2020-12-20T09:01:35.490000+00:00</time>
      </trkpt>
      <trkpt lat="0" lon="0">
        <time>2020-12-20T09:01:35.492000+00:00</time>
      </trkpt>
      <trkpt lat="47.33318" lon="-1.27251">
        <ele>114</ele>
        <time>2020-12-20T09:01:36.471000+00:00</time>
      </trkpt>
      <trkpt lat="0" lon="0">
        <time>2020-12-20T09:01:36.482000+00:00</time>
      </trkpt>
      <trkpt lat="0" lon="0">
        <time>2020-12-20T09:01:36.488000+00:00</time>
      </trkpt>
      <trkpt lat="0" lon="0">
        <time>2020-12-20T09:01:36.493000+00:00</time>
      </trkpt>
      <trkpt lat="47.33314" lon="-1.2725">
        <ele>114</ele>
        <time>2020-12-20T09:01:37.468000+00:00</time>
      </trkpt>
      <trkpt lat="0" lon="0">
        <time>2020-12-20T09:01:37.478000+00:00</time>
      </trkpt>
      <trkpt lat="0" lon="0">
        <time>2020-12-20T09:01:37.480000+00:00</time>
      </trkpt>
      <trkpt lat="0" lon="0">
        <time>2020-12-20T09:01:37.481000+00:00</time>
      </trkpt>
      <trkpt lat="47.33311" lon="-1.27249">
        <ele>114</ele>
        <time>2020-12-20T09:01:38.493000+00:00</time>
      </trkpt>
      <trkpt lat="0" lon="0">
        <time>2020-12-20T09:01:38.497000+00:00</time>
      </trkpt>
      <trkpt lat="0" lon="0">
        <time>2020-12-20T09:01:38.505000+00:00</time>
      </trkpt>
      <trkpt lat="0" lon="0">
        <time>2020-12-20T09:01:38.507000+00:00</time>
      </trkpt>
      <trkpt lat="47.33308" lon="-1.27248">
        <ele>114</ele>
        <time>2020-12-20T09:01:39.486000+00:00</time>
      </trkpt>
      <trkpt lat="0" lon="0">
        <time>2020-12-20T09:01:39.504000+00:00</time>
      </trkpt>
      <trkpt lat="0" lon="0">
        <time>2020-12-20T09:01:39.515000+00:00</time>
      </trkpt>
      <trkpt lat="0" lon="0">
        <time>2020-12-20T09:01:39.518000+00:00</time>
      </trkpt>
      <trkpt lat="47.33305" lon="-1.27247">
        <ele>114</ele>
        <time>2020-12-20T09:01:40.472000+00:00</time>
      </trkpt>
      <trkpt lat="0" lon="0">
        <time>2020-12-20T09:01:40.479000+00:00</time>
      </trkpt>
      <trkpt lat="0" lon="0">
        <time>2020-12-20T09:01:40.484000+00:00</time>
      </trkpt>
      <trkpt lat="0" lon="0">
        <time>2020-12-20T09:01:40.487000+00:00</time>
      </trkpt>
      <trkpt lat="47.33303" lon="-1.27246">
        <ele>114</ele>
        <time>2020-12-20T09:01:41.453000+00:00</time>
      </trkpt>
      <trkpt lat="0" lon="0">
        <time>2020-12-20T09:01:41.471000+00:00</time>
      </trkpt>
      <trkpt lat="0" lon="0">
        <time>2020-12-20T09:01:41.482000+00:00</time>
      </trkpt>
      <trkpt lat="0" lon="0">
        <time>2020-12-20T09:01:41.484000+00:00</time>
      </trkpt>
      <trkpt lat="47.333" lon="-1.27245">
        <ele>114</ele>
        <time>2020-12-20T09:01:42.470000+00:00</time>
      </trkpt>
      <trkpt lat="0" lon="0">
        <time>2020-12-20T09:01:42.479000+00:00</time>
      </trkpt>
      <trkpt lat="0" lon="0">
        <time>2020-12-20T09:01:42.484000+00:00</time>
      </trkpt>
      <trkpt lat="0" lon="0">
        <time>2020-12-20T09:01:42.488000+00:00</time>
      </trkpt>
      <trkpt lat="47.33298" lon="-1.27244">
        <ele>114</ele>
        <time>2020-12-20T09:01:43.463000+00:00</time>
      </trkpt>
      <trkpt lat="0" lon="0">
        <time>2020-12-20T09:01:43.465000+00:00</time>
      </trkpt>
      <trkpt lat="0" lon="0">
        <time>2020-12-20T09:01:43.468000+00:00</time>
      </trkpt>
      <trkpt lat="0" lon="0">
        <time>2020-12-20T09:01:43.469000+00:00</time>
      </trkpt>
      <trkpt lat="47.33295" lon="-1.27243">
        <ele>114</ele>
        <time>2020-12-20T09:01:44.465000+00:00</time>
      </trkpt>
      <trkpt lat="0" lon="0">
        <time>2020-12-20T09:01:44.483000+00:00</time>
      </trkpt>
      <trkpt lat="0" lon="0">
        <time>2020-12-20T09:01:44.491000+00:00</time>
      </trkpt>
      <trkpt lat="0" lon="0">
        <time>2020-12-20T09:01:44.493000+00:00</time>
      </trkpt>
      <trkpt lat="47.33292" lon="-1.27242">
        <ele>114</ele>
        <time>2020-12-20T09:01:45.450000+00:00</time>
      </trkpt>
      <trkpt lat="0" lon="0">
        <time>2020-12-20T09:01:45.460000+00:00</time>
      </trkpt>
      <trkpt lat="0" lon="0">
        <time>2020-12-20T09:01:45.477000+00:00</time>
      </trkpt>
      <trkpt lat="0" lon="0">
        <time>2020-12-20T09:01:45.479000+00:00</time>
      </trkpt>
      <trkpt lat="47.3329" lon="-1.27241">
        <ele>114</ele>
        <time>2020-12-20T09:01:46.483000+00:00</time>
      </trkpt>
      <trkpt lat="0" lon="0">
        <time>2020-12-20T09:01:46.509000+00:00</time>
      </trkpt>
      <trkpt lat="0" lon="0">
        <time>2020-12-20T09:01:46.513000+00:00</time>
      </trkpt>
      <trkpt lat="0" lon="0">
        <time>2020-12-20T09:01:46.515000+00:00</time>
      </trkpt>
      <trkpt lat="47.33287" lon="-1.2724">
        <ele>114</ele>
        <time>2020-12-20T09:01:47.469000+00:00</time>
      </trkpt>
      <trkpt lat="0" lon="0">
        <time>2020-12-20T09:01:47.485000+00:00</time>
      </trkpt>
      <trkpt lat="0" lon="0">
        <time>2020-12-20T09:01:47.492000+00:00</time>
      </trkpt>
      <trkpt lat="0" lon="0">
        <time>2020-12-20T09:01:47.496000+00:00</time>
      </trkpt>
      <trkpt lat="47.33285" lon="-1.27239">
        <ele>114</ele>
        <time>2020-12-20T09:01:48.488000+00:00</time>
      </trkpt>
      <trkpt lat="0" lon="0">
        <time>2020-12-20T09:01:48.494000+00:00</time>
      </trkpt>
      <trkpt lat="0" lon="0">
        <time>2020-12-20T09:01:48.499000+00:00</time>
      </trkpt>
      <trkpt lat="0" lon="0">
        <time>2020-12-20T09:01:48.501000+00:00</time>
      </trkpt>
      <trkpt lat="47.33283" lon="-1.27238">
        <ele>114</ele>
        <time>2020-12-20T09:01:49.471000+00:00</time>
      </trkpt>
      <trkpt lat="0" lon="0">
        <time>2020-12-20T09:01:49.483000+00:00</time>
      </trkpt>
      <trkpt lat="0" lon="0">
        <time>2020-12-20T09:01:49.488000+00:00</time>
      </trkpt>
      <trkpt lat="0" lon="0">
        <time>2020-12-20T09:01:49.491000+00:00</time>
      </trkpt>
      <trkpt lat="47.33281" lon="-1.27238">
        <ele>114</ele>
        <time>2020-12-20T09:01:50.468000+00:00</time>
      </trkpt>
      <trkpt lat="0" lon="0">
        <time>2020-12-20T09:01:50.484000+00:00</time>
      </trkpt>
      <trkpt lat="0" lon="0">
        <time>2020-12-20T09:01:50.488000+00:00</time>
      </trkpt>
      <trkpt lat="0" lon="0">
        <time>2020-12-20T09:01:50.493000+00:00</time>
      </trkpt>
      <trkpt lat="47.3328" lon="-1.27237">
        <ele>114</ele>
        <time>2020-12-20T09:01:51.485000+00:00</time>
      </trkpt>
      <trkpt lat="0" lon="0">
        <time>2020-12-20T09:01:51.495000+00:00</time>
      </trkpt>
      <trkpt lat="0" lon="0">
        <time>2020-12-20T09:01:51.501000+00:00</time>
      </trkpt>
      <trkpt lat="0" lon="0">
        <time>2020-12-20T09:01:51.503000+00:00</time>
      </trkpt>
      <trkpt lat="47.33278" lon="-1.27237">
        <ele>115</ele>
        <time>2020-12-20T09:01:52.474000+00:00</time>
      </trkpt>
      <trkpt lat="0" lon="0">
        <time>2020-12-20T09:01:52.482000+00:00</time>
      </trkpt>
      <trkpt lat="0" lon="0">
        <time>2020-12-20T09:01:52.487000+00:00</time>
      </trkpt>
      <trkpt lat="0" lon="0">
        <time>2020-12-20T09:01:52.490000+00:00</time>
      </trkpt>
      <trkpt lat="47.33275" lon="-1.27236">
        <ele>115</ele>
        <time>2020-12-20T09:01:53.494000+00:00</time>
      </trkpt>
      <trkpt lat="0" lon="0">
        <time>2020-12-20T09:01:53.508000+00:00</time>
      </trkpt>
      <trkpt lat="0" lon="0">
        <time>2020-12-20T09:01:53.513000+00:00</time>
      </trkpt>
      <trkpt lat="0" lon="0">
        <time>2020-12-20T09:01:53.515000+00:00</time>
      </trkpt>
      <trkpt lat="47.33273" lon="-1.27236">
        <ele>114</ele>
        <time>2020-12-20T09:01:54.489000+00:00</time>
      </trkpt>
      <trkpt lat="0" lon="0">
        <time>2020-12-20T09:01:54.493000+00:00</time>
      </trkpt>
      <trkpt lat="0" lon="0">
        <time>2020-12-20T09:01:54.499000+00:00</time>
      </trkpt>
      <trkpt lat="0" lon="0">
        <time>2020-12-20T09:01:54.503000+00:00</time>
      </trkpt>
      <trkpt lat="47.3327" lon="-1.27235">
        <ele>114</ele>
        <time>2020-12-20T09:01:55.477000+00:00</time>
      </trkpt>
      <trkpt lat="0" lon="0">
        <time>2020-12-20T09:01:55.482000+00:00</time>
      </trkpt>
      <trkpt lat="0" lon="0">
        <time>2020-12-20T09:01:55.488000+00:00</time>
      </trkpt>
      <trkpt lat="0" lon="0">
        <time>2020-12-20T09:01:55.491000+00:00</time>
      </trkpt>
      <trkpt lat="47.33268" lon="-1.27235">
        <ele>114</ele>
        <time>2020-12-20T09:01:56.497000+00:00</time>
      </trkpt>
      <trkpt lat="0" lon="0">
        <time>2020-12-20T09:01:56.508000+00:00</time>
      </trkpt>
      <trkpt lat="0" lon="0">
        <time>2020-12-20T09:01:56.512000+00:00</time>
      </trkpt>
      <trkpt lat="0" lon="0">
        <time>2020-12-20T09:01:56.515000+00:00</time>
      </trkpt>
      <trkpt lat="47.33266" lon="-1.27234">
        <ele>114</ele>
        <time>2020-12-20T09:01:57.490000+00:00</time>
      </trkpt>
      <trkpt lat="0" lon="0">
        <time>2020-12-20T09:01:57.503000+00:00</time>
      </trkpt>
      <trkpt lat="0" lon="0">
        <time>2020-12-20T09:01:57.511000+00:00</time>
      </trkpt>
      <trkpt lat="0" lon="0">
        <time>2020-12-20T09:01:57.516000+00:00</time>
      </trkpt>
      <trkpt lat="47.33264" lon="-1.27233">
        <ele>114</ele>
        <time>2020-12-20T09:01:58.477000+00:00</time>
      </trkpt>
      <trkpt lat="0" lon="0">
        <time>2020-12-20T09:01:58.485000+00:00</time>
      </trkpt>
      <trkpt lat="0" lon="0">
        <time>2020-12-20T09:01:58.495000+00:00</time>
      </trkpt>
      <trkpt lat="0" lon="0">
        <time>2020-12-20T09:01:58.497000+00:00</time>
      </trkpt>
      <trkpt lat="47.33263" lon="-1.27233">
        <ele>113</ele>
        <time>2020-12-20T09:01:59.468000+00:00</time>
      </trkpt>
      <trkpt lat="0" lon="0">
        <time>2020-12-20T09:01:59.483000+00:00</time>
      </trkpt>
      <trkpt lat="0" lon="0">
        <time>2020-12-20T09:01:59.491000+00:00</time>
      </trkpt>
      <trkpt lat="0" lon="0">
        <time>2020-12-20T09:01:59.500000+00:00</time>
      </trkpt>
      <trkpt lat="47.33261" lon="-1.27233">
        <ele>113</ele>
        <time>2020-12-20T09:02:00.472000+00:00</time>
      </trkpt>
      <trkpt lat="0" lon="0">
        <time>2020-12-20T09:02:00.484000+00:00</time>
      </trkpt>
      <trkpt lat="0" lon="0">
        <time>2020-12-20T09:02:00.493000+00:00</time>
      </trkpt>
      <trkpt lat="0" lon="0">
        <time>2020-12-20T09:02:00.496000+00:00</time>
      </trkpt>
      <trkpt lat="47.3326" lon="-1.27233">
        <ele>112</ele>
        <time>2020-12-20T09:02:01.473000+00:00</time>
      </trkpt>
      <trkpt lat="0" lon="0">
        <time>2020-12-20T09:02:01.488000+00:00</time>
      </trkpt>
      <trkpt lat="0" lon="0">
        <time>2020-12-20T09:02:01.495000+00:00</time>
      </trkpt>
      <trkpt lat="0" lon="0">
        <time>2020-12-20T09:02:01.501000+00:00</time>
      </trkpt>
      <trkpt lat="47.33259" lon="-1.27233">
        <ele>111</ele>
        <time>2020-12-20T09:02:02.489000+00:00</time>
      </trkpt>
      <trkpt lat="0" lon="0">
        <time>2020-12-20T09:02:02.504000+00:00</time>
      </trkpt>
      <trkpt lat="0" lon="0">
        <time>2020-12-20T09:02:02.516000+00:00</time>
      </trkpt>
      <trkpt lat="0" lon="0">
        <time>2020-12-20T09:02:02.518000+00:00</time>
      </trkpt>
      <trkpt lat="47.33259" lon="-1.27234">
        <ele>111</ele>
        <time>2020-12-20T09:02:03.473000+00:00</time>
      </trkpt>
      <trkpt lat="0" lon="0">
        <time>2020-12-20T09:02:03.489000+00:00</time>
      </trkpt>
      <trkpt lat="0" lon="0">
        <time>2020-12-20T09:02:03.499000+00:00</time>
      </trkpt>
      <trkpt lat="0" lon="0">
        <time>2020-12-20T09:02:03.505000+00:00</time>
      </trkpt>
      <trkpt lat="47.33258" lon="-1.27234">
        <ele>110</ele>
        <time>2020-12-20T09:02:04.451000+00:00</time>
      </trkpt>
      <trkpt lat="0" lon="0">
        <time>2020-12-20T09:02:04.476000+00:00</time>
      </trkpt>
      <trkpt lat="0" lon="0">
        <time>2020-12-20T09:02:04.482000+00:00</time>
      </trkpt>
      <trkpt lat="0" lon="0">
        <time>2020-12-20T09:02:04.485000+00:00</time>
      </trkpt>
      <trkpt lat="47.33257" lon="-1.27235">
        <ele>110</ele>
        <time>2020-12-20T09:02:05.475000+00:00</time>
      </trkpt>
      <trkpt lat="0" lon="0">
        <time>2020-12-20T09:02:05.488000+00:00</time>
      </trkpt>
      <trkpt lat="0" lon="0">
        <time>2020-12-20T09:02:05.495000+00:00</time>
      </trkpt>
      <trkpt lat="0" lon="0">
        <time>2020-12-20T09:02:05.501000+00:00</time>
      </trkpt>
      <trkpt lat="47.33257" lon="-1.27235">
        <ele>111</ele>
        <time>2020-12-20T09:02:06.485000+00:00</time>
      </trkpt>
      <trkpt lat="0" lon="0">
        <time>2020-12-20T09:02:06.492000+00:00</time>
      </trkpt>
      <trkpt lat="0" lon="0">
        <time>2020-12-20T09:02:06.496000+00:00</time>
      </trkpt>
      <trkpt lat="0" lon="0">
        <time>2020-12-20T09:02:06.502000+00:00</time>
      </trkpt>
      <trkpt lat="47.33256" lon="-1.27236">
        <ele>110</ele>
        <time>2020-12-20T09:02:07.427000+00:00</time>
      </trkpt>
      <trkpt lat="0" lon="0">
        <time>2020-12-20T09:02:07.435000+00:00</time>
      </trkpt>
      <trkpt lat="0" lon="0">
        <time>2020-12-20T09:02:07.439000+00:00</time>
      </trkpt>
      <trkpt lat="0" lon="0">
        <time>2020-12-20T09:02:07.441000+00:00</time>
      </trkpt>
      <trkpt lat="47.33255" lon="-1.27236">
        <ele>110</ele>
        <time>2020-12-20T09:02:08.468000+00:00</time>
      </trkpt>
      <trkpt lat="0" lon="0">
        <time>2020-12-20T09:02:08.477000+00:00</time>
      </trkpt>
      <trkpt lat="0" lon="0">
        <time>2020-12-20T09:02:08.481000+00:00</time>
      </trkpt>
      <trkpt lat="0" lon="0">
        <time>2020-12-20T09:02:08.484000+00:00</time>
      </trkpt>
      <trkpt lat="47.33254" lon="-1.27237">
        <ele>110</ele>
        <time>2020-12-20T09:02:09.487000+00:00</time>
      </trkpt>
      <trkpt lat="0" lon="0">
        <time>2020-12-20T09:02:09.502000+00:00</time>
      </trkpt>
      <trkpt lat="0" lon="0">
        <time>2020-12-20T09:02:09.507000+00:00</time>
      </trkpt>
      <trkpt lat="0" lon="0">
        <time>2020-12-20T09:02:09.509000+00:00</time>
      </trkpt>
      <trkpt lat="47.33252" lon="-1.27238">
        <ele>110</ele>
        <time>2020-12-20T09:02:10.476000+00:00</time>
      </trkpt>
      <trkpt lat="0" lon="0">
        <time>2020-12-20T09:02:10.481000+00:00</time>
      </trkpt>
      <trkpt lat="0" lon="0">
        <time>2020-12-20T09:02:10.485000+00:00</time>
      </trkpt>
      <trkpt lat="0" lon="0">
        <time>2020-12-20T09:02:10.487000+00:00</time>
      </trkpt>
      <trkpt lat="47.33251" lon="-1.27239">
        <ele>110</ele>
        <time>2020-12-20T09:02:11.459000+00:00</time>
      </trkpt>
      <trkpt lat="0" lon="0">
        <time>2020-12-20T09:02:11.470000+00:00</time>
      </trkpt>
      <trkpt lat="0" lon="0">
        <time>2020-12-20T09:02:11.474000+00:00</time>
      </trkpt>
      <trkpt lat="0" lon="0">
        <time>2020-12-20T09:02:11.479000+00:00</time>
      </trkpt>
      <trkpt lat="47.3325" lon="-1.2724">
        <ele>109</ele>
        <time>2020-12-20T09:02:12.467000+00:00</time>
      </trkpt>
      <trkpt lat="0" lon="0">
        <time>2020-12-20T09:02:12.469000+00:00</time>
      </trkpt>
      <trkpt lat="0" lon="0">
        <time>2020-12-20T09:02:12.474000+00:00</time>
      </trkpt>
      <trkpt lat="0" lon="0">
        <time>2020-12-20T09:02:12.475000+00:00</time>
      </trkpt>
      <trkpt lat="47.33249" lon="-1.2724">
        <ele>109</ele>
        <time>2020-12-20T09:02:13.466000+00:00</time>
      </trkpt>
      <trkpt lat="0" lon="0">
        <time>2020-12-20T09:02:13.481000+00:00</time>
      </trkpt>
      <trkpt lat="0" lon="0">
        <time>2020-12-20T09:02:13.490000+00:00</time>
      </trkpt>
      <trkpt lat="0" lon="0">
        <time>2020-12-20T09:02:13.492000+00:00</time>
      </trkpt>
      <trkpt lat="47.33247" lon="-1.27241">
        <ele>109</ele>
        <time>2020-12-20T09:02:14.487000+00:00</time>
      </trkpt>
      <trkpt lat="0" lon="0">
        <time>2020-12-20T09:02:14.494000+00:00</time>
      </trkpt>
      <trkpt lat="0" lon="0">
        <time>2020-12-20T09:02:14.500000+00:00</time>
      </trkpt>
      <trkpt lat="0" lon="0">
        <time>2020-12-20T09:02:14.505000+00:00</time>
      </trkpt>
      <trkpt lat="47.33245" lon="-1.27242">
        <ele>109</ele>
        <time>2020-12-20T09:02:15.486000+00:00</time>
      </trkpt>
      <trkpt lat="0" lon="0">
        <time>2020-12-20T09:02:15.499000+00:00</time>
      </trkpt>
      <trkpt lat="0" lon="0">
        <time>2020-12-20T09:02:15.504000+00:00</time>
      </trkpt>
      <trkpt lat="0" lon="0">
        <time>2020-12-20T09:02:15.508000+00:00</time>
      </trkpt>
      <trkpt lat="47.33243" lon="-1.27243">
        <ele>109</ele>
        <time>2020-12-20T09:02:16.482000+00:00</time>
      </trkpt>
      <trkpt lat="0" lon="0">
        <time>2020-12-20T09:02:16.492000+00:00</time>
      </trkpt>
      <trkpt lat="0" lon="0">
        <time>2020-12-20T09:02:16.496000+00:00</time>
      </trkpt>
      <trkpt lat="0" lon="0">
        <time>2020-12-20T09:02:16.499000+00:00</time>
      </trkpt>
      <trkpt lat="47.33242" lon="-1.27244">
        <ele>108</ele>
        <time>2020-12-20T09:02:17.500000+00:00</time>
      </trkpt>
      <trkpt lat="0" lon="0">
        <time>2020-12-20T09:02:17.509000+00:00</time>
      </trkpt>
      <trkpt lat="0" lon="0">
        <time>2020-12-20T09:02:17.516000+00:00</time>
      </trkpt>
      <trkpt lat="0" lon="0">
        <time>2020-12-20T09:02:17.518000+00:00</time>
      </trkpt>
      <trkpt lat="47.3324" lon="-1.27244">
        <ele>108</ele>
        <time>2020-12-20T09:02:18.483000+00:00</time>
      </trkpt>
      <trkpt lat="0" lon="0">
        <time>2020-12-20T09:02:18.491000+00:00</time>
      </trkpt>
      <trkpt lat="0" lon="0">
        <time>2020-12-20T09:02:18.493000+00:00</time>
      </trkpt>
      <trkpt lat="0" lon="0">
        <time>2020-12-20T09:02:18.494000+00:00</time>
      </trkpt>
      <trkpt lat="47.33238" lon="-1.27245">
        <ele>108</ele>
        <time>2020-12-20T09:02:19.472000+00:00</time>
      </trkpt>
      <trkpt lat="0" lon="0">
        <time>2020-12-20T09:02:19.480000+00:00</time>
      </trkpt>
      <trkpt lat="0" lon="0">
        <time>2020-12-20T09:02:19.487000+00:00</time>
      </trkpt>
      <trkpt lat="0" lon="0">
        <time>2020-12-20T09:02:19.490000+00:00</time>
      </trkpt>
      <trkpt lat="47.33236" lon="-1.27246">
        <ele>108</ele>
        <time>2020-12-20T09:02:20.429000+00:00</time>
      </trkpt>
      <trkpt lat="0" lon="0">
        <time>2020-12-20T09:02:20.438000+00:00</time>
      </trkpt>
      <trkpt lat="0" lon="0">
        <time>2020-12-20T09:02:20.443000+00:00</time>
      </trkpt>
      <trkpt lat="0" lon="0">
        <time>2020-12-20T09:02:20.445000+00:00</time>
      </trkpt>
      <trkpt lat="47.33234" lon="-1.27247">
        <ele>108</ele>
        <time>2020-12-20T09:02:21.465000+00:00</time>
      </trkpt>
      <trkpt lat="0" lon="0">
        <time>2020-12-20T09:02:21.479000+00:00</time>
      </trkpt>
      <trkpt lat="0" lon="0">
        <time>2020-12-20T09:02:21.485000+00:00</time>
      </trkpt>
      <trkpt lat="0" lon="0">
        <time>2020-12-20T09:02:21.487000+00:00</time>
      </trkpt>
      <trkpt lat="47.33233" lon="-1.27248">
        <ele>108</ele>
        <time>2020-12-20T09:02:22.484000+00:00</time>
      </trkpt>
      <trkpt lat="0" lon="0">
        <time>2020-12-20T09:02:22.501000+00:00</time>
      </trkpt>
      <trkpt lat="0" lon="0">
        <time>2020-12-20T09:02:22.505000+00:00</time>
      </trkpt>
      <trkpt lat="0" lon="0">
        <time>2020-12-20T09:02:22.510000+00:00</time>
      </trkpt>
      <trkpt lat="47.33231" lon="-1.27249">
        <ele>108</ele>
        <time>2020-12-20T09:02:23.456000+00:00</time>
      </trkpt>
      <trkpt lat="0" lon="0">
        <time>2020-12-20T09:02:23.460000+00:00</time>
      </trkpt>
      <trkpt lat="0" lon="0">
        <time>2020-12-20T09:02:23.468000+00:00</time>
      </trkpt>
      <trkpt lat="0" lon="0">
        <time>2020-12-20T09:02:23.470000+00:00</time>
      </trkpt>
      <trkpt lat="47.3323" lon="-1.2725">
        <ele>108</ele>
        <time>2020-12-20T09:02:24.475000+00:00</time>
      </trkpt>
      <trkpt lat="0" lon="0">
        <time>2020-12-20T09:02:24.484000+00:00</time>
      </trkpt>
      <trkpt lat="0" lon="0">
        <time>2020-12-20T09:02:24.488000+00:00</time>
      </trkpt>
      <trkpt lat="0" lon="0">
        <time>2020-12-20T09:02:24.489000+00:00</time>
      </trkpt>
      <trkpt lat="47.33228" lon="-1.27251">
        <ele>108</ele>
        <time>2020-12-20T09:02:25.485000+00:00</time>
      </trkpt>
      <trkpt lat="0" lon="0">
        <time>2020-12-20T09:02:25.497000+00:00</time>
      </trkpt>
      <trkpt lat="0" lon="0">
        <time>2020-12-20T09:02:25.504000+00:00</time>
      </trkpt>
      <trkpt lat="0" lon="0">
        <time>2020-12-20T09:02:25.507000+00:00</time>
      </trkpt>
      <trkpt lat="47.33226" lon="-1.27252">
        <ele>109</ele>
        <time>2020-12-20T09:02:26.512000+00:00</time>
      </trkpt>
      <trkpt lat="0" lon="0">
        <time>2020-12-20T09:02:26.522000+00:00</time>
      </trkpt>
      <trkpt lat="0" lon="0">
        <time>2020-12-20T09:02:26.527000+00:00</time>
      </trkpt>
      <trkpt lat="0" lon="0">
        <time>2020-12-20T09:02:26.529000+00:00</time>
      </trkpt>
      <trkpt lat="47.33225" lon="-1.27253">
        <ele>109</ele>
        <time>2020-12-20T09:02:27.471000+00:00</time>
      </trkpt>
      <trkpt lat="0" lon="0">
        <time>2020-12-20T09:02:27.477000+00:00</time>
      </trkpt>
      <trkpt lat="0" lon="0">
        <time>2020-12-20T09:02:27.481000+00:00</time>
      </trkpt>
      <trkpt lat="0" lon="0">
        <time>2020-12-20T09:02:27.484000+00:00</time>
      </trkpt>
      <trkpt lat="47.33224" lon="-1.27254">
        <ele>109</ele>
        <time>2020-12-20T09:02:28.498000+00:00</time>
      </trkpt>
      <trkpt lat="0" lon="0">
        <time>2020-12-20T09:02:28.504000+00:00</time>
      </trkpt>
      <trkpt lat="0" lon="0">
        <time>2020-12-20T09:02:28.508000+00:00</time>
      </trkpt>
      <trkpt lat="0" lon="0">
        <time>2020-12-20T09:02:28.511000+00:00</time>
      </trkpt>
      <trkpt lat="47.33222" lon="-1.27256">
        <ele>109</ele>
        <time>2020-12-20T09:02:29.445000+00:00</time>
      </trkpt>
      <trkpt lat="0" lon="0">
        <time>2020-12-20T09:02:29.454000+00:00</time>
      </trkpt>
      <trkpt lat="0" lon="0">
        <time>2020-12-20T09:02:29.457000+00:00</time>
      </trkpt>
      <trkpt lat="0" lon="0">
        <time>2020-12-20T09:02:29.462000+00:00</time>
      </trkpt>
      <trkpt lat="47.3322" lon="-1.27257">
        <ele>110</ele>
        <time>2020-12-20T09:02:30.510000+00:00</time>
      </trkpt>
      <trkpt lat="0" lon="0">
        <time>2020-12-20T09:02:30.522000+00:00</time>
      </trkpt>
      <trkpt lat="0" lon="0">
        <time>2020-12-20T09:02:30.530000+00:00</time>
      </trkpt>
      <trkpt lat="0" lon="0">
        <time>2020-12-20T09:02:30.535000+00:00</time>
      </trkpt>
      <trkpt lat="47.33218" lon="-1.27259">
        <ele>110</ele>
        <time>2020-12-20T09:02:31.469000+00:00</time>
      </trkpt>
      <trkpt lat="0" lon="0">
        <time>2020-12-20T09:02:31.471000+00:00</time>
      </trkpt>
      <trkpt lat="0" lon="0">
        <time>2020-12-20T09:02:31.472000+00:00</time>
      </trkpt>
      <trkpt lat="47.33217" lon="-1.2726">
        <ele>109</ele>
        <time>2020-12-20T09:02:32.503000+00:00</time>
      </trkpt>
      <trkpt lat="0" lon="0">
        <time>2020-12-20T09:02:32.513000+00:00</time>
      </trkpt>
      <trkpt lat="0" lon="0">
        <time>2020-12-20T09:02:32.525000+00:00</time>
      </trkpt>
      <trkpt lat="0" lon="0">
        <time>2020-12-20T09:02:32.528000+00:00</time>
      </trkpt>
      <trkpt lat="47.33215" lon="-1.27261">
        <ele>109</ele>
        <time>2020-12-20T09:02:33.496000+00:00</time>
      </trkpt>
      <trkpt lat="0" lon="0">
        <time>2020-12-20T09:02:33.504000+00:00</time>
      </trkpt>
      <trkpt lat="0" lon="0">
        <time>2020-12-20T09:02:33.515000+00:00</time>
      </trkpt>
      <trkpt lat="0" lon="0">
        <time>2020-12-20T09:02:33.517000+00:00</time>
      </trkpt>
      <trkpt lat="47.33214" lon="-1.27262">
        <ele>109</ele>
        <time>2020-12-20T09:02:34.489000+00:00</time>
      </trkpt>
      <trkpt lat="0" lon="0">
        <time>2020-12-20T09:02:34.494000+00:00</time>
      </trkpt>
      <trkpt lat="0" lon="0">
        <time>2020-12-20T09:02:34.496000+00:00</time>
      </trkpt>
      <trkpt lat="0" lon="0">
        <time>2020-12-20T09:02:34.497000+00:00</time>
      </trkpt>
      <trkpt lat="47.33213" lon="-1.27263">
        <ele>110</ele>
        <time>2020-12-20T09:02:35.485000+00:00</time>
      </trkpt>
      <trkpt lat="0" lon="0">
        <time>2020-12-20T09:02:35.490000+00:00</time>
      </trkpt>
      <trkpt lat="0" lon="0">
        <time>2020-12-20T09:02:35.500000+00:00</time>
      </trkpt>
      <trkpt lat="0" lon="0">
        <time>2020-12-20T09:02:35.504000+00:00</time>
      </trkpt>
      <trkpt lat="47.33211" lon="-1.27265">
        <ele>110</ele>
        <time>2020-12-20T09:02:36.451000+00:00</time>
      </trkpt>
      <trkpt lat="0" lon="0">
        <time>2020-12-20T09:02:36.468000+00:00</time>
      </trkpt>
      <trkpt lat="0" lon="0">
        <time>2020-12-20T09:02:36.472000+00:00</time>
      </trkpt>
      <trkpt lat="0" lon="0">
        <time>2020-12-20T09:02:36.474000+00:00</time>
      </trkpt>
      <trkpt lat="47.3321" lon="-1.27266">
        <ele>110</ele>
        <time>2020-12-20T09:02:37.476000+00:00</time>
      </trkpt>
      <trkpt lat="0" lon="0">
        <time>2020-12-20T09:02:37.495000+00:00</time>
      </trkpt>
      <trkpt lat="0" lon="0">
        <time>2020-12-20T09:02:37.504000+00:00</time>
      </trkpt>
      <trkpt lat="0" lon="0">
        <time>2020-12-20T09:02:37.507000+00:00</time>
      </trkpt>
      <trkpt lat="47.33208" lon="-1.27268">
        <ele>111</ele>
        <time>2020-12-20T09:02:38.470000+00:00</time>
      </trkpt>
      <trkpt lat="0" lon="0">
        <time>2020-12-20T09:02:38.481000+00:00</time>
      </trkpt>
      <trkpt lat="0" lon="0">
        <time>2020-12-20T09:02:38.493000+00:00</time>
      </trkpt>
      <trkpt lat="0" lon="0">
        <time>2020-12-20T09:02:38.498000+00:00</time>
      </trkpt>
      <trkpt lat="47.33207" lon="-1.27269">
        <ele>111</ele>
        <time>2020-12-20T09:02:39.497000+00:00</time>
      </trkpt>
      <trkpt lat="0" lon="0">
        <time>2020-12-20T09:02:39.513000+00:00</time>
      </trkpt>
      <trkpt lat="0" lon="0">
        <time>2020-12-20T09:02:39.521000+00:00</time>
      </trkpt>
      <trkpt lat="0" lon="0">
        <time>2020-12-20T09:02:39.527000+00:00</time>
      </trkpt>
      <trkpt lat="47.33206" lon="-1.2727">
        <ele>111</ele>
        <time>2020-12-20T09:02:40.536000+00:00</time>
      </trkpt>
      <trkpt lat="0" lon="0">
        <time>2020-12-20T09:02:40.543000+00:00</time>
      </trkpt>
      <trkpt lat="0" lon="0">
        <time>2020-12-20T09:02:40.547000+00:00</time>
      </trkpt>
      <trkpt lat="0" lon="0">
        <time>2020-12-20T09:02:40.549000+00:00</time>
      </trkpt>
      <trkpt lat="47.33205" lon="-1.27272">
        <ele>111</ele>
        <time>2020-12-20T09:02:41.492000+00:00</time>
      </trkpt>
      <trkpt lat="0" lon="0">
        <time>2020-12-20T09:02:41.498000+00:00</time>
      </trkpt>
      <trkpt lat="0" lon="0">
        <time>2020-12-20T09:02:41.501000+00:00</time>
      </trkpt>
      <trkpt lat="0" lon="0">
        <time>2020-12-20T09:02:41.504000+00:00</time>
      </trkpt>
      <trkpt lat="47.33204" lon="-1.27274">
        <ele>111</ele>
        <time>2020-12-20T09:02:42.467000+00:00</time>
      </trkpt>
      <trkpt lat="0" lon="0">
        <time>2020-12-20T09:02:42.482000+00:00</time>
      </trkpt>
      <trkpt lat="0" lon="0">
        <time>2020-12-20T09:02:42.486000+00:00</time>
      </trkpt>
      <trkpt lat="0" lon="0">
        <time>2020-12-20T09:02:42.490000+00:00</time>
      </trkpt>
      <trkpt lat="47.33202" lon="-1.27275">
        <ele>111</ele>
        <time>2020-12-20T09:02:43.480000+00:00</time>
      </trkpt>
      <trkpt lat="0" lon="0">
        <time>2020-12-20T09:02:43.492000+00:00</time>
      </trkpt>
      <trkpt lat="0" lon="0">
        <time>2020-12-20T09:02:43.496000+00:00</time>
      </trkpt>
      <trkpt lat="0" lon="0">
        <time>2020-12-20T09:02:43.499000+00:00</time>
      </trkpt>
      <trkpt lat="47.33201" lon="-1.27277">
        <ele>110</ele>
        <time>2020-12-20T09:02:44.453000+00:00</time>
      </trkpt>
      <trkpt lat="0" lon="0">
        <time>2020-12-20T09:02:44.475000+00:00</time>
      </trkpt>
      <trkpt lat="0" lon="0">
        <time>2020-12-20T09:02:44.480000+00:00</time>
      </trkpt>
      <trkpt lat="0" lon="0">
        <time>2020-12-20T09:02:44.483000+00:00</time>
      </trkpt>
      <trkpt lat="47.33201" lon="-1.27278">
        <ele>110</ele>
        <time>2020-12-20T09:02:45.521000+00:00</time>
      </trkpt>
      <trkpt lat="0" lon="0">
        <time>2020-12-20T09:02:45.534000+00:00</time>
      </trkpt>
      <trkpt lat="0" lon="0">
        <time>2020-12-20T09:02:45.539000+00:00</time>
      </trkpt>
      <trkpt lat="0" lon="0">
        <time>2020-12-20T09:02:45.541000+00:00</time>
      </trkpt>
      <trkpt lat="47.332" lon="-1.27279">
        <ele>110</ele>
        <time>2020-12-20T09:02:46.425000+00:00</time>
      </trkpt>
      <trkpt lat="0" lon="0">
        <time>2020-12-20T09:02:46.430000+00:00</time>
      </trkpt>
      <trkpt lat="0" lon="0">
        <time>2020-12-20T09:02:46.434000+00:00</time>
      </trkpt>
      <trkpt lat="0" lon="0">
        <time>2020-12-20T09:02:46.436000+00:00</time>
      </trkpt>
      <trkpt lat="47.33199" lon="-1.27281">
        <ele>109</ele>
        <time>2020-12-20T09:02:47.487000+00:00</time>
      </trkpt>
      <trkpt lat="0" lon="0">
        <time>2020-12-20T09:02:47.496000+00:00</time>
      </trkpt>
      <trkpt lat="0" lon="0">
        <time>2020-12-20T09:02:47.505000+00:00</time>
      </trkpt>
      <trkpt lat="0" lon="0">
        <time>2020-12-20T09:02:47.509000+00:00</time>
      </trkpt>
      <trkpt lat="47.33198" lon="-1.27283">
        <ele>109</ele>
        <time>2020-12-20T09:02:48.484000+00:00</time>
      </trkpt>
      <trkpt lat="0" lon="0">
        <time>2020-12-20T09:02:48.496000+00:00</time>
      </trkpt>
      <trkpt lat="0" lon="0">
        <time>2020-12-20T09:02:48.505000+00:00</time>
      </trkpt>
      <trkpt lat="0" lon="0">
        <time>2020-12-20T09:02:48.508000+00:00</time>
      </trkpt>
      <trkpt lat="47.33197" lon="-1.27286">
        <ele>109</ele>
        <time>2020-12-20T09:02:49.506000+00:00</time>
      </trkpt>
      <trkpt lat="0" lon="0">
        <time>2020-12-20T09:02:49.513000+00:00</time>
      </trkpt>
      <trkpt lat="0" lon="0">
        <time>2020-12-20T09:02:49.518000+00:00</time>
      </trkpt>
      <trkpt lat="0" lon="0">
        <time>2020-12-20T09:02:49.521000+00:00</time>
      </trkpt>
      <trkpt lat="47.33196" lon="-1.27288">
        <ele>109</ele>
        <time>2020-12-20T09:02:50.498000+00:00</time>
      </trkpt>
      <trkpt lat="0" lon="0">
        <time>2020-12-20T09:02:50.504000+00:00</time>
      </trkpt>
      <trkpt lat="0" lon="0">
        <time>2020-12-20T09:02:50.508000+00:00</time>
      </trkpt>
      <trkpt lat="0" lon="0">
        <time>2020-12-20T09:02:50.512000+00:00</time>
      </trkpt>
      <trkpt lat="47.33195" lon="-1.2729">
        <ele>109</ele>
        <time>2020-12-20T09:02:51.496000+00:00</time>
      </trkpt>
      <trkpt lat="0" lon="0">
        <time>2020-12-20T09:02:51.503000+00:00</time>
      </trkpt>
      <trkpt lat="0" lon="0">
        <time>2020-12-20T09:02:51.508000+00:00</time>
      </trkpt>
      <trkpt lat="0" lon="0">
        <time>2020-12-20T09:02:51.511000+00:00</time>
      </trkpt>
      <trkpt lat="47.33194" lon="-1.27291">
        <ele>109</ele>
        <time>2020-12-20T09:02:52.513000+00:00</time>
      </trkpt>
      <trkpt lat="0" lon="0">
        <time>2020-12-20T09:02:52.523000+00:00</time>
      </trkpt>
      <trkpt lat="0" lon="0">
        <time>2020-12-20T09:02:52.528000+00:00</time>
      </trkpt>
      <trkpt lat="0" lon="0">
        <time>2020-12-20T09:02:52.532000+00:00</time>
      </trkpt>
      <trkpt lat="47.33193" lon="-1.27294">
        <ele>108</ele>
        <time>2020-12-20T09:02:53.522000+00:00</time>
      </trkpt>
      <trkpt lat="0" lon="0">
        <time>2020-12-20T09:02:53.530000+00:00</time>
      </trkpt>
      <trkpt lat="0" lon="0">
        <time>2020-12-20T09:02:53.534000+00:00</time>
      </trkpt>
      <trkpt lat="0" lon="0">
        <time>2020-12-20T09:02:53.537000+00:00</time>
      </trkpt>
      <trkpt lat="47.33192" lon="-1.27296">
        <ele>108</ele>
        <time>2020-12-20T09:02:54.486000+00:00</time>
      </trkpt>
      <trkpt lat="0" lon="0">
        <time>2020-12-20T09:02:54.492000+00:00</time>
      </trkpt>
      <trkpt lat="0" lon="0">
        <time>2020-12-20T09:02:54.503000+00:00</time>
      </trkpt>
      <trkpt lat="0" lon="0">
        <time>2020-12-20T09:02:54.508000+00:00</time>
      </trkpt>
      <trkpt lat="47.33191" lon="-1.27299">
        <ele>108</ele>
        <time>2020-12-20T09:02:55.494000+00:00</time>
      </trkpt>
      <trkpt lat="0" lon="0">
        <time>2020-12-20T09:02:55.502000+00:00</time>
      </trkpt>
      <trkpt lat="0" lon="0">
        <time>2020-12-20T09:02:55.506000+00:00</time>
      </trkpt>
      <trkpt lat="0" lon="0">
        <time>2020-12-20T09:02:55.509000+00:00</time>
      </trkpt>
      <trkpt lat="47.3319" lon="-1.27301">
        <ele>108</ele>
        <time>2020-12-20T09:02:56.513000+00:00</time>
      </trkpt>
      <trkpt lat="0" lon="0">
        <time>2020-12-20T09:02:56.522000+00:00</time>
      </trkpt>
      <trkpt lat="0" lon="0">
        <time>2020-12-20T09:02:56.526000+00:00</time>
      </trkpt>
      <trkpt lat="0" lon="0">
        <time>2020-12-20T09:02:56.528000+00:00</time>
      </trkpt>
      <trkpt lat="47.33189" lon="-1.27303">
        <ele>108</ele>
        <time>2020-12-20T09:02:57.524000+00:00</time>
      </trkpt>
      <trkpt lat="0" lon="0">
        <time>2020-12-20T09:02:57.527000+00:00</time>
      </trkpt>
      <trkpt lat="0" lon="0">
        <time>2020-12-20T09:02:57.528000+00:00</time>
      </trkpt>
      <trkpt lat="0" lon="0">
        <time>2020-12-20T09:02:57.529000+00:00</time>
      </trkpt>
      <trkpt lat="47.33188" lon="-1.27305">
        <ele>108</ele>
        <time>2020-12-20T09:02:58.475000+00:00</time>
      </trkpt>
      <trkpt lat="0" lon="0">
        <time>2020-12-20T09:02:58.481000+00:00</time>
      </trkpt>
      <trkpt lat="0" lon="0">
        <time>2020-12-20T09:02:58.493000+00:00</time>
      </trkpt>
      <trkpt lat="0" lon="0">
        <time>2020-12-20T09:02:58.495000+00:00</time>
      </trkpt>
      <trkpt lat="47.33186" lon="-1.27308">
        <ele>109</ele>
        <time>2020-12-20T09:02:59.464000+00:00</time>
      </trkpt>
      <trkpt lat="0" lon="0">
        <time>2020-12-20T09:02:59.486000+00:00</time>
      </trkpt>
      <trkpt lat="0" lon="0">
        <time>2020-12-20T09:02:59.492000+00:00</time>
      </trkpt>
      <trkpt lat="0" lon="0">
        <time>2020-12-20T09:02:59.495000+00:00</time>
      </trkpt>
      <trkpt lat="47.33185" lon="-1.2731">
        <ele>109</ele>
        <time>2020-12-20T09:03:00.486000+00:00</time>
      </trkpt>
      <trkpt lat="0" lon="0">
        <time>2020-12-20T09:03:00.491000+00:00</time>
      </trkpt>
      <trkpt lat="0" lon="0">
        <time>2020-12-20T09:03:00.497000+00:00</time>
      </trkpt>
      <trkpt lat="0" lon="0">
        <time>2020-12-20T09:03:00.500000+00:00</time>
      </trkpt>
      <trkpt lat="47.33184" lon="-1.27313">
        <ele>109</ele>
        <time>2020-12-20T09:03:01.515000+00:00</time>
      </trkpt>
      <trkpt lat="0" lon="0">
        <time>2020-12-20T09:03:01.527000+00:00</time>
      </trkpt>
      <trkpt lat="0" lon="0">
        <time>2020-12-20T09:03:01.532000+00:00</time>
      </trkpt>
      <trkpt lat="0" lon="0">
        <time>2020-12-20T09:03:01.534000+00:00</time>
      </trkpt>
      <trkpt lat="47.33183" lon="-1.27316">
        <ele>109</ele>
        <time>2020-12-20T09:03:02.480000+00:00</time>
      </trkpt>
      <trkpt lat="0" lon="0">
        <time>2020-12-20T09:03:02.488000+00:00</time>
      </trkpt>
      <trkpt lat="0" lon="0">
        <time>2020-12-20T09:03:02.501000+00:00</time>
      </trkpt>
      <trkpt lat="0" lon="0">
        <time>2020-12-20T09:03:02.507000+00:00</time>
      </trkpt>
      <trkpt lat="47.33182" lon="-1.27319">
        <ele>109</ele>
        <time>2020-12-20T09:03:03.444000+00:00</time>
      </trkpt>
      <trkpt lat="0" lon="0">
        <time>2020-12-20T09:03:03.464000+00:00</time>
      </trkpt>
      <trkpt lat="0" lon="0">
        <time>2020-12-20T09:03:03.470000+00:00</time>
      </trkpt>
      <trkpt lat="0" lon="0">
        <time>2020-12-20T09:03:03.473000+00:00</time>
      </trkpt>
      <trkpt lat="47.33181" lon="-1.27321">
        <ele>109</ele>
        <time>2020-12-20T09:03:04.476000+00:00</time>
      </trkpt>
      <trkpt lat="0" lon="0">
        <time>2020-12-20T09:03:04.482000+00:00</time>
      </trkpt>
      <trkpt lat="0" lon="0">
        <time>2020-12-20T09:03:04.487000+00:00</time>
      </trkpt>
      <trkpt lat="0" lon="0">
        <time>2020-12-20T09:03:04.489000+00:00</time>
      </trkpt>
      <trkpt lat="47.3318" lon="-1.27323">
        <ele>109</ele>
        <time>2020-12-20T09:03:05.489000+00:00</time>
      </trkpt>
      <trkpt lat="0" lon="0">
        <time>2020-12-20T09:03:05.504000+00:00</time>
      </trkpt>
      <trkpt lat="0" lon="0">
        <time>2020-12-20T09:03:05.510000+00:00</time>
      </trkpt>
      <trkpt lat="0" lon="0">
        <time>2020-12-20T09:03:05.514000+00:00</time>
      </trkpt>
      <trkpt lat="47.33179" lon="-1.27326">
        <ele>108</ele>
        <time>2020-12-20T09:03:06.466000+00:00</time>
      </trkpt>
      <trkpt lat="0" lon="0">
        <time>2020-12-20T09:03:06.477000+00:00</time>
      </trkpt>
      <trkpt lat="0" lon="0">
        <time>2020-12-20T09:03:06.484000+00:00</time>
      </trkpt>
      <trkpt lat="0" lon="0">
        <time>2020-12-20T09:03:06.487000+00:00</time>
      </trkpt>
      <trkpt lat="47.33178" lon="-1.27328">
        <ele>108</ele>
        <time>2020-12-20T09:03:07.474000+00:00</time>
      </trkpt>
      <trkpt lat="0" lon="0">
        <time>2020-12-20T09:03:07.485000+00:00</time>
      </trkpt>
      <trkpt lat="0" lon="0">
        <time>2020-12-20T09:03:07.489000+00:00</time>
      </trkpt>
      <trkpt lat="0" lon="0">
        <time>2020-12-20T09:03:07.500000+00:00</time>
      </trkpt>
      <trkpt lat="47.33176" lon="-1.2733">
        <ele>108</ele>
        <time>2020-12-20T09:03:08.489000+00:00</time>
      </trkpt>
      <trkpt lat="0" lon="0">
        <time>2020-12-20T09:03:08.501000+00:00</time>
      </trkpt>
      <trkpt lat="0" lon="0">
        <time>2020-12-20T09:03:08.508000+00:00</time>
      </trkpt>
      <trkpt lat="0" lon="0">
        <time>2020-12-20T09:03:08.512000+00:00</time>
      </trkpt>
      <trkpt lat="47.33175" lon="-1.27332">
        <ele>107</ele>
        <time>2020-12-20T09:03:09.459000+00:00</time>
      </trkpt>
      <trkpt lat="0" lon="0">
        <time>2020-12-20T09:03:09.479000+00:00</time>
      </trkpt>
      <trkpt lat="0" lon="0">
        <time>2020-12-20T09:03:09.481000+00:00</time>
      </trkpt>
      <trkpt lat="0" lon="0">
        <time>2020-12-20T09:03:09.483000+00:00</time>
      </trkpt>
      <trkpt lat="47.33174" lon="-1.27334">
        <ele>107</ele>
        <time>2020-12-20T09:03:10.498000+00:00</time>
      </trkpt>
      <trkpt lat="0" lon="0">
        <time>2020-12-20T09:03:10.508000+00:00</time>
      </trkpt>
      <trkpt lat="0" lon="0">
        <time>2020-12-20T09:03:10.515000+00:00</time>
      </trkpt>
      <trkpt lat="0" lon="0">
        <time>2020-12-20T09:03:10.522000+00:00</time>
      </trkpt>
      <trkpt lat="47.33172" lon="-1.27336">
        <ele>107</ele>
        <time>2020-12-20T09:03:11.459000+00:00</time>
      </trkpt>
      <trkpt lat="0" lon="0">
        <time>2020-12-20T09:03:11.480000+00:00</time>
      </trkpt>
      <trkpt lat="0" lon="0">
        <time>2020-12-20T09:03:11.486000+00:00</time>
      </trkpt>
      <trkpt lat="0" lon="0">
        <time>2020-12-20T09:03:11.493000+00:00</time>
      </trkpt>
      <trkpt lat="47.33171" lon="-1.27338">
        <ele>107</ele>
        <time>2020-12-20T09:03:12.468000+00:00</time>
      </trkpt>
      <trkpt lat="0" lon="0">
        <time>2020-12-20T09:03:12.480000+00:00</time>
      </trkpt>
      <trkpt lat="0" lon="0">
        <time>2020-12-20T09:03:12.487000+00:00</time>
      </trkpt>
      <trkpt lat="0" lon="0">
        <time>2020-12-20T09:03:12.490000+00:00</time>
      </trkpt>
      <trkpt lat="47.3317" lon="-1.27339">
        <ele>107</ele>
        <time>2020-12-20T09:03:13.473000+00:00</time>
      </trkpt>
      <trkpt lat="0" lon="0">
        <time>2020-12-20T09:03:13.481000+00:00</time>
      </trkpt>
      <trkpt lat="0" lon="0">
        <time>2020-12-20T09:03:13.483000+00:00</time>
      </trkpt>
      <trkpt lat="0" lon="0">
        <time>2020-12-20T09:03:13.484000+00:00</time>
      </trkpt>
      <trkpt lat="47.33169" lon="-1.27341">
        <ele>107</ele>
        <time>2020-12-20T09:03:14.505000+00:00</time>
      </trkpt>
      <trkpt lat="0" lon="0">
        <time>2020-12-20T09:03:14.519000+00:00</time>
      </trkpt>
      <trkpt lat="0" lon="0">
        <time>2020-12-20T09:03:14.527000+00:00</time>
      </trkpt>
      <trkpt lat="0" lon="0">
        <time>2020-12-20T09:03:14.529000+00:00</time>
      </trkpt>
      <trkpt lat="47.33168" lon="-1.27342">
        <ele>107</ele>
        <time>2020-12-20T09:03:15.468000+00:00</time>
      </trkpt>
      <trkpt lat="0" lon="0">
        <time>2020-12-20T09:03:15.474000+00:00</time>
      </trkpt>
      <trkpt lat="0" lon="0">
        <time>2020-12-20T09:03:15.476000+00:00</time>
      </trkpt>
      <trkpt lat="47.33167" lon="-1.27344">
        <ele>107</ele>
        <time>2020-12-20T09:03:16.503000+00:00</time>
      </trkpt>
      <trkpt lat="0" lon="0">
        <time>2020-12-20T09:03:16.508000+00:00</time>
      </trkpt>
      <trkpt lat="0" lon="0">
        <time>2020-12-20T09:03:16.516000+00:00</time>
      </trkpt>
      <trkpt lat="0" lon="0">
        <time>2020-12-20T09:03:16.519000+00:00</time>
      </trkpt>
      <trkpt lat="47.33166" lon="-1.27346">
        <ele>107</ele>
        <time>2020-12-20T09:03:17.482000+00:00</time>
      </trkpt>
      <trkpt lat="0" lon="0">
        <time>2020-12-20T09:03:17.493000+00:00</time>
      </trkpt>
      <trkpt lat="0" lon="0">
        <time>2020-12-20T09:03:17.498000+00:00</time>
      </trkpt>
      <trkpt lat="0" lon="0">
        <time>2020-12-20T09:03:17.500000+00:00</time>
      </trkpt>
      <trkpt lat="47.33165" lon="-1.27347">
        <ele>107</ele>
        <time>2020-12-20T09:03:18.520000+00:00</time>
      </trkpt>
      <trkpt lat="0" lon="0">
        <time>2020-12-20T09:03:18.536000+00:00</time>
      </trkpt>
      <trkpt lat="0" lon="0">
        <time>2020-12-20T09:03:18.540000+00:00</time>
      </trkpt>
      <trkpt lat="0" lon="0">
        <time>2020-12-20T09:03:18.543000+00:00</time>
      </trkpt>
      <trkpt lat="47.33165" lon="-1.27348">
        <ele>107</ele>
        <time>2020-12-20T09:03:19.503000+00:00</time>
      </trkpt>
      <trkpt lat="0" lon="0">
        <time>2020-12-20T09:03:19.523000+00:00</time>
      </trkpt>
      <trkpt lat="0" lon="0">
        <time>2020-12-20T09:03:19.527000+00:00</time>
      </trkpt>
      <trkpt lat="0" lon="0">
        <time>2020-12-20T09:03:19.534000+00:00</time>
      </trkpt>
      <trkpt lat="47.33164" lon="-1.27349">
        <ele>108</ele>
        <time>2020-12-20T09:03:20.501000+00:00</time>
      </trkpt>
      <trkpt lat="0" lon="0">
        <time>2020-12-20T09:03:20.516000+00:00</time>
      </trkpt>
      <trkpt lat="0" lon="0">
        <time>2020-12-20T09:03:20.520000+00:00</time>
      </trkpt>
      <trkpt lat="0" lon="0">
        <time>2020-12-20T09:03:20.522000+00:00</time>
      </trkpt>
      <trkpt lat="47.33164" lon="-1.27351">
        <ele>108</ele>
        <time>2020-12-20T09:03:21.471000+00:00</time>
      </trkpt>
      <trkpt lat="0" lon="0">
        <time>2020-12-20T09:03:21.479000+00:00</time>
      </trkpt>
      <trkpt lat="0" lon="0">
        <time>2020-12-20T09:03:21.480000+00:00</time>
      </trkpt>
      <trkpt lat="0" lon="0">
        <time>2020-12-20T09:03:21.482000+00:00</time>
      </trkpt>
      <trkpt lat="47.33163" lon="-1.27353">
        <ele>108</ele>
        <time>2020-12-20T09:03:22.499000+00:00</time>
      </trkpt>
      <trkpt lat="0" lon="0">
        <time>2020-12-20T09:03:22.514000+00:00</time>
      </trkpt>
      <trkpt lat="0" lon="0">
        <time>2020-12-20T09:03:22.522000+00:00</time>
      </trkpt>
      <trkpt lat="0" lon="0">
        <time>2020-12-20T09:03:22.524000+00:00</time>
      </trkpt>
      <trkpt lat="47.33163" lon="-1.27354">
        <ele>107</ele>
        <time>2020-12-20T09:03:23.480000+00:00</time>
      </trkpt>
      <trkpt lat="0" lon="0">
        <time>2020-12-20T09:03:23.497000+00:00</time>
      </trkpt>
      <trkpt lat="0" lon="0">
        <time>2020-12-20T09:03:23.501000+00:00</time>
      </trkpt>
      <trkpt lat="0" lon="0">
        <time>2020-12-20T09:03:23.506000+00:00</time>
      </trkpt>
      <trkpt lat="47.33163" lon="-1.27356">
        <ele>107</ele>
        <time>2020-12-20T09:03:24.499000+00:00</time>
      </trkpt>
      <trkpt lat="0" lon="0">
        <time>2020-12-20T09:03:24.505000+00:00</time>
      </trkpt>
      <trkpt lat="0" lon="0">
        <time>2020-12-20T09:03:24.511000+00:00</time>
      </trkpt>
      <trkpt lat="0" lon="0">
        <time>2020-12-20T09:03:24.513000+00:00</time>
      </trkpt>
      <trkpt lat="47.33162" lon="-1.27357">
        <ele>107</ele>
        <time>2020-12-20T09:03:25.513000+00:00</time>
      </trkpt>
      <trkpt lat="0" lon="0">
        <time>2020-12-20T09:03:25.543000+00:00</time>
      </trkpt>
      <trkpt lat="0" lon="0">
        <time>2020-12-20T09:03:25.548000+00:00</time>
      </trkpt>
      <trkpt lat="0" lon="0">
        <time>2020-12-20T09:03:25.550000+00:00</time>
      </trkpt>
      <trkpt lat="47.33162" lon="-1.27359">
        <ele>107</ele>
        <time>2020-12-20T09:03:26.494000+00:00</time>
      </trkpt>
      <trkpt lat="0" lon="0">
        <time>2020-12-20T09:03:26.503000+00:00</time>
      </trkpt>
      <trkpt lat="0" lon="0">
        <time>2020-12-20T09:03:26.508000+00:00</time>
      </trkpt>
      <trkpt lat="0" lon="0">
        <time>2020-12-20T09:03:26.511000+00:00</time>
      </trkpt>
      <trkpt lat="47.33161" lon="-1.27361">
        <ele>107</ele>
        <time>2020-12-20T09:03:27.456000+00:00</time>
      </trkpt>
      <trkpt lat="0" lon="0">
        <time>2020-12-20T09:03:27.470000+00:00</time>
      </trkpt>
      <trkpt lat="0" lon="0">
        <time>2020-12-20T09:03:27.477000+00:00</time>
      </trkpt>
      <trkpt lat="0" lon="0">
        <time>2020-12-20T09:03:27.479000+00:00</time>
      </trkpt>
      <trkpt lat="47.3316" lon="-1.27362">
        <ele>107</ele>
        <time>2020-12-20T09:03:28.486000+00:00</time>
      </trkpt>
      <trkpt lat="0" lon="0">
        <time>2020-12-20T09:03:28.497000+00:00</time>
      </trkpt>
      <trkpt lat="0" lon="0">
        <time>2020-12-20T09:03:28.501000+00:00</time>
      </trkpt>
      <trkpt lat="0" lon="0">
        <time>2020-12-20T09:03:28.504000+00:00</time>
      </trkpt>
      <trkpt lat="47.33159" lon="-1.27364">
        <ele>106</ele>
        <time>2020-12-20T09:03:29.495000+00:00</time>
      </trkpt>
      <trkpt lat="0" lon="0">
        <time>2020-12-20T09:03:29.507000+00:00</time>
      </trkpt>
      <trkpt lat="0" lon="0">
        <time>2020-12-20T09:03:29.512000+00:00</time>
      </trkpt>
      <trkpt lat="0" lon="0">
        <time>2020-12-20T09:03:29.515000+00:00</time>
      </trkpt>
      <trkpt lat="47.33158" lon="-1.27366">
        <ele>106</ele>
        <time>2020-12-20T09:03:30.492000+00:00</time>
      </trkpt>
      <trkpt lat="0" lon="0">
        <time>2020-12-20T09:03:30.503000+00:00</time>
      </trkpt>
      <trkpt lat="0" lon="0">
        <time>2020-12-20T09:03:30.511000+00:00</time>
      </trkpt>
      <trkpt lat="0" lon="0">
        <time>2020-12-20T09:03:30.519000+00:00</time>
      </trkpt>
      <trkpt lat="47.33157" lon="-1.27368">
        <ele>106</ele>
        <time>2020-12-20T09:03:31.509000+00:00</time>
      </trkpt>
      <trkpt lat="0" lon="0">
        <time>2020-12-20T09:03:31.517000+00:00</time>
      </trkpt>
      <trkpt lat="0" lon="0">
        <time>2020-12-20T09:03:31.525000+00:00</time>
      </trkpt>
      <trkpt lat="0" lon="0">
        <time>2020-12-20T09:03:31.528000+00:00</time>
      </trkpt>
      <trkpt lat="47.33156" lon="-1.27369">
        <ele>106</ele>
        <time>2020-12-20T09:03:32.523000+00:00</time>
      </trkpt>
      <trkpt lat="0" lon="0">
        <time>2020-12-20T09:03:32.550000+00:00</time>
      </trkpt>
      <trkpt lat="0" lon="0">
        <time>2020-12-20T09:03:32.554000+00:00</time>
      </trkpt>
      <trkpt lat="0" lon="0">
        <time>2020-12-20T09:03:32.557000+00:00</time>
      </trkpt>
      <trkpt lat="47.33155" lon="-1.27371">
        <ele>106</ele>
        <time>2020-12-20T09:03:33.439000+00:00</time>
      </trkpt>
      <trkpt lat="0" lon="0">
        <time>2020-12-20T09:03:33.446000+00:00</time>
      </trkpt>
      <trkpt lat="0" lon="0">
        <time>2020-12-20T09:03:33.455000+00:00</time>
      </trkpt>
      <trkpt lat="0" lon="0">
        <time>2020-12-20T09:03:33.457000+00:00</time>
      </trkpt>
      <trkpt lat="47.33154" lon="-1.27373">
        <ele>106</ele>
        <time>2020-12-20T09:03:34.474000+00:00</time>
      </trkpt>
      <trkpt lat="0" lon="0">
        <time>2020-12-20T09:03:34.481000+00:00</time>
      </trkpt>
      <trkpt lat="0" lon="0">
        <time>2020-12-20T09:03:34.485000+00:00</time>
      </trkpt>
      <trkpt lat="0" lon="0">
        <time>2020-12-20T09:03:34.493000+00:00</time>
      </trkpt>
      <trkpt lat="47.33153" lon="-1.27375">
        <ele>106</ele>
        <time>2020-12-20T09:03:35.493000+00:00</time>
      </trkpt>
      <trkpt lat="0" lon="0">
        <time>2020-12-20T09:03:35.516000+00:00</time>
      </trkpt>
      <trkpt lat="0" lon="0">
        <time>2020-12-20T09:03:35.520000+00:00</time>
      </trkpt>
      <trkpt lat="0" lon="0">
        <time>2020-12-20T09:03:35.523000+00:00</time>
      </trkpt>
      <trkpt lat="47.33152" lon="-1.27377">
        <ele>106</ele>
        <time>2020-12-20T09:03:36.499000+00:00</time>
      </trkpt>
      <trkpt lat="0" lon="0">
        <time>2020-12-20T09:03:36.520000+00:00</time>
      </trkpt>
      <trkpt lat="0" lon="0">
        <time>2020-12-20T09:03:36.525000+00:00</time>
      </trkpt>
      <trkpt lat="0" lon="0">
        <time>2020-12-20T09:03:36.533000+00:00</time>
      </trkpt>
      <trkpt lat="47.33151" lon="-1.27379">
        <ele>106</ele>
        <time>2020-12-20T09:03:37.450000+00:00</time>
      </trkpt>
      <trkpt lat="0" lon="0">
        <time>2020-12-20T09:03:37.468000+00:00</time>
      </trkpt>
      <trkpt lat="0" lon="0">
        <time>2020-12-20T09:03:37.472000+00:00</time>
      </trkpt>
      <trkpt lat="0" lon="0">
        <time>2020-12-20T09:03:37.474000+00:00</time>
      </trkpt>
      <trkpt lat="47.3315" lon="-1.2738">
        <ele>106</ele>
        <time>2020-12-20T09:03:38.488000+00:00</time>
      </trkpt>
      <trkpt lat="0" lon="0">
        <time>2020-12-20T09:03:38.496000+00:00</time>
      </trkpt>
      <trkpt lat="0" lon="0">
        <time>2020-12-20T09:03:38.507000+00:00</time>
      </trkpt>
      <trkpt lat="0" lon="0">
        <time>2020-12-20T09:03:38.509000+00:00</time>
      </trkpt>
      <trkpt lat="47.33149" lon="-1.27382">
        <ele>106</ele>
        <time>2020-12-20T09:03:39.419000+00:00</time>
      </trkpt>
      <trkpt lat="0" lon="0">
        <time>2020-12-20T09:03:39.443000+00:00</time>
      </trkpt>
      <trkpt lat="0" lon="0">
        <time>2020-12-20T09:03:39.446000+00:00</time>
      </trkpt>
      <trkpt lat="47.33147" lon="-1.27384">
        <ele>105</ele>
        <time>2020-12-20T09:03:40.471000+00:00</time>
      </trkpt>
      <trkpt lat="0" lon="0">
        <time>2020-12-20T09:03:40.480000+00:00</time>
      </trkpt>
      <trkpt lat="0" lon="0">
        <time>2020-12-20T09:03:40.486000+00:00</time>
      </trkpt>
      <trkpt lat="0" lon="0">
        <time>2020-12-20T09:03:40.488000+00:00</time>
      </trkpt>
      <trkpt lat="47.33146" lon="-1.27386">
        <ele>105</ele>
        <time>2020-12-20T09:03:41.468000+00:00</time>
      </trkpt>
      <trkpt lat="0" lon="0">
        <time>2020-12-20T09:03:41.471000+00:00</time>
      </trkpt>
      <trkpt lat="0" lon="0">
        <time>2020-12-20T09:03:41.476000+00:00</time>
      </trkpt>
      <trkpt lat="0" lon="0">
        <time>2020-12-20T09:03:41.477000+00:00</time>
      </trkpt>
      <trkpt lat="47.33145" lon="-1.27388">
        <ele>104</ele>
        <time>2020-12-20T09:03:42.431000+00:00</time>
      </trkpt>
      <trkpt lat="0" lon="0">
        <time>2020-12-20T09:03:42.441000+00:00</time>
      </trkpt>
      <trkpt lat="0" lon="0">
        <time>2020-12-20T09:03:42.445000+00:00</time>
      </trkpt>
      <trkpt lat="0" lon="0">
        <time>2020-12-20T09:03:42.446000+00:00</time>
      </trkpt>
      <trkpt lat="47.33144" lon="-1.2739">
        <ele>104</ele>
        <time>2020-12-20T09:03:43.450000+00:00</time>
      </trkpt>
      <trkpt lat="0" lon="0">
        <time>2020-12-20T09:03:43.457000+00:00</time>
      </trkpt>
      <trkpt lat="0" lon="0">
        <time>2020-12-20T09:03:43.461000+00:00</time>
      </trkpt>
      <trkpt lat="0" lon="0">
        <time>2020-12-20T09:03:43.464000+00:00</time>
      </trkpt>
      <trkpt lat="47.33143" lon="-1.27393">
        <ele>104</ele>
        <time>2020-12-20T09:03:44.441000+00:00</time>
      </trkpt>
      <trkpt lat="0" lon="0">
        <time>2020-12-20T09:03:44.445000+00:00</time>
      </trkpt>
      <trkpt lat="0" lon="0">
        <time>2020-12-20T09:03:44.457000+00:00</time>
      </trkpt>
      <trkpt lat="0" lon="0">
        <time>2020-12-20T09:03:44.459000+00:00</time>
      </trkpt>
      <trkpt lat="47.33142" lon="-1.27396">
        <ele>104</ele>
        <time>2020-12-20T09:03:45.477000+00:00</time>
      </trkpt>
      <trkpt lat="0" lon="0">
        <time>2020-12-20T09:03:45.486000+00:00</time>
      </trkpt>
      <trkpt lat="0" lon="0">
        <time>2020-12-20T09:03:45.494000+00:00</time>
      </trkpt>
      <trkpt lat="0" lon="0">
        <time>2020-12-20T09:03:45.497000+00:00</time>
      </trkpt>
      <trkpt lat="47.3314" lon="-1.27398">
        <ele>103</ele>
        <time>2020-12-20T09:03:46.476000+00:00</time>
      </trkpt>
      <trkpt lat="0" lon="0">
        <time>2020-12-20T09:03:46.485000+00:00</time>
      </trkpt>
      <trkpt lat="0" lon="0">
        <time>2020-12-20T09:03:46.489000+00:00</time>
      </trkpt>
      <trkpt lat="0" lon="0">
        <time>2020-12-20T09:03:46.492000+00:00</time>
      </trkpt>
      <trkpt lat="47.33139" lon="-1.274">
        <ele>103</ele>
        <time>2020-12-20T09:03:47.506000+00:00</time>
      </trkpt>
      <trkpt lat="0" lon="0">
        <time>2020-12-20T09:03:47.517000+00:00</time>
      </trkpt>
      <trkpt lat="0" lon="0">
        <time>2020-12-20T09:03:47.521000+00:00</time>
      </trkpt>
      <trkpt lat="0" lon="0">
        <time>2020-12-20T09:03:47.525000+00:00</time>
      </trkpt>
      <trkpt lat="47.33138" lon="-1.27403">
        <ele>103</ele>
        <time>2020-12-20T09:03:48.494000+00:00</time>
      </trkpt>
      <trkpt lat="0" lon="0">
        <time>2020-12-20T09:03:48.500000+00:00</time>
      </trkpt>
      <trkpt lat="0" lon="0">
        <time>2020-12-20T09:03:48.505000+00:00</time>
      </trkpt>
      <trkpt lat="0" lon="0">
        <time>2020-12-20T09:03:48.507000+00:00</time>
      </trkpt>
      <trkpt lat="47.33136" lon="-1.27405">
        <ele>102</ele>
        <time>2020-12-20T09:03:49.513000+00:00</time>
      </trkpt>
      <trkpt lat="0" lon="0">
        <time>2020-12-20T09:03:49.521000+00:00</time>
      </trkpt>
      <trkpt lat="0" lon="0">
        <time>2020-12-20T09:03:49.536000+00:00</time>
      </trkpt>
      <trkpt lat="0" lon="0">
        <time>2020-12-20T09:03:49.537000+00:00</time>
      </trkpt>
      <trkpt lat="47.33135" lon="-1.27406">
        <ele>102</ele>
        <time>2020-12-20T09:03:50.490000+00:00</time>
      </trkpt>
      <trkpt lat="0" lon="0">
        <time>2020-12-20T09:03:50.500000+00:00</time>
      </trkpt>
      <trkpt lat="0" lon="0">
        <time>2020-12-20T09:03:50.504000+00:00</time>
      </trkpt>
      <trkpt lat="0" lon="0">
        <time>2020-12-20T09:03:50.507000+00:00</time>
      </trkpt>
      <trkpt lat="47.33133" lon="-1.27408">
        <ele>101</ele>
        <time>2020-12-20T09:03:51.511000+00:00</time>
      </trkpt>
      <trkpt lat="0" lon="0">
        <time>2020-12-20T09:03:51.521000+00:00</time>
      </trkpt>
      <trkpt lat="0" lon="0">
        <time>2020-12-20T09:03:51.527000+00:00</time>
      </trkpt>
      <trkpt lat="0" lon="0">
        <time>2020-12-20T09:03:51.531000+00:00</time>
      </trkpt>
      <trkpt lat="47.33131" lon="-1.2741">
        <ele>101</ele>
        <time>2020-12-20T09:03:52.508000+00:00</time>
      </trkpt>
      <trkpt lat="0" lon="0">
        <time>2020-12-20T09:03:52.529000+00:00</time>
      </trkpt>
      <trkpt lat="0" lon="0">
        <time>2020-12-20T09:03:52.533000+00:00</time>
      </trkpt>
      <trkpt lat="0" lon="0">
        <time>2020-12-20T09:03:52.535000+00:00</time>
      </trkpt>
      <trkpt lat="47.33129" lon="-1.27411">
        <ele>100</ele>
        <time>2020-12-20T09:03:53.471000+00:00</time>
      </trkpt>
      <trkpt lat="0" lon="0">
        <time>2020-12-20T09:03:53.476000+00:00</time>
      </trkpt>
      <trkpt lat="0" lon="0">
        <time>2020-12-20T09:03:53.480000+00:00</time>
      </trkpt>
      <trkpt lat="0" lon="0">
        <time>2020-12-20T09:03:53.483000+00:00</time>
      </trkpt>
      <trkpt lat="47.33127" lon="-1.27413">
        <ele>100</ele>
        <time>2020-12-20T09:03:54.461000+00:00</time>
      </trkpt>
      <trkpt lat="0" lon="0">
        <time>2020-12-20T09:03:54.469000+00:00</time>
      </trkpt>
      <trkpt lat="0" lon="0">
        <time>2020-12-20T09:03:54.474000+00:00</time>
      </trkpt>
      <trkpt lat="0" lon="0">
        <time>2020-12-20T09:03:54.477000+00:00</time>
      </trkpt>
      <trkpt lat="47.33125" lon="-1.27414">
        <ele>100</ele>
        <time>2020-12-20T09:03:55.458000+00:00</time>
      </trkpt>
      <trkpt lat="0" lon="0">
        <time>2020-12-20T09:03:55.465000+00:00</time>
      </trkpt>
      <trkpt lat="0" lon="0">
        <time>2020-12-20T09:03:55.471000+00:00</time>
      </trkpt>
      <trkpt lat="0" lon="0">
        <time>2020-12-20T09:03:55.473000+00:00</time>
      </trkpt>
      <trkpt lat="47.33123" lon="-1.27415">
        <ele>100</ele>
        <time>2020-12-20T09:03:56.456000+00:00</time>
      </trkpt>
      <trkpt lat="0" lon="0">
        <time>2020-12-20T09:03:56.466000+00:00</time>
      </trkpt>
      <trkpt lat="0" lon="0">
        <time>2020-12-20T09:03:56.479000+00:00</time>
      </trkpt>
      <trkpt lat="0" lon="0">
        <time>2020-12-20T09:03:56.486000+00:00</time>
      </trkpt>
      <trkpt lat="47.33121" lon="-1.27417">
        <ele>101</ele>
        <time>2020-12-20T09:03:57.483000+00:00</time>
      </trkpt>
      <trkpt lat="0" lon="0">
        <time>2020-12-20T09:03:57.494000+00:00</time>
      </trkpt>
      <trkpt lat="0" lon="0">
        <time>2020-12-20T09:03:57.500000+00:00</time>
      </trkpt>
      <trkpt lat="0" lon="0">
        <time>2020-12-20T09:03:57.504000+00:00</time>
      </trkpt>
      <trkpt lat="47.33119" lon="-1.27418">
        <ele>102</ele>
        <time>2020-12-20T09:03:58.482000+00:00</time>
      </trkpt>
      <trkpt lat="0" lon="0">
        <time>2020-12-20T09:03:58.488000+00:00</time>
      </trkpt>
      <trkpt lat="0" lon="0">
        <time>2020-12-20T09:03:58.496000+00:00</time>
      </trkpt>
      <trkpt lat="0" lon="0">
        <time>2020-12-20T09:03:58.498000+00:00</time>
      </trkpt>
      <trkpt lat="47.33118" lon="-1.2742">
        <ele>103</ele>
        <time>2020-12-20T09:03:59.495000+00:00</time>
      </trkpt>
      <trkpt lat="0" lon="0">
        <time>2020-12-20T09:03:59.503000+00:00</time>
      </trkpt>
      <trkpt lat="0" lon="0">
        <time>2020-12-20T09:03:59.508000+00:00</time>
      </trkpt>
      <trkpt lat="0" lon="0">
        <time>2020-12-20T09:03:59.510000+00:00</time>
      </trkpt>
      <trkpt lat="47.33116" lon="-1.27421">
        <ele>102</ele>
        <time>2020-12-20T09:04:00.488000+00:00</time>
      </trkpt>
      <trkpt lat="0" lon="0">
        <time>2020-12-20T09:04:00.501000+00:00</time>
      </trkpt>
      <trkpt lat="0" lon="0">
        <time>2020-12-20T09:04:00.510000+00:00</time>
      </trkpt>
      <trkpt lat="0" lon="0">
        <time>2020-12-20T09:04:00.516000+00:00</time>
      </trkpt>
      <trkpt lat="47.33115" lon="-1.27422">
        <ele>102</ele>
        <time>2020-12-20T09:04:01.471000+00:00</time>
      </trkpt>
      <trkpt lat="0" lon="0">
        <time>2020-12-20T09:04:01.475000+00:00</time>
      </trkpt>
      <trkpt lat="0" lon="0">
        <time>2020-12-20T09:04:01.477000+00:00</time>
      </trkpt>
      <trkpt lat="0" lon="0">
        <time>2020-12-20T09:04:01.480000+00:00</time>
      </trkpt>
      <trkpt lat="47.33114" lon="-1.27423">
        <ele>102</ele>
        <time>2020-12-20T09:04:02.489000+00:00</time>
      </trkpt>
      <trkpt lat="0" lon="0">
        <time>2020-12-20T09:04:02.498000+00:00</time>
      </trkpt>
      <trkpt lat="0" lon="0">
        <time>2020-12-20T09:04:02.502000+00:00</time>
      </trkpt>
      <trkpt lat="0" lon="0">
        <time>2020-12-20T09:04:02.505000+00:00</time>
      </trkpt>
      <trkpt lat="47.33113" lon="-1.27424">
        <ele>102</ele>
        <time>2020-12-20T09:04:03.516000+00:00</time>
      </trkpt>
      <trkpt lat="0" lon="0">
        <time>2020-12-20T09:04:03.526000+00:00</time>
      </trkpt>
      <trkpt lat="0" lon="0">
        <time>2020-12-20T09:04:03.533000+00:00</time>
      </trkpt>
      <trkpt lat="0" lon="0">
        <time>2020-12-20T09:04:03.536000+00:00</time>
      </trkpt>
      <trkpt lat="47.33111" lon="-1.27425">
        <ele>103</ele>
        <time>2020-12-20T09:04:04.505000+00:00</time>
      </trkpt>
      <trkpt lat="0" lon="0">
        <time>2020-12-20T09:04:04.523000+00:00</time>
      </trkpt>
      <trkpt lat="0" lon="0">
        <time>2020-12-20T09:04:04.528000+00:00</time>
      </trkpt>
      <trkpt lat="0" lon="0">
        <time>2020-12-20T09:04:04.532000+00:00</time>
      </trkpt>
      <trkpt lat="47.3311" lon="-1.27425">
        <ele>103</ele>
        <time>2020-12-20T09:04:05.494000+00:00</time>
      </trkpt>
      <trkpt lat="0" lon="0">
        <time>2020-12-20T09:04:05.505000+00:00</time>
      </trkpt>
      <trkpt lat="0" lon="0">
        <time>2020-12-20T09:04:05.509000+00:00</time>
      </trkpt>
      <trkpt lat="0" lon="0">
        <time>2020-12-20T09:04:05.511000+00:00</time>
      </trkpt>
      <trkpt lat="47.33109" lon="-1.27426">
        <ele>104</ele>
        <time>2020-12-20T09:04:06.487000+00:00</time>
      </trkpt>
      <trkpt lat="0" lon="0">
        <time>2020-12-20T09:04:06.496000+00:00</time>
      </trkpt>
      <trkpt lat="0" lon="0">
        <time>2020-12-20T09:04:06.500000+00:00</time>
      </trkpt>
      <trkpt lat="0" lon="0">
        <time>2020-12-20T09:04:06.504000+00:00</time>
      </trkpt>
      <trkpt lat="47.33108" lon="-1.27427">
        <ele>104</ele>
        <time>2020-12-20T09:04:07.540000+00:00</time>
      </trkpt>
      <trkpt lat="0" lon="0">
        <time>2020-12-20T09:04:07.550000+00:00</time>
      </trkpt>
      <trkpt lat="0" lon="0">
        <time>2020-12-20T09:04:07.552000+00:00</time>
      </trkpt>
      <trkpt lat="0" lon="0">
        <time>2020-12-20T09:04:07.554000+00:00</time>
      </trkpt>
      <trkpt lat="47.33107" lon="-1.27427">
        <ele>104</ele>
        <time>2020-12-20T09:04:08.484000+00:00</time>
      </trkpt>
      <trkpt lat="0" lon="0">
        <time>2020-12-20T09:04:08.499000+00:00</time>
      </trkpt>
      <trkpt lat="0" lon="0">
        <time>2020-12-20T09:04:08.507000+00:00</time>
      </trkpt>
      <trkpt lat="0" lon="0">
        <time>2020-12-20T09:04:08.510000+00:00</time>
      </trkpt>
      <trkpt lat="47.33106" lon="-1.27427">
        <ele>105</ele>
        <time>2020-12-20T09:04:09.489000+00:00</time>
      </trkpt>
      <trkpt lat="0" lon="0">
        <time>2020-12-20T09:04:09.497000+00:00</time>
      </trkpt>
      <trkpt lat="0" lon="0">
        <time>2020-12-20T09:04:09.501000+00:00</time>
      </trkpt>
      <trkpt lat="0" lon="0">
        <time>2020-12-20T09:04:09.503000+00:00</time>
      </trkpt>
      <trkpt lat="47.33105" lon="-1.27427">
        <ele>106</ele>
        <time>2020-12-20T09:04:10.506000+00:00</time>
      </trkpt>
      <trkpt lat="0" lon="0">
        <time>2020-12-20T09:04:10.511000+00:00</time>
      </trkpt>
      <trkpt lat="0" lon="0">
        <time>2020-12-20T09:04:10.520000+00:00</time>
      </trkpt>
      <trkpt lat="0" lon="0">
        <time>2020-12-20T09:04:10.523000+00:00</time>
      </trkpt>
      <trkpt lat="47.33105" lon="-1.27427">
        <ele>106</ele>
        <time>2020-12-20T09:04:11.488000+00:00</time>
      </trkpt>
      <trkpt lat="0" lon="0">
        <time>2020-12-20T09:04:11.504000+00:00</time>
      </trkpt>
      <trkpt lat="0" lon="0">
        <time>2020-12-20T09:04:11.509000+00:00</time>
      </trkpt>
      <trkpt lat="0" lon="0">
        <time>2020-12-20T09:04:11.511000+00:00</time>
      </trkpt>
      <trkpt lat="47.33104" lon="-1.27428">
        <ele>106</ele>
        <time>2020-12-20T09:04:12.505000+00:00</time>
      </trkpt>
      <trkpt lat="0" lon="0">
        <time>2020-12-20T09:04:12.529000+00:00</time>
      </trkpt>
      <trkpt lat="0" lon="0">
        <time>2020-12-20T09:04:12.536000+00:00</time>
      </trkpt>
      <trkpt lat="0" lon="0">
        <time>2020-12-20T09:04:12.542000+00:00</time>
      </trkpt>
      <trkpt lat="47.33104" lon="-1.27428">
        <ele>106</ele>
        <time>2020-12-20T09:04:13.493000+00:00</time>
      </trkpt>
      <trkpt lat="0" lon="0">
        <time>2020-12-20T09:04:13.503000+00:00</time>
      </trkpt>
      <trkpt lat="0" lon="0">
        <time>2020-12-20T09:04:13.507000+00:00</time>
      </trkpt>
      <trkpt lat="0" lon="0">
        <time>2020-12-20T09:04:13.510000+00:00</time>
      </trkpt>
      <trkpt lat="47.33104" lon="-1.27428">
        <ele>106</ele>
        <time>2020-12-20T09:04:14.499000+00:00</time>
      </trkpt>
      <trkpt lat="0" lon="0">
        <time>2020-12-20T09:04:14.514000+00:00</time>
      </trkpt>
      <trkpt lat="0" lon="0">
        <time>2020-12-20T09:04:14.522000+00:00</time>
      </trkpt>
      <trkpt lat="0" lon="0">
        <time>2020-12-20T09:04:14.525000+00:00</time>
      </trkpt>
      <trkpt lat="47.33104" lon="-1.27428">
        <ele>106</ele>
        <time>2020-12-20T09:04:15.463000+00:00</time>
      </trkpt>
      <trkpt lat="0" lon="0">
        <time>2020-12-20T09:04:15.468000+00:00</time>
      </trkpt>
      <trkpt lat="0" lon="0">
        <time>2020-12-20T09:04:15.474000+00:00</time>
      </trkpt>
      <trkpt lat="0" lon="0">
        <time>2020-12-20T09:04:15.476000+00:00</time>
      </trkpt>
      <trkpt lat="47.33104" lon="-1.27429">
        <ele>106</ele>
        <time>2020-12-20T09:04:16.475000+00:00</time>
      </trkpt>
      <trkpt lat="0" lon="0">
        <time>2020-12-20T09:04:16.482000+00:00</time>
      </trkpt>
      <trkpt lat="0" lon="0">
        <time>2020-12-20T09:04:16.487000+00:00</time>
      </trkpt>
      <trkpt lat="0" lon="0">
        <time>2020-12-20T09:04:16.489000+00:00</time>
      </trkpt>
      <trkpt lat="47.33104" lon="-1.27429">
        <ele>106</ele>
        <time>2020-12-20T09:04:17.490000+00:00</time>
      </trkpt>
      <trkpt lat="0" lon="0">
        <time>2020-12-20T09:04:17.499000+00:00</time>
      </trkpt>
      <trkpt lat="0" lon="0">
        <time>2020-12-20T09:04:17.513000+00:00</time>
      </trkpt>
      <trkpt lat="0" lon="0">
        <time>2020-12-20T09:04:17.528000+00:00</time>
      </trkpt>
      <trkpt lat="47.3308" lon="-1.27455">
        <ele>104</ele>
        <time>2020-12-20T09:04:18.460000+00:00</time>
      </trkpt>
      <trkpt lat="0" lon="0">
        <time>2020-12-20T09:04:18.467000+00:00</time>
      </trkpt>
      <trkpt lat="0" lon="0">
        <time>2020-12-20T09:04:18.471000+00:00</time>
      </trkpt>
      <trkpt lat="0" lon="0">
        <time>2020-12-20T09:04:18.472000+00:00</time>
      </trkpt>
      <trkpt lat="47.33079" lon="-1.27456">
        <ele>103</ele>
        <time>2020-12-20T09:04:19.494000+00:00</time>
      </trkpt>
      <trkpt lat="0" lon="0">
        <time>2020-12-20T09:04:19.509000+00:00</time>
      </trkpt>
      <trkpt lat="0" lon="0">
        <time>2020-12-20T09:04:19.513000+00:00</time>
      </trkpt>
      <trkpt lat="0" lon="0">
        <time>2020-12-20T09:04:19.515000+00:00</time>
      </trkpt>
      <trkpt lat="47.33078" lon="-1.27457">
        <ele>103</ele>
        <time>2020-12-20T09:04:20.497000+00:00</time>
      </trkpt>
      <trkpt lat="0" lon="0">
        <time>2020-12-20T09:04:20.503000+00:00</time>
      </trkpt>
      <trkpt lat="0" lon="0">
        <time>2020-12-20T09:04:20.506000+00:00</time>
      </trkpt>
      <trkpt lat="0" lon="0">
        <time>2020-12-20T09:04:20.508000+00:00</time>
      </trkpt>
      <trkpt lat="47.33077" lon="-1.27458">
        <ele>103</ele>
        <time>2020-12-20T09:04:21.533000+00:00</time>
      </trkpt>
      <trkpt lat="0" lon="0">
        <time>2020-12-20T09:04:21.539000+00:00</time>
      </trkpt>
      <trkpt lat="0" lon="0">
        <time>2020-12-20T09:04:21.549000+00:00</time>
      </trkpt>
      <trkpt lat="0" lon="0">
        <time>2020-12-20T09:04:21.559000+00:00</time>
      </trkpt>
      <trkpt lat="47.33076" lon="-1.27459">
        <ele>103</ele>
        <time>2020-12-20T09:04:22.492000+00:00</time>
      </trkpt>
      <trkpt lat="0" lon="0">
        <time>2020-12-20T09:04:22.501000+00:00</time>
      </trkpt>
      <trkpt lat="0" lon="0">
        <time>2020-12-20T09:04:22.505000+00:00</time>
      </trkpt>
      <trkpt lat="0" lon="0">
        <time>2020-12-20T09:04:22.509000+00:00</time>
      </trkpt>
      <trkpt lat="47.33076" lon="-1.27459">
        <ele>105</ele>
        <time>2020-12-20T09:04:23.531000+00:00</time>
      </trkpt>
      <trkpt lat="0" lon="0">
        <time>2020-12-20T09:04:23.543000+00:00</time>
      </trkpt>
      <trkpt lat="0" lon="0">
        <time>2020-12-20T09:04:23.558000+00:00</time>
      </trkpt>
      <trkpt lat="0" lon="0">
        <time>2020-12-20T09:04:23.564000+00:00</time>
      </trkpt>
      <trkpt lat="47.33075" lon="-1.2746">
        <ele>105</ele>
        <time>2020-12-20T09:04:24.528000+00:00</time>
      </trkpt>
      <trkpt lat="0" lon="0">
        <time>2020-12-20T09:04:24.533000+00:00</time>
      </trkpt>
      <trkpt lat="0" lon="0">
        <time>2020-12-20T09:04:24.546000+00:00</time>
      </trkpt>
      <trkpt lat="0" lon="0">
        <time>2020-12-20T09:04:24.548000+00:00</time>
      </trkpt>
      <trkpt lat="47.33075" lon="-1.27461">
        <ele>105</ele>
        <time>2020-12-20T09:04:25.533000+00:00</time>
      </trkpt>
      <trkpt lat="0" lon="0">
        <time>2020-12-20T09:04:25.543000+00:00</time>
      </trkpt>
      <trkpt lat="0" lon="0">
        <time>2020-12-20T09:04:25.558000+00:00</time>
      </trkpt>
      <trkpt lat="0" lon="0">
        <time>2020-12-20T09:04:25.560000+00:00</time>
      </trkpt>
      <trkpt lat="47.33075" lon="-1.27462">
        <ele>105</ele>
        <time>2020-12-20T09:04:26.540000+00:00</time>
      </trkpt>
      <trkpt lat="0" lon="0">
        <time>2020-12-20T09:04:26.553000+00:00</time>
      </trkpt>
      <trkpt lat="0" lon="0">
        <time>2020-12-20T09:04:26.565000+00:00</time>
      </trkpt>
      <trkpt lat="0" lon="0">
        <time>2020-12-20T09:04:26.573000+00:00</time>
      </trkpt>
      <trkpt lat="47.33074" lon="-1.27463">
        <ele>106</ele>
        <time>2020-12-20T09:04:27.478000+00:00</time>
      </trkpt>
      <trkpt lat="0" lon="0">
        <time>2020-12-20T09:04:27.495000+00:00</time>
      </trkpt>
      <trkpt lat="0" lon="0">
        <time>2020-12-20T09:04:27.498000+00:00</time>
      </trkpt>
      <trkpt lat="0" lon="0">
        <time>2020-12-20T09:04:27.501000+00:00</time>
      </trkpt>
      <trkpt lat="47.33074" lon="-1.27464">
        <ele>106</ele>
        <time>2020-12-20T09:04:28.517000+00:00</time>
      </trkpt>
      <trkpt lat="0" lon="0">
        <time>2020-12-20T09:04:28.531000+00:00</time>
      </trkpt>
      <trkpt lat="0" lon="0">
        <time>2020-12-20T09:04:28.535000+00:00</time>
      </trkpt>
      <trkpt lat="0" lon="0">
        <time>2020-12-20T09:04:28.537000+00:00</time>
      </trkpt>
      <trkpt lat="47.33074" lon="-1.27465">
        <ele>106</ele>
        <time>2020-12-20T09:04:29.553000+00:00</time>
      </trkpt>
      <trkpt lat="0" lon="0">
        <time>2020-12-20T09:04:29.558000+00:00</time>
      </trkpt>
      <trkpt lat="0" lon="0">
        <time>2020-12-20T09:04:29.564000+00:00</time>
      </trkpt>
      <trkpt lat="0" lon="0">
        <time>2020-12-20T09:04:29.567000+00:00</time>
      </trkpt>
      <trkpt lat="47.33073" lon="-1.27467">
        <ele>106</ele>
        <time>2020-12-20T09:04:30.506000+00:00</time>
      </trkpt>
      <trkpt lat="0" lon="0">
        <time>2020-12-20T09:04:30.517000+00:00</time>
      </trkpt>
      <trkpt lat="0" lon="0">
        <time>2020-12-20T09:04:30.532000+00:00</time>
      </trkpt>
      <trkpt lat="0" lon="0">
        <time>2020-12-20T09:04:30.535000+00:00</time>
      </trkpt>
      <trkpt lat="47.33072" lon="-1.27469">
        <ele>106</ele>
        <time>2020-12-20T09:04:31.513000+00:00</time>
      </trkpt>
      <trkpt lat="0" lon="0">
        <time>2020-12-20T09:04:31.521000+00:00</time>
      </trkpt>
      <trkpt lat="0" lon="0">
        <time>2020-12-20T09:04:31.536000+00:00</time>
      </trkpt>
      <trkpt lat="0" lon="0">
        <time>2020-12-20T09:04:31.545000+00:00</time>
      </trkpt>
      <trkpt lat="47.33071" lon="-1.27471">
        <ele>106</ele>
        <time>2020-12-20T09:04:32.580000+00:00</time>
      </trkpt>
      <trkpt lat="0" lon="0">
        <time>2020-12-20T09:04:32.590000+00:00</time>
      </trkpt>
      <trkpt lat="0" lon="0">
        <time>2020-12-20T09:04:32.595000+00:00</time>
      </trkpt>
      <trkpt lat="0" lon="0">
        <time>2020-12-20T09:04:32.598000+00:00</time>
      </trkpt>
      <trkpt lat="47.3307" lon="-1.27473">
        <ele>106</ele>
        <time>2020-12-20T09:04:33.524000+00:00</time>
      </trkpt>
      <trkpt lat="0" lon="0">
        <time>2020-12-20T09:04:33.536000+00:00</time>
      </trkpt>
      <trkpt lat="0" lon="0">
        <time>2020-12-20T09:04:33.545000+00:00</time>
      </trkpt>
      <trkpt lat="0" lon="0">
        <time>2020-12-20T09:04:33.549000+00:00</time>
      </trkpt>
      <trkpt lat="47.33069" lon="-1.27475">
        <ele>106</ele>
        <time>2020-12-20T09:04:34.529000+00:00</time>
      </trkpt>
      <trkpt lat="0" lon="0">
        <time>2020-12-20T09:04:34.551000+00:00</time>
      </trkpt>
      <trkpt lat="0" lon="0">
        <time>2020-12-20T09:04:34.558000+00:00</time>
      </trkpt>
      <trkpt lat="0" lon="0">
        <time>2020-12-20T09:04:34.560000+00:00</time>
      </trkpt>
      <trkpt lat="47.33068" lon="-1.27477">
        <ele>106</ele>
        <time>2020-12-20T09:04:35.556000+00:00</time>
      </trkpt>
      <trkpt lat="0" lon="0">
        <time>2020-12-20T09:04:35.574000+00:00</time>
      </trkpt>
      <trkpt lat="0" lon="0">
        <time>2020-12-20T09:04:35.579000+00:00</time>
      </trkpt>
      <trkpt lat="0" lon="0">
        <time>2020-12-20T09:04:35.581000+00:00</time>
      </trkpt>
      <trkpt lat="47.33067" lon="-1.27479">
        <ele>106</ele>
        <time>2020-12-20T09:04:36.504000+00:00</time>
      </trkpt>
      <trkpt lat="0" lon="0">
        <time>2020-12-20T09:04:36.515000+00:00</time>
      </trkpt>
      <trkpt lat="0" lon="0">
        <time>2020-12-20T09:04:36.522000+00:00</time>
      </trkpt>
      <trkpt lat="0" lon="0">
        <time>2020-12-20T09:04:36.525000+00:00</time>
      </trkpt>
      <trkpt lat="47.33065" lon="-1.27481">
        <ele>107</ele>
        <time>2020-12-20T09:04:37.565000+00:00</time>
      </trkpt>
      <trkpt lat="0" lon="0">
        <time>2020-12-20T09:04:37.571000+00:00</time>
      </trkpt>
      <trkpt lat="0" lon="0">
        <time>2020-12-20T09:04:37.575000+00:00</time>
      </trkpt>
      <trkpt lat="0" lon="0">
        <time>2020-12-20T09:04:37.581000+00:00</time>
      </trkpt>
      <trkpt lat="47.33064" lon="-1.27483">
        <ele>107</ele>
        <time>2020-12-20T09:04:38.511000+00:00</time>
      </trkpt>
      <trkpt lat="0" lon="0">
        <time>2020-12-20T09:04:38.515000+00:00</time>
      </trkpt>
      <trkpt lat="0" lon="0">
        <time>2020-12-20T09:04:38.519000+00:00</time>
      </trkpt>
      <trkpt lat="0" lon="0">
        <time>2020-12-20T09:04:38.521000+00:00</time>
      </trkpt>
      <trkpt lat="47.33062" lon="-1.27485">
        <ele>107</ele>
        <time>2020-12-20T09:04:39.507000+00:00</time>
      </trkpt>
      <trkpt lat="0" lon="0">
        <time>2020-12-20T09:04:39.516000+00:00</time>
      </trkpt>
      <trkpt lat="0" lon="0">
        <time>2020-12-20T09:04:39.521000+00:00</time>
      </trkpt>
      <trkpt lat="0" lon="0">
        <time>2020-12-20T09:04:39.525000+00:00</time>
      </trkpt>
      <trkpt lat="47.33061" lon="-1.27486">
        <ele>107</ele>
        <time>2020-12-20T09:04:40.527000+00:00</time>
      </trkpt>
      <trkpt lat="0" lon="0">
        <time>2020-12-20T09:04:40.544000+00:00</time>
      </trkpt>
      <trkpt lat="0" lon="0">
        <time>2020-12-20T09:04:40.549000+00:00</time>
      </trkpt>
      <trkpt lat="0" lon="0">
        <time>2020-12-20T09:04:40.552000+00:00</time>
      </trkpt>
      <trkpt lat="47.3306" lon="-1.27488">
        <ele>108</ele>
        <time>2020-12-20T09:04:41.537000+00:00</time>
      </trkpt>
      <trkpt lat="0" lon="0">
        <time>2020-12-20T09:04:41.544000+00:00</time>
      </trkpt>
      <trkpt lat="0" lon="0">
        <time>2020-12-20T09:04:41.551000+00:00</time>
      </trkpt>
      <trkpt lat="0" lon="0">
        <time>2020-12-20T09:04:41.553000+00:00</time>
      </trkpt>
      <trkpt lat="47.33058" lon="-1.2749">
        <ele>109</ele>
        <time>2020-12-20T09:04:42.516000+00:00</time>
      </trkpt>
      <trkpt lat="0" lon="0">
        <time>2020-12-20T09:04:42.521000+00:00</time>
      </trkpt>
      <trkpt lat="0" lon="0">
        <time>2020-12-20T09:04:42.529000+00:00</time>
      </trkpt>
      <trkpt lat="0" lon="0">
        <time>2020-12-20T09:04:42.532000+00:00</time>
      </trkpt>
      <trkpt lat="47.33057" lon="-1.27492">
        <ele>109</ele>
        <time>2020-12-20T09:04:43.519000+00:00</time>
      </trkpt>
      <trkpt lat="0" lon="0">
        <time>2020-12-20T09:04:43.529000+00:00</time>
      </trkpt>
      <trkpt lat="0" lon="0">
        <time>2020-12-20T09:04:43.538000+00:00</time>
      </trkpt>
      <trkpt lat="0" lon="0">
        <time>2020-12-20T09:04:43.540000+00:00</time>
      </trkpt>
      <trkpt lat="47.33056" lon="-1.27493">
        <ele>109</ele>
        <time>2020-12-20T09:04:44.525000+00:00</time>
      </trkpt>
      <trkpt lat="0" lon="0">
        <time>2020-12-20T09:04:44.536000+00:00</time>
      </trkpt>
      <trkpt lat="0" lon="0">
        <time>2020-12-20T09:04:44.541000+00:00</time>
      </trkpt>
      <trkpt lat="0" lon="0">
        <time>2020-12-20T09:04:44.543000+00:00</time>
      </trkpt>
      <trkpt lat="47.33054" lon="-1.27495">
        <ele>110</ele>
        <time>2020-12-20T09:04:45.532000+00:00</time>
      </trkpt>
      <trkpt lat="0" lon="0">
        <time>2020-12-20T09:04:45.542000+00:00</time>
      </trkpt>
      <trkpt lat="0" lon="0">
        <time>2020-12-20T09:04:45.548000+00:00</time>
      </trkpt>
      <trkpt lat="0" lon="0">
        <time>2020-12-20T09:04:45.551000+00:00</time>
      </trkpt>
      <trkpt lat="47.33053" lon="-1.27496">
        <ele>110</ele>
        <time>2020-12-20T09:04:46.518000+00:00</time>
      </trkpt>
      <trkpt lat="0" lon="0">
        <time>2020-12-20T09:04:46.526000+00:00</time>
      </trkpt>
      <trkpt lat="0" lon="0">
        <time>2020-12-20T09:04:46.541000+00:00</time>
      </trkpt>
      <trkpt lat="0" lon="0">
        <time>2020-12-20T09:04:46.544000+00:00</time>
      </trkpt>
      <trkpt lat="47.33051" lon="-1.27497">
        <ele>111</ele>
        <time>2020-12-20T09:04:47.528000+00:00</time>
      </trkpt>
      <trkpt lat="0" lon="0">
        <time>2020-12-20T09:04:47.532000+00:00</time>
      </trkpt>
      <trkpt lat="0" lon="0">
        <time>2020-12-20T09:04:47.535000+00:00</time>
      </trkpt>
      <trkpt lat="0" lon="0">
        <time>2020-12-20T09:04:47.536000+00:00</time>
      </trkpt>
      <trkpt lat="47.3305" lon="-1.27498">
        <ele>111</ele>
        <time>2020-12-20T09:04:48.498000+00:00</time>
      </trkpt>
      <trkpt lat="0" lon="0">
        <time>2020-12-20T09:04:48.504000+00:00</time>
      </trkpt>
      <trkpt lat="0" lon="0">
        <time>2020-12-20T09:04:48.508000+00:00</time>
      </trkpt>
      <trkpt lat="0" lon="0">
        <time>2020-12-20T09:04:48.511000+00:00</time>
      </trkpt>
      <trkpt lat="47.33049" lon="-1.27499">
        <ele>110</ele>
        <time>2020-12-20T09:04:49.473000+00:00</time>
      </trkpt>
      <trkpt lat="0" lon="0">
        <time>2020-12-20T09:04:49.476000+00:00</time>
      </trkpt>
      <trkpt lat="0" lon="0">
        <time>2020-12-20T09:04:49.494000+00:00</time>
      </trkpt>
      <trkpt lat="0" lon="0">
        <time>2020-12-20T09:04:49.496000+00:00</time>
      </trkpt>
      <trkpt lat="47.33047" lon="-1.27499">
        <ele>110</ele>
        <time>2020-12-20T09:04:50.527000+00:00</time>
      </trkpt>
      <trkpt lat="0" lon="0">
        <time>2020-12-20T09:04:50.543000+00:00</time>
      </trkpt>
      <trkpt lat="0" lon="0">
        <time>2020-12-20T09:04:50.549000+00:00</time>
      </trkpt>
      <trkpt lat="0" lon="0">
        <time>2020-12-20T09:04:50.552000+00:00</time>
      </trkpt>
      <trkpt lat="47.33046" lon="-1.275">
        <ele>110</ele>
        <time>2020-12-20T09:04:51.541000+00:00</time>
      </trkpt>
      <trkpt lat="0" lon="0">
        <time>2020-12-20T09:04:51.544000+00:00</time>
      </trkpt>
      <trkpt lat="0" lon="0">
        <time>2020-12-20T09:04:51.549000+00:00</time>
      </trkpt>
      <trkpt lat="0" lon="0">
        <time>2020-12-20T09:04:51.551000+00:00</time>
      </trkpt>
      <trkpt lat="47.33045" lon="-1.275">
        <ele>110</ele>
        <time>2020-12-20T09:04:52.525000+00:00</time>
      </trkpt>
      <trkpt lat="0" lon="0">
        <time>2020-12-20T09:04:52.532000+00:00</time>
      </trkpt>
      <trkpt lat="0" lon="0">
        <time>2020-12-20T09:04:52.536000+00:00</time>
      </trkpt>
      <trkpt lat="0" lon="0">
        <time>2020-12-20T09:04:52.539000+00:00</time>
      </trkpt>
      <trkpt lat="47.33043" lon="-1.27501">
        <ele>110</ele>
        <time>2020-12-20T09:04:53.484000+00:00</time>
      </trkpt>
      <trkpt lat="0" lon="0">
        <time>2020-12-20T09:04:53.490000+00:00</time>
      </trkpt>
      <trkpt lat="0" lon="0">
        <time>2020-12-20T09:04:53.494000+00:00</time>
      </trkpt>
      <trkpt lat="0" lon="0">
        <time>2020-12-20T09:04:53.497000+00:00</time>
      </trkpt>
      <trkpt lat="47.33041" lon="-1.27501">
        <ele>110</ele>
        <time>2020-12-20T09:04:54.556000+00:00</time>
      </trkpt>
      <trkpt lat="0" lon="0">
        <time>2020-12-20T09:04:54.579000+00:00</time>
      </trkpt>
      <trkpt lat="0" lon="0">
        <time>2020-12-20T09:04:54.585000+00:00</time>
      </trkpt>
      <trkpt lat="0" lon="0">
        <time>2020-12-20T09:04:54.597000+00:00</time>
      </trkpt>
      <trkpt lat="47.3304" lon="-1.27501">
        <ele>110</ele>
        <time>2020-12-20T09:04:55.524000+00:00</time>
      </trkpt>
      <trkpt lat="0" lon="0">
        <time>2020-12-20T09:04:55.534000+00:00</time>
      </trkpt>
      <trkpt lat="0" lon="0">
        <time>2020-12-20T09:04:55.538000+00:00</time>
      </trkpt>
      <trkpt lat="0" lon="0">
        <time>2020-12-20T09:04:55.543000+00:00</time>
      </trkpt>
      <trkpt lat="47.33038" lon="-1.27502">
        <ele>110</ele>
        <time>2020-12-20T09:04:56.540000+00:00</time>
      </trkpt>
      <trkpt lat="0" lon="0">
        <time>2020-12-20T09:04:56.548000+00:00</time>
      </trkpt>
      <trkpt lat="0" lon="0">
        <time>2020-12-20T09:04:56.558000+00:00</time>
      </trkpt>
      <trkpt lat="0" lon="0">
        <time>2020-12-20T09:04:56.560000+00:00</time>
      </trkpt>
      <trkpt lat="47.33036" lon="-1.27502">
        <ele>110</ele>
        <time>2020-12-20T09:04:57.527000+00:00</time>
      </trkpt>
      <trkpt lat="0" lon="0">
        <time>2020-12-20T09:04:57.534000+00:00</time>
      </trkpt>
      <trkpt lat="0" lon="0">
        <time>2020-12-20T09:04:57.538000+00:00</time>
      </trkpt>
      <trkpt lat="0" lon="0">
        <time>2020-12-20T09:04:57.540000+00:00</time>
      </trkpt>
      <trkpt lat="47.33034" lon="-1.27503">
        <ele>110</ele>
        <time>2020-12-20T09:04:58.539000+00:00</time>
      </trkpt>
      <trkpt lat="0" lon="0">
        <time>2020-12-20T09:04:58.549000+00:00</time>
      </trkpt>
      <trkpt lat="0" lon="0">
        <time>2020-12-20T09:04:58.553000+00:00</time>
      </trkpt>
      <trkpt lat="0" lon="0">
        <time>2020-12-20T09:04:58.556000+00:00</time>
      </trkpt>
      <trkpt lat="47.33031" lon="-1.27503">
        <ele>110</ele>
        <time>2020-12-20T09:04:59.506000+00:00</time>
      </trkpt>
      <trkpt lat="0" lon="0">
        <time>2020-12-20T09:04:59.514000+00:00</time>
      </trkpt>
      <trkpt lat="0" lon="0">
        <time>2020-12-20T09:04:59.518000+00:00</time>
      </trkpt>
      <trkpt lat="0" lon="0">
        <time>2020-12-20T09:04:59.520000+00:00</time>
      </trkpt>
      <trkpt lat="47.33029" lon="-1.27503">
        <ele>110</ele>
        <time>2020-12-20T09:05:00.539000+00:00</time>
      </trkpt>
      <trkpt lat="0" lon="0">
        <time>2020-12-20T09:05:00.549000+00:00</time>
      </trkpt>
      <trkpt lat="0" lon="0">
        <time>2020-12-20T09:05:00.559000+00:00</time>
      </trkpt>
      <trkpt lat="0" lon="0">
        <time>2020-12-20T09:05:00.568000+00:00</time>
      </trkpt>
      <trkpt lat="47.33027" lon="-1.27504">
        <ele>110</ele>
        <time>2020-12-20T09:05:01.504000+00:00</time>
      </trkpt>
      <trkpt lat="0" lon="0">
        <time>2020-12-20T09:05:01.523000+00:00</time>
      </trkpt>
      <trkpt lat="0" lon="0">
        <time>2020-12-20T09:05:01.527000+00:00</time>
      </trkpt>
      <trkpt lat="0" lon="0">
        <time>2020-12-20T09:05:01.529000+00:00</time>
      </trkpt>
      <trkpt lat="47.33024" lon="-1.27504">
        <ele>110</ele>
        <time>2020-12-20T09:05:02.542000+00:00</time>
      </trkpt>
      <trkpt lat="0" lon="0">
        <time>2020-12-20T09:05:02.555000+00:00</time>
      </trkpt>
      <trkpt lat="0" lon="0">
        <time>2020-12-20T09:05:02.565000+00:00</time>
      </trkpt>
      <trkpt lat="0" lon="0">
        <time>2020-12-20T09:05:02.568000+00:00</time>
      </trkpt>
      <trkpt lat="47.33022" lon="-1.27504">
        <ele>110</ele>
        <time>2020-12-20T09:05:03.535000+00:00</time>
      </trkpt>
      <trkpt lat="0" lon="0">
        <time>2020-12-20T09:05:03.541000+00:00</time>
      </trkpt>
      <trkpt lat="0" lon="0">
        <time>2020-12-20T09:05:03.551000+00:00</time>
      </trkpt>
      <trkpt lat="0" lon="0">
        <time>2020-12-20T09:05:03.557000+00:00</time>
      </trkpt>
      <trkpt lat="47.33019" lon="-1.27504">
        <ele>110</ele>
        <time>2020-12-20T09:05:04.502000+00:00</time>
      </trkpt>
      <trkpt lat="0" lon="0">
        <time>2020-12-20T09:05:04.509000+00:00</time>
      </trkpt>
      <trkpt lat="0" lon="0">
        <time>2020-12-20T09:05:04.515000+00:00</time>
      </trkpt>
      <trkpt lat="0" lon="0">
        <time>2020-12-20T09:05:04.518000+00:00</time>
      </trkpt>
      <trkpt lat="47.33016" lon="-1.27505">
        <ele>110</ele>
        <time>2020-12-20T09:05:05.547000+00:00</time>
      </trkpt>
      <trkpt lat="0" lon="0">
        <time>2020-12-20T09:05:05.557000+00:00</time>
      </trkpt>
      <trkpt lat="0" lon="0">
        <time>2020-12-20T09:05:05.566000+00:00</time>
      </trkpt>
      <trkpt lat="0" lon="0">
        <time>2020-12-20T09:05:05.569000+00:00</time>
      </trkpt>
      <trkpt lat="47.33013" lon="-1.27505">
        <ele>110</ele>
        <time>2020-12-20T09:05:06.555000+00:00</time>
      </trkpt>
      <trkpt lat="0" lon="0">
        <time>2020-12-20T09:05:06.557000+00:00</time>
      </trkpt>
      <trkpt lat="0" lon="0">
        <time>2020-12-20T09:05:06.558000+00:00</time>
      </trkpt>
      <trkpt lat="0" lon="0">
        <time>2020-12-20T09:05:06.559000+00:00</time>
      </trkpt>
      <trkpt lat="47.3301" lon="-1.27506">
        <ele>110</ele>
        <time>2020-12-20T09:05:07.508000+00:00</time>
      </trkpt>
      <trkpt lat="0" lon="0">
        <time>2020-12-20T09:05:07.513000+00:00</time>
      </trkpt>
      <trkpt lat="0" lon="0">
        <time>2020-12-20T09:05:07.519000+00:00</time>
      </trkpt>
      <trkpt lat="0" lon="0">
        <time>2020-12-20T09:05:07.522000+00:00</time>
      </trkpt>
      <trkpt lat="47.33008" lon="-1.27506">
        <ele>110</ele>
        <time>2020-12-20T09:05:08.549000+00:00</time>
      </trkpt>
      <trkpt lat="0" lon="0">
        <time>2020-12-20T09:05:08.559000+00:00</time>
      </trkpt>
      <trkpt lat="0" lon="0">
        <time>2020-12-20T09:05:08.564000+00:00</time>
      </trkpt>
      <trkpt lat="0" lon="0">
        <time>2020-12-20T09:05:08.566000+00:00</time>
      </trkpt>
      <trkpt lat="47.33006" lon="-1.27506">
        <ele>110</ele>
        <time>2020-12-20T09:05:09.545000+00:00</time>
      </trkpt>
      <trkpt lat="0" lon="0">
        <time>2020-12-20T09:05:09.557000+00:00</time>
      </trkpt>
      <trkpt lat="0" lon="0">
        <time>2020-12-20T09:05:09.563000+00:00</time>
      </trkpt>
      <trkpt lat="0" lon="0">
        <time>2020-12-20T09:05:09.565000+00:00</time>
      </trkpt>
      <trkpt lat="47.33003" lon="-1.27506">
        <ele>110</ele>
        <time>2020-12-20T09:05:10.527000+00:00</time>
      </trkpt>
      <trkpt lat="0" lon="0">
        <time>2020-12-20T09:05:10.540000+00:00</time>
      </trkpt>
      <trkpt lat="0" lon="0">
        <time>2020-12-20T09:05:10.547000+00:00</time>
      </trkpt>
      <trkpt lat="0" lon="0">
        <time>2020-12-20T09:05:10.552000+00:00</time>
      </trkpt>
      <trkpt lat="47.33001" lon="-1.27506">
        <ele>110</ele>
        <time>2020-12-20T09:05:11.546000+00:00</time>
      </trkpt>
      <trkpt lat="0" lon="0">
        <time>2020-12-20T09:05:11.558000+00:00</time>
      </trkpt>
      <trkpt lat="0" lon="0">
        <time>2020-12-20T09:05:11.562000+00:00</time>
      </trkpt>
      <trkpt lat="0" lon="0">
        <time>2020-12-20T09:05:11.564000+00:00</time>
      </trkpt>
      <trkpt lat="47.32999" lon="-1.27505">
        <ele>110</ele>
        <time>2020-12-20T09:05:12.535000+00:00</time>
      </trkpt>
      <trkpt lat="0" lon="0">
        <time>2020-12-20T09:05:12.545000+00:00</time>
      </trkpt>
      <trkpt lat="0" lon="0">
        <time>2020-12-20T09:05:12.547000+00:00</time>
      </trkpt>
      <trkpt lat="0" lon="0">
        <time>2020-12-20T09:05:12.548000+00:00</time>
      </trkpt>
      <trkpt lat="47.32997" lon="-1.27504">
        <ele>110</ele>
        <time>2020-12-20T09:05:13.493000+00:00</time>
      </trkpt>
      <trkpt lat="0" lon="0">
        <time>2020-12-20T09:05:13.498000+00:00</time>
      </trkpt>
      <trkpt lat="0" lon="0">
        <time>2020-12-20T09:05:13.502000+00:00</time>
      </trkpt>
      <trkpt lat="0" lon="0">
        <time>2020-12-20T09:05:13.505000+00:00</time>
      </trkpt>
      <trkpt lat="47.32996" lon="-1.27501">
        <ele>110</ele>
        <time>2020-12-20T09:05:14.494000+00:00</time>
      </trkpt>
      <trkpt lat="0" lon="0">
        <time>2020-12-20T09:05:14.510000+00:00</time>
      </trkpt>
      <trkpt lat="0" lon="0">
        <time>2020-12-20T09:05:14.515000+00:00</time>
      </trkpt>
      <trkpt lat="0" lon="0">
        <time>2020-12-20T09:05:14.518000+00:00</time>
      </trkpt>
      <trkpt lat="47.32994" lon="-1.27499">
        <ele>111</ele>
        <time>2020-12-20T09:05:15.531000+00:00</time>
      </trkpt>
      <trkpt lat="0" lon="0">
        <time>2020-12-20T09:05:15.543000+00:00</time>
      </trkpt>
      <trkpt lat="0" lon="0">
        <time>2020-12-20T09:05:15.547000+00:00</time>
      </trkpt>
      <trkpt lat="0" lon="0">
        <time>2020-12-20T09:05:15.552000+00:00</time>
      </trkpt>
      <trkpt lat="47.32993" lon="-1.27496">
        <ele>111</ele>
        <time>2020-12-20T09:05:16.505000+00:00</time>
      </trkpt>
      <trkpt lat="0" lon="0">
        <time>2020-12-20T09:05:16.516000+00:00</time>
      </trkpt>
      <trkpt lat="0" lon="0">
        <time>2020-12-20T09:05:16.527000+00:00</time>
      </trkpt>
      <trkpt lat="0" lon="0">
        <time>2020-12-20T09:05:16.529000+00:00</time>
      </trkpt>
      <trkpt lat="47.32992" lon="-1.27493">
        <ele>111</ele>
        <time>2020-12-20T09:05:17.542000+00:00</time>
      </trkpt>
      <trkpt lat="0" lon="0">
        <time>2020-12-20T09:05:17.555000+00:00</time>
      </trkpt>
      <trkpt lat="0" lon="0">
        <time>2020-12-20T09:05:17.564000+00:00</time>
      </trkpt>
      <trkpt lat="0" lon="0">
        <time>2020-12-20T09:05:17.567000+00:00</time>
      </trkpt>
      <trkpt lat="47.32991" lon="-1.2749">
        <ele>111</ele>
        <time>2020-12-20T09:05:18.498000+00:00</time>
      </trkpt>
      <trkpt lat="0" lon="0">
        <time>2020-12-20T09:05:18.505000+00:00</time>
      </trkpt>
      <trkpt lat="0" lon="0">
        <time>2020-12-20T09:05:18.507000+00:00</time>
      </trkpt>
      <trkpt lat="0" lon="0">
        <time>2020-12-20T09:05:18.508000+00:00</time>
      </trkpt>
      <trkpt lat="47.3299" lon="-1.27486">
        <ele>111</ele>
        <time>2020-12-20T09:05:19.535000+00:00</time>
      </trkpt>
      <trkpt lat="0" lon="0">
        <time>2020-12-20T09:05:19.548000+00:00</time>
      </trkpt>
      <trkpt lat="0" lon="0">
        <time>2020-12-20T09:05:19.552000+00:00</time>
      </trkpt>
      <trkpt lat="0" lon="0">
        <time>2020-12-20T09:05:19.562000+00:00</time>
      </trkpt>
      <trkpt lat="47.32989" lon="-1.27483">
        <ele>112</ele>
        <time>2020-12-20T09:05:20.522000+00:00</time>
      </trkpt>
      <trkpt lat="0" lon="0">
        <time>2020-12-20T09:05:20.538000+00:00</time>
      </trkpt>
      <trkpt lat="0" lon="0">
        <time>2020-12-20T09:05:20.545000+00:00</time>
      </trkpt>
      <trkpt lat="0" lon="0">
        <time>2020-12-20T09:05:20.548000+00:00</time>
      </trkpt>
      <trkpt lat="47.32988" lon="-1.27479">
        <ele>112</ele>
        <time>2020-12-20T09:05:21.536000+00:00</time>
      </trkpt>
      <trkpt lat="0" lon="0">
        <time>2020-12-20T09:05:21.543000+00:00</time>
      </trkpt>
      <trkpt lat="0" lon="0">
        <time>2020-12-20T09:05:21.549000+00:00</time>
      </trkpt>
      <trkpt lat="0" lon="0">
        <time>2020-12-20T09:05:21.551000+00:00</time>
      </trkpt>
      <trkpt lat="47.32987" lon="-1.27475">
        <ele>112</ele>
        <time>2020-12-20T09:05:22.511000+00:00</time>
      </trkpt>
      <trkpt lat="0" lon="0">
        <time>2020-12-20T09:05:22.526000+00:00</time>
      </trkpt>
      <trkpt lat="0" lon="0">
        <time>2020-12-20T09:05:22.531000+00:00</time>
      </trkpt>
      <trkpt lat="0" lon="0">
        <time>2020-12-20T09:05:22.535000+00:00</time>
      </trkpt>
      <trkpt lat="47.32986" lon="-1.27471">
        <ele>113</ele>
        <time>2020-12-20T09:05:23.489000+00:00</time>
      </trkpt>
      <trkpt lat="0" lon="0">
        <time>2020-12-20T09:05:23.509000+00:00</time>
      </trkpt>
      <trkpt lat="0" lon="0">
        <time>2020-12-20T09:05:23.513000+00:00</time>
      </trkpt>
      <trkpt lat="0" lon="0">
        <time>2020-12-20T09:05:23.520000+00:00</time>
      </trkpt>
      <trkpt lat="47.32984" lon="-1.27467">
        <ele>113</ele>
        <time>2020-12-20T09:05:24.537000+00:00</time>
      </trkpt>
      <trkpt lat="0" lon="0">
        <time>2020-12-20T09:05:24.544000+00:00</time>
      </trkpt>
      <trkpt lat="0" lon="0">
        <time>2020-12-20T09:05:24.551000+00:00</time>
      </trkpt>
      <trkpt lat="0" lon="0">
        <time>2020-12-20T09:05:24.553000+00:00</time>
      </trkpt>
      <trkpt lat="47.32983" lon="-1.27463">
        <ele>114</ele>
        <time>2020-12-20T09:05:25.554000+00:00</time>
      </trkpt>
      <trkpt lat="0" lon="0">
        <time>2020-12-20T09:05:25.572000+00:00</time>
      </trkpt>
      <trkpt lat="0" lon="0">
        <time>2020-12-20T09:05:25.576000+00:00</time>
      </trkpt>
      <trkpt lat="0" lon="0">
        <time>2020-12-20T09:05:25.578000+00:00</time>
      </trkpt>
      <trkpt lat="47.32982" lon="-1.27459">
        <ele>114</ele>
        <time>2020-12-20T09:05:26.537000+00:00</time>
      </trkpt>
      <trkpt lat="0" lon="0">
        <time>2020-12-20T09:05:26.543000+00:00</time>
      </trkpt>
      <trkpt lat="0" lon="0">
        <time>2020-12-20T09:05:26.549000+00:00</time>
      </trkpt>
      <trkpt lat="0" lon="0">
        <time>2020-12-20T09:05:26.553000+00:00</time>
      </trkpt>
      <trkpt lat="47.3298" lon="-1.27456">
        <ele>115</ele>
        <time>2020-12-20T09:05:27.526000+00:00</time>
      </trkpt>
      <trkpt lat="0" lon="0">
        <time>2020-12-20T09:05:27.537000+00:00</time>
      </trkpt>
      <trkpt lat="0" lon="0">
        <time>2020-12-20T09:05:27.546000+00:00</time>
      </trkpt>
      <trkpt lat="0" lon="0">
        <time>2020-12-20T09:05:27.550000+00:00</time>
      </trkpt>
      <trkpt lat="47.32979" lon="-1.27453">
        <ele>115</ele>
        <time>2020-12-20T09:05:28.504000+00:00</time>
      </trkpt>
      <trkpt lat="0" lon="0">
        <time>2020-12-20T09:05:28.507000+00:00</time>
      </trkpt>
      <trkpt lat="0" lon="0">
        <time>2020-12-20T09:05:28.510000+00:00</time>
      </trkpt>
      <trkpt lat="0" lon="0">
        <time>2020-12-20T09:05:28.511000+00:00</time>
      </trkpt>
      <trkpt lat="47.32977" lon="-1.2745">
        <ele>115</ele>
        <time>2020-12-20T09:05:29.532000+00:00</time>
      </trkpt>
      <trkpt lat="0" lon="0">
        <time>2020-12-20T09:05:29.553000+00:00</time>
      </trkpt>
      <trkpt lat="0" lon="0">
        <time>2020-12-20T09:05:29.560000+00:00</time>
      </trkpt>
      <trkpt lat="0" lon="0">
        <time>2020-12-20T09:05:29.564000+00:00</time>
      </trkpt>
      <trkpt lat="47.32975" lon="-1.27447">
        <ele>115</ele>
        <time>2020-12-20T09:05:30.539000+00:00</time>
      </trkpt>
      <trkpt lat="0" lon="0">
        <time>2020-12-20T09:05:30.547000+00:00</time>
      </trkpt>
      <trkpt lat="0" lon="0">
        <time>2020-12-20T09:05:30.551000+00:00</time>
      </trkpt>
      <trkpt lat="0" lon="0">
        <time>2020-12-20T09:05:30.555000+00:00</time>
      </trkpt>
      <trkpt lat="47.32974" lon="-1.27445">
        <ele>116</ele>
        <time>2020-12-20T09:05:31.528000+00:00</time>
      </trkpt>
      <trkpt lat="0" lon="0">
        <time>2020-12-20T09:05:31.540000+00:00</time>
      </trkpt>
      <trkpt lat="0" lon="0">
        <time>2020-12-20T09:05:31.546000+00:00</time>
      </trkpt>
      <trkpt lat="0" lon="0">
        <time>2020-12-20T09:05:31.550000+00:00</time>
      </trkpt>
      <trkpt lat="47.32972" lon="-1.27442">
        <ele>116</ele>
        <time>2020-12-20T09:05:32.538000+00:00</time>
      </trkpt>
      <trkpt lat="0" lon="0">
        <time>2020-12-20T09:05:32.551000+00:00</time>
      </trkpt>
      <trkpt lat="0" lon="0">
        <time>2020-12-20T09:05:32.557000+00:00</time>
      </trkpt>
      <trkpt lat="0" lon="0">
        <time>2020-12-20T09:05:32.563000+00:00</time>
      </trkpt>
      <trkpt lat="47.32971" lon="-1.2744">
        <ele>116</ele>
        <time>2020-12-20T09:05:33.548000+00:00</time>
      </trkpt>
      <trkpt lat="0" lon="0">
        <time>2020-12-20T09:05:33.563000+00:00</time>
      </trkpt>
      <trkpt lat="0" lon="0">
        <time>2020-12-20T09:05:33.567000+00:00</time>
      </trkpt>
      <trkpt lat="0" lon="0">
        <time>2020-12-20T09:05:33.569000+00:00</time>
      </trkpt>
      <trkpt lat="47.32969" lon="-1.27437">
        <ele>116</ele>
        <time>2020-12-20T09:05:34.526000+00:00</time>
      </trkpt>
      <trkpt lat="0" lon="0">
        <time>2020-12-20T09:05:34.528000+00:00</time>
      </trkpt>
      <trkpt lat="0" lon="0">
        <time>2020-12-20T09:05:34.530000+00:00</time>
      </trkpt>
      <trkpt lat="0" lon="0">
        <time>2020-12-20T09:05:34.532000+00:00</time>
      </trkpt>
      <trkpt lat="47.32967" lon="-1.27435">
        <ele>116</ele>
        <time>2020-12-20T09:05:35.541000+00:00</time>
      </trkpt>
      <trkpt lat="0" lon="0">
        <time>2020-12-20T09:05:35.556000+00:00</time>
      </trkpt>
      <trkpt lat="0" lon="0">
        <time>2020-12-20T09:05:35.561000+00:00</time>
      </trkpt>
      <trkpt lat="0" lon="0">
        <time>2020-12-20T09:05:35.570000+00:00</time>
      </trkpt>
      <trkpt lat="47.32965" lon="-1.27432">
        <ele>116</ele>
        <time>2020-12-20T09:05:36.531000+00:00</time>
      </trkpt>
      <trkpt lat="0" lon="0">
        <time>2020-12-20T09:05:36.542000+00:00</time>
      </trkpt>
      <trkpt lat="0" lon="0">
        <time>2020-12-20T09:05:36.545000+00:00</time>
      </trkpt>
      <trkpt lat="0" lon="0">
        <time>2020-12-20T09:05:36.547000+00:00</time>
      </trkpt>
      <trkpt lat="47.32964" lon="-1.27429">
        <ele>116</ele>
        <time>2020-12-20T09:05:37.557000+00:00</time>
      </trkpt>
      <trkpt lat="0" lon="0">
        <time>2020-12-20T09:05:37.573000+00:00</time>
      </trkpt>
      <trkpt lat="0" lon="0">
        <time>2020-12-20T09:05:37.578000+00:00</time>
      </trkpt>
      <trkpt lat="0" lon="0">
        <time>2020-12-20T09:05:37.581000+00:00</time>
      </trkpt>
      <trkpt lat="47.32962" lon="-1.27427">
        <ele>116</ele>
        <time>2020-12-20T09:05:38.544000+00:00</time>
      </trkpt>
      <trkpt lat="0" lon="0">
        <time>2020-12-20T09:05:38.557000+00:00</time>
      </trkpt>
      <trkpt lat="0" lon="0">
        <time>2020-12-20T09:05:38.562000+00:00</time>
      </trkpt>
      <trkpt lat="0" lon="0">
        <time>2020-12-20T09:05:38.564000+00:00</time>
      </trkpt>
      <trkpt lat="47.3296" lon="-1.27424">
        <ele>116</ele>
        <time>2020-12-20T09:05:39.541000+00:00</time>
      </trkpt>
      <trkpt lat="0" lon="0">
        <time>2020-12-20T09:05:39.548000+00:00</time>
      </trkpt>
      <trkpt lat="0" lon="0">
        <time>2020-12-20T09:05:39.556000+00:00</time>
      </trkpt>
      <trkpt lat="0" lon="0">
        <time>2020-12-20T09:05:39.560000+00:00</time>
      </trkpt>
      <trkpt lat="47.32959" lon="-1.27421">
        <ele>117</ele>
        <time>2020-12-20T09:05:40.555000+00:00</time>
      </trkpt>
      <trkpt lat="0" lon="0">
        <time>2020-12-20T09:05:40.557000+00:00</time>
      </trkpt>
      <trkpt lat="0" lon="0">
        <time>2020-12-20T09:05:40.559000+00:00</time>
      </trkpt>
      <trkpt lat="0" lon="0">
        <time>2020-12-20T09:05:40.560000+00:00</time>
      </trkpt>
      <trkpt lat="47.32957" lon="-1.27419">
        <ele>118</ele>
        <time>2020-12-20T09:05:41.526000+00:00</time>
      </trkpt>
      <trkpt lat="0" lon="0">
        <time>2020-12-20T09:05:41.538000+00:00</time>
      </trkpt>
      <trkpt lat="0" lon="0">
        <time>2020-12-20T09:05:41.541000+00:00</time>
      </trkpt>
      <trkpt lat="0" lon="0">
        <time>2020-12-20T09:05:41.547000+00:00</time>
      </trkpt>
      <trkpt lat="47.32955" lon="-1.27416">
        <ele>118</ele>
        <time>2020-12-20T09:05:42.499000+00:00</time>
      </trkpt>
      <trkpt lat="0" lon="0">
        <time>2020-12-20T09:05:42.517000+00:00</time>
      </trkpt>
      <trkpt lat="0" lon="0">
        <time>2020-12-20T09:05:42.520000+00:00</time>
      </trkpt>
      <trkpt lat="0" lon="0">
        <time>2020-12-20T09:05:42.523000+00:00</time>
      </trkpt>
      <trkpt lat="47.32954" lon="-1.27413">
        <ele>118</ele>
        <time>2020-12-20T09:05:43.517000+00:00</time>
      </trkpt>
      <trkpt lat="0" lon="0">
        <time>2020-12-20T09:05:43.538000+00:00</time>
      </trkpt>
      <trkpt lat="0" lon="0">
        <time>2020-12-20T09:05:43.544000+00:00</time>
      </trkpt>
      <trkpt lat="0" lon="0">
        <time>2020-12-20T09:05:43.547000+00:00</time>
      </trkpt>
      <trkpt lat="47.32953" lon="-1.27411">
        <ele>118</ele>
        <time>2020-12-20T09:05:44.525000+00:00</time>
      </trkpt>
      <trkpt lat="0" lon="0">
        <time>2020-12-20T09:05:44.534000+00:00</time>
      </trkpt>
      <trkpt lat="0" lon="0">
        <time>2020-12-20T09:05:44.539000+00:00</time>
      </trkpt>
      <trkpt lat="0" lon="0">
        <time>2020-12-20T09:05:44.542000+00:00</time>
      </trkpt>
      <trkpt lat="47.32951" lon="-1.27409">
        <ele>119</ele>
        <time>2020-12-20T09:05:45.552000+00:00</time>
      </trkpt>
      <trkpt lat="0" lon="0">
        <time>2020-12-20T09:05:45.563000+00:00</time>
      </trkpt>
      <trkpt lat="0" lon="0">
        <time>2020-12-20T09:05:45.569000+00:00</time>
      </trkpt>
      <trkpt lat="0" lon="0">
        <time>2020-12-20T09:05:45.575000+00:00</time>
      </trkpt>
      <trkpt lat="47.3295" lon="-1.27406">
        <ele>119</ele>
        <time>2020-12-20T09:05:46.540000+00:00</time>
      </trkpt>
      <trkpt lat="0" lon="0">
        <time>2020-12-20T09:05:46.547000+00:00</time>
      </trkpt>
      <trkpt lat="0" lon="0">
        <time>2020-12-20T09:05:46.548000+00:00</time>
      </trkpt>
      <trkpt lat="0" lon="0">
        <time>2020-12-20T09:05:46.550000+00:00</time>
      </trkpt>
      <trkpt lat="47.32948" lon="-1.27404">
        <ele>119</ele>
        <time>2020-12-20T09:05:47.523000+00:00</time>
      </trkpt>
      <trkpt lat="0" lon="0">
        <time>2020-12-20T09:05:47.527000+00:00</time>
      </trkpt>
      <trkpt lat="0" lon="0">
        <time>2020-12-20T09:05:47.533000+00:00</time>
      </trkpt>
      <trkpt lat="0" lon="0">
        <time>2020-12-20T09:05:47.534000+00:00</time>
      </trkpt>
      <trkpt lat="47.32947" lon="-1.27401">
        <ele>119</ele>
        <time>2020-12-20T09:05:48.508000+00:00</time>
      </trkpt>
      <trkpt lat="0" lon="0">
        <time>2020-12-20T09:05:48.527000+00:00</time>
      </trkpt>
      <trkpt lat="0" lon="0">
        <time>2020-12-20T09:05:48.533000+00:00</time>
      </trkpt>
      <trkpt lat="0" lon="0">
        <time>2020-12-20T09:05:48.535000+00:00</time>
      </trkpt>
      <trkpt lat="47.32945" lon="-1.27399">
        <ele>119</ele>
        <time>2020-12-20T09:05:49.530000+00:00</time>
      </trkpt>
      <trkpt lat="0" lon="0">
        <time>2020-12-20T09:05:49.535000+00:00</time>
      </trkpt>
      <trkpt lat="0" lon="0">
        <time>2020-12-20T09:05:49.539000+00:00</time>
      </trkpt>
      <trkpt lat="0" lon="0">
        <time>2020-12-20T09:05:49.550000+00:00</time>
      </trkpt>
      <trkpt lat="47.32944" lon="-1.27396">
        <ele>119</ele>
        <time>2020-12-20T09:05:50.549000+00:00</time>
      </trkpt>
      <trkpt lat="0" lon="0">
        <time>2020-12-20T09:05:50.556000+00:00</time>
      </trkpt>
      <trkpt lat="0" lon="0">
        <time>2020-12-20T09:05:50.561000+00:00</time>
      </trkpt>
      <trkpt lat="0" lon="0">
        <time>2020-12-20T09:05:50.565000+00:00</time>
      </trkpt>
      <trkpt lat="47.32942" lon="-1.27394">
        <ele>119</ele>
        <time>2020-12-20T09:05:51.546000+00:00</time>
      </trkpt>
      <trkpt lat="0" lon="0">
        <time>2020-12-20T09:05:51.556000+00:00</time>
      </trkpt>
      <trkpt lat="0" lon="0">
        <time>2020-12-20T09:05:51.560000+00:00</time>
      </trkpt>
      <trkpt lat="0" lon="0">
        <time>2020-12-20T09:05:51.563000+00:00</time>
      </trkpt>
      <trkpt lat="47.3294" lon="-1.27391">
        <ele>120</ele>
        <time>2020-12-20T09:05:52.500000+00:00</time>
      </trkpt>
      <trkpt lat="0" lon="0">
        <time>2020-12-20T09:05:52.506000+00:00</time>
      </trkpt>
      <trkpt lat="0" lon="0">
        <time>2020-12-20T09:05:52.513000+00:00</time>
      </trkpt>
      <trkpt lat="0" lon="0">
        <time>2020-12-20T09:05:52.515000+00:00</time>
      </trkpt>
      <trkpt lat="47.32939" lon="-1.27388">
        <ele>120</ele>
        <time>2020-12-20T09:05:53.552000+00:00</time>
      </trkpt>
      <trkpt lat="0" lon="0">
        <time>2020-12-20T09:05:53.567000+00:00</time>
      </trkpt>
      <trkpt lat="0" lon="0">
        <time>2020-12-20T09:05:53.577000+00:00</time>
      </trkpt>
      <trkpt lat="0" lon="0">
        <time>2020-12-20T09:05:53.579000+00:00</time>
      </trkpt>
      <trkpt lat="47.32937" lon="-1.27386">
        <ele>121</ele>
        <time>2020-12-20T09:05:54.509000+00:00</time>
      </trkpt>
      <trkpt lat="0" lon="0">
        <time>2020-12-20T09:05:54.522000+00:00</time>
      </trkpt>
      <trkpt lat="0" lon="0">
        <time>2020-12-20T09:05:54.530000+00:00</time>
      </trkpt>
      <trkpt lat="0" lon="0">
        <time>2020-12-20T09:05:54.536000+00:00</time>
      </trkpt>
      <trkpt lat="47.32935" lon="-1.27383">
        <ele>121</ele>
        <time>2020-12-20T09:05:55.511000+00:00</time>
      </trkpt>
      <trkpt lat="0" lon="0">
        <time>2020-12-20T09:05:55.531000+00:00</time>
      </trkpt>
      <trkpt lat="0" lon="0">
        <time>2020-12-20T09:05:55.535000+00:00</time>
      </trkpt>
      <trkpt lat="0" lon="0">
        <time>2020-12-20T09:05:55.537000+00:00</time>
      </trkpt>
      <trkpt lat="47.32933" lon="-1.2738">
        <ele>121</ele>
        <time>2020-12-20T09:05:56.513000+00:00</time>
      </trkpt>
      <trkpt lat="0" lon="0">
        <time>2020-12-20T09:05:56.521000+00:00</time>
      </trkpt>
      <trkpt lat="0" lon="0">
        <time>2020-12-20T09:05:56.528000+00:00</time>
      </trkpt>
      <trkpt lat="0" lon="0">
        <time>2020-12-20T09:05:56.531000+00:00</time>
      </trkpt>
      <trkpt lat="47.32932" lon="-1.27377">
        <ele>121</ele>
        <time>2020-12-20T09:05:57.530000+00:00</time>
      </trkpt>
      <trkpt lat="0" lon="0">
        <time>2020-12-20T09:05:57.546000+00:00</time>
      </trkpt>
      <trkpt lat="0" lon="0">
        <time>2020-12-20T09:05:57.552000+00:00</time>
      </trkpt>
      <trkpt lat="0" lon="0">
        <time>2020-12-20T09:05:57.554000+00:00</time>
      </trkpt>
      <trkpt lat="47.3293" lon="-1.27375">
        <ele>121</ele>
        <time>2020-12-20T09:05:58.511000+00:00</time>
      </trkpt>
      <trkpt lat="0" lon="0">
        <time>2020-12-20T09:05:58.517000+00:00</time>
      </trkpt>
      <trkpt lat="0" lon="0">
        <time>2020-12-20T09:05:58.519000+00:00</time>
      </trkpt>
      <trkpt lat="0" lon="0">
        <time>2020-12-20T09:05:58.520000+00:00</time>
      </trkpt>
      <trkpt lat="47.32928" lon="-1.27372">
        <ele>121</ele>
        <time>2020-12-20T09:05:59.527000+00:00</time>
      </trkpt>
      <trkpt lat="0" lon="0">
        <time>2020-12-20T09:05:59.539000+00:00</time>
      </trkpt>
      <trkpt lat="0" lon="0">
        <time>2020-12-20T09:05:59.543000+00:00</time>
      </trkpt>
      <trkpt lat="0" lon="0">
        <time>2020-12-20T09:05:59.546000+00:00</time>
      </trkpt>
      <trkpt lat="47.32926" lon="-1.2737">
        <ele>121</ele>
        <time>2020-12-20T09:06:00.533000+00:00</time>
      </trkpt>
      <trkpt lat="0" lon="0">
        <time>2020-12-20T09:06:00.542000+00:00</time>
      </trkpt>
      <trkpt lat="0" lon="0">
        <time>2020-12-20T09:06:00.547000+00:00</time>
      </trkpt>
      <trkpt lat="0" lon="0">
        <time>2020-12-20T09:06:00.549000+00:00</time>
      </trkpt>
      <trkpt lat="47.32924" lon="-1.27367">
        <ele>121</ele>
        <time>2020-12-20T09:06:01.537000+00:00</time>
      </trkpt>
      <trkpt lat="0" lon="0">
        <time>2020-12-20T09:06:01.541000+00:00</time>
      </trkpt>
      <trkpt lat="0" lon="0">
        <time>2020-12-20T09:06:01.552000+00:00</time>
      </trkpt>
      <trkpt lat="0" lon="0">
        <time>2020-12-20T09:06:01.555000+00:00</time>
      </trkpt>
      <trkpt lat="47.32923" lon="-1.27365">
        <ele>122</ele>
        <time>2020-12-20T09:06:02.550000+00:00</time>
      </trkpt>
      <trkpt lat="0" lon="0">
        <time>2020-12-20T09:06:02.567000+00:00</time>
      </trkpt>
      <trkpt lat="0" lon="0">
        <time>2020-12-20T09:06:02.576000+00:00</time>
      </trkpt>
      <trkpt lat="0" lon="0">
        <time>2020-12-20T09:06:02.579000+00:00</time>
      </trkpt>
      <trkpt lat="47.32921" lon="-1.27362">
        <ele>122</ele>
        <time>2020-12-20T09:06:03.512000+00:00</time>
      </trkpt>
      <trkpt lat="0" lon="0">
        <time>2020-12-20T09:06:03.517000+00:00</time>
      </trkpt>
      <trkpt lat="0" lon="0">
        <time>2020-12-20T09:06:03.521000+00:00</time>
      </trkpt>
      <trkpt lat="0" lon="0">
        <time>2020-12-20T09:06:03.523000+00:00</time>
      </trkpt>
      <trkpt lat="47.32919" lon="-1.2736">
        <ele>123</ele>
        <time>2020-12-20T09:06:04.533000+00:00</time>
      </trkpt>
      <trkpt lat="0" lon="0">
        <time>2020-12-20T09:06:04.535000+00:00</time>
      </trkpt>
      <trkpt lat="0" lon="0">
        <time>2020-12-20T09:06:04.538000+00:00</time>
      </trkpt>
      <trkpt lat="0" lon="0">
        <time>2020-12-20T09:06:04.539000+00:00</time>
      </trkpt>
      <trkpt lat="47.32918" lon="-1.27358">
        <ele>123</ele>
        <time>2020-12-20T09:06:05.529000+00:00</time>
      </trkpt>
      <trkpt lat="0" lon="0">
        <time>2020-12-20T09:06:05.539000+00:00</time>
      </trkpt>
      <trkpt lat="0" lon="0">
        <time>2020-12-20T09:06:05.548000+00:00</time>
      </trkpt>
      <trkpt lat="0" lon="0">
        <time>2020-12-20T09:06:05.551000+00:00</time>
      </trkpt>
      <trkpt lat="47.32916" lon="-1.27356">
        <ele>122</ele>
        <time>2020-12-20T09:06:06.563000+00:00</time>
      </trkpt>
      <trkpt lat="0" lon="0">
        <time>2020-12-20T09:06:06.574000+00:00</time>
      </trkpt>
      <trkpt lat="0" lon="0">
        <time>2020-12-20T09:06:06.583000+00:00</time>
      </trkpt>
      <trkpt lat="0" lon="0">
        <time>2020-12-20T09:06:06.589000+00:00</time>
      </trkpt>
      <trkpt lat="47.32914" lon="-1.27354">
        <ele>123</ele>
        <time>2020-12-20T09:06:07.528000+00:00</time>
      </trkpt>
      <trkpt lat="0" lon="0">
        <time>2020-12-20T09:06:07.537000+00:00</time>
      </trkpt>
      <trkpt lat="0" lon="0">
        <time>2020-12-20T09:06:07.541000+00:00</time>
      </trkpt>
      <trkpt lat="0" lon="0">
        <time>2020-12-20T09:06:07.543000+00:00</time>
      </trkpt>
      <trkpt lat="47.32912" lon="-1.27352">
        <ele>122</ele>
        <time>2020-12-20T09:06:08.529000+00:00</time>
      </trkpt>
      <trkpt lat="0" lon="0">
        <time>2020-12-20T09:06:08.543000+00:00</time>
      </trkpt>
      <trkpt lat="0" lon="0">
        <time>2020-12-20T09:06:08.548000+00:00</time>
      </trkpt>
      <trkpt lat="0" lon="0">
        <time>2020-12-20T09:06:08.550000+00:00</time>
      </trkpt>
      <trkpt lat="47.32911" lon="-1.2735">
        <ele>123</ele>
        <time>2020-12-20T09:06:09.495000+00:00</time>
      </trkpt>
      <trkpt lat="0" lon="0">
        <time>2020-12-20T09:06:09.504000+00:00</time>
      </trkpt>
      <trkpt lat="0" lon="0">
        <time>2020-12-20T09:06:09.511000+00:00</time>
      </trkpt>
      <trkpt lat="0" lon="0">
        <time>2020-12-20T09:06:09.513000+00:00</time>
      </trkpt>
      <trkpt lat="47.32909" lon="-1.27347">
        <ele>123</ele>
        <time>2020-12-20T09:06:10.527000+00:00</time>
      </trkpt>
      <trkpt lat="0" lon="0">
        <time>2020-12-20T09:06:10.532000+00:00</time>
      </trkpt>
      <trkpt lat="0" lon="0">
        <time>2020-12-20T09:06:10.535000+00:00</time>
      </trkpt>
      <trkpt lat="0" lon="0">
        <time>2020-12-20T09:06:10.536000+00:00</time>
      </trkpt>
      <trkpt lat="47.32907" lon="-1.27345">
        <ele>123</ele>
        <time>2020-12-20T09:06:11.555000+00:00</time>
      </trkpt>
      <trkpt lat="0" lon="0">
        <time>2020-12-20T09:06:11.567000+00:00</time>
      </trkpt>
      <trkpt lat="0" lon="0">
        <time>2020-12-20T09:06:11.578000+00:00</time>
      </trkpt>
      <trkpt lat="0" lon="0">
        <time>2020-12-20T09:06:11.585000+00:00</time>
      </trkpt>
      <trkpt lat="47.32905" lon="-1.27343">
        <ele>123</ele>
        <time>2020-12-20T09:06:12.525000+00:00</time>
      </trkpt>
      <trkpt lat="0" lon="0">
        <time>2020-12-20T09:06:12.548000+00:00</time>
      </trkpt>
      <trkpt lat="0" lon="0">
        <time>2020-12-20T09:06:12.554000+00:00</time>
      </trkpt>
      <trkpt lat="0" lon="0">
        <time>2020-12-20T09:06:12.556000+00:00</time>
      </trkpt>
      <trkpt lat="47.32904" lon="-1.2734">
        <ele>123</ele>
        <time>2020-12-20T09:06:13.549000+00:00</time>
      </trkpt>
      <trkpt lat="0" lon="0">
        <time>2020-12-20T09:06:13.568000+00:00</time>
      </trkpt>
      <trkpt lat="0" lon="0">
        <time>2020-12-20T09:06:13.577000+00:00</time>
      </trkpt>
      <trkpt lat="0" lon="0">
        <time>2020-12-20T09:06:13.579000+00:00</time>
      </trkpt>
      <trkpt lat="47.32902" lon="-1.27338">
        <ele>123</ele>
        <time>2020-12-20T09:06:14.551000+00:00</time>
      </trkpt>
      <trkpt lat="0" lon="0">
        <time>2020-12-20T09:06:14.567000+00:00</time>
      </trkpt>
      <trkpt lat="0" lon="0">
        <time>2020-12-20T09:06:14.576000+00:00</time>
      </trkpt>
      <trkpt lat="0" lon="0">
        <time>2020-12-20T09:06:14.579000+00:00</time>
      </trkpt>
      <trkpt lat="47.329" lon="-1.27335">
        <ele>123</ele>
        <time>2020-12-20T09:06:15.517000+00:00</time>
      </trkpt>
      <trkpt lat="0" lon="0">
        <time>2020-12-20T09:06:15.533000+00:00</time>
      </trkpt>
      <trkpt lat="0" lon="0">
        <time>2020-12-20T09:06:15.539000+00:00</time>
      </trkpt>
      <trkpt lat="0" lon="0">
        <time>2020-12-20T09:06:15.542000+00:00</time>
      </trkpt>
      <trkpt lat="47.32898" lon="-1.27333">
        <ele>123</ele>
        <time>2020-12-20T09:06:16.533000+00:00</time>
      </trkpt>
      <trkpt lat="0" lon="0">
        <time>2020-12-20T09:06:16.547000+00:00</time>
      </trkpt>
      <trkpt lat="0" lon="0">
        <time>2020-12-20T09:06:16.551000+00:00</time>
      </trkpt>
      <trkpt lat="0" lon="0">
        <time>2020-12-20T09:06:16.554000+00:00</time>
      </trkpt>
      <trkpt lat="47.32897" lon="-1.2733">
        <ele>122</ele>
        <time>2020-12-20T09:06:17.532000+00:00</time>
      </trkpt>
      <trkpt lat="0" lon="0">
        <time>2020-12-20T09:06:17.545000+00:00</time>
      </trkpt>
      <trkpt lat="0" lon="0">
        <time>2020-12-20T09:06:17.552000+00:00</time>
      </trkpt>
      <trkpt lat="0" lon="0">
        <time>2020-12-20T09:06:17.557000+00:00</time>
      </trkpt>
      <trkpt lat="47.32895" lon="-1.27328">
        <ele>123</ele>
        <time>2020-12-20T09:06:18.532000+00:00</time>
      </trkpt>
      <trkpt lat="0" lon="0">
        <time>2020-12-20T09:06:18.548000+00:00</time>
      </trkpt>
      <trkpt lat="0" lon="0">
        <time>2020-12-20T09:06:18.557000+00:00</time>
      </trkpt>
      <trkpt lat="0" lon="0">
        <time>2020-12-20T09:06:18.559000+00:00</time>
      </trkpt>
      <trkpt lat="47.32893" lon="-1.27325">
        <ele>123</ele>
        <time>2020-12-20T09:06:19.549000+00:00</time>
      </trkpt>
      <trkpt lat="0" lon="0">
        <time>2020-12-20T09:06:19.554000+00:00</time>
      </trkpt>
      <trkpt lat="0" lon="0">
        <time>2020-12-20T09:06:19.562000+00:00</time>
      </trkpt>
      <trkpt lat="0" lon="0">
        <time>2020-12-20T09:06:19.566000+00:00</time>
      </trkpt>
      <trkpt lat="47.32891" lon="-1.27322">
        <ele>122</ele>
        <time>2020-12-20T09:06:20.514000+00:00</time>
      </trkpt>
      <trkpt lat="0" lon="0">
        <time>2020-12-20T09:06:20.519000+00:00</time>
      </trkpt>
      <trkpt lat="0" lon="0">
        <time>2020-12-20T09:06:20.523000+00:00</time>
      </trkpt>
      <trkpt lat="0" lon="0">
        <time>2020-12-20T09:06:20.526000+00:00</time>
      </trkpt>
      <trkpt lat="47.32889" lon="-1.27319">
        <ele>123</ele>
        <time>2020-12-20T09:06:21.539000+00:00</time>
      </trkpt>
      <trkpt lat="0" lon="0">
        <time>2020-12-20T09:06:21.547000+00:00</time>
      </trkpt>
      <trkpt lat="0" lon="0">
        <time>2020-12-20T09:06:21.551000+00:00</time>
      </trkpt>
      <trkpt lat="0" lon="0">
        <time>2020-12-20T09:06:21.553000+00:00</time>
      </trkpt>
      <trkpt lat="47.32887" lon="-1.27316">
        <ele>123</ele>
        <time>2020-12-20T09:06:22.533000+00:00</time>
      </trkpt>
      <trkpt lat="0" lon="0">
        <time>2020-12-20T09:06:22.544000+00:00</time>
      </trkpt>
      <trkpt lat="0" lon="0">
        <time>2020-12-20T09:06:22.547000+00:00</time>
      </trkpt>
      <trkpt lat="0" lon="0">
        <time>2020-12-20T09:06:22.549000+00:00</time>
      </trkpt>
      <trkpt lat="47.32886" lon="-1.27313">
        <ele>123</ele>
        <time>2020-12-20T09:06:23.506000+00:00</time>
      </trkpt>
      <trkpt lat="0" lon="0">
        <time>2020-12-20T09:06:23.528000+00:00</time>
      </trkpt>
      <trkpt lat="0" lon="0">
        <time>2020-12-20T09:06:23.535000+00:00</time>
      </trkpt>
      <trkpt lat="0" lon="0">
        <time>2020-12-20T09:06:23.540000+00:00</time>
      </trkpt>
      <trkpt lat="47.32884" lon="-1.2731">
        <ele>123</ele>
        <time>2020-12-20T09:06:24.510000+00:00</time>
      </trkpt>
      <trkpt lat="0" lon="0">
        <time>2020-12-20T09:06:24.517000+00:00</time>
      </trkpt>
      <trkpt lat="0" lon="0">
        <time>2020-12-20T09:06:24.524000+00:00</time>
      </trkpt>
      <trkpt lat="0" lon="0">
        <time>2020-12-20T09:06:24.529000+00:00</time>
      </trkpt>
      <trkpt lat="47.32882" lon="-1.27307">
        <ele>122</ele>
        <time>2020-12-20T09:06:25.543000+00:00</time>
      </trkpt>
      <trkpt lat="0" lon="0">
        <time>2020-12-20T09:06:25.546000+00:00</time>
      </trkpt>
      <trkpt lat="0" lon="0">
        <time>2020-12-20T09:06:25.553000+00:00</time>
      </trkpt>
      <trkpt lat="0" lon="0">
        <time>2020-12-20T09:06:25.556000+00:00</time>
      </trkpt>
      <trkpt lat="47.3288" lon="-1.27303">
        <ele>122</ele>
        <time>2020-12-20T09:06:26.515000+00:00</time>
      </trkpt>
      <trkpt lat="0" lon="0">
        <time>2020-12-20T09:06:26.525000+00:00</time>
      </trkpt>
      <trkpt lat="0" lon="0">
        <time>2020-12-20T09:06:26.530000+00:00</time>
      </trkpt>
      <trkpt lat="0" lon="0">
        <time>2020-12-20T09:06:26.533000+00:00</time>
      </trkpt>
      <trkpt lat="47.32878" lon="-1.273">
        <ele>122</ele>
        <time>2020-12-20T09:06:27.529000+00:00</time>
      </trkpt>
      <trkpt lat="0" lon="0">
        <time>2020-12-20T09:06:27.538000+00:00</time>
      </trkpt>
      <trkpt lat="0" lon="0">
        <time>2020-12-20T09:06:27.542000+00:00</time>
      </trkpt>
      <trkpt lat="0" lon="0">
        <time>2020-12-20T09:06:27.544000+00:00</time>
      </trkpt>
      <trkpt lat="47.32877" lon="-1.27297">
        <ele>123</ele>
        <time>2020-12-20T09:06:28.509000+00:00</time>
      </trkpt>
      <trkpt lat="0" lon="0">
        <time>2020-12-20T09:06:28.513000+00:00</time>
      </trkpt>
      <trkpt lat="0" lon="0">
        <time>2020-12-20T09:06:28.521000+00:00</time>
      </trkpt>
      <trkpt lat="0" lon="0">
        <time>2020-12-20T09:06:28.523000+00:00</time>
      </trkpt>
      <trkpt lat="47.32875" lon="-1.27294">
        <ele>123</ele>
        <time>2020-12-20T09:06:29.538000+00:00</time>
      </trkpt>
      <trkpt lat="0" lon="0">
        <time>2020-12-20T09:06:29.549000+00:00</time>
      </trkpt>
      <trkpt lat="0" lon="0">
        <time>2020-12-20T09:06:29.554000+00:00</time>
      </trkpt>
      <trkpt lat="0" lon="0">
        <time>2020-12-20T09:06:29.557000+00:00</time>
      </trkpt>
      <trkpt lat="47.32873" lon="-1.27292">
        <ele>123</ele>
        <time>2020-12-20T09:06:30.526000+00:00</time>
      </trkpt>
      <trkpt lat="0" lon="0">
        <time>2020-12-20T09:06:30.535000+00:00</time>
      </trkpt>
      <trkpt lat="0" lon="0">
        <time>2020-12-20T09:06:30.540000+00:00</time>
      </trkpt>
      <trkpt lat="0" lon="0">
        <time>2020-12-20T09:06:30.547000+00:00</time>
      </trkpt>
      <trkpt lat="47.32871" lon="-1.2729">
        <ele>123</ele>
        <time>2020-12-20T09:06:31.549000+00:00</time>
      </trkpt>
      <trkpt lat="0" lon="0">
        <time>2020-12-20T09:06:31.564000+00:00</time>
      </trkpt>
      <trkpt lat="0" lon="0">
        <time>2020-12-20T09:06:31.571000+00:00</time>
      </trkpt>
      <trkpt lat="0" lon="0">
        <time>2020-12-20T09:06:31.576000+00:00</time>
      </trkpt>
      <trkpt lat="47.32869" lon="-1.2729">
        <ele>122</ele>
        <time>2020-12-20T09:06:32.524000+00:00</time>
      </trkpt>
      <trkpt lat="0" lon="0">
        <time>2020-12-20T09:06:32.530000+00:00</time>
      </trkpt>
      <trkpt lat="0" lon="0">
        <time>2020-12-20T09:06:32.535000+00:00</time>
      </trkpt>
      <trkpt lat="0" lon="0">
        <time>2020-12-20T09:06:32.538000+00:00</time>
      </trkpt>
      <trkpt lat="47.32866" lon="-1.2729">
        <ele>123</ele>
        <time>2020-12-20T09:06:33.531000+00:00</time>
      </trkpt>
      <trkpt lat="0" lon="0">
        <time>2020-12-20T09:06:33.537000+00:00</time>
      </trkpt>
      <trkpt lat="0" lon="0">
        <time>2020-12-20T09:06:33.550000+00:00</time>
      </trkpt>
      <trkpt lat="0" lon="0">
        <time>2020-12-20T09:06:33.551000+00:00</time>
      </trkpt>
      <trkpt lat="47.32865" lon="-1.27292">
        <ele>123</ele>
        <time>2020-12-20T09:06:34.520000+00:00</time>
      </trkpt>
      <trkpt lat="0" lon="0">
        <time>2020-12-20T09:06:34.525000+00:00</time>
      </trkpt>
      <trkpt lat="0" lon="0">
        <time>2020-12-20T09:06:34.531000+00:00</time>
      </trkpt>
      <trkpt lat="0" lon="0">
        <time>2020-12-20T09:06:34.534000+00:00</time>
      </trkpt>
      <trkpt lat="47.32863" lon="-1.27294">
        <ele>122</ele>
        <time>2020-12-20T09:06:35.534000+00:00</time>
      </trkpt>
      <trkpt lat="0" lon="0">
        <time>2020-12-20T09:06:35.554000+00:00</time>
      </trkpt>
      <trkpt lat="0" lon="0">
        <time>2020-12-20T09:06:35.560000+00:00</time>
      </trkpt>
      <trkpt lat="0" lon="0">
        <time>2020-12-20T09:06:35.566000+00:00</time>
      </trkpt>
      <trkpt lat="47.32861" lon="-1.27296">
        <ele>122</ele>
        <time>2020-12-20T09:06:36.505000+00:00</time>
      </trkpt>
      <trkpt lat="0" lon="0">
        <time>2020-12-20T09:06:36.526000+00:00</time>
      </trkpt>
      <trkpt lat="0" lon="0">
        <time>2020-12-20T09:06:36.533000+00:00</time>
      </trkpt>
      <trkpt lat="0" lon="0">
        <time>2020-12-20T09:06:36.536000+00:00</time>
      </trkpt>
      <trkpt lat="47.3286" lon="-1.27299">
        <ele>122</ele>
        <time>2020-12-20T09:06:37.515000+00:00</time>
      </trkpt>
      <trkpt lat="0" lon="0">
        <time>2020-12-20T09:06:37.524000+00:00</time>
      </trkpt>
      <trkpt lat="0" lon="0">
        <time>2020-12-20T09:06:37.528000+00:00</time>
      </trkpt>
      <trkpt lat="0" lon="0">
        <time>2020-12-20T09:06:37.534000+00:00</time>
      </trkpt>
      <trkpt lat="47.32859" lon="-1.27302">
        <ele>122</ele>
        <time>2020-12-20T09:06:38.549000+00:00</time>
      </trkpt>
      <trkpt lat="0" lon="0">
        <time>2020-12-20T09:06:38.567000+00:00</time>
      </trkpt>
      <trkpt lat="0" lon="0">
        <time>2020-12-20T09:06:38.578000+00:00</time>
      </trkpt>
      <trkpt lat="0" lon="0">
        <time>2020-12-20T09:06:38.581000+00:00</time>
      </trkpt>
      <trkpt lat="47.32857" lon="-1.27306">
        <ele>122</ele>
        <time>2020-12-20T09:06:39.540000+00:00</time>
      </trkpt>
      <trkpt lat="0" lon="0">
        <time>2020-12-20T09:06:39.543000+00:00</time>
      </trkpt>
      <trkpt lat="0" lon="0">
        <time>2020-12-20T09:06:39.548000+00:00</time>
      </trkpt>
      <trkpt lat="0" lon="0">
        <time>2020-12-20T09:06:39.551000+00:00</time>
      </trkpt>
      <trkpt lat="47.32857" lon="-1.27309">
        <ele>123</ele>
        <time>2020-12-20T09:06:40.551000+00:00</time>
      </trkpt>
      <trkpt lat="0" lon="0">
        <time>2020-12-20T09:06:40.556000+00:00</time>
      </trkpt>
      <trkpt lat="0" lon="0">
        <time>2020-12-20T09:06:40.560000+00:00</time>
      </trkpt>
      <trkpt lat="0" lon="0">
        <time>2020-12-20T09:06:40.562000+00:00</time>
      </trkpt>
      <trkpt lat="47.32856" lon="-1.27313">
        <ele>122</ele>
        <time>2020-12-20T09:06:41.514000+00:00</time>
      </trkpt>
      <trkpt lat="0" lon="0">
        <time>2020-12-20T09:06:41.528000+00:00</time>
      </trkpt>
      <trkpt lat="0" lon="0">
        <time>2020-12-20T09:06:41.538000+00:00</time>
      </trkpt>
      <trkpt lat="0" lon="0">
        <time>2020-12-20T09:06:41.541000+00:00</time>
      </trkpt>
      <trkpt lat="47.32854" lon="-1.27317">
        <ele>122</ele>
        <time>2020-12-20T09:06:42.535000+00:00</time>
      </trkpt>
      <trkpt lat="0" lon="0">
        <time>2020-12-20T09:06:42.541000+00:00</time>
      </trkpt>
      <trkpt lat="0" lon="0">
        <time>2020-12-20T09:06:42.546000+00:00</time>
      </trkpt>
      <trkpt lat="0" lon="0">
        <time>2020-12-20T09:06:42.549000+00:00</time>
      </trkpt>
      <trkpt lat="47.32853" lon="-1.27321">
        <ele>122</ele>
        <time>2020-12-20T09:06:43.547000+00:00</time>
      </trkpt>
      <trkpt lat="0" lon="0">
        <time>2020-12-20T09:06:43.556000+00:00</time>
      </trkpt>
      <trkpt lat="0" lon="0">
        <time>2020-12-20T09:06:43.563000+00:00</time>
      </trkpt>
      <trkpt lat="0" lon="0">
        <time>2020-12-20T09:06:43.566000+00:00</time>
      </trkpt>
      <trkpt lat="47.32852" lon="-1.27325">
        <ele>122</ele>
        <time>2020-12-20T09:06:44.541000+00:00</time>
      </trkpt>
      <trkpt lat="0" lon="0">
        <time>2020-12-20T09:06:44.553000+00:00</time>
      </trkpt>
      <trkpt lat="0" lon="0">
        <time>2020-12-20T09:06:44.558000+00:00</time>
      </trkpt>
      <trkpt lat="0" lon="0">
        <time>2020-12-20T09:06:44.561000+00:00</time>
      </trkpt>
      <trkpt lat="47.3285" lon="-1.27328">
        <ele>122</ele>
        <time>2020-12-20T09:06:45.532000+00:00</time>
      </trkpt>
      <trkpt lat="0" lon="0">
        <time>2020-12-20T09:06:45.547000+00:00</time>
      </trkpt>
      <trkpt lat="0" lon="0">
        <time>2020-12-20T09:06:45.551000+00:00</time>
      </trkpt>
      <trkpt lat="0" lon="0">
        <time>2020-12-20T09:06:45.554000+00:00</time>
      </trkpt>
      <trkpt lat="47.32849" lon="-1.2733">
        <ele>122</ele>
        <time>2020-12-20T09:06:46.533000+00:00</time>
      </trkpt>
      <trkpt lat="0" lon="0">
        <time>2020-12-20T09:06:46.545000+00:00</time>
      </trkpt>
      <trkpt lat="0" lon="0">
        <time>2020-12-20T09:06:46.553000+00:00</time>
      </trkpt>
      <trkpt lat="0" lon="0">
        <time>2020-12-20T09:06:46.555000+00:00</time>
      </trkpt>
      <trkpt lat="47.32847" lon="-1.27332">
        <ele>122</ele>
        <time>2020-12-20T09:06:47.522000+00:00</time>
      </trkpt>
      <trkpt lat="0" lon="0">
        <time>2020-12-20T09:06:47.527000+00:00</time>
      </trkpt>
      <trkpt lat="0" lon="0">
        <time>2020-12-20T09:06:47.532000+00:00</time>
      </trkpt>
      <trkpt lat="0" lon="0">
        <time>2020-12-20T09:06:47.537000+00:00</time>
      </trkpt>
      <trkpt lat="47.32845" lon="-1.27332">
        <ele>122</ele>
        <time>2020-12-20T09:06:48.524000+00:00</time>
      </trkpt>
      <trkpt lat="0" lon="0">
        <time>2020-12-20T09:06:48.531000+00:00</time>
      </trkpt>
      <trkpt lat="0" lon="0">
        <time>2020-12-20T09:06:48.535000+00:00</time>
      </trkpt>
      <trkpt lat="0" lon="0">
        <time>2020-12-20T09:06:48.538000+00:00</time>
      </trkpt>
      <trkpt lat="47.32843" lon="-1.27332">
        <ele>122</ele>
        <time>2020-12-20T09:06:49.519000+00:00</time>
      </trkpt>
      <trkpt lat="0" lon="0">
        <time>2020-12-20T09:06:49.526000+00:00</time>
      </trkpt>
      <trkpt lat="0" lon="0">
        <time>2020-12-20T09:06:49.533000+00:00</time>
      </trkpt>
      <trkpt lat="0" lon="0">
        <time>2020-12-20T09:06:49.537000+00:00</time>
      </trkpt>
      <trkpt lat="47.32841" lon="-1.27332">
        <ele>122</ele>
        <time>2020-12-20T09:06:50.556000+00:00</time>
      </trkpt>
      <trkpt lat="0" lon="0">
        <time>2020-12-20T09:06:50.573000+00:00</time>
      </trkpt>
      <trkpt lat="0" lon="0">
        <time>2020-12-20T09:06:50.578000+00:00</time>
      </trkpt>
      <trkpt lat="0" lon="0">
        <time>2020-12-20T09:06:50.580000+00:00</time>
      </trkpt>
      <trkpt lat="47.32839" lon="-1.27331">
        <ele>123</ele>
        <time>2020-12-20T09:06:51.551000+00:00</time>
      </trkpt>
      <trkpt lat="0" lon="0">
        <time>2020-12-20T09:06:51.563000+00:00</time>
      </trkpt>
      <trkpt lat="0" lon="0">
        <time>2020-12-20T09:06:51.568000+00:00</time>
      </trkpt>
      <trkpt lat="0" lon="0">
        <time>2020-12-20T09:06:51.570000+00:00</time>
      </trkpt>
      <trkpt lat="47.32837" lon="-1.2733">
        <ele>123</ele>
        <time>2020-12-20T09:06:52.547000+00:00</time>
      </trkpt>
      <trkpt lat="0" lon="0">
        <time>2020-12-20T09:06:52.555000+00:00</time>
      </trkpt>
      <trkpt lat="0" lon="0">
        <time>2020-12-20T09:06:52.564000+00:00</time>
      </trkpt>
      <trkpt lat="0" lon="0">
        <time>2020-12-20T09:06:52.567000+00:00</time>
      </trkpt>
      <trkpt lat="47.32835" lon="-1.27328">
        <ele>123</ele>
        <time>2020-12-20T09:06:53.535000+00:00</time>
      </trkpt>
      <trkpt lat="0" lon="0">
        <time>2020-12-20T09:06:53.543000+00:00</time>
      </trkpt>
      <trkpt lat="0" lon="0">
        <time>2020-12-20T09:06:53.548000+00:00</time>
      </trkpt>
      <trkpt lat="0" lon="0">
        <time>2020-12-20T09:06:53.551000+00:00</time>
      </trkpt>
      <trkpt lat="47.32832" lon="-1.27326">
        <ele>123</ele>
        <time>2020-12-20T09:06:54.528000+00:00</time>
      </trkpt>
      <trkpt lat="0" lon="0">
        <time>2020-12-20T09:06:54.543000+00:00</time>
      </trkpt>
      <trkpt lat="0" lon="0">
        <time>2020-12-20T09:06:54.553000+00:00</time>
      </trkpt>
      <trkpt lat="0" lon="0">
        <time>2020-12-20T09:06:54.556000+00:00</time>
      </trkpt>
      <trkpt lat="47.3283" lon="-1.27324">
        <ele>123</ele>
        <time>2020-12-20T09:06:55.529000+00:00</time>
      </trkpt>
      <trkpt lat="0" lon="0">
        <time>2020-12-20T09:06:55.544000+00:00</time>
      </trkpt>
      <trkpt lat="0" lon="0">
        <time>2020-12-20T09:06:55.549000+00:00</time>
      </trkpt>
      <trkpt lat="0" lon="0">
        <time>2020-12-20T09:06:55.552000+00:00</time>
      </trkpt>
      <trkpt lat="47.32827" lon="-1.27322">
        <ele>124</ele>
        <time>2020-12-20T09:06:56.569000+00:00</time>
      </trkpt>
      <trkpt lat="0" lon="0">
        <time>2020-12-20T09:06:56.579000+00:00</time>
      </trkpt>
      <trkpt lat="0" lon="0">
        <time>2020-12-20T09:06:56.583000+00:00</time>
      </trkpt>
      <trkpt lat="0" lon="0">
        <time>2020-12-20T09:06:56.586000+00:00</time>
      </trkpt>
      <trkpt lat="47.32825" lon="-1.27319">
        <ele>124</ele>
        <time>2020-12-20T09:06:57.515000+00:00</time>
      </trkpt>
      <trkpt lat="0" lon="0">
        <time>2020-12-20T09:06:57.526000+00:00</time>
      </trkpt>
      <trkpt lat="0" lon="0">
        <time>2020-12-20T09:06:57.531000+00:00</time>
      </trkpt>
      <trkpt lat="0" lon="0">
        <time>2020-12-20T09:06:57.536000+00:00</time>
      </trkpt>
      <trkpt lat="47.32822" lon="-1.27317">
        <ele>124</ele>
        <time>2020-12-20T09:06:58.555000+00:00</time>
      </trkpt>
      <trkpt lat="0" lon="0">
        <time>2020-12-20T09:06:58.573000+00:00</time>
      </trkpt>
      <trkpt lat="0" lon="0">
        <time>2020-12-20T09:06:58.581000+00:00</time>
      </trkpt>
      <trkpt lat="0" lon="0">
        <time>2020-12-20T09:06:58.585000+00:00</time>
      </trkpt>
      <trkpt lat="47.32819" lon="-1.27314">
        <ele>124</ele>
        <time>2020-12-20T09:06:59.516000+00:00</time>
      </trkpt>
      <trkpt lat="0" lon="0">
        <time>2020-12-20T09:06:59.525000+00:00</time>
      </trkpt>
      <trkpt lat="0" lon="0">
        <time>2020-12-20T09:06:59.536000+00:00</time>
      </trkpt>
      <trkpt lat="0" lon="0">
        <time>2020-12-20T09:06:59.539000+00:00</time>
      </trkpt>
      <trkpt lat="47.32817" lon="-1.27311">
        <ele>124</ele>
        <time>2020-12-20T09:07:00.549000+00:00</time>
      </trkpt>
      <trkpt lat="0" lon="0">
        <time>2020-12-20T09:07:00.554000+00:00</time>
      </trkpt>
      <trkpt lat="0" lon="0">
        <time>2020-12-20T09:07:00.558000+00:00</time>
      </trkpt>
      <trkpt lat="0" lon="0">
        <time>2020-12-20T09:07:00.560000+00:00</time>
      </trkpt>
      <trkpt lat="47.32814" lon="-1.27309">
        <ele>124</ele>
        <time>2020-12-20T09:07:01.525000+00:00</time>
      </trkpt>
      <trkpt lat="0" lon="0">
        <time>2020-12-20T09:07:01.530000+00:00</time>
      </trkpt>
      <trkpt lat="0" lon="0">
        <time>2020-12-20T09:07:01.538000+00:00</time>
      </trkpt>
      <trkpt lat="0" lon="0">
        <time>2020-12-20T09:07:01.540000+00:00</time>
      </trkpt>
      <trkpt lat="47.32812" lon="-1.27306">
        <ele>124</ele>
        <time>2020-12-20T09:07:02.528000+00:00</time>
      </trkpt>
      <trkpt lat="0" lon="0">
        <time>2020-12-20T09:07:02.539000+00:00</time>
      </trkpt>
      <trkpt lat="0" lon="0">
        <time>2020-12-20T09:07:02.549000+00:00</time>
      </trkpt>
      <trkpt lat="0" lon="0">
        <time>2020-12-20T09:07:02.551000+00:00</time>
      </trkpt>
      <trkpt lat="47.32809" lon="-1.27304">
        <ele>125</ele>
        <time>2020-12-20T09:07:03.511000+00:00</time>
      </trkpt>
      <trkpt lat="0" lon="0">
        <time>2020-12-20T09:07:03.526000+00:00</time>
      </trkpt>
      <trkpt lat="0" lon="0">
        <time>2020-12-20T09:07:03.534000+00:00</time>
      </trkpt>
      <trkpt lat="0" lon="0">
        <time>2020-12-20T09:07:03.536000+00:00</time>
      </trkpt>
      <trkpt lat="47.32806" lon="-1.27302">
        <ele>125</ele>
        <time>2020-12-20T09:07:04.527000+00:00</time>
      </trkpt>
      <trkpt lat="0" lon="0">
        <time>2020-12-20T09:07:04.540000+00:00</time>
      </trkpt>
      <trkpt lat="0" lon="0">
        <time>2020-12-20T09:07:04.544000+00:00</time>
      </trkpt>
      <trkpt lat="0" lon="0">
        <time>2020-12-20T09:07:04.546000+00:00</time>
      </trkpt>
      <trkpt lat="47.32804" lon="-1.27299">
        <ele>125</ele>
        <time>2020-12-20T09:07:05.569000+00:00</time>
      </trkpt>
      <trkpt lat="0" lon="0">
        <time>2020-12-20T09:07:05.576000+00:00</time>
      </trkpt>
      <trkpt lat="0" lon="0">
        <time>2020-12-20T09:07:05.583000+00:00</time>
      </trkpt>
      <trkpt lat="0" lon="0">
        <time>2020-12-20T09:07:05.587000+00:00</time>
      </trkpt>
      <trkpt lat="47.32801" lon="-1.27297">
        <ele>126</ele>
        <time>2020-12-20T09:07:06.529000+00:00</time>
      </trkpt>
      <trkpt lat="0" lon="0">
        <time>2020-12-20T09:07:06.535000+00:00</time>
      </trkpt>
      <trkpt lat="0" lon="0">
        <time>2020-12-20T09:07:06.541000+00:00</time>
      </trkpt>
      <trkpt lat="0" lon="0">
        <time>2020-12-20T09:07:06.544000+00:00</time>
      </trkpt>
      <trkpt lat="47.32799" lon="-1.27294">
        <ele>126</ele>
        <time>2020-12-20T09:07:07.546000+00:00</time>
      </trkpt>
      <trkpt lat="0" lon="0">
        <time>2020-12-20T09:07:07.551000+00:00</time>
      </trkpt>
      <trkpt lat="0" lon="0">
        <time>2020-12-20T09:07:07.560000+00:00</time>
      </trkpt>
      <trkpt lat="0" lon="0">
        <time>2020-12-20T09:07:07.563000+00:00</time>
      </trkpt>
      <trkpt lat="47.32796" lon="-1.27291">
        <ele>126</ele>
        <time>2020-12-20T09:07:08.530000+00:00</time>
      </trkpt>
      <trkpt lat="0" lon="0">
        <time>2020-12-20T09:07:08.535000+00:00</time>
      </trkpt>
      <trkpt lat="0" lon="0">
        <time>2020-12-20T09:07:08.540000+00:00</time>
      </trkpt>
      <trkpt lat="0" lon="0">
        <time>2020-12-20T09:07:08.543000+00:00</time>
      </trkpt>
      <trkpt lat="47.32794" lon="-1.27289">
        <ele>127</ele>
        <time>2020-12-20T09:07:09.564000+00:00</time>
      </trkpt>
      <trkpt lat="0" lon="0">
        <time>2020-12-20T09:07:09.575000+00:00</time>
      </trkpt>
      <trkpt lat="0" lon="0">
        <time>2020-12-20T09:07:09.579000+00:00</time>
      </trkpt>
      <trkpt lat="0" lon="0">
        <time>2020-12-20T09:07:09.584000+00:00</time>
      </trkpt>
      <trkpt lat="47.32791" lon="-1.27286">
        <ele>126</ele>
        <time>2020-12-20T09:07:10.541000+00:00</time>
      </trkpt>
      <trkpt lat="0" lon="0">
        <time>2020-12-20T09:07:10.550000+00:00</time>
      </trkpt>
      <trkpt lat="0" lon="0">
        <time>2020-12-20T09:07:10.556000+00:00</time>
      </trkpt>
      <trkpt lat="0" lon="0">
        <time>2020-12-20T09:07:10.558000+00:00</time>
      </trkpt>
      <trkpt lat="47.32789" lon="-1.27283">
        <ele>127</ele>
        <time>2020-12-20T09:07:11.520000+00:00</time>
      </trkpt>
      <trkpt lat="0" lon="0">
        <time>2020-12-20T09:07:11.526000+00:00</time>
      </trkpt>
      <trkpt lat="0" lon="0">
        <time>2020-12-20T09:07:11.532000+00:00</time>
      </trkpt>
      <trkpt lat="0" lon="0">
        <time>2020-12-20T09:07:11.542000+00:00</time>
      </trkpt>
      <trkpt lat="47.32787" lon="-1.27281">
        <ele>127</ele>
        <time>2020-12-20T09:07:12.468000+00:00</time>
      </trkpt>
      <trkpt lat="0" lon="0">
        <time>2020-12-20T09:07:12.488000+00:00</time>
      </trkpt>
      <trkpt lat="0" lon="0">
        <time>2020-12-20T09:07:12.494000+00:00</time>
      </trkpt>
      <trkpt lat="0" lon="0">
        <time>2020-12-20T09:07:12.496000+00:00</time>
      </trkpt>
      <trkpt lat="47.32785" lon="-1.27278">
        <ele>127</ele>
        <time>2020-12-20T09:07:13.557000+00:00</time>
      </trkpt>
      <trkpt lat="0" lon="0">
        <time>2020-12-20T09:07:13.561000+00:00</time>
      </trkpt>
      <trkpt lat="0" lon="0">
        <time>2020-12-20T09:07:13.565000+00:00</time>
      </trkpt>
      <trkpt lat="0" lon="0">
        <time>2020-12-20T09:07:13.567000+00:00</time>
      </trkpt>
      <trkpt lat="47.32783" lon="-1.27275">
        <ele>126</ele>
        <time>2020-12-20T09:07:14.549000+00:00</time>
      </trkpt>
      <trkpt lat="0" lon="0">
        <time>2020-12-20T09:07:14.564000+00:00</time>
      </trkpt>
      <trkpt lat="0" lon="0">
        <time>2020-12-20T09:07:14.569000+00:00</time>
      </trkpt>
      <trkpt lat="0" lon="0">
        <time>2020-12-20T09:07:14.572000+00:00</time>
      </trkpt>
      <trkpt lat="47.32781" lon="-1.27272">
        <ele>126</ele>
        <time>2020-12-20T09:07:15.514000+00:00</time>
      </trkpt>
      <trkpt lat="0" lon="0">
        <time>2020-12-20T09:07:15.518000+00:00</time>
      </trkpt>
      <trkpt lat="0" lon="0">
        <time>2020-12-20T09:07:15.539000+00:00</time>
      </trkpt>
      <trkpt lat="0" lon="0">
        <time>2020-12-20T09:07:15.541000+00:00</time>
      </trkpt>
      <trkpt lat="47.32779" lon="-1.2727">
        <ele>126</ele>
        <time>2020-12-20T09:07:16.464000+00:00</time>
      </trkpt>
      <trkpt lat="0" lon="0">
        <time>2020-12-20T09:07:16.471000+00:00</time>
      </trkpt>
      <trkpt lat="0" lon="0">
        <time>2020-12-20T09:07:16.473000+00:00</time>
      </trkpt>
      <trkpt lat="0" lon="0">
        <time>2020-12-20T09:07:16.474000+00:00</time>
      </trkpt>
      <trkpt lat="47.32776" lon="-1.27267">
        <ele>126</ele>
        <time>2020-12-20T09:07:17.535000+00:00</time>
      </trkpt>
      <trkpt lat="0" lon="0">
        <time>2020-12-20T09:07:17.544000+00:00</time>
      </trkpt>
      <trkpt lat="0" lon="0">
        <time>2020-12-20T09:07:17.554000+00:00</time>
      </trkpt>
      <trkpt lat="0" lon="0">
        <time>2020-12-20T09:07:17.556000+00:00</time>
      </trkpt>
      <trkpt lat="47.32774" lon="-1.27264">
        <ele>126</ele>
        <time>2020-12-20T09:07:18.490000+00:00</time>
      </trkpt>
      <trkpt lat="0" lon="0">
        <time>2020-12-20T09:07:18.494000+00:00</time>
      </trkpt>
      <trkpt lat="0" lon="0">
        <time>2020-12-20T09:07:18.498000+00:00</time>
      </trkpt>
      <trkpt lat="0" lon="0">
        <time>2020-12-20T09:07:18.500000+00:00</time>
      </trkpt>
      <trkpt lat="47.32771" lon="-1.27262">
        <ele>126</ele>
        <time>2020-12-20T09:07:19.507000+00:00</time>
      </trkpt>
      <trkpt lat="0" lon="0">
        <time>2020-12-20T09:07:19.514000+00:00</time>
      </trkpt>
      <trkpt lat="0" lon="0">
        <time>2020-12-20T09:07:19.522000+00:00</time>
      </trkpt>
      <trkpt lat="0" lon="0">
        <time>2020-12-20T09:07:19.525000+00:00</time>
      </trkpt>
      <trkpt lat="47.32768" lon="-1.27259">
        <ele>126</ele>
        <time>2020-12-20T09:07:20.548000+00:00</time>
      </trkpt>
      <trkpt lat="0" lon="0">
        <time>2020-12-20T09:07:20.567000+00:00</time>
      </trkpt>
      <trkpt lat="0" lon="0">
        <time>2020-12-20T09:07:20.573000+00:00</time>
      </trkpt>
      <trkpt lat="0" lon="0">
        <time>2020-12-20T09:07:20.575000+00:00</time>
      </trkpt>
      <trkpt lat="47.32766" lon="-1.27257">
        <ele>126</ele>
        <time>2020-12-20T09:07:21.528000+00:00</time>
      </trkpt>
      <trkpt lat="0" lon="0">
        <time>2020-12-20T09:07:21.536000+00:00</time>
      </trkpt>
      <trkpt lat="0" lon="0">
        <time>2020-12-20T09:07:21.540000+00:00</time>
      </trkpt>
      <trkpt lat="0" lon="0">
        <time>2020-12-20T09:07:21.543000+00:00</time>
      </trkpt>
      <trkpt lat="47.32763" lon="-1.27255">
        <ele>126</ele>
        <time>2020-12-20T09:07:22.553000+00:00</time>
      </trkpt>
      <trkpt lat="0" lon="0">
        <time>2020-12-20T09:07:22.569000+00:00</time>
      </trkpt>
      <trkpt lat="0" lon="0">
        <time>2020-12-20T09:07:22.574000+00:00</time>
      </trkpt>
      <trkpt lat="0" lon="0">
        <time>2020-12-20T09:07:22.577000+00:00</time>
      </trkpt>
      <trkpt lat="47.3276" lon="-1.27253">
        <ele>126</ele>
        <time>2020-12-20T09:07:23.520000+00:00</time>
      </trkpt>
      <trkpt lat="0" lon="0">
        <time>2020-12-20T09:07:23.534000+00:00</time>
      </trkpt>
      <trkpt lat="0" lon="0">
        <time>2020-12-20T09:07:23.542000+00:00</time>
      </trkpt>
      <trkpt lat="0" lon="0">
        <time>2020-12-20T09:07:23.544000+00:00</time>
      </trkpt>
      <trkpt lat="47.32757" lon="-1.27251">
        <ele>127</ele>
        <time>2020-12-20T09:07:24.553000+00:00</time>
      </trkpt>
      <trkpt lat="0" lon="0">
        <time>2020-12-20T09:07:24.565000+00:00</time>
      </trkpt>
      <trkpt lat="0" lon="0">
        <time>2020-12-20T09:07:24.571000+00:00</time>
      </trkpt>
      <trkpt lat="0" lon="0">
        <time>2020-12-20T09:07:24.575000+00:00</time>
      </trkpt>
      <trkpt lat="47.32754" lon="-1.2725">
        <ele>126</ele>
        <time>2020-12-20T09:07:25.521000+00:00</time>
      </trkpt>
      <trkpt lat="0" lon="0">
        <time>2020-12-20T09:07:25.530000+00:00</time>
      </trkpt>
      <trkpt lat="0" lon="0">
        <time>2020-12-20T09:07:25.545000+00:00</time>
      </trkpt>
      <trkpt lat="0" lon="0">
        <time>2020-12-20T09:07:25.552000+00:00</time>
      </trkpt>
      <trkpt lat="47.32751" lon="-1.27249">
        <ele>127</ele>
        <time>2020-12-20T09:07:26.523000+00:00</time>
      </trkpt>
      <trkpt lat="0" lon="0">
        <time>2020-12-20T09:07:26.530000+00:00</time>
      </trkpt>
      <trkpt lat="0" lon="0">
        <time>2020-12-20T09:07:26.538000+00:00</time>
      </trkpt>
      <trkpt lat="0" lon="0">
        <time>2020-12-20T09:07:26.540000+00:00</time>
      </trkpt>
      <trkpt lat="47.32747" lon="-1.27248">
        <ele>127</ele>
        <time>2020-12-20T09:07:27.526000+00:00</time>
      </trkpt>
      <trkpt lat="0" lon="0">
        <time>2020-12-20T09:07:27.532000+00:00</time>
      </trkpt>
      <trkpt lat="0" lon="0">
        <time>2020-12-20T09:07:27.537000+00:00</time>
      </trkpt>
      <trkpt lat="0" lon="0">
        <time>2020-12-20T09:07:27.541000+00:00</time>
      </trkpt>
      <trkpt lat="47.32744" lon="-1.27248">
        <ele>128</ele>
        <time>2020-12-20T09:07:28.486000+00:00</time>
      </trkpt>
      <trkpt lat="0" lon="0">
        <time>2020-12-20T09:07:28.497000+00:00</time>
      </trkpt>
      <trkpt lat="0" lon="0">
        <time>2020-12-20T09:07:28.510000+00:00</time>
      </trkpt>
      <trkpt lat="0" lon="0">
        <time>2020-12-20T09:07:28.512000+00:00</time>
      </trkpt>
      <trkpt lat="47.32741" lon="-1.27248">
        <ele>128</ele>
        <time>2020-12-20T09:07:29.539000+00:00</time>
      </trkpt>
      <trkpt lat="0" lon="0">
        <time>2020-12-20T09:07:29.549000+00:00</time>
      </trkpt>
      <trkpt lat="0" lon="0">
        <time>2020-12-20T09:07:29.553000+00:00</time>
      </trkpt>
      <trkpt lat="0" lon="0">
        <time>2020-12-20T09:07:29.556000+00:00</time>
      </trkpt>
      <trkpt lat="47.32738" lon="-1.27249">
        <ele>127</ele>
        <time>2020-12-20T09:07:30.565000+00:00</time>
      </trkpt>
      <trkpt lat="0" lon="0">
        <time>2020-12-20T09:07:30.578000+00:00</time>
      </trkpt>
      <trkpt lat="0" lon="0">
        <time>2020-12-20T09:07:30.588000+00:00</time>
      </trkpt>
      <trkpt lat="0" lon="0">
        <time>2020-12-20T09:07:30.590000+00:00</time>
      </trkpt>
      <trkpt lat="47.32735" lon="-1.2725">
        <ele>127</ele>
        <time>2020-12-20T09:07:31.540000+00:00</time>
      </trkpt>
      <trkpt lat="0" lon="0">
        <time>2020-12-20T09:07:31.554000+00:00</time>
      </trkpt>
      <trkpt lat="0" lon="0">
        <time>2020-12-20T09:07:31.561000+00:00</time>
      </trkpt>
      <trkpt lat="0" lon="0">
        <time>2020-12-20T09:07:31.564000+00:00</time>
      </trkpt>
      <trkpt lat="47.32732" lon="-1.27252">
        <ele>127</ele>
        <time>2020-12-20T09:07:32.484000+00:00</time>
      </trkpt>
      <trkpt lat="0" lon="0">
        <time>2020-12-20T09:07:32.485000+00:00</time>
      </trkpt>
      <trkpt lat="0" lon="0">
        <time>2020-12-20T09:07:32.486000+00:00</time>
      </trkpt>
      <trkpt lat="0" lon="0">
        <time>2020-12-20T09:07:32.487000+00:00</time>
      </trkpt>
      <trkpt lat="47.3273" lon="-1.27255">
        <ele>127</ele>
        <time>2020-12-20T09:07:33.522000+00:00</time>
      </trkpt>
      <trkpt lat="0" lon="0">
        <time>2020-12-20T09:07:33.525000+00:00</time>
      </trkpt>
      <trkpt lat="0" lon="0">
        <time>2020-12-20T09:07:33.532000+00:00</time>
      </trkpt>
      <trkpt lat="0" lon="0">
        <time>2020-12-20T09:07:33.534000+00:00</time>
      </trkpt>
      <trkpt lat="47.32728" lon="-1.27257">
        <ele>127</ele>
        <time>2020-12-20T09:07:34.524000+00:00</time>
      </trkpt>
      <trkpt lat="0" lon="0">
        <time>2020-12-20T09:07:34.555000+00:00</time>
      </trkpt>
      <trkpt lat="0" lon="0">
        <time>2020-12-20T09:07:34.559000+00:00</time>
      </trkpt>
      <trkpt lat="0" lon="0">
        <time>2020-12-20T09:07:34.560000+00:00</time>
      </trkpt>
      <trkpt lat="47.32727" lon="-1.27261">
        <ele>128</ele>
        <time>2020-12-20T09:07:35.551000+00:00</time>
      </trkpt>
      <trkpt lat="0" lon="0">
        <time>2020-12-20T09:07:35.571000+00:00</time>
      </trkpt>
      <trkpt lat="0" lon="0">
        <time>2020-12-20T09:07:35.575000+00:00</time>
      </trkpt>
      <trkpt lat="0" lon="0">
        <time>2020-12-20T09:07:35.577000+00:00</time>
      </trkpt>
      <trkpt lat="47.32725" lon="-1.27265">
        <ele>128</ele>
        <time>2020-12-20T09:07:36.516000+00:00</time>
      </trkpt>
      <trkpt lat="0" lon="0">
        <time>2020-12-20T09:07:36.525000+00:00</time>
      </trkpt>
      <trkpt lat="0" lon="0">
        <time>2020-12-20T09:07:36.537000+00:00</time>
      </trkpt>
      <trkpt lat="0" lon="0">
        <time>2020-12-20T09:07:36.545000+00:00</time>
      </trkpt>
      <trkpt lat="47.32724" lon="-1.27269">
        <ele>128</ele>
        <time>2020-12-20T09:07:37.543000+00:00</time>
      </trkpt>
      <trkpt lat="0" lon="0">
        <time>2020-12-20T09:07:37.555000+00:00</time>
      </trkpt>
      <trkpt lat="0" lon="0">
        <time>2020-12-20T09:07:37.565000+00:00</time>
      </trkpt>
      <trkpt lat="0" lon="0">
        <time>2020-12-20T09:07:37.567000+00:00</time>
      </trkpt>
      <trkpt lat="47.32722" lon="-1.27273">
        <ele>128</ele>
        <time>2020-12-20T09:07:38.551000+00:00</time>
      </trkpt>
      <trkpt lat="0" lon="0">
        <time>2020-12-20T09:07:38.560000+00:00</time>
      </trkpt>
      <trkpt lat="0" lon="0">
        <time>2020-12-20T09:07:38.562000+00:00</time>
      </trkpt>
      <trkpt lat="0" lon="0">
        <time>2020-12-20T09:07:38.563000+00:00</time>
      </trkpt>
      <trkpt lat="47.32721" lon="-1.27278">
        <ele>128</ele>
        <time>2020-12-20T09:07:39.517000+00:00</time>
      </trkpt>
      <trkpt lat="0" lon="0">
        <time>2020-12-20T09:07:39.536000+00:00</time>
      </trkpt>
      <trkpt lat="0" lon="0">
        <time>2020-12-20T09:07:39.543000+00:00</time>
      </trkpt>
      <trkpt lat="0" lon="0">
        <time>2020-12-20T09:07:39.548000+00:00</time>
      </trkpt>
      <trkpt lat="47.3272" lon="-1.27284">
        <ele>128</ele>
        <time>2020-12-20T09:07:40.540000+00:00</time>
      </trkpt>
      <trkpt lat="0" lon="0">
        <time>2020-12-20T09:07:40.553000+00:00</time>
      </trkpt>
      <trkpt lat="0" lon="0">
        <time>2020-12-20T09:07:40.558000+00:00</time>
      </trkpt>
      <trkpt lat="0" lon="0">
        <time>2020-12-20T09:07:40.561000+00:00</time>
      </trkpt>
      <trkpt lat="47.32719" lon="-1.27289">
        <ele>129</ele>
        <time>2020-12-20T09:07:41.534000+00:00</time>
      </trkpt>
      <trkpt lat="0" lon="0">
        <time>2020-12-20T09:07:41.540000+00:00</time>
      </trkpt>
      <trkpt lat="0" lon="0">
        <time>2020-12-20T09:07:41.547000+00:00</time>
      </trkpt>
      <trkpt lat="0" lon="0">
        <time>2020-12-20T09:07:41.549000+00:00</time>
      </trkpt>
      <trkpt lat="47.32718" lon="-1.27294">
        <ele>129</ele>
        <time>2020-12-20T09:07:42.543000+00:00</time>
      </trkpt>
      <trkpt lat="0" lon="0">
        <time>2020-12-20T09:07:42.548000+00:00</time>
      </trkpt>
      <trkpt lat="0" lon="0">
        <time>2020-12-20T09:07:42.554000+00:00</time>
      </trkpt>
      <trkpt lat="0" lon="0">
        <time>2020-12-20T09:07:42.557000+00:00</time>
      </trkpt>
      <trkpt lat="47.32717" lon="-1.27299">
        <ele>129</ele>
        <time>2020-12-20T09:07:43.543000+00:00</time>
      </trkpt>
      <trkpt lat="0" lon="0">
        <time>2020-12-20T09:07:43.556000+00:00</time>
      </trkpt>
      <trkpt lat="0" lon="0">
        <time>2020-12-20T09:07:43.566000+00:00</time>
      </trkpt>
      <trkpt lat="0" lon="0">
        <time>2020-12-20T09:07:43.571000+00:00</time>
      </trkpt>
      <trkpt lat="47.32715" lon="-1.27304">
        <ele>129</ele>
        <time>2020-12-20T09:07:44.505000+00:00</time>
      </trkpt>
      <trkpt lat="0" lon="0">
        <time>2020-12-20T09:07:44.522000+00:00</time>
      </trkpt>
      <trkpt lat="0" lon="0">
        <time>2020-12-20T09:07:44.525000+00:00</time>
      </trkpt>
      <trkpt lat="0" lon="0">
        <time>2020-12-20T09:07:44.528000+00:00</time>
      </trkpt>
      <trkpt lat="47.32713" lon="-1.27308">
        <ele>129</ele>
        <time>2020-12-20T09:07:45.520000+00:00</time>
      </trkpt>
      <trkpt lat="0" lon="0">
        <time>2020-12-20T09:07:45.536000+00:00</time>
      </trkpt>
      <trkpt lat="0" lon="0">
        <time>2020-12-20T09:07:45.546000+00:00</time>
      </trkpt>
      <trkpt lat="0" lon="0">
        <time>2020-12-20T09:07:45.549000+00:00</time>
      </trkpt>
      <trkpt lat="47.32711" lon="-1.27312">
        <ele>128</ele>
        <time>2020-12-20T09:07:46.528000+00:00</time>
      </trkpt>
      <trkpt lat="0" lon="0">
        <time>2020-12-20T09:07:46.535000+00:00</time>
      </trkpt>
      <trkpt lat="0" lon="0">
        <time>2020-12-20T09:07:46.539000+00:00</time>
      </trkpt>
      <trkpt lat="0" lon="0">
        <time>2020-12-20T09:07:46.543000+00:00</time>
      </trkpt>
      <trkpt lat="47.32708" lon="-1.27315">
        <ele>129</ele>
        <time>2020-12-20T09:07:47.533000+00:00</time>
      </trkpt>
      <trkpt lat="0" lon="0">
        <time>2020-12-20T09:07:47.538000+00:00</time>
      </trkpt>
      <trkpt lat="0" lon="0">
        <time>2020-12-20T09:07:47.547000+00:00</time>
      </trkpt>
      <trkpt lat="0" lon="0">
        <time>2020-12-20T09:07:47.549000+00:00</time>
      </trkpt>
      <trkpt lat="47.32706" lon="-1.27318">
        <ele>129</ele>
        <time>2020-12-20T09:07:48.536000+00:00</time>
      </trkpt>
      <trkpt lat="0" lon="0">
        <time>2020-12-20T09:07:48.547000+00:00</time>
      </trkpt>
      <trkpt lat="0" lon="0">
        <time>2020-12-20T09:07:48.551000+00:00</time>
      </trkpt>
      <trkpt lat="0" lon="0">
        <time>2020-12-20T09:07:48.553000+00:00</time>
      </trkpt>
      <trkpt lat="47.32703" lon="-1.2732">
        <ele>129</ele>
        <time>2020-12-20T09:07:49.527000+00:00</time>
      </trkpt>
      <trkpt lat="0" lon="0">
        <time>2020-12-20T09:07:49.537000+00:00</time>
      </trkpt>
      <trkpt lat="0" lon="0">
        <time>2020-12-20T09:07:49.543000+00:00</time>
      </trkpt>
      <trkpt lat="0" lon="0">
        <time>2020-12-20T09:07:49.547000+00:00</time>
      </trkpt>
      <trkpt lat="47.327" lon="-1.27322">
        <ele>129</ele>
        <time>2020-12-20T09:07:50.509000+00:00</time>
      </trkpt>
      <trkpt lat="0" lon="0">
        <time>2020-12-20T09:07:50.511000+00:00</time>
      </trkpt>
      <trkpt lat="0" lon="0">
        <time>2020-12-20T09:07:50.513000+00:00</time>
      </trkpt>
      <trkpt lat="0" lon="0">
        <time>2020-12-20T09:07:50.515000+00:00</time>
      </trkpt>
      <trkpt lat="47.32697" lon="-1.27324">
        <ele>129</ele>
        <time>2020-12-20T09:07:51.536000+00:00</time>
      </trkpt>
      <trkpt lat="0" lon="0">
        <time>2020-12-20T09:07:51.551000+00:00</time>
      </trkpt>
      <trkpt lat="0" lon="0">
        <time>2020-12-20T09:07:51.560000+00:00</time>
      </trkpt>
      <trkpt lat="0" lon="0">
        <time>2020-12-20T09:07:51.563000+00:00</time>
      </trkpt>
      <trkpt lat="47.32694" lon="-1.27325">
        <ele>129</ele>
        <time>2020-12-20T09:07:52.517000+00:00</time>
      </trkpt>
      <trkpt lat="0" lon="0">
        <time>2020-12-20T09:07:52.528000+00:00</time>
      </trkpt>
      <trkpt lat="0" lon="0">
        <time>2020-12-20T09:07:52.533000+00:00</time>
      </trkpt>
      <trkpt lat="0" lon="0">
        <time>2020-12-20T09:07:52.542000+00:00</time>
      </trkpt>
      <trkpt lat="47.32691" lon="-1.27325">
        <ele>129</ele>
        <time>2020-12-20T09:07:53.527000+00:00</time>
      </trkpt>
      <trkpt lat="0" lon="0">
        <time>2020-12-20T09:07:53.532000+00:00</time>
      </trkpt>
      <trkpt lat="0" lon="0">
        <time>2020-12-20T09:07:53.538000+00:00</time>
      </trkpt>
      <trkpt lat="0" lon="0">
        <time>2020-12-20T09:07:53.540000+00:00</time>
      </trkpt>
      <trkpt lat="47.32688" lon="-1.27326">
        <ele>129</ele>
        <time>2020-12-20T09:07:54.521000+00:00</time>
      </trkpt>
      <trkpt lat="0" lon="0">
        <time>2020-12-20T09:07:54.531000+00:00</time>
      </trkpt>
      <trkpt lat="0" lon="0">
        <time>2020-12-20T09:07:54.541000+00:00</time>
      </trkpt>
      <trkpt lat="0" lon="0">
        <time>2020-12-20T09:07:54.544000+00:00</time>
      </trkpt>
      <trkpt lat="47.32684" lon="-1.27327">
        <ele>130</ele>
        <time>2020-12-20T09:07:55.525000+00:00</time>
      </trkpt>
      <trkpt lat="0" lon="0">
        <time>2020-12-20T09:07:55.536000+00:00</time>
      </trkpt>
      <trkpt lat="0" lon="0">
        <time>2020-12-20T09:07:55.543000+00:00</time>
      </trkpt>
      <trkpt lat="0" lon="0">
        <time>2020-12-20T09:07:55.545000+00:00</time>
      </trkpt>
      <trkpt lat="47.32681" lon="-1.27327">
        <ele>130</ele>
        <time>2020-12-20T09:07:56.537000+00:00</time>
      </trkpt>
      <trkpt lat="0" lon="0">
        <time>2020-12-20T09:07:56.543000+00:00</time>
      </trkpt>
      <trkpt lat="0" lon="0">
        <time>2020-12-20T09:07:56.550000+00:00</time>
      </trkpt>
      <trkpt lat="0" lon="0">
        <time>2020-12-20T09:07:56.554000+00:00</time>
      </trkpt>
      <trkpt lat="47.32678" lon="-1.27328">
        <ele>130</ele>
        <time>2020-12-20T09:07:57.509000+00:00</time>
      </trkpt>
      <trkpt lat="0" lon="0">
        <time>2020-12-20T09:07:57.525000+00:00</time>
      </trkpt>
      <trkpt lat="0" lon="0">
        <time>2020-12-20T09:07:57.532000+00:00</time>
      </trkpt>
      <trkpt lat="0" lon="0">
        <time>2020-12-20T09:07:57.536000+00:00</time>
      </trkpt>
      <trkpt lat="47.32674" lon="-1.27329">
        <ele>130</ele>
        <time>2020-12-20T09:07:58.516000+00:00</time>
      </trkpt>
      <trkpt lat="0" lon="0">
        <time>2020-12-20T09:07:58.531000+00:00</time>
      </trkpt>
      <trkpt lat="0" lon="0">
        <time>2020-12-20T09:07:58.540000+00:00</time>
      </trkpt>
      <trkpt lat="0" lon="0">
        <time>2020-12-20T09:07:58.547000+00:00</time>
      </trkpt>
      <trkpt lat="47.32671" lon="-1.2733">
        <ele>130</ele>
        <time>2020-12-20T09:07:59.542000+00:00</time>
      </trkpt>
      <trkpt lat="0" lon="0">
        <time>2020-12-20T09:07:59.552000+00:00</time>
      </trkpt>
      <trkpt lat="0" lon="0">
        <time>2020-12-20T09:07:59.557000+00:00</time>
      </trkpt>
      <trkpt lat="0" lon="0">
        <time>2020-12-20T09:07:59.569000+00:00</time>
      </trkpt>
      <trkpt lat="47.32667" lon="-1.27331">
        <ele>130</ele>
        <time>2020-12-20T09:08:00.535000+00:00</time>
      </trkpt>
      <trkpt lat="0" lon="0">
        <time>2020-12-20T09:08:00.541000+00:00</time>
      </trkpt>
      <trkpt lat="0" lon="0">
        <time>2020-12-20T09:08:00.558000+00:00</time>
      </trkpt>
      <trkpt lat="0" lon="0">
        <time>2020-12-20T09:08:00.560000+00:00</time>
      </trkpt>
      <trkpt lat="47.32664" lon="-1.27332">
        <ele>131</ele>
        <time>2020-12-20T09:08:01.499000+00:00</time>
      </trkpt>
      <trkpt lat="0" lon="0">
        <time>2020-12-20T09:08:01.506000+00:00</time>
      </trkpt>
      <trkpt lat="0" lon="0">
        <time>2020-12-20T09:08:01.508000+00:00</time>
      </trkpt>
      <trkpt lat="0" lon="0">
        <time>2020-12-20T09:08:01.509000+00:00</time>
      </trkpt>
      <trkpt lat="47.3266" lon="-1.27333">
        <ele>131</ele>
        <time>2020-12-20T09:08:02.531000+00:00</time>
      </trkpt>
      <trkpt lat="0" lon="0">
        <time>2020-12-20T09:08:02.541000+00:00</time>
      </trkpt>
      <trkpt lat="0" lon="0">
        <time>2020-12-20T09:08:02.548000+00:00</time>
      </trkpt>
      <trkpt lat="0" lon="0">
        <time>2020-12-20T09:08:02.551000+00:00</time>
      </trkpt>
      <trkpt lat="47.32657" lon="-1.27334">
        <ele>131</ele>
        <time>2020-12-20T09:08:03.528000+00:00</time>
      </trkpt>
      <trkpt lat="0" lon="0">
        <time>2020-12-20T09:08:03.534000+00:00</time>
      </trkpt>
      <trkpt lat="0" lon="0">
        <time>2020-12-20T09:08:03.545000+00:00</time>
      </trkpt>
      <trkpt lat="0" lon="0">
        <time>2020-12-20T09:08:03.558000+00:00</time>
      </trkpt>
      <trkpt lat="47.32653" lon="-1.27336">
        <ele>131</ele>
        <time>2020-12-20T09:08:04.519000+00:00</time>
      </trkpt>
      <trkpt lat="0" lon="0">
        <time>2020-12-20T09:08:04.536000+00:00</time>
      </trkpt>
      <trkpt lat="0" lon="0">
        <time>2020-12-20T09:08:04.541000+00:00</time>
      </trkpt>
      <trkpt lat="0" lon="0">
        <time>2020-12-20T09:08:04.543000+00:00</time>
      </trkpt>
      <trkpt lat="47.3265" lon="-1.27337">
        <ele>131</ele>
        <time>2020-12-20T09:08:05.534000+00:00</time>
      </trkpt>
      <trkpt lat="0" lon="0">
        <time>2020-12-20T09:08:05.548000+00:00</time>
      </trkpt>
      <trkpt lat="0" lon="0">
        <time>2020-12-20T09:08:05.553000+00:00</time>
      </trkpt>
      <trkpt lat="0" lon="0">
        <time>2020-12-20T09:08:05.559000+00:00</time>
      </trkpt>
      <trkpt lat="47.32647" lon="-1.27339">
        <ele>132</ele>
        <time>2020-12-20T09:08:06.530000+00:00</time>
      </trkpt>
      <trkpt lat="0" lon="0">
        <time>2020-12-20T09:08:06.542000+00:00</time>
      </trkpt>
      <trkpt lat="0" lon="0">
        <time>2020-12-20T09:08:06.549000+00:00</time>
      </trkpt>
      <trkpt lat="0" lon="0">
        <time>2020-12-20T09:08:06.555000+00:00</time>
      </trkpt>
      <trkpt lat="47.32643" lon="-1.27341">
        <ele>132</ele>
        <time>2020-12-20T09:08:07.534000+00:00</time>
      </trkpt>
      <trkpt lat="0" lon="0">
        <time>2020-12-20T09:08:07.540000+00:00</time>
      </trkpt>
      <trkpt lat="0" lon="0">
        <time>2020-12-20T09:08:07.544000+00:00</time>
      </trkpt>
      <trkpt lat="0" lon="0">
        <time>2020-12-20T09:08:07.545000+00:00</time>
      </trkpt>
      <trkpt lat="47.3264" lon="-1.27342">
        <ele>132</ele>
        <time>2020-12-20T09:08:08.534000+00:00</time>
      </trkpt>
      <trkpt lat="0" lon="0">
        <time>2020-12-20T09:08:08.549000+00:00</time>
      </trkpt>
      <trkpt lat="0" lon="0">
        <time>2020-12-20T09:08:08.554000+00:00</time>
      </trkpt>
      <trkpt lat="0" lon="0">
        <time>2020-12-20T09:08:08.556000+00:00</time>
      </trkpt>
      <trkpt lat="47.32637" lon="-1.27344">
        <ele>131</ele>
        <time>2020-12-20T09:08:09.508000+00:00</time>
      </trkpt>
      <trkpt lat="0" lon="0">
        <time>2020-12-20T09:08:09.514000+00:00</time>
      </trkpt>
      <trkpt lat="0" lon="0">
        <time>2020-12-20T09:08:09.527000+00:00</time>
      </trkpt>
      <trkpt lat="0" lon="0">
        <time>2020-12-20T09:08:09.532000+00:00</time>
      </trkpt>
      <trkpt lat="47.32634" lon="-1.27345">
        <ele>131</ele>
        <time>2020-12-20T09:08:10.561000+00:00</time>
      </trkpt>
      <trkpt lat="0" lon="0">
        <time>2020-12-20T09:08:10.568000+00:00</time>
      </trkpt>
      <trkpt lat="0" lon="0">
        <time>2020-12-20T09:08:10.572000+00:00</time>
      </trkpt>
      <trkpt lat="0" lon="0">
        <time>2020-12-20T09:08:10.575000+00:00</time>
      </trkpt>
      <trkpt lat="47.32631" lon="-1.27346">
        <ele>132</ele>
        <time>2020-12-20T09:08:11.483000+00:00</time>
      </trkpt>
      <trkpt lat="0" lon="0">
        <time>2020-12-20T09:08:11.501000+00:00</time>
      </trkpt>
      <trkpt lat="0" lon="0">
        <time>2020-12-20T09:08:11.505000+00:00</time>
      </trkpt>
      <trkpt lat="0" lon="0">
        <time>2020-12-20T09:08:11.508000+00:00</time>
      </trkpt>
      <trkpt lat="47.32629" lon="-1.27345">
        <ele>132</ele>
        <time>2020-12-20T09:08:12.519000+00:00</time>
      </trkpt>
      <trkpt lat="0" lon="0">
        <time>2020-12-20T09:08:12.526000+00:00</time>
      </trkpt>
      <trkpt lat="0" lon="0">
        <time>2020-12-20T09:08:12.537000+00:00</time>
      </trkpt>
      <trkpt lat="0" lon="0">
        <time>2020-12-20T09:08:12.543000+00:00</time>
      </trkpt>
      <trkpt lat="47.32627" lon="-1.27342">
        <ele>132</ele>
        <time>2020-12-20T09:08:13.526000+00:00</time>
      </trkpt>
      <trkpt lat="0" lon="0">
        <time>2020-12-20T09:08:13.535000+00:00</time>
      </trkpt>
      <trkpt lat="0" lon="0">
        <time>2020-12-20T09:08:13.543000+00:00</time>
      </trkpt>
      <trkpt lat="0" lon="0">
        <time>2020-12-20T09:08:13.546000+00:00</time>
      </trkpt>
      <trkpt lat="47.32625" lon="-1.27339">
        <ele>133</ele>
        <time>2020-12-20T09:08:14.517000+00:00</time>
      </trkpt>
      <trkpt lat="0" lon="0">
        <time>2020-12-20T09:08:14.522000+00:00</time>
      </trkpt>
      <trkpt lat="0" lon="0">
        <time>2020-12-20T09:08:14.537000+00:00</time>
      </trkpt>
      <trkpt lat="0" lon="0">
        <time>2020-12-20T09:08:14.539000+00:00</time>
      </trkpt>
      <trkpt lat="47.32624" lon="-1.27335">
        <ele>132</ele>
        <time>2020-12-20T09:08:15.512000+00:00</time>
      </trkpt>
      <trkpt lat="0" lon="0">
        <time>2020-12-20T09:08:15.525000+00:00</time>
      </trkpt>
      <trkpt lat="0" lon="0">
        <time>2020-12-20T09:08:15.533000+00:00</time>
      </trkpt>
      <trkpt lat="0" lon="0">
        <time>2020-12-20T09:08:15.536000+00:00</time>
      </trkpt>
      <trkpt lat="47.32623" lon="-1.2733">
        <ele>132</ele>
        <time>2020-12-20T09:08:16.518000+00:00</time>
      </trkpt>
      <trkpt lat="0" lon="0">
        <time>2020-12-20T09:08:16.523000+00:00</time>
      </trkpt>
      <trkpt lat="0" lon="0">
        <time>2020-12-20T09:08:16.529000+00:00</time>
      </trkpt>
      <trkpt lat="0" lon="0">
        <time>2020-12-20T09:08:16.532000+00:00</time>
      </trkpt>
      <trkpt lat="47.32623" lon="-1.27324">
        <ele>132</ele>
        <time>2020-12-20T09:08:17.521000+00:00</time>
      </trkpt>
      <trkpt lat="0" lon="0">
        <time>2020-12-20T09:08:17.532000+00:00</time>
      </trkpt>
      <trkpt lat="0" lon="0">
        <time>2020-12-20T09:08:17.536000+00:00</time>
      </trkpt>
      <trkpt lat="0" lon="0">
        <time>2020-12-20T09:08:17.538000+00:00</time>
      </trkpt>
      <trkpt lat="47.32623" lon="-1.27317">
        <ele>132</ele>
        <time>2020-12-20T09:08:18.545000+00:00</time>
      </trkpt>
      <trkpt lat="0" lon="0">
        <time>2020-12-20T09:08:18.559000+00:00</time>
      </trkpt>
      <trkpt lat="0" lon="0">
        <time>2020-12-20T09:08:18.570000+00:00</time>
      </trkpt>
      <trkpt lat="0" lon="0">
        <time>2020-12-20T09:08:18.572000+00:00</time>
      </trkpt>
      <trkpt lat="47.32623" lon="-1.2731">
        <ele>132</ele>
        <time>2020-12-20T09:08:19.554000+00:00</time>
      </trkpt>
      <trkpt lat="0" lon="0">
        <time>2020-12-20T09:08:19.561000+00:00</time>
      </trkpt>
      <trkpt lat="0" lon="0">
        <time>2020-12-20T09:08:19.565000+00:00</time>
      </trkpt>
      <trkpt lat="0" lon="0">
        <time>2020-12-20T09:08:19.568000+00:00</time>
      </trkpt>
      <trkpt lat="47.32623" lon="-1.27302">
        <ele>131</ele>
        <time>2020-12-20T09:08:20.514000+00:00</time>
      </trkpt>
      <trkpt lat="0" lon="0">
        <time>2020-12-20T09:08:20.530000+00:00</time>
      </trkpt>
      <trkpt lat="0" lon="0">
        <time>2020-12-20T09:08:20.536000+00:00</time>
      </trkpt>
      <trkpt lat="0" lon="0">
        <time>2020-12-20T09:08:20.538000+00:00</time>
      </trkpt>
      <trkpt lat="47.32624" lon="-1.27295">
        <ele>130</ele>
        <time>2020-12-20T09:08:21.520000+00:00</time>
      </trkpt>
      <trkpt lat="0" lon="0">
        <time>2020-12-20T09:08:21.526000+00:00</time>
      </trkpt>
      <trkpt lat="0" lon="0">
        <time>2020-12-20T09:08:21.530000+00:00</time>
      </trkpt>
      <trkpt lat="0" lon="0">
        <time>2020-12-20T09:08:21.532000+00:00</time>
      </trkpt>
      <trkpt lat="47.32624" lon="-1.27287">
        <ele>129</ele>
        <time>2020-12-20T09:08:22.512000+00:00</time>
      </trkpt>
      <trkpt lat="0" lon="0">
        <time>2020-12-20T09:08:22.527000+00:00</time>
      </trkpt>
      <trkpt lat="0" lon="0">
        <time>2020-12-20T09:08:22.532000+00:00</time>
      </trkpt>
      <trkpt lat="0" lon="0">
        <time>2020-12-20T09:08:22.533000+00:00</time>
      </trkpt>
      <trkpt lat="47.32625" lon="-1.27279">
        <ele>128</ele>
        <time>2020-12-20T09:08:23.519000+00:00</time>
      </trkpt>
      <trkpt lat="0" lon="0">
        <time>2020-12-20T09:08:23.526000+00:00</time>
      </trkpt>
      <trkpt lat="0" lon="0">
        <time>2020-12-20T09:08:23.529000+00:00</time>
      </trkpt>
      <trkpt lat="0" lon="0">
        <time>2020-12-20T09:08:23.531000+00:00</time>
      </trkpt>
      <trkpt lat="47.32626" lon="-1.2727">
        <ele>128</ele>
        <time>2020-12-20T09:08:24.560000+00:00</time>
      </trkpt>
      <trkpt lat="0" lon="0">
        <time>2020-12-20T09:08:24.570000+00:00</time>
      </trkpt>
      <trkpt lat="0" lon="0">
        <time>2020-12-20T09:08:24.575000+00:00</time>
      </trkpt>
      <trkpt lat="0" lon="0">
        <time>2020-12-20T09:08:24.577000+00:00</time>
      </trkpt>
      <trkpt lat="47.32627" lon="-1.27262">
        <ele>127</ele>
        <time>2020-12-20T09:08:25.521000+00:00</time>
      </trkpt>
      <trkpt lat="0" lon="0">
        <time>2020-12-20T09:08:25.529000+00:00</time>
      </trkpt>
      <trkpt lat="0" lon="0">
        <time>2020-12-20T09:08:25.535000+00:00</time>
      </trkpt>
      <trkpt lat="0" lon="0">
        <time>2020-12-20T09:08:25.541000+00:00</time>
      </trkpt>
      <trkpt lat="47.32629" lon="-1.27253">
        <ele>127</ele>
        <time>2020-12-20T09:08:26.511000+00:00</time>
      </trkpt>
      <trkpt lat="0" lon="0">
        <time>2020-12-20T09:08:26.521000+00:00</time>
      </trkpt>
      <trkpt lat="0" lon="0">
        <time>2020-12-20T09:08:26.529000+00:00</time>
      </trkpt>
      <trkpt lat="0" lon="0">
        <time>2020-12-20T09:08:26.537000+00:00</time>
      </trkpt>
      <trkpt lat="47.3263" lon="-1.27245">
        <ele>126</ele>
        <time>2020-12-20T09:08:27.527000+00:00</time>
      </trkpt>
      <trkpt lat="0" lon="0">
        <time>2020-12-20T09:08:27.535000+00:00</time>
      </trkpt>
      <trkpt lat="0" lon="0">
        <time>2020-12-20T09:08:27.541000+00:00</time>
      </trkpt>
      <trkpt lat="0" lon="0">
        <time>2020-12-20T09:08:27.544000+00:00</time>
      </trkpt>
      <trkpt lat="47.32631" lon="-1.27236">
        <ele>126</ele>
        <time>2020-12-20T09:08:28.527000+00:00</time>
      </trkpt>
      <trkpt lat="0" lon="0">
        <time>2020-12-20T09:08:28.542000+00:00</time>
      </trkpt>
      <trkpt lat="0" lon="0">
        <time>2020-12-20T09:08:28.553000+00:00</time>
      </trkpt>
      <trkpt lat="0" lon="0">
        <time>2020-12-20T09:08:28.556000+00:00</time>
      </trkpt>
      <trkpt lat="47.32632" lon="-1.27227">
        <ele>126</ele>
        <time>2020-12-20T09:08:29.504000+00:00</time>
      </trkpt>
      <trkpt lat="0" lon="0">
        <time>2020-12-20T09:08:29.510000+00:00</time>
      </trkpt>
      <trkpt lat="0" lon="0">
        <time>2020-12-20T09:08:29.520000+00:00</time>
      </trkpt>
      <trkpt lat="0" lon="0">
        <time>2020-12-20T09:08:29.521000+00:00</time>
      </trkpt>
      <trkpt lat="47.32634" lon="-1.27219">
        <ele>125</ele>
        <time>2020-12-20T09:08:30.512000+00:00</time>
      </trkpt>
      <trkpt lat="0" lon="0">
        <time>2020-12-20T09:08:30.521000+00:00</time>
      </trkpt>
      <trkpt lat="0" lon="0">
        <time>2020-12-20T09:08:30.525000+00:00</time>
      </trkpt>
      <trkpt lat="0" lon="0">
        <time>2020-12-20T09:08:30.528000+00:00</time>
      </trkpt>
      <trkpt lat="47.32635" lon="-1.2721">
        <ele>125</ele>
        <time>2020-12-20T09:08:31.531000+00:00</time>
      </trkpt>
      <trkpt lat="0" lon="0">
        <time>2020-12-20T09:08:31.540000+00:00</time>
      </trkpt>
      <trkpt lat="0" lon="0">
        <time>2020-12-20T09:08:31.544000+00:00</time>
      </trkpt>
      <trkpt lat="0" lon="0">
        <time>2020-12-20T09:08:31.547000+00:00</time>
      </trkpt>
      <trkpt lat="47.32636" lon="-1.27201">
        <ele>125</ele>
        <time>2020-12-20T09:08:32.507000+00:00</time>
      </trkpt>
      <trkpt lat="0" lon="0">
        <time>2020-12-20T09:08:32.522000+00:00</time>
      </trkpt>
      <trkpt lat="0" lon="0">
        <time>2020-12-20T09:08:32.532000+00:00</time>
      </trkpt>
      <trkpt lat="0" lon="0">
        <time>2020-12-20T09:08:32.534000+00:00</time>
      </trkpt>
      <trkpt lat="47.32637" lon="-1.27193">
        <ele>125</ele>
        <time>2020-12-20T09:08:33.510000+00:00</time>
      </trkpt>
      <trkpt lat="0" lon="0">
        <time>2020-12-20T09:08:33.517000+00:00</time>
      </trkpt>
      <trkpt lat="0" lon="0">
        <time>2020-12-20T09:08:33.522000+00:00</time>
      </trkpt>
      <trkpt lat="0" lon="0">
        <time>2020-12-20T09:08:33.524000+00:00</time>
      </trkpt>
      <trkpt lat="47.32639" lon="-1.27184">
        <ele>124</ele>
        <time>2020-12-20T09:08:34.561000+00:00</time>
      </trkpt>
      <trkpt lat="0" lon="0">
        <time>2020-12-20T09:08:34.569000+00:00</time>
      </trkpt>
      <trkpt lat="0" lon="0">
        <time>2020-12-20T09:08:34.577000+00:00</time>
      </trkpt>
      <trkpt lat="0" lon="0">
        <time>2020-12-20T09:08:34.580000+00:00</time>
      </trkpt>
      <trkpt lat="47.3264" lon="-1.27176">
        <ele>124</ele>
        <time>2020-12-20T09:08:35.555000+00:00</time>
      </trkpt>
      <trkpt lat="0" lon="0">
        <time>2020-12-20T09:08:35.557000+00:00</time>
      </trkpt>
      <trkpt lat="0" lon="0">
        <time>2020-12-20T09:08:35.562000+00:00</time>
      </trkpt>
      <trkpt lat="0" lon="0">
        <time>2020-12-20T09:08:35.563000+00:00</time>
      </trkpt>
      <trkpt lat="47.32642" lon="-1.27168">
        <ele>124</ele>
        <time>2020-12-20T09:08:36.512000+00:00</time>
      </trkpt>
      <trkpt lat="0" lon="0">
        <time>2020-12-20T09:08:36.517000+00:00</time>
      </trkpt>
      <trkpt lat="0" lon="0">
        <time>2020-12-20T09:08:36.527000+00:00</time>
      </trkpt>
      <trkpt lat="0" lon="0">
        <time>2020-12-20T09:08:36.530000+00:00</time>
      </trkpt>
      <trkpt lat="47.32643" lon="-1.2716">
        <ele>124</ele>
        <time>2020-12-20T09:08:37.434000+00:00</time>
      </trkpt>
      <trkpt lat="0" lon="0">
        <time>2020-12-20T09:08:37.435000+00:00</time>
      </trkpt>
      <trkpt lat="0" lon="0">
        <time>2020-12-20T09:08:37.436000+00:00</time>
      </trkpt>
      <trkpt lat="0" lon="0">
        <time>2020-12-20T09:08:37.437000+00:00</time>
      </trkpt>
      <trkpt lat="47.32644" lon="-1.27152">
        <ele>124</ele>
        <time>2020-12-20T09:08:38.451000+00:00</time>
      </trkpt>
      <trkpt lat="0" lon="0">
        <time>2020-12-20T09:08:38.455000+00:00</time>
      </trkpt>
      <trkpt lat="0" lon="0">
        <time>2020-12-20T09:08:38.461000+00:00</time>
      </trkpt>
      <trkpt lat="0" lon="0">
        <time>2020-12-20T09:08:38.463000+00:00</time>
      </trkpt>
      <trkpt lat="47.32646" lon="-1.27145">
        <ele>124</ele>
        <time>2020-12-20T09:08:39.528000+00:00</time>
      </trkpt>
      <trkpt lat="0" lon="0">
        <time>2020-12-20T09:08:39.540000+00:00</time>
      </trkpt>
      <trkpt lat="0" lon="0">
        <time>2020-12-20T09:08:39.542000+00:00</time>
      </trkpt>
      <trkpt lat="0" lon="0">
        <time>2020-12-20T09:08:39.543000+00:00</time>
      </trkpt>
      <trkpt lat="47.32648" lon="-1.27137">
        <ele>124</ele>
        <time>2020-12-20T09:08:40.511000+00:00</time>
      </trkpt>
      <trkpt lat="0" lon="0">
        <time>2020-12-20T09:08:40.517000+00:00</time>
      </trkpt>
      <trkpt lat="0" lon="0">
        <time>2020-12-20T09:08:40.528000+00:00</time>
      </trkpt>
      <trkpt lat="0" lon="0">
        <time>2020-12-20T09:08:40.529000+00:00</time>
      </trkpt>
      <trkpt lat="47.32649" lon="-1.2713">
        <ele>124</ele>
        <time>2020-12-20T09:08:41.502000+00:00</time>
      </trkpt>
      <trkpt lat="0" lon="0">
        <time>2020-12-20T09:08:41.515000+00:00</time>
      </trkpt>
      <trkpt lat="0" lon="0">
        <time>2020-12-20T09:08:41.520000+00:00</time>
      </trkpt>
      <trkpt lat="0" lon="0">
        <time>2020-12-20T09:08:41.524000+00:00</time>
      </trkpt>
      <trkpt lat="47.32651" lon="-1.27123">
        <ele>124</ele>
        <time>2020-12-20T09:08:42.527000+00:00</time>
      </trkpt>
      <trkpt lat="0" lon="0">
        <time>2020-12-20T09:08:42.536000+00:00</time>
      </trkpt>
      <trkpt lat="0" lon="0">
        <time>2020-12-20T09:08:42.547000+00:00</time>
      </trkpt>
      <trkpt lat="0" lon="0">
        <time>2020-12-20T09:08:42.550000+00:00</time>
      </trkpt>
      <trkpt lat="47.32653" lon="-1.27116">
        <ele>124</ele>
        <time>2020-12-20T09:08:43.519000+00:00</time>
      </trkpt>
      <trkpt lat="0" lon="0">
        <time>2020-12-20T09:08:43.529000+00:00</time>
      </trkpt>
      <trkpt lat="0" lon="0">
        <time>2020-12-20T09:08:43.534000+00:00</time>
      </trkpt>
      <trkpt lat="0" lon="0">
        <time>2020-12-20T09:08:43.545000+00:00</time>
      </trkpt>
      <trkpt lat="47.32656" lon="-1.27109">
        <ele>123</ele>
        <time>2020-12-20T09:08:44.517000+00:00</time>
      </trkpt>
      <trkpt lat="0" lon="0">
        <time>2020-12-20T09:08:44.526000+00:00</time>
      </trkpt>
      <trkpt lat="0" lon="0">
        <time>2020-12-20T09:08:44.542000+00:00</time>
      </trkpt>
      <trkpt lat="0" lon="0">
        <time>2020-12-20T09:08:44.547000+00:00</time>
      </trkpt>
      <trkpt lat="47.32658" lon="-1.27103">
        <ele>123</ele>
        <time>2020-12-20T09:08:45.542000+00:00</time>
      </trkpt>
      <trkpt lat="0" lon="0">
        <time>2020-12-20T09:08:45.553000+00:00</time>
      </trkpt>
      <trkpt lat="0" lon="0">
        <time>2020-12-20T09:08:45.568000+00:00</time>
      </trkpt>
      <trkpt lat="0" lon="0">
        <time>2020-12-20T09:08:45.575000+00:00</time>
      </trkpt>
      <trkpt lat="47.32661" lon="-1.27096">
        <ele>123</ele>
        <time>2020-12-20T09:08:46.518000+00:00</time>
      </trkpt>
      <trkpt lat="0" lon="0">
        <time>2020-12-20T09:08:46.534000+00:00</time>
      </trkpt>
      <trkpt lat="0" lon="0">
        <time>2020-12-20T09:08:46.539000+00:00</time>
      </trkpt>
      <trkpt lat="0" lon="0">
        <time>2020-12-20T09:08:46.541000+00:00</time>
      </trkpt>
      <trkpt lat="47.32664" lon="-1.2709">
        <ele>123</ele>
        <time>2020-12-20T09:08:47.515000+00:00</time>
      </trkpt>
      <trkpt lat="0" lon="0">
        <time>2020-12-20T09:08:47.528000+00:00</time>
      </trkpt>
      <trkpt lat="0" lon="0">
        <time>2020-12-20T09:08:47.532000+00:00</time>
      </trkpt>
      <trkpt lat="0" lon="0">
        <time>2020-12-20T09:08:47.534000+00:00</time>
      </trkpt>
      <trkpt lat="47.32667" lon="-1.27084">
        <ele>123</ele>
        <time>2020-12-20T09:08:48.545000+00:00</time>
      </trkpt>
      <trkpt lat="0" lon="0">
        <time>2020-12-20T09:08:48.549000+00:00</time>
      </trkpt>
      <trkpt lat="0" lon="0">
        <time>2020-12-20T09:08:48.563000+00:00</time>
      </trkpt>
      <trkpt lat="0" lon="0">
        <time>2020-12-20T09:08:48.565000+00:00</time>
      </trkpt>
      <trkpt lat="47.32671" lon="-1.27078">
        <ele>123</ele>
        <time>2020-12-20T09:08:49.540000+00:00</time>
      </trkpt>
      <trkpt lat="0" lon="0">
        <time>2020-12-20T09:08:49.549000+00:00</time>
      </trkpt>
      <trkpt lat="0" lon="0">
        <time>2020-12-20T09:08:49.556000+00:00</time>
      </trkpt>
      <trkpt lat="0" lon="0">
        <time>2020-12-20T09:08:49.562000+00:00</time>
      </trkpt>
      <trkpt lat="47.32674" lon="-1.27073">
        <ele>123</ele>
        <time>2020-12-20T09:08:50.496000+00:00</time>
      </trkpt>
      <trkpt lat="0" lon="0">
        <time>2020-12-20T09:08:50.513000+00:00</time>
      </trkpt>
      <trkpt lat="0" lon="0">
        <time>2020-12-20T09:08:50.515000+00:00</time>
      </trkpt>
      <trkpt lat="47.32678" lon="-1.27067">
        <ele>124</ele>
        <time>2020-12-20T09:08:51.536000+00:00</time>
      </trkpt>
      <trkpt lat="0" lon="0">
        <time>2020-12-20T09:08:51.542000+00:00</time>
      </trkpt>
      <trkpt lat="0" lon="0">
        <time>2020-12-20T09:08:51.554000+00:00</time>
      </trkpt>
      <trkpt lat="0" lon="0">
        <time>2020-12-20T09:08:51.557000+00:00</time>
      </trkpt>
      <trkpt lat="47.32682" lon="-1.27062">
        <ele>124</ele>
        <time>2020-12-20T09:08:52.504000+00:00</time>
      </trkpt>
      <trkpt lat="0" lon="0">
        <time>2020-12-20T09:08:52.518000+00:00</time>
      </trkpt>
      <trkpt lat="0" lon="0">
        <time>2020-12-20T09:08:52.528000+00:00</time>
      </trkpt>
      <trkpt lat="0" lon="0">
        <time>2020-12-20T09:08:52.533000+00:00</time>
      </trkpt>
      <trkpt lat="47.32686" lon="-1.27057">
        <ele>124</ele>
        <time>2020-12-20T09:08:53.532000+00:00</time>
      </trkpt>
      <trkpt lat="0" lon="0">
        <time>2020-12-20T09:08:53.541000+00:00</time>
      </trkpt>
      <trkpt lat="0" lon="0">
        <time>2020-12-20T09:08:53.548000+00:00</time>
      </trkpt>
      <trkpt lat="0" lon="0">
        <time>2020-12-20T09:08:53.551000+00:00</time>
      </trkpt>
      <trkpt lat="47.3269" lon="-1.27051">
        <ele>124</ele>
        <time>2020-12-20T09:08:54.520000+00:00</time>
      </trkpt>
      <trkpt lat="0" lon="0">
        <time>2020-12-20T09:08:54.528000+00:00</time>
      </trkpt>
      <trkpt lat="0" lon="0">
        <time>2020-12-20T09:08:54.535000+00:00</time>
      </trkpt>
      <trkpt lat="0" lon="0">
        <time>2020-12-20T09:08:54.543000+00:00</time>
      </trkpt>
      <trkpt lat="47.32694" lon="-1.27045">
        <ele>125</ele>
        <time>2020-12-20T09:08:55.567000+00:00</time>
      </trkpt>
      <trkpt lat="0" lon="0">
        <time>2020-12-20T09:08:55.579000+00:00</time>
      </trkpt>
      <trkpt lat="0" lon="0">
        <time>2020-12-20T09:08:55.584000+00:00</time>
      </trkpt>
      <trkpt lat="0" lon="0">
        <time>2020-12-20T09:08:55.588000+00:00</time>
      </trkpt>
      <trkpt lat="47.32698" lon="-1.27039">
        <ele>125</ele>
        <time>2020-12-20T09:08:56.547000+00:00</time>
      </trkpt>
      <trkpt lat="0" lon="0">
        <time>2020-12-20T09:08:56.555000+00:00</time>
      </trkpt>
      <trkpt lat="0" lon="0">
        <time>2020-12-20T09:08:56.559000+00:00</time>
      </trkpt>
      <trkpt lat="0" lon="0">
        <time>2020-12-20T09:08:56.562000+00:00</time>
      </trkpt>
      <trkpt lat="47.32701" lon="-1.27033">
        <ele>124</ele>
        <time>2020-12-20T09:08:57.532000+00:00</time>
      </trkpt>
      <trkpt lat="0" lon="0">
        <time>2020-12-20T09:08:57.534000+00:00</time>
      </trkpt>
      <trkpt lat="0" lon="0">
        <time>2020-12-20T09:08:57.536000+00:00</time>
      </trkpt>
      <trkpt lat="0" lon="0">
        <time>2020-12-20T09:08:57.537000+00:00</time>
      </trkpt>
      <trkpt lat="47.32705" lon="-1.27026">
        <ele>124</ele>
        <time>2020-12-20T09:08:58.527000+00:00</time>
      </trkpt>
      <trkpt lat="0" lon="0">
        <time>2020-12-20T09:08:58.538000+00:00</time>
      </trkpt>
      <trkpt lat="0" lon="0">
        <time>2020-12-20T09:08:58.544000+00:00</time>
      </trkpt>
      <trkpt lat="0" lon="0">
        <time>2020-12-20T09:08:58.549000+00:00</time>
      </trkpt>
      <trkpt lat="47.32708" lon="-1.27019">
        <ele>124</ele>
        <time>2020-12-20T09:08:59.533000+00:00</time>
      </trkpt>
      <trkpt lat="0" lon="0">
        <time>2020-12-20T09:08:59.540000+00:00</time>
      </trkpt>
      <trkpt lat="0" lon="0">
        <time>2020-12-20T09:08:59.543000+00:00</time>
      </trkpt>
      <trkpt lat="0" lon="0">
        <time>2020-12-20T09:08:59.545000+00:00</time>
      </trkpt>
      <trkpt lat="47.32711" lon="-1.27012">
        <ele>124</ele>
        <time>2020-12-20T09:09:00.542000+00:00</time>
      </trkpt>
      <trkpt lat="0" lon="0">
        <time>2020-12-20T09:09:00.547000+00:00</time>
      </trkpt>
      <trkpt lat="0" lon="0">
        <time>2020-12-20T09:09:00.551000+00:00</time>
      </trkpt>
      <trkpt lat="0" lon="0">
        <time>2020-12-20T09:09:00.554000+00:00</time>
      </trkpt>
      <trkpt lat="47.32715" lon="-1.27005">
        <ele>124</ele>
        <time>2020-12-20T09:09:01.546000+00:00</time>
      </trkpt>
      <trkpt lat="0" lon="0">
        <time>2020-12-20T09:09:01.571000+00:00</time>
      </trkpt>
      <trkpt lat="0" lon="0">
        <time>2020-12-20T09:09:01.575000+00:00</time>
      </trkpt>
      <trkpt lat="0" lon="0">
        <time>2020-12-20T09:09:01.576000+00:00</time>
      </trkpt>
      <trkpt lat="47.32718" lon="-1.26998">
        <ele>124</ele>
        <time>2020-12-20T09:09:02.547000+00:00</time>
      </trkpt>
      <trkpt lat="0" lon="0">
        <time>2020-12-20T09:09:02.556000+00:00</time>
      </trkpt>
      <trkpt lat="0" lon="0">
        <time>2020-12-20T09:09:02.560000+00:00</time>
      </trkpt>
      <trkpt lat="0" lon="0">
        <time>2020-12-20T09:09:02.564000+00:00</time>
      </trkpt>
      <trkpt lat="47.32722" lon="-1.26991">
        <ele>124</ele>
        <time>2020-12-20T09:09:03.517000+00:00</time>
      </trkpt>
      <trkpt lat="0" lon="0">
        <time>2020-12-20T09:09:03.535000+00:00</time>
      </trkpt>
      <trkpt lat="0" lon="0">
        <time>2020-12-20T09:09:03.543000+00:00</time>
      </trkpt>
      <trkpt lat="0" lon="0">
        <time>2020-12-20T09:09:03.546000+00:00</time>
      </trkpt>
      <trkpt lat="47.32725" lon="-1.26984">
        <ele>123</ele>
        <time>2020-12-20T09:09:04.597000+00:00</time>
      </trkpt>
      <trkpt lat="0" lon="0">
        <time>2020-12-20T09:09:04.599000+00:00</time>
      </trkpt>
      <trkpt lat="0" lon="0">
        <time>2020-12-20T09:09:04.608000+00:00</time>
      </trkpt>
      <trkpt lat="0" lon="0">
        <time>2020-12-20T09:09:04.610000+00:00</time>
      </trkpt>
      <trkpt lat="47.32729" lon="-1.26977">
        <ele>123</ele>
        <time>2020-12-20T09:09:05.506000+00:00</time>
      </trkpt>
      <trkpt lat="0" lon="0">
        <time>2020-12-20T09:09:05.521000+00:00</time>
      </trkpt>
      <trkpt lat="0" lon="0">
        <time>2020-12-20T09:09:05.528000+00:00</time>
      </trkpt>
      <trkpt lat="0" lon="0">
        <time>2020-12-20T09:09:05.533000+00:00</time>
      </trkpt>
      <trkpt lat="47.32732" lon="-1.2697">
        <ele>123</ele>
        <time>2020-12-20T09:09:06.524000+00:00</time>
      </trkpt>
      <trkpt lat="0" lon="0">
        <time>2020-12-20T09:09:06.539000+00:00</time>
      </trkpt>
      <trkpt lat="0" lon="0">
        <time>2020-12-20T09:09:06.542000+00:00</time>
      </trkpt>
      <trkpt lat="0" lon="0">
        <time>2020-12-20T09:09:06.544000+00:00</time>
      </trkpt>
      <trkpt lat="47.32736" lon="-1.26963">
        <ele>123</ele>
        <time>2020-12-20T09:09:07.495000+00:00</time>
      </trkpt>
      <trkpt lat="0" lon="0">
        <time>2020-12-20T09:09:07.504000+00:00</time>
      </trkpt>
      <trkpt lat="0" lon="0">
        <time>2020-12-20T09:09:07.508000+00:00</time>
      </trkpt>
      <trkpt lat="0" lon="0">
        <time>2020-12-20T09:09:07.510000+00:00</time>
      </trkpt>
      <trkpt lat="47.3274" lon="-1.26955">
        <ele>123</ele>
        <time>2020-12-20T09:09:08.515000+00:00</time>
      </trkpt>
      <trkpt lat="0" lon="0">
        <time>2020-12-20T09:09:08.523000+00:00</time>
      </trkpt>
      <trkpt lat="0" lon="0">
        <time>2020-12-20T09:09:08.530000+00:00</time>
      </trkpt>
      <trkpt lat="0" lon="0">
        <time>2020-12-20T09:09:08.533000+00:00</time>
      </trkpt>
      <trkpt lat="47.32744" lon="-1.26948">
        <ele>123</ele>
        <time>2020-12-20T09:09:09.538000+00:00</time>
      </trkpt>
      <trkpt lat="0" lon="0">
        <time>2020-12-20T09:09:09.541000+00:00</time>
      </trkpt>
      <trkpt lat="0" lon="0">
        <time>2020-12-20T09:09:09.546000+00:00</time>
      </trkpt>
      <trkpt lat="0" lon="0">
        <time>2020-12-20T09:09:09.548000+00:00</time>
      </trkpt>
      <trkpt lat="47.32748" lon="-1.26941">
        <ele>123</ele>
        <time>2020-12-20T09:09:10.502000+00:00</time>
      </trkpt>
      <trkpt lat="0" lon="0">
        <time>2020-12-20T09:09:10.504000+00:00</time>
      </trkpt>
      <trkpt lat="0" lon="0">
        <time>2020-12-20T09:09:10.506000+00:00</time>
      </trkpt>
      <trkpt lat="0" lon="0">
        <time>2020-12-20T09:09:10.507000+00:00</time>
      </trkpt>
      <trkpt lat="47.32752" lon="-1.26934">
        <ele>122</ele>
        <time>2020-12-20T09:09:11.535000+00:00</time>
      </trkpt>
      <trkpt lat="0" lon="0">
        <time>2020-12-20T09:09:11.542000+00:00</time>
      </trkpt>
      <trkpt lat="0" lon="0">
        <time>2020-12-20T09:09:11.544000+00:00</time>
      </trkpt>
      <trkpt lat="0" lon="0">
        <time>2020-12-20T09:09:11.545000+00:00</time>
      </trkpt>
      <trkpt lat="47.32756" lon="-1.26926">
        <ele>122</ele>
        <time>2020-12-20T09:09:12.524000+00:00</time>
      </trkpt>
      <trkpt lat="0" lon="0">
        <time>2020-12-20T09:09:12.531000+00:00</time>
      </trkpt>
      <trkpt lat="0" lon="0">
        <time>2020-12-20T09:09:12.535000+00:00</time>
      </trkpt>
      <trkpt lat="0" lon="0">
        <time>2020-12-20T09:09:12.540000+00:00</time>
      </trkpt>
      <trkpt lat="47.32759" lon="-1.26919">
        <ele>122</ele>
        <time>2020-12-20T09:09:13.511000+00:00</time>
      </trkpt>
      <trkpt lat="0" lon="0">
        <time>2020-12-20T09:09:13.530000+00:00</time>
      </trkpt>
      <trkpt lat="0" lon="0">
        <time>2020-12-20T09:09:13.534000+00:00</time>
      </trkpt>
      <trkpt lat="0" lon="0">
        <time>2020-12-20T09:09:13.538000+00:00</time>
      </trkpt>
      <trkpt lat="47.32763" lon="-1.26911">
        <ele>122</ele>
        <time>2020-12-20T09:09:14.530000+00:00</time>
      </trkpt>
      <trkpt lat="0" lon="0">
        <time>2020-12-20T09:09:14.539000+00:00</time>
      </trkpt>
      <trkpt lat="0" lon="0">
        <time>2020-12-20T09:09:14.544000+00:00</time>
      </trkpt>
      <trkpt lat="0" lon="0">
        <time>2020-12-20T09:09:14.550000+00:00</time>
      </trkpt>
      <trkpt lat="47.32767" lon="-1.26904">
        <ele>122</ele>
        <time>2020-12-20T09:09:15.546000+00:00</time>
      </trkpt>
      <trkpt lat="0" lon="0">
        <time>2020-12-20T09:09:15.551000+00:00</time>
      </trkpt>
      <trkpt lat="0" lon="0">
        <time>2020-12-20T09:09:15.555000+00:00</time>
      </trkpt>
      <trkpt lat="0" lon="0">
        <time>2020-12-20T09:09:15.558000+00:00</time>
      </trkpt>
      <trkpt lat="47.32771" lon="-1.26896">
        <ele>122</ele>
        <time>2020-12-20T09:09:16.506000+00:00</time>
      </trkpt>
      <trkpt lat="0" lon="0">
        <time>2020-12-20T09:09:16.517000+00:00</time>
      </trkpt>
      <trkpt lat="0" lon="0">
        <time>2020-12-20T09:09:16.523000+00:00</time>
      </trkpt>
      <trkpt lat="0" lon="0">
        <time>2020-12-20T09:09:16.525000+00:00</time>
      </trkpt>
      <trkpt lat="47.32775" lon="-1.26889">
        <ele>122</ele>
        <time>2020-12-20T09:09:17.560000+00:00</time>
      </trkpt>
      <trkpt lat="0" lon="0">
        <time>2020-12-20T09:09:17.568000+00:00</time>
      </trkpt>
      <trkpt lat="0" lon="0">
        <time>2020-12-20T09:09:17.576000+00:00</time>
      </trkpt>
      <trkpt lat="0" lon="0">
        <time>2020-12-20T09:09:17.579000+00:00</time>
      </trkpt>
      <trkpt lat="47.32779" lon="-1.26881">
        <ele>122</ele>
        <time>2020-12-20T09:09:18.509000+00:00</time>
      </trkpt>
      <trkpt lat="0" lon="0">
        <time>2020-12-20T09:09:18.523000+00:00</time>
      </trkpt>
      <trkpt lat="0" lon="0">
        <time>2020-12-20T09:09:18.532000+00:00</time>
      </trkpt>
      <trkpt lat="0" lon="0">
        <time>2020-12-20T09:09:18.535000+00:00</time>
      </trkpt>
      <trkpt lat="47.32783" lon="-1.26874">
        <ele>122</ele>
        <time>2020-12-20T09:09:19.537000+00:00</time>
      </trkpt>
      <trkpt lat="0" lon="0">
        <time>2020-12-20T09:09:19.543000+00:00</time>
      </trkpt>
      <trkpt lat="0" lon="0">
        <time>2020-12-20T09:09:19.548000+00:00</time>
      </trkpt>
      <trkpt lat="0" lon="0">
        <time>2020-12-20T09:09:19.551000+00:00</time>
      </trkpt>
      <trkpt lat="47.32786" lon="-1.26867">
        <ele>122</ele>
        <time>2020-12-20T09:09:20.520000+00:00</time>
      </trkpt>
      <trkpt lat="0" lon="0">
        <time>2020-12-20T09:09:20.535000+00:00</time>
      </trkpt>
      <trkpt lat="0" lon="0">
        <time>2020-12-20T09:09:20.537000+00:00</time>
      </trkpt>
      <trkpt lat="0" lon="0">
        <time>2020-12-20T09:09:20.538000+00:00</time>
      </trkpt>
      <trkpt lat="47.3279" lon="-1.26859">
        <ele>122</ele>
        <time>2020-12-20T09:09:21.515000+00:00</time>
      </trkpt>
      <trkpt lat="0" lon="0">
        <time>2020-12-20T09:09:21.521000+00:00</time>
      </trkpt>
      <trkpt lat="0" lon="0">
        <time>2020-12-20T09:09:21.528000+00:00</time>
      </trkpt>
      <trkpt lat="0" lon="0">
        <time>2020-12-20T09:09:21.531000+00:00</time>
      </trkpt>
      <trkpt lat="47.32794" lon="-1.26852">
        <ele>121</ele>
        <time>2020-12-20T09:09:22.494000+00:00</time>
      </trkpt>
      <trkpt lat="0" lon="0">
        <time>2020-12-20T09:09:22.501000+00:00</time>
      </trkpt>
      <trkpt lat="0" lon="0">
        <time>2020-12-20T09:09:22.509000+00:00</time>
      </trkpt>
      <trkpt lat="0" lon="0">
        <time>2020-12-20T09:09:22.511000+00:00</time>
      </trkpt>
      <trkpt lat="47.32798" lon="-1.26845">
        <ele>121</ele>
        <time>2020-12-20T09:09:23.518000+00:00</time>
      </trkpt>
      <trkpt lat="0" lon="0">
        <time>2020-12-20T09:09:23.522000+00:00</time>
      </trkpt>
      <trkpt lat="0" lon="0">
        <time>2020-12-20T09:09:23.539000+00:00</time>
      </trkpt>
      <trkpt lat="0" lon="0">
        <time>2020-12-20T09:09:23.543000+00:00</time>
      </trkpt>
      <trkpt lat="47.32802" lon="-1.26837">
        <ele>121</ele>
        <time>2020-12-20T09:09:24.507000+00:00</time>
      </trkpt>
      <trkpt lat="0" lon="0">
        <time>2020-12-20T09:09:24.517000+00:00</time>
      </trkpt>
      <trkpt lat="0" lon="0">
        <time>2020-12-20T09:09:24.525000+00:00</time>
      </trkpt>
      <trkpt lat="0" lon="0">
        <time>2020-12-20T09:09:24.527000+00:00</time>
      </trkpt>
      <trkpt lat="47.32806" lon="-1.2683">
        <ele>121</ele>
        <time>2020-12-20T09:09:25.540000+00:00</time>
      </trkpt>
      <trkpt lat="0" lon="0">
        <time>2020-12-20T09:09:25.544000+00:00</time>
      </trkpt>
      <trkpt lat="0" lon="0">
        <time>2020-12-20T09:09:25.549000+00:00</time>
      </trkpt>
      <trkpt lat="0" lon="0">
        <time>2020-12-20T09:09:25.558000+00:00</time>
      </trkpt>
      <trkpt lat="47.3281" lon="-1.26823">
        <ele>120</ele>
        <time>2020-12-20T09:09:26.533000+00:00</time>
      </trkpt>
      <trkpt lat="0" lon="0">
        <time>2020-12-20T09:09:26.549000+00:00</time>
      </trkpt>
      <trkpt lat="0" lon="0">
        <time>2020-12-20T09:09:26.553000+00:00</time>
      </trkpt>
      <trkpt lat="0" lon="0">
        <time>2020-12-20T09:09:26.555000+00:00</time>
      </trkpt>
      <trkpt lat="47.32814" lon="-1.26815">
        <ele>120</ele>
        <time>2020-12-20T09:09:27.536000+00:00</time>
      </trkpt>
      <trkpt lat="0" lon="0">
        <time>2020-12-20T09:09:27.543000+00:00</time>
      </trkpt>
      <trkpt lat="0" lon="0">
        <time>2020-12-20T09:09:27.553000+00:00</time>
      </trkpt>
      <trkpt lat="0" lon="0">
        <time>2020-12-20T09:09:27.558000+00:00</time>
      </trkpt>
      <trkpt lat="47.32817" lon="-1.26807">
        <ele>120</ele>
        <time>2020-12-20T09:09:28.536000+00:00</time>
      </trkpt>
      <trkpt lat="0" lon="0">
        <time>2020-12-20T09:09:28.543000+00:00</time>
      </trkpt>
      <trkpt lat="0" lon="0">
        <time>2020-12-20T09:09:28.547000+00:00</time>
      </trkpt>
      <trkpt lat="0" lon="0">
        <time>2020-12-20T09:09:28.549000+00:00</time>
      </trkpt>
      <trkpt lat="47.32821" lon="-1.268">
        <ele>120</ele>
        <time>2020-12-20T09:09:29.533000+00:00</time>
      </trkpt>
      <trkpt lat="0" lon="0">
        <time>2020-12-20T09:09:29.547000+00:00</time>
      </trkpt>
      <trkpt lat="0" lon="0">
        <time>2020-12-20T09:09:29.553000+00:00</time>
      </trkpt>
      <trkpt lat="0" lon="0">
        <time>2020-12-20T09:09:29.556000+00:00</time>
      </trkpt>
      <trkpt lat="47.32825" lon="-1.26792">
        <ele>120</ele>
        <time>2020-12-20T09:09:30.531000+00:00</time>
      </trkpt>
      <trkpt lat="0" lon="0">
        <time>2020-12-20T09:09:30.549000+00:00</time>
      </trkpt>
      <trkpt lat="0" lon="0">
        <time>2020-12-20T09:09:30.555000+00:00</time>
      </trkpt>
      <trkpt lat="0" lon="0">
        <time>2020-12-20T09:09:30.558000+00:00</time>
      </trkpt>
      <trkpt lat="47.32828" lon="-1.26784">
        <ele>121</ele>
        <time>2020-12-20T09:09:31.557000+00:00</time>
      </trkpt>
      <trkpt lat="0" lon="0">
        <time>2020-12-20T09:09:31.566000+00:00</time>
      </trkpt>
      <trkpt lat="0" lon="0">
        <time>2020-12-20T09:09:31.577000+00:00</time>
      </trkpt>
      <trkpt lat="0" lon="0">
        <time>2020-12-20T09:09:31.580000+00:00</time>
      </trkpt>
      <trkpt lat="47.32831" lon="-1.26776">
        <ele>121</ele>
        <time>2020-12-20T09:09:32.520000+00:00</time>
      </trkpt>
      <trkpt lat="0" lon="0">
        <time>2020-12-20T09:09:32.526000+00:00</time>
      </trkpt>
      <trkpt lat="0" lon="0">
        <time>2020-12-20T09:09:32.530000+00:00</time>
      </trkpt>
      <trkpt lat="0" lon="0">
        <time>2020-12-20T09:09:32.532000+00:00</time>
      </trkpt>
      <trkpt lat="47.32834" lon="-1.26768">
        <ele>121</ele>
        <time>2020-12-20T09:09:33.535000+00:00</time>
      </trkpt>
      <trkpt lat="0" lon="0">
        <time>2020-12-20T09:09:33.546000+00:00</time>
      </trkpt>
      <trkpt lat="0" lon="0">
        <time>2020-12-20T09:09:33.553000+00:00</time>
      </trkpt>
      <trkpt lat="0" lon="0">
        <time>2020-12-20T09:09:33.563000+00:00</time>
      </trkpt>
      <trkpt lat="47.32837" lon="-1.2676">
        <ele>121</ele>
        <time>2020-12-20T09:09:34.541000+00:00</time>
      </trkpt>
      <trkpt lat="0" lon="0">
        <time>2020-12-20T09:09:34.560000+00:00</time>
      </trkpt>
      <trkpt lat="0" lon="0">
        <time>2020-12-20T09:09:34.565000+00:00</time>
      </trkpt>
      <trkpt lat="0" lon="0">
        <time>2020-12-20T09:09:34.567000+00:00</time>
      </trkpt>
      <trkpt lat="47.32839" lon="-1.26752">
        <ele>122</ele>
        <time>2020-12-20T09:09:35.506000+00:00</time>
      </trkpt>
      <trkpt lat="0" lon="0">
        <time>2020-12-20T09:09:35.510000+00:00</time>
      </trkpt>
      <trkpt lat="0" lon="0">
        <time>2020-12-20T09:09:35.514000+00:00</time>
      </trkpt>
      <trkpt lat="0" lon="0">
        <time>2020-12-20T09:09:35.517000+00:00</time>
      </trkpt>
      <trkpt lat="47.32842" lon="-1.26743">
        <ele>121</ele>
        <time>2020-12-20T09:09:36.530000+00:00</time>
      </trkpt>
      <trkpt lat="0" lon="0">
        <time>2020-12-20T09:09:36.532000+00:00</time>
      </trkpt>
      <trkpt lat="0" lon="0">
        <time>2020-12-20T09:09:36.533000+00:00</time>
      </trkpt>
      <trkpt lat="47.32844" lon="-1.26735">
        <ele>121</ele>
        <time>2020-12-20T09:09:37.514000+00:00</time>
      </trkpt>
      <trkpt lat="0" lon="0">
        <time>2020-12-20T09:09:37.518000+00:00</time>
      </trkpt>
      <trkpt lat="0" lon="0">
        <time>2020-12-20T09:09:37.520000+00:00</time>
      </trkpt>
      <trkpt lat="47.32846" lon="-1.26726">
        <ele>121</ele>
        <time>2020-12-20T09:09:38.514000+00:00</time>
      </trkpt>
      <trkpt lat="0" lon="0">
        <time>2020-12-20T09:09:38.534000+00:00</time>
      </trkpt>
      <trkpt lat="0" lon="0">
        <time>2020-12-20T09:09:38.542000+00:00</time>
      </trkpt>
      <trkpt lat="0" lon="0">
        <time>2020-12-20T09:09:38.544000+00:00</time>
      </trkpt>
      <trkpt lat="47.32847" lon="-1.26718">
        <ele>121</ele>
        <time>2020-12-20T09:09:39.513000+00:00</time>
      </trkpt>
      <trkpt lat="0" lon="0">
        <time>2020-12-20T09:09:39.522000+00:00</time>
      </trkpt>
      <trkpt lat="0" lon="0">
        <time>2020-12-20T09:09:39.527000+00:00</time>
      </trkpt>
      <trkpt lat="0" lon="0">
        <time>2020-12-20T09:09:39.529000+00:00</time>
      </trkpt>
      <trkpt lat="47.32849" lon="-1.26709">
        <ele>121</ele>
        <time>2020-12-20T09:09:40.596000+00:00</time>
      </trkpt>
      <trkpt lat="0" lon="0">
        <time>2020-12-20T09:09:40.604000+00:00</time>
      </trkpt>
      <trkpt lat="0" lon="0">
        <time>2020-12-20T09:09:40.609000+00:00</time>
      </trkpt>
      <trkpt lat="0" lon="0">
        <time>2020-12-20T09:09:40.612000+00:00</time>
      </trkpt>
      <trkpt lat="47.3285" lon="-1.267">
        <ele>120</ele>
        <time>2020-12-20T09:09:41.537000+00:00</time>
      </trkpt>
      <trkpt lat="0" lon="0">
        <time>2020-12-20T09:09:41.555000+00:00</time>
      </trkpt>
      <trkpt lat="0" lon="0">
        <time>2020-12-20T09:09:41.559000+00:00</time>
      </trkpt>
      <trkpt lat="0" lon="0">
        <time>2020-12-20T09:09:41.563000+00:00</time>
      </trkpt>
      <trkpt lat="47.32851" lon="-1.26691">
        <ele>120</ele>
        <time>2020-12-20T09:09:42.517000+00:00</time>
      </trkpt>
      <trkpt lat="0" lon="0">
        <time>2020-12-20T09:09:42.523000+00:00</time>
      </trkpt>
      <trkpt lat="0" lon="0">
        <time>2020-12-20T09:09:42.528000+00:00</time>
      </trkpt>
      <trkpt lat="0" lon="0">
        <time>2020-12-20T09:09:42.531000+00:00</time>
      </trkpt>
      <trkpt lat="47.32852" lon="-1.26683">
        <ele>120</ele>
        <time>2020-12-20T09:09:43.531000+00:00</time>
      </trkpt>
      <trkpt lat="0" lon="0">
        <time>2020-12-20T09:09:43.533000+00:00</time>
      </trkpt>
      <trkpt lat="0" lon="0">
        <time>2020-12-20T09:09:43.539000+00:00</time>
      </trkpt>
      <trkpt lat="0" lon="0">
        <time>2020-12-20T09:09:43.542000+00:00</time>
      </trkpt>
      <trkpt lat="47.32853" lon="-1.26675">
        <ele>120</ele>
        <time>2020-12-20T09:09:44.523000+00:00</time>
      </trkpt>
      <trkpt lat="0" lon="0">
        <time>2020-12-20T09:09:44.528000+00:00</time>
      </trkpt>
      <trkpt lat="0" lon="0">
        <time>2020-12-20T09:09:44.533000+00:00</time>
      </trkpt>
      <trkpt lat="0" lon="0">
        <time>2020-12-20T09:09:44.536000+00:00</time>
      </trkpt>
      <trkpt lat="47.32854" lon="-1.26666">
        <ele>120</ele>
        <time>2020-12-20T09:09:45.555000+00:00</time>
      </trkpt>
      <trkpt lat="0" lon="0">
        <time>2020-12-20T09:09:45.564000+00:00</time>
      </trkpt>
      <trkpt lat="0" lon="0">
        <time>2020-12-20T09:09:45.569000+00:00</time>
      </trkpt>
      <trkpt lat="0" lon="0">
        <time>2020-12-20T09:09:45.571000+00:00</time>
      </trkpt>
      <trkpt lat="47.32855" lon="-1.26658">
        <ele>120</ele>
        <time>2020-12-20T09:09:46.540000+00:00</time>
      </trkpt>
      <trkpt lat="0" lon="0">
        <time>2020-12-20T09:09:46.557000+00:00</time>
      </trkpt>
      <trkpt lat="0" lon="0">
        <time>2020-12-20T09:09:46.563000+00:00</time>
      </trkpt>
      <trkpt lat="0" lon="0">
        <time>2020-12-20T09:09:46.567000+00:00</time>
      </trkpt>
      <trkpt lat="47.32855" lon="-1.26649">
        <ele>120</ele>
        <time>2020-12-20T09:09:47.550000+00:00</time>
      </trkpt>
      <trkpt lat="0" lon="0">
        <time>2020-12-20T09:09:47.564000+00:00</time>
      </trkpt>
      <trkpt lat="0" lon="0">
        <time>2020-12-20T09:09:47.573000+00:00</time>
      </trkpt>
      <trkpt lat="0" lon="0">
        <time>2020-12-20T09:09:47.575000+00:00</time>
      </trkpt>
      <trkpt lat="47.32855" lon="-1.26641">
        <ele>120</ele>
        <time>2020-12-20T09:09:48.534000+00:00</time>
      </trkpt>
      <trkpt lat="0" lon="0">
        <time>2020-12-20T09:09:48.539000+00:00</time>
      </trkpt>
      <trkpt lat="0" lon="0">
        <time>2020-12-20T09:09:48.548000+00:00</time>
      </trkpt>
      <trkpt lat="0" lon="0">
        <time>2020-12-20T09:09:48.550000+00:00</time>
      </trkpt>
      <trkpt lat="47.32856" lon="-1.26633">
        <ele>120</ele>
        <time>2020-12-20T09:09:49.547000+00:00</time>
      </trkpt>
      <trkpt lat="0" lon="0">
        <time>2020-12-20T09:09:49.549000+00:00</time>
      </trkpt>
      <trkpt lat="0" lon="0">
        <time>2020-12-20T09:09:49.553000+00:00</time>
      </trkpt>
      <trkpt lat="0" lon="0">
        <time>2020-12-20T09:09:49.554000+00:00</time>
      </trkpt>
      <trkpt lat="47.32856" lon="-1.26624">
        <ele>120</ele>
        <time>2020-12-20T09:09:50.553000+00:00</time>
      </trkpt>
      <trkpt lat="0" lon="0">
        <time>2020-12-20T09:09:50.565000+00:00</time>
      </trkpt>
      <trkpt lat="0" lon="0">
        <time>2020-12-20T09:09:50.573000+00:00</time>
      </trkpt>
      <trkpt lat="0" lon="0">
        <time>2020-12-20T09:09:50.576000+00:00</time>
      </trkpt>
      <trkpt lat="47.32857" lon="-1.26616">
        <ele>120</ele>
        <time>2020-12-20T09:09:51.576000+00:00</time>
      </trkpt>
      <trkpt lat="0" lon="0">
        <time>2020-12-20T09:09:51.586000+00:00</time>
      </trkpt>
      <trkpt lat="0" lon="0">
        <time>2020-12-20T09:09:51.592000+00:00</time>
      </trkpt>
      <trkpt lat="0" lon="0">
        <time>2020-12-20T09:09:51.595000+00:00</time>
      </trkpt>
      <trkpt lat="47.32857" lon="-1.26607">
        <ele>120</ele>
        <time>2020-12-20T09:09:52.526000+00:00</time>
      </trkpt>
      <trkpt lat="0" lon="0">
        <time>2020-12-20T09:09:52.545000+00:00</time>
      </trkpt>
      <trkpt lat="0" lon="0">
        <time>2020-12-20T09:09:52.549000+00:00</time>
      </trkpt>
      <trkpt lat="0" lon="0">
        <time>2020-12-20T09:09:52.552000+00:00</time>
      </trkpt>
      <trkpt lat="47.32858" lon="-1.26599">
        <ele>120</ele>
        <time>2020-12-20T09:09:53.525000+00:00</time>
      </trkpt>
      <trkpt lat="0" lon="0">
        <time>2020-12-20T09:09:53.537000+00:00</time>
      </trkpt>
      <trkpt lat="0" lon="0">
        <time>2020-12-20T09:09:53.541000+00:00</time>
      </trkpt>
      <trkpt lat="0" lon="0">
        <time>2020-12-20T09:09:53.545000+00:00</time>
      </trkpt>
      <trkpt lat="47.32858" lon="-1.2659">
        <ele>120</ele>
        <time>2020-12-20T09:09:54.560000+00:00</time>
      </trkpt>
      <trkpt lat="0" lon="0">
        <time>2020-12-20T09:09:54.577000+00:00</time>
      </trkpt>
      <trkpt lat="0" lon="0">
        <time>2020-12-20T09:09:54.586000+00:00</time>
      </trkpt>
      <trkpt lat="0" lon="0">
        <time>2020-12-20T09:09:54.588000+00:00</time>
      </trkpt>
      <trkpt lat="47.32859" lon="-1.26581">
        <ele>121</ele>
        <time>2020-12-20T09:09:55.596000+00:00</time>
      </trkpt>
      <trkpt lat="0" lon="0">
        <time>2020-12-20T09:09:55.601000+00:00</time>
      </trkpt>
      <trkpt lat="0" lon="0">
        <time>2020-12-20T09:09:55.614000+00:00</time>
      </trkpt>
      <trkpt lat="0" lon="0">
        <time>2020-12-20T09:09:55.618000+00:00</time>
      </trkpt>
      <trkpt lat="47.32859" lon="-1.26573">
        <ele>121</ele>
        <time>2020-12-20T09:09:56.547000+00:00</time>
      </trkpt>
      <trkpt lat="0" lon="0">
        <time>2020-12-20T09:09:56.561000+00:00</time>
      </trkpt>
      <trkpt lat="0" lon="0">
        <time>2020-12-20T09:09:56.567000+00:00</time>
      </trkpt>
      <trkpt lat="0" lon="0">
        <time>2020-12-20T09:09:56.569000+00:00</time>
      </trkpt>
      <trkpt lat="47.3286" lon="-1.26564">
        <ele>121</ele>
        <time>2020-12-20T09:09:57.548000+00:00</time>
      </trkpt>
      <trkpt lat="0" lon="0">
        <time>2020-12-20T09:09:57.563000+00:00</time>
      </trkpt>
      <trkpt lat="0" lon="0">
        <time>2020-12-20T09:09:57.569000+00:00</time>
      </trkpt>
      <trkpt lat="0" lon="0">
        <time>2020-12-20T09:09:57.573000+00:00</time>
      </trkpt>
      <trkpt lat="47.3286" lon="-1.26556">
        <ele>121</ele>
        <time>2020-12-20T09:09:58.547000+00:00</time>
      </trkpt>
      <trkpt lat="0" lon="0">
        <time>2020-12-20T09:09:58.556000+00:00</time>
      </trkpt>
      <trkpt lat="0" lon="0">
        <time>2020-12-20T09:09:58.570000+00:00</time>
      </trkpt>
      <trkpt lat="0" lon="0">
        <time>2020-12-20T09:09:58.572000+00:00</time>
      </trkpt>
      <trkpt lat="47.3286" lon="-1.26547">
        <ele>120</ele>
        <time>2020-12-20T09:09:59.538000+00:00</time>
      </trkpt>
      <trkpt lat="0" lon="0">
        <time>2020-12-20T09:09:59.560000+00:00</time>
      </trkpt>
      <trkpt lat="0" lon="0">
        <time>2020-12-20T09:09:59.572000+00:00</time>
      </trkpt>
      <trkpt lat="0" lon="0">
        <time>2020-12-20T09:09:59.576000+00:00</time>
      </trkpt>
      <trkpt lat="47.32861" lon="-1.26539">
        <ele>121</ele>
        <time>2020-12-20T09:10:00.532000+00:00</time>
      </trkpt>
      <trkpt lat="0" lon="0">
        <time>2020-12-20T09:10:00.539000+00:00</time>
      </trkpt>
      <trkpt lat="0" lon="0">
        <time>2020-12-20T09:10:00.546000+00:00</time>
      </trkpt>
      <trkpt lat="0" lon="0">
        <time>2020-12-20T09:10:00.550000+00:00</time>
      </trkpt>
      <trkpt lat="47.32861" lon="-1.2653">
        <ele>120</ele>
        <time>2020-12-20T09:10:01.529000+00:00</time>
      </trkpt>
      <trkpt lat="0" lon="0">
        <time>2020-12-20T09:10:01.536000+00:00</time>
      </trkpt>
      <trkpt lat="0" lon="0">
        <time>2020-12-20T09:10:01.545000+00:00</time>
      </trkpt>
      <trkpt lat="0" lon="0">
        <time>2020-12-20T09:10:01.548000+00:00</time>
      </trkpt>
      <trkpt lat="47.32861" lon="-1.26523">
        <ele>120</ele>
        <time>2020-12-20T09:10:02.528000+00:00</time>
      </trkpt>
      <trkpt lat="0" lon="0">
        <time>2020-12-20T09:10:02.543000+00:00</time>
      </trkpt>
      <trkpt lat="0" lon="0">
        <time>2020-12-20T09:10:02.551000+00:00</time>
      </trkpt>
      <trkpt lat="0" lon="0">
        <time>2020-12-20T09:10:02.554000+00:00</time>
      </trkpt>
      <trkpt lat="47.32862" lon="-1.26515">
        <ele>120</ele>
        <time>2020-12-20T09:10:03.546000+00:00</time>
      </trkpt>
      <trkpt lat="0" lon="0">
        <time>2020-12-20T09:10:03.560000+00:00</time>
      </trkpt>
      <trkpt lat="0" lon="0">
        <time>2020-12-20T09:10:03.564000+00:00</time>
      </trkpt>
      <trkpt lat="0" lon="0">
        <time>2020-12-20T09:10:03.567000+00:00</time>
      </trkpt>
      <trkpt lat="47.32862" lon="-1.26508">
        <ele>121</ele>
        <time>2020-12-20T09:10:04.577000+00:00</time>
      </trkpt>
      <trkpt lat="0" lon="0">
        <time>2020-12-20T09:10:04.595000+00:00</time>
      </trkpt>
      <trkpt lat="0" lon="0">
        <time>2020-12-20T09:10:04.599000+00:00</time>
      </trkpt>
      <trkpt lat="0" lon="0">
        <time>2020-12-20T09:10:04.601000+00:00</time>
      </trkpt>
      <trkpt lat="47.32862" lon="-1.26501">
        <ele>121</ele>
        <time>2020-12-20T09:10:05.550000+00:00</time>
      </trkpt>
      <trkpt lat="0" lon="0">
        <time>2020-12-20T09:10:05.564000+00:00</time>
      </trkpt>
      <trkpt lat="0" lon="0">
        <time>2020-12-20T09:10:05.569000+00:00</time>
      </trkpt>
      <trkpt lat="0" lon="0">
        <time>2020-12-20T09:10:05.573000+00:00</time>
      </trkpt>
      <trkpt lat="47.32863" lon="-1.26495">
        <ele>120</ele>
        <time>2020-12-20T09:10:06.518000+00:00</time>
      </trkpt>
      <trkpt lat="0" lon="0">
        <time>2020-12-20T09:10:06.525000+00:00</time>
      </trkpt>
      <trkpt lat="0" lon="0">
        <time>2020-12-20T09:10:06.532000+00:00</time>
      </trkpt>
      <trkpt lat="0" lon="0">
        <time>2020-12-20T09:10:06.534000+00:00</time>
      </trkpt>
      <trkpt lat="47.32864" lon="-1.26488">
        <ele>120</ele>
        <time>2020-12-20T09:10:07.550000+00:00</time>
      </trkpt>
      <trkpt lat="0" lon="0">
        <time>2020-12-20T09:10:07.555000+00:00</time>
      </trkpt>
      <trkpt lat="0" lon="0">
        <time>2020-12-20T09:10:07.561000+00:00</time>
      </trkpt>
      <trkpt lat="0" lon="0">
        <time>2020-12-20T09:10:07.563000+00:00</time>
      </trkpt>
      <trkpt lat="47.32865" lon="-1.26482">
        <ele>120</ele>
        <time>2020-12-20T09:10:08.549000+00:00</time>
      </trkpt>
      <trkpt lat="0" lon="0">
        <time>2020-12-20T09:10:08.560000+00:00</time>
      </trkpt>
      <trkpt lat="0" lon="0">
        <time>2020-12-20T09:10:08.565000+00:00</time>
      </trkpt>
      <trkpt lat="0" lon="0">
        <time>2020-12-20T09:10:08.567000+00:00</time>
      </trkpt>
      <trkpt lat="47.32865" lon="-1.26475">
        <ele>120</ele>
        <time>2020-12-20T09:10:09.552000+00:00</time>
      </trkpt>
      <trkpt lat="0" lon="0">
        <time>2020-12-20T09:10:09.565000+00:00</time>
      </trkpt>
      <trkpt lat="0" lon="0">
        <time>2020-12-20T09:10:09.569000+00:00</time>
      </trkpt>
      <trkpt lat="0" lon="0">
        <time>2020-12-20T09:10:09.572000+00:00</time>
      </trkpt>
      <trkpt lat="47.32866" lon="-1.26469">
        <ele>120</ele>
        <time>2020-12-20T09:10:10.551000+00:00</time>
      </trkpt>
      <trkpt lat="0" lon="0">
        <time>2020-12-20T09:10:10.558000+00:00</time>
      </trkpt>
      <trkpt lat="0" lon="0">
        <time>2020-12-20T09:10:10.570000+00:00</time>
      </trkpt>
      <trkpt lat="0" lon="0">
        <time>2020-12-20T09:10:10.572000+00:00</time>
      </trkpt>
      <trkpt lat="47.32867" lon="-1.26464">
        <ele>120</ele>
        <time>2020-12-20T09:10:11.533000+00:00</time>
      </trkpt>
      <trkpt lat="0" lon="0">
        <time>2020-12-20T09:10:11.548000+00:00</time>
      </trkpt>
      <trkpt lat="0" lon="0">
        <time>2020-12-20T09:10:11.552000+00:00</time>
      </trkpt>
      <trkpt lat="0" lon="0">
        <time>2020-12-20T09:10:11.558000+00:00</time>
      </trkpt>
      <trkpt lat="47.32868" lon="-1.2646">
        <ele>121</ele>
        <time>2020-12-20T09:10:12.525000+00:00</time>
      </trkpt>
      <trkpt lat="0" lon="0">
        <time>2020-12-20T09:10:12.536000+00:00</time>
      </trkpt>
      <trkpt lat="0" lon="0">
        <time>2020-12-20T09:10:12.544000+00:00</time>
      </trkpt>
      <trkpt lat="0" lon="0">
        <time>2020-12-20T09:10:12.546000+00:00</time>
      </trkpt>
      <trkpt lat="47.32868" lon="-1.26457">
        <ele>121</ele>
        <time>2020-12-20T09:10:13.471000+00:00</time>
      </trkpt>
      <trkpt lat="0" lon="0">
        <time>2020-12-20T09:10:13.475000+00:00</time>
      </trkpt>
      <trkpt lat="0" lon="0">
        <time>2020-12-20T09:10:13.479000+00:00</time>
      </trkpt>
      <trkpt lat="0" lon="0">
        <time>2020-12-20T09:10:13.482000+00:00</time>
      </trkpt>
      <trkpt lat="47.32869" lon="-1.26454">
        <ele>121</ele>
        <time>2020-12-20T09:10:14.558000+00:00</time>
      </trkpt>
      <trkpt lat="0" lon="0">
        <time>2020-12-20T09:10:14.567000+00:00</time>
      </trkpt>
      <trkpt lat="0" lon="0">
        <time>2020-12-20T09:10:14.575000+00:00</time>
      </trkpt>
      <trkpt lat="0" lon="0">
        <time>2020-12-20T09:10:14.577000+00:00</time>
      </trkpt>
      <trkpt lat="47.3287" lon="-1.26453">
        <ele>121</ele>
        <time>2020-12-20T09:10:15.520000+00:00</time>
      </trkpt>
      <trkpt lat="0" lon="0">
        <time>2020-12-20T09:10:15.535000+00:00</time>
      </trkpt>
      <trkpt lat="0" lon="0">
        <time>2020-12-20T09:10:15.543000+00:00</time>
      </trkpt>
      <trkpt lat="0" lon="0">
        <time>2020-12-20T09:10:15.545000+00:00</time>
      </trkpt>
      <trkpt lat="47.32871" lon="-1.26453">
        <ele>121</ele>
        <time>2020-12-20T09:10:16.500000+00:00</time>
      </trkpt>
      <trkpt lat="0" lon="0">
        <time>2020-12-20T09:10:16.513000+00:00</time>
      </trkpt>
      <trkpt lat="0" lon="0">
        <time>2020-12-20T09:10:16.524000+00:00</time>
      </trkpt>
      <trkpt lat="0" lon="0">
        <time>2020-12-20T09:10:16.528000+00:00</time>
      </trkpt>
      <trkpt lat="47.32873" lon="-1.26455">
        <ele>121</ele>
        <time>2020-12-20T09:10:17.482000+00:00</time>
      </trkpt>
      <trkpt lat="0" lon="0">
        <time>2020-12-20T09:10:17.495000+00:00</time>
      </trkpt>
      <trkpt lat="0" lon="0">
        <time>2020-12-20T09:10:17.499000+00:00</time>
      </trkpt>
      <trkpt lat="0" lon="0">
        <time>2020-12-20T09:10:17.503000+00:00</time>
      </trkpt>
      <trkpt lat="47.32875" lon="-1.26458">
        <ele>121</ele>
        <time>2020-12-20T09:10:18.535000+00:00</time>
      </trkpt>
      <trkpt lat="0" lon="0">
        <time>2020-12-20T09:10:18.544000+00:00</time>
      </trkpt>
      <trkpt lat="0" lon="0">
        <time>2020-12-20T09:10:18.549000+00:00</time>
      </trkpt>
      <trkpt lat="0" lon="0">
        <time>2020-12-20T09:10:18.552000+00:00</time>
      </trkpt>
      <trkpt lat="47.32878" lon="-1.26461">
        <ele>120</ele>
        <time>2020-12-20T09:10:19.511000+00:00</time>
      </trkpt>
      <trkpt lat="0" lon="0">
        <time>2020-12-20T09:10:19.517000+00:00</time>
      </trkpt>
      <trkpt lat="0" lon="0">
        <time>2020-12-20T09:10:19.519000+00:00</time>
      </trkpt>
      <trkpt lat="47.32882" lon="-1.26464">
        <ele>120</ele>
        <time>2020-12-20T09:10:20.539000+00:00</time>
      </trkpt>
      <trkpt lat="0" lon="0">
        <time>2020-12-20T09:10:20.563000+00:00</time>
      </trkpt>
      <trkpt lat="0" lon="0">
        <time>2020-12-20T09:10:20.569000+00:00</time>
      </trkpt>
      <trkpt lat="0" lon="0">
        <time>2020-12-20T09:10:20.572000+00:00</time>
      </trkpt>
      <trkpt lat="47.32886" lon="-1.26468">
        <ele>120</ele>
        <time>2020-12-20T09:10:21.520000+00:00</time>
      </trkpt>
      <trkpt lat="0" lon="0">
        <time>2020-12-20T09:10:21.539000+00:00</time>
      </trkpt>
      <trkpt lat="0" lon="0">
        <time>2020-12-20T09:10:21.544000+00:00</time>
      </trkpt>
      <trkpt lat="0" lon="0">
        <time>2020-12-20T09:10:21.547000+00:00</time>
      </trkpt>
      <trkpt lat="47.32891" lon="-1.26472">
        <ele>120</ele>
        <time>2020-12-20T09:10:22.484000+00:00</time>
      </trkpt>
      <trkpt lat="0" lon="0">
        <time>2020-12-20T09:10:22.492000+00:00</time>
      </trkpt>
      <trkpt lat="0" lon="0">
        <time>2020-12-20T09:10:22.504000+00:00</time>
      </trkpt>
      <trkpt lat="0" lon="0">
        <time>2020-12-20T09:10:22.506000+00:00</time>
      </trkpt>
      <trkpt lat="47.32896" lon="-1.26476">
        <ele>120</ele>
        <time>2020-12-20T09:10:23.530000+00:00</time>
      </trkpt>
      <trkpt lat="0" lon="0">
        <time>2020-12-20T09:10:23.540000+00:00</time>
      </trkpt>
      <trkpt lat="0" lon="0">
        <time>2020-12-20T09:10:23.548000+00:00</time>
      </trkpt>
      <trkpt lat="0" lon="0">
        <time>2020-12-20T09:10:23.555000+00:00</time>
      </trkpt>
      <trkpt lat="47.32901" lon="-1.2648">
        <ele>120</ele>
        <time>2020-12-20T09:10:24.555000+00:00</time>
      </trkpt>
      <trkpt lat="0" lon="0">
        <time>2020-12-20T09:10:24.562000+00:00</time>
      </trkpt>
      <trkpt lat="0" lon="0">
        <time>2020-12-20T09:10:24.568000+00:00</time>
      </trkpt>
      <trkpt lat="0" lon="0">
        <time>2020-12-20T09:10:24.570000+00:00</time>
      </trkpt>
      <trkpt lat="47.32907" lon="-1.26483">
        <ele>120</ele>
        <time>2020-12-20T09:10:25.515000+00:00</time>
      </trkpt>
      <trkpt lat="0" lon="0">
        <time>2020-12-20T09:10:25.533000+00:00</time>
      </trkpt>
      <trkpt lat="0" lon="0">
        <time>2020-12-20T09:10:25.537000+00:00</time>
      </trkpt>
      <trkpt lat="0" lon="0">
        <time>2020-12-20T09:10:25.540000+00:00</time>
      </trkpt>
      <trkpt lat="47.32913" lon="-1.26487">
        <ele>120</ele>
        <time>2020-12-20T09:10:26.542000+00:00</time>
      </trkpt>
      <trkpt lat="0" lon="0">
        <time>2020-12-20T09:10:26.555000+00:00</time>
      </trkpt>
      <trkpt lat="0" lon="0">
        <time>2020-12-20T09:10:26.559000+00:00</time>
      </trkpt>
      <trkpt lat="0" lon="0">
        <time>2020-12-20T09:10:26.563000+00:00</time>
      </trkpt>
      <trkpt lat="47.32919" lon="-1.26491">
        <ele>120</ele>
        <time>2020-12-20T09:10:27.510000+00:00</time>
      </trkpt>
      <trkpt lat="0" lon="0">
        <time>2020-12-20T09:10:27.521000+00:00</time>
      </trkpt>
      <trkpt lat="0" lon="0">
        <time>2020-12-20T09:10:27.525000+00:00</time>
      </trkpt>
      <trkpt lat="0" lon="0">
        <time>2020-12-20T09:10:27.527000+00:00</time>
      </trkpt>
      <trkpt lat="47.32925" lon="-1.26495">
        <ele>120</ele>
        <time>2020-12-20T09:10:28.517000+00:00</time>
      </trkpt>
      <trkpt lat="0" lon="0">
        <time>2020-12-20T09:10:28.521000+00:00</time>
      </trkpt>
      <trkpt lat="0" lon="0">
        <time>2020-12-20T09:10:28.525000+00:00</time>
      </trkpt>
      <trkpt lat="0" lon="0">
        <time>2020-12-20T09:10:28.526000+00:00</time>
      </trkpt>
      <trkpt lat="47.32931" lon="-1.26498">
        <ele>120</ele>
        <time>2020-12-20T09:10:29.520000+00:00</time>
      </trkpt>
      <trkpt lat="0" lon="0">
        <time>2020-12-20T09:10:29.529000+00:00</time>
      </trkpt>
      <trkpt lat="0" lon="0">
        <time>2020-12-20T09:10:29.534000+00:00</time>
      </trkpt>
      <trkpt lat="0" lon="0">
        <time>2020-12-20T09:10:29.536000+00:00</time>
      </trkpt>
      <trkpt lat="47.32937" lon="-1.26502">
        <ele>120</ele>
        <time>2020-12-20T09:10:30.526000+00:00</time>
      </trkpt>
      <trkpt lat="0" lon="0">
        <time>2020-12-20T09:10:30.537000+00:00</time>
      </trkpt>
      <trkpt lat="0" lon="0">
        <time>2020-12-20T09:10:30.541000+00:00</time>
      </trkpt>
      <trkpt lat="0" lon="0">
        <time>2020-12-20T09:10:30.544000+00:00</time>
      </trkpt>
      <trkpt lat="47.32943" lon="-1.26505">
        <ele>119</ele>
        <time>2020-12-20T09:10:31.504000+00:00</time>
      </trkpt>
      <trkpt lat="0" lon="0">
        <time>2020-12-20T09:10:31.510000+00:00</time>
      </trkpt>
      <trkpt lat="0" lon="0">
        <time>2020-12-20T09:10:31.519000+00:00</time>
      </trkpt>
      <trkpt lat="0" lon="0">
        <time>2020-12-20T09:10:31.521000+00:00</time>
      </trkpt>
      <trkpt lat="47.32949" lon="-1.26508">
        <ele>119</ele>
        <time>2020-12-20T09:10:32.537000+00:00</time>
      </trkpt>
      <trkpt lat="0" lon="0">
        <time>2020-12-20T09:10:32.544000+00:00</time>
      </trkpt>
      <trkpt lat="0" lon="0">
        <time>2020-12-20T09:10:32.555000+00:00</time>
      </trkpt>
      <trkpt lat="0" lon="0">
        <time>2020-12-20T09:10:32.557000+00:00</time>
      </trkpt>
      <trkpt lat="47.32955" lon="-1.2651">
        <ele>119</ele>
        <time>2020-12-20T09:10:33.540000+00:00</time>
      </trkpt>
      <trkpt lat="0" lon="0">
        <time>2020-12-20T09:10:33.546000+00:00</time>
      </trkpt>
      <trkpt lat="0" lon="0">
        <time>2020-12-20T09:10:33.551000+00:00</time>
      </trkpt>
      <trkpt lat="0" lon="0">
        <time>2020-12-20T09:10:33.559000+00:00</time>
      </trkpt>
      <trkpt lat="47.32961" lon="-1.26513">
        <ele>119</ele>
        <time>2020-12-20T09:10:34.519000+00:00</time>
      </trkpt>
      <trkpt lat="0" lon="0">
        <time>2020-12-20T09:10:34.526000+00:00</time>
      </trkpt>
      <trkpt lat="0" lon="0">
        <time>2020-12-20T09:10:34.530000+00:00</time>
      </trkpt>
      <trkpt lat="0" lon="0">
        <time>2020-12-20T09:10:34.542000+00:00</time>
      </trkpt>
      <trkpt lat="47.32966" lon="-1.26517">
        <ele>118</ele>
        <time>2020-12-20T09:10:35.524000+00:00</time>
      </trkpt>
      <trkpt lat="0" lon="0">
        <time>2020-12-20T09:10:35.533000+00:00</time>
      </trkpt>
      <trkpt lat="0" lon="0">
        <time>2020-12-20T09:10:35.539000+00:00</time>
      </trkpt>
      <trkpt lat="0" lon="0">
        <time>2020-12-20T09:10:35.541000+00:00</time>
      </trkpt>
      <trkpt lat="47.32972" lon="-1.2652">
        <ele>118</ele>
        <time>2020-12-20T09:10:36.537000+00:00</time>
      </trkpt>
      <trkpt lat="0" lon="0">
        <time>2020-12-20T09:10:36.545000+00:00</time>
      </trkpt>
      <trkpt lat="0" lon="0">
        <time>2020-12-20T09:10:36.549000+00:00</time>
      </trkpt>
      <trkpt lat="0" lon="0">
        <time>2020-12-20T09:10:36.552000+00:00</time>
      </trkpt>
      <trkpt lat="47.32977" lon="-1.26524">
        <ele>118</ele>
        <time>2020-12-20T09:10:37.544000+00:00</time>
      </trkpt>
      <trkpt lat="0" lon="0">
        <time>2020-12-20T09:10:37.562000+00:00</time>
      </trkpt>
      <trkpt lat="0" lon="0">
        <time>2020-12-20T09:10:37.566000+00:00</time>
      </trkpt>
      <trkpt lat="0" lon="0">
        <time>2020-12-20T09:10:37.568000+00:00</time>
      </trkpt>
      <trkpt lat="47.32983" lon="-1.26526">
        <ele>117</ele>
        <time>2020-12-20T09:10:38.532000+00:00</time>
      </trkpt>
      <trkpt lat="0" lon="0">
        <time>2020-12-20T09:10:38.547000+00:00</time>
      </trkpt>
      <trkpt lat="0" lon="0">
        <time>2020-12-20T09:10:38.551000+00:00</time>
      </trkpt>
      <trkpt lat="0" lon="0">
        <time>2020-12-20T09:10:38.559000+00:00</time>
      </trkpt>
      <trkpt lat="47.32988" lon="-1.26528">
        <ele>117</ele>
        <time>2020-12-20T09:10:39.491000+00:00</time>
      </trkpt>
      <trkpt lat="0" lon="0">
        <time>2020-12-20T09:10:39.495000+00:00</time>
      </trkpt>
      <trkpt lat="0" lon="0">
        <time>2020-12-20T09:10:39.507000+00:00</time>
      </trkpt>
      <trkpt lat="0" lon="0">
        <time>2020-12-20T09:10:39.511000+00:00</time>
      </trkpt>
      <trkpt lat="47.32994" lon="-1.26528">
        <ele>117</ele>
        <time>2020-12-20T09:10:40.530000+00:00</time>
      </trkpt>
      <trkpt lat="0" lon="0">
        <time>2020-12-20T09:10:40.534000+00:00</time>
      </trkpt>
      <trkpt lat="0" lon="0">
        <time>2020-12-20T09:10:40.545000+00:00</time>
      </trkpt>
      <trkpt lat="0" lon="0">
        <time>2020-12-20T09:10:40.551000+00:00</time>
      </trkpt>
      <trkpt lat="47.33" lon="-1.26527">
        <ele>117</ele>
        <time>2020-12-20T09:10:41.556000+00:00</time>
      </trkpt>
      <trkpt lat="0" lon="0">
        <time>2020-12-20T09:10:41.568000+00:00</time>
      </trkpt>
      <trkpt lat="0" lon="0">
        <time>2020-12-20T09:10:41.580000+00:00</time>
      </trkpt>
      <trkpt lat="0" lon="0">
        <time>2020-12-20T09:10:41.581000+00:00</time>
      </trkpt>
      <trkpt lat="47.33005" lon="-1.26525">
        <ele>116</ele>
        <time>2020-12-20T09:10:42.519000+00:00</time>
      </trkpt>
      <trkpt lat="0" lon="0">
        <time>2020-12-20T09:10:42.523000+00:00</time>
      </trkpt>
      <trkpt lat="0" lon="0">
        <time>2020-12-20T09:10:42.527000+00:00</time>
      </trkpt>
      <trkpt lat="0" lon="0">
        <time>2020-12-20T09:10:42.530000+00:00</time>
      </trkpt>
      <trkpt lat="47.3301" lon="-1.26523">
        <ele>116</ele>
        <time>2020-12-20T09:10:43.545000+00:00</time>
      </trkpt>
      <trkpt lat="0" lon="0">
        <time>2020-12-20T09:10:43.567000+00:00</time>
      </trkpt>
      <trkpt lat="0" lon="0">
        <time>2020-12-20T09:10:43.578000+00:00</time>
      </trkpt>
      <trkpt lat="0" lon="0">
        <time>2020-12-20T09:10:43.581000+00:00</time>
      </trkpt>
      <trkpt lat="47.33014" lon="-1.26521">
        <ele>116</ele>
        <time>2020-12-20T09:10:44.535000+00:00</time>
      </trkpt>
      <trkpt lat="0" lon="0">
        <time>2020-12-20T09:10:44.551000+00:00</time>
      </trkpt>
      <trkpt lat="0" lon="0">
        <time>2020-12-20T09:10:44.554000+00:00</time>
      </trkpt>
      <trkpt lat="0" lon="0">
        <time>2020-12-20T09:10:44.557000+00:00</time>
      </trkpt>
      <trkpt lat="47.33017" lon="-1.26518">
        <ele>116</ele>
        <time>2020-12-20T09:10:45.525000+00:00</time>
      </trkpt>
      <trkpt lat="0" lon="0">
        <time>2020-12-20T09:10:45.532000+00:00</time>
      </trkpt>
      <trkpt lat="0" lon="0">
        <time>2020-12-20T09:10:45.536000+00:00</time>
      </trkpt>
      <trkpt lat="0" lon="0">
        <time>2020-12-20T09:10:45.538000+00:00</time>
      </trkpt>
      <trkpt lat="47.3302" lon="-1.26515">
        <ele>117</ele>
        <time>2020-12-20T09:10:46.529000+00:00</time>
      </trkpt>
      <trkpt lat="0" lon="0">
        <time>2020-12-20T09:10:46.535000+00:00</time>
      </trkpt>
      <trkpt lat="0" lon="0">
        <time>2020-12-20T09:10:46.538000+00:00</time>
      </trkpt>
      <trkpt lat="0" lon="0">
        <time>2020-12-20T09:10:46.540000+00:00</time>
      </trkpt>
      <trkpt lat="47.33023" lon="-1.26511">
        <ele>117</ele>
        <time>2020-12-20T09:10:47.539000+00:00</time>
      </trkpt>
      <trkpt lat="0" lon="0">
        <time>2020-12-20T09:10:47.552000+00:00</time>
      </trkpt>
      <trkpt lat="0" lon="0">
        <time>2020-12-20T09:10:47.557000+00:00</time>
      </trkpt>
      <trkpt lat="0" lon="0">
        <time>2020-12-20T09:10:47.560000+00:00</time>
      </trkpt>
      <trkpt lat="47.33025" lon="-1.26508">
        <ele>117</ele>
        <time>2020-12-20T09:10:48.544000+00:00</time>
      </trkpt>
      <trkpt lat="0" lon="0">
        <time>2020-12-20T09:10:48.559000+00:00</time>
      </trkpt>
      <trkpt lat="0" lon="0">
        <time>2020-12-20T09:10:48.563000+00:00</time>
      </trkpt>
      <trkpt lat="0" lon="0">
        <time>2020-12-20T09:10:48.565000+00:00</time>
      </trkpt>
      <trkpt lat="47.33027" lon="-1.26505">
        <ele>117</ele>
        <time>2020-12-20T09:10:49.557000+00:00</time>
      </trkpt>
      <trkpt lat="0" lon="0">
        <time>2020-12-20T09:10:49.573000+00:00</time>
      </trkpt>
      <trkpt lat="0" lon="0">
        <time>2020-12-20T09:10:49.576000+00:00</time>
      </trkpt>
      <trkpt lat="0" lon="0">
        <time>2020-12-20T09:10:49.579000+00:00</time>
      </trkpt>
      <trkpt lat="47.33029" lon="-1.26502">
        <ele>117</ele>
        <time>2020-12-20T09:10:50.537000+00:00</time>
      </trkpt>
      <trkpt lat="0" lon="0">
        <time>2020-12-20T09:10:50.545000+00:00</time>
      </trkpt>
      <trkpt lat="0" lon="0">
        <time>2020-12-20T09:10:50.549000+00:00</time>
      </trkpt>
      <trkpt lat="0" lon="0">
        <time>2020-12-20T09:10:50.550000+00:00</time>
      </trkpt>
      <trkpt lat="47.33031" lon="-1.26499">
        <ele>117</ele>
        <time>2020-12-20T09:10:51.536000+00:00</time>
      </trkpt>
      <trkpt lat="0" lon="0">
        <time>2020-12-20T09:10:51.541000+00:00</time>
      </trkpt>
      <trkpt lat="0" lon="0">
        <time>2020-12-20T09:10:51.549000+00:00</time>
      </trkpt>
      <trkpt lat="0" lon="0">
        <time>2020-12-20T09:10:51.551000+00:00</time>
      </trkpt>
      <trkpt lat="47.33033" lon="-1.26496">
        <ele>117</ele>
        <time>2020-12-20T09:10:52.534000+00:00</time>
      </trkpt>
      <trkpt lat="0" lon="0">
        <time>2020-12-20T09:10:52.548000+00:00</time>
      </trkpt>
      <trkpt lat="0" lon="0">
        <time>2020-12-20T09:10:52.551000+00:00</time>
      </trkpt>
      <trkpt lat="0" lon="0">
        <time>2020-12-20T09:10:52.553000+00:00</time>
      </trkpt>
      <trkpt lat="47.33034" lon="-1.26494">
        <ele>117</ele>
        <time>2020-12-20T09:10:53.555000+00:00</time>
      </trkpt>
      <trkpt lat="0" lon="0">
        <time>2020-12-20T09:10:53.561000+00:00</time>
      </trkpt>
      <trkpt lat="0" lon="0">
        <time>2020-12-20T09:10:53.566000+00:00</time>
      </trkpt>
      <trkpt lat="0" lon="0">
        <time>2020-12-20T09:10:53.569000+00:00</time>
      </trkpt>
      <trkpt lat="47.33035" lon="-1.26492">
        <ele>117</ele>
        <time>2020-12-20T09:10:54.538000+00:00</time>
      </trkpt>
      <trkpt lat="0" lon="0">
        <time>2020-12-20T09:10:54.546000+00:00</time>
      </trkpt>
      <trkpt lat="0" lon="0">
        <time>2020-12-20T09:10:54.552000+00:00</time>
      </trkpt>
      <trkpt lat="0" lon="0">
        <time>2020-12-20T09:10:54.555000+00:00</time>
      </trkpt>
      <trkpt lat="47.33036" lon="-1.26491">
        <ele>117</ele>
        <time>2020-12-20T09:10:55.548000+00:00</time>
      </trkpt>
      <trkpt lat="0" lon="0">
        <time>2020-12-20T09:10:55.554000+00:00</time>
      </trkpt>
      <trkpt lat="0" lon="0">
        <time>2020-12-20T09:10:55.561000+00:00</time>
      </trkpt>
      <trkpt lat="0" lon="0">
        <time>2020-12-20T09:10:55.566000+00:00</time>
      </trkpt>
      <trkpt lat="47.33037" lon="-1.2649">
        <ele>117</ele>
        <time>2020-12-20T09:10:56.522000+00:00</time>
      </trkpt>
      <trkpt lat="0" lon="0">
        <time>2020-12-20T09:10:56.526000+00:00</time>
      </trkpt>
      <trkpt lat="0" lon="0">
        <time>2020-12-20T09:10:56.529000+00:00</time>
      </trkpt>
      <trkpt lat="0" lon="0">
        <time>2020-12-20T09:10:56.530000+00:00</time>
      </trkpt>
      <trkpt lat="47.33039" lon="-1.26489">
        <ele>117</ele>
        <time>2020-12-20T09:10:57.534000+00:00</time>
      </trkpt>
      <trkpt lat="0" lon="0">
        <time>2020-12-20T09:10:57.544000+00:00</time>
      </trkpt>
      <trkpt lat="0" lon="0">
        <time>2020-12-20T09:10:57.549000+00:00</time>
      </trkpt>
      <trkpt lat="0" lon="0">
        <time>2020-12-20T09:10:57.552000+00:00</time>
      </trkpt>
      <trkpt lat="47.3304" lon="-1.26489">
        <ele>117</ele>
        <time>2020-12-20T09:10:58.534000+00:00</time>
      </trkpt>
      <trkpt lat="0" lon="0">
        <time>2020-12-20T09:10:58.550000+00:00</time>
      </trkpt>
      <trkpt lat="0" lon="0">
        <time>2020-12-20T09:10:58.556000+00:00</time>
      </trkpt>
      <trkpt lat="0" lon="0">
        <time>2020-12-20T09:10:58.559000+00:00</time>
      </trkpt>
      <trkpt lat="47.33041" lon="-1.26489">
        <ele>117</ele>
        <time>2020-12-20T09:10:59.545000+00:00</time>
      </trkpt>
      <trkpt lat="0" lon="0">
        <time>2020-12-20T09:10:59.557000+00:00</time>
      </trkpt>
      <trkpt lat="0" lon="0">
        <time>2020-12-20T09:10:59.566000+00:00</time>
      </trkpt>
      <trkpt lat="0" lon="0">
        <time>2020-12-20T09:10:59.573000+00:00</time>
      </trkpt>
      <trkpt lat="47.33043" lon="-1.26488">
        <ele>117</ele>
        <time>2020-12-20T09:11:00.498000+00:00</time>
      </trkpt>
      <trkpt lat="0" lon="0">
        <time>2020-12-20T09:11:00.504000+00:00</time>
      </trkpt>
      <trkpt lat="0" lon="0">
        <time>2020-12-20T09:11:00.508000+00:00</time>
      </trkpt>
      <trkpt lat="0" lon="0">
        <time>2020-12-20T09:11:00.510000+00:00</time>
      </trkpt>
      <trkpt lat="47.33044" lon="-1.26488">
        <ele>117</ele>
        <time>2020-12-20T09:11:01.519000+00:00</time>
      </trkpt>
      <trkpt lat="0" lon="0">
        <time>2020-12-20T09:11:01.541000+00:00</time>
      </trkpt>
      <trkpt lat="0" lon="0">
        <time>2020-12-20T09:11:01.545000+00:00</time>
      </trkpt>
      <trkpt lat="0" lon="0">
        <time>2020-12-20T09:11:01.546000+00:00</time>
      </trkpt>
      <trkpt lat="47.33046" lon="-1.26487">
        <ele>118</ele>
        <time>2020-12-20T09:11:02.506000+00:00</time>
      </trkpt>
      <trkpt lat="0" lon="0">
        <time>2020-12-20T09:11:02.508000+00:00</time>
      </trkpt>
      <trkpt lat="0" lon="0">
        <time>2020-12-20T09:11:02.511000+00:00</time>
      </trkpt>
      <trkpt lat="0" lon="0">
        <time>2020-12-20T09:11:02.512000+00:00</time>
      </trkpt>
      <trkpt lat="47.33047" lon="-1.26486">
        <ele>118</ele>
        <time>2020-12-20T09:11:03.545000+00:00</time>
      </trkpt>
      <trkpt lat="0" lon="0">
        <time>2020-12-20T09:11:03.559000+00:00</time>
      </trkpt>
      <trkpt lat="0" lon="0">
        <time>2020-12-20T09:11:03.567000+00:00</time>
      </trkpt>
      <trkpt lat="0" lon="0">
        <time>2020-12-20T09:11:03.575000+00:00</time>
      </trkpt>
      <trkpt lat="47.33048" lon="-1.26485">
        <ele>118</ele>
        <time>2020-12-20T09:11:04.524000+00:00</time>
      </trkpt>
      <trkpt lat="0" lon="0">
        <time>2020-12-20T09:11:04.535000+00:00</time>
      </trkpt>
      <trkpt lat="0" lon="0">
        <time>2020-12-20T09:11:04.541000+00:00</time>
      </trkpt>
      <trkpt lat="0" lon="0">
        <time>2020-12-20T09:11:04.544000+00:00</time>
      </trkpt>
      <trkpt lat="47.3305" lon="-1.26485">
        <ele>118</ele>
        <time>2020-12-20T09:11:05.558000+00:00</time>
      </trkpt>
      <trkpt lat="0" lon="0">
        <time>2020-12-20T09:11:05.572000+00:00</time>
      </trkpt>
      <trkpt lat="0" lon="0">
        <time>2020-12-20T09:11:05.582000+00:00</time>
      </trkpt>
      <trkpt lat="0" lon="0">
        <time>2020-12-20T09:11:05.585000+00:00</time>
      </trkpt>
      <trkpt lat="47.33051" lon="-1.26484">
        <ele>118</ele>
        <time>2020-12-20T09:11:06.536000+00:00</time>
      </trkpt>
      <trkpt lat="0" lon="0">
        <time>2020-12-20T09:11:06.546000+00:00</time>
      </trkpt>
      <trkpt lat="0" lon="0">
        <time>2020-12-20T09:11:06.551000+00:00</time>
      </trkpt>
      <trkpt lat="0" lon="0">
        <time>2020-12-20T09:11:06.552000+00:00</time>
      </trkpt>
      <trkpt lat="47.33053" lon="-1.26483">
        <ele>118</ele>
        <time>2020-12-20T09:11:07.550000+00:00</time>
      </trkpt>
      <trkpt lat="0" lon="0">
        <time>2020-12-20T09:11:07.562000+00:00</time>
      </trkpt>
      <trkpt lat="0" lon="0">
        <time>2020-12-20T09:11:07.567000+00:00</time>
      </trkpt>
      <trkpt lat="0" lon="0">
        <time>2020-12-20T09:11:07.570000+00:00</time>
      </trkpt>
      <trkpt lat="47.33056" lon="-1.26483">
        <ele>118</ele>
        <time>2020-12-20T09:11:08.533000+00:00</time>
      </trkpt>
      <trkpt lat="0" lon="0">
        <time>2020-12-20T09:11:08.542000+00:00</time>
      </trkpt>
      <trkpt lat="0" lon="0">
        <time>2020-12-20T09:11:08.547000+00:00</time>
      </trkpt>
      <trkpt lat="0" lon="0">
        <time>2020-12-20T09:11:08.550000+00:00</time>
      </trkpt>
      <trkpt lat="47.33058" lon="-1.26482">
        <ele>118</ele>
        <time>2020-12-20T09:11:09.544000+00:00</time>
      </trkpt>
      <trkpt lat="0" lon="0">
        <time>2020-12-20T09:11:09.558000+00:00</time>
      </trkpt>
      <trkpt lat="0" lon="0">
        <time>2020-12-20T09:11:09.566000+00:00</time>
      </trkpt>
      <trkpt lat="0" lon="0">
        <time>2020-12-20T09:11:09.568000+00:00</time>
      </trkpt>
      <trkpt lat="47.33061" lon="-1.26481">
        <ele>118</ele>
        <time>2020-12-20T09:11:10.566000+00:00</time>
      </trkpt>
      <trkpt lat="0" lon="0">
        <time>2020-12-20T09:11:10.585000+00:00</time>
      </trkpt>
      <trkpt lat="0" lon="0">
        <time>2020-12-20T09:11:10.592000+00:00</time>
      </trkpt>
      <trkpt lat="0" lon="0">
        <time>2020-12-20T09:11:10.598000+00:00</time>
      </trkpt>
      <trkpt lat="47.33064" lon="-1.2648">
        <ele>118</ele>
        <time>2020-12-20T09:11:11.551000+00:00</time>
      </trkpt>
      <trkpt lat="0" lon="0">
        <time>2020-12-20T09:11:11.562000+00:00</time>
      </trkpt>
      <trkpt lat="0" lon="0">
        <time>2020-12-20T09:11:11.566000+00:00</time>
      </trkpt>
      <trkpt lat="0" lon="0">
        <time>2020-12-20T09:11:11.569000+00:00</time>
      </trkpt>
      <trkpt lat="47.33067" lon="-1.26478">
        <ele>119</ele>
        <time>2020-12-20T09:11:12.529000+00:00</time>
      </trkpt>
      <trkpt lat="0" lon="0">
        <time>2020-12-20T09:11:12.537000+00:00</time>
      </trkpt>
      <trkpt lat="0" lon="0">
        <time>2020-12-20T09:11:12.542000+00:00</time>
      </trkpt>
      <trkpt lat="0" lon="0">
        <time>2020-12-20T09:11:12.545000+00:00</time>
      </trkpt>
      <trkpt lat="47.3307" lon="-1.26476">
        <ele>119</ele>
        <time>2020-12-20T09:11:13.486000+00:00</time>
      </trkpt>
      <trkpt lat="0" lon="0">
        <time>2020-12-20T09:11:13.497000+00:00</time>
      </trkpt>
      <trkpt lat="0" lon="0">
        <time>2020-12-20T09:11:13.502000+00:00</time>
      </trkpt>
      <trkpt lat="0" lon="0">
        <time>2020-12-20T09:11:13.506000+00:00</time>
      </trkpt>
      <trkpt lat="47.33073" lon="-1.26474">
        <ele>119</ele>
        <time>2020-12-20T09:11:14.553000+00:00</time>
      </trkpt>
      <trkpt lat="0" lon="0">
        <time>2020-12-20T09:11:14.560000+00:00</time>
      </trkpt>
      <trkpt lat="0" lon="0">
        <time>2020-12-20T09:11:14.565000+00:00</time>
      </trkpt>
      <trkpt lat="0" lon="0">
        <time>2020-12-20T09:11:14.569000+00:00</time>
      </trkpt>
      <trkpt lat="47.33076" lon="-1.26472">
        <ele>119</ele>
        <time>2020-12-20T09:11:15.522000+00:00</time>
      </trkpt>
      <trkpt lat="0" lon="0">
        <time>2020-12-20T09:11:15.539000+00:00</time>
      </trkpt>
      <trkpt lat="0" lon="0">
        <time>2020-12-20T09:11:15.546000+00:00</time>
      </trkpt>
      <trkpt lat="0" lon="0">
        <time>2020-12-20T09:11:15.548000+00:00</time>
      </trkpt>
      <trkpt lat="47.3308" lon="-1.26471">
        <ele>119</ele>
        <time>2020-12-20T09:11:16.531000+00:00</time>
      </trkpt>
      <trkpt lat="0" lon="0">
        <time>2020-12-20T09:11:16.547000+00:00</time>
      </trkpt>
      <trkpt lat="0" lon="0">
        <time>2020-12-20T09:11:16.557000+00:00</time>
      </trkpt>
      <trkpt lat="0" lon="0">
        <time>2020-12-20T09:11:16.559000+00:00</time>
      </trkpt>
      <trkpt lat="47.33083" lon="-1.26469">
        <ele>119</ele>
        <time>2020-12-20T09:11:17.519000+00:00</time>
      </trkpt>
      <trkpt lat="0" lon="0">
        <time>2020-12-20T09:11:17.531000+00:00</time>
      </trkpt>
      <trkpt lat="0" lon="0">
        <time>2020-12-20T09:11:17.536000+00:00</time>
      </trkpt>
      <trkpt lat="0" lon="0">
        <time>2020-12-20T09:11:17.539000+00:00</time>
      </trkpt>
      <trkpt lat="47.33085" lon="-1.26468">
        <ele>119</ele>
        <time>2020-12-20T09:11:18.545000+00:00</time>
      </trkpt>
      <trkpt lat="0" lon="0">
        <time>2020-12-20T09:11:18.558000+00:00</time>
      </trkpt>
      <trkpt lat="0" lon="0">
        <time>2020-12-20T09:11:18.562000+00:00</time>
      </trkpt>
      <trkpt lat="0" lon="0">
        <time>2020-12-20T09:11:18.565000+00:00</time>
      </trkpt>
      <trkpt lat="47.33088" lon="-1.26466">
        <ele>119</ele>
        <time>2020-12-20T09:11:19.535000+00:00</time>
      </trkpt>
      <trkpt lat="0" lon="0">
        <time>2020-12-20T09:11:19.542000+00:00</time>
      </trkpt>
      <trkpt lat="0" lon="0">
        <time>2020-12-20T09:11:19.544000+00:00</time>
      </trkpt>
      <trkpt lat="0" lon="0">
        <time>2020-12-20T09:11:19.546000+00:00</time>
      </trkpt>
      <trkpt lat="47.3309" lon="-1.26465">
        <ele>120</ele>
        <time>2020-12-20T09:11:20.547000+00:00</time>
      </trkpt>
      <trkpt lat="0" lon="0">
        <time>2020-12-20T09:11:20.553000+00:00</time>
      </trkpt>
      <trkpt lat="0" lon="0">
        <time>2020-12-20T09:11:20.559000+00:00</time>
      </trkpt>
      <trkpt lat="0" lon="0">
        <time>2020-12-20T09:11:20.563000+00:00</time>
      </trkpt>
      <trkpt lat="47.33092" lon="-1.26464">
        <ele>120</ele>
        <time>2020-12-20T09:11:21.564000+00:00</time>
      </trkpt>
      <trkpt lat="0" lon="0">
        <time>2020-12-20T09:11:21.574000+00:00</time>
      </trkpt>
      <trkpt lat="0" lon="0">
        <time>2020-12-20T09:11:21.578000+00:00</time>
      </trkpt>
      <trkpt lat="0" lon="0">
        <time>2020-12-20T09:11:21.583000+00:00</time>
      </trkpt>
      <trkpt lat="47.33094" lon="-1.26464">
        <ele>120</ele>
        <time>2020-12-20T09:11:22.543000+00:00</time>
      </trkpt>
      <trkpt lat="0" lon="0">
        <time>2020-12-20T09:11:22.550000+00:00</time>
      </trkpt>
      <trkpt lat="0" lon="0">
        <time>2020-12-20T09:11:22.554000+00:00</time>
      </trkpt>
      <trkpt lat="0" lon="0">
        <time>2020-12-20T09:11:22.556000+00:00</time>
      </trkpt>
      <trkpt lat="47.33095" lon="-1.26464">
        <ele>120</ele>
        <time>2020-12-20T09:11:23.516000+00:00</time>
      </trkpt>
      <trkpt lat="0" lon="0">
        <time>2020-12-20T09:11:23.526000+00:00</time>
      </trkpt>
      <trkpt lat="0" lon="0">
        <time>2020-12-20T09:11:23.539000+00:00</time>
      </trkpt>
      <trkpt lat="0" lon="0">
        <time>2020-12-20T09:11:23.541000+00:00</time>
      </trkpt>
      <trkpt lat="47.33097" lon="-1.26464">
        <ele>120</ele>
        <time>2020-12-20T09:11:24.539000+00:00</time>
      </trkpt>
      <trkpt lat="0" lon="0">
        <time>2020-12-20T09:11:24.548000+00:00</time>
      </trkpt>
      <trkpt lat="0" lon="0">
        <time>2020-12-20T09:11:24.553000+00:00</time>
      </trkpt>
      <trkpt lat="0" lon="0">
        <time>2020-12-20T09:11:24.555000+00:00</time>
      </trkpt>
      <trkpt lat="47.33098" lon="-1.26464">
        <ele>120</ele>
        <time>2020-12-20T09:11:25.560000+00:00</time>
      </trkpt>
      <trkpt lat="0" lon="0">
        <time>2020-12-20T09:11:25.563000+00:00</time>
      </trkpt>
      <trkpt lat="0" lon="0">
        <time>2020-12-20T09:11:25.566000+00:00</time>
      </trkpt>
      <trkpt lat="0" lon="0">
        <time>2020-12-20T09:11:25.567000+00:00</time>
      </trkpt>
      <trkpt lat="47.33098" lon="-1.26465">
        <ele>120</ele>
        <time>2020-12-20T09:11:26.569000+00:00</time>
      </trkpt>
      <trkpt lat="0" lon="0">
        <time>2020-12-20T09:11:26.581000+00:00</time>
      </trkpt>
      <trkpt lat="0" lon="0">
        <time>2020-12-20T09:11:26.591000+00:00</time>
      </trkpt>
      <trkpt lat="0" lon="0">
        <time>2020-12-20T09:11:26.594000+00:00</time>
      </trkpt>
      <trkpt lat="47.33099" lon="-1.26465">
        <ele>120</ele>
        <time>2020-12-20T09:11:27.542000+00:00</time>
      </trkpt>
      <trkpt lat="0" lon="0">
        <time>2020-12-20T09:11:27.556000+00:00</time>
      </trkpt>
      <trkpt lat="0" lon="0">
        <time>2020-12-20T09:11:27.566000+00:00</time>
      </trkpt>
      <trkpt lat="0" lon="0">
        <time>2020-12-20T09:11:27.568000+00:00</time>
      </trkpt>
      <trkpt lat="47.331" lon="-1.26465">
        <ele>120</ele>
        <time>2020-12-20T09:11:28.553000+00:00</time>
      </trkpt>
      <trkpt lat="0" lon="0">
        <time>2020-12-20T09:11:28.558000+00:00</time>
      </trkpt>
      <trkpt lat="0" lon="0">
        <time>2020-12-20T09:11:28.564000+00:00</time>
      </trkpt>
      <trkpt lat="0" lon="0">
        <time>2020-12-20T09:11:28.568000+00:00</time>
      </trkpt>
      <trkpt lat="47.33101" lon="-1.26465">
        <ele>121</ele>
        <time>2020-12-20T09:11:29.548000+00:00</time>
      </trkpt>
      <trkpt lat="0" lon="0">
        <time>2020-12-20T09:11:29.554000+00:00</time>
      </trkpt>
      <trkpt lat="0" lon="0">
        <time>2020-12-20T09:11:29.560000+00:00</time>
      </trkpt>
      <trkpt lat="0" lon="0">
        <time>2020-12-20T09:11:29.563000+00:00</time>
      </trkpt>
      <trkpt lat="47.33101" lon="-1.26465">
        <ele>121</ele>
        <time>2020-12-20T09:11:30.537000+00:00</time>
      </trkpt>
      <trkpt lat="0" lon="0">
        <time>2020-12-20T09:11:30.550000+00:00</time>
      </trkpt>
      <trkpt lat="0" lon="0">
        <time>2020-12-20T09:11:30.555000+00:00</time>
      </trkpt>
      <trkpt lat="0" lon="0">
        <time>2020-12-20T09:11:30.558000+00:00</time>
      </trkpt>
      <trkpt lat="47.33102" lon="-1.26465">
        <ele>121</ele>
        <time>2020-12-20T09:11:31.511000+00:00</time>
      </trkpt>
      <trkpt lat="0" lon="0">
        <time>2020-12-20T09:11:31.516000+00:00</time>
      </trkpt>
      <trkpt lat="0" lon="0">
        <time>2020-12-20T09:11:31.521000+00:00</time>
      </trkpt>
      <trkpt lat="0" lon="0">
        <time>2020-12-20T09:11:31.523000+00:00</time>
      </trkpt>
      <trkpt lat="47.33103" lon="-1.26465">
        <ele>121</ele>
        <time>2020-12-20T09:11:32.537000+00:00</time>
      </trkpt>
      <trkpt lat="0" lon="0">
        <time>2020-12-20T09:11:32.554000+00:00</time>
      </trkpt>
      <trkpt lat="0" lon="0">
        <time>2020-12-20T09:11:32.558000+00:00</time>
      </trkpt>
      <trkpt lat="0" lon="0">
        <time>2020-12-20T09:11:32.561000+00:00</time>
      </trkpt>
      <trkpt lat="47.33105" lon="-1.26466">
        <ele>121</ele>
        <time>2020-12-20T09:11:33.520000+00:00</time>
      </trkpt>
      <trkpt lat="0" lon="0">
        <time>2020-12-20T09:11:33.525000+00:00</time>
      </trkpt>
      <trkpt lat="0" lon="0">
        <time>2020-12-20T09:11:33.532000+00:00</time>
      </trkpt>
      <trkpt lat="0" lon="0">
        <time>2020-12-20T09:11:33.537000+00:00</time>
      </trkpt>
      <trkpt lat="47.33106" lon="-1.26466">
        <ele>121</ele>
        <time>2020-12-20T09:11:34.531000+00:00</time>
      </trkpt>
      <trkpt lat="0" lon="0">
        <time>2020-12-20T09:11:34.537000+00:00</time>
      </trkpt>
      <trkpt lat="0" lon="0">
        <time>2020-12-20T09:11:34.542000+00:00</time>
      </trkpt>
      <trkpt lat="0" lon="0">
        <time>2020-12-20T09:11:34.544000+00:00</time>
      </trkpt>
      <trkpt lat="47.33107" lon="-1.26466">
        <ele>121</ele>
        <time>2020-12-20T09:11:35.529000+00:00</time>
      </trkpt>
      <trkpt lat="0" lon="0">
        <time>2020-12-20T09:11:35.540000+00:00</time>
      </trkpt>
      <trkpt lat="0" lon="0">
        <time>2020-12-20T09:11:35.547000+00:00</time>
      </trkpt>
      <trkpt lat="0" lon="0">
        <time>2020-12-20T09:11:35.549000+00:00</time>
      </trkpt>
      <trkpt lat="47.33108" lon="-1.26467">
        <ele>121</ele>
        <time>2020-12-20T09:11:36.527000+00:00</time>
      </trkpt>
      <trkpt lat="0" lon="0">
        <time>2020-12-20T09:11:36.534000+00:00</time>
      </trkpt>
      <trkpt lat="0" lon="0">
        <time>2020-12-20T09:11:36.537000+00:00</time>
      </trkpt>
      <trkpt lat="0" lon="0">
        <time>2020-12-20T09:11:36.541000+00:00</time>
      </trkpt>
      <trkpt lat="47.3311" lon="-1.26467">
        <ele>121</ele>
        <time>2020-12-20T09:11:37.526000+00:00</time>
      </trkpt>
      <trkpt lat="0" lon="0">
        <time>2020-12-20T09:11:37.538000+00:00</time>
      </trkpt>
      <trkpt lat="0" lon="0">
        <time>2020-12-20T09:11:37.542000+00:00</time>
      </trkpt>
      <trkpt lat="0" lon="0">
        <time>2020-12-20T09:11:37.544000+00:00</time>
      </trkpt>
      <trkpt lat="47.33111" lon="-1.26468">
        <ele>121</ele>
        <time>2020-12-20T09:11:38.529000+00:00</time>
      </trkpt>
      <trkpt lat="0" lon="0">
        <time>2020-12-20T09:11:38.534000+00:00</time>
      </trkpt>
      <trkpt lat="0" lon="0">
        <time>2020-12-20T09:11:38.540000+00:00</time>
      </trkpt>
      <trkpt lat="0" lon="0">
        <time>2020-12-20T09:11:38.543000+00:00</time>
      </trkpt>
      <trkpt lat="47.33112" lon="-1.26468">
        <ele>121</ele>
        <time>2020-12-20T09:11:39.552000+00:00</time>
      </trkpt>
      <trkpt lat="0" lon="0">
        <time>2020-12-20T09:11:39.557000+00:00</time>
      </trkpt>
      <trkpt lat="0" lon="0">
        <time>2020-12-20T09:11:39.567000+00:00</time>
      </trkpt>
      <trkpt lat="0" lon="0">
        <time>2020-12-20T09:11:39.570000+00:00</time>
      </trkpt>
      <trkpt lat="47.33112" lon="-1.26468">
        <ele>121</ele>
        <time>2020-12-20T09:11:40.535000+00:00</time>
      </trkpt>
      <trkpt lat="0" lon="0">
        <time>2020-12-20T09:11:40.540000+00:00</time>
      </trkpt>
      <trkpt lat="0" lon="0">
        <time>2020-12-20T09:11:40.543000+00:00</time>
      </trkpt>
      <trkpt lat="0" lon="0">
        <time>2020-12-20T09:11:40.545000+00:00</time>
      </trkpt>
      <trkpt lat="47.33112" lon="-1.26469">
        <ele>121</ele>
        <time>2020-12-20T09:11:41.569000+00:00</time>
      </trkpt>
      <trkpt lat="0" lon="0">
        <time>2020-12-20T09:11:41.577000+00:00</time>
      </trkpt>
      <trkpt lat="0" lon="0">
        <time>2020-12-20T09:11:41.581000+00:00</time>
      </trkpt>
      <trkpt lat="0" lon="0">
        <time>2020-12-20T09:11:41.585000+00:00</time>
      </trkpt>
      <trkpt lat="47.33113" lon="-1.26469">
        <ele>121</ele>
        <time>2020-12-20T09:11:42.578000+00:00</time>
      </trkpt>
      <trkpt lat="0" lon="0">
        <time>2020-12-20T09:11:42.583000+00:00</time>
      </trkpt>
      <trkpt lat="0" lon="0">
        <time>2020-12-20T09:11:42.585000+00:00</time>
      </trkpt>
      <trkpt lat="0" lon="0">
        <time>2020-12-20T09:11:42.587000+00:00</time>
      </trkpt>
      <trkpt lat="47.33113" lon="-1.26469">
        <ele>121</ele>
        <time>2020-12-20T09:11:43.498000+00:00</time>
      </trkpt>
      <trkpt lat="0" lon="0">
        <time>2020-12-20T09:11:43.507000+00:00</time>
      </trkpt>
      <trkpt lat="0" lon="0">
        <time>2020-12-20T09:11:43.509000+00:00</time>
      </trkpt>
      <trkpt lat="0" lon="0">
        <time>2020-12-20T09:11:43.510000+00:00</time>
      </trkpt>
      <trkpt lat="47.33114" lon="-1.26469">
        <ele>121</ele>
        <time>2020-12-20T09:11:44.515000+00:00</time>
      </trkpt>
      <trkpt lat="0" lon="0">
        <time>2020-12-20T09:11:44.540000+00:00</time>
      </trkpt>
      <trkpt lat="0" lon="0">
        <time>2020-12-20T09:11:44.548000+00:00</time>
      </trkpt>
      <trkpt lat="0" lon="0">
        <time>2020-12-20T09:11:44.551000+00:00</time>
      </trkpt>
      <trkpt lat="47.33115" lon="-1.26469">
        <ele>121</ele>
        <time>2020-12-20T09:11:45.521000+00:00</time>
      </trkpt>
      <trkpt lat="0" lon="0">
        <time>2020-12-20T09:11:45.526000+00:00</time>
      </trkpt>
      <trkpt lat="0" lon="0">
        <time>2020-12-20T09:11:45.539000+00:00</time>
      </trkpt>
      <trkpt lat="0" lon="0">
        <time>2020-12-20T09:11:45.548000+00:00</time>
      </trkpt>
      <trkpt lat="47.33121" lon="-1.26468">
        <ele>122</ele>
        <time>2020-12-20T09:11:46.476000+00:00</time>
      </trkpt>
      <trkpt lat="0" lon="0">
        <time>2020-12-20T09:11:46.477000+00:00</time>
      </trkpt>
      <trkpt lat="0" lon="0">
        <time>2020-12-20T09:11:46.478000+00:00</time>
      </trkpt>
      <trkpt lat="0" lon="0">
        <time>2020-12-20T09:11:46.479000+00:00</time>
      </trkpt>
      <trkpt lat="47.33122" lon="-1.26467">
        <ele>122</ele>
        <time>2020-12-20T09:11:47.523000+00:00</time>
      </trkpt>
      <trkpt lat="0" lon="0">
        <time>2020-12-20T09:11:47.534000+00:00</time>
      </trkpt>
      <trkpt lat="0" lon="0">
        <time>2020-12-20T09:11:47.543000+00:00</time>
      </trkpt>
      <trkpt lat="0" lon="0">
        <time>2020-12-20T09:11:47.546000+00:00</time>
      </trkpt>
      <trkpt lat="47.33124" lon="-1.26467">
        <ele>122</ele>
        <time>2020-12-20T09:11:48.494000+00:00</time>
      </trkpt>
      <trkpt lat="0" lon="0">
        <time>2020-12-20T09:11:48.507000+00:00</time>
      </trkpt>
      <trkpt lat="0" lon="0">
        <time>2020-12-20T09:11:48.514000+00:00</time>
      </trkpt>
      <trkpt lat="0" lon="0">
        <time>2020-12-20T09:11:48.516000+00:00</time>
      </trkpt>
      <trkpt lat="47.33125" lon="-1.26466">
        <ele>123</ele>
        <time>2020-12-20T09:11:49.540000+00:00</time>
      </trkpt>
      <trkpt lat="0" lon="0">
        <time>2020-12-20T09:11:49.547000+00:00</time>
      </trkpt>
      <trkpt lat="0" lon="0">
        <time>2020-12-20T09:11:49.555000+00:00</time>
      </trkpt>
      <trkpt lat="0" lon="0">
        <time>2020-12-20T09:11:49.558000+00:00</time>
      </trkpt>
      <trkpt lat="47.33127" lon="-1.26466">
        <ele>122</ele>
        <time>2020-12-20T09:11:50.539000+00:00</time>
      </trkpt>
      <trkpt lat="0" lon="0">
        <time>2020-12-20T09:11:50.549000+00:00</time>
      </trkpt>
      <trkpt lat="0" lon="0">
        <time>2020-12-20T09:11:50.551000+00:00</time>
      </trkpt>
      <trkpt lat="0" lon="0">
        <time>2020-12-20T09:11:50.552000+00:00</time>
      </trkpt>
      <trkpt lat="47.33129" lon="-1.26466">
        <ele>123</ele>
        <time>2020-12-20T09:11:51.499000+00:00</time>
      </trkpt>
      <trkpt lat="0" lon="0">
        <time>2020-12-20T09:11:51.502000+00:00</time>
      </trkpt>
      <trkpt lat="0" lon="0">
        <time>2020-12-20T09:11:51.506000+00:00</time>
      </trkpt>
      <trkpt lat="0" lon="0">
        <time>2020-12-20T09:11:51.509000+00:00</time>
      </trkpt>
      <trkpt lat="47.33131" lon="-1.26466">
        <ele>123</ele>
        <time>2020-12-20T09:11:52.567000+00:00</time>
      </trkpt>
      <trkpt lat="0" lon="0">
        <time>2020-12-20T09:11:52.584000+00:00</time>
      </trkpt>
      <trkpt lat="0" lon="0">
        <time>2020-12-20T09:11:52.591000+00:00</time>
      </trkpt>
      <trkpt lat="0" lon="0">
        <time>2020-12-20T09:11:52.593000+00:00</time>
      </trkpt>
      <trkpt lat="47.33133" lon="-1.26466">
        <ele>123</ele>
        <time>2020-12-20T09:11:53.550000+00:00</time>
      </trkpt>
      <trkpt lat="0" lon="0">
        <time>2020-12-20T09:11:53.556000+00:00</time>
      </trkpt>
      <trkpt lat="0" lon="0">
        <time>2020-12-20T09:11:53.563000+00:00</time>
      </trkpt>
      <trkpt lat="0" lon="0">
        <time>2020-12-20T09:11:53.567000+00:00</time>
      </trkpt>
      <trkpt lat="47.33136" lon="-1.26466">
        <ele>124</ele>
        <time>2020-12-20T09:11:54.529000+00:00</time>
      </trkpt>
      <trkpt lat="0" lon="0">
        <time>2020-12-20T09:11:54.535000+00:00</time>
      </trkpt>
      <trkpt lat="0" lon="0">
        <time>2020-12-20T09:11:54.547000+00:00</time>
      </trkpt>
      <trkpt lat="0" lon="0">
        <time>2020-12-20T09:11:54.550000+00:00</time>
      </trkpt>
      <trkpt lat="47.33138" lon="-1.26466">
        <ele>125</ele>
        <time>2020-12-20T09:11:55.551000+00:00</time>
      </trkpt>
      <trkpt lat="0" lon="0">
        <time>2020-12-20T09:11:55.565000+00:00</time>
      </trkpt>
      <trkpt lat="0" lon="0">
        <time>2020-12-20T09:11:55.568000+00:00</time>
      </trkpt>
      <trkpt lat="0" lon="0">
        <time>2020-12-20T09:11:55.572000+00:00</time>
      </trkpt>
      <trkpt lat="47.33141" lon="-1.26466">
        <ele>126</ele>
        <time>2020-12-20T09:11:56.538000+00:00</time>
      </trkpt>
      <trkpt lat="0" lon="0">
        <time>2020-12-20T09:11:56.543000+00:00</time>
      </trkpt>
      <trkpt lat="0" lon="0">
        <time>2020-12-20T09:11:56.556000+00:00</time>
      </trkpt>
      <trkpt lat="0" lon="0">
        <time>2020-12-20T09:11:56.560000+00:00</time>
      </trkpt>
      <trkpt lat="47.33143" lon="-1.26466">
        <ele>126</ele>
        <time>2020-12-20T09:11:57.551000+00:00</time>
      </trkpt>
      <trkpt lat="0" lon="0">
        <time>2020-12-20T09:11:57.557000+00:00</time>
      </trkpt>
      <trkpt lat="0" lon="0">
        <time>2020-12-20T09:11:57.562000+00:00</time>
      </trkpt>
      <trkpt lat="0" lon="0">
        <time>2020-12-20T09:11:57.565000+00:00</time>
      </trkpt>
      <trkpt lat="47.33145" lon="-1.26466">
        <ele>126</ele>
        <time>2020-12-20T09:11:58.561000+00:00</time>
      </trkpt>
      <trkpt lat="0" lon="0">
        <time>2020-12-20T09:11:58.574000+00:00</time>
      </trkpt>
      <trkpt lat="0" lon="0">
        <time>2020-12-20T09:11:58.583000+00:00</time>
      </trkpt>
      <trkpt lat="0" lon="0">
        <time>2020-12-20T09:11:58.585000+00:00</time>
      </trkpt>
      <trkpt lat="47.33148" lon="-1.26466">
        <ele>127</ele>
        <time>2020-12-20T09:11:59.534000+00:00</time>
      </trkpt>
      <trkpt lat="0" lon="0">
        <time>2020-12-20T09:11:59.542000+00:00</time>
      </trkpt>
      <trkpt lat="0" lon="0">
        <time>2020-12-20T09:11:59.546000+00:00</time>
      </trkpt>
      <trkpt lat="0" lon="0">
        <time>2020-12-20T09:11:59.550000+00:00</time>
      </trkpt>
      <trkpt lat="47.3315" lon="-1.26465">
        <ele>127</ele>
        <time>2020-12-20T09:12:00.555000+00:00</time>
      </trkpt>
      <trkpt lat="0" lon="0">
        <time>2020-12-20T09:12:00.560000+00:00</time>
      </trkpt>
      <trkpt lat="0" lon="0">
        <time>2020-12-20T09:12:00.567000+00:00</time>
      </trkpt>
      <trkpt lat="0" lon="0">
        <time>2020-12-20T09:12:00.570000+00:00</time>
      </trkpt>
      <trkpt lat="47.33152" lon="-1.26465">
        <ele>128</ele>
        <time>2020-12-20T09:12:01.570000+00:00</time>
      </trkpt>
      <trkpt lat="0" lon="0">
        <time>2020-12-20T09:12:01.578000+00:00</time>
      </trkpt>
      <trkpt lat="0" lon="0">
        <time>2020-12-20T09:12:01.584000+00:00</time>
      </trkpt>
      <trkpt lat="0" lon="0">
        <time>2020-12-20T09:12:01.587000+00:00</time>
      </trkpt>
      <trkpt lat="47.33155" lon="-1.26465">
        <ele>128</ele>
        <time>2020-12-20T09:12:02.558000+00:00</time>
      </trkpt>
      <trkpt lat="0" lon="0">
        <time>2020-12-20T09:12:02.572000+00:00</time>
      </trkpt>
      <trkpt lat="0" lon="0">
        <time>2020-12-20T09:12:02.576000+00:00</time>
      </trkpt>
      <trkpt lat="0" lon="0">
        <time>2020-12-20T09:12:02.580000+00:00</time>
      </trkpt>
      <trkpt lat="47.33157" lon="-1.26464">
        <ele>128</ele>
        <time>2020-12-20T09:12:03.525000+00:00</time>
      </trkpt>
      <trkpt lat="0" lon="0">
        <time>2020-12-20T09:12:03.533000+00:00</time>
      </trkpt>
      <trkpt lat="0" lon="0">
        <time>2020-12-20T09:12:03.543000+00:00</time>
      </trkpt>
      <trkpt lat="0" lon="0">
        <time>2020-12-20T09:12:03.546000+00:00</time>
      </trkpt>
      <trkpt lat="47.3316" lon="-1.26464">
        <ele>128</ele>
        <time>2020-12-20T09:12:04.471000+00:00</time>
      </trkpt>
      <trkpt lat="0" lon="0">
        <time>2020-12-20T09:12:04.487000+00:00</time>
      </trkpt>
      <trkpt lat="0" lon="0">
        <time>2020-12-20T09:12:04.494000+00:00</time>
      </trkpt>
      <trkpt lat="0" lon="0">
        <time>2020-12-20T09:12:04.500000+00:00</time>
      </trkpt>
      <trkpt lat="47.33162" lon="-1.26463">
        <ele>129</ele>
        <time>2020-12-20T09:12:05.559000+00:00</time>
      </trkpt>
      <trkpt lat="0" lon="0">
        <time>2020-12-20T09:12:05.570000+00:00</time>
      </trkpt>
      <trkpt lat="0" lon="0">
        <time>2020-12-20T09:12:05.574000+00:00</time>
      </trkpt>
      <trkpt lat="0" lon="0">
        <time>2020-12-20T09:12:05.576000+00:00</time>
      </trkpt>
      <trkpt lat="47.33165" lon="-1.26463">
        <ele>129</ele>
        <time>2020-12-20T09:12:06.537000+00:00</time>
      </trkpt>
      <trkpt lat="0" lon="0">
        <time>2020-12-20T09:12:06.540000+00:00</time>
      </trkpt>
      <trkpt lat="0" lon="0">
        <time>2020-12-20T09:12:06.544000+00:00</time>
      </trkpt>
      <trkpt lat="0" lon="0">
        <time>2020-12-20T09:12:06.546000+00:00</time>
      </trkpt>
      <trkpt lat="47.33168" lon="-1.26463">
        <ele>129</ele>
        <time>2020-12-20T09:12:07.543000+00:00</time>
      </trkpt>
      <trkpt lat="0" lon="0">
        <time>2020-12-20T09:12:07.548000+00:00</time>
      </trkpt>
      <trkpt lat="0" lon="0">
        <time>2020-12-20T09:12:07.560000+00:00</time>
      </trkpt>
      <trkpt lat="0" lon="0">
        <time>2020-12-20T09:12:07.562000+00:00</time>
      </trkpt>
      <trkpt lat="47.33171" lon="-1.26464">
        <ele>129</ele>
        <time>2020-12-20T09:12:08.555000+00:00</time>
      </trkpt>
      <trkpt lat="0" lon="0">
        <time>2020-12-20T09:12:08.561000+00:00</time>
      </trkpt>
      <trkpt lat="0" lon="0">
        <time>2020-12-20T09:12:08.567000+00:00</time>
      </trkpt>
      <trkpt lat="0" lon="0">
        <time>2020-12-20T09:12:08.572000+00:00</time>
      </trkpt>
      <trkpt lat="47.33174" lon="-1.26464">
        <ele>129</ele>
        <time>2020-12-20T09:12:09.556000+00:00</time>
      </trkpt>
      <trkpt lat="0" lon="0">
        <time>2020-12-20T09:12:09.564000+00:00</time>
      </trkpt>
      <trkpt lat="0" lon="0">
        <time>2020-12-20T09:12:09.566000+00:00</time>
      </trkpt>
      <trkpt lat="0" lon="0">
        <time>2020-12-20T09:12:09.567000+00:00</time>
      </trkpt>
      <trkpt lat="47.33177" lon="-1.26464">
        <ele>129</ele>
        <time>2020-12-20T09:12:10.546000+00:00</time>
      </trkpt>
      <trkpt lat="0" lon="0">
        <time>2020-12-20T09:12:10.559000+00:00</time>
      </trkpt>
      <trkpt lat="0" lon="0">
        <time>2020-12-20T09:12:10.567000+00:00</time>
      </trkpt>
      <trkpt lat="0" lon="0">
        <time>2020-12-20T09:12:10.570000+00:00</time>
      </trkpt>
      <trkpt lat="47.3318" lon="-1.26464">
        <ele>130</ele>
        <time>2020-12-20T09:12:11.534000+00:00</time>
      </trkpt>
      <trkpt lat="0" lon="0">
        <time>2020-12-20T09:12:11.540000+00:00</time>
      </trkpt>
      <trkpt lat="0" lon="0">
        <time>2020-12-20T09:12:11.547000+00:00</time>
      </trkpt>
      <trkpt lat="0" lon="0">
        <time>2020-12-20T09:12:11.548000+00:00</time>
      </trkpt>
      <trkpt lat="47.33184" lon="-1.26463">
        <ele>130</ele>
        <time>2020-12-20T09:12:12.528000+00:00</time>
      </trkpt>
      <trkpt lat="0" lon="0">
        <time>2020-12-20T09:12:12.531000+00:00</time>
      </trkpt>
      <trkpt lat="0" lon="0">
        <time>2020-12-20T09:12:12.534000+00:00</time>
      </trkpt>
      <trkpt lat="0" lon="0">
        <time>2020-12-20T09:12:12.536000+00:00</time>
      </trkpt>
      <trkpt lat="47.33187" lon="-1.26462">
        <ele>130</ele>
        <time>2020-12-20T09:12:13.530000+00:00</time>
      </trkpt>
      <trkpt lat="0" lon="0">
        <time>2020-12-20T09:12:13.538000+00:00</time>
      </trkpt>
      <trkpt lat="0" lon="0">
        <time>2020-12-20T09:12:13.542000+00:00</time>
      </trkpt>
      <trkpt lat="0" lon="0">
        <time>2020-12-20T09:12:13.546000+00:00</time>
      </trkpt>
      <trkpt lat="47.3319" lon="-1.26461">
        <ele>131</ele>
        <time>2020-12-20T09:12:14.538000+00:00</time>
      </trkpt>
      <trkpt lat="0" lon="0">
        <time>2020-12-20T09:12:14.547000+00:00</time>
      </trkpt>
      <trkpt lat="0" lon="0">
        <time>2020-12-20T09:12:14.551000+00:00</time>
      </trkpt>
      <trkpt lat="0" lon="0">
        <time>2020-12-20T09:12:14.553000+00:00</time>
      </trkpt>
      <trkpt lat="47.33193" lon="-1.26459">
        <ele>131</ele>
        <time>2020-12-20T09:12:15.553000+00:00</time>
      </trkpt>
      <trkpt lat="0" lon="0">
        <time>2020-12-20T09:12:15.558000+00:00</time>
      </trkpt>
      <trkpt lat="0" lon="0">
        <time>2020-12-20T09:12:15.568000+00:00</time>
      </trkpt>
      <trkpt lat="0" lon="0">
        <time>2020-12-20T09:12:15.575000+00:00</time>
      </trkpt>
      <trkpt lat="47.33197" lon="-1.26457">
        <ele>131</ele>
        <time>2020-12-20T09:12:16.556000+00:00</time>
      </trkpt>
      <trkpt lat="0" lon="0">
        <time>2020-12-20T09:12:16.560000+00:00</time>
      </trkpt>
      <trkpt lat="0" lon="0">
        <time>2020-12-20T09:12:16.569000+00:00</time>
      </trkpt>
      <trkpt lat="0" lon="0">
        <time>2020-12-20T09:12:16.571000+00:00</time>
      </trkpt>
      <trkpt lat="47.33199" lon="-1.26455">
        <ele>131</ele>
        <time>2020-12-20T09:12:17.531000+00:00</time>
      </trkpt>
      <trkpt lat="0" lon="0">
        <time>2020-12-20T09:12:17.535000+00:00</time>
      </trkpt>
      <trkpt lat="0" lon="0">
        <time>2020-12-20T09:12:17.540000+00:00</time>
      </trkpt>
      <trkpt lat="0" lon="0">
        <time>2020-12-20T09:12:17.543000+00:00</time>
      </trkpt>
      <trkpt lat="47.33202" lon="-1.26452">
        <ele>132</ele>
        <time>2020-12-20T09:12:18.542000+00:00</time>
      </trkpt>
      <trkpt lat="0" lon="0">
        <time>2020-12-20T09:12:18.555000+00:00</time>
      </trkpt>
      <trkpt lat="0" lon="0">
        <time>2020-12-20T09:12:18.560000+00:00</time>
      </trkpt>
      <trkpt lat="0" lon="0">
        <time>2020-12-20T09:12:18.563000+00:00</time>
      </trkpt>
      <trkpt lat="47.33204" lon="-1.2645">
        <ele>132</ele>
        <time>2020-12-20T09:12:19.552000+00:00</time>
      </trkpt>
      <trkpt lat="0" lon="0">
        <time>2020-12-20T09:12:19.560000+00:00</time>
      </trkpt>
      <trkpt lat="0" lon="0">
        <time>2020-12-20T09:12:19.565000+00:00</time>
      </trkpt>
      <trkpt lat="0" lon="0">
        <time>2020-12-20T09:12:19.567000+00:00</time>
      </trkpt>
      <trkpt lat="47.33206" lon="-1.26447">
        <ele>133</ele>
        <time>2020-12-20T09:12:20.544000+00:00</time>
      </trkpt>
      <trkpt lat="0" lon="0">
        <time>2020-12-20T09:12:20.554000+00:00</time>
      </trkpt>
      <trkpt lat="0" lon="0">
        <time>2020-12-20T09:12:20.565000+00:00</time>
      </trkpt>
      <trkpt lat="0" lon="0">
        <time>2020-12-20T09:12:20.568000+00:00</time>
      </trkpt>
      <trkpt lat="47.33208" lon="-1.26445">
        <ele>134</ele>
        <time>2020-12-20T09:12:21.543000+00:00</time>
      </trkpt>
      <trkpt lat="0" lon="0">
        <time>2020-12-20T09:12:21.551000+00:00</time>
      </trkpt>
      <trkpt lat="0" lon="0">
        <time>2020-12-20T09:12:21.556000+00:00</time>
      </trkpt>
      <trkpt lat="0" lon="0">
        <time>2020-12-20T09:12:21.559000+00:00</time>
      </trkpt>
      <trkpt lat="47.3321" lon="-1.26442">
        <ele>135</ele>
        <time>2020-12-20T09:12:22.540000+00:00</time>
      </trkpt>
      <trkpt lat="0" lon="0">
        <time>2020-12-20T09:12:22.553000+00:00</time>
      </trkpt>
      <trkpt lat="0" lon="0">
        <time>2020-12-20T09:12:22.559000+00:00</time>
      </trkpt>
      <trkpt lat="0" lon="0">
        <time>2020-12-20T09:12:22.566000+00:00</time>
      </trkpt>
      <trkpt lat="47.33211" lon="-1.26439">
        <ele>136</ele>
        <time>2020-12-20T09:12:23.540000+00:00</time>
      </trkpt>
      <trkpt lat="0" lon="0">
        <time>2020-12-20T09:12:23.551000+00:00</time>
      </trkpt>
      <trkpt lat="0" lon="0">
        <time>2020-12-20T09:12:23.560000+00:00</time>
      </trkpt>
      <trkpt lat="0" lon="0">
        <time>2020-12-20T09:12:23.561000+00:00</time>
      </trkpt>
      <trkpt lat="47.33213" lon="-1.26436">
        <ele>136</ele>
        <time>2020-12-20T09:12:24.486000+00:00</time>
      </trkpt>
      <trkpt lat="0" lon="0">
        <time>2020-12-20T09:12:24.493000+00:00</time>
      </trkpt>
      <trkpt lat="0" lon="0">
        <time>2020-12-20T09:12:24.494000+00:00</time>
      </trkpt>
      <trkpt lat="47.33214" lon="-1.26433">
        <ele>137</ele>
        <time>2020-12-20T09:12:25.572000+00:00</time>
      </trkpt>
      <trkpt lat="0" lon="0">
        <time>2020-12-20T09:12:25.582000+00:00</time>
      </trkpt>
      <trkpt lat="0" lon="0">
        <time>2020-12-20T09:12:25.588000+00:00</time>
      </trkpt>
      <trkpt lat="0" lon="0">
        <time>2020-12-20T09:12:25.592000+00:00</time>
      </trkpt>
      <trkpt lat="47.33215" lon="-1.2643">
        <ele>137</ele>
        <time>2020-12-20T09:12:26.546000+00:00</time>
      </trkpt>
      <trkpt lat="0" lon="0">
        <time>2020-12-20T09:12:26.566000+00:00</time>
      </trkpt>
      <trkpt lat="0" lon="0">
        <time>2020-12-20T09:12:26.571000+00:00</time>
      </trkpt>
      <trkpt lat="0" lon="0">
        <time>2020-12-20T09:12:26.573000+00:00</time>
      </trkpt>
      <trkpt lat="47.33216" lon="-1.26428">
        <ele>138</ele>
        <time>2020-12-20T09:12:27.495000+00:00</time>
      </trkpt>
      <trkpt lat="0" lon="0">
        <time>2020-12-20T09:12:27.510000+00:00</time>
      </trkpt>
      <trkpt lat="0" lon="0">
        <time>2020-12-20T09:12:27.520000+00:00</time>
      </trkpt>
      <trkpt lat="0" lon="0">
        <time>2020-12-20T09:12:27.521000+00:00</time>
      </trkpt>
      <trkpt lat="47.33217" lon="-1.26425">
        <ele>138</ele>
        <time>2020-12-20T09:12:28.486000+00:00</time>
      </trkpt>
      <trkpt lat="0" lon="0">
        <time>2020-12-20T09:12:28.498000+00:00</time>
      </trkpt>
      <trkpt lat="0" lon="0">
        <time>2020-12-20T09:12:28.507000+00:00</time>
      </trkpt>
      <trkpt lat="0" lon="0">
        <time>2020-12-20T09:12:28.508000+00:00</time>
      </trkpt>
      <trkpt lat="47.33218" lon="-1.26423">
        <ele>139</ele>
        <time>2020-12-20T09:12:29.442000+00:00</time>
      </trkpt>
      <trkpt lat="0" lon="0">
        <time>2020-12-20T09:12:29.447000+00:00</time>
      </trkpt>
      <trkpt lat="0" lon="0">
        <time>2020-12-20T09:12:29.450000+00:00</time>
      </trkpt>
      <trkpt lat="0" lon="0">
        <time>2020-12-20T09:12:29.451000+00:00</time>
      </trkpt>
      <trkpt lat="47.33219" lon="-1.2642">
        <ele>140</ele>
        <time>2020-12-20T09:12:30.472000+00:00</time>
      </trkpt>
      <trkpt lat="0" lon="0">
        <time>2020-12-20T09:12:30.473000+00:00</time>
      </trkpt>
      <trkpt lat="0" lon="0">
        <time>2020-12-20T09:12:30.475000+00:00</time>
      </trkpt>
      <trkpt lat="0" lon="0">
        <time>2020-12-20T09:12:30.477000+00:00</time>
      </trkpt>
      <trkpt lat="47.33219" lon="-1.26417">
        <ele>141</ele>
        <time>2020-12-20T09:12:31.475000+00:00</time>
      </trkpt>
      <trkpt lat="0" lon="0">
        <time>2020-12-20T09:12:31.482000+00:00</time>
      </trkpt>
      <trkpt lat="0" lon="0">
        <time>2020-12-20T09:12:31.484000+00:00</time>
      </trkpt>
      <trkpt lat="0" lon="0">
        <time>2020-12-20T09:12:31.486000+00:00</time>
      </trkpt>
      <trkpt lat="47.3322" lon="-1.26414">
        <ele>141</ele>
        <time>2020-12-20T09:12:32.514000+00:00</time>
      </trkpt>
      <trkpt lat="0" lon="0">
        <time>2020-12-20T09:12:32.518000+00:00</time>
      </trkpt>
      <trkpt lat="0" lon="0">
        <time>2020-12-20T09:12:32.522000+00:00</time>
      </trkpt>
      <trkpt lat="0" lon="0">
        <time>2020-12-20T09:12:32.523000+00:00</time>
      </trkpt>
      <trkpt lat="47.33221" lon="-1.2641">
        <ele>141</ele>
        <time>2020-12-20T09:12:33.503000+00:00</time>
      </trkpt>
      <trkpt lat="0" lon="0">
        <time>2020-12-20T09:12:33.524000+00:00</time>
      </trkpt>
      <trkpt lat="0" lon="0">
        <time>2020-12-20T09:12:33.535000+00:00</time>
      </trkpt>
      <trkpt lat="0" lon="0">
        <time>2020-12-20T09:12:33.537000+00:00</time>
      </trkpt>
      <trkpt lat="47.33222" lon="-1.26407">
        <ele>141</ele>
        <time>2020-12-20T09:12:34.517000+00:00</time>
      </trkpt>
      <trkpt lat="0" lon="0">
        <time>2020-12-20T09:12:34.523000+00:00</time>
      </trkpt>
      <trkpt lat="0" lon="0">
        <time>2020-12-20T09:12:34.528000+00:00</time>
      </trkpt>
      <trkpt lat="0" lon="0">
        <time>2020-12-20T09:12:34.531000+00:00</time>
      </trkpt>
      <trkpt lat="47.33223" lon="-1.26403">
        <ele>141</ele>
        <time>2020-12-20T09:12:35.543000+00:00</time>
      </trkpt>
      <trkpt lat="0" lon="0">
        <time>2020-12-20T09:12:35.556000+00:00</time>
      </trkpt>
      <trkpt lat="0" lon="0">
        <time>2020-12-20T09:12:35.563000+00:00</time>
      </trkpt>
      <trkpt lat="0" lon="0">
        <time>2020-12-20T09:12:35.565000+00:00</time>
      </trkpt>
      <trkpt lat="47.33224" lon="-1.26399">
        <ele>141</ele>
        <time>2020-12-20T09:12:36.520000+00:00</time>
      </trkpt>
      <trkpt lat="0" lon="0">
        <time>2020-12-20T09:12:36.528000+00:00</time>
      </trkpt>
      <trkpt lat="0" lon="0">
        <time>2020-12-20T09:12:36.547000+00:00</time>
      </trkpt>
      <trkpt lat="0" lon="0">
        <time>2020-12-20T09:12:36.555000+00:00</time>
      </trkpt>
      <trkpt lat="47.33225" lon="-1.26395">
        <ele>142</ele>
        <time>2020-12-20T09:12:37.538000+00:00</time>
      </trkpt>
      <trkpt lat="0" lon="0">
        <time>2020-12-20T09:12:37.550000+00:00</time>
      </trkpt>
      <trkpt lat="0" lon="0">
        <time>2020-12-20T09:12:37.557000+00:00</time>
      </trkpt>
      <trkpt lat="0" lon="0">
        <time>2020-12-20T09:12:37.560000+00:00</time>
      </trkpt>
      <trkpt lat="47.33227" lon="-1.2639">
        <ele>142</ele>
        <time>2020-12-20T09:12:38.516000+00:00</time>
      </trkpt>
      <trkpt lat="0" lon="0">
        <time>2020-12-20T09:12:38.532000+00:00</time>
      </trkpt>
      <trkpt lat="0" lon="0">
        <time>2020-12-20T09:12:38.537000+00:00</time>
      </trkpt>
      <trkpt lat="0" lon="0">
        <time>2020-12-20T09:12:38.539000+00:00</time>
      </trkpt>
      <trkpt lat="47.33229" lon="-1.26386">
        <ele>142</ele>
        <time>2020-12-20T09:12:39.544000+00:00</time>
      </trkpt>
      <trkpt lat="0" lon="0">
        <time>2020-12-20T09:12:39.551000+00:00</time>
      </trkpt>
      <trkpt lat="0" lon="0">
        <time>2020-12-20T09:12:39.557000+00:00</time>
      </trkpt>
      <trkpt lat="0" lon="0">
        <time>2020-12-20T09:12:39.561000+00:00</time>
      </trkpt>
      <trkpt lat="47.33231" lon="-1.26381">
        <ele>142</ele>
        <time>2020-12-20T09:12:40.544000+00:00</time>
      </trkpt>
      <trkpt lat="0" lon="0">
        <time>2020-12-20T09:12:40.563000+00:00</time>
      </trkpt>
      <trkpt lat="0" lon="0">
        <time>2020-12-20T09:12:40.569000+00:00</time>
      </trkpt>
      <trkpt lat="0" lon="0">
        <time>2020-12-20T09:12:40.571000+00:00</time>
      </trkpt>
      <trkpt lat="47.33232" lon="-1.26376">
        <ele>142</ele>
        <time>2020-12-20T09:12:41.489000+00:00</time>
      </trkpt>
      <trkpt lat="0" lon="0">
        <time>2020-12-20T09:12:41.494000+00:00</time>
      </trkpt>
      <trkpt lat="0" lon="0">
        <time>2020-12-20T09:12:41.498000+00:00</time>
      </trkpt>
      <trkpt lat="0" lon="0">
        <time>2020-12-20T09:12:41.500000+00:00</time>
      </trkpt>
      <trkpt lat="47.33234" lon="-1.26372">
        <ele>143</ele>
        <time>2020-12-20T09:12:42.558000+00:00</time>
      </trkpt>
      <trkpt lat="0" lon="0">
        <time>2020-12-20T09:12:42.567000+00:00</time>
      </trkpt>
      <trkpt lat="0" lon="0">
        <time>2020-12-20T09:12:42.570000+00:00</time>
      </trkpt>
      <trkpt lat="0" lon="0">
        <time>2020-12-20T09:12:42.573000+00:00</time>
      </trkpt>
      <trkpt lat="47.33236" lon="-1.26367">
        <ele>143</ele>
        <time>2020-12-20T09:12:43.580000+00:00</time>
      </trkpt>
      <trkpt lat="0" lon="0">
        <time>2020-12-20T09:12:43.589000+00:00</time>
      </trkpt>
      <trkpt lat="0" lon="0">
        <time>2020-12-20T09:12:43.595000+00:00</time>
      </trkpt>
      <trkpt lat="0" lon="0">
        <time>2020-12-20T09:12:43.598000+00:00</time>
      </trkpt>
      <trkpt lat="47.33238" lon="-1.26363">
        <ele>143</ele>
        <time>2020-12-20T09:12:44.562000+00:00</time>
      </trkpt>
      <trkpt lat="0" lon="0">
        <time>2020-12-20T09:12:44.573000+00:00</time>
      </trkpt>
      <trkpt lat="0" lon="0">
        <time>2020-12-20T09:12:44.578000+00:00</time>
      </trkpt>
      <trkpt lat="0" lon="0">
        <time>2020-12-20T09:12:44.580000+00:00</time>
      </trkpt>
      <trkpt lat="47.33239" lon="-1.26358">
        <ele>143</ele>
        <time>2020-12-20T09:12:45.514000+00:00</time>
      </trkpt>
      <trkpt lat="0" lon="0">
        <time>2020-12-20T09:12:45.520000+00:00</time>
      </trkpt>
      <trkpt lat="0" lon="0">
        <time>2020-12-20T09:12:45.524000+00:00</time>
      </trkpt>
      <trkpt lat="0" lon="0">
        <time>2020-12-20T09:12:45.526000+00:00</time>
      </trkpt>
      <trkpt lat="47.33241" lon="-1.26355">
        <ele>143</ele>
        <time>2020-12-20T09:12:46.528000+00:00</time>
      </trkpt>
      <trkpt lat="0" lon="0">
        <time>2020-12-20T09:12:46.534000+00:00</time>
      </trkpt>
      <trkpt lat="0" lon="0">
        <time>2020-12-20T09:12:46.544000+00:00</time>
      </trkpt>
      <trkpt lat="0" lon="0">
        <time>2020-12-20T09:12:46.548000+00:00</time>
      </trkpt>
      <trkpt lat="47.33243" lon="-1.26351">
        <ele>143</ele>
        <time>2020-12-20T09:12:47.537000+00:00</time>
      </trkpt>
      <trkpt lat="0" lon="0">
        <time>2020-12-20T09:12:47.544000+00:00</time>
      </trkpt>
      <trkpt lat="0" lon="0">
        <time>2020-12-20T09:12:47.554000+00:00</time>
      </trkpt>
      <trkpt lat="0" lon="0">
        <time>2020-12-20T09:12:47.557000+00:00</time>
      </trkpt>
      <trkpt lat="47.33245" lon="-1.26348">
        <ele>143</ele>
        <time>2020-12-20T09:12:48.550000+00:00</time>
      </trkpt>
      <trkpt lat="0" lon="0">
        <time>2020-12-20T09:12:48.560000+00:00</time>
      </trkpt>
      <trkpt lat="0" lon="0">
        <time>2020-12-20T09:12:48.565000+00:00</time>
      </trkpt>
      <trkpt lat="0" lon="0">
        <time>2020-12-20T09:12:48.568000+00:00</time>
      </trkpt>
      <trkpt lat="47.33247" lon="-1.26345">
        <ele>143</ele>
        <time>2020-12-20T09:12:49.550000+00:00</time>
      </trkpt>
      <trkpt lat="0" lon="0">
        <time>2020-12-20T09:12:49.557000+00:00</time>
      </trkpt>
      <trkpt lat="0" lon="0">
        <time>2020-12-20T09:12:49.573000+00:00</time>
      </trkpt>
      <trkpt lat="0" lon="0">
        <time>2020-12-20T09:12:49.575000+00:00</time>
      </trkpt>
      <trkpt lat="47.33249" lon="-1.26341">
        <ele>143</ele>
        <time>2020-12-20T09:12:50.531000+00:00</time>
      </trkpt>
      <trkpt lat="0" lon="0">
        <time>2020-12-20T09:12:50.538000+00:00</time>
      </trkpt>
      <trkpt lat="0" lon="0">
        <time>2020-12-20T09:12:50.551000+00:00</time>
      </trkpt>
      <trkpt lat="0" lon="0">
        <time>2020-12-20T09:12:50.554000+00:00</time>
      </trkpt>
      <trkpt lat="47.33251" lon="-1.26338">
        <ele>143</ele>
        <time>2020-12-20T09:12:51.519000+00:00</time>
      </trkpt>
      <trkpt lat="0" lon="0">
        <time>2020-12-20T09:12:51.543000+00:00</time>
      </trkpt>
      <trkpt lat="0" lon="0">
        <time>2020-12-20T09:12:51.548000+00:00</time>
      </trkpt>
      <trkpt lat="0" lon="0">
        <time>2020-12-20T09:12:51.552000+00:00</time>
      </trkpt>
      <trkpt lat="47.33253" lon="-1.26335">
        <ele>143</ele>
        <time>2020-12-20T09:12:52.536000+00:00</time>
      </trkpt>
      <trkpt lat="0" lon="0">
        <time>2020-12-20T09:12:52.561000+00:00</time>
      </trkpt>
      <trkpt lat="0" lon="0">
        <time>2020-12-20T09:12:52.567000+00:00</time>
      </trkpt>
      <trkpt lat="0" lon="0">
        <time>2020-12-20T09:12:52.572000+00:00</time>
      </trkpt>
      <trkpt lat="47.33255" lon="-1.26332">
        <ele>143</ele>
        <time>2020-12-20T09:12:53.554000+00:00</time>
      </trkpt>
      <trkpt lat="0" lon="0">
        <time>2020-12-20T09:12:53.569000+00:00</time>
      </trkpt>
      <trkpt lat="0" lon="0">
        <time>2020-12-20T09:12:53.577000+00:00</time>
      </trkpt>
      <trkpt lat="0" lon="0">
        <time>2020-12-20T09:12:53.582000+00:00</time>
      </trkpt>
      <trkpt lat="47.33257" lon="-1.26329">
        <ele>143</ele>
        <time>2020-12-20T09:12:54.579000+00:00</time>
      </trkpt>
      <trkpt lat="0" lon="0">
        <time>2020-12-20T09:12:54.587000+00:00</time>
      </trkpt>
      <trkpt lat="0" lon="0">
        <time>2020-12-20T09:12:54.591000+00:00</time>
      </trkpt>
      <trkpt lat="0" lon="0">
        <time>2020-12-20T09:12:54.597000+00:00</time>
      </trkpt>
      <trkpt lat="47.33259" lon="-1.26326">
        <ele>143</ele>
        <time>2020-12-20T09:12:55.548000+00:00</time>
      </trkpt>
      <trkpt lat="0" lon="0">
        <time>2020-12-20T09:12:55.563000+00:00</time>
      </trkpt>
      <trkpt lat="0" lon="0">
        <time>2020-12-20T09:12:55.569000+00:00</time>
      </trkpt>
      <trkpt lat="0" lon="0">
        <time>2020-12-20T09:12:55.571000+00:00</time>
      </trkpt>
      <trkpt lat="47.33261" lon="-1.26323">
        <ele>143</ele>
        <time>2020-12-20T09:12:56.543000+00:00</time>
      </trkpt>
      <trkpt lat="0" lon="0">
        <time>2020-12-20T09:12:56.551000+00:00</time>
      </trkpt>
      <trkpt lat="0" lon="0">
        <time>2020-12-20T09:12:56.556000+00:00</time>
      </trkpt>
      <trkpt lat="0" lon="0">
        <time>2020-12-20T09:12:56.560000+00:00</time>
      </trkpt>
      <trkpt lat="47.33263" lon="-1.26321">
        <ele>143</ele>
        <time>2020-12-20T09:12:57.576000+00:00</time>
      </trkpt>
      <trkpt lat="0" lon="0">
        <time>2020-12-20T09:12:57.595000+00:00</time>
      </trkpt>
      <trkpt lat="0" lon="0">
        <time>2020-12-20T09:12:57.602000+00:00</time>
      </trkpt>
      <trkpt lat="0" lon="0">
        <time>2020-12-20T09:12:57.607000+00:00</time>
      </trkpt>
      <trkpt lat="47.33265" lon="-1.26318">
        <ele>143</ele>
        <time>2020-12-20T09:12:58.543000+00:00</time>
      </trkpt>
      <trkpt lat="0" lon="0">
        <time>2020-12-20T09:12:58.551000+00:00</time>
      </trkpt>
      <trkpt lat="0" lon="0">
        <time>2020-12-20T09:12:58.558000+00:00</time>
      </trkpt>
      <trkpt lat="0" lon="0">
        <time>2020-12-20T09:12:58.560000+00:00</time>
      </trkpt>
      <trkpt lat="47.33267" lon="-1.26315">
        <ele>143</ele>
        <time>2020-12-20T09:12:59.530000+00:00</time>
      </trkpt>
      <trkpt lat="0" lon="0">
        <time>2020-12-20T09:12:59.542000+00:00</time>
      </trkpt>
      <trkpt lat="0" lon="0">
        <time>2020-12-20T09:12:59.546000+00:00</time>
      </trkpt>
      <trkpt lat="0" lon="0">
        <time>2020-12-20T09:12:59.550000+00:00</time>
      </trkpt>
      <trkpt lat="47.33269" lon="-1.26312">
        <ele>143</ele>
        <time>2020-12-20T09:13:00.564000+00:00</time>
      </trkpt>
      <trkpt lat="0" lon="0">
        <time>2020-12-20T09:13:00.575000+00:00</time>
      </trkpt>
      <trkpt lat="0" lon="0">
        <time>2020-12-20T09:13:00.579000+00:00</time>
      </trkpt>
      <trkpt lat="0" lon="0">
        <time>2020-12-20T09:13:00.582000+00:00</time>
      </trkpt>
      <trkpt lat="47.33271" lon="-1.2631">
        <ele>144</ele>
        <time>2020-12-20T09:13:01.558000+00:00</time>
      </trkpt>
      <trkpt lat="0" lon="0">
        <time>2020-12-20T09:13:01.566000+00:00</time>
      </trkpt>
      <trkpt lat="0" lon="0">
        <time>2020-12-20T09:13:01.574000+00:00</time>
      </trkpt>
      <trkpt lat="0" lon="0">
        <time>2020-12-20T09:13:01.576000+00:00</time>
      </trkpt>
      <trkpt lat="47.33273" lon="-1.26308">
        <ele>142</ele>
        <time>2020-12-20T09:13:02.581000+00:00</time>
      </trkpt>
      <trkpt lat="0" lon="0">
        <time>2020-12-20T09:13:02.585000+00:00</time>
      </trkpt>
      <trkpt lat="0" lon="0">
        <time>2020-12-20T09:13:02.589000+00:00</time>
      </trkpt>
      <trkpt lat="0" lon="0">
        <time>2020-12-20T09:13:02.592000+00:00</time>
      </trkpt>
      <trkpt lat="47.33276" lon="-1.26307">
        <ele>141</ele>
        <time>2020-12-20T09:13:03.522000+00:00</time>
      </trkpt>
      <trkpt lat="0" lon="0">
        <time>2020-12-20T09:13:03.527000+00:00</time>
      </trkpt>
      <trkpt lat="0" lon="0">
        <time>2020-12-20T09:13:03.532000+00:00</time>
      </trkpt>
      <trkpt lat="0" lon="0">
        <time>2020-12-20T09:13:03.534000+00:00</time>
      </trkpt>
      <trkpt lat="47.33278" lon="-1.26307">
        <ele>139</ele>
        <time>2020-12-20T09:13:04.524000+00:00</time>
      </trkpt>
      <trkpt lat="0" lon="0">
        <time>2020-12-20T09:13:04.532000+00:00</time>
      </trkpt>
      <trkpt lat="0" lon="0">
        <time>2020-12-20T09:13:04.542000+00:00</time>
      </trkpt>
      <trkpt lat="0" lon="0">
        <time>2020-12-20T09:13:04.545000+00:00</time>
      </trkpt>
      <trkpt lat="47.33281" lon="-1.26307">
        <ele>137</ele>
        <time>2020-12-20T09:13:05.527000+00:00</time>
      </trkpt>
      <trkpt lat="0" lon="0">
        <time>2020-12-20T09:13:05.544000+00:00</time>
      </trkpt>
      <trkpt lat="0" lon="0">
        <time>2020-12-20T09:13:05.549000+00:00</time>
      </trkpt>
      <trkpt lat="0" lon="0">
        <time>2020-12-20T09:13:05.555000+00:00</time>
      </trkpt>
      <trkpt lat="47.33283" lon="-1.26307">
        <ele>135</ele>
        <time>2020-12-20T09:13:06.543000+00:00</time>
      </trkpt>
      <trkpt lat="0" lon="0">
        <time>2020-12-20T09:13:06.558000+00:00</time>
      </trkpt>
      <trkpt lat="0" lon="0">
        <time>2020-12-20T09:13:06.565000+00:00</time>
      </trkpt>
      <trkpt lat="0" lon="0">
        <time>2020-12-20T09:13:06.570000+00:00</time>
      </trkpt>
      <trkpt lat="47.33286" lon="-1.26309">
        <ele>134</ele>
        <time>2020-12-20T09:13:07.559000+00:00</time>
      </trkpt>
      <trkpt lat="0" lon="0">
        <time>2020-12-20T09:13:07.582000+00:00</time>
      </trkpt>
      <trkpt lat="0" lon="0">
        <time>2020-12-20T09:13:07.586000+00:00</time>
      </trkpt>
      <trkpt lat="0" lon="0">
        <time>2020-12-20T09:13:07.589000+00:00</time>
      </trkpt>
      <trkpt lat="47.33289" lon="-1.26311">
        <ele>134</ele>
        <time>2020-12-20T09:13:08.560000+00:00</time>
      </trkpt>
      <trkpt lat="0" lon="0">
        <time>2020-12-20T09:13:08.566000+00:00</time>
      </trkpt>
      <trkpt lat="0" lon="0">
        <time>2020-12-20T09:13:08.571000+00:00</time>
      </trkpt>
      <trkpt lat="0" lon="0">
        <time>2020-12-20T09:13:08.573000+00:00</time>
      </trkpt>
      <trkpt lat="47.33291" lon="-1.26313">
        <ele>135</ele>
        <time>2020-12-20T09:13:09.548000+00:00</time>
      </trkpt>
      <trkpt lat="0" lon="0">
        <time>2020-12-20T09:13:09.562000+00:00</time>
      </trkpt>
      <trkpt lat="0" lon="0">
        <time>2020-12-20T09:13:09.570000+00:00</time>
      </trkpt>
      <trkpt lat="0" lon="0">
        <time>2020-12-20T09:13:09.575000+00:00</time>
      </trkpt>
      <trkpt lat="47.33294" lon="-1.26316">
        <ele>134</ele>
        <time>2020-12-20T09:13:10.514000+00:00</time>
      </trkpt>
      <trkpt lat="0" lon="0">
        <time>2020-12-20T09:13:10.519000+00:00</time>
      </trkpt>
      <trkpt lat="0" lon="0">
        <time>2020-12-20T09:13:10.527000+00:00</time>
      </trkpt>
      <trkpt lat="0" lon="0">
        <time>2020-12-20T09:13:10.528000+00:00</time>
      </trkpt>
      <trkpt lat="47.33297" lon="-1.2632">
        <ele>135</ele>
        <time>2020-12-20T09:13:11.495000+00:00</time>
      </trkpt>
      <trkpt lat="0" lon="0">
        <time>2020-12-20T09:13:11.509000+00:00</time>
      </trkpt>
      <trkpt lat="0" lon="0">
        <time>2020-12-20T09:13:11.514000+00:00</time>
      </trkpt>
      <trkpt lat="0" lon="0">
        <time>2020-12-20T09:13:11.517000+00:00</time>
      </trkpt>
      <trkpt lat="47.33299" lon="-1.26323">
        <ele>134</ele>
        <time>2020-12-20T09:13:12.540000+00:00</time>
      </trkpt>
      <trkpt lat="0" lon="0">
        <time>2020-12-20T09:13:12.547000+00:00</time>
      </trkpt>
      <trkpt lat="0" lon="0">
        <time>2020-12-20T09:13:12.552000+00:00</time>
      </trkpt>
      <trkpt lat="0" lon="0">
        <time>2020-12-20T09:13:12.560000+00:00</time>
      </trkpt>
      <trkpt lat="47.33302" lon="-1.26327">
        <ele>134</ele>
        <time>2020-12-20T09:13:13.564000+00:00</time>
      </trkpt>
      <trkpt lat="0" lon="0">
        <time>2020-12-20T09:13:13.579000+00:00</time>
      </trkpt>
      <trkpt lat="0" lon="0">
        <time>2020-12-20T09:13:13.584000+00:00</time>
      </trkpt>
      <trkpt lat="0" lon="0">
        <time>2020-12-20T09:13:13.587000+00:00</time>
      </trkpt>
      <trkpt lat="47.33305" lon="-1.26331">
        <ele>134</ele>
        <time>2020-12-20T09:13:14.508000+00:00</time>
      </trkpt>
      <trkpt lat="0" lon="0">
        <time>2020-12-20T09:13:14.516000+00:00</time>
      </trkpt>
      <trkpt lat="0" lon="0">
        <time>2020-12-20T09:13:14.522000+00:00</time>
      </trkpt>
      <trkpt lat="0" lon="0">
        <time>2020-12-20T09:13:14.524000+00:00</time>
      </trkpt>
      <trkpt lat="47.33308" lon="-1.26335">
        <ele>133</ele>
        <time>2020-12-20T09:13:15.528000+00:00</time>
      </trkpt>
      <trkpt lat="0" lon="0">
        <time>2020-12-20T09:13:15.539000+00:00</time>
      </trkpt>
      <trkpt lat="0" lon="0">
        <time>2020-12-20T09:13:15.544000+00:00</time>
      </trkpt>
      <trkpt lat="0" lon="0">
        <time>2020-12-20T09:13:15.547000+00:00</time>
      </trkpt>
      <trkpt lat="47.33311" lon="-1.26339">
        <ele>132</ele>
        <time>2020-12-20T09:13:16.543000+00:00</time>
      </trkpt>
      <trkpt lat="0" lon="0">
        <time>2020-12-20T09:13:16.555000+00:00</time>
      </trkpt>
      <trkpt lat="0" lon="0">
        <time>2020-12-20T09:13:16.559000+00:00</time>
      </trkpt>
      <trkpt lat="0" lon="0">
        <time>2020-12-20T09:13:16.562000+00:00</time>
      </trkpt>
      <trkpt lat="47.33314" lon="-1.26344">
        <ele>131</ele>
        <time>2020-12-20T09:13:17.511000+00:00</time>
      </trkpt>
      <trkpt lat="0" lon="0">
        <time>2020-12-20T09:13:17.516000+00:00</time>
      </trkpt>
      <trkpt lat="0" lon="0">
        <time>2020-12-20T09:13:17.521000+00:00</time>
      </trkpt>
      <trkpt lat="0" lon="0">
        <time>2020-12-20T09:13:17.524000+00:00</time>
      </trkpt>
      <trkpt lat="47.33317" lon="-1.26348">
        <ele>131</ele>
        <time>2020-12-20T09:13:18.524000+00:00</time>
      </trkpt>
      <trkpt lat="0" lon="0">
        <time>2020-12-20T09:13:18.542000+00:00</time>
      </trkpt>
      <trkpt lat="0" lon="0">
        <time>2020-12-20T09:13:18.555000+00:00</time>
      </trkpt>
      <trkpt lat="0" lon="0">
        <time>2020-12-20T09:13:18.562000+00:00</time>
      </trkpt>
      <trkpt lat="47.33321" lon="-1.26353">
        <ele>131</ele>
        <time>2020-12-20T09:13:19.588000+00:00</time>
      </trkpt>
      <trkpt lat="0" lon="0">
        <time>2020-12-20T09:13:19.593000+00:00</time>
      </trkpt>
      <trkpt lat="0" lon="0">
        <time>2020-12-20T09:13:19.606000+00:00</time>
      </trkpt>
      <trkpt lat="0" lon="0">
        <time>2020-12-20T09:13:19.612000+00:00</time>
      </trkpt>
      <trkpt lat="47.33324" lon="-1.26358">
        <ele>131</ele>
        <time>2020-12-20T09:13:20.527000+00:00</time>
      </trkpt>
      <trkpt lat="0" lon="0">
        <time>2020-12-20T09:13:20.537000+00:00</time>
      </trkpt>
      <trkpt lat="0" lon="0">
        <time>2020-12-20T09:13:20.542000+00:00</time>
      </trkpt>
      <trkpt lat="0" lon="0">
        <time>2020-12-20T09:13:20.546000+00:00</time>
      </trkpt>
      <trkpt lat="47.33327" lon="-1.26362">
        <ele>131</ele>
        <time>2020-12-20T09:13:21.521000+00:00</time>
      </trkpt>
      <trkpt lat="0" lon="0">
        <time>2020-12-20T09:13:21.533000+00:00</time>
      </trkpt>
      <trkpt lat="0" lon="0">
        <time>2020-12-20T09:13:21.539000+00:00</time>
      </trkpt>
      <trkpt lat="0" lon="0">
        <time>2020-12-20T09:13:21.542000+00:00</time>
      </trkpt>
      <trkpt lat="47.3333" lon="-1.26367">
        <ele>130</ele>
        <time>2020-12-20T09:13:22.573000+00:00</time>
      </trkpt>
      <trkpt lat="0" lon="0">
        <time>2020-12-20T09:13:22.583000+00:00</time>
      </trkpt>
      <trkpt lat="0" lon="0">
        <time>2020-12-20T09:13:22.587000+00:00</time>
      </trkpt>
      <trkpt lat="0" lon="0">
        <time>2020-12-20T09:13:22.588000+00:00</time>
      </trkpt>
      <trkpt lat="47.33332" lon="-1.26371">
        <ele>130</ele>
        <time>2020-12-20T09:13:23.574000+00:00</time>
      </trkpt>
      <trkpt lat="0" lon="0">
        <time>2020-12-20T09:13:23.583000+00:00</time>
      </trkpt>
      <trkpt lat="0" lon="0">
        <time>2020-12-20T09:13:23.593000+00:00</time>
      </trkpt>
      <trkpt lat="0" lon="0">
        <time>2020-12-20T09:13:23.595000+00:00</time>
      </trkpt>
      <trkpt lat="47.33335" lon="-1.26375">
        <ele>129</ele>
        <time>2020-12-20T09:13:24.565000+00:00</time>
      </trkpt>
      <trkpt lat="0" lon="0">
        <time>2020-12-20T09:13:24.582000+00:00</time>
      </trkpt>
      <trkpt lat="0" lon="0">
        <time>2020-12-20T09:13:24.586000+00:00</time>
      </trkpt>
      <trkpt lat="0" lon="0">
        <time>2020-12-20T09:13:24.590000+00:00</time>
      </trkpt>
      <trkpt lat="47.33338" lon="-1.2638">
        <ele>129</ele>
        <time>2020-12-20T09:13:25.583000+00:00</time>
      </trkpt>
      <trkpt lat="0" lon="0">
        <time>2020-12-20T09:13:25.593000+00:00</time>
      </trkpt>
      <trkpt lat="0" lon="0">
        <time>2020-12-20T09:13:25.597000+00:00</time>
      </trkpt>
      <trkpt lat="0" lon="0">
        <time>2020-12-20T09:13:25.603000+00:00</time>
      </trkpt>
      <trkpt lat="47.33341" lon="-1.26384">
        <ele>128</ele>
        <time>2020-12-20T09:13:26.583000+00:00</time>
      </trkpt>
      <trkpt lat="0" lon="0">
        <time>2020-12-20T09:13:26.595000+00:00</time>
      </trkpt>
      <trkpt lat="0" lon="0">
        <time>2020-12-20T09:13:26.598000+00:00</time>
      </trkpt>
      <trkpt lat="0" lon="0">
        <time>2020-12-20T09:13:26.599000+00:00</time>
      </trkpt>
      <trkpt lat="47.33343" lon="-1.26388">
        <ele>128</ele>
        <time>2020-12-20T09:13:27.584000+00:00</time>
      </trkpt>
      <trkpt lat="0" lon="0">
        <time>2020-12-20T09:13:27.590000+00:00</time>
      </trkpt>
      <trkpt lat="0" lon="0">
        <time>2020-12-20T09:13:27.596000+00:00</time>
      </trkpt>
      <trkpt lat="0" lon="0">
        <time>2020-12-20T09:13:27.600000+00:00</time>
      </trkpt>
      <trkpt lat="47.33346" lon="-1.26393">
        <ele>128</ele>
        <time>2020-12-20T09:13:28.566000+00:00</time>
      </trkpt>
      <trkpt lat="0" lon="0">
        <time>2020-12-20T09:13:28.576000+00:00</time>
      </trkpt>
      <trkpt lat="0" lon="0">
        <time>2020-12-20T09:13:28.583000+00:00</time>
      </trkpt>
      <trkpt lat="0" lon="0">
        <time>2020-12-20T09:13:28.585000+00:00</time>
      </trkpt>
      <trkpt lat="47.33349" lon="-1.26397">
        <ele>128</ele>
        <time>2020-12-20T09:13:29.560000+00:00</time>
      </trkpt>
      <trkpt lat="0" lon="0">
        <time>2020-12-20T09:13:29.564000+00:00</time>
      </trkpt>
      <trkpt lat="0" lon="0">
        <time>2020-12-20T09:13:29.573000+00:00</time>
      </trkpt>
      <trkpt lat="0" lon="0">
        <time>2020-12-20T09:13:29.580000+00:00</time>
      </trkpt>
      <trkpt lat="47.33352" lon="-1.26401">
        <ele>128</ele>
        <time>2020-12-20T09:13:30.563000+00:00</time>
      </trkpt>
      <trkpt lat="0" lon="0">
        <time>2020-12-20T09:13:30.568000+00:00</time>
      </trkpt>
      <trkpt lat="0" lon="0">
        <time>2020-12-20T09:13:30.576000+00:00</time>
      </trkpt>
      <trkpt lat="0" lon="0">
        <time>2020-12-20T09:13:30.579000+00:00</time>
      </trkpt>
      <trkpt lat="47.33354" lon="-1.26404">
        <ele>128</ele>
        <time>2020-12-20T09:13:31.530000+00:00</time>
      </trkpt>
      <trkpt lat="0" lon="0">
        <time>2020-12-20T09:13:31.541000+00:00</time>
      </trkpt>
      <trkpt lat="0" lon="0">
        <time>2020-12-20T09:13:31.548000+00:00</time>
      </trkpt>
      <trkpt lat="0" lon="0">
        <time>2020-12-20T09:13:31.551000+00:00</time>
      </trkpt>
      <trkpt lat="47.33356" lon="-1.26407">
        <ele>128</ele>
        <time>2020-12-20T09:13:32.538000+00:00</time>
      </trkpt>
      <trkpt lat="0" lon="0">
        <time>2020-12-20T09:13:32.550000+00:00</time>
      </trkpt>
      <trkpt lat="0" lon="0">
        <time>2020-12-20T09:13:32.555000+00:00</time>
      </trkpt>
      <trkpt lat="0" lon="0">
        <time>2020-12-20T09:13:32.558000+00:00</time>
      </trkpt>
      <trkpt lat="47.33357" lon="-1.2641">
        <ele>128</ele>
        <time>2020-12-20T09:13:33.565000+00:00</time>
      </trkpt>
      <trkpt lat="0" lon="0">
        <time>2020-12-20T09:13:33.577000+00:00</time>
      </trkpt>
      <trkpt lat="0" lon="0">
        <time>2020-12-20T09:13:33.581000+00:00</time>
      </trkpt>
      <trkpt lat="0" lon="0">
        <time>2020-12-20T09:13:33.584000+00:00</time>
      </trkpt>
      <trkpt lat="47.33357" lon="-1.26412">
        <ele>128</ele>
        <time>2020-12-20T09:13:34.530000+00:00</time>
      </trkpt>
      <trkpt lat="0" lon="0">
        <time>2020-12-20T09:13:34.552000+00:00</time>
      </trkpt>
      <trkpt lat="0" lon="0">
        <time>2020-12-20T09:13:34.556000+00:00</time>
      </trkpt>
      <trkpt lat="0" lon="0">
        <time>2020-12-20T09:13:34.559000+00:00</time>
      </trkpt>
      <trkpt lat="47.33356" lon="-1.26413">
        <ele>128</ele>
        <time>2020-12-20T09:13:35.531000+00:00</time>
      </trkpt>
      <trkpt lat="0" lon="0">
        <time>2020-12-20T09:13:35.541000+00:00</time>
      </trkpt>
      <trkpt lat="0" lon="0">
        <time>2020-12-20T09:13:35.543000+00:00</time>
      </trkpt>
      <trkpt lat="0" lon="0">
        <time>2020-12-20T09:13:35.544000+00:00</time>
      </trkpt>
      <trkpt lat="47.33355" lon="-1.26413">
        <ele>129</ele>
        <time>2020-12-20T09:13:36.561000+00:00</time>
      </trkpt>
      <trkpt lat="0" lon="0">
        <time>2020-12-20T09:13:36.568000+00:00</time>
      </trkpt>
      <trkpt lat="0" lon="0">
        <time>2020-12-20T09:13:36.573000+00:00</time>
      </trkpt>
      <trkpt lat="0" lon="0">
        <time>2020-12-20T09:13:36.577000+00:00</time>
      </trkpt>
      <trkpt lat="47.33354" lon="-1.26412">
        <ele>128</ele>
        <time>2020-12-20T09:13:37.526000+00:00</time>
      </trkpt>
      <trkpt lat="0" lon="0">
        <time>2020-12-20T09:13:37.534000+00:00</time>
      </trkpt>
      <trkpt lat="0" lon="0">
        <time>2020-12-20T09:13:37.544000+00:00</time>
      </trkpt>
      <trkpt lat="0" lon="0">
        <time>2020-12-20T09:13:37.548000+00:00</time>
      </trkpt>
      <trkpt lat="47.33352" lon="-1.26411">
        <ele>128</ele>
        <time>2020-12-20T09:13:38.554000+00:00</time>
      </trkpt>
      <trkpt lat="0" lon="0">
        <time>2020-12-20T09:13:38.562000+00:00</time>
      </trkpt>
      <trkpt lat="0" lon="0">
        <time>2020-12-20T09:13:38.573000+00:00</time>
      </trkpt>
      <trkpt lat="0" lon="0">
        <time>2020-12-20T09:13:38.575000+00:00</time>
      </trkpt>
      <trkpt lat="47.3335" lon="-1.26409">
        <ele>128</ele>
        <time>2020-12-20T09:13:39.523000+00:00</time>
      </trkpt>
      <trkpt lat="0" lon="0">
        <time>2020-12-20T09:13:39.543000+00:00</time>
      </trkpt>
      <trkpt lat="0" lon="0">
        <time>2020-12-20T09:13:39.551000+00:00</time>
      </trkpt>
      <trkpt lat="0" lon="0">
        <time>2020-12-20T09:13:39.556000+00:00</time>
      </trkpt>
      <trkpt lat="47.33348" lon="-1.26408">
        <ele>128</ele>
        <time>2020-12-20T09:13:40.545000+00:00</time>
      </trkpt>
      <trkpt lat="0" lon="0">
        <time>2020-12-20T09:13:40.554000+00:00</time>
      </trkpt>
      <trkpt lat="0" lon="0">
        <time>2020-12-20T09:13:40.559000+00:00</time>
      </trkpt>
      <trkpt lat="0" lon="0">
        <time>2020-12-20T09:13:40.567000+00:00</time>
      </trkpt>
      <trkpt lat="47.33347" lon="-1.26406">
        <ele>128</ele>
        <time>2020-12-20T09:13:41.528000+00:00</time>
      </trkpt>
      <trkpt lat="0" lon="0">
        <time>2020-12-20T09:13:41.547000+00:00</time>
      </trkpt>
      <trkpt lat="0" lon="0">
        <time>2020-12-20T09:13:41.552000+00:00</time>
      </trkpt>
      <trkpt lat="0" lon="0">
        <time>2020-12-20T09:13:41.557000+00:00</time>
      </trkpt>
      <trkpt lat="47.33345" lon="-1.26404">
        <ele>128</ele>
        <time>2020-12-20T09:13:42.523000+00:00</time>
      </trkpt>
      <trkpt lat="0" lon="0">
        <time>2020-12-20T09:13:42.531000+00:00</time>
      </trkpt>
      <trkpt lat="0" lon="0">
        <time>2020-12-20T09:13:42.539000+00:00</time>
      </trkpt>
      <trkpt lat="0" lon="0">
        <time>2020-12-20T09:13:42.553000+00:00</time>
      </trkpt>
      <trkpt lat="47.33361" lon="-1.26413">
        <ele>126</ele>
        <time>2020-12-20T09:13:43.526000+00:00</time>
      </trkpt>
      <trkpt lat="0" lon="0">
        <time>2020-12-20T09:13:43.537000+00:00</time>
      </trkpt>
      <trkpt lat="0" lon="0">
        <time>2020-12-20T09:13:43.547000+00:00</time>
      </trkpt>
      <trkpt lat="0" lon="0">
        <time>2020-12-20T09:13:43.554000+00:00</time>
      </trkpt>
      <trkpt lat="47.33364" lon="-1.26415">
        <ele>126</ele>
        <time>2020-12-20T09:13:44.570000+00:00</time>
      </trkpt>
      <trkpt lat="0" lon="0">
        <time>2020-12-20T09:13:44.583000+00:00</time>
      </trkpt>
      <trkpt lat="0" lon="0">
        <time>2020-12-20T09:13:44.590000+00:00</time>
      </trkpt>
      <trkpt lat="0" lon="0">
        <time>2020-12-20T09:13:44.592000+00:00</time>
      </trkpt>
      <trkpt lat="47.33367" lon="-1.26418">
        <ele>126</ele>
        <time>2020-12-20T09:13:45.541000+00:00</time>
      </trkpt>
      <trkpt lat="0" lon="0">
        <time>2020-12-20T09:13:45.557000+00:00</time>
      </trkpt>
      <trkpt lat="0" lon="0">
        <time>2020-12-20T09:13:45.561000+00:00</time>
      </trkpt>
      <trkpt lat="0" lon="0">
        <time>2020-12-20T09:13:45.564000+00:00</time>
      </trkpt>
      <trkpt lat="47.33371" lon="-1.26421">
        <ele>126</ele>
        <time>2020-12-20T09:13:46.517000+00:00</time>
      </trkpt>
      <trkpt lat="0" lon="0">
        <time>2020-12-20T09:13:46.523000+00:00</time>
      </trkpt>
      <trkpt lat="0" lon="0">
        <time>2020-12-20T09:13:46.528000+00:00</time>
      </trkpt>
      <trkpt lat="0" lon="0">
        <time>2020-12-20T09:13:46.531000+00:00</time>
      </trkpt>
      <trkpt lat="47.33375" lon="-1.26423">
        <ele>126</ele>
        <time>2020-12-20T09:13:47.515000+00:00</time>
      </trkpt>
      <trkpt lat="0" lon="0">
        <time>2020-12-20T09:13:47.521000+00:00</time>
      </trkpt>
      <trkpt lat="0" lon="0">
        <time>2020-12-20T09:13:47.522000+00:00</time>
      </trkpt>
      <trkpt lat="0" lon="0">
        <time>2020-12-20T09:13:47.523000+00:00</time>
      </trkpt>
      <trkpt lat="47.33379" lon="-1.26425">
        <ele>125</ele>
        <time>2020-12-20T09:13:48.554000+00:00</time>
      </trkpt>
      <trkpt lat="0" lon="0">
        <time>2020-12-20T09:13:48.561000+00:00</time>
      </trkpt>
      <trkpt lat="0" lon="0">
        <time>2020-12-20T09:13:48.566000+00:00</time>
      </trkpt>
      <trkpt lat="0" lon="0">
        <time>2020-12-20T09:13:48.569000+00:00</time>
      </trkpt>
      <trkpt lat="47.33383" lon="-1.26426">
        <ele>125</ele>
        <time>2020-12-20T09:13:49.563000+00:00</time>
      </trkpt>
      <trkpt lat="0" lon="0">
        <time>2020-12-20T09:13:49.569000+00:00</time>
      </trkpt>
      <trkpt lat="0" lon="0">
        <time>2020-12-20T09:13:49.577000+00:00</time>
      </trkpt>
      <trkpt lat="0" lon="0">
        <time>2020-12-20T09:13:49.583000+00:00</time>
      </trkpt>
      <trkpt lat="47.33387" lon="-1.26427">
        <ele>125</ele>
        <time>2020-12-20T09:13:50.537000+00:00</time>
      </trkpt>
      <trkpt lat="0" lon="0">
        <time>2020-12-20T09:13:50.549000+00:00</time>
      </trkpt>
      <trkpt lat="0" lon="0">
        <time>2020-12-20T09:13:50.554000+00:00</time>
      </trkpt>
      <trkpt lat="0" lon="0">
        <time>2020-12-20T09:13:50.559000+00:00</time>
      </trkpt>
      <trkpt lat="47.33391" lon="-1.26427">
        <ele>125</ele>
        <time>2020-12-20T09:13:51.550000+00:00</time>
      </trkpt>
      <trkpt lat="0" lon="0">
        <time>2020-12-20T09:13:51.559000+00:00</time>
      </trkpt>
      <trkpt lat="0" lon="0">
        <time>2020-12-20T09:13:51.566000+00:00</time>
      </trkpt>
      <trkpt lat="0" lon="0">
        <time>2020-12-20T09:13:51.569000+00:00</time>
      </trkpt>
      <trkpt lat="47.33396" lon="-1.26426">
        <ele>125</ele>
        <time>2020-12-20T09:13:52.536000+00:00</time>
      </trkpt>
      <trkpt lat="0" lon="0">
        <time>2020-12-20T09:13:52.542000+00:00</time>
      </trkpt>
      <trkpt lat="0" lon="0">
        <time>2020-12-20T09:13:52.548000+00:00</time>
      </trkpt>
      <trkpt lat="0" lon="0">
        <time>2020-12-20T09:13:52.552000+00:00</time>
      </trkpt>
      <trkpt lat="47.334" lon="-1.26425">
        <ele>125</ele>
        <time>2020-12-20T09:13:53.534000+00:00</time>
      </trkpt>
      <trkpt lat="0" lon="0">
        <time>2020-12-20T09:13:53.544000+00:00</time>
      </trkpt>
      <trkpt lat="0" lon="0">
        <time>2020-12-20T09:13:53.550000+00:00</time>
      </trkpt>
      <trkpt lat="0" lon="0">
        <time>2020-12-20T09:13:53.556000+00:00</time>
      </trkpt>
      <trkpt lat="47.33404" lon="-1.26424">
        <ele>124</ele>
        <time>2020-12-20T09:13:54.500000+00:00</time>
      </trkpt>
      <trkpt lat="0" lon="0">
        <time>2020-12-20T09:13:54.507000+00:00</time>
      </trkpt>
      <trkpt lat="0" lon="0">
        <time>2020-12-20T09:13:54.520000+00:00</time>
      </trkpt>
      <trkpt lat="0" lon="0">
        <time>2020-12-20T09:13:54.521000+00:00</time>
      </trkpt>
      <trkpt lat="47.33408" lon="-1.26422">
        <ele>124</ele>
        <time>2020-12-20T09:13:55.542000+00:00</time>
      </trkpt>
      <trkpt lat="0" lon="0">
        <time>2020-12-20T09:13:55.548000+00:00</time>
      </trkpt>
      <trkpt lat="0" lon="0">
        <time>2020-12-20T09:13:55.554000+00:00</time>
      </trkpt>
      <trkpt lat="0" lon="0">
        <time>2020-12-20T09:13:55.557000+00:00</time>
      </trkpt>
      <trkpt lat="47.33413" lon="-1.2642">
        <ele>124</ele>
        <time>2020-12-20T09:13:56.547000+00:00</time>
      </trkpt>
      <trkpt lat="0" lon="0">
        <time>2020-12-20T09:13:56.560000+00:00</time>
      </trkpt>
      <trkpt lat="0" lon="0">
        <time>2020-12-20T09:13:56.564000+00:00</time>
      </trkpt>
      <trkpt lat="0" lon="0">
        <time>2020-12-20T09:13:56.567000+00:00</time>
      </trkpt>
      <trkpt lat="47.33417" lon="-1.26418">
        <ele>124</ele>
        <time>2020-12-20T09:13:57.541000+00:00</time>
      </trkpt>
      <trkpt lat="0" lon="0">
        <time>2020-12-20T09:13:57.546000+00:00</time>
      </trkpt>
      <trkpt lat="0" lon="0">
        <time>2020-12-20T09:13:57.552000+00:00</time>
      </trkpt>
      <trkpt lat="0" lon="0">
        <time>2020-12-20T09:13:57.562000+00:00</time>
      </trkpt>
      <trkpt lat="47.33421" lon="-1.26415">
        <ele>124</ele>
        <time>2020-12-20T09:13:58.535000+00:00</time>
      </trkpt>
      <trkpt lat="0" lon="0">
        <time>2020-12-20T09:13:58.542000+00:00</time>
      </trkpt>
      <trkpt lat="0" lon="0">
        <time>2020-12-20T09:13:58.550000+00:00</time>
      </trkpt>
      <trkpt lat="0" lon="0">
        <time>2020-12-20T09:13:58.558000+00:00</time>
      </trkpt>
      <trkpt lat="47.33424" lon="-1.26412">
        <ele>125</ele>
        <time>2020-12-20T09:13:59.559000+00:00</time>
      </trkpt>
      <trkpt lat="0" lon="0">
        <time>2020-12-20T09:13:59.577000+00:00</time>
      </trkpt>
      <trkpt lat="0" lon="0">
        <time>2020-12-20T09:13:59.580000+00:00</time>
      </trkpt>
      <trkpt lat="0" lon="0">
        <time>2020-12-20T09:13:59.582000+00:00</time>
      </trkpt>
      <trkpt lat="47.33428" lon="-1.26408">
        <ele>126</ele>
        <time>2020-12-20T09:14:00.531000+00:00</time>
      </trkpt>
      <trkpt lat="0" lon="0">
        <time>2020-12-20T09:14:00.537000+00:00</time>
      </trkpt>
      <trkpt lat="0" lon="0">
        <time>2020-12-20T09:14:00.545000+00:00</time>
      </trkpt>
      <trkpt lat="0" lon="0">
        <time>2020-12-20T09:14:00.547000+00:00</time>
      </trkpt>
      <trkpt lat="47.3343" lon="-1.26403">
        <ele>126</ele>
        <time>2020-12-20T09:14:01.518000+00:00</time>
      </trkpt>
      <trkpt lat="0" lon="0">
        <time>2020-12-20T09:14:01.532000+00:00</time>
      </trkpt>
      <trkpt lat="0" lon="0">
        <time>2020-12-20T09:14:01.537000+00:00</time>
      </trkpt>
      <trkpt lat="0" lon="0">
        <time>2020-12-20T09:14:01.539000+00:00</time>
      </trkpt>
      <trkpt lat="47.33433" lon="-1.26399">
        <ele>127</ele>
        <time>2020-12-20T09:14:02.575000+00:00</time>
      </trkpt>
      <trkpt lat="0" lon="0">
        <time>2020-12-20T09:14:02.582000+00:00</time>
      </trkpt>
      <trkpt lat="0" lon="0">
        <time>2020-12-20T09:14:02.588000+00:00</time>
      </trkpt>
      <trkpt lat="0" lon="0">
        <time>2020-12-20T09:14:02.590000+00:00</time>
      </trkpt>
      <trkpt lat="47.33435" lon="-1.26394">
        <ele>127</ele>
        <time>2020-12-20T09:14:03.560000+00:00</time>
      </trkpt>
      <trkpt lat="0" lon="0">
        <time>2020-12-20T09:14:03.570000+00:00</time>
      </trkpt>
      <trkpt lat="0" lon="0">
        <time>2020-12-20T09:14:03.580000+00:00</time>
      </trkpt>
      <trkpt lat="0" lon="0">
        <time>2020-12-20T09:14:03.583000+00:00</time>
      </trkpt>
      <trkpt lat="47.33438" lon="-1.2639">
        <ele>126</ele>
        <time>2020-12-20T09:14:04.553000+00:00</time>
      </trkpt>
      <trkpt lat="0" lon="0">
        <time>2020-12-20T09:14:04.559000+00:00</time>
      </trkpt>
      <trkpt lat="0" lon="0">
        <time>2020-12-20T09:14:04.563000+00:00</time>
      </trkpt>
      <trkpt lat="0" lon="0">
        <time>2020-12-20T09:14:04.568000+00:00</time>
      </trkpt>
      <trkpt lat="47.33441" lon="-1.26386">
        <ele>127</ele>
        <time>2020-12-20T09:14:05.481000+00:00</time>
      </trkpt>
      <trkpt lat="0" lon="0">
        <time>2020-12-20T09:14:05.482000+00:00</time>
      </trkpt>
      <trkpt lat="0" lon="0">
        <time>2020-12-20T09:14:05.483000+00:00</time>
      </trkpt>
      <trkpt lat="0" lon="0">
        <time>2020-12-20T09:14:05.484000+00:00</time>
      </trkpt>
      <trkpt lat="47.33444" lon="-1.26383">
        <ele>127</ele>
        <time>2020-12-20T09:14:06.542000+00:00</time>
      </trkpt>
      <trkpt lat="0" lon="0">
        <time>2020-12-20T09:14:06.546000+00:00</time>
      </trkpt>
      <trkpt lat="0" lon="0">
        <time>2020-12-20T09:14:06.548000+00:00</time>
      </trkpt>
      <trkpt lat="0" lon="0">
        <time>2020-12-20T09:14:06.549000+00:00</time>
      </trkpt>
      <trkpt lat="47.33448" lon="-1.26379">
        <ele>127</ele>
        <time>2020-12-20T09:14:07.557000+00:00</time>
      </trkpt>
      <trkpt lat="0" lon="0">
        <time>2020-12-20T09:14:07.575000+00:00</time>
      </trkpt>
      <trkpt lat="0" lon="0">
        <time>2020-12-20T09:14:07.579000+00:00</time>
      </trkpt>
      <trkpt lat="0" lon="0">
        <time>2020-12-20T09:14:07.582000+00:00</time>
      </trkpt>
      <trkpt lat="47.33451" lon="-1.26376">
        <ele>127</ele>
        <time>2020-12-20T09:14:08.576000+00:00</time>
      </trkpt>
      <trkpt lat="0" lon="0">
        <time>2020-12-20T09:14:08.582000+00:00</time>
      </trkpt>
      <trkpt lat="0" lon="0">
        <time>2020-12-20T09:14:08.586000+00:00</time>
      </trkpt>
      <trkpt lat="0" lon="0">
        <time>2020-12-20T09:14:08.589000+00:00</time>
      </trkpt>
      <trkpt lat="47.33455" lon="-1.26373">
        <ele>127</ele>
        <time>2020-12-20T09:14:09.548000+00:00</time>
      </trkpt>
      <trkpt lat="0" lon="0">
        <time>2020-12-20T09:14:09.560000+00:00</time>
      </trkpt>
      <trkpt lat="0" lon="0">
        <time>2020-12-20T09:14:09.566000+00:00</time>
      </trkpt>
      <trkpt lat="0" lon="0">
        <time>2020-12-20T09:14:09.571000+00:00</time>
      </trkpt>
      <trkpt lat="47.33459" lon="-1.2637">
        <ele>127</ele>
        <time>2020-12-20T09:14:10.537000+00:00</time>
      </trkpt>
      <trkpt lat="0" lon="0">
        <time>2020-12-20T09:14:10.547000+00:00</time>
      </trkpt>
      <trkpt lat="0" lon="0">
        <time>2020-12-20T09:14:10.557000+00:00</time>
      </trkpt>
      <trkpt lat="0" lon="0">
        <time>2020-12-20T09:14:10.560000+00:00</time>
      </trkpt>
      <trkpt lat="47.33463" lon="-1.26367">
        <ele>127</ele>
        <time>2020-12-20T09:14:11.564000+00:00</time>
      </trkpt>
      <trkpt lat="0" lon="0">
        <time>2020-12-20T09:14:11.576000+00:00</time>
      </trkpt>
      <trkpt lat="0" lon="0">
        <time>2020-12-20T09:14:11.580000+00:00</time>
      </trkpt>
      <trkpt lat="0" lon="0">
        <time>2020-12-20T09:14:11.583000+00:00</time>
      </trkpt>
      <trkpt lat="47.33467" lon="-1.26364">
        <ele>127</ele>
        <time>2020-12-20T09:14:12.547000+00:00</time>
      </trkpt>
      <trkpt lat="0" lon="0">
        <time>2020-12-20T09:14:12.562000+00:00</time>
      </trkpt>
      <trkpt lat="0" lon="0">
        <time>2020-12-20T09:14:12.566000+00:00</time>
      </trkpt>
      <trkpt lat="0" lon="0">
        <time>2020-12-20T09:14:12.568000+00:00</time>
      </trkpt>
      <trkpt lat="47.33472" lon="-1.2636">
        <ele>127</ele>
        <time>2020-12-20T09:14:13.546000+00:00</time>
      </trkpt>
      <trkpt lat="0" lon="0">
        <time>2020-12-20T09:14:13.553000+00:00</time>
      </trkpt>
      <trkpt lat="0" lon="0">
        <time>2020-12-20T09:14:13.565000+00:00</time>
      </trkpt>
      <trkpt lat="0" lon="0">
        <time>2020-12-20T09:14:13.567000+00:00</time>
      </trkpt>
      <trkpt lat="47.33477" lon="-1.26357">
        <ele>127</ele>
        <time>2020-12-20T09:14:14.525000+00:00</time>
      </trkpt>
      <trkpt lat="0" lon="0">
        <time>2020-12-20T09:14:14.535000+00:00</time>
      </trkpt>
      <trkpt lat="0" lon="0">
        <time>2020-12-20T09:14:14.538000+00:00</time>
      </trkpt>
      <trkpt lat="0" lon="0">
        <time>2020-12-20T09:14:14.542000+00:00</time>
      </trkpt>
      <trkpt lat="47.33481" lon="-1.26354">
        <ele>127</ele>
        <time>2020-12-20T09:14:15.542000+00:00</time>
      </trkpt>
      <trkpt lat="0" lon="0">
        <time>2020-12-20T09:14:15.556000+00:00</time>
      </trkpt>
      <trkpt lat="0" lon="0">
        <time>2020-12-20T09:14:15.561000+00:00</time>
      </trkpt>
      <trkpt lat="0" lon="0">
        <time>2020-12-20T09:14:15.563000+00:00</time>
      </trkpt>
      <trkpt lat="47.33486" lon="-1.26352">
        <ele>127</ele>
        <time>2020-12-20T09:14:16.520000+00:00</time>
      </trkpt>
      <trkpt lat="0" lon="0">
        <time>2020-12-20T09:14:16.533000+00:00</time>
      </trkpt>
      <trkpt lat="0" lon="0">
        <time>2020-12-20T09:14:16.537000+00:00</time>
      </trkpt>
      <trkpt lat="0" lon="0">
        <time>2020-12-20T09:14:16.538000+00:00</time>
      </trkpt>
      <trkpt lat="47.33491" lon="-1.26349">
        <ele>127</ele>
        <time>2020-12-20T09:14:17.544000+00:00</time>
      </trkpt>
      <trkpt lat="0" lon="0">
        <time>2020-12-20T09:14:17.557000+00:00</time>
      </trkpt>
      <trkpt lat="0" lon="0">
        <time>2020-12-20T09:14:17.565000+00:00</time>
      </trkpt>
      <trkpt lat="0" lon="0">
        <time>2020-12-20T09:14:17.568000+00:00</time>
      </trkpt>
      <trkpt lat="47.33496" lon="-1.26345">
        <ele>127</ele>
        <time>2020-12-20T09:14:18.588000+00:00</time>
      </trkpt>
      <trkpt lat="0" lon="0">
        <time>2020-12-20T09:14:18.599000+00:00</time>
      </trkpt>
      <trkpt lat="0" lon="0">
        <time>2020-12-20T09:14:18.604000+00:00</time>
      </trkpt>
      <trkpt lat="0" lon="0">
        <time>2020-12-20T09:14:18.607000+00:00</time>
      </trkpt>
      <trkpt lat="47.33499" lon="-1.2634">
        <ele>126</ele>
        <time>2020-12-20T09:14:19.545000+00:00</time>
      </trkpt>
      <trkpt lat="0" lon="0">
        <time>2020-12-20T09:14:19.561000+00:00</time>
      </trkpt>
      <trkpt lat="0" lon="0">
        <time>2020-12-20T09:14:19.566000+00:00</time>
      </trkpt>
      <trkpt lat="0" lon="0">
        <time>2020-12-20T09:14:19.568000+00:00</time>
      </trkpt>
      <trkpt lat="47.33501" lon="-1.26335">
        <ele>126</ele>
        <time>2020-12-20T09:14:20.547000+00:00</time>
      </trkpt>
      <trkpt lat="0" lon="0">
        <time>2020-12-20T09:14:20.558000+00:00</time>
      </trkpt>
      <trkpt lat="0" lon="0">
        <time>2020-12-20T09:14:20.565000+00:00</time>
      </trkpt>
      <trkpt lat="0" lon="0">
        <time>2020-12-20T09:14:20.570000+00:00</time>
      </trkpt>
      <trkpt lat="47.33501" lon="-1.26329">
        <ele>126</ele>
        <time>2020-12-20T09:14:21.549000+00:00</time>
      </trkpt>
      <trkpt lat="0" lon="0">
        <time>2020-12-20T09:14:21.563000+00:00</time>
      </trkpt>
      <trkpt lat="0" lon="0">
        <time>2020-12-20T09:14:21.567000+00:00</time>
      </trkpt>
      <trkpt lat="0" lon="0">
        <time>2020-12-20T09:14:21.572000+00:00</time>
      </trkpt>
      <trkpt lat="47.33501" lon="-1.26323">
        <ele>126</ele>
        <time>2020-12-20T09:14:22.537000+00:00</time>
      </trkpt>
      <trkpt lat="0" lon="0">
        <time>2020-12-20T09:14:22.543000+00:00</time>
      </trkpt>
      <trkpt lat="0" lon="0">
        <time>2020-12-20T09:14:22.545000+00:00</time>
      </trkpt>
      <trkpt lat="0" lon="0">
        <time>2020-12-20T09:14:22.547000+00:00</time>
      </trkpt>
      <trkpt lat="47.335" lon="-1.26316">
        <ele>126</ele>
        <time>2020-12-20T09:14:23.545000+00:00</time>
      </trkpt>
      <trkpt lat="0" lon="0">
        <time>2020-12-20T09:14:23.562000+00:00</time>
      </trkpt>
      <trkpt lat="0" lon="0">
        <time>2020-12-20T09:14:23.566000+00:00</time>
      </trkpt>
      <trkpt lat="0" lon="0">
        <time>2020-12-20T09:14:23.569000+00:00</time>
      </trkpt>
      <trkpt lat="47.33499" lon="-1.2631">
        <ele>126</ele>
        <time>2020-12-20T09:14:24.590000+00:00</time>
      </trkpt>
      <trkpt lat="0" lon="0">
        <time>2020-12-20T09:14:24.598000+00:00</time>
      </trkpt>
      <trkpt lat="0" lon="0">
        <time>2020-12-20T09:14:24.603000+00:00</time>
      </trkpt>
      <trkpt lat="0" lon="0">
        <time>2020-12-20T09:14:24.607000+00:00</time>
      </trkpt>
      <trkpt lat="47.33497" lon="-1.26302">
        <ele>126</ele>
        <time>2020-12-20T09:14:25.538000+00:00</time>
      </trkpt>
      <trkpt lat="0" lon="0">
        <time>2020-12-20T09:14:25.555000+00:00</time>
      </trkpt>
      <trkpt lat="0" lon="0">
        <time>2020-12-20T09:14:25.562000+00:00</time>
      </trkpt>
      <trkpt lat="0" lon="0">
        <time>2020-12-20T09:14:25.565000+00:00</time>
      </trkpt>
      <trkpt lat="47.33495" lon="-1.26295">
        <ele>126</ele>
        <time>2020-12-20T09:14:26.546000+00:00</time>
      </trkpt>
      <trkpt lat="0" lon="0">
        <time>2020-12-20T09:14:26.555000+00:00</time>
      </trkpt>
      <trkpt lat="0" lon="0">
        <time>2020-12-20T09:14:26.560000+00:00</time>
      </trkpt>
      <trkpt lat="0" lon="0">
        <time>2020-12-20T09:14:26.562000+00:00</time>
      </trkpt>
      <trkpt lat="47.33492" lon="-1.26287">
        <ele>126</ele>
        <time>2020-12-20T09:14:27.576000+00:00</time>
      </trkpt>
      <trkpt lat="0" lon="0">
        <time>2020-12-20T09:14:27.594000+00:00</time>
      </trkpt>
      <trkpt lat="0" lon="0">
        <time>2020-12-20T09:14:27.601000+00:00</time>
      </trkpt>
      <trkpt lat="0" lon="0">
        <time>2020-12-20T09:14:27.605000+00:00</time>
      </trkpt>
      <trkpt lat="47.3349" lon="-1.26279">
        <ele>126</ele>
        <time>2020-12-20T09:14:28.537000+00:00</time>
      </trkpt>
      <trkpt lat="0" lon="0">
        <time>2020-12-20T09:14:28.547000+00:00</time>
      </trkpt>
      <trkpt lat="0" lon="0">
        <time>2020-12-20T09:14:28.551000+00:00</time>
      </trkpt>
      <trkpt lat="0" lon="0">
        <time>2020-12-20T09:14:28.553000+00:00</time>
      </trkpt>
      <trkpt lat="47.33487" lon="-1.26271">
        <ele>127</ele>
        <time>2020-12-20T09:14:29.530000+00:00</time>
      </trkpt>
      <trkpt lat="0" lon="0">
        <time>2020-12-20T09:14:29.544000+00:00</time>
      </trkpt>
      <trkpt lat="0" lon="0">
        <time>2020-12-20T09:14:29.556000+00:00</time>
      </trkpt>
      <trkpt lat="0" lon="0">
        <time>2020-12-20T09:14:29.561000+00:00</time>
      </trkpt>
      <trkpt lat="47.33485" lon="-1.26263">
        <ele>127</ele>
        <time>2020-12-20T09:14:30.544000+00:00</time>
      </trkpt>
      <trkpt lat="0" lon="0">
        <time>2020-12-20T09:14:30.554000+00:00</time>
      </trkpt>
      <trkpt lat="0" lon="0">
        <time>2020-12-20T09:14:30.561000+00:00</time>
      </trkpt>
      <trkpt lat="0" lon="0">
        <time>2020-12-20T09:14:30.563000+00:00</time>
      </trkpt>
      <trkpt lat="47.33482" lon="-1.26255">
        <ele>127</ele>
        <time>2020-12-20T09:14:31.545000+00:00</time>
      </trkpt>
      <trkpt lat="0" lon="0">
        <time>2020-12-20T09:14:31.564000+00:00</time>
      </trkpt>
      <trkpt lat="0" lon="0">
        <time>2020-12-20T09:14:31.572000+00:00</time>
      </trkpt>
      <trkpt lat="0" lon="0">
        <time>2020-12-20T09:14:31.574000+00:00</time>
      </trkpt>
      <trkpt lat="47.3348" lon="-1.26247">
        <ele>127</ele>
        <time>2020-12-20T09:14:32.522000+00:00</time>
      </trkpt>
      <trkpt lat="0" lon="0">
        <time>2020-12-20T09:14:32.529000+00:00</time>
      </trkpt>
      <trkpt lat="0" lon="0">
        <time>2020-12-20T09:14:32.534000+00:00</time>
      </trkpt>
      <trkpt lat="0" lon="0">
        <time>2020-12-20T09:14:32.536000+00:00</time>
      </trkpt>
      <trkpt lat="47.33477" lon="-1.26239">
        <ele>127</ele>
        <time>2020-12-20T09:14:33.508000+00:00</time>
      </trkpt>
      <trkpt lat="0" lon="0">
        <time>2020-12-20T09:14:33.528000+00:00</time>
      </trkpt>
      <trkpt lat="0" lon="0">
        <time>2020-12-20T09:14:33.536000+00:00</time>
      </trkpt>
      <trkpt lat="0" lon="0">
        <time>2020-12-20T09:14:33.542000+00:00</time>
      </trkpt>
      <trkpt lat="47.33475" lon="-1.26232">
        <ele>127</ele>
        <time>2020-12-20T09:14:34.552000+00:00</time>
      </trkpt>
      <trkpt lat="0" lon="0">
        <time>2020-12-20T09:14:34.563000+00:00</time>
      </trkpt>
      <trkpt lat="0" lon="0">
        <time>2020-12-20T09:14:34.571000+00:00</time>
      </trkpt>
      <trkpt lat="0" lon="0">
        <time>2020-12-20T09:14:34.577000+00:00</time>
      </trkpt>
      <trkpt lat="47.33473" lon="-1.26224">
        <ele>127</ele>
        <time>2020-12-20T09:14:35.546000+00:00</time>
      </trkpt>
      <trkpt lat="0" lon="0">
        <time>2020-12-20T09:14:35.552000+00:00</time>
      </trkpt>
      <trkpt lat="0" lon="0">
        <time>2020-12-20T09:14:35.555000+00:00</time>
      </trkpt>
      <trkpt lat="0" lon="0">
        <time>2020-12-20T09:14:35.556000+00:00</time>
      </trkpt>
      <trkpt lat="47.33471" lon="-1.26217">
        <ele>126</ele>
        <time>2020-12-20T09:14:36.580000+00:00</time>
      </trkpt>
      <trkpt lat="0" lon="0">
        <time>2020-12-20T09:14:36.589000+00:00</time>
      </trkpt>
      <trkpt lat="0" lon="0">
        <time>2020-12-20T09:14:36.602000+00:00</time>
      </trkpt>
      <trkpt lat="0" lon="0">
        <time>2020-12-20T09:14:36.605000+00:00</time>
      </trkpt>
      <trkpt lat="47.33469" lon="-1.26209">
        <ele>126</ele>
        <time>2020-12-20T09:14:37.558000+00:00</time>
      </trkpt>
      <trkpt lat="0" lon="0">
        <time>2020-12-20T09:14:37.578000+00:00</time>
      </trkpt>
      <trkpt lat="0" lon="0">
        <time>2020-12-20T09:14:37.582000+00:00</time>
      </trkpt>
      <trkpt lat="0" lon="0">
        <time>2020-12-20T09:14:37.584000+00:00</time>
      </trkpt>
      <trkpt lat="47.33467" lon="-1.26202">
        <ele>126</ele>
        <time>2020-12-20T09:14:38.576000+00:00</time>
      </trkpt>
      <trkpt lat="0" lon="0">
        <time>2020-12-20T09:14:38.582000+00:00</time>
      </trkpt>
      <trkpt lat="0" lon="0">
        <time>2020-12-20T09:14:38.598000+00:00</time>
      </trkpt>
      <trkpt lat="0" lon="0">
        <time>2020-12-20T09:14:38.600000+00:00</time>
      </trkpt>
      <trkpt lat="47.33465" lon="-1.26195">
        <ele>126</ele>
        <time>2020-12-20T09:14:39.587000+00:00</time>
      </trkpt>
      <trkpt lat="0" lon="0">
        <time>2020-12-20T09:14:39.597000+00:00</time>
      </trkpt>
      <trkpt lat="0" lon="0">
        <time>2020-12-20T09:14:39.604000+00:00</time>
      </trkpt>
      <trkpt lat="0" lon="0">
        <time>2020-12-20T09:14:39.607000+00:00</time>
      </trkpt>
      <trkpt lat="47.33463" lon="-1.26188">
        <ele>126</ele>
        <time>2020-12-20T09:14:40.564000+00:00</time>
      </trkpt>
      <trkpt lat="0" lon="0">
        <time>2020-12-20T09:14:40.587000+00:00</time>
      </trkpt>
      <trkpt lat="0" lon="0">
        <time>2020-12-20T09:14:40.600000+00:00</time>
      </trkpt>
      <trkpt lat="0" lon="0">
        <time>2020-12-20T09:14:40.602000+00:00</time>
      </trkpt>
      <trkpt lat="47.33461" lon="-1.26182">
        <ele>126</ele>
        <time>2020-12-20T09:14:41.543000+00:00</time>
      </trkpt>
      <trkpt lat="0" lon="0">
        <time>2020-12-20T09:14:41.552000+00:00</time>
      </trkpt>
      <trkpt lat="0" lon="0">
        <time>2020-12-20T09:14:41.557000+00:00</time>
      </trkpt>
      <trkpt lat="0" lon="0">
        <time>2020-12-20T09:14:41.559000+00:00</time>
      </trkpt>
      <trkpt lat="47.33459" lon="-1.26175">
        <ele>126</ele>
        <time>2020-12-20T09:14:42.594000+00:00</time>
      </trkpt>
      <trkpt lat="0" lon="0">
        <time>2020-12-20T09:14:42.602000+00:00</time>
      </trkpt>
      <trkpt lat="0" lon="0">
        <time>2020-12-20T09:14:42.608000+00:00</time>
      </trkpt>
      <trkpt lat="0" lon="0">
        <time>2020-12-20T09:14:42.611000+00:00</time>
      </trkpt>
      <trkpt lat="47.33457" lon="-1.26169">
        <ele>127</ele>
        <time>2020-12-20T09:14:43.546000+00:00</time>
      </trkpt>
      <trkpt lat="0" lon="0">
        <time>2020-12-20T09:14:43.562000+00:00</time>
      </trkpt>
      <trkpt lat="0" lon="0">
        <time>2020-12-20T09:14:43.569000+00:00</time>
      </trkpt>
      <trkpt lat="0" lon="0">
        <time>2020-12-20T09:14:43.571000+00:00</time>
      </trkpt>
      <trkpt lat="47.33454" lon="-1.26163">
        <ele>126</ele>
        <time>2020-12-20T09:14:44.582000+00:00</time>
      </trkpt>
      <trkpt lat="0" lon="0">
        <time>2020-12-20T09:14:44.602000+00:00</time>
      </trkpt>
      <trkpt lat="0" lon="0">
        <time>2020-12-20T09:14:44.606000+00:00</time>
      </trkpt>
      <trkpt lat="0" lon="0">
        <time>2020-12-20T09:14:44.611000+00:00</time>
      </trkpt>
      <trkpt lat="47.33452" lon="-1.26157">
        <ele>126</ele>
        <time>2020-12-20T09:14:45.500000+00:00</time>
      </trkpt>
      <trkpt lat="0" lon="0">
        <time>2020-12-20T09:14:45.510000+00:00</time>
      </trkpt>
      <trkpt lat="0" lon="0">
        <time>2020-12-20T09:14:45.512000+00:00</time>
      </trkpt>
      <trkpt lat="0" lon="0">
        <time>2020-12-20T09:14:45.514000+00:00</time>
      </trkpt>
      <trkpt lat="47.33449" lon="-1.26151">
        <ele>127</ele>
        <time>2020-12-20T09:14:46.562000+00:00</time>
      </trkpt>
      <trkpt lat="0" lon="0">
        <time>2020-12-20T09:14:46.572000+00:00</time>
      </trkpt>
      <trkpt lat="0" lon="0">
        <time>2020-12-20T09:14:46.575000+00:00</time>
      </trkpt>
      <trkpt lat="0" lon="0">
        <time>2020-12-20T09:14:46.579000+00:00</time>
      </trkpt>
      <trkpt lat="47.33446" lon="-1.26146">
        <ele>127</ele>
        <time>2020-12-20T09:14:47.566000+00:00</time>
      </trkpt>
      <trkpt lat="0" lon="0">
        <time>2020-12-20T09:14:47.585000+00:00</time>
      </trkpt>
      <trkpt lat="0" lon="0">
        <time>2020-12-20T09:14:47.594000+00:00</time>
      </trkpt>
      <trkpt lat="0" lon="0">
        <time>2020-12-20T09:14:47.600000+00:00</time>
      </trkpt>
      <trkpt lat="47.33443" lon="-1.26141">
        <ele>127</ele>
        <time>2020-12-20T09:14:48.546000+00:00</time>
      </trkpt>
      <trkpt lat="0" lon="0">
        <time>2020-12-20T09:14:48.556000+00:00</time>
      </trkpt>
      <trkpt lat="0" lon="0">
        <time>2020-12-20T09:14:48.563000+00:00</time>
      </trkpt>
      <trkpt lat="0" lon="0">
        <time>2020-12-20T09:14:48.566000+00:00</time>
      </trkpt>
      <trkpt lat="47.3344" lon="-1.26136">
        <ele>127</ele>
        <time>2020-12-20T09:14:49.558000+00:00</time>
      </trkpt>
      <trkpt lat="0" lon="0">
        <time>2020-12-20T09:14:49.569000+00:00</time>
      </trkpt>
      <trkpt lat="0" lon="0">
        <time>2020-12-20T09:14:49.572000+00:00</time>
      </trkpt>
      <trkpt lat="0" lon="0">
        <time>2020-12-20T09:14:49.573000+00:00</time>
      </trkpt>
      <trkpt lat="47.33437" lon="-1.26131">
        <ele>126</ele>
        <time>2020-12-20T09:14:50.526000+00:00</time>
      </trkpt>
      <trkpt lat="0" lon="0">
        <time>2020-12-20T09:14:50.534000+00:00</time>
      </trkpt>
      <trkpt lat="0" lon="0">
        <time>2020-12-20T09:14:50.538000+00:00</time>
      </trkpt>
      <trkpt lat="0" lon="0">
        <time>2020-12-20T09:14:50.540000+00:00</time>
      </trkpt>
      <trkpt lat="47.33434" lon="-1.26126">
        <ele>126</ele>
        <time>2020-12-20T09:14:51.566000+00:00</time>
      </trkpt>
      <trkpt lat="0" lon="0">
        <time>2020-12-20T09:14:51.571000+00:00</time>
      </trkpt>
      <trkpt lat="0" lon="0">
        <time>2020-12-20T09:14:51.573000+00:00</time>
      </trkpt>
      <trkpt lat="0" lon="0">
        <time>2020-12-20T09:14:51.574000+00:00</time>
      </trkpt>
      <trkpt lat="47.3343" lon="-1.26121">
        <ele>125</ele>
        <time>2020-12-20T09:14:52.552000+00:00</time>
      </trkpt>
      <trkpt lat="0" lon="0">
        <time>2020-12-20T09:14:52.562000+00:00</time>
      </trkpt>
      <trkpt lat="0" lon="0">
        <time>2020-12-20T09:14:52.565000+00:00</time>
      </trkpt>
      <trkpt lat="0" lon="0">
        <time>2020-12-20T09:14:52.567000+00:00</time>
      </trkpt>
      <trkpt lat="47.33427" lon="-1.26116">
        <ele>125</ele>
        <time>2020-12-20T09:14:53.564000+00:00</time>
      </trkpt>
      <trkpt lat="0" lon="0">
        <time>2020-12-20T09:14:53.573000+00:00</time>
      </trkpt>
      <trkpt lat="0" lon="0">
        <time>2020-12-20T09:14:53.579000+00:00</time>
      </trkpt>
      <trkpt lat="0" lon="0">
        <time>2020-12-20T09:14:53.583000+00:00</time>
      </trkpt>
      <trkpt lat="47.33424" lon="-1.26111">
        <ele>125</ele>
        <time>2020-12-20T09:14:54.569000+00:00</time>
      </trkpt>
      <trkpt lat="0" lon="0">
        <time>2020-12-20T09:14:54.575000+00:00</time>
      </trkpt>
      <trkpt lat="0" lon="0">
        <time>2020-12-20T09:14:54.580000+00:00</time>
      </trkpt>
      <trkpt lat="0" lon="0">
        <time>2020-12-20T09:14:54.582000+00:00</time>
      </trkpt>
      <trkpt lat="47.3342" lon="-1.26106">
        <ele>125</ele>
        <time>2020-12-20T09:14:55.562000+00:00</time>
      </trkpt>
      <trkpt lat="0" lon="0">
        <time>2020-12-20T09:14:55.567000+00:00</time>
      </trkpt>
      <trkpt lat="0" lon="0">
        <time>2020-12-20T09:14:55.569000+00:00</time>
      </trkpt>
      <trkpt lat="0" lon="0">
        <time>2020-12-20T09:14:55.570000+00:00</time>
      </trkpt>
      <trkpt lat="47.33416" lon="-1.26101">
        <ele>125</ele>
        <time>2020-12-20T09:14:56.545000+00:00</time>
      </trkpt>
      <trkpt lat="0" lon="0">
        <time>2020-12-20T09:14:56.554000+00:00</time>
      </trkpt>
      <trkpt lat="0" lon="0">
        <time>2020-12-20T09:14:56.560000+00:00</time>
      </trkpt>
      <trkpt lat="0" lon="0">
        <time>2020-12-20T09:14:56.563000+00:00</time>
      </trkpt>
      <trkpt lat="47.33413" lon="-1.26096">
        <ele>124</ele>
        <time>2020-12-20T09:14:57.564000+00:00</time>
      </trkpt>
      <trkpt lat="0" lon="0">
        <time>2020-12-20T09:14:57.573000+00:00</time>
      </trkpt>
      <trkpt lat="0" lon="0">
        <time>2020-12-20T09:14:57.577000+00:00</time>
      </trkpt>
      <trkpt lat="0" lon="0">
        <time>2020-12-20T09:14:57.580000+00:00</time>
      </trkpt>
      <trkpt lat="47.33409" lon="-1.26092">
        <ele>124</ele>
        <time>2020-12-20T09:14:58.575000+00:00</time>
      </trkpt>
      <trkpt lat="0" lon="0">
        <time>2020-12-20T09:14:58.583000+00:00</time>
      </trkpt>
      <trkpt lat="0" lon="0">
        <time>2020-12-20T09:14:58.587000+00:00</time>
      </trkpt>
      <trkpt lat="0" lon="0">
        <time>2020-12-20T09:14:58.589000+00:00</time>
      </trkpt>
      <trkpt lat="47.33405" lon="-1.26086">
        <ele>124</ele>
        <time>2020-12-20T09:14:59.559000+00:00</time>
      </trkpt>
      <trkpt lat="0" lon="0">
        <time>2020-12-20T09:14:59.565000+00:00</time>
      </trkpt>
      <trkpt lat="0" lon="0">
        <time>2020-12-20T09:14:59.572000+00:00</time>
      </trkpt>
      <trkpt lat="0" lon="0">
        <time>2020-12-20T09:14:59.575000+00:00</time>
      </trkpt>
      <trkpt lat="47.33402" lon="-1.26082">
        <ele>124</ele>
        <time>2020-12-20T09:15:00.560000+00:00</time>
      </trkpt>
      <trkpt lat="0" lon="0">
        <time>2020-12-20T09:15:00.575000+00:00</time>
      </trkpt>
      <trkpt lat="0" lon="0">
        <time>2020-12-20T09:15:00.587000+00:00</time>
      </trkpt>
      <trkpt lat="0" lon="0">
        <time>2020-12-20T09:15:00.594000+00:00</time>
      </trkpt>
      <trkpt lat="47.33398" lon="-1.26077">
        <ele>124</ele>
        <time>2020-12-20T09:15:01.579000+00:00</time>
      </trkpt>
      <trkpt lat="0" lon="0">
        <time>2020-12-20T09:15:01.582000+00:00</time>
      </trkpt>
      <trkpt lat="0" lon="0">
        <time>2020-12-20T09:15:01.585000+00:00</time>
      </trkpt>
      <trkpt lat="0" lon="0">
        <time>2020-12-20T09:15:01.586000+00:00</time>
      </trkpt>
      <trkpt lat="47.33394" lon="-1.26072">
        <ele>124</ele>
        <time>2020-12-20T09:15:02.570000+00:00</time>
      </trkpt>
      <trkpt lat="0" lon="0">
        <time>2020-12-20T09:15:02.577000+00:00</time>
      </trkpt>
      <trkpt lat="0" lon="0">
        <time>2020-12-20T09:15:02.581000+00:00</time>
      </trkpt>
      <trkpt lat="0" lon="0">
        <time>2020-12-20T09:15:02.584000+00:00</time>
      </trkpt>
      <trkpt lat="47.3339" lon="-1.26068">
        <ele>124</ele>
        <time>2020-12-20T09:15:03.574000+00:00</time>
      </trkpt>
      <trkpt lat="0" lon="0">
        <time>2020-12-20T09:15:03.583000+00:00</time>
      </trkpt>
      <trkpt lat="0" lon="0">
        <time>2020-12-20T09:15:03.588000+00:00</time>
      </trkpt>
      <trkpt lat="0" lon="0">
        <time>2020-12-20T09:15:03.590000+00:00</time>
      </trkpt>
      <trkpt lat="47.33386" lon="-1.26064">
        <ele>124</ele>
        <time>2020-12-20T09:15:04.562000+00:00</time>
      </trkpt>
      <trkpt lat="0" lon="0">
        <time>2020-12-20T09:15:04.571000+00:00</time>
      </trkpt>
      <trkpt lat="0" lon="0">
        <time>2020-12-20T09:15:04.578000+00:00</time>
      </trkpt>
      <trkpt lat="0" lon="0">
        <time>2020-12-20T09:15:04.581000+00:00</time>
      </trkpt>
      <trkpt lat="47.33382" lon="-1.26061">
        <ele>124</ele>
        <time>2020-12-20T09:15:05.554000+00:00</time>
      </trkpt>
      <trkpt lat="0" lon="0">
        <time>2020-12-20T09:15:05.587000+00:00</time>
      </trkpt>
      <trkpt lat="0" lon="0">
        <time>2020-12-20T09:15:05.592000+00:00</time>
      </trkpt>
      <trkpt lat="0" lon="0">
        <time>2020-12-20T09:15:05.596000+00:00</time>
      </trkpt>
      <trkpt lat="47.33378" lon="-1.26057">
        <ele>124</ele>
        <time>2020-12-20T09:15:06.536000+00:00</time>
      </trkpt>
      <trkpt lat="0" lon="0">
        <time>2020-12-20T09:15:06.543000+00:00</time>
      </trkpt>
      <trkpt lat="0" lon="0">
        <time>2020-12-20T09:15:06.548000+00:00</time>
      </trkpt>
      <trkpt lat="0" lon="0">
        <time>2020-12-20T09:15:06.551000+00:00</time>
      </trkpt>
      <trkpt lat="47.33374" lon="-1.26054">
        <ele>124</ele>
        <time>2020-12-20T09:15:07.520000+00:00</time>
      </trkpt>
      <trkpt lat="0" lon="0">
        <time>2020-12-20T09:15:07.528000+00:00</time>
      </trkpt>
      <trkpt lat="0" lon="0">
        <time>2020-12-20T09:15:07.531000+00:00</time>
      </trkpt>
      <trkpt lat="0" lon="0">
        <time>2020-12-20T09:15:07.535000+00:00</time>
      </trkpt>
      <trkpt lat="47.3337" lon="-1.26051">
        <ele>124</ele>
        <time>2020-12-20T09:15:08.546000+00:00</time>
      </trkpt>
      <trkpt lat="0" lon="0">
        <time>2020-12-20T09:15:08.553000+00:00</time>
      </trkpt>
      <trkpt lat="0" lon="0">
        <time>2020-12-20T09:15:08.560000+00:00</time>
      </trkpt>
      <trkpt lat="0" lon="0">
        <time>2020-12-20T09:15:08.562000+00:00</time>
      </trkpt>
      <trkpt lat="47.33366" lon="-1.26047">
        <ele>124</ele>
        <time>2020-12-20T09:15:09.548000+00:00</time>
      </trkpt>
      <trkpt lat="0" lon="0">
        <time>2020-12-20T09:15:09.559000+00:00</time>
      </trkpt>
      <trkpt lat="0" lon="0">
        <time>2020-12-20T09:15:09.563000+00:00</time>
      </trkpt>
      <trkpt lat="0" lon="0">
        <time>2020-12-20T09:15:09.566000+00:00</time>
      </trkpt>
      <trkpt lat="47.33362" lon="-1.26044">
        <ele>124</ele>
        <time>2020-12-20T09:15:10.549000+00:00</time>
      </trkpt>
      <trkpt lat="0" lon="0">
        <time>2020-12-20T09:15:10.560000+00:00</time>
      </trkpt>
      <trkpt lat="0" lon="0">
        <time>2020-12-20T09:15:10.565000+00:00</time>
      </trkpt>
      <trkpt lat="0" lon="0">
        <time>2020-12-20T09:15:10.567000+00:00</time>
      </trkpt>
      <trkpt lat="47.33358" lon="-1.26041">
        <ele>124</ele>
        <time>2020-12-20T09:15:11.543000+00:00</time>
      </trkpt>
      <trkpt lat="0" lon="0">
        <time>2020-12-20T09:15:11.562000+00:00</time>
      </trkpt>
      <trkpt lat="0" lon="0">
        <time>2020-12-20T09:15:11.567000+00:00</time>
      </trkpt>
      <trkpt lat="0" lon="0">
        <time>2020-12-20T09:15:11.569000+00:00</time>
      </trkpt>
      <trkpt lat="47.33353" lon="-1.26037">
        <ele>124</ele>
        <time>2020-12-20T09:15:12.550000+00:00</time>
      </trkpt>
      <trkpt lat="0" lon="0">
        <time>2020-12-20T09:15:12.563000+00:00</time>
      </trkpt>
      <trkpt lat="0" lon="0">
        <time>2020-12-20T09:15:12.571000+00:00</time>
      </trkpt>
      <trkpt lat="0" lon="0">
        <time>2020-12-20T09:15:12.573000+00:00</time>
      </trkpt>
      <trkpt lat="47.33349" lon="-1.26033">
        <ele>124</ele>
        <time>2020-12-20T09:15:13.532000+00:00</time>
      </trkpt>
      <trkpt lat="0" lon="0">
        <time>2020-12-20T09:15:13.542000+00:00</time>
      </trkpt>
      <trkpt lat="0" lon="0">
        <time>2020-12-20T09:15:13.544000+00:00</time>
      </trkpt>
      <trkpt lat="0" lon="0">
        <time>2020-12-20T09:15:13.545000+00:00</time>
      </trkpt>
      <trkpt lat="47.33345" lon="-1.2603">
        <ele>124</ele>
        <time>2020-12-20T09:15:14.572000+00:00</time>
      </trkpt>
      <trkpt lat="0" lon="0">
        <time>2020-12-20T09:15:14.579000+00:00</time>
      </trkpt>
      <trkpt lat="0" lon="0">
        <time>2020-12-20T09:15:14.582000+00:00</time>
      </trkpt>
      <trkpt lat="0" lon="0">
        <time>2020-12-20T09:15:14.585000+00:00</time>
      </trkpt>
      <trkpt lat="47.33341" lon="-1.26026">
        <ele>124</ele>
        <time>2020-12-20T09:15:15.547000+00:00</time>
      </trkpt>
      <trkpt lat="0" lon="0">
        <time>2020-12-20T09:15:15.557000+00:00</time>
      </trkpt>
      <trkpt lat="0" lon="0">
        <time>2020-12-20T09:15:15.563000+00:00</time>
      </trkpt>
      <trkpt lat="0" lon="0">
        <time>2020-12-20T09:15:15.565000+00:00</time>
      </trkpt>
      <trkpt lat="47.33337" lon="-1.26022">
        <ele>124</ele>
        <time>2020-12-20T09:15:16.537000+00:00</time>
      </trkpt>
      <trkpt lat="0" lon="0">
        <time>2020-12-20T09:15:16.554000+00:00</time>
      </trkpt>
      <trkpt lat="0" lon="0">
        <time>2020-12-20T09:15:16.571000+00:00</time>
      </trkpt>
      <trkpt lat="0" lon="0">
        <time>2020-12-20T09:15:16.573000+00:00</time>
      </trkpt>
      <trkpt lat="47.33333" lon="-1.26018">
        <ele>124</ele>
        <time>2020-12-20T09:15:17.526000+00:00</time>
      </trkpt>
      <trkpt lat="0" lon="0">
        <time>2020-12-20T09:15:17.532000+00:00</time>
      </trkpt>
      <trkpt lat="0" lon="0">
        <time>2020-12-20T09:15:17.538000+00:00</time>
      </trkpt>
      <trkpt lat="0" lon="0">
        <time>2020-12-20T09:15:17.543000+00:00</time>
      </trkpt>
      <trkpt lat="47.33329" lon="-1.26013">
        <ele>124</ele>
        <time>2020-12-20T09:15:18.540000+00:00</time>
      </trkpt>
      <trkpt lat="0" lon="0">
        <time>2020-12-20T09:15:18.548000+00:00</time>
      </trkpt>
      <trkpt lat="0" lon="0">
        <time>2020-12-20T09:15:18.550000+00:00</time>
      </trkpt>
      <trkpt lat="47.33326" lon="-1.26009">
        <ele>124</ele>
        <time>2020-12-20T09:15:19.536000+00:00</time>
      </trkpt>
      <trkpt lat="0" lon="0">
        <time>2020-12-20T09:15:19.543000+00:00</time>
      </trkpt>
      <trkpt lat="0" lon="0">
        <time>2020-12-20T09:15:19.546000+00:00</time>
      </trkpt>
      <trkpt lat="0" lon="0">
        <time>2020-12-20T09:15:19.547000+00:00</time>
      </trkpt>
      <trkpt lat="47.33322" lon="-1.26004">
        <ele>123</ele>
        <time>2020-12-20T09:15:20.550000+00:00</time>
      </trkpt>
      <trkpt lat="0" lon="0">
        <time>2020-12-20T09:15:20.558000+00:00</time>
      </trkpt>
      <trkpt lat="0" lon="0">
        <time>2020-12-20T09:15:20.565000+00:00</time>
      </trkpt>
      <trkpt lat="0" lon="0">
        <time>2020-12-20T09:15:20.569000+00:00</time>
      </trkpt>
      <trkpt lat="47.33319" lon="-1.25999">
        <ele>123</ele>
        <time>2020-12-20T09:15:21.542000+00:00</time>
      </trkpt>
      <trkpt lat="0" lon="0">
        <time>2020-12-20T09:15:21.550000+00:00</time>
      </trkpt>
      <trkpt lat="0" lon="0">
        <time>2020-12-20T09:15:21.558000+00:00</time>
      </trkpt>
      <trkpt lat="0" lon="0">
        <time>2020-12-20T09:15:21.560000+00:00</time>
      </trkpt>
      <trkpt lat="47.33315" lon="-1.25994">
        <ele>123</ele>
        <time>2020-12-20T09:15:22.559000+00:00</time>
      </trkpt>
      <trkpt lat="0" lon="0">
        <time>2020-12-20T09:15:22.577000+00:00</time>
      </trkpt>
      <trkpt lat="0" lon="0">
        <time>2020-12-20T09:15:22.581000+00:00</time>
      </trkpt>
      <trkpt lat="0" lon="0">
        <time>2020-12-20T09:15:22.584000+00:00</time>
      </trkpt>
      <trkpt lat="47.33312" lon="-1.25988">
        <ele>123</ele>
        <time>2020-12-20T09:15:23.583000+00:00</time>
      </trkpt>
      <trkpt lat="0" lon="0">
        <time>2020-12-20T09:15:23.589000+00:00</time>
      </trkpt>
      <trkpt lat="0" lon="0">
        <time>2020-12-20T09:15:23.593000+00:00</time>
      </trkpt>
      <trkpt lat="0" lon="0">
        <time>2020-12-20T09:15:23.596000+00:00</time>
      </trkpt>
      <trkpt lat="47.33309" lon="-1.25983">
        <ele>123</ele>
        <time>2020-12-20T09:15:24.568000+00:00</time>
      </trkpt>
      <trkpt lat="0" lon="0">
        <time>2020-12-20T09:15:24.579000+00:00</time>
      </trkpt>
      <trkpt lat="0" lon="0">
        <time>2020-12-20T09:15:24.583000+00:00</time>
      </trkpt>
      <trkpt lat="0" lon="0">
        <time>2020-12-20T09:15:24.587000+00:00</time>
      </trkpt>
      <trkpt lat="47.33305" lon="-1.25977">
        <ele>123</ele>
        <time>2020-12-20T09:15:25.575000+00:00</time>
      </trkpt>
      <trkpt lat="0" lon="0">
        <time>2020-12-20T09:15:25.588000+00:00</time>
      </trkpt>
      <trkpt lat="0" lon="0">
        <time>2020-12-20T09:15:25.591000+00:00</time>
      </trkpt>
      <trkpt lat="0" lon="0">
        <time>2020-12-20T09:15:25.592000+00:00</time>
      </trkpt>
      <trkpt lat="47.33302" lon="-1.25972">
        <ele>123</ele>
        <time>2020-12-20T09:15:26.536000+00:00</time>
      </trkpt>
      <trkpt lat="0" lon="0">
        <time>2020-12-20T09:15:26.545000+00:00</time>
      </trkpt>
      <trkpt lat="0" lon="0">
        <time>2020-12-20T09:15:26.550000+00:00</time>
      </trkpt>
      <trkpt lat="0" lon="0">
        <time>2020-12-20T09:15:26.557000+00:00</time>
      </trkpt>
      <trkpt lat="47.33298" lon="-1.25967">
        <ele>123</ele>
        <time>2020-12-20T09:15:27.521000+00:00</time>
      </trkpt>
      <trkpt lat="0" lon="0">
        <time>2020-12-20T09:15:27.536000+00:00</time>
      </trkpt>
      <trkpt lat="0" lon="0">
        <time>2020-12-20T09:15:27.542000+00:00</time>
      </trkpt>
      <trkpt lat="0" lon="0">
        <time>2020-12-20T09:15:27.547000+00:00</time>
      </trkpt>
      <trkpt lat="47.33295" lon="-1.25961">
        <ele>123</ele>
        <time>2020-12-20T09:15:28.537000+00:00</time>
      </trkpt>
      <trkpt lat="0" lon="0">
        <time>2020-12-20T09:15:28.546000+00:00</time>
      </trkpt>
      <trkpt lat="0" lon="0">
        <time>2020-12-20T09:15:28.553000+00:00</time>
      </trkpt>
      <trkpt lat="0" lon="0">
        <time>2020-12-20T09:15:28.556000+00:00</time>
      </trkpt>
      <trkpt lat="47.33292" lon="-1.25956">
        <ele>124</ele>
        <time>2020-12-20T09:15:29.570000+00:00</time>
      </trkpt>
      <trkpt lat="0" lon="0">
        <time>2020-12-20T09:15:29.580000+00:00</time>
      </trkpt>
      <trkpt lat="0" lon="0">
        <time>2020-12-20T09:15:29.584000+00:00</time>
      </trkpt>
      <trkpt lat="0" lon="0">
        <time>2020-12-20T09:15:29.586000+00:00</time>
      </trkpt>
      <trkpt lat="47.3329" lon="-1.25951">
        <ele>124</ele>
        <time>2020-12-20T09:15:30.570000+00:00</time>
      </trkpt>
      <trkpt lat="0" lon="0">
        <time>2020-12-20T09:15:30.579000+00:00</time>
      </trkpt>
      <trkpt lat="0" lon="0">
        <time>2020-12-20T09:15:30.585000+00:00</time>
      </trkpt>
      <trkpt lat="0" lon="0">
        <time>2020-12-20T09:15:30.588000+00:00</time>
      </trkpt>
      <trkpt lat="47.33288" lon="-1.25946">
        <ele>124</ele>
        <time>2020-12-20T09:15:31.551000+00:00</time>
      </trkpt>
      <trkpt lat="0" lon="0">
        <time>2020-12-20T09:15:31.556000+00:00</time>
      </trkpt>
      <trkpt lat="0" lon="0">
        <time>2020-12-20T09:15:31.562000+00:00</time>
      </trkpt>
      <trkpt lat="0" lon="0">
        <time>2020-12-20T09:15:31.569000+00:00</time>
      </trkpt>
      <trkpt lat="47.33288" lon="-1.25941">
        <ele>124</ele>
        <time>2020-12-20T09:15:32.552000+00:00</time>
      </trkpt>
      <trkpt lat="0" lon="0">
        <time>2020-12-20T09:15:32.571000+00:00</time>
      </trkpt>
      <trkpt lat="0" lon="0">
        <time>2020-12-20T09:15:32.577000+00:00</time>
      </trkpt>
      <trkpt lat="0" lon="0">
        <time>2020-12-20T09:15:32.583000+00:00</time>
      </trkpt>
      <trkpt lat="47.33288" lon="-1.25938">
        <ele>124</ele>
        <time>2020-12-20T09:15:33.539000+00:00</time>
      </trkpt>
      <trkpt lat="0" lon="0">
        <time>2020-12-20T09:15:33.552000+00:00</time>
      </trkpt>
      <trkpt lat="0" lon="0">
        <time>2020-12-20T09:15:33.557000+00:00</time>
      </trkpt>
      <trkpt lat="0" lon="0">
        <time>2020-12-20T09:15:33.562000+00:00</time>
      </trkpt>
      <trkpt lat="47.33289" lon="-1.25935">
        <ele>124</ele>
        <time>2020-12-20T09:15:34.514000+00:00</time>
      </trkpt>
      <trkpt lat="0" lon="0">
        <time>2020-12-20T09:15:34.545000+00:00</time>
      </trkpt>
      <trkpt lat="0" lon="0">
        <time>2020-12-20T09:15:34.547000+00:00</time>
      </trkpt>
      <trkpt lat="0" lon="0">
        <time>2020-12-20T09:15:34.549000+00:00</time>
      </trkpt>
      <trkpt lat="47.33291" lon="-1.25933">
        <ele>124</ele>
        <time>2020-12-20T09:15:35.558000+00:00</time>
      </trkpt>
      <trkpt lat="0" lon="0">
        <time>2020-12-20T09:15:35.565000+00:00</time>
      </trkpt>
      <trkpt lat="0" lon="0">
        <time>2020-12-20T09:15:35.568000+00:00</time>
      </trkpt>
      <trkpt lat="0" lon="0">
        <time>2020-12-20T09:15:35.571000+00:00</time>
      </trkpt>
      <trkpt lat="47.33292" lon="-1.25931">
        <ele>124</ele>
        <time>2020-12-20T09:15:36.529000+00:00</time>
      </trkpt>
      <trkpt lat="0" lon="0">
        <time>2020-12-20T09:15:36.537000+00:00</time>
      </trkpt>
      <trkpt lat="0" lon="0">
        <time>2020-12-20T09:15:36.543000+00:00</time>
      </trkpt>
      <trkpt lat="0" lon="0">
        <time>2020-12-20T09:15:36.546000+00:00</time>
      </trkpt>
      <trkpt lat="47.33294" lon="-1.2593">
        <ele>124</ele>
        <time>2020-12-20T09:15:37.564000+00:00</time>
      </trkpt>
      <trkpt lat="0" lon="0">
        <time>2020-12-20T09:15:37.570000+00:00</time>
      </trkpt>
      <trkpt lat="0" lon="0">
        <time>2020-12-20T09:15:37.574000+00:00</time>
      </trkpt>
      <trkpt lat="0" lon="0">
        <time>2020-12-20T09:15:37.578000+00:00</time>
      </trkpt>
      <trkpt lat="47.33295" lon="-1.25929">
        <ele>124</ele>
        <time>2020-12-20T09:15:38.540000+00:00</time>
      </trkpt>
      <trkpt lat="0" lon="0">
        <time>2020-12-20T09:15:38.546000+00:00</time>
      </trkpt>
      <trkpt lat="0" lon="0">
        <time>2020-12-20T09:15:38.552000+00:00</time>
      </trkpt>
      <trkpt lat="0" lon="0">
        <time>2020-12-20T09:15:38.554000+00:00</time>
      </trkpt>
      <trkpt lat="47.33297" lon="-1.2593">
        <ele>124</ele>
        <time>2020-12-20T09:15:39.547000+00:00</time>
      </trkpt>
      <trkpt lat="0" lon="0">
        <time>2020-12-20T09:15:39.559000+00:00</time>
      </trkpt>
      <trkpt lat="0" lon="0">
        <time>2020-12-20T09:15:39.567000+00:00</time>
      </trkpt>
      <trkpt lat="0" lon="0">
        <time>2020-12-20T09:15:39.572000+00:00</time>
      </trkpt>
      <trkpt lat="47.33298" lon="-1.2593">
        <ele>125</ele>
        <time>2020-12-20T09:15:40.531000+00:00</time>
      </trkpt>
      <trkpt lat="0" lon="0">
        <time>2020-12-20T09:15:40.550000+00:00</time>
      </trkpt>
      <trkpt lat="0" lon="0">
        <time>2020-12-20T09:15:40.553000+00:00</time>
      </trkpt>
      <trkpt lat="0" lon="0">
        <time>2020-12-20T09:15:40.555000+00:00</time>
      </trkpt>
      <trkpt lat="47.33299" lon="-1.25931">
        <ele>125</ele>
        <time>2020-12-20T09:15:41.542000+00:00</time>
      </trkpt>
      <trkpt lat="0" lon="0">
        <time>2020-12-20T09:15:41.547000+00:00</time>
      </trkpt>
      <trkpt lat="0" lon="0">
        <time>2020-12-20T09:15:41.550000+00:00</time>
      </trkpt>
      <trkpt lat="0" lon="0">
        <time>2020-12-20T09:15:41.551000+00:00</time>
      </trkpt>
      <trkpt lat="47.33299" lon="-1.25932">
        <ele>124</ele>
        <time>2020-12-20T09:15:42.543000+00:00</time>
      </trkpt>
      <trkpt lat="0" lon="0">
        <time>2020-12-20T09:15:42.550000+00:00</time>
      </trkpt>
      <trkpt lat="0" lon="0">
        <time>2020-12-20T09:15:42.555000+00:00</time>
      </trkpt>
      <trkpt lat="0" lon="0">
        <time>2020-12-20T09:15:42.557000+00:00</time>
      </trkpt>
      <trkpt lat="47.333" lon="-1.25934">
        <ele>124</ele>
        <time>2020-12-20T09:15:43.543000+00:00</time>
      </trkpt>
      <trkpt lat="0" lon="0">
        <time>2020-12-20T09:15:43.561000+00:00</time>
      </trkpt>
      <trkpt lat="0" lon="0">
        <time>2020-12-20T09:15:43.567000+00:00</time>
      </trkpt>
      <trkpt lat="0" lon="0">
        <time>2020-12-20T09:15:43.572000+00:00</time>
      </trkpt>
      <trkpt lat="47.33299" lon="-1.25935">
        <ele>124</ele>
        <time>2020-12-20T09:15:44.546000+00:00</time>
      </trkpt>
      <trkpt lat="0" lon="0">
        <time>2020-12-20T09:15:44.564000+00:00</time>
      </trkpt>
      <trkpt lat="0" lon="0">
        <time>2020-12-20T09:15:44.571000+00:00</time>
      </trkpt>
      <trkpt lat="0" lon="0">
        <time>2020-12-20T09:15:44.574000+00:00</time>
      </trkpt>
      <trkpt lat="47.33299" lon="-1.25937">
        <ele>124</ele>
        <time>2020-12-20T09:15:45.549000+00:00</time>
      </trkpt>
      <trkpt lat="0" lon="0">
        <time>2020-12-20T09:15:45.572000+00:00</time>
      </trkpt>
      <trkpt lat="0" lon="0">
        <time>2020-12-20T09:15:45.576000+00:00</time>
      </trkpt>
      <trkpt lat="0" lon="0">
        <time>2020-12-20T09:15:45.588000+00:00</time>
      </trkpt>
      <trkpt lat="47.33282" lon="-1.25937">
        <ele>124</ele>
        <time>2020-12-20T09:15:46.561000+00:00</time>
      </trkpt>
      <trkpt lat="0" lon="0">
        <time>2020-12-20T09:15:46.571000+00:00</time>
      </trkpt>
      <trkpt lat="0" lon="0">
        <time>2020-12-20T09:15:46.574000+00:00</time>
      </trkpt>
      <trkpt lat="0" lon="0">
        <time>2020-12-20T09:15:46.575000+00:00</time>
      </trkpt>
      <trkpt lat="47.33279" lon="-1.25934">
        <ele>124</ele>
        <time>2020-12-20T09:15:47.567000+00:00</time>
      </trkpt>
      <trkpt lat="0" lon="0">
        <time>2020-12-20T09:15:47.577000+00:00</time>
      </trkpt>
      <trkpt lat="0" lon="0">
        <time>2020-12-20T09:15:47.585000+00:00</time>
      </trkpt>
      <trkpt lat="0" lon="0">
        <time>2020-12-20T09:15:47.594000+00:00</time>
      </trkpt>
      <trkpt lat="47.33275" lon="-1.25931">
        <ele>124</ele>
        <time>2020-12-20T09:15:48.600000+00:00</time>
      </trkpt>
      <trkpt lat="0" lon="0">
        <time>2020-12-20T09:15:48.609000+00:00</time>
      </trkpt>
      <trkpt lat="0" lon="0">
        <time>2020-12-20T09:15:48.614000+00:00</time>
      </trkpt>
      <trkpt lat="0" lon="0">
        <time>2020-12-20T09:15:48.616000+00:00</time>
      </trkpt>
      <trkpt lat="47.33272" lon="-1.25927">
        <ele>123</ele>
        <time>2020-12-20T09:15:49.610000+00:00</time>
      </trkpt>
      <trkpt lat="0" lon="0">
        <time>2020-12-20T09:15:49.619000+00:00</time>
      </trkpt>
      <trkpt lat="0" lon="0">
        <time>2020-12-20T09:15:49.623000+00:00</time>
      </trkpt>
      <trkpt lat="0" lon="0">
        <time>2020-12-20T09:15:49.626000+00:00</time>
      </trkpt>
      <trkpt lat="47.33268" lon="-1.25922">
        <ele>123</ele>
        <time>2020-12-20T09:15:50.596000+00:00</time>
      </trkpt>
      <trkpt lat="0" lon="0">
        <time>2020-12-20T09:15:50.607000+00:00</time>
      </trkpt>
      <trkpt lat="0" lon="0">
        <time>2020-12-20T09:15:50.612000+00:00</time>
      </trkpt>
      <trkpt lat="0" lon="0">
        <time>2020-12-20T09:15:50.614000+00:00</time>
      </trkpt>
      <trkpt lat="47.33264" lon="-1.25918">
        <ele>123</ele>
        <time>2020-12-20T09:15:51.578000+00:00</time>
      </trkpt>
      <trkpt lat="0" lon="0">
        <time>2020-12-20T09:15:51.587000+00:00</time>
      </trkpt>
      <trkpt lat="0" lon="0">
        <time>2020-12-20T09:15:51.593000+00:00</time>
      </trkpt>
      <trkpt lat="0" lon="0">
        <time>2020-12-20T09:15:51.595000+00:00</time>
      </trkpt>
      <trkpt lat="47.3326" lon="-1.25913">
        <ele>122</ele>
        <time>2020-12-20T09:15:52.578000+00:00</time>
      </trkpt>
      <trkpt lat="0" lon="0">
        <time>2020-12-20T09:15:52.590000+00:00</time>
      </trkpt>
      <trkpt lat="0" lon="0">
        <time>2020-12-20T09:15:52.593000+00:00</time>
      </trkpt>
      <trkpt lat="0" lon="0">
        <time>2020-12-20T09:15:52.595000+00:00</time>
      </trkpt>
      <trkpt lat="47.33256" lon="-1.25908">
        <ele>122</ele>
        <time>2020-12-20T09:15:53.615000+00:00</time>
      </trkpt>
      <trkpt lat="0" lon="0">
        <time>2020-12-20T09:15:53.627000+00:00</time>
      </trkpt>
      <trkpt lat="0" lon="0">
        <time>2020-12-20T09:15:53.632000+00:00</time>
      </trkpt>
      <trkpt lat="0" lon="0">
        <time>2020-12-20T09:15:53.636000+00:00</time>
      </trkpt>
      <trkpt lat="47.33252" lon="-1.25902">
        <ele>122</ele>
        <time>2020-12-20T09:15:54.626000+00:00</time>
      </trkpt>
      <trkpt lat="0" lon="0">
        <time>2020-12-20T09:15:54.636000+00:00</time>
      </trkpt>
      <trkpt lat="0" lon="0">
        <time>2020-12-20T09:15:54.642000+00:00</time>
      </trkpt>
      <trkpt lat="0" lon="0">
        <time>2020-12-20T09:15:54.644000+00:00</time>
      </trkpt>
      <trkpt lat="47.33249" lon="-1.25897">
        <ele>122</ele>
        <time>2020-12-20T09:15:55.605000+00:00</time>
      </trkpt>
      <trkpt lat="0" lon="0">
        <time>2020-12-20T09:15:55.614000+00:00</time>
      </trkpt>
      <trkpt lat="0" lon="0">
        <time>2020-12-20T09:15:55.621000+00:00</time>
      </trkpt>
      <trkpt lat="0" lon="0">
        <time>2020-12-20T09:15:55.624000+00:00</time>
      </trkpt>
      <trkpt lat="47.33245" lon="-1.25892">
        <ele>122</ele>
        <time>2020-12-20T09:15:56.597000+00:00</time>
      </trkpt>
      <trkpt lat="0" lon="0">
        <time>2020-12-20T09:15:56.602000+00:00</time>
      </trkpt>
      <trkpt lat="0" lon="0">
        <time>2020-12-20T09:15:56.608000+00:00</time>
      </trkpt>
      <trkpt lat="0" lon="0">
        <time>2020-12-20T09:15:56.611000+00:00</time>
      </trkpt>
      <trkpt lat="47.33241" lon="-1.25887">
        <ele>122</ele>
        <time>2020-12-20T09:15:57.596000+00:00</time>
      </trkpt>
      <trkpt lat="0" lon="0">
        <time>2020-12-20T09:15:57.607000+00:00</time>
      </trkpt>
      <trkpt lat="0" lon="0">
        <time>2020-12-20T09:15:57.611000+00:00</time>
      </trkpt>
      <trkpt lat="0" lon="0">
        <time>2020-12-20T09:15:57.613000+00:00</time>
      </trkpt>
      <trkpt lat="47.33237" lon="-1.25882">
        <ele>121</ele>
        <time>2020-12-20T09:15:58.592000+00:00</time>
      </trkpt>
      <trkpt lat="0" lon="0">
        <time>2020-12-20T09:15:58.599000+00:00</time>
      </trkpt>
      <trkpt lat="0" lon="0">
        <time>2020-12-20T09:15:58.606000+00:00</time>
      </trkpt>
      <trkpt lat="0" lon="0">
        <time>2020-12-20T09:15:58.609000+00:00</time>
      </trkpt>
      <trkpt lat="47.33234" lon="-1.25878">
        <ele>121</ele>
        <time>2020-12-20T09:15:59.613000+00:00</time>
      </trkpt>
      <trkpt lat="0" lon="0">
        <time>2020-12-20T09:15:59.627000+00:00</time>
      </trkpt>
      <trkpt lat="0" lon="0">
        <time>2020-12-20T09:15:59.631000+00:00</time>
      </trkpt>
      <trkpt lat="0" lon="0">
        <time>2020-12-20T09:15:59.633000+00:00</time>
      </trkpt>
      <trkpt lat="47.3323" lon="-1.25874">
        <ele>121</ele>
        <time>2020-12-20T09:16:00.619000+00:00</time>
      </trkpt>
      <trkpt lat="0" lon="0">
        <time>2020-12-20T09:16:00.636000+00:00</time>
      </trkpt>
      <trkpt lat="0" lon="0">
        <time>2020-12-20T09:16:00.646000+00:00</time>
      </trkpt>
      <trkpt lat="0" lon="0">
        <time>2020-12-20T09:16:00.648000+00:00</time>
      </trkpt>
      <trkpt lat="47.33226" lon="-1.25869">
        <ele>121</ele>
        <time>2020-12-20T09:16:01.617000+00:00</time>
      </trkpt>
      <trkpt lat="0" lon="0">
        <time>2020-12-20T09:16:01.622000+00:00</time>
      </trkpt>
      <trkpt lat="0" lon="0">
        <time>2020-12-20T09:16:01.629000+00:00</time>
      </trkpt>
      <trkpt lat="0" lon="0">
        <time>2020-12-20T09:16:01.631000+00:00</time>
      </trkpt>
      <trkpt lat="47.33223" lon="-1.25865">
        <ele>121</ele>
        <time>2020-12-20T09:16:02.577000+00:00</time>
      </trkpt>
      <trkpt lat="0" lon="0">
        <time>2020-12-20T09:16:02.580000+00:00</time>
      </trkpt>
      <trkpt lat="0" lon="0">
        <time>2020-12-20T09:16:02.582000+00:00</time>
      </trkpt>
      <trkpt lat="0" lon="0">
        <time>2020-12-20T09:16:02.583000+00:00</time>
      </trkpt>
      <trkpt lat="47.33219" lon="-1.25861">
        <ele>121</ele>
        <time>2020-12-20T09:16:03.571000+00:00</time>
      </trkpt>
      <trkpt lat="0" lon="0">
        <time>2020-12-20T09:16:03.575000+00:00</time>
      </trkpt>
      <trkpt lat="0" lon="0">
        <time>2020-12-20T09:16:03.581000+00:00</time>
      </trkpt>
      <trkpt lat="0" lon="0">
        <time>2020-12-20T09:16:03.584000+00:00</time>
      </trkpt>
      <trkpt lat="47.33216" lon="-1.25856">
        <ele>121</ele>
        <time>2020-12-20T09:16:04.576000+00:00</time>
      </trkpt>
      <trkpt lat="0" lon="0">
        <time>2020-12-20T09:16:04.588000+00:00</time>
      </trkpt>
      <trkpt lat="0" lon="0">
        <time>2020-12-20T09:16:04.594000+00:00</time>
      </trkpt>
      <trkpt lat="0" lon="0">
        <time>2020-12-20T09:16:04.597000+00:00</time>
      </trkpt>
      <trkpt lat="47.33212" lon="-1.25852">
        <ele>121</ele>
        <time>2020-12-20T09:16:05.619000+00:00</time>
      </trkpt>
      <trkpt lat="0" lon="0">
        <time>2020-12-20T09:16:05.624000+00:00</time>
      </trkpt>
      <trkpt lat="0" lon="0">
        <time>2020-12-20T09:16:05.630000+00:00</time>
      </trkpt>
      <trkpt lat="0" lon="0">
        <time>2020-12-20T09:16:05.636000+00:00</time>
      </trkpt>
      <trkpt lat="47.33209" lon="-1.25848">
        <ele>121</ele>
        <time>2020-12-20T09:16:06.598000+00:00</time>
      </trkpt>
      <trkpt lat="0" lon="0">
        <time>2020-12-20T09:16:06.617000+00:00</time>
      </trkpt>
      <trkpt lat="0" lon="0">
        <time>2020-12-20T09:16:06.629000+00:00</time>
      </trkpt>
      <trkpt lat="0" lon="0">
        <time>2020-12-20T09:16:06.631000+00:00</time>
      </trkpt>
      <trkpt lat="47.33206" lon="-1.25843">
        <ele>121</ele>
        <time>2020-12-20T09:16:07.593000+00:00</time>
      </trkpt>
      <trkpt lat="0" lon="0">
        <time>2020-12-20T09:16:07.599000+00:00</time>
      </trkpt>
      <trkpt lat="0" lon="0">
        <time>2020-12-20T09:16:07.609000+00:00</time>
      </trkpt>
      <trkpt lat="0" lon="0">
        <time>2020-12-20T09:16:07.612000+00:00</time>
      </trkpt>
      <trkpt lat="47.33202" lon="-1.25839">
        <ele>121</ele>
        <time>2020-12-20T09:16:08.568000+00:00</time>
      </trkpt>
      <trkpt lat="0" lon="0">
        <time>2020-12-20T09:16:08.582000+00:00</time>
      </trkpt>
      <trkpt lat="0" lon="0">
        <time>2020-12-20T09:16:08.584000+00:00</time>
      </trkpt>
      <trkpt lat="0" lon="0">
        <time>2020-12-20T09:16:08.585000+00:00</time>
      </trkpt>
      <trkpt lat="47.332" lon="-1.25835">
        <ele>121</ele>
        <time>2020-12-20T09:16:09.608000+00:00</time>
      </trkpt>
      <trkpt lat="0" lon="0">
        <time>2020-12-20T09:16:09.610000+00:00</time>
      </trkpt>
      <trkpt lat="0" lon="0">
        <time>2020-12-20T09:16:09.617000+00:00</time>
      </trkpt>
      <trkpt lat="0" lon="0">
        <time>2020-12-20T09:16:09.621000+00:00</time>
      </trkpt>
      <trkpt lat="47.33198" lon="-1.25831">
        <ele>122</ele>
        <time>2020-12-20T09:16:10.587000+00:00</time>
      </trkpt>
      <trkpt lat="0" lon="0">
        <time>2020-12-20T09:16:10.600000+00:00</time>
      </trkpt>
      <trkpt lat="0" lon="0">
        <time>2020-12-20T09:16:10.604000+00:00</time>
      </trkpt>
      <trkpt lat="0" lon="0">
        <time>2020-12-20T09:16:10.606000+00:00</time>
      </trkpt>
      <trkpt lat="47.33196" lon="-1.25828">
        <ele>122</ele>
        <time>2020-12-20T09:16:11.569000+00:00</time>
      </trkpt>
      <trkpt lat="0" lon="0">
        <time>2020-12-20T09:16:11.582000+00:00</time>
      </trkpt>
      <trkpt lat="0" lon="0">
        <time>2020-12-20T09:16:11.588000+00:00</time>
      </trkpt>
      <trkpt lat="0" lon="0">
        <time>2020-12-20T09:16:11.590000+00:00</time>
      </trkpt>
      <trkpt lat="47.33196" lon="-1.25824">
        <ele>122</ele>
        <time>2020-12-20T09:16:12.581000+00:00</time>
      </trkpt>
      <trkpt lat="0" lon="0">
        <time>2020-12-20T09:16:12.589000+00:00</time>
      </trkpt>
      <trkpt lat="0" lon="0">
        <time>2020-12-20T09:16:12.596000+00:00</time>
      </trkpt>
      <trkpt lat="0" lon="0">
        <time>2020-12-20T09:16:12.599000+00:00</time>
      </trkpt>
      <trkpt lat="47.33197" lon="-1.2582">
        <ele>122</ele>
        <time>2020-12-20T09:16:13.582000+00:00</time>
      </trkpt>
      <trkpt lat="0" lon="0">
        <time>2020-12-20T09:16:13.599000+00:00</time>
      </trkpt>
      <trkpt lat="0" lon="0">
        <time>2020-12-20T09:16:13.603000+00:00</time>
      </trkpt>
      <trkpt lat="0" lon="0">
        <time>2020-12-20T09:16:13.606000+00:00</time>
      </trkpt>
      <trkpt lat="47.33198" lon="-1.25817">
        <ele>122</ele>
        <time>2020-12-20T09:16:14.587000+00:00</time>
      </trkpt>
      <trkpt lat="0" lon="0">
        <time>2020-12-20T09:16:14.605000+00:00</time>
      </trkpt>
      <trkpt lat="0" lon="0">
        <time>2020-12-20T09:16:14.613000+00:00</time>
      </trkpt>
      <trkpt lat="0" lon="0">
        <time>2020-12-20T09:16:14.616000+00:00</time>
      </trkpt>
      <trkpt lat="47.332" lon="-1.25814">
        <ele>122</ele>
        <time>2020-12-20T09:16:15.583000+00:00</time>
      </trkpt>
      <trkpt lat="0" lon="0">
        <time>2020-12-20T09:16:15.601000+00:00</time>
      </trkpt>
      <trkpt lat="0" lon="0">
        <time>2020-12-20T09:16:15.607000+00:00</time>
      </trkpt>
      <trkpt lat="0" lon="0">
        <time>2020-12-20T09:16:15.609000+00:00</time>
      </trkpt>
      <trkpt lat="47.33202" lon="-1.2581">
        <ele>122</ele>
        <time>2020-12-20T09:16:16.612000+00:00</time>
      </trkpt>
      <trkpt lat="0" lon="0">
        <time>2020-12-20T09:16:16.632000+00:00</time>
      </trkpt>
      <trkpt lat="0" lon="0">
        <time>2020-12-20T09:16:16.641000+00:00</time>
      </trkpt>
      <trkpt lat="0" lon="0">
        <time>2020-12-20T09:16:16.648000+00:00</time>
      </trkpt>
      <trkpt lat="47.33205" lon="-1.25806">
        <ele>122</ele>
        <time>2020-12-20T09:16:17.550000+00:00</time>
      </trkpt>
      <trkpt lat="0" lon="0">
        <time>2020-12-20T09:16:17.560000+00:00</time>
      </trkpt>
      <trkpt lat="0" lon="0">
        <time>2020-12-20T09:16:17.562000+00:00</time>
      </trkpt>
      <trkpt lat="0" lon="0">
        <time>2020-12-20T09:16:17.563000+00:00</time>
      </trkpt>
      <trkpt lat="47.33208" lon="-1.25803">
        <ele>123</ele>
        <time>2020-12-20T09:16:18.589000+00:00</time>
      </trkpt>
      <trkpt lat="0" lon="0">
        <time>2020-12-20T09:16:18.602000+00:00</time>
      </trkpt>
      <trkpt lat="0" lon="0">
        <time>2020-12-20T09:16:18.608000+00:00</time>
      </trkpt>
      <trkpt lat="0" lon="0">
        <time>2020-12-20T09:16:18.611000+00:00</time>
      </trkpt>
      <trkpt lat="47.33211" lon="-1.25799">
        <ele>123</ele>
        <time>2020-12-20T09:16:19.565000+00:00</time>
      </trkpt>
      <trkpt lat="0" lon="0">
        <time>2020-12-20T09:16:19.586000+00:00</time>
      </trkpt>
      <trkpt lat="0" lon="0">
        <time>2020-12-20T09:16:19.588000+00:00</time>
      </trkpt>
      <trkpt lat="0" lon="0">
        <time>2020-12-20T09:16:19.589000+00:00</time>
      </trkpt>
      <trkpt lat="47.33215" lon="-1.25796">
        <ele>123</ele>
        <time>2020-12-20T09:16:20.513000+00:00</time>
      </trkpt>
      <trkpt lat="0" lon="0">
        <time>2020-12-20T09:16:20.517000+00:00</time>
      </trkpt>
      <trkpt lat="0" lon="0">
        <time>2020-12-20T09:16:20.518000+00:00</time>
      </trkpt>
      <trkpt lat="47.33219" lon="-1.25792">
        <ele>124</ele>
        <time>2020-12-20T09:16:21.538000+00:00</time>
      </trkpt>
      <trkpt lat="0" lon="0">
        <time>2020-12-20T09:16:21.550000+00:00</time>
      </trkpt>
      <trkpt lat="0" lon="0">
        <time>2020-12-20T09:16:21.554000+00:00</time>
      </trkpt>
      <trkpt lat="0" lon="0">
        <time>2020-12-20T09:16:21.556000+00:00</time>
      </trkpt>
      <trkpt lat="47.33223" lon="-1.25789">
        <ele>124</ele>
        <time>2020-12-20T09:16:22.603000+00:00</time>
      </trkpt>
      <trkpt lat="0" lon="0">
        <time>2020-12-20T09:16:22.618000+00:00</time>
      </trkpt>
      <trkpt lat="0" lon="0">
        <time>2020-12-20T09:16:22.630000+00:00</time>
      </trkpt>
      <trkpt lat="0" lon="0">
        <time>2020-12-20T09:16:22.632000+00:00</time>
      </trkpt>
      <trkpt lat="47.33227" lon="-1.25786">
        <ele>124</ele>
        <time>2020-12-20T09:16:23.594000+00:00</time>
      </trkpt>
      <trkpt lat="0" lon="0">
        <time>2020-12-20T09:16:23.600000+00:00</time>
      </trkpt>
      <trkpt lat="0" lon="0">
        <time>2020-12-20T09:16:23.602000+00:00</time>
      </trkpt>
      <trkpt lat="0" lon="0">
        <time>2020-12-20T09:16:23.603000+00:00</time>
      </trkpt>
      <trkpt lat="47.33232" lon="-1.25783">
        <ele>124</ele>
        <time>2020-12-20T09:16:24.529000+00:00</time>
      </trkpt>
      <trkpt lat="0" lon="0">
        <time>2020-12-20T09:16:24.536000+00:00</time>
      </trkpt>
      <trkpt lat="0" lon="0">
        <time>2020-12-20T09:16:24.537000+00:00</time>
      </trkpt>
      <trkpt lat="0" lon="0">
        <time>2020-12-20T09:16:24.538000+00:00</time>
      </trkpt>
      <trkpt lat="47.33236" lon="-1.25781">
        <ele>125</ele>
        <time>2020-12-20T09:16:25.542000+00:00</time>
      </trkpt>
      <trkpt lat="0" lon="0">
        <time>2020-12-20T09:16:25.544000+00:00</time>
      </trkpt>
      <trkpt lat="0" lon="0">
        <time>2020-12-20T09:16:25.548000+00:00</time>
      </trkpt>
      <trkpt lat="0" lon="0">
        <time>2020-12-20T09:16:25.550000+00:00</time>
      </trkpt>
      <trkpt lat="47.33241" lon="-1.25778">
        <ele>126</ele>
        <time>2020-12-20T09:16:26.555000+00:00</time>
      </trkpt>
      <trkpt lat="0" lon="0">
        <time>2020-12-20T09:16:26.560000+00:00</time>
      </trkpt>
      <trkpt lat="0" lon="0">
        <time>2020-12-20T09:16:26.565000+00:00</time>
      </trkpt>
      <trkpt lat="0" lon="0">
        <time>2020-12-20T09:16:26.566000+00:00</time>
      </trkpt>
      <trkpt lat="47.33246" lon="-1.25776">
        <ele>125</ele>
        <time>2020-12-20T09:16:27.598000+00:00</time>
      </trkpt>
      <trkpt lat="0" lon="0">
        <time>2020-12-20T09:16:27.603000+00:00</time>
      </trkpt>
      <trkpt lat="0" lon="0">
        <time>2020-12-20T09:16:27.609000+00:00</time>
      </trkpt>
      <trkpt lat="0" lon="0">
        <time>2020-12-20T09:16:27.611000+00:00</time>
      </trkpt>
      <trkpt lat="47.3325" lon="-1.25774">
        <ele>126</ele>
        <time>2020-12-20T09:16:28.594000+00:00</time>
      </trkpt>
      <trkpt lat="0" lon="0">
        <time>2020-12-20T09:16:28.604000+00:00</time>
      </trkpt>
      <trkpt lat="0" lon="0">
        <time>2020-12-20T09:16:28.608000+00:00</time>
      </trkpt>
      <trkpt lat="0" lon="0">
        <time>2020-12-20T09:16:28.610000+00:00</time>
      </trkpt>
      <trkpt lat="47.33255" lon="-1.25772">
        <ele>126</ele>
        <time>2020-12-20T09:16:29.581000+00:00</time>
      </trkpt>
      <trkpt lat="0" lon="0">
        <time>2020-12-20T09:16:29.590000+00:00</time>
      </trkpt>
      <trkpt lat="0" lon="0">
        <time>2020-12-20T09:16:29.594000+00:00</time>
      </trkpt>
      <trkpt lat="0" lon="0">
        <time>2020-12-20T09:16:29.599000+00:00</time>
      </trkpt>
      <trkpt lat="47.3326" lon="-1.2577">
        <ele>126</ele>
        <time>2020-12-20T09:16:30.596000+00:00</time>
      </trkpt>
      <trkpt lat="0" lon="0">
        <time>2020-12-20T09:16:30.609000+00:00</time>
      </trkpt>
      <trkpt lat="0" lon="0">
        <time>2020-12-20T09:16:30.611000+00:00</time>
      </trkpt>
      <trkpt lat="0" lon="0">
        <time>2020-12-20T09:16:30.613000+00:00</time>
      </trkpt>
      <trkpt lat="47.33265" lon="-1.25768">
        <ele>126</ele>
        <time>2020-12-20T09:16:31.562000+00:00</time>
      </trkpt>
      <trkpt lat="0" lon="0">
        <time>2020-12-20T09:16:31.571000+00:00</time>
      </trkpt>
      <trkpt lat="0" lon="0">
        <time>2020-12-20T09:16:31.575000+00:00</time>
      </trkpt>
      <trkpt lat="0" lon="0">
        <time>2020-12-20T09:16:31.579000+00:00</time>
      </trkpt>
      <trkpt lat="47.3327" lon="-1.25767">
        <ele>126</ele>
        <time>2020-12-20T09:16:32.578000+00:00</time>
      </trkpt>
      <trkpt lat="0" lon="0">
        <time>2020-12-20T09:16:32.588000+00:00</time>
      </trkpt>
      <trkpt lat="0" lon="0">
        <time>2020-12-20T09:16:32.593000+00:00</time>
      </trkpt>
      <trkpt lat="0" lon="0">
        <time>2020-12-20T09:16:32.596000+00:00</time>
      </trkpt>
      <trkpt lat="47.33275" lon="-1.25765">
        <ele>127</ele>
        <time>2020-12-20T09:16:33.583000+00:00</time>
      </trkpt>
      <trkpt lat="0" lon="0">
        <time>2020-12-20T09:16:33.593000+00:00</time>
      </trkpt>
      <trkpt lat="0" lon="0">
        <time>2020-12-20T09:16:33.606000+00:00</time>
      </trkpt>
      <trkpt lat="0" lon="0">
        <time>2020-12-20T09:16:33.611000+00:00</time>
      </trkpt>
      <trkpt lat="47.3328" lon="-1.25764">
        <ele>127</ele>
        <time>2020-12-20T09:16:34.569000+00:00</time>
      </trkpt>
      <trkpt lat="0" lon="0">
        <time>2020-12-20T09:16:34.577000+00:00</time>
      </trkpt>
      <trkpt lat="0" lon="0">
        <time>2020-12-20T09:16:34.582000+00:00</time>
      </trkpt>
      <trkpt lat="0" lon="0">
        <time>2020-12-20T09:16:34.584000+00:00</time>
      </trkpt>
      <trkpt lat="47.33285" lon="-1.25763">
        <ele>127</ele>
        <time>2020-12-20T09:16:35.589000+00:00</time>
      </trkpt>
      <trkpt lat="0" lon="0">
        <time>2020-12-20T09:16:35.601000+00:00</time>
      </trkpt>
      <trkpt lat="0" lon="0">
        <time>2020-12-20T09:16:35.615000+00:00</time>
      </trkpt>
      <trkpt lat="0" lon="0">
        <time>2020-12-20T09:16:35.617000+00:00</time>
      </trkpt>
      <trkpt lat="47.33291" lon="-1.25762">
        <ele>127</ele>
        <time>2020-12-20T09:16:36.599000+00:00</time>
      </trkpt>
      <trkpt lat="0" lon="0">
        <time>2020-12-20T09:16:36.608000+00:00</time>
      </trkpt>
      <trkpt lat="0" lon="0">
        <time>2020-12-20T09:16:36.617000+00:00</time>
      </trkpt>
      <trkpt lat="0" lon="0">
        <time>2020-12-20T09:16:36.619000+00:00</time>
      </trkpt>
      <trkpt lat="47.33296" lon="-1.2576">
        <ele>127</ele>
        <time>2020-12-20T09:16:37.584000+00:00</time>
      </trkpt>
      <trkpt lat="0" lon="0">
        <time>2020-12-20T09:16:37.604000+00:00</time>
      </trkpt>
      <trkpt lat="0" lon="0">
        <time>2020-12-20T09:16:37.610000+00:00</time>
      </trkpt>
      <trkpt lat="0" lon="0">
        <time>2020-12-20T09:16:37.616000+00:00</time>
      </trkpt>
      <trkpt lat="47.33301" lon="-1.25759">
        <ele>126</ele>
        <time>2020-12-20T09:16:38.591000+00:00</time>
      </trkpt>
      <trkpt lat="0" lon="0">
        <time>2020-12-20T09:16:38.612000+00:00</time>
      </trkpt>
      <trkpt lat="0" lon="0">
        <time>2020-12-20T09:16:38.618000+00:00</time>
      </trkpt>
      <trkpt lat="0" lon="0">
        <time>2020-12-20T09:16:38.621000+00:00</time>
      </trkpt>
      <trkpt lat="47.33307" lon="-1.25757">
        <ele>126</ele>
        <time>2020-12-20T09:16:39.620000+00:00</time>
      </trkpt>
      <trkpt lat="0" lon="0">
        <time>2020-12-20T09:16:39.639000+00:00</time>
      </trkpt>
      <trkpt lat="0" lon="0">
        <time>2020-12-20T09:16:39.648000+00:00</time>
      </trkpt>
      <trkpt lat="0" lon="0">
        <time>2020-12-20T09:16:39.651000+00:00</time>
      </trkpt>
      <trkpt lat="47.33312" lon="-1.25755">
        <ele>125</ele>
        <time>2020-12-20T09:16:40.568000+00:00</time>
      </trkpt>
      <trkpt lat="0" lon="0">
        <time>2020-12-20T09:16:40.577000+00:00</time>
      </trkpt>
      <trkpt lat="0" lon="0">
        <time>2020-12-20T09:16:40.581000+00:00</time>
      </trkpt>
      <trkpt lat="0" lon="0">
        <time>2020-12-20T09:16:40.583000+00:00</time>
      </trkpt>
      <trkpt lat="47.33318" lon="-1.25753">
        <ele>125</ele>
        <time>2020-12-20T09:16:41.596000+00:00</time>
      </trkpt>
      <trkpt lat="0" lon="0">
        <time>2020-12-20T09:16:41.618000+00:00</time>
      </trkpt>
      <trkpt lat="0" lon="0">
        <time>2020-12-20T09:16:41.625000+00:00</time>
      </trkpt>
      <trkpt lat="0" lon="0">
        <time>2020-12-20T09:16:41.626000+00:00</time>
      </trkpt>
      <trkpt lat="47.33324" lon="-1.25752">
        <ele>125</ele>
        <time>2020-12-20T09:16:42.595000+00:00</time>
      </trkpt>
      <trkpt lat="0" lon="0">
        <time>2020-12-20T09:16:42.603000+00:00</time>
      </trkpt>
      <trkpt lat="0" lon="0">
        <time>2020-12-20T09:16:42.610000+00:00</time>
      </trkpt>
      <trkpt lat="0" lon="0">
        <time>2020-12-20T09:16:42.611000+00:00</time>
      </trkpt>
      <trkpt lat="47.3333" lon="-1.2575">
        <ele>125</ele>
        <time>2020-12-20T09:16:43.611000+00:00</time>
      </trkpt>
      <trkpt lat="0" lon="0">
        <time>2020-12-20T09:16:43.623000+00:00</time>
      </trkpt>
      <trkpt lat="0" lon="0">
        <time>2020-12-20T09:16:43.630000+00:00</time>
      </trkpt>
      <trkpt lat="0" lon="0">
        <time>2020-12-20T09:16:43.632000+00:00</time>
      </trkpt>
      <trkpt lat="47.33336" lon="-1.25749">
        <ele>125</ele>
        <time>2020-12-20T09:16:44.622000+00:00</time>
      </trkpt>
      <trkpt lat="0" lon="0">
        <time>2020-12-20T09:16:44.640000+00:00</time>
      </trkpt>
      <trkpt lat="0" lon="0">
        <time>2020-12-20T09:16:44.652000+00:00</time>
      </trkpt>
      <trkpt lat="0" lon="0">
        <time>2020-12-20T09:16:44.656000+00:00</time>
      </trkpt>
      <trkpt lat="47.33342" lon="-1.25747">
        <ele>126</ele>
        <time>2020-12-20T09:16:45.578000+00:00</time>
      </trkpt>
      <trkpt lat="0" lon="0">
        <time>2020-12-20T09:16:45.596000+00:00</time>
      </trkpt>
      <trkpt lat="0" lon="0">
        <time>2020-12-20T09:16:45.600000+00:00</time>
      </trkpt>
      <trkpt lat="0" lon="0">
        <time>2020-12-20T09:16:45.603000+00:00</time>
      </trkpt>
      <trkpt lat="47.33348" lon="-1.25746">
        <ele>126</ele>
        <time>2020-12-20T09:16:46.634000+00:00</time>
      </trkpt>
      <trkpt lat="0" lon="0">
        <time>2020-12-20T09:16:46.640000+00:00</time>
      </trkpt>
      <trkpt lat="0" lon="0">
        <time>2020-12-20T09:16:46.646000+00:00</time>
      </trkpt>
      <trkpt lat="0" lon="0">
        <time>2020-12-20T09:16:46.650000+00:00</time>
      </trkpt>
      <trkpt lat="47.33354" lon="-1.25744">
        <ele>126</ele>
        <time>2020-12-20T09:16:47.585000+00:00</time>
      </trkpt>
      <trkpt lat="0" lon="0">
        <time>2020-12-20T09:16:47.596000+00:00</time>
      </trkpt>
      <trkpt lat="0" lon="0">
        <time>2020-12-20T09:16:47.605000+00:00</time>
      </trkpt>
      <trkpt lat="0" lon="0">
        <time>2020-12-20T09:16:47.608000+00:00</time>
      </trkpt>
      <trkpt lat="47.3336" lon="-1.25743">
        <ele>126</ele>
        <time>2020-12-20T09:16:48.617000+00:00</time>
      </trkpt>
      <trkpt lat="0" lon="0">
        <time>2020-12-20T09:16:48.622000+00:00</time>
      </trkpt>
      <trkpt lat="0" lon="0">
        <time>2020-12-20T09:16:48.630000+00:00</time>
      </trkpt>
      <trkpt lat="0" lon="0">
        <time>2020-12-20T09:16:48.637000+00:00</time>
      </trkpt>
      <trkpt lat="47.33366" lon="-1.25741">
        <ele>126</ele>
        <time>2020-12-20T09:16:49.623000+00:00</time>
      </trkpt>
      <trkpt lat="0" lon="0">
        <time>2020-12-20T09:16:49.636000+00:00</time>
      </trkpt>
      <trkpt lat="0" lon="0">
        <time>2020-12-20T09:16:49.643000+00:00</time>
      </trkpt>
      <trkpt lat="0" lon="0">
        <time>2020-12-20T09:16:49.646000+00:00</time>
      </trkpt>
      <trkpt lat="47.33372" lon="-1.25739">
        <ele>126</ele>
        <time>2020-12-20T09:16:50.605000+00:00</time>
      </trkpt>
      <trkpt lat="0" lon="0">
        <time>2020-12-20T09:16:50.622000+00:00</time>
      </trkpt>
      <trkpt lat="0" lon="0">
        <time>2020-12-20T09:16:50.632000+00:00</time>
      </trkpt>
      <trkpt lat="0" lon="0">
        <time>2020-12-20T09:16:50.635000+00:00</time>
      </trkpt>
      <trkpt lat="47.33376" lon="-1.25735">
        <ele>126</ele>
        <time>2020-12-20T09:16:51.574000+00:00</time>
      </trkpt>
      <trkpt lat="0" lon="0">
        <time>2020-12-20T09:16:51.585000+00:00</time>
      </trkpt>
      <trkpt lat="0" lon="0">
        <time>2020-12-20T09:16:51.592000+00:00</time>
      </trkpt>
      <trkpt lat="0" lon="0">
        <time>2020-12-20T09:16:51.596000+00:00</time>
      </trkpt>
      <trkpt lat="47.3338" lon="-1.2573">
        <ele>127</ele>
        <time>2020-12-20T09:16:52.571000+00:00</time>
      </trkpt>
      <trkpt lat="0" lon="0">
        <time>2020-12-20T09:16:52.596000+00:00</time>
      </trkpt>
      <trkpt lat="0" lon="0">
        <time>2020-12-20T09:16:52.604000+00:00</time>
      </trkpt>
      <trkpt lat="0" lon="0">
        <time>2020-12-20T09:16:52.609000+00:00</time>
      </trkpt>
      <trkpt lat="47.33383" lon="-1.25723">
        <ele>127</ele>
        <time>2020-12-20T09:16:53.571000+00:00</time>
      </trkpt>
      <trkpt lat="0" lon="0">
        <time>2020-12-20T09:16:53.575000+00:00</time>
      </trkpt>
      <trkpt lat="0" lon="0">
        <time>2020-12-20T09:16:53.583000+00:00</time>
      </trkpt>
      <trkpt lat="0" lon="0">
        <time>2020-12-20T09:16:53.589000+00:00</time>
      </trkpt>
      <trkpt lat="47.33384" lon="-1.25716">
        <ele>127</ele>
        <time>2020-12-20T09:16:54.532000+00:00</time>
      </trkpt>
      <trkpt lat="0" lon="0">
        <time>2020-12-20T09:16:54.543000+00:00</time>
      </trkpt>
      <trkpt lat="0" lon="0">
        <time>2020-12-20T09:16:54.555000+00:00</time>
      </trkpt>
      <trkpt lat="0" lon="0">
        <time>2020-12-20T09:16:54.557000+00:00</time>
      </trkpt>
      <trkpt lat="47.33385" lon="-1.25708">
        <ele>128</ele>
        <time>2020-12-20T09:16:55.578000+00:00</time>
      </trkpt>
      <trkpt lat="0" lon="0">
        <time>2020-12-20T09:16:55.585000+00:00</time>
      </trkpt>
      <trkpt lat="0" lon="0">
        <time>2020-12-20T09:16:55.590000+00:00</time>
      </trkpt>
      <trkpt lat="0" lon="0">
        <time>2020-12-20T09:16:55.593000+00:00</time>
      </trkpt>
      <trkpt lat="47.33385" lon="-1.257">
        <ele>128</ele>
        <time>2020-12-20T09:16:56.588000+00:00</time>
      </trkpt>
      <trkpt lat="0" lon="0">
        <time>2020-12-20T09:16:56.604000+00:00</time>
      </trkpt>
      <trkpt lat="0" lon="0">
        <time>2020-12-20T09:16:56.609000+00:00</time>
      </trkpt>
      <trkpt lat="0" lon="0">
        <time>2020-12-20T09:16:56.611000+00:00</time>
      </trkpt>
      <trkpt lat="47.33385" lon="-1.25691">
        <ele>128</ele>
        <time>2020-12-20T09:16:57.623000+00:00</time>
      </trkpt>
      <trkpt lat="0" lon="0">
        <time>2020-12-20T09:16:57.628000+00:00</time>
      </trkpt>
      <trkpt lat="0" lon="0">
        <time>2020-12-20T09:16:57.633000+00:00</time>
      </trkpt>
      <trkpt lat="0" lon="0">
        <time>2020-12-20T09:16:57.636000+00:00</time>
      </trkpt>
      <trkpt lat="47.33384" lon="-1.25682">
        <ele>128</ele>
        <time>2020-12-20T09:16:58.590000+00:00</time>
      </trkpt>
      <trkpt lat="0" lon="0">
        <time>2020-12-20T09:16:58.598000+00:00</time>
      </trkpt>
      <trkpt lat="0" lon="0">
        <time>2020-12-20T09:16:58.613000+00:00</time>
      </trkpt>
      <trkpt lat="0" lon="0">
        <time>2020-12-20T09:16:58.615000+00:00</time>
      </trkpt>
      <trkpt lat="47.33383" lon="-1.25672">
        <ele>128</ele>
        <time>2020-12-20T09:16:59.630000+00:00</time>
      </trkpt>
      <trkpt lat="0" lon="0">
        <time>2020-12-20T09:16:59.643000+00:00</time>
      </trkpt>
      <trkpt lat="0" lon="0">
        <time>2020-12-20T09:16:59.649000+00:00</time>
      </trkpt>
      <trkpt lat="0" lon="0">
        <time>2020-12-20T09:16:59.653000+00:00</time>
      </trkpt>
      <trkpt lat="47.33382" lon="-1.25662">
        <ele>128</ele>
        <time>2020-12-20T09:17:00.609000+00:00</time>
      </trkpt>
      <trkpt lat="0" lon="0">
        <time>2020-12-20T09:17:00.618000+00:00</time>
      </trkpt>
      <trkpt lat="0" lon="0">
        <time>2020-12-20T09:17:00.620000+00:00</time>
      </trkpt>
      <trkpt lat="0" lon="0">
        <time>2020-12-20T09:17:00.621000+00:00</time>
      </trkpt>
      <trkpt lat="47.3338" lon="-1.25652">
        <ele>127</ele>
        <time>2020-12-20T09:17:01.578000+00:00</time>
      </trkpt>
      <trkpt lat="0" lon="0">
        <time>2020-12-20T09:17:01.588000+00:00</time>
      </trkpt>
      <trkpt lat="0" lon="0">
        <time>2020-12-20T09:17:01.592000+00:00</time>
      </trkpt>
      <trkpt lat="0" lon="0">
        <time>2020-12-20T09:17:01.594000+00:00</time>
      </trkpt>
      <trkpt lat="47.33378" lon="-1.25643">
        <ele>127</ele>
        <time>2020-12-20T09:17:02.579000+00:00</time>
      </trkpt>
      <trkpt lat="0" lon="0">
        <time>2020-12-20T09:17:02.584000+00:00</time>
      </trkpt>
      <trkpt lat="0" lon="0">
        <time>2020-12-20T09:17:02.589000+00:00</time>
      </trkpt>
      <trkpt lat="0" lon="0">
        <time>2020-12-20T09:17:02.591000+00:00</time>
      </trkpt>
      <trkpt lat="47.33376" lon="-1.25633">
        <ele>127</ele>
        <time>2020-12-20T09:17:03.591000+00:00</time>
      </trkpt>
      <trkpt lat="0" lon="0">
        <time>2020-12-20T09:17:03.596000+00:00</time>
      </trkpt>
      <trkpt lat="0" lon="0">
        <time>2020-12-20T09:17:03.602000+00:00</time>
      </trkpt>
      <trkpt lat="0" lon="0">
        <time>2020-12-20T09:17:03.609000+00:00</time>
      </trkpt>
      <trkpt lat="47.33374" lon="-1.25623">
        <ele>127</ele>
        <time>2020-12-20T09:17:04.569000+00:00</time>
      </trkpt>
      <trkpt lat="0" lon="0">
        <time>2020-12-20T09:17:04.589000+00:00</time>
      </trkpt>
      <trkpt lat="0" lon="0">
        <time>2020-12-20T09:17:04.596000+00:00</time>
      </trkpt>
      <trkpt lat="0" lon="0">
        <time>2020-12-20T09:17:04.599000+00:00</time>
      </trkpt>
      <trkpt lat="47.33372" lon="-1.25613">
        <ele>128</ele>
        <time>2020-12-20T09:17:05.597000+00:00</time>
      </trkpt>
      <trkpt lat="0" lon="0">
        <time>2020-12-20T09:17:05.605000+00:00</time>
      </trkpt>
      <trkpt lat="0" lon="0">
        <time>2020-12-20T09:17:05.611000+00:00</time>
      </trkpt>
      <trkpt lat="0" lon="0">
        <time>2020-12-20T09:17:05.613000+00:00</time>
      </trkpt>
      <trkpt lat="47.33369" lon="-1.25604">
        <ele>128</ele>
        <time>2020-12-20T09:17:06.620000+00:00</time>
      </trkpt>
      <trkpt lat="0" lon="0">
        <time>2020-12-20T09:17:06.631000+00:00</time>
      </trkpt>
      <trkpt lat="0" lon="0">
        <time>2020-12-20T09:17:06.633000+00:00</time>
      </trkpt>
      <trkpt lat="0" lon="0">
        <time>2020-12-20T09:17:06.634000+00:00</time>
      </trkpt>
      <trkpt lat="47.33367" lon="-1.25594">
        <ele>127</ele>
        <time>2020-12-20T09:17:07.586000+00:00</time>
      </trkpt>
      <trkpt lat="0" lon="0">
        <time>2020-12-20T09:17:07.596000+00:00</time>
      </trkpt>
      <trkpt lat="0" lon="0">
        <time>2020-12-20T09:17:07.606000+00:00</time>
      </trkpt>
      <trkpt lat="0" lon="0">
        <time>2020-12-20T09:17:07.608000+00:00</time>
      </trkpt>
      <trkpt lat="47.33364" lon="-1.25584">
        <ele>128</ele>
        <time>2020-12-20T09:17:08.611000+00:00</time>
      </trkpt>
      <trkpt lat="0" lon="0">
        <time>2020-12-20T09:17:08.624000+00:00</time>
      </trkpt>
      <trkpt lat="0" lon="0">
        <time>2020-12-20T09:17:08.628000+00:00</time>
      </trkpt>
      <trkpt lat="0" lon="0">
        <time>2020-12-20T09:17:08.631000+00:00</time>
      </trkpt>
      <trkpt lat="47.33362" lon="-1.25575">
        <ele>127</ele>
        <time>2020-12-20T09:17:09.599000+00:00</time>
      </trkpt>
      <trkpt lat="0" lon="0">
        <time>2020-12-20T09:17:09.614000+00:00</time>
      </trkpt>
      <trkpt lat="0" lon="0">
        <time>2020-12-20T09:17:09.623000+00:00</time>
      </trkpt>
      <trkpt lat="0" lon="0">
        <time>2020-12-20T09:17:09.630000+00:00</time>
      </trkpt>
      <trkpt lat="47.3336" lon="-1.25566">
        <ele>127</ele>
        <time>2020-12-20T09:17:10.641000+00:00</time>
      </trkpt>
      <trkpt lat="0" lon="0">
        <time>2020-12-20T09:17:10.650000+00:00</time>
      </trkpt>
      <trkpt lat="0" lon="0">
        <time>2020-12-20T09:17:10.652000+00:00</time>
      </trkpt>
      <trkpt lat="0" lon="0">
        <time>2020-12-20T09:17:10.657000+00:00</time>
      </trkpt>
      <trkpt lat="47.33358" lon="-1.25558">
        <ele>127</ele>
        <time>2020-12-20T09:17:11.608000+00:00</time>
      </trkpt>
      <trkpt lat="0" lon="0">
        <time>2020-12-20T09:17:11.627000+00:00</time>
      </trkpt>
      <trkpt lat="0" lon="0">
        <time>2020-12-20T09:17:11.634000+00:00</time>
      </trkpt>
      <trkpt lat="0" lon="0">
        <time>2020-12-20T09:17:11.637000+00:00</time>
      </trkpt>
      <trkpt lat="47.33356" lon="-1.25549">
        <ele>126</ele>
        <time>2020-12-20T09:17:12.610000+00:00</time>
      </trkpt>
      <trkpt lat="0" lon="0">
        <time>2020-12-20T09:17:12.619000+00:00</time>
      </trkpt>
      <trkpt lat="0" lon="0">
        <time>2020-12-20T09:17:12.627000+00:00</time>
      </trkpt>
      <trkpt lat="0" lon="0">
        <time>2020-12-20T09:17:12.632000+00:00</time>
      </trkpt>
      <trkpt lat="47.33354" lon="-1.25541">
        <ele>126</ele>
        <time>2020-12-20T09:17:13.617000+00:00</time>
      </trkpt>
      <trkpt lat="0" lon="0">
        <time>2020-12-20T09:17:13.625000+00:00</time>
      </trkpt>
      <trkpt lat="0" lon="0">
        <time>2020-12-20T09:17:13.631000+00:00</time>
      </trkpt>
      <trkpt lat="0" lon="0">
        <time>2020-12-20T09:17:13.636000+00:00</time>
      </trkpt>
      <trkpt lat="47.33352" lon="-1.25532">
        <ele>126</ele>
        <time>2020-12-20T09:17:14.586000+00:00</time>
      </trkpt>
      <trkpt lat="0" lon="0">
        <time>2020-12-20T09:17:14.595000+00:00</time>
      </trkpt>
      <trkpt lat="0" lon="0">
        <time>2020-12-20T09:17:14.599000+00:00</time>
      </trkpt>
      <trkpt lat="0" lon="0">
        <time>2020-12-20T09:17:14.603000+00:00</time>
      </trkpt>
      <trkpt lat="47.3335" lon="-1.25524">
        <ele>126</ele>
        <time>2020-12-20T09:17:15.599000+00:00</time>
      </trkpt>
      <trkpt lat="0" lon="0">
        <time>2020-12-20T09:17:15.605000+00:00</time>
      </trkpt>
      <trkpt lat="0" lon="0">
        <time>2020-12-20T09:17:15.611000+00:00</time>
      </trkpt>
      <trkpt lat="0" lon="0">
        <time>2020-12-20T09:17:15.614000+00:00</time>
      </trkpt>
      <trkpt lat="47.33348" lon="-1.25517">
        <ele>125</ele>
        <time>2020-12-20T09:17:16.549000+00:00</time>
      </trkpt>
      <trkpt lat="0" lon="0">
        <time>2020-12-20T09:17:16.555000+00:00</time>
      </trkpt>
      <trkpt lat="0" lon="0">
        <time>2020-12-20T09:17:16.559000+00:00</time>
      </trkpt>
      <trkpt lat="0" lon="0">
        <time>2020-12-20T09:17:16.561000+00:00</time>
      </trkpt>
      <trkpt lat="47.33347" lon="-1.25509">
        <ele>125</ele>
        <time>2020-12-20T09:17:17.632000+00:00</time>
      </trkpt>
      <trkpt lat="0" lon="0">
        <time>2020-12-20T09:17:17.639000+00:00</time>
      </trkpt>
      <trkpt lat="0" lon="0">
        <time>2020-12-20T09:17:17.644000+00:00</time>
      </trkpt>
      <trkpt lat="0" lon="0">
        <time>2020-12-20T09:17:17.652000+00:00</time>
      </trkpt>
      <trkpt lat="47.33345" lon="-1.25502">
        <ele>125</ele>
        <time>2020-12-20T09:17:18.611000+00:00</time>
      </trkpt>
      <trkpt lat="0" lon="0">
        <time>2020-12-20T09:17:18.623000+00:00</time>
      </trkpt>
      <trkpt lat="0" lon="0">
        <time>2020-12-20T09:17:18.628000+00:00</time>
      </trkpt>
      <trkpt lat="0" lon="0">
        <time>2020-12-20T09:17:18.630000+00:00</time>
      </trkpt>
      <trkpt lat="47.33343" lon="-1.25495">
        <ele>126</ele>
        <time>2020-12-20T09:17:19.606000+00:00</time>
      </trkpt>
      <trkpt lat="0" lon="0">
        <time>2020-12-20T09:17:19.615000+00:00</time>
      </trkpt>
      <trkpt lat="0" lon="0">
        <time>2020-12-20T09:17:19.632000+00:00</time>
      </trkpt>
      <trkpt lat="0" lon="0">
        <time>2020-12-20T09:17:19.634000+00:00</time>
      </trkpt>
      <trkpt lat="47.33341" lon="-1.25488">
        <ele>125</ele>
        <time>2020-12-20T09:17:20.586000+00:00</time>
      </trkpt>
      <trkpt lat="0" lon="0">
        <time>2020-12-20T09:17:20.587000+00:00</time>
      </trkpt>
      <trkpt lat="0" lon="0">
        <time>2020-12-20T09:17:20.589000+00:00</time>
      </trkpt>
      <trkpt lat="47.33339" lon="-1.25481">
        <ele>125</ele>
        <time>2020-12-20T09:17:21.593000+00:00</time>
      </trkpt>
      <trkpt lat="0" lon="0">
        <time>2020-12-20T09:17:21.597000+00:00</time>
      </trkpt>
      <trkpt lat="0" lon="0">
        <time>2020-12-20T09:17:21.599000+00:00</time>
      </trkpt>
      <trkpt lat="0" lon="0">
        <time>2020-12-20T09:17:21.600000+00:00</time>
      </trkpt>
      <trkpt lat="47.33337" lon="-1.25475">
        <ele>125</ele>
        <time>2020-12-20T09:17:22.594000+00:00</time>
      </trkpt>
      <trkpt lat="0" lon="0">
        <time>2020-12-20T09:17:22.601000+00:00</time>
      </trkpt>
      <trkpt lat="0" lon="0">
        <time>2020-12-20T09:17:22.604000+00:00</time>
      </trkpt>
      <trkpt lat="0" lon="0">
        <time>2020-12-20T09:17:22.606000+00:00</time>
      </trkpt>
      <trkpt lat="47.33335" lon="-1.25468">
        <ele>125</ele>
        <time>2020-12-20T09:17:23.582000+00:00</time>
      </trkpt>
      <trkpt lat="0" lon="0">
        <time>2020-12-20T09:17:23.596000+00:00</time>
      </trkpt>
      <trkpt lat="0" lon="0">
        <time>2020-12-20T09:17:23.600000+00:00</time>
      </trkpt>
      <trkpt lat="0" lon="0">
        <time>2020-12-20T09:17:23.607000+00:00</time>
      </trkpt>
      <trkpt lat="47.33332" lon="-1.25462">
        <ele>125</ele>
        <time>2020-12-20T09:17:24.612000+00:00</time>
      </trkpt>
      <trkpt lat="0" lon="0">
        <time>2020-12-20T09:17:24.632000+00:00</time>
      </trkpt>
      <trkpt lat="0" lon="0">
        <time>2020-12-20T09:17:24.639000+00:00</time>
      </trkpt>
      <trkpt lat="0" lon="0">
        <time>2020-12-20T09:17:24.642000+00:00</time>
      </trkpt>
      <trkpt lat="47.3333" lon="-1.25455">
        <ele>124</ele>
        <time>2020-12-20T09:17:25.590000+00:00</time>
      </trkpt>
      <trkpt lat="0" lon="0">
        <time>2020-12-20T09:17:25.602000+00:00</time>
      </trkpt>
      <trkpt lat="0" lon="0">
        <time>2020-12-20T09:17:25.604000+00:00</time>
      </trkpt>
      <trkpt lat="0" lon="0">
        <time>2020-12-20T09:17:25.607000+00:00</time>
      </trkpt>
      <trkpt lat="47.33327" lon="-1.25449">
        <ele>124</ele>
        <time>2020-12-20T09:17:26.614000+00:00</time>
      </trkpt>
      <trkpt lat="0" lon="0">
        <time>2020-12-20T09:17:26.625000+00:00</time>
      </trkpt>
      <trkpt lat="0" lon="0">
        <time>2020-12-20T09:17:26.631000+00:00</time>
      </trkpt>
      <trkpt lat="0" lon="0">
        <time>2020-12-20T09:17:26.633000+00:00</time>
      </trkpt>
      <trkpt lat="47.33325" lon="-1.25443">
        <ele>124</ele>
        <time>2020-12-20T09:17:27.593000+00:00</time>
      </trkpt>
      <trkpt lat="0" lon="0">
        <time>2020-12-20T09:17:27.603000+00:00</time>
      </trkpt>
      <trkpt lat="0" lon="0">
        <time>2020-12-20T09:17:27.607000+00:00</time>
      </trkpt>
      <trkpt lat="0" lon="0">
        <time>2020-12-20T09:17:27.609000+00:00</time>
      </trkpt>
      <trkpt lat="47.33323" lon="-1.25437">
        <ele>124</ele>
        <time>2020-12-20T09:17:28.581000+00:00</time>
      </trkpt>
      <trkpt lat="0" lon="0">
        <time>2020-12-20T09:17:28.596000+00:00</time>
      </trkpt>
      <trkpt lat="0" lon="0">
        <time>2020-12-20T09:17:28.598000+00:00</time>
      </trkpt>
      <trkpt lat="0" lon="0">
        <time>2020-12-20T09:17:28.600000+00:00</time>
      </trkpt>
      <trkpt lat="47.3332" lon="-1.25432">
        <ele>124</ele>
        <time>2020-12-20T09:17:29.610000+00:00</time>
      </trkpt>
      <trkpt lat="0" lon="0">
        <time>2020-12-20T09:17:29.621000+00:00</time>
      </trkpt>
      <trkpt lat="0" lon="0">
        <time>2020-12-20T09:17:29.625000+00:00</time>
      </trkpt>
      <trkpt lat="0" lon="0">
        <time>2020-12-20T09:17:29.627000+00:00</time>
      </trkpt>
      <trkpt lat="47.33318" lon="-1.25426">
        <ele>124</ele>
        <time>2020-12-20T09:17:30.615000+00:00</time>
      </trkpt>
      <trkpt lat="0" lon="0">
        <time>2020-12-20T09:17:30.630000+00:00</time>
      </trkpt>
      <trkpt lat="0" lon="0">
        <time>2020-12-20T09:17:30.639000+00:00</time>
      </trkpt>
      <trkpt lat="0" lon="0">
        <time>2020-12-20T09:17:30.644000+00:00</time>
      </trkpt>
      <trkpt lat="47.33315" lon="-1.25421">
        <ele>124</ele>
        <time>2020-12-20T09:17:31.594000+00:00</time>
      </trkpt>
      <trkpt lat="0" lon="0">
        <time>2020-12-20T09:17:31.603000+00:00</time>
      </trkpt>
      <trkpt lat="0" lon="0">
        <time>2020-12-20T09:17:31.607000+00:00</time>
      </trkpt>
      <trkpt lat="0" lon="0">
        <time>2020-12-20T09:17:31.610000+00:00</time>
      </trkpt>
      <trkpt lat="47.33313" lon="-1.25416">
        <ele>123</ele>
        <time>2020-12-20T09:17:32.611000+00:00</time>
      </trkpt>
      <trkpt lat="0" lon="0">
        <time>2020-12-20T09:17:32.630000+00:00</time>
      </trkpt>
      <trkpt lat="0" lon="0">
        <time>2020-12-20T09:17:32.633000+00:00</time>
      </trkpt>
      <trkpt lat="0" lon="0">
        <time>2020-12-20T09:17:32.634000+00:00</time>
      </trkpt>
      <trkpt lat="47.33311" lon="-1.2541">
        <ele>123</ele>
        <time>2020-12-20T09:17:33.595000+00:00</time>
      </trkpt>
      <trkpt lat="0" lon="0">
        <time>2020-12-20T09:17:33.601000+00:00</time>
      </trkpt>
      <trkpt lat="0" lon="0">
        <time>2020-12-20T09:17:33.605000+00:00</time>
      </trkpt>
      <trkpt lat="0" lon="0">
        <time>2020-12-20T09:17:33.609000+00:00</time>
      </trkpt>
      <trkpt lat="47.33308" lon="-1.25405">
        <ele>123</ele>
        <time>2020-12-20T09:17:34.619000+00:00</time>
      </trkpt>
      <trkpt lat="0" lon="0">
        <time>2020-12-20T09:17:34.624000+00:00</time>
      </trkpt>
      <trkpt lat="0" lon="0">
        <time>2020-12-20T09:17:34.633000+00:00</time>
      </trkpt>
      <trkpt lat="0" lon="0">
        <time>2020-12-20T09:17:34.636000+00:00</time>
      </trkpt>
      <trkpt lat="47.33306" lon="-1.254">
        <ele>122</ele>
        <time>2020-12-20T09:17:35.622000+00:00</time>
      </trkpt>
      <trkpt lat="0" lon="0">
        <time>2020-12-20T09:17:35.635000+00:00</time>
      </trkpt>
      <trkpt lat="0" lon="0">
        <time>2020-12-20T09:17:35.645000+00:00</time>
      </trkpt>
      <trkpt lat="0" lon="0">
        <time>2020-12-20T09:17:35.648000+00:00</time>
      </trkpt>
      <trkpt lat="47.33304" lon="-1.25395">
        <ele>122</ele>
        <time>2020-12-20T09:17:36.590000+00:00</time>
      </trkpt>
      <trkpt lat="0" lon="0">
        <time>2020-12-20T09:17:36.615000+00:00</time>
      </trkpt>
      <trkpt lat="0" lon="0">
        <time>2020-12-20T09:17:36.622000+00:00</time>
      </trkpt>
      <trkpt lat="0" lon="0">
        <time>2020-12-20T09:17:36.627000+00:00</time>
      </trkpt>
      <trkpt lat="47.33301" lon="-1.25389">
        <ele>122</ele>
        <time>2020-12-20T09:17:37.546000+00:00</time>
      </trkpt>
      <trkpt lat="0" lon="0">
        <time>2020-12-20T09:17:37.559000+00:00</time>
      </trkpt>
      <trkpt lat="0" lon="0">
        <time>2020-12-20T09:17:37.563000+00:00</time>
      </trkpt>
      <trkpt lat="0" lon="0">
        <time>2020-12-20T09:17:37.566000+00:00</time>
      </trkpt>
      <trkpt lat="47.33299" lon="-1.25384">
        <ele>122</ele>
        <time>2020-12-20T09:17:38.586000+00:00</time>
      </trkpt>
      <trkpt lat="0" lon="0">
        <time>2020-12-20T09:17:38.590000+00:00</time>
      </trkpt>
      <trkpt lat="0" lon="0">
        <time>2020-12-20T09:17:38.595000+00:00</time>
      </trkpt>
      <trkpt lat="0" lon="0">
        <time>2020-12-20T09:17:38.596000+00:00</time>
      </trkpt>
      <trkpt lat="47.33296" lon="-1.25378">
        <ele>123</ele>
        <time>2020-12-20T09:17:39.604000+00:00</time>
      </trkpt>
      <trkpt lat="0" lon="0">
        <time>2020-12-20T09:17:39.610000+00:00</time>
      </trkpt>
      <trkpt lat="0" lon="0">
        <time>2020-12-20T09:17:39.617000+00:00</time>
      </trkpt>
      <trkpt lat="0" lon="0">
        <time>2020-12-20T09:17:39.619000+00:00</time>
      </trkpt>
      <trkpt lat="47.33294" lon="-1.25373">
        <ele>122</ele>
        <time>2020-12-20T09:17:40.561000+00:00</time>
      </trkpt>
      <trkpt lat="0" lon="0">
        <time>2020-12-20T09:17:40.566000+00:00</time>
      </trkpt>
      <trkpt lat="0" lon="0">
        <time>2020-12-20T09:17:40.570000+00:00</time>
      </trkpt>
      <trkpt lat="0" lon="0">
        <time>2020-12-20T09:17:40.573000+00:00</time>
      </trkpt>
      <trkpt lat="47.33292" lon="-1.25369">
        <ele>123</ele>
        <time>2020-12-20T09:17:41.581000+00:00</time>
      </trkpt>
      <trkpt lat="0" lon="0">
        <time>2020-12-20T09:17:41.588000+00:00</time>
      </trkpt>
      <trkpt lat="0" lon="0">
        <time>2020-12-20T09:17:41.592000+00:00</time>
      </trkpt>
      <trkpt lat="0" lon="0">
        <time>2020-12-20T09:17:41.594000+00:00</time>
      </trkpt>
      <trkpt lat="47.3329" lon="-1.25366">
        <ele>123</ele>
        <time>2020-12-20T09:17:42.605000+00:00</time>
      </trkpt>
      <trkpt lat="0" lon="0">
        <time>2020-12-20T09:17:42.611000+00:00</time>
      </trkpt>
      <trkpt lat="0" lon="0">
        <time>2020-12-20T09:17:42.618000+00:00</time>
      </trkpt>
      <trkpt lat="0" lon="0">
        <time>2020-12-20T09:17:42.621000+00:00</time>
      </trkpt>
      <trkpt lat="47.33288" lon="-1.25364">
        <ele>123</ele>
        <time>2020-12-20T09:17:43.554000+00:00</time>
      </trkpt>
      <trkpt lat="0" lon="0">
        <time>2020-12-20T09:17:43.561000+00:00</time>
      </trkpt>
      <trkpt lat="0" lon="0">
        <time>2020-12-20T09:17:43.566000+00:00</time>
      </trkpt>
      <trkpt lat="0" lon="0">
        <time>2020-12-20T09:17:43.568000+00:00</time>
      </trkpt>
      <trkpt lat="47.33287" lon="-1.25362">
        <ele>123</ele>
        <time>2020-12-20T09:17:44.592000+00:00</time>
      </trkpt>
      <trkpt lat="0" lon="0">
        <time>2020-12-20T09:17:44.604000+00:00</time>
      </trkpt>
      <trkpt lat="0" lon="0">
        <time>2020-12-20T09:17:44.608000+00:00</time>
      </trkpt>
      <trkpt lat="0" lon="0">
        <time>2020-12-20T09:17:44.610000+00:00</time>
      </trkpt>
      <trkpt lat="47.33285" lon="-1.25362">
        <ele>123</ele>
        <time>2020-12-20T09:17:45.546000+00:00</time>
      </trkpt>
      <trkpt lat="0" lon="0">
        <time>2020-12-20T09:17:45.554000+00:00</time>
      </trkpt>
      <trkpt lat="0" lon="0">
        <time>2020-12-20T09:17:45.558000+00:00</time>
      </trkpt>
      <trkpt lat="0" lon="0">
        <time>2020-12-20T09:17:45.560000+00:00</time>
      </trkpt>
      <trkpt lat="47.33283" lon="-1.25362">
        <ele>123</ele>
        <time>2020-12-20T09:17:46.580000+00:00</time>
      </trkpt>
      <trkpt lat="0" lon="0">
        <time>2020-12-20T09:17:46.591000+00:00</time>
      </trkpt>
      <trkpt lat="0" lon="0">
        <time>2020-12-20T09:17:46.603000+00:00</time>
      </trkpt>
      <trkpt lat="0" lon="0">
        <time>2020-12-20T09:17:46.607000+00:00</time>
      </trkpt>
      <trkpt lat="47.33282" lon="-1.25363">
        <ele>123</ele>
        <time>2020-12-20T09:17:47.603000+00:00</time>
      </trkpt>
      <trkpt lat="0" lon="0">
        <time>2020-12-20T09:17:47.609000+00:00</time>
      </trkpt>
      <trkpt lat="0" lon="0">
        <time>2020-12-20T09:17:47.617000+00:00</time>
      </trkpt>
      <trkpt lat="0" lon="0">
        <time>2020-12-20T09:17:47.619000+00:00</time>
      </trkpt>
      <trkpt lat="47.3328" lon="-1.25365">
        <ele>123</ele>
        <time>2020-12-20T09:17:48.622000+00:00</time>
      </trkpt>
      <trkpt lat="0" lon="0">
        <time>2020-12-20T09:17:48.635000+00:00</time>
      </trkpt>
      <trkpt lat="0" lon="0">
        <time>2020-12-20T09:17:48.643000+00:00</time>
      </trkpt>
      <trkpt lat="0" lon="0">
        <time>2020-12-20T09:17:48.645000+00:00</time>
      </trkpt>
      <trkpt lat="47.33279" lon="-1.25367">
        <ele>123</ele>
        <time>2020-12-20T09:17:49.631000+00:00</time>
      </trkpt>
      <trkpt lat="0" lon="0">
        <time>2020-12-20T09:17:49.645000+00:00</time>
      </trkpt>
      <trkpt lat="0" lon="0">
        <time>2020-12-20T09:17:49.650000+00:00</time>
      </trkpt>
      <trkpt lat="0" lon="0">
        <time>2020-12-20T09:17:49.652000+00:00</time>
      </trkpt>
      <trkpt lat="47.33277" lon="-1.25369">
        <ele>123</ele>
        <time>2020-12-20T09:17:50.618000+00:00</time>
      </trkpt>
      <trkpt lat="0" lon="0">
        <time>2020-12-20T09:17:50.629000+00:00</time>
      </trkpt>
      <trkpt lat="0" lon="0">
        <time>2020-12-20T09:17:50.634000+00:00</time>
      </trkpt>
      <trkpt lat="0" lon="0">
        <time>2020-12-20T09:17:50.636000+00:00</time>
      </trkpt>
      <trkpt lat="47.33275" lon="-1.25372">
        <ele>123</ele>
        <time>2020-12-20T09:17:51.597000+00:00</time>
      </trkpt>
      <trkpt lat="0" lon="0">
        <time>2020-12-20T09:17:51.599000+00:00</time>
      </trkpt>
      <trkpt lat="0" lon="0">
        <time>2020-12-20T09:17:51.602000+00:00</time>
      </trkpt>
      <trkpt lat="0" lon="0">
        <time>2020-12-20T09:17:51.603000+00:00</time>
      </trkpt>
      <trkpt lat="47.33273" lon="-1.25374">
        <ele>123</ele>
        <time>2020-12-20T09:17:52.610000+00:00</time>
      </trkpt>
      <trkpt lat="0" lon="0">
        <time>2020-12-20T09:17:52.618000+00:00</time>
      </trkpt>
      <trkpt lat="0" lon="0">
        <time>2020-12-20T09:17:52.623000+00:00</time>
      </trkpt>
      <trkpt lat="0" lon="0">
        <time>2020-12-20T09:17:52.626000+00:00</time>
      </trkpt>
      <trkpt lat="47.3327" lon="-1.25377">
        <ele>123</ele>
        <time>2020-12-20T09:17:53.594000+00:00</time>
      </trkpt>
      <trkpt lat="0" lon="0">
        <time>2020-12-20T09:17:53.602000+00:00</time>
      </trkpt>
      <trkpt lat="0" lon="0">
        <time>2020-12-20T09:17:53.606000+00:00</time>
      </trkpt>
      <trkpt lat="0" lon="0">
        <time>2020-12-20T09:17:53.609000+00:00</time>
      </trkpt>
      <trkpt lat="47.33267" lon="-1.25381">
        <ele>122</ele>
        <time>2020-12-20T09:17:54.587000+00:00</time>
      </trkpt>
      <trkpt lat="0" lon="0">
        <time>2020-12-20T09:17:54.595000+00:00</time>
      </trkpt>
      <trkpt lat="0" lon="0">
        <time>2020-12-20T09:17:54.599000+00:00</time>
      </trkpt>
      <trkpt lat="0" lon="0">
        <time>2020-12-20T09:17:54.602000+00:00</time>
      </trkpt>
      <trkpt lat="47.33264" lon="-1.25384">
        <ele>122</ele>
        <time>2020-12-20T09:17:55.589000+00:00</time>
      </trkpt>
      <trkpt lat="0" lon="0">
        <time>2020-12-20T09:17:55.596000+00:00</time>
      </trkpt>
      <trkpt lat="0" lon="0">
        <time>2020-12-20T09:17:55.601000+00:00</time>
      </trkpt>
      <trkpt lat="0" lon="0">
        <time>2020-12-20T09:17:55.603000+00:00</time>
      </trkpt>
      <trkpt lat="47.33261" lon="-1.25387">
        <ele>122</ele>
        <time>2020-12-20T09:17:56.623000+00:00</time>
      </trkpt>
      <trkpt lat="0" lon="0">
        <time>2020-12-20T09:17:56.645000+00:00</time>
      </trkpt>
      <trkpt lat="0" lon="0">
        <time>2020-12-20T09:17:56.649000+00:00</time>
      </trkpt>
      <trkpt lat="0" lon="0">
        <time>2020-12-20T09:17:56.651000+00:00</time>
      </trkpt>
      <trkpt lat="47.33258" lon="-1.2539">
        <ele>122</ele>
        <time>2020-12-20T09:17:57.627000+00:00</time>
      </trkpt>
      <trkpt lat="0" lon="0">
        <time>2020-12-20T09:17:57.636000+00:00</time>
      </trkpt>
      <trkpt lat="0" lon="0">
        <time>2020-12-20T09:17:57.640000+00:00</time>
      </trkpt>
      <trkpt lat="0" lon="0">
        <time>2020-12-20T09:17:57.643000+00:00</time>
      </trkpt>
      <trkpt lat="47.33255" lon="-1.25392">
        <ele>123</ele>
        <time>2020-12-20T09:17:58.598000+00:00</time>
      </trkpt>
      <trkpt lat="0" lon="0">
        <time>2020-12-20T09:17:58.606000+00:00</time>
      </trkpt>
      <trkpt lat="0" lon="0">
        <time>2020-12-20T09:17:58.610000+00:00</time>
      </trkpt>
      <trkpt lat="0" lon="0">
        <time>2020-12-20T09:17:58.612000+00:00</time>
      </trkpt>
      <trkpt lat="47.33252" lon="-1.25394">
        <ele>123</ele>
        <time>2020-12-20T09:17:59.614000+00:00</time>
      </trkpt>
      <trkpt lat="0" lon="0">
        <time>2020-12-20T09:17:59.623000+00:00</time>
      </trkpt>
      <trkpt lat="0" lon="0">
        <time>2020-12-20T09:17:59.628000+00:00</time>
      </trkpt>
      <trkpt lat="0" lon="0">
        <time>2020-12-20T09:17:59.634000+00:00</time>
      </trkpt>
      <trkpt lat="47.33248" lon="-1.25394">
        <ele>123</ele>
        <time>2020-12-20T09:18:00.578000+00:00</time>
      </trkpt>
      <trkpt lat="0" lon="0">
        <time>2020-12-20T09:18:00.584000+00:00</time>
      </trkpt>
      <trkpt lat="0" lon="0">
        <time>2020-12-20T09:18:00.588000+00:00</time>
      </trkpt>
      <trkpt lat="0" lon="0">
        <time>2020-12-20T09:18:00.592000+00:00</time>
      </trkpt>
      <trkpt lat="47.33245" lon="-1.25393">
        <ele>123</ele>
        <time>2020-12-20T09:18:01.549000+00:00</time>
      </trkpt>
      <trkpt lat="0" lon="0">
        <time>2020-12-20T09:18:01.561000+00:00</time>
      </trkpt>
      <trkpt lat="0" lon="0">
        <time>2020-12-20T09:18:01.568000+00:00</time>
      </trkpt>
      <trkpt lat="0" lon="0">
        <time>2020-12-20T09:18:01.573000+00:00</time>
      </trkpt>
      <trkpt lat="47.33242" lon="-1.2539">
        <ele>122</ele>
        <time>2020-12-20T09:18:02.571000+00:00</time>
      </trkpt>
      <trkpt lat="0" lon="0">
        <time>2020-12-20T09:18:02.580000+00:00</time>
      </trkpt>
      <trkpt lat="0" lon="0">
        <time>2020-12-20T09:18:02.586000+00:00</time>
      </trkpt>
      <trkpt lat="0" lon="0">
        <time>2020-12-20T09:18:02.589000+00:00</time>
      </trkpt>
      <trkpt lat="47.33238" lon="-1.25386">
        <ele>122</ele>
        <time>2020-12-20T09:18:03.607000+00:00</time>
      </trkpt>
      <trkpt lat="0" lon="0">
        <time>2020-12-20T09:18:03.616000+00:00</time>
      </trkpt>
      <trkpt lat="0" lon="0">
        <time>2020-12-20T09:18:03.624000+00:00</time>
      </trkpt>
      <trkpt lat="0" lon="0">
        <time>2020-12-20T09:18:03.635000+00:00</time>
      </trkpt>
      <trkpt lat="47.33235" lon="-1.25381">
        <ele>123</ele>
        <time>2020-12-20T09:18:04.590000+00:00</time>
      </trkpt>
      <trkpt lat="0" lon="0">
        <time>2020-12-20T09:18:04.596000+00:00</time>
      </trkpt>
      <trkpt lat="0" lon="0">
        <time>2020-12-20T09:18:04.600000+00:00</time>
      </trkpt>
      <trkpt lat="0" lon="0">
        <time>2020-12-20T09:18:04.603000+00:00</time>
      </trkpt>
      <trkpt lat="47.33232" lon="-1.25375">
        <ele>124</ele>
        <time>2020-12-20T09:18:05.578000+00:00</time>
      </trkpt>
      <trkpt lat="0" lon="0">
        <time>2020-12-20T09:18:05.584000+00:00</time>
      </trkpt>
      <trkpt lat="0" lon="0">
        <time>2020-12-20T09:18:05.588000+00:00</time>
      </trkpt>
      <trkpt lat="0" lon="0">
        <time>2020-12-20T09:18:05.589000+00:00</time>
      </trkpt>
      <trkpt lat="47.3323" lon="-1.25369">
        <ele>124</ele>
        <time>2020-12-20T09:18:06.597000+00:00</time>
      </trkpt>
      <trkpt lat="0" lon="0">
        <time>2020-12-20T09:18:06.604000+00:00</time>
      </trkpt>
      <trkpt lat="0" lon="0">
        <time>2020-12-20T09:18:06.609000+00:00</time>
      </trkpt>
      <trkpt lat="0" lon="0">
        <time>2020-12-20T09:18:06.613000+00:00</time>
      </trkpt>
      <trkpt lat="47.33228" lon="-1.25361">
        <ele>124</ele>
        <time>2020-12-20T09:18:07.597000+00:00</time>
      </trkpt>
      <trkpt lat="0" lon="0">
        <time>2020-12-20T09:18:07.603000+00:00</time>
      </trkpt>
      <trkpt lat="0" lon="0">
        <time>2020-12-20T09:18:07.607000+00:00</time>
      </trkpt>
      <trkpt lat="0" lon="0">
        <time>2020-12-20T09:18:07.610000+00:00</time>
      </trkpt>
      <trkpt lat="47.33225" lon="-1.25354">
        <ele>125</ele>
        <time>2020-12-20T09:18:08.627000+00:00</time>
      </trkpt>
      <trkpt lat="0" lon="0">
        <time>2020-12-20T09:18:08.640000+00:00</time>
      </trkpt>
      <trkpt lat="0" lon="0">
        <time>2020-12-20T09:18:08.643000+00:00</time>
      </trkpt>
      <trkpt lat="0" lon="0">
        <time>2020-12-20T09:18:08.646000+00:00</time>
      </trkpt>
      <trkpt lat="47.33223" lon="-1.25346">
        <ele>125</ele>
        <time>2020-12-20T09:18:09.621000+00:00</time>
      </trkpt>
      <trkpt lat="0" lon="0">
        <time>2020-12-20T09:18:09.630000+00:00</time>
      </trkpt>
      <trkpt lat="0" lon="0">
        <time>2020-12-20T09:18:09.634000+00:00</time>
      </trkpt>
      <trkpt lat="0" lon="0">
        <time>2020-12-20T09:18:09.637000+00:00</time>
      </trkpt>
      <trkpt lat="47.33221" lon="-1.25337">
        <ele>125</ele>
        <time>2020-12-20T09:18:10.614000+00:00</time>
      </trkpt>
      <trkpt lat="0" lon="0">
        <time>2020-12-20T09:18:10.623000+00:00</time>
      </trkpt>
      <trkpt lat="0" lon="0">
        <time>2020-12-20T09:18:10.628000+00:00</time>
      </trkpt>
      <trkpt lat="0" lon="0">
        <time>2020-12-20T09:18:10.631000+00:00</time>
      </trkpt>
      <trkpt lat="47.33219" lon="-1.25329">
        <ele>125</ele>
        <time>2020-12-20T09:18:11.601000+00:00</time>
      </trkpt>
      <trkpt lat="0" lon="0">
        <time>2020-12-20T09:18:11.606000+00:00</time>
      </trkpt>
      <trkpt lat="0" lon="0">
        <time>2020-12-20T09:18:11.613000+00:00</time>
      </trkpt>
      <trkpt lat="0" lon="0">
        <time>2020-12-20T09:18:11.616000+00:00</time>
      </trkpt>
      <trkpt lat="47.33217" lon="-1.2532">
        <ele>126</ele>
        <time>2020-12-20T09:18:12.541000+00:00</time>
      </trkpt>
      <trkpt lat="0" lon="0">
        <time>2020-12-20T09:18:12.546000+00:00</time>
      </trkpt>
      <trkpt lat="0" lon="0">
        <time>2020-12-20T09:18:12.548000+00:00</time>
      </trkpt>
      <trkpt lat="0" lon="0">
        <time>2020-12-20T09:18:12.549000+00:00</time>
      </trkpt>
      <trkpt lat="47.33216" lon="-1.25311">
        <ele>126</ele>
        <time>2020-12-20T09:18:13.621000+00:00</time>
      </trkpt>
      <trkpt lat="0" lon="0">
        <time>2020-12-20T09:18:13.634000+00:00</time>
      </trkpt>
      <trkpt lat="0" lon="0">
        <time>2020-12-20T09:18:13.638000+00:00</time>
      </trkpt>
      <trkpt lat="0" lon="0">
        <time>2020-12-20T09:18:13.641000+00:00</time>
      </trkpt>
      <trkpt lat="47.33214" lon="-1.25303">
        <ele>126</ele>
        <time>2020-12-20T09:18:14.598000+00:00</time>
      </trkpt>
      <trkpt lat="0" lon="0">
        <time>2020-12-20T09:18:14.613000+00:00</time>
      </trkpt>
      <trkpt lat="0" lon="0">
        <time>2020-12-20T09:18:14.622000+00:00</time>
      </trkpt>
      <trkpt lat="0" lon="0">
        <time>2020-12-20T09:18:14.625000+00:00</time>
      </trkpt>
      <trkpt lat="47.33212" lon="-1.25294">
        <ele>126</ele>
        <time>2020-12-20T09:18:15.608000+00:00</time>
      </trkpt>
      <trkpt lat="0" lon="0">
        <time>2020-12-20T09:18:15.614000+00:00</time>
      </trkpt>
      <trkpt lat="0" lon="0">
        <time>2020-12-20T09:18:15.623000+00:00</time>
      </trkpt>
      <trkpt lat="0" lon="0">
        <time>2020-12-20T09:18:15.627000+00:00</time>
      </trkpt>
      <trkpt lat="47.33211" lon="-1.25285">
        <ele>126</ele>
        <time>2020-12-20T09:18:16.587000+00:00</time>
      </trkpt>
      <trkpt lat="0" lon="0">
        <time>2020-12-20T09:18:16.600000+00:00</time>
      </trkpt>
      <trkpt lat="0" lon="0">
        <time>2020-12-20T09:18:16.605000+00:00</time>
      </trkpt>
      <trkpt lat="0" lon="0">
        <time>2020-12-20T09:18:16.607000+00:00</time>
      </trkpt>
      <trkpt lat="47.33209" lon="-1.25276">
        <ele>126</ele>
        <time>2020-12-20T09:18:17.612000+00:00</time>
      </trkpt>
      <trkpt lat="0" lon="0">
        <time>2020-12-20T09:18:17.618000+00:00</time>
      </trkpt>
      <trkpt lat="0" lon="0">
        <time>2020-12-20T09:18:17.626000+00:00</time>
      </trkpt>
      <trkpt lat="0" lon="0">
        <time>2020-12-20T09:18:17.629000+00:00</time>
      </trkpt>
      <trkpt lat="47.33207" lon="-1.25267">
        <ele>127</ele>
        <time>2020-12-20T09:18:18.576000+00:00</time>
      </trkpt>
      <trkpt lat="0" lon="0">
        <time>2020-12-20T09:18:18.591000+00:00</time>
      </trkpt>
      <trkpt lat="0" lon="0">
        <time>2020-12-20T09:18:18.596000+00:00</time>
      </trkpt>
      <trkpt lat="0" lon="0">
        <time>2020-12-20T09:18:18.598000+00:00</time>
      </trkpt>
      <trkpt lat="47.33205" lon="-1.25259">
        <ele>127</ele>
        <time>2020-12-20T09:18:19.614000+00:00</time>
      </trkpt>
      <trkpt lat="0" lon="0">
        <time>2020-12-20T09:18:19.623000+00:00</time>
      </trkpt>
      <trkpt lat="0" lon="0">
        <time>2020-12-20T09:18:19.640000+00:00</time>
      </trkpt>
      <trkpt lat="0" lon="0">
        <time>2020-12-20T09:18:19.642000+00:00</time>
      </trkpt>
      <trkpt lat="47.33203" lon="-1.2525">
        <ele>127</ele>
        <time>2020-12-20T09:18:20.614000+00:00</time>
      </trkpt>
      <trkpt lat="0" lon="0">
        <time>2020-12-20T09:18:20.633000+00:00</time>
      </trkpt>
      <trkpt lat="0" lon="0">
        <time>2020-12-20T09:18:20.638000+00:00</time>
      </trkpt>
      <trkpt lat="0" lon="0">
        <time>2020-12-20T09:18:20.641000+00:00</time>
      </trkpt>
      <trkpt lat="47.33201" lon="-1.25242">
        <ele>126</ele>
        <time>2020-12-20T09:18:21.591000+00:00</time>
      </trkpt>
      <trkpt lat="0" lon="0">
        <time>2020-12-20T09:18:21.605000+00:00</time>
      </trkpt>
      <trkpt lat="0" lon="0">
        <time>2020-12-20T09:18:21.614000+00:00</time>
      </trkpt>
      <trkpt lat="0" lon="0">
        <time>2020-12-20T09:18:21.616000+00:00</time>
      </trkpt>
      <trkpt lat="47.332" lon="-1.25234">
        <ele>127</ele>
        <time>2020-12-20T09:18:22.629000+00:00</time>
      </trkpt>
      <trkpt lat="0" lon="0">
        <time>2020-12-20T09:18:22.642000+00:00</time>
      </trkpt>
      <trkpt lat="0" lon="0">
        <time>2020-12-20T09:18:22.649000+00:00</time>
      </trkpt>
      <trkpt lat="0" lon="0">
        <time>2020-12-20T09:18:22.653000+00:00</time>
      </trkpt>
      <trkpt lat="47.33198" lon="-1.25227">
        <ele>127</ele>
        <time>2020-12-20T09:18:23.616000+00:00</time>
      </trkpt>
      <trkpt lat="0" lon="0">
        <time>2020-12-20T09:18:23.636000+00:00</time>
      </trkpt>
      <trkpt lat="0" lon="0">
        <time>2020-12-20T09:18:23.641000+00:00</time>
      </trkpt>
      <trkpt lat="0" lon="0">
        <time>2020-12-20T09:18:23.644000+00:00</time>
      </trkpt>
      <trkpt lat="47.33196" lon="-1.25219">
        <ele>127</ele>
        <time>2020-12-20T09:18:24.621000+00:00</time>
      </trkpt>
      <trkpt lat="0" lon="0">
        <time>2020-12-20T09:18:24.634000+00:00</time>
      </trkpt>
      <trkpt lat="0" lon="0">
        <time>2020-12-20T09:18:24.640000+00:00</time>
      </trkpt>
      <trkpt lat="0" lon="0">
        <time>2020-12-20T09:18:24.642000+00:00</time>
      </trkpt>
      <trkpt lat="47.33194" lon="-1.25211">
        <ele>127</ele>
        <time>2020-12-20T09:18:25.617000+00:00</time>
      </trkpt>
      <trkpt lat="0" lon="0">
        <time>2020-12-20T09:18:25.640000+00:00</time>
      </trkpt>
      <trkpt lat="0" lon="0">
        <time>2020-12-20T09:18:25.649000+00:00</time>
      </trkpt>
      <trkpt lat="0" lon="0">
        <time>2020-12-20T09:18:25.650000+00:00</time>
      </trkpt>
      <trkpt lat="47.33192" lon="-1.25204">
        <ele>127</ele>
        <time>2020-12-20T09:18:26.616000+00:00</time>
      </trkpt>
      <trkpt lat="0" lon="0">
        <time>2020-12-20T09:18:26.625000+00:00</time>
      </trkpt>
      <trkpt lat="0" lon="0">
        <time>2020-12-20T09:18:26.630000+00:00</time>
      </trkpt>
      <trkpt lat="0" lon="0">
        <time>2020-12-20T09:18:26.632000+00:00</time>
      </trkpt>
      <trkpt lat="47.3319" lon="-1.25196">
        <ele>127</ele>
        <time>2020-12-20T09:18:27.593000+00:00</time>
      </trkpt>
      <trkpt lat="0" lon="0">
        <time>2020-12-20T09:18:27.606000+00:00</time>
      </trkpt>
      <trkpt lat="0" lon="0">
        <time>2020-12-20T09:18:27.608000+00:00</time>
      </trkpt>
      <trkpt lat="0" lon="0">
        <time>2020-12-20T09:18:27.609000+00:00</time>
      </trkpt>
      <trkpt lat="47.33188" lon="-1.25189">
        <ele>127</ele>
        <time>2020-12-20T09:18:28.590000+00:00</time>
      </trkpt>
      <trkpt lat="0" lon="0">
        <time>2020-12-20T09:18:28.601000+00:00</time>
      </trkpt>
      <trkpt lat="0" lon="0">
        <time>2020-12-20T09:18:28.607000+00:00</time>
      </trkpt>
      <trkpt lat="0" lon="0">
        <time>2020-12-20T09:18:28.609000+00:00</time>
      </trkpt>
      <trkpt lat="47.33186" lon="-1.25182">
        <ele>128</ele>
        <time>2020-12-20T09:18:29.603000+00:00</time>
      </trkpt>
      <trkpt lat="0" lon="0">
        <time>2020-12-20T09:18:29.618000+00:00</time>
      </trkpt>
      <trkpt lat="0" lon="0">
        <time>2020-12-20T09:18:29.623000+00:00</time>
      </trkpt>
      <trkpt lat="0" lon="0">
        <time>2020-12-20T09:18:29.628000+00:00</time>
      </trkpt>
      <trkpt lat="47.33184" lon="-1.25175">
        <ele>128</ele>
        <time>2020-12-20T09:18:30.581000+00:00</time>
      </trkpt>
      <trkpt lat="0" lon="0">
        <time>2020-12-20T09:18:30.586000+00:00</time>
      </trkpt>
      <trkpt lat="0" lon="0">
        <time>2020-12-20T09:18:30.589000+00:00</time>
      </trkpt>
      <trkpt lat="0" lon="0">
        <time>2020-12-20T09:18:30.592000+00:00</time>
      </trkpt>
      <trkpt lat="47.33182" lon="-1.25168">
        <ele>128</ele>
        <time>2020-12-20T09:18:31.559000+00:00</time>
      </trkpt>
      <trkpt lat="0" lon="0">
        <time>2020-12-20T09:18:31.573000+00:00</time>
      </trkpt>
      <trkpt lat="0" lon="0">
        <time>2020-12-20T09:18:31.578000+00:00</time>
      </trkpt>
      <trkpt lat="0" lon="0">
        <time>2020-12-20T09:18:31.580000+00:00</time>
      </trkpt>
      <trkpt lat="47.3318" lon="-1.25161">
        <ele>128</ele>
        <time>2020-12-20T09:18:32.583000+00:00</time>
      </trkpt>
      <trkpt lat="0" lon="0">
        <time>2020-12-20T09:18:32.599000+00:00</time>
      </trkpt>
      <trkpt lat="0" lon="0">
        <time>2020-12-20T09:18:32.611000+00:00</time>
      </trkpt>
      <trkpt lat="0" lon="0">
        <time>2020-12-20T09:18:32.622000+00:00</time>
      </trkpt>
      <trkpt lat="47.33177" lon="-1.25154">
        <ele>127</ele>
        <time>2020-12-20T09:18:33.574000+00:00</time>
      </trkpt>
      <trkpt lat="0" lon="0">
        <time>2020-12-20T09:18:33.582000+00:00</time>
      </trkpt>
      <trkpt lat="0" lon="0">
        <time>2020-12-20T09:18:33.587000+00:00</time>
      </trkpt>
      <trkpt lat="0" lon="0">
        <time>2020-12-20T09:18:33.590000+00:00</time>
      </trkpt>
      <trkpt lat="47.33175" lon="-1.25146">
        <ele>127</ele>
        <time>2020-12-20T09:18:34.586000+00:00</time>
      </trkpt>
      <trkpt lat="0" lon="0">
        <time>2020-12-20T09:18:34.608000+00:00</time>
      </trkpt>
      <trkpt lat="0" lon="0">
        <time>2020-12-20T09:18:34.612000+00:00</time>
      </trkpt>
      <trkpt lat="0" lon="0">
        <time>2020-12-20T09:18:34.617000+00:00</time>
      </trkpt>
      <trkpt lat="47.33173" lon="-1.25139">
        <ele>128</ele>
        <time>2020-12-20T09:18:35.594000+00:00</time>
      </trkpt>
      <trkpt lat="0" lon="0">
        <time>2020-12-20T09:18:35.603000+00:00</time>
      </trkpt>
      <trkpt lat="0" lon="0">
        <time>2020-12-20T09:18:35.607000+00:00</time>
      </trkpt>
      <trkpt lat="0" lon="0">
        <time>2020-12-20T09:18:35.609000+00:00</time>
      </trkpt>
      <trkpt lat="47.33171" lon="-1.25131">
        <ele>127</ele>
        <time>2020-12-20T09:18:36.576000+00:00</time>
      </trkpt>
      <trkpt lat="0" lon="0">
        <time>2020-12-20T09:18:36.586000+00:00</time>
      </trkpt>
      <trkpt lat="0" lon="0">
        <time>2020-12-20T09:18:36.600000+00:00</time>
      </trkpt>
      <trkpt lat="0" lon="0">
        <time>2020-12-20T09:18:36.603000+00:00</time>
      </trkpt>
      <trkpt lat="47.33169" lon="-1.25123">
        <ele>127</ele>
        <time>2020-12-20T09:18:37.594000+00:00</time>
      </trkpt>
      <trkpt lat="0" lon="0">
        <time>2020-12-20T09:18:37.600000+00:00</time>
      </trkpt>
      <trkpt lat="0" lon="0">
        <time>2020-12-20T09:18:37.606000+00:00</time>
      </trkpt>
      <trkpt lat="0" lon="0">
        <time>2020-12-20T09:18:37.610000+00:00</time>
      </trkpt>
      <trkpt lat="47.33167" lon="-1.25116">
        <ele>127</ele>
        <time>2020-12-20T09:18:38.592000+00:00</time>
      </trkpt>
      <trkpt lat="0" lon="0">
        <time>2020-12-20T09:18:38.599000+00:00</time>
      </trkpt>
      <trkpt lat="0" lon="0">
        <time>2020-12-20T09:18:38.604000+00:00</time>
      </trkpt>
      <trkpt lat="0" lon="0">
        <time>2020-12-20T09:18:38.609000+00:00</time>
      </trkpt>
      <trkpt lat="47.33165" lon="-1.25108">
        <ele>126</ele>
        <time>2020-12-20T09:18:39.565000+00:00</time>
      </trkpt>
      <trkpt lat="0" lon="0">
        <time>2020-12-20T09:18:39.576000+00:00</time>
      </trkpt>
      <trkpt lat="0" lon="0">
        <time>2020-12-20T09:18:39.586000+00:00</time>
      </trkpt>
      <trkpt lat="0" lon="0">
        <time>2020-12-20T09:18:39.588000+00:00</time>
      </trkpt>
      <trkpt lat="47.33163" lon="-1.25099">
        <ele>125</ele>
        <time>2020-12-20T09:18:40.522000+00:00</time>
      </trkpt>
      <trkpt lat="0" lon="0">
        <time>2020-12-20T09:18:40.529000+00:00</time>
      </trkpt>
      <trkpt lat="0" lon="0">
        <time>2020-12-20T09:18:40.532000+00:00</time>
      </trkpt>
      <trkpt lat="0" lon="0">
        <time>2020-12-20T09:18:40.534000+00:00</time>
      </trkpt>
      <trkpt lat="47.33161" lon="-1.25091">
        <ele>126</ele>
        <time>2020-12-20T09:18:41.592000+00:00</time>
      </trkpt>
      <trkpt lat="0" lon="0">
        <time>2020-12-20T09:18:41.598000+00:00</time>
      </trkpt>
      <trkpt lat="0" lon="0">
        <time>2020-12-20T09:18:41.602000+00:00</time>
      </trkpt>
      <trkpt lat="0" lon="0">
        <time>2020-12-20T09:18:41.605000+00:00</time>
      </trkpt>
      <trkpt lat="47.3316" lon="-1.25083">
        <ele>125</ele>
        <time>2020-12-20T09:18:42.601000+00:00</time>
      </trkpt>
      <trkpt lat="0" lon="0">
        <time>2020-12-20T09:18:42.607000+00:00</time>
      </trkpt>
      <trkpt lat="0" lon="0">
        <time>2020-12-20T09:18:42.612000+00:00</time>
      </trkpt>
      <trkpt lat="0" lon="0">
        <time>2020-12-20T09:18:42.614000+00:00</time>
      </trkpt>
      <trkpt lat="47.33158" lon="-1.25075">
        <ele>125</ele>
        <time>2020-12-20T09:18:43.531000+00:00</time>
      </trkpt>
      <trkpt lat="0" lon="0">
        <time>2020-12-20T09:18:43.544000+00:00</time>
      </trkpt>
      <trkpt lat="0" lon="0">
        <time>2020-12-20T09:18:43.545000+00:00</time>
      </trkpt>
      <trkpt lat="0" lon="0">
        <time>2020-12-20T09:18:43.546000+00:00</time>
      </trkpt>
      <trkpt lat="47.33155" lon="-1.25066">
        <ele>124</ele>
        <time>2020-12-20T09:18:44.574000+00:00</time>
      </trkpt>
      <trkpt lat="0" lon="0">
        <time>2020-12-20T09:18:44.578000+00:00</time>
      </trkpt>
      <trkpt lat="0" lon="0">
        <time>2020-12-20T09:18:44.587000+00:00</time>
      </trkpt>
      <trkpt lat="0" lon="0">
        <time>2020-12-20T09:18:44.589000+00:00</time>
      </trkpt>
      <trkpt lat="47.33153" lon="-1.25058">
        <ele>124</ele>
        <time>2020-12-20T09:18:45.554000+00:00</time>
      </trkpt>
      <trkpt lat="0" lon="0">
        <time>2020-12-20T09:18:45.565000+00:00</time>
      </trkpt>
      <trkpt lat="0" lon="0">
        <time>2020-12-20T09:18:45.573000+00:00</time>
      </trkpt>
      <trkpt lat="0" lon="0">
        <time>2020-12-20T09:18:45.574000+00:00</time>
      </trkpt>
      <trkpt lat="47.33151" lon="-1.2505">
        <ele>124</ele>
        <time>2020-12-20T09:18:46.567000+00:00</time>
      </trkpt>
      <trkpt lat="0" lon="0">
        <time>2020-12-20T09:18:46.576000+00:00</time>
      </trkpt>
      <trkpt lat="0" lon="0">
        <time>2020-12-20T09:18:46.580000+00:00</time>
      </trkpt>
      <trkpt lat="0" lon="0">
        <time>2020-12-20T09:18:46.587000+00:00</time>
      </trkpt>
      <trkpt lat="47.33149" lon="-1.25042">
        <ele>123</ele>
        <time>2020-12-20T09:18:47.600000+00:00</time>
      </trkpt>
      <trkpt lat="0" lon="0">
        <time>2020-12-20T09:18:47.626000+00:00</time>
      </trkpt>
      <trkpt lat="0" lon="0">
        <time>2020-12-20T09:18:47.631000+00:00</time>
      </trkpt>
      <trkpt lat="0" lon="0">
        <time>2020-12-20T09:18:47.634000+00:00</time>
      </trkpt>
      <trkpt lat="47.33147" lon="-1.25034">
        <ele>124</ele>
        <time>2020-12-20T09:18:48.620000+00:00</time>
      </trkpt>
      <trkpt lat="0" lon="0">
        <time>2020-12-20T09:18:48.634000+00:00</time>
      </trkpt>
      <trkpt lat="0" lon="0">
        <time>2020-12-20T09:18:48.643000+00:00</time>
      </trkpt>
      <trkpt lat="0" lon="0">
        <time>2020-12-20T09:18:48.650000+00:00</time>
      </trkpt>
      <trkpt lat="47.33145" lon="-1.25027">
        <ele>124</ele>
        <time>2020-12-20T09:18:49.549000+00:00</time>
      </trkpt>
      <trkpt lat="0" lon="0">
        <time>2020-12-20T09:18:49.553000+00:00</time>
      </trkpt>
      <trkpt lat="0" lon="0">
        <time>2020-12-20T09:18:49.560000+00:00</time>
      </trkpt>
      <trkpt lat="0" lon="0">
        <time>2020-12-20T09:18:49.562000+00:00</time>
      </trkpt>
      <trkpt lat="47.33143" lon="-1.2502">
        <ele>124</ele>
        <time>2020-12-20T09:18:50.595000+00:00</time>
      </trkpt>
      <trkpt lat="0" lon="0">
        <time>2020-12-20T09:18:50.620000+00:00</time>
      </trkpt>
      <trkpt lat="0" lon="0">
        <time>2020-12-20T09:18:50.627000+00:00</time>
      </trkpt>
      <trkpt lat="0" lon="0">
        <time>2020-12-20T09:18:50.632000+00:00</time>
      </trkpt>
      <trkpt lat="47.33141" lon="-1.25013">
        <ele>124</ele>
        <time>2020-12-20T09:18:51.573000+00:00</time>
      </trkpt>
      <trkpt lat="0" lon="0">
        <time>2020-12-20T09:18:51.578000+00:00</time>
      </trkpt>
      <trkpt lat="0" lon="0">
        <time>2020-12-20T09:18:51.584000+00:00</time>
      </trkpt>
      <trkpt lat="0" lon="0">
        <time>2020-12-20T09:18:51.588000+00:00</time>
      </trkpt>
      <trkpt lat="47.3314" lon="-1.25006">
        <ele>123</ele>
        <time>2020-12-20T09:18:52.598000+00:00</time>
      </trkpt>
      <trkpt lat="0" lon="0">
        <time>2020-12-20T09:18:52.606000+00:00</time>
      </trkpt>
      <trkpt lat="0" lon="0">
        <time>2020-12-20T09:18:52.610000+00:00</time>
      </trkpt>
      <trkpt lat="0" lon="0">
        <time>2020-12-20T09:18:52.613000+00:00</time>
      </trkpt>
      <trkpt lat="47.33138" lon="-1.25">
        <ele>123</ele>
        <time>2020-12-20T09:18:53.584000+00:00</time>
      </trkpt>
      <trkpt lat="0" lon="0">
        <time>2020-12-20T09:18:53.612000+00:00</time>
      </trkpt>
      <trkpt lat="0" lon="0">
        <time>2020-12-20T09:18:53.621000+00:00</time>
      </trkpt>
      <trkpt lat="0" lon="0">
        <time>2020-12-20T09:18:53.622000+00:00</time>
      </trkpt>
      <trkpt lat="47.33136" lon="-1.24993">
        <ele>123</ele>
        <time>2020-12-20T09:18:54.594000+00:00</time>
      </trkpt>
      <trkpt lat="0" lon="0">
        <time>2020-12-20T09:18:54.608000+00:00</time>
      </trkpt>
      <trkpt lat="0" lon="0">
        <time>2020-12-20T09:18:54.612000+00:00</time>
      </trkpt>
      <trkpt lat="0" lon="0">
        <time>2020-12-20T09:18:54.614000+00:00</time>
      </trkpt>
      <trkpt lat="47.33135" lon="-1.24987">
        <ele>123</ele>
        <time>2020-12-20T09:18:55.561000+00:00</time>
      </trkpt>
      <trkpt lat="0" lon="0">
        <time>2020-12-20T09:18:55.566000+00:00</time>
      </trkpt>
      <trkpt lat="0" lon="0">
        <time>2020-12-20T09:18:55.575000+00:00</time>
      </trkpt>
      <trkpt lat="0" lon="0">
        <time>2020-12-20T09:18:55.577000+00:00</time>
      </trkpt>
      <trkpt lat="47.33133" lon="-1.24982">
        <ele>123</ele>
        <time>2020-12-20T09:18:56.623000+00:00</time>
      </trkpt>
      <trkpt lat="0" lon="0">
        <time>2020-12-20T09:18:56.641000+00:00</time>
      </trkpt>
      <trkpt lat="0" lon="0">
        <time>2020-12-20T09:18:56.645000+00:00</time>
      </trkpt>
      <trkpt lat="0" lon="0">
        <time>2020-12-20T09:18:56.651000+00:00</time>
      </trkpt>
      <trkpt lat="47.33131" lon="-1.24977">
        <ele>123</ele>
        <time>2020-12-20T09:18:57.613000+00:00</time>
      </trkpt>
      <trkpt lat="0" lon="0">
        <time>2020-12-20T09:18:57.618000+00:00</time>
      </trkpt>
      <trkpt lat="0" lon="0">
        <time>2020-12-20T09:18:57.626000+00:00</time>
      </trkpt>
      <trkpt lat="0" lon="0">
        <time>2020-12-20T09:18:57.629000+00:00</time>
      </trkpt>
      <trkpt lat="47.33131" lon="-1.24972">
        <ele>123</ele>
        <time>2020-12-20T09:18:58.582000+00:00</time>
      </trkpt>
      <trkpt lat="0" lon="0">
        <time>2020-12-20T09:18:58.590000+00:00</time>
      </trkpt>
      <trkpt lat="0" lon="0">
        <time>2020-12-20T09:18:58.600000+00:00</time>
      </trkpt>
      <trkpt lat="0" lon="0">
        <time>2020-12-20T09:18:58.602000+00:00</time>
      </trkpt>
      <trkpt lat="47.33131" lon="-1.24967">
        <ele>123</ele>
        <time>2020-12-20T09:18:59.553000+00:00</time>
      </trkpt>
      <trkpt lat="0" lon="0">
        <time>2020-12-20T09:18:59.562000+00:00</time>
      </trkpt>
      <trkpt lat="0" lon="0">
        <time>2020-12-20T09:18:59.566000+00:00</time>
      </trkpt>
      <trkpt lat="0" lon="0">
        <time>2020-12-20T09:18:59.569000+00:00</time>
      </trkpt>
      <trkpt lat="47.33132" lon="-1.24963">
        <ele>123</ele>
        <time>2020-12-20T09:19:00.535000+00:00</time>
      </trkpt>
      <trkpt lat="0" lon="0">
        <time>2020-12-20T09:19:00.538000+00:00</time>
      </trkpt>
      <trkpt lat="0" lon="0">
        <time>2020-12-20T09:19:00.539000+00:00</time>
      </trkpt>
      <trkpt lat="0" lon="0">
        <time>2020-12-20T09:19:00.540000+00:00</time>
      </trkpt>
      <trkpt lat="47.33133" lon="-1.24959">
        <ele>123</ele>
        <time>2020-12-20T09:19:01.591000+00:00</time>
      </trkpt>
      <trkpt lat="0" lon="0">
        <time>2020-12-20T09:19:01.607000+00:00</time>
      </trkpt>
      <trkpt lat="0" lon="0">
        <time>2020-12-20T09:19:01.616000+00:00</time>
      </trkpt>
      <trkpt lat="0" lon="0">
        <time>2020-12-20T09:19:01.622000+00:00</time>
      </trkpt>
      <trkpt lat="47.33135" lon="-1.24954">
        <ele>123</ele>
        <time>2020-12-20T09:19:02.592000+00:00</time>
      </trkpt>
      <trkpt lat="0" lon="0">
        <time>2020-12-20T09:19:02.595000+00:00</time>
      </trkpt>
      <trkpt lat="0" lon="0">
        <time>2020-12-20T09:19:02.602000+00:00</time>
      </trkpt>
      <trkpt lat="0" lon="0">
        <time>2020-12-20T09:19:02.605000+00:00</time>
      </trkpt>
      <trkpt lat="47.33137" lon="-1.2495">
        <ele>124</ele>
        <time>2020-12-20T09:19:03.620000+00:00</time>
      </trkpt>
      <trkpt lat="0" lon="0">
        <time>2020-12-20T09:19:03.633000+00:00</time>
      </trkpt>
      <trkpt lat="0" lon="0">
        <time>2020-12-20T09:19:03.642000+00:00</time>
      </trkpt>
      <trkpt lat="0" lon="0">
        <time>2020-12-20T09:19:03.651000+00:00</time>
      </trkpt>
      <trkpt lat="47.3314" lon="-1.24946">
        <ele>124</ele>
        <time>2020-12-20T09:19:04.600000+00:00</time>
      </trkpt>
      <trkpt lat="0" lon="0">
        <time>2020-12-20T09:19:04.613000+00:00</time>
      </trkpt>
      <trkpt lat="0" lon="0">
        <time>2020-12-20T09:19:04.620000+00:00</time>
      </trkpt>
      <trkpt lat="0" lon="0">
        <time>2020-12-20T09:19:04.627000+00:00</time>
      </trkpt>
      <trkpt lat="47.33144" lon="-1.24943">
        <ele>125</ele>
        <time>2020-12-20T09:19:05.615000+00:00</time>
      </trkpt>
      <trkpt lat="0" lon="0">
        <time>2020-12-20T09:19:05.629000+00:00</time>
      </trkpt>
      <trkpt lat="0" lon="0">
        <time>2020-12-20T09:19:05.640000+00:00</time>
      </trkpt>
      <trkpt lat="0" lon="0">
        <time>2020-12-20T09:19:05.641000+00:00</time>
      </trkpt>
      <trkpt lat="47.33148" lon="-1.2494">
        <ele>125</ele>
        <time>2020-12-20T09:19:06.559000+00:00</time>
      </trkpt>
      <trkpt lat="0" lon="0">
        <time>2020-12-20T09:19:06.581000+00:00</time>
      </trkpt>
      <trkpt lat="0" lon="0">
        <time>2020-12-20T09:19:06.587000+00:00</time>
      </trkpt>
      <trkpt lat="0" lon="0">
        <time>2020-12-20T09:19:06.593000+00:00</time>
      </trkpt>
      <trkpt lat="47.33153" lon="-1.24938">
        <ele>125</ele>
        <time>2020-12-20T09:19:07.623000+00:00</time>
      </trkpt>
      <trkpt lat="0" lon="0">
        <time>2020-12-20T09:19:07.647000+00:00</time>
      </trkpt>
      <trkpt lat="0" lon="0">
        <time>2020-12-20T09:19:07.656000+00:00</time>
      </trkpt>
      <trkpt lat="0" lon="0">
        <time>2020-12-20T09:19:07.657000+00:00</time>
      </trkpt>
      <trkpt lat="47.33158" lon="-1.24937">
        <ele>125</ele>
        <time>2020-12-20T09:19:08.625000+00:00</time>
      </trkpt>
      <trkpt lat="0" lon="0">
        <time>2020-12-20T09:19:08.640000+00:00</time>
      </trkpt>
      <trkpt lat="0" lon="0">
        <time>2020-12-20T09:19:08.644000+00:00</time>
      </trkpt>
      <trkpt lat="0" lon="0">
        <time>2020-12-20T09:19:08.647000+00:00</time>
      </trkpt>
      <trkpt lat="47.33164" lon="-1.24936">
        <ele>124</ele>
        <time>2020-12-20T09:19:09.597000+00:00</time>
      </trkpt>
      <trkpt lat="0" lon="0">
        <time>2020-12-20T09:19:09.609000+00:00</time>
      </trkpt>
      <trkpt lat="0" lon="0">
        <time>2020-12-20T09:19:09.614000+00:00</time>
      </trkpt>
      <trkpt lat="0" lon="0">
        <time>2020-12-20T09:19:09.621000+00:00</time>
      </trkpt>
      <trkpt lat="47.3317" lon="-1.24936">
        <ele>123</ele>
        <time>2020-12-20T09:19:10.609000+00:00</time>
      </trkpt>
      <trkpt lat="0" lon="0">
        <time>2020-12-20T09:19:10.617000+00:00</time>
      </trkpt>
      <trkpt lat="0" lon="0">
        <time>2020-12-20T09:19:10.621000+00:00</time>
      </trkpt>
      <trkpt lat="0" lon="0">
        <time>2020-12-20T09:19:10.624000+00:00</time>
      </trkpt>
      <trkpt lat="47.33176" lon="-1.24937">
        <ele>123</ele>
        <time>2020-12-20T09:19:11.634000+00:00</time>
      </trkpt>
      <trkpt lat="0" lon="0">
        <time>2020-12-20T09:19:11.638000+00:00</time>
      </trkpt>
      <trkpt lat="0" lon="0">
        <time>2020-12-20T09:19:11.643000+00:00</time>
      </trkpt>
      <trkpt lat="0" lon="0">
        <time>2020-12-20T09:19:11.646000+00:00</time>
      </trkpt>
      <trkpt lat="47.33182" lon="-1.24939">
        <ele>123</ele>
        <time>2020-12-20T09:19:12.569000+00:00</time>
      </trkpt>
      <trkpt lat="0" lon="0">
        <time>2020-12-20T09:19:12.573000+00:00</time>
      </trkpt>
      <trkpt lat="0" lon="0">
        <time>2020-12-20T09:19:12.580000+00:00</time>
      </trkpt>
      <trkpt lat="0" lon="0">
        <time>2020-12-20T09:19:12.584000+00:00</time>
      </trkpt>
      <trkpt lat="47.33188" lon="-1.24941">
        <ele>123</ele>
        <time>2020-12-20T09:19:13.601000+00:00</time>
      </trkpt>
      <trkpt lat="0" lon="0">
        <time>2020-12-20T09:19:13.616000+00:00</time>
      </trkpt>
      <trkpt lat="0" lon="0">
        <time>2020-12-20T09:19:13.620000+00:00</time>
      </trkpt>
      <trkpt lat="0" lon="0">
        <time>2020-12-20T09:19:13.623000+00:00</time>
      </trkpt>
      <trkpt lat="47.33195" lon="-1.24944">
        <ele>122</ele>
        <time>2020-12-20T09:19:14.616000+00:00</time>
      </trkpt>
      <trkpt lat="0" lon="0">
        <time>2020-12-20T09:19:14.628000+00:00</time>
      </trkpt>
      <trkpt lat="0" lon="0">
        <time>2020-12-20T09:19:14.641000+00:00</time>
      </trkpt>
      <trkpt lat="0" lon="0">
        <time>2020-12-20T09:19:14.643000+00:00</time>
      </trkpt>
      <trkpt lat="47.33201" lon="-1.24947">
        <ele>122</ele>
        <time>2020-12-20T09:19:15.589000+00:00</time>
      </trkpt>
      <trkpt lat="0" lon="0">
        <time>2020-12-20T09:19:15.603000+00:00</time>
      </trkpt>
      <trkpt lat="0" lon="0">
        <time>2020-12-20T09:19:15.612000+00:00</time>
      </trkpt>
      <trkpt lat="0" lon="0">
        <time>2020-12-20T09:19:15.614000+00:00</time>
      </trkpt>
      <trkpt lat="47.33207" lon="-1.2495">
        <ele>122</ele>
        <time>2020-12-20T09:19:16.585000+00:00</time>
      </trkpt>
      <trkpt lat="0" lon="0">
        <time>2020-12-20T09:19:16.606000+00:00</time>
      </trkpt>
      <trkpt lat="0" lon="0">
        <time>2020-12-20T09:19:16.611000+00:00</time>
      </trkpt>
      <trkpt lat="0" lon="0">
        <time>2020-12-20T09:19:16.613000+00:00</time>
      </trkpt>
      <trkpt lat="47.33213" lon="-1.24951">
        <ele>122</ele>
        <time>2020-12-20T09:19:17.585000+00:00</time>
      </trkpt>
      <trkpt lat="0" lon="0">
        <time>2020-12-20T09:19:17.593000+00:00</time>
      </trkpt>
      <trkpt lat="0" lon="0">
        <time>2020-12-20T09:19:17.602000+00:00</time>
      </trkpt>
      <trkpt lat="0" lon="0">
        <time>2020-12-20T09:19:17.604000+00:00</time>
      </trkpt>
      <trkpt lat="47.33218" lon="-1.24951">
        <ele>122</ele>
        <time>2020-12-20T09:19:18.603000+00:00</time>
      </trkpt>
      <trkpt lat="0" lon="0">
        <time>2020-12-20T09:19:18.609000+00:00</time>
      </trkpt>
      <trkpt lat="0" lon="0">
        <time>2020-12-20T09:19:18.632000+00:00</time>
      </trkpt>
      <trkpt lat="0" lon="0">
        <time>2020-12-20T09:19:18.634000+00:00</time>
      </trkpt>
      <trkpt lat="47.33222" lon="-1.2495">
        <ele>122</ele>
        <time>2020-12-20T09:19:19.598000+00:00</time>
      </trkpt>
      <trkpt lat="0" lon="0">
        <time>2020-12-20T09:19:19.607000+00:00</time>
      </trkpt>
      <trkpt lat="0" lon="0">
        <time>2020-12-20T09:19:19.613000+00:00</time>
      </trkpt>
      <trkpt lat="0" lon="0">
        <time>2020-12-20T09:19:19.617000+00:00</time>
      </trkpt>
      <trkpt lat="47.33224" lon="-1.24947">
        <ele>122</ele>
        <time>2020-12-20T09:19:20.584000+00:00</time>
      </trkpt>
      <trkpt lat="0" lon="0">
        <time>2020-12-20T09:19:20.591000+00:00</time>
      </trkpt>
      <trkpt lat="0" lon="0">
        <time>2020-12-20T09:19:20.596000+00:00</time>
      </trkpt>
      <trkpt lat="0" lon="0">
        <time>2020-12-20T09:19:20.598000+00:00</time>
      </trkpt>
      <trkpt lat="47.33226" lon="-1.24942">
        <ele>122</ele>
        <time>2020-12-20T09:19:21.596000+00:00</time>
      </trkpt>
      <trkpt lat="0" lon="0">
        <time>2020-12-20T09:19:21.612000+00:00</time>
      </trkpt>
      <trkpt lat="0" lon="0">
        <time>2020-12-20T09:19:21.622000+00:00</time>
      </trkpt>
      <trkpt lat="0" lon="0">
        <time>2020-12-20T09:19:21.627000+00:00</time>
      </trkpt>
      <trkpt lat="47.33227" lon="-1.24936">
        <ele>123</ele>
        <time>2020-12-20T09:19:22.602000+00:00</time>
      </trkpt>
      <trkpt lat="0" lon="0">
        <time>2020-12-20T09:19:22.607000+00:00</time>
      </trkpt>
      <trkpt lat="0" lon="0">
        <time>2020-12-20T09:19:22.609000+00:00</time>
      </trkpt>
      <trkpt lat="0" lon="0">
        <time>2020-12-20T09:19:22.610000+00:00</time>
      </trkpt>
      <trkpt lat="47.33227" lon="-1.2493">
        <ele>123</ele>
        <time>2020-12-20T09:19:23.606000+00:00</time>
      </trkpt>
      <trkpt lat="0" lon="0">
        <time>2020-12-20T09:19:23.622000+00:00</time>
      </trkpt>
      <trkpt lat="0" lon="0">
        <time>2020-12-20T09:19:23.628000+00:00</time>
      </trkpt>
      <trkpt lat="0" lon="0">
        <time>2020-12-20T09:19:23.631000+00:00</time>
      </trkpt>
      <trkpt lat="47.33226" lon="-1.24923">
        <ele>123</ele>
        <time>2020-12-20T09:19:24.578000+00:00</time>
      </trkpt>
      <trkpt lat="0" lon="0">
        <time>2020-12-20T09:19:24.582000+00:00</time>
      </trkpt>
      <trkpt lat="0" lon="0">
        <time>2020-12-20T09:19:24.591000+00:00</time>
      </trkpt>
      <trkpt lat="0" lon="0">
        <time>2020-12-20T09:19:24.594000+00:00</time>
      </trkpt>
      <trkpt lat="47.33226" lon="-1.24915">
        <ele>123</ele>
        <time>2020-12-20T09:19:25.587000+00:00</time>
      </trkpt>
      <trkpt lat="0" lon="0">
        <time>2020-12-20T09:19:25.606000+00:00</time>
      </trkpt>
      <trkpt lat="0" lon="0">
        <time>2020-12-20T09:19:25.610000+00:00</time>
      </trkpt>
      <trkpt lat="0" lon="0">
        <time>2020-12-20T09:19:25.613000+00:00</time>
      </trkpt>
      <trkpt lat="47.33224" lon="-1.24907">
        <ele>123</ele>
        <time>2020-12-20T09:19:26.594000+00:00</time>
      </trkpt>
      <trkpt lat="0" lon="0">
        <time>2020-12-20T09:19:26.608000+00:00</time>
      </trkpt>
      <trkpt lat="0" lon="0">
        <time>2020-12-20T09:19:26.625000+00:00</time>
      </trkpt>
      <trkpt lat="0" lon="0">
        <time>2020-12-20T09:19:26.627000+00:00</time>
      </trkpt>
      <trkpt lat="47.33223" lon="-1.24899">
        <ele>123</ele>
        <time>2020-12-20T09:19:27.604000+00:00</time>
      </trkpt>
      <trkpt lat="0" lon="0">
        <time>2020-12-20T09:19:27.620000+00:00</time>
      </trkpt>
      <trkpt lat="0" lon="0">
        <time>2020-12-20T09:19:27.624000+00:00</time>
      </trkpt>
      <trkpt lat="0" lon="0">
        <time>2020-12-20T09:19:27.626000+00:00</time>
      </trkpt>
      <trkpt lat="47.33221" lon="-1.24891">
        <ele>122</ele>
        <time>2020-12-20T09:19:28.609000+00:00</time>
      </trkpt>
      <trkpt lat="0" lon="0">
        <time>2020-12-20T09:19:28.625000+00:00</time>
      </trkpt>
      <trkpt lat="0" lon="0">
        <time>2020-12-20T09:19:28.632000+00:00</time>
      </trkpt>
      <trkpt lat="0" lon="0">
        <time>2020-12-20T09:19:28.634000+00:00</time>
      </trkpt>
      <trkpt lat="47.33218" lon="-1.24882">
        <ele>121</ele>
        <time>2020-12-20T09:19:29.572000+00:00</time>
      </trkpt>
      <trkpt lat="0" lon="0">
        <time>2020-12-20T09:19:29.577000+00:00</time>
      </trkpt>
      <trkpt lat="0" lon="0">
        <time>2020-12-20T09:19:29.581000+00:00</time>
      </trkpt>
      <trkpt lat="0" lon="0">
        <time>2020-12-20T09:19:29.583000+00:00</time>
      </trkpt>
      <trkpt lat="47.33216" lon="-1.24874">
        <ele>121</ele>
        <time>2020-12-20T09:19:30.577000+00:00</time>
      </trkpt>
      <trkpt lat="0" lon="0">
        <time>2020-12-20T09:19:30.584000+00:00</time>
      </trkpt>
      <trkpt lat="0" lon="0">
        <time>2020-12-20T09:19:30.590000+00:00</time>
      </trkpt>
      <trkpt lat="0" lon="0">
        <time>2020-12-20T09:19:30.592000+00:00</time>
      </trkpt>
      <trkpt lat="47.33213" lon="-1.24865">
        <ele>120</ele>
        <time>2020-12-20T09:19:31.622000+00:00</time>
      </trkpt>
      <trkpt lat="0" lon="0">
        <time>2020-12-20T09:19:31.635000+00:00</time>
      </trkpt>
      <trkpt lat="0" lon="0">
        <time>2020-12-20T09:19:31.640000+00:00</time>
      </trkpt>
      <trkpt lat="0" lon="0">
        <time>2020-12-20T09:19:31.642000+00:00</time>
      </trkpt>
      <trkpt lat="47.3321" lon="-1.24857">
        <ele>120</ele>
        <time>2020-12-20T09:19:32.623000+00:00</time>
      </trkpt>
      <trkpt lat="0" lon="0">
        <time>2020-12-20T09:19:32.636000+00:00</time>
      </trkpt>
      <trkpt lat="0" lon="0">
        <time>2020-12-20T09:19:32.638000+00:00</time>
      </trkpt>
      <trkpt lat="0" lon="0">
        <time>2020-12-20T09:19:32.639000+00:00</time>
      </trkpt>
      <trkpt lat="47.33208" lon="-1.24848">
        <ele>120</ele>
        <time>2020-12-20T09:19:33.564000+00:00</time>
      </trkpt>
      <trkpt lat="0" lon="0">
        <time>2020-12-20T09:19:33.576000+00:00</time>
      </trkpt>
      <trkpt lat="0" lon="0">
        <time>2020-12-20T09:19:33.580000+00:00</time>
      </trkpt>
      <trkpt lat="0" lon="0">
        <time>2020-12-20T09:19:33.582000+00:00</time>
      </trkpt>
      <trkpt lat="47.33205" lon="-1.2484">
        <ele>121</ele>
        <time>2020-12-20T09:19:34.578000+00:00</time>
      </trkpt>
      <trkpt lat="0" lon="0">
        <time>2020-12-20T09:19:34.586000+00:00</time>
      </trkpt>
      <trkpt lat="0" lon="0">
        <time>2020-12-20T09:19:34.594000+00:00</time>
      </trkpt>
      <trkpt lat="0" lon="0">
        <time>2020-12-20T09:19:34.601000+00:00</time>
      </trkpt>
      <trkpt lat="47.33202" lon="-1.24832">
        <ele>121</ele>
        <time>2020-12-20T09:19:35.611000+00:00</time>
      </trkpt>
      <trkpt lat="0" lon="0">
        <time>2020-12-20T09:19:35.618000+00:00</time>
      </trkpt>
      <trkpt lat="0" lon="0">
        <time>2020-12-20T09:19:35.622000+00:00</time>
      </trkpt>
      <trkpt lat="0" lon="0">
        <time>2020-12-20T09:19:35.626000+00:00</time>
      </trkpt>
      <trkpt lat="47.33199" lon="-1.24824">
        <ele>121</ele>
        <time>2020-12-20T09:19:36.602000+00:00</time>
      </trkpt>
      <trkpt lat="0" lon="0">
        <time>2020-12-20T09:19:36.613000+00:00</time>
      </trkpt>
      <trkpt lat="0" lon="0">
        <time>2020-12-20T09:19:36.617000+00:00</time>
      </trkpt>
      <trkpt lat="0" lon="0">
        <time>2020-12-20T09:19:36.621000+00:00</time>
      </trkpt>
      <trkpt lat="47.33197" lon="-1.24816">
        <ele>122</ele>
        <time>2020-12-20T09:19:37.589000+00:00</time>
      </trkpt>
      <trkpt lat="0" lon="0">
        <time>2020-12-20T09:19:37.601000+00:00</time>
      </trkpt>
      <trkpt lat="0" lon="0">
        <time>2020-12-20T09:19:37.609000+00:00</time>
      </trkpt>
      <trkpt lat="0" lon="0">
        <time>2020-12-20T09:19:37.611000+00:00</time>
      </trkpt>
      <trkpt lat="47.33195" lon="-1.24808">
        <ele>122</ele>
        <time>2020-12-20T09:19:38.613000+00:00</time>
      </trkpt>
      <trkpt lat="0" lon="0">
        <time>2020-12-20T09:19:38.628000+00:00</time>
      </trkpt>
      <trkpt lat="0" lon="0">
        <time>2020-12-20T09:19:38.635000+00:00</time>
      </trkpt>
      <trkpt lat="0" lon="0">
        <time>2020-12-20T09:19:38.641000+00:00</time>
      </trkpt>
      <trkpt lat="47.33194" lon="-1.24799">
        <ele>121</ele>
        <time>2020-12-20T09:19:39.606000+00:00</time>
      </trkpt>
      <trkpt lat="0" lon="0">
        <time>2020-12-20T09:19:39.617000+00:00</time>
      </trkpt>
      <trkpt lat="0" lon="0">
        <time>2020-12-20T09:19:39.622000+00:00</time>
      </trkpt>
      <trkpt lat="0" lon="0">
        <time>2020-12-20T09:19:39.625000+00:00</time>
      </trkpt>
      <trkpt lat="47.33194" lon="-1.24791">
        <ele>121</ele>
        <time>2020-12-20T09:19:40.620000+00:00</time>
      </trkpt>
      <trkpt lat="0" lon="0">
        <time>2020-12-20T09:19:40.629000+00:00</time>
      </trkpt>
      <trkpt lat="0" lon="0">
        <time>2020-12-20T09:19:40.635000+00:00</time>
      </trkpt>
      <trkpt lat="0" lon="0">
        <time>2020-12-20T09:19:40.638000+00:00</time>
      </trkpt>
      <trkpt lat="47.33194" lon="-1.24784">
        <ele>121</ele>
        <time>2020-12-20T09:19:41.565000+00:00</time>
      </trkpt>
      <trkpt lat="0" lon="0">
        <time>2020-12-20T09:19:41.570000+00:00</time>
      </trkpt>
      <trkpt lat="0" lon="0">
        <time>2020-12-20T09:19:41.578000+00:00</time>
      </trkpt>
      <trkpt lat="0" lon="0">
        <time>2020-12-20T09:19:41.581000+00:00</time>
      </trkpt>
      <trkpt lat="47.33194" lon="-1.24777">
        <ele>121</ele>
        <time>2020-12-20T09:19:42.591000+00:00</time>
      </trkpt>
      <trkpt lat="0" lon="0">
        <time>2020-12-20T09:19:42.599000+00:00</time>
      </trkpt>
      <trkpt lat="0" lon="0">
        <time>2020-12-20T09:19:42.606000+00:00</time>
      </trkpt>
      <trkpt lat="0" lon="0">
        <time>2020-12-20T09:19:42.610000+00:00</time>
      </trkpt>
      <trkpt lat="47.33195" lon="-1.2477">
        <ele>120</ele>
        <time>2020-12-20T09:19:43.603000+00:00</time>
      </trkpt>
      <trkpt lat="0" lon="0">
        <time>2020-12-20T09:19:43.607000+00:00</time>
      </trkpt>
      <trkpt lat="0" lon="0">
        <time>2020-12-20T09:19:43.611000+00:00</time>
      </trkpt>
      <trkpt lat="0" lon="0">
        <time>2020-12-20T09:19:43.614000+00:00</time>
      </trkpt>
      <trkpt lat="47.33197" lon="-1.24763">
        <ele>120</ele>
        <time>2020-12-20T09:19:44.603000+00:00</time>
      </trkpt>
      <trkpt lat="0" lon="0">
        <time>2020-12-20T09:19:44.608000+00:00</time>
      </trkpt>
      <trkpt lat="0" lon="0">
        <time>2020-12-20T09:19:44.611000+00:00</time>
      </trkpt>
      <trkpt lat="0" lon="0">
        <time>2020-12-20T09:19:44.613000+00:00</time>
      </trkpt>
      <trkpt lat="47.33198" lon="-1.24758">
        <ele>120</ele>
        <time>2020-12-20T09:19:45.571000+00:00</time>
      </trkpt>
      <trkpt lat="0" lon="0">
        <time>2020-12-20T09:19:45.575000+00:00</time>
      </trkpt>
      <trkpt lat="0" lon="0">
        <time>2020-12-20T09:19:45.587000+00:00</time>
      </trkpt>
      <trkpt lat="0" lon="0">
        <time>2020-12-20T09:19:45.589000+00:00</time>
      </trkpt>
      <trkpt lat="47.33199" lon="-1.24753">
        <ele>120</ele>
        <time>2020-12-20T09:19:46.593000+00:00</time>
      </trkpt>
      <trkpt lat="0" lon="0">
        <time>2020-12-20T09:19:46.604000+00:00</time>
      </trkpt>
      <trkpt lat="0" lon="0">
        <time>2020-12-20T09:19:46.611000+00:00</time>
      </trkpt>
      <trkpt lat="0" lon="0">
        <time>2020-12-20T09:19:46.614000+00:00</time>
      </trkpt>
      <trkpt lat="47.33201" lon="-1.24749">
        <ele>120</ele>
        <time>2020-12-20T09:19:47.586000+00:00</time>
      </trkpt>
      <trkpt lat="0" lon="0">
        <time>2020-12-20T09:19:47.592000+00:00</time>
      </trkpt>
      <trkpt lat="0" lon="0">
        <time>2020-12-20T09:19:47.607000+00:00</time>
      </trkpt>
      <trkpt lat="0" lon="0">
        <time>2020-12-20T09:19:47.613000+00:00</time>
      </trkpt>
      <trkpt lat="47.33202" lon="-1.24745">
        <ele>121</ele>
        <time>2020-12-20T09:19:48.593000+00:00</time>
      </trkpt>
      <trkpt lat="0" lon="0">
        <time>2020-12-20T09:19:48.605000+00:00</time>
      </trkpt>
      <trkpt lat="0" lon="0">
        <time>2020-12-20T09:19:48.610000+00:00</time>
      </trkpt>
      <trkpt lat="0" lon="0">
        <time>2020-12-20T09:19:48.614000+00:00</time>
      </trkpt>
      <trkpt lat="47.33204" lon="-1.24742">
        <ele>121</ele>
        <time>2020-12-20T09:19:49.601000+00:00</time>
      </trkpt>
      <trkpt lat="0" lon="0">
        <time>2020-12-20T09:19:49.606000+00:00</time>
      </trkpt>
      <trkpt lat="0" lon="0">
        <time>2020-12-20T09:19:49.611000+00:00</time>
      </trkpt>
      <trkpt lat="0" lon="0">
        <time>2020-12-20T09:19:49.614000+00:00</time>
      </trkpt>
      <trkpt lat="47.33205" lon="-1.2474">
        <ele>121</ele>
        <time>2020-12-20T09:19:50.599000+00:00</time>
      </trkpt>
      <trkpt lat="0" lon="0">
        <time>2020-12-20T09:19:50.605000+00:00</time>
      </trkpt>
      <trkpt lat="0" lon="0">
        <time>2020-12-20T09:19:50.606000+00:00</time>
      </trkpt>
      <trkpt lat="0" lon="0">
        <time>2020-12-20T09:19:50.607000+00:00</time>
      </trkpt>
      <trkpt lat="47.33207" lon="-1.24737">
        <ele>121</ele>
        <time>2020-12-20T09:19:51.605000+00:00</time>
      </trkpt>
      <trkpt lat="0" lon="0">
        <time>2020-12-20T09:19:51.612000+00:00</time>
      </trkpt>
      <trkpt lat="0" lon="0">
        <time>2020-12-20T09:19:51.617000+00:00</time>
      </trkpt>
      <trkpt lat="0" lon="0">
        <time>2020-12-20T09:19:51.620000+00:00</time>
      </trkpt>
      <trkpt lat="47.33207" lon="-1.24734">
        <ele>121</ele>
        <time>2020-12-20T09:19:52.584000+00:00</time>
      </trkpt>
      <trkpt lat="0" lon="0">
        <time>2020-12-20T09:19:52.591000+00:00</time>
      </trkpt>
      <trkpt lat="0" lon="0">
        <time>2020-12-20T09:19:52.601000+00:00</time>
      </trkpt>
      <trkpt lat="0" lon="0">
        <time>2020-12-20T09:19:52.603000+00:00</time>
      </trkpt>
      <trkpt lat="47.33208" lon="-1.24732">
        <ele>121</ele>
        <time>2020-12-20T09:19:53.597000+00:00</time>
      </trkpt>
      <trkpt lat="0" lon="0">
        <time>2020-12-20T09:19:53.607000+00:00</time>
      </trkpt>
      <trkpt lat="0" lon="0">
        <time>2020-12-20T09:19:53.611000+00:00</time>
      </trkpt>
      <trkpt lat="0" lon="0">
        <time>2020-12-20T09:19:53.615000+00:00</time>
      </trkpt>
      <trkpt lat="47.33209" lon="-1.24729">
        <ele>121</ele>
        <time>2020-12-20T09:19:54.625000+00:00</time>
      </trkpt>
      <trkpt lat="0" lon="0">
        <time>2020-12-20T09:19:54.642000+00:00</time>
      </trkpt>
      <trkpt lat="0" lon="0">
        <time>2020-12-20T09:19:54.649000+00:00</time>
      </trkpt>
      <trkpt lat="0" lon="0">
        <time>2020-12-20T09:19:54.651000+00:00</time>
      </trkpt>
      <trkpt lat="47.33209" lon="-1.24725">
        <ele>121</ele>
        <time>2020-12-20T09:19:55.591000+00:00</time>
      </trkpt>
      <trkpt lat="0" lon="0">
        <time>2020-12-20T09:19:55.599000+00:00</time>
      </trkpt>
      <trkpt lat="0" lon="0">
        <time>2020-12-20T09:19:55.605000+00:00</time>
      </trkpt>
      <trkpt lat="0" lon="0">
        <time>2020-12-20T09:19:55.611000+00:00</time>
      </trkpt>
      <trkpt lat="47.33209" lon="-1.24722">
        <ele>121</ele>
        <time>2020-12-20T09:19:56.587000+00:00</time>
      </trkpt>
      <trkpt lat="0" lon="0">
        <time>2020-12-20T09:19:56.594000+00:00</time>
      </trkpt>
      <trkpt lat="0" lon="0">
        <time>2020-12-20T09:19:56.601000+00:00</time>
      </trkpt>
      <trkpt lat="0" lon="0">
        <time>2020-12-20T09:19:56.603000+00:00</time>
      </trkpt>
      <trkpt lat="47.33209" lon="-1.24719">
        <ele>121</ele>
        <time>2020-12-20T09:19:57.603000+00:00</time>
      </trkpt>
      <trkpt lat="0" lon="0">
        <time>2020-12-20T09:19:57.610000+00:00</time>
      </trkpt>
      <trkpt lat="0" lon="0">
        <time>2020-12-20T09:19:57.619000+00:00</time>
      </trkpt>
      <trkpt lat="0" lon="0">
        <time>2020-12-20T09:19:57.622000+00:00</time>
      </trkpt>
      <trkpt lat="47.33209" lon="-1.24715">
        <ele>121</ele>
        <time>2020-12-20T09:19:58.602000+00:00</time>
      </trkpt>
      <trkpt lat="0" lon="0">
        <time>2020-12-20T09:19:58.609000+00:00</time>
      </trkpt>
      <trkpt lat="0" lon="0">
        <time>2020-12-20T09:19:58.615000+00:00</time>
      </trkpt>
      <trkpt lat="0" lon="0">
        <time>2020-12-20T09:19:58.618000+00:00</time>
      </trkpt>
      <trkpt lat="47.33209" lon="-1.24711">
        <ele>121</ele>
        <time>2020-12-20T09:19:59.630000+00:00</time>
      </trkpt>
      <trkpt lat="0" lon="0">
        <time>2020-12-20T09:19:59.636000+00:00</time>
      </trkpt>
      <trkpt lat="0" lon="0">
        <time>2020-12-20T09:19:59.639000+00:00</time>
      </trkpt>
      <trkpt lat="0" lon="0">
        <time>2020-12-20T09:19:59.646000+00:00</time>
      </trkpt>
      <trkpt lat="47.33209" lon="-1.24707">
        <ele>121</ele>
        <time>2020-12-20T09:20:00.580000+00:00</time>
      </trkpt>
      <trkpt lat="0" lon="0">
        <time>2020-12-20T09:20:00.600000+00:00</time>
      </trkpt>
      <trkpt lat="0" lon="0">
        <time>2020-12-20T09:20:00.607000+00:00</time>
      </trkpt>
      <trkpt lat="0" lon="0">
        <time>2020-12-20T09:20:00.610000+00:00</time>
      </trkpt>
      <trkpt lat="47.33209" lon="-1.24703">
        <ele>122</ele>
        <time>2020-12-20T09:20:01.601000+00:00</time>
      </trkpt>
      <trkpt lat="0" lon="0">
        <time>2020-12-20T09:20:01.605000+00:00</time>
      </trkpt>
      <trkpt lat="0" lon="0">
        <time>2020-12-20T09:20:01.609000+00:00</time>
      </trkpt>
      <trkpt lat="0" lon="0">
        <time>2020-12-20T09:20:01.612000+00:00</time>
      </trkpt>
      <trkpt lat="47.33208" lon="-1.24698">
        <ele>122</ele>
        <time>2020-12-20T09:20:02.590000+00:00</time>
      </trkpt>
      <trkpt lat="0" lon="0">
        <time>2020-12-20T09:20:02.601000+00:00</time>
      </trkpt>
      <trkpt lat="0" lon="0">
        <time>2020-12-20T09:20:02.605000+00:00</time>
      </trkpt>
      <trkpt lat="0" lon="0">
        <time>2020-12-20T09:20:02.607000+00:00</time>
      </trkpt>
      <trkpt lat="47.33208" lon="-1.24693">
        <ele>122</ele>
        <time>2020-12-20T09:20:03.579000+00:00</time>
      </trkpt>
      <trkpt lat="0" lon="0">
        <time>2020-12-20T09:20:03.584000+00:00</time>
      </trkpt>
      <trkpt lat="0" lon="0">
        <time>2020-12-20T09:20:03.592000+00:00</time>
      </trkpt>
      <trkpt lat="0" lon="0">
        <time>2020-12-20T09:20:03.601000+00:00</time>
      </trkpt>
      <trkpt lat="47.33208" lon="-1.24688">
        <ele>122</ele>
        <time>2020-12-20T09:20:04.603000+00:00</time>
      </trkpt>
      <trkpt lat="0" lon="0">
        <time>2020-12-20T09:20:04.616000+00:00</time>
      </trkpt>
      <trkpt lat="0" lon="0">
        <time>2020-12-20T09:20:04.620000+00:00</time>
      </trkpt>
      <trkpt lat="0" lon="0">
        <time>2020-12-20T09:20:04.626000+00:00</time>
      </trkpt>
      <trkpt lat="47.33207" lon="-1.24683">
        <ele>122</ele>
        <time>2020-12-20T09:20:05.589000+00:00</time>
      </trkpt>
      <trkpt lat="0" lon="0">
        <time>2020-12-20T09:20:05.602000+00:00</time>
      </trkpt>
      <trkpt lat="0" lon="0">
        <time>2020-12-20T09:20:05.613000+00:00</time>
      </trkpt>
      <trkpt lat="0" lon="0">
        <time>2020-12-20T09:20:05.617000+00:00</time>
      </trkpt>
      <trkpt lat="47.33207" lon="-1.24677">
        <ele>123</ele>
        <time>2020-12-20T09:20:06.611000+00:00</time>
      </trkpt>
      <trkpt lat="0" lon="0">
        <time>2020-12-20T09:20:06.631000+00:00</time>
      </trkpt>
      <trkpt lat="0" lon="0">
        <time>2020-12-20T09:20:06.634000+00:00</time>
      </trkpt>
      <trkpt lat="0" lon="0">
        <time>2020-12-20T09:20:06.636000+00:00</time>
      </trkpt>
      <trkpt lat="47.33206" lon="-1.24672">
        <ele>123</ele>
        <time>2020-12-20T09:20:07.614000+00:00</time>
      </trkpt>
      <trkpt lat="0" lon="0">
        <time>2020-12-20T09:20:07.619000+00:00</time>
      </trkpt>
      <trkpt lat="0" lon="0">
        <time>2020-12-20T09:20:07.621000+00:00</time>
      </trkpt>
      <trkpt lat="0" lon="0">
        <time>2020-12-20T09:20:07.622000+00:00</time>
      </trkpt>
      <trkpt lat="47.33206" lon="-1.24666">
        <ele>123</ele>
        <time>2020-12-20T09:20:08.621000+00:00</time>
      </trkpt>
      <trkpt lat="0" lon="0">
        <time>2020-12-20T09:20:08.639000+00:00</time>
      </trkpt>
      <trkpt lat="0" lon="0">
        <time>2020-12-20T09:20:08.643000+00:00</time>
      </trkpt>
      <trkpt lat="0" lon="0">
        <time>2020-12-20T09:20:08.646000+00:00</time>
      </trkpt>
      <trkpt lat="47.33206" lon="-1.2466">
        <ele>123</ele>
        <time>2020-12-20T09:20:09.635000+00:00</time>
      </trkpt>
      <trkpt lat="0" lon="0">
        <time>2020-12-20T09:20:09.654000+00:00</time>
      </trkpt>
      <trkpt lat="0" lon="0">
        <time>2020-12-20T09:20:09.657000+00:00</time>
      </trkpt>
      <trkpt lat="0" lon="0">
        <time>2020-12-20T09:20:09.660000+00:00</time>
      </trkpt>
      <trkpt lat="47.33207" lon="-1.24654">
        <ele>124</ele>
        <time>2020-12-20T09:20:10.601000+00:00</time>
      </trkpt>
      <trkpt lat="0" lon="0">
        <time>2020-12-20T09:20:10.611000+00:00</time>
      </trkpt>
      <trkpt lat="0" lon="0">
        <time>2020-12-20T09:20:10.617000+00:00</time>
      </trkpt>
      <trkpt lat="0" lon="0">
        <time>2020-12-20T09:20:10.619000+00:00</time>
      </trkpt>
      <trkpt lat="47.33207" lon="-1.24649">
        <ele>124</ele>
        <time>2020-12-20T09:20:11.620000+00:00</time>
      </trkpt>
      <trkpt lat="0" lon="0">
        <time>2020-12-20T09:20:11.625000+00:00</time>
      </trkpt>
      <trkpt lat="0" lon="0">
        <time>2020-12-20T09:20:11.633000+00:00</time>
      </trkpt>
      <trkpt lat="0" lon="0">
        <time>2020-12-20T09:20:11.640000+00:00</time>
      </trkpt>
      <trkpt lat="47.33208" lon="-1.24643">
        <ele>124</ele>
        <time>2020-12-20T09:20:12.567000+00:00</time>
      </trkpt>
      <trkpt lat="0" lon="0">
        <time>2020-12-20T09:20:12.581000+00:00</time>
      </trkpt>
      <trkpt lat="0" lon="0">
        <time>2020-12-20T09:20:12.592000+00:00</time>
      </trkpt>
      <trkpt lat="0" lon="0">
        <time>2020-12-20T09:20:12.595000+00:00</time>
      </trkpt>
      <trkpt lat="47.33209" lon="-1.24637">
        <ele>124</ele>
        <time>2020-12-20T09:20:13.595000+00:00</time>
      </trkpt>
      <trkpt lat="0" lon="0">
        <time>2020-12-20T09:20:13.620000+00:00</time>
      </trkpt>
      <trkpt lat="0" lon="0">
        <time>2020-12-20T09:20:13.622000+00:00</time>
      </trkpt>
      <trkpt lat="0" lon="0">
        <time>2020-12-20T09:20:13.624000+00:00</time>
      </trkpt>
      <trkpt lat="47.3321" lon="-1.24632">
        <ele>124</ele>
        <time>2020-12-20T09:20:14.592000+00:00</time>
      </trkpt>
      <trkpt lat="0" lon="0">
        <time>2020-12-20T09:20:14.597000+00:00</time>
      </trkpt>
      <trkpt lat="0" lon="0">
        <time>2020-12-20T09:20:14.605000+00:00</time>
      </trkpt>
      <trkpt lat="0" lon="0">
        <time>2020-12-20T09:20:14.607000+00:00</time>
      </trkpt>
      <trkpt lat="47.33212" lon="-1.24626">
        <ele>124</ele>
        <time>2020-12-20T09:20:15.614000+00:00</time>
      </trkpt>
      <trkpt lat="0" lon="0">
        <time>2020-12-20T09:20:15.622000+00:00</time>
      </trkpt>
      <trkpt lat="0" lon="0">
        <time>2020-12-20T09:20:15.629000+00:00</time>
      </trkpt>
      <trkpt lat="0" lon="0">
        <time>2020-12-20T09:20:15.631000+00:00</time>
      </trkpt>
      <trkpt lat="47.33213" lon="-1.2462">
        <ele>124</ele>
        <time>2020-12-20T09:20:16.605000+00:00</time>
      </trkpt>
      <trkpt lat="0" lon="0">
        <time>2020-12-20T09:20:16.619000+00:00</time>
      </trkpt>
      <trkpt lat="0" lon="0">
        <time>2020-12-20T09:20:16.626000+00:00</time>
      </trkpt>
      <trkpt lat="0" lon="0">
        <time>2020-12-20T09:20:16.628000+00:00</time>
      </trkpt>
      <trkpt lat="47.33215" lon="-1.24614">
        <ele>124</ele>
        <time>2020-12-20T09:20:17.585000+00:00</time>
      </trkpt>
      <trkpt lat="0" lon="0">
        <time>2020-12-20T09:20:17.604000+00:00</time>
      </trkpt>
      <trkpt lat="0" lon="0">
        <time>2020-12-20T09:20:17.608000+00:00</time>
      </trkpt>
      <trkpt lat="0" lon="0">
        <time>2020-12-20T09:20:17.611000+00:00</time>
      </trkpt>
      <trkpt lat="47.33217" lon="-1.24608">
        <ele>124</ele>
        <time>2020-12-20T09:20:18.613000+00:00</time>
      </trkpt>
      <trkpt lat="0" lon="0">
        <time>2020-12-20T09:20:18.623000+00:00</time>
      </trkpt>
      <trkpt lat="0" lon="0">
        <time>2020-12-20T09:20:18.630000+00:00</time>
      </trkpt>
      <trkpt lat="0" lon="0">
        <time>2020-12-20T09:20:18.644000+00:00</time>
      </trkpt>
      <trkpt lat="47.33218" lon="-1.24602">
        <ele>125</ele>
        <time>2020-12-20T09:20:19.583000+00:00</time>
      </trkpt>
      <trkpt lat="0" lon="0">
        <time>2020-12-20T09:20:19.587000+00:00</time>
      </trkpt>
      <trkpt lat="0" lon="0">
        <time>2020-12-20T09:20:19.600000+00:00</time>
      </trkpt>
      <trkpt lat="0" lon="0">
        <time>2020-12-20T09:20:19.602000+00:00</time>
      </trkpt>
      <trkpt lat="47.33219" lon="-1.24595">
        <ele>124</ele>
        <time>2020-12-20T09:20:20.610000+00:00</time>
      </trkpt>
      <trkpt lat="0" lon="0">
        <time>2020-12-20T09:20:20.627000+00:00</time>
      </trkpt>
      <trkpt lat="0" lon="0">
        <time>2020-12-20T09:20:20.637000+00:00</time>
      </trkpt>
      <trkpt lat="0" lon="0">
        <time>2020-12-20T09:20:20.642000+00:00</time>
      </trkpt>
      <trkpt lat="47.3322" lon="-1.24589">
        <ele>124</ele>
        <time>2020-12-20T09:20:21.576000+00:00</time>
      </trkpt>
      <trkpt lat="0" lon="0">
        <time>2020-12-20T09:20:21.584000+00:00</time>
      </trkpt>
      <trkpt lat="0" lon="0">
        <time>2020-12-20T09:20:21.600000+00:00</time>
      </trkpt>
      <trkpt lat="0" lon="0">
        <time>2020-12-20T09:20:21.602000+00:00</time>
      </trkpt>
      <trkpt lat="47.33221" lon="-1.24582">
        <ele>124</ele>
        <time>2020-12-20T09:20:22.612000+00:00</time>
      </trkpt>
      <trkpt lat="0" lon="0">
        <time>2020-12-20T09:20:22.618000+00:00</time>
      </trkpt>
      <trkpt lat="0" lon="0">
        <time>2020-12-20T09:20:22.622000+00:00</time>
      </trkpt>
      <trkpt lat="0" lon="0">
        <time>2020-12-20T09:20:22.625000+00:00</time>
      </trkpt>
      <trkpt lat="47.33221" lon="-1.24575">
        <ele>124</ele>
        <time>2020-12-20T09:20:23.606000+00:00</time>
      </trkpt>
      <trkpt lat="0" lon="0">
        <time>2020-12-20T09:20:23.618000+00:00</time>
      </trkpt>
      <trkpt lat="0" lon="0">
        <time>2020-12-20T09:20:23.624000+00:00</time>
      </trkpt>
      <trkpt lat="0" lon="0">
        <time>2020-12-20T09:20:23.627000+00:00</time>
      </trkpt>
      <trkpt lat="47.3322" lon="-1.24569">
        <ele>124</ele>
        <time>2020-12-20T09:20:24.598000+00:00</time>
      </trkpt>
      <trkpt lat="0" lon="0">
        <time>2020-12-20T09:20:24.618000+00:00</time>
      </trkpt>
      <trkpt lat="0" lon="0">
        <time>2020-12-20T09:20:24.623000+00:00</time>
      </trkpt>
      <trkpt lat="0" lon="0">
        <time>2020-12-20T09:20:24.625000+00:00</time>
      </trkpt>
      <trkpt lat="47.3322" lon="-1.24562">
        <ele>123</ele>
        <time>2020-12-20T09:20:25.583000+00:00</time>
      </trkpt>
      <trkpt lat="0" lon="0">
        <time>2020-12-20T09:20:25.595000+00:00</time>
      </trkpt>
      <trkpt lat="0" lon="0">
        <time>2020-12-20T09:20:25.597000+00:00</time>
      </trkpt>
      <trkpt lat="0" lon="0">
        <time>2020-12-20T09:20:25.599000+00:00</time>
      </trkpt>
      <trkpt lat="47.33219" lon="-1.24555">
        <ele>122</ele>
        <time>2020-12-20T09:20:26.595000+00:00</time>
      </trkpt>
      <trkpt lat="0" lon="0">
        <time>2020-12-20T09:20:26.599000+00:00</time>
      </trkpt>
      <trkpt lat="0" lon="0">
        <time>2020-12-20T09:20:26.615000+00:00</time>
      </trkpt>
      <trkpt lat="0" lon="0">
        <time>2020-12-20T09:20:26.618000+00:00</time>
      </trkpt>
      <trkpt lat="47.33218" lon="-1.24547">
        <ele>122</ele>
        <time>2020-12-20T09:20:27.619000+00:00</time>
      </trkpt>
      <trkpt lat="0" lon="0">
        <time>2020-12-20T09:20:27.623000+00:00</time>
      </trkpt>
      <trkpt lat="0" lon="0">
        <time>2020-12-20T09:20:27.633000+00:00</time>
      </trkpt>
      <trkpt lat="0" lon="0">
        <time>2020-12-20T09:20:27.645000+00:00</time>
      </trkpt>
      <trkpt lat="47.33216" lon="-1.2454">
        <ele>121</ele>
        <time>2020-12-20T09:20:28.585000+00:00</time>
      </trkpt>
      <trkpt lat="0" lon="0">
        <time>2020-12-20T09:20:28.590000+00:00</time>
      </trkpt>
      <trkpt lat="0" lon="0">
        <time>2020-12-20T09:20:28.595000+00:00</time>
      </trkpt>
      <trkpt lat="0" lon="0">
        <time>2020-12-20T09:20:28.597000+00:00</time>
      </trkpt>
      <trkpt lat="47.33215" lon="-1.24532">
        <ele>121</ele>
        <time>2020-12-20T09:20:29.637000+00:00</time>
      </trkpt>
      <trkpt lat="0" lon="0">
        <time>2020-12-20T09:20:29.644000+00:00</time>
      </trkpt>
      <trkpt lat="0" lon="0">
        <time>2020-12-20T09:20:29.648000+00:00</time>
      </trkpt>
      <trkpt lat="0" lon="0">
        <time>2020-12-20T09:20:29.650000+00:00</time>
      </trkpt>
      <trkpt lat="47.33214" lon="-1.24525">
        <ele>120</ele>
        <time>2020-12-20T09:20:30.591000+00:00</time>
      </trkpt>
      <trkpt lat="0" lon="0">
        <time>2020-12-20T09:20:30.594000+00:00</time>
      </trkpt>
      <trkpt lat="0" lon="0">
        <time>2020-12-20T09:20:30.599000+00:00</time>
      </trkpt>
      <trkpt lat="0" lon="0">
        <time>2020-12-20T09:20:30.602000+00:00</time>
      </trkpt>
      <trkpt lat="47.33212" lon="-1.24517">
        <ele>120</ele>
        <time>2020-12-20T09:20:31.582000+00:00</time>
      </trkpt>
      <trkpt lat="0" lon="0">
        <time>2020-12-20T09:20:31.601000+00:00</time>
      </trkpt>
      <trkpt lat="0" lon="0">
        <time>2020-12-20T09:20:31.608000+00:00</time>
      </trkpt>
      <trkpt lat="0" lon="0">
        <time>2020-12-20T09:20:31.615000+00:00</time>
      </trkpt>
      <trkpt lat="47.33211" lon="-1.24509">
        <ele>120</ele>
        <time>2020-12-20T09:20:32.553000+00:00</time>
      </trkpt>
      <trkpt lat="0" lon="0">
        <time>2020-12-20T09:20:32.561000+00:00</time>
      </trkpt>
      <trkpt lat="0" lon="0">
        <time>2020-12-20T09:20:32.580000+00:00</time>
      </trkpt>
      <trkpt lat="0" lon="0">
        <time>2020-12-20T09:20:32.582000+00:00</time>
      </trkpt>
      <trkpt lat="47.33209" lon="-1.24501">
        <ele>120</ele>
        <time>2020-12-20T09:20:33.588000+00:00</time>
      </trkpt>
      <trkpt lat="0" lon="0">
        <time>2020-12-20T09:20:33.594000+00:00</time>
      </trkpt>
      <trkpt lat="0" lon="0">
        <time>2020-12-20T09:20:33.607000+00:00</time>
      </trkpt>
      <trkpt lat="0" lon="0">
        <time>2020-12-20T09:20:33.611000+00:00</time>
      </trkpt>
      <trkpt lat="47.33208" lon="-1.24492">
        <ele>120</ele>
        <time>2020-12-20T09:20:34.605000+00:00</time>
      </trkpt>
      <trkpt lat="0" lon="0">
        <time>2020-12-20T09:20:34.616000+00:00</time>
      </trkpt>
      <trkpt lat="0" lon="0">
        <time>2020-12-20T09:20:34.622000+00:00</time>
      </trkpt>
      <trkpt lat="0" lon="0">
        <time>2020-12-20T09:20:34.626000+00:00</time>
      </trkpt>
      <trkpt lat="47.33207" lon="-1.24484">
        <ele>120</ele>
        <time>2020-12-20T09:20:35.579000+00:00</time>
      </trkpt>
      <trkpt lat="0" lon="0">
        <time>2020-12-20T09:20:35.586000+00:00</time>
      </trkpt>
      <trkpt lat="0" lon="0">
        <time>2020-12-20T09:20:35.591000+00:00</time>
      </trkpt>
      <trkpt lat="0" lon="0">
        <time>2020-12-20T09:20:35.594000+00:00</time>
      </trkpt>
      <trkpt lat="47.33207" lon="-1.24476">
        <ele>120</ele>
        <time>2020-12-20T09:20:36.617000+00:00</time>
      </trkpt>
      <trkpt lat="0" lon="0">
        <time>2020-12-20T09:20:36.622000+00:00</time>
      </trkpt>
      <trkpt lat="0" lon="0">
        <time>2020-12-20T09:20:36.630000+00:00</time>
      </trkpt>
      <trkpt lat="0" lon="0">
        <time>2020-12-20T09:20:36.633000+00:00</time>
      </trkpt>
      <trkpt lat="47.33206" lon="-1.24467">
        <ele>120</ele>
        <time>2020-12-20T09:20:37.615000+00:00</time>
      </trkpt>
      <trkpt lat="0" lon="0">
        <time>2020-12-20T09:20:37.623000+00:00</time>
      </trkpt>
      <trkpt lat="0" lon="0">
        <time>2020-12-20T09:20:37.627000+00:00</time>
      </trkpt>
      <trkpt lat="0" lon="0">
        <time>2020-12-20T09:20:37.630000+00:00</time>
      </trkpt>
      <trkpt lat="47.33206" lon="-1.24459">
        <ele>119</ele>
        <time>2020-12-20T09:20:38.615000+00:00</time>
      </trkpt>
      <trkpt lat="0" lon="0">
        <time>2020-12-20T09:20:38.643000+00:00</time>
      </trkpt>
      <trkpt lat="0" lon="0">
        <time>2020-12-20T09:20:38.646000+00:00</time>
      </trkpt>
      <trkpt lat="0" lon="0">
        <time>2020-12-20T09:20:38.649000+00:00</time>
      </trkpt>
      <trkpt lat="47.33206" lon="-1.24451">
        <ele>119</ele>
        <time>2020-12-20T09:20:39.607000+00:00</time>
      </trkpt>
      <trkpt lat="0" lon="0">
        <time>2020-12-20T09:20:39.618000+00:00</time>
      </trkpt>
      <trkpt lat="0" lon="0">
        <time>2020-12-20T09:20:39.626000+00:00</time>
      </trkpt>
      <trkpt lat="0" lon="0">
        <time>2020-12-20T09:20:39.628000+00:00</time>
      </trkpt>
      <trkpt lat="47.33206" lon="-1.24443">
        <ele>119</ele>
        <time>2020-12-20T09:20:40.616000+00:00</time>
      </trkpt>
      <trkpt lat="0" lon="0">
        <time>2020-12-20T09:20:40.634000+00:00</time>
      </trkpt>
      <trkpt lat="0" lon="0">
        <time>2020-12-20T09:20:40.641000+00:00</time>
      </trkpt>
      <trkpt lat="0" lon="0">
        <time>2020-12-20T09:20:40.643000+00:00</time>
      </trkpt>
      <trkpt lat="47.33207" lon="-1.24434">
        <ele>119</ele>
        <time>2020-12-20T09:20:41.603000+00:00</time>
      </trkpt>
      <trkpt lat="0" lon="0">
        <time>2020-12-20T09:20:41.613000+00:00</time>
      </trkpt>
      <trkpt lat="0" lon="0">
        <time>2020-12-20T09:20:41.618000+00:00</time>
      </trkpt>
      <trkpt lat="0" lon="0">
        <time>2020-12-20T09:20:41.621000+00:00</time>
      </trkpt>
      <trkpt lat="47.33208" lon="-1.24426">
        <ele>119</ele>
        <time>2020-12-20T09:20:42.607000+00:00</time>
      </trkpt>
      <trkpt lat="0" lon="0">
        <time>2020-12-20T09:20:42.612000+00:00</time>
      </trkpt>
      <trkpt lat="0" lon="0">
        <time>2020-12-20T09:20:42.629000+00:00</time>
      </trkpt>
      <trkpt lat="0" lon="0">
        <time>2020-12-20T09:20:42.631000+00:00</time>
      </trkpt>
      <trkpt lat="47.33209" lon="-1.24419">
        <ele>119</ele>
        <time>2020-12-20T09:20:43.627000+00:00</time>
      </trkpt>
      <trkpt lat="0" lon="0">
        <time>2020-12-20T09:20:43.630000+00:00</time>
      </trkpt>
      <trkpt lat="0" lon="0">
        <time>2020-12-20T09:20:43.638000+00:00</time>
      </trkpt>
      <trkpt lat="0" lon="0">
        <time>2020-12-20T09:20:43.642000+00:00</time>
      </trkpt>
      <trkpt lat="47.33211" lon="-1.24412">
        <ele>118</ele>
        <time>2020-12-20T09:20:44.551000+00:00</time>
      </trkpt>
      <trkpt lat="0" lon="0">
        <time>2020-12-20T09:20:44.561000+00:00</time>
      </trkpt>
      <trkpt lat="0" lon="0">
        <time>2020-12-20T09:20:44.565000+00:00</time>
      </trkpt>
      <trkpt lat="0" lon="0">
        <time>2020-12-20T09:20:44.567000+00:00</time>
      </trkpt>
      <trkpt lat="47.33213" lon="-1.24406">
        <ele>117</ele>
        <time>2020-12-20T09:20:45.603000+00:00</time>
      </trkpt>
      <trkpt lat="0" lon="0">
        <time>2020-12-20T09:20:45.610000+00:00</time>
      </trkpt>
      <trkpt lat="0" lon="0">
        <time>2020-12-20T09:20:45.620000+00:00</time>
      </trkpt>
      <trkpt lat="0" lon="0">
        <time>2020-12-20T09:20:45.624000+00:00</time>
      </trkpt>
      <trkpt lat="47.33216" lon="-1.244">
        <ele>117</ele>
        <time>2020-12-20T09:20:46.578000+00:00</time>
      </trkpt>
      <trkpt lat="0" lon="0">
        <time>2020-12-20T09:20:46.590000+00:00</time>
      </trkpt>
      <trkpt lat="0" lon="0">
        <time>2020-12-20T09:20:46.594000+00:00</time>
      </trkpt>
      <trkpt lat="0" lon="0">
        <time>2020-12-20T09:20:46.596000+00:00</time>
      </trkpt>
      <trkpt lat="47.33217" lon="-1.24394">
        <ele>116</ele>
        <time>2020-12-20T09:20:47.628000+00:00</time>
      </trkpt>
      <trkpt lat="0" lon="0">
        <time>2020-12-20T09:20:47.636000+00:00</time>
      </trkpt>
      <trkpt lat="0" lon="0">
        <time>2020-12-20T09:20:47.646000+00:00</time>
      </trkpt>
      <trkpt lat="0" lon="0">
        <time>2020-12-20T09:20:47.656000+00:00</time>
      </trkpt>
      <trkpt lat="47.33218" lon="-1.24389">
        <ele>116</ele>
        <time>2020-12-20T09:20:48.592000+00:00</time>
      </trkpt>
      <trkpt lat="0" lon="0">
        <time>2020-12-20T09:20:48.598000+00:00</time>
      </trkpt>
      <trkpt lat="0" lon="0">
        <time>2020-12-20T09:20:48.602000+00:00</time>
      </trkpt>
      <trkpt lat="0" lon="0">
        <time>2020-12-20T09:20:48.608000+00:00</time>
      </trkpt>
      <trkpt lat="47.33219" lon="-1.24384">
        <ele>115</ele>
        <time>2020-12-20T09:20:49.591000+00:00</time>
      </trkpt>
      <trkpt lat="0" lon="0">
        <time>2020-12-20T09:20:49.601000+00:00</time>
      </trkpt>
      <trkpt lat="0" lon="0">
        <time>2020-12-20T09:20:49.613000+00:00</time>
      </trkpt>
      <trkpt lat="0" lon="0">
        <time>2020-12-20T09:20:49.615000+00:00</time>
      </trkpt>
      <trkpt lat="47.33218" lon="-1.24378">
        <ele>115</ele>
        <time>2020-12-20T09:20:50.600000+00:00</time>
      </trkpt>
      <trkpt lat="0" lon="0">
        <time>2020-12-20T09:20:50.607000+00:00</time>
      </trkpt>
      <trkpt lat="0" lon="0">
        <time>2020-12-20T09:20:50.614000+00:00</time>
      </trkpt>
      <trkpt lat="0" lon="0">
        <time>2020-12-20T09:20:50.617000+00:00</time>
      </trkpt>
      <trkpt lat="47.33218" lon="-1.24373">
        <ele>115</ele>
        <time>2020-12-20T09:20:51.615000+00:00</time>
      </trkpt>
      <trkpt lat="0" lon="0">
        <time>2020-12-20T09:20:51.625000+00:00</time>
      </trkpt>
      <trkpt lat="0" lon="0">
        <time>2020-12-20T09:20:51.630000+00:00</time>
      </trkpt>
      <trkpt lat="0" lon="0">
        <time>2020-12-20T09:20:51.632000+00:00</time>
      </trkpt>
      <trkpt lat="47.33216" lon="-1.24368">
        <ele>114</ele>
        <time>2020-12-20T09:20:52.611000+00:00</time>
      </trkpt>
      <trkpt lat="0" lon="0">
        <time>2020-12-20T09:20:52.617000+00:00</time>
      </trkpt>
      <trkpt lat="0" lon="0">
        <time>2020-12-20T09:20:52.626000+00:00</time>
      </trkpt>
      <trkpt lat="0" lon="0">
        <time>2020-12-20T09:20:52.629000+00:00</time>
      </trkpt>
      <trkpt lat="47.33214" lon="-1.24362">
        <ele>114</ele>
        <time>2020-12-20T09:20:53.580000+00:00</time>
      </trkpt>
      <trkpt lat="0" lon="0">
        <time>2020-12-20T09:20:53.589000+00:00</time>
      </trkpt>
      <trkpt lat="0" lon="0">
        <time>2020-12-20T09:20:53.601000+00:00</time>
      </trkpt>
      <trkpt lat="0" lon="0">
        <time>2020-12-20T09:20:53.607000+00:00</time>
      </trkpt>
      <trkpt lat="47.33212" lon="-1.24357">
        <ele>114</ele>
        <time>2020-12-20T09:20:54.589000+00:00</time>
      </trkpt>
      <trkpt lat="0" lon="0">
        <time>2020-12-20T09:20:54.600000+00:00</time>
      </trkpt>
      <trkpt lat="0" lon="0">
        <time>2020-12-20T09:20:54.605000+00:00</time>
      </trkpt>
      <trkpt lat="0" lon="0">
        <time>2020-12-20T09:20:54.607000+00:00</time>
      </trkpt>
      <trkpt lat="47.3321" lon="-1.24351">
        <ele>113</ele>
        <time>2020-12-20T09:20:55.612000+00:00</time>
      </trkpt>
      <trkpt lat="0" lon="0">
        <time>2020-12-20T09:20:55.622000+00:00</time>
      </trkpt>
      <trkpt lat="0" lon="0">
        <time>2020-12-20T09:20:55.627000+00:00</time>
      </trkpt>
      <trkpt lat="0" lon="0">
        <time>2020-12-20T09:20:55.630000+00:00</time>
      </trkpt>
      <trkpt lat="47.33208" lon="-1.24345">
        <ele>113</ele>
        <time>2020-12-20T09:20:56.613000+00:00</time>
      </trkpt>
      <trkpt lat="0" lon="0">
        <time>2020-12-20T09:20:56.637000+00:00</time>
      </trkpt>
      <trkpt lat="0" lon="0">
        <time>2020-12-20T09:20:56.641000+00:00</time>
      </trkpt>
      <trkpt lat="0" lon="0">
        <time>2020-12-20T09:20:56.643000+00:00</time>
      </trkpt>
      <trkpt lat="47.33206" lon="-1.24338">
        <ele>113</ele>
        <time>2020-12-20T09:20:57.591000+00:00</time>
      </trkpt>
      <trkpt lat="0" lon="0">
        <time>2020-12-20T09:20:57.610000+00:00</time>
      </trkpt>
      <trkpt lat="0" lon="0">
        <time>2020-12-20T09:20:57.618000+00:00</time>
      </trkpt>
      <trkpt lat="0" lon="0">
        <time>2020-12-20T09:20:57.620000+00:00</time>
      </trkpt>
      <trkpt lat="47.33203" lon="-1.24331">
        <ele>114</ele>
        <time>2020-12-20T09:20:58.543000+00:00</time>
      </trkpt>
      <trkpt lat="0" lon="0">
        <time>2020-12-20T09:20:58.546000+00:00</time>
      </trkpt>
      <trkpt lat="0" lon="0">
        <time>2020-12-20T09:20:58.551000+00:00</time>
      </trkpt>
      <trkpt lat="0" lon="0">
        <time>2020-12-20T09:20:58.552000+00:00</time>
      </trkpt>
      <trkpt lat="47.33201" lon="-1.24323">
        <ele>114</ele>
        <time>2020-12-20T09:20:59.595000+00:00</time>
      </trkpt>
      <trkpt lat="0" lon="0">
        <time>2020-12-20T09:20:59.603000+00:00</time>
      </trkpt>
      <trkpt lat="0" lon="0">
        <time>2020-12-20T09:20:59.608000+00:00</time>
      </trkpt>
      <trkpt lat="0" lon="0">
        <time>2020-12-20T09:20:59.612000+00:00</time>
      </trkpt>
      <trkpt lat="47.33199" lon="-1.24315">
        <ele>114</ele>
        <time>2020-12-20T09:21:00.623000+00:00</time>
      </trkpt>
      <trkpt lat="0" lon="0">
        <time>2020-12-20T09:21:00.632000+00:00</time>
      </trkpt>
      <trkpt lat="0" lon="0">
        <time>2020-12-20T09:21:00.636000+00:00</time>
      </trkpt>
      <trkpt lat="0" lon="0">
        <time>2020-12-20T09:21:00.639000+00:00</time>
      </trkpt>
      <trkpt lat="47.33198" lon="-1.24307">
        <ele>114</ele>
        <time>2020-12-20T09:21:01.585000+00:00</time>
      </trkpt>
      <trkpt lat="0" lon="0">
        <time>2020-12-20T09:21:01.602000+00:00</time>
      </trkpt>
      <trkpt lat="0" lon="0">
        <time>2020-12-20T09:21:01.612000+00:00</time>
      </trkpt>
      <trkpt lat="0" lon="0">
        <time>2020-12-20T09:21:01.620000+00:00</time>
      </trkpt>
      <trkpt lat="47.33196" lon="-1.24299">
        <ele>114</ele>
        <time>2020-12-20T09:21:02.588000+00:00</time>
      </trkpt>
      <trkpt lat="0" lon="0">
        <time>2020-12-20T09:21:02.594000+00:00</time>
      </trkpt>
      <trkpt lat="0" lon="0">
        <time>2020-12-20T09:21:02.601000+00:00</time>
      </trkpt>
      <trkpt lat="0" lon="0">
        <time>2020-12-20T09:21:02.606000+00:00</time>
      </trkpt>
      <trkpt lat="47.33194" lon="-1.2429">
        <ele>114</ele>
        <time>2020-12-20T09:21:03.573000+00:00</time>
      </trkpt>
      <trkpt lat="0" lon="0">
        <time>2020-12-20T09:21:03.579000+00:00</time>
      </trkpt>
      <trkpt lat="0" lon="0">
        <time>2020-12-20T09:21:03.583000+00:00</time>
      </trkpt>
      <trkpt lat="0" lon="0">
        <time>2020-12-20T09:21:03.586000+00:00</time>
      </trkpt>
      <trkpt lat="47.33193" lon="-1.24282">
        <ele>114</ele>
        <time>2020-12-20T09:21:04.587000+00:00</time>
      </trkpt>
      <trkpt lat="0" lon="0">
        <time>2020-12-20T09:21:04.604000+00:00</time>
      </trkpt>
      <trkpt lat="0" lon="0">
        <time>2020-12-20T09:21:04.611000+00:00</time>
      </trkpt>
      <trkpt lat="0" lon="0">
        <time>2020-12-20T09:21:04.613000+00:00</time>
      </trkpt>
      <trkpt lat="47.33192" lon="-1.24273">
        <ele>115</ele>
        <time>2020-12-20T09:21:05.611000+00:00</time>
      </trkpt>
      <trkpt lat="0" lon="0">
        <time>2020-12-20T09:21:05.620000+00:00</time>
      </trkpt>
      <trkpt lat="0" lon="0">
        <time>2020-12-20T09:21:05.630000+00:00</time>
      </trkpt>
      <trkpt lat="0" lon="0">
        <time>2020-12-20T09:21:05.633000+00:00</time>
      </trkpt>
      <trkpt lat="47.33191" lon="-1.24265">
        <ele>115</ele>
        <time>2020-12-20T09:21:06.581000+00:00</time>
      </trkpt>
      <trkpt lat="0" lon="0">
        <time>2020-12-20T09:21:06.598000+00:00</time>
      </trkpt>
      <trkpt lat="0" lon="0">
        <time>2020-12-20T09:21:06.603000+00:00</time>
      </trkpt>
      <trkpt lat="0" lon="0">
        <time>2020-12-20T09:21:06.608000+00:00</time>
      </trkpt>
      <trkpt lat="47.33191" lon="-1.24257">
        <ele>115</ele>
        <time>2020-12-20T09:21:07.604000+00:00</time>
      </trkpt>
      <trkpt lat="0" lon="0">
        <time>2020-12-20T09:21:07.610000+00:00</time>
      </trkpt>
      <trkpt lat="0" lon="0">
        <time>2020-12-20T09:21:07.615000+00:00</time>
      </trkpt>
      <trkpt lat="0" lon="0">
        <time>2020-12-20T09:21:07.618000+00:00</time>
      </trkpt>
      <trkpt lat="47.33192" lon="-1.2425">
        <ele>116</ele>
        <time>2020-12-20T09:21:08.606000+00:00</time>
      </trkpt>
      <trkpt lat="0" lon="0">
        <time>2020-12-20T09:21:08.622000+00:00</time>
      </trkpt>
      <trkpt lat="0" lon="0">
        <time>2020-12-20T09:21:08.626000+00:00</time>
      </trkpt>
      <trkpt lat="0" lon="0">
        <time>2020-12-20T09:21:08.633000+00:00</time>
      </trkpt>
      <trkpt lat="47.33194" lon="-1.24243">
        <ele>116</ele>
        <time>2020-12-20T09:21:09.614000+00:00</time>
      </trkpt>
      <trkpt lat="0" lon="0">
        <time>2020-12-20T09:21:09.619000+00:00</time>
      </trkpt>
      <trkpt lat="0" lon="0">
        <time>2020-12-20T09:21:09.621000+00:00</time>
      </trkpt>
      <trkpt lat="0" lon="0">
        <time>2020-12-20T09:21:09.622000+00:00</time>
      </trkpt>
      <trkpt lat="47.33196" lon="-1.24237">
        <ele>117</ele>
        <time>2020-12-20T09:21:10.585000+00:00</time>
      </trkpt>
      <trkpt lat="0" lon="0">
        <time>2020-12-20T09:21:10.601000+00:00</time>
      </trkpt>
      <trkpt lat="0" lon="0">
        <time>2020-12-20T09:21:10.608000+00:00</time>
      </trkpt>
      <trkpt lat="0" lon="0">
        <time>2020-12-20T09:21:10.613000+00:00</time>
      </trkpt>
      <trkpt lat="47.332" lon="-1.24232">
        <ele>117</ele>
        <time>2020-12-20T09:21:11.611000+00:00</time>
      </trkpt>
      <trkpt lat="0" lon="0">
        <time>2020-12-20T09:21:11.622000+00:00</time>
      </trkpt>
      <trkpt lat="0" lon="0">
        <time>2020-12-20T09:21:11.629000+00:00</time>
      </trkpt>
      <trkpt lat="0" lon="0">
        <time>2020-12-20T09:21:11.632000+00:00</time>
      </trkpt>
      <trkpt lat="47.33203" lon="-1.24227">
        <ele>117</ele>
        <time>2020-12-20T09:21:12.592000+00:00</time>
      </trkpt>
      <trkpt lat="0" lon="0">
        <time>2020-12-20T09:21:12.606000+00:00</time>
      </trkpt>
      <trkpt lat="0" lon="0">
        <time>2020-12-20T09:21:12.616000+00:00</time>
      </trkpt>
      <trkpt lat="0" lon="0">
        <time>2020-12-20T09:21:12.620000+00:00</time>
      </trkpt>
      <trkpt lat="47.33208" lon="-1.24223">
        <ele>117</ele>
        <time>2020-12-20T09:21:13.561000+00:00</time>
      </trkpt>
      <trkpt lat="0" lon="0">
        <time>2020-12-20T09:21:13.583000+00:00</time>
      </trkpt>
      <trkpt lat="0" lon="0">
        <time>2020-12-20T09:21:13.586000+00:00</time>
      </trkpt>
      <trkpt lat="0" lon="0">
        <time>2020-12-20T09:21:13.589000+00:00</time>
      </trkpt>
      <trkpt lat="47.33212" lon="-1.24219">
        <ele>117</ele>
        <time>2020-12-20T09:21:14.599000+00:00</time>
      </trkpt>
      <trkpt lat="0" lon="0">
        <time>2020-12-20T09:21:14.605000+00:00</time>
      </trkpt>
      <trkpt lat="0" lon="0">
        <time>2020-12-20T09:21:14.610000+00:00</time>
      </trkpt>
      <trkpt lat="0" lon="0">
        <time>2020-12-20T09:21:14.612000+00:00</time>
      </trkpt>
      <trkpt lat="47.33217" lon="-1.24216">
        <ele>117</ele>
        <time>2020-12-20T09:21:15.595000+00:00</time>
      </trkpt>
      <trkpt lat="0" lon="0">
        <time>2020-12-20T09:21:15.600000+00:00</time>
      </trkpt>
      <trkpt lat="0" lon="0">
        <time>2020-12-20T09:21:15.611000+00:00</time>
      </trkpt>
      <trkpt lat="0" lon="0">
        <time>2020-12-20T09:21:15.612000+00:00</time>
      </trkpt>
      <trkpt lat="47.33221" lon="-1.24213">
        <ele>117</ele>
        <time>2020-12-20T09:21:16.583000+00:00</time>
      </trkpt>
      <trkpt lat="0" lon="0">
        <time>2020-12-20T09:21:16.593000+00:00</time>
      </trkpt>
      <trkpt lat="0" lon="0">
        <time>2020-12-20T09:21:16.600000+00:00</time>
      </trkpt>
      <trkpt lat="0" lon="0">
        <time>2020-12-20T09:21:16.603000+00:00</time>
      </trkpt>
      <trkpt lat="47.33226" lon="-1.2421">
        <ele>117</ele>
        <time>2020-12-20T09:21:17.597000+00:00</time>
      </trkpt>
      <trkpt lat="0" lon="0">
        <time>2020-12-20T09:21:17.608000+00:00</time>
      </trkpt>
      <trkpt lat="0" lon="0">
        <time>2020-12-20T09:21:17.612000+00:00</time>
      </trkpt>
      <trkpt lat="0" lon="0">
        <time>2020-12-20T09:21:17.619000+00:00</time>
      </trkpt>
      <trkpt lat="47.33231" lon="-1.24207">
        <ele>117</ele>
        <time>2020-12-20T09:21:18.573000+00:00</time>
      </trkpt>
      <trkpt lat="0" lon="0">
        <time>2020-12-20T09:21:18.579000+00:00</time>
      </trkpt>
      <trkpt lat="0" lon="0">
        <time>2020-12-20T09:21:18.585000+00:00</time>
      </trkpt>
      <trkpt lat="0" lon="0">
        <time>2020-12-20T09:21:18.588000+00:00</time>
      </trkpt>
      <trkpt lat="47.33236" lon="-1.24205">
        <ele>117</ele>
        <time>2020-12-20T09:21:19.586000+00:00</time>
      </trkpt>
      <trkpt lat="0" lon="0">
        <time>2020-12-20T09:21:19.597000+00:00</time>
      </trkpt>
      <trkpt lat="0" lon="0">
        <time>2020-12-20T09:21:19.603000+00:00</time>
      </trkpt>
      <trkpt lat="0" lon="0">
        <time>2020-12-20T09:21:19.611000+00:00</time>
      </trkpt>
      <trkpt lat="47.33242" lon="-1.24202">
        <ele>118</ele>
        <time>2020-12-20T09:21:20.605000+00:00</time>
      </trkpt>
      <trkpt lat="0" lon="0">
        <time>2020-12-20T09:21:20.629000+00:00</time>
      </trkpt>
      <trkpt lat="0" lon="0">
        <time>2020-12-20T09:21:20.637000+00:00</time>
      </trkpt>
      <trkpt lat="0" lon="0">
        <time>2020-12-20T09:21:20.639000+00:00</time>
      </trkpt>
      <trkpt lat="47.33247" lon="-1.24199">
        <ele>118</ele>
        <time>2020-12-20T09:21:21.605000+00:00</time>
      </trkpt>
      <trkpt lat="0" lon="0">
        <time>2020-12-20T09:21:21.621000+00:00</time>
      </trkpt>
      <trkpt lat="0" lon="0">
        <time>2020-12-20T09:21:21.627000+00:00</time>
      </trkpt>
      <trkpt lat="0" lon="0">
        <time>2020-12-20T09:21:21.632000+00:00</time>
      </trkpt>
      <trkpt lat="47.33252" lon="-1.24196">
        <ele>118</ele>
        <time>2020-12-20T09:21:22.619000+00:00</time>
      </trkpt>
      <trkpt lat="0" lon="0">
        <time>2020-12-20T09:21:22.637000+00:00</time>
      </trkpt>
      <trkpt lat="0" lon="0">
        <time>2020-12-20T09:21:22.644000+00:00</time>
      </trkpt>
      <trkpt lat="0" lon="0">
        <time>2020-12-20T09:21:22.646000+00:00</time>
      </trkpt>
      <trkpt lat="47.33257" lon="-1.24193">
        <ele>118</ele>
        <time>2020-12-20T09:21:23.598000+00:00</time>
      </trkpt>
      <trkpt lat="0" lon="0">
        <time>2020-12-20T09:21:23.611000+00:00</time>
      </trkpt>
      <trkpt lat="0" lon="0">
        <time>2020-12-20T09:21:23.615000+00:00</time>
      </trkpt>
      <trkpt lat="0" lon="0">
        <time>2020-12-20T09:21:23.617000+00:00</time>
      </trkpt>
      <trkpt lat="47.33263" lon="-1.2419">
        <ele>118</ele>
        <time>2020-12-20T09:21:24.598000+00:00</time>
      </trkpt>
      <trkpt lat="0" lon="0">
        <time>2020-12-20T09:21:24.605000+00:00</time>
      </trkpt>
      <trkpt lat="0" lon="0">
        <time>2020-12-20T09:21:24.625000+00:00</time>
      </trkpt>
      <trkpt lat="0" lon="0">
        <time>2020-12-20T09:21:24.627000+00:00</time>
      </trkpt>
      <trkpt lat="47.33268" lon="-1.24187">
        <ele>117</ele>
        <time>2020-12-20T09:21:25.602000+00:00</time>
      </trkpt>
      <trkpt lat="0" lon="0">
        <time>2020-12-20T09:21:25.617000+00:00</time>
      </trkpt>
      <trkpt lat="0" lon="0">
        <time>2020-12-20T09:21:25.625000+00:00</time>
      </trkpt>
      <trkpt lat="0" lon="0">
        <time>2020-12-20T09:21:25.628000+00:00</time>
      </trkpt>
      <trkpt lat="47.33273" lon="-1.24183">
        <ele>117</ele>
        <time>2020-12-20T09:21:26.606000+00:00</time>
      </trkpt>
      <trkpt lat="0" lon="0">
        <time>2020-12-20T09:21:26.608000+00:00</time>
      </trkpt>
      <trkpt lat="0" lon="0">
        <time>2020-12-20T09:21:26.610000+00:00</time>
      </trkpt>
      <trkpt lat="0" lon="0">
        <time>2020-12-20T09:21:26.612000+00:00</time>
      </trkpt>
      <trkpt lat="47.33279" lon="-1.24179">
        <ele>117</ele>
        <time>2020-12-20T09:21:27.526000+00:00</time>
      </trkpt>
      <trkpt lat="0" lon="0">
        <time>2020-12-20T09:21:27.531000+00:00</time>
      </trkpt>
      <trkpt lat="0" lon="0">
        <time>2020-12-20T09:21:27.543000+00:00</time>
      </trkpt>
      <trkpt lat="0" lon="0">
        <time>2020-12-20T09:21:27.545000+00:00</time>
      </trkpt>
      <trkpt lat="47.33284" lon="-1.24175">
        <ele>117</ele>
        <time>2020-12-20T09:21:28.557000+00:00</time>
      </trkpt>
      <trkpt lat="0" lon="0">
        <time>2020-12-20T09:21:28.563000+00:00</time>
      </trkpt>
      <trkpt lat="0" lon="0">
        <time>2020-12-20T09:21:28.566000+00:00</time>
      </trkpt>
      <trkpt lat="0" lon="0">
        <time>2020-12-20T09:21:28.569000+00:00</time>
      </trkpt>
      <trkpt lat="47.3329" lon="-1.24171">
        <ele>117</ele>
        <time>2020-12-20T09:21:29.601000+00:00</time>
      </trkpt>
      <trkpt lat="0" lon="0">
        <time>2020-12-20T09:21:29.615000+00:00</time>
      </trkpt>
      <trkpt lat="0" lon="0">
        <time>2020-12-20T09:21:29.621000+00:00</time>
      </trkpt>
      <trkpt lat="0" lon="0">
        <time>2020-12-20T09:21:29.624000+00:00</time>
      </trkpt>
      <trkpt lat="47.33295" lon="-1.24166">
        <ele>118</ele>
        <time>2020-12-20T09:21:30.577000+00:00</time>
      </trkpt>
      <trkpt lat="0" lon="0">
        <time>2020-12-20T09:21:30.585000+00:00</time>
      </trkpt>
      <trkpt lat="0" lon="0">
        <time>2020-12-20T09:21:30.588000+00:00</time>
      </trkpt>
      <trkpt lat="0" lon="0">
        <time>2020-12-20T09:21:30.590000+00:00</time>
      </trkpt>
      <trkpt lat="47.333" lon="-1.24161">
        <ele>118</ele>
        <time>2020-12-20T09:21:31.604000+00:00</time>
      </trkpt>
      <trkpt lat="0" lon="0">
        <time>2020-12-20T09:21:31.616000+00:00</time>
      </trkpt>
      <trkpt lat="0" lon="0">
        <time>2020-12-20T09:21:31.620000+00:00</time>
      </trkpt>
      <trkpt lat="0" lon="0">
        <time>2020-12-20T09:21:31.622000+00:00</time>
      </trkpt>
      <trkpt lat="47.33305" lon="-1.24157">
        <ele>117</ele>
        <time>2020-12-20T09:21:32.581000+00:00</time>
      </trkpt>
      <trkpt lat="0" lon="0">
        <time>2020-12-20T09:21:32.595000+00:00</time>
      </trkpt>
      <trkpt lat="0" lon="0">
        <time>2020-12-20T09:21:32.599000+00:00</time>
      </trkpt>
      <trkpt lat="0" lon="0">
        <time>2020-12-20T09:21:32.602000+00:00</time>
      </trkpt>
      <trkpt lat="47.3331" lon="-1.24154">
        <ele>117</ele>
        <time>2020-12-20T09:21:33.595000+00:00</time>
      </trkpt>
      <trkpt lat="0" lon="0">
        <time>2020-12-20T09:21:33.605000+00:00</time>
      </trkpt>
      <trkpt lat="0" lon="0">
        <time>2020-12-20T09:21:33.621000+00:00</time>
      </trkpt>
      <trkpt lat="0" lon="0">
        <time>2020-12-20T09:21:33.623000+00:00</time>
      </trkpt>
      <trkpt lat="47.33315" lon="-1.24153">
        <ele>117</ele>
        <time>2020-12-20T09:21:34.592000+00:00</time>
      </trkpt>
      <trkpt lat="0" lon="0">
        <time>2020-12-20T09:21:34.607000+00:00</time>
      </trkpt>
      <trkpt lat="0" lon="0">
        <time>2020-12-20T09:21:34.621000+00:00</time>
      </trkpt>
      <trkpt lat="0" lon="0">
        <time>2020-12-20T09:21:34.623000+00:00</time>
      </trkpt>
      <trkpt lat="47.3332" lon="-1.24153">
        <ele>117</ele>
        <time>2020-12-20T09:21:35.582000+00:00</time>
      </trkpt>
      <trkpt lat="0" lon="0">
        <time>2020-12-20T09:21:35.586000+00:00</time>
      </trkpt>
      <trkpt lat="0" lon="0">
        <time>2020-12-20T09:21:35.596000+00:00</time>
      </trkpt>
      <trkpt lat="0" lon="0">
        <time>2020-12-20T09:21:35.599000+00:00</time>
      </trkpt>
      <trkpt lat="47.33325" lon="-1.24155">
        <ele>117</ele>
        <time>2020-12-20T09:21:36.601000+00:00</time>
      </trkpt>
      <trkpt lat="0" lon="0">
        <time>2020-12-20T09:21:36.617000+00:00</time>
      </trkpt>
      <trkpt lat="0" lon="0">
        <time>2020-12-20T09:21:36.621000+00:00</time>
      </trkpt>
      <trkpt lat="0" lon="0">
        <time>2020-12-20T09:21:36.623000+00:00</time>
      </trkpt>
      <trkpt lat="47.3333" lon="-1.24157">
        <ele>116</ele>
        <time>2020-12-20T09:21:37.603000+00:00</time>
      </trkpt>
      <trkpt lat="0" lon="0">
        <time>2020-12-20T09:21:37.611000+00:00</time>
      </trkpt>
      <trkpt lat="0" lon="0">
        <time>2020-12-20T09:21:37.615000+00:00</time>
      </trkpt>
      <trkpt lat="0" lon="0">
        <time>2020-12-20T09:21:37.617000+00:00</time>
      </trkpt>
      <trkpt lat="47.33336" lon="-1.24159">
        <ele>116</ele>
        <time>2020-12-20T09:21:38.625000+00:00</time>
      </trkpt>
      <trkpt lat="0" lon="0">
        <time>2020-12-20T09:21:38.631000+00:00</time>
      </trkpt>
      <trkpt lat="0" lon="0">
        <time>2020-12-20T09:21:38.654000+00:00</time>
      </trkpt>
      <trkpt lat="0" lon="0">
        <time>2020-12-20T09:21:38.663000+00:00</time>
      </trkpt>
      <trkpt lat="47.33341" lon="-1.24161">
        <ele>115</ele>
        <time>2020-12-20T09:21:39.586000+00:00</time>
      </trkpt>
      <trkpt lat="0" lon="0">
        <time>2020-12-20T09:21:39.591000+00:00</time>
      </trkpt>
      <trkpt lat="0" lon="0">
        <time>2020-12-20T09:21:39.603000+00:00</time>
      </trkpt>
      <trkpt lat="0" lon="0">
        <time>2020-12-20T09:21:39.606000+00:00</time>
      </trkpt>
      <trkpt lat="47.33347" lon="-1.24162">
        <ele>115</ele>
        <time>2020-12-20T09:21:40.622000+00:00</time>
      </trkpt>
      <trkpt lat="0" lon="0">
        <time>2020-12-20T09:21:40.637000+00:00</time>
      </trkpt>
      <trkpt lat="0" lon="0">
        <time>2020-12-20T09:21:40.642000+00:00</time>
      </trkpt>
      <trkpt lat="0" lon="0">
        <time>2020-12-20T09:21:40.645000+00:00</time>
      </trkpt>
      <trkpt lat="47.33353" lon="-1.24164">
        <ele>115</ele>
        <time>2020-12-20T09:21:41.588000+00:00</time>
      </trkpt>
      <trkpt lat="0" lon="0">
        <time>2020-12-20T09:21:41.594000+00:00</time>
      </trkpt>
      <trkpt lat="0" lon="0">
        <time>2020-12-20T09:21:41.598000+00:00</time>
      </trkpt>
      <trkpt lat="0" lon="0">
        <time>2020-12-20T09:21:41.601000+00:00</time>
      </trkpt>
      <trkpt lat="47.33359" lon="-1.24164">
        <ele>115</ele>
        <time>2020-12-20T09:21:42.589000+00:00</time>
      </trkpt>
      <trkpt lat="0" lon="0">
        <time>2020-12-20T09:21:42.593000+00:00</time>
      </trkpt>
      <trkpt lat="0" lon="0">
        <time>2020-12-20T09:21:42.610000+00:00</time>
      </trkpt>
      <trkpt lat="0" lon="0">
        <time>2020-12-20T09:21:42.611000+00:00</time>
      </trkpt>
      <trkpt lat="47.33364" lon="-1.24165">
        <ele>115</ele>
        <time>2020-12-20T09:21:43.588000+00:00</time>
      </trkpt>
      <trkpt lat="0" lon="0">
        <time>2020-12-20T09:21:43.601000+00:00</time>
      </trkpt>
      <trkpt lat="0" lon="0">
        <time>2020-12-20T09:21:43.605000+00:00</time>
      </trkpt>
      <trkpt lat="0" lon="0">
        <time>2020-12-20T09:21:43.607000+00:00</time>
      </trkpt>
      <trkpt lat="47.3337" lon="-1.24165">
        <ele>114</ele>
        <time>2020-12-20T09:21:44.561000+00:00</time>
      </trkpt>
      <trkpt lat="0" lon="0">
        <time>2020-12-20T09:21:44.570000+00:00</time>
      </trkpt>
      <trkpt lat="0" lon="0">
        <time>2020-12-20T09:21:44.578000+00:00</time>
      </trkpt>
      <trkpt lat="0" lon="0">
        <time>2020-12-20T09:21:44.580000+00:00</time>
      </trkpt>
      <trkpt lat="47.33375" lon="-1.24166">
        <ele>115</ele>
        <time>2020-12-20T09:21:45.603000+00:00</time>
      </trkpt>
      <trkpt lat="0" lon="0">
        <time>2020-12-20T09:21:45.613000+00:00</time>
      </trkpt>
      <trkpt lat="0" lon="0">
        <time>2020-12-20T09:21:45.620000+00:00</time>
      </trkpt>
      <trkpt lat="0" lon="0">
        <time>2020-12-20T09:21:45.623000+00:00</time>
      </trkpt>
      <trkpt lat="47.33381" lon="-1.24169">
        <ele>115</ele>
        <time>2020-12-20T09:21:46.597000+00:00</time>
      </trkpt>
      <trkpt lat="0" lon="0">
        <time>2020-12-20T09:21:46.619000+00:00</time>
      </trkpt>
      <trkpt lat="0" lon="0">
        <time>2020-12-20T09:21:46.624000+00:00</time>
      </trkpt>
      <trkpt lat="0" lon="0">
        <time>2020-12-20T09:21:46.630000+00:00</time>
      </trkpt>
      <trkpt lat="47.33387" lon="-1.24171">
        <ele>114</ele>
        <time>2020-12-20T09:21:47.591000+00:00</time>
      </trkpt>
      <trkpt lat="0" lon="0">
        <time>2020-12-20T09:21:47.608000+00:00</time>
      </trkpt>
      <trkpt lat="0" lon="0">
        <time>2020-12-20T09:21:47.612000+00:00</time>
      </trkpt>
      <trkpt lat="0" lon="0">
        <time>2020-12-20T09:21:47.614000+00:00</time>
      </trkpt>
      <trkpt lat="47.33394" lon="-1.24174">
        <ele>114</ele>
        <time>2020-12-20T09:21:48.573000+00:00</time>
      </trkpt>
      <trkpt lat="0" lon="0">
        <time>2020-12-20T09:21:48.580000+00:00</time>
      </trkpt>
      <trkpt lat="0" lon="0">
        <time>2020-12-20T09:21:48.591000+00:00</time>
      </trkpt>
      <trkpt lat="0" lon="0">
        <time>2020-12-20T09:21:48.593000+00:00</time>
      </trkpt>
      <trkpt lat="47.334" lon="-1.24177">
        <ele>113</ele>
        <time>2020-12-20T09:21:49.549000+00:00</time>
      </trkpt>
      <trkpt lat="0" lon="0">
        <time>2020-12-20T09:21:49.559000+00:00</time>
      </trkpt>
      <trkpt lat="0" lon="0">
        <time>2020-12-20T09:21:49.563000+00:00</time>
      </trkpt>
      <trkpt lat="0" lon="0">
        <time>2020-12-20T09:21:49.570000+00:00</time>
      </trkpt>
      <trkpt lat="47.33405" lon="-1.24178">
        <ele>113</ele>
        <time>2020-12-20T09:21:50.574000+00:00</time>
      </trkpt>
      <trkpt lat="0" lon="0">
        <time>2020-12-20T09:21:50.590000+00:00</time>
      </trkpt>
      <trkpt lat="0" lon="0">
        <time>2020-12-20T09:21:50.598000+00:00</time>
      </trkpt>
      <trkpt lat="0" lon="0">
        <time>2020-12-20T09:21:50.601000+00:00</time>
      </trkpt>
      <trkpt lat="47.33411" lon="-1.24178">
        <ele>113</ele>
        <time>2020-12-20T09:21:51.604000+00:00</time>
      </trkpt>
      <trkpt lat="0" lon="0">
        <time>2020-12-20T09:21:51.613000+00:00</time>
      </trkpt>
      <trkpt lat="0" lon="0">
        <time>2020-12-20T09:21:51.620000+00:00</time>
      </trkpt>
      <trkpt lat="0" lon="0">
        <time>2020-12-20T09:21:51.622000+00:00</time>
      </trkpt>
      <trkpt lat="47.33417" lon="-1.24178">
        <ele>112</ele>
        <time>2020-12-20T09:21:52.600000+00:00</time>
      </trkpt>
      <trkpt lat="0" lon="0">
        <time>2020-12-20T09:21:52.607000+00:00</time>
      </trkpt>
      <trkpt lat="0" lon="0">
        <time>2020-12-20T09:21:52.612000+00:00</time>
      </trkpt>
      <trkpt lat="0" lon="0">
        <time>2020-12-20T09:21:52.614000+00:00</time>
      </trkpt>
      <trkpt lat="47.33424" lon="-1.24176">
        <ele>111</ele>
        <time>2020-12-20T09:21:53.576000+00:00</time>
      </trkpt>
      <trkpt lat="0" lon="0">
        <time>2020-12-20T09:21:53.581000+00:00</time>
      </trkpt>
      <trkpt lat="0" lon="0">
        <time>2020-12-20T09:21:53.587000+00:00</time>
      </trkpt>
      <trkpt lat="0" lon="0">
        <time>2020-12-20T09:21:53.591000+00:00</time>
      </trkpt>
      <trkpt lat="47.3343" lon="-1.24173">
        <ele>110</ele>
        <time>2020-12-20T09:21:54.611000+00:00</time>
      </trkpt>
      <trkpt lat="0" lon="0">
        <time>2020-12-20T09:21:54.622000+00:00</time>
      </trkpt>
      <trkpt lat="0" lon="0">
        <time>2020-12-20T09:21:54.627000+00:00</time>
      </trkpt>
      <trkpt lat="0" lon="0">
        <time>2020-12-20T09:21:54.630000+00:00</time>
      </trkpt>
      <trkpt lat="47.33438" lon="-1.2417">
        <ele>109</ele>
        <time>2020-12-20T09:21:55.570000+00:00</time>
      </trkpt>
      <trkpt lat="0" lon="0">
        <time>2020-12-20T09:21:55.573000+00:00</time>
      </trkpt>
      <trkpt lat="0" lon="0">
        <time>2020-12-20T09:21:55.580000+00:00</time>
      </trkpt>
      <trkpt lat="0" lon="0">
        <time>2020-12-20T09:21:55.581000+00:00</time>
      </trkpt>
      <trkpt lat="47.33445" lon="-1.24166">
        <ele>107</ele>
        <time>2020-12-20T09:21:56.589000+00:00</time>
      </trkpt>
      <trkpt lat="0" lon="0">
        <time>2020-12-20T09:21:56.602000+00:00</time>
      </trkpt>
      <trkpt lat="0" lon="0">
        <time>2020-12-20T09:21:56.615000+00:00</time>
      </trkpt>
      <trkpt lat="0" lon="0">
        <time>2020-12-20T09:21:56.617000+00:00</time>
      </trkpt>
      <trkpt lat="47.33454" lon="-1.24161">
        <ele>106</ele>
        <time>2020-12-20T09:21:57.594000+00:00</time>
      </trkpt>
      <trkpt lat="0" lon="0">
        <time>2020-12-20T09:21:57.604000+00:00</time>
      </trkpt>
      <trkpt lat="0" lon="0">
        <time>2020-12-20T09:21:57.609000+00:00</time>
      </trkpt>
      <trkpt lat="0" lon="0">
        <time>2020-12-20T09:21:57.611000+00:00</time>
      </trkpt>
      <trkpt lat="47.33462" lon="-1.24156">
        <ele>105</ele>
        <time>2020-12-20T09:21:58.608000+00:00</time>
      </trkpt>
      <trkpt lat="0" lon="0">
        <time>2020-12-20T09:21:58.622000+00:00</time>
      </trkpt>
      <trkpt lat="0" lon="0">
        <time>2020-12-20T09:21:58.631000+00:00</time>
      </trkpt>
      <trkpt lat="0" lon="0">
        <time>2020-12-20T09:21:58.635000+00:00</time>
      </trkpt>
      <trkpt lat="47.33471" lon="-1.2415">
        <ele>104</ele>
        <time>2020-12-20T09:21:59.594000+00:00</time>
      </trkpt>
      <trkpt lat="0" lon="0">
        <time>2020-12-20T09:21:59.600000+00:00</time>
      </trkpt>
      <trkpt lat="0" lon="0">
        <time>2020-12-20T09:21:59.604000+00:00</time>
      </trkpt>
      <trkpt lat="0" lon="0">
        <time>2020-12-20T09:21:59.607000+00:00</time>
      </trkpt>
      <trkpt lat="47.33481" lon="-1.24143">
        <ele>103</ele>
        <time>2020-12-20T09:22:00.574000+00:00</time>
      </trkpt>
      <trkpt lat="0" lon="0">
        <time>2020-12-20T09:22:00.578000+00:00</time>
      </trkpt>
      <trkpt lat="0" lon="0">
        <time>2020-12-20T09:22:00.584000+00:00</time>
      </trkpt>
      <trkpt lat="0" lon="0">
        <time>2020-12-20T09:22:00.587000+00:00</time>
      </trkpt>
      <trkpt lat="47.3349" lon="-1.24137">
        <ele>101</ele>
        <time>2020-12-20T09:22:01.570000+00:00</time>
      </trkpt>
      <trkpt lat="0" lon="0">
        <time>2020-12-20T09:22:01.574000+00:00</time>
      </trkpt>
      <trkpt lat="0" lon="0">
        <time>2020-12-20T09:22:01.580000+00:00</time>
      </trkpt>
      <trkpt lat="0" lon="0">
        <time>2020-12-20T09:22:01.584000+00:00</time>
      </trkpt>
      <trkpt lat="47.335" lon="-1.2413">
        <ele>100</ele>
        <time>2020-12-20T09:22:02.594000+00:00</time>
      </trkpt>
      <trkpt lat="0" lon="0">
        <time>2020-12-20T09:22:02.599000+00:00</time>
      </trkpt>
      <trkpt lat="0" lon="0">
        <time>2020-12-20T09:22:02.603000+00:00</time>
      </trkpt>
      <trkpt lat="0" lon="0">
        <time>2020-12-20T09:22:02.612000+00:00</time>
      </trkpt>
      <trkpt lat="47.3351" lon="-1.24124">
        <ele>100</ele>
        <time>2020-12-20T09:22:03.554000+00:00</time>
      </trkpt>
      <trkpt lat="0" lon="0">
        <time>2020-12-20T09:22:03.565000+00:00</time>
      </trkpt>
      <trkpt lat="0" lon="0">
        <time>2020-12-20T09:22:03.569000+00:00</time>
      </trkpt>
      <trkpt lat="0" lon="0">
        <time>2020-12-20T09:22:03.571000+00:00</time>
      </trkpt>
      <trkpt lat="47.33521" lon="-1.24119">
        <ele>100</ele>
        <time>2020-12-20T09:22:04.586000+00:00</time>
      </trkpt>
      <trkpt lat="0" lon="0">
        <time>2020-12-20T09:22:04.621000+00:00</time>
      </trkpt>
      <trkpt lat="0" lon="0">
        <time>2020-12-20T09:22:04.628000+00:00</time>
      </trkpt>
      <trkpt lat="0" lon="0">
        <time>2020-12-20T09:22:04.630000+00:00</time>
      </trkpt>
      <trkpt lat="47.33531" lon="-1.24115">
        <ele>99</ele>
        <time>2020-12-20T09:22:05.576000+00:00</time>
      </trkpt>
      <trkpt lat="0" lon="0">
        <time>2020-12-20T09:22:05.592000+00:00</time>
      </trkpt>
      <trkpt lat="0" lon="0">
        <time>2020-12-20T09:22:05.596000+00:00</time>
      </trkpt>
      <trkpt lat="0" lon="0">
        <time>2020-12-20T09:22:05.598000+00:00</time>
      </trkpt>
      <trkpt lat="47.33541" lon="-1.24111">
        <ele>98</ele>
        <time>2020-12-20T09:22:06.573000+00:00</time>
      </trkpt>
      <trkpt lat="0" lon="0">
        <time>2020-12-20T09:22:06.597000+00:00</time>
      </trkpt>
      <trkpt lat="0" lon="0">
        <time>2020-12-20T09:22:06.609000+00:00</time>
      </trkpt>
      <trkpt lat="0" lon="0">
        <time>2020-12-20T09:22:06.614000+00:00</time>
      </trkpt>
      <trkpt lat="47.3355" lon="-1.24109">
        <ele>97</ele>
        <time>2020-12-20T09:22:07.587000+00:00</time>
      </trkpt>
      <trkpt lat="0" lon="0">
        <time>2020-12-20T09:22:07.591000+00:00</time>
      </trkpt>
      <trkpt lat="0" lon="0">
        <time>2020-12-20T09:22:07.598000+00:00</time>
      </trkpt>
      <trkpt lat="0" lon="0">
        <time>2020-12-20T09:22:07.599000+00:00</time>
      </trkpt>
      <trkpt lat="47.33559" lon="-1.24106">
        <ele>97</ele>
        <time>2020-12-20T09:22:08.614000+00:00</time>
      </trkpt>
      <trkpt lat="0" lon="0">
        <time>2020-12-20T09:22:08.623000+00:00</time>
      </trkpt>
      <trkpt lat="0" lon="0">
        <time>2020-12-20T09:22:08.632000+00:00</time>
      </trkpt>
      <trkpt lat="0" lon="0">
        <time>2020-12-20T09:22:08.634000+00:00</time>
      </trkpt>
      <trkpt lat="47.33567" lon="-1.24105">
        <ele>97</ele>
        <time>2020-12-20T09:22:09.608000+00:00</time>
      </trkpt>
      <trkpt lat="0" lon="0">
        <time>2020-12-20T09:22:09.612000+00:00</time>
      </trkpt>
      <trkpt lat="0" lon="0">
        <time>2020-12-20T09:22:09.616000+00:00</time>
      </trkpt>
      <trkpt lat="0" lon="0">
        <time>2020-12-20T09:22:09.619000+00:00</time>
      </trkpt>
      <trkpt lat="47.33575" lon="-1.24104">
        <ele>97</ele>
        <time>2020-12-20T09:22:10.615000+00:00</time>
      </trkpt>
      <trkpt lat="0" lon="0">
        <time>2020-12-20T09:22:10.631000+00:00</time>
      </trkpt>
      <trkpt lat="0" lon="0">
        <time>2020-12-20T09:22:10.635000+00:00</time>
      </trkpt>
      <trkpt lat="0" lon="0">
        <time>2020-12-20T09:22:10.640000+00:00</time>
      </trkpt>
      <trkpt lat="47.33582" lon="-1.24104">
        <ele>97</ele>
        <time>2020-12-20T09:22:11.590000+00:00</time>
      </trkpt>
      <trkpt lat="0" lon="0">
        <time>2020-12-20T09:22:11.601000+00:00</time>
      </trkpt>
      <trkpt lat="0" lon="0">
        <time>2020-12-20T09:22:11.605000+00:00</time>
      </trkpt>
      <trkpt lat="0" lon="0">
        <time>2020-12-20T09:22:11.606000+00:00</time>
      </trkpt>
      <trkpt lat="47.33588" lon="-1.24105">
        <ele>97</ele>
        <time>2020-12-20T09:22:12.613000+00:00</time>
      </trkpt>
      <trkpt lat="0" lon="0">
        <time>2020-12-20T09:22:12.618000+00:00</time>
      </trkpt>
      <trkpt lat="0" lon="0">
        <time>2020-12-20T09:22:12.628000+00:00</time>
      </trkpt>
      <trkpt lat="0" lon="0">
        <time>2020-12-20T09:22:12.630000+00:00</time>
      </trkpt>
      <trkpt lat="47.33593" lon="-1.24107">
        <ele>97</ele>
        <time>2020-12-20T09:22:13.571000+00:00</time>
      </trkpt>
      <trkpt lat="0" lon="0">
        <time>2020-12-20T09:22:13.575000+00:00</time>
      </trkpt>
      <trkpt lat="0" lon="0">
        <time>2020-12-20T09:22:13.577000+00:00</time>
      </trkpt>
      <trkpt lat="0" lon="0">
        <time>2020-12-20T09:22:13.578000+00:00</time>
      </trkpt>
      <trkpt lat="47.33597" lon="-1.24111">
        <ele>97</ele>
        <time>2020-12-20T09:22:14.596000+00:00</time>
      </trkpt>
      <trkpt lat="0" lon="0">
        <time>2020-12-20T09:22:14.604000+00:00</time>
      </trkpt>
      <trkpt lat="0" lon="0">
        <time>2020-12-20T09:22:14.608000+00:00</time>
      </trkpt>
      <trkpt lat="0" lon="0">
        <time>2020-12-20T09:22:14.611000+00:00</time>
      </trkpt>
      <trkpt lat="47.33599" lon="-1.24115">
        <ele>97</ele>
        <time>2020-12-20T09:22:15.608000+00:00</time>
      </trkpt>
      <trkpt lat="0" lon="0">
        <time>2020-12-20T09:22:15.613000+00:00</time>
      </trkpt>
      <trkpt lat="0" lon="0">
        <time>2020-12-20T09:22:15.617000+00:00</time>
      </trkpt>
      <trkpt lat="0" lon="0">
        <time>2020-12-20T09:22:15.619000+00:00</time>
      </trkpt>
      <trkpt lat="47.33601" lon="-1.24121">
        <ele>96</ele>
        <time>2020-12-20T09:22:16.575000+00:00</time>
      </trkpt>
      <trkpt lat="0" lon="0">
        <time>2020-12-20T09:22:16.584000+00:00</time>
      </trkpt>
      <trkpt lat="0" lon="0">
        <time>2020-12-20T09:22:16.590000+00:00</time>
      </trkpt>
      <trkpt lat="0" lon="0">
        <time>2020-12-20T09:22:16.591000+00:00</time>
      </trkpt>
      <trkpt lat="47.33602" lon="-1.24127">
        <ele>95</ele>
        <time>2020-12-20T09:22:17.650000+00:00</time>
      </trkpt>
      <trkpt lat="0" lon="0">
        <time>2020-12-20T09:22:17.666000+00:00</time>
      </trkpt>
      <trkpt lat="0" lon="0">
        <time>2020-12-20T09:22:17.672000+00:00</time>
      </trkpt>
      <trkpt lat="0" lon="0">
        <time>2020-12-20T09:22:17.677000+00:00</time>
      </trkpt>
      <trkpt lat="47.33602" lon="-1.24134">
        <ele>95</ele>
        <time>2020-12-20T09:22:18.582000+00:00</time>
      </trkpt>
      <trkpt lat="0" lon="0">
        <time>2020-12-20T09:22:18.589000+00:00</time>
      </trkpt>
      <trkpt lat="0" lon="0">
        <time>2020-12-20T09:22:18.595000+00:00</time>
      </trkpt>
      <trkpt lat="0" lon="0">
        <time>2020-12-20T09:22:18.599000+00:00</time>
      </trkpt>
      <trkpt lat="47.33603" lon="-1.24141">
        <ele>95</ele>
        <time>2020-12-20T09:22:19.589000+00:00</time>
      </trkpt>
      <trkpt lat="0" lon="0">
        <time>2020-12-20T09:22:19.611000+00:00</time>
      </trkpt>
      <trkpt lat="0" lon="0">
        <time>2020-12-20T09:22:19.615000+00:00</time>
      </trkpt>
      <trkpt lat="0" lon="0">
        <time>2020-12-20T09:22:19.623000+00:00</time>
      </trkpt>
      <trkpt lat="47.33603" lon="-1.24147">
        <ele>94</ele>
        <time>2020-12-20T09:22:20.638000+00:00</time>
      </trkpt>
      <trkpt lat="0" lon="0">
        <time>2020-12-20T09:22:20.642000+00:00</time>
      </trkpt>
      <trkpt lat="0" lon="0">
        <time>2020-12-20T09:22:20.655000+00:00</time>
      </trkpt>
      <trkpt lat="0" lon="0">
        <time>2020-12-20T09:22:20.658000+00:00</time>
      </trkpt>
      <trkpt lat="47.33604" lon="-1.24154">
        <ele>94</ele>
        <time>2020-12-20T09:22:21.581000+00:00</time>
      </trkpt>
      <trkpt lat="0" lon="0">
        <time>2020-12-20T09:22:21.604000+00:00</time>
      </trkpt>
      <trkpt lat="0" lon="0">
        <time>2020-12-20T09:22:21.615000+00:00</time>
      </trkpt>
      <trkpt lat="0" lon="0">
        <time>2020-12-20T09:22:21.617000+00:00</time>
      </trkpt>
      <trkpt lat="47.33605" lon="-1.24159">
        <ele>93</ele>
        <time>2020-12-20T09:22:22.612000+00:00</time>
      </trkpt>
      <trkpt lat="0" lon="0">
        <time>2020-12-20T09:22:22.618000+00:00</time>
      </trkpt>
      <trkpt lat="0" lon="0">
        <time>2020-12-20T09:22:22.629000+00:00</time>
      </trkpt>
      <trkpt lat="0" lon="0">
        <time>2020-12-20T09:22:22.631000+00:00</time>
      </trkpt>
      <trkpt lat="47.33607" lon="-1.24163">
        <ele>93</ele>
        <time>2020-12-20T09:22:23.570000+00:00</time>
      </trkpt>
      <trkpt lat="0" lon="0">
        <time>2020-12-20T09:22:23.579000+00:00</time>
      </trkpt>
      <trkpt lat="0" lon="0">
        <time>2020-12-20T09:22:23.587000+00:00</time>
      </trkpt>
      <trkpt lat="0" lon="0">
        <time>2020-12-20T09:22:23.594000+00:00</time>
      </trkpt>
      <trkpt lat="47.33609" lon="-1.24166">
        <ele>93</ele>
        <time>2020-12-20T09:22:24.566000+00:00</time>
      </trkpt>
      <trkpt lat="0" lon="0">
        <time>2020-12-20T09:22:24.579000+00:00</time>
      </trkpt>
      <trkpt lat="0" lon="0">
        <time>2020-12-20T09:22:24.585000+00:00</time>
      </trkpt>
      <trkpt lat="0" lon="0">
        <time>2020-12-20T09:22:24.589000+00:00</time>
      </trkpt>
      <trkpt lat="47.33611" lon="-1.24167">
        <ele>93</ele>
        <time>2020-12-20T09:22:25.562000+00:00</time>
      </trkpt>
      <trkpt lat="0" lon="0">
        <time>2020-12-20T09:22:25.571000+00:00</time>
      </trkpt>
      <trkpt lat="0" lon="0">
        <time>2020-12-20T09:22:25.579000+00:00</time>
      </trkpt>
      <trkpt lat="0" lon="0">
        <time>2020-12-20T09:22:25.584000+00:00</time>
      </trkpt>
      <trkpt lat="47.33613" lon="-1.24167">
        <ele>93</ele>
        <time>2020-12-20T09:22:26.603000+00:00</time>
      </trkpt>
      <trkpt lat="0" lon="0">
        <time>2020-12-20T09:22:26.614000+00:00</time>
      </trkpt>
      <trkpt lat="0" lon="0">
        <time>2020-12-20T09:22:26.618000+00:00</time>
      </trkpt>
      <trkpt lat="0" lon="0">
        <time>2020-12-20T09:22:26.620000+00:00</time>
      </trkpt>
      <trkpt lat="47.33615" lon="-1.24166">
        <ele>93</ele>
        <time>2020-12-20T09:22:27.607000+00:00</time>
      </trkpt>
      <trkpt lat="0" lon="0">
        <time>2020-12-20T09:22:27.621000+00:00</time>
      </trkpt>
      <trkpt lat="0" lon="0">
        <time>2020-12-20T09:22:27.625000+00:00</time>
      </trkpt>
      <trkpt lat="0" lon="0">
        <time>2020-12-20T09:22:27.627000+00:00</time>
      </trkpt>
      <trkpt lat="47.33617" lon="-1.24163">
        <ele>93</ele>
        <time>2020-12-20T09:22:28.601000+00:00</time>
      </trkpt>
      <trkpt lat="0" lon="0">
        <time>2020-12-20T09:22:28.609000+00:00</time>
      </trkpt>
      <trkpt lat="0" lon="0">
        <time>2020-12-20T09:22:28.613000+00:00</time>
      </trkpt>
      <trkpt lat="0" lon="0">
        <time>2020-12-20T09:22:28.615000+00:00</time>
      </trkpt>
      <trkpt lat="47.3362" lon="-1.24159">
        <ele>93</ele>
        <time>2020-12-20T09:22:29.603000+00:00</time>
      </trkpt>
      <trkpt lat="0" lon="0">
        <time>2020-12-20T09:22:29.608000+00:00</time>
      </trkpt>
      <trkpt lat="0" lon="0">
        <time>2020-12-20T09:22:29.615000+00:00</time>
      </trkpt>
      <trkpt lat="0" lon="0">
        <time>2020-12-20T09:22:29.622000+00:00</time>
      </trkpt>
      <trkpt lat="47.33623" lon="-1.24155">
        <ele>92</ele>
        <time>2020-12-20T09:22:30.604000+00:00</time>
      </trkpt>
      <trkpt lat="0" lon="0">
        <time>2020-12-20T09:22:30.616000+00:00</time>
      </trkpt>
      <trkpt lat="0" lon="0">
        <time>2020-12-20T09:22:30.620000+00:00</time>
      </trkpt>
      <trkpt lat="0" lon="0">
        <time>2020-12-20T09:22:30.623000+00:00</time>
      </trkpt>
      <trkpt lat="47.33626" lon="-1.2415">
        <ele>92</ele>
        <time>2020-12-20T09:22:31.575000+00:00</time>
      </trkpt>
      <trkpt lat="0" lon="0">
        <time>2020-12-20T09:22:31.591000+00:00</time>
      </trkpt>
      <trkpt lat="0" lon="0">
        <time>2020-12-20T09:22:31.603000+00:00</time>
      </trkpt>
      <trkpt lat="0" lon="0">
        <time>2020-12-20T09:22:31.604000+00:00</time>
      </trkpt>
      <trkpt lat="47.3363" lon="-1.24145">
        <ele>92</ele>
        <time>2020-12-20T09:22:32.546000+00:00</time>
      </trkpt>
      <trkpt lat="0" lon="0">
        <time>2020-12-20T09:22:32.556000+00:00</time>
      </trkpt>
      <trkpt lat="0" lon="0">
        <time>2020-12-20T09:22:32.558000+00:00</time>
      </trkpt>
      <trkpt lat="0" lon="0">
        <time>2020-12-20T09:22:32.559000+00:00</time>
      </trkpt>
      <trkpt lat="47.33635" lon="-1.24139">
        <ele>92</ele>
        <time>2020-12-20T09:22:33.606000+00:00</time>
      </trkpt>
      <trkpt lat="0" lon="0">
        <time>2020-12-20T09:22:33.626000+00:00</time>
      </trkpt>
      <trkpt lat="0" lon="0">
        <time>2020-12-20T09:22:33.632000+00:00</time>
      </trkpt>
      <trkpt lat="0" lon="0">
        <time>2020-12-20T09:22:33.641000+00:00</time>
      </trkpt>
      <trkpt lat="47.3364" lon="-1.24133">
        <ele>92</ele>
        <time>2020-12-20T09:22:34.566000+00:00</time>
      </trkpt>
      <trkpt lat="0" lon="0">
        <time>2020-12-20T09:22:34.579000+00:00</time>
      </trkpt>
      <trkpt lat="0" lon="0">
        <time>2020-12-20T09:22:34.583000+00:00</time>
      </trkpt>
      <trkpt lat="0" lon="0">
        <time>2020-12-20T09:22:34.585000+00:00</time>
      </trkpt>
      <trkpt lat="47.33645" lon="-1.24127">
        <ele>92</ele>
        <time>2020-12-20T09:22:35.597000+00:00</time>
      </trkpt>
      <trkpt lat="0" lon="0">
        <time>2020-12-20T09:22:35.618000+00:00</time>
      </trkpt>
      <trkpt lat="0" lon="0">
        <time>2020-12-20T09:22:35.625000+00:00</time>
      </trkpt>
      <trkpt lat="0" lon="0">
        <time>2020-12-20T09:22:35.631000+00:00</time>
      </trkpt>
      <trkpt lat="47.33651" lon="-1.24121">
        <ele>91</ele>
        <time>2020-12-20T09:22:36.590000+00:00</time>
      </trkpt>
      <trkpt lat="0" lon="0">
        <time>2020-12-20T09:22:36.609000+00:00</time>
      </trkpt>
      <trkpt lat="0" lon="0">
        <time>2020-12-20T09:22:36.614000+00:00</time>
      </trkpt>
      <trkpt lat="0" lon="0">
        <time>2020-12-20T09:22:36.618000+00:00</time>
      </trkpt>
      <trkpt lat="47.33658" lon="-1.24116">
        <ele>91</ele>
        <time>2020-12-20T09:22:37.598000+00:00</time>
      </trkpt>
      <trkpt lat="0" lon="0">
        <time>2020-12-20T09:22:37.606000+00:00</time>
      </trkpt>
      <trkpt lat="0" lon="0">
        <time>2020-12-20T09:22:37.611000+00:00</time>
      </trkpt>
      <trkpt lat="0" lon="0">
        <time>2020-12-20T09:22:37.614000+00:00</time>
      </trkpt>
      <trkpt lat="47.33665" lon="-1.24111">
        <ele>90</ele>
        <time>2020-12-20T09:22:38.626000+00:00</time>
      </trkpt>
      <trkpt lat="0" lon="0">
        <time>2020-12-20T09:22:38.638000+00:00</time>
      </trkpt>
      <trkpt lat="0" lon="0">
        <time>2020-12-20T09:22:38.642000+00:00</time>
      </trkpt>
      <trkpt lat="0" lon="0">
        <time>2020-12-20T09:22:38.645000+00:00</time>
      </trkpt>
      <trkpt lat="47.33672" lon="-1.24107">
        <ele>90</ele>
        <time>2020-12-20T09:22:39.610000+00:00</time>
      </trkpt>
      <trkpt lat="0" lon="0">
        <time>2020-12-20T09:22:39.626000+00:00</time>
      </trkpt>
      <trkpt lat="0" lon="0">
        <time>2020-12-20T09:22:39.632000+00:00</time>
      </trkpt>
      <trkpt lat="0" lon="0">
        <time>2020-12-20T09:22:39.634000+00:00</time>
      </trkpt>
      <trkpt lat="47.33681" lon="-1.24103">
        <ele>89</ele>
        <time>2020-12-20T09:22:40.612000+00:00</time>
      </trkpt>
      <trkpt lat="0" lon="0">
        <time>2020-12-20T09:22:40.616000+00:00</time>
      </trkpt>
      <trkpt lat="0" lon="0">
        <time>2020-12-20T09:22:40.633000+00:00</time>
      </trkpt>
      <trkpt lat="0" lon="0">
        <time>2020-12-20T09:22:40.637000+00:00</time>
      </trkpt>
      <trkpt lat="47.33689" lon="-1.241">
        <ele>88</ele>
        <time>2020-12-20T09:22:41.611000+00:00</time>
      </trkpt>
      <trkpt lat="0" lon="0">
        <time>2020-12-20T09:22:41.630000+00:00</time>
      </trkpt>
      <trkpt lat="0" lon="0">
        <time>2020-12-20T09:22:41.635000+00:00</time>
      </trkpt>
      <trkpt lat="0" lon="0">
        <time>2020-12-20T09:22:41.638000+00:00</time>
      </trkpt>
      <trkpt lat="47.33698" lon="-1.24097">
        <ele>87</ele>
        <time>2020-12-20T09:22:42.617000+00:00</time>
      </trkpt>
      <trkpt lat="0" lon="0">
        <time>2020-12-20T09:22:42.624000+00:00</time>
      </trkpt>
      <trkpt lat="0" lon="0">
        <time>2020-12-20T09:22:42.628000+00:00</time>
      </trkpt>
      <trkpt lat="0" lon="0">
        <time>2020-12-20T09:22:42.630000+00:00</time>
      </trkpt>
      <trkpt lat="47.33706" lon="-1.24095">
        <ele>86</ele>
        <time>2020-12-20T09:22:43.610000+00:00</time>
      </trkpt>
      <trkpt lat="0" lon="0">
        <time>2020-12-20T09:22:43.617000+00:00</time>
      </trkpt>
      <trkpt lat="0" lon="0">
        <time>2020-12-20T09:22:43.622000+00:00</time>
      </trkpt>
      <trkpt lat="0" lon="0">
        <time>2020-12-20T09:22:43.625000+00:00</time>
      </trkpt>
      <trkpt lat="47.33713" lon="-1.24093">
        <ele>85</ele>
        <time>2020-12-20T09:22:44.585000+00:00</time>
      </trkpt>
      <trkpt lat="0" lon="0">
        <time>2020-12-20T09:22:44.597000+00:00</time>
      </trkpt>
      <trkpt lat="0" lon="0">
        <time>2020-12-20T09:22:44.601000+00:00</time>
      </trkpt>
      <trkpt lat="0" lon="0">
        <time>2020-12-20T09:22:44.607000+00:00</time>
      </trkpt>
      <trkpt lat="47.3372" lon="-1.24091">
        <ele>85</ele>
        <time>2020-12-20T09:22:45.633000+00:00</time>
      </trkpt>
      <trkpt lat="0" lon="0">
        <time>2020-12-20T09:22:45.638000+00:00</time>
      </trkpt>
      <trkpt lat="0" lon="0">
        <time>2020-12-20T09:22:45.644000+00:00</time>
      </trkpt>
      <trkpt lat="0" lon="0">
        <time>2020-12-20T09:22:45.650000+00:00</time>
      </trkpt>
      <trkpt lat="47.33725" lon="-1.24089">
        <ele>84</ele>
        <time>2020-12-20T09:22:46.621000+00:00</time>
      </trkpt>
      <trkpt lat="0" lon="0">
        <time>2020-12-20T09:22:46.628000+00:00</time>
      </trkpt>
      <trkpt lat="0" lon="0">
        <time>2020-12-20T09:22:46.632000+00:00</time>
      </trkpt>
      <trkpt lat="0" lon="0">
        <time>2020-12-20T09:22:46.635000+00:00</time>
      </trkpt>
      <trkpt lat="47.3373" lon="-1.24087">
        <ele>84</ele>
        <time>2020-12-20T09:22:47.592000+00:00</time>
      </trkpt>
      <trkpt lat="0" lon="0">
        <time>2020-12-20T09:22:47.598000+00:00</time>
      </trkpt>
      <trkpt lat="0" lon="0">
        <time>2020-12-20T09:22:47.606000+00:00</time>
      </trkpt>
      <trkpt lat="0" lon="0">
        <time>2020-12-20T09:22:47.613000+00:00</time>
      </trkpt>
      <trkpt lat="47.33734" lon="-1.24085">
        <ele>84</ele>
        <time>2020-12-20T09:22:48.614000+00:00</time>
      </trkpt>
      <trkpt lat="0" lon="0">
        <time>2020-12-20T09:22:48.620000+00:00</time>
      </trkpt>
      <trkpt lat="0" lon="0">
        <time>2020-12-20T09:22:48.626000+00:00</time>
      </trkpt>
      <trkpt lat="0" lon="0">
        <time>2020-12-20T09:22:48.628000+00:00</time>
      </trkpt>
      <trkpt lat="47.33736" lon="-1.24083">
        <ele>84</ele>
        <time>2020-12-20T09:22:49.585000+00:00</time>
      </trkpt>
      <trkpt lat="0" lon="0">
        <time>2020-12-20T09:22:49.605000+00:00</time>
      </trkpt>
      <trkpt lat="0" lon="0">
        <time>2020-12-20T09:22:49.611000+00:00</time>
      </trkpt>
      <trkpt lat="0" lon="0">
        <time>2020-12-20T09:22:49.617000+00:00</time>
      </trkpt>
      <trkpt lat="47.33737" lon="-1.24081">
        <ele>84</ele>
        <time>2020-12-20T09:22:50.530000+00:00</time>
      </trkpt>
      <trkpt lat="0" lon="0">
        <time>2020-12-20T09:22:50.542000+00:00</time>
      </trkpt>
      <trkpt lat="0" lon="0">
        <time>2020-12-20T09:22:50.547000+00:00</time>
      </trkpt>
      <trkpt lat="0" lon="0">
        <time>2020-12-20T09:22:50.549000+00:00</time>
      </trkpt>
      <trkpt lat="47.33738" lon="-1.2408">
        <ele>84</ele>
        <time>2020-12-20T09:22:51.582000+00:00</time>
      </trkpt>
      <trkpt lat="0" lon="0">
        <time>2020-12-20T09:22:51.588000+00:00</time>
      </trkpt>
      <trkpt lat="0" lon="0">
        <time>2020-12-20T09:22:51.593000+00:00</time>
      </trkpt>
      <trkpt lat="0" lon="0">
        <time>2020-12-20T09:22:51.596000+00:00</time>
      </trkpt>
      <trkpt lat="47.33738" lon="-1.24078">
        <ele>84</ele>
        <time>2020-12-20T09:22:52.586000+00:00</time>
      </trkpt>
      <trkpt lat="0" lon="0">
        <time>2020-12-20T09:22:52.600000+00:00</time>
      </trkpt>
      <trkpt lat="0" lon="0">
        <time>2020-12-20T09:22:52.604000+00:00</time>
      </trkpt>
      <trkpt lat="0" lon="0">
        <time>2020-12-20T09:22:52.606000+00:00</time>
      </trkpt>
      <trkpt lat="47.33737" lon="-1.24076">
        <ele>85</ele>
        <time>2020-12-20T09:22:53.584000+00:00</time>
      </trkpt>
      <trkpt lat="0" lon="0">
        <time>2020-12-20T09:22:53.590000+00:00</time>
      </trkpt>
      <trkpt lat="0" lon="0">
        <time>2020-12-20T09:22:53.600000+00:00</time>
      </trkpt>
      <trkpt lat="0" lon="0">
        <time>2020-12-20T09:22:53.602000+00:00</time>
      </trkpt>
      <trkpt lat="47.33736" lon="-1.24074">
        <ele>85</ele>
        <time>2020-12-20T09:22:54.626000+00:00</time>
      </trkpt>
      <trkpt lat="0" lon="0">
        <time>2020-12-20T09:22:54.630000+00:00</time>
      </trkpt>
      <trkpt lat="0" lon="0">
        <time>2020-12-20T09:22:54.644000+00:00</time>
      </trkpt>
      <trkpt lat="0" lon="0">
        <time>2020-12-20T09:22:54.646000+00:00</time>
      </trkpt>
      <trkpt lat="47.33735" lon="-1.24072">
        <ele>85</ele>
        <time>2020-12-20T09:22:55.603000+00:00</time>
      </trkpt>
      <trkpt lat="0" lon="0">
        <time>2020-12-20T09:22:55.619000+00:00</time>
      </trkpt>
      <trkpt lat="0" lon="0">
        <time>2020-12-20T09:22:55.623000+00:00</time>
      </trkpt>
      <trkpt lat="0" lon="0">
        <time>2020-12-20T09:22:55.626000+00:00</time>
      </trkpt>
      <trkpt lat="47.33733" lon="-1.2407">
        <ele>85</ele>
        <time>2020-12-20T09:22:56.601000+00:00</time>
      </trkpt>
      <trkpt lat="0" lon="0">
        <time>2020-12-20T09:22:56.617000+00:00</time>
      </trkpt>
      <trkpt lat="0" lon="0">
        <time>2020-12-20T09:22:56.627000+00:00</time>
      </trkpt>
      <trkpt lat="0" lon="0">
        <time>2020-12-20T09:22:56.629000+00:00</time>
      </trkpt>
      <trkpt lat="47.33731" lon="-1.24067">
        <ele>85</ele>
        <time>2020-12-20T09:22:57.553000+00:00</time>
      </trkpt>
      <trkpt lat="0" lon="0">
        <time>2020-12-20T09:22:57.554000+00:00</time>
      </trkpt>
      <trkpt lat="0" lon="0">
        <time>2020-12-20T09:22:57.556000+00:00</time>
      </trkpt>
      <trkpt lat="0" lon="0">
        <time>2020-12-20T09:22:57.557000+00:00</time>
      </trkpt>
      <trkpt lat="47.33729" lon="-1.24064">
        <ele>86</ele>
        <time>2020-12-20T09:22:58.509000+00:00</time>
      </trkpt>
      <trkpt lat="0" lon="0">
        <time>2020-12-20T09:22:58.513000+00:00</time>
      </trkpt>
      <trkpt lat="0" lon="0">
        <time>2020-12-20T09:22:58.514000+00:00</time>
      </trkpt>
      <trkpt lat="0" lon="0">
        <time>2020-12-20T09:22:58.515000+00:00</time>
      </trkpt>
      <trkpt lat="47.33727" lon="-1.24061">
        <ele>86</ele>
        <time>2020-12-20T09:22:59.503000+00:00</time>
      </trkpt>
      <trkpt lat="0" lon="0">
        <time>2020-12-20T09:22:59.505000+00:00</time>
      </trkpt>
      <trkpt lat="0" lon="0">
        <time>2020-12-20T09:22:59.506000+00:00</time>
      </trkpt>
      <trkpt lat="47.33725" lon="-1.24058">
        <ele>85</ele>
        <time>2020-12-20T09:23:00.498000+00:00</time>
      </trkpt>
      <trkpt lat="0" lon="0">
        <time>2020-12-20T09:23:00.501000+00:00</time>
      </trkpt>
      <trkpt lat="0" lon="0">
        <time>2020-12-20T09:23:00.503000+00:00</time>
      </trkpt>
      <trkpt lat="47.33723" lon="-1.24054">
        <ele>85</ele>
        <time>2020-12-20T09:23:01.536000+00:00</time>
      </trkpt>
      <trkpt lat="0" lon="0">
        <time>2020-12-20T09:23:01.537000+00:00</time>
      </trkpt>
      <trkpt lat="0" lon="0">
        <time>2020-12-20T09:23:01.539000+00:00</time>
      </trkpt>
      <trkpt lat="47.33721" lon="-1.24051">
        <ele>86</ele>
        <time>2020-12-20T09:23:02.572000+00:00</time>
      </trkpt>
      <trkpt lat="0" lon="0">
        <time>2020-12-20T09:23:02.597000+00:00</time>
      </trkpt>
      <trkpt lat="0" lon="0">
        <time>2020-12-20T09:23:02.601000+00:00</time>
      </trkpt>
      <trkpt lat="0" lon="0">
        <time>2020-12-20T09:23:02.602000+00:00</time>
      </trkpt>
      <trkpt lat="47.3372" lon="-1.24047">
        <ele>86</ele>
        <time>2020-12-20T09:23:03.580000+00:00</time>
      </trkpt>
      <trkpt lat="0" lon="0">
        <time>2020-12-20T09:23:03.592000+00:00</time>
      </trkpt>
      <trkpt lat="0" lon="0">
        <time>2020-12-20T09:23:03.596000+00:00</time>
      </trkpt>
      <trkpt lat="0" lon="0">
        <time>2020-12-20T09:23:03.605000+00:00</time>
      </trkpt>
      <trkpt lat="47.33718" lon="-1.24044">
        <ele>86</ele>
        <time>2020-12-20T09:23:04.598000+00:00</time>
      </trkpt>
      <trkpt lat="0" lon="0">
        <time>2020-12-20T09:23:04.606000+00:00</time>
      </trkpt>
      <trkpt lat="0" lon="0">
        <time>2020-12-20T09:23:04.610000+00:00</time>
      </trkpt>
      <trkpt lat="0" lon="0">
        <time>2020-12-20T09:23:04.613000+00:00</time>
      </trkpt>
      <trkpt lat="47.33717" lon="-1.2404">
        <ele>87</ele>
        <time>2020-12-20T09:23:05.608000+00:00</time>
      </trkpt>
      <trkpt lat="0" lon="0">
        <time>2020-12-20T09:23:05.615000+00:00</time>
      </trkpt>
      <trkpt lat="0" lon="0">
        <time>2020-12-20T09:23:05.618000+00:00</time>
      </trkpt>
      <trkpt lat="0" lon="0">
        <time>2020-12-20T09:23:05.621000+00:00</time>
      </trkpt>
      <trkpt lat="47.33717" lon="-1.24037">
        <ele>87</ele>
        <time>2020-12-20T09:23:06.580000+00:00</time>
      </trkpt>
      <trkpt lat="0" lon="0">
        <time>2020-12-20T09:23:06.585000+00:00</time>
      </trkpt>
      <trkpt lat="0" lon="0">
        <time>2020-12-20T09:23:06.598000+00:00</time>
      </trkpt>
      <trkpt lat="0" lon="0">
        <time>2020-12-20T09:23:06.600000+00:00</time>
      </trkpt>
      <trkpt lat="47.33717" lon="-1.24034">
        <ele>86</ele>
        <time>2020-12-20T09:23:07.534000+00:00</time>
      </trkpt>
      <trkpt lat="0" lon="0">
        <time>2020-12-20T09:23:07.540000+00:00</time>
      </trkpt>
      <trkpt lat="0" lon="0">
        <time>2020-12-20T09:23:07.545000+00:00</time>
      </trkpt>
      <trkpt lat="0" lon="0">
        <time>2020-12-20T09:23:07.548000+00:00</time>
      </trkpt>
      <trkpt lat="47.33719" lon="-1.24031">
        <ele>86</ele>
        <time>2020-12-20T09:23:08.543000+00:00</time>
      </trkpt>
      <trkpt lat="0" lon="0">
        <time>2020-12-20T09:23:08.557000+00:00</time>
      </trkpt>
      <trkpt lat="0" lon="0">
        <time>2020-12-20T09:23:08.561000+00:00</time>
      </trkpt>
      <trkpt lat="0" lon="0">
        <time>2020-12-20T09:23:08.563000+00:00</time>
      </trkpt>
      <trkpt lat="47.33721" lon="-1.24029">
        <ele>86</ele>
        <time>2020-12-20T09:23:09.589000+00:00</time>
      </trkpt>
      <trkpt lat="0" lon="0">
        <time>2020-12-20T09:23:09.599000+00:00</time>
      </trkpt>
      <trkpt lat="0" lon="0">
        <time>2020-12-20T09:23:09.607000+00:00</time>
      </trkpt>
      <trkpt lat="0" lon="0">
        <time>2020-12-20T09:23:09.609000+00:00</time>
      </trkpt>
      <trkpt lat="47.33724" lon="-1.24028">
        <ele>85</ele>
        <time>2020-12-20T09:23:10.598000+00:00</time>
      </trkpt>
      <trkpt lat="0" lon="0">
        <time>2020-12-20T09:23:10.618000+00:00</time>
      </trkpt>
      <trkpt lat="0" lon="0">
        <time>2020-12-20T09:23:10.623000+00:00</time>
      </trkpt>
      <trkpt lat="0" lon="0">
        <time>2020-12-20T09:23:10.626000+00:00</time>
      </trkpt>
      <trkpt lat="47.33727" lon="-1.24026">
        <ele>84</ele>
        <time>2020-12-20T09:23:11.606000+00:00</time>
      </trkpt>
      <trkpt lat="0" lon="0">
        <time>2020-12-20T09:23:11.611000+00:00</time>
      </trkpt>
      <trkpt lat="0" lon="0">
        <time>2020-12-20T09:23:11.621000+00:00</time>
      </trkpt>
      <trkpt lat="0" lon="0">
        <time>2020-12-20T09:23:11.624000+00:00</time>
      </trkpt>
      <trkpt lat="47.33732" lon="-1.24025">
        <ele>84</ele>
        <time>2020-12-20T09:23:12.620000+00:00</time>
      </trkpt>
      <trkpt lat="0" lon="0">
        <time>2020-12-20T09:23:12.626000+00:00</time>
      </trkpt>
      <trkpt lat="0" lon="0">
        <time>2020-12-20T09:23:12.631000+00:00</time>
      </trkpt>
      <trkpt lat="0" lon="0">
        <time>2020-12-20T09:23:12.633000+00:00</time>
      </trkpt>
      <trkpt lat="47.33737" lon="-1.24024">
        <ele>82</ele>
        <time>2020-12-20T09:23:13.598000+00:00</time>
      </trkpt>
      <trkpt lat="0" lon="0">
        <time>2020-12-20T09:23:13.614000+00:00</time>
      </trkpt>
      <trkpt lat="0" lon="0">
        <time>2020-12-20T09:23:13.620000+00:00</time>
      </trkpt>
      <trkpt lat="0" lon="0">
        <time>2020-12-20T09:23:13.622000+00:00</time>
      </trkpt>
      <trkpt lat="47.33742" lon="-1.24023">
        <ele>82</ele>
        <time>2020-12-20T09:23:14.584000+00:00</time>
      </trkpt>
      <trkpt lat="0" lon="0">
        <time>2020-12-20T09:23:14.596000+00:00</time>
      </trkpt>
      <trkpt lat="0" lon="0">
        <time>2020-12-20T09:23:14.601000+00:00</time>
      </trkpt>
      <trkpt lat="0" lon="0">
        <time>2020-12-20T09:23:14.603000+00:00</time>
      </trkpt>
      <trkpt lat="47.33748" lon="-1.24022">
        <ele>82</ele>
        <time>2020-12-20T09:23:15.621000+00:00</time>
      </trkpt>
      <trkpt lat="0" lon="0">
        <time>2020-12-20T09:23:15.626000+00:00</time>
      </trkpt>
      <trkpt lat="0" lon="0">
        <time>2020-12-20T09:23:15.636000+00:00</time>
      </trkpt>
      <trkpt lat="0" lon="0">
        <time>2020-12-20T09:23:15.639000+00:00</time>
      </trkpt>
      <trkpt lat="47.33753" lon="-1.24021">
        <ele>82</ele>
        <time>2020-12-20T09:23:16.593000+00:00</time>
      </trkpt>
      <trkpt lat="0" lon="0">
        <time>2020-12-20T09:23:16.601000+00:00</time>
      </trkpt>
      <trkpt lat="0" lon="0">
        <time>2020-12-20T09:23:16.613000+00:00</time>
      </trkpt>
      <trkpt lat="0" lon="0">
        <time>2020-12-20T09:23:16.616000+00:00</time>
      </trkpt>
      <trkpt lat="47.33758" lon="-1.24019">
        <ele>82</ele>
        <time>2020-12-20T09:23:17.611000+00:00</time>
      </trkpt>
      <trkpt lat="0" lon="0">
        <time>2020-12-20T09:23:17.619000+00:00</time>
      </trkpt>
      <trkpt lat="0" lon="0">
        <time>2020-12-20T09:23:17.625000+00:00</time>
      </trkpt>
      <trkpt lat="0" lon="0">
        <time>2020-12-20T09:23:17.628000+00:00</time>
      </trkpt>
      <trkpt lat="47.33762" lon="-1.24018">
        <ele>82</ele>
        <time>2020-12-20T09:23:18.557000+00:00</time>
      </trkpt>
      <trkpt lat="0" lon="0">
        <time>2020-12-20T09:23:18.568000+00:00</time>
      </trkpt>
      <trkpt lat="0" lon="0">
        <time>2020-12-20T09:23:18.585000+00:00</time>
      </trkpt>
      <trkpt lat="0" lon="0">
        <time>2020-12-20T09:23:18.586000+00:00</time>
      </trkpt>
      <trkpt lat="47.33766" lon="-1.24016">
        <ele>82</ele>
        <time>2020-12-20T09:23:19.595000+00:00</time>
      </trkpt>
      <trkpt lat="0" lon="0">
        <time>2020-12-20T09:23:19.606000+00:00</time>
      </trkpt>
      <trkpt lat="0" lon="0">
        <time>2020-12-20T09:23:19.611000+00:00</time>
      </trkpt>
      <trkpt lat="0" lon="0">
        <time>2020-12-20T09:23:19.614000+00:00</time>
      </trkpt>
      <trkpt lat="47.33768" lon="-1.24013">
        <ele>82</ele>
        <time>2020-12-20T09:23:20.580000+00:00</time>
      </trkpt>
      <trkpt lat="0" lon="0">
        <time>2020-12-20T09:23:20.591000+00:00</time>
      </trkpt>
      <trkpt lat="0" lon="0">
        <time>2020-12-20T09:23:20.595000+00:00</time>
      </trkpt>
      <trkpt lat="0" lon="0">
        <time>2020-12-20T09:23:20.598000+00:00</time>
      </trkpt>
      <trkpt lat="47.33771" lon="-1.2401">
        <ele>82</ele>
        <time>2020-12-20T09:23:21.591000+00:00</time>
      </trkpt>
      <trkpt lat="0" lon="0">
        <time>2020-12-20T09:23:21.596000+00:00</time>
      </trkpt>
      <trkpt lat="0" lon="0">
        <time>2020-12-20T09:23:21.603000+00:00</time>
      </trkpt>
      <trkpt lat="0" lon="0">
        <time>2020-12-20T09:23:21.607000+00:00</time>
      </trkpt>
      <trkpt lat="47.33772" lon="-1.24007">
        <ele>81</ele>
        <time>2020-12-20T09:23:22.586000+00:00</time>
      </trkpt>
      <trkpt lat="0" lon="0">
        <time>2020-12-20T09:23:22.598000+00:00</time>
      </trkpt>
      <trkpt lat="0" lon="0">
        <time>2020-12-20T09:23:22.606000+00:00</time>
      </trkpt>
      <trkpt lat="0" lon="0">
        <time>2020-12-20T09:23:22.610000+00:00</time>
      </trkpt>
      <trkpt lat="47.33773" lon="-1.24004">
        <ele>81</ele>
        <time>2020-12-20T09:23:23.621000+00:00</time>
      </trkpt>
      <trkpt lat="0" lon="0">
        <time>2020-12-20T09:23:23.626000+00:00</time>
      </trkpt>
      <trkpt lat="0" lon="0">
        <time>2020-12-20T09:23:23.630000+00:00</time>
      </trkpt>
      <trkpt lat="0" lon="0">
        <time>2020-12-20T09:23:23.633000+00:00</time>
      </trkpt>
      <trkpt lat="47.33774" lon="-1.24">
        <ele>81</ele>
        <time>2020-12-20T09:23:24.599000+00:00</time>
      </trkpt>
      <trkpt lat="0" lon="0">
        <time>2020-12-20T09:23:24.618000+00:00</time>
      </trkpt>
      <trkpt lat="0" lon="0">
        <time>2020-12-20T09:23:24.623000+00:00</time>
      </trkpt>
      <trkpt lat="0" lon="0">
        <time>2020-12-20T09:23:24.627000+00:00</time>
      </trkpt>
      <trkpt lat="47.33774" lon="-1.23996">
        <ele>81</ele>
        <time>2020-12-20T09:23:25.600000+00:00</time>
      </trkpt>
      <trkpt lat="0" lon="0">
        <time>2020-12-20T09:23:25.610000+00:00</time>
      </trkpt>
      <trkpt lat="0" lon="0">
        <time>2020-12-20T09:23:25.623000+00:00</time>
      </trkpt>
      <trkpt lat="0" lon="0">
        <time>2020-12-20T09:23:25.627000+00:00</time>
      </trkpt>
      <trkpt lat="47.33773" lon="-1.23993">
        <ele>81</ele>
        <time>2020-12-20T09:23:26.613000+00:00</time>
      </trkpt>
      <trkpt lat="0" lon="0">
        <time>2020-12-20T09:23:26.621000+00:00</time>
      </trkpt>
      <trkpt lat="0" lon="0">
        <time>2020-12-20T09:23:26.626000+00:00</time>
      </trkpt>
      <trkpt lat="0" lon="0">
        <time>2020-12-20T09:23:26.634000+00:00</time>
      </trkpt>
      <trkpt lat="47.33773" lon="-1.23989">
        <ele>81</ele>
        <time>2020-12-20T09:23:27.613000+00:00</time>
      </trkpt>
      <trkpt lat="0" lon="0">
        <time>2020-12-20T09:23:27.620000+00:00</time>
      </trkpt>
      <trkpt lat="0" lon="0">
        <time>2020-12-20T09:23:27.631000+00:00</time>
      </trkpt>
      <trkpt lat="0" lon="0">
        <time>2020-12-20T09:23:27.634000+00:00</time>
      </trkpt>
      <trkpt lat="47.33772" lon="-1.23985">
        <ele>80</ele>
        <time>2020-12-20T09:23:28.591000+00:00</time>
      </trkpt>
      <trkpt lat="0" lon="0">
        <time>2020-12-20T09:23:28.597000+00:00</time>
      </trkpt>
      <trkpt lat="0" lon="0">
        <time>2020-12-20T09:23:28.604000+00:00</time>
      </trkpt>
      <trkpt lat="0" lon="0">
        <time>2020-12-20T09:23:28.607000+00:00</time>
      </trkpt>
      <trkpt lat="47.33771" lon="-1.23981">
        <ele>80</ele>
        <time>2020-12-20T09:23:29.537000+00:00</time>
      </trkpt>
      <trkpt lat="0" lon="0">
        <time>2020-12-20T09:23:29.544000+00:00</time>
      </trkpt>
      <trkpt lat="0" lon="0">
        <time>2020-12-20T09:23:29.547000+00:00</time>
      </trkpt>
      <trkpt lat="0" lon="0">
        <time>2020-12-20T09:23:29.549000+00:00</time>
      </trkpt>
      <trkpt lat="47.3377" lon="-1.23977">
        <ele>80</ele>
        <time>2020-12-20T09:23:30.552000+00:00</time>
      </trkpt>
      <trkpt lat="0" lon="0">
        <time>2020-12-20T09:23:30.559000+00:00</time>
      </trkpt>
      <trkpt lat="0" lon="0">
        <time>2020-12-20T09:23:30.561000+00:00</time>
      </trkpt>
      <trkpt lat="0" lon="0">
        <time>2020-12-20T09:23:30.566000+00:00</time>
      </trkpt>
      <trkpt lat="47.33769" lon="-1.23973">
        <ele>80</ele>
        <time>2020-12-20T09:23:31.546000+00:00</time>
      </trkpt>
      <trkpt lat="0" lon="0">
        <time>2020-12-20T09:23:31.556000+00:00</time>
      </trkpt>
      <trkpt lat="0" lon="0">
        <time>2020-12-20T09:23:31.558000+00:00</time>
      </trkpt>
      <trkpt lat="0" lon="0">
        <time>2020-12-20T09:23:31.559000+00:00</time>
      </trkpt>
      <trkpt lat="47.33767" lon="-1.23969">
        <ele>80</ele>
        <time>2020-12-20T09:23:32.566000+00:00</time>
      </trkpt>
      <trkpt lat="0" lon="0">
        <time>2020-12-20T09:23:32.567000+00:00</time>
      </trkpt>
      <trkpt lat="0" lon="0">
        <time>2020-12-20T09:23:32.569000+00:00</time>
      </trkpt>
      <trkpt lat="0" lon="0">
        <time>2020-12-20T09:23:32.570000+00:00</time>
      </trkpt>
      <trkpt lat="47.33766" lon="-1.23965">
        <ele>80</ele>
        <time>2020-12-20T09:23:33.552000+00:00</time>
      </trkpt>
      <trkpt lat="0" lon="0">
        <time>2020-12-20T09:23:33.557000+00:00</time>
      </trkpt>
      <trkpt lat="0" lon="0">
        <time>2020-12-20T09:23:33.564000+00:00</time>
      </trkpt>
      <trkpt lat="0" lon="0">
        <time>2020-12-20T09:23:33.567000+00:00</time>
      </trkpt>
      <trkpt lat="47.33765" lon="-1.23961">
        <ele>80</ele>
        <time>2020-12-20T09:23:34.589000+00:00</time>
      </trkpt>
      <trkpt lat="0" lon="0">
        <time>2020-12-20T09:23:34.595000+00:00</time>
      </trkpt>
      <trkpt lat="0" lon="0">
        <time>2020-12-20T09:23:34.599000+00:00</time>
      </trkpt>
      <trkpt lat="0" lon="0">
        <time>2020-12-20T09:23:34.604000+00:00</time>
      </trkpt>
      <trkpt lat="47.33764" lon="-1.23957">
        <ele>80</ele>
        <time>2020-12-20T09:23:35.611000+00:00</time>
      </trkpt>
      <trkpt lat="0" lon="0">
        <time>2020-12-20T09:23:35.632000+00:00</time>
      </trkpt>
      <trkpt lat="0" lon="0">
        <time>2020-12-20T09:23:35.637000+00:00</time>
      </trkpt>
      <trkpt lat="0" lon="0">
        <time>2020-12-20T09:23:35.639000+00:00</time>
      </trkpt>
      <trkpt lat="47.33763" lon="-1.23952">
        <ele>80</ele>
        <time>2020-12-20T09:23:36.580000+00:00</time>
      </trkpt>
      <trkpt lat="0" lon="0">
        <time>2020-12-20T09:23:36.591000+00:00</time>
      </trkpt>
      <trkpt lat="0" lon="0">
        <time>2020-12-20T09:23:36.601000+00:00</time>
      </trkpt>
      <trkpt lat="0" lon="0">
        <time>2020-12-20T09:23:36.604000+00:00</time>
      </trkpt>
      <trkpt lat="47.33762" lon="-1.23948">
        <ele>80</ele>
        <time>2020-12-20T09:23:37.583000+00:00</time>
      </trkpt>
      <trkpt lat="0" lon="0">
        <time>2020-12-20T09:23:37.587000+00:00</time>
      </trkpt>
      <trkpt lat="0" lon="0">
        <time>2020-12-20T09:23:37.598000+00:00</time>
      </trkpt>
      <trkpt lat="0" lon="0">
        <time>2020-12-20T09:23:37.601000+00:00</time>
      </trkpt>
      <trkpt lat="47.33761" lon="-1.23944">
        <ele>80</ele>
        <time>2020-12-20T09:23:38.552000+00:00</time>
      </trkpt>
      <trkpt lat="0" lon="0">
        <time>2020-12-20T09:23:38.562000+00:00</time>
      </trkpt>
      <trkpt lat="0" lon="0">
        <time>2020-12-20T09:23:38.564000+00:00</time>
      </trkpt>
      <trkpt lat="0" lon="0">
        <time>2020-12-20T09:23:38.567000+00:00</time>
      </trkpt>
      <trkpt lat="47.3376" lon="-1.23939">
        <ele>80</ele>
        <time>2020-12-20T09:23:39.591000+00:00</time>
      </trkpt>
      <trkpt lat="0" lon="0">
        <time>2020-12-20T09:23:39.603000+00:00</time>
      </trkpt>
      <trkpt lat="0" lon="0">
        <time>2020-12-20T09:23:39.607000+00:00</time>
      </trkpt>
      <trkpt lat="0" lon="0">
        <time>2020-12-20T09:23:39.610000+00:00</time>
      </trkpt>
      <trkpt lat="47.3376" lon="-1.23935">
        <ele>80</ele>
        <time>2020-12-20T09:23:40.609000+00:00</time>
      </trkpt>
      <trkpt lat="0" lon="0">
        <time>2020-12-20T09:23:40.617000+00:00</time>
      </trkpt>
      <trkpt lat="0" lon="0">
        <time>2020-12-20T09:23:40.622000+00:00</time>
      </trkpt>
      <trkpt lat="0" lon="0">
        <time>2020-12-20T09:23:40.624000+00:00</time>
      </trkpt>
      <trkpt lat="47.33759" lon="-1.2393">
        <ele>80</ele>
        <time>2020-12-20T09:23:41.611000+00:00</time>
      </trkpt>
      <trkpt lat="0" lon="0">
        <time>2020-12-20T09:23:41.619000+00:00</time>
      </trkpt>
      <trkpt lat="0" lon="0">
        <time>2020-12-20T09:23:41.624000+00:00</time>
      </trkpt>
      <trkpt lat="0" lon="0">
        <time>2020-12-20T09:23:41.626000+00:00</time>
      </trkpt>
      <trkpt lat="47.33758" lon="-1.23926">
        <ele>80</ele>
        <time>2020-12-20T09:23:42.573000+00:00</time>
      </trkpt>
      <trkpt lat="0" lon="0">
        <time>2020-12-20T09:23:42.577000+00:00</time>
      </trkpt>
      <trkpt lat="0" lon="0">
        <time>2020-12-20T09:23:42.581000+00:00</time>
      </trkpt>
      <trkpt lat="0" lon="0">
        <time>2020-12-20T09:23:42.584000+00:00</time>
      </trkpt>
      <trkpt lat="47.33757" lon="-1.23921">
        <ele>80</ele>
        <time>2020-12-20T09:23:43.597000+00:00</time>
      </trkpt>
      <trkpt lat="0" lon="0">
        <time>2020-12-20T09:23:43.619000+00:00</time>
      </trkpt>
      <trkpt lat="0" lon="0">
        <time>2020-12-20T09:23:43.625000+00:00</time>
      </trkpt>
      <trkpt lat="0" lon="0">
        <time>2020-12-20T09:23:43.630000+00:00</time>
      </trkpt>
      <trkpt lat="47.33757" lon="-1.23917">
        <ele>80</ele>
        <time>2020-12-20T09:23:44.617000+00:00</time>
      </trkpt>
      <trkpt lat="0" lon="0">
        <time>2020-12-20T09:23:44.622000+00:00</time>
      </trkpt>
      <trkpt lat="0" lon="0">
        <time>2020-12-20T09:23:44.629000+00:00</time>
      </trkpt>
      <trkpt lat="0" lon="0">
        <time>2020-12-20T09:23:44.634000+00:00</time>
      </trkpt>
      <trkpt lat="47.33756" lon="-1.23912">
        <ele>80</ele>
        <time>2020-12-20T09:23:45.601000+00:00</time>
      </trkpt>
      <trkpt lat="0" lon="0">
        <time>2020-12-20T09:23:45.618000+00:00</time>
      </trkpt>
      <trkpt lat="0" lon="0">
        <time>2020-12-20T09:23:45.631000+00:00</time>
      </trkpt>
      <trkpt lat="0" lon="0">
        <time>2020-12-20T09:23:45.633000+00:00</time>
      </trkpt>
      <trkpt lat="47.33755" lon="-1.23908">
        <ele>80</ele>
        <time>2020-12-20T09:23:46.569000+00:00</time>
      </trkpt>
      <trkpt lat="0" lon="0">
        <time>2020-12-20T09:23:46.575000+00:00</time>
      </trkpt>
      <trkpt lat="0" lon="0">
        <time>2020-12-20T09:23:46.580000+00:00</time>
      </trkpt>
      <trkpt lat="0" lon="0">
        <time>2020-12-20T09:23:46.582000+00:00</time>
      </trkpt>
      <trkpt lat="47.33755" lon="-1.23903">
        <ele>79</ele>
        <time>2020-12-20T09:23:47.621000+00:00</time>
      </trkpt>
      <trkpt lat="0" lon="0">
        <time>2020-12-20T09:23:47.627000+00:00</time>
      </trkpt>
      <trkpt lat="0" lon="0">
        <time>2020-12-20T09:23:47.634000+00:00</time>
      </trkpt>
      <trkpt lat="0" lon="0">
        <time>2020-12-20T09:23:47.637000+00:00</time>
      </trkpt>
      <trkpt lat="47.33754" lon="-1.23899">
        <ele>79</ele>
        <time>2020-12-20T09:23:48.626000+00:00</time>
      </trkpt>
      <trkpt lat="0" lon="0">
        <time>2020-12-20T09:23:48.635000+00:00</time>
      </trkpt>
      <trkpt lat="0" lon="0">
        <time>2020-12-20T09:23:48.639000+00:00</time>
      </trkpt>
      <trkpt lat="0" lon="0">
        <time>2020-12-20T09:23:48.642000+00:00</time>
      </trkpt>
      <trkpt lat="47.33754" lon="-1.23894">
        <ele>79</ele>
        <time>2020-12-20T09:23:49.608000+00:00</time>
      </trkpt>
      <trkpt lat="0" lon="0">
        <time>2020-12-20T09:23:49.615000+00:00</time>
      </trkpt>
      <trkpt lat="0" lon="0">
        <time>2020-12-20T09:23:49.619000+00:00</time>
      </trkpt>
      <trkpt lat="0" lon="0">
        <time>2020-12-20T09:23:49.621000+00:00</time>
      </trkpt>
      <trkpt lat="47.33753" lon="-1.23889">
        <ele>79</ele>
        <time>2020-12-20T09:23:50.614000+00:00</time>
      </trkpt>
      <trkpt lat="0" lon="0">
        <time>2020-12-20T09:23:50.621000+00:00</time>
      </trkpt>
      <trkpt lat="0" lon="0">
        <time>2020-12-20T09:23:50.630000+00:00</time>
      </trkpt>
      <trkpt lat="0" lon="0">
        <time>2020-12-20T09:23:50.636000+00:00</time>
      </trkpt>
      <trkpt lat="47.33753" lon="-1.23885">
        <ele>79</ele>
        <time>2020-12-20T09:23:51.625000+00:00</time>
      </trkpt>
      <trkpt lat="0" lon="0">
        <time>2020-12-20T09:23:51.638000+00:00</time>
      </trkpt>
      <trkpt lat="0" lon="0">
        <time>2020-12-20T09:23:51.642000+00:00</time>
      </trkpt>
      <trkpt lat="0" lon="0">
        <time>2020-12-20T09:23:51.645000+00:00</time>
      </trkpt>
      <trkpt lat="47.33752" lon="-1.2388">
        <ele>78</ele>
        <time>2020-12-20T09:23:52.601000+00:00</time>
      </trkpt>
      <trkpt lat="0" lon="0">
        <time>2020-12-20T09:23:52.608000+00:00</time>
      </trkpt>
      <trkpt lat="0" lon="0">
        <time>2020-12-20T09:23:52.619000+00:00</time>
      </trkpt>
      <trkpt lat="0" lon="0">
        <time>2020-12-20T09:23:52.622000+00:00</time>
      </trkpt>
      <trkpt lat="47.33751" lon="-1.23876">
        <ele>78</ele>
        <time>2020-12-20T09:23:53.628000+00:00</time>
      </trkpt>
      <trkpt lat="0" lon="0">
        <time>2020-12-20T09:23:53.633000+00:00</time>
      </trkpt>
      <trkpt lat="0" lon="0">
        <time>2020-12-20T09:23:53.638000+00:00</time>
      </trkpt>
      <trkpt lat="0" lon="0">
        <time>2020-12-20T09:23:53.641000+00:00</time>
      </trkpt>
      <trkpt lat="47.33749" lon="-1.23872">
        <ele>78</ele>
        <time>2020-12-20T09:23:54.601000+00:00</time>
      </trkpt>
      <trkpt lat="0" lon="0">
        <time>2020-12-20T09:23:54.609000+00:00</time>
      </trkpt>
      <trkpt lat="0" lon="0">
        <time>2020-12-20T09:23:54.615000+00:00</time>
      </trkpt>
      <trkpt lat="0" lon="0">
        <time>2020-12-20T09:23:54.618000+00:00</time>
      </trkpt>
      <trkpt lat="47.33748" lon="-1.2387">
        <ele>78</ele>
        <time>2020-12-20T09:23:55.598000+00:00</time>
      </trkpt>
      <trkpt lat="0" lon="0">
        <time>2020-12-20T09:23:55.610000+00:00</time>
      </trkpt>
      <trkpt lat="0" lon="0">
        <time>2020-12-20T09:23:55.615000+00:00</time>
      </trkpt>
      <trkpt lat="0" lon="0">
        <time>2020-12-20T09:23:55.618000+00:00</time>
      </trkpt>
      <trkpt lat="47.33746" lon="-1.23868">
        <ele>77</ele>
        <time>2020-12-20T09:23:56.598000+00:00</time>
      </trkpt>
      <trkpt lat="0" lon="0">
        <time>2020-12-20T09:23:56.611000+00:00</time>
      </trkpt>
      <trkpt lat="0" lon="0">
        <time>2020-12-20T09:23:56.616000+00:00</time>
      </trkpt>
      <trkpt lat="0" lon="0">
        <time>2020-12-20T09:23:56.619000+00:00</time>
      </trkpt>
      <trkpt lat="47.33744" lon="-1.23867">
        <ele>77</ele>
        <time>2020-12-20T09:23:57.523000+00:00</time>
      </trkpt>
      <trkpt lat="0" lon="0">
        <time>2020-12-20T09:23:57.524000+00:00</time>
      </trkpt>
      <trkpt lat="0" lon="0">
        <time>2020-12-20T09:23:57.525000+00:00</time>
      </trkpt>
      <trkpt lat="0" lon="0">
        <time>2020-12-20T09:23:57.526000+00:00</time>
      </trkpt>
      <trkpt lat="47.33742" lon="-1.23867">
        <ele>77</ele>
        <time>2020-12-20T09:23:58.579000+00:00</time>
      </trkpt>
      <trkpt lat="0" lon="0">
        <time>2020-12-20T09:23:58.593000+00:00</time>
      </trkpt>
      <trkpt lat="0" lon="0">
        <time>2020-12-20T09:23:58.597000+00:00</time>
      </trkpt>
      <trkpt lat="0" lon="0">
        <time>2020-12-20T09:23:58.602000+00:00</time>
      </trkpt>
      <trkpt lat="47.33739" lon="-1.23868">
        <ele>77</ele>
        <time>2020-12-20T09:23:59.602000+00:00</time>
      </trkpt>
      <trkpt lat="0" lon="0">
        <time>2020-12-20T09:23:59.633000+00:00</time>
      </trkpt>
      <trkpt lat="0" lon="0">
        <time>2020-12-20T09:23:59.638000+00:00</time>
      </trkpt>
      <trkpt lat="0" lon="0">
        <time>2020-12-20T09:23:59.641000+00:00</time>
      </trkpt>
      <trkpt lat="47.33736" lon="-1.23869">
        <ele>77</ele>
        <time>2020-12-20T09:24:00.615000+00:00</time>
      </trkpt>
      <trkpt lat="0" lon="0">
        <time>2020-12-20T09:24:00.635000+00:00</time>
      </trkpt>
      <trkpt lat="0" lon="0">
        <time>2020-12-20T09:24:00.639000+00:00</time>
      </trkpt>
      <trkpt lat="0" lon="0">
        <time>2020-12-20T09:24:00.641000+00:00</time>
      </trkpt>
      <trkpt lat="47.33733" lon="-1.23871">
        <ele>77</ele>
        <time>2020-12-20T09:24:01.640000+00:00</time>
      </trkpt>
      <trkpt lat="0" lon="0">
        <time>2020-12-20T09:24:01.655000+00:00</time>
      </trkpt>
      <trkpt lat="0" lon="0">
        <time>2020-12-20T09:24:01.663000+00:00</time>
      </trkpt>
      <trkpt lat="0" lon="0">
        <time>2020-12-20T09:24:01.667000+00:00</time>
      </trkpt>
      <trkpt lat="47.33731" lon="-1.23873">
        <ele>76</ele>
        <time>2020-12-20T09:24:02.604000+00:00</time>
      </trkpt>
      <trkpt lat="0" lon="0">
        <time>2020-12-20T09:24:02.611000+00:00</time>
      </trkpt>
      <trkpt lat="0" lon="0">
        <time>2020-12-20T09:24:02.619000+00:00</time>
      </trkpt>
      <trkpt lat="0" lon="0">
        <time>2020-12-20T09:24:02.622000+00:00</time>
      </trkpt>
      <trkpt lat="47.33728" lon="-1.23875">
        <ele>76</ele>
        <time>2020-12-20T09:24:03.545000+00:00</time>
      </trkpt>
      <trkpt lat="0" lon="0">
        <time>2020-12-20T09:24:03.546000+00:00</time>
      </trkpt>
      <trkpt lat="0" lon="0">
        <time>2020-12-20T09:24:03.547000+00:00</time>
      </trkpt>
      <trkpt lat="0" lon="0">
        <time>2020-12-20T09:24:03.549000+00:00</time>
      </trkpt>
      <trkpt lat="47.33725" lon="-1.23876">
        <ele>76</ele>
        <time>2020-12-20T09:24:04.579000+00:00</time>
      </trkpt>
      <trkpt lat="0" lon="0">
        <time>2020-12-20T09:24:04.590000+00:00</time>
      </trkpt>
      <trkpt lat="0" lon="0">
        <time>2020-12-20T09:24:04.596000+00:00</time>
      </trkpt>
      <trkpt lat="0" lon="0">
        <time>2020-12-20T09:24:04.598000+00:00</time>
      </trkpt>
      <trkpt lat="47.33722" lon="-1.23878">
        <ele>76</ele>
        <time>2020-12-20T09:24:05.570000+00:00</time>
      </trkpt>
      <trkpt lat="0" lon="0">
        <time>2020-12-20T09:24:05.581000+00:00</time>
      </trkpt>
      <trkpt lat="0" lon="0">
        <time>2020-12-20T09:24:05.585000+00:00</time>
      </trkpt>
      <trkpt lat="0" lon="0">
        <time>2020-12-20T09:24:05.589000+00:00</time>
      </trkpt>
      <trkpt lat="47.33719" lon="-1.2388">
        <ele>76</ele>
        <time>2020-12-20T09:24:06.588000+00:00</time>
      </trkpt>
      <trkpt lat="0" lon="0">
        <time>2020-12-20T09:24:06.603000+00:00</time>
      </trkpt>
      <trkpt lat="0" lon="0">
        <time>2020-12-20T09:24:06.608000+00:00</time>
      </trkpt>
      <trkpt lat="0" lon="0">
        <time>2020-12-20T09:24:06.610000+00:00</time>
      </trkpt>
      <trkpt lat="47.33715" lon="-1.23882">
        <ele>76</ele>
        <time>2020-12-20T09:24:07.615000+00:00</time>
      </trkpt>
      <trkpt lat="0" lon="0">
        <time>2020-12-20T09:24:07.625000+00:00</time>
      </trkpt>
      <trkpt lat="0" lon="0">
        <time>2020-12-20T09:24:07.631000+00:00</time>
      </trkpt>
      <trkpt lat="0" lon="0">
        <time>2020-12-20T09:24:07.635000+00:00</time>
      </trkpt>
      <trkpt lat="47.33713" lon="-1.23883">
        <ele>75</ele>
        <time>2020-12-20T09:24:08.629000+00:00</time>
      </trkpt>
      <trkpt lat="0" lon="0">
        <time>2020-12-20T09:24:08.636000+00:00</time>
      </trkpt>
      <trkpt lat="0" lon="0">
        <time>2020-12-20T09:24:08.642000+00:00</time>
      </trkpt>
      <trkpt lat="0" lon="0">
        <time>2020-12-20T09:24:08.643000+00:00</time>
      </trkpt>
      <trkpt lat="47.3371" lon="-1.23885">
        <ele>75</ele>
        <time>2020-12-20T09:24:09.598000+00:00</time>
      </trkpt>
      <trkpt lat="0" lon="0">
        <time>2020-12-20T09:24:09.617000+00:00</time>
      </trkpt>
      <trkpt lat="0" lon="0">
        <time>2020-12-20T09:24:09.623000+00:00</time>
      </trkpt>
      <trkpt lat="0" lon="0">
        <time>2020-12-20T09:24:09.626000+00:00</time>
      </trkpt>
      <trkpt lat="47.33707" lon="-1.23886">
        <ele>75</ele>
        <time>2020-12-20T09:24:10.617000+00:00</time>
      </trkpt>
      <trkpt lat="0" lon="0">
        <time>2020-12-20T09:24:10.644000+00:00</time>
      </trkpt>
      <trkpt lat="0" lon="0">
        <time>2020-12-20T09:24:10.653000+00:00</time>
      </trkpt>
      <trkpt lat="0" lon="0">
        <time>2020-12-20T09:24:10.654000+00:00</time>
      </trkpt>
      <trkpt lat="47.33704" lon="-1.23888">
        <ele>75</ele>
        <time>2020-12-20T09:24:11.614000+00:00</time>
      </trkpt>
      <trkpt lat="0" lon="0">
        <time>2020-12-20T09:24:11.625000+00:00</time>
      </trkpt>
      <trkpt lat="0" lon="0">
        <time>2020-12-20T09:24:11.631000+00:00</time>
      </trkpt>
      <trkpt lat="0" lon="0">
        <time>2020-12-20T09:24:11.635000+00:00</time>
      </trkpt>
      <trkpt lat="47.33701" lon="-1.23889">
        <ele>75</ele>
        <time>2020-12-20T09:24:12.593000+00:00</time>
      </trkpt>
      <trkpt lat="0" lon="0">
        <time>2020-12-20T09:24:12.600000+00:00</time>
      </trkpt>
      <trkpt lat="0" lon="0">
        <time>2020-12-20T09:24:12.604000+00:00</time>
      </trkpt>
      <trkpt lat="0" lon="0">
        <time>2020-12-20T09:24:12.607000+00:00</time>
      </trkpt>
      <trkpt lat="47.33698" lon="-1.2389">
        <ele>75</ele>
        <time>2020-12-20T09:24:13.613000+00:00</time>
      </trkpt>
      <trkpt lat="0" lon="0">
        <time>2020-12-20T09:24:13.631000+00:00</time>
      </trkpt>
      <trkpt lat="0" lon="0">
        <time>2020-12-20T09:24:13.640000+00:00</time>
      </trkpt>
      <trkpt lat="0" lon="0">
        <time>2020-12-20T09:24:13.642000+00:00</time>
      </trkpt>
      <trkpt lat="47.33695" lon="-1.23891">
        <ele>75</ele>
        <time>2020-12-20T09:24:14.624000+00:00</time>
      </trkpt>
      <trkpt lat="0" lon="0">
        <time>2020-12-20T09:24:14.636000+00:00</time>
      </trkpt>
      <trkpt lat="0" lon="0">
        <time>2020-12-20T09:24:14.640000+00:00</time>
      </trkpt>
      <trkpt lat="0" lon="0">
        <time>2020-12-20T09:24:14.642000+00:00</time>
      </trkpt>
      <trkpt lat="47.33692" lon="-1.23892">
        <ele>75</ele>
        <time>2020-12-20T09:24:15.610000+00:00</time>
      </trkpt>
      <trkpt lat="0" lon="0">
        <time>2020-12-20T09:24:15.624000+00:00</time>
      </trkpt>
      <trkpt lat="0" lon="0">
        <time>2020-12-20T09:24:15.629000+00:00</time>
      </trkpt>
      <trkpt lat="0" lon="0">
        <time>2020-12-20T09:24:15.631000+00:00</time>
      </trkpt>
      <trkpt lat="47.33689" lon="-1.23893">
        <ele>74</ele>
        <time>2020-12-20T09:24:16.601000+00:00</time>
      </trkpt>
      <trkpt lat="0" lon="0">
        <time>2020-12-20T09:24:16.613000+00:00</time>
      </trkpt>
      <trkpt lat="0" lon="0">
        <time>2020-12-20T09:24:16.619000+00:00</time>
      </trkpt>
      <trkpt lat="0" lon="0">
        <time>2020-12-20T09:24:16.621000+00:00</time>
      </trkpt>
      <trkpt lat="47.33686" lon="-1.23894">
        <ele>74</ele>
        <time>2020-12-20T09:24:17.631000+00:00</time>
      </trkpt>
      <trkpt lat="0" lon="0">
        <time>2020-12-20T09:24:17.636000+00:00</time>
      </trkpt>
      <trkpt lat="0" lon="0">
        <time>2020-12-20T09:24:17.653000+00:00</time>
      </trkpt>
      <trkpt lat="0" lon="0">
        <time>2020-12-20T09:24:17.655000+00:00</time>
      </trkpt>
      <trkpt lat="47.33683" lon="-1.23895">
        <ele>74</ele>
        <time>2020-12-20T09:24:18.590000+00:00</time>
      </trkpt>
      <trkpt lat="0" lon="0">
        <time>2020-12-20T09:24:18.603000+00:00</time>
      </trkpt>
      <trkpt lat="0" lon="0">
        <time>2020-12-20T09:24:18.607000+00:00</time>
      </trkpt>
      <trkpt lat="0" lon="0">
        <time>2020-12-20T09:24:18.610000+00:00</time>
      </trkpt>
      <trkpt lat="47.3368" lon="-1.23895">
        <ele>74</ele>
        <time>2020-12-20T09:24:19.574000+00:00</time>
      </trkpt>
      <trkpt lat="0" lon="0">
        <time>2020-12-20T09:24:19.582000+00:00</time>
      </trkpt>
      <trkpt lat="0" lon="0">
        <time>2020-12-20T09:24:19.584000+00:00</time>
      </trkpt>
      <trkpt lat="0" lon="0">
        <time>2020-12-20T09:24:19.586000+00:00</time>
      </trkpt>
      <trkpt lat="47.33678" lon="-1.23896">
        <ele>74</ele>
        <time>2020-12-20T09:24:20.589000+00:00</time>
      </trkpt>
      <trkpt lat="0" lon="0">
        <time>2020-12-20T09:24:20.608000+00:00</time>
      </trkpt>
      <trkpt lat="0" lon="0">
        <time>2020-12-20T09:24:20.616000+00:00</time>
      </trkpt>
      <trkpt lat="0" lon="0">
        <time>2020-12-20T09:24:20.622000+00:00</time>
      </trkpt>
      <trkpt lat="47.33675" lon="-1.23896">
        <ele>73</ele>
        <time>2020-12-20T09:24:21.572000+00:00</time>
      </trkpt>
      <trkpt lat="0" lon="0">
        <time>2020-12-20T09:24:21.580000+00:00</time>
      </trkpt>
      <trkpt lat="0" lon="0">
        <time>2020-12-20T09:24:21.586000+00:00</time>
      </trkpt>
      <trkpt lat="0" lon="0">
        <time>2020-12-20T09:24:21.589000+00:00</time>
      </trkpt>
      <trkpt lat="47.33672" lon="-1.23896">
        <ele>73</ele>
        <time>2020-12-20T09:24:22.607000+00:00</time>
      </trkpt>
      <trkpt lat="0" lon="0">
        <time>2020-12-20T09:24:22.611000+00:00</time>
      </trkpt>
      <trkpt lat="0" lon="0">
        <time>2020-12-20T09:24:22.618000+00:00</time>
      </trkpt>
      <trkpt lat="0" lon="0">
        <time>2020-12-20T09:24:22.620000+00:00</time>
      </trkpt>
      <trkpt lat="47.3367" lon="-1.23896">
        <ele>73</ele>
        <time>2020-12-20T09:24:23.613000+00:00</time>
      </trkpt>
      <trkpt lat="0" lon="0">
        <time>2020-12-20T09:24:23.616000+00:00</time>
      </trkpt>
      <trkpt lat="0" lon="0">
        <time>2020-12-20T09:24:23.618000+00:00</time>
      </trkpt>
      <trkpt lat="0" lon="0">
        <time>2020-12-20T09:24:23.620000+00:00</time>
      </trkpt>
      <trkpt lat="47.33667" lon="-1.23896">
        <ele>73</ele>
        <time>2020-12-20T09:24:24.602000+00:00</time>
      </trkpt>
      <trkpt lat="0" lon="0">
        <time>2020-12-20T09:24:24.610000+00:00</time>
      </trkpt>
      <trkpt lat="0" lon="0">
        <time>2020-12-20T09:24:24.618000+00:00</time>
      </trkpt>
      <trkpt lat="0" lon="0">
        <time>2020-12-20T09:24:24.620000+00:00</time>
      </trkpt>
      <trkpt lat="47.33665" lon="-1.23896">
        <ele>73</ele>
        <time>2020-12-20T09:24:25.603000+00:00</time>
      </trkpt>
      <trkpt lat="0" lon="0">
        <time>2020-12-20T09:24:25.609000+00:00</time>
      </trkpt>
      <trkpt lat="0" lon="0">
        <time>2020-12-20T09:24:25.613000+00:00</time>
      </trkpt>
      <trkpt lat="0" lon="0">
        <time>2020-12-20T09:24:25.615000+00:00</time>
      </trkpt>
      <trkpt lat="47.33664" lon="-1.23895">
        <ele>73</ele>
        <time>2020-12-20T09:24:26.582000+00:00</time>
      </trkpt>
      <trkpt lat="0" lon="0">
        <time>2020-12-20T09:24:26.601000+00:00</time>
      </trkpt>
      <trkpt lat="0" lon="0">
        <time>2020-12-20T09:24:26.608000+00:00</time>
      </trkpt>
      <trkpt lat="0" lon="0">
        <time>2020-12-20T09:24:26.611000+00:00</time>
      </trkpt>
      <trkpt lat="47.33662" lon="-1.23894">
        <ele>73</ele>
        <time>2020-12-20T09:24:27.582000+00:00</time>
      </trkpt>
      <trkpt lat="0" lon="0">
        <time>2020-12-20T09:24:27.603000+00:00</time>
      </trkpt>
      <trkpt lat="0" lon="0">
        <time>2020-12-20T09:24:27.607000+00:00</time>
      </trkpt>
      <trkpt lat="0" lon="0">
        <time>2020-12-20T09:24:27.609000+00:00</time>
      </trkpt>
      <trkpt lat="47.33661" lon="-1.23892">
        <ele>73</ele>
        <time>2020-12-20T09:24:28.580000+00:00</time>
      </trkpt>
      <trkpt lat="0" lon="0">
        <time>2020-12-20T09:24:28.585000+00:00</time>
      </trkpt>
      <trkpt lat="0" lon="0">
        <time>2020-12-20T09:24:28.589000+00:00</time>
      </trkpt>
      <trkpt lat="0" lon="0">
        <time>2020-12-20T09:24:28.592000+00:00</time>
      </trkpt>
      <trkpt lat="47.33661" lon="-1.2389">
        <ele>73</ele>
        <time>2020-12-20T09:24:29.579000+00:00</time>
      </trkpt>
      <trkpt lat="0" lon="0">
        <time>2020-12-20T09:24:29.588000+00:00</time>
      </trkpt>
      <trkpt lat="0" lon="0">
        <time>2020-12-20T09:24:29.596000+00:00</time>
      </trkpt>
      <trkpt lat="0" lon="0">
        <time>2020-12-20T09:24:29.598000+00:00</time>
      </trkpt>
      <trkpt lat="47.33661" lon="-1.23888">
        <ele>73</ele>
        <time>2020-12-20T09:24:30.589000+00:00</time>
      </trkpt>
      <trkpt lat="0" lon="0">
        <time>2020-12-20T09:24:30.595000+00:00</time>
      </trkpt>
      <trkpt lat="0" lon="0">
        <time>2020-12-20T09:24:30.606000+00:00</time>
      </trkpt>
      <trkpt lat="0" lon="0">
        <time>2020-12-20T09:24:30.611000+00:00</time>
      </trkpt>
      <trkpt lat="47.33662" lon="-1.23886">
        <ele>73</ele>
        <time>2020-12-20T09:24:31.590000+00:00</time>
      </trkpt>
      <trkpt lat="0" lon="0">
        <time>2020-12-20T09:24:31.597000+00:00</time>
      </trkpt>
      <trkpt lat="0" lon="0">
        <time>2020-12-20T09:24:31.599000+00:00</time>
      </trkpt>
      <trkpt lat="0" lon="0">
        <time>2020-12-20T09:24:31.600000+00:00</time>
      </trkpt>
      <trkpt lat="47.33662" lon="-1.23885">
        <ele>74</ele>
        <time>2020-12-20T09:24:32.573000+00:00</time>
      </trkpt>
      <trkpt lat="0" lon="0">
        <time>2020-12-20T09:24:32.580000+00:00</time>
      </trkpt>
      <trkpt lat="0" lon="0">
        <time>2020-12-20T09:24:32.587000+00:00</time>
      </trkpt>
      <trkpt lat="0" lon="0">
        <time>2020-12-20T09:24:32.589000+00:00</time>
      </trkpt>
      <trkpt lat="47.33663" lon="-1.23883">
        <ele>74</ele>
        <time>2020-12-20T09:24:33.594000+00:00</time>
      </trkpt>
      <trkpt lat="0" lon="0">
        <time>2020-12-20T09:24:33.608000+00:00</time>
      </trkpt>
      <trkpt lat="0" lon="0">
        <time>2020-12-20T09:24:33.616000+00:00</time>
      </trkpt>
      <trkpt lat="0" lon="0">
        <time>2020-12-20T09:24:33.619000+00:00</time>
      </trkpt>
      <trkpt lat="47.33664" lon="-1.23882">
        <ele>74</ele>
        <time>2020-12-20T09:24:34.605000+00:00</time>
      </trkpt>
      <trkpt lat="0" lon="0">
        <time>2020-12-20T09:24:34.622000+00:00</time>
      </trkpt>
      <trkpt lat="0" lon="0">
        <time>2020-12-20T09:24:34.626000+00:00</time>
      </trkpt>
      <trkpt lat="0" lon="0">
        <time>2020-12-20T09:24:34.627000+00:00</time>
      </trkpt>
      <trkpt lat="47.33665" lon="-1.23881">
        <ele>74</ele>
        <time>2020-12-20T09:24:35.580000+00:00</time>
      </trkpt>
      <trkpt lat="0" lon="0">
        <time>2020-12-20T09:24:35.586000+00:00</time>
      </trkpt>
      <trkpt lat="0" lon="0">
        <time>2020-12-20T09:24:35.591000+00:00</time>
      </trkpt>
      <trkpt lat="0" lon="0">
        <time>2020-12-20T09:24:35.593000+00:00</time>
      </trkpt>
      <trkpt lat="47.33666" lon="-1.2388">
        <ele>74</ele>
        <time>2020-12-20T09:24:36.546000+00:00</time>
      </trkpt>
      <trkpt lat="0" lon="0">
        <time>2020-12-20T09:24:36.563000+00:00</time>
      </trkpt>
      <trkpt lat="0" lon="0">
        <time>2020-12-20T09:24:36.573000+00:00</time>
      </trkpt>
      <trkpt lat="0" lon="0">
        <time>2020-12-20T09:24:36.575000+00:00</time>
      </trkpt>
      <trkpt lat="47.33666" lon="-1.2388">
        <ele>74</ele>
        <time>2020-12-20T09:24:37.582000+00:00</time>
      </trkpt>
      <trkpt lat="0" lon="0">
        <time>2020-12-20T09:24:37.601000+00:00</time>
      </trkpt>
      <trkpt lat="0" lon="0">
        <time>2020-12-20T09:24:37.608000+00:00</time>
      </trkpt>
      <trkpt lat="0" lon="0">
        <time>2020-12-20T09:24:37.648000+00:00</time>
      </trkpt>
      <trkpt lat="47.33693" lon="-1.23868">
        <ele>75</ele>
        <time>2020-12-20T09:24:38.628000+00:00</time>
      </trkpt>
      <trkpt lat="0" lon="0">
        <time>2020-12-20T09:24:38.632000+00:00</time>
      </trkpt>
      <trkpt lat="0" lon="0">
        <time>2020-12-20T09:24:38.640000+00:00</time>
      </trkpt>
      <trkpt lat="0" lon="0">
        <time>2020-12-20T09:24:38.642000+00:00</time>
      </trkpt>
      <trkpt lat="47.33699" lon="-1.23864">
        <ele>75</ele>
        <time>2020-12-20T09:24:39.653000+00:00</time>
      </trkpt>
      <trkpt lat="0" lon="0">
        <time>2020-12-20T09:24:39.665000+00:00</time>
      </trkpt>
      <trkpt lat="0" lon="0">
        <time>2020-12-20T09:24:39.674000+00:00</time>
      </trkpt>
      <trkpt lat="0" lon="0">
        <time>2020-12-20T09:24:39.677000+00:00</time>
      </trkpt>
      <trkpt lat="47.33705" lon="-1.23858">
        <ele>75</ele>
        <time>2020-12-20T09:24:40.675000+00:00</time>
      </trkpt>
      <trkpt lat="0" lon="0">
        <time>2020-12-20T09:24:40.688000+00:00</time>
      </trkpt>
      <trkpt lat="0" lon="0">
        <time>2020-12-20T09:24:40.694000+00:00</time>
      </trkpt>
      <trkpt lat="0" lon="0">
        <time>2020-12-20T09:24:40.698000+00:00</time>
      </trkpt>
      <trkpt lat="47.33712" lon="-1.23853">
        <ele>75</ele>
        <time>2020-12-20T09:24:41.656000+00:00</time>
      </trkpt>
      <trkpt lat="0" lon="0">
        <time>2020-12-20T09:24:41.666000+00:00</time>
      </trkpt>
      <trkpt lat="0" lon="0">
        <time>2020-12-20T09:24:41.674000+00:00</time>
      </trkpt>
      <trkpt lat="0" lon="0">
        <time>2020-12-20T09:24:41.676000+00:00</time>
      </trkpt>
      <trkpt lat="47.33718" lon="-1.23846">
        <ele>75</ele>
        <time>2020-12-20T09:24:42.617000+00:00</time>
      </trkpt>
      <trkpt lat="0" lon="0">
        <time>2020-12-20T09:24:42.632000+00:00</time>
      </trkpt>
      <trkpt lat="0" lon="0">
        <time>2020-12-20T09:24:42.636000+00:00</time>
      </trkpt>
      <trkpt lat="0" lon="0">
        <time>2020-12-20T09:24:42.639000+00:00</time>
      </trkpt>
      <trkpt lat="47.33724" lon="-1.23839">
        <ele>74</ele>
        <time>2020-12-20T09:24:43.675000+00:00</time>
      </trkpt>
      <trkpt lat="0" lon="0">
        <time>2020-12-20T09:24:43.684000+00:00</time>
      </trkpt>
      <trkpt lat="0" lon="0">
        <time>2020-12-20T09:24:43.688000+00:00</time>
      </trkpt>
      <trkpt lat="0" lon="0">
        <time>2020-12-20T09:24:43.690000+00:00</time>
      </trkpt>
      <trkpt lat="47.33731" lon="-1.23832">
        <ele>74</ele>
        <time>2020-12-20T09:24:44.663000+00:00</time>
      </trkpt>
      <trkpt lat="0" lon="0">
        <time>2020-12-20T09:24:44.681000+00:00</time>
      </trkpt>
      <trkpt lat="0" lon="0">
        <time>2020-12-20T09:24:44.687000+00:00</time>
      </trkpt>
      <trkpt lat="0" lon="0">
        <time>2020-12-20T09:24:44.690000+00:00</time>
      </trkpt>
      <trkpt lat="47.33737" lon="-1.23826">
        <ele>74</ele>
        <time>2020-12-20T09:24:45.663000+00:00</time>
      </trkpt>
      <trkpt lat="0" lon="0">
        <time>2020-12-20T09:24:45.673000+00:00</time>
      </trkpt>
      <trkpt lat="0" lon="0">
        <time>2020-12-20T09:24:45.687000+00:00</time>
      </trkpt>
      <trkpt lat="0" lon="0">
        <time>2020-12-20T09:24:45.689000+00:00</time>
      </trkpt>
      <trkpt lat="47.33744" lon="-1.2382">
        <ele>73</ele>
        <time>2020-12-20T09:24:46.671000+00:00</time>
      </trkpt>
      <trkpt lat="0" lon="0">
        <time>2020-12-20T09:24:46.690000+00:00</time>
      </trkpt>
      <trkpt lat="0" lon="0">
        <time>2020-12-20T09:24:46.698000+00:00</time>
      </trkpt>
      <trkpt lat="0" lon="0">
        <time>2020-12-20T09:24:46.701000+00:00</time>
      </trkpt>
      <trkpt lat="47.33751" lon="-1.23814">
        <ele>72</ele>
        <time>2020-12-20T09:24:47.683000+00:00</time>
      </trkpt>
      <trkpt lat="0" lon="0">
        <time>2020-12-20T09:24:47.689000+00:00</time>
      </trkpt>
      <trkpt lat="0" lon="0">
        <time>2020-12-20T09:24:47.694000+00:00</time>
      </trkpt>
      <trkpt lat="0" lon="0">
        <time>2020-12-20T09:24:47.698000+00:00</time>
      </trkpt>
      <trkpt lat="47.33758" lon="-1.23809">
        <ele>72</ele>
        <time>2020-12-20T09:24:48.646000+00:00</time>
      </trkpt>
      <trkpt lat="0" lon="0">
        <time>2020-12-20T09:24:48.657000+00:00</time>
      </trkpt>
      <trkpt lat="0" lon="0">
        <time>2020-12-20T09:24:48.661000+00:00</time>
      </trkpt>
      <trkpt lat="0" lon="0">
        <time>2020-12-20T09:24:48.664000+00:00</time>
      </trkpt>
      <trkpt lat="47.33766" lon="-1.23805">
        <ele>71</ele>
        <time>2020-12-20T09:24:49.662000+00:00</time>
      </trkpt>
      <trkpt lat="0" lon="0">
        <time>2020-12-20T09:24:49.672000+00:00</time>
      </trkpt>
      <trkpt lat="0" lon="0">
        <time>2020-12-20T09:24:49.676000+00:00</time>
      </trkpt>
      <trkpt lat="0" lon="0">
        <time>2020-12-20T09:24:49.678000+00:00</time>
      </trkpt>
      <trkpt lat="47.33774" lon="-1.23802">
        <ele>72</ele>
        <time>2020-12-20T09:24:50.664000+00:00</time>
      </trkpt>
      <trkpt lat="0" lon="0">
        <time>2020-12-20T09:24:50.682000+00:00</time>
      </trkpt>
      <trkpt lat="0" lon="0">
        <time>2020-12-20T09:24:50.687000+00:00</time>
      </trkpt>
      <trkpt lat="0" lon="0">
        <time>2020-12-20T09:24:50.690000+00:00</time>
      </trkpt>
      <trkpt lat="47.33783" lon="-1.238">
        <ele>71</ele>
        <time>2020-12-20T09:24:51.674000+00:00</time>
      </trkpt>
      <trkpt lat="0" lon="0">
        <time>2020-12-20T09:24:51.689000+00:00</time>
      </trkpt>
      <trkpt lat="0" lon="0">
        <time>2020-12-20T09:24:51.693000+00:00</time>
      </trkpt>
      <trkpt lat="0" lon="0">
        <time>2020-12-20T09:24:51.695000+00:00</time>
      </trkpt>
      <trkpt lat="47.33792" lon="-1.23799">
        <ele>71</ele>
        <time>2020-12-20T09:24:52.630000+00:00</time>
      </trkpt>
      <trkpt lat="0" lon="0">
        <time>2020-12-20T09:24:52.636000+00:00</time>
      </trkpt>
      <trkpt lat="0" lon="0">
        <time>2020-12-20T09:24:52.650000+00:00</time>
      </trkpt>
      <trkpt lat="0" lon="0">
        <time>2020-12-20T09:24:52.653000+00:00</time>
      </trkpt>
      <trkpt lat="47.33801" lon="-1.23799">
        <ele>71</ele>
        <time>2020-12-20T09:24:53.693000+00:00</time>
      </trkpt>
      <trkpt lat="0" lon="0">
        <time>2020-12-20T09:24:53.705000+00:00</time>
      </trkpt>
      <trkpt lat="0" lon="0">
        <time>2020-12-20T09:24:53.709000+00:00</time>
      </trkpt>
      <trkpt lat="0" lon="0">
        <time>2020-12-20T09:24:53.715000+00:00</time>
      </trkpt>
      <trkpt lat="47.3381" lon="-1.23801">
        <ele>71</ele>
        <time>2020-12-20T09:24:54.620000+00:00</time>
      </trkpt>
      <trkpt lat="0" lon="0">
        <time>2020-12-20T09:24:54.641000+00:00</time>
      </trkpt>
      <trkpt lat="0" lon="0">
        <time>2020-12-20T09:24:54.648000+00:00</time>
      </trkpt>
      <trkpt lat="0" lon="0">
        <time>2020-12-20T09:24:54.653000+00:00</time>
      </trkpt>
      <trkpt lat="47.33819" lon="-1.23803">
        <ele>71</ele>
        <time>2020-12-20T09:24:55.684000+00:00</time>
      </trkpt>
      <trkpt lat="0" lon="0">
        <time>2020-12-20T09:24:55.698000+00:00</time>
      </trkpt>
      <trkpt lat="0" lon="0">
        <time>2020-12-20T09:24:55.713000+00:00</time>
      </trkpt>
      <trkpt lat="0" lon="0">
        <time>2020-12-20T09:24:55.717000+00:00</time>
      </trkpt>
      <trkpt lat="47.33829" lon="-1.23806">
        <ele>72</ele>
        <time>2020-12-20T09:24:56.649000+00:00</time>
      </trkpt>
      <trkpt lat="0" lon="0">
        <time>2020-12-20T09:24:56.666000+00:00</time>
      </trkpt>
      <trkpt lat="0" lon="0">
        <time>2020-12-20T09:24:56.673000+00:00</time>
      </trkpt>
      <trkpt lat="0" lon="0">
        <time>2020-12-20T09:24:56.675000+00:00</time>
      </trkpt>
      <trkpt lat="47.33838" lon="-1.2381">
        <ele>72</ele>
        <time>2020-12-20T09:24:57.614000+00:00</time>
      </trkpt>
      <trkpt lat="0" lon="0">
        <time>2020-12-20T09:24:57.627000+00:00</time>
      </trkpt>
      <trkpt lat="0" lon="0">
        <time>2020-12-20T09:24:57.634000+00:00</time>
      </trkpt>
      <trkpt lat="0" lon="0">
        <time>2020-12-20T09:24:57.638000+00:00</time>
      </trkpt>
      <trkpt lat="47.33847" lon="-1.23813">
        <ele>72</ele>
        <time>2020-12-20T09:24:58.629000+00:00</time>
      </trkpt>
      <trkpt lat="0" lon="0">
        <time>2020-12-20T09:24:58.636000+00:00</time>
      </trkpt>
      <trkpt lat="0" lon="0">
        <time>2020-12-20T09:24:58.648000+00:00</time>
      </trkpt>
      <trkpt lat="0" lon="0">
        <time>2020-12-20T09:24:58.650000+00:00</time>
      </trkpt>
      <trkpt lat="47.33855" lon="-1.23817">
        <ele>71</ele>
        <time>2020-12-20T09:24:59.636000+00:00</time>
      </trkpt>
      <trkpt lat="0" lon="0">
        <time>2020-12-20T09:24:59.642000+00:00</time>
      </trkpt>
      <trkpt lat="0" lon="0">
        <time>2020-12-20T09:24:59.646000+00:00</time>
      </trkpt>
      <trkpt lat="0" lon="0">
        <time>2020-12-20T09:24:59.648000+00:00</time>
      </trkpt>
      <trkpt lat="47.33862" lon="-1.23821">
        <ele>71</ele>
        <time>2020-12-20T09:25:00.674000+00:00</time>
      </trkpt>
      <trkpt lat="0" lon="0">
        <time>2020-12-20T09:25:00.683000+00:00</time>
      </trkpt>
      <trkpt lat="0" lon="0">
        <time>2020-12-20T09:25:00.687000+00:00</time>
      </trkpt>
      <trkpt lat="0" lon="0">
        <time>2020-12-20T09:25:00.689000+00:00</time>
      </trkpt>
      <trkpt lat="47.33868" lon="-1.23824">
        <ele>71</ele>
        <time>2020-12-20T09:25:01.630000+00:00</time>
      </trkpt>
      <trkpt lat="0" lon="0">
        <time>2020-12-20T09:25:01.635000+00:00</time>
      </trkpt>
      <trkpt lat="0" lon="0">
        <time>2020-12-20T09:25:01.655000+00:00</time>
      </trkpt>
      <trkpt lat="0" lon="0">
        <time>2020-12-20T09:25:01.657000+00:00</time>
      </trkpt>
      <trkpt lat="47.33874" lon="-1.23826">
        <ele>71</ele>
        <time>2020-12-20T09:25:02.647000+00:00</time>
      </trkpt>
      <trkpt lat="0" lon="0">
        <time>2020-12-20T09:25:02.661000+00:00</time>
      </trkpt>
      <trkpt lat="0" lon="0">
        <time>2020-12-20T09:25:02.670000+00:00</time>
      </trkpt>
      <trkpt lat="0" lon="0">
        <time>2020-12-20T09:25:02.673000+00:00</time>
      </trkpt>
      <trkpt lat="47.33877" lon="-1.23828">
        <ele>71</ele>
        <time>2020-12-20T09:25:03.649000+00:00</time>
      </trkpt>
      <trkpt lat="0" lon="0">
        <time>2020-12-20T09:25:03.654000+00:00</time>
      </trkpt>
      <trkpt lat="0" lon="0">
        <time>2020-12-20T09:25:03.661000+00:00</time>
      </trkpt>
      <trkpt lat="0" lon="0">
        <time>2020-12-20T09:25:03.664000+00:00</time>
      </trkpt>
      <trkpt lat="47.3388" lon="-1.2383">
        <ele>69</ele>
        <time>2020-12-20T09:25:04.658000+00:00</time>
      </trkpt>
      <trkpt lat="0" lon="0">
        <time>2020-12-20T09:25:04.660000+00:00</time>
      </trkpt>
      <trkpt lat="0" lon="0">
        <time>2020-12-20T09:25:04.665000+00:00</time>
      </trkpt>
      <trkpt lat="0" lon="0">
        <time>2020-12-20T09:25:04.666000+00:00</time>
      </trkpt>
      <trkpt lat="47.33882" lon="-1.23831">
        <ele>69</ele>
        <time>2020-12-20T09:25:05.676000+00:00</time>
      </trkpt>
      <trkpt lat="0" lon="0">
        <time>2020-12-20T09:25:05.681000+00:00</time>
      </trkpt>
      <trkpt lat="0" lon="0">
        <time>2020-12-20T09:25:05.685000+00:00</time>
      </trkpt>
      <trkpt lat="0" lon="0">
        <time>2020-12-20T09:25:05.692000+00:00</time>
      </trkpt>
      <trkpt lat="47.33882" lon="-1.23832">
        <ele>69</ele>
        <time>2020-12-20T09:25:06.667000+00:00</time>
      </trkpt>
      <trkpt lat="0" lon="0">
        <time>2020-12-20T09:25:06.674000+00:00</time>
      </trkpt>
      <trkpt lat="0" lon="0">
        <time>2020-12-20T09:25:06.679000+00:00</time>
      </trkpt>
      <trkpt lat="0" lon="0">
        <time>2020-12-20T09:25:06.682000+00:00</time>
      </trkpt>
      <trkpt lat="47.33883" lon="-1.23833">
        <ele>68</ele>
        <time>2020-12-20T09:25:07.673000+00:00</time>
      </trkpt>
      <trkpt lat="0" lon="0">
        <time>2020-12-20T09:25:07.690000+00:00</time>
      </trkpt>
      <trkpt lat="0" lon="0">
        <time>2020-12-20T09:25:07.696000+00:00</time>
      </trkpt>
      <trkpt lat="0" lon="0">
        <time>2020-12-20T09:25:07.699000+00:00</time>
      </trkpt>
      <trkpt lat="47.33883" lon="-1.23834">
        <ele>68</ele>
        <time>2020-12-20T09:25:08.652000+00:00</time>
      </trkpt>
      <trkpt lat="0" lon="0">
        <time>2020-12-20T09:25:08.664000+00:00</time>
      </trkpt>
      <trkpt lat="0" lon="0">
        <time>2020-12-20T09:25:08.668000+00:00</time>
      </trkpt>
      <trkpt lat="0" lon="0">
        <time>2020-12-20T09:25:08.670000+00:00</time>
      </trkpt>
      <trkpt lat="47.33883" lon="-1.23835">
        <ele>67</ele>
        <time>2020-12-20T09:25:09.647000+00:00</time>
      </trkpt>
      <trkpt lat="0" lon="0">
        <time>2020-12-20T09:25:09.654000+00:00</time>
      </trkpt>
      <trkpt lat="0" lon="0">
        <time>2020-12-20T09:25:09.660000+00:00</time>
      </trkpt>
      <trkpt lat="0" lon="0">
        <time>2020-12-20T09:25:09.669000+00:00</time>
      </trkpt>
      <trkpt lat="47.33883" lon="-1.23837">
        <ele>67</ele>
        <time>2020-12-20T09:25:10.640000+00:00</time>
      </trkpt>
      <trkpt lat="0" lon="0">
        <time>2020-12-20T09:25:10.660000+00:00</time>
      </trkpt>
      <trkpt lat="0" lon="0">
        <time>2020-12-20T09:25:10.669000+00:00</time>
      </trkpt>
      <trkpt lat="0" lon="0">
        <time>2020-12-20T09:25:10.671000+00:00</time>
      </trkpt>
      <trkpt lat="47.33882" lon="-1.23839">
        <ele>67</ele>
        <time>2020-12-20T09:25:11.648000+00:00</time>
      </trkpt>
      <trkpt lat="0" lon="0">
        <time>2020-12-20T09:25:11.658000+00:00</time>
      </trkpt>
      <trkpt lat="0" lon="0">
        <time>2020-12-20T09:25:11.664000+00:00</time>
      </trkpt>
      <trkpt lat="0" lon="0">
        <time>2020-12-20T09:25:11.668000+00:00</time>
      </trkpt>
      <trkpt lat="47.33881" lon="-1.23842">
        <ele>67</ele>
        <time>2020-12-20T09:25:12.632000+00:00</time>
      </trkpt>
      <trkpt lat="0" lon="0">
        <time>2020-12-20T09:25:12.639000+00:00</time>
      </trkpt>
      <trkpt lat="0" lon="0">
        <time>2020-12-20T09:25:12.644000+00:00</time>
      </trkpt>
      <trkpt lat="0" lon="0">
        <time>2020-12-20T09:25:12.646000+00:00</time>
      </trkpt>
      <trkpt lat="47.3388" lon="-1.23845">
        <ele>66</ele>
        <time>2020-12-20T09:25:13.632000+00:00</time>
      </trkpt>
      <trkpt lat="0" lon="0">
        <time>2020-12-20T09:25:13.653000+00:00</time>
      </trkpt>
      <trkpt lat="0" lon="0">
        <time>2020-12-20T09:25:13.658000+00:00</time>
      </trkpt>
      <trkpt lat="0" lon="0">
        <time>2020-12-20T09:25:13.663000+00:00</time>
      </trkpt>
      <trkpt lat="47.33879" lon="-1.23849">
        <ele>66</ele>
        <time>2020-12-20T09:25:14.607000+00:00</time>
      </trkpt>
      <trkpt lat="0" lon="0">
        <time>2020-12-20T09:25:14.627000+00:00</time>
      </trkpt>
      <trkpt lat="0" lon="0">
        <time>2020-12-20T09:25:14.632000+00:00</time>
      </trkpt>
      <trkpt lat="0" lon="0">
        <time>2020-12-20T09:25:14.640000+00:00</time>
      </trkpt>
      <trkpt lat="47.33877" lon="-1.23853">
        <ele>66</ele>
        <time>2020-12-20T09:25:15.637000+00:00</time>
      </trkpt>
      <trkpt lat="0" lon="0">
        <time>2020-12-20T09:25:15.648000+00:00</time>
      </trkpt>
      <trkpt lat="0" lon="0">
        <time>2020-12-20T09:25:15.655000+00:00</time>
      </trkpt>
      <trkpt lat="0" lon="0">
        <time>2020-12-20T09:25:15.660000+00:00</time>
      </trkpt>
      <trkpt lat="47.33875" lon="-1.23857">
        <ele>66</ele>
        <time>2020-12-20T09:25:16.670000+00:00</time>
      </trkpt>
      <trkpt lat="0" lon="0">
        <time>2020-12-20T09:25:16.682000+00:00</time>
      </trkpt>
      <trkpt lat="0" lon="0">
        <time>2020-12-20T09:25:16.689000+00:00</time>
      </trkpt>
      <trkpt lat="0" lon="0">
        <time>2020-12-20T09:25:16.691000+00:00</time>
      </trkpt>
      <trkpt lat="47.33873" lon="-1.23862">
        <ele>65</ele>
        <time>2020-12-20T09:25:17.671000+00:00</time>
      </trkpt>
      <trkpt lat="0" lon="0">
        <time>2020-12-20T09:25:17.676000+00:00</time>
      </trkpt>
      <trkpt lat="0" lon="0">
        <time>2020-12-20T09:25:17.686000+00:00</time>
      </trkpt>
      <trkpt lat="0" lon="0">
        <time>2020-12-20T09:25:17.690000+00:00</time>
      </trkpt>
      <trkpt lat="47.33871" lon="-1.23866">
        <ele>64</ele>
        <time>2020-12-20T09:25:18.690000+00:00</time>
      </trkpt>
      <trkpt lat="0" lon="0">
        <time>2020-12-20T09:25:18.706000+00:00</time>
      </trkpt>
      <trkpt lat="0" lon="0">
        <time>2020-12-20T09:25:18.710000+00:00</time>
      </trkpt>
      <trkpt lat="0" lon="0">
        <time>2020-12-20T09:25:18.713000+00:00</time>
      </trkpt>
      <trkpt lat="47.33869" lon="-1.23871">
        <ele>64</ele>
        <time>2020-12-20T09:25:19.648000+00:00</time>
      </trkpt>
      <trkpt lat="0" lon="0">
        <time>2020-12-20T09:25:19.658000+00:00</time>
      </trkpt>
      <trkpt lat="0" lon="0">
        <time>2020-12-20T09:25:19.663000+00:00</time>
      </trkpt>
      <trkpt lat="0" lon="0">
        <time>2020-12-20T09:25:19.665000+00:00</time>
      </trkpt>
      <trkpt lat="47.33868" lon="-1.23876">
        <ele>63</ele>
        <time>2020-12-20T09:25:20.677000+00:00</time>
      </trkpt>
      <trkpt lat="0" lon="0">
        <time>2020-12-20T09:25:20.683000+00:00</time>
      </trkpt>
      <trkpt lat="0" lon="0">
        <time>2020-12-20T09:25:20.689000+00:00</time>
      </trkpt>
      <trkpt lat="0" lon="0">
        <time>2020-12-20T09:25:20.690000+00:00</time>
      </trkpt>
      <trkpt lat="47.33866" lon="-1.23881">
        <ele>63</ele>
        <time>2020-12-20T09:25:21.641000+00:00</time>
      </trkpt>
      <trkpt lat="0" lon="0">
        <time>2020-12-20T09:25:21.652000+00:00</time>
      </trkpt>
      <trkpt lat="0" lon="0">
        <time>2020-12-20T09:25:21.663000+00:00</time>
      </trkpt>
      <trkpt lat="0" lon="0">
        <time>2020-12-20T09:25:21.666000+00:00</time>
      </trkpt>
      <trkpt lat="47.33865" lon="-1.23886">
        <ele>61</ele>
        <time>2020-12-20T09:25:22.651000+00:00</time>
      </trkpt>
      <trkpt lat="0" lon="0">
        <time>2020-12-20T09:25:22.660000+00:00</time>
      </trkpt>
      <trkpt lat="0" lon="0">
        <time>2020-12-20T09:25:22.664000+00:00</time>
      </trkpt>
      <trkpt lat="0" lon="0">
        <time>2020-12-20T09:25:22.668000+00:00</time>
      </trkpt>
      <trkpt lat="47.33864" lon="-1.23892">
        <ele>61</ele>
        <time>2020-12-20T09:25:23.670000+00:00</time>
      </trkpt>
      <trkpt lat="0" lon="0">
        <time>2020-12-20T09:25:23.674000+00:00</time>
      </trkpt>
      <trkpt lat="0" lon="0">
        <time>2020-12-20T09:25:23.681000+00:00</time>
      </trkpt>
      <trkpt lat="0" lon="0">
        <time>2020-12-20T09:25:23.683000+00:00</time>
      </trkpt>
      <trkpt lat="47.33862" lon="-1.23897">
        <ele>61</ele>
        <time>2020-12-20T09:25:24.672000+00:00</time>
      </trkpt>
      <trkpt lat="0" lon="0">
        <time>2020-12-20T09:25:24.684000+00:00</time>
      </trkpt>
      <trkpt lat="0" lon="0">
        <time>2020-12-20T09:25:24.688000+00:00</time>
      </trkpt>
      <trkpt lat="0" lon="0">
        <time>2020-12-20T09:25:24.695000+00:00</time>
      </trkpt>
      <trkpt lat="47.33861" lon="-1.23904">
        <ele>61</ele>
        <time>2020-12-20T09:25:25.688000+00:00</time>
      </trkpt>
      <trkpt lat="0" lon="0">
        <time>2020-12-20T09:25:25.705000+00:00</time>
      </trkpt>
      <trkpt lat="0" lon="0">
        <time>2020-12-20T09:25:25.709000+00:00</time>
      </trkpt>
      <trkpt lat="0" lon="0">
        <time>2020-12-20T09:25:25.713000+00:00</time>
      </trkpt>
      <trkpt lat="47.3386" lon="-1.2391">
        <ele>61</ele>
        <time>2020-12-20T09:25:26.680000+00:00</time>
      </trkpt>
      <trkpt lat="0" lon="0">
        <time>2020-12-20T09:25:26.689000+00:00</time>
      </trkpt>
      <trkpt lat="0" lon="0">
        <time>2020-12-20T09:25:26.694000+00:00</time>
      </trkpt>
      <trkpt lat="0" lon="0">
        <time>2020-12-20T09:25:26.697000+00:00</time>
      </trkpt>
      <trkpt lat="47.33859" lon="-1.23917">
        <ele>61</ele>
        <time>2020-12-20T09:25:27.663000+00:00</time>
      </trkpt>
      <trkpt lat="0" lon="0">
        <time>2020-12-20T09:25:27.670000+00:00</time>
      </trkpt>
      <trkpt lat="0" lon="0">
        <time>2020-12-20T09:25:27.675000+00:00</time>
      </trkpt>
      <trkpt lat="0" lon="0">
        <time>2020-12-20T09:25:27.677000+00:00</time>
      </trkpt>
      <trkpt lat="47.33858" lon="-1.23923">
        <ele>61</ele>
        <time>2020-12-20T09:25:28.653000+00:00</time>
      </trkpt>
      <trkpt lat="0" lon="0">
        <time>2020-12-20T09:25:28.660000+00:00</time>
      </trkpt>
      <trkpt lat="0" lon="0">
        <time>2020-12-20T09:25:28.665000+00:00</time>
      </trkpt>
      <trkpt lat="0" lon="0">
        <time>2020-12-20T09:25:28.668000+00:00</time>
      </trkpt>
      <trkpt lat="47.33857" lon="-1.2393">
        <ele>61</ele>
        <time>2020-12-20T09:25:29.661000+00:00</time>
      </trkpt>
      <trkpt lat="0" lon="0">
        <time>2020-12-20T09:25:29.666000+00:00</time>
      </trkpt>
      <trkpt lat="0" lon="0">
        <time>2020-12-20T09:25:29.672000+00:00</time>
      </trkpt>
      <trkpt lat="0" lon="0">
        <time>2020-12-20T09:25:29.675000+00:00</time>
      </trkpt>
      <trkpt lat="47.33856" lon="-1.23937">
        <ele>61</ele>
        <time>2020-12-20T09:25:30.687000+00:00</time>
      </trkpt>
      <trkpt lat="0" lon="0">
        <time>2020-12-20T09:25:30.693000+00:00</time>
      </trkpt>
      <trkpt lat="0" lon="0">
        <time>2020-12-20T09:25:30.708000+00:00</time>
      </trkpt>
      <trkpt lat="0" lon="0">
        <time>2020-12-20T09:25:30.710000+00:00</time>
      </trkpt>
      <trkpt lat="47.33855" lon="-1.23943">
        <ele>61</ele>
        <time>2020-12-20T09:25:31.641000+00:00</time>
      </trkpt>
      <trkpt lat="0" lon="0">
        <time>2020-12-20T09:25:31.648000+00:00</time>
      </trkpt>
      <trkpt lat="0" lon="0">
        <time>2020-12-20T09:25:31.653000+00:00</time>
      </trkpt>
      <trkpt lat="0" lon="0">
        <time>2020-12-20T09:25:31.655000+00:00</time>
      </trkpt>
      <trkpt lat="47.33854" lon="-1.2395">
        <ele>62</ele>
        <time>2020-12-20T09:25:32.623000+00:00</time>
      </trkpt>
      <trkpt lat="0" lon="0">
        <time>2020-12-20T09:25:32.632000+00:00</time>
      </trkpt>
      <trkpt lat="0" lon="0">
        <time>2020-12-20T09:25:32.636000+00:00</time>
      </trkpt>
      <trkpt lat="0" lon="0">
        <time>2020-12-20T09:25:32.639000+00:00</time>
      </trkpt>
      <trkpt lat="47.33853" lon="-1.23957">
        <ele>61</ele>
        <time>2020-12-20T09:25:33.633000+00:00</time>
      </trkpt>
      <trkpt lat="0" lon="0">
        <time>2020-12-20T09:25:33.639000+00:00</time>
      </trkpt>
      <trkpt lat="0" lon="0">
        <time>2020-12-20T09:25:33.644000+00:00</time>
      </trkpt>
      <trkpt lat="0" lon="0">
        <time>2020-12-20T09:25:33.652000+00:00</time>
      </trkpt>
      <trkpt lat="47.33852" lon="-1.23963">
        <ele>61</ele>
        <time>2020-12-20T09:25:34.667000+00:00</time>
      </trkpt>
      <trkpt lat="0" lon="0">
        <time>2020-12-20T09:25:34.677000+00:00</time>
      </trkpt>
      <trkpt lat="0" lon="0">
        <time>2020-12-20T09:25:34.683000+00:00</time>
      </trkpt>
      <trkpt lat="0" lon="0">
        <time>2020-12-20T09:25:34.685000+00:00</time>
      </trkpt>
      <trkpt lat="47.33851" lon="-1.2397">
        <ele>60</ele>
        <time>2020-12-20T09:25:35.648000+00:00</time>
      </trkpt>
      <trkpt lat="0" lon="0">
        <time>2020-12-20T09:25:35.663000+00:00</time>
      </trkpt>
      <trkpt lat="0" lon="0">
        <time>2020-12-20T09:25:35.668000+00:00</time>
      </trkpt>
      <trkpt lat="0" lon="0">
        <time>2020-12-20T09:25:35.671000+00:00</time>
      </trkpt>
      <trkpt lat="47.33849" lon="-1.23976">
        <ele>60</ele>
        <time>2020-12-20T09:25:36.658000+00:00</time>
      </trkpt>
      <trkpt lat="0" lon="0">
        <time>2020-12-20T09:25:36.679000+00:00</time>
      </trkpt>
      <trkpt lat="0" lon="0">
        <time>2020-12-20T09:25:36.692000+00:00</time>
      </trkpt>
      <trkpt lat="0" lon="0">
        <time>2020-12-20T09:25:36.697000+00:00</time>
      </trkpt>
      <trkpt lat="47.33848" lon="-1.23983">
        <ele>60</ele>
        <time>2020-12-20T09:25:37.678000+00:00</time>
      </trkpt>
      <trkpt lat="0" lon="0">
        <time>2020-12-20T09:25:37.681000+00:00</time>
      </trkpt>
      <trkpt lat="0" lon="0">
        <time>2020-12-20T09:25:37.686000+00:00</time>
      </trkpt>
      <trkpt lat="0" lon="0">
        <time>2020-12-20T09:25:37.687000+00:00</time>
      </trkpt>
      <trkpt lat="47.33846" lon="-1.2399">
        <ele>60</ele>
        <time>2020-12-20T09:25:38.673000+00:00</time>
      </trkpt>
      <trkpt lat="0" lon="0">
        <time>2020-12-20T09:25:38.686000+00:00</time>
      </trkpt>
      <trkpt lat="0" lon="0">
        <time>2020-12-20T09:25:38.690000+00:00</time>
      </trkpt>
      <trkpt lat="0" lon="0">
        <time>2020-12-20T09:25:38.692000+00:00</time>
      </trkpt>
      <trkpt lat="47.33845" lon="-1.23997">
        <ele>60</ele>
        <time>2020-12-20T09:25:39.673000+00:00</time>
      </trkpt>
      <trkpt lat="0" lon="0">
        <time>2020-12-20T09:25:39.689000+00:00</time>
      </trkpt>
      <trkpt lat="0" lon="0">
        <time>2020-12-20T09:25:39.693000+00:00</time>
      </trkpt>
      <trkpt lat="0" lon="0">
        <time>2020-12-20T09:25:39.697000+00:00</time>
      </trkpt>
      <trkpt lat="47.33844" lon="-1.24004">
        <ele>60</ele>
        <time>2020-12-20T09:25:40.645000+00:00</time>
      </trkpt>
      <trkpt lat="0" lon="0">
        <time>2020-12-20T09:25:40.653000+00:00</time>
      </trkpt>
      <trkpt lat="0" lon="0">
        <time>2020-12-20T09:25:40.668000+00:00</time>
      </trkpt>
      <trkpt lat="0" lon="0">
        <time>2020-12-20T09:25:40.676000+00:00</time>
      </trkpt>
      <trkpt lat="47.33842" lon="-1.24011">
        <ele>60</ele>
        <time>2020-12-20T09:25:41.614000+00:00</time>
      </trkpt>
      <trkpt lat="0" lon="0">
        <time>2020-12-20T09:25:41.616000+00:00</time>
      </trkpt>
      <trkpt lat="0" lon="0">
        <time>2020-12-20T09:25:41.619000+00:00</time>
      </trkpt>
      <trkpt lat="0" lon="0">
        <time>2020-12-20T09:25:41.621000+00:00</time>
      </trkpt>
      <trkpt lat="47.33841" lon="-1.24018">
        <ele>60</ele>
        <time>2020-12-20T09:25:42.651000+00:00</time>
      </trkpt>
      <trkpt lat="0" lon="0">
        <time>2020-12-20T09:25:42.667000+00:00</time>
      </trkpt>
      <trkpt lat="0" lon="0">
        <time>2020-12-20T09:25:42.673000+00:00</time>
      </trkpt>
      <trkpt lat="0" lon="0">
        <time>2020-12-20T09:25:42.676000+00:00</time>
      </trkpt>
      <trkpt lat="47.3384" lon="-1.24025">
        <ele>60</ele>
        <time>2020-12-20T09:25:43.652000+00:00</time>
      </trkpt>
      <trkpt lat="0" lon="0">
        <time>2020-12-20T09:25:43.670000+00:00</time>
      </trkpt>
      <trkpt lat="0" lon="0">
        <time>2020-12-20T09:25:43.680000+00:00</time>
      </trkpt>
      <trkpt lat="0" lon="0">
        <time>2020-12-20T09:25:43.687000+00:00</time>
      </trkpt>
      <trkpt lat="47.33838" lon="-1.24032">
        <ele>60</ele>
        <time>2020-12-20T09:25:44.640000+00:00</time>
      </trkpt>
      <trkpt lat="0" lon="0">
        <time>2020-12-20T09:25:44.649000+00:00</time>
      </trkpt>
      <trkpt lat="0" lon="0">
        <time>2020-12-20T09:25:44.653000+00:00</time>
      </trkpt>
      <trkpt lat="0" lon="0">
        <time>2020-12-20T09:25:44.656000+00:00</time>
      </trkpt>
      <trkpt lat="47.33837" lon="-1.24039">
        <ele>60</ele>
        <time>2020-12-20T09:25:45.641000+00:00</time>
      </trkpt>
      <trkpt lat="0" lon="0">
        <time>2020-12-20T09:25:45.645000+00:00</time>
      </trkpt>
      <trkpt lat="0" lon="0">
        <time>2020-12-20T09:25:45.651000+00:00</time>
      </trkpt>
      <trkpt lat="0" lon="0">
        <time>2020-12-20T09:25:45.653000+00:00</time>
      </trkpt>
      <trkpt lat="47.33835" lon="-1.24046">
        <ele>60</ele>
        <time>2020-12-20T09:25:46.667000+00:00</time>
      </trkpt>
      <trkpt lat="0" lon="0">
        <time>2020-12-20T09:25:46.677000+00:00</time>
      </trkpt>
      <trkpt lat="0" lon="0">
        <time>2020-12-20T09:25:46.681000+00:00</time>
      </trkpt>
      <trkpt lat="0" lon="0">
        <time>2020-12-20T09:25:46.682000+00:00</time>
      </trkpt>
      <trkpt lat="47.33834" lon="-1.24053">
        <ele>59</ele>
        <time>2020-12-20T09:25:47.656000+00:00</time>
      </trkpt>
      <trkpt lat="0" lon="0">
        <time>2020-12-20T09:25:47.663000+00:00</time>
      </trkpt>
      <trkpt lat="0" lon="0">
        <time>2020-12-20T09:25:47.674000+00:00</time>
      </trkpt>
      <trkpt lat="0" lon="0">
        <time>2020-12-20T09:25:47.681000+00:00</time>
      </trkpt>
      <trkpt lat="47.33832" lon="-1.2406">
        <ele>59</ele>
        <time>2020-12-20T09:25:48.668000+00:00</time>
      </trkpt>
      <trkpt lat="0" lon="0">
        <time>2020-12-20T09:25:48.679000+00:00</time>
      </trkpt>
      <trkpt lat="0" lon="0">
        <time>2020-12-20T09:25:48.683000+00:00</time>
      </trkpt>
      <trkpt lat="0" lon="0">
        <time>2020-12-20T09:25:48.685000+00:00</time>
      </trkpt>
      <trkpt lat="47.33831" lon="-1.24067">
        <ele>59</ele>
        <time>2020-12-20T09:25:49.648000+00:00</time>
      </trkpt>
      <trkpt lat="0" lon="0">
        <time>2020-12-20T09:25:49.654000+00:00</time>
      </trkpt>
      <trkpt lat="0" lon="0">
        <time>2020-12-20T09:25:49.660000+00:00</time>
      </trkpt>
      <trkpt lat="0" lon="0">
        <time>2020-12-20T09:25:49.662000+00:00</time>
      </trkpt>
      <trkpt lat="47.33829" lon="-1.24074">
        <ele>58</ele>
        <time>2020-12-20T09:25:50.644000+00:00</time>
      </trkpt>
      <trkpt lat="0" lon="0">
        <time>2020-12-20T09:25:50.657000+00:00</time>
      </trkpt>
      <trkpt lat="0" lon="0">
        <time>2020-12-20T09:25:50.661000+00:00</time>
      </trkpt>
      <trkpt lat="0" lon="0">
        <time>2020-12-20T09:25:50.663000+00:00</time>
      </trkpt>
      <trkpt lat="47.33827" lon="-1.24081">
        <ele>59</ele>
        <time>2020-12-20T09:25:51.676000+00:00</time>
      </trkpt>
      <trkpt lat="0" lon="0">
        <time>2020-12-20T09:25:51.683000+00:00</time>
      </trkpt>
      <trkpt lat="0" lon="0">
        <time>2020-12-20T09:25:51.691000+00:00</time>
      </trkpt>
      <trkpt lat="0" lon="0">
        <time>2020-12-20T09:25:51.694000+00:00</time>
      </trkpt>
      <trkpt lat="47.33826" lon="-1.24087">
        <ele>58</ele>
        <time>2020-12-20T09:25:52.702000+00:00</time>
      </trkpt>
      <trkpt lat="0" lon="0">
        <time>2020-12-20T09:25:52.709000+00:00</time>
      </trkpt>
      <trkpt lat="0" lon="0">
        <time>2020-12-20T09:25:52.724000+00:00</time>
      </trkpt>
      <trkpt lat="0" lon="0">
        <time>2020-12-20T09:25:52.728000+00:00</time>
      </trkpt>
      <trkpt lat="47.33824" lon="-1.24093">
        <ele>58</ele>
        <time>2020-12-20T09:25:53.712000+00:00</time>
      </trkpt>
      <trkpt lat="0" lon="0">
        <time>2020-12-20T09:25:53.718000+00:00</time>
      </trkpt>
      <trkpt lat="0" lon="0">
        <time>2020-12-20T09:25:53.722000+00:00</time>
      </trkpt>
      <trkpt lat="0" lon="0">
        <time>2020-12-20T09:25:53.723000+00:00</time>
      </trkpt>
      <trkpt lat="47.33823" lon="-1.24099">
        <ele>58</ele>
        <time>2020-12-20T09:25:54.646000+00:00</time>
      </trkpt>
      <trkpt lat="0" lon="0">
        <time>2020-12-20T09:25:54.653000+00:00</time>
      </trkpt>
      <trkpt lat="0" lon="0">
        <time>2020-12-20T09:25:54.664000+00:00</time>
      </trkpt>
      <trkpt lat="0" lon="0">
        <time>2020-12-20T09:25:54.666000+00:00</time>
      </trkpt>
      <trkpt lat="47.33822" lon="-1.24106">
        <ele>58</ele>
        <time>2020-12-20T09:25:55.677000+00:00</time>
      </trkpt>
      <trkpt lat="0" lon="0">
        <time>2020-12-20T09:25:55.680000+00:00</time>
      </trkpt>
      <trkpt lat="0" lon="0">
        <time>2020-12-20T09:25:55.684000+00:00</time>
      </trkpt>
      <trkpt lat="0" lon="0">
        <time>2020-12-20T09:25:55.689000+00:00</time>
      </trkpt>
      <trkpt lat="47.33821" lon="-1.24112">
        <ele>58</ele>
        <time>2020-12-20T09:25:56.647000+00:00</time>
      </trkpt>
      <trkpt lat="0" lon="0">
        <time>2020-12-20T09:25:56.656000+00:00</time>
      </trkpt>
      <trkpt lat="0" lon="0">
        <time>2020-12-20T09:25:56.661000+00:00</time>
      </trkpt>
      <trkpt lat="0" lon="0">
        <time>2020-12-20T09:25:56.665000+00:00</time>
      </trkpt>
      <trkpt lat="47.33821" lon="-1.24119">
        <ele>58</ele>
        <time>2020-12-20T09:25:57.632000+00:00</time>
      </trkpt>
      <trkpt lat="0" lon="0">
        <time>2020-12-20T09:25:57.640000+00:00</time>
      </trkpt>
      <trkpt lat="0" lon="0">
        <time>2020-12-20T09:25:57.646000+00:00</time>
      </trkpt>
      <trkpt lat="0" lon="0">
        <time>2020-12-20T09:25:57.649000+00:00</time>
      </trkpt>
      <trkpt lat="47.3382" lon="-1.24126">
        <ele>58</ele>
        <time>2020-12-20T09:25:58.691000+00:00</time>
      </trkpt>
      <trkpt lat="0" lon="0">
        <time>2020-12-20T09:25:58.698000+00:00</time>
      </trkpt>
      <trkpt lat="0" lon="0">
        <time>2020-12-20T09:25:58.704000+00:00</time>
      </trkpt>
      <trkpt lat="0" lon="0">
        <time>2020-12-20T09:25:58.706000+00:00</time>
      </trkpt>
      <trkpt lat="47.33819" lon="-1.24133">
        <ele>58</ele>
        <time>2020-12-20T09:25:59.656000+00:00</time>
      </trkpt>
      <trkpt lat="0" lon="0">
        <time>2020-12-20T09:25:59.658000+00:00</time>
      </trkpt>
      <trkpt lat="0" lon="0">
        <time>2020-12-20T09:25:59.659000+00:00</time>
      </trkpt>
      <trkpt lat="0" lon="0">
        <time>2020-12-20T09:25:59.660000+00:00</time>
      </trkpt>
      <trkpt lat="47.33818" lon="-1.2414">
        <ele>59</ele>
        <time>2020-12-20T09:26:00.653000+00:00</time>
      </trkpt>
      <trkpt lat="0" lon="0">
        <time>2020-12-20T09:26:00.661000+00:00</time>
      </trkpt>
      <trkpt lat="0" lon="0">
        <time>2020-12-20T09:26:00.665000+00:00</time>
      </trkpt>
      <trkpt lat="0" lon="0">
        <time>2020-12-20T09:26:00.668000+00:00</time>
      </trkpt>
      <trkpt lat="47.33817" lon="-1.24148">
        <ele>59</ele>
        <time>2020-12-20T09:26:01.692000+00:00</time>
      </trkpt>
      <trkpt lat="0" lon="0">
        <time>2020-12-20T09:26:01.707000+00:00</time>
      </trkpt>
      <trkpt lat="0" lon="0">
        <time>2020-12-20T09:26:01.710000+00:00</time>
      </trkpt>
      <trkpt lat="0" lon="0">
        <time>2020-12-20T09:26:01.714000+00:00</time>
      </trkpt>
      <trkpt lat="47.33816" lon="-1.24156">
        <ele>59</ele>
        <time>2020-12-20T09:26:02.638000+00:00</time>
      </trkpt>
      <trkpt lat="0" lon="0">
        <time>2020-12-20T09:26:02.644000+00:00</time>
      </trkpt>
      <trkpt lat="0" lon="0">
        <time>2020-12-20T09:26:02.652000+00:00</time>
      </trkpt>
      <trkpt lat="0" lon="0">
        <time>2020-12-20T09:26:02.662000+00:00</time>
      </trkpt>
      <trkpt lat="47.33816" lon="-1.24164">
        <ele>59</ele>
        <time>2020-12-20T09:26:03.676000+00:00</time>
      </trkpt>
      <trkpt lat="0" lon="0">
        <time>2020-12-20T09:26:03.683000+00:00</time>
      </trkpt>
      <trkpt lat="0" lon="0">
        <time>2020-12-20T09:26:03.689000+00:00</time>
      </trkpt>
      <trkpt lat="0" lon="0">
        <time>2020-12-20T09:26:03.691000+00:00</time>
      </trkpt>
      <trkpt lat="47.33815" lon="-1.24172">
        <ele>59</ele>
        <time>2020-12-20T09:26:04.631000+00:00</time>
      </trkpt>
      <trkpt lat="0" lon="0">
        <time>2020-12-20T09:26:04.643000+00:00</time>
      </trkpt>
      <trkpt lat="0" lon="0">
        <time>2020-12-20T09:26:04.654000+00:00</time>
      </trkpt>
      <trkpt lat="0" lon="0">
        <time>2020-12-20T09:26:04.657000+00:00</time>
      </trkpt>
      <trkpt lat="47.33814" lon="-1.24181">
        <ele>58</ele>
        <time>2020-12-20T09:26:05.663000+00:00</time>
      </trkpt>
      <trkpt lat="0" lon="0">
        <time>2020-12-20T09:26:05.675000+00:00</time>
      </trkpt>
      <trkpt lat="0" lon="0">
        <time>2020-12-20T09:26:05.683000+00:00</time>
      </trkpt>
      <trkpt lat="0" lon="0">
        <time>2020-12-20T09:26:05.685000+00:00</time>
      </trkpt>
      <trkpt lat="47.33813" lon="-1.24189">
        <ele>57</ele>
        <time>2020-12-20T09:26:06.669000+00:00</time>
      </trkpt>
      <trkpt lat="0" lon="0">
        <time>2020-12-20T09:26:06.675000+00:00</time>
      </trkpt>
      <trkpt lat="0" lon="0">
        <time>2020-12-20T09:26:06.687000+00:00</time>
      </trkpt>
      <trkpt lat="0" lon="0">
        <time>2020-12-20T09:26:06.694000+00:00</time>
      </trkpt>
      <trkpt lat="47.33812" lon="-1.24198">
        <ele>57</ele>
        <time>2020-12-20T09:26:07.672000+00:00</time>
      </trkpt>
      <trkpt lat="0" lon="0">
        <time>2020-12-20T09:26:07.685000+00:00</time>
      </trkpt>
      <trkpt lat="0" lon="0">
        <time>2020-12-20T09:26:07.691000+00:00</time>
      </trkpt>
      <trkpt lat="0" lon="0">
        <time>2020-12-20T09:26:07.694000+00:00</time>
      </trkpt>
      <trkpt lat="47.33811" lon="-1.24206">
        <ele>57</ele>
        <time>2020-12-20T09:26:08.630000+00:00</time>
      </trkpt>
      <trkpt lat="0" lon="0">
        <time>2020-12-20T09:26:08.652000+00:00</time>
      </trkpt>
      <trkpt lat="0" lon="0">
        <time>2020-12-20T09:26:08.656000+00:00</time>
      </trkpt>
      <trkpt lat="0" lon="0">
        <time>2020-12-20T09:26:08.658000+00:00</time>
      </trkpt>
      <trkpt lat="47.33811" lon="-1.24215">
        <ele>56</ele>
        <time>2020-12-20T09:26:09.660000+00:00</time>
      </trkpt>
      <trkpt lat="0" lon="0">
        <time>2020-12-20T09:26:09.664000+00:00</time>
      </trkpt>
      <trkpt lat="0" lon="0">
        <time>2020-12-20T09:26:09.668000+00:00</time>
      </trkpt>
      <trkpt lat="0" lon="0">
        <time>2020-12-20T09:26:09.673000+00:00</time>
      </trkpt>
      <trkpt lat="47.3381" lon="-1.24223">
        <ele>56</ele>
        <time>2020-12-20T09:26:10.661000+00:00</time>
      </trkpt>
      <trkpt lat="0" lon="0">
        <time>2020-12-20T09:26:10.680000+00:00</time>
      </trkpt>
      <trkpt lat="0" lon="0">
        <time>2020-12-20T09:26:10.684000+00:00</time>
      </trkpt>
      <trkpt lat="0" lon="0">
        <time>2020-12-20T09:26:10.687000+00:00</time>
      </trkpt>
      <trkpt lat="47.3381" lon="-1.24231">
        <ele>56</ele>
        <time>2020-12-20T09:26:11.651000+00:00</time>
      </trkpt>
      <trkpt lat="0" lon="0">
        <time>2020-12-20T09:26:11.665000+00:00</time>
      </trkpt>
      <trkpt lat="0" lon="0">
        <time>2020-12-20T09:26:11.670000+00:00</time>
      </trkpt>
      <trkpt lat="0" lon="0">
        <time>2020-12-20T09:26:11.673000+00:00</time>
      </trkpt>
      <trkpt lat="47.33809" lon="-1.24239">
        <ele>56</ele>
        <time>2020-12-20T09:26:12.653000+00:00</time>
      </trkpt>
      <trkpt lat="0" lon="0">
        <time>2020-12-20T09:26:12.666000+00:00</time>
      </trkpt>
      <trkpt lat="0" lon="0">
        <time>2020-12-20T09:26:12.670000+00:00</time>
      </trkpt>
      <trkpt lat="0" lon="0">
        <time>2020-12-20T09:26:12.673000+00:00</time>
      </trkpt>
      <trkpt lat="47.33809" lon="-1.24247">
        <ele>56</ele>
        <time>2020-12-20T09:26:13.653000+00:00</time>
      </trkpt>
      <trkpt lat="0" lon="0">
        <time>2020-12-20T09:26:13.659000+00:00</time>
      </trkpt>
      <trkpt lat="0" lon="0">
        <time>2020-12-20T09:26:13.669000+00:00</time>
      </trkpt>
      <trkpt lat="0" lon="0">
        <time>2020-12-20T09:26:13.672000+00:00</time>
      </trkpt>
      <trkpt lat="47.33809" lon="-1.24255">
        <ele>56</ele>
        <time>2020-12-20T09:26:14.651000+00:00</time>
      </trkpt>
      <trkpt lat="0" lon="0">
        <time>2020-12-20T09:26:14.662000+00:00</time>
      </trkpt>
      <trkpt lat="0" lon="0">
        <time>2020-12-20T09:26:14.675000+00:00</time>
      </trkpt>
      <trkpt lat="0" lon="0">
        <time>2020-12-20T09:26:14.680000+00:00</time>
      </trkpt>
      <trkpt lat="47.33809" lon="-1.24263">
        <ele>56</ele>
        <time>2020-12-20T09:26:15.622000+00:00</time>
      </trkpt>
      <trkpt lat="0" lon="0">
        <time>2020-12-20T09:26:15.627000+00:00</time>
      </trkpt>
      <trkpt lat="0" lon="0">
        <time>2020-12-20T09:26:15.630000+00:00</time>
      </trkpt>
      <trkpt lat="0" lon="0">
        <time>2020-12-20T09:26:15.631000+00:00</time>
      </trkpt>
      <trkpt lat="47.33808" lon="-1.24271">
        <ele>56</ele>
        <time>2020-12-20T09:26:16.678000+00:00</time>
      </trkpt>
      <trkpt lat="0" lon="0">
        <time>2020-12-20T09:26:16.695000+00:00</time>
      </trkpt>
      <trkpt lat="0" lon="0">
        <time>2020-12-20T09:26:16.701000+00:00</time>
      </trkpt>
      <trkpt lat="0" lon="0">
        <time>2020-12-20T09:26:16.704000+00:00</time>
      </trkpt>
      <trkpt lat="47.33808" lon="-1.24279">
        <ele>56</ele>
        <time>2020-12-20T09:26:17.634000+00:00</time>
      </trkpt>
      <trkpt lat="0" lon="0">
        <time>2020-12-20T09:26:17.653000+00:00</time>
      </trkpt>
      <trkpt lat="0" lon="0">
        <time>2020-12-20T09:26:17.658000+00:00</time>
      </trkpt>
      <trkpt lat="0" lon="0">
        <time>2020-12-20T09:26:17.662000+00:00</time>
      </trkpt>
      <trkpt lat="47.33808" lon="-1.24287">
        <ele>56</ele>
        <time>2020-12-20T09:26:18.676000+00:00</time>
      </trkpt>
      <trkpt lat="0" lon="0">
        <time>2020-12-20T09:26:18.681000+00:00</time>
      </trkpt>
      <trkpt lat="0" lon="0">
        <time>2020-12-20T09:26:18.688000+00:00</time>
      </trkpt>
      <trkpt lat="0" lon="0">
        <time>2020-12-20T09:26:18.690000+00:00</time>
      </trkpt>
      <trkpt lat="47.33808" lon="-1.24295">
        <ele>56</ele>
        <time>2020-12-20T09:26:19.665000+00:00</time>
      </trkpt>
      <trkpt lat="0" lon="0">
        <time>2020-12-20T09:26:19.672000+00:00</time>
      </trkpt>
      <trkpt lat="0" lon="0">
        <time>2020-12-20T09:26:19.676000+00:00</time>
      </trkpt>
      <trkpt lat="0" lon="0">
        <time>2020-12-20T09:26:19.677000+00:00</time>
      </trkpt>
      <trkpt lat="47.33808" lon="-1.24303">
        <ele>56</ele>
        <time>2020-12-20T09:26:20.656000+00:00</time>
      </trkpt>
      <trkpt lat="0" lon="0">
        <time>2020-12-20T09:26:20.666000+00:00</time>
      </trkpt>
      <trkpt lat="0" lon="0">
        <time>2020-12-20T09:26:20.673000+00:00</time>
      </trkpt>
      <trkpt lat="0" lon="0">
        <time>2020-12-20T09:26:20.675000+00:00</time>
      </trkpt>
      <trkpt lat="47.33807" lon="-1.24311">
        <ele>56</ele>
        <time>2020-12-20T09:26:21.684000+00:00</time>
      </trkpt>
      <trkpt lat="0" lon="0">
        <time>2020-12-20T09:26:21.691000+00:00</time>
      </trkpt>
      <trkpt lat="0" lon="0">
        <time>2020-12-20T09:26:21.695000+00:00</time>
      </trkpt>
      <trkpt lat="0" lon="0">
        <time>2020-12-20T09:26:21.696000+00:00</time>
      </trkpt>
      <trkpt lat="47.33807" lon="-1.24319">
        <ele>56</ele>
        <time>2020-12-20T09:26:22.679000+00:00</time>
      </trkpt>
      <trkpt lat="0" lon="0">
        <time>2020-12-20T09:26:22.690000+00:00</time>
      </trkpt>
      <trkpt lat="0" lon="0">
        <time>2020-12-20T09:26:22.694000+00:00</time>
      </trkpt>
      <trkpt lat="0" lon="0">
        <time>2020-12-20T09:26:22.696000+00:00</time>
      </trkpt>
      <trkpt lat="47.33806" lon="-1.24327">
        <ele>56</ele>
        <time>2020-12-20T09:26:23.675000+00:00</time>
      </trkpt>
      <trkpt lat="0" lon="0">
        <time>2020-12-20T09:26:23.689000+00:00</time>
      </trkpt>
      <trkpt lat="0" lon="0">
        <time>2020-12-20T09:26:23.698000+00:00</time>
      </trkpt>
      <trkpt lat="0" lon="0">
        <time>2020-12-20T09:26:23.704000+00:00</time>
      </trkpt>
      <trkpt lat="47.33805" lon="-1.24335">
        <ele>56</ele>
        <time>2020-12-20T09:26:24.669000+00:00</time>
      </trkpt>
      <trkpt lat="0" lon="0">
        <time>2020-12-20T09:26:24.678000+00:00</time>
      </trkpt>
      <trkpt lat="0" lon="0">
        <time>2020-12-20T09:26:24.683000+00:00</time>
      </trkpt>
      <trkpt lat="0" lon="0">
        <time>2020-12-20T09:26:24.686000+00:00</time>
      </trkpt>
      <trkpt lat="47.33804" lon="-1.24343">
        <ele>56</ele>
        <time>2020-12-20T09:26:25.630000+00:00</time>
      </trkpt>
      <trkpt lat="0" lon="0">
        <time>2020-12-20T09:26:25.644000+00:00</time>
      </trkpt>
      <trkpt lat="0" lon="0">
        <time>2020-12-20T09:26:25.647000+00:00</time>
      </trkpt>
      <trkpt lat="0" lon="0">
        <time>2020-12-20T09:26:25.649000+00:00</time>
      </trkpt>
      <trkpt lat="47.33803" lon="-1.24351">
        <ele>55</ele>
        <time>2020-12-20T09:26:26.654000+00:00</time>
      </trkpt>
      <trkpt lat="0" lon="0">
        <time>2020-12-20T09:26:26.672000+00:00</time>
      </trkpt>
      <trkpt lat="0" lon="0">
        <time>2020-12-20T09:26:26.681000+00:00</time>
      </trkpt>
      <trkpt lat="0" lon="0">
        <time>2020-12-20T09:26:26.687000+00:00</time>
      </trkpt>
      <trkpt lat="47.33802" lon="-1.24359">
        <ele>55</ele>
        <time>2020-12-20T09:26:27.652000+00:00</time>
      </trkpt>
      <trkpt lat="0" lon="0">
        <time>2020-12-20T09:26:27.666000+00:00</time>
      </trkpt>
      <trkpt lat="0" lon="0">
        <time>2020-12-20T09:26:27.679000+00:00</time>
      </trkpt>
      <trkpt lat="0" lon="0">
        <time>2020-12-20T09:26:27.681000+00:00</time>
      </trkpt>
      <trkpt lat="47.33801" lon="-1.24367">
        <ele>55</ele>
        <time>2020-12-20T09:26:28.679000+00:00</time>
      </trkpt>
      <trkpt lat="0" lon="0">
        <time>2020-12-20T09:26:28.687000+00:00</time>
      </trkpt>
      <trkpt lat="0" lon="0">
        <time>2020-12-20T09:26:28.698000+00:00</time>
      </trkpt>
      <trkpt lat="0" lon="0">
        <time>2020-12-20T09:26:28.703000+00:00</time>
      </trkpt>
      <trkpt lat="47.33799" lon="-1.24375">
        <ele>56</ele>
        <time>2020-12-20T09:26:29.625000+00:00</time>
      </trkpt>
      <trkpt lat="0" lon="0">
        <time>2020-12-20T09:26:29.627000+00:00</time>
      </trkpt>
      <trkpt lat="0" lon="0">
        <time>2020-12-20T09:26:29.629000+00:00</time>
      </trkpt>
      <trkpt lat="0" lon="0">
        <time>2020-12-20T09:26:29.630000+00:00</time>
      </trkpt>
      <trkpt lat="47.33798" lon="-1.24383">
        <ele>56</ele>
        <time>2020-12-20T09:26:30.608000+00:00</time>
      </trkpt>
      <trkpt lat="0" lon="0">
        <time>2020-12-20T09:26:30.619000+00:00</time>
      </trkpt>
      <trkpt lat="0" lon="0">
        <time>2020-12-20T09:26:30.623000+00:00</time>
      </trkpt>
      <trkpt lat="0" lon="0">
        <time>2020-12-20T09:26:30.625000+00:00</time>
      </trkpt>
      <trkpt lat="47.33797" lon="-1.2439">
        <ele>56</ele>
        <time>2020-12-20T09:26:31.647000+00:00</time>
      </trkpt>
      <trkpt lat="0" lon="0">
        <time>2020-12-20T09:26:31.656000+00:00</time>
      </trkpt>
      <trkpt lat="0" lon="0">
        <time>2020-12-20T09:26:31.664000+00:00</time>
      </trkpt>
      <trkpt lat="0" lon="0">
        <time>2020-12-20T09:26:31.666000+00:00</time>
      </trkpt>
      <trkpt lat="47.33795" lon="-1.24398">
        <ele>56</ele>
        <time>2020-12-20T09:26:32.611000+00:00</time>
      </trkpt>
      <trkpt lat="0" lon="0">
        <time>2020-12-20T09:26:32.626000+00:00</time>
      </trkpt>
      <trkpt lat="0" lon="0">
        <time>2020-12-20T09:26:32.633000+00:00</time>
      </trkpt>
      <trkpt lat="0" lon="0">
        <time>2020-12-20T09:26:32.639000+00:00</time>
      </trkpt>
      <trkpt lat="47.33794" lon="-1.24406">
        <ele>56</ele>
        <time>2020-12-20T09:26:33.656000+00:00</time>
      </trkpt>
      <trkpt lat="0" lon="0">
        <time>2020-12-20T09:26:33.663000+00:00</time>
      </trkpt>
      <trkpt lat="0" lon="0">
        <time>2020-12-20T09:26:33.668000+00:00</time>
      </trkpt>
      <trkpt lat="0" lon="0">
        <time>2020-12-20T09:26:33.671000+00:00</time>
      </trkpt>
      <trkpt lat="47.33792" lon="-1.24413">
        <ele>56</ele>
        <time>2020-12-20T09:26:34.654000+00:00</time>
      </trkpt>
      <trkpt lat="0" lon="0">
        <time>2020-12-20T09:26:34.667000+00:00</time>
      </trkpt>
      <trkpt lat="0" lon="0">
        <time>2020-12-20T09:26:34.675000+00:00</time>
      </trkpt>
      <trkpt lat="0" lon="0">
        <time>2020-12-20T09:26:34.677000+00:00</time>
      </trkpt>
      <trkpt lat="47.33791" lon="-1.24421">
        <ele>56</ele>
        <time>2020-12-20T09:26:35.652000+00:00</time>
      </trkpt>
      <trkpt lat="0" lon="0">
        <time>2020-12-20T09:26:35.661000+00:00</time>
      </trkpt>
      <trkpt lat="0" lon="0">
        <time>2020-12-20T09:26:35.667000+00:00</time>
      </trkpt>
      <trkpt lat="0" lon="0">
        <time>2020-12-20T09:26:35.669000+00:00</time>
      </trkpt>
      <trkpt lat="47.33789" lon="-1.24429">
        <ele>56</ele>
        <time>2020-12-20T09:26:36.649000+00:00</time>
      </trkpt>
      <trkpt lat="0" lon="0">
        <time>2020-12-20T09:26:36.666000+00:00</time>
      </trkpt>
      <trkpt lat="0" lon="0">
        <time>2020-12-20T09:26:36.670000+00:00</time>
      </trkpt>
      <trkpt lat="0" lon="0">
        <time>2020-12-20T09:26:36.673000+00:00</time>
      </trkpt>
      <trkpt lat="47.33788" lon="-1.24436">
        <ele>56</ele>
        <time>2020-12-20T09:26:37.645000+00:00</time>
      </trkpt>
      <trkpt lat="0" lon="0">
        <time>2020-12-20T09:26:37.653000+00:00</time>
      </trkpt>
      <trkpt lat="0" lon="0">
        <time>2020-12-20T09:26:37.663000+00:00</time>
      </trkpt>
      <trkpt lat="0" lon="0">
        <time>2020-12-20T09:26:37.667000+00:00</time>
      </trkpt>
      <trkpt lat="47.33786" lon="-1.24444">
        <ele>56</ele>
        <time>2020-12-20T09:26:38.647000+00:00</time>
      </trkpt>
      <trkpt lat="0" lon="0">
        <time>2020-12-20T09:26:38.657000+00:00</time>
      </trkpt>
      <trkpt lat="0" lon="0">
        <time>2020-12-20T09:26:38.664000+00:00</time>
      </trkpt>
      <trkpt lat="0" lon="0">
        <time>2020-12-20T09:26:38.672000+00:00</time>
      </trkpt>
      <trkpt lat="47.33784" lon="-1.24452">
        <ele>56</ele>
        <time>2020-12-20T09:26:39.646000+00:00</time>
      </trkpt>
      <trkpt lat="0" lon="0">
        <time>2020-12-20T09:26:39.655000+00:00</time>
      </trkpt>
      <trkpt lat="0" lon="0">
        <time>2020-12-20T09:26:39.660000+00:00</time>
      </trkpt>
      <trkpt lat="0" lon="0">
        <time>2020-12-20T09:26:39.662000+00:00</time>
      </trkpt>
      <trkpt lat="47.33783" lon="-1.24459">
        <ele>56</ele>
        <time>2020-12-20T09:26:40.671000+00:00</time>
      </trkpt>
      <trkpt lat="0" lon="0">
        <time>2020-12-20T09:26:40.690000+00:00</time>
      </trkpt>
      <trkpt lat="0" lon="0">
        <time>2020-12-20T09:26:40.698000+00:00</time>
      </trkpt>
      <trkpt lat="0" lon="0">
        <time>2020-12-20T09:26:40.702000+00:00</time>
      </trkpt>
      <trkpt lat="47.33782" lon="-1.24467">
        <ele>56</ele>
        <time>2020-12-20T09:26:41.681000+00:00</time>
      </trkpt>
      <trkpt lat="0" lon="0">
        <time>2020-12-20T09:26:41.704000+00:00</time>
      </trkpt>
      <trkpt lat="0" lon="0">
        <time>2020-12-20T09:26:41.710000+00:00</time>
      </trkpt>
      <trkpt lat="0" lon="0">
        <time>2020-12-20T09:26:41.718000+00:00</time>
      </trkpt>
      <trkpt lat="47.3378" lon="-1.24474">
        <ele>56</ele>
        <time>2020-12-20T09:26:42.604000+00:00</time>
      </trkpt>
      <trkpt lat="0" lon="0">
        <time>2020-12-20T09:26:42.609000+00:00</time>
      </trkpt>
      <trkpt lat="0" lon="0">
        <time>2020-12-20T09:26:42.611000+00:00</time>
      </trkpt>
      <trkpt lat="0" lon="0">
        <time>2020-12-20T09:26:42.612000+00:00</time>
      </trkpt>
      <trkpt lat="47.33779" lon="-1.24482">
        <ele>56</ele>
        <time>2020-12-20T09:26:43.667000+00:00</time>
      </trkpt>
      <trkpt lat="0" lon="0">
        <time>2020-12-20T09:26:43.674000+00:00</time>
      </trkpt>
      <trkpt lat="0" lon="0">
        <time>2020-12-20T09:26:43.678000+00:00</time>
      </trkpt>
      <trkpt lat="0" lon="0">
        <time>2020-12-20T09:26:43.680000+00:00</time>
      </trkpt>
      <trkpt lat="47.33777" lon="-1.2449">
        <ele>56</ele>
        <time>2020-12-20T09:26:44.659000+00:00</time>
      </trkpt>
      <trkpt lat="0" lon="0">
        <time>2020-12-20T09:26:44.665000+00:00</time>
      </trkpt>
      <trkpt lat="0" lon="0">
        <time>2020-12-20T09:26:44.671000+00:00</time>
      </trkpt>
      <trkpt lat="0" lon="0">
        <time>2020-12-20T09:26:44.674000+00:00</time>
      </trkpt>
      <trkpt lat="47.33776" lon="-1.24498">
        <ele>57</ele>
        <time>2020-12-20T09:26:45.687000+00:00</time>
      </trkpt>
      <trkpt lat="0" lon="0">
        <time>2020-12-20T09:26:45.694000+00:00</time>
      </trkpt>
      <trkpt lat="0" lon="0">
        <time>2020-12-20T09:26:45.699000+00:00</time>
      </trkpt>
      <trkpt lat="0" lon="0">
        <time>2020-12-20T09:26:45.704000+00:00</time>
      </trkpt>
      <trkpt lat="47.33774" lon="-1.24505">
        <ele>57</ele>
        <time>2020-12-20T09:26:46.651000+00:00</time>
      </trkpt>
      <trkpt lat="0" lon="0">
        <time>2020-12-20T09:26:46.664000+00:00</time>
      </trkpt>
      <trkpt lat="0" lon="0">
        <time>2020-12-20T09:26:46.668000+00:00</time>
      </trkpt>
      <trkpt lat="0" lon="0">
        <time>2020-12-20T09:26:46.672000+00:00</time>
      </trkpt>
      <trkpt lat="47.33773" lon="-1.24513">
        <ele>56</ele>
        <time>2020-12-20T09:26:47.695000+00:00</time>
      </trkpt>
      <trkpt lat="0" lon="0">
        <time>2020-12-20T09:26:47.717000+00:00</time>
      </trkpt>
      <trkpt lat="0" lon="0">
        <time>2020-12-20T09:26:47.724000+00:00</time>
      </trkpt>
      <trkpt lat="0" lon="0">
        <time>2020-12-20T09:26:47.726000+00:00</time>
      </trkpt>
      <trkpt lat="47.33772" lon="-1.24521">
        <ele>57</ele>
        <time>2020-12-20T09:26:48.653000+00:00</time>
      </trkpt>
      <trkpt lat="0" lon="0">
        <time>2020-12-20T09:26:48.663000+00:00</time>
      </trkpt>
      <trkpt lat="0" lon="0">
        <time>2020-12-20T09:26:48.669000+00:00</time>
      </trkpt>
      <trkpt lat="0" lon="0">
        <time>2020-12-20T09:26:48.672000+00:00</time>
      </trkpt>
      <trkpt lat="47.33771" lon="-1.24529">
        <ele>56</ele>
        <time>2020-12-20T09:26:49.666000+00:00</time>
      </trkpt>
      <trkpt lat="0" lon="0">
        <time>2020-12-20T09:26:49.689000+00:00</time>
      </trkpt>
      <trkpt lat="0" lon="0">
        <time>2020-12-20T09:26:49.694000+00:00</time>
      </trkpt>
      <trkpt lat="0" lon="0">
        <time>2020-12-20T09:26:49.700000+00:00</time>
      </trkpt>
      <trkpt lat="47.33771" lon="-1.24537">
        <ele>56</ele>
        <time>2020-12-20T09:26:50.678000+00:00</time>
      </trkpt>
      <trkpt lat="0" lon="0">
        <time>2020-12-20T09:26:50.700000+00:00</time>
      </trkpt>
      <trkpt lat="0" lon="0">
        <time>2020-12-20T09:26:50.708000+00:00</time>
      </trkpt>
      <trkpt lat="0" lon="0">
        <time>2020-12-20T09:26:50.711000+00:00</time>
      </trkpt>
      <trkpt lat="47.33771" lon="-1.24545">
        <ele>56</ele>
        <time>2020-12-20T09:26:51.642000+00:00</time>
      </trkpt>
      <trkpt lat="0" lon="0">
        <time>2020-12-20T09:26:51.665000+00:00</time>
      </trkpt>
      <trkpt lat="0" lon="0">
        <time>2020-12-20T09:26:51.670000+00:00</time>
      </trkpt>
      <trkpt lat="0" lon="0">
        <time>2020-12-20T09:26:51.672000+00:00</time>
      </trkpt>
      <trkpt lat="47.33772" lon="-1.24553">
        <ele>56</ele>
        <time>2020-12-20T09:26:52.689000+00:00</time>
      </trkpt>
      <trkpt lat="0" lon="0">
        <time>2020-12-20T09:26:52.692000+00:00</time>
      </trkpt>
      <trkpt lat="0" lon="0">
        <time>2020-12-20T09:26:52.699000+00:00</time>
      </trkpt>
      <trkpt lat="0" lon="0">
        <time>2020-12-20T09:26:52.702000+00:00</time>
      </trkpt>
      <trkpt lat="47.33773" lon="-1.24562">
        <ele>56</ele>
        <time>2020-12-20T09:26:53.658000+00:00</time>
      </trkpt>
      <trkpt lat="0" lon="0">
        <time>2020-12-20T09:26:53.669000+00:00</time>
      </trkpt>
      <trkpt lat="0" lon="0">
        <time>2020-12-20T09:26:53.672000+00:00</time>
      </trkpt>
      <trkpt lat="0" lon="0">
        <time>2020-12-20T09:26:53.674000+00:00</time>
      </trkpt>
      <trkpt lat="47.33774" lon="-1.24569">
        <ele>55</ele>
        <time>2020-12-20T09:26:54.657000+00:00</time>
      </trkpt>
      <trkpt lat="0" lon="0">
        <time>2020-12-20T09:26:54.668000+00:00</time>
      </trkpt>
      <trkpt lat="0" lon="0">
        <time>2020-12-20T09:26:54.672000+00:00</time>
      </trkpt>
      <trkpt lat="0" lon="0">
        <time>2020-12-20T09:26:54.676000+00:00</time>
      </trkpt>
      <trkpt lat="47.33776" lon="-1.24577">
        <ele>55</ele>
        <time>2020-12-20T09:26:55.640000+00:00</time>
      </trkpt>
      <trkpt lat="0" lon="0">
        <time>2020-12-20T09:26:55.645000+00:00</time>
      </trkpt>
      <trkpt lat="0" lon="0">
        <time>2020-12-20T09:26:55.647000+00:00</time>
      </trkpt>
      <trkpt lat="0" lon="0">
        <time>2020-12-20T09:26:55.649000+00:00</time>
      </trkpt>
      <trkpt lat="47.33778" lon="-1.24585">
        <ele>55</ele>
        <time>2020-12-20T09:26:56.698000+00:00</time>
      </trkpt>
      <trkpt lat="0" lon="0">
        <time>2020-12-20T09:26:56.715000+00:00</time>
      </trkpt>
      <trkpt lat="0" lon="0">
        <time>2020-12-20T09:26:56.723000+00:00</time>
      </trkpt>
      <trkpt lat="0" lon="0">
        <time>2020-12-20T09:26:56.725000+00:00</time>
      </trkpt>
      <trkpt lat="47.33781" lon="-1.24592">
        <ele>55</ele>
        <time>2020-12-20T09:26:57.612000+00:00</time>
      </trkpt>
      <trkpt lat="0" lon="0">
        <time>2020-12-20T09:26:57.627000+00:00</time>
      </trkpt>
      <trkpt lat="0" lon="0">
        <time>2020-12-20T09:26:57.630000+00:00</time>
      </trkpt>
      <trkpt lat="0" lon="0">
        <time>2020-12-20T09:26:57.632000+00:00</time>
      </trkpt>
      <trkpt lat="47.33785" lon="-1.246">
        <ele>55</ele>
        <time>2020-12-20T09:26:58.604000+00:00</time>
      </trkpt>
      <trkpt lat="0" lon="0">
        <time>2020-12-20T09:26:58.619000+00:00</time>
      </trkpt>
      <trkpt lat="0" lon="0">
        <time>2020-12-20T09:26:58.629000+00:00</time>
      </trkpt>
      <trkpt lat="0" lon="0">
        <time>2020-12-20T09:26:58.632000+00:00</time>
      </trkpt>
      <trkpt lat="47.33788" lon="-1.24607">
        <ele>56</ele>
        <time>2020-12-20T09:26:59.669000+00:00</time>
      </trkpt>
      <trkpt lat="0" lon="0">
        <time>2020-12-20T09:26:59.679000+00:00</time>
      </trkpt>
      <trkpt lat="0" lon="0">
        <time>2020-12-20T09:26:59.683000+00:00</time>
      </trkpt>
      <trkpt lat="0" lon="0">
        <time>2020-12-20T09:26:59.685000+00:00</time>
      </trkpt>
      <trkpt lat="47.33792" lon="-1.24615">
        <ele>56</ele>
        <time>2020-12-20T09:27:00.666000+00:00</time>
      </trkpt>
      <trkpt lat="0" lon="0">
        <time>2020-12-20T09:27:00.675000+00:00</time>
      </trkpt>
      <trkpt lat="0" lon="0">
        <time>2020-12-20T09:27:00.680000+00:00</time>
      </trkpt>
      <trkpt lat="0" lon="0">
        <time>2020-12-20T09:27:00.683000+00:00</time>
      </trkpt>
      <trkpt lat="47.33796" lon="-1.24622">
        <ele>56</ele>
        <time>2020-12-20T09:27:01.627000+00:00</time>
      </trkpt>
      <trkpt lat="0" lon="0">
        <time>2020-12-20T09:27:01.641000+00:00</time>
      </trkpt>
      <trkpt lat="0" lon="0">
        <time>2020-12-20T09:27:01.645000+00:00</time>
      </trkpt>
      <trkpt lat="0" lon="0">
        <time>2020-12-20T09:27:01.650000+00:00</time>
      </trkpt>
      <trkpt lat="47.33801" lon="-1.24628">
        <ele>56</ele>
        <time>2020-12-20T09:27:02.638000+00:00</time>
      </trkpt>
      <trkpt lat="0" lon="0">
        <time>2020-12-20T09:27:02.644000+00:00</time>
      </trkpt>
      <trkpt lat="0" lon="0">
        <time>2020-12-20T09:27:02.658000+00:00</time>
      </trkpt>
      <trkpt lat="0" lon="0">
        <time>2020-12-20T09:27:02.664000+00:00</time>
      </trkpt>
      <trkpt lat="47.33805" lon="-1.24635">
        <ele>56</ele>
        <time>2020-12-20T09:27:03.602000+00:00</time>
      </trkpt>
      <trkpt lat="0" lon="0">
        <time>2020-12-20T09:27:03.617000+00:00</time>
      </trkpt>
      <trkpt lat="0" lon="0">
        <time>2020-12-20T09:27:03.627000+00:00</time>
      </trkpt>
      <trkpt lat="0" lon="0">
        <time>2020-12-20T09:27:03.633000+00:00</time>
      </trkpt>
      <trkpt lat="47.33809" lon="-1.24641">
        <ele>55</ele>
        <time>2020-12-20T09:27:04.694000+00:00</time>
      </trkpt>
      <trkpt lat="0" lon="0">
        <time>2020-12-20T09:27:04.698000+00:00</time>
      </trkpt>
      <trkpt lat="0" lon="0">
        <time>2020-12-20T09:27:04.704000+00:00</time>
      </trkpt>
      <trkpt lat="0" lon="0">
        <time>2020-12-20T09:27:04.707000+00:00</time>
      </trkpt>
      <trkpt lat="47.33814" lon="-1.24648">
        <ele>55</ele>
        <time>2020-12-20T09:27:05.667000+00:00</time>
      </trkpt>
      <trkpt lat="0" lon="0">
        <time>2020-12-20T09:27:05.674000+00:00</time>
      </trkpt>
      <trkpt lat="0" lon="0">
        <time>2020-12-20T09:27:05.681000+00:00</time>
      </trkpt>
      <trkpt lat="0" lon="0">
        <time>2020-12-20T09:27:05.685000+00:00</time>
      </trkpt>
      <trkpt lat="47.33818" lon="-1.24654">
        <ele>55</ele>
        <time>2020-12-20T09:27:06.659000+00:00</time>
      </trkpt>
      <trkpt lat="0" lon="0">
        <time>2020-12-20T09:27:06.673000+00:00</time>
      </trkpt>
      <trkpt lat="0" lon="0">
        <time>2020-12-20T09:27:06.677000+00:00</time>
      </trkpt>
      <trkpt lat="0" lon="0">
        <time>2020-12-20T09:27:06.679000+00:00</time>
      </trkpt>
      <trkpt lat="47.33822" lon="-1.2466">
        <ele>55</ele>
        <time>2020-12-20T09:27:07.656000+00:00</time>
      </trkpt>
      <trkpt lat="0" lon="0">
        <time>2020-12-20T09:27:07.669000+00:00</time>
      </trkpt>
      <trkpt lat="0" lon="0">
        <time>2020-12-20T09:27:07.677000+00:00</time>
      </trkpt>
      <trkpt lat="0" lon="0">
        <time>2020-12-20T09:27:07.679000+00:00</time>
      </trkpt>
      <trkpt lat="47.33826" lon="-1.24667">
        <ele>55</ele>
        <time>2020-12-20T09:27:08.649000+00:00</time>
      </trkpt>
      <trkpt lat="0" lon="0">
        <time>2020-12-20T09:27:08.661000+00:00</time>
      </trkpt>
      <trkpt lat="0" lon="0">
        <time>2020-12-20T09:27:08.665000+00:00</time>
      </trkpt>
      <trkpt lat="0" lon="0">
        <time>2020-12-20T09:27:08.668000+00:00</time>
      </trkpt>
      <trkpt lat="47.33829" lon="-1.24674">
        <ele>55</ele>
        <time>2020-12-20T09:27:09.682000+00:00</time>
      </trkpt>
      <trkpt lat="0" lon="0">
        <time>2020-12-20T09:27:09.688000+00:00</time>
      </trkpt>
      <trkpt lat="0" lon="0">
        <time>2020-12-20T09:27:09.704000+00:00</time>
      </trkpt>
      <trkpt lat="0" lon="0">
        <time>2020-12-20T09:27:09.706000+00:00</time>
      </trkpt>
      <trkpt lat="47.33833" lon="-1.2468">
        <ele>55</ele>
        <time>2020-12-20T09:27:10.626000+00:00</time>
      </trkpt>
      <trkpt lat="0" lon="0">
        <time>2020-12-20T09:27:10.639000+00:00</time>
      </trkpt>
      <trkpt lat="0" lon="0">
        <time>2020-12-20T09:27:10.652000+00:00</time>
      </trkpt>
      <trkpt lat="0" lon="0">
        <time>2020-12-20T09:27:10.653000+00:00</time>
      </trkpt>
      <trkpt lat="47.33836" lon="-1.24688">
        <ele>55</ele>
        <time>2020-12-20T09:27:11.641000+00:00</time>
      </trkpt>
      <trkpt lat="0" lon="0">
        <time>2020-12-20T09:27:11.652000+00:00</time>
      </trkpt>
      <trkpt lat="0" lon="0">
        <time>2020-12-20T09:27:11.657000+00:00</time>
      </trkpt>
      <trkpt lat="0" lon="0">
        <time>2020-12-20T09:27:11.662000+00:00</time>
      </trkpt>
      <trkpt lat="47.33839" lon="-1.24695">
        <ele>55</ele>
        <time>2020-12-20T09:27:12.652000+00:00</time>
      </trkpt>
      <trkpt lat="0" lon="0">
        <time>2020-12-20T09:27:12.665000+00:00</time>
      </trkpt>
      <trkpt lat="0" lon="0">
        <time>2020-12-20T09:27:12.672000+00:00</time>
      </trkpt>
      <trkpt lat="0" lon="0">
        <time>2020-12-20T09:27:12.674000+00:00</time>
      </trkpt>
      <trkpt lat="47.33842" lon="-1.24702">
        <ele>55</ele>
        <time>2020-12-20T09:27:13.684000+00:00</time>
      </trkpt>
      <trkpt lat="0" lon="0">
        <time>2020-12-20T09:27:13.695000+00:00</time>
      </trkpt>
      <trkpt lat="0" lon="0">
        <time>2020-12-20T09:27:13.700000+00:00</time>
      </trkpt>
      <trkpt lat="0" lon="0">
        <time>2020-12-20T09:27:13.703000+00:00</time>
      </trkpt>
      <trkpt lat="47.33845" lon="-1.24709">
        <ele>55</ele>
        <time>2020-12-20T09:27:14.676000+00:00</time>
      </trkpt>
      <trkpt lat="0" lon="0">
        <time>2020-12-20T09:27:14.693000+00:00</time>
      </trkpt>
      <trkpt lat="0" lon="0">
        <time>2020-12-20T09:27:14.697000+00:00</time>
      </trkpt>
      <trkpt lat="0" lon="0">
        <time>2020-12-20T09:27:14.701000+00:00</time>
      </trkpt>
      <trkpt lat="47.33847" lon="-1.24717">
        <ele>56</ele>
        <time>2020-12-20T09:27:15.648000+00:00</time>
      </trkpt>
      <trkpt lat="0" lon="0">
        <time>2020-12-20T09:27:15.659000+00:00</time>
      </trkpt>
      <trkpt lat="0" lon="0">
        <time>2020-12-20T09:27:15.663000+00:00</time>
      </trkpt>
      <trkpt lat="0" lon="0">
        <time>2020-12-20T09:27:15.667000+00:00</time>
      </trkpt>
      <trkpt lat="47.3385" lon="-1.24724">
        <ele>56</ele>
        <time>2020-12-20T09:27:16.648000+00:00</time>
      </trkpt>
      <trkpt lat="0" lon="0">
        <time>2020-12-20T09:27:16.662000+00:00</time>
      </trkpt>
      <trkpt lat="0" lon="0">
        <time>2020-12-20T09:27:16.675000+00:00</time>
      </trkpt>
      <trkpt lat="0" lon="0">
        <time>2020-12-20T09:27:16.677000+00:00</time>
      </trkpt>
      <trkpt lat="47.33852" lon="-1.24732">
        <ele>56</ele>
        <time>2020-12-20T09:27:17.646000+00:00</time>
      </trkpt>
      <trkpt lat="0" lon="0">
        <time>2020-12-20T09:27:17.665000+00:00</time>
      </trkpt>
      <trkpt lat="0" lon="0">
        <time>2020-12-20T09:27:17.673000+00:00</time>
      </trkpt>
      <trkpt lat="0" lon="0">
        <time>2020-12-20T09:27:17.677000+00:00</time>
      </trkpt>
      <trkpt lat="47.33854" lon="-1.24739">
        <ele>56</ele>
        <time>2020-12-20T09:27:18.656000+00:00</time>
      </trkpt>
      <trkpt lat="0" lon="0">
        <time>2020-12-20T09:27:18.661000+00:00</time>
      </trkpt>
      <trkpt lat="0" lon="0">
        <time>2020-12-20T09:27:18.667000+00:00</time>
      </trkpt>
      <trkpt lat="0" lon="0">
        <time>2020-12-20T09:27:18.669000+00:00</time>
      </trkpt>
      <trkpt lat="47.33857" lon="-1.24747">
        <ele>56</ele>
        <time>2020-12-20T09:27:19.646000+00:00</time>
      </trkpt>
      <trkpt lat="0" lon="0">
        <time>2020-12-20T09:27:19.652000+00:00</time>
      </trkpt>
      <trkpt lat="0" lon="0">
        <time>2020-12-20T09:27:19.657000+00:00</time>
      </trkpt>
      <trkpt lat="0" lon="0">
        <time>2020-12-20T09:27:19.662000+00:00</time>
      </trkpt>
      <trkpt lat="47.33859" lon="-1.24755">
        <ele>56</ele>
        <time>2020-12-20T09:27:20.676000+00:00</time>
      </trkpt>
      <trkpt lat="0" lon="0">
        <time>2020-12-20T09:27:20.681000+00:00</time>
      </trkpt>
      <trkpt lat="0" lon="0">
        <time>2020-12-20T09:27:20.686000+00:00</time>
      </trkpt>
      <trkpt lat="0" lon="0">
        <time>2020-12-20T09:27:20.689000+00:00</time>
      </trkpt>
      <trkpt lat="47.33861" lon="-1.24762">
        <ele>56</ele>
        <time>2020-12-20T09:27:21.660000+00:00</time>
      </trkpt>
      <trkpt lat="0" lon="0">
        <time>2020-12-20T09:27:21.668000+00:00</time>
      </trkpt>
      <trkpt lat="0" lon="0">
        <time>2020-12-20T09:27:21.673000+00:00</time>
      </trkpt>
      <trkpt lat="0" lon="0">
        <time>2020-12-20T09:27:21.680000+00:00</time>
      </trkpt>
      <trkpt lat="47.33863" lon="-1.2477">
        <ele>56</ele>
        <time>2020-12-20T09:27:22.666000+00:00</time>
      </trkpt>
      <trkpt lat="0" lon="0">
        <time>2020-12-20T09:27:22.670000+00:00</time>
      </trkpt>
      <trkpt lat="0" lon="0">
        <time>2020-12-20T09:27:22.676000+00:00</time>
      </trkpt>
      <trkpt lat="0" lon="0">
        <time>2020-12-20T09:27:22.678000+00:00</time>
      </trkpt>
      <trkpt lat="47.33865" lon="-1.24777">
        <ele>56</ele>
        <time>2020-12-20T09:27:23.652000+00:00</time>
      </trkpt>
      <trkpt lat="0" lon="0">
        <time>2020-12-20T09:27:23.660000+00:00</time>
      </trkpt>
      <trkpt lat="0" lon="0">
        <time>2020-12-20T09:27:23.666000+00:00</time>
      </trkpt>
      <trkpt lat="0" lon="0">
        <time>2020-12-20T09:27:23.668000+00:00</time>
      </trkpt>
      <trkpt lat="47.33867" lon="-1.24784">
        <ele>56</ele>
        <time>2020-12-20T09:27:24.659000+00:00</time>
      </trkpt>
      <trkpt lat="0" lon="0">
        <time>2020-12-20T09:27:24.670000+00:00</time>
      </trkpt>
      <trkpt lat="0" lon="0">
        <time>2020-12-20T09:27:24.674000+00:00</time>
      </trkpt>
      <trkpt lat="0" lon="0">
        <time>2020-12-20T09:27:24.678000+00:00</time>
      </trkpt>
      <trkpt lat="47.33869" lon="-1.24792">
        <ele>56</ele>
        <time>2020-12-20T09:27:25.636000+00:00</time>
      </trkpt>
      <trkpt lat="0" lon="0">
        <time>2020-12-20T09:27:25.652000+00:00</time>
      </trkpt>
      <trkpt lat="0" lon="0">
        <time>2020-12-20T09:27:25.657000+00:00</time>
      </trkpt>
      <trkpt lat="0" lon="0">
        <time>2020-12-20T09:27:25.662000+00:00</time>
      </trkpt>
      <trkpt lat="47.3387" lon="-1.24799">
        <ele>56</ele>
        <time>2020-12-20T09:27:26.631000+00:00</time>
      </trkpt>
      <trkpt lat="0" lon="0">
        <time>2020-12-20T09:27:26.640000+00:00</time>
      </trkpt>
      <trkpt lat="0" lon="0">
        <time>2020-12-20T09:27:26.642000+00:00</time>
      </trkpt>
      <trkpt lat="0" lon="0">
        <time>2020-12-20T09:27:26.646000+00:00</time>
      </trkpt>
      <trkpt lat="47.33872" lon="-1.24806">
        <ele>57</ele>
        <time>2020-12-20T09:27:27.623000+00:00</time>
      </trkpt>
      <trkpt lat="0" lon="0">
        <time>2020-12-20T09:27:27.637000+00:00</time>
      </trkpt>
      <trkpt lat="0" lon="0">
        <time>2020-12-20T09:27:27.640000+00:00</time>
      </trkpt>
      <trkpt lat="0" lon="0">
        <time>2020-12-20T09:27:27.641000+00:00</time>
      </trkpt>
      <trkpt lat="47.33872" lon="-1.24814">
        <ele>57</ele>
        <time>2020-12-20T09:27:28.673000+00:00</time>
      </trkpt>
      <trkpt lat="0" lon="0">
        <time>2020-12-20T09:27:28.689000+00:00</time>
      </trkpt>
      <trkpt lat="0" lon="0">
        <time>2020-12-20T09:27:28.698000+00:00</time>
      </trkpt>
      <trkpt lat="0" lon="0">
        <time>2020-12-20T09:27:28.701000+00:00</time>
      </trkpt>
      <trkpt lat="47.33872" lon="-1.24821">
        <ele>57</ele>
        <time>2020-12-20T09:27:29.689000+00:00</time>
      </trkpt>
      <trkpt lat="0" lon="0">
        <time>2020-12-20T09:27:29.705000+00:00</time>
      </trkpt>
      <trkpt lat="0" lon="0">
        <time>2020-12-20T09:27:29.709000+00:00</time>
      </trkpt>
      <trkpt lat="0" lon="0">
        <time>2020-12-20T09:27:29.712000+00:00</time>
      </trkpt>
      <trkpt lat="47.33872" lon="-1.24828">
        <ele>57</ele>
        <time>2020-12-20T09:27:30.670000+00:00</time>
      </trkpt>
      <trkpt lat="0" lon="0">
        <time>2020-12-20T09:27:30.676000+00:00</time>
      </trkpt>
      <trkpt lat="0" lon="0">
        <time>2020-12-20T09:27:30.682000+00:00</time>
      </trkpt>
      <trkpt lat="0" lon="0">
        <time>2020-12-20T09:27:30.687000+00:00</time>
      </trkpt>
      <trkpt lat="47.3387" lon="-1.24836">
        <ele>57</ele>
        <time>2020-12-20T09:27:31.645000+00:00</time>
      </trkpt>
      <trkpt lat="0" lon="0">
        <time>2020-12-20T09:27:31.654000+00:00</time>
      </trkpt>
      <trkpt lat="0" lon="0">
        <time>2020-12-20T09:27:31.658000+00:00</time>
      </trkpt>
      <trkpt lat="0" lon="0">
        <time>2020-12-20T09:27:31.660000+00:00</time>
      </trkpt>
      <trkpt lat="47.33868" lon="-1.24843">
        <ele>57</ele>
        <time>2020-12-20T09:27:32.675000+00:00</time>
      </trkpt>
      <trkpt lat="0" lon="0">
        <time>2020-12-20T09:27:32.685000+00:00</time>
      </trkpt>
      <trkpt lat="0" lon="0">
        <time>2020-12-20T09:27:32.690000+00:00</time>
      </trkpt>
      <trkpt lat="0" lon="0">
        <time>2020-12-20T09:27:32.692000+00:00</time>
      </trkpt>
      <trkpt lat="47.33866" lon="-1.24849">
        <ele>57</ele>
        <time>2020-12-20T09:27:33.650000+00:00</time>
      </trkpt>
      <trkpt lat="0" lon="0">
        <time>2020-12-20T09:27:33.661000+00:00</time>
      </trkpt>
      <trkpt lat="0" lon="0">
        <time>2020-12-20T09:27:33.668000+00:00</time>
      </trkpt>
      <trkpt lat="0" lon="0">
        <time>2020-12-20T09:27:33.670000+00:00</time>
      </trkpt>
      <trkpt lat="47.33862" lon="-1.24855">
        <ele>58</ele>
        <time>2020-12-20T09:27:34.674000+00:00</time>
      </trkpt>
      <trkpt lat="0" lon="0">
        <time>2020-12-20T09:27:34.694000+00:00</time>
      </trkpt>
      <trkpt lat="0" lon="0">
        <time>2020-12-20T09:27:34.700000+00:00</time>
      </trkpt>
      <trkpt lat="0" lon="0">
        <time>2020-12-20T09:27:34.704000+00:00</time>
      </trkpt>
      <trkpt lat="47.33858" lon="-1.24861">
        <ele>58</ele>
        <time>2020-12-20T09:27:35.633000+00:00</time>
      </trkpt>
      <trkpt lat="0" lon="0">
        <time>2020-12-20T09:27:35.640000+00:00</time>
      </trkpt>
      <trkpt lat="0" lon="0">
        <time>2020-12-20T09:27:35.643000+00:00</time>
      </trkpt>
      <trkpt lat="0" lon="0">
        <time>2020-12-20T09:27:35.644000+00:00</time>
      </trkpt>
      <trkpt lat="47.33854" lon="-1.24866">
        <ele>58</ele>
        <time>2020-12-20T09:27:36.676000+00:00</time>
      </trkpt>
      <trkpt lat="0" lon="0">
        <time>2020-12-20T09:27:36.692000+00:00</time>
      </trkpt>
      <trkpt lat="0" lon="0">
        <time>2020-12-20T09:27:36.698000+00:00</time>
      </trkpt>
      <trkpt lat="0" lon="0">
        <time>2020-12-20T09:27:36.703000+00:00</time>
      </trkpt>
      <trkpt lat="47.3385" lon="-1.2487">
        <ele>57</ele>
        <time>2020-12-20T09:27:37.684000+00:00</time>
      </trkpt>
      <trkpt lat="0" lon="0">
        <time>2020-12-20T09:27:37.689000+00:00</time>
      </trkpt>
      <trkpt lat="0" lon="0">
        <time>2020-12-20T09:27:37.692000+00:00</time>
      </trkpt>
      <trkpt lat="0" lon="0">
        <time>2020-12-20T09:27:37.693000+00:00</time>
      </trkpt>
      <trkpt lat="47.33845" lon="-1.24874">
        <ele>58</ele>
        <time>2020-12-20T09:27:38.676000+00:00</time>
      </trkpt>
      <trkpt lat="0" lon="0">
        <time>2020-12-20T09:27:38.696000+00:00</time>
      </trkpt>
      <trkpt lat="0" lon="0">
        <time>2020-12-20T09:27:38.708000+00:00</time>
      </trkpt>
      <trkpt lat="0" lon="0">
        <time>2020-12-20T09:27:38.723000+00:00</time>
      </trkpt>
      <trkpt lat="47.33841" lon="-1.24877">
        <ele>57</ele>
        <time>2020-12-20T09:27:39.671000+00:00</time>
      </trkpt>
      <trkpt lat="0" lon="0">
        <time>2020-12-20T09:27:39.686000+00:00</time>
      </trkpt>
      <trkpt lat="0" lon="0">
        <time>2020-12-20T09:27:39.692000+00:00</time>
      </trkpt>
      <trkpt lat="0" lon="0">
        <time>2020-12-20T09:27:39.694000+00:00</time>
      </trkpt>
      <trkpt lat="47.33836" lon="-1.24881">
        <ele>58</ele>
        <time>2020-12-20T09:27:40.665000+00:00</time>
      </trkpt>
      <trkpt lat="0" lon="0">
        <time>2020-12-20T09:27:40.685000+00:00</time>
      </trkpt>
      <trkpt lat="0" lon="0">
        <time>2020-12-20T09:27:40.689000+00:00</time>
      </trkpt>
      <trkpt lat="0" lon="0">
        <time>2020-12-20T09:27:40.692000+00:00</time>
      </trkpt>
      <trkpt lat="47.33831" lon="-1.24884">
        <ele>58</ele>
        <time>2020-12-20T09:27:41.689000+00:00</time>
      </trkpt>
      <trkpt lat="0" lon="0">
        <time>2020-12-20T09:27:41.694000+00:00</time>
      </trkpt>
      <trkpt lat="0" lon="0">
        <time>2020-12-20T09:27:41.700000+00:00</time>
      </trkpt>
      <trkpt lat="0" lon="0">
        <time>2020-12-20T09:27:41.712000+00:00</time>
      </trkpt>
      <trkpt lat="47.33827" lon="-1.24886">
        <ele>58</ele>
        <time>2020-12-20T09:27:42.664000+00:00</time>
      </trkpt>
      <trkpt lat="0" lon="0">
        <time>2020-12-20T09:27:42.673000+00:00</time>
      </trkpt>
      <trkpt lat="0" lon="0">
        <time>2020-12-20T09:27:42.676000+00:00</time>
      </trkpt>
      <trkpt lat="0" lon="0">
        <time>2020-12-20T09:27:42.679000+00:00</time>
      </trkpt>
      <trkpt lat="47.33822" lon="-1.24889">
        <ele>59</ele>
        <time>2020-12-20T09:27:43.669000+00:00</time>
      </trkpt>
      <trkpt lat="0" lon="0">
        <time>2020-12-20T09:27:43.680000+00:00</time>
      </trkpt>
      <trkpt lat="0" lon="0">
        <time>2020-12-20T09:27:43.682000+00:00</time>
      </trkpt>
      <trkpt lat="0" lon="0">
        <time>2020-12-20T09:27:43.683000+00:00</time>
      </trkpt>
      <trkpt lat="47.33818" lon="-1.24891">
        <ele>59</ele>
        <time>2020-12-20T09:27:44.645000+00:00</time>
      </trkpt>
      <trkpt lat="0" lon="0">
        <time>2020-12-20T09:27:44.663000+00:00</time>
      </trkpt>
      <trkpt lat="0" lon="0">
        <time>2020-12-20T09:27:44.670000+00:00</time>
      </trkpt>
      <trkpt lat="0" lon="0">
        <time>2020-12-20T09:27:44.673000+00:00</time>
      </trkpt>
      <trkpt lat="47.33814" lon="-1.24893">
        <ele>59</ele>
        <time>2020-12-20T09:27:45.689000+00:00</time>
      </trkpt>
      <trkpt lat="0" lon="0">
        <time>2020-12-20T09:27:45.704000+00:00</time>
      </trkpt>
      <trkpt lat="0" lon="0">
        <time>2020-12-20T09:27:45.709000+00:00</time>
      </trkpt>
      <trkpt lat="0" lon="0">
        <time>2020-12-20T09:27:45.714000+00:00</time>
      </trkpt>
      <trkpt lat="47.3381" lon="-1.24895">
        <ele>60</ele>
        <time>2020-12-20T09:27:46.642000+00:00</time>
      </trkpt>
      <trkpt lat="0" lon="0">
        <time>2020-12-20T09:27:46.648000+00:00</time>
      </trkpt>
      <trkpt lat="0" lon="0">
        <time>2020-12-20T09:27:46.652000+00:00</time>
      </trkpt>
      <trkpt lat="0" lon="0">
        <time>2020-12-20T09:27:46.655000+00:00</time>
      </trkpt>
      <trkpt lat="47.33806" lon="-1.24897">
        <ele>60</ele>
        <time>2020-12-20T09:27:47.664000+00:00</time>
      </trkpt>
      <trkpt lat="0" lon="0">
        <time>2020-12-20T09:27:47.679000+00:00</time>
      </trkpt>
      <trkpt lat="0" lon="0">
        <time>2020-12-20T09:27:47.683000+00:00</time>
      </trkpt>
      <trkpt lat="0" lon="0">
        <time>2020-12-20T09:27:47.685000+00:00</time>
      </trkpt>
      <trkpt lat="47.33803" lon="-1.24899">
        <ele>61</ele>
        <time>2020-12-20T09:27:48.674000+00:00</time>
      </trkpt>
      <trkpt lat="0" lon="0">
        <time>2020-12-20T09:27:48.687000+00:00</time>
      </trkpt>
      <trkpt lat="0" lon="0">
        <time>2020-12-20T09:27:48.694000+00:00</time>
      </trkpt>
      <trkpt lat="0" lon="0">
        <time>2020-12-20T09:27:48.697000+00:00</time>
      </trkpt>
      <trkpt lat="47.33799" lon="-1.24901">
        <ele>61</ele>
        <time>2020-12-20T09:27:49.595000+00:00</time>
      </trkpt>
      <trkpt lat="0" lon="0">
        <time>2020-12-20T09:27:49.599000+00:00</time>
      </trkpt>
      <trkpt lat="0" lon="0">
        <time>2020-12-20T09:27:49.601000+00:00</time>
      </trkpt>
      <trkpt lat="0" lon="0">
        <time>2020-12-20T09:27:49.602000+00:00</time>
      </trkpt>
      <trkpt lat="47.33796" lon="-1.24904">
        <ele>60</ele>
        <time>2020-12-20T09:27:50.665000+00:00</time>
      </trkpt>
      <trkpt lat="0" lon="0">
        <time>2020-12-20T09:27:50.669000+00:00</time>
      </trkpt>
      <trkpt lat="0" lon="0">
        <time>2020-12-20T09:27:50.676000+00:00</time>
      </trkpt>
      <trkpt lat="0" lon="0">
        <time>2020-12-20T09:27:50.678000+00:00</time>
      </trkpt>
      <trkpt lat="47.33793" lon="-1.24908">
        <ele>60</ele>
        <time>2020-12-20T09:27:51.704000+00:00</time>
      </trkpt>
      <trkpt lat="0" lon="0">
        <time>2020-12-20T09:27:51.710000+00:00</time>
      </trkpt>
      <trkpt lat="0" lon="0">
        <time>2020-12-20T09:27:51.716000+00:00</time>
      </trkpt>
      <trkpt lat="0" lon="0">
        <time>2020-12-20T09:27:51.719000+00:00</time>
      </trkpt>
      <trkpt lat="47.33791" lon="-1.24912">
        <ele>60</ele>
        <time>2020-12-20T09:27:52.679000+00:00</time>
      </trkpt>
      <trkpt lat="0" lon="0">
        <time>2020-12-20T09:27:52.683000+00:00</time>
      </trkpt>
      <trkpt lat="0" lon="0">
        <time>2020-12-20T09:27:52.687000+00:00</time>
      </trkpt>
      <trkpt lat="0" lon="0">
        <time>2020-12-20T09:27:52.689000+00:00</time>
      </trkpt>
      <trkpt lat="47.33789" lon="-1.24917">
        <ele>61</ele>
        <time>2020-12-20T09:27:53.650000+00:00</time>
      </trkpt>
      <trkpt lat="0" lon="0">
        <time>2020-12-20T09:27:53.681000+00:00</time>
      </trkpt>
      <trkpt lat="0" lon="0">
        <time>2020-12-20T09:27:53.690000+00:00</time>
      </trkpt>
      <trkpt lat="0" lon="0">
        <time>2020-12-20T09:27:53.692000+00:00</time>
      </trkpt>
      <trkpt lat="47.33788" lon="-1.24922">
        <ele>61</ele>
        <time>2020-12-20T09:27:54.655000+00:00</time>
      </trkpt>
      <trkpt lat="0" lon="0">
        <time>2020-12-20T09:27:54.665000+00:00</time>
      </trkpt>
      <trkpt lat="0" lon="0">
        <time>2020-12-20T09:27:54.673000+00:00</time>
      </trkpt>
      <trkpt lat="0" lon="0">
        <time>2020-12-20T09:27:54.675000+00:00</time>
      </trkpt>
      <trkpt lat="47.33788" lon="-1.24927">
        <ele>61</ele>
        <time>2020-12-20T09:27:55.672000+00:00</time>
      </trkpt>
      <trkpt lat="0" lon="0">
        <time>2020-12-20T09:27:55.679000+00:00</time>
      </trkpt>
      <trkpt lat="0" lon="0">
        <time>2020-12-20T09:27:55.688000+00:00</time>
      </trkpt>
      <trkpt lat="0" lon="0">
        <time>2020-12-20T09:27:55.690000+00:00</time>
      </trkpt>
      <trkpt lat="47.33788" lon="-1.24932">
        <ele>61</ele>
        <time>2020-12-20T09:27:56.653000+00:00</time>
      </trkpt>
      <trkpt lat="0" lon="0">
        <time>2020-12-20T09:27:56.664000+00:00</time>
      </trkpt>
      <trkpt lat="0" lon="0">
        <time>2020-12-20T09:27:56.669000+00:00</time>
      </trkpt>
      <trkpt lat="0" lon="0">
        <time>2020-12-20T09:27:56.676000+00:00</time>
      </trkpt>
      <trkpt lat="47.33788" lon="-1.24937">
        <ele>61</ele>
        <time>2020-12-20T09:27:57.664000+00:00</time>
      </trkpt>
      <trkpt lat="0" lon="0">
        <time>2020-12-20T09:27:57.670000+00:00</time>
      </trkpt>
      <trkpt lat="0" lon="0">
        <time>2020-12-20T09:27:57.683000+00:00</time>
      </trkpt>
      <trkpt lat="0" lon="0">
        <time>2020-12-20T09:27:57.689000+00:00</time>
      </trkpt>
      <trkpt lat="47.3379" lon="-1.24943">
        <ele>62</ele>
        <time>2020-12-20T09:27:58.656000+00:00</time>
      </trkpt>
      <trkpt lat="0" lon="0">
        <time>2020-12-20T09:27:58.662000+00:00</time>
      </trkpt>
      <trkpt lat="0" lon="0">
        <time>2020-12-20T09:27:58.666000+00:00</time>
      </trkpt>
      <trkpt lat="0" lon="0">
        <time>2020-12-20T09:27:58.669000+00:00</time>
      </trkpt>
      <trkpt lat="47.33792" lon="-1.24948">
        <ele>62</ele>
        <time>2020-12-20T09:27:59.689000+00:00</time>
      </trkpt>
      <trkpt lat="0" lon="0">
        <time>2020-12-20T09:27:59.711000+00:00</time>
      </trkpt>
      <trkpt lat="0" lon="0">
        <time>2020-12-20T09:27:59.718000+00:00</time>
      </trkpt>
      <trkpt lat="0" lon="0">
        <time>2020-12-20T09:27:59.722000+00:00</time>
      </trkpt>
      <trkpt lat="47.33794" lon="-1.24953">
        <ele>62</ele>
        <time>2020-12-20T09:28:00.643000+00:00</time>
      </trkpt>
      <trkpt lat="0" lon="0">
        <time>2020-12-20T09:28:00.661000+00:00</time>
      </trkpt>
      <trkpt lat="0" lon="0">
        <time>2020-12-20T09:28:00.665000+00:00</time>
      </trkpt>
      <trkpt lat="0" lon="0">
        <time>2020-12-20T09:28:00.668000+00:00</time>
      </trkpt>
      <trkpt lat="47.33798" lon="-1.24957">
        <ele>61</ele>
        <time>2020-12-20T09:28:01.663000+00:00</time>
      </trkpt>
      <trkpt lat="0" lon="0">
        <time>2020-12-20T09:28:01.670000+00:00</time>
      </trkpt>
      <trkpt lat="0" lon="0">
        <time>2020-12-20T09:28:01.681000+00:00</time>
      </trkpt>
      <trkpt lat="0" lon="0">
        <time>2020-12-20T09:28:01.685000+00:00</time>
      </trkpt>
      <trkpt lat="47.33801" lon="-1.24962">
        <ele>61</ele>
        <time>2020-12-20T09:28:02.662000+00:00</time>
      </trkpt>
      <trkpt lat="0" lon="0">
        <time>2020-12-20T09:28:02.679000+00:00</time>
      </trkpt>
      <trkpt lat="0" lon="0">
        <time>2020-12-20T09:28:02.687000+00:00</time>
      </trkpt>
      <trkpt lat="0" lon="0">
        <time>2020-12-20T09:28:02.690000+00:00</time>
      </trkpt>
      <trkpt lat="47.33805" lon="-1.24965">
        <ele>61</ele>
        <time>2020-12-20T09:28:03.671000+00:00</time>
      </trkpt>
      <trkpt lat="0" lon="0">
        <time>2020-12-20T09:28:03.690000+00:00</time>
      </trkpt>
      <trkpt lat="0" lon="0">
        <time>2020-12-20T09:28:03.693000+00:00</time>
      </trkpt>
      <trkpt lat="0" lon="0">
        <time>2020-12-20T09:28:03.696000+00:00</time>
      </trkpt>
      <trkpt lat="47.33809" lon="-1.24968">
        <ele>61</ele>
        <time>2020-12-20T09:28:04.653000+00:00</time>
      </trkpt>
      <trkpt lat="0" lon="0">
        <time>2020-12-20T09:28:04.670000+00:00</time>
      </trkpt>
      <trkpt lat="0" lon="0">
        <time>2020-12-20T09:28:04.677000+00:00</time>
      </trkpt>
      <trkpt lat="0" lon="0">
        <time>2020-12-20T09:28:04.679000+00:00</time>
      </trkpt>
      <trkpt lat="47.33813" lon="-1.24971">
        <ele>61</ele>
        <time>2020-12-20T09:28:05.668000+00:00</time>
      </trkpt>
      <trkpt lat="0" lon="0">
        <time>2020-12-20T09:28:05.674000+00:00</time>
      </trkpt>
      <trkpt lat="0" lon="0">
        <time>2020-12-20T09:28:05.676000+00:00</time>
      </trkpt>
      <trkpt lat="0" lon="0">
        <time>2020-12-20T09:28:05.677000+00:00</time>
      </trkpt>
      <trkpt lat="47.33817" lon="-1.24973">
        <ele>61</ele>
        <time>2020-12-20T09:28:06.654000+00:00</time>
      </trkpt>
      <trkpt lat="0" lon="0">
        <time>2020-12-20T09:28:06.673000+00:00</time>
      </trkpt>
      <trkpt lat="0" lon="0">
        <time>2020-12-20T09:28:06.680000+00:00</time>
      </trkpt>
      <trkpt lat="0" lon="0">
        <time>2020-12-20T09:28:06.684000+00:00</time>
      </trkpt>
      <trkpt lat="47.33822" lon="-1.24975">
        <ele>61</ele>
        <time>2020-12-20T09:28:07.680000+00:00</time>
      </trkpt>
      <trkpt lat="0" lon="0">
        <time>2020-12-20T09:28:07.691000+00:00</time>
      </trkpt>
      <trkpt lat="0" lon="0">
        <time>2020-12-20T09:28:07.696000+00:00</time>
      </trkpt>
      <trkpt lat="0" lon="0">
        <time>2020-12-20T09:28:07.700000+00:00</time>
      </trkpt>
      <trkpt lat="47.33826" lon="-1.24977">
        <ele>61</ele>
        <time>2020-12-20T09:28:08.688000+00:00</time>
      </trkpt>
      <trkpt lat="0" lon="0">
        <time>2020-12-20T09:28:08.695000+00:00</time>
      </trkpt>
      <trkpt lat="0" lon="0">
        <time>2020-12-20T09:28:08.701000+00:00</time>
      </trkpt>
      <trkpt lat="0" lon="0">
        <time>2020-12-20T09:28:08.703000+00:00</time>
      </trkpt>
      <trkpt lat="47.33831" lon="-1.24979">
        <ele>61</ele>
        <time>2020-12-20T09:28:09.660000+00:00</time>
      </trkpt>
      <trkpt lat="0" lon="0">
        <time>2020-12-20T09:28:09.670000+00:00</time>
      </trkpt>
      <trkpt lat="0" lon="0">
        <time>2020-12-20T09:28:09.679000+00:00</time>
      </trkpt>
      <trkpt lat="0" lon="0">
        <time>2020-12-20T09:28:09.681000+00:00</time>
      </trkpt>
      <trkpt lat="47.33835" lon="-1.2498">
        <ele>61</ele>
        <time>2020-12-20T09:28:10.589000+00:00</time>
      </trkpt>
      <trkpt lat="0" lon="0">
        <time>2020-12-20T09:28:10.599000+00:00</time>
      </trkpt>
      <trkpt lat="0" lon="0">
        <time>2020-12-20T09:28:10.602000+00:00</time>
      </trkpt>
      <trkpt lat="0" lon="0">
        <time>2020-12-20T09:28:10.605000+00:00</time>
      </trkpt>
      <trkpt lat="47.33839" lon="-1.24982">
        <ele>61</ele>
        <time>2020-12-20T09:28:11.574000+00:00</time>
      </trkpt>
      <trkpt lat="0" lon="0">
        <time>2020-12-20T09:28:11.588000+00:00</time>
      </trkpt>
      <trkpt lat="0" lon="0">
        <time>2020-12-20T09:28:11.590000+00:00</time>
      </trkpt>
      <trkpt lat="47.33843" lon="-1.24983">
        <ele>61</ele>
        <time>2020-12-20T09:28:12.610000+00:00</time>
      </trkpt>
      <trkpt lat="0" lon="0">
        <time>2020-12-20T09:28:12.614000+00:00</time>
      </trkpt>
      <trkpt lat="0" lon="0">
        <time>2020-12-20T09:28:12.618000+00:00</time>
      </trkpt>
      <trkpt lat="0" lon="0">
        <time>2020-12-20T09:28:12.620000+00:00</time>
      </trkpt>
      <trkpt lat="47.33847" lon="-1.24985">
        <ele>61</ele>
        <time>2020-12-20T09:28:13.672000+00:00</time>
      </trkpt>
      <trkpt lat="0" lon="0">
        <time>2020-12-20T09:28:13.683000+00:00</time>
      </trkpt>
      <trkpt lat="0" lon="0">
        <time>2020-12-20T09:28:13.691000+00:00</time>
      </trkpt>
      <trkpt lat="0" lon="0">
        <time>2020-12-20T09:28:13.693000+00:00</time>
      </trkpt>
      <trkpt lat="47.33851" lon="-1.24987">
        <ele>61</ele>
        <time>2020-12-20T09:28:14.689000+00:00</time>
      </trkpt>
      <trkpt lat="0" lon="0">
        <time>2020-12-20T09:28:14.702000+00:00</time>
      </trkpt>
      <trkpt lat="0" lon="0">
        <time>2020-12-20T09:28:14.708000+00:00</time>
      </trkpt>
      <trkpt lat="0" lon="0">
        <time>2020-12-20T09:28:14.715000+00:00</time>
      </trkpt>
      <trkpt lat="47.33855" lon="-1.24988">
        <ele>61</ele>
        <time>2020-12-20T09:28:15.643000+00:00</time>
      </trkpt>
      <trkpt lat="0" lon="0">
        <time>2020-12-20T09:28:15.655000+00:00</time>
      </trkpt>
      <trkpt lat="0" lon="0">
        <time>2020-12-20T09:28:15.659000+00:00</time>
      </trkpt>
      <trkpt lat="0" lon="0">
        <time>2020-12-20T09:28:15.661000+00:00</time>
      </trkpt>
      <trkpt lat="47.33858" lon="-1.2499">
        <ele>62</ele>
        <time>2020-12-20T09:28:16.702000+00:00</time>
      </trkpt>
      <trkpt lat="0" lon="0">
        <time>2020-12-20T09:28:16.710000+00:00</time>
      </trkpt>
      <trkpt lat="0" lon="0">
        <time>2020-12-20T09:28:16.726000+00:00</time>
      </trkpt>
      <trkpt lat="47.33862" lon="-1.24992">
        <ele>62</ele>
        <time>2020-12-20T09:28:17.604000+00:00</time>
      </trkpt>
      <trkpt lat="0" lon="0">
        <time>2020-12-20T09:28:17.609000+00:00</time>
      </trkpt>
      <trkpt lat="0" lon="0">
        <time>2020-12-20T09:28:17.611000+00:00</time>
      </trkpt>
      <trkpt lat="0" lon="0">
        <time>2020-12-20T09:28:17.612000+00:00</time>
      </trkpt>
      <trkpt lat="47.33865" lon="-1.24994">
        <ele>62</ele>
        <time>2020-12-20T09:28:18.626000+00:00</time>
      </trkpt>
      <trkpt lat="0" lon="0">
        <time>2020-12-20T09:28:18.642000+00:00</time>
      </trkpt>
      <trkpt lat="0" lon="0">
        <time>2020-12-20T09:28:18.644000+00:00</time>
      </trkpt>
      <trkpt lat="0" lon="0">
        <time>2020-12-20T09:28:18.645000+00:00</time>
      </trkpt>
      <trkpt lat="47.33867" lon="-1.24997">
        <ele>62</ele>
        <time>2020-12-20T09:28:19.628000+00:00</time>
      </trkpt>
      <trkpt lat="0" lon="0">
        <time>2020-12-20T09:28:19.632000+00:00</time>
      </trkpt>
      <trkpt lat="0" lon="0">
        <time>2020-12-20T09:28:19.640000+00:00</time>
      </trkpt>
      <trkpt lat="0" lon="0">
        <time>2020-12-20T09:28:19.644000+00:00</time>
      </trkpt>
      <trkpt lat="47.3387" lon="-1.25">
        <ele>62</ele>
        <time>2020-12-20T09:28:20.651000+00:00</time>
      </trkpt>
      <trkpt lat="0" lon="0">
        <time>2020-12-20T09:28:20.657000+00:00</time>
      </trkpt>
      <trkpt lat="0" lon="0">
        <time>2020-12-20T09:28:20.660000+00:00</time>
      </trkpt>
      <trkpt lat="0" lon="0">
        <time>2020-12-20T09:28:20.661000+00:00</time>
      </trkpt>
      <trkpt lat="47.33873" lon="-1.25003">
        <ele>63</ele>
        <time>2020-12-20T09:28:21.625000+00:00</time>
      </trkpt>
      <trkpt lat="0" lon="0">
        <time>2020-12-20T09:28:21.634000+00:00</time>
      </trkpt>
      <trkpt lat="0" lon="0">
        <time>2020-12-20T09:28:21.642000+00:00</time>
      </trkpt>
      <trkpt lat="0" lon="0">
        <time>2020-12-20T09:28:21.645000+00:00</time>
      </trkpt>
      <trkpt lat="47.33875" lon="-1.25007">
        <ele>63</ele>
        <time>2020-12-20T09:28:22.608000+00:00</time>
      </trkpt>
      <trkpt lat="0" lon="0">
        <time>2020-12-20T09:28:22.623000+00:00</time>
      </trkpt>
      <trkpt lat="0" lon="0">
        <time>2020-12-20T09:28:22.627000+00:00</time>
      </trkpt>
      <trkpt lat="0" lon="0">
        <time>2020-12-20T09:28:22.629000+00:00</time>
      </trkpt>
      <trkpt lat="47.33878" lon="-1.25011">
        <ele>63</ele>
        <time>2020-12-20T09:28:23.673000+00:00</time>
      </trkpt>
      <trkpt lat="0" lon="0">
        <time>2020-12-20T09:28:23.680000+00:00</time>
      </trkpt>
      <trkpt lat="0" lon="0">
        <time>2020-12-20T09:28:23.689000+00:00</time>
      </trkpt>
      <trkpt lat="0" lon="0">
        <time>2020-12-20T09:28:23.691000+00:00</time>
      </trkpt>
      <trkpt lat="47.3388" lon="-1.25015">
        <ele>63</ele>
        <time>2020-12-20T09:28:24.688000+00:00</time>
      </trkpt>
      <trkpt lat="0" lon="0">
        <time>2020-12-20T09:28:24.718000+00:00</time>
      </trkpt>
      <trkpt lat="0" lon="0">
        <time>2020-12-20T09:28:24.721000+00:00</time>
      </trkpt>
      <trkpt lat="0" lon="0">
        <time>2020-12-20T09:28:24.722000+00:00</time>
      </trkpt>
      <trkpt lat="47.33882" lon="-1.2502">
        <ele>63</ele>
        <time>2020-12-20T09:28:25.686000+00:00</time>
      </trkpt>
      <trkpt lat="0" lon="0">
        <time>2020-12-20T09:28:25.696000+00:00</time>
      </trkpt>
      <trkpt lat="0" lon="0">
        <time>2020-12-20T09:28:25.705000+00:00</time>
      </trkpt>
      <trkpt lat="0" lon="0">
        <time>2020-12-20T09:28:25.706000+00:00</time>
      </trkpt>
      <trkpt lat="47.33884" lon="-1.25025">
        <ele>63</ele>
        <time>2020-12-20T09:28:26.657000+00:00</time>
      </trkpt>
      <trkpt lat="0" lon="0">
        <time>2020-12-20T09:28:26.663000+00:00</time>
      </trkpt>
      <trkpt lat="0" lon="0">
        <time>2020-12-20T09:28:26.672000+00:00</time>
      </trkpt>
      <trkpt lat="0" lon="0">
        <time>2020-12-20T09:28:26.674000+00:00</time>
      </trkpt>
      <trkpt lat="47.33886" lon="-1.2503">
        <ele>63</ele>
        <time>2020-12-20T09:28:27.646000+00:00</time>
      </trkpt>
      <trkpt lat="0" lon="0">
        <time>2020-12-20T09:28:27.668000+00:00</time>
      </trkpt>
      <trkpt lat="0" lon="0">
        <time>2020-12-20T09:28:27.672000+00:00</time>
      </trkpt>
      <trkpt lat="0" lon="0">
        <time>2020-12-20T09:28:27.674000+00:00</time>
      </trkpt>
      <trkpt lat="47.33888" lon="-1.25035">
        <ele>62</ele>
        <time>2020-12-20T09:28:28.652000+00:00</time>
      </trkpt>
      <trkpt lat="0" lon="0">
        <time>2020-12-20T09:28:28.662000+00:00</time>
      </trkpt>
      <trkpt lat="0" lon="0">
        <time>2020-12-20T09:28:28.669000+00:00</time>
      </trkpt>
      <trkpt lat="0" lon="0">
        <time>2020-12-20T09:28:28.671000+00:00</time>
      </trkpt>
      <trkpt lat="47.3389" lon="-1.2504">
        <ele>63</ele>
        <time>2020-12-20T09:28:29.653000+00:00</time>
      </trkpt>
      <trkpt lat="0" lon="0">
        <time>2020-12-20T09:28:29.663000+00:00</time>
      </trkpt>
      <trkpt lat="0" lon="0">
        <time>2020-12-20T09:28:29.674000+00:00</time>
      </trkpt>
      <trkpt lat="0" lon="0">
        <time>2020-12-20T09:28:29.677000+00:00</time>
      </trkpt>
      <trkpt lat="47.33892" lon="-1.25045">
        <ele>63</ele>
        <time>2020-12-20T09:28:30.644000+00:00</time>
      </trkpt>
      <trkpt lat="0" lon="0">
        <time>2020-12-20T09:28:30.649000+00:00</time>
      </trkpt>
      <trkpt lat="0" lon="0">
        <time>2020-12-20T09:28:30.652000+00:00</time>
      </trkpt>
      <trkpt lat="0" lon="0">
        <time>2020-12-20T09:28:30.653000+00:00</time>
      </trkpt>
      <trkpt lat="47.33894" lon="-1.25051">
        <ele>63</ele>
        <time>2020-12-20T09:28:31.646000+00:00</time>
      </trkpt>
      <trkpt lat="0" lon="0">
        <time>2020-12-20T09:28:31.648000+00:00</time>
      </trkpt>
      <trkpt lat="0" lon="0">
        <time>2020-12-20T09:28:31.651000+00:00</time>
      </trkpt>
      <trkpt lat="0" lon="0">
        <time>2020-12-20T09:28:31.653000+00:00</time>
      </trkpt>
      <trkpt lat="47.33895" lon="-1.25056">
        <ele>63</ele>
        <time>2020-12-20T09:28:32.623000+00:00</time>
      </trkpt>
      <trkpt lat="0" lon="0">
        <time>2020-12-20T09:28:32.631000+00:00</time>
      </trkpt>
      <trkpt lat="0" lon="0">
        <time>2020-12-20T09:28:32.632000+00:00</time>
      </trkpt>
      <trkpt lat="0" lon="0">
        <time>2020-12-20T09:28:32.633000+00:00</time>
      </trkpt>
      <trkpt lat="47.33897" lon="-1.25061">
        <ele>63</ele>
        <time>2020-12-20T09:28:33.666000+00:00</time>
      </trkpt>
      <trkpt lat="0" lon="0">
        <time>2020-12-20T09:28:33.680000+00:00</time>
      </trkpt>
      <trkpt lat="0" lon="0">
        <time>2020-12-20T09:28:33.689000+00:00</time>
      </trkpt>
      <trkpt lat="0" lon="0">
        <time>2020-12-20T09:28:33.692000+00:00</time>
      </trkpt>
      <trkpt lat="47.33899" lon="-1.25067">
        <ele>63</ele>
        <time>2020-12-20T09:28:34.642000+00:00</time>
      </trkpt>
      <trkpt lat="0" lon="0">
        <time>2020-12-20T09:28:34.650000+00:00</time>
      </trkpt>
      <trkpt lat="0" lon="0">
        <time>2020-12-20T09:28:34.654000+00:00</time>
      </trkpt>
      <trkpt lat="0" lon="0">
        <time>2020-12-20T09:28:34.657000+00:00</time>
      </trkpt>
      <trkpt lat="47.33901" lon="-1.25072">
        <ele>63</ele>
        <time>2020-12-20T09:28:35.675000+00:00</time>
      </trkpt>
      <trkpt lat="0" lon="0">
        <time>2020-12-20T09:28:35.687000+00:00</time>
      </trkpt>
      <trkpt lat="0" lon="0">
        <time>2020-12-20T09:28:35.691000+00:00</time>
      </trkpt>
      <trkpt lat="0" lon="0">
        <time>2020-12-20T09:28:35.693000+00:00</time>
      </trkpt>
      <trkpt lat="47.33903" lon="-1.25078">
        <ele>63</ele>
        <time>2020-12-20T09:28:36.673000+00:00</time>
      </trkpt>
      <trkpt lat="0" lon="0">
        <time>2020-12-20T09:28:36.680000+00:00</time>
      </trkpt>
      <trkpt lat="0" lon="0">
        <time>2020-12-20T09:28:36.696000+00:00</time>
      </trkpt>
      <trkpt lat="0" lon="0">
        <time>2020-12-20T09:28:36.702000+00:00</time>
      </trkpt>
      <trkpt lat="47.33905" lon="-1.25083">
        <ele>64</ele>
        <time>2020-12-20T09:28:37.665000+00:00</time>
      </trkpt>
      <trkpt lat="0" lon="0">
        <time>2020-12-20T09:28:37.674000+00:00</time>
      </trkpt>
      <trkpt lat="0" lon="0">
        <time>2020-12-20T09:28:37.683000+00:00</time>
      </trkpt>
      <trkpt lat="0" lon="0">
        <time>2020-12-20T09:28:37.691000+00:00</time>
      </trkpt>
      <trkpt lat="47.33908" lon="-1.25089">
        <ele>64</ele>
        <time>2020-12-20T09:28:38.582000+00:00</time>
      </trkpt>
      <trkpt lat="0" lon="0">
        <time>2020-12-20T09:28:38.584000+00:00</time>
      </trkpt>
      <trkpt lat="0" lon="0">
        <time>2020-12-20T09:28:38.585000+00:00</time>
      </trkpt>
      <trkpt lat="0" lon="0">
        <time>2020-12-20T09:28:38.586000+00:00</time>
      </trkpt>
      <trkpt lat="47.3391" lon="-1.25094">
        <ele>64</ele>
        <time>2020-12-20T09:28:39.662000+00:00</time>
      </trkpt>
      <trkpt lat="0" lon="0">
        <time>2020-12-20T09:28:39.670000+00:00</time>
      </trkpt>
      <trkpt lat="0" lon="0">
        <time>2020-12-20T09:28:39.674000+00:00</time>
      </trkpt>
      <trkpt lat="0" lon="0">
        <time>2020-12-20T09:28:39.678000+00:00</time>
      </trkpt>
      <trkpt lat="47.33912" lon="-1.251">
        <ele>64</ele>
        <time>2020-12-20T09:28:40.624000+00:00</time>
      </trkpt>
      <trkpt lat="0" lon="0">
        <time>2020-12-20T09:28:40.628000+00:00</time>
      </trkpt>
      <trkpt lat="0" lon="0">
        <time>2020-12-20T09:28:40.632000+00:00</time>
      </trkpt>
      <trkpt lat="0" lon="0">
        <time>2020-12-20T09:28:40.634000+00:00</time>
      </trkpt>
      <trkpt lat="47.33914" lon="-1.25105">
        <ele>65</ele>
        <time>2020-12-20T09:28:41.690000+00:00</time>
      </trkpt>
      <trkpt lat="0" lon="0">
        <time>2020-12-20T09:28:41.695000+00:00</time>
      </trkpt>
      <trkpt lat="0" lon="0">
        <time>2020-12-20T09:28:41.702000+00:00</time>
      </trkpt>
      <trkpt lat="0" lon="0">
        <time>2020-12-20T09:28:41.704000+00:00</time>
      </trkpt>
      <trkpt lat="47.33916" lon="-1.2511">
        <ele>64</ele>
        <time>2020-12-20T09:28:42.661000+00:00</time>
      </trkpt>
      <trkpt lat="0" lon="0">
        <time>2020-12-20T09:28:42.678000+00:00</time>
      </trkpt>
      <trkpt lat="0" lon="0">
        <time>2020-12-20T09:28:42.692000+00:00</time>
      </trkpt>
      <trkpt lat="0" lon="0">
        <time>2020-12-20T09:28:42.695000+00:00</time>
      </trkpt>
      <trkpt lat="47.33918" lon="-1.25115">
        <ele>64</ele>
        <time>2020-12-20T09:28:43.657000+00:00</time>
      </trkpt>
      <trkpt lat="0" lon="0">
        <time>2020-12-20T09:28:43.671000+00:00</time>
      </trkpt>
      <trkpt lat="0" lon="0">
        <time>2020-12-20T09:28:43.675000+00:00</time>
      </trkpt>
      <trkpt lat="0" lon="0">
        <time>2020-12-20T09:28:43.680000+00:00</time>
      </trkpt>
      <trkpt lat="47.3392" lon="-1.2512">
        <ele>64</ele>
        <time>2020-12-20T09:28:44.669000+00:00</time>
      </trkpt>
      <trkpt lat="0" lon="0">
        <time>2020-12-20T09:28:44.675000+00:00</time>
      </trkpt>
      <trkpt lat="0" lon="0">
        <time>2020-12-20T09:28:44.678000+00:00</time>
      </trkpt>
      <trkpt lat="0" lon="0">
        <time>2020-12-20T09:28:44.682000+00:00</time>
      </trkpt>
      <trkpt lat="47.33922" lon="-1.25125">
        <ele>65</ele>
        <time>2020-12-20T09:28:45.628000+00:00</time>
      </trkpt>
      <trkpt lat="0" lon="0">
        <time>2020-12-20T09:28:45.643000+00:00</time>
      </trkpt>
      <trkpt lat="0" lon="0">
        <time>2020-12-20T09:28:45.647000+00:00</time>
      </trkpt>
      <trkpt lat="0" lon="0">
        <time>2020-12-20T09:28:45.650000+00:00</time>
      </trkpt>
      <trkpt lat="47.33924" lon="-1.2513">
        <ele>65</ele>
        <time>2020-12-20T09:28:46.667000+00:00</time>
      </trkpt>
      <trkpt lat="0" lon="0">
        <time>2020-12-20T09:28:46.675000+00:00</time>
      </trkpt>
      <trkpt lat="0" lon="0">
        <time>2020-12-20T09:28:46.680000+00:00</time>
      </trkpt>
      <trkpt lat="0" lon="0">
        <time>2020-12-20T09:28:46.682000+00:00</time>
      </trkpt>
      <trkpt lat="47.33926" lon="-1.25135">
        <ele>65</ele>
        <time>2020-12-20T09:28:47.675000+00:00</time>
      </trkpt>
      <trkpt lat="0" lon="0">
        <time>2020-12-20T09:28:47.684000+00:00</time>
      </trkpt>
      <trkpt lat="0" lon="0">
        <time>2020-12-20T09:28:47.694000+00:00</time>
      </trkpt>
      <trkpt lat="0" lon="0">
        <time>2020-12-20T09:28:47.701000+00:00</time>
      </trkpt>
      <trkpt lat="47.33928" lon="-1.2514">
        <ele>65</ele>
        <time>2020-12-20T09:28:48.632000+00:00</time>
      </trkpt>
      <trkpt lat="0" lon="0">
        <time>2020-12-20T09:28:48.643000+00:00</time>
      </trkpt>
      <trkpt lat="0" lon="0">
        <time>2020-12-20T09:28:48.646000+00:00</time>
      </trkpt>
      <trkpt lat="0" lon="0">
        <time>2020-12-20T09:28:48.649000+00:00</time>
      </trkpt>
      <trkpt lat="47.3393" lon="-1.25145">
        <ele>66</ele>
        <time>2020-12-20T09:28:49.634000+00:00</time>
      </trkpt>
      <trkpt lat="0" lon="0">
        <time>2020-12-20T09:28:49.642000+00:00</time>
      </trkpt>
      <trkpt lat="0" lon="0">
        <time>2020-12-20T09:28:49.651000+00:00</time>
      </trkpt>
      <trkpt lat="0" lon="0">
        <time>2020-12-20T09:28:49.654000+00:00</time>
      </trkpt>
      <trkpt lat="47.33932" lon="-1.2515">
        <ele>66</ele>
        <time>2020-12-20T09:28:50.657000+00:00</time>
      </trkpt>
      <trkpt lat="0" lon="0">
        <time>2020-12-20T09:28:50.666000+00:00</time>
      </trkpt>
      <trkpt lat="0" lon="0">
        <time>2020-12-20T09:28:50.672000+00:00</time>
      </trkpt>
      <trkpt lat="0" lon="0">
        <time>2020-12-20T09:28:50.674000+00:00</time>
      </trkpt>
      <trkpt lat="47.33934" lon="-1.25155">
        <ele>66</ele>
        <time>2020-12-20T09:28:51.646000+00:00</time>
      </trkpt>
      <trkpt lat="0" lon="0">
        <time>2020-12-20T09:28:51.661000+00:00</time>
      </trkpt>
      <trkpt lat="0" lon="0">
        <time>2020-12-20T09:28:51.666000+00:00</time>
      </trkpt>
      <trkpt lat="0" lon="0">
        <time>2020-12-20T09:28:51.669000+00:00</time>
      </trkpt>
      <trkpt lat="47.33935" lon="-1.25161">
        <ele>66</ele>
        <time>2020-12-20T09:28:52.656000+00:00</time>
      </trkpt>
      <trkpt lat="0" lon="0">
        <time>2020-12-20T09:28:52.669000+00:00</time>
      </trkpt>
      <trkpt lat="0" lon="0">
        <time>2020-12-20T09:28:52.679000+00:00</time>
      </trkpt>
      <trkpt lat="0" lon="0">
        <time>2020-12-20T09:28:52.681000+00:00</time>
      </trkpt>
      <trkpt lat="47.33937" lon="-1.25166">
        <ele>66</ele>
        <time>2020-12-20T09:28:53.643000+00:00</time>
      </trkpt>
      <trkpt lat="0" lon="0">
        <time>2020-12-20T09:28:53.663000+00:00</time>
      </trkpt>
      <trkpt lat="0" lon="0">
        <time>2020-12-20T09:28:53.665000+00:00</time>
      </trkpt>
      <trkpt lat="0" lon="0">
        <time>2020-12-20T09:28:53.666000+00:00</time>
      </trkpt>
      <trkpt lat="47.33938" lon="-1.25171">
        <ele>66</ele>
        <time>2020-12-20T09:28:54.633000+00:00</time>
      </trkpt>
      <trkpt lat="0" lon="0">
        <time>2020-12-20T09:28:54.644000+00:00</time>
      </trkpt>
      <trkpt lat="0" lon="0">
        <time>2020-12-20T09:28:54.650000+00:00</time>
      </trkpt>
      <trkpt lat="0" lon="0">
        <time>2020-12-20T09:28:54.659000+00:00</time>
      </trkpt>
      <trkpt lat="47.3394" lon="-1.25177">
        <ele>66</ele>
        <time>2020-12-20T09:28:55.656000+00:00</time>
      </trkpt>
      <trkpt lat="0" lon="0">
        <time>2020-12-20T09:28:55.675000+00:00</time>
      </trkpt>
      <trkpt lat="0" lon="0">
        <time>2020-12-20T09:28:55.681000+00:00</time>
      </trkpt>
      <trkpt lat="0" lon="0">
        <time>2020-12-20T09:28:55.684000+00:00</time>
      </trkpt>
      <trkpt lat="47.33941" lon="-1.25182">
        <ele>66</ele>
        <time>2020-12-20T09:28:56.673000+00:00</time>
      </trkpt>
      <trkpt lat="0" lon="0">
        <time>2020-12-20T09:28:56.691000+00:00</time>
      </trkpt>
      <trkpt lat="0" lon="0">
        <time>2020-12-20T09:28:56.699000+00:00</time>
      </trkpt>
      <trkpt lat="0" lon="0">
        <time>2020-12-20T09:28:56.703000+00:00</time>
      </trkpt>
      <trkpt lat="47.33942" lon="-1.25188">
        <ele>66</ele>
        <time>2020-12-20T09:28:57.628000+00:00</time>
      </trkpt>
      <trkpt lat="0" lon="0">
        <time>2020-12-20T09:28:57.639000+00:00</time>
      </trkpt>
      <trkpt lat="0" lon="0">
        <time>2020-12-20T09:28:57.648000+00:00</time>
      </trkpt>
      <trkpt lat="0" lon="0">
        <time>2020-12-20T09:28:57.651000+00:00</time>
      </trkpt>
      <trkpt lat="47.33943" lon="-1.25193">
        <ele>66</ele>
        <time>2020-12-20T09:28:58.650000+00:00</time>
      </trkpt>
      <trkpt lat="0" lon="0">
        <time>2020-12-20T09:28:58.660000+00:00</time>
      </trkpt>
      <trkpt lat="0" lon="0">
        <time>2020-12-20T09:28:58.665000+00:00</time>
      </trkpt>
      <trkpt lat="0" lon="0">
        <time>2020-12-20T09:28:58.668000+00:00</time>
      </trkpt>
      <trkpt lat="47.33944" lon="-1.25199">
        <ele>66</ele>
        <time>2020-12-20T09:28:59.595000+00:00</time>
      </trkpt>
      <trkpt lat="0" lon="0">
        <time>2020-12-20T09:28:59.602000+00:00</time>
      </trkpt>
      <trkpt lat="0" lon="0">
        <time>2020-12-20T09:28:59.604000+00:00</time>
      </trkpt>
      <trkpt lat="0" lon="0">
        <time>2020-12-20T09:28:59.607000+00:00</time>
      </trkpt>
      <trkpt lat="47.33945" lon="-1.25204">
        <ele>66</ele>
        <time>2020-12-20T09:29:00.670000+00:00</time>
      </trkpt>
      <trkpt lat="0" lon="0">
        <time>2020-12-20T09:29:00.691000+00:00</time>
      </trkpt>
      <trkpt lat="0" lon="0">
        <time>2020-12-20T09:29:00.699000+00:00</time>
      </trkpt>
      <trkpt lat="0" lon="0">
        <time>2020-12-20T09:29:00.704000+00:00</time>
      </trkpt>
      <trkpt lat="47.33945" lon="-1.2521">
        <ele>66</ele>
        <time>2020-12-20T09:29:01.661000+00:00</time>
      </trkpt>
      <trkpt lat="0" lon="0">
        <time>2020-12-20T09:29:01.671000+00:00</time>
      </trkpt>
      <trkpt lat="0" lon="0">
        <time>2020-12-20T09:29:01.676000+00:00</time>
      </trkpt>
      <trkpt lat="0" lon="0">
        <time>2020-12-20T09:29:01.678000+00:00</time>
      </trkpt>
      <trkpt lat="47.33945" lon="-1.25216">
        <ele>66</ele>
        <time>2020-12-20T09:29:02.670000+00:00</time>
      </trkpt>
      <trkpt lat="0" lon="0">
        <time>2020-12-20T09:29:02.680000+00:00</time>
      </trkpt>
      <trkpt lat="0" lon="0">
        <time>2020-12-20T09:29:02.687000+00:00</time>
      </trkpt>
      <trkpt lat="0" lon="0">
        <time>2020-12-20T09:29:02.689000+00:00</time>
      </trkpt>
      <trkpt lat="47.33945" lon="-1.25222">
        <ele>66</ele>
        <time>2020-12-20T09:29:03.638000+00:00</time>
      </trkpt>
      <trkpt lat="0" lon="0">
        <time>2020-12-20T09:29:03.649000+00:00</time>
      </trkpt>
      <trkpt lat="0" lon="0">
        <time>2020-12-20T09:29:03.657000+00:00</time>
      </trkpt>
      <trkpt lat="0" lon="0">
        <time>2020-12-20T09:29:03.662000+00:00</time>
      </trkpt>
      <trkpt lat="47.33945" lon="-1.25227">
        <ele>66</ele>
        <time>2020-12-20T09:29:04.613000+00:00</time>
      </trkpt>
      <trkpt lat="0" lon="0">
        <time>2020-12-20T09:29:04.630000+00:00</time>
      </trkpt>
      <trkpt lat="0" lon="0">
        <time>2020-12-20T09:29:04.636000+00:00</time>
      </trkpt>
      <trkpt lat="0" lon="0">
        <time>2020-12-20T09:29:04.639000+00:00</time>
      </trkpt>
      <trkpt lat="47.33945" lon="-1.25233">
        <ele>66</ele>
        <time>2020-12-20T09:29:05.644000+00:00</time>
      </trkpt>
      <trkpt lat="0" lon="0">
        <time>2020-12-20T09:29:05.659000+00:00</time>
      </trkpt>
      <trkpt lat="0" lon="0">
        <time>2020-12-20T09:29:05.669000+00:00</time>
      </trkpt>
      <trkpt lat="0" lon="0">
        <time>2020-12-20T09:29:05.673000+00:00</time>
      </trkpt>
      <trkpt lat="47.33945" lon="-1.25239">
        <ele>66</ele>
        <time>2020-12-20T09:29:06.639000+00:00</time>
      </trkpt>
      <trkpt lat="0" lon="0">
        <time>2020-12-20T09:29:06.652000+00:00</time>
      </trkpt>
      <trkpt lat="0" lon="0">
        <time>2020-12-20T09:29:06.656000+00:00</time>
      </trkpt>
      <trkpt lat="0" lon="0">
        <time>2020-12-20T09:29:06.658000+00:00</time>
      </trkpt>
      <trkpt lat="47.33944" lon="-1.25245">
        <ele>66</ele>
        <time>2020-12-20T09:29:07.696000+00:00</time>
      </trkpt>
      <trkpt lat="0" lon="0">
        <time>2020-12-20T09:29:07.717000+00:00</time>
      </trkpt>
      <trkpt lat="0" lon="0">
        <time>2020-12-20T09:29:07.724000+00:00</time>
      </trkpt>
      <trkpt lat="0" lon="0">
        <time>2020-12-20T09:29:07.728000+00:00</time>
      </trkpt>
      <trkpt lat="47.33944" lon="-1.25251">
        <ele>66</ele>
        <time>2020-12-20T09:29:08.655000+00:00</time>
      </trkpt>
      <trkpt lat="0" lon="0">
        <time>2020-12-20T09:29:08.662000+00:00</time>
      </trkpt>
      <trkpt lat="0" lon="0">
        <time>2020-12-20T09:29:08.667000+00:00</time>
      </trkpt>
      <trkpt lat="0" lon="0">
        <time>2020-12-20T09:29:08.669000+00:00</time>
      </trkpt>
      <trkpt lat="47.33943" lon="-1.25256">
        <ele>66</ele>
        <time>2020-12-20T09:29:09.675000+00:00</time>
      </trkpt>
      <trkpt lat="0" lon="0">
        <time>2020-12-20T09:29:09.684000+00:00</time>
      </trkpt>
      <trkpt lat="0" lon="0">
        <time>2020-12-20T09:29:09.690000+00:00</time>
      </trkpt>
      <trkpt lat="0" lon="0">
        <time>2020-12-20T09:29:09.693000+00:00</time>
      </trkpt>
      <trkpt lat="47.33943" lon="-1.25262">
        <ele>66</ele>
        <time>2020-12-20T09:29:10.648000+00:00</time>
      </trkpt>
      <trkpt lat="0" lon="0">
        <time>2020-12-20T09:29:10.662000+00:00</time>
      </trkpt>
      <trkpt lat="0" lon="0">
        <time>2020-12-20T09:29:10.668000+00:00</time>
      </trkpt>
      <trkpt lat="0" lon="0">
        <time>2020-12-20T09:29:10.669000+00:00</time>
      </trkpt>
      <trkpt lat="47.33942" lon="-1.25268">
        <ele>66</ele>
        <time>2020-12-20T09:29:11.631000+00:00</time>
      </trkpt>
      <trkpt lat="0" lon="0">
        <time>2020-12-20T09:29:11.646000+00:00</time>
      </trkpt>
      <trkpt lat="0" lon="0">
        <time>2020-12-20T09:29:11.648000+00:00</time>
      </trkpt>
      <trkpt lat="0" lon="0">
        <time>2020-12-20T09:29:11.649000+00:00</time>
      </trkpt>
      <trkpt lat="47.33941" lon="-1.25273">
        <ele>66</ele>
        <time>2020-12-20T09:29:12.648000+00:00</time>
      </trkpt>
      <trkpt lat="0" lon="0">
        <time>2020-12-20T09:29:12.656000+00:00</time>
      </trkpt>
      <trkpt lat="0" lon="0">
        <time>2020-12-20T09:29:12.664000+00:00</time>
      </trkpt>
      <trkpt lat="0" lon="0">
        <time>2020-12-20T09:29:12.666000+00:00</time>
      </trkpt>
      <trkpt lat="47.3394" lon="-1.25279">
        <ele>66</ele>
        <time>2020-12-20T09:29:13.610000+00:00</time>
      </trkpt>
      <trkpt lat="0" lon="0">
        <time>2020-12-20T09:29:13.617000+00:00</time>
      </trkpt>
      <trkpt lat="0" lon="0">
        <time>2020-12-20T09:29:13.620000+00:00</time>
      </trkpt>
      <trkpt lat="0" lon="0">
        <time>2020-12-20T09:29:13.622000+00:00</time>
      </trkpt>
      <trkpt lat="47.33939" lon="-1.25284">
        <ele>66</ele>
        <time>2020-12-20T09:29:14.636000+00:00</time>
      </trkpt>
      <trkpt lat="0" lon="0">
        <time>2020-12-20T09:29:14.645000+00:00</time>
      </trkpt>
      <trkpt lat="0" lon="0">
        <time>2020-12-20T09:29:14.652000+00:00</time>
      </trkpt>
      <trkpt lat="0" lon="0">
        <time>2020-12-20T09:29:14.654000+00:00</time>
      </trkpt>
      <trkpt lat="47.33938" lon="-1.25289">
        <ele>66</ele>
        <time>2020-12-20T09:29:15.668000+00:00</time>
      </trkpt>
      <trkpt lat="0" lon="0">
        <time>2020-12-20T09:29:15.679000+00:00</time>
      </trkpt>
      <trkpt lat="0" lon="0">
        <time>2020-12-20T09:29:15.684000+00:00</time>
      </trkpt>
      <trkpt lat="0" lon="0">
        <time>2020-12-20T09:29:15.686000+00:00</time>
      </trkpt>
      <trkpt lat="47.33937" lon="-1.25295">
        <ele>66</ele>
        <time>2020-12-20T09:29:16.658000+00:00</time>
      </trkpt>
      <trkpt lat="0" lon="0">
        <time>2020-12-20T09:29:16.666000+00:00</time>
      </trkpt>
      <trkpt lat="0" lon="0">
        <time>2020-12-20T09:29:16.671000+00:00</time>
      </trkpt>
      <trkpt lat="0" lon="0">
        <time>2020-12-20T09:29:16.675000+00:00</time>
      </trkpt>
      <trkpt lat="47.33936" lon="-1.253">
        <ele>66</ele>
        <time>2020-12-20T09:29:17.639000+00:00</time>
      </trkpt>
      <trkpt lat="0" lon="0">
        <time>2020-12-20T09:29:17.645000+00:00</time>
      </trkpt>
      <trkpt lat="0" lon="0">
        <time>2020-12-20T09:29:17.647000+00:00</time>
      </trkpt>
      <trkpt lat="0" lon="0">
        <time>2020-12-20T09:29:17.651000+00:00</time>
      </trkpt>
      <trkpt lat="47.33934" lon="-1.25306">
        <ele>66</ele>
        <time>2020-12-20T09:29:18.663000+00:00</time>
      </trkpt>
      <trkpt lat="0" lon="0">
        <time>2020-12-20T09:29:18.671000+00:00</time>
      </trkpt>
      <trkpt lat="0" lon="0">
        <time>2020-12-20T09:29:18.676000+00:00</time>
      </trkpt>
      <trkpt lat="0" lon="0">
        <time>2020-12-20T09:29:18.689000+00:00</time>
      </trkpt>
      <trkpt lat="47.33933" lon="-1.25311">
        <ele>66</ele>
        <time>2020-12-20T09:29:19.683000+00:00</time>
      </trkpt>
      <trkpt lat="0" lon="0">
        <time>2020-12-20T09:29:19.707000+00:00</time>
      </trkpt>
      <trkpt lat="0" lon="0">
        <time>2020-12-20T09:29:19.710000+00:00</time>
      </trkpt>
      <trkpt lat="0" lon="0">
        <time>2020-12-20T09:29:19.713000+00:00</time>
      </trkpt>
      <trkpt lat="47.33932" lon="-1.25317">
        <ele>67</ele>
        <time>2020-12-20T09:29:20.667000+00:00</time>
      </trkpt>
      <trkpt lat="0" lon="0">
        <time>2020-12-20T09:29:20.690000+00:00</time>
      </trkpt>
      <trkpt lat="0" lon="0">
        <time>2020-12-20T09:29:20.694000+00:00</time>
      </trkpt>
      <trkpt lat="0" lon="0">
        <time>2020-12-20T09:29:20.696000+00:00</time>
      </trkpt>
      <trkpt lat="47.33931" lon="-1.25322">
        <ele>67</ele>
        <time>2020-12-20T09:29:21.658000+00:00</time>
      </trkpt>
      <trkpt lat="0" lon="0">
        <time>2020-12-20T09:29:21.678000+00:00</time>
      </trkpt>
      <trkpt lat="0" lon="0">
        <time>2020-12-20T09:29:21.682000+00:00</time>
      </trkpt>
      <trkpt lat="0" lon="0">
        <time>2020-12-20T09:29:21.685000+00:00</time>
      </trkpt>
      <trkpt lat="47.3393" lon="-1.25328">
        <ele>67</ele>
        <time>2020-12-20T09:29:22.612000+00:00</time>
      </trkpt>
      <trkpt lat="0" lon="0">
        <time>2020-12-20T09:29:22.635000+00:00</time>
      </trkpt>
      <trkpt lat="0" lon="0">
        <time>2020-12-20T09:29:22.643000+00:00</time>
      </trkpt>
      <trkpt lat="0" lon="0">
        <time>2020-12-20T09:29:22.646000+00:00</time>
      </trkpt>
      <trkpt lat="47.33929" lon="-1.25333">
        <ele>67</ele>
        <time>2020-12-20T09:29:23.638000+00:00</time>
      </trkpt>
      <trkpt lat="0" lon="0">
        <time>2020-12-20T09:29:23.655000+00:00</time>
      </trkpt>
      <trkpt lat="0" lon="0">
        <time>2020-12-20T09:29:23.661000+00:00</time>
      </trkpt>
      <trkpt lat="0" lon="0">
        <time>2020-12-20T09:29:23.665000+00:00</time>
      </trkpt>
      <trkpt lat="47.33928" lon="-1.25339">
        <ele>67</ele>
        <time>2020-12-20T09:29:24.673000+00:00</time>
      </trkpt>
      <trkpt lat="0" lon="0">
        <time>2020-12-20T09:29:24.678000+00:00</time>
      </trkpt>
      <trkpt lat="0" lon="0">
        <time>2020-12-20T09:29:24.684000+00:00</time>
      </trkpt>
      <trkpt lat="0" lon="0">
        <time>2020-12-20T09:29:24.690000+00:00</time>
      </trkpt>
      <trkpt lat="47.33927" lon="-1.25344">
        <ele>68</ele>
        <time>2020-12-20T09:29:25.676000+00:00</time>
      </trkpt>
      <trkpt lat="0" lon="0">
        <time>2020-12-20T09:29:25.681000+00:00</time>
      </trkpt>
      <trkpt lat="0" lon="0">
        <time>2020-12-20T09:29:25.687000+00:00</time>
      </trkpt>
      <trkpt lat="0" lon="0">
        <time>2020-12-20T09:29:25.689000+00:00</time>
      </trkpt>
      <trkpt lat="47.33926" lon="-1.25349">
        <ele>68</ele>
        <time>2020-12-20T09:29:26.663000+00:00</time>
      </trkpt>
      <trkpt lat="0" lon="0">
        <time>2020-12-20T09:29:26.674000+00:00</time>
      </trkpt>
      <trkpt lat="0" lon="0">
        <time>2020-12-20T09:29:26.679000+00:00</time>
      </trkpt>
      <trkpt lat="0" lon="0">
        <time>2020-12-20T09:29:26.689000+00:00</time>
      </trkpt>
      <trkpt lat="47.33925" lon="-1.25354">
        <ele>68</ele>
        <time>2020-12-20T09:29:27.673000+00:00</time>
      </trkpt>
      <trkpt lat="0" lon="0">
        <time>2020-12-20T09:29:27.687000+00:00</time>
      </trkpt>
      <trkpt lat="0" lon="0">
        <time>2020-12-20T09:29:27.694000+00:00</time>
      </trkpt>
      <trkpt lat="0" lon="0">
        <time>2020-12-20T09:29:27.698000+00:00</time>
      </trkpt>
      <trkpt lat="47.33924" lon="-1.25359">
        <ele>68</ele>
        <time>2020-12-20T09:29:28.649000+00:00</time>
      </trkpt>
      <trkpt lat="0" lon="0">
        <time>2020-12-20T09:29:28.656000+00:00</time>
      </trkpt>
      <trkpt lat="0" lon="0">
        <time>2020-12-20T09:29:28.661000+00:00</time>
      </trkpt>
      <trkpt lat="0" lon="0">
        <time>2020-12-20T09:29:28.664000+00:00</time>
      </trkpt>
      <trkpt lat="47.33923" lon="-1.25364">
        <ele>68</ele>
        <time>2020-12-20T09:29:29.665000+00:00</time>
      </trkpt>
      <trkpt lat="0" lon="0">
        <time>2020-12-20T09:29:29.668000+00:00</time>
      </trkpt>
      <trkpt lat="0" lon="0">
        <time>2020-12-20T09:29:29.670000+00:00</time>
      </trkpt>
      <trkpt lat="0" lon="0">
        <time>2020-12-20T09:29:29.678000+00:00</time>
      </trkpt>
      <trkpt lat="47.33923" lon="-1.25368">
        <ele>68</ele>
        <time>2020-12-20T09:29:30.674000+00:00</time>
      </trkpt>
      <trkpt lat="0" lon="0">
        <time>2020-12-20T09:29:30.686000+00:00</time>
      </trkpt>
      <trkpt lat="0" lon="0">
        <time>2020-12-20T09:29:30.694000+00:00</time>
      </trkpt>
      <trkpt lat="0" lon="0">
        <time>2020-12-20T09:29:30.696000+00:00</time>
      </trkpt>
      <trkpt lat="47.33922" lon="-1.25371">
        <ele>69</ele>
        <time>2020-12-20T09:29:31.660000+00:00</time>
      </trkpt>
      <trkpt lat="0" lon="0">
        <time>2020-12-20T09:29:31.666000+00:00</time>
      </trkpt>
      <trkpt lat="0" lon="0">
        <time>2020-12-20T09:29:31.671000+00:00</time>
      </trkpt>
      <trkpt lat="0" lon="0">
        <time>2020-12-20T09:29:31.674000+00:00</time>
      </trkpt>
      <trkpt lat="47.33922" lon="-1.25374">
        <ele>69</ele>
        <time>2020-12-20T09:29:32.670000+00:00</time>
      </trkpt>
      <trkpt lat="0" lon="0">
        <time>2020-12-20T09:29:32.677000+00:00</time>
      </trkpt>
      <trkpt lat="0" lon="0">
        <time>2020-12-20T09:29:32.682000+00:00</time>
      </trkpt>
      <trkpt lat="0" lon="0">
        <time>2020-12-20T09:29:32.684000+00:00</time>
      </trkpt>
      <trkpt lat="47.33922" lon="-1.25376">
        <ele>69</ele>
        <time>2020-12-20T09:29:33.640000+00:00</time>
      </trkpt>
      <trkpt lat="0" lon="0">
        <time>2020-12-20T09:29:33.649000+00:00</time>
      </trkpt>
      <trkpt lat="0" lon="0">
        <time>2020-12-20T09:29:33.656000+00:00</time>
      </trkpt>
      <trkpt lat="0" lon="0">
        <time>2020-12-20T09:29:33.659000+00:00</time>
      </trkpt>
      <trkpt lat="47.33922" lon="-1.25378">
        <ele>69</ele>
        <time>2020-12-20T09:29:34.655000+00:00</time>
      </trkpt>
      <trkpt lat="0" lon="0">
        <time>2020-12-20T09:29:34.669000+00:00</time>
      </trkpt>
      <trkpt lat="0" lon="0">
        <time>2020-12-20T09:29:34.677000+00:00</time>
      </trkpt>
      <trkpt lat="0" lon="0">
        <time>2020-12-20T09:29:34.679000+00:00</time>
      </trkpt>
      <trkpt lat="47.33923" lon="-1.25379">
        <ele>69</ele>
        <time>2020-12-20T09:29:35.626000+00:00</time>
      </trkpt>
      <trkpt lat="0" lon="0">
        <time>2020-12-20T09:29:35.649000+00:00</time>
      </trkpt>
      <trkpt lat="0" lon="0">
        <time>2020-12-20T09:29:35.653000+00:00</time>
      </trkpt>
      <trkpt lat="0" lon="0">
        <time>2020-12-20T09:29:35.654000+00:00</time>
      </trkpt>
      <trkpt lat="47.33923" lon="-1.2538">
        <ele>70</ele>
        <time>2020-12-20T09:29:36.637000+00:00</time>
      </trkpt>
      <trkpt lat="0" lon="0">
        <time>2020-12-20T09:29:36.652000+00:00</time>
      </trkpt>
      <trkpt lat="0" lon="0">
        <time>2020-12-20T09:29:36.656000+00:00</time>
      </trkpt>
      <trkpt lat="0" lon="0">
        <time>2020-12-20T09:29:36.658000+00:00</time>
      </trkpt>
      <trkpt lat="47.33925" lon="-1.25379">
        <ele>70</ele>
        <time>2020-12-20T09:29:37.637000+00:00</time>
      </trkpt>
      <trkpt lat="0" lon="0">
        <time>2020-12-20T09:29:37.645000+00:00</time>
      </trkpt>
      <trkpt lat="0" lon="0">
        <time>2020-12-20T09:29:37.653000+00:00</time>
      </trkpt>
      <trkpt lat="0" lon="0">
        <time>2020-12-20T09:29:37.661000+00:00</time>
      </trkpt>
      <trkpt lat="47.33926" lon="-1.25379">
        <ele>70</ele>
        <time>2020-12-20T09:29:38.634000+00:00</time>
      </trkpt>
      <trkpt lat="0" lon="0">
        <time>2020-12-20T09:29:38.648000+00:00</time>
      </trkpt>
      <trkpt lat="0" lon="0">
        <time>2020-12-20T09:29:38.656000+00:00</time>
      </trkpt>
      <trkpt lat="0" lon="0">
        <time>2020-12-20T09:29:38.658000+00:00</time>
      </trkpt>
      <trkpt lat="47.33927" lon="-1.25378">
        <ele>70</ele>
        <time>2020-12-20T09:29:39.658000+00:00</time>
      </trkpt>
      <trkpt lat="0" lon="0">
        <time>2020-12-20T09:29:39.670000+00:00</time>
      </trkpt>
      <trkpt lat="0" lon="0">
        <time>2020-12-20T09:29:39.682000+00:00</time>
      </trkpt>
      <trkpt lat="0" lon="0">
        <time>2020-12-20T09:29:39.686000+00:00</time>
      </trkpt>
      <trkpt lat="47.33929" lon="-1.25377">
        <ele>70</ele>
        <time>2020-12-20T09:29:40.622000+00:00</time>
      </trkpt>
      <trkpt lat="0" lon="0">
        <time>2020-12-20T09:29:40.638000+00:00</time>
      </trkpt>
      <trkpt lat="0" lon="0">
        <time>2020-12-20T09:29:40.645000+00:00</time>
      </trkpt>
      <trkpt lat="0" lon="0">
        <time>2020-12-20T09:29:40.650000+00:00</time>
      </trkpt>
      <trkpt lat="47.33931" lon="-1.25376">
        <ele>70</ele>
        <time>2020-12-20T09:29:41.618000+00:00</time>
      </trkpt>
      <trkpt lat="0" lon="0">
        <time>2020-12-20T09:29:41.620000+00:00</time>
      </trkpt>
      <trkpt lat="0" lon="0">
        <time>2020-12-20T09:29:41.622000+00:00</time>
      </trkpt>
      <trkpt lat="0" lon="0">
        <time>2020-12-20T09:29:41.623000+00:00</time>
      </trkpt>
      <trkpt lat="47.33933" lon="-1.25374">
        <ele>70</ele>
        <time>2020-12-20T09:29:42.644000+00:00</time>
      </trkpt>
      <trkpt lat="0" lon="0">
        <time>2020-12-20T09:29:42.649000+00:00</time>
      </trkpt>
      <trkpt lat="0" lon="0">
        <time>2020-12-20T09:29:42.655000+00:00</time>
      </trkpt>
      <trkpt lat="0" lon="0">
        <time>2020-12-20T09:29:42.657000+00:00</time>
      </trkpt>
      <trkpt lat="47.33935" lon="-1.25373">
        <ele>70</ele>
        <time>2020-12-20T09:29:43.695000+00:00</time>
      </trkpt>
      <trkpt lat="0" lon="0">
        <time>2020-12-20T09:29:43.706000+00:00</time>
      </trkpt>
      <trkpt lat="0" lon="0">
        <time>2020-12-20T09:29:43.710000+00:00</time>
      </trkpt>
      <trkpt lat="0" lon="0">
        <time>2020-12-20T09:29:43.714000+00:00</time>
      </trkpt>
      <trkpt lat="47.33938" lon="-1.25372">
        <ele>70</ele>
        <time>2020-12-20T09:29:44.673000+00:00</time>
      </trkpt>
      <trkpt lat="0" lon="0">
        <time>2020-12-20T09:29:44.689000+00:00</time>
      </trkpt>
      <trkpt lat="0" lon="0">
        <time>2020-12-20T09:29:44.694000+00:00</time>
      </trkpt>
      <trkpt lat="0" lon="0">
        <time>2020-12-20T09:29:44.697000+00:00</time>
      </trkpt>
      <trkpt lat="47.3394" lon="-1.2537">
        <ele>70</ele>
        <time>2020-12-20T09:29:45.644000+00:00</time>
      </trkpt>
      <trkpt lat="0" lon="0">
        <time>2020-12-20T09:29:45.663000+00:00</time>
      </trkpt>
      <trkpt lat="0" lon="0">
        <time>2020-12-20T09:29:45.667000+00:00</time>
      </trkpt>
      <trkpt lat="0" lon="0">
        <time>2020-12-20T09:29:45.675000+00:00</time>
      </trkpt>
      <trkpt lat="47.33943" lon="-1.25369">
        <ele>70</ele>
        <time>2020-12-20T09:29:46.633000+00:00</time>
      </trkpt>
      <trkpt lat="0" lon="0">
        <time>2020-12-20T09:29:46.640000+00:00</time>
      </trkpt>
      <trkpt lat="0" lon="0">
        <time>2020-12-20T09:29:46.641000+00:00</time>
      </trkpt>
      <trkpt lat="47.33946" lon="-1.25368">
        <ele>71</ele>
        <time>2020-12-20T09:29:47.624000+00:00</time>
      </trkpt>
      <trkpt lat="0" lon="0">
        <time>2020-12-20T09:29:47.632000+00:00</time>
      </trkpt>
      <trkpt lat="0" lon="0">
        <time>2020-12-20T09:29:47.637000+00:00</time>
      </trkpt>
      <trkpt lat="0" lon="0">
        <time>2020-12-20T09:29:47.640000+00:00</time>
      </trkpt>
      <trkpt lat="47.3395" lon="-1.25366">
        <ele>71</ele>
        <time>2020-12-20T09:29:48.684000+00:00</time>
      </trkpt>
      <trkpt lat="0" lon="0">
        <time>2020-12-20T09:29:48.692000+00:00</time>
      </trkpt>
      <trkpt lat="0" lon="0">
        <time>2020-12-20T09:29:48.696000+00:00</time>
      </trkpt>
      <trkpt lat="0" lon="0">
        <time>2020-12-20T09:29:48.700000+00:00</time>
      </trkpt>
      <trkpt lat="47.33953" lon="-1.25365">
        <ele>71</ele>
        <time>2020-12-20T09:29:49.646000+00:00</time>
      </trkpt>
      <trkpt lat="0" lon="0">
        <time>2020-12-20T09:29:49.670000+00:00</time>
      </trkpt>
      <trkpt lat="0" lon="0">
        <time>2020-12-20T09:29:49.677000+00:00</time>
      </trkpt>
      <trkpt lat="0" lon="0">
        <time>2020-12-20T09:29:49.680000+00:00</time>
      </trkpt>
      <trkpt lat="47.33957" lon="-1.25364">
        <ele>71</ele>
        <time>2020-12-20T09:29:50.674000+00:00</time>
      </trkpt>
      <trkpt lat="0" lon="0">
        <time>2020-12-20T09:29:50.682000+00:00</time>
      </trkpt>
      <trkpt lat="0" lon="0">
        <time>2020-12-20T09:29:50.694000+00:00</time>
      </trkpt>
      <trkpt lat="0" lon="0">
        <time>2020-12-20T09:29:50.697000+00:00</time>
      </trkpt>
      <trkpt lat="47.3396" lon="-1.25363">
        <ele>71</ele>
        <time>2020-12-20T09:29:51.658000+00:00</time>
      </trkpt>
      <trkpt lat="0" lon="0">
        <time>2020-12-20T09:29:51.672000+00:00</time>
      </trkpt>
      <trkpt lat="0" lon="0">
        <time>2020-12-20T09:29:51.681000+00:00</time>
      </trkpt>
      <trkpt lat="0" lon="0">
        <time>2020-12-20T09:29:51.684000+00:00</time>
      </trkpt>
      <trkpt lat="47.33964" lon="-1.25364">
        <ele>71</ele>
        <time>2020-12-20T09:29:52.649000+00:00</time>
      </trkpt>
      <trkpt lat="0" lon="0">
        <time>2020-12-20T09:29:52.650000+00:00</time>
      </trkpt>
      <trkpt lat="0" lon="0">
        <time>2020-12-20T09:29:52.652000+00:00</time>
      </trkpt>
      <trkpt lat="0" lon="0">
        <time>2020-12-20T09:29:52.653000+00:00</time>
      </trkpt>
      <trkpt lat="47.33967" lon="-1.25365">
        <ele>71</ele>
        <time>2020-12-20T09:29:53.632000+00:00</time>
      </trkpt>
      <trkpt lat="0" lon="0">
        <time>2020-12-20T09:29:53.649000+00:00</time>
      </trkpt>
      <trkpt lat="0" lon="0">
        <time>2020-12-20T09:29:53.659000+00:00</time>
      </trkpt>
      <trkpt lat="0" lon="0">
        <time>2020-12-20T09:29:53.665000+00:00</time>
      </trkpt>
      <trkpt lat="47.3397" lon="-1.25367">
        <ele>71</ele>
        <time>2020-12-20T09:29:54.664000+00:00</time>
      </trkpt>
      <trkpt lat="0" lon="0">
        <time>2020-12-20T09:29:54.686000+00:00</time>
      </trkpt>
      <trkpt lat="0" lon="0">
        <time>2020-12-20T09:29:54.694000+00:00</time>
      </trkpt>
      <trkpt lat="0" lon="0">
        <time>2020-12-20T09:29:54.703000+00:00</time>
      </trkpt>
      <trkpt lat="47.33973" lon="-1.2537">
        <ele>71</ele>
        <time>2020-12-20T09:29:55.641000+00:00</time>
      </trkpt>
      <trkpt lat="0" lon="0">
        <time>2020-12-20T09:29:55.653000+00:00</time>
      </trkpt>
      <trkpt lat="0" lon="0">
        <time>2020-12-20T09:29:55.657000+00:00</time>
      </trkpt>
      <trkpt lat="0" lon="0">
        <time>2020-12-20T09:29:55.660000+00:00</time>
      </trkpt>
      <trkpt lat="47.33976" lon="-1.25374">
        <ele>70</ele>
        <time>2020-12-20T09:29:56.670000+00:00</time>
      </trkpt>
      <trkpt lat="0" lon="0">
        <time>2020-12-20T09:29:56.679000+00:00</time>
      </trkpt>
      <trkpt lat="0" lon="0">
        <time>2020-12-20T09:29:56.687000+00:00</time>
      </trkpt>
      <trkpt lat="0" lon="0">
        <time>2020-12-20T09:29:56.690000+00:00</time>
      </trkpt>
      <trkpt lat="47.33978" lon="-1.25378">
        <ele>70</ele>
        <time>2020-12-20T09:29:57.669000+00:00</time>
      </trkpt>
      <trkpt lat="0" lon="0">
        <time>2020-12-20T09:29:57.694000+00:00</time>
      </trkpt>
      <trkpt lat="0" lon="0">
        <time>2020-12-20T09:29:57.701000+00:00</time>
      </trkpt>
      <trkpt lat="0" lon="0">
        <time>2020-12-20T09:29:57.702000+00:00</time>
      </trkpt>
      <trkpt lat="47.3398" lon="-1.25382">
        <ele>70</ele>
        <time>2020-12-20T09:29:58.668000+00:00</time>
      </trkpt>
      <trkpt lat="0" lon="0">
        <time>2020-12-20T09:29:58.681000+00:00</time>
      </trkpt>
      <trkpt lat="0" lon="0">
        <time>2020-12-20T09:29:58.689000+00:00</time>
      </trkpt>
      <trkpt lat="0" lon="0">
        <time>2020-12-20T09:29:58.692000+00:00</time>
      </trkpt>
      <trkpt lat="47.33982" lon="-1.25386">
        <ele>70</ele>
        <time>2020-12-20T09:29:59.682000+00:00</time>
      </trkpt>
      <trkpt lat="0" lon="0">
        <time>2020-12-20T09:29:59.690000+00:00</time>
      </trkpt>
      <trkpt lat="0" lon="0">
        <time>2020-12-20T09:29:59.696000+00:00</time>
      </trkpt>
      <trkpt lat="0" lon="0">
        <time>2020-12-20T09:29:59.698000+00:00</time>
      </trkpt>
      <trkpt lat="47.33984" lon="-1.2539">
        <ele>70</ele>
        <time>2020-12-20T09:30:00.679000+00:00</time>
      </trkpt>
      <trkpt lat="0" lon="0">
        <time>2020-12-20T09:30:00.693000+00:00</time>
      </trkpt>
      <trkpt lat="0" lon="0">
        <time>2020-12-20T09:30:00.700000+00:00</time>
      </trkpt>
      <trkpt lat="0" lon="0">
        <time>2020-12-20T09:30:00.707000+00:00</time>
      </trkpt>
      <trkpt lat="47.33986" lon="-1.25395">
        <ele>70</ele>
        <time>2020-12-20T09:30:01.689000+00:00</time>
      </trkpt>
      <trkpt lat="0" lon="0">
        <time>2020-12-20T09:30:01.703000+00:00</time>
      </trkpt>
      <trkpt lat="0" lon="0">
        <time>2020-12-20T09:30:01.710000+00:00</time>
      </trkpt>
      <trkpt lat="0" lon="0">
        <time>2020-12-20T09:30:01.713000+00:00</time>
      </trkpt>
      <trkpt lat="47.33987" lon="-1.25401">
        <ele>70</ele>
        <time>2020-12-20T09:30:02.652000+00:00</time>
      </trkpt>
      <trkpt lat="0" lon="0">
        <time>2020-12-20T09:30:02.678000+00:00</time>
      </trkpt>
      <trkpt lat="0" lon="0">
        <time>2020-12-20T09:30:02.685000+00:00</time>
      </trkpt>
      <trkpt lat="0" lon="0">
        <time>2020-12-20T09:30:02.690000+00:00</time>
      </trkpt>
      <trkpt lat="47.33988" lon="-1.25407">
        <ele>70</ele>
        <time>2020-12-20T09:30:03.660000+00:00</time>
      </trkpt>
      <trkpt lat="0" lon="0">
        <time>2020-12-20T09:30:03.669000+00:00</time>
      </trkpt>
      <trkpt lat="0" lon="0">
        <time>2020-12-20T09:30:03.673000+00:00</time>
      </trkpt>
      <trkpt lat="0" lon="0">
        <time>2020-12-20T09:30:03.674000+00:00</time>
      </trkpt>
      <trkpt lat="47.33988" lon="-1.25413">
        <ele>69</ele>
        <time>2020-12-20T09:30:04.672000+00:00</time>
      </trkpt>
      <trkpt lat="0" lon="0">
        <time>2020-12-20T09:30:04.678000+00:00</time>
      </trkpt>
      <trkpt lat="0" lon="0">
        <time>2020-12-20T09:30:04.682000+00:00</time>
      </trkpt>
      <trkpt lat="0" lon="0">
        <time>2020-12-20T09:30:04.685000+00:00</time>
      </trkpt>
      <trkpt lat="47.33987" lon="-1.25419">
        <ele>68</ele>
        <time>2020-12-20T09:30:05.661000+00:00</time>
      </trkpt>
      <trkpt lat="0" lon="0">
        <time>2020-12-20T09:30:05.669000+00:00</time>
      </trkpt>
      <trkpt lat="0" lon="0">
        <time>2020-12-20T09:30:05.675000+00:00</time>
      </trkpt>
      <trkpt lat="0" lon="0">
        <time>2020-12-20T09:30:05.678000+00:00</time>
      </trkpt>
      <trkpt lat="47.33986" lon="-1.25425">
        <ele>67</ele>
        <time>2020-12-20T09:30:06.640000+00:00</time>
      </trkpt>
      <trkpt lat="0" lon="0">
        <time>2020-12-20T09:30:06.655000+00:00</time>
      </trkpt>
      <trkpt lat="0" lon="0">
        <time>2020-12-20T09:30:06.660000+00:00</time>
      </trkpt>
      <trkpt lat="0" lon="0">
        <time>2020-12-20T09:30:06.664000+00:00</time>
      </trkpt>
      <trkpt lat="47.33984" lon="-1.25431">
        <ele>66</ele>
        <time>2020-12-20T09:30:07.667000+00:00</time>
      </trkpt>
      <trkpt lat="0" lon="0">
        <time>2020-12-20T09:30:07.680000+00:00</time>
      </trkpt>
      <trkpt lat="0" lon="0">
        <time>2020-12-20T09:30:07.685000+00:00</time>
      </trkpt>
      <trkpt lat="0" lon="0">
        <time>2020-12-20T09:30:07.689000+00:00</time>
      </trkpt>
      <trkpt lat="47.33982" lon="-1.25437">
        <ele>66</ele>
        <time>2020-12-20T09:30:08.649000+00:00</time>
      </trkpt>
      <trkpt lat="0" lon="0">
        <time>2020-12-20T09:30:08.670000+00:00</time>
      </trkpt>
      <trkpt lat="0" lon="0">
        <time>2020-12-20T09:30:08.678000+00:00</time>
      </trkpt>
      <trkpt lat="0" lon="0">
        <time>2020-12-20T09:30:08.680000+00:00</time>
      </trkpt>
      <trkpt lat="47.3398" lon="-1.25442">
        <ele>66</ele>
        <time>2020-12-20T09:30:09.673000+00:00</time>
      </trkpt>
      <trkpt lat="0" lon="0">
        <time>2020-12-20T09:30:09.681000+00:00</time>
      </trkpt>
      <trkpt lat="0" lon="0">
        <time>2020-12-20T09:30:09.683000+00:00</time>
      </trkpt>
      <trkpt lat="0" lon="0">
        <time>2020-12-20T09:30:09.684000+00:00</time>
      </trkpt>
      <trkpt lat="47.33978" lon="-1.25448">
        <ele>66</ele>
        <time>2020-12-20T09:30:10.674000+00:00</time>
      </trkpt>
      <trkpt lat="0" lon="0">
        <time>2020-12-20T09:30:10.692000+00:00</time>
      </trkpt>
      <trkpt lat="0" lon="0">
        <time>2020-12-20T09:30:10.696000+00:00</time>
      </trkpt>
      <trkpt lat="0" lon="0">
        <time>2020-12-20T09:30:10.698000+00:00</time>
      </trkpt>
      <trkpt lat="47.33976" lon="-1.25455">
        <ele>64</ele>
        <time>2020-12-20T09:30:11.685000+00:00</time>
      </trkpt>
      <trkpt lat="0" lon="0">
        <time>2020-12-20T09:30:11.692000+00:00</time>
      </trkpt>
      <trkpt lat="0" lon="0">
        <time>2020-12-20T09:30:11.697000+00:00</time>
      </trkpt>
      <trkpt lat="0" lon="0">
        <time>2020-12-20T09:30:11.699000+00:00</time>
      </trkpt>
      <trkpt lat="47.33975" lon="-1.25461">
        <ele>63</ele>
        <time>2020-12-20T09:30:12.648000+00:00</time>
      </trkpt>
      <trkpt lat="0" lon="0">
        <time>2020-12-20T09:30:12.655000+00:00</time>
      </trkpt>
      <trkpt lat="0" lon="0">
        <time>2020-12-20T09:30:12.659000+00:00</time>
      </trkpt>
      <trkpt lat="0" lon="0">
        <time>2020-12-20T09:30:12.662000+00:00</time>
      </trkpt>
      <trkpt lat="47.33975" lon="-1.25468">
        <ele>63</ele>
        <time>2020-12-20T09:30:13.658000+00:00</time>
      </trkpt>
      <trkpt lat="0" lon="0">
        <time>2020-12-20T09:30:13.675000+00:00</time>
      </trkpt>
      <trkpt lat="0" lon="0">
        <time>2020-12-20T09:30:13.680000+00:00</time>
      </trkpt>
      <trkpt lat="0" lon="0">
        <time>2020-12-20T09:30:13.683000+00:00</time>
      </trkpt>
      <trkpt lat="47.33977" lon="-1.25474">
        <ele>62</ele>
        <time>2020-12-20T09:30:14.652000+00:00</time>
      </trkpt>
      <trkpt lat="0" lon="0">
        <time>2020-12-20T09:30:14.666000+00:00</time>
      </trkpt>
      <trkpt lat="0" lon="0">
        <time>2020-12-20T09:30:14.673000+00:00</time>
      </trkpt>
      <trkpt lat="0" lon="0">
        <time>2020-12-20T09:30:14.676000+00:00</time>
      </trkpt>
      <trkpt lat="47.33979" lon="-1.25479">
        <ele>61</ele>
        <time>2020-12-20T09:30:15.641000+00:00</time>
      </trkpt>
      <trkpt lat="0" lon="0">
        <time>2020-12-20T09:30:15.649000+00:00</time>
      </trkpt>
      <trkpt lat="0" lon="0">
        <time>2020-12-20T09:30:15.660000+00:00</time>
      </trkpt>
      <trkpt lat="0" lon="0">
        <time>2020-12-20T09:30:15.667000+00:00</time>
      </trkpt>
      <trkpt lat="47.33982" lon="-1.25483">
        <ele>60</ele>
        <time>2020-12-20T09:30:16.645000+00:00</time>
      </trkpt>
      <trkpt lat="0" lon="0">
        <time>2020-12-20T09:30:16.656000+00:00</time>
      </trkpt>
      <trkpt lat="0" lon="0">
        <time>2020-12-20T09:30:16.668000+00:00</time>
      </trkpt>
      <trkpt lat="0" lon="0">
        <time>2020-12-20T09:30:16.673000+00:00</time>
      </trkpt>
      <trkpt lat="47.33985" lon="-1.25487">
        <ele>60</ele>
        <time>2020-12-20T09:30:17.666000+00:00</time>
      </trkpt>
      <trkpt lat="0" lon="0">
        <time>2020-12-20T09:30:17.676000+00:00</time>
      </trkpt>
      <trkpt lat="0" lon="0">
        <time>2020-12-20T09:30:17.680000+00:00</time>
      </trkpt>
      <trkpt lat="0" lon="0">
        <time>2020-12-20T09:30:17.688000+00:00</time>
      </trkpt>
      <trkpt lat="47.33989" lon="-1.2549">
        <ele>59</ele>
        <time>2020-12-20T09:30:18.672000+00:00</time>
      </trkpt>
      <trkpt lat="0" lon="0">
        <time>2020-12-20T09:30:18.677000+00:00</time>
      </trkpt>
      <trkpt lat="0" lon="0">
        <time>2020-12-20T09:30:18.684000+00:00</time>
      </trkpt>
      <trkpt lat="0" lon="0">
        <time>2020-12-20T09:30:18.686000+00:00</time>
      </trkpt>
      <trkpt lat="47.33992" lon="-1.25493">
        <ele>58</ele>
        <time>2020-12-20T09:30:19.680000+00:00</time>
      </trkpt>
      <trkpt lat="0" lon="0">
        <time>2020-12-20T09:30:19.689000+00:00</time>
      </trkpt>
      <trkpt lat="0" lon="0">
        <time>2020-12-20T09:30:19.694000+00:00</time>
      </trkpt>
      <trkpt lat="0" lon="0">
        <time>2020-12-20T09:30:19.696000+00:00</time>
      </trkpt>
      <trkpt lat="47.33996" lon="-1.25496">
        <ele>58</ele>
        <time>2020-12-20T09:30:20.612000+00:00</time>
      </trkpt>
      <trkpt lat="0" lon="0">
        <time>2020-12-20T09:30:20.623000+00:00</time>
      </trkpt>
      <trkpt lat="0" lon="0">
        <time>2020-12-20T09:30:20.627000+00:00</time>
      </trkpt>
      <trkpt lat="0" lon="0">
        <time>2020-12-20T09:30:20.630000+00:00</time>
      </trkpt>
      <trkpt lat="47.33999" lon="-1.255">
        <ele>58</ele>
        <time>2020-12-20T09:30:21.658000+00:00</time>
      </trkpt>
      <trkpt lat="0" lon="0">
        <time>2020-12-20T09:30:21.673000+00:00</time>
      </trkpt>
      <trkpt lat="0" lon="0">
        <time>2020-12-20T09:30:21.678000+00:00</time>
      </trkpt>
      <trkpt lat="0" lon="0">
        <time>2020-12-20T09:30:21.685000+00:00</time>
      </trkpt>
      <trkpt lat="47.34001" lon="-1.25504">
        <ele>58</ele>
        <time>2020-12-20T09:30:22.603000+00:00</time>
      </trkpt>
      <trkpt lat="0" lon="0">
        <time>2020-12-20T09:30:22.615000+00:00</time>
      </trkpt>
      <trkpt lat="0" lon="0">
        <time>2020-12-20T09:30:22.621000+00:00</time>
      </trkpt>
      <trkpt lat="0" lon="0">
        <time>2020-12-20T09:30:22.623000+00:00</time>
      </trkpt>
      <trkpt lat="47.34003" lon="-1.25508">
        <ele>59</ele>
        <time>2020-12-20T09:30:23.649000+00:00</time>
      </trkpt>
      <trkpt lat="0" lon="0">
        <time>2020-12-20T09:30:23.662000+00:00</time>
      </trkpt>
      <trkpt lat="0" lon="0">
        <time>2020-12-20T09:30:23.675000+00:00</time>
      </trkpt>
      <trkpt lat="0" lon="0">
        <time>2020-12-20T09:30:23.677000+00:00</time>
      </trkpt>
      <trkpt lat="47.34004" lon="-1.25513">
        <ele>59</ele>
        <time>2020-12-20T09:30:24.665000+00:00</time>
      </trkpt>
      <trkpt lat="0" lon="0">
        <time>2020-12-20T09:30:24.674000+00:00</time>
      </trkpt>
      <trkpt lat="0" lon="0">
        <time>2020-12-20T09:30:24.678000+00:00</time>
      </trkpt>
      <trkpt lat="0" lon="0">
        <time>2020-12-20T09:30:24.681000+00:00</time>
      </trkpt>
      <trkpt lat="47.34005" lon="-1.25517">
        <ele>59</ele>
        <time>2020-12-20T09:30:25.658000+00:00</time>
      </trkpt>
      <trkpt lat="0" lon="0">
        <time>2020-12-20T09:30:25.677000+00:00</time>
      </trkpt>
      <trkpt lat="0" lon="0">
        <time>2020-12-20T09:30:25.683000+00:00</time>
      </trkpt>
      <trkpt lat="0" lon="0">
        <time>2020-12-20T09:30:25.689000+00:00</time>
      </trkpt>
      <trkpt lat="47.34006" lon="-1.25522">
        <ele>59</ele>
        <time>2020-12-20T09:30:26.685000+00:00</time>
      </trkpt>
      <trkpt lat="0" lon="0">
        <time>2020-12-20T09:30:26.690000+00:00</time>
      </trkpt>
      <trkpt lat="0" lon="0">
        <time>2020-12-20T09:30:26.692000+00:00</time>
      </trkpt>
      <trkpt lat="0" lon="0">
        <time>2020-12-20T09:30:26.693000+00:00</time>
      </trkpt>
      <trkpt lat="47.34006" lon="-1.25527">
        <ele>59</ele>
        <time>2020-12-20T09:30:27.650000+00:00</time>
      </trkpt>
      <trkpt lat="0" lon="0">
        <time>2020-12-20T09:30:27.659000+00:00</time>
      </trkpt>
      <trkpt lat="0" lon="0">
        <time>2020-12-20T09:30:27.664000+00:00</time>
      </trkpt>
      <trkpt lat="0" lon="0">
        <time>2020-12-20T09:30:27.668000+00:00</time>
      </trkpt>
      <trkpt lat="47.34006" lon="-1.25532">
        <ele>59</ele>
        <time>2020-12-20T09:30:28.642000+00:00</time>
      </trkpt>
      <trkpt lat="0" lon="0">
        <time>2020-12-20T09:30:28.649000+00:00</time>
      </trkpt>
      <trkpt lat="0" lon="0">
        <time>2020-12-20T09:30:28.658000+00:00</time>
      </trkpt>
      <trkpt lat="0" lon="0">
        <time>2020-12-20T09:30:28.660000+00:00</time>
      </trkpt>
      <trkpt lat="47.34006" lon="-1.25537">
        <ele>59</ele>
        <time>2020-12-20T09:30:29.667000+00:00</time>
      </trkpt>
      <trkpt lat="0" lon="0">
        <time>2020-12-20T09:30:29.672000+00:00</time>
      </trkpt>
      <trkpt lat="0" lon="0">
        <time>2020-12-20T09:30:29.683000+00:00</time>
      </trkpt>
      <trkpt lat="0" lon="0">
        <time>2020-12-20T09:30:29.685000+00:00</time>
      </trkpt>
      <trkpt lat="47.34006" lon="-1.25542">
        <ele>58</ele>
        <time>2020-12-20T09:30:30.667000+00:00</time>
      </trkpt>
      <trkpt lat="0" lon="0">
        <time>2020-12-20T09:30:30.675000+00:00</time>
      </trkpt>
      <trkpt lat="0" lon="0">
        <time>2020-12-20T09:30:30.680000+00:00</time>
      </trkpt>
      <trkpt lat="0" lon="0">
        <time>2020-12-20T09:30:30.682000+00:00</time>
      </trkpt>
      <trkpt lat="47.34005" lon="-1.25547">
        <ele>58</ele>
        <time>2020-12-20T09:30:31.654000+00:00</time>
      </trkpt>
      <trkpt lat="0" lon="0">
        <time>2020-12-20T09:30:31.663000+00:00</time>
      </trkpt>
      <trkpt lat="0" lon="0">
        <time>2020-12-20T09:30:31.667000+00:00</time>
      </trkpt>
      <trkpt lat="0" lon="0">
        <time>2020-12-20T09:30:31.669000+00:00</time>
      </trkpt>
      <trkpt lat="47.34005" lon="-1.25553">
        <ele>58</ele>
        <time>2020-12-20T09:30:32.643000+00:00</time>
      </trkpt>
      <trkpt lat="0" lon="0">
        <time>2020-12-20T09:30:32.658000+00:00</time>
      </trkpt>
      <trkpt lat="0" lon="0">
        <time>2020-12-20T09:30:32.664000+00:00</time>
      </trkpt>
      <trkpt lat="0" lon="0">
        <time>2020-12-20T09:30:32.671000+00:00</time>
      </trkpt>
      <trkpt lat="47.34004" lon="-1.25559">
        <ele>59</ele>
        <time>2020-12-20T09:30:33.664000+00:00</time>
      </trkpt>
      <trkpt lat="0" lon="0">
        <time>2020-12-20T09:30:33.672000+00:00</time>
      </trkpt>
      <trkpt lat="0" lon="0">
        <time>2020-12-20T09:30:33.680000+00:00</time>
      </trkpt>
      <trkpt lat="0" lon="0">
        <time>2020-12-20T09:30:33.682000+00:00</time>
      </trkpt>
      <trkpt lat="47.34004" lon="-1.25565">
        <ele>58</ele>
        <time>2020-12-20T09:30:34.661000+00:00</time>
      </trkpt>
      <trkpt lat="0" lon="0">
        <time>2020-12-20T09:30:34.677000+00:00</time>
      </trkpt>
      <trkpt lat="0" lon="0">
        <time>2020-12-20T09:30:34.685000+00:00</time>
      </trkpt>
      <trkpt lat="0" lon="0">
        <time>2020-12-20T09:30:34.687000+00:00</time>
      </trkpt>
      <trkpt lat="47.34004" lon="-1.25571">
        <ele>58</ele>
        <time>2020-12-20T09:30:35.635000+00:00</time>
      </trkpt>
      <trkpt lat="0" lon="0">
        <time>2020-12-20T09:30:35.644000+00:00</time>
      </trkpt>
      <trkpt lat="0" lon="0">
        <time>2020-12-20T09:30:35.646000+00:00</time>
      </trkpt>
      <trkpt lat="0" lon="0">
        <time>2020-12-20T09:30:35.647000+00:00</time>
      </trkpt>
      <trkpt lat="47.34003" lon="-1.25577">
        <ele>58</ele>
        <time>2020-12-20T09:30:36.640000+00:00</time>
      </trkpt>
      <trkpt lat="0" lon="0">
        <time>2020-12-20T09:30:36.652000+00:00</time>
      </trkpt>
      <trkpt lat="0" lon="0">
        <time>2020-12-20T09:30:36.660000+00:00</time>
      </trkpt>
      <trkpt lat="0" lon="0">
        <time>2020-12-20T09:30:36.662000+00:00</time>
      </trkpt>
      <trkpt lat="47.34003" lon="-1.25583">
        <ele>57</ele>
        <time>2020-12-20T09:30:37.604000+00:00</time>
      </trkpt>
      <trkpt lat="0" lon="0">
        <time>2020-12-20T09:30:37.614000+00:00</time>
      </trkpt>
      <trkpt lat="0" lon="0">
        <time>2020-12-20T09:30:37.626000+00:00</time>
      </trkpt>
      <trkpt lat="0" lon="0">
        <time>2020-12-20T09:30:37.627000+00:00</time>
      </trkpt>
      <trkpt lat="47.34002" lon="-1.25589">
        <ele>57</ele>
        <time>2020-12-20T09:30:38.638000+00:00</time>
      </trkpt>
      <trkpt lat="0" lon="0">
        <time>2020-12-20T09:30:38.646000+00:00</time>
      </trkpt>
      <trkpt lat="0" lon="0">
        <time>2020-12-20T09:30:38.655000+00:00</time>
      </trkpt>
      <trkpt lat="0" lon="0">
        <time>2020-12-20T09:30:38.660000+00:00</time>
      </trkpt>
      <trkpt lat="47.34002" lon="-1.25595">
        <ele>57</ele>
        <time>2020-12-20T09:30:39.669000+00:00</time>
      </trkpt>
      <trkpt lat="0" lon="0">
        <time>2020-12-20T09:30:39.681000+00:00</time>
      </trkpt>
      <trkpt lat="0" lon="0">
        <time>2020-12-20T09:30:39.686000+00:00</time>
      </trkpt>
      <trkpt lat="0" lon="0">
        <time>2020-12-20T09:30:39.693000+00:00</time>
      </trkpt>
      <trkpt lat="47.34001" lon="-1.25601">
        <ele>57</ele>
        <time>2020-12-20T09:30:40.654000+00:00</time>
      </trkpt>
      <trkpt lat="0" lon="0">
        <time>2020-12-20T09:30:40.664000+00:00</time>
      </trkpt>
      <trkpt lat="0" lon="0">
        <time>2020-12-20T09:30:40.676000+00:00</time>
      </trkpt>
      <trkpt lat="0" lon="0">
        <time>2020-12-20T09:30:40.678000+00:00</time>
      </trkpt>
      <trkpt lat="47.34001" lon="-1.25607">
        <ele>57</ele>
        <time>2020-12-20T09:30:41.677000+00:00</time>
      </trkpt>
      <trkpt lat="0" lon="0">
        <time>2020-12-20T09:30:41.684000+00:00</time>
      </trkpt>
      <trkpt lat="0" lon="0">
        <time>2020-12-20T09:30:41.689000+00:00</time>
      </trkpt>
      <trkpt lat="0" lon="0">
        <time>2020-12-20T09:30:41.692000+00:00</time>
      </trkpt>
      <trkpt lat="47.34001" lon="-1.25614">
        <ele>56</ele>
        <time>2020-12-20T09:30:42.659000+00:00</time>
      </trkpt>
      <trkpt lat="0" lon="0">
        <time>2020-12-20T09:30:42.672000+00:00</time>
      </trkpt>
      <trkpt lat="0" lon="0">
        <time>2020-12-20T09:30:42.682000+00:00</time>
      </trkpt>
      <trkpt lat="0" lon="0">
        <time>2020-12-20T09:30:42.686000+00:00</time>
      </trkpt>
      <trkpt lat="47.34001" lon="-1.2562">
        <ele>55</ele>
        <time>2020-12-20T09:30:43.670000+00:00</time>
      </trkpt>
      <trkpt lat="0" lon="0">
        <time>2020-12-20T09:30:43.673000+00:00</time>
      </trkpt>
      <trkpt lat="0" lon="0">
        <time>2020-12-20T09:30:43.679000+00:00</time>
      </trkpt>
      <trkpt lat="0" lon="0">
        <time>2020-12-20T09:30:43.681000+00:00</time>
      </trkpt>
      <trkpt lat="47.34002" lon="-1.25626">
        <ele>55</ele>
        <time>2020-12-20T09:30:44.660000+00:00</time>
      </trkpt>
      <trkpt lat="0" lon="0">
        <time>2020-12-20T09:30:44.667000+00:00</time>
      </trkpt>
      <trkpt lat="0" lon="0">
        <time>2020-12-20T09:30:44.672000+00:00</time>
      </trkpt>
      <trkpt lat="0" lon="0">
        <time>2020-12-20T09:30:44.674000+00:00</time>
      </trkpt>
      <trkpt lat="47.34002" lon="-1.25632">
        <ele>55</ele>
        <time>2020-12-20T09:30:45.688000+00:00</time>
      </trkpt>
      <trkpt lat="0" lon="0">
        <time>2020-12-20T09:30:45.696000+00:00</time>
      </trkpt>
      <trkpt lat="0" lon="0">
        <time>2020-12-20T09:30:45.701000+00:00</time>
      </trkpt>
      <trkpt lat="0" lon="0">
        <time>2020-12-20T09:30:45.704000+00:00</time>
      </trkpt>
      <trkpt lat="47.34002" lon="-1.25638">
        <ele>55</ele>
        <time>2020-12-20T09:30:46.657000+00:00</time>
      </trkpt>
      <trkpt lat="0" lon="0">
        <time>2020-12-20T09:30:46.663000+00:00</time>
      </trkpt>
      <trkpt lat="0" lon="0">
        <time>2020-12-20T09:30:46.669000+00:00</time>
      </trkpt>
      <trkpt lat="0" lon="0">
        <time>2020-12-20T09:30:46.673000+00:00</time>
      </trkpt>
      <trkpt lat="47.34003" lon="-1.25644">
        <ele>55</ele>
        <time>2020-12-20T09:30:47.641000+00:00</time>
      </trkpt>
      <trkpt lat="0" lon="0">
        <time>2020-12-20T09:30:47.657000+00:00</time>
      </trkpt>
      <trkpt lat="0" lon="0">
        <time>2020-12-20T09:30:47.661000+00:00</time>
      </trkpt>
      <trkpt lat="0" lon="0">
        <time>2020-12-20T09:30:47.663000+00:00</time>
      </trkpt>
      <trkpt lat="47.34003" lon="-1.2565">
        <ele>55</ele>
        <time>2020-12-20T09:30:48.689000+00:00</time>
      </trkpt>
      <trkpt lat="0" lon="0">
        <time>2020-12-20T09:30:48.702000+00:00</time>
      </trkpt>
      <trkpt lat="0" lon="0">
        <time>2020-12-20T09:30:48.710000+00:00</time>
      </trkpt>
      <trkpt lat="0" lon="0">
        <time>2020-12-20T09:30:48.713000+00:00</time>
      </trkpt>
      <trkpt lat="47.34003" lon="-1.25656">
        <ele>55</ele>
        <time>2020-12-20T09:30:49.657000+00:00</time>
      </trkpt>
      <trkpt lat="0" lon="0">
        <time>2020-12-20T09:30:49.669000+00:00</time>
      </trkpt>
      <trkpt lat="0" lon="0">
        <time>2020-12-20T09:30:49.675000+00:00</time>
      </trkpt>
      <trkpt lat="0" lon="0">
        <time>2020-12-20T09:30:49.678000+00:00</time>
      </trkpt>
      <trkpt lat="47.34004" lon="-1.25662">
        <ele>55</ele>
        <time>2020-12-20T09:30:50.665000+00:00</time>
      </trkpt>
      <trkpt lat="0" lon="0">
        <time>2020-12-20T09:30:50.683000+00:00</time>
      </trkpt>
      <trkpt lat="0" lon="0">
        <time>2020-12-20T09:30:50.692000+00:00</time>
      </trkpt>
      <trkpt lat="0" lon="0">
        <time>2020-12-20T09:30:50.699000+00:00</time>
      </trkpt>
      <trkpt lat="47.34004" lon="-1.25668">
        <ele>55</ele>
        <time>2020-12-20T09:30:51.682000+00:00</time>
      </trkpt>
      <trkpt lat="0" lon="0">
        <time>2020-12-20T09:30:51.695000+00:00</time>
      </trkpt>
      <trkpt lat="0" lon="0">
        <time>2020-12-20T09:30:51.700000+00:00</time>
      </trkpt>
      <trkpt lat="0" lon="0">
        <time>2020-12-20T09:30:51.702000+00:00</time>
      </trkpt>
      <trkpt lat="47.34004" lon="-1.25674">
        <ele>55</ele>
        <time>2020-12-20T09:30:52.660000+00:00</time>
      </trkpt>
      <trkpt lat="0" lon="0">
        <time>2020-12-20T09:30:52.664000+00:00</time>
      </trkpt>
      <trkpt lat="0" lon="0">
        <time>2020-12-20T09:30:52.677000+00:00</time>
      </trkpt>
      <trkpt lat="0" lon="0">
        <time>2020-12-20T09:30:52.685000+00:00</time>
      </trkpt>
      <trkpt lat="47.34005" lon="-1.2568">
        <ele>55</ele>
        <time>2020-12-20T09:30:53.674000+00:00</time>
      </trkpt>
      <trkpt lat="0" lon="0">
        <time>2020-12-20T09:30:53.679000+00:00</time>
      </trkpt>
      <trkpt lat="0" lon="0">
        <time>2020-12-20T09:30:53.687000+00:00</time>
      </trkpt>
      <trkpt lat="0" lon="0">
        <time>2020-12-20T09:30:53.689000+00:00</time>
      </trkpt>
      <trkpt lat="47.34005" lon="-1.25685">
        <ele>55</ele>
        <time>2020-12-20T09:30:54.654000+00:00</time>
      </trkpt>
      <trkpt lat="0" lon="0">
        <time>2020-12-20T09:30:54.658000+00:00</time>
      </trkpt>
      <trkpt lat="0" lon="0">
        <time>2020-12-20T09:30:54.667000+00:00</time>
      </trkpt>
      <trkpt lat="0" lon="0">
        <time>2020-12-20T09:30:54.671000+00:00</time>
      </trkpt>
      <trkpt lat="47.34006" lon="-1.25691">
        <ele>55</ele>
        <time>2020-12-20T09:30:55.659000+00:00</time>
      </trkpt>
      <trkpt lat="0" lon="0">
        <time>2020-12-20T09:30:55.668000+00:00</time>
      </trkpt>
      <trkpt lat="0" lon="0">
        <time>2020-12-20T09:30:55.672000+00:00</time>
      </trkpt>
      <trkpt lat="0" lon="0">
        <time>2020-12-20T09:30:55.676000+00:00</time>
      </trkpt>
      <trkpt lat="47.34007" lon="-1.25696">
        <ele>56</ele>
        <time>2020-12-20T09:30:56.632000+00:00</time>
      </trkpt>
      <trkpt lat="0" lon="0">
        <time>2020-12-20T09:30:56.647000+00:00</time>
      </trkpt>
      <trkpt lat="0" lon="0">
        <time>2020-12-20T09:30:56.652000+00:00</time>
      </trkpt>
      <trkpt lat="0" lon="0">
        <time>2020-12-20T09:30:56.656000+00:00</time>
      </trkpt>
      <trkpt lat="47.34007" lon="-1.257">
        <ele>56</ele>
        <time>2020-12-20T09:30:57.658000+00:00</time>
      </trkpt>
      <trkpt lat="0" lon="0">
        <time>2020-12-20T09:30:57.666000+00:00</time>
      </trkpt>
      <trkpt lat="0" lon="0">
        <time>2020-12-20T09:30:57.671000+00:00</time>
      </trkpt>
      <trkpt lat="0" lon="0">
        <time>2020-12-20T09:30:57.674000+00:00</time>
      </trkpt>
      <trkpt lat="47.34008" lon="-1.25705">
        <ele>56</ele>
        <time>2020-12-20T09:30:58.609000+00:00</time>
      </trkpt>
      <trkpt lat="0" lon="0">
        <time>2020-12-20T09:30:58.622000+00:00</time>
      </trkpt>
      <trkpt lat="0" lon="0">
        <time>2020-12-20T09:30:58.628000+00:00</time>
      </trkpt>
      <trkpt lat="0" lon="0">
        <time>2020-12-20T09:30:58.631000+00:00</time>
      </trkpt>
      <trkpt lat="47.34009" lon="-1.25709">
        <ele>56</ele>
        <time>2020-12-20T09:30:59.669000+00:00</time>
      </trkpt>
      <trkpt lat="0" lon="0">
        <time>2020-12-20T09:30:59.676000+00:00</time>
      </trkpt>
      <trkpt lat="0" lon="0">
        <time>2020-12-20T09:30:59.682000+00:00</time>
      </trkpt>
      <trkpt lat="0" lon="0">
        <time>2020-12-20T09:30:59.687000+00:00</time>
      </trkpt>
      <trkpt lat="47.34009" lon="-1.25714">
        <ele>56</ele>
        <time>2020-12-20T09:31:00.658000+00:00</time>
      </trkpt>
      <trkpt lat="0" lon="0">
        <time>2020-12-20T09:31:00.675000+00:00</time>
      </trkpt>
      <trkpt lat="0" lon="0">
        <time>2020-12-20T09:31:00.683000+00:00</time>
      </trkpt>
      <trkpt lat="0" lon="0">
        <time>2020-12-20T09:31:00.688000+00:00</time>
      </trkpt>
      <trkpt lat="47.3401" lon="-1.25718">
        <ele>55</ele>
        <time>2020-12-20T09:31:01.678000+00:00</time>
      </trkpt>
      <trkpt lat="0" lon="0">
        <time>2020-12-20T09:31:01.693000+00:00</time>
      </trkpt>
      <trkpt lat="0" lon="0">
        <time>2020-12-20T09:31:01.700000+00:00</time>
      </trkpt>
      <trkpt lat="0" lon="0">
        <time>2020-12-20T09:31:01.702000+00:00</time>
      </trkpt>
      <trkpt lat="47.3401" lon="-1.25724">
        <ele>55</ele>
        <time>2020-12-20T09:31:02.644000+00:00</time>
      </trkpt>
      <trkpt lat="0" lon="0">
        <time>2020-12-20T09:31:02.653000+00:00</time>
      </trkpt>
      <trkpt lat="0" lon="0">
        <time>2020-12-20T09:31:02.665000+00:00</time>
      </trkpt>
      <trkpt lat="0" lon="0">
        <time>2020-12-20T09:31:02.667000+00:00</time>
      </trkpt>
      <trkpt lat="47.34011" lon="-1.2573">
        <ele>54</ele>
        <time>2020-12-20T09:31:03.654000+00:00</time>
      </trkpt>
      <trkpt lat="0" lon="0">
        <time>2020-12-20T09:31:03.668000+00:00</time>
      </trkpt>
      <trkpt lat="0" lon="0">
        <time>2020-12-20T09:31:03.673000+00:00</time>
      </trkpt>
      <trkpt lat="0" lon="0">
        <time>2020-12-20T09:31:03.676000+00:00</time>
      </trkpt>
      <trkpt lat="47.34011" lon="-1.25737">
        <ele>53</ele>
        <time>2020-12-20T09:31:04.682000+00:00</time>
      </trkpt>
      <trkpt lat="0" lon="0">
        <time>2020-12-20T09:31:04.712000+00:00</time>
      </trkpt>
      <trkpt lat="0" lon="0">
        <time>2020-12-20T09:31:04.718000+00:00</time>
      </trkpt>
      <trkpt lat="0" lon="0">
        <time>2020-12-20T09:31:04.720000+00:00</time>
      </trkpt>
      <trkpt lat="47.3401" lon="-1.25745">
        <ele>53</ele>
        <time>2020-12-20T09:31:05.603000+00:00</time>
      </trkpt>
      <trkpt lat="0" lon="0">
        <time>2020-12-20T09:31:05.605000+00:00</time>
      </trkpt>
      <trkpt lat="0" lon="0">
        <time>2020-12-20T09:31:05.608000+00:00</time>
      </trkpt>
      <trkpt lat="0" lon="0">
        <time>2020-12-20T09:31:05.611000+00:00</time>
      </trkpt>
      <trkpt lat="47.3401" lon="-1.25753">
        <ele>53</ele>
        <time>2020-12-20T09:31:06.689000+00:00</time>
      </trkpt>
      <trkpt lat="0" lon="0">
        <time>2020-12-20T09:31:06.696000+00:00</time>
      </trkpt>
      <trkpt lat="0" lon="0">
        <time>2020-12-20T09:31:06.700000+00:00</time>
      </trkpt>
      <trkpt lat="0" lon="0">
        <time>2020-12-20T09:31:06.702000+00:00</time>
      </trkpt>
      <trkpt lat="47.34009" lon="-1.2576">
        <ele>53</ele>
        <time>2020-12-20T09:31:07.619000+00:00</time>
      </trkpt>
      <trkpt lat="0" lon="0">
        <time>2020-12-20T09:31:07.623000+00:00</time>
      </trkpt>
      <trkpt lat="0" lon="0">
        <time>2020-12-20T09:31:07.628000+00:00</time>
      </trkpt>
      <trkpt lat="0" lon="0">
        <time>2020-12-20T09:31:07.630000+00:00</time>
      </trkpt>
      <trkpt lat="47.34009" lon="-1.25768">
        <ele>52</ele>
        <time>2020-12-20T09:31:08.651000+00:00</time>
      </trkpt>
      <trkpt lat="0" lon="0">
        <time>2020-12-20T09:31:08.664000+00:00</time>
      </trkpt>
      <trkpt lat="0" lon="0">
        <time>2020-12-20T09:31:08.669000+00:00</time>
      </trkpt>
      <trkpt lat="0" lon="0">
        <time>2020-12-20T09:31:08.671000+00:00</time>
      </trkpt>
      <trkpt lat="47.34008" lon="-1.25775">
        <ele>52</ele>
        <time>2020-12-20T09:31:09.647000+00:00</time>
      </trkpt>
      <trkpt lat="0" lon="0">
        <time>2020-12-20T09:31:09.658000+00:00</time>
      </trkpt>
      <trkpt lat="0" lon="0">
        <time>2020-12-20T09:31:09.663000+00:00</time>
      </trkpt>
      <trkpt lat="0" lon="0">
        <time>2020-12-20T09:31:09.665000+00:00</time>
      </trkpt>
      <trkpt lat="47.34007" lon="-1.25783">
        <ele>52</ele>
        <time>2020-12-20T09:31:10.661000+00:00</time>
      </trkpt>
      <trkpt lat="0" lon="0">
        <time>2020-12-20T09:31:10.678000+00:00</time>
      </trkpt>
      <trkpt lat="0" lon="0">
        <time>2020-12-20T09:31:10.682000+00:00</time>
      </trkpt>
      <trkpt lat="0" lon="0">
        <time>2020-12-20T09:31:10.686000+00:00</time>
      </trkpt>
      <trkpt lat="47.34006" lon="-1.2579">
        <ele>52</ele>
        <time>2020-12-20T09:31:11.628000+00:00</time>
      </trkpt>
      <trkpt lat="0" lon="0">
        <time>2020-12-20T09:31:11.643000+00:00</time>
      </trkpt>
      <trkpt lat="0" lon="0">
        <time>2020-12-20T09:31:11.647000+00:00</time>
      </trkpt>
      <trkpt lat="0" lon="0">
        <time>2020-12-20T09:31:11.651000+00:00</time>
      </trkpt>
      <trkpt lat="47.34005" lon="-1.25797">
        <ele>52</ele>
        <time>2020-12-20T09:31:12.603000+00:00</time>
      </trkpt>
      <trkpt lat="0" lon="0">
        <time>2020-12-20T09:31:12.610000+00:00</time>
      </trkpt>
      <trkpt lat="0" lon="0">
        <time>2020-12-20T09:31:12.620000+00:00</time>
      </trkpt>
      <trkpt lat="0" lon="0">
        <time>2020-12-20T09:31:12.622000+00:00</time>
      </trkpt>
      <trkpt lat="47.34005" lon="-1.25804">
        <ele>51</ele>
        <time>2020-12-20T09:31:13.672000+00:00</time>
      </trkpt>
      <trkpt lat="0" lon="0">
        <time>2020-12-20T09:31:13.678000+00:00</time>
      </trkpt>
      <trkpt lat="0" lon="0">
        <time>2020-12-20T09:31:13.696000+00:00</time>
      </trkpt>
      <trkpt lat="0" lon="0">
        <time>2020-12-20T09:31:13.699000+00:00</time>
      </trkpt>
      <trkpt lat="47.34005" lon="-1.25811">
        <ele>51</ele>
        <time>2020-12-20T09:31:14.598000+00:00</time>
      </trkpt>
      <trkpt lat="0" lon="0">
        <time>2020-12-20T09:31:14.601000+00:00</time>
      </trkpt>
      <trkpt lat="0" lon="0">
        <time>2020-12-20T09:31:14.602000+00:00</time>
      </trkpt>
      <trkpt lat="47.34005" lon="-1.25818">
        <ele>51</ele>
        <time>2020-12-20T09:31:15.651000+00:00</time>
      </trkpt>
      <trkpt lat="0" lon="0">
        <time>2020-12-20T09:31:15.656000+00:00</time>
      </trkpt>
      <trkpt lat="0" lon="0">
        <time>2020-12-20T09:31:15.662000+00:00</time>
      </trkpt>
      <trkpt lat="0" lon="0">
        <time>2020-12-20T09:31:15.665000+00:00</time>
      </trkpt>
      <trkpt lat="47.34004" lon="-1.25825">
        <ele>50</ele>
        <time>2020-12-20T09:31:16.646000+00:00</time>
      </trkpt>
      <trkpt lat="0" lon="0">
        <time>2020-12-20T09:31:16.657000+00:00</time>
      </trkpt>
      <trkpt lat="0" lon="0">
        <time>2020-12-20T09:31:16.661000+00:00</time>
      </trkpt>
      <trkpt lat="0" lon="0">
        <time>2020-12-20T09:31:16.664000+00:00</time>
      </trkpt>
      <trkpt lat="47.34004" lon="-1.25832">
        <ele>50</ele>
        <time>2020-12-20T09:31:17.631000+00:00</time>
      </trkpt>
      <trkpt lat="0" lon="0">
        <time>2020-12-20T09:31:17.638000+00:00</time>
      </trkpt>
      <trkpt lat="0" lon="0">
        <time>2020-12-20T09:31:17.640000+00:00</time>
      </trkpt>
      <trkpt lat="0" lon="0">
        <time>2020-12-20T09:31:17.641000+00:00</time>
      </trkpt>
      <trkpt lat="47.34005" lon="-1.25839">
        <ele>50</ele>
        <time>2020-12-20T09:31:18.652000+00:00</time>
      </trkpt>
      <trkpt lat="0" lon="0">
        <time>2020-12-20T09:31:18.663000+00:00</time>
      </trkpt>
      <trkpt lat="0" lon="0">
        <time>2020-12-20T09:31:18.667000+00:00</time>
      </trkpt>
      <trkpt lat="0" lon="0">
        <time>2020-12-20T09:31:18.669000+00:00</time>
      </trkpt>
      <trkpt lat="47.34005" lon="-1.25845">
        <ele>50</ele>
        <time>2020-12-20T09:31:19.679000+00:00</time>
      </trkpt>
      <trkpt lat="0" lon="0">
        <time>2020-12-20T09:31:19.694000+00:00</time>
      </trkpt>
      <trkpt lat="0" lon="0">
        <time>2020-12-20T09:31:19.699000+00:00</time>
      </trkpt>
      <trkpt lat="0" lon="0">
        <time>2020-12-20T09:31:19.702000+00:00</time>
      </trkpt>
      <trkpt lat="47.34005" lon="-1.25852">
        <ele>50</ele>
        <time>2020-12-20T09:31:20.654000+00:00</time>
      </trkpt>
      <trkpt lat="0" lon="0">
        <time>2020-12-20T09:31:20.658000+00:00</time>
      </trkpt>
      <trkpt lat="0" lon="0">
        <time>2020-12-20T09:31:20.673000+00:00</time>
      </trkpt>
      <trkpt lat="0" lon="0">
        <time>2020-12-20T09:31:20.675000+00:00</time>
      </trkpt>
      <trkpt lat="47.34005" lon="-1.25859">
        <ele>50</ele>
        <time>2020-12-20T09:31:21.676000+00:00</time>
      </trkpt>
      <trkpt lat="0" lon="0">
        <time>2020-12-20T09:31:21.694000+00:00</time>
      </trkpt>
      <trkpt lat="0" lon="0">
        <time>2020-12-20T09:31:21.697000+00:00</time>
      </trkpt>
      <trkpt lat="0" lon="0">
        <time>2020-12-20T09:31:21.699000+00:00</time>
      </trkpt>
      <trkpt lat="47.34005" lon="-1.25866">
        <ele>50</ele>
        <time>2020-12-20T09:31:22.668000+00:00</time>
      </trkpt>
      <trkpt lat="0" lon="0">
        <time>2020-12-20T09:31:22.685000+00:00</time>
      </trkpt>
      <trkpt lat="0" lon="0">
        <time>2020-12-20T09:31:22.687000+00:00</time>
      </trkpt>
      <trkpt lat="0" lon="0">
        <time>2020-12-20T09:31:22.688000+00:00</time>
      </trkpt>
      <trkpt lat="47.34005" lon="-1.25873">
        <ele>50</ele>
        <time>2020-12-20T09:31:23.683000+00:00</time>
      </trkpt>
      <trkpt lat="0" lon="0">
        <time>2020-12-20T09:31:23.685000+00:00</time>
      </trkpt>
      <trkpt lat="0" lon="0">
        <time>2020-12-20T09:31:23.687000+00:00</time>
      </trkpt>
      <trkpt lat="0" lon="0">
        <time>2020-12-20T09:31:23.688000+00:00</time>
      </trkpt>
      <trkpt lat="47.34006" lon="-1.2588">
        <ele>50</ele>
        <time>2020-12-20T09:31:24.681000+00:00</time>
      </trkpt>
      <trkpt lat="0" lon="0">
        <time>2020-12-20T09:31:24.693000+00:00</time>
      </trkpt>
      <trkpt lat="0" lon="0">
        <time>2020-12-20T09:31:24.697000+00:00</time>
      </trkpt>
      <trkpt lat="0" lon="0">
        <time>2020-12-20T09:31:24.702000+00:00</time>
      </trkpt>
      <trkpt lat="47.34006" lon="-1.25887">
        <ele>51</ele>
        <time>2020-12-20T09:31:25.656000+00:00</time>
      </trkpt>
      <trkpt lat="0" lon="0">
        <time>2020-12-20T09:31:25.668000+00:00</time>
      </trkpt>
      <trkpt lat="0" lon="0">
        <time>2020-12-20T09:31:25.672000+00:00</time>
      </trkpt>
      <trkpt lat="0" lon="0">
        <time>2020-12-20T09:31:25.675000+00:00</time>
      </trkpt>
      <trkpt lat="47.34006" lon="-1.25893">
        <ele>51</ele>
        <time>2020-12-20T09:31:26.655000+00:00</time>
      </trkpt>
      <trkpt lat="0" lon="0">
        <time>2020-12-20T09:31:26.661000+00:00</time>
      </trkpt>
      <trkpt lat="0" lon="0">
        <time>2020-12-20T09:31:26.665000+00:00</time>
      </trkpt>
      <trkpt lat="0" lon="0">
        <time>2020-12-20T09:31:26.668000+00:00</time>
      </trkpt>
      <trkpt lat="47.34005" lon="-1.259">
        <ele>52</ele>
        <time>2020-12-20T09:31:27.668000+00:00</time>
      </trkpt>
      <trkpt lat="0" lon="0">
        <time>2020-12-20T09:31:27.677000+00:00</time>
      </trkpt>
      <trkpt lat="0" lon="0">
        <time>2020-12-20T09:31:27.686000+00:00</time>
      </trkpt>
      <trkpt lat="0" lon="0">
        <time>2020-12-20T09:31:27.689000+00:00</time>
      </trkpt>
      <trkpt lat="47.34005" lon="-1.25906">
        <ele>52</ele>
        <time>2020-12-20T09:31:28.613000+00:00</time>
      </trkpt>
      <trkpt lat="0" lon="0">
        <time>2020-12-20T09:31:28.620000+00:00</time>
      </trkpt>
      <trkpt lat="0" lon="0">
        <time>2020-12-20T09:31:28.622000+00:00</time>
      </trkpt>
      <trkpt lat="0" lon="0">
        <time>2020-12-20T09:31:28.623000+00:00</time>
      </trkpt>
      <trkpt lat="47.34004" lon="-1.25913">
        <ele>52</ele>
        <time>2020-12-20T09:31:29.701000+00:00</time>
      </trkpt>
      <trkpt lat="0" lon="0">
        <time>2020-12-20T09:31:29.708000+00:00</time>
      </trkpt>
      <trkpt lat="0" lon="0">
        <time>2020-12-20T09:31:29.710000+00:00</time>
      </trkpt>
      <trkpt lat="0" lon="0">
        <time>2020-12-20T09:31:29.711000+00:00</time>
      </trkpt>
      <trkpt lat="47.34004" lon="-1.25919">
        <ele>53</ele>
        <time>2020-12-20T09:31:30.665000+00:00</time>
      </trkpt>
      <trkpt lat="0" lon="0">
        <time>2020-12-20T09:31:30.673000+00:00</time>
      </trkpt>
      <trkpt lat="0" lon="0">
        <time>2020-12-20T09:31:30.678000+00:00</time>
      </trkpt>
      <trkpt lat="0" lon="0">
        <time>2020-12-20T09:31:30.680000+00:00</time>
      </trkpt>
      <trkpt lat="47.34003" lon="-1.25925">
        <ele>53</ele>
        <time>2020-12-20T09:31:31.671000+00:00</time>
      </trkpt>
      <trkpt lat="0" lon="0">
        <time>2020-12-20T09:31:31.682000+00:00</time>
      </trkpt>
      <trkpt lat="0" lon="0">
        <time>2020-12-20T09:31:31.686000+00:00</time>
      </trkpt>
      <trkpt lat="0" lon="0">
        <time>2020-12-20T09:31:31.689000+00:00</time>
      </trkpt>
      <trkpt lat="47.34002" lon="-1.2593">
        <ele>54</ele>
        <time>2020-12-20T09:31:32.671000+00:00</time>
      </trkpt>
      <trkpt lat="0" lon="0">
        <time>2020-12-20T09:31:32.684000+00:00</time>
      </trkpt>
      <trkpt lat="0" lon="0">
        <time>2020-12-20T09:31:32.690000+00:00</time>
      </trkpt>
      <trkpt lat="0" lon="0">
        <time>2020-12-20T09:31:32.693000+00:00</time>
      </trkpt>
      <trkpt lat="47.34002" lon="-1.25936">
        <ele>54</ele>
        <time>2020-12-20T09:31:33.667000+00:00</time>
      </trkpt>
      <trkpt lat="0" lon="0">
        <time>2020-12-20T09:31:33.673000+00:00</time>
      </trkpt>
      <trkpt lat="0" lon="0">
        <time>2020-12-20T09:31:33.678000+00:00</time>
      </trkpt>
      <trkpt lat="0" lon="0">
        <time>2020-12-20T09:31:33.680000+00:00</time>
      </trkpt>
      <trkpt lat="47.34001" lon="-1.25942">
        <ele>54</ele>
        <time>2020-12-20T09:31:34.677000+00:00</time>
      </trkpt>
      <trkpt lat="0" lon="0">
        <time>2020-12-20T09:31:34.685000+00:00</time>
      </trkpt>
      <trkpt lat="0" lon="0">
        <time>2020-12-20T09:31:34.692000+00:00</time>
      </trkpt>
      <trkpt lat="0" lon="0">
        <time>2020-12-20T09:31:34.694000+00:00</time>
      </trkpt>
      <trkpt lat="47.34001" lon="-1.25947">
        <ele>54</ele>
        <time>2020-12-20T09:31:35.661000+00:00</time>
      </trkpt>
      <trkpt lat="0" lon="0">
        <time>2020-12-20T09:31:35.674000+00:00</time>
      </trkpt>
      <trkpt lat="0" lon="0">
        <time>2020-12-20T09:31:35.682000+00:00</time>
      </trkpt>
      <trkpt lat="0" lon="0">
        <time>2020-12-20T09:31:35.686000+00:00</time>
      </trkpt>
      <trkpt lat="47.34" lon="-1.25953">
        <ele>54</ele>
        <time>2020-12-20T09:31:36.656000+00:00</time>
      </trkpt>
      <trkpt lat="0" lon="0">
        <time>2020-12-20T09:31:36.669000+00:00</time>
      </trkpt>
      <trkpt lat="0" lon="0">
        <time>2020-12-20T09:31:36.673000+00:00</time>
      </trkpt>
      <trkpt lat="0" lon="0">
        <time>2020-12-20T09:31:36.678000+00:00</time>
      </trkpt>
      <trkpt lat="47.33999" lon="-1.25959">
        <ele>53</ele>
        <time>2020-12-20T09:31:37.656000+00:00</time>
      </trkpt>
      <trkpt lat="0" lon="0">
        <time>2020-12-20T09:31:37.673000+00:00</time>
      </trkpt>
      <trkpt lat="0" lon="0">
        <time>2020-12-20T09:31:37.678000+00:00</time>
      </trkpt>
      <trkpt lat="0" lon="0">
        <time>2020-12-20T09:31:37.680000+00:00</time>
      </trkpt>
      <trkpt lat="47.33998" lon="-1.25964">
        <ele>53</ele>
        <time>2020-12-20T09:31:38.637000+00:00</time>
      </trkpt>
      <trkpt lat="0" lon="0">
        <time>2020-12-20T09:31:38.645000+00:00</time>
      </trkpt>
      <trkpt lat="0" lon="0">
        <time>2020-12-20T09:31:38.650000+00:00</time>
      </trkpt>
      <trkpt lat="0" lon="0">
        <time>2020-12-20T09:31:38.653000+00:00</time>
      </trkpt>
      <trkpt lat="47.33997" lon="-1.2597">
        <ele>53</ele>
        <time>2020-12-20T09:31:39.660000+00:00</time>
      </trkpt>
      <trkpt lat="0" lon="0">
        <time>2020-12-20T09:31:39.679000+00:00</time>
      </trkpt>
      <trkpt lat="0" lon="0">
        <time>2020-12-20T09:31:39.685000+00:00</time>
      </trkpt>
      <trkpt lat="0" lon="0">
        <time>2020-12-20T09:31:39.688000+00:00</time>
      </trkpt>
      <trkpt lat="47.33996" lon="-1.25976">
        <ele>53</ele>
        <time>2020-12-20T09:31:40.675000+00:00</time>
      </trkpt>
      <trkpt lat="0" lon="0">
        <time>2020-12-20T09:31:40.693000+00:00</time>
      </trkpt>
      <trkpt lat="0" lon="0">
        <time>2020-12-20T09:31:40.696000+00:00</time>
      </trkpt>
      <trkpt lat="0" lon="0">
        <time>2020-12-20T09:31:40.699000+00:00</time>
      </trkpt>
      <trkpt lat="47.33995" lon="-1.25982">
        <ele>53</ele>
        <time>2020-12-20T09:31:41.641000+00:00</time>
      </trkpt>
      <trkpt lat="0" lon="0">
        <time>2020-12-20T09:31:41.645000+00:00</time>
      </trkpt>
      <trkpt lat="0" lon="0">
        <time>2020-12-20T09:31:41.648000+00:00</time>
      </trkpt>
      <trkpt lat="0" lon="0">
        <time>2020-12-20T09:31:41.649000+00:00</time>
      </trkpt>
      <trkpt lat="47.33994" lon="-1.25988">
        <ele>53</ele>
        <time>2020-12-20T09:31:42.668000+00:00</time>
      </trkpt>
      <trkpt lat="0" lon="0">
        <time>2020-12-20T09:31:42.684000+00:00</time>
      </trkpt>
      <trkpt lat="0" lon="0">
        <time>2020-12-20T09:31:42.694000+00:00</time>
      </trkpt>
      <trkpt lat="0" lon="0">
        <time>2020-12-20T09:31:42.696000+00:00</time>
      </trkpt>
      <trkpt lat="47.33992" lon="-1.25994">
        <ele>54</ele>
        <time>2020-12-20T09:31:43.668000+00:00</time>
      </trkpt>
      <trkpt lat="0" lon="0">
        <time>2020-12-20T09:31:43.677000+00:00</time>
      </trkpt>
      <trkpt lat="0" lon="0">
        <time>2020-12-20T09:31:43.680000+00:00</time>
      </trkpt>
      <trkpt lat="0" lon="0">
        <time>2020-12-20T09:31:43.682000+00:00</time>
      </trkpt>
      <trkpt lat="47.33991" lon="-1.26">
        <ele>54</ele>
        <time>2020-12-20T09:31:44.629000+00:00</time>
      </trkpt>
      <trkpt lat="0" lon="0">
        <time>2020-12-20T09:31:44.634000+00:00</time>
      </trkpt>
      <trkpt lat="0" lon="0">
        <time>2020-12-20T09:31:44.636000+00:00</time>
      </trkpt>
      <trkpt lat="0" lon="0">
        <time>2020-12-20T09:31:44.637000+00:00</time>
      </trkpt>
      <trkpt lat="47.3399" lon="-1.26005">
        <ele>54</ele>
        <time>2020-12-20T09:31:45.638000+00:00</time>
      </trkpt>
      <trkpt lat="0" lon="0">
        <time>2020-12-20T09:31:45.643000+00:00</time>
      </trkpt>
      <trkpt lat="0" lon="0">
        <time>2020-12-20T09:31:45.651000+00:00</time>
      </trkpt>
      <trkpt lat="0" lon="0">
        <time>2020-12-20T09:31:45.656000+00:00</time>
      </trkpt>
      <trkpt lat="47.33989" lon="-1.26011">
        <ele>54</ele>
        <time>2020-12-20T09:31:46.657000+00:00</time>
      </trkpt>
      <trkpt lat="0" lon="0">
        <time>2020-12-20T09:31:46.675000+00:00</time>
      </trkpt>
      <trkpt lat="0" lon="0">
        <time>2020-12-20T09:31:46.688000+00:00</time>
      </trkpt>
      <trkpt lat="0" lon="0">
        <time>2020-12-20T09:31:46.701000+00:00</time>
      </trkpt>
      <trkpt lat="47.33987" lon="-1.26017">
        <ele>54</ele>
        <time>2020-12-20T09:31:47.693000+00:00</time>
      </trkpt>
      <trkpt lat="0" lon="0">
        <time>2020-12-20T09:31:47.710000+00:00</time>
      </trkpt>
      <trkpt lat="0" lon="0">
        <time>2020-12-20T09:31:47.714000+00:00</time>
      </trkpt>
      <trkpt lat="0" lon="0">
        <time>2020-12-20T09:31:47.717000+00:00</time>
      </trkpt>
      <trkpt lat="47.33986" lon="-1.26023">
        <ele>54</ele>
        <time>2020-12-20T09:31:48.674000+00:00</time>
      </trkpt>
      <trkpt lat="0" lon="0">
        <time>2020-12-20T09:31:48.691000+00:00</time>
      </trkpt>
      <trkpt lat="0" lon="0">
        <time>2020-12-20T09:31:48.694000+00:00</time>
      </trkpt>
      <trkpt lat="0" lon="0">
        <time>2020-12-20T09:31:48.697000+00:00</time>
      </trkpt>
      <trkpt lat="47.33985" lon="-1.26029">
        <ele>55</ele>
        <time>2020-12-20T09:31:49.653000+00:00</time>
      </trkpt>
      <trkpt lat="0" lon="0">
        <time>2020-12-20T09:31:49.661000+00:00</time>
      </trkpt>
      <trkpt lat="0" lon="0">
        <time>2020-12-20T09:31:49.665000+00:00</time>
      </trkpt>
      <trkpt lat="0" lon="0">
        <time>2020-12-20T09:31:49.668000+00:00</time>
      </trkpt>
      <trkpt lat="47.33984" lon="-1.26035">
        <ele>55</ele>
        <time>2020-12-20T09:31:50.632000+00:00</time>
      </trkpt>
      <trkpt lat="0" lon="0">
        <time>2020-12-20T09:31:50.650000+00:00</time>
      </trkpt>
      <trkpt lat="0" lon="0">
        <time>2020-12-20T09:31:50.653000+00:00</time>
      </trkpt>
      <trkpt lat="0" lon="0">
        <time>2020-12-20T09:31:50.656000+00:00</time>
      </trkpt>
      <trkpt lat="47.33983" lon="-1.26041">
        <ele>55</ele>
        <time>2020-12-20T09:31:51.660000+00:00</time>
      </trkpt>
      <trkpt lat="0" lon="0">
        <time>2020-12-20T09:31:51.666000+00:00</time>
      </trkpt>
      <trkpt lat="0" lon="0">
        <time>2020-12-20T09:31:51.671000+00:00</time>
      </trkpt>
      <trkpt lat="0" lon="0">
        <time>2020-12-20T09:31:51.673000+00:00</time>
      </trkpt>
      <trkpt lat="47.33981" lon="-1.26047">
        <ele>55</ele>
        <time>2020-12-20T09:31:52.614000+00:00</time>
      </trkpt>
      <trkpt lat="0" lon="0">
        <time>2020-12-20T09:31:52.631000+00:00</time>
      </trkpt>
      <trkpt lat="0" lon="0">
        <time>2020-12-20T09:31:52.634000+00:00</time>
      </trkpt>
      <trkpt lat="0" lon="0">
        <time>2020-12-20T09:31:52.637000+00:00</time>
      </trkpt>
      <trkpt lat="47.3398" lon="-1.26052">
        <ele>55</ele>
        <time>2020-12-20T09:31:53.647000+00:00</time>
      </trkpt>
      <trkpt lat="0" lon="0">
        <time>2020-12-20T09:31:53.657000+00:00</time>
      </trkpt>
      <trkpt lat="0" lon="0">
        <time>2020-12-20T09:31:53.659000+00:00</time>
      </trkpt>
      <trkpt lat="0" lon="0">
        <time>2020-12-20T09:31:53.660000+00:00</time>
      </trkpt>
      <trkpt lat="47.33979" lon="-1.26057">
        <ele>55</ele>
        <time>2020-12-20T09:31:54.699000+00:00</time>
      </trkpt>
      <trkpt lat="0" lon="0">
        <time>2020-12-20T09:31:54.705000+00:00</time>
      </trkpt>
      <trkpt lat="0" lon="0">
        <time>2020-12-20T09:31:54.712000+00:00</time>
      </trkpt>
      <trkpt lat="0" lon="0">
        <time>2020-12-20T09:31:54.724000+00:00</time>
      </trkpt>
      <trkpt lat="47.33978" lon="-1.26062">
        <ele>56</ele>
        <time>2020-12-20T09:31:55.675000+00:00</time>
      </trkpt>
      <trkpt lat="0" lon="0">
        <time>2020-12-20T09:31:55.681000+00:00</time>
      </trkpt>
      <trkpt lat="0" lon="0">
        <time>2020-12-20T09:31:55.686000+00:00</time>
      </trkpt>
      <trkpt lat="0" lon="0">
        <time>2020-12-20T09:31:55.688000+00:00</time>
      </trkpt>
      <trkpt lat="47.33977" lon="-1.26068">
        <ele>56</ele>
        <time>2020-12-20T09:31:56.658000+00:00</time>
      </trkpt>
      <trkpt lat="0" lon="0">
        <time>2020-12-20T09:31:56.675000+00:00</time>
      </trkpt>
      <trkpt lat="0" lon="0">
        <time>2020-12-20T09:31:56.682000+00:00</time>
      </trkpt>
      <trkpt lat="0" lon="0">
        <time>2020-12-20T09:31:56.690000+00:00</time>
      </trkpt>
      <trkpt lat="47.33976" lon="-1.26073">
        <ele>56</ele>
        <time>2020-12-20T09:31:57.703000+00:00</time>
      </trkpt>
      <trkpt lat="0" lon="0">
        <time>2020-12-20T09:31:57.719000+00:00</time>
      </trkpt>
      <trkpt lat="0" lon="0">
        <time>2020-12-20T09:31:57.726000+00:00</time>
      </trkpt>
      <trkpt lat="0" lon="0">
        <time>2020-12-20T09:31:57.728000+00:00</time>
      </trkpt>
      <trkpt lat="47.33975" lon="-1.26079">
        <ele>56</ele>
        <time>2020-12-20T09:31:58.653000+00:00</time>
      </trkpt>
      <trkpt lat="0" lon="0">
        <time>2020-12-20T09:31:58.660000+00:00</time>
      </trkpt>
      <trkpt lat="0" lon="0">
        <time>2020-12-20T09:31:58.662000+00:00</time>
      </trkpt>
      <trkpt lat="0" lon="0">
        <time>2020-12-20T09:31:58.664000+00:00</time>
      </trkpt>
      <trkpt lat="47.33975" lon="-1.26085">
        <ele>56</ele>
        <time>2020-12-20T09:31:59.686000+00:00</time>
      </trkpt>
      <trkpt lat="0" lon="0">
        <time>2020-12-20T09:31:59.698000+00:00</time>
      </trkpt>
      <trkpt lat="0" lon="0">
        <time>2020-12-20T09:31:59.711000+00:00</time>
      </trkpt>
      <trkpt lat="0" lon="0">
        <time>2020-12-20T09:31:59.713000+00:00</time>
      </trkpt>
      <trkpt lat="47.33974" lon="-1.26091">
        <ele>56</ele>
        <time>2020-12-20T09:32:00.682000+00:00</time>
      </trkpt>
      <trkpt lat="0" lon="0">
        <time>2020-12-20T09:32:00.697000+00:00</time>
      </trkpt>
      <trkpt lat="0" lon="0">
        <time>2020-12-20T09:32:00.701000+00:00</time>
      </trkpt>
      <trkpt lat="0" lon="0">
        <time>2020-12-20T09:32:00.704000+00:00</time>
      </trkpt>
      <trkpt lat="47.33974" lon="-1.26097">
        <ele>56</ele>
        <time>2020-12-20T09:32:01.682000+00:00</time>
      </trkpt>
      <trkpt lat="0" lon="0">
        <time>2020-12-20T09:32:01.696000+00:00</time>
      </trkpt>
      <trkpt lat="0" lon="0">
        <time>2020-12-20T09:32:01.701000+00:00</time>
      </trkpt>
      <trkpt lat="0" lon="0">
        <time>2020-12-20T09:32:01.703000+00:00</time>
      </trkpt>
      <trkpt lat="47.33974" lon="-1.26104">
        <ele>56</ele>
        <time>2020-12-20T09:32:02.668000+00:00</time>
      </trkpt>
      <trkpt lat="0" lon="0">
        <time>2020-12-20T09:32:02.675000+00:00</time>
      </trkpt>
      <trkpt lat="0" lon="0">
        <time>2020-12-20T09:32:02.683000+00:00</time>
      </trkpt>
      <trkpt lat="0" lon="0">
        <time>2020-12-20T09:32:02.685000+00:00</time>
      </trkpt>
      <trkpt lat="47.33974" lon="-1.2611">
        <ele>56</ele>
        <time>2020-12-20T09:32:03.690000+00:00</time>
      </trkpt>
      <trkpt lat="0" lon="0">
        <time>2020-12-20T09:32:03.692000+00:00</time>
      </trkpt>
      <trkpt lat="0" lon="0">
        <time>2020-12-20T09:32:03.694000+00:00</time>
      </trkpt>
      <trkpt lat="0" lon="0">
        <time>2020-12-20T09:32:03.700000+00:00</time>
      </trkpt>
      <trkpt lat="47.33974" lon="-1.26118">
        <ele>56</ele>
        <time>2020-12-20T09:32:04.678000+00:00</time>
      </trkpt>
      <trkpt lat="0" lon="0">
        <time>2020-12-20T09:32:04.686000+00:00</time>
      </trkpt>
      <trkpt lat="0" lon="0">
        <time>2020-12-20T09:32:04.698000+00:00</time>
      </trkpt>
      <trkpt lat="0" lon="0">
        <time>2020-12-20T09:32:04.701000+00:00</time>
      </trkpt>
      <trkpt lat="47.33975" lon="-1.26125">
        <ele>55</ele>
        <time>2020-12-20T09:32:05.656000+00:00</time>
      </trkpt>
      <trkpt lat="0" lon="0">
        <time>2020-12-20T09:32:05.676000+00:00</time>
      </trkpt>
      <trkpt lat="0" lon="0">
        <time>2020-12-20T09:32:05.682000+00:00</time>
      </trkpt>
      <trkpt lat="0" lon="0">
        <time>2020-12-20T09:32:05.686000+00:00</time>
      </trkpt>
      <trkpt lat="47.33975" lon="-1.26133">
        <ele>55</ele>
        <time>2020-12-20T09:32:06.613000+00:00</time>
      </trkpt>
      <trkpt lat="0" lon="0">
        <time>2020-12-20T09:32:06.623000+00:00</time>
      </trkpt>
      <trkpt lat="0" lon="0">
        <time>2020-12-20T09:32:06.627000+00:00</time>
      </trkpt>
      <trkpt lat="0" lon="0">
        <time>2020-12-20T09:32:06.629000+00:00</time>
      </trkpt>
      <trkpt lat="47.33975" lon="-1.26141">
        <ele>55</ele>
        <time>2020-12-20T09:32:07.640000+00:00</time>
      </trkpt>
      <trkpt lat="0" lon="0">
        <time>2020-12-20T09:32:07.647000+00:00</time>
      </trkpt>
      <trkpt lat="0" lon="0">
        <time>2020-12-20T09:32:07.652000+00:00</time>
      </trkpt>
      <trkpt lat="0" lon="0">
        <time>2020-12-20T09:32:07.655000+00:00</time>
      </trkpt>
      <trkpt lat="47.33976" lon="-1.26149">
        <ele>55</ele>
        <time>2020-12-20T09:32:08.678000+00:00</time>
      </trkpt>
      <trkpt lat="0" lon="0">
        <time>2020-12-20T09:32:08.687000+00:00</time>
      </trkpt>
      <trkpt lat="0" lon="0">
        <time>2020-12-20T09:32:08.694000+00:00</time>
      </trkpt>
      <trkpt lat="0" lon="0">
        <time>2020-12-20T09:32:08.696000+00:00</time>
      </trkpt>
      <trkpt lat="47.33976" lon="-1.26156">
        <ele>55</ele>
        <time>2020-12-20T09:32:09.677000+00:00</time>
      </trkpt>
      <trkpt lat="0" lon="0">
        <time>2020-12-20T09:32:09.695000+00:00</time>
      </trkpt>
      <trkpt lat="0" lon="0">
        <time>2020-12-20T09:32:09.704000+00:00</time>
      </trkpt>
      <trkpt lat="0" lon="0">
        <time>2020-12-20T09:32:09.705000+00:00</time>
      </trkpt>
      <trkpt lat="47.33976" lon="-1.26163">
        <ele>55</ele>
        <time>2020-12-20T09:32:10.644000+00:00</time>
      </trkpt>
      <trkpt lat="0" lon="0">
        <time>2020-12-20T09:32:10.652000+00:00</time>
      </trkpt>
      <trkpt lat="0" lon="0">
        <time>2020-12-20T09:32:10.656000+00:00</time>
      </trkpt>
      <trkpt lat="0" lon="0">
        <time>2020-12-20T09:32:10.662000+00:00</time>
      </trkpt>
      <trkpt lat="47.33976" lon="-1.2617">
        <ele>56</ele>
        <time>2020-12-20T09:32:11.660000+00:00</time>
      </trkpt>
      <trkpt lat="0" lon="0">
        <time>2020-12-20T09:32:11.665000+00:00</time>
      </trkpt>
      <trkpt lat="0" lon="0">
        <time>2020-12-20T09:32:11.671000+00:00</time>
      </trkpt>
      <trkpt lat="0" lon="0">
        <time>2020-12-20T09:32:11.674000+00:00</time>
      </trkpt>
      <trkpt lat="47.33976" lon="-1.26177">
        <ele>56</ele>
        <time>2020-12-20T09:32:12.662000+00:00</time>
      </trkpt>
      <trkpt lat="0" lon="0">
        <time>2020-12-20T09:32:12.666000+00:00</time>
      </trkpt>
      <trkpt lat="0" lon="0">
        <time>2020-12-20T09:32:12.670000+00:00</time>
      </trkpt>
      <trkpt lat="0" lon="0">
        <time>2020-12-20T09:32:12.672000+00:00</time>
      </trkpt>
      <trkpt lat="47.33975" lon="-1.26184">
        <ele>56</ele>
        <time>2020-12-20T09:32:13.667000+00:00</time>
      </trkpt>
      <trkpt lat="0" lon="0">
        <time>2020-12-20T09:32:13.681000+00:00</time>
      </trkpt>
      <trkpt lat="0" lon="0">
        <time>2020-12-20T09:32:13.693000+00:00</time>
      </trkpt>
      <trkpt lat="0" lon="0">
        <time>2020-12-20T09:32:13.698000+00:00</time>
      </trkpt>
      <trkpt lat="47.33975" lon="-1.2619">
        <ele>55</ele>
        <time>2020-12-20T09:32:14.659000+00:00</time>
      </trkpt>
      <trkpt lat="0" lon="0">
        <time>2020-12-20T09:32:14.673000+00:00</time>
      </trkpt>
      <trkpt lat="0" lon="0">
        <time>2020-12-20T09:32:14.677000+00:00</time>
      </trkpt>
      <trkpt lat="0" lon="0">
        <time>2020-12-20T09:32:14.683000+00:00</time>
      </trkpt>
      <trkpt lat="47.33975" lon="-1.26198">
        <ele>55</ele>
        <time>2020-12-20T09:32:15.660000+00:00</time>
      </trkpt>
      <trkpt lat="0" lon="0">
        <time>2020-12-20T09:32:15.672000+00:00</time>
      </trkpt>
      <trkpt lat="0" lon="0">
        <time>2020-12-20T09:32:15.677000+00:00</time>
      </trkpt>
      <trkpt lat="0" lon="0">
        <time>2020-12-20T09:32:15.679000+00:00</time>
      </trkpt>
      <trkpt lat="47.33974" lon="-1.26205">
        <ele>55</ele>
        <time>2020-12-20T09:32:16.647000+00:00</time>
      </trkpt>
      <trkpt lat="0" lon="0">
        <time>2020-12-20T09:32:16.664000+00:00</time>
      </trkpt>
      <trkpt lat="0" lon="0">
        <time>2020-12-20T09:32:16.668000+00:00</time>
      </trkpt>
      <trkpt lat="0" lon="0">
        <time>2020-12-20T09:32:16.676000+00:00</time>
      </trkpt>
      <trkpt lat="47.33974" lon="-1.26213">
        <ele>55</ele>
        <time>2020-12-20T09:32:17.673000+00:00</time>
      </trkpt>
      <trkpt lat="0" lon="0">
        <time>2020-12-20T09:32:17.677000+00:00</time>
      </trkpt>
      <trkpt lat="0" lon="0">
        <time>2020-12-20T09:32:17.684000+00:00</time>
      </trkpt>
      <trkpt lat="0" lon="0">
        <time>2020-12-20T09:32:17.686000+00:00</time>
      </trkpt>
      <trkpt lat="47.33974" lon="-1.26221">
        <ele>54</ele>
        <time>2020-12-20T09:32:18.680000+00:00</time>
      </trkpt>
      <trkpt lat="0" lon="0">
        <time>2020-12-20T09:32:18.694000+00:00</time>
      </trkpt>
      <trkpt lat="0" lon="0">
        <time>2020-12-20T09:32:18.701000+00:00</time>
      </trkpt>
      <trkpt lat="0" lon="0">
        <time>2020-12-20T09:32:18.704000+00:00</time>
      </trkpt>
      <trkpt lat="47.33973" lon="-1.26229">
        <ele>54</ele>
        <time>2020-12-20T09:32:19.691000+00:00</time>
      </trkpt>
      <trkpt lat="0" lon="0">
        <time>2020-12-20T09:32:19.699000+00:00</time>
      </trkpt>
      <trkpt lat="0" lon="0">
        <time>2020-12-20T09:32:19.704000+00:00</time>
      </trkpt>
      <trkpt lat="0" lon="0">
        <time>2020-12-20T09:32:19.706000+00:00</time>
      </trkpt>
      <trkpt lat="47.33973" lon="-1.26237">
        <ele>53</ele>
        <time>2020-12-20T09:32:20.689000+00:00</time>
      </trkpt>
      <trkpt lat="0" lon="0">
        <time>2020-12-20T09:32:20.699000+00:00</time>
      </trkpt>
      <trkpt lat="0" lon="0">
        <time>2020-12-20T09:32:20.703000+00:00</time>
      </trkpt>
      <trkpt lat="0" lon="0">
        <time>2020-12-20T09:32:20.705000+00:00</time>
      </trkpt>
      <trkpt lat="47.33973" lon="-1.26244">
        <ele>54</ele>
        <time>2020-12-20T09:32:21.692000+00:00</time>
      </trkpt>
      <trkpt lat="0" lon="0">
        <time>2020-12-20T09:32:21.700000+00:00</time>
      </trkpt>
      <trkpt lat="0" lon="0">
        <time>2020-12-20T09:32:21.704000+00:00</time>
      </trkpt>
      <trkpt lat="0" lon="0">
        <time>2020-12-20T09:32:21.706000+00:00</time>
      </trkpt>
      <trkpt lat="47.33972" lon="-1.26252">
        <ele>54</ele>
        <time>2020-12-20T09:32:22.608000+00:00</time>
      </trkpt>
      <trkpt lat="0" lon="0">
        <time>2020-12-20T09:32:22.612000+00:00</time>
      </trkpt>
      <trkpt lat="0" lon="0">
        <time>2020-12-20T09:32:22.616000+00:00</time>
      </trkpt>
      <trkpt lat="0" lon="0">
        <time>2020-12-20T09:32:22.618000+00:00</time>
      </trkpt>
      <trkpt lat="47.33972" lon="-1.26259">
        <ele>54</ele>
        <time>2020-12-20T09:32:23.664000+00:00</time>
      </trkpt>
      <trkpt lat="0" lon="0">
        <time>2020-12-20T09:32:23.680000+00:00</time>
      </trkpt>
      <trkpt lat="0" lon="0">
        <time>2020-12-20T09:32:23.684000+00:00</time>
      </trkpt>
      <trkpt lat="0" lon="0">
        <time>2020-12-20T09:32:23.686000+00:00</time>
      </trkpt>
      <trkpt lat="47.33972" lon="-1.26266">
        <ele>54</ele>
        <time>2020-12-20T09:32:24.674000+00:00</time>
      </trkpt>
      <trkpt lat="0" lon="0">
        <time>2020-12-20T09:32:24.682000+00:00</time>
      </trkpt>
      <trkpt lat="0" lon="0">
        <time>2020-12-20T09:32:24.686000+00:00</time>
      </trkpt>
      <trkpt lat="0" lon="0">
        <time>2020-12-20T09:32:24.689000+00:00</time>
      </trkpt>
      <trkpt lat="47.33971" lon="-1.26273">
        <ele>54</ele>
        <time>2020-12-20T09:32:25.664000+00:00</time>
      </trkpt>
      <trkpt lat="0" lon="0">
        <time>2020-12-20T09:32:25.670000+00:00</time>
      </trkpt>
      <trkpt lat="0" lon="0">
        <time>2020-12-20T09:32:25.682000+00:00</time>
      </trkpt>
      <trkpt lat="0" lon="0">
        <time>2020-12-20T09:32:25.684000+00:00</time>
      </trkpt>
      <trkpt lat="47.33971" lon="-1.2628">
        <ele>54</ele>
        <time>2020-12-20T09:32:26.665000+00:00</time>
      </trkpt>
      <trkpt lat="0" lon="0">
        <time>2020-12-20T09:32:26.673000+00:00</time>
      </trkpt>
      <trkpt lat="0" lon="0">
        <time>2020-12-20T09:32:26.679000+00:00</time>
      </trkpt>
      <trkpt lat="0" lon="0">
        <time>2020-12-20T09:32:26.682000+00:00</time>
      </trkpt>
      <trkpt lat="47.33971" lon="-1.26287">
        <ele>55</ele>
        <time>2020-12-20T09:32:27.670000+00:00</time>
      </trkpt>
      <trkpt lat="0" lon="0">
        <time>2020-12-20T09:32:27.689000+00:00</time>
      </trkpt>
      <trkpt lat="0" lon="0">
        <time>2020-12-20T09:32:27.697000+00:00</time>
      </trkpt>
      <trkpt lat="0" lon="0">
        <time>2020-12-20T09:32:27.702000+00:00</time>
      </trkpt>
      <trkpt lat="47.33971" lon="-1.26294">
        <ele>55</ele>
        <time>2020-12-20T09:32:28.670000+00:00</time>
      </trkpt>
      <trkpt lat="0" lon="0">
        <time>2020-12-20T09:32:28.678000+00:00</time>
      </trkpt>
      <trkpt lat="0" lon="0">
        <time>2020-12-20T09:32:28.683000+00:00</time>
      </trkpt>
      <trkpt lat="0" lon="0">
        <time>2020-12-20T09:32:28.685000+00:00</time>
      </trkpt>
      <trkpt lat="47.33971" lon="-1.263">
        <ele>55</ele>
        <time>2020-12-20T09:32:29.629000+00:00</time>
      </trkpt>
      <trkpt lat="0" lon="0">
        <time>2020-12-20T09:32:29.642000+00:00</time>
      </trkpt>
      <trkpt lat="0" lon="0">
        <time>2020-12-20T09:32:29.650000+00:00</time>
      </trkpt>
      <trkpt lat="0" lon="0">
        <time>2020-12-20T09:32:29.654000+00:00</time>
      </trkpt>
      <trkpt lat="47.33971" lon="-1.26306">
        <ele>55</ele>
        <time>2020-12-20T09:32:30.658000+00:00</time>
      </trkpt>
      <trkpt lat="0" lon="0">
        <time>2020-12-20T09:32:30.662000+00:00</time>
      </trkpt>
      <trkpt lat="0" lon="0">
        <time>2020-12-20T09:32:30.670000+00:00</time>
      </trkpt>
      <trkpt lat="0" lon="0">
        <time>2020-12-20T09:32:30.673000+00:00</time>
      </trkpt>
      <trkpt lat="47.3397" lon="-1.26311">
        <ele>55</ele>
        <time>2020-12-20T09:32:31.693000+00:00</time>
      </trkpt>
      <trkpt lat="0" lon="0">
        <time>2020-12-20T09:32:31.708000+00:00</time>
      </trkpt>
      <trkpt lat="0" lon="0">
        <time>2020-12-20T09:32:31.710000+00:00</time>
      </trkpt>
      <trkpt lat="0" lon="0">
        <time>2020-12-20T09:32:31.711000+00:00</time>
      </trkpt>
      <trkpt lat="47.3397" lon="-1.26317">
        <ele>55</ele>
        <time>2020-12-20T09:32:32.658000+00:00</time>
      </trkpt>
      <trkpt lat="0" lon="0">
        <time>2020-12-20T09:32:32.670000+00:00</time>
      </trkpt>
      <trkpt lat="0" lon="0">
        <time>2020-12-20T09:32:32.677000+00:00</time>
      </trkpt>
      <trkpt lat="0" lon="0">
        <time>2020-12-20T09:32:32.679000+00:00</time>
      </trkpt>
      <trkpt lat="47.33971" lon="-1.26322">
        <ele>55</ele>
        <time>2020-12-20T09:32:33.681000+00:00</time>
      </trkpt>
      <trkpt lat="0" lon="0">
        <time>2020-12-20T09:32:33.695000+00:00</time>
      </trkpt>
      <trkpt lat="0" lon="0">
        <time>2020-12-20T09:32:33.699000+00:00</time>
      </trkpt>
      <trkpt lat="0" lon="0">
        <time>2020-12-20T09:32:33.702000+00:00</time>
      </trkpt>
      <trkpt lat="47.33971" lon="-1.26328">
        <ele>55</ele>
        <time>2020-12-20T09:32:34.675000+00:00</time>
      </trkpt>
      <trkpt lat="0" lon="0">
        <time>2020-12-20T09:32:34.697000+00:00</time>
      </trkpt>
      <trkpt lat="0" lon="0">
        <time>2020-12-20T09:32:34.703000+00:00</time>
      </trkpt>
      <trkpt lat="0" lon="0">
        <time>2020-12-20T09:32:34.705000+00:00</time>
      </trkpt>
      <trkpt lat="47.33971" lon="-1.26334">
        <ele>56</ele>
        <time>2020-12-20T09:32:35.673000+00:00</time>
      </trkpt>
      <trkpt lat="0" lon="0">
        <time>2020-12-20T09:32:35.679000+00:00</time>
      </trkpt>
      <trkpt lat="0" lon="0">
        <time>2020-12-20T09:32:35.688000+00:00</time>
      </trkpt>
      <trkpt lat="0" lon="0">
        <time>2020-12-20T09:32:35.690000+00:00</time>
      </trkpt>
      <trkpt lat="47.33971" lon="-1.2634">
        <ele>56</ele>
        <time>2020-12-20T09:32:36.675000+00:00</time>
      </trkpt>
      <trkpt lat="0" lon="0">
        <time>2020-12-20T09:32:36.682000+00:00</time>
      </trkpt>
      <trkpt lat="0" lon="0">
        <time>2020-12-20T09:32:36.686000+00:00</time>
      </trkpt>
      <trkpt lat="0" lon="0">
        <time>2020-12-20T09:32:36.689000+00:00</time>
      </trkpt>
      <trkpt lat="47.33971" lon="-1.26347">
        <ele>56</ele>
        <time>2020-12-20T09:32:37.660000+00:00</time>
      </trkpt>
      <trkpt lat="0" lon="0">
        <time>2020-12-20T09:32:37.670000+00:00</time>
      </trkpt>
      <trkpt lat="0" lon="0">
        <time>2020-12-20T09:32:37.674000+00:00</time>
      </trkpt>
      <trkpt lat="0" lon="0">
        <time>2020-12-20T09:32:37.677000+00:00</time>
      </trkpt>
      <trkpt lat="47.33972" lon="-1.26353">
        <ele>56</ele>
        <time>2020-12-20T09:32:38.671000+00:00</time>
      </trkpt>
      <trkpt lat="0" lon="0">
        <time>2020-12-20T09:32:38.691000+00:00</time>
      </trkpt>
      <trkpt lat="0" lon="0">
        <time>2020-12-20T09:32:38.697000+00:00</time>
      </trkpt>
      <trkpt lat="0" lon="0">
        <time>2020-12-20T09:32:38.699000+00:00</time>
      </trkpt>
      <trkpt lat="47.33972" lon="-1.2636">
        <ele>56</ele>
        <time>2020-12-20T09:32:39.659000+00:00</time>
      </trkpt>
      <trkpt lat="0" lon="0">
        <time>2020-12-20T09:32:39.682000+00:00</time>
      </trkpt>
      <trkpt lat="0" lon="0">
        <time>2020-12-20T09:32:39.687000+00:00</time>
      </trkpt>
      <trkpt lat="0" lon="0">
        <time>2020-12-20T09:32:39.689000+00:00</time>
      </trkpt>
      <trkpt lat="47.33973" lon="-1.26367">
        <ele>56</ele>
        <time>2020-12-20T09:32:40.676000+00:00</time>
      </trkpt>
      <trkpt lat="0" lon="0">
        <time>2020-12-20T09:32:40.685000+00:00</time>
      </trkpt>
      <trkpt lat="0" lon="0">
        <time>2020-12-20T09:32:40.692000+00:00</time>
      </trkpt>
      <trkpt lat="0" lon="0">
        <time>2020-12-20T09:32:40.695000+00:00</time>
      </trkpt>
      <trkpt lat="47.33973" lon="-1.26373">
        <ele>56</ele>
        <time>2020-12-20T09:32:41.686000+00:00</time>
      </trkpt>
      <trkpt lat="0" lon="0">
        <time>2020-12-20T09:32:41.693000+00:00</time>
      </trkpt>
      <trkpt lat="0" lon="0">
        <time>2020-12-20T09:32:41.698000+00:00</time>
      </trkpt>
      <trkpt lat="0" lon="0">
        <time>2020-12-20T09:32:41.700000+00:00</time>
      </trkpt>
      <trkpt lat="47.33974" lon="-1.2638">
        <ele>56</ele>
        <time>2020-12-20T09:32:42.687000+00:00</time>
      </trkpt>
      <trkpt lat="0" lon="0">
        <time>2020-12-20T09:32:42.690000+00:00</time>
      </trkpt>
      <trkpt lat="0" lon="0">
        <time>2020-12-20T09:32:42.692000+00:00</time>
      </trkpt>
      <trkpt lat="0" lon="0">
        <time>2020-12-20T09:32:42.694000+00:00</time>
      </trkpt>
      <trkpt lat="47.33974" lon="-1.26386">
        <ele>56</ele>
        <time>2020-12-20T09:32:43.683000+00:00</time>
      </trkpt>
      <trkpt lat="0" lon="0">
        <time>2020-12-20T09:32:43.690000+00:00</time>
      </trkpt>
      <trkpt lat="0" lon="0">
        <time>2020-12-20T09:32:43.696000+00:00</time>
      </trkpt>
      <trkpt lat="0" lon="0">
        <time>2020-12-20T09:32:43.699000+00:00</time>
      </trkpt>
      <trkpt lat="47.33974" lon="-1.26392">
        <ele>56</ele>
        <time>2020-12-20T09:32:44.657000+00:00</time>
      </trkpt>
      <trkpt lat="0" lon="0">
        <time>2020-12-20T09:32:44.672000+00:00</time>
      </trkpt>
      <trkpt lat="0" lon="0">
        <time>2020-12-20T09:32:44.677000+00:00</time>
      </trkpt>
      <trkpt lat="0" lon="0">
        <time>2020-12-20T09:32:44.684000+00:00</time>
      </trkpt>
      <trkpt lat="47.33974" lon="-1.26399">
        <ele>57</ele>
        <time>2020-12-20T09:32:45.670000+00:00</time>
      </trkpt>
      <trkpt lat="0" lon="0">
        <time>2020-12-20T09:32:45.686000+00:00</time>
      </trkpt>
      <trkpt lat="0" lon="0">
        <time>2020-12-20T09:32:45.690000+00:00</time>
      </trkpt>
      <trkpt lat="0" lon="0">
        <time>2020-12-20T09:32:45.695000+00:00</time>
      </trkpt>
      <trkpt lat="47.33974" lon="-1.26406">
        <ele>57</ele>
        <time>2020-12-20T09:32:46.680000+00:00</time>
      </trkpt>
      <trkpt lat="0" lon="0">
        <time>2020-12-20T09:32:46.695000+00:00</time>
      </trkpt>
      <trkpt lat="0" lon="0">
        <time>2020-12-20T09:32:46.698000+00:00</time>
      </trkpt>
      <trkpt lat="0" lon="0">
        <time>2020-12-20T09:32:46.704000+00:00</time>
      </trkpt>
      <trkpt lat="47.33974" lon="-1.26413">
        <ele>58</ele>
        <time>2020-12-20T09:32:47.688000+00:00</time>
      </trkpt>
      <trkpt lat="0" lon="0">
        <time>2020-12-20T09:32:47.704000+00:00</time>
      </trkpt>
      <trkpt lat="0" lon="0">
        <time>2020-12-20T09:32:47.713000+00:00</time>
      </trkpt>
      <trkpt lat="0" lon="0">
        <time>2020-12-20T09:32:47.719000+00:00</time>
      </trkpt>
      <trkpt lat="47.33974" lon="-1.26419">
        <ele>58</ele>
        <time>2020-12-20T09:32:48.608000+00:00</time>
      </trkpt>
      <trkpt lat="0" lon="0">
        <time>2020-12-20T09:32:48.613000+00:00</time>
      </trkpt>
      <trkpt lat="0" lon="0">
        <time>2020-12-20T09:32:48.615000+00:00</time>
      </trkpt>
      <trkpt lat="0" lon="0">
        <time>2020-12-20T09:32:48.616000+00:00</time>
      </trkpt>
      <trkpt lat="47.33974" lon="-1.26426">
        <ele>57</ele>
        <time>2020-12-20T09:32:49.629000+00:00</time>
      </trkpt>
      <trkpt lat="0" lon="0">
        <time>2020-12-20T09:32:49.631000+00:00</time>
      </trkpt>
      <trkpt lat="0" lon="0">
        <time>2020-12-20T09:32:49.632000+00:00</time>
      </trkpt>
      <trkpt lat="0" lon="0">
        <time>2020-12-20T09:32:49.633000+00:00</time>
      </trkpt>
      <trkpt lat="47.33974" lon="-1.26432">
        <ele>57</ele>
        <time>2020-12-20T09:32:50.650000+00:00</time>
      </trkpt>
      <trkpt lat="0" lon="0">
        <time>2020-12-20T09:32:50.658000+00:00</time>
      </trkpt>
      <trkpt lat="0" lon="0">
        <time>2020-12-20T09:32:50.662000+00:00</time>
      </trkpt>
      <trkpt lat="0" lon="0">
        <time>2020-12-20T09:32:50.667000+00:00</time>
      </trkpt>
      <trkpt lat="47.33974" lon="-1.26438">
        <ele>57</ele>
        <time>2020-12-20T09:32:51.681000+00:00</time>
      </trkpt>
      <trkpt lat="0" lon="0">
        <time>2020-12-20T09:32:51.694000+00:00</time>
      </trkpt>
      <trkpt lat="0" lon="0">
        <time>2020-12-20T09:32:51.698000+00:00</time>
      </trkpt>
      <trkpt lat="0" lon="0">
        <time>2020-12-20T09:32:51.700000+00:00</time>
      </trkpt>
      <trkpt lat="47.33974" lon="-1.26444">
        <ele>58</ele>
        <time>2020-12-20T09:32:52.648000+00:00</time>
      </trkpt>
      <trkpt lat="0" lon="0">
        <time>2020-12-20T09:32:52.664000+00:00</time>
      </trkpt>
      <trkpt lat="0" lon="0">
        <time>2020-12-20T09:32:52.676000+00:00</time>
      </trkpt>
      <trkpt lat="0" lon="0">
        <time>2020-12-20T09:32:52.681000+00:00</time>
      </trkpt>
      <trkpt lat="47.33974" lon="-1.26449">
        <ele>58</ele>
        <time>2020-12-20T09:32:53.694000+00:00</time>
      </trkpt>
      <trkpt lat="0" lon="0">
        <time>2020-12-20T09:32:53.717000+00:00</time>
      </trkpt>
      <trkpt lat="0" lon="0">
        <time>2020-12-20T09:32:53.723000+00:00</time>
      </trkpt>
      <trkpt lat="0" lon="0">
        <time>2020-12-20T09:32:53.729000+00:00</time>
      </trkpt>
      <trkpt lat="47.33974" lon="-1.26454">
        <ele>58</ele>
        <time>2020-12-20T09:32:54.608000+00:00</time>
      </trkpt>
      <trkpt lat="0" lon="0">
        <time>2020-12-20T09:32:54.610000+00:00</time>
      </trkpt>
      <trkpt lat="0" lon="0">
        <time>2020-12-20T09:32:54.613000+00:00</time>
      </trkpt>
      <trkpt lat="0" lon="0">
        <time>2020-12-20T09:32:54.621000+00:00</time>
      </trkpt>
      <trkpt lat="47.33974" lon="-1.26459">
        <ele>58</ele>
        <time>2020-12-20T09:32:55.676000+00:00</time>
      </trkpt>
      <trkpt lat="0" lon="0">
        <time>2020-12-20T09:32:55.685000+00:00</time>
      </trkpt>
      <trkpt lat="0" lon="0">
        <time>2020-12-20T09:32:55.695000+00:00</time>
      </trkpt>
      <trkpt lat="0" lon="0">
        <time>2020-12-20T09:32:55.700000+00:00</time>
      </trkpt>
      <trkpt lat="47.33974" lon="-1.26464">
        <ele>58</ele>
        <time>2020-12-20T09:32:56.667000+00:00</time>
      </trkpt>
      <trkpt lat="0" lon="0">
        <time>2020-12-20T09:32:56.680000+00:00</time>
      </trkpt>
      <trkpt lat="0" lon="0">
        <time>2020-12-20T09:32:56.684000+00:00</time>
      </trkpt>
      <trkpt lat="0" lon="0">
        <time>2020-12-20T09:32:56.685000+00:00</time>
      </trkpt>
      <trkpt lat="47.33974" lon="-1.26469">
        <ele>59</ele>
        <time>2020-12-20T09:32:57.686000+00:00</time>
      </trkpt>
      <trkpt lat="0" lon="0">
        <time>2020-12-20T09:32:57.691000+00:00</time>
      </trkpt>
      <trkpt lat="0" lon="0">
        <time>2020-12-20T09:32:57.700000+00:00</time>
      </trkpt>
      <trkpt lat="0" lon="0">
        <time>2020-12-20T09:32:57.702000+00:00</time>
      </trkpt>
      <trkpt lat="47.33974" lon="-1.26473">
        <ele>59</ele>
        <time>2020-12-20T09:32:58.703000+00:00</time>
      </trkpt>
      <trkpt lat="0" lon="0">
        <time>2020-12-20T09:32:58.713000+00:00</time>
      </trkpt>
      <trkpt lat="0" lon="0">
        <time>2020-12-20T09:32:58.719000+00:00</time>
      </trkpt>
      <trkpt lat="0" lon="0">
        <time>2020-12-20T09:32:58.722000+00:00</time>
      </trkpt>
      <trkpt lat="47.33973" lon="-1.26477">
        <ele>59</ele>
        <time>2020-12-20T09:32:59.654000+00:00</time>
      </trkpt>
      <trkpt lat="0" lon="0">
        <time>2020-12-20T09:32:59.666000+00:00</time>
      </trkpt>
      <trkpt lat="0" lon="0">
        <time>2020-12-20T09:32:59.670000+00:00</time>
      </trkpt>
      <trkpt lat="0" lon="0">
        <time>2020-12-20T09:32:59.674000+00:00</time>
      </trkpt>
      <trkpt lat="47.33973" lon="-1.26482">
        <ele>59</ele>
        <time>2020-12-20T09:33:00.626000+00:00</time>
      </trkpt>
      <trkpt lat="0" lon="0">
        <time>2020-12-20T09:33:00.630000+00:00</time>
      </trkpt>
      <trkpt lat="0" lon="0">
        <time>2020-12-20T09:33:00.633000+00:00</time>
      </trkpt>
      <trkpt lat="0" lon="0">
        <time>2020-12-20T09:33:00.634000+00:00</time>
      </trkpt>
      <trkpt lat="47.33973" lon="-1.26486">
        <ele>59</ele>
        <time>2020-12-20T09:33:01.656000+00:00</time>
      </trkpt>
      <trkpt lat="0" lon="0">
        <time>2020-12-20T09:33:01.663000+00:00</time>
      </trkpt>
      <trkpt lat="0" lon="0">
        <time>2020-12-20T09:33:01.668000+00:00</time>
      </trkpt>
      <trkpt lat="0" lon="0">
        <time>2020-12-20T09:33:01.670000+00:00</time>
      </trkpt>
      <trkpt lat="47.33972" lon="-1.26491">
        <ele>60</ele>
        <time>2020-12-20T09:33:02.675000+00:00</time>
      </trkpt>
      <trkpt lat="0" lon="0">
        <time>2020-12-20T09:33:02.687000+00:00</time>
      </trkpt>
      <trkpt lat="0" lon="0">
        <time>2020-12-20T09:33:02.692000+00:00</time>
      </trkpt>
      <trkpt lat="0" lon="0">
        <time>2020-12-20T09:33:02.695000+00:00</time>
      </trkpt>
      <trkpt lat="47.33972" lon="-1.26496">
        <ele>60</ele>
        <time>2020-12-20T09:33:03.690000+00:00</time>
      </trkpt>
      <trkpt lat="0" lon="0">
        <time>2020-12-20T09:33:03.697000+00:00</time>
      </trkpt>
      <trkpt lat="0" lon="0">
        <time>2020-12-20T09:33:03.703000+00:00</time>
      </trkpt>
      <trkpt lat="0" lon="0">
        <time>2020-12-20T09:33:03.705000+00:00</time>
      </trkpt>
      <trkpt lat="47.33972" lon="-1.26502">
        <ele>60</ele>
        <time>2020-12-20T09:33:04.654000+00:00</time>
      </trkpt>
      <trkpt lat="0" lon="0">
        <time>2020-12-20T09:33:04.661000+00:00</time>
      </trkpt>
      <trkpt lat="0" lon="0">
        <time>2020-12-20T09:33:04.663000+00:00</time>
      </trkpt>
      <trkpt lat="0" lon="0">
        <time>2020-12-20T09:33:04.664000+00:00</time>
      </trkpt>
      <trkpt lat="47.33973" lon="-1.26507">
        <ele>60</ele>
        <time>2020-12-20T09:33:05.645000+00:00</time>
      </trkpt>
      <trkpt lat="0" lon="0">
        <time>2020-12-20T09:33:05.659000+00:00</time>
      </trkpt>
      <trkpt lat="0" lon="0">
        <time>2020-12-20T09:33:05.668000+00:00</time>
      </trkpt>
      <trkpt lat="0" lon="0">
        <time>2020-12-20T09:33:05.673000+00:00</time>
      </trkpt>
      <trkpt lat="47.33973" lon="-1.26513">
        <ele>60</ele>
        <time>2020-12-20T09:33:06.678000+00:00</time>
      </trkpt>
      <trkpt lat="0" lon="0">
        <time>2020-12-20T09:33:06.686000+00:00</time>
      </trkpt>
      <trkpt lat="0" lon="0">
        <time>2020-12-20T09:33:06.703000+00:00</time>
      </trkpt>
      <trkpt lat="0" lon="0">
        <time>2020-12-20T09:33:06.708000+00:00</time>
      </trkpt>
      <trkpt lat="47.33974" lon="-1.2652">
        <ele>60</ele>
        <time>2020-12-20T09:33:07.669000+00:00</time>
      </trkpt>
      <trkpt lat="0" lon="0">
        <time>2020-12-20T09:33:07.686000+00:00</time>
      </trkpt>
      <trkpt lat="0" lon="0">
        <time>2020-12-20T09:33:07.693000+00:00</time>
      </trkpt>
      <trkpt lat="0" lon="0">
        <time>2020-12-20T09:33:07.700000+00:00</time>
      </trkpt>
      <trkpt lat="47.33974" lon="-1.26526">
        <ele>60</ele>
        <time>2020-12-20T09:33:08.685000+00:00</time>
      </trkpt>
      <trkpt lat="0" lon="0">
        <time>2020-12-20T09:33:08.692000+00:00</time>
      </trkpt>
      <trkpt lat="0" lon="0">
        <time>2020-12-20T09:33:08.701000+00:00</time>
      </trkpt>
      <trkpt lat="0" lon="0">
        <time>2020-12-20T09:33:08.704000+00:00</time>
      </trkpt>
      <trkpt lat="47.33975" lon="-1.26533">
        <ele>59</ele>
        <time>2020-12-20T09:33:09.674000+00:00</time>
      </trkpt>
      <trkpt lat="0" lon="0">
        <time>2020-12-20T09:33:09.682000+00:00</time>
      </trkpt>
      <trkpt lat="0" lon="0">
        <time>2020-12-20T09:33:09.687000+00:00</time>
      </trkpt>
      <trkpt lat="0" lon="0">
        <time>2020-12-20T09:33:09.689000+00:00</time>
      </trkpt>
      <trkpt lat="47.33976" lon="-1.26539">
        <ele>59</ele>
        <time>2020-12-20T09:33:10.685000+00:00</time>
      </trkpt>
      <trkpt lat="0" lon="0">
        <time>2020-12-20T09:33:10.688000+00:00</time>
      </trkpt>
      <trkpt lat="0" lon="0">
        <time>2020-12-20T09:33:10.690000+00:00</time>
      </trkpt>
      <trkpt lat="0" lon="0">
        <time>2020-12-20T09:33:10.692000+00:00</time>
      </trkpt>
      <trkpt lat="47.33976" lon="-1.26546">
        <ele>59</ele>
        <time>2020-12-20T09:33:11.666000+00:00</time>
      </trkpt>
      <trkpt lat="0" lon="0">
        <time>2020-12-20T09:33:11.673000+00:00</time>
      </trkpt>
      <trkpt lat="0" lon="0">
        <time>2020-12-20T09:33:11.678000+00:00</time>
      </trkpt>
      <trkpt lat="0" lon="0">
        <time>2020-12-20T09:33:11.680000+00:00</time>
      </trkpt>
      <trkpt lat="47.33977" lon="-1.26554">
        <ele>59</ele>
        <time>2020-12-20T09:33:12.675000+00:00</time>
      </trkpt>
      <trkpt lat="0" lon="0">
        <time>2020-12-20T09:33:12.682000+00:00</time>
      </trkpt>
      <trkpt lat="0" lon="0">
        <time>2020-12-20T09:33:12.686000+00:00</time>
      </trkpt>
      <trkpt lat="0" lon="0">
        <time>2020-12-20T09:33:12.690000+00:00</time>
      </trkpt>
      <trkpt lat="47.33977" lon="-1.26561">
        <ele>59</ele>
        <time>2020-12-20T09:33:13.669000+00:00</time>
      </trkpt>
      <trkpt lat="0" lon="0">
        <time>2020-12-20T09:33:13.676000+00:00</time>
      </trkpt>
      <trkpt lat="0" lon="0">
        <time>2020-12-20T09:33:13.680000+00:00</time>
      </trkpt>
      <trkpt lat="0" lon="0">
        <time>2020-12-20T09:33:13.682000+00:00</time>
      </trkpt>
      <trkpt lat="47.33978" lon="-1.26569">
        <ele>60</ele>
        <time>2020-12-20T09:33:14.650000+00:00</time>
      </trkpt>
      <trkpt lat="0" lon="0">
        <time>2020-12-20T09:33:14.654000+00:00</time>
      </trkpt>
      <trkpt lat="0" lon="0">
        <time>2020-12-20T09:33:14.659000+00:00</time>
      </trkpt>
      <trkpt lat="0" lon="0">
        <time>2020-12-20T09:33:14.664000+00:00</time>
      </trkpt>
      <trkpt lat="47.33978" lon="-1.26577">
        <ele>61</ele>
        <time>2020-12-20T09:33:15.644000+00:00</time>
      </trkpt>
      <trkpt lat="0" lon="0">
        <time>2020-12-20T09:33:15.652000+00:00</time>
      </trkpt>
      <trkpt lat="0" lon="0">
        <time>2020-12-20T09:33:15.662000+00:00</time>
      </trkpt>
      <trkpt lat="0" lon="0">
        <time>2020-12-20T09:33:15.665000+00:00</time>
      </trkpt>
      <trkpt lat="47.33979" lon="-1.26584">
        <ele>62</ele>
        <time>2020-12-20T09:33:16.663000+00:00</time>
      </trkpt>
      <trkpt lat="0" lon="0">
        <time>2020-12-20T09:33:16.680000+00:00</time>
      </trkpt>
      <trkpt lat="0" lon="0">
        <time>2020-12-20T09:33:16.683000+00:00</time>
      </trkpt>
      <trkpt lat="0" lon="0">
        <time>2020-12-20T09:33:16.686000+00:00</time>
      </trkpt>
      <trkpt lat="47.33979" lon="-1.26591">
        <ele>63</ele>
        <time>2020-12-20T09:33:17.647000+00:00</time>
      </trkpt>
      <trkpt lat="0" lon="0">
        <time>2020-12-20T09:33:17.652000+00:00</time>
      </trkpt>
      <trkpt lat="0" lon="0">
        <time>2020-12-20T09:33:17.658000+00:00</time>
      </trkpt>
      <trkpt lat="0" lon="0">
        <time>2020-12-20T09:33:17.661000+00:00</time>
      </trkpt>
      <trkpt lat="47.33979" lon="-1.26598">
        <ele>65</ele>
        <time>2020-12-20T09:33:18.668000+00:00</time>
      </trkpt>
      <trkpt lat="0" lon="0">
        <time>2020-12-20T09:33:18.684000+00:00</time>
      </trkpt>
      <trkpt lat="0" lon="0">
        <time>2020-12-20T09:33:18.688000+00:00</time>
      </trkpt>
      <trkpt lat="0" lon="0">
        <time>2020-12-20T09:33:18.690000+00:00</time>
      </trkpt>
      <trkpt lat="47.3398" lon="-1.26605">
        <ele>67</ele>
        <time>2020-12-20T09:33:19.644000+00:00</time>
      </trkpt>
      <trkpt lat="0" lon="0">
        <time>2020-12-20T09:33:19.655000+00:00</time>
      </trkpt>
      <trkpt lat="0" lon="0">
        <time>2020-12-20T09:33:19.660000+00:00</time>
      </trkpt>
      <trkpt lat="0" lon="0">
        <time>2020-12-20T09:33:19.662000+00:00</time>
      </trkpt>
      <trkpt lat="47.3398" lon="-1.26611">
        <ele>68</ele>
        <time>2020-12-20T09:33:20.669000+00:00</time>
      </trkpt>
      <trkpt lat="0" lon="0">
        <time>2020-12-20T09:33:20.686000+00:00</time>
      </trkpt>
      <trkpt lat="0" lon="0">
        <time>2020-12-20T09:33:20.690000+00:00</time>
      </trkpt>
      <trkpt lat="0" lon="0">
        <time>2020-12-20T09:33:20.692000+00:00</time>
      </trkpt>
      <trkpt lat="47.3398" lon="-1.26617">
        <ele>70</ele>
        <time>2020-12-20T09:33:21.672000+00:00</time>
      </trkpt>
      <trkpt lat="0" lon="0">
        <time>2020-12-20T09:33:21.686000+00:00</time>
      </trkpt>
      <trkpt lat="0" lon="0">
        <time>2020-12-20T09:33:21.691000+00:00</time>
      </trkpt>
      <trkpt lat="0" lon="0">
        <time>2020-12-20T09:33:21.693000+00:00</time>
      </trkpt>
      <trkpt lat="47.3398" lon="-1.26624">
        <ele>70</ele>
        <time>2020-12-20T09:33:22.673000+00:00</time>
      </trkpt>
      <trkpt lat="0" lon="0">
        <time>2020-12-20T09:33:22.680000+00:00</time>
      </trkpt>
      <trkpt lat="0" lon="0">
        <time>2020-12-20T09:33:22.684000+00:00</time>
      </trkpt>
      <trkpt lat="0" lon="0">
        <time>2020-12-20T09:33:22.686000+00:00</time>
      </trkpt>
      <trkpt lat="47.33979" lon="-1.2663">
        <ele>71</ele>
        <time>2020-12-20T09:33:23.613000+00:00</time>
      </trkpt>
      <trkpt lat="0" lon="0">
        <time>2020-12-20T09:33:23.628000+00:00</time>
      </trkpt>
      <trkpt lat="0" lon="0">
        <time>2020-12-20T09:33:23.632000+00:00</time>
      </trkpt>
      <trkpt lat="0" lon="0">
        <time>2020-12-20T09:33:23.635000+00:00</time>
      </trkpt>
      <trkpt lat="47.33979" lon="-1.26636">
        <ele>71</ele>
        <time>2020-12-20T09:33:24.648000+00:00</time>
      </trkpt>
      <trkpt lat="0" lon="0">
        <time>2020-12-20T09:33:24.662000+00:00</time>
      </trkpt>
      <trkpt lat="0" lon="0">
        <time>2020-12-20T09:33:24.666000+00:00</time>
      </trkpt>
      <trkpt lat="0" lon="0">
        <time>2020-12-20T09:33:24.668000+00:00</time>
      </trkpt>
      <trkpt lat="47.33979" lon="-1.26641">
        <ele>72</ele>
        <time>2020-12-20T09:33:25.693000+00:00</time>
      </trkpt>
      <trkpt lat="0" lon="0">
        <time>2020-12-20T09:33:25.704000+00:00</time>
      </trkpt>
      <trkpt lat="0" lon="0">
        <time>2020-12-20T09:33:25.707000+00:00</time>
      </trkpt>
      <trkpt lat="0" lon="0">
        <time>2020-12-20T09:33:25.709000+00:00</time>
      </trkpt>
      <trkpt lat="47.33978" lon="-1.26647">
        <ele>72</ele>
        <time>2020-12-20T09:33:26.675000+00:00</time>
      </trkpt>
      <trkpt lat="0" lon="0">
        <time>2020-12-20T09:33:26.702000+00:00</time>
      </trkpt>
      <trkpt lat="0" lon="0">
        <time>2020-12-20T09:33:26.706000+00:00</time>
      </trkpt>
      <trkpt lat="0" lon="0">
        <time>2020-12-20T09:33:26.707000+00:00</time>
      </trkpt>
      <trkpt lat="47.33978" lon="-1.26652">
        <ele>72</ele>
        <time>2020-12-20T09:33:27.660000+00:00</time>
      </trkpt>
      <trkpt lat="0" lon="0">
        <time>2020-12-20T09:33:27.667000+00:00</time>
      </trkpt>
      <trkpt lat="0" lon="0">
        <time>2020-12-20T09:33:27.681000+00:00</time>
      </trkpt>
      <trkpt lat="0" lon="0">
        <time>2020-12-20T09:33:27.683000+00:00</time>
      </trkpt>
      <trkpt lat="47.33977" lon="-1.26658">
        <ele>72</ele>
        <time>2020-12-20T09:33:28.692000+00:00</time>
      </trkpt>
      <trkpt lat="0" lon="0">
        <time>2020-12-20T09:33:28.697000+00:00</time>
      </trkpt>
      <trkpt lat="0" lon="0">
        <time>2020-12-20T09:33:28.704000+00:00</time>
      </trkpt>
      <trkpt lat="0" lon="0">
        <time>2020-12-20T09:33:28.706000+00:00</time>
      </trkpt>
      <trkpt lat="47.33977" lon="-1.26663">
        <ele>72</ele>
        <time>2020-12-20T09:33:29.703000+00:00</time>
      </trkpt>
      <trkpt lat="0" lon="0">
        <time>2020-12-20T09:33:29.712000+00:00</time>
      </trkpt>
      <trkpt lat="0" lon="0">
        <time>2020-12-20T09:33:29.716000+00:00</time>
      </trkpt>
      <trkpt lat="0" lon="0">
        <time>2020-12-20T09:33:29.718000+00:00</time>
      </trkpt>
      <trkpt lat="47.33976" lon="-1.26669">
        <ele>72</ele>
        <time>2020-12-20T09:33:30.687000+00:00</time>
      </trkpt>
      <trkpt lat="0" lon="0">
        <time>2020-12-20T09:33:30.694000+00:00</time>
      </trkpt>
      <trkpt lat="0" lon="0">
        <time>2020-12-20T09:33:30.699000+00:00</time>
      </trkpt>
      <trkpt lat="0" lon="0">
        <time>2020-12-20T09:33:30.701000+00:00</time>
      </trkpt>
      <trkpt lat="47.33976" lon="-1.26675">
        <ele>72</ele>
        <time>2020-12-20T09:33:31.696000+00:00</time>
      </trkpt>
      <trkpt lat="0" lon="0">
        <time>2020-12-20T09:33:31.704000+00:00</time>
      </trkpt>
      <trkpt lat="0" lon="0">
        <time>2020-12-20T09:33:31.709000+00:00</time>
      </trkpt>
      <trkpt lat="0" lon="0">
        <time>2020-12-20T09:33:31.711000+00:00</time>
      </trkpt>
      <trkpt lat="47.33975" lon="-1.26681">
        <ele>72</ele>
        <time>2020-12-20T09:33:32.678000+00:00</time>
      </trkpt>
      <trkpt lat="0" lon="0">
        <time>2020-12-20T09:33:32.686000+00:00</time>
      </trkpt>
      <trkpt lat="0" lon="0">
        <time>2020-12-20T09:33:32.688000+00:00</time>
      </trkpt>
      <trkpt lat="0" lon="0">
        <time>2020-12-20T09:33:32.689000+00:00</time>
      </trkpt>
      <trkpt lat="47.33975" lon="-1.26687">
        <ele>72</ele>
        <time>2020-12-20T09:33:33.688000+00:00</time>
      </trkpt>
      <trkpt lat="0" lon="0">
        <time>2020-12-20T09:33:33.703000+00:00</time>
      </trkpt>
      <trkpt lat="0" lon="0">
        <time>2020-12-20T09:33:33.712000+00:00</time>
      </trkpt>
      <trkpt lat="0" lon="0">
        <time>2020-12-20T09:33:33.716000+00:00</time>
      </trkpt>
      <trkpt lat="47.33974" lon="-1.26694">
        <ele>72</ele>
        <time>2020-12-20T09:33:34.655000+00:00</time>
      </trkpt>
      <trkpt lat="0" lon="0">
        <time>2020-12-20T09:33:34.661000+00:00</time>
      </trkpt>
      <trkpt lat="0" lon="0">
        <time>2020-12-20T09:33:34.666000+00:00</time>
      </trkpt>
      <trkpt lat="0" lon="0">
        <time>2020-12-20T09:33:34.669000+00:00</time>
      </trkpt>
      <trkpt lat="47.33973" lon="-1.267">
        <ele>72</ele>
        <time>2020-12-20T09:33:35.671000+00:00</time>
      </trkpt>
      <trkpt lat="0" lon="0">
        <time>2020-12-20T09:33:35.684000+00:00</time>
      </trkpt>
      <trkpt lat="0" lon="0">
        <time>2020-12-20T09:33:35.692000+00:00</time>
      </trkpt>
      <trkpt lat="0" lon="0">
        <time>2020-12-20T09:33:35.695000+00:00</time>
      </trkpt>
      <trkpt lat="47.33972" lon="-1.26707">
        <ele>72</ele>
        <time>2020-12-20T09:33:36.667000+00:00</time>
      </trkpt>
      <trkpt lat="0" lon="0">
        <time>2020-12-20T09:33:36.684000+00:00</time>
      </trkpt>
      <trkpt lat="0" lon="0">
        <time>2020-12-20T09:33:36.695000+00:00</time>
      </trkpt>
      <trkpt lat="0" lon="0">
        <time>2020-12-20T09:33:36.701000+00:00</time>
      </trkpt>
      <trkpt lat="47.33971" lon="-1.26714">
        <ele>72</ele>
        <time>2020-12-20T09:33:37.692000+00:00</time>
      </trkpt>
      <trkpt lat="0" lon="0">
        <time>2020-12-20T09:33:37.702000+00:00</time>
      </trkpt>
      <trkpt lat="0" lon="0">
        <time>2020-12-20T09:33:37.706000+00:00</time>
      </trkpt>
      <trkpt lat="0" lon="0">
        <time>2020-12-20T09:33:37.712000+00:00</time>
      </trkpt>
      <trkpt lat="47.3397" lon="-1.2672">
        <ele>72</ele>
        <time>2020-12-20T09:33:38.666000+00:00</time>
      </trkpt>
      <trkpt lat="0" lon="0">
        <time>2020-12-20T09:33:38.675000+00:00</time>
      </trkpt>
      <trkpt lat="0" lon="0">
        <time>2020-12-20T09:33:38.677000+00:00</time>
      </trkpt>
      <trkpt lat="0" lon="0">
        <time>2020-12-20T09:33:38.678000+00:00</time>
      </trkpt>
      <trkpt lat="47.33969" lon="-1.26727">
        <ele>72</ele>
        <time>2020-12-20T09:33:39.664000+00:00</time>
      </trkpt>
      <trkpt lat="0" lon="0">
        <time>2020-12-20T09:33:39.678000+00:00</time>
      </trkpt>
      <trkpt lat="0" lon="0">
        <time>2020-12-20T09:33:39.684000+00:00</time>
      </trkpt>
      <trkpt lat="0" lon="0">
        <time>2020-12-20T09:33:39.688000+00:00</time>
      </trkpt>
      <trkpt lat="47.33968" lon="-1.26732">
        <ele>72</ele>
        <time>2020-12-20T09:33:40.660000+00:00</time>
      </trkpt>
      <trkpt lat="0" lon="0">
        <time>2020-12-20T09:33:40.674000+00:00</time>
      </trkpt>
      <trkpt lat="0" lon="0">
        <time>2020-12-20T09:33:40.678000+00:00</time>
      </trkpt>
      <trkpt lat="0" lon="0">
        <time>2020-12-20T09:33:40.682000+00:00</time>
      </trkpt>
      <trkpt lat="47.33969" lon="-1.26738">
        <ele>72</ele>
        <time>2020-12-20T09:33:41.651000+00:00</time>
      </trkpt>
      <trkpt lat="0" lon="0">
        <time>2020-12-20T09:33:41.668000+00:00</time>
      </trkpt>
      <trkpt lat="0" lon="0">
        <time>2020-12-20T09:33:41.672000+00:00</time>
      </trkpt>
      <trkpt lat="0" lon="0">
        <time>2020-12-20T09:33:41.676000+00:00</time>
      </trkpt>
      <trkpt lat="47.33969" lon="-1.26744">
        <ele>72</ele>
        <time>2020-12-20T09:33:42.654000+00:00</time>
      </trkpt>
      <trkpt lat="0" lon="0">
        <time>2020-12-20T09:33:42.675000+00:00</time>
      </trkpt>
      <trkpt lat="0" lon="0">
        <time>2020-12-20T09:33:42.680000+00:00</time>
      </trkpt>
      <trkpt lat="0" lon="0">
        <time>2020-12-20T09:33:42.682000+00:00</time>
      </trkpt>
      <trkpt lat="47.33971" lon="-1.2675">
        <ele>71</ele>
        <time>2020-12-20T09:33:43.669000+00:00</time>
      </trkpt>
      <trkpt lat="0" lon="0">
        <time>2020-12-20T09:33:43.682000+00:00</time>
      </trkpt>
      <trkpt lat="0" lon="0">
        <time>2020-12-20T09:33:43.687000+00:00</time>
      </trkpt>
      <trkpt lat="0" lon="0">
        <time>2020-12-20T09:33:43.692000+00:00</time>
      </trkpt>
      <trkpt lat="47.33972" lon="-1.26756">
        <ele>70</ele>
        <time>2020-12-20T09:33:44.609000+00:00</time>
      </trkpt>
      <trkpt lat="0" lon="0">
        <time>2020-12-20T09:33:44.618000+00:00</time>
      </trkpt>
      <trkpt lat="0" lon="0">
        <time>2020-12-20T09:33:44.628000+00:00</time>
      </trkpt>
      <trkpt lat="0" lon="0">
        <time>2020-12-20T09:33:44.630000+00:00</time>
      </trkpt>
      <trkpt lat="47.33974" lon="-1.26762">
        <ele>69</ele>
        <time>2020-12-20T09:33:45.686000+00:00</time>
      </trkpt>
      <trkpt lat="0" lon="0">
        <time>2020-12-20T09:33:45.700000+00:00</time>
      </trkpt>
      <trkpt lat="0" lon="0">
        <time>2020-12-20T09:33:45.710000+00:00</time>
      </trkpt>
      <trkpt lat="0" lon="0">
        <time>2020-12-20T09:33:45.715000+00:00</time>
      </trkpt>
      <trkpt lat="47.33976" lon="-1.26768">
        <ele>69</ele>
        <time>2020-12-20T09:33:46.652000+00:00</time>
      </trkpt>
      <trkpt lat="0" lon="0">
        <time>2020-12-20T09:33:46.660000+00:00</time>
      </trkpt>
      <trkpt lat="0" lon="0">
        <time>2020-12-20T09:33:46.667000+00:00</time>
      </trkpt>
      <trkpt lat="0" lon="0">
        <time>2020-12-20T09:33:46.671000+00:00</time>
      </trkpt>
      <trkpt lat="47.33977" lon="-1.26775">
        <ele>69</ele>
        <time>2020-12-20T09:33:47.655000+00:00</time>
      </trkpt>
      <trkpt lat="0" lon="0">
        <time>2020-12-20T09:33:47.663000+00:00</time>
      </trkpt>
      <trkpt lat="0" lon="0">
        <time>2020-12-20T09:33:47.671000+00:00</time>
      </trkpt>
      <trkpt lat="0" lon="0">
        <time>2020-12-20T09:33:47.673000+00:00</time>
      </trkpt>
      <trkpt lat="47.33978" lon="-1.26782">
        <ele>69</ele>
        <time>2020-12-20T09:33:48.662000+00:00</time>
      </trkpt>
      <trkpt lat="0" lon="0">
        <time>2020-12-20T09:33:48.670000+00:00</time>
      </trkpt>
      <trkpt lat="0" lon="0">
        <time>2020-12-20T09:33:48.677000+00:00</time>
      </trkpt>
      <trkpt lat="0" lon="0">
        <time>2020-12-20T09:33:48.679000+00:00</time>
      </trkpt>
      <trkpt lat="47.33979" lon="-1.2679">
        <ele>69</ele>
        <time>2020-12-20T09:33:49.658000+00:00</time>
      </trkpt>
      <trkpt lat="0" lon="0">
        <time>2020-12-20T09:33:49.660000+00:00</time>
      </trkpt>
      <trkpt lat="0" lon="0">
        <time>2020-12-20T09:33:49.662000+00:00</time>
      </trkpt>
      <trkpt lat="0" lon="0">
        <time>2020-12-20T09:33:49.663000+00:00</time>
      </trkpt>
      <trkpt lat="47.33979" lon="-1.26797">
        <ele>68</ele>
        <time>2020-12-20T09:33:50.668000+00:00</time>
      </trkpt>
      <trkpt lat="0" lon="0">
        <time>2020-12-20T09:33:50.672000+00:00</time>
      </trkpt>
      <trkpt lat="0" lon="0">
        <time>2020-12-20T09:33:50.677000+00:00</time>
      </trkpt>
      <trkpt lat="0" lon="0">
        <time>2020-12-20T09:33:50.679000+00:00</time>
      </trkpt>
      <trkpt lat="47.33979" lon="-1.26804">
        <ele>68</ele>
        <time>2020-12-20T09:33:51.683000+00:00</time>
      </trkpt>
      <trkpt lat="0" lon="0">
        <time>2020-12-20T09:33:51.695000+00:00</time>
      </trkpt>
      <trkpt lat="0" lon="0">
        <time>2020-12-20T09:33:51.701000+00:00</time>
      </trkpt>
      <trkpt lat="0" lon="0">
        <time>2020-12-20T09:33:51.703000+00:00</time>
      </trkpt>
      <trkpt lat="47.33978" lon="-1.26812">
        <ele>68</ele>
        <time>2020-12-20T09:33:52.669000+00:00</time>
      </trkpt>
      <trkpt lat="0" lon="0">
        <time>2020-12-20T09:33:52.682000+00:00</time>
      </trkpt>
      <trkpt lat="0" lon="0">
        <time>2020-12-20T09:33:52.687000+00:00</time>
      </trkpt>
      <trkpt lat="0" lon="0">
        <time>2020-12-20T09:33:52.690000+00:00</time>
      </trkpt>
      <trkpt lat="47.33978" lon="-1.26819">
        <ele>69</ele>
        <time>2020-12-20T09:33:53.684000+00:00</time>
      </trkpt>
      <trkpt lat="0" lon="0">
        <time>2020-12-20T09:33:53.697000+00:00</time>
      </trkpt>
      <trkpt lat="0" lon="0">
        <time>2020-12-20T09:33:53.702000+00:00</time>
      </trkpt>
      <trkpt lat="0" lon="0">
        <time>2020-12-20T09:33:53.705000+00:00</time>
      </trkpt>
      <trkpt lat="47.33977" lon="-1.26825">
        <ele>69</ele>
        <time>2020-12-20T09:33:54.676000+00:00</time>
      </trkpt>
      <trkpt lat="0" lon="0">
        <time>2020-12-20T09:33:54.687000+00:00</time>
      </trkpt>
      <trkpt lat="0" lon="0">
        <time>2020-12-20T09:33:54.696000+00:00</time>
      </trkpt>
      <trkpt lat="0" lon="0">
        <time>2020-12-20T09:33:54.698000+00:00</time>
      </trkpt>
      <trkpt lat="47.33977" lon="-1.26832">
        <ele>69</ele>
        <time>2020-12-20T09:33:55.643000+00:00</time>
      </trkpt>
      <trkpt lat="0" lon="0">
        <time>2020-12-20T09:33:55.648000+00:00</time>
      </trkpt>
      <trkpt lat="0" lon="0">
        <time>2020-12-20T09:33:55.652000+00:00</time>
      </trkpt>
      <trkpt lat="0" lon="0">
        <time>2020-12-20T09:33:55.654000+00:00</time>
      </trkpt>
      <trkpt lat="47.33976" lon="-1.26838">
        <ele>69</ele>
        <time>2020-12-20T09:33:56.690000+00:00</time>
      </trkpt>
      <trkpt lat="0" lon="0">
        <time>2020-12-20T09:33:56.700000+00:00</time>
      </trkpt>
      <trkpt lat="0" lon="0">
        <time>2020-12-20T09:33:56.709000+00:00</time>
      </trkpt>
      <trkpt lat="0" lon="0">
        <time>2020-12-20T09:33:56.719000+00:00</time>
      </trkpt>
      <trkpt lat="47.33975" lon="-1.26844">
        <ele>69</ele>
        <time>2020-12-20T09:33:57.702000+00:00</time>
      </trkpt>
      <trkpt lat="0" lon="0">
        <time>2020-12-20T09:33:57.706000+00:00</time>
      </trkpt>
      <trkpt lat="0" lon="0">
        <time>2020-12-20T09:33:57.722000+00:00</time>
      </trkpt>
      <trkpt lat="0" lon="0">
        <time>2020-12-20T09:33:57.724000+00:00</time>
      </trkpt>
      <trkpt lat="47.33975" lon="-1.2685">
        <ele>69</ele>
        <time>2020-12-20T09:33:58.680000+00:00</time>
      </trkpt>
      <trkpt lat="0" lon="0">
        <time>2020-12-20T09:33:58.695000+00:00</time>
      </trkpt>
      <trkpt lat="0" lon="0">
        <time>2020-12-20T09:33:58.701000+00:00</time>
      </trkpt>
      <trkpt lat="0" lon="0">
        <time>2020-12-20T09:33:58.706000+00:00</time>
      </trkpt>
      <trkpt lat="47.33975" lon="-1.26856">
        <ele>69</ele>
        <time>2020-12-20T09:33:59.678000+00:00</time>
      </trkpt>
      <trkpt lat="0" lon="0">
        <time>2020-12-20T09:33:59.684000+00:00</time>
      </trkpt>
      <trkpt lat="0" lon="0">
        <time>2020-12-20T09:33:59.692000+00:00</time>
      </trkpt>
      <trkpt lat="0" lon="0">
        <time>2020-12-20T09:33:59.695000+00:00</time>
      </trkpt>
      <trkpt lat="47.33974" lon="-1.26861">
        <ele>69</ele>
        <time>2020-12-20T09:34:00.672000+00:00</time>
      </trkpt>
      <trkpt lat="0" lon="0">
        <time>2020-12-20T09:34:00.677000+00:00</time>
      </trkpt>
      <trkpt lat="0" lon="0">
        <time>2020-12-20T09:34:00.681000+00:00</time>
      </trkpt>
      <trkpt lat="0" lon="0">
        <time>2020-12-20T09:34:00.684000+00:00</time>
      </trkpt>
      <trkpt lat="47.33973" lon="-1.26866">
        <ele>69</ele>
        <time>2020-12-20T09:34:01.685000+00:00</time>
      </trkpt>
      <trkpt lat="0" lon="0">
        <time>2020-12-20T09:34:01.691000+00:00</time>
      </trkpt>
      <trkpt lat="0" lon="0">
        <time>2020-12-20T09:34:01.696000+00:00</time>
      </trkpt>
      <trkpt lat="0" lon="0">
        <time>2020-12-20T09:34:01.698000+00:00</time>
      </trkpt>
      <trkpt lat="47.33973" lon="-1.26871">
        <ele>69</ele>
        <time>2020-12-20T09:34:02.671000+00:00</time>
      </trkpt>
      <trkpt lat="0" lon="0">
        <time>2020-12-20T09:34:02.676000+00:00</time>
      </trkpt>
      <trkpt lat="0" lon="0">
        <time>2020-12-20T09:34:02.685000+00:00</time>
      </trkpt>
      <trkpt lat="0" lon="0">
        <time>2020-12-20T09:34:02.692000+00:00</time>
      </trkpt>
      <trkpt lat="47.33972" lon="-1.26877">
        <ele>69</ele>
        <time>2020-12-20T09:34:03.694000+00:00</time>
      </trkpt>
      <trkpt lat="0" lon="0">
        <time>2020-12-20T09:34:03.701000+00:00</time>
      </trkpt>
      <trkpt lat="0" lon="0">
        <time>2020-12-20T09:34:03.706000+00:00</time>
      </trkpt>
      <trkpt lat="0" lon="0">
        <time>2020-12-20T09:34:03.708000+00:00</time>
      </trkpt>
      <trkpt lat="47.33971" lon="-1.26882">
        <ele>69</ele>
        <time>2020-12-20T09:34:04.671000+00:00</time>
      </trkpt>
      <trkpt lat="0" lon="0">
        <time>2020-12-20T09:34:04.675000+00:00</time>
      </trkpt>
      <trkpt lat="0" lon="0">
        <time>2020-12-20T09:34:04.679000+00:00</time>
      </trkpt>
      <trkpt lat="0" lon="0">
        <time>2020-12-20T09:34:04.682000+00:00</time>
      </trkpt>
      <trkpt lat="47.3397" lon="-1.26889">
        <ele>69</ele>
        <time>2020-12-20T09:34:05.692000+00:00</time>
      </trkpt>
      <trkpt lat="0" lon="0">
        <time>2020-12-20T09:34:05.703000+00:00</time>
      </trkpt>
      <trkpt lat="0" lon="0">
        <time>2020-12-20T09:34:05.711000+00:00</time>
      </trkpt>
      <trkpt lat="0" lon="0">
        <time>2020-12-20T09:34:05.713000+00:00</time>
      </trkpt>
      <trkpt lat="47.33969" lon="-1.26895">
        <ele>69</ele>
        <time>2020-12-20T09:34:06.669000+00:00</time>
      </trkpt>
      <trkpt lat="0" lon="0">
        <time>2020-12-20T09:34:06.679000+00:00</time>
      </trkpt>
      <trkpt lat="0" lon="0">
        <time>2020-12-20T09:34:06.687000+00:00</time>
      </trkpt>
      <trkpt lat="0" lon="0">
        <time>2020-12-20T09:34:06.691000+00:00</time>
      </trkpt>
      <trkpt lat="47.33968" lon="-1.26902">
        <ele>70</ele>
        <time>2020-12-20T09:34:07.686000+00:00</time>
      </trkpt>
      <trkpt lat="0" lon="0">
        <time>2020-12-20T09:34:07.699000+00:00</time>
      </trkpt>
      <trkpt lat="0" lon="0">
        <time>2020-12-20T09:34:07.703000+00:00</time>
      </trkpt>
      <trkpt lat="0" lon="0">
        <time>2020-12-20T09:34:07.708000+00:00</time>
      </trkpt>
      <trkpt lat="47.33967" lon="-1.26908">
        <ele>69</ele>
        <time>2020-12-20T09:34:08.681000+00:00</time>
      </trkpt>
      <trkpt lat="0" lon="0">
        <time>2020-12-20T09:34:08.688000+00:00</time>
      </trkpt>
      <trkpt lat="0" lon="0">
        <time>2020-12-20T09:34:08.696000+00:00</time>
      </trkpt>
      <trkpt lat="0" lon="0">
        <time>2020-12-20T09:34:08.698000+00:00</time>
      </trkpt>
      <trkpt lat="47.33966" lon="-1.26915">
        <ele>69</ele>
        <time>2020-12-20T09:34:09.676000+00:00</time>
      </trkpt>
      <trkpt lat="0" lon="0">
        <time>2020-12-20T09:34:09.689000+00:00</time>
      </trkpt>
      <trkpt lat="0" lon="0">
        <time>2020-12-20T09:34:09.694000+00:00</time>
      </trkpt>
      <trkpt lat="0" lon="0">
        <time>2020-12-20T09:34:09.698000+00:00</time>
      </trkpt>
      <trkpt lat="47.33964" lon="-1.26921">
        <ele>69</ele>
        <time>2020-12-20T09:34:10.706000+00:00</time>
      </trkpt>
      <trkpt lat="0" lon="0">
        <time>2020-12-20T09:34:10.712000+00:00</time>
      </trkpt>
      <trkpt lat="0" lon="0">
        <time>2020-12-20T09:34:10.714000+00:00</time>
      </trkpt>
      <trkpt lat="0" lon="0">
        <time>2020-12-20T09:34:10.715000+00:00</time>
      </trkpt>
      <trkpt lat="47.33963" lon="-1.26928">
        <ele>68</ele>
        <time>2020-12-20T09:34:11.597000+00:00</time>
      </trkpt>
      <trkpt lat="0" lon="0">
        <time>2020-12-20T09:34:11.604000+00:00</time>
      </trkpt>
      <trkpt lat="0" lon="0">
        <time>2020-12-20T09:34:11.609000+00:00</time>
      </trkpt>
      <trkpt lat="0" lon="0">
        <time>2020-12-20T09:34:11.611000+00:00</time>
      </trkpt>
      <trkpt lat="47.33963" lon="-1.26935">
        <ele>69</ele>
        <time>2020-12-20T09:34:12.682000+00:00</time>
      </trkpt>
      <trkpt lat="0" lon="0">
        <time>2020-12-20T09:34:12.689000+00:00</time>
      </trkpt>
      <trkpt lat="0" lon="0">
        <time>2020-12-20T09:34:12.694000+00:00</time>
      </trkpt>
      <trkpt lat="0" lon="0">
        <time>2020-12-20T09:34:12.701000+00:00</time>
      </trkpt>
      <trkpt lat="47.33962" lon="-1.26942">
        <ele>68</ele>
        <time>2020-12-20T09:34:13.640000+00:00</time>
      </trkpt>
      <trkpt lat="0" lon="0">
        <time>2020-12-20T09:34:13.646000+00:00</time>
      </trkpt>
      <trkpt lat="0" lon="0">
        <time>2020-12-20T09:34:13.653000+00:00</time>
      </trkpt>
      <trkpt lat="0" lon="0">
        <time>2020-12-20T09:34:13.655000+00:00</time>
      </trkpt>
      <trkpt lat="47.33961" lon="-1.26949">
        <ele>69</ele>
        <time>2020-12-20T09:34:14.696000+00:00</time>
      </trkpt>
      <trkpt lat="0" lon="0">
        <time>2020-12-20T09:34:14.709000+00:00</time>
      </trkpt>
      <trkpt lat="0" lon="0">
        <time>2020-12-20T09:34:14.717000+00:00</time>
      </trkpt>
      <trkpt lat="0" lon="0">
        <time>2020-12-20T09:34:14.719000+00:00</time>
      </trkpt>
      <trkpt lat="47.3396" lon="-1.26955">
        <ele>68</ele>
        <time>2020-12-20T09:34:15.622000+00:00</time>
      </trkpt>
      <trkpt lat="0" lon="0">
        <time>2020-12-20T09:34:15.630000+00:00</time>
      </trkpt>
      <trkpt lat="0" lon="0">
        <time>2020-12-20T09:34:15.636000+00:00</time>
      </trkpt>
      <trkpt lat="0" lon="0">
        <time>2020-12-20T09:34:15.639000+00:00</time>
      </trkpt>
      <trkpt lat="47.3396" lon="-1.26961">
        <ele>68</ele>
        <time>2020-12-20T09:34:16.640000+00:00</time>
      </trkpt>
      <trkpt lat="0" lon="0">
        <time>2020-12-20T09:34:16.650000+00:00</time>
      </trkpt>
      <trkpt lat="0" lon="0">
        <time>2020-12-20T09:34:16.654000+00:00</time>
      </trkpt>
      <trkpt lat="0" lon="0">
        <time>2020-12-20T09:34:16.658000+00:00</time>
      </trkpt>
      <trkpt lat="47.33959" lon="-1.26967">
        <ele>68</ele>
        <time>2020-12-20T09:34:17.648000+00:00</time>
      </trkpt>
      <trkpt lat="0" lon="0">
        <time>2020-12-20T09:34:17.660000+00:00</time>
      </trkpt>
      <trkpt lat="0" lon="0">
        <time>2020-12-20T09:34:17.666000+00:00</time>
      </trkpt>
      <trkpt lat="0" lon="0">
        <time>2020-12-20T09:34:17.668000+00:00</time>
      </trkpt>
      <trkpt lat="47.33959" lon="-1.26973">
        <ele>68</ele>
        <time>2020-12-20T09:34:18.695000+00:00</time>
      </trkpt>
      <trkpt lat="0" lon="0">
        <time>2020-12-20T09:34:18.713000+00:00</time>
      </trkpt>
      <trkpt lat="0" lon="0">
        <time>2020-12-20T09:34:18.719000+00:00</time>
      </trkpt>
      <trkpt lat="0" lon="0">
        <time>2020-12-20T09:34:18.721000+00:00</time>
      </trkpt>
      <trkpt lat="47.33958" lon="-1.26979">
        <ele>68</ele>
        <time>2020-12-20T09:34:19.618000+00:00</time>
      </trkpt>
      <trkpt lat="0" lon="0">
        <time>2020-12-20T09:34:19.621000+00:00</time>
      </trkpt>
      <trkpt lat="0" lon="0">
        <time>2020-12-20T09:34:19.622000+00:00</time>
      </trkpt>
      <trkpt lat="0" lon="0">
        <time>2020-12-20T09:34:19.623000+00:00</time>
      </trkpt>
      <trkpt lat="47.33958" lon="-1.26985">
        <ele>69</ele>
        <time>2020-12-20T09:34:20.645000+00:00</time>
      </trkpt>
      <trkpt lat="0" lon="0">
        <time>2020-12-20T09:34:20.662000+00:00</time>
      </trkpt>
      <trkpt lat="0" lon="0">
        <time>2020-12-20T09:34:20.668000+00:00</time>
      </trkpt>
      <trkpt lat="0" lon="0">
        <time>2020-12-20T09:34:20.670000+00:00</time>
      </trkpt>
      <trkpt lat="47.33958" lon="-1.26991">
        <ele>69</ele>
        <time>2020-12-20T09:34:21.646000+00:00</time>
      </trkpt>
      <trkpt lat="0" lon="0">
        <time>2020-12-20T09:34:21.655000+00:00</time>
      </trkpt>
      <trkpt lat="0" lon="0">
        <time>2020-12-20T09:34:21.660000+00:00</time>
      </trkpt>
      <trkpt lat="0" lon="0">
        <time>2020-12-20T09:34:21.662000+00:00</time>
      </trkpt>
      <trkpt lat="47.33958" lon="-1.26997">
        <ele>69</ele>
        <time>2020-12-20T09:34:22.669000+00:00</time>
      </trkpt>
      <trkpt lat="0" lon="0">
        <time>2020-12-20T09:34:22.682000+00:00</time>
      </trkpt>
      <trkpt lat="0" lon="0">
        <time>2020-12-20T09:34:22.691000+00:00</time>
      </trkpt>
      <trkpt lat="0" lon="0">
        <time>2020-12-20T09:34:22.696000+00:00</time>
      </trkpt>
      <trkpt lat="47.33958" lon="-1.27003">
        <ele>69</ele>
        <time>2020-12-20T09:34:23.656000+00:00</time>
      </trkpt>
      <trkpt lat="0" lon="0">
        <time>2020-12-20T09:34:23.665000+00:00</time>
      </trkpt>
      <trkpt lat="0" lon="0">
        <time>2020-12-20T09:34:23.673000+00:00</time>
      </trkpt>
      <trkpt lat="0" lon="0">
        <time>2020-12-20T09:34:23.680000+00:00</time>
      </trkpt>
      <trkpt lat="47.33959" lon="-1.27009">
        <ele>69</ele>
        <time>2020-12-20T09:34:24.673000+00:00</time>
      </trkpt>
      <trkpt lat="0" lon="0">
        <time>2020-12-20T09:34:24.682000+00:00</time>
      </trkpt>
      <trkpt lat="0" lon="0">
        <time>2020-12-20T09:34:24.688000+00:00</time>
      </trkpt>
      <trkpt lat="0" lon="0">
        <time>2020-12-20T09:34:24.692000+00:00</time>
      </trkpt>
      <trkpt lat="47.3396" lon="-1.27015">
        <ele>69</ele>
        <time>2020-12-20T09:34:25.636000+00:00</time>
      </trkpt>
      <trkpt lat="0" lon="0">
        <time>2020-12-20T09:34:25.654000+00:00</time>
      </trkpt>
      <trkpt lat="0" lon="0">
        <time>2020-12-20T09:34:25.657000+00:00</time>
      </trkpt>
      <trkpt lat="0" lon="0">
        <time>2020-12-20T09:34:25.662000+00:00</time>
      </trkpt>
      <trkpt lat="47.33961" lon="-1.27022">
        <ele>70</ele>
        <time>2020-12-20T09:34:26.637000+00:00</time>
      </trkpt>
      <trkpt lat="0" lon="0">
        <time>2020-12-20T09:34:26.642000+00:00</time>
      </trkpt>
      <trkpt lat="0" lon="0">
        <time>2020-12-20T09:34:26.650000+00:00</time>
      </trkpt>
      <trkpt lat="0" lon="0">
        <time>2020-12-20T09:34:26.651000+00:00</time>
      </trkpt>
      <trkpt lat="47.33961" lon="-1.27029">
        <ele>70</ele>
        <time>2020-12-20T09:34:27.676000+00:00</time>
      </trkpt>
      <trkpt lat="0" lon="0">
        <time>2020-12-20T09:34:27.696000+00:00</time>
      </trkpt>
      <trkpt lat="0" lon="0">
        <time>2020-12-20T09:34:27.700000+00:00</time>
      </trkpt>
      <trkpt lat="0" lon="0">
        <time>2020-12-20T09:34:27.702000+00:00</time>
      </trkpt>
      <trkpt lat="47.33962" lon="-1.27035">
        <ele>70</ele>
        <time>2020-12-20T09:34:28.676000+00:00</time>
      </trkpt>
      <trkpt lat="0" lon="0">
        <time>2020-12-20T09:34:28.686000+00:00</time>
      </trkpt>
      <trkpt lat="0" lon="0">
        <time>2020-12-20T09:34:28.693000+00:00</time>
      </trkpt>
      <trkpt lat="0" lon="0">
        <time>2020-12-20T09:34:28.695000+00:00</time>
      </trkpt>
      <trkpt lat="47.33963" lon="-1.27042">
        <ele>70</ele>
        <time>2020-12-20T09:34:29.660000+00:00</time>
      </trkpt>
      <trkpt lat="0" lon="0">
        <time>2020-12-20T09:34:29.667000+00:00</time>
      </trkpt>
      <trkpt lat="0" lon="0">
        <time>2020-12-20T09:34:29.670000+00:00</time>
      </trkpt>
      <trkpt lat="0" lon="0">
        <time>2020-12-20T09:34:29.672000+00:00</time>
      </trkpt>
      <trkpt lat="47.33963" lon="-1.27049">
        <ele>70</ele>
        <time>2020-12-20T09:34:30.670000+00:00</time>
      </trkpt>
      <trkpt lat="0" lon="0">
        <time>2020-12-20T09:34:30.678000+00:00</time>
      </trkpt>
      <trkpt lat="0" lon="0">
        <time>2020-12-20T09:34:30.684000+00:00</time>
      </trkpt>
      <trkpt lat="0" lon="0">
        <time>2020-12-20T09:34:30.689000+00:00</time>
      </trkpt>
      <trkpt lat="47.33964" lon="-1.27056">
        <ele>71</ele>
        <time>2020-12-20T09:34:31.682000+00:00</time>
      </trkpt>
      <trkpt lat="0" lon="0">
        <time>2020-12-20T09:34:31.695000+00:00</time>
      </trkpt>
      <trkpt lat="0" lon="0">
        <time>2020-12-20T09:34:31.702000+00:00</time>
      </trkpt>
      <trkpt lat="0" lon="0">
        <time>2020-12-20T09:34:31.706000+00:00</time>
      </trkpt>
      <trkpt lat="47.33964" lon="-1.27062">
        <ele>72</ele>
        <time>2020-12-20T09:34:32.645000+00:00</time>
      </trkpt>
      <trkpt lat="0" lon="0">
        <time>2020-12-20T09:34:32.654000+00:00</time>
      </trkpt>
      <trkpt lat="0" lon="0">
        <time>2020-12-20T09:34:32.658000+00:00</time>
      </trkpt>
      <trkpt lat="0" lon="0">
        <time>2020-12-20T09:34:32.661000+00:00</time>
      </trkpt>
      <trkpt lat="47.33965" lon="-1.27069">
        <ele>73</ele>
        <time>2020-12-20T09:34:33.678000+00:00</time>
      </trkpt>
      <trkpt lat="0" lon="0">
        <time>2020-12-20T09:34:33.686000+00:00</time>
      </trkpt>
      <trkpt lat="0" lon="0">
        <time>2020-12-20T09:34:33.691000+00:00</time>
      </trkpt>
      <trkpt lat="0" lon="0">
        <time>2020-12-20T09:34:33.693000+00:00</time>
      </trkpt>
      <trkpt lat="47.33965" lon="-1.27075">
        <ele>75</ele>
        <time>2020-12-20T09:34:34.657000+00:00</time>
      </trkpt>
      <trkpt lat="0" lon="0">
        <time>2020-12-20T09:34:34.663000+00:00</time>
      </trkpt>
      <trkpt lat="0" lon="0">
        <time>2020-12-20T09:34:34.670000+00:00</time>
      </trkpt>
      <trkpt lat="0" lon="0">
        <time>2020-12-20T09:34:34.674000+00:00</time>
      </trkpt>
      <trkpt lat="47.33966" lon="-1.27082">
        <ele>76</ele>
        <time>2020-12-20T09:34:35.677000+00:00</time>
      </trkpt>
      <trkpt lat="0" lon="0">
        <time>2020-12-20T09:34:35.688000+00:00</time>
      </trkpt>
      <trkpt lat="0" lon="0">
        <time>2020-12-20T09:34:35.693000+00:00</time>
      </trkpt>
      <trkpt lat="0" lon="0">
        <time>2020-12-20T09:34:35.697000+00:00</time>
      </trkpt>
      <trkpt lat="47.33966" lon="-1.27088">
        <ele>77</ele>
        <time>2020-12-20T09:34:36.655000+00:00</time>
      </trkpt>
      <trkpt lat="0" lon="0">
        <time>2020-12-20T09:34:36.661000+00:00</time>
      </trkpt>
      <trkpt lat="0" lon="0">
        <time>2020-12-20T09:34:36.668000+00:00</time>
      </trkpt>
      <trkpt lat="0" lon="0">
        <time>2020-12-20T09:34:36.670000+00:00</time>
      </trkpt>
      <trkpt lat="47.33966" lon="-1.27094">
        <ele>78</ele>
        <time>2020-12-20T09:34:37.669000+00:00</time>
      </trkpt>
      <trkpt lat="0" lon="0">
        <time>2020-12-20T09:34:37.677000+00:00</time>
      </trkpt>
      <trkpt lat="0" lon="0">
        <time>2020-12-20T09:34:37.686000+00:00</time>
      </trkpt>
      <trkpt lat="0" lon="0">
        <time>2020-12-20T09:34:37.689000+00:00</time>
      </trkpt>
      <trkpt lat="47.33966" lon="-1.27099">
        <ele>78</ele>
        <time>2020-12-20T09:34:38.630000+00:00</time>
      </trkpt>
      <trkpt lat="0" lon="0">
        <time>2020-12-20T09:34:38.640000+00:00</time>
      </trkpt>
      <trkpt lat="0" lon="0">
        <time>2020-12-20T09:34:38.641000+00:00</time>
      </trkpt>
      <trkpt lat="0" lon="0">
        <time>2020-12-20T09:34:38.642000+00:00</time>
      </trkpt>
      <trkpt lat="47.33966" lon="-1.27105">
        <ele>78</ele>
        <time>2020-12-20T09:34:39.680000+00:00</time>
      </trkpt>
      <trkpt lat="0" lon="0">
        <time>2020-12-20T09:34:39.689000+00:00</time>
      </trkpt>
      <trkpt lat="0" lon="0">
        <time>2020-12-20T09:34:39.694000+00:00</time>
      </trkpt>
      <trkpt lat="0" lon="0">
        <time>2020-12-20T09:34:39.697000+00:00</time>
      </trkpt>
      <trkpt lat="47.33966" lon="-1.2711">
        <ele>78</ele>
        <time>2020-12-20T09:34:40.601000+00:00</time>
      </trkpt>
      <trkpt lat="0" lon="0">
        <time>2020-12-20T09:34:40.605000+00:00</time>
      </trkpt>
      <trkpt lat="0" lon="0">
        <time>2020-12-20T09:34:40.607000+00:00</time>
      </trkpt>
      <trkpt lat="0" lon="0">
        <time>2020-12-20T09:34:40.608000+00:00</time>
      </trkpt>
      <trkpt lat="47.33966" lon="-1.27115">
        <ele>78</ele>
        <time>2020-12-20T09:34:41.677000+00:00</time>
      </trkpt>
      <trkpt lat="0" lon="0">
        <time>2020-12-20T09:34:41.694000+00:00</time>
      </trkpt>
      <trkpt lat="0" lon="0">
        <time>2020-12-20T09:34:41.703000+00:00</time>
      </trkpt>
      <trkpt lat="0" lon="0">
        <time>2020-12-20T09:34:41.705000+00:00</time>
      </trkpt>
      <trkpt lat="47.33965" lon="-1.2712">
        <ele>79</ele>
        <time>2020-12-20T09:34:42.640000+00:00</time>
      </trkpt>
      <trkpt lat="0" lon="0">
        <time>2020-12-20T09:34:42.652000+00:00</time>
      </trkpt>
      <trkpt lat="0" lon="0">
        <time>2020-12-20T09:34:42.662000+00:00</time>
      </trkpt>
      <trkpt lat="0" lon="0">
        <time>2020-12-20T09:34:42.664000+00:00</time>
      </trkpt>
      <trkpt lat="47.33965" lon="-1.27125">
        <ele>79</ele>
        <time>2020-12-20T09:34:43.644000+00:00</time>
      </trkpt>
      <trkpt lat="0" lon="0">
        <time>2020-12-20T09:34:43.659000+00:00</time>
      </trkpt>
      <trkpt lat="0" lon="0">
        <time>2020-12-20T09:34:43.668000+00:00</time>
      </trkpt>
      <trkpt lat="0" lon="0">
        <time>2020-12-20T09:34:43.671000+00:00</time>
      </trkpt>
      <trkpt lat="47.33965" lon="-1.27129">
        <ele>79</ele>
        <time>2020-12-20T09:34:44.646000+00:00</time>
      </trkpt>
      <trkpt lat="0" lon="0">
        <time>2020-12-20T09:34:44.652000+00:00</time>
      </trkpt>
      <trkpt lat="0" lon="0">
        <time>2020-12-20T09:34:44.654000+00:00</time>
      </trkpt>
      <trkpt lat="0" lon="0">
        <time>2020-12-20T09:34:44.655000+00:00</time>
      </trkpt>
      <trkpt lat="47.33965" lon="-1.27134">
        <ele>79</ele>
        <time>2020-12-20T09:34:45.676000+00:00</time>
      </trkpt>
      <trkpt lat="0" lon="0">
        <time>2020-12-20T09:34:45.680000+00:00</time>
      </trkpt>
      <trkpt lat="0" lon="0">
        <time>2020-12-20T09:34:45.697000+00:00</time>
      </trkpt>
      <trkpt lat="0" lon="0">
        <time>2020-12-20T09:34:45.698000+00:00</time>
      </trkpt>
      <trkpt lat="47.33964" lon="-1.27139">
        <ele>79</ele>
        <time>2020-12-20T09:34:46.664000+00:00</time>
      </trkpt>
      <trkpt lat="0" lon="0">
        <time>2020-12-20T09:34:46.677000+00:00</time>
      </trkpt>
      <trkpt lat="0" lon="0">
        <time>2020-12-20T09:34:46.684000+00:00</time>
      </trkpt>
      <trkpt lat="0" lon="0">
        <time>2020-12-20T09:34:46.686000+00:00</time>
      </trkpt>
      <trkpt lat="47.33964" lon="-1.27143">
        <ele>79</ele>
        <time>2020-12-20T09:34:47.669000+00:00</time>
      </trkpt>
      <trkpt lat="0" lon="0">
        <time>2020-12-20T09:34:47.681000+00:00</time>
      </trkpt>
      <trkpt lat="0" lon="0">
        <time>2020-12-20T09:34:47.694000+00:00</time>
      </trkpt>
      <trkpt lat="0" lon="0">
        <time>2020-12-20T09:34:47.699000+00:00</time>
      </trkpt>
      <trkpt lat="47.33964" lon="-1.27147">
        <ele>79</ele>
        <time>2020-12-20T09:34:48.682000+00:00</time>
      </trkpt>
      <trkpt lat="0" lon="0">
        <time>2020-12-20T09:34:48.696000+00:00</time>
      </trkpt>
      <trkpt lat="0" lon="0">
        <time>2020-12-20T09:34:48.700000+00:00</time>
      </trkpt>
      <trkpt lat="0" lon="0">
        <time>2020-12-20T09:34:48.704000+00:00</time>
      </trkpt>
      <trkpt lat="47.33964" lon="-1.27151">
        <ele>79</ele>
        <time>2020-12-20T09:34:49.669000+00:00</time>
      </trkpt>
      <trkpt lat="0" lon="0">
        <time>2020-12-20T09:34:49.679000+00:00</time>
      </trkpt>
      <trkpt lat="0" lon="0">
        <time>2020-12-20T09:34:49.685000+00:00</time>
      </trkpt>
      <trkpt lat="0" lon="0">
        <time>2020-12-20T09:34:49.688000+00:00</time>
      </trkpt>
      <trkpt lat="47.33964" lon="-1.27154">
        <ele>79</ele>
        <time>2020-12-20T09:34:50.671000+00:00</time>
      </trkpt>
      <trkpt lat="0" lon="0">
        <time>2020-12-20T09:34:50.674000+00:00</time>
      </trkpt>
      <trkpt lat="0" lon="0">
        <time>2020-12-20T09:34:50.676000+00:00</time>
      </trkpt>
      <trkpt lat="0" lon="0">
        <time>2020-12-20T09:34:50.678000+00:00</time>
      </trkpt>
      <trkpt lat="47.33964" lon="-1.27157">
        <ele>79</ele>
        <time>2020-12-20T09:34:51.639000+00:00</time>
      </trkpt>
      <trkpt lat="0" lon="0">
        <time>2020-12-20T09:34:51.647000+00:00</time>
      </trkpt>
      <trkpt lat="0" lon="0">
        <time>2020-12-20T09:34:51.659000+00:00</time>
      </trkpt>
      <trkpt lat="0" lon="0">
        <time>2020-12-20T09:34:51.661000+00:00</time>
      </trkpt>
      <trkpt lat="47.33963" lon="-1.2716">
        <ele>79</ele>
        <time>2020-12-20T09:34:52.678000+00:00</time>
      </trkpt>
      <trkpt lat="0" lon="0">
        <time>2020-12-20T09:34:52.687000+00:00</time>
      </trkpt>
      <trkpt lat="0" lon="0">
        <time>2020-12-20T09:34:52.692000+00:00</time>
      </trkpt>
      <trkpt lat="0" lon="0">
        <time>2020-12-20T09:34:52.694000+00:00</time>
      </trkpt>
      <trkpt lat="47.33963" lon="-1.27163">
        <ele>79</ele>
        <time>2020-12-20T09:34:53.646000+00:00</time>
      </trkpt>
      <trkpt lat="0" lon="0">
        <time>2020-12-20T09:34:53.662000+00:00</time>
      </trkpt>
      <trkpt lat="0" lon="0">
        <time>2020-12-20T09:34:53.670000+00:00</time>
      </trkpt>
      <trkpt lat="0" lon="0">
        <time>2020-12-20T09:34:53.676000+00:00</time>
      </trkpt>
      <trkpt lat="47.33962" lon="-1.27166">
        <ele>79</ele>
        <time>2020-12-20T09:34:54.612000+00:00</time>
      </trkpt>
      <trkpt lat="0" lon="0">
        <time>2020-12-20T09:34:54.613000+00:00</time>
      </trkpt>
      <trkpt lat="0" lon="0">
        <time>2020-12-20T09:34:54.615000+00:00</time>
      </trkpt>
      <trkpt lat="0" lon="0">
        <time>2020-12-20T09:34:54.616000+00:00</time>
      </trkpt>
      <trkpt lat="47.33962" lon="-1.27168">
        <ele>79</ele>
        <time>2020-12-20T09:34:55.628000+00:00</time>
      </trkpt>
      <trkpt lat="0" lon="0">
        <time>2020-12-20T09:34:55.632000+00:00</time>
      </trkpt>
      <trkpt lat="0" lon="0">
        <time>2020-12-20T09:34:55.640000+00:00</time>
      </trkpt>
      <trkpt lat="0" lon="0">
        <time>2020-12-20T09:34:55.642000+00:00</time>
      </trkpt>
      <trkpt lat="47.33961" lon="-1.27171">
        <ele>79</ele>
        <time>2020-12-20T09:34:56.657000+00:00</time>
      </trkpt>
      <trkpt lat="0" lon="0">
        <time>2020-12-20T09:34:56.666000+00:00</time>
      </trkpt>
      <trkpt lat="0" lon="0">
        <time>2020-12-20T09:34:56.670000+00:00</time>
      </trkpt>
      <trkpt lat="0" lon="0">
        <time>2020-12-20T09:34:56.673000+00:00</time>
      </trkpt>
      <trkpt lat="47.3396" lon="-1.27173">
        <ele>79</ele>
        <time>2020-12-20T09:34:57.659000+00:00</time>
      </trkpt>
      <trkpt lat="0" lon="0">
        <time>2020-12-20T09:34:57.672000+00:00</time>
      </trkpt>
      <trkpt lat="0" lon="0">
        <time>2020-12-20T09:34:57.679000+00:00</time>
      </trkpt>
      <trkpt lat="0" lon="0">
        <time>2020-12-20T09:34:57.686000+00:00</time>
      </trkpt>
      <trkpt lat="47.3396" lon="-1.27175">
        <ele>78</ele>
        <time>2020-12-20T09:34:58.643000+00:00</time>
      </trkpt>
      <trkpt lat="0" lon="0">
        <time>2020-12-20T09:34:58.652000+00:00</time>
      </trkpt>
      <trkpt lat="0" lon="0">
        <time>2020-12-20T09:34:58.656000+00:00</time>
      </trkpt>
      <trkpt lat="0" lon="0">
        <time>2020-12-20T09:34:58.659000+00:00</time>
      </trkpt>
      <trkpt lat="47.33959" lon="-1.27177">
        <ele>78</ele>
        <time>2020-12-20T09:34:59.639000+00:00</time>
      </trkpt>
      <trkpt lat="0" lon="0">
        <time>2020-12-20T09:34:59.643000+00:00</time>
      </trkpt>
      <trkpt lat="0" lon="0">
        <time>2020-12-20T09:34:59.648000+00:00</time>
      </trkpt>
      <trkpt lat="0" lon="0">
        <time>2020-12-20T09:34:59.655000+00:00</time>
      </trkpt>
      <trkpt lat="47.33958" lon="-1.27179">
        <ele>78</ele>
        <time>2020-12-20T09:35:00.677000+00:00</time>
      </trkpt>
      <trkpt lat="0" lon="0">
        <time>2020-12-20T09:35:00.690000+00:00</time>
      </trkpt>
      <trkpt lat="0" lon="0">
        <time>2020-12-20T09:35:00.697000+00:00</time>
      </trkpt>
      <trkpt lat="0" lon="0">
        <time>2020-12-20T09:35:00.700000+00:00</time>
      </trkpt>
      <trkpt lat="47.33958" lon="-1.27181">
        <ele>77</ele>
        <time>2020-12-20T09:35:01.603000+00:00</time>
      </trkpt>
      <trkpt lat="0" lon="0">
        <time>2020-12-20T09:35:01.621000+00:00</time>
      </trkpt>
      <trkpt lat="0" lon="0">
        <time>2020-12-20T09:35:01.627000+00:00</time>
      </trkpt>
      <trkpt lat="0" lon="0">
        <time>2020-12-20T09:35:01.632000+00:00</time>
      </trkpt>
      <trkpt lat="47.33958" lon="-1.27182">
        <ele>77</ele>
        <time>2020-12-20T09:35:02.627000+00:00</time>
      </trkpt>
      <trkpt lat="0" lon="0">
        <time>2020-12-20T09:35:02.636000+00:00</time>
      </trkpt>
      <trkpt lat="0" lon="0">
        <time>2020-12-20T09:35:02.642000+00:00</time>
      </trkpt>
      <trkpt lat="0" lon="0">
        <time>2020-12-20T09:35:02.644000+00:00</time>
      </trkpt>
      <trkpt lat="47.33957" lon="-1.27183">
        <ele>77</ele>
        <time>2020-12-20T09:35:03.658000+00:00</time>
      </trkpt>
      <trkpt lat="0" lon="0">
        <time>2020-12-20T09:35:03.663000+00:00</time>
      </trkpt>
      <trkpt lat="0" lon="0">
        <time>2020-12-20T09:35:03.668000+00:00</time>
      </trkpt>
      <trkpt lat="0" lon="0">
        <time>2020-12-20T09:35:03.671000+00:00</time>
      </trkpt>
      <trkpt lat="47.33957" lon="-1.27184">
        <ele>77</ele>
        <time>2020-12-20T09:35:04.607000+00:00</time>
      </trkpt>
      <trkpt lat="0" lon="0">
        <time>2020-12-20T09:35:04.618000+00:00</time>
      </trkpt>
      <trkpt lat="0" lon="0">
        <time>2020-12-20T09:35:04.628000+00:00</time>
      </trkpt>
      <trkpt lat="0" lon="0">
        <time>2020-12-20T09:35:04.631000+00:00</time>
      </trkpt>
      <trkpt lat="47.33957" lon="-1.27185">
        <ele>77</ele>
        <time>2020-12-20T09:35:05.623000+00:00</time>
      </trkpt>
      <trkpt lat="0" lon="0">
        <time>2020-12-20T09:35:05.629000+00:00</time>
      </trkpt>
      <trkpt lat="0" lon="0">
        <time>2020-12-20T09:35:05.634000+00:00</time>
      </trkpt>
      <trkpt lat="0" lon="0">
        <time>2020-12-20T09:35:05.637000+00:00</time>
      </trkpt>
      <trkpt lat="47.33957" lon="-1.27186">
        <ele>77</ele>
        <time>2020-12-20T09:35:06.658000+00:00</time>
      </trkpt>
      <trkpt lat="0" lon="0">
        <time>2020-12-20T09:35:06.671000+00:00</time>
      </trkpt>
      <trkpt lat="0" lon="0">
        <time>2020-12-20T09:35:06.675000+00:00</time>
      </trkpt>
      <trkpt lat="0" lon="0">
        <time>2020-12-20T09:35:06.678000+00:00</time>
      </trkpt>
      <trkpt lat="47.33957" lon="-1.27187">
        <ele>77</ele>
        <time>2020-12-20T09:35:07.625000+00:00</time>
      </trkpt>
      <trkpt lat="0" lon="0">
        <time>2020-12-20T09:35:07.641000+00:00</time>
      </trkpt>
      <trkpt lat="0" lon="0">
        <time>2020-12-20T09:35:07.647000+00:00</time>
      </trkpt>
      <trkpt lat="0" lon="0">
        <time>2020-12-20T09:35:07.653000+00:00</time>
      </trkpt>
      <trkpt lat="47.33956" lon="-1.27188">
        <ele>77</ele>
        <time>2020-12-20T09:35:08.672000+00:00</time>
      </trkpt>
      <trkpt lat="0" lon="0">
        <time>2020-12-20T09:35:08.683000+00:00</time>
      </trkpt>
      <trkpt lat="0" lon="0">
        <time>2020-12-20T09:35:08.692000+00:00</time>
      </trkpt>
      <trkpt lat="0" lon="0">
        <time>2020-12-20T09:35:08.699000+00:00</time>
      </trkpt>
      <trkpt lat="47.33956" lon="-1.27188">
        <ele>77</ele>
        <time>2020-12-20T09:35:09.685000+00:00</time>
      </trkpt>
      <trkpt lat="0" lon="0">
        <time>2020-12-20T09:35:09.693000+00:00</time>
      </trkpt>
      <trkpt lat="0" lon="0">
        <time>2020-12-20T09:35:09.701000+00:00</time>
      </trkpt>
      <trkpt lat="0" lon="0">
        <time>2020-12-20T09:35:09.704000+00:00</time>
      </trkpt>
      <trkpt lat="47.33957" lon="-1.27188">
        <ele>77</ele>
        <time>2020-12-20T09:35:10.652000+00:00</time>
      </trkpt>
      <trkpt lat="0" lon="0">
        <time>2020-12-20T09:35:10.667000+00:00</time>
      </trkpt>
      <trkpt lat="0" lon="0">
        <time>2020-12-20T09:35:10.676000+00:00</time>
      </trkpt>
      <trkpt lat="0" lon="0">
        <time>2020-12-20T09:35:10.680000+00:00</time>
      </trkpt>
      <trkpt lat="47.33956" lon="-1.27188">
        <ele>77</ele>
        <time>2020-12-20T09:35:11.662000+00:00</time>
      </trkpt>
      <trkpt lat="0" lon="0">
        <time>2020-12-20T09:35:11.676000+00:00</time>
      </trkpt>
      <trkpt lat="0" lon="0">
        <time>2020-12-20T09:35:11.682000+00:00</time>
      </trkpt>
      <trkpt lat="0" lon="0">
        <time>2020-12-20T09:35:11.689000+00:00</time>
      </trkpt>
      <trkpt lat="47.33956" lon="-1.27189">
        <ele>77</ele>
        <time>2020-12-20T09:35:12.671000+00:00</time>
      </trkpt>
      <trkpt lat="0" lon="0">
        <time>2020-12-20T09:35:12.680000+00:00</time>
      </trkpt>
      <trkpt lat="0" lon="0">
        <time>2020-12-20T09:35:12.685000+00:00</time>
      </trkpt>
      <trkpt lat="0" lon="0">
        <time>2020-12-20T09:35:12.688000+00:00</time>
      </trkpt>
      <trkpt lat="47.33956" lon="-1.27189">
        <ele>77</ele>
        <time>2020-12-20T09:35:13.633000+00:00</time>
      </trkpt>
      <trkpt lat="0" lon="0">
        <time>2020-12-20T09:35:13.642000+00:00</time>
      </trkpt>
      <trkpt lat="0" lon="0">
        <time>2020-12-20T09:35:13.648000+00:00</time>
      </trkpt>
      <trkpt lat="0" lon="0">
        <time>2020-12-20T09:35:13.656000+00:00</time>
      </trkpt>
      <trkpt lat="47.33942" lon="-1.27243">
        <ele>68</ele>
        <time>2020-12-20T09:35:14.644000+00:00</time>
      </trkpt>
      <trkpt lat="0" lon="0">
        <time>2020-12-20T09:35:14.650000+00:00</time>
      </trkpt>
      <trkpt lat="0" lon="0">
        <time>2020-12-20T09:35:14.655000+00:00</time>
      </trkpt>
      <trkpt lat="0" lon="0">
        <time>2020-12-20T09:35:14.661000+00:00</time>
      </trkpt>
      <trkpt lat="47.33942" lon="-1.27245">
        <ele>68</ele>
        <time>2020-12-20T09:35:15.686000+00:00</time>
      </trkpt>
      <trkpt lat="0" lon="0">
        <time>2020-12-20T09:35:15.687000+00:00</time>
      </trkpt>
      <trkpt lat="0" lon="0">
        <time>2020-12-20T09:35:15.689000+00:00</time>
      </trkpt>
      <trkpt lat="0" lon="0">
        <time>2020-12-20T09:35:15.690000+00:00</time>
      </trkpt>
      <trkpt lat="47.33941" lon="-1.27247">
        <ele>68</ele>
        <time>2020-12-20T09:35:16.636000+00:00</time>
      </trkpt>
      <trkpt lat="0" lon="0">
        <time>2020-12-20T09:35:16.638000+00:00</time>
      </trkpt>
      <trkpt lat="0" lon="0">
        <time>2020-12-20T09:35:16.642000+00:00</time>
      </trkpt>
      <trkpt lat="0" lon="0">
        <time>2020-12-20T09:35:16.643000+00:00</time>
      </trkpt>
      <trkpt lat="47.33941" lon="-1.27248">
        <ele>68</ele>
        <time>2020-12-20T09:35:17.665000+00:00</time>
      </trkpt>
      <trkpt lat="0" lon="0">
        <time>2020-12-20T09:35:17.676000+00:00</time>
      </trkpt>
      <trkpt lat="0" lon="0">
        <time>2020-12-20T09:35:17.681000+00:00</time>
      </trkpt>
      <trkpt lat="0" lon="0">
        <time>2020-12-20T09:35:17.683000+00:00</time>
      </trkpt>
      <trkpt lat="47.3394" lon="-1.2725">
        <ele>68</ele>
        <time>2020-12-20T09:35:18.661000+00:00</time>
      </trkpt>
      <trkpt lat="0" lon="0">
        <time>2020-12-20T09:35:18.663000+00:00</time>
      </trkpt>
      <trkpt lat="0" lon="0">
        <time>2020-12-20T09:35:18.667000+00:00</time>
      </trkpt>
      <trkpt lat="0" lon="0">
        <time>2020-12-20T09:35:18.670000+00:00</time>
      </trkpt>
      <trkpt lat="47.3394" lon="-1.27252">
        <ele>68</ele>
        <time>2020-12-20T09:35:19.652000+00:00</time>
      </trkpt>
      <trkpt lat="0" lon="0">
        <time>2020-12-20T09:35:19.662000+00:00</time>
      </trkpt>
      <trkpt lat="0" lon="0">
        <time>2020-12-20T09:35:19.666000+00:00</time>
      </trkpt>
      <trkpt lat="0" lon="0">
        <time>2020-12-20T09:35:19.674000+00:00</time>
      </trkpt>
      <trkpt lat="47.33939" lon="-1.27253">
        <ele>68</ele>
        <time>2020-12-20T09:35:20.659000+00:00</time>
      </trkpt>
      <trkpt lat="0" lon="0">
        <time>2020-12-20T09:35:20.666000+00:00</time>
      </trkpt>
      <trkpt lat="0" lon="0">
        <time>2020-12-20T09:35:20.669000+00:00</time>
      </trkpt>
      <trkpt lat="0" lon="0">
        <time>2020-12-20T09:35:20.673000+00:00</time>
      </trkpt>
      <trkpt lat="47.33939" lon="-1.27254">
        <ele>68</ele>
        <time>2020-12-20T09:35:21.670000+00:00</time>
      </trkpt>
      <trkpt lat="0" lon="0">
        <time>2020-12-20T09:35:21.676000+00:00</time>
      </trkpt>
      <trkpt lat="0" lon="0">
        <time>2020-12-20T09:35:21.684000+00:00</time>
      </trkpt>
      <trkpt lat="0" lon="0">
        <time>2020-12-20T09:35:21.686000+00:00</time>
      </trkpt>
      <trkpt lat="47.33939" lon="-1.27254">
        <ele>68</ele>
        <time>2020-12-20T09:35:22.706000+00:00</time>
      </trkpt>
      <trkpt lat="0" lon="0">
        <time>2020-12-20T09:35:22.708000+00:00</time>
      </trkpt>
      <trkpt lat="0" lon="0">
        <time>2020-12-20T09:35:22.710000+00:00</time>
      </trkpt>
      <trkpt lat="0" lon="0">
        <time>2020-12-20T09:35:22.711000+00:00</time>
      </trkpt>
      <trkpt lat="47.33939" lon="-1.27255">
        <ele>68</ele>
        <time>2020-12-20T09:35:23.686000+00:00</time>
      </trkpt>
      <trkpt lat="0" lon="0">
        <time>2020-12-20T09:35:23.693000+00:00</time>
      </trkpt>
      <trkpt lat="0" lon="0">
        <time>2020-12-20T09:35:23.699000+00:00</time>
      </trkpt>
      <trkpt lat="0" lon="0">
        <time>2020-12-20T09:35:23.701000+00:00</time>
      </trkpt>
      <trkpt lat="47.33939" lon="-1.27255">
        <ele>68</ele>
        <time>2020-12-20T09:35:24.683000+00:00</time>
      </trkpt>
      <trkpt lat="0" lon="0">
        <time>2020-12-20T09:35:24.687000+00:00</time>
      </trkpt>
      <trkpt lat="0" lon="0">
        <time>2020-12-20T09:35:24.697000+00:00</time>
      </trkpt>
      <trkpt lat="0" lon="0">
        <time>2020-12-20T09:35:24.712000+00:00</time>
      </trkpt>
      <trkpt lat="47.33942" lon="-1.27277">
        <ele>60</ele>
        <time>2020-12-20T09:35:25.672000+00:00</time>
      </trkpt>
      <trkpt lat="0" lon="0">
        <time>2020-12-20T09:35:25.674000+00:00</time>
      </trkpt>
      <trkpt lat="0" lon="0">
        <time>2020-12-20T09:35:25.677000+00:00</time>
      </trkpt>
      <trkpt lat="0" lon="0">
        <time>2020-12-20T09:35:25.678000+00:00</time>
      </trkpt>
      <trkpt lat="47.33942" lon="-1.27279">
        <ele>61</ele>
        <time>2020-12-20T09:35:26.687000+00:00</time>
      </trkpt>
      <trkpt lat="0" lon="0">
        <time>2020-12-20T09:35:26.696000+00:00</time>
      </trkpt>
      <trkpt lat="0" lon="0">
        <time>2020-12-20T09:35:26.697000+00:00</time>
      </trkpt>
      <trkpt lat="0" lon="0">
        <time>2020-12-20T09:35:26.698000+00:00</time>
      </trkpt>
      <trkpt lat="47.33943" lon="-1.27282">
        <ele>60</ele>
        <time>2020-12-20T09:35:27.692000+00:00</time>
      </trkpt>
      <trkpt lat="0" lon="0">
        <time>2020-12-20T09:35:27.703000+00:00</time>
      </trkpt>
      <trkpt lat="0" lon="0">
        <time>2020-12-20T09:35:27.706000+00:00</time>
      </trkpt>
      <trkpt lat="0" lon="0">
        <time>2020-12-20T09:35:27.709000+00:00</time>
      </trkpt>
      <trkpt lat="47.33944" lon="-1.27284">
        <ele>60</ele>
        <time>2020-12-20T09:35:28.667000+00:00</time>
      </trkpt>
      <trkpt lat="0" lon="0">
        <time>2020-12-20T09:35:28.675000+00:00</time>
      </trkpt>
      <trkpt lat="0" lon="0">
        <time>2020-12-20T09:35:28.676000+00:00</time>
      </trkpt>
      <trkpt lat="47.33946" lon="-1.27287">
        <ele>61</ele>
        <time>2020-12-20T09:35:29.682000+00:00</time>
      </trkpt>
      <trkpt lat="0" lon="0">
        <time>2020-12-20T09:35:29.690000+00:00</time>
      </trkpt>
      <trkpt lat="0" lon="0">
        <time>2020-12-20T09:35:29.692000+00:00</time>
      </trkpt>
      <trkpt lat="0" lon="0">
        <time>2020-12-20T09:35:29.694000+00:00</time>
      </trkpt>
      <trkpt lat="47.33947" lon="-1.27289">
        <ele>61</ele>
        <time>2020-12-20T09:35:30.692000+00:00</time>
      </trkpt>
      <trkpt lat="0" lon="0">
        <time>2020-12-20T09:35:30.702000+00:00</time>
      </trkpt>
      <trkpt lat="0" lon="0">
        <time>2020-12-20T09:35:30.707000+00:00</time>
      </trkpt>
      <trkpt lat="0" lon="0">
        <time>2020-12-20T09:35:30.709000+00:00</time>
      </trkpt>
      <trkpt lat="47.33948" lon="-1.27292">
        <ele>61</ele>
        <time>2020-12-20T09:35:31.717000+00:00</time>
      </trkpt>
      <trkpt lat="0" lon="0">
        <time>2020-12-20T09:35:31.725000+00:00</time>
      </trkpt>
      <trkpt lat="0" lon="0">
        <time>2020-12-20T09:35:31.728000+00:00</time>
      </trkpt>
      <trkpt lat="0" lon="0">
        <time>2020-12-20T09:35:31.733000+00:00</time>
      </trkpt>
      <trkpt lat="47.33949" lon="-1.27295">
        <ele>61</ele>
        <time>2020-12-20T09:35:32.693000+00:00</time>
      </trkpt>
      <trkpt lat="0" lon="0">
        <time>2020-12-20T09:35:32.697000+00:00</time>
      </trkpt>
      <trkpt lat="0" lon="0">
        <time>2020-12-20T09:35:32.707000+00:00</time>
      </trkpt>
      <trkpt lat="0" lon="0">
        <time>2020-12-20T09:35:32.710000+00:00</time>
      </trkpt>
      <trkpt lat="47.3395" lon="-1.27298">
        <ele>61</ele>
        <time>2020-12-20T09:35:33.656000+00:00</time>
      </trkpt>
      <trkpt lat="0" lon="0">
        <time>2020-12-20T09:35:33.659000+00:00</time>
      </trkpt>
      <trkpt lat="0" lon="0">
        <time>2020-12-20T09:35:33.661000+00:00</time>
      </trkpt>
      <trkpt lat="0" lon="0">
        <time>2020-12-20T09:35:33.662000+00:00</time>
      </trkpt>
      <trkpt lat="47.33951" lon="-1.273">
        <ele>62</ele>
        <time>2020-12-20T09:35:34.713000+00:00</time>
      </trkpt>
      <trkpt lat="0" lon="0">
        <time>2020-12-20T09:35:34.721000+00:00</time>
      </trkpt>
      <trkpt lat="0" lon="0">
        <time>2020-12-20T09:35:34.728000+00:00</time>
      </trkpt>
      <trkpt lat="0" lon="0">
        <time>2020-12-20T09:35:34.729000+00:00</time>
      </trkpt>
      <trkpt lat="47.33951" lon="-1.27303">
        <ele>62</ele>
        <time>2020-12-20T09:35:35.719000+00:00</time>
      </trkpt>
      <trkpt lat="0" lon="0">
        <time>2020-12-20T09:35:35.725000+00:00</time>
      </trkpt>
      <trkpt lat="0" lon="0">
        <time>2020-12-20T09:35:35.730000+00:00</time>
      </trkpt>
      <trkpt lat="0" lon="0">
        <time>2020-12-20T09:35:35.736000+00:00</time>
      </trkpt>
      <trkpt lat="47.33952" lon="-1.27306">
        <ele>62</ele>
        <time>2020-12-20T09:35:36.705000+00:00</time>
      </trkpt>
      <trkpt lat="0" lon="0">
        <time>2020-12-20T09:35:36.711000+00:00</time>
      </trkpt>
      <trkpt lat="0" lon="0">
        <time>2020-12-20T09:35:36.717000+00:00</time>
      </trkpt>
      <trkpt lat="0" lon="0">
        <time>2020-12-20T09:35:36.720000+00:00</time>
      </trkpt>
      <trkpt lat="47.33952" lon="-1.27309">
        <ele>62</ele>
        <time>2020-12-20T09:35:37.694000+00:00</time>
      </trkpt>
      <trkpt lat="0" lon="0">
        <time>2020-12-20T09:35:37.695000+00:00</time>
      </trkpt>
      <trkpt lat="0" lon="0">
        <time>2020-12-20T09:35:37.697000+00:00</time>
      </trkpt>
      <trkpt lat="0" lon="0">
        <time>2020-12-20T09:35:37.698000+00:00</time>
      </trkpt>
      <trkpt lat="47.33952" lon="-1.27312">
        <ele>61</ele>
        <time>2020-12-20T09:35:38.696000+00:00</time>
      </trkpt>
      <trkpt lat="0" lon="0">
        <time>2020-12-20T09:35:38.697000+00:00</time>
      </trkpt>
      <trkpt lat="0" lon="0">
        <time>2020-12-20T09:35:38.699000+00:00</time>
      </trkpt>
      <trkpt lat="0" lon="0">
        <time>2020-12-20T09:35:38.703000+00:00</time>
      </trkpt>
      <trkpt lat="47.33952" lon="-1.27316">
        <ele>61</ele>
        <time>2020-12-20T09:35:39.712000+00:00</time>
      </trkpt>
      <trkpt lat="0" lon="0">
        <time>2020-12-20T09:35:39.719000+00:00</time>
      </trkpt>
      <trkpt lat="0" lon="0">
        <time>2020-12-20T09:35:39.721000+00:00</time>
      </trkpt>
      <trkpt lat="0" lon="0">
        <time>2020-12-20T09:35:39.722000+00:00</time>
      </trkpt>
      <trkpt lat="47.33952" lon="-1.27319">
        <ele>61</ele>
        <time>2020-12-20T09:35:40.718000+00:00</time>
      </trkpt>
      <trkpt lat="0" lon="0">
        <time>2020-12-20T09:35:40.722000+00:00</time>
      </trkpt>
      <trkpt lat="0" lon="0">
        <time>2020-12-20T09:35:40.728000+00:00</time>
      </trkpt>
      <trkpt lat="0" lon="0">
        <time>2020-12-20T09:35:40.733000+00:00</time>
      </trkpt>
      <trkpt lat="47.33952" lon="-1.27323">
        <ele>60</ele>
        <time>2020-12-20T09:35:41.718000+00:00</time>
      </trkpt>
      <trkpt lat="0" lon="0">
        <time>2020-12-20T09:35:41.719000+00:00</time>
      </trkpt>
      <trkpt lat="0" lon="0">
        <time>2020-12-20T09:35:41.722000+00:00</time>
      </trkpt>
      <trkpt lat="0" lon="0">
        <time>2020-12-20T09:35:41.723000+00:00</time>
      </trkpt>
      <trkpt lat="47.33953" lon="-1.27328">
        <ele>60</ele>
        <time>2020-12-20T09:35:42.726000+00:00</time>
      </trkpt>
      <trkpt lat="0" lon="0">
        <time>2020-12-20T09:35:42.733000+00:00</time>
      </trkpt>
      <trkpt lat="0" lon="0">
        <time>2020-12-20T09:35:42.738000+00:00</time>
      </trkpt>
      <trkpt lat="0" lon="0">
        <time>2020-12-20T09:35:42.740000+00:00</time>
      </trkpt>
      <trkpt lat="47.33953" lon="-1.27333">
        <ele>60</ele>
        <time>2020-12-20T09:35:43.709000+00:00</time>
      </trkpt>
      <trkpt lat="0" lon="0">
        <time>2020-12-20T09:35:43.711000+00:00</time>
      </trkpt>
      <trkpt lat="0" lon="0">
        <time>2020-12-20T09:35:43.712000+00:00</time>
      </trkpt>
      <trkpt lat="0" lon="0">
        <time>2020-12-20T09:35:43.713000+00:00</time>
      </trkpt>
      <trkpt lat="47.33954" lon="-1.27339">
        <ele>60</ele>
        <time>2020-12-20T09:35:44.725000+00:00</time>
      </trkpt>
      <trkpt lat="0" lon="0">
        <time>2020-12-20T09:35:44.735000+00:00</time>
      </trkpt>
      <trkpt lat="0" lon="0">
        <time>2020-12-20T09:35:44.738000+00:00</time>
      </trkpt>
      <trkpt lat="0" lon="0">
        <time>2020-12-20T09:35:44.741000+00:00</time>
      </trkpt>
      <trkpt lat="47.33954" lon="-1.27344">
        <ele>60</ele>
        <time>2020-12-20T09:35:45.696000+00:00</time>
      </trkpt>
      <trkpt lat="0" lon="0">
        <time>2020-12-20T09:35:45.701000+00:00</time>
      </trkpt>
      <trkpt lat="0" lon="0">
        <time>2020-12-20T09:35:45.706000+00:00</time>
      </trkpt>
      <trkpt lat="0" lon="0">
        <time>2020-12-20T09:35:45.708000+00:00</time>
      </trkpt>
      <trkpt lat="47.33953" lon="-1.2735">
        <ele>59</ele>
        <time>2020-12-20T09:35:46.693000+00:00</time>
      </trkpt>
      <trkpt lat="0" lon="0">
        <time>2020-12-20T09:35:46.701000+00:00</time>
      </trkpt>
      <trkpt lat="0" lon="0">
        <time>2020-12-20T09:35:46.708000+00:00</time>
      </trkpt>
      <trkpt lat="0" lon="0">
        <time>2020-12-20T09:35:46.710000+00:00</time>
      </trkpt>
      <trkpt lat="47.33952" lon="-1.27355">
        <ele>59</ele>
        <time>2020-12-20T09:35:47.675000+00:00</time>
      </trkpt>
      <trkpt lat="0" lon="0">
        <time>2020-12-20T09:35:47.680000+00:00</time>
      </trkpt>
      <trkpt lat="0" lon="0">
        <time>2020-12-20T09:35:47.684000+00:00</time>
      </trkpt>
      <trkpt lat="0" lon="0">
        <time>2020-12-20T09:35:47.686000+00:00</time>
      </trkpt>
      <trkpt lat="47.33951" lon="-1.2736">
        <ele>58</ele>
        <time>2020-12-20T09:35:48.677000+00:00</time>
      </trkpt>
      <trkpt lat="0" lon="0">
        <time>2020-12-20T09:35:48.681000+00:00</time>
      </trkpt>
      <trkpt lat="0" lon="0">
        <time>2020-12-20T09:35:48.685000+00:00</time>
      </trkpt>
      <trkpt lat="0" lon="0">
        <time>2020-12-20T09:35:48.688000+00:00</time>
      </trkpt>
      <trkpt lat="47.3395" lon="-1.27365">
        <ele>58</ele>
        <time>2020-12-20T09:35:49.717000+00:00</time>
      </trkpt>
      <trkpt lat="0" lon="0">
        <time>2020-12-20T09:35:49.722000+00:00</time>
      </trkpt>
      <trkpt lat="0" lon="0">
        <time>2020-12-20T09:35:49.724000+00:00</time>
      </trkpt>
      <trkpt lat="0" lon="0">
        <time>2020-12-20T09:35:49.725000+00:00</time>
      </trkpt>
      <trkpt lat="47.33948" lon="-1.2737">
        <ele>58</ele>
        <time>2020-12-20T09:35:50.722000+00:00</time>
      </trkpt>
      <trkpt lat="0" lon="0">
        <time>2020-12-20T09:35:50.731000+00:00</time>
      </trkpt>
      <trkpt lat="0" lon="0">
        <time>2020-12-20T09:35:50.734000+00:00</time>
      </trkpt>
      <trkpt lat="0" lon="0">
        <time>2020-12-20T09:35:50.736000+00:00</time>
      </trkpt>
      <trkpt lat="47.33947" lon="-1.27375">
        <ele>57</ele>
        <time>2020-12-20T09:35:51.711000+00:00</time>
      </trkpt>
      <trkpt lat="0" lon="0">
        <time>2020-12-20T09:35:51.717000+00:00</time>
      </trkpt>
      <trkpt lat="0" lon="0">
        <time>2020-12-20T09:35:51.719000+00:00</time>
      </trkpt>
      <trkpt lat="0" lon="0">
        <time>2020-12-20T09:35:51.720000+00:00</time>
      </trkpt>
      <trkpt lat="47.33945" lon="-1.27379">
        <ele>57</ele>
        <time>2020-12-20T09:35:52.681000+00:00</time>
      </trkpt>
      <trkpt lat="0" lon="0">
        <time>2020-12-20T09:35:52.685000+00:00</time>
      </trkpt>
      <trkpt lat="0" lon="0">
        <time>2020-12-20T09:35:52.695000+00:00</time>
      </trkpt>
      <trkpt lat="0" lon="0">
        <time>2020-12-20T09:35:52.699000+00:00</time>
      </trkpt>
      <trkpt lat="47.33942" lon="-1.27383">
        <ele>56</ele>
        <time>2020-12-20T09:35:53.713000+00:00</time>
      </trkpt>
      <trkpt lat="0" lon="0">
        <time>2020-12-20T09:35:53.718000+00:00</time>
      </trkpt>
      <trkpt lat="0" lon="0">
        <time>2020-12-20T09:35:53.720000+00:00</time>
      </trkpt>
      <trkpt lat="0" lon="0">
        <time>2020-12-20T09:35:53.722000+00:00</time>
      </trkpt>
      <trkpt lat="47.3394" lon="-1.27387">
        <ele>56</ele>
        <time>2020-12-20T09:35:54.707000+00:00</time>
      </trkpt>
      <trkpt lat="0" lon="0">
        <time>2020-12-20T09:35:54.709000+00:00</time>
      </trkpt>
      <trkpt lat="0" lon="0">
        <time>2020-12-20T09:35:54.711000+00:00</time>
      </trkpt>
      <trkpt lat="0" lon="0">
        <time>2020-12-20T09:35:54.712000+00:00</time>
      </trkpt>
      <trkpt lat="47.33937" lon="-1.27392">
        <ele>56</ele>
        <time>2020-12-20T09:35:55.731000+00:00</time>
      </trkpt>
      <trkpt lat="0" lon="0">
        <time>2020-12-20T09:35:55.733000+00:00</time>
      </trkpt>
      <trkpt lat="0" lon="0">
        <time>2020-12-20T09:35:55.735000+00:00</time>
      </trkpt>
      <trkpt lat="0" lon="0">
        <time>2020-12-20T09:35:55.736000+00:00</time>
      </trkpt>
      <trkpt lat="47.33934" lon="-1.27396">
        <ele>56</ele>
        <time>2020-12-20T09:35:56.694000+00:00</time>
      </trkpt>
      <trkpt lat="0" lon="0">
        <time>2020-12-20T09:35:56.706000+00:00</time>
      </trkpt>
      <trkpt lat="0" lon="0">
        <time>2020-12-20T09:35:56.710000+00:00</time>
      </trkpt>
      <trkpt lat="0" lon="0">
        <time>2020-12-20T09:35:56.713000+00:00</time>
      </trkpt>
      <trkpt lat="47.33932" lon="-1.27401">
        <ele>55</ele>
        <time>2020-12-20T09:35:57.693000+00:00</time>
      </trkpt>
      <trkpt lat="0" lon="0">
        <time>2020-12-20T09:35:57.699000+00:00</time>
      </trkpt>
      <trkpt lat="0" lon="0">
        <time>2020-12-20T09:35:57.702000+00:00</time>
      </trkpt>
      <trkpt lat="0" lon="0">
        <time>2020-12-20T09:35:57.706000+00:00</time>
      </trkpt>
      <trkpt lat="47.33929" lon="-1.27405">
        <ele>55</ele>
        <time>2020-12-20T09:35:58.690000+00:00</time>
      </trkpt>
      <trkpt lat="0" lon="0">
        <time>2020-12-20T09:35:58.697000+00:00</time>
      </trkpt>
      <trkpt lat="0" lon="0">
        <time>2020-12-20T09:35:58.699000+00:00</time>
      </trkpt>
      <trkpt lat="0" lon="0">
        <time>2020-12-20T09:35:58.701000+00:00</time>
      </trkpt>
      <trkpt lat="47.33927" lon="-1.27409">
        <ele>56</ele>
        <time>2020-12-20T09:35:59.694000+00:00</time>
      </trkpt>
      <trkpt lat="0" lon="0">
        <time>2020-12-20T09:35:59.696000+00:00</time>
      </trkpt>
      <trkpt lat="0" lon="0">
        <time>2020-12-20T09:35:59.698000+00:00</time>
      </trkpt>
      <trkpt lat="0" lon="0">
        <time>2020-12-20T09:35:59.699000+00:00</time>
      </trkpt>
      <trkpt lat="47.33925" lon="-1.27412">
        <ele>56</ele>
        <time>2020-12-20T09:36:00.717000+00:00</time>
      </trkpt>
      <trkpt lat="0" lon="0">
        <time>2020-12-20T09:36:00.729000+00:00</time>
      </trkpt>
      <trkpt lat="0" lon="0">
        <time>2020-12-20T09:36:00.732000+00:00</time>
      </trkpt>
      <trkpt lat="0" lon="0">
        <time>2020-12-20T09:36:00.734000+00:00</time>
      </trkpt>
      <trkpt lat="47.33924" lon="-1.27415">
        <ele>56</ele>
        <time>2020-12-20T09:36:01.684000+00:00</time>
      </trkpt>
      <trkpt lat="0" lon="0">
        <time>2020-12-20T09:36:01.686000+00:00</time>
      </trkpt>
      <trkpt lat="0" lon="0">
        <time>2020-12-20T09:36:01.688000+00:00</time>
      </trkpt>
      <trkpt lat="47.33922" lon="-1.27418">
        <ele>56</ele>
        <time>2020-12-20T09:36:02.696000+00:00</time>
      </trkpt>
      <trkpt lat="0" lon="0">
        <time>2020-12-20T09:36:02.703000+00:00</time>
      </trkpt>
      <trkpt lat="0" lon="0">
        <time>2020-12-20T09:36:02.707000+00:00</time>
      </trkpt>
      <trkpt lat="0" lon="0">
        <time>2020-12-20T09:36:02.710000+00:00</time>
      </trkpt>
      <trkpt lat="47.33921" lon="-1.27421">
        <ele>55</ele>
        <time>2020-12-20T09:36:03.719000+00:00</time>
      </trkpt>
      <trkpt lat="0" lon="0">
        <time>2020-12-20T09:36:03.725000+00:00</time>
      </trkpt>
      <trkpt lat="0" lon="0">
        <time>2020-12-20T09:36:03.729000+00:00</time>
      </trkpt>
      <trkpt lat="0" lon="0">
        <time>2020-12-20T09:36:03.731000+00:00</time>
      </trkpt>
      <trkpt lat="47.3392" lon="-1.27423">
        <ele>54</ele>
        <time>2020-12-20T09:36:04.692000+00:00</time>
      </trkpt>
      <trkpt lat="0" lon="0">
        <time>2020-12-20T09:36:04.696000+00:00</time>
      </trkpt>
      <trkpt lat="0" lon="0">
        <time>2020-12-20T09:36:04.705000+00:00</time>
      </trkpt>
      <trkpt lat="0" lon="0">
        <time>2020-12-20T09:36:04.709000+00:00</time>
      </trkpt>
      <trkpt lat="47.33919" lon="-1.27426">
        <ele>54</ele>
        <time>2020-12-20T09:36:05.695000+00:00</time>
      </trkpt>
      <trkpt lat="0" lon="0">
        <time>2020-12-20T09:36:05.698000+00:00</time>
      </trkpt>
      <trkpt lat="0" lon="0">
        <time>2020-12-20T09:36:05.710000+00:00</time>
      </trkpt>
      <trkpt lat="0" lon="0">
        <time>2020-12-20T09:36:05.712000+00:00</time>
      </trkpt>
      <trkpt lat="47.33919" lon="-1.27428">
        <ele>54</ele>
        <time>2020-12-20T09:36:06.708000+00:00</time>
      </trkpt>
      <trkpt lat="0" lon="0">
        <time>2020-12-20T09:36:06.714000+00:00</time>
      </trkpt>
      <trkpt lat="0" lon="0">
        <time>2020-12-20T09:36:06.716000+00:00</time>
      </trkpt>
      <trkpt lat="0" lon="0">
        <time>2020-12-20T09:36:06.718000+00:00</time>
      </trkpt>
      <trkpt lat="47.33918" lon="-1.2743">
        <ele>54</ele>
        <time>2020-12-20T09:36:07.720000+00:00</time>
      </trkpt>
      <trkpt lat="0" lon="0">
        <time>2020-12-20T09:36:07.722000+00:00</time>
      </trkpt>
      <trkpt lat="0" lon="0">
        <time>2020-12-20T09:36:07.724000+00:00</time>
      </trkpt>
      <trkpt lat="0" lon="0">
        <time>2020-12-20T09:36:07.725000+00:00</time>
      </trkpt>
      <trkpt lat="47.33919" lon="-1.27431">
        <ele>54</ele>
        <time>2020-12-20T09:36:08.700000+00:00</time>
      </trkpt>
      <trkpt lat="0" lon="0">
        <time>2020-12-20T09:36:08.711000+00:00</time>
      </trkpt>
      <trkpt lat="0" lon="0">
        <time>2020-12-20T09:36:08.713000+00:00</time>
      </trkpt>
      <trkpt lat="0" lon="0">
        <time>2020-12-20T09:36:08.715000+00:00</time>
      </trkpt>
      <trkpt lat="47.33919" lon="-1.27433">
        <ele>54</ele>
        <time>2020-12-20T09:36:09.701000+00:00</time>
      </trkpt>
      <trkpt lat="0" lon="0">
        <time>2020-12-20T09:36:09.715000+00:00</time>
      </trkpt>
      <trkpt lat="0" lon="0">
        <time>2020-12-20T09:36:09.722000+00:00</time>
      </trkpt>
      <trkpt lat="0" lon="0">
        <time>2020-12-20T09:36:09.724000+00:00</time>
      </trkpt>
      <trkpt lat="47.33919" lon="-1.27435">
        <ele>53</ele>
        <time>2020-12-20T09:36:10.688000+00:00</time>
      </trkpt>
      <trkpt lat="0" lon="0">
        <time>2020-12-20T09:36:10.697000+00:00</time>
      </trkpt>
      <trkpt lat="0" lon="0">
        <time>2020-12-20T09:36:10.699000+00:00</time>
      </trkpt>
      <trkpt lat="0" lon="0">
        <time>2020-12-20T09:36:10.701000+00:00</time>
      </trkpt>
      <trkpt lat="47.3392" lon="-1.27436">
        <ele>54</ele>
        <time>2020-12-20T09:36:11.682000+00:00</time>
      </trkpt>
      <trkpt lat="0" lon="0">
        <time>2020-12-20T09:36:11.691000+00:00</time>
      </trkpt>
      <trkpt lat="0" lon="0">
        <time>2020-12-20T09:36:11.697000+00:00</time>
      </trkpt>
      <trkpt lat="0" lon="0">
        <time>2020-12-20T09:36:11.698000+00:00</time>
      </trkpt>
      <trkpt lat="47.33921" lon="-1.27437">
        <ele>53</ele>
        <time>2020-12-20T09:36:12.697000+00:00</time>
      </trkpt>
      <trkpt lat="0" lon="0">
        <time>2020-12-20T09:36:12.701000+00:00</time>
      </trkpt>
      <trkpt lat="0" lon="0">
        <time>2020-12-20T09:36:12.708000+00:00</time>
      </trkpt>
      <trkpt lat="0" lon="0">
        <time>2020-12-20T09:36:12.711000+00:00</time>
      </trkpt>
      <trkpt lat="47.33921" lon="-1.27438">
        <ele>54</ele>
        <time>2020-12-20T09:36:13.716000+00:00</time>
      </trkpt>
      <trkpt lat="0" lon="0">
        <time>2020-12-20T09:36:13.718000+00:00</time>
      </trkpt>
      <trkpt lat="0" lon="0">
        <time>2020-12-20T09:36:13.721000+00:00</time>
      </trkpt>
      <trkpt lat="0" lon="0">
        <time>2020-12-20T09:36:13.722000+00:00</time>
      </trkpt>
      <trkpt lat="47.33922" lon="-1.27439">
        <ele>54</ele>
        <time>2020-12-20T09:36:14.691000+00:00</time>
      </trkpt>
      <trkpt lat="0" lon="0">
        <time>2020-12-20T09:36:14.694000+00:00</time>
      </trkpt>
      <trkpt lat="0" lon="0">
        <time>2020-12-20T09:36:14.701000+00:00</time>
      </trkpt>
      <trkpt lat="0" lon="0">
        <time>2020-12-20T09:36:14.703000+00:00</time>
      </trkpt>
      <trkpt lat="47.33922" lon="-1.2744">
        <ele>53</ele>
        <time>2020-12-20T09:36:15.674000+00:00</time>
      </trkpt>
      <trkpt lat="0" lon="0">
        <time>2020-12-20T09:36:15.680000+00:00</time>
      </trkpt>
      <trkpt lat="0" lon="0">
        <time>2020-12-20T09:36:15.689000+00:00</time>
      </trkpt>
      <trkpt lat="0" lon="0">
        <time>2020-12-20T09:36:15.698000+00:00</time>
      </trkpt>
      <trkpt lat="47.33922" lon="-1.27441">
        <ele>53</ele>
        <time>2020-12-20T09:36:16.696000+00:00</time>
      </trkpt>
      <trkpt lat="0" lon="0">
        <time>2020-12-20T09:36:16.702000+00:00</time>
      </trkpt>
      <trkpt lat="0" lon="0">
        <time>2020-12-20T09:36:16.704000+00:00</time>
      </trkpt>
      <trkpt lat="0" lon="0">
        <time>2020-12-20T09:36:16.705000+00:00</time>
      </trkpt>
      <trkpt lat="47.33922" lon="-1.27443">
        <ele>54</ele>
        <time>2020-12-20T09:36:17.689000+00:00</time>
      </trkpt>
      <trkpt lat="0" lon="0">
        <time>2020-12-20T09:36:17.694000+00:00</time>
      </trkpt>
      <trkpt lat="0" lon="0">
        <time>2020-12-20T09:36:17.696000+00:00</time>
      </trkpt>
      <trkpt lat="0" lon="0">
        <time>2020-12-20T09:36:17.697000+00:00</time>
      </trkpt>
      <trkpt lat="47.33922" lon="-1.27444">
        <ele>54</ele>
        <time>2020-12-20T09:36:18.706000+00:00</time>
      </trkpt>
      <trkpt lat="0" lon="0">
        <time>2020-12-20T09:36:18.718000+00:00</time>
      </trkpt>
      <trkpt lat="0" lon="0">
        <time>2020-12-20T09:36:18.725000+00:00</time>
      </trkpt>
      <trkpt lat="0" lon="0">
        <time>2020-12-20T09:36:18.727000+00:00</time>
      </trkpt>
      <trkpt lat="47.33923" lon="-1.27446">
        <ele>54</ele>
        <time>2020-12-20T09:36:19.680000+00:00</time>
      </trkpt>
      <trkpt lat="0" lon="0">
        <time>2020-12-20T09:36:19.686000+00:00</time>
      </trkpt>
      <trkpt lat="0" lon="0">
        <time>2020-12-20T09:36:19.688000+00:00</time>
      </trkpt>
      <trkpt lat="0" lon="0">
        <time>2020-12-20T09:36:19.689000+00:00</time>
      </trkpt>
      <trkpt lat="47.33923" lon="-1.27448">
        <ele>54</ele>
        <time>2020-12-20T09:36:20.693000+00:00</time>
      </trkpt>
      <trkpt lat="0" lon="0">
        <time>2020-12-20T09:36:20.698000+00:00</time>
      </trkpt>
      <trkpt lat="0" lon="0">
        <time>2020-12-20T09:36:20.701000+00:00</time>
      </trkpt>
      <trkpt lat="0" lon="0">
        <time>2020-12-20T09:36:20.703000+00:00</time>
      </trkpt>
      <trkpt lat="47.33922" lon="-1.2745">
        <ele>55</ele>
        <time>2020-12-20T09:36:21.677000+00:00</time>
      </trkpt>
      <trkpt lat="0" lon="0">
        <time>2020-12-20T09:36:21.687000+00:00</time>
      </trkpt>
      <trkpt lat="0" lon="0">
        <time>2020-12-20T09:36:21.688000+00:00</time>
      </trkpt>
      <trkpt lat="0" lon="0">
        <time>2020-12-20T09:36:21.689000+00:00</time>
      </trkpt>
      <trkpt lat="47.33922" lon="-1.27451">
        <ele>55</ele>
        <time>2020-12-20T09:36:22.676000+00:00</time>
      </trkpt>
      <trkpt lat="0" lon="0">
        <time>2020-12-20T09:36:22.680000+00:00</time>
      </trkpt>
      <trkpt lat="0" lon="0">
        <time>2020-12-20T09:36:22.687000+00:00</time>
      </trkpt>
      <trkpt lat="0" lon="0">
        <time>2020-12-20T09:36:22.690000+00:00</time>
      </trkpt>
      <trkpt lat="47.33922" lon="-1.27453">
        <ele>55</ele>
        <time>2020-12-20T09:36:23.685000+00:00</time>
      </trkpt>
      <trkpt lat="0" lon="0">
        <time>2020-12-20T09:36:23.701000+00:00</time>
      </trkpt>
      <trkpt lat="0" lon="0">
        <time>2020-12-20T09:36:23.710000+00:00</time>
      </trkpt>
      <trkpt lat="0" lon="0">
        <time>2020-12-20T09:36:23.711000+00:00</time>
      </trkpt>
      <trkpt lat="47.33922" lon="-1.27455">
        <ele>56</ele>
        <time>2020-12-20T09:36:24.728000+00:00</time>
      </trkpt>
      <trkpt lat="0" lon="0">
        <time>2020-12-20T09:36:24.745000+00:00</time>
      </trkpt>
      <trkpt lat="0" lon="0">
        <time>2020-12-20T09:36:24.750000+00:00</time>
      </trkpt>
      <trkpt lat="0" lon="0">
        <time>2020-12-20T09:36:24.755000+00:00</time>
      </trkpt>
      <trkpt lat="47.33922" lon="-1.27457">
        <ele>56</ele>
        <time>2020-12-20T09:36:25.711000+00:00</time>
      </trkpt>
      <trkpt lat="0" lon="0">
        <time>2020-12-20T09:36:25.720000+00:00</time>
      </trkpt>
      <trkpt lat="0" lon="0">
        <time>2020-12-20T09:36:25.724000+00:00</time>
      </trkpt>
      <trkpt lat="0" lon="0">
        <time>2020-12-20T09:36:25.726000+00:00</time>
      </trkpt>
      <trkpt lat="47.33922" lon="-1.27459">
        <ele>56</ele>
        <time>2020-12-20T09:36:26.695000+00:00</time>
      </trkpt>
      <trkpt lat="0" lon="0">
        <time>2020-12-20T09:36:26.701000+00:00</time>
      </trkpt>
      <trkpt lat="0" lon="0">
        <time>2020-12-20T09:36:26.712000+00:00</time>
      </trkpt>
      <trkpt lat="0" lon="0">
        <time>2020-12-20T09:36:26.714000+00:00</time>
      </trkpt>
      <trkpt lat="47.33921" lon="-1.27462">
        <ele>56</ele>
        <time>2020-12-20T09:36:27.695000+00:00</time>
      </trkpt>
      <trkpt lat="0" lon="0">
        <time>2020-12-20T09:36:27.699000+00:00</time>
      </trkpt>
      <trkpt lat="0" lon="0">
        <time>2020-12-20T09:36:27.704000+00:00</time>
      </trkpt>
      <trkpt lat="0" lon="0">
        <time>2020-12-20T09:36:27.706000+00:00</time>
      </trkpt>
      <trkpt lat="47.33921" lon="-1.27464">
        <ele>56</ele>
        <time>2020-12-20T09:36:28.695000+00:00</time>
      </trkpt>
      <trkpt lat="0" lon="0">
        <time>2020-12-20T09:36:28.704000+00:00</time>
      </trkpt>
      <trkpt lat="0" lon="0">
        <time>2020-12-20T09:36:28.705000+00:00</time>
      </trkpt>
      <trkpt lat="0" lon="0">
        <time>2020-12-20T09:36:28.706000+00:00</time>
      </trkpt>
      <trkpt lat="47.33921" lon="-1.27467">
        <ele>57</ele>
        <time>2020-12-20T09:36:29.710000+00:00</time>
      </trkpt>
      <trkpt lat="0" lon="0">
        <time>2020-12-20T09:36:29.721000+00:00</time>
      </trkpt>
      <trkpt lat="0" lon="0">
        <time>2020-12-20T09:36:29.728000+00:00</time>
      </trkpt>
      <trkpt lat="0" lon="0">
        <time>2020-12-20T09:36:29.730000+00:00</time>
      </trkpt>
      <trkpt lat="47.3392" lon="-1.2747">
        <ele>57</ele>
        <time>2020-12-20T09:36:30.685000+00:00</time>
      </trkpt>
      <trkpt lat="0" lon="0">
        <time>2020-12-20T09:36:30.695000+00:00</time>
      </trkpt>
      <trkpt lat="0" lon="0">
        <time>2020-12-20T09:36:30.711000+00:00</time>
      </trkpt>
      <trkpt lat="0" lon="0">
        <time>2020-12-20T09:36:30.713000+00:00</time>
      </trkpt>
      <trkpt lat="47.3392" lon="-1.27473">
        <ele>57</ele>
        <time>2020-12-20T09:36:31.705000+00:00</time>
      </trkpt>
      <trkpt lat="0" lon="0">
        <time>2020-12-20T09:36:31.713000+00:00</time>
      </trkpt>
      <trkpt lat="0" lon="0">
        <time>2020-12-20T09:36:31.718000+00:00</time>
      </trkpt>
      <trkpt lat="0" lon="0">
        <time>2020-12-20T09:36:31.720000+00:00</time>
      </trkpt>
      <trkpt lat="47.3392" lon="-1.27477">
        <ele>57</ele>
        <time>2020-12-20T09:36:32.725000+00:00</time>
      </trkpt>
      <trkpt lat="0" lon="0">
        <time>2020-12-20T09:36:32.733000+00:00</time>
      </trkpt>
      <trkpt lat="0" lon="0">
        <time>2020-12-20T09:36:32.736000+00:00</time>
      </trkpt>
      <trkpt lat="0" lon="0">
        <time>2020-12-20T09:36:32.739000+00:00</time>
      </trkpt>
      <trkpt lat="47.33919" lon="-1.27481">
        <ele>57</ele>
        <time>2020-12-20T09:36:33.726000+00:00</time>
      </trkpt>
      <trkpt lat="0" lon="0">
        <time>2020-12-20T09:36:33.744000+00:00</time>
      </trkpt>
      <trkpt lat="0" lon="0">
        <time>2020-12-20T09:36:33.749000+00:00</time>
      </trkpt>
      <trkpt lat="0" lon="0">
        <time>2020-12-20T09:36:33.751000+00:00</time>
      </trkpt>
      <trkpt lat="47.33919" lon="-1.27485">
        <ele>57</ele>
        <time>2020-12-20T09:36:34.688000+00:00</time>
      </trkpt>
      <trkpt lat="0" lon="0">
        <time>2020-12-20T09:36:34.690000+00:00</time>
      </trkpt>
      <trkpt lat="0" lon="0">
        <time>2020-12-20T09:36:34.692000+00:00</time>
      </trkpt>
      <trkpt lat="0" lon="0">
        <time>2020-12-20T09:36:34.694000+00:00</time>
      </trkpt>
      <trkpt lat="47.33918" lon="-1.27489">
        <ele>57</ele>
        <time>2020-12-20T09:36:35.716000+00:00</time>
      </trkpt>
      <trkpt lat="0" lon="0">
        <time>2020-12-20T09:36:35.725000+00:00</time>
      </trkpt>
      <trkpt lat="0" lon="0">
        <time>2020-12-20T09:36:35.726000+00:00</time>
      </trkpt>
      <trkpt lat="0" lon="0">
        <time>2020-12-20T09:36:35.727000+00:00</time>
      </trkpt>
      <trkpt lat="47.33918" lon="-1.27493">
        <ele>57</ele>
        <time>2020-12-20T09:36:36.709000+00:00</time>
      </trkpt>
      <trkpt lat="0" lon="0">
        <time>2020-12-20T09:36:36.714000+00:00</time>
      </trkpt>
      <trkpt lat="0" lon="0">
        <time>2020-12-20T09:36:36.719000+00:00</time>
      </trkpt>
      <trkpt lat="0" lon="0">
        <time>2020-12-20T09:36:36.723000+00:00</time>
      </trkpt>
      <trkpt lat="47.33917" lon="-1.27498">
        <ele>57</ele>
        <time>2020-12-20T09:36:37.738000+00:00</time>
      </trkpt>
      <trkpt lat="0" lon="0">
        <time>2020-12-20T09:36:37.742000+00:00</time>
      </trkpt>
      <trkpt lat="0" lon="0">
        <time>2020-12-20T09:36:37.749000+00:00</time>
      </trkpt>
      <trkpt lat="0" lon="0">
        <time>2020-12-20T09:36:37.751000+00:00</time>
      </trkpt>
      <trkpt lat="47.33916" lon="-1.27502">
        <ele>57</ele>
        <time>2020-12-20T09:36:38.716000+00:00</time>
      </trkpt>
      <trkpt lat="0" lon="0">
        <time>2020-12-20T09:36:38.725000+00:00</time>
      </trkpt>
      <trkpt lat="0" lon="0">
        <time>2020-12-20T09:36:38.729000+00:00</time>
      </trkpt>
      <trkpt lat="0" lon="0">
        <time>2020-12-20T09:36:38.730000+00:00</time>
      </trkpt>
      <trkpt lat="47.33915" lon="-1.27507">
        <ele>57</ele>
        <time>2020-12-20T09:36:39.704000+00:00</time>
      </trkpt>
      <trkpt lat="0" lon="0">
        <time>2020-12-20T09:36:39.718000+00:00</time>
      </trkpt>
      <trkpt lat="0" lon="0">
        <time>2020-12-20T09:36:39.719000+00:00</time>
      </trkpt>
      <trkpt lat="0" lon="0">
        <time>2020-12-20T09:36:39.720000+00:00</time>
      </trkpt>
      <trkpt lat="47.33914" lon="-1.27511">
        <ele>57</ele>
        <time>2020-12-20T09:36:40.678000+00:00</time>
      </trkpt>
      <trkpt lat="0" lon="0">
        <time>2020-12-20T09:36:40.681000+00:00</time>
      </trkpt>
      <trkpt lat="0" lon="0">
        <time>2020-12-20T09:36:40.683000+00:00</time>
      </trkpt>
      <trkpt lat="0" lon="0">
        <time>2020-12-20T09:36:40.684000+00:00</time>
      </trkpt>
      <trkpt lat="47.33913" lon="-1.27516">
        <ele>58</ele>
        <time>2020-12-20T09:36:41.747000+00:00</time>
      </trkpt>
      <trkpt lat="0" lon="0">
        <time>2020-12-20T09:36:41.755000+00:00</time>
      </trkpt>
      <trkpt lat="0" lon="0">
        <time>2020-12-20T09:36:41.757000+00:00</time>
      </trkpt>
      <trkpt lat="0" lon="0">
        <time>2020-12-20T09:36:41.759000+00:00</time>
      </trkpt>
      <trkpt lat="47.33912" lon="-1.2752">
        <ele>58</ele>
        <time>2020-12-20T09:36:42.729000+00:00</time>
      </trkpt>
      <trkpt lat="0" lon="0">
        <time>2020-12-20T09:36:42.742000+00:00</time>
      </trkpt>
      <trkpt lat="0" lon="0">
        <time>2020-12-20T09:36:42.744000+00:00</time>
      </trkpt>
      <trkpt lat="0" lon="0">
        <time>2020-12-20T09:36:42.746000+00:00</time>
      </trkpt>
      <trkpt lat="47.33912" lon="-1.27524">
        <ele>58</ele>
        <time>2020-12-20T09:36:43.685000+00:00</time>
      </trkpt>
      <trkpt lat="0" lon="0">
        <time>2020-12-20T09:36:43.693000+00:00</time>
      </trkpt>
      <trkpt lat="0" lon="0">
        <time>2020-12-20T09:36:43.694000+00:00</time>
      </trkpt>
      <trkpt lat="0" lon="0">
        <time>2020-12-20T09:36:43.696000+00:00</time>
      </trkpt>
      <trkpt lat="47.33912" lon="-1.27528">
        <ele>58</ele>
        <time>2020-12-20T09:36:44.677000+00:00</time>
      </trkpt>
      <trkpt lat="0" lon="0">
        <time>2020-12-20T09:36:44.683000+00:00</time>
      </trkpt>
      <trkpt lat="0" lon="0">
        <time>2020-12-20T09:36:44.686000+00:00</time>
      </trkpt>
      <trkpt lat="0" lon="0">
        <time>2020-12-20T09:36:44.689000+00:00</time>
      </trkpt>
      <trkpt lat="47.33912" lon="-1.27531">
        <ele>58</ele>
        <time>2020-12-20T09:36:45.693000+00:00</time>
      </trkpt>
      <trkpt lat="0" lon="0">
        <time>2020-12-20T09:36:45.696000+00:00</time>
      </trkpt>
      <trkpt lat="0" lon="0">
        <time>2020-12-20T09:36:45.698000+00:00</time>
      </trkpt>
      <trkpt lat="0" lon="0">
        <time>2020-12-20T09:36:45.699000+00:00</time>
      </trkpt>
      <trkpt lat="47.33912" lon="-1.27535">
        <ele>58</ele>
        <time>2020-12-20T09:36:46.713000+00:00</time>
      </trkpt>
      <trkpt lat="0" lon="0">
        <time>2020-12-20T09:36:46.728000+00:00</time>
      </trkpt>
      <trkpt lat="0" lon="0">
        <time>2020-12-20T09:36:46.737000+00:00</time>
      </trkpt>
      <trkpt lat="0" lon="0">
        <time>2020-12-20T09:36:46.739000+00:00</time>
      </trkpt>
      <trkpt lat="47.33913" lon="-1.27538">
        <ele>58</ele>
        <time>2020-12-20T09:36:47.736000+00:00</time>
      </trkpt>
      <trkpt lat="0" lon="0">
        <time>2020-12-20T09:36:47.744000+00:00</time>
      </trkpt>
      <trkpt lat="0" lon="0">
        <time>2020-12-20T09:36:47.745000+00:00</time>
      </trkpt>
      <trkpt lat="0" lon="0">
        <time>2020-12-20T09:36:47.746000+00:00</time>
      </trkpt>
      <trkpt lat="47.33914" lon="-1.27542">
        <ele>58</ele>
        <time>2020-12-20T09:36:48.719000+00:00</time>
      </trkpt>
      <trkpt lat="0" lon="0">
        <time>2020-12-20T09:36:48.731000+00:00</time>
      </trkpt>
      <trkpt lat="0" lon="0">
        <time>2020-12-20T09:36:48.738000+00:00</time>
      </trkpt>
      <trkpt lat="0" lon="0">
        <time>2020-12-20T09:36:48.740000+00:00</time>
      </trkpt>
      <trkpt lat="47.33915" lon="-1.27545">
        <ele>58</ele>
        <time>2020-12-20T09:36:49.705000+00:00</time>
      </trkpt>
      <trkpt lat="0" lon="0">
        <time>2020-12-20T09:36:49.713000+00:00</time>
      </trkpt>
      <trkpt lat="0" lon="0">
        <time>2020-12-20T09:36:49.723000+00:00</time>
      </trkpt>
      <trkpt lat="0" lon="0">
        <time>2020-12-20T09:36:49.728000+00:00</time>
      </trkpt>
      <trkpt lat="47.33917" lon="-1.27548">
        <ele>58</ele>
        <time>2020-12-20T09:36:50.726000+00:00</time>
      </trkpt>
      <trkpt lat="0" lon="0">
        <time>2020-12-20T09:36:50.738000+00:00</time>
      </trkpt>
      <trkpt lat="0" lon="0">
        <time>2020-12-20T09:36:50.747000+00:00</time>
      </trkpt>
      <trkpt lat="0" lon="0">
        <time>2020-12-20T09:36:50.749000+00:00</time>
      </trkpt>
      <trkpt lat="47.33918" lon="-1.27551">
        <ele>58</ele>
        <time>2020-12-20T09:36:51.696000+00:00</time>
      </trkpt>
      <trkpt lat="0" lon="0">
        <time>2020-12-20T09:36:51.698000+00:00</time>
      </trkpt>
      <trkpt lat="0" lon="0">
        <time>2020-12-20T09:36:51.701000+00:00</time>
      </trkpt>
      <trkpt lat="0" lon="0">
        <time>2020-12-20T09:36:51.702000+00:00</time>
      </trkpt>
      <trkpt lat="47.3392" lon="-1.27554">
        <ele>58</ele>
        <time>2020-12-20T09:36:52.717000+00:00</time>
      </trkpt>
      <trkpt lat="0" lon="0">
        <time>2020-12-20T09:36:52.723000+00:00</time>
      </trkpt>
      <trkpt lat="0" lon="0">
        <time>2020-12-20T09:36:52.725000+00:00</time>
      </trkpt>
      <trkpt lat="0" lon="0">
        <time>2020-12-20T09:36:52.726000+00:00</time>
      </trkpt>
      <trkpt lat="47.33921" lon="-1.27558">
        <ele>58</ele>
        <time>2020-12-20T09:36:53.708000+00:00</time>
      </trkpt>
      <trkpt lat="0" lon="0">
        <time>2020-12-20T09:36:53.710000+00:00</time>
      </trkpt>
      <trkpt lat="0" lon="0">
        <time>2020-12-20T09:36:53.713000+00:00</time>
      </trkpt>
      <trkpt lat="0" lon="0">
        <time>2020-12-20T09:36:53.714000+00:00</time>
      </trkpt>
      <trkpt lat="47.33923" lon="-1.27561">
        <ele>58</ele>
        <time>2020-12-20T09:36:54.716000+00:00</time>
      </trkpt>
      <trkpt lat="0" lon="0">
        <time>2020-12-20T09:36:54.719000+00:00</time>
      </trkpt>
      <trkpt lat="0" lon="0">
        <time>2020-12-20T09:36:54.725000+00:00</time>
      </trkpt>
      <trkpt lat="0" lon="0">
        <time>2020-12-20T09:36:54.727000+00:00</time>
      </trkpt>
      <trkpt lat="47.33924" lon="-1.27565">
        <ele>57</ele>
        <time>2020-12-20T09:36:55.700000+00:00</time>
      </trkpt>
      <trkpt lat="0" lon="0">
        <time>2020-12-20T09:36:55.712000+00:00</time>
      </trkpt>
      <trkpt lat="0" lon="0">
        <time>2020-12-20T09:36:55.718000+00:00</time>
      </trkpt>
      <trkpt lat="0" lon="0">
        <time>2020-12-20T09:36:55.721000+00:00</time>
      </trkpt>
      <trkpt lat="47.33926" lon="-1.2757">
        <ele>58</ele>
        <time>2020-12-20T09:36:56.713000+00:00</time>
      </trkpt>
      <trkpt lat="0" lon="0">
        <time>2020-12-20T09:36:56.724000+00:00</time>
      </trkpt>
      <trkpt lat="0" lon="0">
        <time>2020-12-20T09:36:56.726000+00:00</time>
      </trkpt>
      <trkpt lat="0" lon="0">
        <time>2020-12-20T09:36:56.729000+00:00</time>
      </trkpt>
      <trkpt lat="47.33927" lon="-1.27575">
        <ele>57</ele>
        <time>2020-12-20T09:36:57.678000+00:00</time>
      </trkpt>
      <trkpt lat="0" lon="0">
        <time>2020-12-20T09:36:57.682000+00:00</time>
      </trkpt>
      <trkpt lat="0" lon="0">
        <time>2020-12-20T09:36:57.690000+00:00</time>
      </trkpt>
      <trkpt lat="0" lon="0">
        <time>2020-12-20T09:36:57.692000+00:00</time>
      </trkpt>
      <trkpt lat="47.33928" lon="-1.27581">
        <ele>56</ele>
        <time>2020-12-20T09:36:58.664000+00:00</time>
      </trkpt>
      <trkpt lat="0" lon="0">
        <time>2020-12-20T09:36:58.674000+00:00</time>
      </trkpt>
      <trkpt lat="0" lon="0">
        <time>2020-12-20T09:36:58.679000+00:00</time>
      </trkpt>
      <trkpt lat="0" lon="0">
        <time>2020-12-20T09:36:58.681000+00:00</time>
      </trkpt>
      <trkpt lat="47.33929" lon="-1.27586">
        <ele>56</ele>
        <time>2020-12-20T09:36:59.668000+00:00</time>
      </trkpt>
      <trkpt lat="0" lon="0">
        <time>2020-12-20T09:36:59.669000+00:00</time>
      </trkpt>
      <trkpt lat="0" lon="0">
        <time>2020-12-20T09:36:59.670000+00:00</time>
      </trkpt>
      <trkpt lat="47.33929" lon="-1.27592">
        <ele>56</ele>
        <time>2020-12-20T09:37:00.688000+00:00</time>
      </trkpt>
      <trkpt lat="0" lon="0">
        <time>2020-12-20T09:37:00.697000+00:00</time>
      </trkpt>
      <trkpt lat="0" lon="0">
        <time>2020-12-20T09:37:00.699000+00:00</time>
      </trkpt>
      <trkpt lat="0" lon="0">
        <time>2020-12-20T09:37:00.700000+00:00</time>
      </trkpt>
      <trkpt lat="47.33929" lon="-1.27599">
        <ele>56</ele>
        <time>2020-12-20T09:37:01.723000+00:00</time>
      </trkpt>
      <trkpt lat="0" lon="0">
        <time>2020-12-20T09:37:01.731000+00:00</time>
      </trkpt>
      <trkpt lat="0" lon="0">
        <time>2020-12-20T09:37:01.735000+00:00</time>
      </trkpt>
      <trkpt lat="0" lon="0">
        <time>2020-12-20T09:37:01.736000+00:00</time>
      </trkpt>
      <trkpt lat="47.33928" lon="-1.27605">
        <ele>56</ele>
        <time>2020-12-20T09:37:02.724000+00:00</time>
      </trkpt>
      <trkpt lat="0" lon="0">
        <time>2020-12-20T09:37:02.732000+00:00</time>
      </trkpt>
      <trkpt lat="0" lon="0">
        <time>2020-12-20T09:37:02.738000+00:00</time>
      </trkpt>
      <trkpt lat="0" lon="0">
        <time>2020-12-20T09:37:02.740000+00:00</time>
      </trkpt>
      <trkpt lat="47.33928" lon="-1.27611">
        <ele>56</ele>
        <time>2020-12-20T09:37:03.723000+00:00</time>
      </trkpt>
      <trkpt lat="0" lon="0">
        <time>2020-12-20T09:37:03.737000+00:00</time>
      </trkpt>
      <trkpt lat="0" lon="0">
        <time>2020-12-20T09:37:03.740000+00:00</time>
      </trkpt>
      <trkpt lat="0" lon="0">
        <time>2020-12-20T09:37:03.741000+00:00</time>
      </trkpt>
      <trkpt lat="47.33927" lon="-1.27618">
        <ele>56</ele>
        <time>2020-12-20T09:37:04.706000+00:00</time>
      </trkpt>
      <trkpt lat="0" lon="0">
        <time>2020-12-20T09:37:04.713000+00:00</time>
      </trkpt>
      <trkpt lat="0" lon="0">
        <time>2020-12-20T09:37:04.718000+00:00</time>
      </trkpt>
      <trkpt lat="0" lon="0">
        <time>2020-12-20T09:37:04.720000+00:00</time>
      </trkpt>
      <trkpt lat="47.33926" lon="-1.27624">
        <ele>56</ele>
        <time>2020-12-20T09:37:05.725000+00:00</time>
      </trkpt>
      <trkpt lat="0" lon="0">
        <time>2020-12-20T09:37:05.732000+00:00</time>
      </trkpt>
      <trkpt lat="0" lon="0">
        <time>2020-12-20T09:37:05.738000+00:00</time>
      </trkpt>
      <trkpt lat="0" lon="0">
        <time>2020-12-20T09:37:05.740000+00:00</time>
      </trkpt>
      <trkpt lat="47.33924" lon="-1.27631">
        <ele>56</ele>
        <time>2020-12-20T09:37:06.720000+00:00</time>
      </trkpt>
      <trkpt lat="0" lon="0">
        <time>2020-12-20T09:37:06.729000+00:00</time>
      </trkpt>
      <trkpt lat="0" lon="0">
        <time>2020-12-20T09:37:06.730000+00:00</time>
      </trkpt>
      <trkpt lat="0" lon="0">
        <time>2020-12-20T09:37:06.731000+00:00</time>
      </trkpt>
      <trkpt lat="47.33923" lon="-1.27637">
        <ele>56</ele>
        <time>2020-12-20T09:37:07.670000+00:00</time>
      </trkpt>
      <trkpt lat="0" lon="0">
        <time>2020-12-20T09:37:07.671000+00:00</time>
      </trkpt>
      <trkpt lat="0" lon="0">
        <time>2020-12-20T09:37:07.672000+00:00</time>
      </trkpt>
      <trkpt lat="47.33922" lon="-1.27643">
        <ele>56</ele>
        <time>2020-12-20T09:37:08.715000+00:00</time>
      </trkpt>
      <trkpt lat="0" lon="0">
        <time>2020-12-20T09:37:08.721000+00:00</time>
      </trkpt>
      <trkpt lat="0" lon="0">
        <time>2020-12-20T09:37:08.729000+00:00</time>
      </trkpt>
      <trkpt lat="0" lon="0">
        <time>2020-12-20T09:37:08.732000+00:00</time>
      </trkpt>
      <trkpt lat="47.3392" lon="-1.27649">
        <ele>56</ele>
        <time>2020-12-20T09:37:09.728000+00:00</time>
      </trkpt>
      <trkpt lat="0" lon="0">
        <time>2020-12-20T09:37:09.734000+00:00</time>
      </trkpt>
      <trkpt lat="0" lon="0">
        <time>2020-12-20T09:37:09.738000+00:00</time>
      </trkpt>
      <trkpt lat="0" lon="0">
        <time>2020-12-20T09:37:09.741000+00:00</time>
      </trkpt>
      <trkpt lat="47.33919" lon="-1.27655">
        <ele>56</ele>
        <time>2020-12-20T09:37:10.713000+00:00</time>
      </trkpt>
      <trkpt lat="0" lon="0">
        <time>2020-12-20T09:37:10.722000+00:00</time>
      </trkpt>
      <trkpt lat="0" lon="0">
        <time>2020-12-20T09:37:10.728000+00:00</time>
      </trkpt>
      <trkpt lat="0" lon="0">
        <time>2020-12-20T09:37:10.729000+00:00</time>
      </trkpt>
      <trkpt lat="47.33917" lon="-1.2766">
        <ele>56</ele>
        <time>2020-12-20T09:37:11.719000+00:00</time>
      </trkpt>
      <trkpt lat="0" lon="0">
        <time>2020-12-20T09:37:11.724000+00:00</time>
      </trkpt>
      <trkpt lat="0" lon="0">
        <time>2020-12-20T09:37:11.729000+00:00</time>
      </trkpt>
      <trkpt lat="0" lon="0">
        <time>2020-12-20T09:37:11.732000+00:00</time>
      </trkpt>
      <trkpt lat="47.33916" lon="-1.27666">
        <ele>56</ele>
        <time>2020-12-20T09:37:12.704000+00:00</time>
      </trkpt>
      <trkpt lat="0" lon="0">
        <time>2020-12-20T09:37:12.710000+00:00</time>
      </trkpt>
      <trkpt lat="0" lon="0">
        <time>2020-12-20T09:37:12.728000+00:00</time>
      </trkpt>
      <trkpt lat="0" lon="0">
        <time>2020-12-20T09:37:12.730000+00:00</time>
      </trkpt>
      <trkpt lat="47.33914" lon="-1.27671">
        <ele>56</ele>
        <time>2020-12-20T09:37:13.716000+00:00</time>
      </trkpt>
      <trkpt lat="0" lon="0">
        <time>2020-12-20T09:37:13.722000+00:00</time>
      </trkpt>
      <trkpt lat="0" lon="0">
        <time>2020-12-20T09:37:13.723000+00:00</time>
      </trkpt>
      <trkpt lat="0" lon="0">
        <time>2020-12-20T09:37:13.724000+00:00</time>
      </trkpt>
      <trkpt lat="47.33912" lon="-1.27677">
        <ele>56</ele>
        <time>2020-12-20T09:37:14.716000+00:00</time>
      </trkpt>
      <trkpt lat="0" lon="0">
        <time>2020-12-20T09:37:14.730000+00:00</time>
      </trkpt>
      <trkpt lat="0" lon="0">
        <time>2020-12-20T09:37:14.734000+00:00</time>
      </trkpt>
      <trkpt lat="0" lon="0">
        <time>2020-12-20T09:37:14.736000+00:00</time>
      </trkpt>
      <trkpt lat="47.33911" lon="-1.27682">
        <ele>55</ele>
        <time>2020-12-20T09:37:15.734000+00:00</time>
      </trkpt>
      <trkpt lat="0" lon="0">
        <time>2020-12-20T09:37:15.740000+00:00</time>
      </trkpt>
      <trkpt lat="0" lon="0">
        <time>2020-12-20T09:37:15.748000+00:00</time>
      </trkpt>
      <trkpt lat="0" lon="0">
        <time>2020-12-20T09:37:15.751000+00:00</time>
      </trkpt>
      <trkpt lat="47.33909" lon="-1.27689">
        <ele>55</ele>
        <time>2020-12-20T09:37:16.706000+00:00</time>
      </trkpt>
      <trkpt lat="0" lon="0">
        <time>2020-12-20T09:37:16.720000+00:00</time>
      </trkpt>
      <trkpt lat="0" lon="0">
        <time>2020-12-20T09:37:16.723000+00:00</time>
      </trkpt>
      <trkpt lat="0" lon="0">
        <time>2020-12-20T09:37:16.725000+00:00</time>
      </trkpt>
      <trkpt lat="47.33907" lon="-1.27696">
        <ele>55</ele>
        <time>2020-12-20T09:37:17.728000+00:00</time>
      </trkpt>
      <trkpt lat="0" lon="0">
        <time>2020-12-20T09:37:17.736000+00:00</time>
      </trkpt>
      <trkpt lat="0" lon="0">
        <time>2020-12-20T09:37:17.745000+00:00</time>
      </trkpt>
      <trkpt lat="0" lon="0">
        <time>2020-12-20T09:37:17.747000+00:00</time>
      </trkpt>
      <trkpt lat="47.33906" lon="-1.27702">
        <ele>54</ele>
        <time>2020-12-20T09:37:18.698000+00:00</time>
      </trkpt>
      <trkpt lat="0" lon="0">
        <time>2020-12-20T09:37:18.709000+00:00</time>
      </trkpt>
      <trkpt lat="0" lon="0">
        <time>2020-12-20T09:37:18.714000+00:00</time>
      </trkpt>
      <trkpt lat="0" lon="0">
        <time>2020-12-20T09:37:18.716000+00:00</time>
      </trkpt>
      <trkpt lat="47.33905" lon="-1.27709">
        <ele>54</ele>
        <time>2020-12-20T09:37:19.671000+00:00</time>
      </trkpt>
      <trkpt lat="0" lon="0">
        <time>2020-12-20T09:37:19.675000+00:00</time>
      </trkpt>
      <trkpt lat="0" lon="0">
        <time>2020-12-20T09:37:19.680000+00:00</time>
      </trkpt>
      <trkpt lat="0" lon="0">
        <time>2020-12-20T09:37:19.681000+00:00</time>
      </trkpt>
      <trkpt lat="47.33903" lon="-1.27717">
        <ele>54</ele>
        <time>2020-12-20T09:37:20.688000+00:00</time>
      </trkpt>
      <trkpt lat="0" lon="0">
        <time>2020-12-20T09:37:20.694000+00:00</time>
      </trkpt>
      <trkpt lat="0" lon="0">
        <time>2020-12-20T09:37:20.700000+00:00</time>
      </trkpt>
      <trkpt lat="0" lon="0">
        <time>2020-12-20T09:37:20.702000+00:00</time>
      </trkpt>
      <trkpt lat="47.33903" lon="-1.27724">
        <ele>54</ele>
        <time>2020-12-20T09:37:21.686000+00:00</time>
      </trkpt>
      <trkpt lat="0" lon="0">
        <time>2020-12-20T09:37:21.689000+00:00</time>
      </trkpt>
      <trkpt lat="0" lon="0">
        <time>2020-12-20T09:37:21.692000+00:00</time>
      </trkpt>
      <trkpt lat="0" lon="0">
        <time>2020-12-20T09:37:21.693000+00:00</time>
      </trkpt>
      <trkpt lat="47.33902" lon="-1.27731">
        <ele>54</ele>
        <time>2020-12-20T09:37:22.689000+00:00</time>
      </trkpt>
      <trkpt lat="0" lon="0">
        <time>2020-12-20T09:37:22.695000+00:00</time>
      </trkpt>
      <trkpt lat="0" lon="0">
        <time>2020-12-20T09:37:22.702000+00:00</time>
      </trkpt>
      <trkpt lat="0" lon="0">
        <time>2020-12-20T09:37:22.705000+00:00</time>
      </trkpt>
      <trkpt lat="47.33901" lon="-1.27738">
        <ele>54</ele>
        <time>2020-12-20T09:37:23.718000+00:00</time>
      </trkpt>
      <trkpt lat="0" lon="0">
        <time>2020-12-20T09:37:23.724000+00:00</time>
      </trkpt>
      <trkpt lat="0" lon="0">
        <time>2020-12-20T09:37:23.728000+00:00</time>
      </trkpt>
      <trkpt lat="0" lon="0">
        <time>2020-12-20T09:37:23.730000+00:00</time>
      </trkpt>
      <trkpt lat="47.33901" lon="-1.27745">
        <ele>54</ele>
        <time>2020-12-20T09:37:24.742000+00:00</time>
      </trkpt>
      <trkpt lat="0" lon="0">
        <time>2020-12-20T09:37:24.763000+00:00</time>
      </trkpt>
      <trkpt lat="0" lon="0">
        <time>2020-12-20T09:37:24.771000+00:00</time>
      </trkpt>
      <trkpt lat="0" lon="0">
        <time>2020-12-20T09:37:24.773000+00:00</time>
      </trkpt>
      <trkpt lat="47.339" lon="-1.27752">
        <ele>54</ele>
        <time>2020-12-20T09:37:25.721000+00:00</time>
      </trkpt>
      <trkpt lat="0" lon="0">
        <time>2020-12-20T09:37:25.727000+00:00</time>
      </trkpt>
      <trkpt lat="0" lon="0">
        <time>2020-12-20T09:37:25.730000+00:00</time>
      </trkpt>
      <trkpt lat="0" lon="0">
        <time>2020-12-20T09:37:25.735000+00:00</time>
      </trkpt>
      <trkpt lat="47.33899" lon="-1.27758">
        <ele>53</ele>
        <time>2020-12-20T09:37:26.717000+00:00</time>
      </trkpt>
      <trkpt lat="0" lon="0">
        <time>2020-12-20T09:37:26.720000+00:00</time>
      </trkpt>
      <trkpt lat="0" lon="0">
        <time>2020-12-20T09:37:26.722000+00:00</time>
      </trkpt>
      <trkpt lat="0" lon="0">
        <time>2020-12-20T09:37:26.723000+00:00</time>
      </trkpt>
      <trkpt lat="47.33898" lon="-1.27764">
        <ele>54</ele>
        <time>2020-12-20T09:37:27.729000+00:00</time>
      </trkpt>
      <trkpt lat="0" lon="0">
        <time>2020-12-20T09:37:27.742000+00:00</time>
      </trkpt>
      <trkpt lat="0" lon="0">
        <time>2020-12-20T09:37:27.748000+00:00</time>
      </trkpt>
      <trkpt lat="0" lon="0">
        <time>2020-12-20T09:37:27.753000+00:00</time>
      </trkpt>
      <trkpt lat="47.33897" lon="-1.2777">
        <ele>53</ele>
        <time>2020-12-20T09:37:28.684000+00:00</time>
      </trkpt>
      <trkpt lat="0" lon="0">
        <time>2020-12-20T09:37:28.692000+00:00</time>
      </trkpt>
      <trkpt lat="0" lon="0">
        <time>2020-12-20T09:37:28.700000+00:00</time>
      </trkpt>
      <trkpt lat="0" lon="0">
        <time>2020-12-20T09:37:28.703000+00:00</time>
      </trkpt>
      <trkpt lat="47.33895" lon="-1.27776">
        <ele>54</ele>
        <time>2020-12-20T09:37:29.696000+00:00</time>
      </trkpt>
      <trkpt lat="0" lon="0">
        <time>2020-12-20T09:37:29.702000+00:00</time>
      </trkpt>
      <trkpt lat="0" lon="0">
        <time>2020-12-20T09:37:29.707000+00:00</time>
      </trkpt>
      <trkpt lat="0" lon="0">
        <time>2020-12-20T09:37:29.709000+00:00</time>
      </trkpt>
      <trkpt lat="47.33894" lon="-1.27782">
        <ele>54</ele>
        <time>2020-12-20T09:37:30.696000+00:00</time>
      </trkpt>
      <trkpt lat="0" lon="0">
        <time>2020-12-20T09:37:30.697000+00:00</time>
      </trkpt>
      <trkpt lat="0" lon="0">
        <time>2020-12-20T09:37:30.698000+00:00</time>
      </trkpt>
      <trkpt lat="47.33892" lon="-1.27787">
        <ele>53</ele>
        <time>2020-12-20T09:37:31.716000+00:00</time>
      </trkpt>
      <trkpt lat="0" lon="0">
        <time>2020-12-20T09:37:31.722000+00:00</time>
      </trkpt>
      <trkpt lat="0" lon="0">
        <time>2020-12-20T09:37:31.724000+00:00</time>
      </trkpt>
      <trkpt lat="0" lon="0">
        <time>2020-12-20T09:37:31.726000+00:00</time>
      </trkpt>
      <trkpt lat="47.33891" lon="-1.27792">
        <ele>53</ele>
        <time>2020-12-20T09:37:32.684000+00:00</time>
      </trkpt>
      <trkpt lat="0" lon="0">
        <time>2020-12-20T09:37:32.686000+00:00</time>
      </trkpt>
      <trkpt lat="0" lon="0">
        <time>2020-12-20T09:37:32.689000+00:00</time>
      </trkpt>
      <trkpt lat="0" lon="0">
        <time>2020-12-20T09:37:32.690000+00:00</time>
      </trkpt>
      <trkpt lat="47.33889" lon="-1.27798">
        <ele>54</ele>
        <time>2020-12-20T09:37:33.684000+00:00</time>
      </trkpt>
      <trkpt lat="0" lon="0">
        <time>2020-12-20T09:37:33.691000+00:00</time>
      </trkpt>
      <trkpt lat="0" lon="0">
        <time>2020-12-20T09:37:33.698000+00:00</time>
      </trkpt>
      <trkpt lat="0" lon="0">
        <time>2020-12-20T09:37:33.705000+00:00</time>
      </trkpt>
      <trkpt lat="47.33888" lon="-1.27802">
        <ele>54</ele>
        <time>2020-12-20T09:37:34.692000+00:00</time>
      </trkpt>
      <trkpt lat="0" lon="0">
        <time>2020-12-20T09:37:34.701000+00:00</time>
      </trkpt>
      <trkpt lat="0" lon="0">
        <time>2020-12-20T09:37:34.705000+00:00</time>
      </trkpt>
      <trkpt lat="0" lon="0">
        <time>2020-12-20T09:37:34.708000+00:00</time>
      </trkpt>
      <trkpt lat="47.33886" lon="-1.27805">
        <ele>54</ele>
        <time>2020-12-20T09:37:35.696000+00:00</time>
      </trkpt>
      <trkpt lat="0" lon="0">
        <time>2020-12-20T09:37:35.701000+00:00</time>
      </trkpt>
      <trkpt lat="0" lon="0">
        <time>2020-12-20T09:37:35.706000+00:00</time>
      </trkpt>
      <trkpt lat="0" lon="0">
        <time>2020-12-20T09:37:35.708000+00:00</time>
      </trkpt>
      <trkpt lat="47.33884" lon="-1.27807">
        <ele>54</ele>
        <time>2020-12-20T09:37:36.695000+00:00</time>
      </trkpt>
      <trkpt lat="0" lon="0">
        <time>2020-12-20T09:37:36.701000+00:00</time>
      </trkpt>
      <trkpt lat="0" lon="0">
        <time>2020-12-20T09:37:36.705000+00:00</time>
      </trkpt>
      <trkpt lat="0" lon="0">
        <time>2020-12-20T09:37:36.710000+00:00</time>
      </trkpt>
      <trkpt lat="47.33881" lon="-1.27808">
        <ele>54</ele>
        <time>2020-12-20T09:37:37.699000+00:00</time>
      </trkpt>
      <trkpt lat="0" lon="0">
        <time>2020-12-20T09:37:37.712000+00:00</time>
      </trkpt>
      <trkpt lat="0" lon="0">
        <time>2020-12-20T09:37:37.714000+00:00</time>
      </trkpt>
      <trkpt lat="0" lon="0">
        <time>2020-12-20T09:37:37.716000+00:00</time>
      </trkpt>
      <trkpt lat="47.33879" lon="-1.27808">
        <ele>54</ele>
        <time>2020-12-20T09:37:38.696000+00:00</time>
      </trkpt>
      <trkpt lat="0" lon="0">
        <time>2020-12-20T09:37:38.709000+00:00</time>
      </trkpt>
      <trkpt lat="0" lon="0">
        <time>2020-12-20T09:37:38.719000+00:00</time>
      </trkpt>
      <trkpt lat="0" lon="0">
        <time>2020-12-20T09:37:38.722000+00:00</time>
      </trkpt>
      <trkpt lat="47.33876" lon="-1.27807">
        <ele>54</ele>
        <time>2020-12-20T09:37:39.717000+00:00</time>
      </trkpt>
      <trkpt lat="0" lon="0">
        <time>2020-12-20T09:37:39.736000+00:00</time>
      </trkpt>
      <trkpt lat="0" lon="0">
        <time>2020-12-20T09:37:39.740000+00:00</time>
      </trkpt>
      <trkpt lat="0" lon="0">
        <time>2020-12-20T09:37:39.742000+00:00</time>
      </trkpt>
      <trkpt lat="47.33873" lon="-1.27805">
        <ele>54</ele>
        <time>2020-12-20T09:37:40.737000+00:00</time>
      </trkpt>
      <trkpt lat="0" lon="0">
        <time>2020-12-20T09:37:40.742000+00:00</time>
      </trkpt>
      <trkpt lat="0" lon="0">
        <time>2020-12-20T09:37:40.748000+00:00</time>
      </trkpt>
      <trkpt lat="0" lon="0">
        <time>2020-12-20T09:37:40.750000+00:00</time>
      </trkpt>
      <trkpt lat="47.3387" lon="-1.27804">
        <ele>54</ele>
        <time>2020-12-20T09:37:41.698000+00:00</time>
      </trkpt>
      <trkpt lat="0" lon="0">
        <time>2020-12-20T09:37:41.701000+00:00</time>
      </trkpt>
      <trkpt lat="0" lon="0">
        <time>2020-12-20T09:37:41.703000+00:00</time>
      </trkpt>
      <trkpt lat="0" lon="0">
        <time>2020-12-20T09:37:41.705000+00:00</time>
      </trkpt>
      <trkpt lat="47.33866" lon="-1.27801">
        <ele>53</ele>
        <time>2020-12-20T09:37:42.700000+00:00</time>
      </trkpt>
      <trkpt lat="0" lon="0">
        <time>2020-12-20T09:37:42.706000+00:00</time>
      </trkpt>
      <trkpt lat="0" lon="0">
        <time>2020-12-20T09:37:42.708000+00:00</time>
      </trkpt>
      <trkpt lat="0" lon="0">
        <time>2020-12-20T09:37:42.709000+00:00</time>
      </trkpt>
      <trkpt lat="47.33863" lon="-1.27799">
        <ele>53</ele>
        <time>2020-12-20T09:37:43.717000+00:00</time>
      </trkpt>
      <trkpt lat="0" lon="0">
        <time>2020-12-20T09:37:43.728000+00:00</time>
      </trkpt>
      <trkpt lat="0" lon="0">
        <time>2020-12-20T09:37:43.733000+00:00</time>
      </trkpt>
      <trkpt lat="0" lon="0">
        <time>2020-12-20T09:37:43.741000+00:00</time>
      </trkpt>
      <trkpt lat="47.33859" lon="-1.27796">
        <ele>53</ele>
        <time>2020-12-20T09:37:44.674000+00:00</time>
      </trkpt>
      <trkpt lat="0" lon="0">
        <time>2020-12-20T09:37:44.682000+00:00</time>
      </trkpt>
      <trkpt lat="0" lon="0">
        <time>2020-12-20T09:37:44.686000+00:00</time>
      </trkpt>
      <trkpt lat="0" lon="0">
        <time>2020-12-20T09:37:44.688000+00:00</time>
      </trkpt>
      <trkpt lat="47.33855" lon="-1.27794">
        <ele>52</ele>
        <time>2020-12-20T09:37:45.708000+00:00</time>
      </trkpt>
      <trkpt lat="0" lon="0">
        <time>2020-12-20T09:37:45.715000+00:00</time>
      </trkpt>
      <trkpt lat="0" lon="0">
        <time>2020-12-20T09:37:45.721000+00:00</time>
      </trkpt>
      <trkpt lat="0" lon="0">
        <time>2020-12-20T09:37:45.725000+00:00</time>
      </trkpt>
      <trkpt lat="47.33851" lon="-1.27791">
        <ele>52</ele>
        <time>2020-12-20T09:37:46.737000+00:00</time>
      </trkpt>
      <trkpt lat="0" lon="0">
        <time>2020-12-20T09:37:46.743000+00:00</time>
      </trkpt>
      <trkpt lat="0" lon="0">
        <time>2020-12-20T09:37:46.745000+00:00</time>
      </trkpt>
      <trkpt lat="0" lon="0">
        <time>2020-12-20T09:37:46.748000+00:00</time>
      </trkpt>
      <trkpt lat="47.33847" lon="-1.27789">
        <ele>52</ele>
        <time>2020-12-20T09:37:47.716000+00:00</time>
      </trkpt>
      <trkpt lat="0" lon="0">
        <time>2020-12-20T09:37:47.726000+00:00</time>
      </trkpt>
      <trkpt lat="0" lon="0">
        <time>2020-12-20T09:37:47.728000+00:00</time>
      </trkpt>
      <trkpt lat="0" lon="0">
        <time>2020-12-20T09:37:47.729000+00:00</time>
      </trkpt>
      <trkpt lat="47.33843" lon="-1.27787">
        <ele>51</ele>
        <time>2020-12-20T09:37:48.704000+00:00</time>
      </trkpt>
      <trkpt lat="0" lon="0">
        <time>2020-12-20T09:37:48.717000+00:00</time>
      </trkpt>
      <trkpt lat="0" lon="0">
        <time>2020-12-20T09:37:48.719000+00:00</time>
      </trkpt>
      <trkpt lat="0" lon="0">
        <time>2020-12-20T09:37:48.720000+00:00</time>
      </trkpt>
      <trkpt lat="47.33838" lon="-1.27784">
        <ele>51</ele>
        <time>2020-12-20T09:37:49.716000+00:00</time>
      </trkpt>
      <trkpt lat="0" lon="0">
        <time>2020-12-20T09:37:49.721000+00:00</time>
      </trkpt>
      <trkpt lat="0" lon="0">
        <time>2020-12-20T09:37:49.726000+00:00</time>
      </trkpt>
      <trkpt lat="0" lon="0">
        <time>2020-12-20T09:37:49.728000+00:00</time>
      </trkpt>
      <trkpt lat="47.33834" lon="-1.27782">
        <ele>50</ele>
        <time>2020-12-20T09:37:50.684000+00:00</time>
      </trkpt>
      <trkpt lat="0" lon="0">
        <time>2020-12-20T09:37:50.686000+00:00</time>
      </trkpt>
      <trkpt lat="0" lon="0">
        <time>2020-12-20T09:37:50.688000+00:00</time>
      </trkpt>
      <trkpt lat="0" lon="0">
        <time>2020-12-20T09:37:50.690000+00:00</time>
      </trkpt>
      <trkpt lat="47.33829" lon="-1.2778">
        <ele>50</ele>
        <time>2020-12-20T09:37:51.722000+00:00</time>
      </trkpt>
      <trkpt lat="0" lon="0">
        <time>2020-12-20T09:37:51.731000+00:00</time>
      </trkpt>
      <trkpt lat="0" lon="0">
        <time>2020-12-20T09:37:51.733000+00:00</time>
      </trkpt>
      <trkpt lat="0" lon="0">
        <time>2020-12-20T09:37:51.734000+00:00</time>
      </trkpt>
      <trkpt lat="47.33824" lon="-1.27778">
        <ele>49</ele>
        <time>2020-12-20T09:37:52.728000+00:00</time>
      </trkpt>
      <trkpt lat="0" lon="0">
        <time>2020-12-20T09:37:52.732000+00:00</time>
      </trkpt>
      <trkpt lat="0" lon="0">
        <time>2020-12-20T09:37:52.735000+00:00</time>
      </trkpt>
      <trkpt lat="0" lon="0">
        <time>2020-12-20T09:37:52.736000+00:00</time>
      </trkpt>
      <trkpt lat="47.33819" lon="-1.27776">
        <ele>49</ele>
        <time>2020-12-20T09:37:53.694000+00:00</time>
      </trkpt>
      <trkpt lat="0" lon="0">
        <time>2020-12-20T09:37:53.699000+00:00</time>
      </trkpt>
      <trkpt lat="0" lon="0">
        <time>2020-12-20T09:37:53.704000+00:00</time>
      </trkpt>
      <trkpt lat="0" lon="0">
        <time>2020-12-20T09:37:53.706000+00:00</time>
      </trkpt>
      <trkpt lat="47.33814" lon="-1.27774">
        <ele>49</ele>
        <time>2020-12-20T09:37:54.686000+00:00</time>
      </trkpt>
      <trkpt lat="0" lon="0">
        <time>2020-12-20T09:37:54.690000+00:00</time>
      </trkpt>
      <trkpt lat="0" lon="0">
        <time>2020-12-20T09:37:54.694000+00:00</time>
      </trkpt>
      <trkpt lat="0" lon="0">
        <time>2020-12-20T09:37:54.696000+00:00</time>
      </trkpt>
      <trkpt lat="47.33809" lon="-1.27772">
        <ele>49</ele>
        <time>2020-12-20T09:37:55.700000+00:00</time>
      </trkpt>
      <trkpt lat="0" lon="0">
        <time>2020-12-20T09:37:55.702000+00:00</time>
      </trkpt>
      <trkpt lat="0" lon="0">
        <time>2020-12-20T09:37:55.706000+00:00</time>
      </trkpt>
      <trkpt lat="0" lon="0">
        <time>2020-12-20T09:37:55.708000+00:00</time>
      </trkpt>
      <trkpt lat="47.33804" lon="-1.2777">
        <ele>48</ele>
        <time>2020-12-20T09:37:56.711000+00:00</time>
      </trkpt>
      <trkpt lat="0" lon="0">
        <time>2020-12-20T09:37:56.723000+00:00</time>
      </trkpt>
      <trkpt lat="0" lon="0">
        <time>2020-12-20T09:37:56.727000+00:00</time>
      </trkpt>
      <trkpt lat="0" lon="0">
        <time>2020-12-20T09:37:56.729000+00:00</time>
      </trkpt>
      <trkpt lat="47.33799" lon="-1.27769">
        <ele>48</ele>
        <time>2020-12-20T09:37:57.697000+00:00</time>
      </trkpt>
      <trkpt lat="0" lon="0">
        <time>2020-12-20T09:37:57.701000+00:00</time>
      </trkpt>
      <trkpt lat="0" lon="0">
        <time>2020-12-20T09:37:57.704000+00:00</time>
      </trkpt>
      <trkpt lat="0" lon="0">
        <time>2020-12-20T09:37:57.705000+00:00</time>
      </trkpt>
      <trkpt lat="47.33794" lon="-1.27768">
        <ele>49</ele>
        <time>2020-12-20T09:37:58.688000+00:00</time>
      </trkpt>
      <trkpt lat="0" lon="0">
        <time>2020-12-20T09:37:58.695000+00:00</time>
      </trkpt>
      <trkpt lat="0" lon="0">
        <time>2020-12-20T09:37:58.696000+00:00</time>
      </trkpt>
      <trkpt lat="0" lon="0">
        <time>2020-12-20T09:37:58.697000+00:00</time>
      </trkpt>
      <trkpt lat="47.33789" lon="-1.27766">
        <ele>49</ele>
        <time>2020-12-20T09:37:59.686000+00:00</time>
      </trkpt>
      <trkpt lat="0" lon="0">
        <time>2020-12-20T09:37:59.702000+00:00</time>
      </trkpt>
      <trkpt lat="0" lon="0">
        <time>2020-12-20T09:37:59.704000+00:00</time>
      </trkpt>
      <trkpt lat="47.33783" lon="-1.27765">
        <ele>48</ele>
        <time>2020-12-20T09:38:00.679000+00:00</time>
      </trkpt>
      <trkpt lat="0" lon="0">
        <time>2020-12-20T09:38:00.687000+00:00</time>
      </trkpt>
      <trkpt lat="0" lon="0">
        <time>2020-12-20T09:38:00.689000+00:00</time>
      </trkpt>
      <trkpt lat="0" lon="0">
        <time>2020-12-20T09:38:00.690000+00:00</time>
      </trkpt>
      <trkpt lat="47.33778" lon="-1.27764">
        <ele>48</ele>
        <time>2020-12-20T09:38:01.713000+00:00</time>
      </trkpt>
      <trkpt lat="0" lon="0">
        <time>2020-12-20T09:38:01.721000+00:00</time>
      </trkpt>
      <trkpt lat="0" lon="0">
        <time>2020-12-20T09:38:01.722000+00:00</time>
      </trkpt>
      <trkpt lat="0" lon="0">
        <time>2020-12-20T09:38:01.723000+00:00</time>
      </trkpt>
      <trkpt lat="47.33773" lon="-1.27763">
        <ele>48</ele>
        <time>2020-12-20T09:38:02.717000+00:00</time>
      </trkpt>
      <trkpt lat="0" lon="0">
        <time>2020-12-20T09:38:02.739000+00:00</time>
      </trkpt>
      <trkpt lat="0" lon="0">
        <time>2020-12-20T09:38:02.743000+00:00</time>
      </trkpt>
      <trkpt lat="0" lon="0">
        <time>2020-12-20T09:38:02.745000+00:00</time>
      </trkpt>
      <trkpt lat="47.33767" lon="-1.27761">
        <ele>48</ele>
        <time>2020-12-20T09:38:03.704000+00:00</time>
      </trkpt>
      <trkpt lat="0" lon="0">
        <time>2020-12-20T09:38:03.708000+00:00</time>
      </trkpt>
      <trkpt lat="0" lon="0">
        <time>2020-12-20T09:38:03.720000+00:00</time>
      </trkpt>
      <trkpt lat="0" lon="0">
        <time>2020-12-20T09:38:03.723000+00:00</time>
      </trkpt>
      <trkpt lat="47.33762" lon="-1.27759">
        <ele>48</ele>
        <time>2020-12-20T09:38:04.678000+00:00</time>
      </trkpt>
      <trkpt lat="0" lon="0">
        <time>2020-12-20T09:38:04.683000+00:00</time>
      </trkpt>
      <trkpt lat="0" lon="0">
        <time>2020-12-20T09:38:04.688000+00:00</time>
      </trkpt>
      <trkpt lat="0" lon="0">
        <time>2020-12-20T09:38:04.690000+00:00</time>
      </trkpt>
      <trkpt lat="47.33757" lon="-1.27758">
        <ele>48</ele>
        <time>2020-12-20T09:38:05.708000+00:00</time>
      </trkpt>
      <trkpt lat="0" lon="0">
        <time>2020-12-20T09:38:05.711000+00:00</time>
      </trkpt>
      <trkpt lat="0" lon="0">
        <time>2020-12-20T09:38:05.713000+00:00</time>
      </trkpt>
      <trkpt lat="0" lon="0">
        <time>2020-12-20T09:38:05.714000+00:00</time>
      </trkpt>
      <trkpt lat="47.33752" lon="-1.27756">
        <ele>48</ele>
        <time>2020-12-20T09:38:06.714000+00:00</time>
      </trkpt>
      <trkpt lat="0" lon="0">
        <time>2020-12-20T09:38:06.721000+00:00</time>
      </trkpt>
      <trkpt lat="0" lon="0">
        <time>2020-12-20T09:38:06.723000+00:00</time>
      </trkpt>
      <trkpt lat="0" lon="0">
        <time>2020-12-20T09:38:06.725000+00:00</time>
      </trkpt>
      <trkpt lat="47.33748" lon="-1.27755">
        <ele>48</ele>
        <time>2020-12-20T09:38:07.705000+00:00</time>
      </trkpt>
      <trkpt lat="0" lon="0">
        <time>2020-12-20T09:38:07.712000+00:00</time>
      </trkpt>
      <trkpt lat="0" lon="0">
        <time>2020-12-20T09:38:07.715000+00:00</time>
      </trkpt>
      <trkpt lat="0" lon="0">
        <time>2020-12-20T09:38:07.718000+00:00</time>
      </trkpt>
      <trkpt lat="47.33744" lon="-1.27753">
        <ele>48</ele>
        <time>2020-12-20T09:38:08.729000+00:00</time>
      </trkpt>
      <trkpt lat="0" lon="0">
        <time>2020-12-20T09:38:08.740000+00:00</time>
      </trkpt>
      <trkpt lat="0" lon="0">
        <time>2020-12-20T09:38:08.748000+00:00</time>
      </trkpt>
      <trkpt lat="0" lon="0">
        <time>2020-12-20T09:38:08.750000+00:00</time>
      </trkpt>
      <trkpt lat="47.3374" lon="-1.27751">
        <ele>48</ele>
        <time>2020-12-20T09:38:09.714000+00:00</time>
      </trkpt>
      <trkpt lat="0" lon="0">
        <time>2020-12-20T09:38:09.725000+00:00</time>
      </trkpt>
      <trkpt lat="0" lon="0">
        <time>2020-12-20T09:38:09.734000+00:00</time>
      </trkpt>
      <trkpt lat="0" lon="0">
        <time>2020-12-20T09:38:09.736000+00:00</time>
      </trkpt>
      <trkpt lat="47.33738" lon="-1.27749">
        <ele>48</ele>
        <time>2020-12-20T09:38:10.687000+00:00</time>
      </trkpt>
      <trkpt lat="0" lon="0">
        <time>2020-12-20T09:38:10.692000+00:00</time>
      </trkpt>
      <trkpt lat="0" lon="0">
        <time>2020-12-20T09:38:10.695000+00:00</time>
      </trkpt>
      <trkpt lat="0" lon="0">
        <time>2020-12-20T09:38:10.696000+00:00</time>
      </trkpt>
      <trkpt lat="47.33736" lon="-1.27746">
        <ele>49</ele>
        <time>2020-12-20T09:38:11.693000+00:00</time>
      </trkpt>
      <trkpt lat="0" lon="0">
        <time>2020-12-20T09:38:11.698000+00:00</time>
      </trkpt>
      <trkpt lat="0" lon="0">
        <time>2020-12-20T09:38:11.700000+00:00</time>
      </trkpt>
      <trkpt lat="0" lon="0">
        <time>2020-12-20T09:38:11.701000+00:00</time>
      </trkpt>
      <trkpt lat="47.33736" lon="-1.27744">
        <ele>49</ele>
        <time>2020-12-20T09:38:12.698000+00:00</time>
      </trkpt>
      <trkpt lat="0" lon="0">
        <time>2020-12-20T09:38:12.705000+00:00</time>
      </trkpt>
      <trkpt lat="0" lon="0">
        <time>2020-12-20T09:38:12.708000+00:00</time>
      </trkpt>
      <trkpt lat="0" lon="0">
        <time>2020-12-20T09:38:12.709000+00:00</time>
      </trkpt>
      <trkpt lat="47.33736" lon="-1.27741">
        <ele>49</ele>
        <time>2020-12-20T09:38:13.674000+00:00</time>
      </trkpt>
      <trkpt lat="0" lon="0">
        <time>2020-12-20T09:38:13.680000+00:00</time>
      </trkpt>
      <trkpt lat="0" lon="0">
        <time>2020-12-20T09:38:13.681000+00:00</time>
      </trkpt>
      <trkpt lat="0" lon="0">
        <time>2020-12-20T09:38:13.682000+00:00</time>
      </trkpt>
      <trkpt lat="47.33737" lon="-1.2774">
        <ele>48</ele>
        <time>2020-12-20T09:38:14.685000+00:00</time>
      </trkpt>
      <trkpt lat="0" lon="0">
        <time>2020-12-20T09:38:14.697000+00:00</time>
      </trkpt>
      <trkpt lat="0" lon="0">
        <time>2020-12-20T09:38:14.698000+00:00</time>
      </trkpt>
      <trkpt lat="0" lon="0">
        <time>2020-12-20T09:38:14.699000+00:00</time>
      </trkpt>
      <trkpt lat="47.33739" lon="-1.27739">
        <ele>48</ele>
        <time>2020-12-20T09:38:15.692000+00:00</time>
      </trkpt>
      <trkpt lat="0" lon="0">
        <time>2020-12-20T09:38:15.709000+00:00</time>
      </trkpt>
      <trkpt lat="0" lon="0">
        <time>2020-12-20T09:38:15.714000+00:00</time>
      </trkpt>
      <trkpt lat="0" lon="0">
        <time>2020-12-20T09:38:15.718000+00:00</time>
      </trkpt>
      <trkpt lat="47.33741" lon="-1.27738">
        <ele>49</ele>
        <time>2020-12-20T09:38:16.685000+00:00</time>
      </trkpt>
      <trkpt lat="0" lon="0">
        <time>2020-12-20T09:38:16.689000+00:00</time>
      </trkpt>
      <trkpt lat="0" lon="0">
        <time>2020-12-20T09:38:16.691000+00:00</time>
      </trkpt>
      <trkpt lat="0" lon="0">
        <time>2020-12-20T09:38:16.693000+00:00</time>
      </trkpt>
      <trkpt lat="47.33743" lon="-1.27737">
        <ele>48</ele>
        <time>2020-12-20T09:38:17.698000+00:00</time>
      </trkpt>
      <trkpt lat="0" lon="0">
        <time>2020-12-20T09:38:17.711000+00:00</time>
      </trkpt>
      <trkpt lat="0" lon="0">
        <time>2020-12-20T09:38:17.715000+00:00</time>
      </trkpt>
      <trkpt lat="0" lon="0">
        <time>2020-12-20T09:38:17.718000+00:00</time>
      </trkpt>
      <trkpt lat="47.33745" lon="-1.27737">
        <ele>48</ele>
        <time>2020-12-20T09:38:18.706000+00:00</time>
      </trkpt>
      <trkpt lat="0" lon="0">
        <time>2020-12-20T09:38:18.714000+00:00</time>
      </trkpt>
      <trkpt lat="0" lon="0">
        <time>2020-12-20T09:38:18.718000+00:00</time>
      </trkpt>
      <trkpt lat="0" lon="0">
        <time>2020-12-20T09:38:18.720000+00:00</time>
      </trkpt>
      <trkpt lat="47.33746" lon="-1.27737">
        <ele>48</ele>
        <time>2020-12-20T09:38:19.685000+00:00</time>
      </trkpt>
      <trkpt lat="0" lon="0">
        <time>2020-12-20T09:38:19.695000+00:00</time>
      </trkpt>
      <trkpt lat="0" lon="0">
        <time>2020-12-20T09:38:19.699000+00:00</time>
      </trkpt>
      <trkpt lat="0" lon="0">
        <time>2020-12-20T09:38:19.701000+00:00</time>
      </trkpt>
      <trkpt lat="47.33748" lon="-1.27737">
        <ele>48</ele>
        <time>2020-12-20T09:38:20.703000+00:00</time>
      </trkpt>
      <trkpt lat="0" lon="0">
        <time>2020-12-20T09:38:20.714000+00:00</time>
      </trkpt>
      <trkpt lat="0" lon="0">
        <time>2020-12-20T09:38:20.717000+00:00</time>
      </trkpt>
      <trkpt lat="0" lon="0">
        <time>2020-12-20T09:38:20.720000+00:00</time>
      </trkpt>
      <trkpt lat="47.33749" lon="-1.27737">
        <ele>48</ele>
        <time>2020-12-20T09:38:21.698000+00:00</time>
      </trkpt>
      <trkpt lat="0" lon="0">
        <time>2020-12-20T09:38:21.708000+00:00</time>
      </trkpt>
      <trkpt lat="0" lon="0">
        <time>2020-12-20T09:38:21.714000+00:00</time>
      </trkpt>
      <trkpt lat="0" lon="0">
        <time>2020-12-20T09:38:21.716000+00:00</time>
      </trkpt>
      <trkpt lat="47.3375" lon="-1.27737">
        <ele>48</ele>
        <time>2020-12-20T09:38:22.708000+00:00</time>
      </trkpt>
      <trkpt lat="0" lon="0">
        <time>2020-12-20T09:38:22.724000+00:00</time>
      </trkpt>
      <trkpt lat="0" lon="0">
        <time>2020-12-20T09:38:22.728000+00:00</time>
      </trkpt>
      <trkpt lat="0" lon="0">
        <time>2020-12-20T09:38:22.734000+00:00</time>
      </trkpt>
      <trkpt lat="47.33773" lon="-1.27739">
        <ele>50</ele>
        <time>2020-12-20T09:38:23.707000+00:00</time>
      </trkpt>
      <trkpt lat="0" lon="0">
        <time>2020-12-20T09:38:23.717000+00:00</time>
      </trkpt>
      <trkpt lat="0" lon="0">
        <time>2020-12-20T09:38:23.721000+00:00</time>
      </trkpt>
      <trkpt lat="0" lon="0">
        <time>2020-12-20T09:38:23.723000+00:00</time>
      </trkpt>
      <trkpt lat="47.33776" lon="-1.27741">
        <ele>50</ele>
        <time>2020-12-20T09:38:24.737000+00:00</time>
      </trkpt>
      <trkpt lat="0" lon="0">
        <time>2020-12-20T09:38:24.742000+00:00</time>
      </trkpt>
      <trkpt lat="0" lon="0">
        <time>2020-12-20T09:38:24.753000+00:00</time>
      </trkpt>
      <trkpt lat="0" lon="0">
        <time>2020-12-20T09:38:24.756000+00:00</time>
      </trkpt>
      <trkpt lat="47.3378" lon="-1.27743">
        <ele>50</ele>
        <time>2020-12-20T09:38:25.733000+00:00</time>
      </trkpt>
      <trkpt lat="0" lon="0">
        <time>2020-12-20T09:38:25.737000+00:00</time>
      </trkpt>
      <trkpt lat="0" lon="0">
        <time>2020-12-20T09:38:25.742000+00:00</time>
      </trkpt>
      <trkpt lat="0" lon="0">
        <time>2020-12-20T09:38:25.744000+00:00</time>
      </trkpt>
      <trkpt lat="47.33784" lon="-1.27745">
        <ele>50</ele>
        <time>2020-12-20T09:38:26.712000+00:00</time>
      </trkpt>
      <trkpt lat="0" lon="0">
        <time>2020-12-20T09:38:26.721000+00:00</time>
      </trkpt>
      <trkpt lat="0" lon="0">
        <time>2020-12-20T09:38:26.726000+00:00</time>
      </trkpt>
      <trkpt lat="0" lon="0">
        <time>2020-12-20T09:38:26.729000+00:00</time>
      </trkpt>
      <trkpt lat="47.33787" lon="-1.27746">
        <ele>50</ele>
        <time>2020-12-20T09:38:27.738000+00:00</time>
      </trkpt>
      <trkpt lat="0" lon="0">
        <time>2020-12-20T09:38:27.741000+00:00</time>
      </trkpt>
      <trkpt lat="0" lon="0">
        <time>2020-12-20T09:38:27.744000+00:00</time>
      </trkpt>
      <trkpt lat="0" lon="0">
        <time>2020-12-20T09:38:27.745000+00:00</time>
      </trkpt>
      <trkpt lat="47.33791" lon="-1.27748">
        <ele>50</ele>
        <time>2020-12-20T09:38:28.729000+00:00</time>
      </trkpt>
      <trkpt lat="0" lon="0">
        <time>2020-12-20T09:38:28.734000+00:00</time>
      </trkpt>
      <trkpt lat="0" lon="0">
        <time>2020-12-20T09:38:28.739000+00:00</time>
      </trkpt>
      <trkpt lat="0" lon="0">
        <time>2020-12-20T09:38:28.745000+00:00</time>
      </trkpt>
      <trkpt lat="47.33795" lon="-1.27749">
        <ele>50</ele>
        <time>2020-12-20T09:38:29.755000+00:00</time>
      </trkpt>
      <trkpt lat="0" lon="0">
        <time>2020-12-20T09:38:29.758000+00:00</time>
      </trkpt>
      <trkpt lat="0" lon="0">
        <time>2020-12-20T09:38:29.763000+00:00</time>
      </trkpt>
      <trkpt lat="0" lon="0">
        <time>2020-12-20T09:38:29.765000+00:00</time>
      </trkpt>
      <trkpt lat="47.33799" lon="-1.27751">
        <ele>50</ele>
        <time>2020-12-20T09:38:30.794000+00:00</time>
      </trkpt>
      <trkpt lat="0" lon="0">
        <time>2020-12-20T09:38:30.801000+00:00</time>
      </trkpt>
      <trkpt lat="0" lon="0">
        <time>2020-12-20T09:38:30.805000+00:00</time>
      </trkpt>
      <trkpt lat="0" lon="0">
        <time>2020-12-20T09:38:30.807000+00:00</time>
      </trkpt>
      <trkpt lat="47.33804" lon="-1.27752">
        <ele>50</ele>
        <time>2020-12-20T09:38:31.743000+00:00</time>
      </trkpt>
      <trkpt lat="0" lon="0">
        <time>2020-12-20T09:38:31.753000+00:00</time>
      </trkpt>
      <trkpt lat="0" lon="0">
        <time>2020-12-20T09:38:31.758000+00:00</time>
      </trkpt>
      <trkpt lat="0" lon="0">
        <time>2020-12-20T09:38:31.761000+00:00</time>
      </trkpt>
      <trkpt lat="47.33808" lon="-1.27754">
        <ele>51</ele>
        <time>2020-12-20T09:38:32.752000+00:00</time>
      </trkpt>
      <trkpt lat="0" lon="0">
        <time>2020-12-20T09:38:32.759000+00:00</time>
      </trkpt>
      <trkpt lat="0" lon="0">
        <time>2020-12-20T09:38:32.764000+00:00</time>
      </trkpt>
      <trkpt lat="0" lon="0">
        <time>2020-12-20T09:38:32.766000+00:00</time>
      </trkpt>
      <trkpt lat="47.33812" lon="-1.27755">
        <ele>52</ele>
        <time>2020-12-20T09:38:33.757000+00:00</time>
      </trkpt>
      <trkpt lat="0" lon="0">
        <time>2020-12-20T09:38:33.763000+00:00</time>
      </trkpt>
      <trkpt lat="0" lon="0">
        <time>2020-12-20T09:38:33.781000+00:00</time>
      </trkpt>
      <trkpt lat="0" lon="0">
        <time>2020-12-20T09:38:33.783000+00:00</time>
      </trkpt>
      <trkpt lat="47.33816" lon="-1.27757">
        <ele>52</ele>
        <time>2020-12-20T09:38:34.734000+00:00</time>
      </trkpt>
      <trkpt lat="0" lon="0">
        <time>2020-12-20T09:38:34.745000+00:00</time>
      </trkpt>
      <trkpt lat="0" lon="0">
        <time>2020-12-20T09:38:34.752000+00:00</time>
      </trkpt>
      <trkpt lat="0" lon="0">
        <time>2020-12-20T09:38:34.755000+00:00</time>
      </trkpt>
      <trkpt lat="47.3382" lon="-1.27758">
        <ele>52</ele>
        <time>2020-12-20T09:38:35.752000+00:00</time>
      </trkpt>
      <trkpt lat="0" lon="0">
        <time>2020-12-20T09:38:35.762000+00:00</time>
      </trkpt>
      <trkpt lat="0" lon="0">
        <time>2020-12-20T09:38:35.767000+00:00</time>
      </trkpt>
      <trkpt lat="0" lon="0">
        <time>2020-12-20T09:38:35.769000+00:00</time>
      </trkpt>
      <trkpt lat="47.33825" lon="-1.27759">
        <ele>52</ele>
        <time>2020-12-20T09:38:36.751000+00:00</time>
      </trkpt>
      <trkpt lat="0" lon="0">
        <time>2020-12-20T09:38:36.759000+00:00</time>
      </trkpt>
      <trkpt lat="0" lon="0">
        <time>2020-12-20T09:38:36.763000+00:00</time>
      </trkpt>
      <trkpt lat="0" lon="0">
        <time>2020-12-20T09:38:36.773000+00:00</time>
      </trkpt>
      <trkpt lat="47.33829" lon="-1.27761">
        <ele>53</ele>
        <time>2020-12-20T09:38:37.779000+00:00</time>
      </trkpt>
      <trkpt lat="0" lon="0">
        <time>2020-12-20T09:38:37.784000+00:00</time>
      </trkpt>
      <trkpt lat="0" lon="0">
        <time>2020-12-20T09:38:37.793000+00:00</time>
      </trkpt>
      <trkpt lat="0" lon="0">
        <time>2020-12-20T09:38:37.796000+00:00</time>
      </trkpt>
      <trkpt lat="47.33833" lon="-1.27762">
        <ele>53</ele>
        <time>2020-12-20T09:38:38.750000+00:00</time>
      </trkpt>
      <trkpt lat="0" lon="0">
        <time>2020-12-20T09:38:38.757000+00:00</time>
      </trkpt>
      <trkpt lat="0" lon="0">
        <time>2020-12-20T09:38:38.762000+00:00</time>
      </trkpt>
      <trkpt lat="0" lon="0">
        <time>2020-12-20T09:38:38.767000+00:00</time>
      </trkpt>
      <trkpt lat="47.33838" lon="-1.27764">
        <ele>53</ele>
        <time>2020-12-20T09:38:39.743000+00:00</time>
      </trkpt>
      <trkpt lat="0" lon="0">
        <time>2020-12-20T09:38:39.765000+00:00</time>
      </trkpt>
      <trkpt lat="0" lon="0">
        <time>2020-12-20T09:38:39.773000+00:00</time>
      </trkpt>
      <trkpt lat="0" lon="0">
        <time>2020-12-20T09:38:39.778000+00:00</time>
      </trkpt>
      <trkpt lat="47.33842" lon="-1.27765">
        <ele>53</ele>
        <time>2020-12-20T09:38:40.710000+00:00</time>
      </trkpt>
      <trkpt lat="0" lon="0">
        <time>2020-12-20T09:38:40.716000+00:00</time>
      </trkpt>
      <trkpt lat="0" lon="0">
        <time>2020-12-20T09:38:40.721000+00:00</time>
      </trkpt>
      <trkpt lat="0" lon="0">
        <time>2020-12-20T09:38:40.726000+00:00</time>
      </trkpt>
      <trkpt lat="47.33847" lon="-1.27766">
        <ele>52</ele>
        <time>2020-12-20T09:38:41.762000+00:00</time>
      </trkpt>
      <trkpt lat="0" lon="0">
        <time>2020-12-20T09:38:41.766000+00:00</time>
      </trkpt>
      <trkpt lat="0" lon="0">
        <time>2020-12-20T09:38:41.770000+00:00</time>
      </trkpt>
      <trkpt lat="0" lon="0">
        <time>2020-12-20T09:38:41.773000+00:00</time>
      </trkpt>
      <trkpt lat="47.33851" lon="-1.27768">
        <ele>52</ele>
        <time>2020-12-20T09:38:42.745000+00:00</time>
      </trkpt>
      <trkpt lat="0" lon="0">
        <time>2020-12-20T09:38:42.750000+00:00</time>
      </trkpt>
      <trkpt lat="0" lon="0">
        <time>2020-12-20T09:38:42.754000+00:00</time>
      </trkpt>
      <trkpt lat="0" lon="0">
        <time>2020-12-20T09:38:42.756000+00:00</time>
      </trkpt>
      <trkpt lat="47.33856" lon="-1.27769">
        <ele>52</ele>
        <time>2020-12-20T09:38:43.745000+00:00</time>
      </trkpt>
      <trkpt lat="0" lon="0">
        <time>2020-12-20T09:38:43.754000+00:00</time>
      </trkpt>
      <trkpt lat="0" lon="0">
        <time>2020-12-20T09:38:43.759000+00:00</time>
      </trkpt>
      <trkpt lat="0" lon="0">
        <time>2020-12-20T09:38:43.762000+00:00</time>
      </trkpt>
      <trkpt lat="47.33861" lon="-1.27771">
        <ele>52</ele>
        <time>2020-12-20T09:38:44.770000+00:00</time>
      </trkpt>
      <trkpt lat="0" lon="0">
        <time>2020-12-20T09:38:44.774000+00:00</time>
      </trkpt>
      <trkpt lat="0" lon="0">
        <time>2020-12-20T09:38:44.782000+00:00</time>
      </trkpt>
      <trkpt lat="0" lon="0">
        <time>2020-12-20T09:38:44.784000+00:00</time>
      </trkpt>
      <trkpt lat="47.33865" lon="-1.27772">
        <ele>52</ele>
        <time>2020-12-20T09:38:45.759000+00:00</time>
      </trkpt>
      <trkpt lat="0" lon="0">
        <time>2020-12-20T09:38:45.778000+00:00</time>
      </trkpt>
      <trkpt lat="0" lon="0">
        <time>2020-12-20T09:38:45.789000+00:00</time>
      </trkpt>
      <trkpt lat="0" lon="0">
        <time>2020-12-20T09:38:45.792000+00:00</time>
      </trkpt>
      <trkpt lat="47.3387" lon="-1.27774">
        <ele>52</ele>
        <time>2020-12-20T09:38:46.735000+00:00</time>
      </trkpt>
      <trkpt lat="0" lon="0">
        <time>2020-12-20T09:38:46.743000+00:00</time>
      </trkpt>
      <trkpt lat="0" lon="0">
        <time>2020-12-20T09:38:46.754000+00:00</time>
      </trkpt>
      <trkpt lat="0" lon="0">
        <time>2020-12-20T09:38:46.761000+00:00</time>
      </trkpt>
      <trkpt lat="47.33875" lon="-1.27775">
        <ele>52</ele>
        <time>2020-12-20T09:38:47.755000+00:00</time>
      </trkpt>
      <trkpt lat="0" lon="0">
        <time>2020-12-20T09:38:47.763000+00:00</time>
      </trkpt>
      <trkpt lat="0" lon="0">
        <time>2020-12-20T09:38:47.769000+00:00</time>
      </trkpt>
      <trkpt lat="0" lon="0">
        <time>2020-12-20T09:38:47.771000+00:00</time>
      </trkpt>
      <trkpt lat="47.3388" lon="-1.27777">
        <ele>52</ele>
        <time>2020-12-20T09:38:48.742000+00:00</time>
      </trkpt>
      <trkpt lat="0" lon="0">
        <time>2020-12-20T09:38:48.751000+00:00</time>
      </trkpt>
      <trkpt lat="0" lon="0">
        <time>2020-12-20T09:38:48.755000+00:00</time>
      </trkpt>
      <trkpt lat="0" lon="0">
        <time>2020-12-20T09:38:48.758000+00:00</time>
      </trkpt>
      <trkpt lat="47.33885" lon="-1.27779">
        <ele>52</ele>
        <time>2020-12-20T09:38:49.746000+00:00</time>
      </trkpt>
      <trkpt lat="0" lon="0">
        <time>2020-12-20T09:38:49.762000+00:00</time>
      </trkpt>
      <trkpt lat="0" lon="0">
        <time>2020-12-20T09:38:49.767000+00:00</time>
      </trkpt>
      <trkpt lat="0" lon="0">
        <time>2020-12-20T09:38:49.771000+00:00</time>
      </trkpt>
      <trkpt lat="47.3389" lon="-1.2778">
        <ele>52</ele>
        <time>2020-12-20T09:38:50.756000+00:00</time>
      </trkpt>
      <trkpt lat="0" lon="0">
        <time>2020-12-20T09:38:50.767000+00:00</time>
      </trkpt>
      <trkpt lat="0" lon="0">
        <time>2020-12-20T09:38:50.771000+00:00</time>
      </trkpt>
      <trkpt lat="0" lon="0">
        <time>2020-12-20T09:38:50.773000+00:00</time>
      </trkpt>
      <trkpt lat="47.33894" lon="-1.27782">
        <ele>53</ele>
        <time>2020-12-20T09:38:51.760000+00:00</time>
      </trkpt>
      <trkpt lat="0" lon="0">
        <time>2020-12-20T09:38:51.767000+00:00</time>
      </trkpt>
      <trkpt lat="0" lon="0">
        <time>2020-12-20T09:38:51.772000+00:00</time>
      </trkpt>
      <trkpt lat="0" lon="0">
        <time>2020-12-20T09:38:51.775000+00:00</time>
      </trkpt>
      <trkpt lat="47.33899" lon="-1.27784">
        <ele>53</ele>
        <time>2020-12-20T09:38:52.750000+00:00</time>
      </trkpt>
      <trkpt lat="0" lon="0">
        <time>2020-12-20T09:38:52.755000+00:00</time>
      </trkpt>
      <trkpt lat="0" lon="0">
        <time>2020-12-20T09:38:52.764000+00:00</time>
      </trkpt>
      <trkpt lat="0" lon="0">
        <time>2020-12-20T09:38:52.766000+00:00</time>
      </trkpt>
      <trkpt lat="47.33904" lon="-1.27785">
        <ele>52</ele>
        <time>2020-12-20T09:38:53.749000+00:00</time>
      </trkpt>
      <trkpt lat="0" lon="0">
        <time>2020-12-20T09:38:53.764000+00:00</time>
      </trkpt>
      <trkpt lat="0" lon="0">
        <time>2020-12-20T09:38:53.771000+00:00</time>
      </trkpt>
      <trkpt lat="0" lon="0">
        <time>2020-12-20T09:38:53.774000+00:00</time>
      </trkpt>
      <trkpt lat="47.33908" lon="-1.27787">
        <ele>52</ele>
        <time>2020-12-20T09:38:54.761000+00:00</time>
      </trkpt>
      <trkpt lat="0" lon="0">
        <time>2020-12-20T09:38:54.777000+00:00</time>
      </trkpt>
      <trkpt lat="0" lon="0">
        <time>2020-12-20T09:38:54.782000+00:00</time>
      </trkpt>
      <trkpt lat="0" lon="0">
        <time>2020-12-20T09:38:54.783000+00:00</time>
      </trkpt>
      <trkpt lat="47.33913" lon="-1.27788">
        <ele>51</ele>
        <time>2020-12-20T09:38:55.754000+00:00</time>
      </trkpt>
      <trkpt lat="0" lon="0">
        <time>2020-12-20T09:38:55.765000+00:00</time>
      </trkpt>
      <trkpt lat="0" lon="0">
        <time>2020-12-20T09:38:55.770000+00:00</time>
      </trkpt>
      <trkpt lat="0" lon="0">
        <time>2020-12-20T09:38:55.772000+00:00</time>
      </trkpt>
      <trkpt lat="47.33918" lon="-1.27789">
        <ele>52</ele>
        <time>2020-12-20T09:38:56.733000+00:00</time>
      </trkpt>
      <trkpt lat="0" lon="0">
        <time>2020-12-20T09:38:56.760000+00:00</time>
      </trkpt>
      <trkpt lat="0" lon="0">
        <time>2020-12-20T09:38:56.764000+00:00</time>
      </trkpt>
      <trkpt lat="0" lon="0">
        <time>2020-12-20T09:38:56.769000+00:00</time>
      </trkpt>
      <trkpt lat="47.33922" lon="-1.27791">
        <ele>52</ele>
        <time>2020-12-20T09:38:57.769000+00:00</time>
      </trkpt>
      <trkpt lat="0" lon="0">
        <time>2020-12-20T09:38:57.780000+00:00</time>
      </trkpt>
      <trkpt lat="0" lon="0">
        <time>2020-12-20T09:38:57.784000+00:00</time>
      </trkpt>
      <trkpt lat="0" lon="0">
        <time>2020-12-20T09:38:57.786000+00:00</time>
      </trkpt>
      <trkpt lat="47.33927" lon="-1.27793">
        <ele>52</ele>
        <time>2020-12-20T09:38:58.740000+00:00</time>
      </trkpt>
      <trkpt lat="0" lon="0">
        <time>2020-12-20T09:38:58.747000+00:00</time>
      </trkpt>
      <trkpt lat="0" lon="0">
        <time>2020-12-20T09:38:58.756000+00:00</time>
      </trkpt>
      <trkpt lat="0" lon="0">
        <time>2020-12-20T09:38:58.758000+00:00</time>
      </trkpt>
      <trkpt lat="47.33932" lon="-1.27794">
        <ele>53</ele>
        <time>2020-12-20T09:38:59.756000+00:00</time>
      </trkpt>
      <trkpt lat="0" lon="0">
        <time>2020-12-20T09:38:59.759000+00:00</time>
      </trkpt>
      <trkpt lat="0" lon="0">
        <time>2020-12-20T09:38:59.762000+00:00</time>
      </trkpt>
      <trkpt lat="0" lon="0">
        <time>2020-12-20T09:38:59.763000+00:00</time>
      </trkpt>
      <trkpt lat="47.33937" lon="-1.27796">
        <ele>53</ele>
        <time>2020-12-20T09:39:00.751000+00:00</time>
      </trkpt>
      <trkpt lat="0" lon="0">
        <time>2020-12-20T09:39:00.759000+00:00</time>
      </trkpt>
      <trkpt lat="0" lon="0">
        <time>2020-12-20T09:39:00.764000+00:00</time>
      </trkpt>
      <trkpt lat="0" lon="0">
        <time>2020-12-20T09:39:00.767000+00:00</time>
      </trkpt>
      <trkpt lat="47.33941" lon="-1.27798">
        <ele>53</ele>
        <time>2020-12-20T09:39:01.689000+00:00</time>
      </trkpt>
      <trkpt lat="0" lon="0">
        <time>2020-12-20T09:39:01.694000+00:00</time>
      </trkpt>
      <trkpt lat="0" lon="0">
        <time>2020-12-20T09:39:01.698000+00:00</time>
      </trkpt>
      <trkpt lat="0" lon="0">
        <time>2020-12-20T09:39:01.701000+00:00</time>
      </trkpt>
      <trkpt lat="47.33946" lon="-1.27799">
        <ele>53</ele>
        <time>2020-12-20T09:39:02.720000+00:00</time>
      </trkpt>
      <trkpt lat="0" lon="0">
        <time>2020-12-20T09:39:02.734000+00:00</time>
      </trkpt>
      <trkpt lat="0" lon="0">
        <time>2020-12-20T09:39:02.738000+00:00</time>
      </trkpt>
      <trkpt lat="0" lon="0">
        <time>2020-12-20T09:39:02.740000+00:00</time>
      </trkpt>
      <trkpt lat="47.33951" lon="-1.27801">
        <ele>53</ele>
        <time>2020-12-20T09:39:03.681000+00:00</time>
      </trkpt>
      <trkpt lat="0" lon="0">
        <time>2020-12-20T09:39:03.688000+00:00</time>
      </trkpt>
      <trkpt lat="0" lon="0">
        <time>2020-12-20T09:39:03.691000+00:00</time>
      </trkpt>
      <trkpt lat="0" lon="0">
        <time>2020-12-20T09:39:03.694000+00:00</time>
      </trkpt>
      <trkpt lat="47.33956" lon="-1.27803">
        <ele>53</ele>
        <time>2020-12-20T09:39:04.744000+00:00</time>
      </trkpt>
      <trkpt lat="0" lon="0">
        <time>2020-12-20T09:39:04.755000+00:00</time>
      </trkpt>
      <trkpt lat="0" lon="0">
        <time>2020-12-20T09:39:04.759000+00:00</time>
      </trkpt>
      <trkpt lat="0" lon="0">
        <time>2020-12-20T09:39:04.761000+00:00</time>
      </trkpt>
      <trkpt lat="47.33961" lon="-1.27805">
        <ele>53</ele>
        <time>2020-12-20T09:39:05.752000+00:00</time>
      </trkpt>
      <trkpt lat="0" lon="0">
        <time>2020-12-20T09:39:05.761000+00:00</time>
      </trkpt>
      <trkpt lat="0" lon="0">
        <time>2020-12-20T09:39:05.766000+00:00</time>
      </trkpt>
      <trkpt lat="0" lon="0">
        <time>2020-12-20T09:39:05.768000+00:00</time>
      </trkpt>
      <trkpt lat="47.33966" lon="-1.27806">
        <ele>53</ele>
        <time>2020-12-20T09:39:06.750000+00:00</time>
      </trkpt>
      <trkpt lat="0" lon="0">
        <time>2020-12-20T09:39:06.757000+00:00</time>
      </trkpt>
      <trkpt lat="0" lon="0">
        <time>2020-12-20T09:39:06.766000+00:00</time>
      </trkpt>
      <trkpt lat="0" lon="0">
        <time>2020-12-20T09:39:06.775000+00:00</time>
      </trkpt>
      <trkpt lat="47.33971" lon="-1.27808">
        <ele>53</ele>
        <time>2020-12-20T09:39:07.769000+00:00</time>
      </trkpt>
      <trkpt lat="0" lon="0">
        <time>2020-12-20T09:39:07.790000+00:00</time>
      </trkpt>
      <trkpt lat="0" lon="0">
        <time>2020-12-20T09:39:07.794000+00:00</time>
      </trkpt>
      <trkpt lat="0" lon="0">
        <time>2020-12-20T09:39:07.797000+00:00</time>
      </trkpt>
      <trkpt lat="47.33976" lon="-1.2781">
        <ele>53</ele>
        <time>2020-12-20T09:39:08.767000+00:00</time>
      </trkpt>
      <trkpt lat="0" lon="0">
        <time>2020-12-20T09:39:08.775000+00:00</time>
      </trkpt>
      <trkpt lat="0" lon="0">
        <time>2020-12-20T09:39:08.779000+00:00</time>
      </trkpt>
      <trkpt lat="0" lon="0">
        <time>2020-12-20T09:39:08.781000+00:00</time>
      </trkpt>
      <trkpt lat="47.33981" lon="-1.27811">
        <ele>53</ele>
        <time>2020-12-20T09:39:09.750000+00:00</time>
      </trkpt>
      <trkpt lat="0" lon="0">
        <time>2020-12-20T09:39:09.758000+00:00</time>
      </trkpt>
      <trkpt lat="0" lon="0">
        <time>2020-12-20T09:39:09.769000+00:00</time>
      </trkpt>
      <trkpt lat="0" lon="0">
        <time>2020-12-20T09:39:09.773000+00:00</time>
      </trkpt>
      <trkpt lat="47.33987" lon="-1.27813">
        <ele>53</ele>
        <time>2020-12-20T09:39:10.739000+00:00</time>
      </trkpt>
      <trkpt lat="0" lon="0">
        <time>2020-12-20T09:39:10.746000+00:00</time>
      </trkpt>
      <trkpt lat="0" lon="0">
        <time>2020-12-20T09:39:10.751000+00:00</time>
      </trkpt>
      <trkpt lat="0" lon="0">
        <time>2020-12-20T09:39:10.754000+00:00</time>
      </trkpt>
      <trkpt lat="47.33992" lon="-1.27815">
        <ele>53</ele>
        <time>2020-12-20T09:39:11.747000+00:00</time>
      </trkpt>
      <trkpt lat="0" lon="0">
        <time>2020-12-20T09:39:11.756000+00:00</time>
      </trkpt>
      <trkpt lat="0" lon="0">
        <time>2020-12-20T09:39:11.761000+00:00</time>
      </trkpt>
      <trkpt lat="0" lon="0">
        <time>2020-12-20T09:39:11.764000+00:00</time>
      </trkpt>
      <trkpt lat="47.33997" lon="-1.27816">
        <ele>53</ele>
        <time>2020-12-20T09:39:12.761000+00:00</time>
      </trkpt>
      <trkpt lat="0" lon="0">
        <time>2020-12-20T09:39:12.766000+00:00</time>
      </trkpt>
      <trkpt lat="0" lon="0">
        <time>2020-12-20T09:39:12.774000+00:00</time>
      </trkpt>
      <trkpt lat="0" lon="0">
        <time>2020-12-20T09:39:12.785000+00:00</time>
      </trkpt>
      <trkpt lat="47.34002" lon="-1.27818">
        <ele>54</ele>
        <time>2020-12-20T09:39:13.790000+00:00</time>
      </trkpt>
      <trkpt lat="0" lon="0">
        <time>2020-12-20T09:39:13.795000+00:00</time>
      </trkpt>
      <trkpt lat="0" lon="0">
        <time>2020-12-20T09:39:13.799000+00:00</time>
      </trkpt>
      <trkpt lat="0" lon="0">
        <time>2020-12-20T09:39:13.801000+00:00</time>
      </trkpt>
      <trkpt lat="47.34008" lon="-1.27819">
        <ele>54</ele>
        <time>2020-12-20T09:39:14.760000+00:00</time>
      </trkpt>
      <trkpt lat="0" lon="0">
        <time>2020-12-20T09:39:14.769000+00:00</time>
      </trkpt>
      <trkpt lat="0" lon="0">
        <time>2020-12-20T09:39:14.773000+00:00</time>
      </trkpt>
      <trkpt lat="0" lon="0">
        <time>2020-12-20T09:39:14.776000+00:00</time>
      </trkpt>
      <trkpt lat="47.34013" lon="-1.27821">
        <ele>54</ele>
        <time>2020-12-20T09:39:15.739000+00:00</time>
      </trkpt>
      <trkpt lat="0" lon="0">
        <time>2020-12-20T09:39:15.744000+00:00</time>
      </trkpt>
      <trkpt lat="0" lon="0">
        <time>2020-12-20T09:39:15.751000+00:00</time>
      </trkpt>
      <trkpt lat="0" lon="0">
        <time>2020-12-20T09:39:15.754000+00:00</time>
      </trkpt>
      <trkpt lat="47.34018" lon="-1.27822">
        <ele>54</ele>
        <time>2020-12-20T09:39:16.735000+00:00</time>
      </trkpt>
      <trkpt lat="0" lon="0">
        <time>2020-12-20T09:39:16.740000+00:00</time>
      </trkpt>
      <trkpt lat="0" lon="0">
        <time>2020-12-20T09:39:16.745000+00:00</time>
      </trkpt>
      <trkpt lat="0" lon="0">
        <time>2020-12-20T09:39:16.748000+00:00</time>
      </trkpt>
      <trkpt lat="47.34023" lon="-1.27824">
        <ele>55</ele>
        <time>2020-12-20T09:39:17.756000+00:00</time>
      </trkpt>
      <trkpt lat="0" lon="0">
        <time>2020-12-20T09:39:17.770000+00:00</time>
      </trkpt>
      <trkpt lat="0" lon="0">
        <time>2020-12-20T09:39:17.774000+00:00</time>
      </trkpt>
      <trkpt lat="0" lon="0">
        <time>2020-12-20T09:39:17.776000+00:00</time>
      </trkpt>
      <trkpt lat="47.34028" lon="-1.27826">
        <ele>55</ele>
        <time>2020-12-20T09:39:18.733000+00:00</time>
      </trkpt>
      <trkpt lat="0" lon="0">
        <time>2020-12-20T09:39:18.758000+00:00</time>
      </trkpt>
      <trkpt lat="0" lon="0">
        <time>2020-12-20T09:39:18.762000+00:00</time>
      </trkpt>
      <trkpt lat="0" lon="0">
        <time>2020-12-20T09:39:18.764000+00:00</time>
      </trkpt>
      <trkpt lat="47.34033" lon="-1.27827">
        <ele>55</ele>
        <time>2020-12-20T09:39:19.760000+00:00</time>
      </trkpt>
      <trkpt lat="0" lon="0">
        <time>2020-12-20T09:39:19.766000+00:00</time>
      </trkpt>
      <trkpt lat="0" lon="0">
        <time>2020-12-20T09:39:19.770000+00:00</time>
      </trkpt>
      <trkpt lat="0" lon="0">
        <time>2020-12-20T09:39:19.772000+00:00</time>
      </trkpt>
      <trkpt lat="47.34039" lon="-1.27829">
        <ele>55</ele>
        <time>2020-12-20T09:39:20.759000+00:00</time>
      </trkpt>
      <trkpt lat="0" lon="0">
        <time>2020-12-20T09:39:20.768000+00:00</time>
      </trkpt>
      <trkpt lat="0" lon="0">
        <time>2020-12-20T09:39:20.774000+00:00</time>
      </trkpt>
      <trkpt lat="0" lon="0">
        <time>2020-12-20T09:39:20.778000+00:00</time>
      </trkpt>
      <trkpt lat="47.34044" lon="-1.27831">
        <ele>55</ele>
        <time>2020-12-20T09:39:21.753000+00:00</time>
      </trkpt>
      <trkpt lat="0" lon="0">
        <time>2020-12-20T09:39:21.758000+00:00</time>
      </trkpt>
      <trkpt lat="0" lon="0">
        <time>2020-12-20T09:39:21.767000+00:00</time>
      </trkpt>
      <trkpt lat="0" lon="0">
        <time>2020-12-20T09:39:21.769000+00:00</time>
      </trkpt>
      <trkpt lat="47.3405" lon="-1.27832">
        <ele>55</ele>
        <time>2020-12-20T09:39:22.750000+00:00</time>
      </trkpt>
      <trkpt lat="0" lon="0">
        <time>2020-12-20T09:39:22.765000+00:00</time>
      </trkpt>
      <trkpt lat="0" lon="0">
        <time>2020-12-20T09:39:22.770000+00:00</time>
      </trkpt>
      <trkpt lat="0" lon="0">
        <time>2020-12-20T09:39:22.772000+00:00</time>
      </trkpt>
      <trkpt lat="47.34055" lon="-1.27834">
        <ele>55</ele>
        <time>2020-12-20T09:39:23.755000+00:00</time>
      </trkpt>
      <trkpt lat="0" lon="0">
        <time>2020-12-20T09:39:23.765000+00:00</time>
      </trkpt>
      <trkpt lat="0" lon="0">
        <time>2020-12-20T09:39:23.774000+00:00</time>
      </trkpt>
      <trkpt lat="0" lon="0">
        <time>2020-12-20T09:39:23.779000+00:00</time>
      </trkpt>
      <trkpt lat="47.3406" lon="-1.27836">
        <ele>55</ele>
        <time>2020-12-20T09:39:24.719000+00:00</time>
      </trkpt>
      <trkpt lat="0" lon="0">
        <time>2020-12-20T09:39:24.721000+00:00</time>
      </trkpt>
      <trkpt lat="0" lon="0">
        <time>2020-12-20T09:39:24.722000+00:00</time>
      </trkpt>
      <trkpt lat="0" lon="0">
        <time>2020-12-20T09:39:24.723000+00:00</time>
      </trkpt>
      <trkpt lat="47.34065" lon="-1.27837">
        <ele>55</ele>
        <time>2020-12-20T09:39:25.768000+00:00</time>
      </trkpt>
      <trkpt lat="0" lon="0">
        <time>2020-12-20T09:39:25.774000+00:00</time>
      </trkpt>
      <trkpt lat="0" lon="0">
        <time>2020-12-20T09:39:25.779000+00:00</time>
      </trkpt>
      <trkpt lat="0" lon="0">
        <time>2020-12-20T09:39:25.782000+00:00</time>
      </trkpt>
      <trkpt lat="47.34071" lon="-1.27839">
        <ele>55</ele>
        <time>2020-12-20T09:39:26.784000+00:00</time>
      </trkpt>
      <trkpt lat="0" lon="0">
        <time>2020-12-20T09:39:26.791000+00:00</time>
      </trkpt>
      <trkpt lat="0" lon="0">
        <time>2020-12-20T09:39:26.795000+00:00</time>
      </trkpt>
      <trkpt lat="0" lon="0">
        <time>2020-12-20T09:39:26.798000+00:00</time>
      </trkpt>
      <trkpt lat="47.34076" lon="-1.27841">
        <ele>55</ele>
        <time>2020-12-20T09:39:27.737000+00:00</time>
      </trkpt>
      <trkpt lat="0" lon="0">
        <time>2020-12-20T09:39:27.743000+00:00</time>
      </trkpt>
      <trkpt lat="0" lon="0">
        <time>2020-12-20T09:39:27.755000+00:00</time>
      </trkpt>
      <trkpt lat="0" lon="0">
        <time>2020-12-20T09:39:27.757000+00:00</time>
      </trkpt>
      <trkpt lat="47.34081" lon="-1.27842">
        <ele>55</ele>
        <time>2020-12-20T09:39:28.756000+00:00</time>
      </trkpt>
      <trkpt lat="0" lon="0">
        <time>2020-12-20T09:39:28.762000+00:00</time>
      </trkpt>
      <trkpt lat="0" lon="0">
        <time>2020-12-20T09:39:28.771000+00:00</time>
      </trkpt>
      <trkpt lat="0" lon="0">
        <time>2020-12-20T09:39:28.776000+00:00</time>
      </trkpt>
      <trkpt lat="47.34086" lon="-1.27844">
        <ele>55</ele>
        <time>2020-12-20T09:39:29.764000+00:00</time>
      </trkpt>
      <trkpt lat="0" lon="0">
        <time>2020-12-20T09:39:29.769000+00:00</time>
      </trkpt>
      <trkpt lat="0" lon="0">
        <time>2020-12-20T09:39:29.786000+00:00</time>
      </trkpt>
      <trkpt lat="0" lon="0">
        <time>2020-12-20T09:39:29.788000+00:00</time>
      </trkpt>
      <trkpt lat="47.34091" lon="-1.27846">
        <ele>56</ele>
        <time>2020-12-20T09:39:30.758000+00:00</time>
      </trkpt>
      <trkpt lat="0" lon="0">
        <time>2020-12-20T09:39:30.767000+00:00</time>
      </trkpt>
      <trkpt lat="0" lon="0">
        <time>2020-12-20T09:39:30.769000+00:00</time>
      </trkpt>
      <trkpt lat="0" lon="0">
        <time>2020-12-20T09:39:30.770000+00:00</time>
      </trkpt>
      <trkpt lat="47.34097" lon="-1.27847">
        <ele>56</ele>
        <time>2020-12-20T09:39:31.719000+00:00</time>
      </trkpt>
      <trkpt lat="0" lon="0">
        <time>2020-12-20T09:39:31.730000+00:00</time>
      </trkpt>
      <trkpt lat="0" lon="0">
        <time>2020-12-20T09:39:31.740000+00:00</time>
      </trkpt>
      <trkpt lat="0" lon="0">
        <time>2020-12-20T09:39:31.747000+00:00</time>
      </trkpt>
      <trkpt lat="47.34102" lon="-1.27849">
        <ele>56</ele>
        <time>2020-12-20T09:39:32.746000+00:00</time>
      </trkpt>
      <trkpt lat="0" lon="0">
        <time>2020-12-20T09:39:32.751000+00:00</time>
      </trkpt>
      <trkpt lat="0" lon="0">
        <time>2020-12-20T09:39:32.758000+00:00</time>
      </trkpt>
      <trkpt lat="0" lon="0">
        <time>2020-12-20T09:39:32.762000+00:00</time>
      </trkpt>
      <trkpt lat="47.34107" lon="-1.27851">
        <ele>56</ele>
        <time>2020-12-20T09:39:33.735000+00:00</time>
      </trkpt>
      <trkpt lat="0" lon="0">
        <time>2020-12-20T09:39:33.744000+00:00</time>
      </trkpt>
      <trkpt lat="0" lon="0">
        <time>2020-12-20T09:39:33.749000+00:00</time>
      </trkpt>
      <trkpt lat="0" lon="0">
        <time>2020-12-20T09:39:33.751000+00:00</time>
      </trkpt>
      <trkpt lat="47.34112" lon="-1.27853">
        <ele>56</ele>
        <time>2020-12-20T09:39:34.763000+00:00</time>
      </trkpt>
      <trkpt lat="0" lon="0">
        <time>2020-12-20T09:39:34.770000+00:00</time>
      </trkpt>
      <trkpt lat="0" lon="0">
        <time>2020-12-20T09:39:34.774000+00:00</time>
      </trkpt>
      <trkpt lat="0" lon="0">
        <time>2020-12-20T09:39:34.778000+00:00</time>
      </trkpt>
      <trkpt lat="47.34117" lon="-1.27855">
        <ele>57</ele>
        <time>2020-12-20T09:39:35.741000+00:00</time>
      </trkpt>
      <trkpt lat="0" lon="0">
        <time>2020-12-20T09:39:35.751000+00:00</time>
      </trkpt>
      <trkpt lat="0" lon="0">
        <time>2020-12-20T09:39:35.758000+00:00</time>
      </trkpt>
      <trkpt lat="0" lon="0">
        <time>2020-12-20T09:39:35.763000+00:00</time>
      </trkpt>
      <trkpt lat="47.34123" lon="-1.27856">
        <ele>57</ele>
        <time>2020-12-20T09:39:36.751000+00:00</time>
      </trkpt>
      <trkpt lat="0" lon="0">
        <time>2020-12-20T09:39:36.771000+00:00</time>
      </trkpt>
      <trkpt lat="0" lon="0">
        <time>2020-12-20T09:39:36.777000+00:00</time>
      </trkpt>
      <trkpt lat="0" lon="0">
        <time>2020-12-20T09:39:36.780000+00:00</time>
      </trkpt>
      <trkpt lat="47.34128" lon="-1.27858">
        <ele>57</ele>
        <time>2020-12-20T09:39:37.757000+00:00</time>
      </trkpt>
      <trkpt lat="0" lon="0">
        <time>2020-12-20T09:39:37.767000+00:00</time>
      </trkpt>
      <trkpt lat="0" lon="0">
        <time>2020-12-20T09:39:37.774000+00:00</time>
      </trkpt>
      <trkpt lat="0" lon="0">
        <time>2020-12-20T09:39:37.776000+00:00</time>
      </trkpt>
      <trkpt lat="47.34133" lon="-1.2786">
        <ele>57</ele>
        <time>2020-12-20T09:39:38.735000+00:00</time>
      </trkpt>
      <trkpt lat="0" lon="0">
        <time>2020-12-20T09:39:38.746000+00:00</time>
      </trkpt>
      <trkpt lat="0" lon="0">
        <time>2020-12-20T09:39:38.754000+00:00</time>
      </trkpt>
      <trkpt lat="0" lon="0">
        <time>2020-12-20T09:39:38.758000+00:00</time>
      </trkpt>
      <trkpt lat="47.34138" lon="-1.27861">
        <ele>57</ele>
        <time>2020-12-20T09:39:39.746000+00:00</time>
      </trkpt>
      <trkpt lat="0" lon="0">
        <time>2020-12-20T09:39:39.755000+00:00</time>
      </trkpt>
      <trkpt lat="0" lon="0">
        <time>2020-12-20T09:39:39.761000+00:00</time>
      </trkpt>
      <trkpt lat="0" lon="0">
        <time>2020-12-20T09:39:39.766000+00:00</time>
      </trkpt>
      <trkpt lat="47.34144" lon="-1.27863">
        <ele>56</ele>
        <time>2020-12-20T09:39:40.739000+00:00</time>
      </trkpt>
      <trkpt lat="0" lon="0">
        <time>2020-12-20T09:39:40.755000+00:00</time>
      </trkpt>
      <trkpt lat="0" lon="0">
        <time>2020-12-20T09:39:40.759000+00:00</time>
      </trkpt>
      <trkpt lat="0" lon="0">
        <time>2020-12-20T09:39:40.761000+00:00</time>
      </trkpt>
      <trkpt lat="47.34149" lon="-1.27864">
        <ele>56</ele>
        <time>2020-12-20T09:39:41.766000+00:00</time>
      </trkpt>
      <trkpt lat="0" lon="0">
        <time>2020-12-20T09:39:41.776000+00:00</time>
      </trkpt>
      <trkpt lat="0" lon="0">
        <time>2020-12-20T09:39:41.780000+00:00</time>
      </trkpt>
      <trkpt lat="0" lon="0">
        <time>2020-12-20T09:39:41.787000+00:00</time>
      </trkpt>
      <trkpt lat="47.34154" lon="-1.27865">
        <ele>56</ele>
        <time>2020-12-20T09:39:42.769000+00:00</time>
      </trkpt>
      <trkpt lat="0" lon="0">
        <time>2020-12-20T09:39:42.787000+00:00</time>
      </trkpt>
      <trkpt lat="0" lon="0">
        <time>2020-12-20T09:39:42.792000+00:00</time>
      </trkpt>
      <trkpt lat="0" lon="0">
        <time>2020-12-20T09:39:42.794000+00:00</time>
      </trkpt>
      <trkpt lat="47.34159" lon="-1.27867">
        <ele>56</ele>
        <time>2020-12-20T09:39:43.764000+00:00</time>
      </trkpt>
      <trkpt lat="0" lon="0">
        <time>2020-12-20T09:39:43.770000+00:00</time>
      </trkpt>
      <trkpt lat="0" lon="0">
        <time>2020-12-20T09:39:43.775000+00:00</time>
      </trkpt>
      <trkpt lat="0" lon="0">
        <time>2020-12-20T09:39:43.779000+00:00</time>
      </trkpt>
      <trkpt lat="47.34165" lon="-1.27868">
        <ele>55</ele>
        <time>2020-12-20T09:39:44.776000+00:00</time>
      </trkpt>
      <trkpt lat="0" lon="0">
        <time>2020-12-20T09:39:44.782000+00:00</time>
      </trkpt>
      <trkpt lat="0" lon="0">
        <time>2020-12-20T09:39:44.790000+00:00</time>
      </trkpt>
      <trkpt lat="0" lon="0">
        <time>2020-12-20T09:39:44.793000+00:00</time>
      </trkpt>
      <trkpt lat="47.3417" lon="-1.2787">
        <ele>55</ele>
        <time>2020-12-20T09:39:45.748000+00:00</time>
      </trkpt>
      <trkpt lat="0" lon="0">
        <time>2020-12-20T09:39:45.759000+00:00</time>
      </trkpt>
      <trkpt lat="0" lon="0">
        <time>2020-12-20T09:39:45.766000+00:00</time>
      </trkpt>
      <trkpt lat="0" lon="0">
        <time>2020-12-20T09:39:45.768000+00:00</time>
      </trkpt>
      <trkpt lat="47.34175" lon="-1.27871">
        <ele>55</ele>
        <time>2020-12-20T09:39:46.735000+00:00</time>
      </trkpt>
      <trkpt lat="0" lon="0">
        <time>2020-12-20T09:39:46.742000+00:00</time>
      </trkpt>
      <trkpt lat="0" lon="0">
        <time>2020-12-20T09:39:46.752000+00:00</time>
      </trkpt>
      <trkpt lat="0" lon="0">
        <time>2020-12-20T09:39:46.756000+00:00</time>
      </trkpt>
      <trkpt lat="47.34181" lon="-1.27873">
        <ele>55</ele>
        <time>2020-12-20T09:39:47.731000+00:00</time>
      </trkpt>
      <trkpt lat="0" lon="0">
        <time>2020-12-20T09:39:47.740000+00:00</time>
      </trkpt>
      <trkpt lat="0" lon="0">
        <time>2020-12-20T09:39:47.742000+00:00</time>
      </trkpt>
      <trkpt lat="0" lon="0">
        <time>2020-12-20T09:39:47.743000+00:00</time>
      </trkpt>
      <trkpt lat="47.34186" lon="-1.27874">
        <ele>55</ele>
        <time>2020-12-20T09:39:48.764000+00:00</time>
      </trkpt>
      <trkpt lat="0" lon="0">
        <time>2020-12-20T09:39:48.775000+00:00</time>
      </trkpt>
      <trkpt lat="0" lon="0">
        <time>2020-12-20T09:39:48.782000+00:00</time>
      </trkpt>
      <trkpt lat="0" lon="0">
        <time>2020-12-20T09:39:48.785000+00:00</time>
      </trkpt>
      <trkpt lat="47.34191" lon="-1.27876">
        <ele>55</ele>
        <time>2020-12-20T09:39:49.741000+00:00</time>
      </trkpt>
      <trkpt lat="0" lon="0">
        <time>2020-12-20T09:39:49.751000+00:00</time>
      </trkpt>
      <trkpt lat="0" lon="0">
        <time>2020-12-20T09:39:49.757000+00:00</time>
      </trkpt>
      <trkpt lat="0" lon="0">
        <time>2020-12-20T09:39:49.762000+00:00</time>
      </trkpt>
      <trkpt lat="47.34197" lon="-1.27877">
        <ele>55</ele>
        <time>2020-12-20T09:39:50.742000+00:00</time>
      </trkpt>
      <trkpt lat="0" lon="0">
        <time>2020-12-20T09:39:50.751000+00:00</time>
      </trkpt>
      <trkpt lat="0" lon="0">
        <time>2020-12-20T09:39:50.756000+00:00</time>
      </trkpt>
      <trkpt lat="0" lon="0">
        <time>2020-12-20T09:39:50.759000+00:00</time>
      </trkpt>
      <trkpt lat="47.34202" lon="-1.27879">
        <ele>55</ele>
        <time>2020-12-20T09:39:51.760000+00:00</time>
      </trkpt>
      <trkpt lat="0" lon="0">
        <time>2020-12-20T09:39:51.777000+00:00</time>
      </trkpt>
      <trkpt lat="0" lon="0">
        <time>2020-12-20T09:39:51.782000+00:00</time>
      </trkpt>
      <trkpt lat="0" lon="0">
        <time>2020-12-20T09:39:51.786000+00:00</time>
      </trkpt>
      <trkpt lat="47.34207" lon="-1.27881">
        <ele>56</ele>
        <time>2020-12-20T09:39:52.733000+00:00</time>
      </trkpt>
      <trkpt lat="0" lon="0">
        <time>2020-12-20T09:39:52.738000+00:00</time>
      </trkpt>
      <trkpt lat="0" lon="0">
        <time>2020-12-20T09:39:52.743000+00:00</time>
      </trkpt>
      <trkpt lat="0" lon="0">
        <time>2020-12-20T09:39:52.746000+00:00</time>
      </trkpt>
      <trkpt lat="47.34212" lon="-1.27883">
        <ele>56</ele>
        <time>2020-12-20T09:39:53.748000+00:00</time>
      </trkpt>
      <trkpt lat="0" lon="0">
        <time>2020-12-20T09:39:53.765000+00:00</time>
      </trkpt>
      <trkpt lat="0" lon="0">
        <time>2020-12-20T09:39:53.769000+00:00</time>
      </trkpt>
      <trkpt lat="0" lon="0">
        <time>2020-12-20T09:39:53.771000+00:00</time>
      </trkpt>
      <trkpt lat="47.34217" lon="-1.27884">
        <ele>56</ele>
        <time>2020-12-20T09:39:54.761000+00:00</time>
      </trkpt>
      <trkpt lat="0" lon="0">
        <time>2020-12-20T09:39:54.773000+00:00</time>
      </trkpt>
      <trkpt lat="0" lon="0">
        <time>2020-12-20T09:39:54.775000+00:00</time>
      </trkpt>
      <trkpt lat="0" lon="0">
        <time>2020-12-20T09:39:54.777000+00:00</time>
      </trkpt>
      <trkpt lat="47.34223" lon="-1.27886">
        <ele>56</ele>
        <time>2020-12-20T09:39:55.764000+00:00</time>
      </trkpt>
      <trkpt lat="0" lon="0">
        <time>2020-12-20T09:39:55.769000+00:00</time>
      </trkpt>
      <trkpt lat="0" lon="0">
        <time>2020-12-20T09:39:55.773000+00:00</time>
      </trkpt>
      <trkpt lat="0" lon="0">
        <time>2020-12-20T09:39:55.775000+00:00</time>
      </trkpt>
      <trkpt lat="47.34228" lon="-1.27888">
        <ele>56</ele>
        <time>2020-12-20T09:39:56.733000+00:00</time>
      </trkpt>
      <trkpt lat="0" lon="0">
        <time>2020-12-20T09:39:56.754000+00:00</time>
      </trkpt>
      <trkpt lat="0" lon="0">
        <time>2020-12-20T09:39:56.764000+00:00</time>
      </trkpt>
      <trkpt lat="0" lon="0">
        <time>2020-12-20T09:39:56.766000+00:00</time>
      </trkpt>
      <trkpt lat="47.34233" lon="-1.2789">
        <ele>56</ele>
        <time>2020-12-20T09:39:57.743000+00:00</time>
      </trkpt>
      <trkpt lat="0" lon="0">
        <time>2020-12-20T09:39:57.752000+00:00</time>
      </trkpt>
      <trkpt lat="0" lon="0">
        <time>2020-12-20T09:39:57.756000+00:00</time>
      </trkpt>
      <trkpt lat="0" lon="0">
        <time>2020-12-20T09:39:57.759000+00:00</time>
      </trkpt>
      <trkpt lat="47.34238" lon="-1.27892">
        <ele>56</ele>
        <time>2020-12-20T09:39:58.773000+00:00</time>
      </trkpt>
      <trkpt lat="0" lon="0">
        <time>2020-12-20T09:39:58.779000+00:00</time>
      </trkpt>
      <trkpt lat="0" lon="0">
        <time>2020-12-20T09:39:58.781000+00:00</time>
      </trkpt>
      <trkpt lat="0" lon="0">
        <time>2020-12-20T09:39:58.782000+00:00</time>
      </trkpt>
      <trkpt lat="47.34243" lon="-1.27894">
        <ele>56</ele>
        <time>2020-12-20T09:39:59.751000+00:00</time>
      </trkpt>
      <trkpt lat="0" lon="0">
        <time>2020-12-20T09:39:59.755000+00:00</time>
      </trkpt>
      <trkpt lat="0" lon="0">
        <time>2020-12-20T09:39:59.769000+00:00</time>
      </trkpt>
      <trkpt lat="0" lon="0">
        <time>2020-12-20T09:39:59.772000+00:00</time>
      </trkpt>
      <trkpt lat="47.34248" lon="-1.27895">
        <ele>57</ele>
        <time>2020-12-20T09:40:00.756000+00:00</time>
      </trkpt>
      <trkpt lat="0" lon="0">
        <time>2020-12-20T09:40:00.764000+00:00</time>
      </trkpt>
      <trkpt lat="0" lon="0">
        <time>2020-12-20T09:40:00.768000+00:00</time>
      </trkpt>
      <trkpt lat="0" lon="0">
        <time>2020-12-20T09:40:00.770000+00:00</time>
      </trkpt>
      <trkpt lat="47.34254" lon="-1.27897">
        <ele>57</ele>
        <time>2020-12-20T09:40:01.753000+00:00</time>
      </trkpt>
      <trkpt lat="0" lon="0">
        <time>2020-12-20T09:40:01.760000+00:00</time>
      </trkpt>
      <trkpt lat="0" lon="0">
        <time>2020-12-20T09:40:01.766000+00:00</time>
      </trkpt>
      <trkpt lat="0" lon="0">
        <time>2020-12-20T09:40:01.772000+00:00</time>
      </trkpt>
      <trkpt lat="47.34259" lon="-1.27899">
        <ele>57</ele>
        <time>2020-12-20T09:40:02.770000+00:00</time>
      </trkpt>
      <trkpt lat="0" lon="0">
        <time>2020-12-20T09:40:02.785000+00:00</time>
      </trkpt>
      <trkpt lat="0" lon="0">
        <time>2020-12-20T09:40:02.789000+00:00</time>
      </trkpt>
      <trkpt lat="0" lon="0">
        <time>2020-12-20T09:40:02.790000+00:00</time>
      </trkpt>
      <trkpt lat="47.34264" lon="-1.279">
        <ele>57</ele>
        <time>2020-12-20T09:40:03.760000+00:00</time>
      </trkpt>
      <trkpt lat="0" lon="0">
        <time>2020-12-20T09:40:03.774000+00:00</time>
      </trkpt>
      <trkpt lat="0" lon="0">
        <time>2020-12-20T09:40:03.781000+00:00</time>
      </trkpt>
      <trkpt lat="0" lon="0">
        <time>2020-12-20T09:40:03.785000+00:00</time>
      </trkpt>
      <trkpt lat="47.34269" lon="-1.27901">
        <ele>57</ele>
        <time>2020-12-20T09:40:04.731000+00:00</time>
      </trkpt>
      <trkpt lat="0" lon="0">
        <time>2020-12-20T09:40:04.743000+00:00</time>
      </trkpt>
      <trkpt lat="0" lon="0">
        <time>2020-12-20T09:40:04.752000+00:00</time>
      </trkpt>
      <trkpt lat="0" lon="0">
        <time>2020-12-20T09:40:04.754000+00:00</time>
      </trkpt>
      <trkpt lat="47.34274" lon="-1.27903">
        <ele>56</ele>
        <time>2020-12-20T09:40:05.760000+00:00</time>
      </trkpt>
      <trkpt lat="0" lon="0">
        <time>2020-12-20T09:40:05.764000+00:00</time>
      </trkpt>
      <trkpt lat="0" lon="0">
        <time>2020-12-20T09:40:05.777000+00:00</time>
      </trkpt>
      <trkpt lat="0" lon="0">
        <time>2020-12-20T09:40:05.779000+00:00</time>
      </trkpt>
      <trkpt lat="47.34279" lon="-1.27904">
        <ele>57</ele>
        <time>2020-12-20T09:40:06.774000+00:00</time>
      </trkpt>
      <trkpt lat="0" lon="0">
        <time>2020-12-20T09:40:06.783000+00:00</time>
      </trkpt>
      <trkpt lat="0" lon="0">
        <time>2020-12-20T09:40:06.792000+00:00</time>
      </trkpt>
      <trkpt lat="0" lon="0">
        <time>2020-12-20T09:40:06.800000+00:00</time>
      </trkpt>
      <trkpt lat="47.34285" lon="-1.27906">
        <ele>56</ele>
        <time>2020-12-20T09:40:07.776000+00:00</time>
      </trkpt>
      <trkpt lat="0" lon="0">
        <time>2020-12-20T09:40:07.785000+00:00</time>
      </trkpt>
      <trkpt lat="0" lon="0">
        <time>2020-12-20T09:40:07.790000+00:00</time>
      </trkpt>
      <trkpt lat="0" lon="0">
        <time>2020-12-20T09:40:07.792000+00:00</time>
      </trkpt>
      <trkpt lat="47.3429" lon="-1.27907">
        <ele>56</ele>
        <time>2020-12-20T09:40:08.742000+00:00</time>
      </trkpt>
      <trkpt lat="0" lon="0">
        <time>2020-12-20T09:40:08.763000+00:00</time>
      </trkpt>
      <trkpt lat="0" lon="0">
        <time>2020-12-20T09:40:08.775000+00:00</time>
      </trkpt>
      <trkpt lat="0" lon="0">
        <time>2020-12-20T09:40:08.777000+00:00</time>
      </trkpt>
      <trkpt lat="47.34295" lon="-1.27909">
        <ele>56</ele>
        <time>2020-12-20T09:40:09.745000+00:00</time>
      </trkpt>
      <trkpt lat="0" lon="0">
        <time>2020-12-20T09:40:09.755000+00:00</time>
      </trkpt>
      <trkpt lat="0" lon="0">
        <time>2020-12-20T09:40:09.761000+00:00</time>
      </trkpt>
      <trkpt lat="0" lon="0">
        <time>2020-12-20T09:40:09.764000+00:00</time>
      </trkpt>
      <trkpt lat="47.34301" lon="-1.2791">
        <ele>56</ele>
        <time>2020-12-20T09:40:10.736000+00:00</time>
      </trkpt>
      <trkpt lat="0" lon="0">
        <time>2020-12-20T09:40:10.737000+00:00</time>
      </trkpt>
      <trkpt lat="0" lon="0">
        <time>2020-12-20T09:40:10.739000+00:00</time>
      </trkpt>
      <trkpt lat="47.34306" lon="-1.27912">
        <ele>56</ele>
        <time>2020-12-20T09:40:11.763000+00:00</time>
      </trkpt>
      <trkpt lat="0" lon="0">
        <time>2020-12-20T09:40:11.776000+00:00</time>
      </trkpt>
      <trkpt lat="0" lon="0">
        <time>2020-12-20T09:40:11.779000+00:00</time>
      </trkpt>
      <trkpt lat="0" lon="0">
        <time>2020-12-20T09:40:11.783000+00:00</time>
      </trkpt>
      <trkpt lat="47.34312" lon="-1.27914">
        <ele>56</ele>
        <time>2020-12-20T09:40:12.762000+00:00</time>
      </trkpt>
      <trkpt lat="0" lon="0">
        <time>2020-12-20T09:40:12.774000+00:00</time>
      </trkpt>
      <trkpt lat="0" lon="0">
        <time>2020-12-20T09:40:12.784000+00:00</time>
      </trkpt>
      <trkpt lat="0" lon="0">
        <time>2020-12-20T09:40:12.786000+00:00</time>
      </trkpt>
      <trkpt lat="47.34317" lon="-1.27915">
        <ele>56</ele>
        <time>2020-12-20T09:40:13.746000+00:00</time>
      </trkpt>
      <trkpt lat="0" lon="0">
        <time>2020-12-20T09:40:13.751000+00:00</time>
      </trkpt>
      <trkpt lat="0" lon="0">
        <time>2020-12-20T09:40:13.757000+00:00</time>
      </trkpt>
      <trkpt lat="0" lon="0">
        <time>2020-12-20T09:40:13.760000+00:00</time>
      </trkpt>
      <trkpt lat="47.34322" lon="-1.27917">
        <ele>56</ele>
        <time>2020-12-20T09:40:14.745000+00:00</time>
      </trkpt>
      <trkpt lat="0" lon="0">
        <time>2020-12-20T09:40:14.754000+00:00</time>
      </trkpt>
      <trkpt lat="0" lon="0">
        <time>2020-12-20T09:40:14.759000+00:00</time>
      </trkpt>
      <trkpt lat="0" lon="0">
        <time>2020-12-20T09:40:14.761000+00:00</time>
      </trkpt>
      <trkpt lat="47.34328" lon="-1.27919">
        <ele>56</ele>
        <time>2020-12-20T09:40:15.761000+00:00</time>
      </trkpt>
      <trkpt lat="0" lon="0">
        <time>2020-12-20T09:40:15.766000+00:00</time>
      </trkpt>
      <trkpt lat="0" lon="0">
        <time>2020-12-20T09:40:15.770000+00:00</time>
      </trkpt>
      <trkpt lat="0" lon="0">
        <time>2020-12-20T09:40:15.772000+00:00</time>
      </trkpt>
      <trkpt lat="47.34333" lon="-1.27921">
        <ele>56</ele>
        <time>2020-12-20T09:40:16.732000+00:00</time>
      </trkpt>
      <trkpt lat="0" lon="0">
        <time>2020-12-20T09:40:16.744000+00:00</time>
      </trkpt>
      <trkpt lat="0" lon="0">
        <time>2020-12-20T09:40:16.749000+00:00</time>
      </trkpt>
      <trkpt lat="0" lon="0">
        <time>2020-12-20T09:40:16.751000+00:00</time>
      </trkpt>
      <trkpt lat="47.34339" lon="-1.27923">
        <ele>55</ele>
        <time>2020-12-20T09:40:17.752000+00:00</time>
      </trkpt>
      <trkpt lat="0" lon="0">
        <time>2020-12-20T09:40:17.756000+00:00</time>
      </trkpt>
      <trkpt lat="0" lon="0">
        <time>2020-12-20T09:40:17.758000+00:00</time>
      </trkpt>
      <trkpt lat="47.34344" lon="-1.27925">
        <ele>55</ele>
        <time>2020-12-20T09:40:18.736000+00:00</time>
      </trkpt>
      <trkpt lat="0" lon="0">
        <time>2020-12-20T09:40:18.746000+00:00</time>
      </trkpt>
      <trkpt lat="0" lon="0">
        <time>2020-12-20T09:40:18.753000+00:00</time>
      </trkpt>
      <trkpt lat="0" lon="0">
        <time>2020-12-20T09:40:18.755000+00:00</time>
      </trkpt>
      <trkpt lat="47.3435" lon="-1.27927">
        <ele>55</ele>
        <time>2020-12-20T09:40:19.745000+00:00</time>
      </trkpt>
      <trkpt lat="0" lon="0">
        <time>2020-12-20T09:40:19.754000+00:00</time>
      </trkpt>
      <trkpt lat="0" lon="0">
        <time>2020-12-20T09:40:19.757000+00:00</time>
      </trkpt>
      <trkpt lat="0" lon="0">
        <time>2020-12-20T09:40:19.760000+00:00</time>
      </trkpt>
      <trkpt lat="47.34355" lon="-1.27928">
        <ele>55</ele>
        <time>2020-12-20T09:40:20.728000+00:00</time>
      </trkpt>
      <trkpt lat="0" lon="0">
        <time>2020-12-20T09:40:20.752000+00:00</time>
      </trkpt>
      <trkpt lat="0" lon="0">
        <time>2020-12-20T09:40:20.756000+00:00</time>
      </trkpt>
      <trkpt lat="0" lon="0">
        <time>2020-12-20T09:40:20.761000+00:00</time>
      </trkpt>
      <trkpt lat="47.3436" lon="-1.2793">
        <ele>55</ele>
        <time>2020-12-20T09:40:21.722000+00:00</time>
      </trkpt>
      <trkpt lat="0" lon="0">
        <time>2020-12-20T09:40:21.726000+00:00</time>
      </trkpt>
      <trkpt lat="0" lon="0">
        <time>2020-12-20T09:40:21.730000+00:00</time>
      </trkpt>
      <trkpt lat="0" lon="0">
        <time>2020-12-20T09:40:21.732000+00:00</time>
      </trkpt>
      <trkpt lat="47.34365" lon="-1.27932">
        <ele>55</ele>
        <time>2020-12-20T09:40:22.723000+00:00</time>
      </trkpt>
      <trkpt lat="0" lon="0">
        <time>2020-12-20T09:40:22.731000+00:00</time>
      </trkpt>
      <trkpt lat="0" lon="0">
        <time>2020-12-20T09:40:22.737000+00:00</time>
      </trkpt>
      <trkpt lat="0" lon="0">
        <time>2020-12-20T09:40:22.749000+00:00</time>
      </trkpt>
      <trkpt lat="47.34371" lon="-1.27934">
        <ele>55</ele>
        <time>2020-12-20T09:40:23.759000+00:00</time>
      </trkpt>
      <trkpt lat="0" lon="0">
        <time>2020-12-20T09:40:23.772000+00:00</time>
      </trkpt>
      <trkpt lat="0" lon="0">
        <time>2020-12-20T09:40:23.791000+00:00</time>
      </trkpt>
      <trkpt lat="0" lon="0">
        <time>2020-12-20T09:40:23.794000+00:00</time>
      </trkpt>
      <trkpt lat="47.34376" lon="-1.27936">
        <ele>55</ele>
        <time>2020-12-20T09:40:24.751000+00:00</time>
      </trkpt>
      <trkpt lat="0" lon="0">
        <time>2020-12-20T09:40:24.761000+00:00</time>
      </trkpt>
      <trkpt lat="0" lon="0">
        <time>2020-12-20T09:40:24.769000+00:00</time>
      </trkpt>
      <trkpt lat="0" lon="0">
        <time>2020-12-20T09:40:24.772000+00:00</time>
      </trkpt>
      <trkpt lat="47.34382" lon="-1.27937">
        <ele>55</ele>
        <time>2020-12-20T09:40:25.760000+00:00</time>
      </trkpt>
      <trkpt lat="0" lon="0">
        <time>2020-12-20T09:40:25.770000+00:00</time>
      </trkpt>
      <trkpt lat="0" lon="0">
        <time>2020-12-20T09:40:25.778000+00:00</time>
      </trkpt>
      <trkpt lat="0" lon="0">
        <time>2020-12-20T09:40:25.783000+00:00</time>
      </trkpt>
      <trkpt lat="47.34387" lon="-1.27939">
        <ele>54</ele>
        <time>2020-12-20T09:40:26.703000+00:00</time>
      </trkpt>
      <trkpt lat="0" lon="0">
        <time>2020-12-20T09:40:26.719000+00:00</time>
      </trkpt>
      <trkpt lat="0" lon="0">
        <time>2020-12-20T09:40:26.727000+00:00</time>
      </trkpt>
      <trkpt lat="0" lon="0">
        <time>2020-12-20T09:40:26.729000+00:00</time>
      </trkpt>
      <trkpt lat="47.34392" lon="-1.27941">
        <ele>54</ele>
        <time>2020-12-20T09:40:27.739000+00:00</time>
      </trkpt>
      <trkpt lat="0" lon="0">
        <time>2020-12-20T09:40:27.762000+00:00</time>
      </trkpt>
      <trkpt lat="0" lon="0">
        <time>2020-12-20T09:40:27.767000+00:00</time>
      </trkpt>
      <trkpt lat="0" lon="0">
        <time>2020-12-20T09:40:27.772000+00:00</time>
      </trkpt>
      <trkpt lat="47.34398" lon="-1.27942">
        <ele>54</ele>
        <time>2020-12-20T09:40:28.786000+00:00</time>
      </trkpt>
      <trkpt lat="0" lon="0">
        <time>2020-12-20T09:40:28.794000+00:00</time>
      </trkpt>
      <trkpt lat="0" lon="0">
        <time>2020-12-20T09:40:28.798000+00:00</time>
      </trkpt>
      <trkpt lat="0" lon="0">
        <time>2020-12-20T09:40:28.800000+00:00</time>
      </trkpt>
      <trkpt lat="47.34403" lon="-1.27944">
        <ele>54</ele>
        <time>2020-12-20T09:40:29.756000+00:00</time>
      </trkpt>
      <trkpt lat="0" lon="0">
        <time>2020-12-20T09:40:29.770000+00:00</time>
      </trkpt>
      <trkpt lat="0" lon="0">
        <time>2020-12-20T09:40:29.774000+00:00</time>
      </trkpt>
      <trkpt lat="0" lon="0">
        <time>2020-12-20T09:40:29.776000+00:00</time>
      </trkpt>
      <trkpt lat="47.34409" lon="-1.27946">
        <ele>54</ele>
        <time>2020-12-20T09:40:30.727000+00:00</time>
      </trkpt>
      <trkpt lat="0" lon="0">
        <time>2020-12-20T09:40:30.737000+00:00</time>
      </trkpt>
      <trkpt lat="0" lon="0">
        <time>2020-12-20T09:40:30.741000+00:00</time>
      </trkpt>
      <trkpt lat="0" lon="0">
        <time>2020-12-20T09:40:30.742000+00:00</time>
      </trkpt>
      <trkpt lat="47.34414" lon="-1.27949">
        <ele>54</ele>
        <time>2020-12-20T09:40:31.769000+00:00</time>
      </trkpt>
      <trkpt lat="0" lon="0">
        <time>2020-12-20T09:40:31.799000+00:00</time>
      </trkpt>
      <trkpt lat="0" lon="0">
        <time>2020-12-20T09:40:31.804000+00:00</time>
      </trkpt>
      <trkpt lat="0" lon="0">
        <time>2020-12-20T09:40:31.806000+00:00</time>
      </trkpt>
      <trkpt lat="47.34419" lon="-1.27951">
        <ele>54</ele>
        <time>2020-12-20T09:40:32.769000+00:00</time>
      </trkpt>
      <trkpt lat="0" lon="0">
        <time>2020-12-20T09:40:32.773000+00:00</time>
      </trkpt>
      <trkpt lat="0" lon="0">
        <time>2020-12-20T09:40:32.775000+00:00</time>
      </trkpt>
      <trkpt lat="0" lon="0">
        <time>2020-12-20T09:40:32.776000+00:00</time>
      </trkpt>
      <trkpt lat="47.34425" lon="-1.27954">
        <ele>55</ele>
        <time>2020-12-20T09:40:33.756000+00:00</time>
      </trkpt>
      <trkpt lat="0" lon="0">
        <time>2020-12-20T09:40:33.761000+00:00</time>
      </trkpt>
      <trkpt lat="0" lon="0">
        <time>2020-12-20T09:40:33.765000+00:00</time>
      </trkpt>
      <trkpt lat="0" lon="0">
        <time>2020-12-20T09:40:33.768000+00:00</time>
      </trkpt>
      <trkpt lat="47.3443" lon="-1.27956">
        <ele>55</ele>
        <time>2020-12-20T09:40:34.760000+00:00</time>
      </trkpt>
      <trkpt lat="0" lon="0">
        <time>2020-12-20T09:40:34.771000+00:00</time>
      </trkpt>
      <trkpt lat="0" lon="0">
        <time>2020-12-20T09:40:34.775000+00:00</time>
      </trkpt>
      <trkpt lat="0" lon="0">
        <time>2020-12-20T09:40:34.778000+00:00</time>
      </trkpt>
      <trkpt lat="47.34435" lon="-1.27959">
        <ele>55</ele>
        <time>2020-12-20T09:40:35.746000+00:00</time>
      </trkpt>
      <trkpt lat="0" lon="0">
        <time>2020-12-20T09:40:35.763000+00:00</time>
      </trkpt>
      <trkpt lat="0" lon="0">
        <time>2020-12-20T09:40:35.767000+00:00</time>
      </trkpt>
      <trkpt lat="0" lon="0">
        <time>2020-12-20T09:40:35.773000+00:00</time>
      </trkpt>
      <trkpt lat="47.3444" lon="-1.27962">
        <ele>56</ele>
        <time>2020-12-20T09:40:36.770000+00:00</time>
      </trkpt>
      <trkpt lat="0" lon="0">
        <time>2020-12-20T09:40:36.788000+00:00</time>
      </trkpt>
      <trkpt lat="0" lon="0">
        <time>2020-12-20T09:40:36.796000+00:00</time>
      </trkpt>
      <trkpt lat="0" lon="0">
        <time>2020-12-20T09:40:36.803000+00:00</time>
      </trkpt>
      <trkpt lat="47.34445" lon="-1.27965">
        <ele>56</ele>
        <time>2020-12-20T09:40:37.762000+00:00</time>
      </trkpt>
      <trkpt lat="0" lon="0">
        <time>2020-12-20T09:40:37.768000+00:00</time>
      </trkpt>
      <trkpt lat="0" lon="0">
        <time>2020-12-20T09:40:37.777000+00:00</time>
      </trkpt>
      <trkpt lat="0" lon="0">
        <time>2020-12-20T09:40:37.779000+00:00</time>
      </trkpt>
      <trkpt lat="47.3445" lon="-1.27969">
        <ele>56</ele>
        <time>2020-12-20T09:40:38.769000+00:00</time>
      </trkpt>
      <trkpt lat="0" lon="0">
        <time>2020-12-20T09:40:38.774000+00:00</time>
      </trkpt>
      <trkpt lat="0" lon="0">
        <time>2020-12-20T09:40:38.776000+00:00</time>
      </trkpt>
      <trkpt lat="0" lon="0">
        <time>2020-12-20T09:40:38.777000+00:00</time>
      </trkpt>
      <trkpt lat="47.34454" lon="-1.27972">
        <ele>56</ele>
        <time>2020-12-20T09:40:39.782000+00:00</time>
      </trkpt>
      <trkpt lat="0" lon="0">
        <time>2020-12-20T09:40:39.811000+00:00</time>
      </trkpt>
      <trkpt lat="0" lon="0">
        <time>2020-12-20T09:40:39.819000+00:00</time>
      </trkpt>
      <trkpt lat="0" lon="0">
        <time>2020-12-20T09:40:39.826000+00:00</time>
      </trkpt>
      <trkpt lat="47.34459" lon="-1.27976">
        <ele>56</ele>
        <time>2020-12-20T09:40:40.723000+00:00</time>
      </trkpt>
      <trkpt lat="0" lon="0">
        <time>2020-12-20T09:40:40.730000+00:00</time>
      </trkpt>
      <trkpt lat="0" lon="0">
        <time>2020-12-20T09:40:40.736000+00:00</time>
      </trkpt>
      <trkpt lat="0" lon="0">
        <time>2020-12-20T09:40:40.738000+00:00</time>
      </trkpt>
      <trkpt lat="47.34463" lon="-1.2798">
        <ele>56</ele>
        <time>2020-12-20T09:40:41.778000+00:00</time>
      </trkpt>
      <trkpt lat="0" lon="0">
        <time>2020-12-20T09:40:41.789000+00:00</time>
      </trkpt>
      <trkpt lat="0" lon="0">
        <time>2020-12-20T09:40:41.793000+00:00</time>
      </trkpt>
      <trkpt lat="0" lon="0">
        <time>2020-12-20T09:40:41.796000+00:00</time>
      </trkpt>
      <trkpt lat="47.34468" lon="-1.27985">
        <ele>56</ele>
        <time>2020-12-20T09:40:42.779000+00:00</time>
      </trkpt>
      <trkpt lat="0" lon="0">
        <time>2020-12-20T09:40:42.795000+00:00</time>
      </trkpt>
      <trkpt lat="0" lon="0">
        <time>2020-12-20T09:40:42.800000+00:00</time>
      </trkpt>
      <trkpt lat="0" lon="0">
        <time>2020-12-20T09:40:42.807000+00:00</time>
      </trkpt>
      <trkpt lat="47.34472" lon="-1.2799">
        <ele>56</ele>
        <time>2020-12-20T09:40:43.735000+00:00</time>
      </trkpt>
      <trkpt lat="0" lon="0">
        <time>2020-12-20T09:40:43.755000+00:00</time>
      </trkpt>
      <trkpt lat="0" lon="0">
        <time>2020-12-20T09:40:43.761000+00:00</time>
      </trkpt>
      <trkpt lat="0" lon="0">
        <time>2020-12-20T09:40:43.767000+00:00</time>
      </trkpt>
      <trkpt lat="47.34477" lon="-1.27995">
        <ele>56</ele>
        <time>2020-12-20T09:40:44.737000+00:00</time>
      </trkpt>
      <trkpt lat="0" lon="0">
        <time>2020-12-20T09:40:44.766000+00:00</time>
      </trkpt>
      <trkpt lat="0" lon="0">
        <time>2020-12-20T09:40:44.770000+00:00</time>
      </trkpt>
      <trkpt lat="0" lon="0">
        <time>2020-12-20T09:40:44.772000+00:00</time>
      </trkpt>
      <trkpt lat="47.34481" lon="-1.28001">
        <ele>55</ele>
        <time>2020-12-20T09:40:45.743000+00:00</time>
      </trkpt>
      <trkpt lat="0" lon="0">
        <time>2020-12-20T09:40:45.755000+00:00</time>
      </trkpt>
      <trkpt lat="0" lon="0">
        <time>2020-12-20T09:40:45.762000+00:00</time>
      </trkpt>
      <trkpt lat="0" lon="0">
        <time>2020-12-20T09:40:45.766000+00:00</time>
      </trkpt>
      <trkpt lat="47.34485" lon="-1.28007">
        <ele>55</ele>
        <time>2020-12-20T09:40:46.739000+00:00</time>
      </trkpt>
      <trkpt lat="0" lon="0">
        <time>2020-12-20T09:40:46.752000+00:00</time>
      </trkpt>
      <trkpt lat="0" lon="0">
        <time>2020-12-20T09:40:46.755000+00:00</time>
      </trkpt>
      <trkpt lat="0" lon="0">
        <time>2020-12-20T09:40:46.762000+00:00</time>
      </trkpt>
      <trkpt lat="47.3449" lon="-1.28013">
        <ele>55</ele>
        <time>2020-12-20T09:40:47.760000+00:00</time>
      </trkpt>
      <trkpt lat="0" lon="0">
        <time>2020-12-20T09:40:47.774000+00:00</time>
      </trkpt>
      <trkpt lat="0" lon="0">
        <time>2020-12-20T09:40:47.778000+00:00</time>
      </trkpt>
      <trkpt lat="0" lon="0">
        <time>2020-12-20T09:40:47.781000+00:00</time>
      </trkpt>
      <trkpt lat="47.34494" lon="-1.2802">
        <ele>55</ele>
        <time>2020-12-20T09:40:48.762000+00:00</time>
      </trkpt>
      <trkpt lat="0" lon="0">
        <time>2020-12-20T09:40:48.772000+00:00</time>
      </trkpt>
      <trkpt lat="0" lon="0">
        <time>2020-12-20T09:40:48.777000+00:00</time>
      </trkpt>
      <trkpt lat="0" lon="0">
        <time>2020-12-20T09:40:48.779000+00:00</time>
      </trkpt>
      <trkpt lat="47.34498" lon="-1.28027">
        <ele>55</ele>
        <time>2020-12-20T09:40:49.755000+00:00</time>
      </trkpt>
      <trkpt lat="0" lon="0">
        <time>2020-12-20T09:40:49.769000+00:00</time>
      </trkpt>
      <trkpt lat="0" lon="0">
        <time>2020-12-20T09:40:49.773000+00:00</time>
      </trkpt>
      <trkpt lat="0" lon="0">
        <time>2020-12-20T09:40:49.780000+00:00</time>
      </trkpt>
      <trkpt lat="47.34502" lon="-1.28034">
        <ele>55</ele>
        <time>2020-12-20T09:40:50.756000+00:00</time>
      </trkpt>
      <trkpt lat="0" lon="0">
        <time>2020-12-20T09:40:50.762000+00:00</time>
      </trkpt>
      <trkpt lat="0" lon="0">
        <time>2020-12-20T09:40:50.765000+00:00</time>
      </trkpt>
      <trkpt lat="0" lon="0">
        <time>2020-12-20T09:40:50.769000+00:00</time>
      </trkpt>
      <trkpt lat="47.34506" lon="-1.28042">
        <ele>54</ele>
        <time>2020-12-20T09:40:51.742000+00:00</time>
      </trkpt>
      <trkpt lat="0" lon="0">
        <time>2020-12-20T09:40:51.755000+00:00</time>
      </trkpt>
      <trkpt lat="0" lon="0">
        <time>2020-12-20T09:40:51.760000+00:00</time>
      </trkpt>
      <trkpt lat="0" lon="0">
        <time>2020-12-20T09:40:51.762000+00:00</time>
      </trkpt>
      <trkpt lat="47.3451" lon="-1.28051">
        <ele>54</ele>
        <time>2020-12-20T09:40:52.762000+00:00</time>
      </trkpt>
      <trkpt lat="0" lon="0">
        <time>2020-12-20T09:40:52.767000+00:00</time>
      </trkpt>
      <trkpt lat="0" lon="0">
        <time>2020-12-20T09:40:52.772000+00:00</time>
      </trkpt>
      <trkpt lat="0" lon="0">
        <time>2020-12-20T09:40:52.775000+00:00</time>
      </trkpt>
      <trkpt lat="47.34513" lon="-1.2806">
        <ele>54</ele>
        <time>2020-12-20T09:40:53.752000+00:00</time>
      </trkpt>
      <trkpt lat="0" lon="0">
        <time>2020-12-20T09:40:53.763000+00:00</time>
      </trkpt>
      <trkpt lat="0" lon="0">
        <time>2020-12-20T09:40:53.767000+00:00</time>
      </trkpt>
      <trkpt lat="0" lon="0">
        <time>2020-12-20T09:40:53.769000+00:00</time>
      </trkpt>
      <trkpt lat="47.34517" lon="-1.2807">
        <ele>54</ele>
        <time>2020-12-20T09:40:54.765000+00:00</time>
      </trkpt>
      <trkpt lat="0" lon="0">
        <time>2020-12-20T09:40:54.773000+00:00</time>
      </trkpt>
      <trkpt lat="0" lon="0">
        <time>2020-12-20T09:40:54.779000+00:00</time>
      </trkpt>
      <trkpt lat="0" lon="0">
        <time>2020-12-20T09:40:54.781000+00:00</time>
      </trkpt>
      <trkpt lat="47.3452" lon="-1.2808">
        <ele>54</ele>
        <time>2020-12-20T09:40:55.791000+00:00</time>
      </trkpt>
      <trkpt lat="0" lon="0">
        <time>2020-12-20T09:40:55.799000+00:00</time>
      </trkpt>
      <trkpt lat="0" lon="0">
        <time>2020-12-20T09:40:55.805000+00:00</time>
      </trkpt>
      <trkpt lat="0" lon="0">
        <time>2020-12-20T09:40:55.808000+00:00</time>
      </trkpt>
      <trkpt lat="47.34523" lon="-1.28091">
        <ele>54</ele>
        <time>2020-12-20T09:40:56.764000+00:00</time>
      </trkpt>
      <trkpt lat="0" lon="0">
        <time>2020-12-20T09:40:56.770000+00:00</time>
      </trkpt>
      <trkpt lat="0" lon="0">
        <time>2020-12-20T09:40:56.776000+00:00</time>
      </trkpt>
      <trkpt lat="0" lon="0">
        <time>2020-12-20T09:40:56.777000+00:00</time>
      </trkpt>
      <trkpt lat="47.34526" lon="-1.28101">
        <ele>54</ele>
        <time>2020-12-20T09:40:57.725000+00:00</time>
      </trkpt>
      <trkpt lat="0" lon="0">
        <time>2020-12-20T09:40:57.738000+00:00</time>
      </trkpt>
      <trkpt lat="0" lon="0">
        <time>2020-12-20T09:40:57.742000+00:00</time>
      </trkpt>
      <trkpt lat="0" lon="0">
        <time>2020-12-20T09:40:57.744000+00:00</time>
      </trkpt>
      <trkpt lat="47.34528" lon="-1.28113">
        <ele>54</ele>
        <time>2020-12-20T09:40:58.744000+00:00</time>
      </trkpt>
      <trkpt lat="0" lon="0">
        <time>2020-12-20T09:40:58.773000+00:00</time>
      </trkpt>
      <trkpt lat="0" lon="0">
        <time>2020-12-20T09:40:58.781000+00:00</time>
      </trkpt>
      <trkpt lat="0" lon="0">
        <time>2020-12-20T09:40:58.782000+00:00</time>
      </trkpt>
      <trkpt lat="47.3453" lon="-1.28125">
        <ele>54</ele>
        <time>2020-12-20T09:40:59.799000+00:00</time>
      </trkpt>
      <trkpt lat="0" lon="0">
        <time>2020-12-20T09:40:59.819000+00:00</time>
      </trkpt>
      <trkpt lat="0" lon="0">
        <time>2020-12-20T09:40:59.827000+00:00</time>
      </trkpt>
      <trkpt lat="0" lon="0">
        <time>2020-12-20T09:40:59.828000+00:00</time>
      </trkpt>
      <trkpt lat="47.34532" lon="-1.28137">
        <ele>54</ele>
        <time>2020-12-20T09:41:00.752000+00:00</time>
      </trkpt>
      <trkpt lat="0" lon="0">
        <time>2020-12-20T09:41:00.763000+00:00</time>
      </trkpt>
      <trkpt lat="0" lon="0">
        <time>2020-12-20T09:41:00.767000+00:00</time>
      </trkpt>
      <trkpt lat="0" lon="0">
        <time>2020-12-20T09:41:00.771000+00:00</time>
      </trkpt>
      <trkpt lat="47.34534" lon="-1.28149">
        <ele>53</ele>
        <time>2020-12-20T09:41:01.760000+00:00</time>
      </trkpt>
      <trkpt lat="0" lon="0">
        <time>2020-12-20T09:41:01.769000+00:00</time>
      </trkpt>
      <trkpt lat="0" lon="0">
        <time>2020-12-20T09:41:01.773000+00:00</time>
      </trkpt>
      <trkpt lat="0" lon="0">
        <time>2020-12-20T09:41:01.776000+00:00</time>
      </trkpt>
      <trkpt lat="47.34535" lon="-1.28162">
        <ele>53</ele>
        <time>2020-12-20T09:41:02.757000+00:00</time>
      </trkpt>
      <trkpt lat="0" lon="0">
        <time>2020-12-20T09:41:02.763000+00:00</time>
      </trkpt>
      <trkpt lat="0" lon="0">
        <time>2020-12-20T09:41:02.770000+00:00</time>
      </trkpt>
      <trkpt lat="0" lon="0">
        <time>2020-12-20T09:41:02.772000+00:00</time>
      </trkpt>
      <trkpt lat="47.34535" lon="-1.28174">
        <ele>53</ele>
        <time>2020-12-20T09:41:03.752000+00:00</time>
      </trkpt>
      <trkpt lat="0" lon="0">
        <time>2020-12-20T09:41:03.767000+00:00</time>
      </trkpt>
      <trkpt lat="0" lon="0">
        <time>2020-12-20T09:41:03.770000+00:00</time>
      </trkpt>
      <trkpt lat="0" lon="0">
        <time>2020-12-20T09:41:03.771000+00:00</time>
      </trkpt>
      <trkpt lat="47.34536" lon="-1.28187">
        <ele>53</ele>
        <time>2020-12-20T09:41:04.730000+00:00</time>
      </trkpt>
      <trkpt lat="0" lon="0">
        <time>2020-12-20T09:41:04.739000+00:00</time>
      </trkpt>
      <trkpt lat="0" lon="0">
        <time>2020-12-20T09:41:04.745000+00:00</time>
      </trkpt>
      <trkpt lat="0" lon="0">
        <time>2020-12-20T09:41:04.748000+00:00</time>
      </trkpt>
      <trkpt lat="47.34535" lon="-1.282">
        <ele>52</ele>
        <time>2020-12-20T09:41:05.769000+00:00</time>
      </trkpt>
      <trkpt lat="0" lon="0">
        <time>2020-12-20T09:41:05.784000+00:00</time>
      </trkpt>
      <trkpt lat="0" lon="0">
        <time>2020-12-20T09:41:05.792000+00:00</time>
      </trkpt>
      <trkpt lat="0" lon="0">
        <time>2020-12-20T09:41:05.797000+00:00</time>
      </trkpt>
      <trkpt lat="47.34535" lon="-1.28212">
        <ele>52</ele>
        <time>2020-12-20T09:41:06.796000+00:00</time>
      </trkpt>
      <trkpt lat="0" lon="0">
        <time>2020-12-20T09:41:06.813000+00:00</time>
      </trkpt>
      <trkpt lat="0" lon="0">
        <time>2020-12-20T09:41:06.819000+00:00</time>
      </trkpt>
      <trkpt lat="0" lon="0">
        <time>2020-12-20T09:41:06.821000+00:00</time>
      </trkpt>
      <trkpt lat="47.34534" lon="-1.28223">
        <ele>52</ele>
        <time>2020-12-20T09:41:07.772000+00:00</time>
      </trkpt>
      <trkpt lat="0" lon="0">
        <time>2020-12-20T09:41:07.781000+00:00</time>
      </trkpt>
      <trkpt lat="0" lon="0">
        <time>2020-12-20T09:41:07.783000+00:00</time>
      </trkpt>
      <trkpt lat="0" lon="0">
        <time>2020-12-20T09:41:07.784000+00:00</time>
      </trkpt>
      <trkpt lat="47.34533" lon="-1.28234">
        <ele>52</ele>
        <time>2020-12-20T09:41:08.766000+00:00</time>
      </trkpt>
      <trkpt lat="0" lon="0">
        <time>2020-12-20T09:41:08.782000+00:00</time>
      </trkpt>
      <trkpt lat="0" lon="0">
        <time>2020-12-20T09:41:08.793000+00:00</time>
      </trkpt>
      <trkpt lat="0" lon="0">
        <time>2020-12-20T09:41:08.796000+00:00</time>
      </trkpt>
      <trkpt lat="47.34532" lon="-1.28243">
        <ele>52</ele>
        <time>2020-12-20T09:41:09.765000+00:00</time>
      </trkpt>
      <trkpt lat="0" lon="0">
        <time>2020-12-20T09:41:09.775000+00:00</time>
      </trkpt>
      <trkpt lat="0" lon="0">
        <time>2020-12-20T09:41:09.779000+00:00</time>
      </trkpt>
      <trkpt lat="0" lon="0">
        <time>2020-12-20T09:41:09.782000+00:00</time>
      </trkpt>
      <trkpt lat="47.34532" lon="-1.28251">
        <ele>52</ele>
        <time>2020-12-20T09:41:10.749000+00:00</time>
      </trkpt>
      <trkpt lat="0" lon="0">
        <time>2020-12-20T09:41:10.758000+00:00</time>
      </trkpt>
      <trkpt lat="0" lon="0">
        <time>2020-12-20T09:41:10.763000+00:00</time>
      </trkpt>
      <trkpt lat="0" lon="0">
        <time>2020-12-20T09:41:10.767000+00:00</time>
      </trkpt>
      <trkpt lat="47.34533" lon="-1.28258">
        <ele>52</ele>
        <time>2020-12-20T09:41:11.721000+00:00</time>
      </trkpt>
      <trkpt lat="0" lon="0">
        <time>2020-12-20T09:41:11.726000+00:00</time>
      </trkpt>
      <trkpt lat="0" lon="0">
        <time>2020-12-20T09:41:11.732000+00:00</time>
      </trkpt>
      <trkpt lat="0" lon="0">
        <time>2020-12-20T09:41:11.739000+00:00</time>
      </trkpt>
      <trkpt lat="47.34534" lon="-1.28264">
        <ele>52</ele>
        <time>2020-12-20T09:41:12.728000+00:00</time>
      </trkpt>
      <trkpt lat="0" lon="0">
        <time>2020-12-20T09:41:12.737000+00:00</time>
      </trkpt>
      <trkpt lat="0" lon="0">
        <time>2020-12-20T09:41:12.741000+00:00</time>
      </trkpt>
      <trkpt lat="0" lon="0">
        <time>2020-12-20T09:41:12.744000+00:00</time>
      </trkpt>
      <trkpt lat="47.34535" lon="-1.28268">
        <ele>52</ele>
        <time>2020-12-20T09:41:13.755000+00:00</time>
      </trkpt>
      <trkpt lat="0" lon="0">
        <time>2020-12-20T09:41:13.760000+00:00</time>
      </trkpt>
      <trkpt lat="0" lon="0">
        <time>2020-12-20T09:41:13.767000+00:00</time>
      </trkpt>
      <trkpt lat="0" lon="0">
        <time>2020-12-20T09:41:13.769000+00:00</time>
      </trkpt>
      <trkpt lat="47.34537" lon="-1.28271">
        <ele>52</ele>
        <time>2020-12-20T09:41:14.750000+00:00</time>
      </trkpt>
      <trkpt lat="0" lon="0">
        <time>2020-12-20T09:41:14.763000+00:00</time>
      </trkpt>
      <trkpt lat="0" lon="0">
        <time>2020-12-20T09:41:14.772000+00:00</time>
      </trkpt>
      <trkpt lat="0" lon="0">
        <time>2020-12-20T09:41:14.774000+00:00</time>
      </trkpt>
      <trkpt lat="47.34539" lon="-1.28272">
        <ele>52</ele>
        <time>2020-12-20T09:41:15.746000+00:00</time>
      </trkpt>
      <trkpt lat="0" lon="0">
        <time>2020-12-20T09:41:15.755000+00:00</time>
      </trkpt>
      <trkpt lat="0" lon="0">
        <time>2020-12-20T09:41:15.762000+00:00</time>
      </trkpt>
      <trkpt lat="0" lon="0">
        <time>2020-12-20T09:41:15.765000+00:00</time>
      </trkpt>
      <trkpt lat="47.34541" lon="-1.28273">
        <ele>52</ele>
        <time>2020-12-20T09:41:16.744000+00:00</time>
      </trkpt>
      <trkpt lat="0" lon="0">
        <time>2020-12-20T09:41:16.750000+00:00</time>
      </trkpt>
      <trkpt lat="0" lon="0">
        <time>2020-12-20T09:41:16.756000+00:00</time>
      </trkpt>
      <trkpt lat="0" lon="0">
        <time>2020-12-20T09:41:16.759000+00:00</time>
      </trkpt>
      <trkpt lat="47.34544" lon="-1.28273">
        <ele>53</ele>
        <time>2020-12-20T09:41:17.755000+00:00</time>
      </trkpt>
      <trkpt lat="0" lon="0">
        <time>2020-12-20T09:41:17.766000+00:00</time>
      </trkpt>
      <trkpt lat="0" lon="0">
        <time>2020-12-20T09:41:17.770000+00:00</time>
      </trkpt>
      <trkpt lat="0" lon="0">
        <time>2020-12-20T09:41:17.774000+00:00</time>
      </trkpt>
      <trkpt lat="47.34547" lon="-1.28271">
        <ele>53</ele>
        <time>2020-12-20T09:41:18.775000+00:00</time>
      </trkpt>
      <trkpt lat="0" lon="0">
        <time>2020-12-20T09:41:18.787000+00:00</time>
      </trkpt>
      <trkpt lat="0" lon="0">
        <time>2020-12-20T09:41:18.792000+00:00</time>
      </trkpt>
      <trkpt lat="0" lon="0">
        <time>2020-12-20T09:41:18.795000+00:00</time>
      </trkpt>
      <trkpt lat="47.3455" lon="-1.2827">
        <ele>53</ele>
        <time>2020-12-20T09:41:19.776000+00:00</time>
      </trkpt>
      <trkpt lat="0" lon="0">
        <time>2020-12-20T09:41:19.786000+00:00</time>
      </trkpt>
      <trkpt lat="0" lon="0">
        <time>2020-12-20T09:41:19.793000+00:00</time>
      </trkpt>
      <trkpt lat="0" lon="0">
        <time>2020-12-20T09:41:19.796000+00:00</time>
      </trkpt>
      <trkpt lat="47.34553" lon="-1.28268">
        <ele>53</ele>
        <time>2020-12-20T09:41:20.771000+00:00</time>
      </trkpt>
      <trkpt lat="0" lon="0">
        <time>2020-12-20T09:41:20.780000+00:00</time>
      </trkpt>
      <trkpt lat="0" lon="0">
        <time>2020-12-20T09:41:20.786000+00:00</time>
      </trkpt>
      <trkpt lat="0" lon="0">
        <time>2020-12-20T09:41:20.789000+00:00</time>
      </trkpt>
      <trkpt lat="47.34556" lon="-1.28265">
        <ele>54</ele>
        <time>2020-12-20T09:41:21.780000+00:00</time>
      </trkpt>
      <trkpt lat="0" lon="0">
        <time>2020-12-20T09:41:21.785000+00:00</time>
      </trkpt>
      <trkpt lat="0" lon="0">
        <time>2020-12-20T09:41:21.791000+00:00</time>
      </trkpt>
      <trkpt lat="0" lon="0">
        <time>2020-12-20T09:41:21.794000+00:00</time>
      </trkpt>
      <trkpt lat="47.34559" lon="-1.28262">
        <ele>54</ele>
        <time>2020-12-20T09:41:22.709000+00:00</time>
      </trkpt>
      <trkpt lat="0" lon="0">
        <time>2020-12-20T09:41:22.712000+00:00</time>
      </trkpt>
      <trkpt lat="0" lon="0">
        <time>2020-12-20T09:41:22.714000+00:00</time>
      </trkpt>
      <trkpt lat="0" lon="0">
        <time>2020-12-20T09:41:22.715000+00:00</time>
      </trkpt>
      <trkpt lat="47.34563" lon="-1.2826">
        <ele>54</ele>
        <time>2020-12-20T09:41:23.721000+00:00</time>
      </trkpt>
      <trkpt lat="0" lon="0">
        <time>2020-12-20T09:41:23.722000+00:00</time>
      </trkpt>
      <trkpt lat="0" lon="0">
        <time>2020-12-20T09:41:23.724000+00:00</time>
      </trkpt>
      <trkpt lat="0" lon="0">
        <time>2020-12-20T09:41:23.725000+00:00</time>
      </trkpt>
      <trkpt lat="47.34566" lon="-1.28257">
        <ele>54</ele>
        <time>2020-12-20T09:41:24.709000+00:00</time>
      </trkpt>
      <trkpt lat="0" lon="0">
        <time>2020-12-20T09:41:24.717000+00:00</time>
      </trkpt>
      <trkpt lat="0" lon="0">
        <time>2020-12-20T09:41:24.723000+00:00</time>
      </trkpt>
      <trkpt lat="0" lon="0">
        <time>2020-12-20T09:41:24.724000+00:00</time>
      </trkpt>
      <trkpt lat="47.34569" lon="-1.28254">
        <ele>55</ele>
        <time>2020-12-20T09:41:25.738000+00:00</time>
      </trkpt>
      <trkpt lat="0" lon="0">
        <time>2020-12-20T09:41:25.749000+00:00</time>
      </trkpt>
      <trkpt lat="0" lon="0">
        <time>2020-12-20T09:41:25.760000+00:00</time>
      </trkpt>
      <trkpt lat="0" lon="0">
        <time>2020-12-20T09:41:25.762000+00:00</time>
      </trkpt>
      <trkpt lat="47.34573" lon="-1.28251">
        <ele>55</ele>
        <time>2020-12-20T09:41:26.802000+00:00</time>
      </trkpt>
      <trkpt lat="0" lon="0">
        <time>2020-12-20T09:41:26.811000+00:00</time>
      </trkpt>
      <trkpt lat="0" lon="0">
        <time>2020-12-20T09:41:26.816000+00:00</time>
      </trkpt>
      <trkpt lat="0" lon="0">
        <time>2020-12-20T09:41:26.819000+00:00</time>
      </trkpt>
      <trkpt lat="47.34576" lon="-1.28248">
        <ele>55</ele>
        <time>2020-12-20T09:41:27.774000+00:00</time>
      </trkpt>
      <trkpt lat="0" lon="0">
        <time>2020-12-20T09:41:27.786000+00:00</time>
      </trkpt>
      <trkpt lat="0" lon="0">
        <time>2020-12-20T09:41:27.797000+00:00</time>
      </trkpt>
      <trkpt lat="0" lon="0">
        <time>2020-12-20T09:41:27.799000+00:00</time>
      </trkpt>
      <trkpt lat="47.34579" lon="-1.28245">
        <ele>55</ele>
        <time>2020-12-20T09:41:28.761000+00:00</time>
      </trkpt>
      <trkpt lat="0" lon="0">
        <time>2020-12-20T09:41:28.769000+00:00</time>
      </trkpt>
      <trkpt lat="0" lon="0">
        <time>2020-12-20T09:41:28.774000+00:00</time>
      </trkpt>
      <trkpt lat="0" lon="0">
        <time>2020-12-20T09:41:28.778000+00:00</time>
      </trkpt>
      <trkpt lat="47.34583" lon="-1.28242">
        <ele>55</ele>
        <time>2020-12-20T09:41:29.757000+00:00</time>
      </trkpt>
      <trkpt lat="0" lon="0">
        <time>2020-12-20T09:41:29.766000+00:00</time>
      </trkpt>
      <trkpt lat="0" lon="0">
        <time>2020-12-20T09:41:29.774000+00:00</time>
      </trkpt>
      <trkpt lat="0" lon="0">
        <time>2020-12-20T09:41:29.777000+00:00</time>
      </trkpt>
      <trkpt lat="47.34586" lon="-1.28238">
        <ele>55</ele>
        <time>2020-12-20T09:41:30.722000+00:00</time>
      </trkpt>
      <trkpt lat="0" lon="0">
        <time>2020-12-20T09:41:30.731000+00:00</time>
      </trkpt>
      <trkpt lat="0" lon="0">
        <time>2020-12-20T09:41:30.742000+00:00</time>
      </trkpt>
      <trkpt lat="0" lon="0">
        <time>2020-12-20T09:41:30.745000+00:00</time>
      </trkpt>
      <trkpt lat="47.3459" lon="-1.28234">
        <ele>55</ele>
        <time>2020-12-20T09:41:31.774000+00:00</time>
      </trkpt>
      <trkpt lat="0" lon="0">
        <time>2020-12-20T09:41:31.792000+00:00</time>
      </trkpt>
      <trkpt lat="0" lon="0">
        <time>2020-12-20T09:41:31.801000+00:00</time>
      </trkpt>
      <trkpt lat="0" lon="0">
        <time>2020-12-20T09:41:31.804000+00:00</time>
      </trkpt>
      <trkpt lat="47.34593" lon="-1.2823">
        <ele>55</ele>
        <time>2020-12-20T09:41:32.782000+00:00</time>
      </trkpt>
      <trkpt lat="0" lon="0">
        <time>2020-12-20T09:41:32.791000+00:00</time>
      </trkpt>
      <trkpt lat="0" lon="0">
        <time>2020-12-20T09:41:32.795000+00:00</time>
      </trkpt>
      <trkpt lat="0" lon="0">
        <time>2020-12-20T09:41:32.798000+00:00</time>
      </trkpt>
      <trkpt lat="47.34597" lon="-1.28226">
        <ele>55</ele>
        <time>2020-12-20T09:41:33.777000+00:00</time>
      </trkpt>
      <trkpt lat="0" lon="0">
        <time>2020-12-20T09:41:33.787000+00:00</time>
      </trkpt>
      <trkpt lat="0" lon="0">
        <time>2020-12-20T09:41:33.792000+00:00</time>
      </trkpt>
      <trkpt lat="0" lon="0">
        <time>2020-12-20T09:41:33.794000+00:00</time>
      </trkpt>
      <trkpt lat="47.34601" lon="-1.28221">
        <ele>56</ele>
        <time>2020-12-20T09:41:34.781000+00:00</time>
      </trkpt>
      <trkpt lat="0" lon="0">
        <time>2020-12-20T09:41:34.794000+00:00</time>
      </trkpt>
      <trkpt lat="0" lon="0">
        <time>2020-12-20T09:41:34.799000+00:00</time>
      </trkpt>
      <trkpt lat="0" lon="0">
        <time>2020-12-20T09:41:34.802000+00:00</time>
      </trkpt>
      <trkpt lat="47.34604" lon="-1.28217">
        <ele>56</ele>
        <time>2020-12-20T09:41:35.750000+00:00</time>
      </trkpt>
      <trkpt lat="0" lon="0">
        <time>2020-12-20T09:41:35.764000+00:00</time>
      </trkpt>
      <trkpt lat="0" lon="0">
        <time>2020-12-20T09:41:35.774000+00:00</time>
      </trkpt>
      <trkpt lat="0" lon="0">
        <time>2020-12-20T09:41:35.776000+00:00</time>
      </trkpt>
      <trkpt lat="47.34607" lon="-1.28212">
        <ele>56</ele>
        <time>2020-12-20T09:41:36.717000+00:00</time>
      </trkpt>
      <trkpt lat="0" lon="0">
        <time>2020-12-20T09:41:36.722000+00:00</time>
      </trkpt>
      <trkpt lat="0" lon="0">
        <time>2020-12-20T09:41:36.734000+00:00</time>
      </trkpt>
      <trkpt lat="0" lon="0">
        <time>2020-12-20T09:41:36.736000+00:00</time>
      </trkpt>
      <trkpt lat="47.3461" lon="-1.28207">
        <ele>56</ele>
        <time>2020-12-20T09:41:37.780000+00:00</time>
      </trkpt>
      <trkpt lat="0" lon="0">
        <time>2020-12-20T09:41:37.795000+00:00</time>
      </trkpt>
      <trkpt lat="0" lon="0">
        <time>2020-12-20T09:41:37.801000+00:00</time>
      </trkpt>
      <trkpt lat="0" lon="0">
        <time>2020-12-20T09:41:37.807000+00:00</time>
      </trkpt>
      <trkpt lat="47.34613" lon="-1.28202">
        <ele>56</ele>
        <time>2020-12-20T09:41:38.755000+00:00</time>
      </trkpt>
      <trkpt lat="0" lon="0">
        <time>2020-12-20T09:41:38.776000+00:00</time>
      </trkpt>
      <trkpt lat="0" lon="0">
        <time>2020-12-20T09:41:38.783000+00:00</time>
      </trkpt>
      <trkpt lat="0" lon="0">
        <time>2020-12-20T09:41:38.789000+00:00</time>
      </trkpt>
      <trkpt lat="47.34616" lon="-1.28196">
        <ele>57</ele>
        <time>2020-12-20T09:41:39.771000+00:00</time>
      </trkpt>
      <trkpt lat="0" lon="0">
        <time>2020-12-20T09:41:39.779000+00:00</time>
      </trkpt>
      <trkpt lat="0" lon="0">
        <time>2020-12-20T09:41:39.785000+00:00</time>
      </trkpt>
      <trkpt lat="0" lon="0">
        <time>2020-12-20T09:41:39.788000+00:00</time>
      </trkpt>
      <trkpt lat="47.34619" lon="-1.28191">
        <ele>58</ele>
        <time>2020-12-20T09:41:40.743000+00:00</time>
      </trkpt>
      <trkpt lat="0" lon="0">
        <time>2020-12-20T09:41:40.747000+00:00</time>
      </trkpt>
      <trkpt lat="0" lon="0">
        <time>2020-12-20T09:41:40.755000+00:00</time>
      </trkpt>
      <trkpt lat="0" lon="0">
        <time>2020-12-20T09:41:40.759000+00:00</time>
      </trkpt>
      <trkpt lat="47.34622" lon="-1.28185">
        <ele>59</ele>
        <time>2020-12-20T09:41:41.780000+00:00</time>
      </trkpt>
      <trkpt lat="0" lon="0">
        <time>2020-12-20T09:41:41.788000+00:00</time>
      </trkpt>
      <trkpt lat="0" lon="0">
        <time>2020-12-20T09:41:41.796000+00:00</time>
      </trkpt>
      <trkpt lat="0" lon="0">
        <time>2020-12-20T09:41:41.798000+00:00</time>
      </trkpt>
      <trkpt lat="47.34625" lon="-1.2818">
        <ele>59</ele>
        <time>2020-12-20T09:41:42.760000+00:00</time>
      </trkpt>
      <trkpt lat="0" lon="0">
        <time>2020-12-20T09:41:42.764000+00:00</time>
      </trkpt>
      <trkpt lat="0" lon="0">
        <time>2020-12-20T09:41:42.767000+00:00</time>
      </trkpt>
      <trkpt lat="0" lon="0">
        <time>2020-12-20T09:41:42.768000+00:00</time>
      </trkpt>
      <trkpt lat="47.34627" lon="-1.28175">
        <ele>59</ele>
        <time>2020-12-20T09:41:43.764000+00:00</time>
      </trkpt>
      <trkpt lat="0" lon="0">
        <time>2020-12-20T09:41:43.777000+00:00</time>
      </trkpt>
      <trkpt lat="0" lon="0">
        <time>2020-12-20T09:41:43.782000+00:00</time>
      </trkpt>
      <trkpt lat="0" lon="0">
        <time>2020-12-20T09:41:43.784000+00:00</time>
      </trkpt>
      <trkpt lat="47.3463" lon="-1.2817">
        <ele>59</ele>
        <time>2020-12-20T09:41:44.770000+00:00</time>
      </trkpt>
      <trkpt lat="0" lon="0">
        <time>2020-12-20T09:41:44.788000+00:00</time>
      </trkpt>
      <trkpt lat="0" lon="0">
        <time>2020-12-20T09:41:44.793000+00:00</time>
      </trkpt>
      <trkpt lat="0" lon="0">
        <time>2020-12-20T09:41:44.795000+00:00</time>
      </trkpt>
      <trkpt lat="47.34632" lon="-1.28165">
        <ele>59</ele>
        <time>2020-12-20T09:41:45.744000+00:00</time>
      </trkpt>
      <trkpt lat="0" lon="0">
        <time>2020-12-20T09:41:45.754000+00:00</time>
      </trkpt>
      <trkpt lat="0" lon="0">
        <time>2020-12-20T09:41:45.760000+00:00</time>
      </trkpt>
      <trkpt lat="0" lon="0">
        <time>2020-12-20T09:41:45.766000+00:00</time>
      </trkpt>
      <trkpt lat="47.34634" lon="-1.2816">
        <ele>59</ele>
        <time>2020-12-20T09:41:46.754000+00:00</time>
      </trkpt>
      <trkpt lat="0" lon="0">
        <time>2020-12-20T09:41:46.766000+00:00</time>
      </trkpt>
      <trkpt lat="0" lon="0">
        <time>2020-12-20T09:41:46.770000+00:00</time>
      </trkpt>
      <trkpt lat="0" lon="0">
        <time>2020-12-20T09:41:46.774000+00:00</time>
      </trkpt>
      <trkpt lat="47.34636" lon="-1.28156">
        <ele>59</ele>
        <time>2020-12-20T09:41:47.773000+00:00</time>
      </trkpt>
      <trkpt lat="0" lon="0">
        <time>2020-12-20T09:41:47.789000+00:00</time>
      </trkpt>
      <trkpt lat="0" lon="0">
        <time>2020-12-20T09:41:47.798000+00:00</time>
      </trkpt>
      <trkpt lat="0" lon="0">
        <time>2020-12-20T09:41:47.806000+00:00</time>
      </trkpt>
      <trkpt lat="47.34638" lon="-1.28151">
        <ele>59</ele>
        <time>2020-12-20T09:41:48.781000+00:00</time>
      </trkpt>
      <trkpt lat="0" lon="0">
        <time>2020-12-20T09:41:48.786000+00:00</time>
      </trkpt>
      <trkpt lat="0" lon="0">
        <time>2020-12-20T09:41:48.789000+00:00</time>
      </trkpt>
      <trkpt lat="0" lon="0">
        <time>2020-12-20T09:41:48.790000+00:00</time>
      </trkpt>
      <trkpt lat="47.3464" lon="-1.28147">
        <ele>60</ele>
        <time>2020-12-20T09:41:49.749000+00:00</time>
      </trkpt>
      <trkpt lat="0" lon="0">
        <time>2020-12-20T09:41:49.760000+00:00</time>
      </trkpt>
      <trkpt lat="0" lon="0">
        <time>2020-12-20T09:41:49.767000+00:00</time>
      </trkpt>
      <trkpt lat="0" lon="0">
        <time>2020-12-20T09:41:49.769000+00:00</time>
      </trkpt>
      <trkpt lat="47.34642" lon="-1.28142">
        <ele>60</ele>
        <time>2020-12-20T09:41:50.758000+00:00</time>
      </trkpt>
      <trkpt lat="0" lon="0">
        <time>2020-12-20T09:41:50.770000+00:00</time>
      </trkpt>
      <trkpt lat="0" lon="0">
        <time>2020-12-20T09:41:50.775000+00:00</time>
      </trkpt>
      <trkpt lat="0" lon="0">
        <time>2020-12-20T09:41:50.777000+00:00</time>
      </trkpt>
      <trkpt lat="47.34644" lon="-1.28138">
        <ele>60</ele>
        <time>2020-12-20T09:41:51.793000+00:00</time>
      </trkpt>
      <trkpt lat="0" lon="0">
        <time>2020-12-20T09:41:51.803000+00:00</time>
      </trkpt>
      <trkpt lat="0" lon="0">
        <time>2020-12-20T09:41:51.808000+00:00</time>
      </trkpt>
      <trkpt lat="0" lon="0">
        <time>2020-12-20T09:41:51.811000+00:00</time>
      </trkpt>
      <trkpt lat="47.34647" lon="-1.28134">
        <ele>60</ele>
        <time>2020-12-20T09:41:52.773000+00:00</time>
      </trkpt>
      <trkpt lat="0" lon="0">
        <time>2020-12-20T09:41:52.793000+00:00</time>
      </trkpt>
      <trkpt lat="0" lon="0">
        <time>2020-12-20T09:41:52.797000+00:00</time>
      </trkpt>
      <trkpt lat="0" lon="0">
        <time>2020-12-20T09:41:52.799000+00:00</time>
      </trkpt>
      <trkpt lat="47.34649" lon="-1.2813">
        <ele>60</ele>
        <time>2020-12-20T09:41:53.781000+00:00</time>
      </trkpt>
      <trkpt lat="0" lon="0">
        <time>2020-12-20T09:41:53.798000+00:00</time>
      </trkpt>
      <trkpt lat="0" lon="0">
        <time>2020-12-20T09:41:53.802000+00:00</time>
      </trkpt>
      <trkpt lat="0" lon="0">
        <time>2020-12-20T09:41:53.804000+00:00</time>
      </trkpt>
      <trkpt lat="47.34651" lon="-1.28126">
        <ele>60</ele>
        <time>2020-12-20T09:41:54.775000+00:00</time>
      </trkpt>
      <trkpt lat="0" lon="0">
        <time>2020-12-20T09:41:54.787000+00:00</time>
      </trkpt>
      <trkpt lat="0" lon="0">
        <time>2020-12-20T09:41:54.798000+00:00</time>
      </trkpt>
      <trkpt lat="0" lon="0">
        <time>2020-12-20T09:41:54.805000+00:00</time>
      </trkpt>
      <trkpt lat="47.34654" lon="-1.28123">
        <ele>60</ele>
        <time>2020-12-20T09:41:55.730000+00:00</time>
      </trkpt>
      <trkpt lat="0" lon="0">
        <time>2020-12-20T09:41:55.746000+00:00</time>
      </trkpt>
      <trkpt lat="0" lon="0">
        <time>2020-12-20T09:41:55.750000+00:00</time>
      </trkpt>
      <trkpt lat="0" lon="0">
        <time>2020-12-20T09:41:55.752000+00:00</time>
      </trkpt>
      <trkpt lat="47.34657" lon="-1.2812">
        <ele>60</ele>
        <time>2020-12-20T09:41:56.771000+00:00</time>
      </trkpt>
      <trkpt lat="0" lon="0">
        <time>2020-12-20T09:41:56.786000+00:00</time>
      </trkpt>
      <trkpt lat="0" lon="0">
        <time>2020-12-20T09:41:56.792000+00:00</time>
      </trkpt>
      <trkpt lat="0" lon="0">
        <time>2020-12-20T09:41:56.797000+00:00</time>
      </trkpt>
      <trkpt lat="47.34661" lon="-1.28118">
        <ele>59</ele>
        <time>2020-12-20T09:41:57.766000+00:00</time>
      </trkpt>
      <trkpt lat="0" lon="0">
        <time>2020-12-20T09:41:57.782000+00:00</time>
      </trkpt>
      <trkpt lat="0" lon="0">
        <time>2020-12-20T09:41:57.788000+00:00</time>
      </trkpt>
      <trkpt lat="0" lon="0">
        <time>2020-12-20T09:41:57.790000+00:00</time>
      </trkpt>
      <trkpt lat="47.34665" lon="-1.28117">
        <ele>59</ele>
        <time>2020-12-20T09:41:58.765000+00:00</time>
      </trkpt>
      <trkpt lat="0" lon="0">
        <time>2020-12-20T09:41:58.775000+00:00</time>
      </trkpt>
      <trkpt lat="0" lon="0">
        <time>2020-12-20T09:41:58.780000+00:00</time>
      </trkpt>
      <trkpt lat="0" lon="0">
        <time>2020-12-20T09:41:58.783000+00:00</time>
      </trkpt>
      <trkpt lat="47.34669" lon="-1.28116">
        <ele>59</ele>
        <time>2020-12-20T09:41:59.796000+00:00</time>
      </trkpt>
      <trkpt lat="0" lon="0">
        <time>2020-12-20T09:41:59.813000+00:00</time>
      </trkpt>
      <trkpt lat="0" lon="0">
        <time>2020-12-20T09:41:59.814000+00:00</time>
      </trkpt>
      <trkpt lat="0" lon="0">
        <time>2020-12-20T09:41:59.815000+00:00</time>
      </trkpt>
      <trkpt lat="47.34673" lon="-1.28116">
        <ele>59</ele>
        <time>2020-12-20T09:42:00.734000+00:00</time>
      </trkpt>
      <trkpt lat="0" lon="0">
        <time>2020-12-20T09:42:00.749000+00:00</time>
      </trkpt>
      <trkpt lat="0" lon="0">
        <time>2020-12-20T09:42:00.755000+00:00</time>
      </trkpt>
      <trkpt lat="0" lon="0">
        <time>2020-12-20T09:42:00.760000+00:00</time>
      </trkpt>
      <trkpt lat="47.34677" lon="-1.28116">
        <ele>59</ele>
        <time>2020-12-20T09:42:01.715000+00:00</time>
      </trkpt>
      <trkpt lat="0" lon="0">
        <time>2020-12-20T09:42:01.721000+00:00</time>
      </trkpt>
      <trkpt lat="0" lon="0">
        <time>2020-12-20T09:42:01.726000+00:00</time>
      </trkpt>
      <trkpt lat="0" lon="0">
        <time>2020-12-20T09:42:01.729000+00:00</time>
      </trkpt>
      <trkpt lat="47.34681" lon="-1.28116">
        <ele>59</ele>
        <time>2020-12-20T09:42:02.738000+00:00</time>
      </trkpt>
      <trkpt lat="0" lon="0">
        <time>2020-12-20T09:42:02.751000+00:00</time>
      </trkpt>
      <trkpt lat="0" lon="0">
        <time>2020-12-20T09:42:02.756000+00:00</time>
      </trkpt>
      <trkpt lat="0" lon="0">
        <time>2020-12-20T09:42:02.760000+00:00</time>
      </trkpt>
      <trkpt lat="47.34686" lon="-1.28117">
        <ele>59</ele>
        <time>2020-12-20T09:42:03.777000+00:00</time>
      </trkpt>
      <trkpt lat="0" lon="0">
        <time>2020-12-20T09:42:03.798000+00:00</time>
      </trkpt>
      <trkpt lat="0" lon="0">
        <time>2020-12-20T09:42:03.810000+00:00</time>
      </trkpt>
      <trkpt lat="0" lon="0">
        <time>2020-12-20T09:42:03.812000+00:00</time>
      </trkpt>
      <trkpt lat="47.34691" lon="-1.28118">
        <ele>59</ele>
        <time>2020-12-20T09:42:04.761000+00:00</time>
      </trkpt>
      <trkpt lat="0" lon="0">
        <time>2020-12-20T09:42:04.772000+00:00</time>
      </trkpt>
      <trkpt lat="0" lon="0">
        <time>2020-12-20T09:42:04.786000+00:00</time>
      </trkpt>
      <trkpt lat="0" lon="0">
        <time>2020-12-20T09:42:04.788000+00:00</time>
      </trkpt>
      <trkpt lat="47.34695" lon="-1.28118">
        <ele>59</ele>
        <time>2020-12-20T09:42:05.715000+00:00</time>
      </trkpt>
      <trkpt lat="0" lon="0">
        <time>2020-12-20T09:42:05.729000+00:00</time>
      </trkpt>
      <trkpt lat="0" lon="0">
        <time>2020-12-20T09:42:05.736000+00:00</time>
      </trkpt>
      <trkpt lat="0" lon="0">
        <time>2020-12-20T09:42:05.739000+00:00</time>
      </trkpt>
      <trkpt lat="47.347" lon="-1.28119">
        <ele>58</ele>
        <time>2020-12-20T09:42:06.703000+00:00</time>
      </trkpt>
      <trkpt lat="0" lon="0">
        <time>2020-12-20T09:42:06.716000+00:00</time>
      </trkpt>
      <trkpt lat="0" lon="0">
        <time>2020-12-20T09:42:06.727000+00:00</time>
      </trkpt>
      <trkpt lat="0" lon="0">
        <time>2020-12-20T09:42:06.731000+00:00</time>
      </trkpt>
      <trkpt lat="47.34704" lon="-1.2812">
        <ele>58</ele>
        <time>2020-12-20T09:42:07.746000+00:00</time>
      </trkpt>
      <trkpt lat="0" lon="0">
        <time>2020-12-20T09:42:07.763000+00:00</time>
      </trkpt>
      <trkpt lat="0" lon="0">
        <time>2020-12-20T09:42:07.767000+00:00</time>
      </trkpt>
      <trkpt lat="0" lon="0">
        <time>2020-12-20T09:42:07.770000+00:00</time>
      </trkpt>
      <trkpt lat="47.34709" lon="-1.28121">
        <ele>58</ele>
        <time>2020-12-20T09:42:08.731000+00:00</time>
      </trkpt>
      <trkpt lat="0" lon="0">
        <time>2020-12-20T09:42:08.745000+00:00</time>
      </trkpt>
      <trkpt lat="0" lon="0">
        <time>2020-12-20T09:42:08.754000+00:00</time>
      </trkpt>
      <trkpt lat="0" lon="0">
        <time>2020-12-20T09:42:08.757000+00:00</time>
      </trkpt>
      <trkpt lat="47.34713" lon="-1.28122">
        <ele>58</ele>
        <time>2020-12-20T09:42:09.718000+00:00</time>
      </trkpt>
      <trkpt lat="0" lon="0">
        <time>2020-12-20T09:42:09.724000+00:00</time>
      </trkpt>
      <trkpt lat="0" lon="0">
        <time>2020-12-20T09:42:09.729000+00:00</time>
      </trkpt>
      <trkpt lat="0" lon="0">
        <time>2020-12-20T09:42:09.735000+00:00</time>
      </trkpt>
      <trkpt lat="47.34717" lon="-1.28123">
        <ele>58</ele>
        <time>2020-12-20T09:42:10.754000+00:00</time>
      </trkpt>
      <trkpt lat="0" lon="0">
        <time>2020-12-20T09:42:10.760000+00:00</time>
      </trkpt>
      <trkpt lat="0" lon="0">
        <time>2020-12-20T09:42:10.764000+00:00</time>
      </trkpt>
      <trkpt lat="0" lon="0">
        <time>2020-12-20T09:42:10.766000+00:00</time>
      </trkpt>
      <trkpt lat="47.34721" lon="-1.28123">
        <ele>58</ele>
        <time>2020-12-20T09:42:11.749000+00:00</time>
      </trkpt>
      <trkpt lat="0" lon="0">
        <time>2020-12-20T09:42:11.753000+00:00</time>
      </trkpt>
      <trkpt lat="0" lon="0">
        <time>2020-12-20T09:42:11.763000+00:00</time>
      </trkpt>
      <trkpt lat="0" lon="0">
        <time>2020-12-20T09:42:11.766000+00:00</time>
      </trkpt>
      <trkpt lat="47.34724" lon="-1.28123">
        <ele>58</ele>
        <time>2020-12-20T09:42:12.799000+00:00</time>
      </trkpt>
      <trkpt lat="0" lon="0">
        <time>2020-12-20T09:42:12.822000+00:00</time>
      </trkpt>
      <trkpt lat="0" lon="0">
        <time>2020-12-20T09:42:12.825000+00:00</time>
      </trkpt>
      <trkpt lat="0" lon="0">
        <time>2020-12-20T09:42:12.827000+00:00</time>
      </trkpt>
      <trkpt lat="47.34727" lon="-1.28122">
        <ele>58</ele>
        <time>2020-12-20T09:42:13.735000+00:00</time>
      </trkpt>
      <trkpt lat="0" lon="0">
        <time>2020-12-20T09:42:13.744000+00:00</time>
      </trkpt>
      <trkpt lat="0" lon="0">
        <time>2020-12-20T09:42:13.751000+00:00</time>
      </trkpt>
      <trkpt lat="0" lon="0">
        <time>2020-12-20T09:42:13.753000+00:00</time>
      </trkpt>
      <trkpt lat="47.34729" lon="-1.2812">
        <ele>59</ele>
        <time>2020-12-20T09:42:14.739000+00:00</time>
      </trkpt>
      <trkpt lat="0" lon="0">
        <time>2020-12-20T09:42:14.758000+00:00</time>
      </trkpt>
      <trkpt lat="0" lon="0">
        <time>2020-12-20T09:42:14.761000+00:00</time>
      </trkpt>
      <trkpt lat="0" lon="0">
        <time>2020-12-20T09:42:14.765000+00:00</time>
      </trkpt>
      <trkpt lat="47.34731" lon="-1.28117">
        <ele>59</ele>
        <time>2020-12-20T09:42:15.745000+00:00</time>
      </trkpt>
      <trkpt lat="0" lon="0">
        <time>2020-12-20T09:42:15.758000+00:00</time>
      </trkpt>
      <trkpt lat="0" lon="0">
        <time>2020-12-20T09:42:15.763000+00:00</time>
      </trkpt>
      <trkpt lat="0" lon="0">
        <time>2020-12-20T09:42:15.775000+00:00</time>
      </trkpt>
      <trkpt lat="47.34733" lon="-1.28113">
        <ele>59</ele>
        <time>2020-12-20T09:42:16.744000+00:00</time>
      </trkpt>
      <trkpt lat="0" lon="0">
        <time>2020-12-20T09:42:16.751000+00:00</time>
      </trkpt>
      <trkpt lat="0" lon="0">
        <time>2020-12-20T09:42:16.761000+00:00</time>
      </trkpt>
      <trkpt lat="0" lon="0">
        <time>2020-12-20T09:42:16.763000+00:00</time>
      </trkpt>
      <trkpt lat="47.34734" lon="-1.28109">
        <ele>60</ele>
        <time>2020-12-20T09:42:17.743000+00:00</time>
      </trkpt>
      <trkpt lat="0" lon="0">
        <time>2020-12-20T09:42:17.753000+00:00</time>
      </trkpt>
      <trkpt lat="0" lon="0">
        <time>2020-12-20T09:42:17.758000+00:00</time>
      </trkpt>
      <trkpt lat="0" lon="0">
        <time>2020-12-20T09:42:17.761000+00:00</time>
      </trkpt>
      <trkpt lat="47.34734" lon="-1.28103">
        <ele>60</ele>
        <time>2020-12-20T09:42:18.750000+00:00</time>
      </trkpt>
      <trkpt lat="0" lon="0">
        <time>2020-12-20T09:42:18.757000+00:00</time>
      </trkpt>
      <trkpt lat="0" lon="0">
        <time>2020-12-20T09:42:18.767000+00:00</time>
      </trkpt>
      <trkpt lat="0" lon="0">
        <time>2020-12-20T09:42:18.770000+00:00</time>
      </trkpt>
      <trkpt lat="47.34735" lon="-1.28097">
        <ele>60</ele>
        <time>2020-12-20T09:42:19.764000+00:00</time>
      </trkpt>
      <trkpt lat="0" lon="0">
        <time>2020-12-20T09:42:19.775000+00:00</time>
      </trkpt>
      <trkpt lat="0" lon="0">
        <time>2020-12-20T09:42:19.785000+00:00</time>
      </trkpt>
      <trkpt lat="0" lon="0">
        <time>2020-12-20T09:42:19.787000+00:00</time>
      </trkpt>
      <trkpt lat="47.34735" lon="-1.2809">
        <ele>60</ele>
        <time>2020-12-20T09:42:20.762000+00:00</time>
      </trkpt>
      <trkpt lat="0" lon="0">
        <time>2020-12-20T09:42:20.773000+00:00</time>
      </trkpt>
      <trkpt lat="0" lon="0">
        <time>2020-12-20T09:42:20.778000+00:00</time>
      </trkpt>
      <trkpt lat="0" lon="0">
        <time>2020-12-20T09:42:20.781000+00:00</time>
      </trkpt>
      <trkpt lat="47.34736" lon="-1.28084">
        <ele>60</ele>
        <time>2020-12-20T09:42:21.762000+00:00</time>
      </trkpt>
      <trkpt lat="0" lon="0">
        <time>2020-12-20T09:42:21.781000+00:00</time>
      </trkpt>
      <trkpt lat="0" lon="0">
        <time>2020-12-20T09:42:21.786000+00:00</time>
      </trkpt>
      <trkpt lat="0" lon="0">
        <time>2020-12-20T09:42:21.789000+00:00</time>
      </trkpt>
      <trkpt lat="47.34737" lon="-1.28077">
        <ele>60</ele>
        <time>2020-12-20T09:42:22.728000+00:00</time>
      </trkpt>
      <trkpt lat="0" lon="0">
        <time>2020-12-20T09:42:22.749000+00:00</time>
      </trkpt>
      <trkpt lat="0" lon="0">
        <time>2020-12-20T09:42:22.755000+00:00</time>
      </trkpt>
      <trkpt lat="0" lon="0">
        <time>2020-12-20T09:42:22.758000+00:00</time>
      </trkpt>
      <trkpt lat="47.34738" lon="-1.28071">
        <ele>60</ele>
        <time>2020-12-20T09:42:23.749000+00:00</time>
      </trkpt>
      <trkpt lat="0" lon="0">
        <time>2020-12-20T09:42:23.763000+00:00</time>
      </trkpt>
      <trkpt lat="0" lon="0">
        <time>2020-12-20T09:42:23.771000+00:00</time>
      </trkpt>
      <trkpt lat="0" lon="0">
        <time>2020-12-20T09:42:23.774000+00:00</time>
      </trkpt>
      <trkpt lat="47.3474" lon="-1.28064">
        <ele>60</ele>
        <time>2020-12-20T09:42:24.727000+00:00</time>
      </trkpt>
      <trkpt lat="0" lon="0">
        <time>2020-12-20T09:42:24.732000+00:00</time>
      </trkpt>
      <trkpt lat="0" lon="0">
        <time>2020-12-20T09:42:24.737000+00:00</time>
      </trkpt>
      <trkpt lat="0" lon="0">
        <time>2020-12-20T09:42:24.740000+00:00</time>
      </trkpt>
      <trkpt lat="47.34742" lon="-1.28058">
        <ele>60</ele>
        <time>2020-12-20T09:42:25.730000+00:00</time>
      </trkpt>
      <trkpt lat="0" lon="0">
        <time>2020-12-20T09:42:25.740000+00:00</time>
      </trkpt>
      <trkpt lat="0" lon="0">
        <time>2020-12-20T09:42:25.744000+00:00</time>
      </trkpt>
      <trkpt lat="0" lon="0">
        <time>2020-12-20T09:42:25.747000+00:00</time>
      </trkpt>
      <trkpt lat="47.34743" lon="-1.28051">
        <ele>60</ele>
        <time>2020-12-20T09:42:26.735000+00:00</time>
      </trkpt>
      <trkpt lat="0" lon="0">
        <time>2020-12-20T09:42:26.745000+00:00</time>
      </trkpt>
      <trkpt lat="0" lon="0">
        <time>2020-12-20T09:42:26.751000+00:00</time>
      </trkpt>
      <trkpt lat="0" lon="0">
        <time>2020-12-20T09:42:26.754000+00:00</time>
      </trkpt>
      <trkpt lat="47.34745" lon="-1.28044">
        <ele>60</ele>
        <time>2020-12-20T09:42:27.737000+00:00</time>
      </trkpt>
      <trkpt lat="0" lon="0">
        <time>2020-12-20T09:42:27.744000+00:00</time>
      </trkpt>
      <trkpt lat="0" lon="0">
        <time>2020-12-20T09:42:27.746000+00:00</time>
      </trkpt>
      <trkpt lat="0" lon="0">
        <time>2020-12-20T09:42:27.747000+00:00</time>
      </trkpt>
      <trkpt lat="47.34746" lon="-1.28038">
        <ele>60</ele>
        <time>2020-12-20T09:42:28.743000+00:00</time>
      </trkpt>
      <trkpt lat="0" lon="0">
        <time>2020-12-20T09:42:28.749000+00:00</time>
      </trkpt>
      <trkpt lat="0" lon="0">
        <time>2020-12-20T09:42:28.754000+00:00</time>
      </trkpt>
      <trkpt lat="0" lon="0">
        <time>2020-12-20T09:42:28.757000+00:00</time>
      </trkpt>
      <trkpt lat="47.34747" lon="-1.28031">
        <ele>60</ele>
        <time>2020-12-20T09:42:29.747000+00:00</time>
      </trkpt>
      <trkpt lat="0" lon="0">
        <time>2020-12-20T09:42:29.755000+00:00</time>
      </trkpt>
      <trkpt lat="0" lon="0">
        <time>2020-12-20T09:42:29.759000+00:00</time>
      </trkpt>
      <trkpt lat="0" lon="0">
        <time>2020-12-20T09:42:29.761000+00:00</time>
      </trkpt>
      <trkpt lat="47.34749" lon="-1.28025">
        <ele>61</ele>
        <time>2020-12-20T09:42:30.781000+00:00</time>
      </trkpt>
      <trkpt lat="0" lon="0">
        <time>2020-12-20T09:42:30.792000+00:00</time>
      </trkpt>
      <trkpt lat="0" lon="0">
        <time>2020-12-20T09:42:30.801000+00:00</time>
      </trkpt>
      <trkpt lat="0" lon="0">
        <time>2020-12-20T09:42:30.805000+00:00</time>
      </trkpt>
      <trkpt lat="47.3475" lon="-1.28019">
        <ele>61</ele>
        <time>2020-12-20T09:42:31.775000+00:00</time>
      </trkpt>
      <trkpt lat="0" lon="0">
        <time>2020-12-20T09:42:31.783000+00:00</time>
      </trkpt>
      <trkpt lat="0" lon="0">
        <time>2020-12-20T09:42:31.787000+00:00</time>
      </trkpt>
      <trkpt lat="0" lon="0">
        <time>2020-12-20T09:42:31.790000+00:00</time>
      </trkpt>
      <trkpt lat="47.34751" lon="-1.28013">
        <ele>60</ele>
        <time>2020-12-20T09:42:32.724000+00:00</time>
      </trkpt>
      <trkpt lat="0" lon="0">
        <time>2020-12-20T09:42:32.734000+00:00</time>
      </trkpt>
      <trkpt lat="0" lon="0">
        <time>2020-12-20T09:42:32.740000+00:00</time>
      </trkpt>
      <trkpt lat="0" lon="0">
        <time>2020-12-20T09:42:32.742000+00:00</time>
      </trkpt>
      <trkpt lat="47.34752" lon="-1.28007">
        <ele>60</ele>
        <time>2020-12-20T09:42:33.765000+00:00</time>
      </trkpt>
      <trkpt lat="0" lon="0">
        <time>2020-12-20T09:42:33.779000+00:00</time>
      </trkpt>
      <trkpt lat="0" lon="0">
        <time>2020-12-20T09:42:33.783000+00:00</time>
      </trkpt>
      <trkpt lat="0" lon="0">
        <time>2020-12-20T09:42:33.785000+00:00</time>
      </trkpt>
      <trkpt lat="47.34753" lon="-1.28001">
        <ele>61</ele>
        <time>2020-12-20T09:42:34.775000+00:00</time>
      </trkpt>
      <trkpt lat="0" lon="0">
        <time>2020-12-20T09:42:34.781000+00:00</time>
      </trkpt>
      <trkpt lat="0" lon="0">
        <time>2020-12-20T09:42:34.785000+00:00</time>
      </trkpt>
      <trkpt lat="0" lon="0">
        <time>2020-12-20T09:42:34.787000+00:00</time>
      </trkpt>
      <trkpt lat="47.34755" lon="-1.27995">
        <ele>61</ele>
        <time>2020-12-20T09:42:35.778000+00:00</time>
      </trkpt>
      <trkpt lat="0" lon="0">
        <time>2020-12-20T09:42:35.798000+00:00</time>
      </trkpt>
      <trkpt lat="0" lon="0">
        <time>2020-12-20T09:42:35.802000+00:00</time>
      </trkpt>
      <trkpt lat="0" lon="0">
        <time>2020-12-20T09:42:35.806000+00:00</time>
      </trkpt>
      <trkpt lat="47.34756" lon="-1.27989">
        <ele>60</ele>
        <time>2020-12-20T09:42:36.762000+00:00</time>
      </trkpt>
      <trkpt lat="0" lon="0">
        <time>2020-12-20T09:42:36.772000+00:00</time>
      </trkpt>
      <trkpt lat="0" lon="0">
        <time>2020-12-20T09:42:36.777000+00:00</time>
      </trkpt>
      <trkpt lat="0" lon="0">
        <time>2020-12-20T09:42:36.779000+00:00</time>
      </trkpt>
      <trkpt lat="47.34757" lon="-1.27984">
        <ele>60</ele>
        <time>2020-12-20T09:42:37.783000+00:00</time>
      </trkpt>
      <trkpt lat="0" lon="0">
        <time>2020-12-20T09:42:37.793000+00:00</time>
      </trkpt>
      <trkpt lat="0" lon="0">
        <time>2020-12-20T09:42:37.798000+00:00</time>
      </trkpt>
      <trkpt lat="0" lon="0">
        <time>2020-12-20T09:42:37.800000+00:00</time>
      </trkpt>
      <trkpt lat="47.34759" lon="-1.27978">
        <ele>60</ele>
        <time>2020-12-20T09:42:38.756000+00:00</time>
      </trkpt>
      <trkpt lat="0" lon="0">
        <time>2020-12-20T09:42:38.768000+00:00</time>
      </trkpt>
      <trkpt lat="0" lon="0">
        <time>2020-12-20T09:42:38.774000+00:00</time>
      </trkpt>
      <trkpt lat="0" lon="0">
        <time>2020-12-20T09:42:38.777000+00:00</time>
      </trkpt>
      <trkpt lat="47.3476" lon="-1.27972">
        <ele>60</ele>
        <time>2020-12-20T09:42:39.775000+00:00</time>
      </trkpt>
      <trkpt lat="0" lon="0">
        <time>2020-12-20T09:42:39.785000+00:00</time>
      </trkpt>
      <trkpt lat="0" lon="0">
        <time>2020-12-20T09:42:39.791000+00:00</time>
      </trkpt>
      <trkpt lat="0" lon="0">
        <time>2020-12-20T09:42:39.794000+00:00</time>
      </trkpt>
      <trkpt lat="47.34762" lon="-1.27966">
        <ele>60</ele>
        <time>2020-12-20T09:42:40.710000+00:00</time>
      </trkpt>
      <trkpt lat="0" lon="0">
        <time>2020-12-20T09:42:40.723000+00:00</time>
      </trkpt>
      <trkpt lat="0" lon="0">
        <time>2020-12-20T09:42:40.727000+00:00</time>
      </trkpt>
      <trkpt lat="0" lon="0">
        <time>2020-12-20T09:42:40.730000+00:00</time>
      </trkpt>
      <trkpt lat="47.34763" lon="-1.2796">
        <ele>60</ele>
        <time>2020-12-20T09:42:41.748000+00:00</time>
      </trkpt>
      <trkpt lat="0" lon="0">
        <time>2020-12-20T09:42:41.768000+00:00</time>
      </trkpt>
      <trkpt lat="0" lon="0">
        <time>2020-12-20T09:42:41.771000+00:00</time>
      </trkpt>
      <trkpt lat="0" lon="0">
        <time>2020-12-20T09:42:41.775000+00:00</time>
      </trkpt>
      <trkpt lat="47.34765" lon="-1.27953">
        <ele>60</ele>
        <time>2020-12-20T09:42:42.767000+00:00</time>
      </trkpt>
      <trkpt lat="0" lon="0">
        <time>2020-12-20T09:42:42.781000+00:00</time>
      </trkpt>
      <trkpt lat="0" lon="0">
        <time>2020-12-20T09:42:42.786000+00:00</time>
      </trkpt>
      <trkpt lat="0" lon="0">
        <time>2020-12-20T09:42:42.789000+00:00</time>
      </trkpt>
      <trkpt lat="47.34766" lon="-1.27947">
        <ele>60</ele>
        <time>2020-12-20T09:42:43.767000+00:00</time>
      </trkpt>
      <trkpt lat="0" lon="0">
        <time>2020-12-20T09:42:43.772000+00:00</time>
      </trkpt>
      <trkpt lat="0" lon="0">
        <time>2020-12-20T09:42:43.776000+00:00</time>
      </trkpt>
      <trkpt lat="0" lon="0">
        <time>2020-12-20T09:42:43.779000+00:00</time>
      </trkpt>
      <trkpt lat="47.34768" lon="-1.2794">
        <ele>60</ele>
        <time>2020-12-20T09:42:44.758000+00:00</time>
      </trkpt>
      <trkpt lat="0" lon="0">
        <time>2020-12-20T09:42:44.779000+00:00</time>
      </trkpt>
      <trkpt lat="0" lon="0">
        <time>2020-12-20T09:42:44.786000+00:00</time>
      </trkpt>
      <trkpt lat="0" lon="0">
        <time>2020-12-20T09:42:44.790000+00:00</time>
      </trkpt>
      <trkpt lat="47.34769" lon="-1.27934">
        <ele>60</ele>
        <time>2020-12-20T09:42:45.768000+00:00</time>
      </trkpt>
      <trkpt lat="0" lon="0">
        <time>2020-12-20T09:42:45.772000+00:00</time>
      </trkpt>
      <trkpt lat="0" lon="0">
        <time>2020-12-20T09:42:45.775000+00:00</time>
      </trkpt>
      <trkpt lat="0" lon="0">
        <time>2020-12-20T09:42:45.777000+00:00</time>
      </trkpt>
      <trkpt lat="47.3477" lon="-1.27927">
        <ele>59</ele>
        <time>2020-12-20T09:42:46.753000+00:00</time>
      </trkpt>
      <trkpt lat="0" lon="0">
        <time>2020-12-20T09:42:46.760000+00:00</time>
      </trkpt>
      <trkpt lat="0" lon="0">
        <time>2020-12-20T09:42:46.766000+00:00</time>
      </trkpt>
      <trkpt lat="0" lon="0">
        <time>2020-12-20T09:42:46.769000+00:00</time>
      </trkpt>
      <trkpt lat="47.34772" lon="-1.2792">
        <ele>59</ele>
        <time>2020-12-20T09:42:47.736000+00:00</time>
      </trkpt>
      <trkpt lat="0" lon="0">
        <time>2020-12-20T09:42:47.744000+00:00</time>
      </trkpt>
      <trkpt lat="0" lon="0">
        <time>2020-12-20T09:42:47.749000+00:00</time>
      </trkpt>
      <trkpt lat="0" lon="0">
        <time>2020-12-20T09:42:47.751000+00:00</time>
      </trkpt>
      <trkpt lat="47.34773" lon="-1.27913">
        <ele>59</ele>
        <time>2020-12-20T09:42:48.772000+00:00</time>
      </trkpt>
      <trkpt lat="0" lon="0">
        <time>2020-12-20T09:42:48.777000+00:00</time>
      </trkpt>
      <trkpt lat="0" lon="0">
        <time>2020-12-20T09:42:48.782000+00:00</time>
      </trkpt>
      <trkpt lat="0" lon="0">
        <time>2020-12-20T09:42:48.786000+00:00</time>
      </trkpt>
      <trkpt lat="47.34775" lon="-1.27907">
        <ele>59</ele>
        <time>2020-12-20T09:42:49.759000+00:00</time>
      </trkpt>
      <trkpt lat="0" lon="0">
        <time>2020-12-20T09:42:49.772000+00:00</time>
      </trkpt>
      <trkpt lat="0" lon="0">
        <time>2020-12-20T09:42:49.776000+00:00</time>
      </trkpt>
      <trkpt lat="0" lon="0">
        <time>2020-12-20T09:42:49.780000+00:00</time>
      </trkpt>
      <trkpt lat="47.34776" lon="-1.279">
        <ele>59</ele>
        <time>2020-12-20T09:42:50.755000+00:00</time>
      </trkpt>
      <trkpt lat="0" lon="0">
        <time>2020-12-20T09:42:50.772000+00:00</time>
      </trkpt>
      <trkpt lat="0" lon="0">
        <time>2020-12-20T09:42:50.780000+00:00</time>
      </trkpt>
      <trkpt lat="0" lon="0">
        <time>2020-12-20T09:42:50.787000+00:00</time>
      </trkpt>
      <trkpt lat="47.34778" lon="-1.27893">
        <ele>59</ele>
        <time>2020-12-20T09:42:51.745000+00:00</time>
      </trkpt>
      <trkpt lat="0" lon="0">
        <time>2020-12-20T09:42:51.751000+00:00</time>
      </trkpt>
      <trkpt lat="0" lon="0">
        <time>2020-12-20T09:42:51.752000+00:00</time>
      </trkpt>
      <trkpt lat="0" lon="0">
        <time>2020-12-20T09:42:51.753000+00:00</time>
      </trkpt>
      <trkpt lat="47.34779" lon="-1.27887">
        <ele>58</ele>
        <time>2020-12-20T09:42:52.766000+00:00</time>
      </trkpt>
      <trkpt lat="0" lon="0">
        <time>2020-12-20T09:42:52.777000+00:00</time>
      </trkpt>
      <trkpt lat="0" lon="0">
        <time>2020-12-20T09:42:52.787000+00:00</time>
      </trkpt>
      <trkpt lat="0" lon="0">
        <time>2020-12-20T09:42:52.789000+00:00</time>
      </trkpt>
      <trkpt lat="47.34781" lon="-1.2788">
        <ele>58</ele>
        <time>2020-12-20T09:42:53.765000+00:00</time>
      </trkpt>
      <trkpt lat="0" lon="0">
        <time>2020-12-20T09:42:53.777000+00:00</time>
      </trkpt>
      <trkpt lat="0" lon="0">
        <time>2020-12-20T09:42:53.782000+00:00</time>
      </trkpt>
      <trkpt lat="0" lon="0">
        <time>2020-12-20T09:42:53.784000+00:00</time>
      </trkpt>
      <trkpt lat="47.34782" lon="-1.27874">
        <ele>58</ele>
        <time>2020-12-20T09:42:54.795000+00:00</time>
      </trkpt>
      <trkpt lat="0" lon="0">
        <time>2020-12-20T09:42:54.809000+00:00</time>
      </trkpt>
      <trkpt lat="0" lon="0">
        <time>2020-12-20T09:42:54.813000+00:00</time>
      </trkpt>
      <trkpt lat="0" lon="0">
        <time>2020-12-20T09:42:54.818000+00:00</time>
      </trkpt>
      <trkpt lat="47.34784" lon="-1.27867">
        <ele>58</ele>
        <time>2020-12-20T09:42:55.760000+00:00</time>
      </trkpt>
      <trkpt lat="0" lon="0">
        <time>2020-12-20T09:42:55.770000+00:00</time>
      </trkpt>
      <trkpt lat="0" lon="0">
        <time>2020-12-20T09:42:55.781000+00:00</time>
      </trkpt>
      <trkpt lat="0" lon="0">
        <time>2020-12-20T09:42:55.786000+00:00</time>
      </trkpt>
      <trkpt lat="47.34785" lon="-1.27861">
        <ele>58</ele>
        <time>2020-12-20T09:42:56.772000+00:00</time>
      </trkpt>
      <trkpt lat="0" lon="0">
        <time>2020-12-20T09:42:56.787000+00:00</time>
      </trkpt>
      <trkpt lat="0" lon="0">
        <time>2020-12-20T09:42:56.791000+00:00</time>
      </trkpt>
      <trkpt lat="0" lon="0">
        <time>2020-12-20T09:42:56.798000+00:00</time>
      </trkpt>
      <trkpt lat="47.34786" lon="-1.27854">
        <ele>58</ele>
        <time>2020-12-20T09:42:57.767000+00:00</time>
      </trkpt>
      <trkpt lat="0" lon="0">
        <time>2020-12-20T09:42:57.770000+00:00</time>
      </trkpt>
      <trkpt lat="0" lon="0">
        <time>2020-12-20T09:42:57.778000+00:00</time>
      </trkpt>
      <trkpt lat="0" lon="0">
        <time>2020-12-20T09:42:57.780000+00:00</time>
      </trkpt>
      <trkpt lat="47.34788" lon="-1.27848">
        <ele>58</ele>
        <time>2020-12-20T09:42:58.782000+00:00</time>
      </trkpt>
      <trkpt lat="0" lon="0">
        <time>2020-12-20T09:42:58.796000+00:00</time>
      </trkpt>
      <trkpt lat="0" lon="0">
        <time>2020-12-20T09:42:58.806000+00:00</time>
      </trkpt>
      <trkpt lat="0" lon="0">
        <time>2020-12-20T09:42:58.809000+00:00</time>
      </trkpt>
      <trkpt lat="47.34789" lon="-1.27841">
        <ele>58</ele>
        <time>2020-12-20T09:42:59.764000+00:00</time>
      </trkpt>
      <trkpt lat="0" lon="0">
        <time>2020-12-20T09:42:59.775000+00:00</time>
      </trkpt>
      <trkpt lat="0" lon="0">
        <time>2020-12-20T09:42:59.785000+00:00</time>
      </trkpt>
      <trkpt lat="0" lon="0">
        <time>2020-12-20T09:42:59.792000+00:00</time>
      </trkpt>
      <trkpt lat="47.3479" lon="-1.27834">
        <ele>58</ele>
        <time>2020-12-20T09:43:00.750000+00:00</time>
      </trkpt>
      <trkpt lat="0" lon="0">
        <time>2020-12-20T09:43:00.764000+00:00</time>
      </trkpt>
      <trkpt lat="0" lon="0">
        <time>2020-12-20T09:43:00.771000+00:00</time>
      </trkpt>
      <trkpt lat="0" lon="0">
        <time>2020-12-20T09:43:00.774000+00:00</time>
      </trkpt>
      <trkpt lat="47.34792" lon="-1.27828">
        <ele>58</ele>
        <time>2020-12-20T09:43:01.784000+00:00</time>
      </trkpt>
      <trkpt lat="0" lon="0">
        <time>2020-12-20T09:43:01.796000+00:00</time>
      </trkpt>
      <trkpt lat="0" lon="0">
        <time>2020-12-20T09:43:01.801000+00:00</time>
      </trkpt>
      <trkpt lat="0" lon="0">
        <time>2020-12-20T09:43:01.808000+00:00</time>
      </trkpt>
      <trkpt lat="47.34794" lon="-1.27822">
        <ele>58</ele>
        <time>2020-12-20T09:43:02.770000+00:00</time>
      </trkpt>
      <trkpt lat="0" lon="0">
        <time>2020-12-20T09:43:02.777000+00:00</time>
      </trkpt>
      <trkpt lat="0" lon="0">
        <time>2020-12-20T09:43:02.782000+00:00</time>
      </trkpt>
      <trkpt lat="0" lon="0">
        <time>2020-12-20T09:43:02.784000+00:00</time>
      </trkpt>
      <trkpt lat="47.34797" lon="-1.27816">
        <ele>57</ele>
        <time>2020-12-20T09:43:03.709000+00:00</time>
      </trkpt>
      <trkpt lat="0" lon="0">
        <time>2020-12-20T09:43:03.715000+00:00</time>
      </trkpt>
      <trkpt lat="0" lon="0">
        <time>2020-12-20T09:43:03.719000+00:00</time>
      </trkpt>
      <trkpt lat="0" lon="0">
        <time>2020-12-20T09:43:03.722000+00:00</time>
      </trkpt>
      <trkpt lat="47.348" lon="-1.27811">
        <ele>57</ele>
        <time>2020-12-20T09:43:04.761000+00:00</time>
      </trkpt>
      <trkpt lat="0" lon="0">
        <time>2020-12-20T09:43:04.770000+00:00</time>
      </trkpt>
      <trkpt lat="0" lon="0">
        <time>2020-12-20T09:43:04.776000+00:00</time>
      </trkpt>
      <trkpt lat="0" lon="0">
        <time>2020-12-20T09:43:04.777000+00:00</time>
      </trkpt>
      <trkpt lat="47.34803" lon="-1.27807">
        <ele>58</ele>
        <time>2020-12-20T09:43:05.775000+00:00</time>
      </trkpt>
      <trkpt lat="0" lon="0">
        <time>2020-12-20T09:43:05.781000+00:00</time>
      </trkpt>
      <trkpt lat="0" lon="0">
        <time>2020-12-20T09:43:05.787000+00:00</time>
      </trkpt>
      <trkpt lat="0" lon="0">
        <time>2020-12-20T09:43:05.792000+00:00</time>
      </trkpt>
      <trkpt lat="47.34806" lon="-1.27802">
        <ele>58</ele>
        <time>2020-12-20T09:43:06.750000+00:00</time>
      </trkpt>
      <trkpt lat="0" lon="0">
        <time>2020-12-20T09:43:06.769000+00:00</time>
      </trkpt>
      <trkpt lat="0" lon="0">
        <time>2020-12-20T09:43:06.777000+00:00</time>
      </trkpt>
      <trkpt lat="0" lon="0">
        <time>2020-12-20T09:43:06.779000+00:00</time>
      </trkpt>
      <trkpt lat="47.34808" lon="-1.27797">
        <ele>58</ele>
        <time>2020-12-20T09:43:07.703000+00:00</time>
      </trkpt>
      <trkpt lat="0" lon="0">
        <time>2020-12-20T09:43:07.709000+00:00</time>
      </trkpt>
      <trkpt lat="0" lon="0">
        <time>2020-12-20T09:43:07.714000+00:00</time>
      </trkpt>
      <trkpt lat="0" lon="0">
        <time>2020-12-20T09:43:07.716000+00:00</time>
      </trkpt>
      <trkpt lat="47.3481" lon="-1.27792">
        <ele>58</ele>
        <time>2020-12-20T09:43:08.733000+00:00</time>
      </trkpt>
      <trkpt lat="0" lon="0">
        <time>2020-12-20T09:43:08.738000+00:00</time>
      </trkpt>
      <trkpt lat="0" lon="0">
        <time>2020-12-20T09:43:08.751000+00:00</time>
      </trkpt>
      <trkpt lat="0" lon="0">
        <time>2020-12-20T09:43:08.754000+00:00</time>
      </trkpt>
      <trkpt lat="47.34811" lon="-1.27787">
        <ele>58</ele>
        <time>2020-12-20T09:43:09.760000+00:00</time>
      </trkpt>
      <trkpt lat="0" lon="0">
        <time>2020-12-20T09:43:09.769000+00:00</time>
      </trkpt>
      <trkpt lat="0" lon="0">
        <time>2020-12-20T09:43:09.774000+00:00</time>
      </trkpt>
      <trkpt lat="0" lon="0">
        <time>2020-12-20T09:43:09.777000+00:00</time>
      </trkpt>
      <trkpt lat="47.34813" lon="-1.27781">
        <ele>58</ele>
        <time>2020-12-20T09:43:10.735000+00:00</time>
      </trkpt>
      <trkpt lat="0" lon="0">
        <time>2020-12-20T09:43:10.764000+00:00</time>
      </trkpt>
      <trkpt lat="0" lon="0">
        <time>2020-12-20T09:43:10.770000+00:00</time>
      </trkpt>
      <trkpt lat="0" lon="0">
        <time>2020-12-20T09:43:10.776000+00:00</time>
      </trkpt>
      <trkpt lat="47.34813" lon="-1.27775">
        <ele>57</ele>
        <time>2020-12-20T09:43:11.775000+00:00</time>
      </trkpt>
      <trkpt lat="0" lon="0">
        <time>2020-12-20T09:43:11.785000+00:00</time>
      </trkpt>
      <trkpt lat="0" lon="0">
        <time>2020-12-20T09:43:11.793000+00:00</time>
      </trkpt>
      <trkpt lat="0" lon="0">
        <time>2020-12-20T09:43:11.797000+00:00</time>
      </trkpt>
      <trkpt lat="47.34814" lon="-1.27768">
        <ele>57</ele>
        <time>2020-12-20T09:43:12.757000+00:00</time>
      </trkpt>
      <trkpt lat="0" lon="0">
        <time>2020-12-20T09:43:12.777000+00:00</time>
      </trkpt>
      <trkpt lat="0" lon="0">
        <time>2020-12-20T09:43:12.785000+00:00</time>
      </trkpt>
      <trkpt lat="0" lon="0">
        <time>2020-12-20T09:43:12.787000+00:00</time>
      </trkpt>
      <trkpt lat="47.34814" lon="-1.27762">
        <ele>57</ele>
        <time>2020-12-20T09:43:13.749000+00:00</time>
      </trkpt>
      <trkpt lat="0" lon="0">
        <time>2020-12-20T09:43:13.758000+00:00</time>
      </trkpt>
      <trkpt lat="0" lon="0">
        <time>2020-12-20T09:43:13.763000+00:00</time>
      </trkpt>
      <trkpt lat="0" lon="0">
        <time>2020-12-20T09:43:13.768000+00:00</time>
      </trkpt>
      <trkpt lat="47.34815" lon="-1.27755">
        <ele>56</ele>
        <time>2020-12-20T09:43:14.795000+00:00</time>
      </trkpt>
      <trkpt lat="0" lon="0">
        <time>2020-12-20T09:43:14.801000+00:00</time>
      </trkpt>
      <trkpt lat="0" lon="0">
        <time>2020-12-20T09:43:14.804000+00:00</time>
      </trkpt>
      <trkpt lat="0" lon="0">
        <time>2020-12-20T09:43:14.806000+00:00</time>
      </trkpt>
      <trkpt lat="47.34815" lon="-1.27748">
        <ele>56</ele>
        <time>2020-12-20T09:43:15.773000+00:00</time>
      </trkpt>
      <trkpt lat="0" lon="0">
        <time>2020-12-20T09:43:15.782000+00:00</time>
      </trkpt>
      <trkpt lat="0" lon="0">
        <time>2020-12-20T09:43:15.789000+00:00</time>
      </trkpt>
      <trkpt lat="0" lon="0">
        <time>2020-12-20T09:43:15.794000+00:00</time>
      </trkpt>
      <trkpt lat="47.34815" lon="-1.27741">
        <ele>56</ele>
        <time>2020-12-20T09:43:16.798000+00:00</time>
      </trkpt>
      <trkpt lat="0" lon="0">
        <time>2020-12-20T09:43:16.803000+00:00</time>
      </trkpt>
      <trkpt lat="0" lon="0">
        <time>2020-12-20T09:43:16.815000+00:00</time>
      </trkpt>
      <trkpt lat="0" lon="0">
        <time>2020-12-20T09:43:16.819000+00:00</time>
      </trkpt>
      <trkpt lat="47.34815" lon="-1.27734">
        <ele>56</ele>
        <time>2020-12-20T09:43:17.732000+00:00</time>
      </trkpt>
      <trkpt lat="0" lon="0">
        <time>2020-12-20T09:43:17.745000+00:00</time>
      </trkpt>
      <trkpt lat="0" lon="0">
        <time>2020-12-20T09:43:17.749000+00:00</time>
      </trkpt>
      <trkpt lat="0" lon="0">
        <time>2020-12-20T09:43:17.751000+00:00</time>
      </trkpt>
      <trkpt lat="47.34816" lon="-1.27728">
        <ele>57</ele>
        <time>2020-12-20T09:43:18.759000+00:00</time>
      </trkpt>
      <trkpt lat="0" lon="0">
        <time>2020-12-20T09:43:18.767000+00:00</time>
      </trkpt>
      <trkpt lat="0" lon="0">
        <time>2020-12-20T09:43:18.769000+00:00</time>
      </trkpt>
      <trkpt lat="0" lon="0">
        <time>2020-12-20T09:43:18.770000+00:00</time>
      </trkpt>
      <trkpt lat="47.34816" lon="-1.27721">
        <ele>57</ele>
        <time>2020-12-20T09:43:19.729000+00:00</time>
      </trkpt>
      <trkpt lat="0" lon="0">
        <time>2020-12-20T09:43:19.738000+00:00</time>
      </trkpt>
      <trkpt lat="0" lon="0">
        <time>2020-12-20T09:43:19.748000+00:00</time>
      </trkpt>
      <trkpt lat="0" lon="0">
        <time>2020-12-20T09:43:19.750000+00:00</time>
      </trkpt>
      <trkpt lat="47.34817" lon="-1.27714">
        <ele>57</ele>
        <time>2020-12-20T09:43:20.755000+00:00</time>
      </trkpt>
      <trkpt lat="0" lon="0">
        <time>2020-12-20T09:43:20.763000+00:00</time>
      </trkpt>
      <trkpt lat="0" lon="0">
        <time>2020-12-20T09:43:20.766000+00:00</time>
      </trkpt>
      <trkpt lat="0" lon="0">
        <time>2020-12-20T09:43:20.769000+00:00</time>
      </trkpt>
      <trkpt lat="47.34817" lon="-1.27707">
        <ele>57</ele>
        <time>2020-12-20T09:43:21.758000+00:00</time>
      </trkpt>
      <trkpt lat="0" lon="0">
        <time>2020-12-20T09:43:21.762000+00:00</time>
      </trkpt>
      <trkpt lat="0" lon="0">
        <time>2020-12-20T09:43:21.769000+00:00</time>
      </trkpt>
      <trkpt lat="0" lon="0">
        <time>2020-12-20T09:43:21.771000+00:00</time>
      </trkpt>
      <trkpt lat="47.34818" lon="-1.277">
        <ele>57</ele>
        <time>2020-12-20T09:43:22.767000+00:00</time>
      </trkpt>
      <trkpt lat="0" lon="0">
        <time>2020-12-20T09:43:22.777000+00:00</time>
      </trkpt>
      <trkpt lat="0" lon="0">
        <time>2020-12-20T09:43:22.783000+00:00</time>
      </trkpt>
      <trkpt lat="0" lon="0">
        <time>2020-12-20T09:43:22.789000+00:00</time>
      </trkpt>
      <trkpt lat="47.34819" lon="-1.27693">
        <ele>58</ele>
        <time>2020-12-20T09:43:23.754000+00:00</time>
      </trkpt>
      <trkpt lat="0" lon="0">
        <time>2020-12-20T09:43:23.763000+00:00</time>
      </trkpt>
      <trkpt lat="0" lon="0">
        <time>2020-12-20T09:43:23.775000+00:00</time>
      </trkpt>
      <trkpt lat="0" lon="0">
        <time>2020-12-20T09:43:23.778000+00:00</time>
      </trkpt>
      <trkpt lat="47.3482" lon="-1.27687">
        <ele>58</ele>
        <time>2020-12-20T09:43:24.757000+00:00</time>
      </trkpt>
      <trkpt lat="0" lon="0">
        <time>2020-12-20T09:43:24.767000+00:00</time>
      </trkpt>
      <trkpt lat="0" lon="0">
        <time>2020-12-20T09:43:24.771000+00:00</time>
      </trkpt>
      <trkpt lat="0" lon="0">
        <time>2020-12-20T09:43:24.778000+00:00</time>
      </trkpt>
      <trkpt lat="47.34822" lon="-1.2768">
        <ele>58</ele>
        <time>2020-12-20T09:43:25.741000+00:00</time>
      </trkpt>
      <trkpt lat="0" lon="0">
        <time>2020-12-20T09:43:25.747000+00:00</time>
      </trkpt>
      <trkpt lat="0" lon="0">
        <time>2020-12-20T09:43:25.753000+00:00</time>
      </trkpt>
      <trkpt lat="0" lon="0">
        <time>2020-12-20T09:43:25.755000+00:00</time>
      </trkpt>
      <trkpt lat="47.34823" lon="-1.27674">
        <ele>58</ele>
        <time>2020-12-20T09:43:26.743000+00:00</time>
      </trkpt>
      <trkpt lat="0" lon="0">
        <time>2020-12-20T09:43:26.747000+00:00</time>
      </trkpt>
      <trkpt lat="0" lon="0">
        <time>2020-12-20T09:43:26.751000+00:00</time>
      </trkpt>
      <trkpt lat="0" lon="0">
        <time>2020-12-20T09:43:26.754000+00:00</time>
      </trkpt>
      <trkpt lat="47.34824" lon="-1.27667">
        <ele>57</ele>
        <time>2020-12-20T09:43:27.752000+00:00</time>
      </trkpt>
      <trkpt lat="0" lon="0">
        <time>2020-12-20T09:43:27.758000+00:00</time>
      </trkpt>
      <trkpt lat="0" lon="0">
        <time>2020-12-20T09:43:27.762000+00:00</time>
      </trkpt>
      <trkpt lat="0" lon="0">
        <time>2020-12-20T09:43:27.764000+00:00</time>
      </trkpt>
      <trkpt lat="47.34825" lon="-1.27661">
        <ele>56</ele>
        <time>2020-12-20T09:43:28.772000+00:00</time>
      </trkpt>
      <trkpt lat="0" lon="0">
        <time>2020-12-20T09:43:28.780000+00:00</time>
      </trkpt>
      <trkpt lat="0" lon="0">
        <time>2020-12-20T09:43:28.788000+00:00</time>
      </trkpt>
      <trkpt lat="0" lon="0">
        <time>2020-12-20T09:43:28.791000+00:00</time>
      </trkpt>
      <trkpt lat="47.34826" lon="-1.27655">
        <ele>56</ele>
        <time>2020-12-20T09:43:29.740000+00:00</time>
      </trkpt>
      <trkpt lat="0" lon="0">
        <time>2020-12-20T09:43:29.751000+00:00</time>
      </trkpt>
      <trkpt lat="0" lon="0">
        <time>2020-12-20T09:43:29.753000+00:00</time>
      </trkpt>
      <trkpt lat="0" lon="0">
        <time>2020-12-20T09:43:29.754000+00:00</time>
      </trkpt>
      <trkpt lat="47.34827" lon="-1.27648">
        <ele>56</ele>
        <time>2020-12-20T09:43:30.762000+00:00</time>
      </trkpt>
      <trkpt lat="0" lon="0">
        <time>2020-12-20T09:43:30.772000+00:00</time>
      </trkpt>
      <trkpt lat="0" lon="0">
        <time>2020-12-20T09:43:30.786000+00:00</time>
      </trkpt>
      <trkpt lat="0" lon="0">
        <time>2020-12-20T09:43:30.788000+00:00</time>
      </trkpt>
      <trkpt lat="47.34828" lon="-1.27642">
        <ele>56</ele>
        <time>2020-12-20T09:43:31.758000+00:00</time>
      </trkpt>
      <trkpt lat="0" lon="0">
        <time>2020-12-20T09:43:31.762000+00:00</time>
      </trkpt>
      <trkpt lat="0" lon="0">
        <time>2020-12-20T09:43:31.775000+00:00</time>
      </trkpt>
      <trkpt lat="0" lon="0">
        <time>2020-12-20T09:43:31.777000+00:00</time>
      </trkpt>
      <trkpt lat="47.34828" lon="-1.27636">
        <ele>56</ele>
        <time>2020-12-20T09:43:32.725000+00:00</time>
      </trkpt>
      <trkpt lat="0" lon="0">
        <time>2020-12-20T09:43:32.741000+00:00</time>
      </trkpt>
      <trkpt lat="0" lon="0">
        <time>2020-12-20T09:43:32.744000+00:00</time>
      </trkpt>
      <trkpt lat="0" lon="0">
        <time>2020-12-20T09:43:32.745000+00:00</time>
      </trkpt>
      <trkpt lat="47.34828" lon="-1.2763">
        <ele>56</ele>
        <time>2020-12-20T09:43:33.787000+00:00</time>
      </trkpt>
      <trkpt lat="0" lon="0">
        <time>2020-12-20T09:43:33.799000+00:00</time>
      </trkpt>
      <trkpt lat="0" lon="0">
        <time>2020-12-20T09:43:33.803000+00:00</time>
      </trkpt>
      <trkpt lat="0" lon="0">
        <time>2020-12-20T09:43:33.806000+00:00</time>
      </trkpt>
      <trkpt lat="47.34828" lon="-1.27624">
        <ele>55</ele>
        <time>2020-12-20T09:43:34.790000+00:00</time>
      </trkpt>
      <trkpt lat="0" lon="0">
        <time>2020-12-20T09:43:34.805000+00:00</time>
      </trkpt>
      <trkpt lat="0" lon="0">
        <time>2020-12-20T09:43:34.814000+00:00</time>
      </trkpt>
      <trkpt lat="0" lon="0">
        <time>2020-12-20T09:43:34.816000+00:00</time>
      </trkpt>
      <trkpt lat="47.34828" lon="-1.27618">
        <ele>55</ele>
        <time>2020-12-20T09:43:35.766000+00:00</time>
      </trkpt>
      <trkpt lat="0" lon="0">
        <time>2020-12-20T09:43:35.781000+00:00</time>
      </trkpt>
      <trkpt lat="0" lon="0">
        <time>2020-12-20T09:43:35.787000+00:00</time>
      </trkpt>
      <trkpt lat="0" lon="0">
        <time>2020-12-20T09:43:35.791000+00:00</time>
      </trkpt>
      <trkpt lat="47.34828" lon="-1.27612">
        <ele>54</ele>
        <time>2020-12-20T09:43:36.770000+00:00</time>
      </trkpt>
      <trkpt lat="0" lon="0">
        <time>2020-12-20T09:43:36.788000+00:00</time>
      </trkpt>
      <trkpt lat="0" lon="0">
        <time>2020-12-20T09:43:36.796000+00:00</time>
      </trkpt>
      <trkpt lat="0" lon="0">
        <time>2020-12-20T09:43:36.798000+00:00</time>
      </trkpt>
      <trkpt lat="47.34828" lon="-1.27606">
        <ele>54</ele>
        <time>2020-12-20T09:43:37.791000+00:00</time>
      </trkpt>
      <trkpt lat="0" lon="0">
        <time>2020-12-20T09:43:37.804000+00:00</time>
      </trkpt>
      <trkpt lat="0" lon="0">
        <time>2020-12-20T09:43:37.809000+00:00</time>
      </trkpt>
      <trkpt lat="0" lon="0">
        <time>2020-12-20T09:43:37.814000+00:00</time>
      </trkpt>
      <trkpt lat="47.34828" lon="-1.276">
        <ele>54</ele>
        <time>2020-12-20T09:43:38.761000+00:00</time>
      </trkpt>
      <trkpt lat="0" lon="0">
        <time>2020-12-20T09:43:38.768000+00:00</time>
      </trkpt>
      <trkpt lat="0" lon="0">
        <time>2020-12-20T09:43:38.784000+00:00</time>
      </trkpt>
      <trkpt lat="0" lon="0">
        <time>2020-12-20T09:43:38.787000+00:00</time>
      </trkpt>
      <trkpt lat="47.34828" lon="-1.27594">
        <ele>54</ele>
        <time>2020-12-20T09:43:39.760000+00:00</time>
      </trkpt>
      <trkpt lat="0" lon="0">
        <time>2020-12-20T09:43:39.794000+00:00</time>
      </trkpt>
      <trkpt lat="0" lon="0">
        <time>2020-12-20T09:43:39.801000+00:00</time>
      </trkpt>
      <trkpt lat="0" lon="0">
        <time>2020-12-20T09:43:39.802000+00:00</time>
      </trkpt>
      <trkpt lat="47.34829" lon="-1.27589">
        <ele>54</ele>
        <time>2020-12-20T09:43:40.723000+00:00</time>
      </trkpt>
      <trkpt lat="0" lon="0">
        <time>2020-12-20T09:43:40.728000+00:00</time>
      </trkpt>
      <trkpt lat="0" lon="0">
        <time>2020-12-20T09:43:40.729000+00:00</time>
      </trkpt>
      <trkpt lat="0" lon="0">
        <time>2020-12-20T09:43:40.730000+00:00</time>
      </trkpt>
      <trkpt lat="47.34829" lon="-1.27583">
        <ele>54</ele>
        <time>2020-12-20T09:43:41.793000+00:00</time>
      </trkpt>
      <trkpt lat="0" lon="0">
        <time>2020-12-20T09:43:41.798000+00:00</time>
      </trkpt>
      <trkpt lat="0" lon="0">
        <time>2020-12-20T09:43:41.804000+00:00</time>
      </trkpt>
      <trkpt lat="0" lon="0">
        <time>2020-12-20T09:43:41.806000+00:00</time>
      </trkpt>
      <trkpt lat="47.3483" lon="-1.27578">
        <ele>54</ele>
        <time>2020-12-20T09:43:42.784000+00:00</time>
      </trkpt>
      <trkpt lat="0" lon="0">
        <time>2020-12-20T09:43:42.802000+00:00</time>
      </trkpt>
      <trkpt lat="0" lon="0">
        <time>2020-12-20T09:43:42.808000+00:00</time>
      </trkpt>
      <trkpt lat="0" lon="0">
        <time>2020-12-20T09:43:42.810000+00:00</time>
      </trkpt>
      <trkpt lat="47.34832" lon="-1.27573">
        <ele>54</ele>
        <time>2020-12-20T09:43:43.735000+00:00</time>
      </trkpt>
      <trkpt lat="0" lon="0">
        <time>2020-12-20T09:43:43.746000+00:00</time>
      </trkpt>
      <trkpt lat="0" lon="0">
        <time>2020-12-20T09:43:43.755000+00:00</time>
      </trkpt>
      <trkpt lat="0" lon="0">
        <time>2020-12-20T09:43:43.765000+00:00</time>
      </trkpt>
      <trkpt lat="47.34833" lon="-1.27569">
        <ele>54</ele>
        <time>2020-12-20T09:43:44.767000+00:00</time>
      </trkpt>
      <trkpt lat="0" lon="0">
        <time>2020-12-20T09:43:44.790000+00:00</time>
      </trkpt>
      <trkpt lat="0" lon="0">
        <time>2020-12-20T09:43:44.794000+00:00</time>
      </trkpt>
      <trkpt lat="0" lon="0">
        <time>2020-12-20T09:43:44.796000+00:00</time>
      </trkpt>
      <trkpt lat="47.34835" lon="-1.27565">
        <ele>55</ele>
        <time>2020-12-20T09:43:45.772000+00:00</time>
      </trkpt>
      <trkpt lat="0" lon="0">
        <time>2020-12-20T09:43:45.798000+00:00</time>
      </trkpt>
      <trkpt lat="0" lon="0">
        <time>2020-12-20T09:43:45.804000+00:00</time>
      </trkpt>
      <trkpt lat="0" lon="0">
        <time>2020-12-20T09:43:45.806000+00:00</time>
      </trkpt>
      <trkpt lat="47.34836" lon="-1.27562">
        <ele>55</ele>
        <time>2020-12-20T09:43:46.727000+00:00</time>
      </trkpt>
      <trkpt lat="0" lon="0">
        <time>2020-12-20T09:43:46.731000+00:00</time>
      </trkpt>
      <trkpt lat="0" lon="0">
        <time>2020-12-20T09:43:46.735000+00:00</time>
      </trkpt>
      <trkpt lat="0" lon="0">
        <time>2020-12-20T09:43:46.738000+00:00</time>
      </trkpt>
      <trkpt lat="47.34837" lon="-1.27558">
        <ele>55</ele>
        <time>2020-12-20T09:43:47.797000+00:00</time>
      </trkpt>
      <trkpt lat="0" lon="0">
        <time>2020-12-20T09:43:47.809000+00:00</time>
      </trkpt>
      <trkpt lat="0" lon="0">
        <time>2020-12-20T09:43:47.813000+00:00</time>
      </trkpt>
      <trkpt lat="0" lon="0">
        <time>2020-12-20T09:43:47.816000+00:00</time>
      </trkpt>
      <trkpt lat="47.34838" lon="-1.27554">
        <ele>55</ele>
        <time>2020-12-20T09:43:48.735000+00:00</time>
      </trkpt>
      <trkpt lat="0" lon="0">
        <time>2020-12-20T09:43:48.743000+00:00</time>
      </trkpt>
      <trkpt lat="0" lon="0">
        <time>2020-12-20T09:43:48.745000+00:00</time>
      </trkpt>
      <trkpt lat="0" lon="0">
        <time>2020-12-20T09:43:48.746000+00:00</time>
      </trkpt>
      <trkpt lat="47.34839" lon="-1.2755">
        <ele>55</ele>
        <time>2020-12-20T09:43:49.798000+00:00</time>
      </trkpt>
      <trkpt lat="0" lon="0">
        <time>2020-12-20T09:43:49.803000+00:00</time>
      </trkpt>
      <trkpt lat="0" lon="0">
        <time>2020-12-20T09:43:49.813000+00:00</time>
      </trkpt>
      <trkpt lat="0" lon="0">
        <time>2020-12-20T09:43:49.816000+00:00</time>
      </trkpt>
      <trkpt lat="47.3484" lon="-1.27546">
        <ele>55</ele>
        <time>2020-12-20T09:43:50.755000+00:00</time>
      </trkpt>
      <trkpt lat="0" lon="0">
        <time>2020-12-20T09:43:50.759000+00:00</time>
      </trkpt>
      <trkpt lat="0" lon="0">
        <time>2020-12-20T09:43:50.764000+00:00</time>
      </trkpt>
      <trkpt lat="0" lon="0">
        <time>2020-12-20T09:43:50.771000+00:00</time>
      </trkpt>
      <trkpt lat="47.3484" lon="-1.27541">
        <ele>56</ele>
        <time>2020-12-20T09:43:51.751000+00:00</time>
      </trkpt>
      <trkpt lat="0" lon="0">
        <time>2020-12-20T09:43:51.758000+00:00</time>
      </trkpt>
      <trkpt lat="0" lon="0">
        <time>2020-12-20T09:43:51.760000+00:00</time>
      </trkpt>
      <trkpt lat="0" lon="0">
        <time>2020-12-20T09:43:51.766000+00:00</time>
      </trkpt>
      <trkpt lat="47.34841" lon="-1.27537">
        <ele>56</ele>
        <time>2020-12-20T09:43:52.774000+00:00</time>
      </trkpt>
      <trkpt lat="0" lon="0">
        <time>2020-12-20T09:43:52.778000+00:00</time>
      </trkpt>
      <trkpt lat="0" lon="0">
        <time>2020-12-20T09:43:52.785000+00:00</time>
      </trkpt>
      <trkpt lat="0" lon="0">
        <time>2020-12-20T09:43:52.787000+00:00</time>
      </trkpt>
      <trkpt lat="47.34841" lon="-1.27533">
        <ele>56</ele>
        <time>2020-12-20T09:43:53.721000+00:00</time>
      </trkpt>
      <trkpt lat="0" lon="0">
        <time>2020-12-20T09:43:53.732000+00:00</time>
      </trkpt>
      <trkpt lat="0" lon="0">
        <time>2020-12-20T09:43:53.733000+00:00</time>
      </trkpt>
      <trkpt lat="0" lon="0">
        <time>2020-12-20T09:43:53.734000+00:00</time>
      </trkpt>
      <trkpt lat="47.34842" lon="-1.27528">
        <ele>56</ele>
        <time>2020-12-20T09:43:54.769000+00:00</time>
      </trkpt>
      <trkpt lat="0" lon="0">
        <time>2020-12-20T09:43:54.775000+00:00</time>
      </trkpt>
      <trkpt lat="0" lon="0">
        <time>2020-12-20T09:43:54.780000+00:00</time>
      </trkpt>
      <trkpt lat="0" lon="0">
        <time>2020-12-20T09:43:54.782000+00:00</time>
      </trkpt>
      <trkpt lat="47.34842" lon="-1.27523">
        <ele>56</ele>
        <time>2020-12-20T09:43:55.786000+00:00</time>
      </trkpt>
      <trkpt lat="0" lon="0">
        <time>2020-12-20T09:43:55.801000+00:00</time>
      </trkpt>
      <trkpt lat="0" lon="0">
        <time>2020-12-20T09:43:55.806000+00:00</time>
      </trkpt>
      <trkpt lat="0" lon="0">
        <time>2020-12-20T09:43:55.808000+00:00</time>
      </trkpt>
      <trkpt lat="47.34843" lon="-1.27519">
        <ele>56</ele>
        <time>2020-12-20T09:43:56.779000+00:00</time>
      </trkpt>
      <trkpt lat="0" lon="0">
        <time>2020-12-20T09:43:56.800000+00:00</time>
      </trkpt>
      <trkpt lat="0" lon="0">
        <time>2020-12-20T09:43:56.804000+00:00</time>
      </trkpt>
      <trkpt lat="0" lon="0">
        <time>2020-12-20T09:43:56.807000+00:00</time>
      </trkpt>
      <trkpt lat="47.34843" lon="-1.27515">
        <ele>56</ele>
        <time>2020-12-20T09:43:57.759000+00:00</time>
      </trkpt>
      <trkpt lat="0" lon="0">
        <time>2020-12-20T09:43:57.763000+00:00</time>
      </trkpt>
      <trkpt lat="0" lon="0">
        <time>2020-12-20T09:43:57.769000+00:00</time>
      </trkpt>
      <trkpt lat="0" lon="0">
        <time>2020-12-20T09:43:57.773000+00:00</time>
      </trkpt>
      <trkpt lat="47.34844" lon="-1.27511">
        <ele>56</ele>
        <time>2020-12-20T09:43:58.771000+00:00</time>
      </trkpt>
      <trkpt lat="0" lon="0">
        <time>2020-12-20T09:43:58.777000+00:00</time>
      </trkpt>
      <trkpt lat="0" lon="0">
        <time>2020-12-20T09:43:58.781000+00:00</time>
      </trkpt>
      <trkpt lat="0" lon="0">
        <time>2020-12-20T09:43:58.784000+00:00</time>
      </trkpt>
      <trkpt lat="47.34845" lon="-1.27508">
        <ele>56</ele>
        <time>2020-12-20T09:43:59.793000+00:00</time>
      </trkpt>
      <trkpt lat="0" lon="0">
        <time>2020-12-20T09:43:59.797000+00:00</time>
      </trkpt>
      <trkpt lat="0" lon="0">
        <time>2020-12-20T09:43:59.801000+00:00</time>
      </trkpt>
      <trkpt lat="0" lon="0">
        <time>2020-12-20T09:43:59.803000+00:00</time>
      </trkpt>
      <trkpt lat="47.34846" lon="-1.27504">
        <ele>56</ele>
        <time>2020-12-20T09:44:00.777000+00:00</time>
      </trkpt>
      <trkpt lat="0" lon="0">
        <time>2020-12-20T09:44:00.783000+00:00</time>
      </trkpt>
      <trkpt lat="0" lon="0">
        <time>2020-12-20T09:44:00.787000+00:00</time>
      </trkpt>
      <trkpt lat="0" lon="0">
        <time>2020-12-20T09:44:00.791000+00:00</time>
      </trkpt>
      <trkpt lat="47.34847" lon="-1.27501">
        <ele>56</ele>
        <time>2020-12-20T09:44:01.779000+00:00</time>
      </trkpt>
      <trkpt lat="0" lon="0">
        <time>2020-12-20T09:44:01.784000+00:00</time>
      </trkpt>
      <trkpt lat="0" lon="0">
        <time>2020-12-20T09:44:01.789000+00:00</time>
      </trkpt>
      <trkpt lat="0" lon="0">
        <time>2020-12-20T09:44:01.792000+00:00</time>
      </trkpt>
      <trkpt lat="47.34848" lon="-1.27498">
        <ele>56</ele>
        <time>2020-12-20T09:44:02.789000+00:00</time>
      </trkpt>
      <trkpt lat="0" lon="0">
        <time>2020-12-20T09:44:02.796000+00:00</time>
      </trkpt>
      <trkpt lat="0" lon="0">
        <time>2020-12-20T09:44:02.800000+00:00</time>
      </trkpt>
      <trkpt lat="0" lon="0">
        <time>2020-12-20T09:44:02.804000+00:00</time>
      </trkpt>
      <trkpt lat="47.34849" lon="-1.27495">
        <ele>57</ele>
        <time>2020-12-20T09:44:03.743000+00:00</time>
      </trkpt>
      <trkpt lat="0" lon="0">
        <time>2020-12-20T09:44:03.758000+00:00</time>
      </trkpt>
      <trkpt lat="0" lon="0">
        <time>2020-12-20T09:44:03.765000+00:00</time>
      </trkpt>
      <trkpt lat="0" lon="0">
        <time>2020-12-20T09:44:03.768000+00:00</time>
      </trkpt>
      <trkpt lat="47.3485" lon="-1.27492">
        <ele>57</ele>
        <time>2020-12-20T09:44:04.762000+00:00</time>
      </trkpt>
      <trkpt lat="0" lon="0">
        <time>2020-12-20T09:44:04.768000+00:00</time>
      </trkpt>
      <trkpt lat="0" lon="0">
        <time>2020-12-20T09:44:04.784000+00:00</time>
      </trkpt>
      <trkpt lat="0" lon="0">
        <time>2020-12-20T09:44:04.787000+00:00</time>
      </trkpt>
      <trkpt lat="47.34851" lon="-1.2749">
        <ele>57</ele>
        <time>2020-12-20T09:44:05.774000+00:00</time>
      </trkpt>
      <trkpt lat="0" lon="0">
        <time>2020-12-20T09:44:05.779000+00:00</time>
      </trkpt>
      <trkpt lat="0" lon="0">
        <time>2020-12-20T09:44:05.786000+00:00</time>
      </trkpt>
      <trkpt lat="0" lon="0">
        <time>2020-12-20T09:44:05.789000+00:00</time>
      </trkpt>
      <trkpt lat="47.34852" lon="-1.27487">
        <ele>57</ele>
        <time>2020-12-20T09:44:06.762000+00:00</time>
      </trkpt>
      <trkpt lat="0" lon="0">
        <time>2020-12-20T09:44:06.778000+00:00</time>
      </trkpt>
      <trkpt lat="0" lon="0">
        <time>2020-12-20T09:44:06.790000+00:00</time>
      </trkpt>
      <trkpt lat="0" lon="0">
        <time>2020-12-20T09:44:06.793000+00:00</time>
      </trkpt>
      <trkpt lat="47.34854" lon="-1.27485">
        <ele>57</ele>
        <time>2020-12-20T09:44:07.734000+00:00</time>
      </trkpt>
      <trkpt lat="0" lon="0">
        <time>2020-12-20T09:44:07.742000+00:00</time>
      </trkpt>
      <trkpt lat="0" lon="0">
        <time>2020-12-20T09:44:07.750000+00:00</time>
      </trkpt>
      <trkpt lat="0" lon="0">
        <time>2020-12-20T09:44:07.754000+00:00</time>
      </trkpt>
      <trkpt lat="47.34856" lon="-1.27484">
        <ele>56</ele>
        <time>2020-12-20T09:44:08.743000+00:00</time>
      </trkpt>
      <trkpt lat="0" lon="0">
        <time>2020-12-20T09:44:08.748000+00:00</time>
      </trkpt>
      <trkpt lat="0" lon="0">
        <time>2020-12-20T09:44:08.756000+00:00</time>
      </trkpt>
      <trkpt lat="0" lon="0">
        <time>2020-12-20T09:44:08.770000+00:00</time>
      </trkpt>
      <trkpt lat="47.34858" lon="-1.27482">
        <ele>56</ele>
        <time>2020-12-20T09:44:09.742000+00:00</time>
      </trkpt>
      <trkpt lat="0" lon="0">
        <time>2020-12-20T09:44:09.750000+00:00</time>
      </trkpt>
      <trkpt lat="0" lon="0">
        <time>2020-12-20T09:44:09.754000+00:00</time>
      </trkpt>
      <trkpt lat="0" lon="0">
        <time>2020-12-20T09:44:09.756000+00:00</time>
      </trkpt>
      <trkpt lat="47.3486" lon="-1.27481">
        <ele>57</ele>
        <time>2020-12-20T09:44:10.722000+00:00</time>
      </trkpt>
      <trkpt lat="0" lon="0">
        <time>2020-12-20T09:44:10.734000+00:00</time>
      </trkpt>
      <trkpt lat="0" lon="0">
        <time>2020-12-20T09:44:10.738000+00:00</time>
      </trkpt>
      <trkpt lat="0" lon="0">
        <time>2020-12-20T09:44:10.741000+00:00</time>
      </trkpt>
      <trkpt lat="47.34862" lon="-1.2748">
        <ele>57</ele>
        <time>2020-12-20T09:44:11.742000+00:00</time>
      </trkpt>
      <trkpt lat="0" lon="0">
        <time>2020-12-20T09:44:11.746000+00:00</time>
      </trkpt>
      <trkpt lat="0" lon="0">
        <time>2020-12-20T09:44:11.753000+00:00</time>
      </trkpt>
      <trkpt lat="0" lon="0">
        <time>2020-12-20T09:44:11.761000+00:00</time>
      </trkpt>
      <trkpt lat="47.34864" lon="-1.27479">
        <ele>57</ele>
        <time>2020-12-20T09:44:12.753000+00:00</time>
      </trkpt>
      <trkpt lat="0" lon="0">
        <time>2020-12-20T09:44:12.763000+00:00</time>
      </trkpt>
      <trkpt lat="0" lon="0">
        <time>2020-12-20T09:44:12.770000+00:00</time>
      </trkpt>
      <trkpt lat="0" lon="0">
        <time>2020-12-20T09:44:12.772000+00:00</time>
      </trkpt>
      <trkpt lat="47.34866" lon="-1.27478">
        <ele>58</ele>
        <time>2020-12-20T09:44:13.744000+00:00</time>
      </trkpt>
      <trkpt lat="0" lon="0">
        <time>2020-12-20T09:44:13.752000+00:00</time>
      </trkpt>
      <trkpt lat="0" lon="0">
        <time>2020-12-20T09:44:13.759000+00:00</time>
      </trkpt>
      <trkpt lat="0" lon="0">
        <time>2020-12-20T09:44:13.766000+00:00</time>
      </trkpt>
      <trkpt lat="47.34867" lon="-1.27477">
        <ele>58</ele>
        <time>2020-12-20T09:44:14.764000+00:00</time>
      </trkpt>
      <trkpt lat="0" lon="0">
        <time>2020-12-20T09:44:14.771000+00:00</time>
      </trkpt>
      <trkpt lat="0" lon="0">
        <time>2020-12-20T09:44:14.776000+00:00</time>
      </trkpt>
      <trkpt lat="0" lon="0">
        <time>2020-12-20T09:44:14.778000+00:00</time>
      </trkpt>
      <trkpt lat="47.34869" lon="-1.27477">
        <ele>58</ele>
        <time>2020-12-20T09:44:15.762000+00:00</time>
      </trkpt>
      <trkpt lat="0" lon="0">
        <time>2020-12-20T09:44:15.777000+00:00</time>
      </trkpt>
      <trkpt lat="0" lon="0">
        <time>2020-12-20T09:44:15.784000+00:00</time>
      </trkpt>
      <trkpt lat="0" lon="0">
        <time>2020-12-20T09:44:15.786000+00:00</time>
      </trkpt>
      <trkpt lat="47.3487" lon="-1.27476">
        <ele>58</ele>
        <time>2020-12-20T09:44:16.786000+00:00</time>
      </trkpt>
      <trkpt lat="0" lon="0">
        <time>2020-12-20T09:44:16.793000+00:00</time>
      </trkpt>
      <trkpt lat="0" lon="0">
        <time>2020-12-20T09:44:16.797000+00:00</time>
      </trkpt>
      <trkpt lat="0" lon="0">
        <time>2020-12-20T09:44:16.800000+00:00</time>
      </trkpt>
      <trkpt lat="47.34871" lon="-1.27476">
        <ele>58</ele>
        <time>2020-12-20T09:44:17.764000+00:00</time>
      </trkpt>
      <trkpt lat="0" lon="0">
        <time>2020-12-20T09:44:17.772000+00:00</time>
      </trkpt>
      <trkpt lat="0" lon="0">
        <time>2020-12-20T09:44:17.777000+00:00</time>
      </trkpt>
      <trkpt lat="0" lon="0">
        <time>2020-12-20T09:44:17.780000+00:00</time>
      </trkpt>
      <trkpt lat="47.34871" lon="-1.27476">
        <ele>58</ele>
        <time>2020-12-20T09:44:18.790000+00:00</time>
      </trkpt>
      <trkpt lat="0" lon="0">
        <time>2020-12-20T09:44:18.794000+00:00</time>
      </trkpt>
      <trkpt lat="0" lon="0">
        <time>2020-12-20T09:44:18.800000+00:00</time>
      </trkpt>
      <trkpt lat="0" lon="0">
        <time>2020-12-20T09:44:18.802000+00:00</time>
      </trkpt>
      <trkpt lat="47.34872" lon="-1.27476">
        <ele>58</ele>
        <time>2020-12-20T09:44:19.717000+00:00</time>
      </trkpt>
      <trkpt lat="0" lon="0">
        <time>2020-12-20T09:44:19.723000+00:00</time>
      </trkpt>
      <trkpt lat="0" lon="0">
        <time>2020-12-20T09:44:19.727000+00:00</time>
      </trkpt>
      <trkpt lat="0" lon="0">
        <time>2020-12-20T09:44:19.732000+00:00</time>
      </trkpt>
      <trkpt lat="47.34872" lon="-1.27476">
        <ele>58</ele>
        <time>2020-12-20T09:44:20.790000+00:00</time>
      </trkpt>
      <trkpt lat="0" lon="0">
        <time>2020-12-20T09:44:20.795000+00:00</time>
      </trkpt>
      <trkpt lat="0" lon="0">
        <time>2020-12-20T09:44:20.801000+00:00</time>
      </trkpt>
      <trkpt lat="0" lon="0">
        <time>2020-12-20T09:44:20.804000+00:00</time>
      </trkpt>
      <trkpt lat="47.34872" lon="-1.27476">
        <ele>58</ele>
        <time>2020-12-20T09:44:21.737000+00:00</time>
      </trkpt>
      <trkpt lat="0" lon="0">
        <time>2020-12-20T09:44:21.742000+00:00</time>
      </trkpt>
      <trkpt lat="0" lon="0">
        <time>2020-12-20T09:44:21.747000+00:00</time>
      </trkpt>
      <trkpt lat="0" lon="0">
        <time>2020-12-20T09:44:21.754000+00:00</time>
      </trkpt>
      <trkpt lat="47.34872" lon="-1.27477">
        <ele>58</ele>
        <time>2020-12-20T09:44:22.788000+00:00</time>
      </trkpt>
      <trkpt lat="0" lon="0">
        <time>2020-12-20T09:44:22.800000+00:00</time>
      </trkpt>
      <trkpt lat="0" lon="0">
        <time>2020-12-20T09:44:22.804000+00:00</time>
      </trkpt>
      <trkpt lat="0" lon="0">
        <time>2020-12-20T09:44:22.809000+00:00</time>
      </trkpt>
      <trkpt lat="47.34872" lon="-1.27477">
        <ele>58</ele>
        <time>2020-12-20T09:44:23.785000+00:00</time>
      </trkpt>
      <trkpt lat="0" lon="0">
        <time>2020-12-20T09:44:23.791000+00:00</time>
      </trkpt>
      <trkpt lat="0" lon="0">
        <time>2020-12-20T09:44:23.797000+00:00</time>
      </trkpt>
      <trkpt lat="0" lon="0">
        <time>2020-12-20T09:44:23.800000+00:00</time>
      </trkpt>
      <trkpt lat="47.34872" lon="-1.27478">
        <ele>58</ele>
        <time>2020-12-20T09:44:24.774000+00:00</time>
      </trkpt>
      <trkpt lat="0" lon="0">
        <time>2020-12-20T09:44:24.789000+00:00</time>
      </trkpt>
      <trkpt lat="0" lon="0">
        <time>2020-12-20T09:44:24.791000+00:00</time>
      </trkpt>
      <trkpt lat="0" lon="0">
        <time>2020-12-20T09:44:24.792000+00:00</time>
      </trkpt>
      <trkpt lat="47.34872" lon="-1.27478">
        <ele>58</ele>
        <time>2020-12-20T09:44:25.728000+00:00</time>
      </trkpt>
      <trkpt lat="0" lon="0">
        <time>2020-12-20T09:44:25.731000+00:00</time>
      </trkpt>
      <trkpt lat="0" lon="0">
        <time>2020-12-20T09:44:25.735000+00:00</time>
      </trkpt>
      <trkpt lat="0" lon="0">
        <time>2020-12-20T09:44:25.743000+00:00</time>
      </trkpt>
      <trkpt lat="47.34881" lon="-1.27461">
        <ele>60</ele>
        <time>2020-12-20T09:44:26.730000+00:00</time>
      </trkpt>
      <trkpt lat="0" lon="0">
        <time>2020-12-20T09:44:26.733000+00:00</time>
      </trkpt>
      <trkpt lat="0" lon="0">
        <time>2020-12-20T09:44:26.738000+00:00</time>
      </trkpt>
      <trkpt lat="0" lon="0">
        <time>2020-12-20T09:44:26.740000+00:00</time>
      </trkpt>
      <trkpt lat="47.34883" lon="-1.27459">
        <ele>61</ele>
        <time>2020-12-20T09:44:27.756000+00:00</time>
      </trkpt>
      <trkpt lat="0" lon="0">
        <time>2020-12-20T09:44:27.770000+00:00</time>
      </trkpt>
      <trkpt lat="0" lon="0">
        <time>2020-12-20T09:44:27.776000+00:00</time>
      </trkpt>
      <trkpt lat="0" lon="0">
        <time>2020-12-20T09:44:27.778000+00:00</time>
      </trkpt>
      <trkpt lat="47.34884" lon="-1.27456">
        <ele>60</ele>
        <time>2020-12-20T09:44:28.731000+00:00</time>
      </trkpt>
      <trkpt lat="0" lon="0">
        <time>2020-12-20T09:44:28.737000+00:00</time>
      </trkpt>
      <trkpt lat="0" lon="0">
        <time>2020-12-20T09:44:28.748000+00:00</time>
      </trkpt>
      <trkpt lat="0" lon="0">
        <time>2020-12-20T09:44:28.751000+00:00</time>
      </trkpt>
      <trkpt lat="47.34886" lon="-1.27453">
        <ele>60</ele>
        <time>2020-12-20T09:44:29.735000+00:00</time>
      </trkpt>
      <trkpt lat="0" lon="0">
        <time>2020-12-20T09:44:29.745000+00:00</time>
      </trkpt>
      <trkpt lat="0" lon="0">
        <time>2020-12-20T09:44:29.752000+00:00</time>
      </trkpt>
      <trkpt lat="0" lon="0">
        <time>2020-12-20T09:44:29.758000+00:00</time>
      </trkpt>
      <trkpt lat="47.34887" lon="-1.27451">
        <ele>61</ele>
        <time>2020-12-20T09:44:30.740000+00:00</time>
      </trkpt>
      <trkpt lat="0" lon="0">
        <time>2020-12-20T09:44:30.751000+00:00</time>
      </trkpt>
      <trkpt lat="0" lon="0">
        <time>2020-12-20T09:44:30.756000+00:00</time>
      </trkpt>
      <trkpt lat="0" lon="0">
        <time>2020-12-20T09:44:30.759000+00:00</time>
      </trkpt>
      <trkpt lat="47.34889" lon="-1.27449">
        <ele>61</ele>
        <time>2020-12-20T09:44:31.746000+00:00</time>
      </trkpt>
      <trkpt lat="0" lon="0">
        <time>2020-12-20T09:44:31.754000+00:00</time>
      </trkpt>
      <trkpt lat="0" lon="0">
        <time>2020-12-20T09:44:31.760000+00:00</time>
      </trkpt>
      <trkpt lat="0" lon="0">
        <time>2020-12-20T09:44:31.762000+00:00</time>
      </trkpt>
      <trkpt lat="47.3489" lon="-1.27448">
        <ele>61</ele>
        <time>2020-12-20T09:44:32.720000+00:00</time>
      </trkpt>
      <trkpt lat="0" lon="0">
        <time>2020-12-20T09:44:32.731000+00:00</time>
      </trkpt>
      <trkpt lat="0" lon="0">
        <time>2020-12-20T09:44:32.736000+00:00</time>
      </trkpt>
      <trkpt lat="0" lon="0">
        <time>2020-12-20T09:44:32.739000+00:00</time>
      </trkpt>
      <trkpt lat="47.34892" lon="-1.27447">
        <ele>61</ele>
        <time>2020-12-20T09:44:33.746000+00:00</time>
      </trkpt>
      <trkpt lat="0" lon="0">
        <time>2020-12-20T09:44:33.752000+00:00</time>
      </trkpt>
      <trkpt lat="0" lon="0">
        <time>2020-12-20T09:44:33.754000+00:00</time>
      </trkpt>
      <trkpt lat="0" lon="0">
        <time>2020-12-20T09:44:33.755000+00:00</time>
      </trkpt>
      <trkpt lat="47.34894" lon="-1.27446">
        <ele>61</ele>
        <time>2020-12-20T09:44:34.729000+00:00</time>
      </trkpt>
      <trkpt lat="0" lon="0">
        <time>2020-12-20T09:44:34.737000+00:00</time>
      </trkpt>
      <trkpt lat="0" lon="0">
        <time>2020-12-20T09:44:34.746000+00:00</time>
      </trkpt>
      <trkpt lat="0" lon="0">
        <time>2020-12-20T09:44:34.753000+00:00</time>
      </trkpt>
      <trkpt lat="47.34896" lon="-1.27445">
        <ele>61</ele>
        <time>2020-12-20T09:44:35.690000+00:00</time>
      </trkpt>
      <trkpt lat="0" lon="0">
        <time>2020-12-20T09:44:35.698000+00:00</time>
      </trkpt>
      <trkpt lat="0" lon="0">
        <time>2020-12-20T09:44:35.708000+00:00</time>
      </trkpt>
      <trkpt lat="0" lon="0">
        <time>2020-12-20T09:44:35.713000+00:00</time>
      </trkpt>
      <trkpt lat="47.34898" lon="-1.27445">
        <ele>61</ele>
        <time>2020-12-20T09:44:36.743000+00:00</time>
      </trkpt>
      <trkpt lat="0" lon="0">
        <time>2020-12-20T09:44:36.751000+00:00</time>
      </trkpt>
      <trkpt lat="0" lon="0">
        <time>2020-12-20T09:44:36.755000+00:00</time>
      </trkpt>
      <trkpt lat="0" lon="0">
        <time>2020-12-20T09:44:36.759000+00:00</time>
      </trkpt>
      <trkpt lat="47.349" lon="-1.27445">
        <ele>62</ele>
        <time>2020-12-20T09:44:37.761000+00:00</time>
      </trkpt>
      <trkpt lat="0" lon="0">
        <time>2020-12-20T09:44:37.781000+00:00</time>
      </trkpt>
      <trkpt lat="0" lon="0">
        <time>2020-12-20T09:44:37.791000+00:00</time>
      </trkpt>
      <trkpt lat="0" lon="0">
        <time>2020-12-20T09:44:37.798000+00:00</time>
      </trkpt>
      <trkpt lat="47.34902" lon="-1.27444">
        <ele>62</ele>
        <time>2020-12-20T09:44:38.725000+00:00</time>
      </trkpt>
      <trkpt lat="0" lon="0">
        <time>2020-12-20T09:44:38.742000+00:00</time>
      </trkpt>
      <trkpt lat="0" lon="0">
        <time>2020-12-20T09:44:38.746000+00:00</time>
      </trkpt>
      <trkpt lat="0" lon="0">
        <time>2020-12-20T09:44:38.751000+00:00</time>
      </trkpt>
      <trkpt lat="47.34903" lon="-1.27444">
        <ele>62</ele>
        <time>2020-12-20T09:44:39.685000+00:00</time>
      </trkpt>
      <trkpt lat="0" lon="0">
        <time>2020-12-20T09:44:39.692000+00:00</time>
      </trkpt>
      <trkpt lat="0" lon="0">
        <time>2020-12-20T09:44:39.697000+00:00</time>
      </trkpt>
      <trkpt lat="0" lon="0">
        <time>2020-12-20T09:44:39.702000+00:00</time>
      </trkpt>
      <trkpt lat="47.34904" lon="-1.27443">
        <ele>63</ele>
        <time>2020-12-20T09:44:40.711000+00:00</time>
      </trkpt>
      <trkpt lat="0" lon="0">
        <time>2020-12-20T09:44:40.722000+00:00</time>
      </trkpt>
      <trkpt lat="0" lon="0">
        <time>2020-12-20T09:44:40.728000+00:00</time>
      </trkpt>
      <trkpt lat="0" lon="0">
        <time>2020-12-20T09:44:40.731000+00:00</time>
      </trkpt>
      <trkpt lat="47.34905" lon="-1.27441">
        <ele>63</ele>
        <time>2020-12-20T09:44:41.727000+00:00</time>
      </trkpt>
      <trkpt lat="0" lon="0">
        <time>2020-12-20T09:44:41.733000+00:00</time>
      </trkpt>
      <trkpt lat="0" lon="0">
        <time>2020-12-20T09:44:41.739000+00:00</time>
      </trkpt>
      <trkpt lat="0" lon="0">
        <time>2020-12-20T09:44:41.741000+00:00</time>
      </trkpt>
      <trkpt lat="47.34906" lon="-1.2744">
        <ele>64</ele>
        <time>2020-12-20T09:44:42.719000+00:00</time>
      </trkpt>
      <trkpt lat="0" lon="0">
        <time>2020-12-20T09:44:42.734000+00:00</time>
      </trkpt>
      <trkpt lat="0" lon="0">
        <time>2020-12-20T09:44:42.741000+00:00</time>
      </trkpt>
      <trkpt lat="0" lon="0">
        <time>2020-12-20T09:44:42.744000+00:00</time>
      </trkpt>
      <trkpt lat="47.34907" lon="-1.27438">
        <ele>64</ele>
        <time>2020-12-20T09:44:43.715000+00:00</time>
      </trkpt>
      <trkpt lat="0" lon="0">
        <time>2020-12-20T09:44:43.730000+00:00</time>
      </trkpt>
      <trkpt lat="0" lon="0">
        <time>2020-12-20T09:44:43.740000+00:00</time>
      </trkpt>
      <trkpt lat="0" lon="0">
        <time>2020-12-20T09:44:43.746000+00:00</time>
      </trkpt>
      <trkpt lat="47.34907" lon="-1.27437">
        <ele>65</ele>
        <time>2020-12-20T09:44:44.761000+00:00</time>
      </trkpt>
      <trkpt lat="0" lon="0">
        <time>2020-12-20T09:44:44.786000+00:00</time>
      </trkpt>
      <trkpt lat="0" lon="0">
        <time>2020-12-20T09:44:44.792000+00:00</time>
      </trkpt>
      <trkpt lat="0" lon="0">
        <time>2020-12-20T09:44:44.794000+00:00</time>
      </trkpt>
      <trkpt lat="47.34907" lon="-1.27434">
        <ele>66</ele>
        <time>2020-12-20T09:44:45.744000+00:00</time>
      </trkpt>
      <trkpt lat="0" lon="0">
        <time>2020-12-20T09:44:45.751000+00:00</time>
      </trkpt>
      <trkpt lat="0" lon="0">
        <time>2020-12-20T09:44:45.757000+00:00</time>
      </trkpt>
      <trkpt lat="0" lon="0">
        <time>2020-12-20T09:44:45.763000+00:00</time>
      </trkpt>
      <trkpt lat="47.34907" lon="-1.27432">
        <ele>66</ele>
        <time>2020-12-20T09:44:46.755000+00:00</time>
      </trkpt>
      <trkpt lat="0" lon="0">
        <time>2020-12-20T09:44:46.765000+00:00</time>
      </trkpt>
      <trkpt lat="0" lon="0">
        <time>2020-12-20T09:44:46.769000+00:00</time>
      </trkpt>
      <trkpt lat="0" lon="0">
        <time>2020-12-20T09:44:46.774000+00:00</time>
      </trkpt>
      <trkpt lat="47.34907" lon="-1.2743">
        <ele>67</ele>
        <time>2020-12-20T09:44:47.738000+00:00</time>
      </trkpt>
      <trkpt lat="0" lon="0">
        <time>2020-12-20T09:44:47.747000+00:00</time>
      </trkpt>
      <trkpt lat="0" lon="0">
        <time>2020-12-20T09:44:47.752000+00:00</time>
      </trkpt>
      <trkpt lat="0" lon="0">
        <time>2020-12-20T09:44:47.756000+00:00</time>
      </trkpt>
      <trkpt lat="47.34906" lon="-1.27427">
        <ele>68</ele>
        <time>2020-12-20T09:44:48.747000+00:00</time>
      </trkpt>
      <trkpt lat="0" lon="0">
        <time>2020-12-20T09:44:48.758000+00:00</time>
      </trkpt>
      <trkpt lat="0" lon="0">
        <time>2020-12-20T09:44:48.763000+00:00</time>
      </trkpt>
      <trkpt lat="0" lon="0">
        <time>2020-12-20T09:44:48.766000+00:00</time>
      </trkpt>
      <trkpt lat="47.34906" lon="-1.27424">
        <ele>68</ele>
        <time>2020-12-20T09:44:49.748000+00:00</time>
      </trkpt>
      <trkpt lat="0" lon="0">
        <time>2020-12-20T09:44:49.755000+00:00</time>
      </trkpt>
      <trkpt lat="0" lon="0">
        <time>2020-12-20T09:44:49.757000+00:00</time>
      </trkpt>
      <trkpt lat="0" lon="0">
        <time>2020-12-20T09:44:49.759000+00:00</time>
      </trkpt>
      <trkpt lat="47.34905" lon="-1.27421">
        <ele>69</ele>
        <time>2020-12-20T09:44:50.718000+00:00</time>
      </trkpt>
      <trkpt lat="0" lon="0">
        <time>2020-12-20T09:44:50.735000+00:00</time>
      </trkpt>
      <trkpt lat="0" lon="0">
        <time>2020-12-20T09:44:50.741000+00:00</time>
      </trkpt>
      <trkpt lat="0" lon="0">
        <time>2020-12-20T09:44:50.744000+00:00</time>
      </trkpt>
      <trkpt lat="47.34905" lon="-1.27418">
        <ele>70</ele>
        <time>2020-12-20T09:44:51.711000+00:00</time>
      </trkpt>
      <trkpt lat="0" lon="0">
        <time>2020-12-20T09:44:51.721000+00:00</time>
      </trkpt>
      <trkpt lat="0" lon="0">
        <time>2020-12-20T09:44:51.722000+00:00</time>
      </trkpt>
      <trkpt lat="0" lon="0">
        <time>2020-12-20T09:44:51.723000+00:00</time>
      </trkpt>
      <trkpt lat="47.34905" lon="-1.27414">
        <ele>71</ele>
        <time>2020-12-20T09:44:52.720000+00:00</time>
      </trkpt>
      <trkpt lat="0" lon="0">
        <time>2020-12-20T09:44:52.727000+00:00</time>
      </trkpt>
      <trkpt lat="0" lon="0">
        <time>2020-12-20T09:44:52.734000+00:00</time>
      </trkpt>
      <trkpt lat="0" lon="0">
        <time>2020-12-20T09:44:52.737000+00:00</time>
      </trkpt>
      <trkpt lat="47.34906" lon="-1.2741">
        <ele>72</ele>
        <time>2020-12-20T09:44:53.756000+00:00</time>
      </trkpt>
      <trkpt lat="0" lon="0">
        <time>2020-12-20T09:44:53.771000+00:00</time>
      </trkpt>
      <trkpt lat="0" lon="0">
        <time>2020-12-20T09:44:53.775000+00:00</time>
      </trkpt>
      <trkpt lat="0" lon="0">
        <time>2020-12-20T09:44:53.778000+00:00</time>
      </trkpt>
      <trkpt lat="47.34906" lon="-1.27406">
        <ele>72</ele>
        <time>2020-12-20T09:44:54.778000+00:00</time>
      </trkpt>
      <trkpt lat="0" lon="0">
        <time>2020-12-20T09:44:54.783000+00:00</time>
      </trkpt>
      <trkpt lat="0" lon="0">
        <time>2020-12-20T09:44:54.787000+00:00</time>
      </trkpt>
      <trkpt lat="0" lon="0">
        <time>2020-12-20T09:44:54.792000+00:00</time>
      </trkpt>
      <trkpt lat="47.34907" lon="-1.27402">
        <ele>73</ele>
        <time>2020-12-20T09:44:55.750000+00:00</time>
      </trkpt>
      <trkpt lat="0" lon="0">
        <time>2020-12-20T09:44:55.767000+00:00</time>
      </trkpt>
      <trkpt lat="0" lon="0">
        <time>2020-12-20T09:44:55.773000+00:00</time>
      </trkpt>
      <trkpt lat="0" lon="0">
        <time>2020-12-20T09:44:55.776000+00:00</time>
      </trkpt>
      <trkpt lat="47.34908" lon="-1.27398">
        <ele>74</ele>
        <time>2020-12-20T09:44:56.762000+00:00</time>
      </trkpt>
      <trkpt lat="0" lon="0">
        <time>2020-12-20T09:44:56.782000+00:00</time>
      </trkpt>
      <trkpt lat="0" lon="0">
        <time>2020-12-20T09:44:56.785000+00:00</time>
      </trkpt>
      <trkpt lat="0" lon="0">
        <time>2020-12-20T09:44:56.786000+00:00</time>
      </trkpt>
      <trkpt lat="47.34909" lon="-1.27394">
        <ele>75</ele>
        <time>2020-12-20T09:44:57.760000+00:00</time>
      </trkpt>
      <trkpt lat="0" lon="0">
        <time>2020-12-20T09:44:57.765000+00:00</time>
      </trkpt>
      <trkpt lat="0" lon="0">
        <time>2020-12-20T09:44:57.774000+00:00</time>
      </trkpt>
      <trkpt lat="0" lon="0">
        <time>2020-12-20T09:44:57.776000+00:00</time>
      </trkpt>
      <trkpt lat="47.34911" lon="-1.27389">
        <ele>75</ele>
        <time>2020-12-20T09:44:58.715000+00:00</time>
      </trkpt>
      <trkpt lat="0" lon="0">
        <time>2020-12-20T09:44:58.724000+00:00</time>
      </trkpt>
      <trkpt lat="0" lon="0">
        <time>2020-12-20T09:44:58.733000+00:00</time>
      </trkpt>
      <trkpt lat="0" lon="0">
        <time>2020-12-20T09:44:58.746000+00:00</time>
      </trkpt>
      <trkpt lat="47.34912" lon="-1.27385">
        <ele>75</ele>
        <time>2020-12-20T09:44:59.741000+00:00</time>
      </trkpt>
      <trkpt lat="0" lon="0">
        <time>2020-12-20T09:44:59.748000+00:00</time>
      </trkpt>
      <trkpt lat="0" lon="0">
        <time>2020-12-20T09:44:59.752000+00:00</time>
      </trkpt>
      <trkpt lat="0" lon="0">
        <time>2020-12-20T09:44:59.755000+00:00</time>
      </trkpt>
      <trkpt lat="47.34915" lon="-1.2738">
        <ele>75</ele>
        <time>2020-12-20T09:45:00.708000+00:00</time>
      </trkpt>
      <trkpt lat="0" lon="0">
        <time>2020-12-20T09:45:00.716000+00:00</time>
      </trkpt>
      <trkpt lat="0" lon="0">
        <time>2020-12-20T09:45:00.724000+00:00</time>
      </trkpt>
      <trkpt lat="0" lon="0">
        <time>2020-12-20T09:45:00.729000+00:00</time>
      </trkpt>
      <trkpt lat="47.34917" lon="-1.27376">
        <ele>75</ele>
        <time>2020-12-20T09:45:01.746000+00:00</time>
      </trkpt>
      <trkpt lat="0" lon="0">
        <time>2020-12-20T09:45:01.763000+00:00</time>
      </trkpt>
      <trkpt lat="0" lon="0">
        <time>2020-12-20T09:45:01.770000+00:00</time>
      </trkpt>
      <trkpt lat="0" lon="0">
        <time>2020-12-20T09:45:01.781000+00:00</time>
      </trkpt>
      <trkpt lat="47.34919" lon="-1.27372">
        <ele>76</ele>
        <time>2020-12-20T09:45:02.740000+00:00</time>
      </trkpt>
      <trkpt lat="0" lon="0">
        <time>2020-12-20T09:45:02.749000+00:00</time>
      </trkpt>
      <trkpt lat="0" lon="0">
        <time>2020-12-20T09:45:02.759000+00:00</time>
      </trkpt>
      <trkpt lat="0" lon="0">
        <time>2020-12-20T09:45:02.761000+00:00</time>
      </trkpt>
      <trkpt lat="47.34922" lon="-1.27368">
        <ele>76</ele>
        <time>2020-12-20T09:45:03.754000+00:00</time>
      </trkpt>
      <trkpt lat="0" lon="0">
        <time>2020-12-20T09:45:03.768000+00:00</time>
      </trkpt>
      <trkpt lat="0" lon="0">
        <time>2020-12-20T09:45:03.778000+00:00</time>
      </trkpt>
      <trkpt lat="0" lon="0">
        <time>2020-12-20T09:45:03.781000+00:00</time>
      </trkpt>
      <trkpt lat="47.34925" lon="-1.27364">
        <ele>76</ele>
        <time>2020-12-20T09:45:04.747000+00:00</time>
      </trkpt>
      <trkpt lat="0" lon="0">
        <time>2020-12-20T09:45:04.763000+00:00</time>
      </trkpt>
      <trkpt lat="0" lon="0">
        <time>2020-12-20T09:45:04.769000+00:00</time>
      </trkpt>
      <trkpt lat="0" lon="0">
        <time>2020-12-20T09:45:04.774000+00:00</time>
      </trkpt>
      <trkpt lat="47.34927" lon="-1.2736">
        <ele>76</ele>
        <time>2020-12-20T09:45:05.761000+00:00</time>
      </trkpt>
      <trkpt lat="0" lon="0">
        <time>2020-12-20T09:45:05.780000+00:00</time>
      </trkpt>
      <trkpt lat="0" lon="0">
        <time>2020-12-20T09:45:05.786000+00:00</time>
      </trkpt>
      <trkpt lat="0" lon="0">
        <time>2020-12-20T09:45:05.792000+00:00</time>
      </trkpt>
      <trkpt lat="47.3493" lon="-1.27357">
        <ele>76</ele>
        <time>2020-12-20T09:45:06.759000+00:00</time>
      </trkpt>
      <trkpt lat="0" lon="0">
        <time>2020-12-20T09:45:06.767000+00:00</time>
      </trkpt>
      <trkpt lat="0" lon="0">
        <time>2020-12-20T09:45:06.773000+00:00</time>
      </trkpt>
      <trkpt lat="0" lon="0">
        <time>2020-12-20T09:45:06.776000+00:00</time>
      </trkpt>
      <trkpt lat="47.34933" lon="-1.27354">
        <ele>76</ele>
        <time>2020-12-20T09:45:07.734000+00:00</time>
      </trkpt>
      <trkpt lat="0" lon="0">
        <time>2020-12-20T09:45:07.747000+00:00</time>
      </trkpt>
      <trkpt lat="0" lon="0">
        <time>2020-12-20T09:45:07.750000+00:00</time>
      </trkpt>
      <trkpt lat="0" lon="0">
        <time>2020-12-20T09:45:07.752000+00:00</time>
      </trkpt>
      <trkpt lat="47.34936" lon="-1.27351">
        <ele>76</ele>
        <time>2020-12-20T09:45:08.761000+00:00</time>
      </trkpt>
      <trkpt lat="0" lon="0">
        <time>2020-12-20T09:45:08.768000+00:00</time>
      </trkpt>
      <trkpt lat="0" lon="0">
        <time>2020-12-20T09:45:08.773000+00:00</time>
      </trkpt>
      <trkpt lat="0" lon="0">
        <time>2020-12-20T09:45:08.776000+00:00</time>
      </trkpt>
      <trkpt lat="47.3494" lon="-1.27349">
        <ele>75</ele>
        <time>2020-12-20T09:45:09.730000+00:00</time>
      </trkpt>
      <trkpt lat="0" lon="0">
        <time>2020-12-20T09:45:09.737000+00:00</time>
      </trkpt>
      <trkpt lat="0" lon="0">
        <time>2020-12-20T09:45:09.742000+00:00</time>
      </trkpt>
      <trkpt lat="0" lon="0">
        <time>2020-12-20T09:45:09.746000+00:00</time>
      </trkpt>
      <trkpt lat="47.34943" lon="-1.27347">
        <ele>75</ele>
        <time>2020-12-20T09:45:10.745000+00:00</time>
      </trkpt>
      <trkpt lat="0" lon="0">
        <time>2020-12-20T09:45:10.760000+00:00</time>
      </trkpt>
      <trkpt lat="0" lon="0">
        <time>2020-12-20T09:45:10.766000+00:00</time>
      </trkpt>
      <trkpt lat="0" lon="0">
        <time>2020-12-20T09:45:10.768000+00:00</time>
      </trkpt>
      <trkpt lat="47.34947" lon="-1.27346">
        <ele>76</ele>
        <time>2020-12-20T09:45:11.740000+00:00</time>
      </trkpt>
      <trkpt lat="0" lon="0">
        <time>2020-12-20T09:45:11.751000+00:00</time>
      </trkpt>
      <trkpt lat="0" lon="0">
        <time>2020-12-20T09:45:11.755000+00:00</time>
      </trkpt>
      <trkpt lat="0" lon="0">
        <time>2020-12-20T09:45:11.759000+00:00</time>
      </trkpt>
      <trkpt lat="47.34951" lon="-1.27346">
        <ele>74</ele>
        <time>2020-12-20T09:45:12.726000+00:00</time>
      </trkpt>
      <trkpt lat="0" lon="0">
        <time>2020-12-20T09:45:12.730000+00:00</time>
      </trkpt>
      <trkpt lat="0" lon="0">
        <time>2020-12-20T09:45:12.739000+00:00</time>
      </trkpt>
      <trkpt lat="0" lon="0">
        <time>2020-12-20T09:45:12.743000+00:00</time>
      </trkpt>
      <trkpt lat="47.34954" lon="-1.27346">
        <ele>73</ele>
        <time>2020-12-20T09:45:13.718000+00:00</time>
      </trkpt>
      <trkpt lat="0" lon="0">
        <time>2020-12-20T09:45:13.723000+00:00</time>
      </trkpt>
      <trkpt lat="0" lon="0">
        <time>2020-12-20T09:45:13.733000+00:00</time>
      </trkpt>
      <trkpt lat="0" lon="0">
        <time>2020-12-20T09:45:13.737000+00:00</time>
      </trkpt>
      <trkpt lat="47.34958" lon="-1.27346">
        <ele>73</ele>
        <time>2020-12-20T09:45:14.758000+00:00</time>
      </trkpt>
      <trkpt lat="0" lon="0">
        <time>2020-12-20T09:45:14.766000+00:00</time>
      </trkpt>
      <trkpt lat="0" lon="0">
        <time>2020-12-20T09:45:14.771000+00:00</time>
      </trkpt>
      <trkpt lat="0" lon="0">
        <time>2020-12-20T09:45:14.773000+00:00</time>
      </trkpt>
      <trkpt lat="47.34962" lon="-1.27347">
        <ele>73</ele>
        <time>2020-12-20T09:45:15.752000+00:00</time>
      </trkpt>
      <trkpt lat="0" lon="0">
        <time>2020-12-20T09:45:15.757000+00:00</time>
      </trkpt>
      <trkpt lat="0" lon="0">
        <time>2020-12-20T09:45:15.762000+00:00</time>
      </trkpt>
      <trkpt lat="0" lon="0">
        <time>2020-12-20T09:45:15.765000+00:00</time>
      </trkpt>
      <trkpt lat="47.34966" lon="-1.27348">
        <ele>72</ele>
        <time>2020-12-20T09:45:16.759000+00:00</time>
      </trkpt>
      <trkpt lat="0" lon="0">
        <time>2020-12-20T09:45:16.776000+00:00</time>
      </trkpt>
      <trkpt lat="0" lon="0">
        <time>2020-12-20T09:45:16.782000+00:00</time>
      </trkpt>
      <trkpt lat="0" lon="0">
        <time>2020-12-20T09:45:16.785000+00:00</time>
      </trkpt>
      <trkpt lat="47.34969" lon="-1.27349">
        <ele>72</ele>
        <time>2020-12-20T09:45:17.755000+00:00</time>
      </trkpt>
      <trkpt lat="0" lon="0">
        <time>2020-12-20T09:45:17.760000+00:00</time>
      </trkpt>
      <trkpt lat="0" lon="0">
        <time>2020-12-20T09:45:17.764000+00:00</time>
      </trkpt>
      <trkpt lat="0" lon="0">
        <time>2020-12-20T09:45:17.767000+00:00</time>
      </trkpt>
      <trkpt lat="47.34973" lon="-1.2735">
        <ele>72</ele>
        <time>2020-12-20T09:45:18.710000+00:00</time>
      </trkpt>
      <trkpt lat="0" lon="0">
        <time>2020-12-20T09:45:18.721000+00:00</time>
      </trkpt>
      <trkpt lat="0" lon="0">
        <time>2020-12-20T09:45:18.725000+00:00</time>
      </trkpt>
      <trkpt lat="0" lon="0">
        <time>2020-12-20T09:45:18.728000+00:00</time>
      </trkpt>
      <trkpt lat="47.34976" lon="-1.27351">
        <ele>72</ele>
        <time>2020-12-20T09:45:19.725000+00:00</time>
      </trkpt>
      <trkpt lat="0" lon="0">
        <time>2020-12-20T09:45:19.730000+00:00</time>
      </trkpt>
      <trkpt lat="0" lon="0">
        <time>2020-12-20T09:45:19.734000+00:00</time>
      </trkpt>
      <trkpt lat="0" lon="0">
        <time>2020-12-20T09:45:19.742000+00:00</time>
      </trkpt>
      <trkpt lat="47.3498" lon="-1.27352">
        <ele>72</ele>
        <time>2020-12-20T09:45:20.701000+00:00</time>
      </trkpt>
      <trkpt lat="0" lon="0">
        <time>2020-12-20T09:45:20.709000+00:00</time>
      </trkpt>
      <trkpt lat="0" lon="0">
        <time>2020-12-20T09:45:20.713000+00:00</time>
      </trkpt>
      <trkpt lat="0" lon="0">
        <time>2020-12-20T09:45:20.716000+00:00</time>
      </trkpt>
      <trkpt lat="47.34984" lon="-1.27353">
        <ele>71</ele>
        <time>2020-12-20T09:45:21.761000+00:00</time>
      </trkpt>
      <trkpt lat="0" lon="0">
        <time>2020-12-20T09:45:21.764000+00:00</time>
      </trkpt>
      <trkpt lat="0" lon="0">
        <time>2020-12-20T09:45:21.772000+00:00</time>
      </trkpt>
      <trkpt lat="0" lon="0">
        <time>2020-12-20T09:45:21.774000+00:00</time>
      </trkpt>
      <trkpt lat="47.34988" lon="-1.27354">
        <ele>71</ele>
        <time>2020-12-20T09:45:22.732000+00:00</time>
      </trkpt>
      <trkpt lat="0" lon="0">
        <time>2020-12-20T09:45:22.747000+00:00</time>
      </trkpt>
      <trkpt lat="0" lon="0">
        <time>2020-12-20T09:45:22.755000+00:00</time>
      </trkpt>
      <trkpt lat="0" lon="0">
        <time>2020-12-20T09:45:22.761000+00:00</time>
      </trkpt>
      <trkpt lat="47.34991" lon="-1.27355">
        <ele>71</ele>
        <time>2020-12-20T09:45:23.700000+00:00</time>
      </trkpt>
      <trkpt lat="0" lon="0">
        <time>2020-12-20T09:45:23.706000+00:00</time>
      </trkpt>
      <trkpt lat="0" lon="0">
        <time>2020-12-20T09:45:23.708000+00:00</time>
      </trkpt>
      <trkpt lat="0" lon="0">
        <time>2020-12-20T09:45:23.709000+00:00</time>
      </trkpt>
      <trkpt lat="47.34995" lon="-1.27356">
        <ele>71</ele>
        <time>2020-12-20T09:45:24.733000+00:00</time>
      </trkpt>
      <trkpt lat="0" lon="0">
        <time>2020-12-20T09:45:24.746000+00:00</time>
      </trkpt>
      <trkpt lat="0" lon="0">
        <time>2020-12-20T09:45:24.750000+00:00</time>
      </trkpt>
      <trkpt lat="0" lon="0">
        <time>2020-12-20T09:45:24.752000+00:00</time>
      </trkpt>
      <trkpt lat="47.34998" lon="-1.27357">
        <ele>72</ele>
        <time>2020-12-20T09:45:25.732000+00:00</time>
      </trkpt>
      <trkpt lat="0" lon="0">
        <time>2020-12-20T09:45:25.746000+00:00</time>
      </trkpt>
      <trkpt lat="0" lon="0">
        <time>2020-12-20T09:45:25.755000+00:00</time>
      </trkpt>
      <trkpt lat="0" lon="0">
        <time>2020-12-20T09:45:25.756000+00:00</time>
      </trkpt>
      <trkpt lat="47.35001" lon="-1.27357">
        <ele>72</ele>
        <time>2020-12-20T09:45:26.708000+00:00</time>
      </trkpt>
      <trkpt lat="0" lon="0">
        <time>2020-12-20T09:45:26.721000+00:00</time>
      </trkpt>
      <trkpt lat="0" lon="0">
        <time>2020-12-20T09:45:26.732000+00:00</time>
      </trkpt>
      <trkpt lat="0" lon="0">
        <time>2020-12-20T09:45:26.733000+00:00</time>
      </trkpt>
      <trkpt lat="47.35005" lon="-1.27358">
        <ele>72</ele>
        <time>2020-12-20T09:45:27.783000+00:00</time>
      </trkpt>
      <trkpt lat="0" lon="0">
        <time>2020-12-20T09:45:27.798000+00:00</time>
      </trkpt>
      <trkpt lat="0" lon="0">
        <time>2020-12-20T09:45:27.804000+00:00</time>
      </trkpt>
      <trkpt lat="0" lon="0">
        <time>2020-12-20T09:45:27.806000+00:00</time>
      </trkpt>
      <trkpt lat="47.35008" lon="-1.27359">
        <ele>72</ele>
        <time>2020-12-20T09:45:28.731000+00:00</time>
      </trkpt>
      <trkpt lat="0" lon="0">
        <time>2020-12-20T09:45:28.736000+00:00</time>
      </trkpt>
      <trkpt lat="0" lon="0">
        <time>2020-12-20T09:45:28.741000+00:00</time>
      </trkpt>
      <trkpt lat="0" lon="0">
        <time>2020-12-20T09:45:28.743000+00:00</time>
      </trkpt>
      <trkpt lat="47.35011" lon="-1.27359">
        <ele>72</ele>
        <time>2020-12-20T09:45:29.711000+00:00</time>
      </trkpt>
      <trkpt lat="0" lon="0">
        <time>2020-12-20T09:45:29.720000+00:00</time>
      </trkpt>
      <trkpt lat="0" lon="0">
        <time>2020-12-20T09:45:29.730000+00:00</time>
      </trkpt>
      <trkpt lat="0" lon="0">
        <time>2020-12-20T09:45:29.732000+00:00</time>
      </trkpt>
      <trkpt lat="47.35014" lon="-1.2736">
        <ele>72</ele>
        <time>2020-12-20T09:45:30.727000+00:00</time>
      </trkpt>
      <trkpt lat="0" lon="0">
        <time>2020-12-20T09:45:30.736000+00:00</time>
      </trkpt>
      <trkpt lat="0" lon="0">
        <time>2020-12-20T09:45:30.738000+00:00</time>
      </trkpt>
      <trkpt lat="0" lon="0">
        <time>2020-12-20T09:45:30.739000+00:00</time>
      </trkpt>
      <trkpt lat="47.35017" lon="-1.2736">
        <ele>72</ele>
        <time>2020-12-20T09:45:31.731000+00:00</time>
      </trkpt>
      <trkpt lat="0" lon="0">
        <time>2020-12-20T09:45:31.741000+00:00</time>
      </trkpt>
      <trkpt lat="0" lon="0">
        <time>2020-12-20T09:45:31.751000+00:00</time>
      </trkpt>
      <trkpt lat="0" lon="0">
        <time>2020-12-20T09:45:31.754000+00:00</time>
      </trkpt>
      <trkpt lat="47.3502" lon="-1.27361">
        <ele>72</ele>
        <time>2020-12-20T09:45:32.771000+00:00</time>
      </trkpt>
      <trkpt lat="0" lon="0">
        <time>2020-12-20T09:45:32.784000+00:00</time>
      </trkpt>
      <trkpt lat="0" lon="0">
        <time>2020-12-20T09:45:32.789000+00:00</time>
      </trkpt>
      <trkpt lat="0" lon="0">
        <time>2020-12-20T09:45:32.792000+00:00</time>
      </trkpt>
      <trkpt lat="47.35023" lon="-1.27361">
        <ele>72</ele>
        <time>2020-12-20T09:45:33.743000+00:00</time>
      </trkpt>
      <trkpt lat="0" lon="0">
        <time>2020-12-20T09:45:33.752000+00:00</time>
      </trkpt>
      <trkpt lat="0" lon="0">
        <time>2020-12-20T09:45:33.767000+00:00</time>
      </trkpt>
      <trkpt lat="0" lon="0">
        <time>2020-12-20T09:45:33.775000+00:00</time>
      </trkpt>
      <trkpt lat="47.35026" lon="-1.27361">
        <ele>73</ele>
        <time>2020-12-20T09:45:34.694000+00:00</time>
      </trkpt>
      <trkpt lat="0" lon="0">
        <time>2020-12-20T09:45:34.706000+00:00</time>
      </trkpt>
      <trkpt lat="0" lon="0">
        <time>2020-12-20T09:45:34.712000+00:00</time>
      </trkpt>
      <trkpt lat="0" lon="0">
        <time>2020-12-20T09:45:34.717000+00:00</time>
      </trkpt>
      <trkpt lat="47.35029" lon="-1.27361">
        <ele>72</ele>
        <time>2020-12-20T09:45:35.691000+00:00</time>
      </trkpt>
      <trkpt lat="0" lon="0">
        <time>2020-12-20T09:45:35.698000+00:00</time>
      </trkpt>
      <trkpt lat="0" lon="0">
        <time>2020-12-20T09:45:35.702000+00:00</time>
      </trkpt>
      <trkpt lat="0" lon="0">
        <time>2020-12-20T09:45:35.705000+00:00</time>
      </trkpt>
      <trkpt lat="47.35031" lon="-1.27362">
        <ele>73</ele>
        <time>2020-12-20T09:45:36.712000+00:00</time>
      </trkpt>
      <trkpt lat="0" lon="0">
        <time>2020-12-20T09:45:36.723000+00:00</time>
      </trkpt>
      <trkpt lat="0" lon="0">
        <time>2020-12-20T09:45:36.728000+00:00</time>
      </trkpt>
      <trkpt lat="0" lon="0">
        <time>2020-12-20T09:45:36.730000+00:00</time>
      </trkpt>
      <trkpt lat="47.35034" lon="-1.27362">
        <ele>72</ele>
        <time>2020-12-20T09:45:37.749000+00:00</time>
      </trkpt>
      <trkpt lat="0" lon="0">
        <time>2020-12-20T09:45:37.756000+00:00</time>
      </trkpt>
      <trkpt lat="0" lon="0">
        <time>2020-12-20T09:45:37.763000+00:00</time>
      </trkpt>
      <trkpt lat="0" lon="0">
        <time>2020-12-20T09:45:37.768000+00:00</time>
      </trkpt>
      <trkpt lat="47.35037" lon="-1.27362">
        <ele>73</ele>
        <time>2020-12-20T09:45:38.728000+00:00</time>
      </trkpt>
      <trkpt lat="0" lon="0">
        <time>2020-12-20T09:45:38.736000+00:00</time>
      </trkpt>
      <trkpt lat="0" lon="0">
        <time>2020-12-20T09:45:38.741000+00:00</time>
      </trkpt>
      <trkpt lat="0" lon="0">
        <time>2020-12-20T09:45:38.743000+00:00</time>
      </trkpt>
      <trkpt lat="47.3504" lon="-1.27362">
        <ele>73</ele>
        <time>2020-12-20T09:45:39.731000+00:00</time>
      </trkpt>
      <trkpt lat="0" lon="0">
        <time>2020-12-20T09:45:39.739000+00:00</time>
      </trkpt>
      <trkpt lat="0" lon="0">
        <time>2020-12-20T09:45:39.741000+00:00</time>
      </trkpt>
      <trkpt lat="0" lon="0">
        <time>2020-12-20T09:45:39.742000+00:00</time>
      </trkpt>
      <trkpt lat="47.35042" lon="-1.27363">
        <ele>73</ele>
        <time>2020-12-20T09:45:40.710000+00:00</time>
      </trkpt>
      <trkpt lat="0" lon="0">
        <time>2020-12-20T09:45:40.714000+00:00</time>
      </trkpt>
      <trkpt lat="0" lon="0">
        <time>2020-12-20T09:45:40.718000+00:00</time>
      </trkpt>
      <trkpt lat="0" lon="0">
        <time>2020-12-20T09:45:40.720000+00:00</time>
      </trkpt>
      <trkpt lat="47.35045" lon="-1.27363">
        <ele>72</ele>
        <time>2020-12-20T09:45:41.739000+00:00</time>
      </trkpt>
      <trkpt lat="0" lon="0">
        <time>2020-12-20T09:45:41.753000+00:00</time>
      </trkpt>
      <trkpt lat="0" lon="0">
        <time>2020-12-20T09:45:41.758000+00:00</time>
      </trkpt>
      <trkpt lat="0" lon="0">
        <time>2020-12-20T09:45:41.760000+00:00</time>
      </trkpt>
      <trkpt lat="47.35048" lon="-1.27363">
        <ele>73</ele>
        <time>2020-12-20T09:45:42.744000+00:00</time>
      </trkpt>
      <trkpt lat="0" lon="0">
        <time>2020-12-20T09:45:42.754000+00:00</time>
      </trkpt>
      <trkpt lat="0" lon="0">
        <time>2020-12-20T09:45:42.763000+00:00</time>
      </trkpt>
      <trkpt lat="0" lon="0">
        <time>2020-12-20T09:45:42.766000+00:00</time>
      </trkpt>
      <trkpt lat="47.3505" lon="-1.27363">
        <ele>73</ele>
        <time>2020-12-20T09:45:43.755000+00:00</time>
      </trkpt>
      <trkpt lat="0" lon="0">
        <time>2020-12-20T09:45:43.767000+00:00</time>
      </trkpt>
      <trkpt lat="0" lon="0">
        <time>2020-12-20T09:45:43.771000+00:00</time>
      </trkpt>
      <trkpt lat="0" lon="0">
        <time>2020-12-20T09:45:43.775000+00:00</time>
      </trkpt>
      <trkpt lat="47.35053" lon="-1.27363">
        <ele>73</ele>
        <time>2020-12-20T09:45:44.732000+00:00</time>
      </trkpt>
      <trkpt lat="0" lon="0">
        <time>2020-12-20T09:45:44.747000+00:00</time>
      </trkpt>
      <trkpt lat="0" lon="0">
        <time>2020-12-20T09:45:44.753000+00:00</time>
      </trkpt>
      <trkpt lat="0" lon="0">
        <time>2020-12-20T09:45:44.756000+00:00</time>
      </trkpt>
      <trkpt lat="47.35056" lon="-1.27364">
        <ele>73</ele>
        <time>2020-12-20T09:45:45.714000+00:00</time>
      </trkpt>
      <trkpt lat="0" lon="0">
        <time>2020-12-20T09:45:45.728000+00:00</time>
      </trkpt>
      <trkpt lat="0" lon="0">
        <time>2020-12-20T09:45:45.732000+00:00</time>
      </trkpt>
      <trkpt lat="0" lon="0">
        <time>2020-12-20T09:45:45.734000+00:00</time>
      </trkpt>
      <trkpt lat="47.35058" lon="-1.27364">
        <ele>73</ele>
        <time>2020-12-20T09:45:46.752000+00:00</time>
      </trkpt>
      <trkpt lat="0" lon="0">
        <time>2020-12-20T09:45:46.760000+00:00</time>
      </trkpt>
      <trkpt lat="0" lon="0">
        <time>2020-12-20T09:45:46.765000+00:00</time>
      </trkpt>
      <trkpt lat="0" lon="0">
        <time>2020-12-20T09:45:46.768000+00:00</time>
      </trkpt>
      <trkpt lat="47.35061" lon="-1.27364">
        <ele>74</ele>
        <time>2020-12-20T09:45:47.753000+00:00</time>
      </trkpt>
      <trkpt lat="0" lon="0">
        <time>2020-12-20T09:45:47.758000+00:00</time>
      </trkpt>
      <trkpt lat="0" lon="0">
        <time>2020-12-20T09:45:47.762000+00:00</time>
      </trkpt>
      <trkpt lat="0" lon="0">
        <time>2020-12-20T09:45:47.765000+00:00</time>
      </trkpt>
      <trkpt lat="47.35063" lon="-1.27364">
        <ele>74</ele>
        <time>2020-12-20T09:45:48.756000+00:00</time>
      </trkpt>
      <trkpt lat="0" lon="0">
        <time>2020-12-20T09:45:48.763000+00:00</time>
      </trkpt>
      <trkpt lat="0" lon="0">
        <time>2020-12-20T09:45:48.767000+00:00</time>
      </trkpt>
      <trkpt lat="0" lon="0">
        <time>2020-12-20T09:45:48.770000+00:00</time>
      </trkpt>
      <trkpt lat="47.35066" lon="-1.27364">
        <ele>74</ele>
        <time>2020-12-20T09:45:49.740000+00:00</time>
      </trkpt>
      <trkpt lat="0" lon="0">
        <time>2020-12-20T09:45:49.748000+00:00</time>
      </trkpt>
      <trkpt lat="0" lon="0">
        <time>2020-12-20T09:45:49.752000+00:00</time>
      </trkpt>
      <trkpt lat="0" lon="0">
        <time>2020-12-20T09:45:49.755000+00:00</time>
      </trkpt>
      <trkpt lat="47.35069" lon="-1.27364">
        <ele>74</ele>
        <time>2020-12-20T09:45:50.752000+00:00</time>
      </trkpt>
      <trkpt lat="0" lon="0">
        <time>2020-12-20T09:45:50.761000+00:00</time>
      </trkpt>
      <trkpt lat="0" lon="0">
        <time>2020-12-20T09:45:50.764000+00:00</time>
      </trkpt>
      <trkpt lat="0" lon="0">
        <time>2020-12-20T09:45:50.766000+00:00</time>
      </trkpt>
      <trkpt lat="47.35071" lon="-1.27364">
        <ele>74</ele>
        <time>2020-12-20T09:45:51.741000+00:00</time>
      </trkpt>
      <trkpt lat="0" lon="0">
        <time>2020-12-20T09:45:51.746000+00:00</time>
      </trkpt>
      <trkpt lat="0" lon="0">
        <time>2020-12-20T09:45:51.750000+00:00</time>
      </trkpt>
      <trkpt lat="0" lon="0">
        <time>2020-12-20T09:45:51.751000+00:00</time>
      </trkpt>
      <trkpt lat="47.35074" lon="-1.27364">
        <ele>75</ele>
        <time>2020-12-20T09:45:52.755000+00:00</time>
      </trkpt>
      <trkpt lat="0" lon="0">
        <time>2020-12-20T09:45:52.760000+00:00</time>
      </trkpt>
      <trkpt lat="0" lon="0">
        <time>2020-12-20T09:45:52.771000+00:00</time>
      </trkpt>
      <trkpt lat="0" lon="0">
        <time>2020-12-20T09:45:52.773000+00:00</time>
      </trkpt>
      <trkpt lat="47.35076" lon="-1.27364">
        <ele>75</ele>
        <time>2020-12-20T09:45:53.712000+00:00</time>
      </trkpt>
      <trkpt lat="0" lon="0">
        <time>2020-12-20T09:45:53.715000+00:00</time>
      </trkpt>
      <trkpt lat="0" lon="0">
        <time>2020-12-20T09:45:53.721000+00:00</time>
      </trkpt>
      <trkpt lat="0" lon="0">
        <time>2020-12-20T09:45:53.722000+00:00</time>
      </trkpt>
      <trkpt lat="47.35079" lon="-1.27365">
        <ele>75</ele>
        <time>2020-12-20T09:45:54.756000+00:00</time>
      </trkpt>
      <trkpt lat="0" lon="0">
        <time>2020-12-20T09:45:54.765000+00:00</time>
      </trkpt>
      <trkpt lat="0" lon="0">
        <time>2020-12-20T09:45:54.769000+00:00</time>
      </trkpt>
      <trkpt lat="0" lon="0">
        <time>2020-12-20T09:45:54.772000+00:00</time>
      </trkpt>
      <trkpt lat="47.35081" lon="-1.27365">
        <ele>74</ele>
        <time>2020-12-20T09:45:55.738000+00:00</time>
      </trkpt>
      <trkpt lat="0" lon="0">
        <time>2020-12-20T09:45:55.746000+00:00</time>
      </trkpt>
      <trkpt lat="0" lon="0">
        <time>2020-12-20T09:45:55.754000+00:00</time>
      </trkpt>
      <trkpt lat="0" lon="0">
        <time>2020-12-20T09:45:55.760000+00:00</time>
      </trkpt>
      <trkpt lat="47.35084" lon="-1.27365">
        <ele>75</ele>
        <time>2020-12-20T09:45:56.754000+00:00</time>
      </trkpt>
      <trkpt lat="0" lon="0">
        <time>2020-12-20T09:45:56.768000+00:00</time>
      </trkpt>
      <trkpt lat="0" lon="0">
        <time>2020-12-20T09:45:56.772000+00:00</time>
      </trkpt>
      <trkpt lat="0" lon="0">
        <time>2020-12-20T09:45:56.775000+00:00</time>
      </trkpt>
      <trkpt lat="47.35086" lon="-1.27365">
        <ele>75</ele>
        <time>2020-12-20T09:45:57.742000+00:00</time>
      </trkpt>
      <trkpt lat="0" lon="0">
        <time>2020-12-20T09:45:57.754000+00:00</time>
      </trkpt>
      <trkpt lat="0" lon="0">
        <time>2020-12-20T09:45:57.758000+00:00</time>
      </trkpt>
      <trkpt lat="0" lon="0">
        <time>2020-12-20T09:45:57.761000+00:00</time>
      </trkpt>
      <trkpt lat="47.35088" lon="-1.27365">
        <ele>76</ele>
        <time>2020-12-20T09:45:58.753000+00:00</time>
      </trkpt>
      <trkpt lat="0" lon="0">
        <time>2020-12-20T09:45:58.764000+00:00</time>
      </trkpt>
      <trkpt lat="0" lon="0">
        <time>2020-12-20T09:45:58.767000+00:00</time>
      </trkpt>
      <trkpt lat="0" lon="0">
        <time>2020-12-20T09:45:58.771000+00:00</time>
      </trkpt>
      <trkpt lat="47.35091" lon="-1.27365">
        <ele>76</ele>
        <time>2020-12-20T09:45:59.738000+00:00</time>
      </trkpt>
      <trkpt lat="0" lon="0">
        <time>2020-12-20T09:45:59.751000+00:00</time>
      </trkpt>
      <trkpt lat="0" lon="0">
        <time>2020-12-20T09:45:59.758000+00:00</time>
      </trkpt>
      <trkpt lat="0" lon="0">
        <time>2020-12-20T09:45:59.760000+00:00</time>
      </trkpt>
      <trkpt lat="47.35093" lon="-1.27365">
        <ele>76</ele>
        <time>2020-12-20T09:46:00.737000+00:00</time>
      </trkpt>
      <trkpt lat="0" lon="0">
        <time>2020-12-20T09:46:00.758000+00:00</time>
      </trkpt>
      <trkpt lat="0" lon="0">
        <time>2020-12-20T09:46:00.765000+00:00</time>
      </trkpt>
      <trkpt lat="0" lon="0">
        <time>2020-12-20T09:46:00.771000+00:00</time>
      </trkpt>
      <trkpt lat="47.35095" lon="-1.27365">
        <ele>76</ele>
        <time>2020-12-20T09:46:01.708000+00:00</time>
      </trkpt>
      <trkpt lat="0" lon="0">
        <time>2020-12-20T09:46:01.715000+00:00</time>
      </trkpt>
      <trkpt lat="0" lon="0">
        <time>2020-12-20T09:46:01.719000+00:00</time>
      </trkpt>
      <trkpt lat="0" lon="0">
        <time>2020-12-20T09:46:01.721000+00:00</time>
      </trkpt>
      <trkpt lat="47.35098" lon="-1.27365">
        <ele>76</ele>
        <time>2020-12-20T09:46:02.750000+00:00</time>
      </trkpt>
      <trkpt lat="0" lon="0">
        <time>2020-12-20T09:46:02.763000+00:00</time>
      </trkpt>
      <trkpt lat="0" lon="0">
        <time>2020-12-20T09:46:02.772000+00:00</time>
      </trkpt>
      <trkpt lat="0" lon="0">
        <time>2020-12-20T09:46:02.775000+00:00</time>
      </trkpt>
      <trkpt lat="47.351" lon="-1.27365">
        <ele>77</ele>
        <time>2020-12-20T09:46:03.740000+00:00</time>
      </trkpt>
      <trkpt lat="0" lon="0">
        <time>2020-12-20T09:46:03.748000+00:00</time>
      </trkpt>
      <trkpt lat="0" lon="0">
        <time>2020-12-20T09:46:03.752000+00:00</time>
      </trkpt>
      <trkpt lat="0" lon="0">
        <time>2020-12-20T09:46:03.754000+00:00</time>
      </trkpt>
      <trkpt lat="47.35102" lon="-1.27365">
        <ele>76</ele>
        <time>2020-12-20T09:46:04.739000+00:00</time>
      </trkpt>
      <trkpt lat="0" lon="0">
        <time>2020-12-20T09:46:04.751000+00:00</time>
      </trkpt>
      <trkpt lat="0" lon="0">
        <time>2020-12-20T09:46:04.753000+00:00</time>
      </trkpt>
      <trkpt lat="0" lon="0">
        <time>2020-12-20T09:46:04.754000+00:00</time>
      </trkpt>
      <trkpt lat="47.35104" lon="-1.27365">
        <ele>77</ele>
        <time>2020-12-20T09:46:05.741000+00:00</time>
      </trkpt>
      <trkpt lat="0" lon="0">
        <time>2020-12-20T09:46:05.752000+00:00</time>
      </trkpt>
      <trkpt lat="0" lon="0">
        <time>2020-12-20T09:46:05.766000+00:00</time>
      </trkpt>
      <trkpt lat="0" lon="0">
        <time>2020-12-20T09:46:05.770000+00:00</time>
      </trkpt>
      <trkpt lat="47.35107" lon="-1.27365">
        <ele>77</ele>
        <time>2020-12-20T09:46:06.683000+00:00</time>
      </trkpt>
      <trkpt lat="0" lon="0">
        <time>2020-12-20T09:46:06.691000+00:00</time>
      </trkpt>
      <trkpt lat="0" lon="0">
        <time>2020-12-20T09:46:06.695000+00:00</time>
      </trkpt>
      <trkpt lat="0" lon="0">
        <time>2020-12-20T09:46:06.696000+00:00</time>
      </trkpt>
      <trkpt lat="47.35109" lon="-1.27365">
        <ele>77</ele>
        <time>2020-12-20T09:46:07.710000+00:00</time>
      </trkpt>
      <trkpt lat="0" lon="0">
        <time>2020-12-20T09:46:07.713000+00:00</time>
      </trkpt>
      <trkpt lat="0" lon="0">
        <time>2020-12-20T09:46:07.716000+00:00</time>
      </trkpt>
      <trkpt lat="0" lon="0">
        <time>2020-12-20T09:46:07.718000+00:00</time>
      </trkpt>
      <trkpt lat="47.35111" lon="-1.27366">
        <ele>77</ele>
        <time>2020-12-20T09:46:08.755000+00:00</time>
      </trkpt>
      <trkpt lat="0" lon="0">
        <time>2020-12-20T09:46:08.764000+00:00</time>
      </trkpt>
      <trkpt lat="0" lon="0">
        <time>2020-12-20T09:46:08.769000+00:00</time>
      </trkpt>
      <trkpt lat="0" lon="0">
        <time>2020-12-20T09:46:08.772000+00:00</time>
      </trkpt>
      <trkpt lat="47.35113" lon="-1.27366">
        <ele>77</ele>
        <time>2020-12-20T09:46:09.697000+00:00</time>
      </trkpt>
      <trkpt lat="0" lon="0">
        <time>2020-12-20T09:46:09.716000+00:00</time>
      </trkpt>
      <trkpt lat="0" lon="0">
        <time>2020-12-20T09:46:09.722000+00:00</time>
      </trkpt>
      <trkpt lat="0" lon="0">
        <time>2020-12-20T09:46:09.724000+00:00</time>
      </trkpt>
      <trkpt lat="47.35115" lon="-1.27366">
        <ele>77</ele>
        <time>2020-12-20T09:46:10.745000+00:00</time>
      </trkpt>
      <trkpt lat="0" lon="0">
        <time>2020-12-20T09:46:10.753000+00:00</time>
      </trkpt>
      <trkpt lat="0" lon="0">
        <time>2020-12-20T09:46:10.757000+00:00</time>
      </trkpt>
      <trkpt lat="0" lon="0">
        <time>2020-12-20T09:46:10.759000+00:00</time>
      </trkpt>
      <trkpt lat="47.35116" lon="-1.27366">
        <ele>77</ele>
        <time>2020-12-20T09:46:11.737000+00:00</time>
      </trkpt>
      <trkpt lat="0" lon="0">
        <time>2020-12-20T09:46:11.747000+00:00</time>
      </trkpt>
      <trkpt lat="0" lon="0">
        <time>2020-12-20T09:46:11.756000+00:00</time>
      </trkpt>
      <trkpt lat="0" lon="0">
        <time>2020-12-20T09:46:11.763000+00:00</time>
      </trkpt>
      <trkpt lat="47.35118" lon="-1.27367">
        <ele>77</ele>
        <time>2020-12-20T09:46:12.743000+00:00</time>
      </trkpt>
      <trkpt lat="0" lon="0">
        <time>2020-12-20T09:46:12.756000+00:00</time>
      </trkpt>
      <trkpt lat="0" lon="0">
        <time>2020-12-20T09:46:12.769000+00:00</time>
      </trkpt>
      <trkpt lat="0" lon="0">
        <time>2020-12-20T09:46:12.771000+00:00</time>
      </trkpt>
      <trkpt lat="47.3512" lon="-1.27367">
        <ele>78</ele>
        <time>2020-12-20T09:46:13.730000+00:00</time>
      </trkpt>
      <trkpt lat="0" lon="0">
        <time>2020-12-20T09:46:13.740000+00:00</time>
      </trkpt>
      <trkpt lat="0" lon="0">
        <time>2020-12-20T09:46:13.746000+00:00</time>
      </trkpt>
      <trkpt lat="0" lon="0">
        <time>2020-12-20T09:46:13.749000+00:00</time>
      </trkpt>
      <trkpt lat="47.35121" lon="-1.27367">
        <ele>78</ele>
        <time>2020-12-20T09:46:14.718000+00:00</time>
      </trkpt>
      <trkpt lat="0" lon="0">
        <time>2020-12-20T09:46:14.723000+00:00</time>
      </trkpt>
      <trkpt lat="0" lon="0">
        <time>2020-12-20T09:46:14.735000+00:00</time>
      </trkpt>
      <trkpt lat="0" lon="0">
        <time>2020-12-20T09:46:14.737000+00:00</time>
      </trkpt>
      <trkpt lat="47.35122" lon="-1.27368">
        <ele>78</ele>
        <time>2020-12-20T09:46:15.761000+00:00</time>
      </trkpt>
      <trkpt lat="0" lon="0">
        <time>2020-12-20T09:46:15.773000+00:00</time>
      </trkpt>
      <trkpt lat="0" lon="0">
        <time>2020-12-20T09:46:15.778000+00:00</time>
      </trkpt>
      <trkpt lat="0" lon="0">
        <time>2020-12-20T09:46:15.781000+00:00</time>
      </trkpt>
      <trkpt lat="47.35124" lon="-1.27368">
        <ele>78</ele>
        <time>2020-12-20T09:46:16.749000+00:00</time>
      </trkpt>
      <trkpt lat="0" lon="0">
        <time>2020-12-20T09:46:16.759000+00:00</time>
      </trkpt>
      <trkpt lat="0" lon="0">
        <time>2020-12-20T09:46:16.765000+00:00</time>
      </trkpt>
      <trkpt lat="0" lon="0">
        <time>2020-12-20T09:46:16.767000+00:00</time>
      </trkpt>
      <trkpt lat="47.35124" lon="-1.27369">
        <ele>78</ele>
        <time>2020-12-20T09:46:17.728000+00:00</time>
      </trkpt>
      <trkpt lat="0" lon="0">
        <time>2020-12-20T09:46:17.739000+00:00</time>
      </trkpt>
      <trkpt lat="0" lon="0">
        <time>2020-12-20T09:46:17.745000+00:00</time>
      </trkpt>
      <trkpt lat="0" lon="0">
        <time>2020-12-20T09:46:17.747000+00:00</time>
      </trkpt>
      <trkpt lat="47.35125" lon="-1.2737">
        <ele>78</ele>
        <time>2020-12-20T09:46:18.755000+00:00</time>
      </trkpt>
      <trkpt lat="0" lon="0">
        <time>2020-12-20T09:46:18.761000+00:00</time>
      </trkpt>
      <trkpt lat="0" lon="0">
        <time>2020-12-20T09:46:18.764000+00:00</time>
      </trkpt>
      <trkpt lat="47.35125" lon="-1.27371">
        <ele>78</ele>
        <time>2020-12-20T09:46:19.678000+00:00</time>
      </trkpt>
      <trkpt lat="0" lon="0">
        <time>2020-12-20T09:46:19.689000+00:00</time>
      </trkpt>
      <trkpt lat="0" lon="0">
        <time>2020-12-20T09:46:19.691000+00:00</time>
      </trkpt>
      <trkpt lat="47.35124" lon="-1.27371">
        <ele>76</ele>
        <time>2020-12-20T09:46:20.706000+00:00</time>
      </trkpt>
      <trkpt lat="0" lon="0">
        <time>2020-12-20T09:46:20.724000+00:00</time>
      </trkpt>
      <trkpt lat="0" lon="0">
        <time>2020-12-20T09:46:20.737000+00:00</time>
      </trkpt>
      <trkpt lat="0" lon="0">
        <time>2020-12-20T09:46:20.741000+00:00</time>
      </trkpt>
      <trkpt lat="47.35124" lon="-1.27372">
        <ele>75</ele>
        <time>2020-12-20T09:46:21.694000+00:00</time>
      </trkpt>
      <trkpt lat="0" lon="0">
        <time>2020-12-20T09:46:21.702000+00:00</time>
      </trkpt>
      <trkpt lat="0" lon="0">
        <time>2020-12-20T09:46:21.706000+00:00</time>
      </trkpt>
      <trkpt lat="0" lon="0">
        <time>2020-12-20T09:46:21.709000+00:00</time>
      </trkpt>
      <trkpt lat="47.35124" lon="-1.27373">
        <ele>75</ele>
        <time>2020-12-20T09:46:22.727000+00:00</time>
      </trkpt>
      <trkpt lat="0" lon="0">
        <time>2020-12-20T09:46:22.739000+00:00</time>
      </trkpt>
      <trkpt lat="0" lon="0">
        <time>2020-12-20T09:46:22.744000+00:00</time>
      </trkpt>
      <trkpt lat="0" lon="0">
        <time>2020-12-20T09:46:22.746000+00:00</time>
      </trkpt>
      <trkpt lat="47.35123" lon="-1.27373">
        <ele>75</ele>
        <time>2020-12-20T09:46:23.700000+00:00</time>
      </trkpt>
      <trkpt lat="0" lon="0">
        <time>2020-12-20T09:46:23.712000+00:00</time>
      </trkpt>
      <trkpt lat="0" lon="0">
        <time>2020-12-20T09:46:23.720000+00:00</time>
      </trkpt>
      <trkpt lat="0" lon="0">
        <time>2020-12-20T09:46:23.722000+00:00</time>
      </trkpt>
      <trkpt lat="47.35123" lon="-1.27373">
        <ele>75</ele>
        <time>2020-12-20T09:46:24.701000+00:00</time>
      </trkpt>
      <trkpt lat="0" lon="0">
        <time>2020-12-20T09:46:24.708000+00:00</time>
      </trkpt>
      <trkpt lat="0" lon="0">
        <time>2020-12-20T09:46:24.710000+00:00</time>
      </trkpt>
      <trkpt lat="0" lon="0">
        <time>2020-12-20T09:46:24.721000+00:00</time>
      </trkpt>
      <trkpt lat="47.35111" lon="-1.27404">
        <ele>72</ele>
        <time>2020-12-20T09:46:25.667000+00:00</time>
      </trkpt>
      <trkpt lat="0" lon="0">
        <time>2020-12-20T09:46:25.671000+00:00</time>
      </trkpt>
      <trkpt lat="0" lon="0">
        <time>2020-12-20T09:46:25.675000+00:00</time>
      </trkpt>
      <trkpt lat="0" lon="0">
        <time>2020-12-20T09:46:25.677000+00:00</time>
      </trkpt>
      <trkpt lat="47.35109" lon="-1.27411">
        <ele>71</ele>
        <time>2020-12-20T09:46:26.689000+00:00</time>
      </trkpt>
      <trkpt lat="0" lon="0">
        <time>2020-12-20T09:46:26.696000+00:00</time>
      </trkpt>
      <trkpt lat="0" lon="0">
        <time>2020-12-20T09:46:26.700000+00:00</time>
      </trkpt>
      <trkpt lat="0" lon="0">
        <time>2020-12-20T09:46:26.708000+00:00</time>
      </trkpt>
      <trkpt lat="47.35106" lon="-1.27418">
        <ele>70</ele>
        <time>2020-12-20T09:46:27.701000+00:00</time>
      </trkpt>
      <trkpt lat="0" lon="0">
        <time>2020-12-20T09:46:27.717000+00:00</time>
      </trkpt>
      <trkpt lat="0" lon="0">
        <time>2020-12-20T09:46:27.723000+00:00</time>
      </trkpt>
      <trkpt lat="0" lon="0">
        <time>2020-12-20T09:46:27.729000+00:00</time>
      </trkpt>
      <trkpt lat="47.35102" lon="-1.27425">
        <ele>70</ele>
        <time>2020-12-20T09:46:28.702000+00:00</time>
      </trkpt>
      <trkpt lat="0" lon="0">
        <time>2020-12-20T09:46:28.709000+00:00</time>
      </trkpt>
      <trkpt lat="0" lon="0">
        <time>2020-12-20T09:46:28.714000+00:00</time>
      </trkpt>
      <trkpt lat="0" lon="0">
        <time>2020-12-20T09:46:28.725000+00:00</time>
      </trkpt>
      <trkpt lat="47.35098" lon="-1.27434">
        <ele>69</ele>
        <time>2020-12-20T09:46:29.698000+00:00</time>
      </trkpt>
      <trkpt lat="0" lon="0">
        <time>2020-12-20T09:46:29.713000+00:00</time>
      </trkpt>
      <trkpt lat="0" lon="0">
        <time>2020-12-20T09:46:29.719000+00:00</time>
      </trkpt>
      <trkpt lat="0" lon="0">
        <time>2020-12-20T09:46:29.722000+00:00</time>
      </trkpt>
      <trkpt lat="47.35094" lon="-1.27443">
        <ele>68</ele>
        <time>2020-12-20T09:46:30.628000+00:00</time>
      </trkpt>
      <trkpt lat="0" lon="0">
        <time>2020-12-20T09:46:30.636000+00:00</time>
      </trkpt>
      <trkpt lat="0" lon="0">
        <time>2020-12-20T09:46:30.641000+00:00</time>
      </trkpt>
      <trkpt lat="0" lon="0">
        <time>2020-12-20T09:46:30.642000+00:00</time>
      </trkpt>
      <trkpt lat="47.3509" lon="-1.27452">
        <ele>68</ele>
        <time>2020-12-20T09:46:31.679000+00:00</time>
      </trkpt>
      <trkpt lat="0" lon="0">
        <time>2020-12-20T09:46:31.693000+00:00</time>
      </trkpt>
      <trkpt lat="0" lon="0">
        <time>2020-12-20T09:46:31.698000+00:00</time>
      </trkpt>
      <trkpt lat="0" lon="0">
        <time>2020-12-20T09:46:31.701000+00:00</time>
      </trkpt>
      <trkpt lat="47.35085" lon="-1.27462">
        <ele>67</ele>
        <time>2020-12-20T09:46:32.690000+00:00</time>
      </trkpt>
      <trkpt lat="0" lon="0">
        <time>2020-12-20T09:46:32.701000+00:00</time>
      </trkpt>
      <trkpt lat="0" lon="0">
        <time>2020-12-20T09:46:32.713000+00:00</time>
      </trkpt>
      <trkpt lat="0" lon="0">
        <time>2020-12-20T09:46:32.723000+00:00</time>
      </trkpt>
      <trkpt lat="47.3508" lon="-1.27473">
        <ele>67</ele>
        <time>2020-12-20T09:46:33.627000+00:00</time>
      </trkpt>
      <trkpt lat="0" lon="0">
        <time>2020-12-20T09:46:33.637000+00:00</time>
      </trkpt>
      <trkpt lat="0" lon="0">
        <time>2020-12-20T09:46:33.644000+00:00</time>
      </trkpt>
      <trkpt lat="0" lon="0">
        <time>2020-12-20T09:46:33.646000+00:00</time>
      </trkpt>
      <trkpt lat="47.35075" lon="-1.27484">
        <ele>66</ele>
        <time>2020-12-20T09:46:34.683000+00:00</time>
      </trkpt>
      <trkpt lat="0" lon="0">
        <time>2020-12-20T09:46:34.688000+00:00</time>
      </trkpt>
      <trkpt lat="0" lon="0">
        <time>2020-12-20T09:46:34.694000+00:00</time>
      </trkpt>
      <trkpt lat="0" lon="0">
        <time>2020-12-20T09:46:34.696000+00:00</time>
      </trkpt>
      <trkpt lat="47.3507" lon="-1.27495">
        <ele>66</ele>
        <time>2020-12-20T09:46:35.711000+00:00</time>
      </trkpt>
      <trkpt lat="0" lon="0">
        <time>2020-12-20T09:46:35.724000+00:00</time>
      </trkpt>
      <trkpt lat="0" lon="0">
        <time>2020-12-20T09:46:35.732000+00:00</time>
      </trkpt>
      <trkpt lat="0" lon="0">
        <time>2020-12-20T09:46:35.735000+00:00</time>
      </trkpt>
      <trkpt lat="47.35065" lon="-1.27507">
        <ele>66</ele>
        <time>2020-12-20T09:46:36.686000+00:00</time>
      </trkpt>
      <trkpt lat="0" lon="0">
        <time>2020-12-20T09:46:36.693000+00:00</time>
      </trkpt>
      <trkpt lat="0" lon="0">
        <time>2020-12-20T09:46:36.696000+00:00</time>
      </trkpt>
      <trkpt lat="0" lon="0">
        <time>2020-12-20T09:46:36.697000+00:00</time>
      </trkpt>
      <trkpt lat="47.3506" lon="-1.27518">
        <ele>65</ele>
        <time>2020-12-20T09:46:37.709000+00:00</time>
      </trkpt>
      <trkpt lat="0" lon="0">
        <time>2020-12-20T09:46:37.725000+00:00</time>
      </trkpt>
      <trkpt lat="0" lon="0">
        <time>2020-12-20T09:46:37.731000+00:00</time>
      </trkpt>
      <trkpt lat="0" lon="0">
        <time>2020-12-20T09:46:37.734000+00:00</time>
      </trkpt>
      <trkpt lat="47.35055" lon="-1.2753">
        <ele>65</ele>
        <time>2020-12-20T09:46:38.690000+00:00</time>
      </trkpt>
      <trkpt lat="0" lon="0">
        <time>2020-12-20T09:46:38.698000+00:00</time>
      </trkpt>
      <trkpt lat="0" lon="0">
        <time>2020-12-20T09:46:38.706000+00:00</time>
      </trkpt>
      <trkpt lat="0" lon="0">
        <time>2020-12-20T09:46:38.710000+00:00</time>
      </trkpt>
      <trkpt lat="47.35051" lon="-1.27542">
        <ele>65</ele>
        <time>2020-12-20T09:46:39.694000+00:00</time>
      </trkpt>
      <trkpt lat="0" lon="0">
        <time>2020-12-20T09:46:39.703000+00:00</time>
      </trkpt>
      <trkpt lat="0" lon="0">
        <time>2020-12-20T09:46:39.706000+00:00</time>
      </trkpt>
      <trkpt lat="0" lon="0">
        <time>2020-12-20T09:46:39.709000+00:00</time>
      </trkpt>
      <trkpt lat="47.35046" lon="-1.27554">
        <ele>65</ele>
        <time>2020-12-20T09:46:40.714000+00:00</time>
      </trkpt>
      <trkpt lat="0" lon="0">
        <time>2020-12-20T09:46:40.725000+00:00</time>
      </trkpt>
      <trkpt lat="0" lon="0">
        <time>2020-12-20T09:46:40.735000+00:00</time>
      </trkpt>
      <trkpt lat="0" lon="0">
        <time>2020-12-20T09:46:40.737000+00:00</time>
      </trkpt>
      <trkpt lat="47.35042" lon="-1.27565">
        <ele>65</ele>
        <time>2020-12-20T09:46:41.664000+00:00</time>
      </trkpt>
      <trkpt lat="0" lon="0">
        <time>2020-12-20T09:46:41.673000+00:00</time>
      </trkpt>
      <trkpt lat="0" lon="0">
        <time>2020-12-20T09:46:41.680000+00:00</time>
      </trkpt>
      <trkpt lat="0" lon="0">
        <time>2020-12-20T09:46:41.682000+00:00</time>
      </trkpt>
      <trkpt lat="47.35039" lon="-1.27577">
        <ele>65</ele>
        <time>2020-12-20T09:46:42.694000+00:00</time>
      </trkpt>
      <trkpt lat="0" lon="0">
        <time>2020-12-20T09:46:42.698000+00:00</time>
      </trkpt>
      <trkpt lat="0" lon="0">
        <time>2020-12-20T09:46:42.701000+00:00</time>
      </trkpt>
      <trkpt lat="0" lon="0">
        <time>2020-12-20T09:46:42.703000+00:00</time>
      </trkpt>
      <trkpt lat="47.35036" lon="-1.27588">
        <ele>65</ele>
        <time>2020-12-20T09:46:43.673000+00:00</time>
      </trkpt>
      <trkpt lat="0" lon="0">
        <time>2020-12-20T09:46:43.681000+00:00</time>
      </trkpt>
      <trkpt lat="0" lon="0">
        <time>2020-12-20T09:46:43.688000+00:00</time>
      </trkpt>
      <trkpt lat="0" lon="0">
        <time>2020-12-20T09:46:43.691000+00:00</time>
      </trkpt>
      <trkpt lat="47.35033" lon="-1.27598">
        <ele>65</ele>
        <time>2020-12-20T09:46:44.693000+00:00</time>
      </trkpt>
      <trkpt lat="0" lon="0">
        <time>2020-12-20T09:46:44.698000+00:00</time>
      </trkpt>
      <trkpt lat="0" lon="0">
        <time>2020-12-20T09:46:44.703000+00:00</time>
      </trkpt>
      <trkpt lat="0" lon="0">
        <time>2020-12-20T09:46:44.707000+00:00</time>
      </trkpt>
      <trkpt lat="47.35031" lon="-1.27608">
        <ele>64</ele>
        <time>2020-12-20T09:46:45.710000+00:00</time>
      </trkpt>
      <trkpt lat="0" lon="0">
        <time>2020-12-20T09:46:45.724000+00:00</time>
      </trkpt>
      <trkpt lat="0" lon="0">
        <time>2020-12-20T09:46:45.729000+00:00</time>
      </trkpt>
      <trkpt lat="0" lon="0">
        <time>2020-12-20T09:46:45.734000+00:00</time>
      </trkpt>
      <trkpt lat="47.35029" lon="-1.27617">
        <ele>64</ele>
        <time>2020-12-20T09:46:46.678000+00:00</time>
      </trkpt>
      <trkpt lat="0" lon="0">
        <time>2020-12-20T09:46:46.690000+00:00</time>
      </trkpt>
      <trkpt lat="0" lon="0">
        <time>2020-12-20T09:46:46.693000+00:00</time>
      </trkpt>
      <trkpt lat="0" lon="0">
        <time>2020-12-20T09:46:46.695000+00:00</time>
      </trkpt>
      <trkpt lat="47.35028" lon="-1.27626">
        <ele>65</ele>
        <time>2020-12-20T09:46:47.701000+00:00</time>
      </trkpt>
      <trkpt lat="0" lon="0">
        <time>2020-12-20T09:46:47.706000+00:00</time>
      </trkpt>
      <trkpt lat="0" lon="0">
        <time>2020-12-20T09:46:47.719000+00:00</time>
      </trkpt>
      <trkpt lat="0" lon="0">
        <time>2020-12-20T09:46:47.725000+00:00</time>
      </trkpt>
      <trkpt lat="47.35027" lon="-1.27633">
        <ele>65</ele>
        <time>2020-12-20T09:46:48.707000+00:00</time>
      </trkpt>
      <trkpt lat="0" lon="0">
        <time>2020-12-20T09:46:48.711000+00:00</time>
      </trkpt>
      <trkpt lat="0" lon="0">
        <time>2020-12-20T09:46:48.725000+00:00</time>
      </trkpt>
      <trkpt lat="0" lon="0">
        <time>2020-12-20T09:46:48.728000+00:00</time>
      </trkpt>
      <trkpt lat="47.35026" lon="-1.2764">
        <ele>65</ele>
        <time>2020-12-20T09:46:49.698000+00:00</time>
      </trkpt>
      <trkpt lat="0" lon="0">
        <time>2020-12-20T09:46:49.715000+00:00</time>
      </trkpt>
      <trkpt lat="0" lon="0">
        <time>2020-12-20T09:46:49.719000+00:00</time>
      </trkpt>
      <trkpt lat="0" lon="0">
        <time>2020-12-20T09:46:49.725000+00:00</time>
      </trkpt>
      <trkpt lat="47.35026" lon="-1.27646">
        <ele>64</ele>
        <time>2020-12-20T09:46:50.661000+00:00</time>
      </trkpt>
      <trkpt lat="0" lon="0">
        <time>2020-12-20T09:46:50.667000+00:00</time>
      </trkpt>
      <trkpt lat="0" lon="0">
        <time>2020-12-20T09:46:50.671000+00:00</time>
      </trkpt>
      <trkpt lat="0" lon="0">
        <time>2020-12-20T09:46:50.674000+00:00</time>
      </trkpt>
      <trkpt lat="47.35026" lon="-1.27652">
        <ele>64</ele>
        <time>2020-12-20T09:46:51.686000+00:00</time>
      </trkpt>
      <trkpt lat="0" lon="0">
        <time>2020-12-20T09:46:51.691000+00:00</time>
      </trkpt>
      <trkpt lat="0" lon="0">
        <time>2020-12-20T09:46:51.698000+00:00</time>
      </trkpt>
      <trkpt lat="0" lon="0">
        <time>2020-12-20T09:46:51.701000+00:00</time>
      </trkpt>
      <trkpt lat="47.35026" lon="-1.27656">
        <ele>65</ele>
        <time>2020-12-20T09:46:52.738000+00:00</time>
      </trkpt>
      <trkpt lat="0" lon="0">
        <time>2020-12-20T09:46:52.746000+00:00</time>
      </trkpt>
      <trkpt lat="0" lon="0">
        <time>2020-12-20T09:46:52.756000+00:00</time>
      </trkpt>
      <trkpt lat="0" lon="0">
        <time>2020-12-20T09:46:52.761000+00:00</time>
      </trkpt>
      <trkpt lat="47.35026" lon="-1.2766">
        <ele>64</ele>
        <time>2020-12-20T09:46:53.711000+00:00</time>
      </trkpt>
      <trkpt lat="0" lon="0">
        <time>2020-12-20T09:46:53.713000+00:00</time>
      </trkpt>
      <trkpt lat="0" lon="0">
        <time>2020-12-20T09:46:53.715000+00:00</time>
      </trkpt>
      <trkpt lat="0" lon="0">
        <time>2020-12-20T09:46:53.718000+00:00</time>
      </trkpt>
      <trkpt lat="47.35026" lon="-1.27664">
        <ele>64</ele>
        <time>2020-12-20T09:46:54.700000+00:00</time>
      </trkpt>
      <trkpt lat="0" lon="0">
        <time>2020-12-20T09:46:54.705000+00:00</time>
      </trkpt>
      <trkpt lat="0" lon="0">
        <time>2020-12-20T09:46:54.711000+00:00</time>
      </trkpt>
      <trkpt lat="0" lon="0">
        <time>2020-12-20T09:46:54.714000+00:00</time>
      </trkpt>
      <trkpt lat="47.35027" lon="-1.27667">
        <ele>65</ele>
        <time>2020-12-20T09:46:55.702000+00:00</time>
      </trkpt>
      <trkpt lat="0" lon="0">
        <time>2020-12-20T09:46:55.717000+00:00</time>
      </trkpt>
      <trkpt lat="0" lon="0">
        <time>2020-12-20T09:46:55.722000+00:00</time>
      </trkpt>
      <trkpt lat="0" lon="0">
        <time>2020-12-20T09:46:55.724000+00:00</time>
      </trkpt>
      <trkpt lat="47.35028" lon="-1.2767">
        <ele>65</ele>
        <time>2020-12-20T09:46:56.706000+00:00</time>
      </trkpt>
      <trkpt lat="0" lon="0">
        <time>2020-12-20T09:46:56.720000+00:00</time>
      </trkpt>
      <trkpt lat="0" lon="0">
        <time>2020-12-20T09:46:56.727000+00:00</time>
      </trkpt>
      <trkpt lat="0" lon="0">
        <time>2020-12-20T09:46:56.729000+00:00</time>
      </trkpt>
      <trkpt lat="47.35029" lon="-1.27673">
        <ele>65</ele>
        <time>2020-12-20T09:46:57.724000+00:00</time>
      </trkpt>
      <trkpt lat="0" lon="0">
        <time>2020-12-20T09:46:57.730000+00:00</time>
      </trkpt>
      <trkpt lat="0" lon="0">
        <time>2020-12-20T09:46:57.737000+00:00</time>
      </trkpt>
      <trkpt lat="0" lon="0">
        <time>2020-12-20T09:46:57.739000+00:00</time>
      </trkpt>
      <trkpt lat="47.3503" lon="-1.27676">
        <ele>65</ele>
        <time>2020-12-20T09:46:58.698000+00:00</time>
      </trkpt>
      <trkpt lat="0" lon="0">
        <time>2020-12-20T09:46:58.703000+00:00</time>
      </trkpt>
      <trkpt lat="0" lon="0">
        <time>2020-12-20T09:46:58.709000+00:00</time>
      </trkpt>
      <trkpt lat="0" lon="0">
        <time>2020-12-20T09:46:58.711000+00:00</time>
      </trkpt>
      <trkpt lat="47.35031" lon="-1.27678">
        <ele>65</ele>
        <time>2020-12-20T09:46:59.687000+00:00</time>
      </trkpt>
      <trkpt lat="0" lon="0">
        <time>2020-12-20T09:46:59.691000+00:00</time>
      </trkpt>
      <trkpt lat="0" lon="0">
        <time>2020-12-20T09:46:59.701000+00:00</time>
      </trkpt>
      <trkpt lat="0" lon="0">
        <time>2020-12-20T09:46:59.705000+00:00</time>
      </trkpt>
      <trkpt lat="47.35031" lon="-1.27681">
        <ele>66</ele>
        <time>2020-12-20T09:47:00.688000+00:00</time>
      </trkpt>
      <trkpt lat="0" lon="0">
        <time>2020-12-20T09:47:00.697000+00:00</time>
      </trkpt>
      <trkpt lat="0" lon="0">
        <time>2020-12-20T09:47:00.701000+00:00</time>
      </trkpt>
      <trkpt lat="0" lon="0">
        <time>2020-12-20T09:47:00.703000+00:00</time>
      </trkpt>
      <trkpt lat="47.35031" lon="-1.27684">
        <ele>66</ele>
        <time>2020-12-20T09:47:01.643000+00:00</time>
      </trkpt>
      <trkpt lat="0" lon="0">
        <time>2020-12-20T09:47:01.653000+00:00</time>
      </trkpt>
      <trkpt lat="0" lon="0">
        <time>2020-12-20T09:47:01.656000+00:00</time>
      </trkpt>
      <trkpt lat="0" lon="0">
        <time>2020-12-20T09:47:01.657000+00:00</time>
      </trkpt>
      <trkpt lat="47.35031" lon="-1.27687">
        <ele>66</ele>
        <time>2020-12-20T09:47:02.723000+00:00</time>
      </trkpt>
      <trkpt lat="0" lon="0">
        <time>2020-12-20T09:47:02.731000+00:00</time>
      </trkpt>
      <trkpt lat="0" lon="0">
        <time>2020-12-20T09:47:02.736000+00:00</time>
      </trkpt>
      <trkpt lat="0" lon="0">
        <time>2020-12-20T09:47:02.738000+00:00</time>
      </trkpt>
      <trkpt lat="47.35031" lon="-1.2769">
        <ele>66</ele>
        <time>2020-12-20T09:47:03.694000+00:00</time>
      </trkpt>
      <trkpt lat="0" lon="0">
        <time>2020-12-20T09:47:03.727000+00:00</time>
      </trkpt>
      <trkpt lat="0" lon="0">
        <time>2020-12-20T09:47:03.738000+00:00</time>
      </trkpt>
      <trkpt lat="0" lon="0">
        <time>2020-12-20T09:47:03.741000+00:00</time>
      </trkpt>
      <trkpt lat="47.35031" lon="-1.27692">
        <ele>66</ele>
        <time>2020-12-20T09:47:04.695000+00:00</time>
      </trkpt>
      <trkpt lat="0" lon="0">
        <time>2020-12-20T09:47:04.704000+00:00</time>
      </trkpt>
      <trkpt lat="0" lon="0">
        <time>2020-12-20T09:47:04.708000+00:00</time>
      </trkpt>
      <trkpt lat="0" lon="0">
        <time>2020-12-20T09:47:04.711000+00:00</time>
      </trkpt>
      <trkpt lat="47.35031" lon="-1.27695">
        <ele>66</ele>
        <time>2020-12-20T09:47:05.688000+00:00</time>
      </trkpt>
      <trkpt lat="0" lon="0">
        <time>2020-12-20T09:47:05.695000+00:00</time>
      </trkpt>
      <trkpt lat="0" lon="0">
        <time>2020-12-20T09:47:05.699000+00:00</time>
      </trkpt>
      <trkpt lat="0" lon="0">
        <time>2020-12-20T09:47:05.701000+00:00</time>
      </trkpt>
      <trkpt lat="47.35031" lon="-1.27697">
        <ele>66</ele>
        <time>2020-12-20T09:47:06.693000+00:00</time>
      </trkpt>
      <trkpt lat="0" lon="0">
        <time>2020-12-20T09:47:06.699000+00:00</time>
      </trkpt>
      <trkpt lat="0" lon="0">
        <time>2020-12-20T09:47:06.704000+00:00</time>
      </trkpt>
      <trkpt lat="0" lon="0">
        <time>2020-12-20T09:47:06.706000+00:00</time>
      </trkpt>
      <trkpt lat="47.35031" lon="-1.27699">
        <ele>66</ele>
        <time>2020-12-20T09:47:07.729000+00:00</time>
      </trkpt>
      <trkpt lat="0" lon="0">
        <time>2020-12-20T09:47:07.736000+00:00</time>
      </trkpt>
      <trkpt lat="0" lon="0">
        <time>2020-12-20T09:47:07.742000+00:00</time>
      </trkpt>
      <trkpt lat="0" lon="0">
        <time>2020-12-20T09:47:07.744000+00:00</time>
      </trkpt>
      <trkpt lat="47.35031" lon="-1.27702">
        <ele>67</ele>
        <time>2020-12-20T09:47:08.672000+00:00</time>
      </trkpt>
      <trkpt lat="0" lon="0">
        <time>2020-12-20T09:47:08.686000+00:00</time>
      </trkpt>
      <trkpt lat="0" lon="0">
        <time>2020-12-20T09:47:08.690000+00:00</time>
      </trkpt>
      <trkpt lat="0" lon="0">
        <time>2020-12-20T09:47:08.697000+00:00</time>
      </trkpt>
      <trkpt lat="47.3503" lon="-1.27704">
        <ele>67</ele>
        <time>2020-12-20T09:47:09.658000+00:00</time>
      </trkpt>
      <trkpt lat="0" lon="0">
        <time>2020-12-20T09:47:09.670000+00:00</time>
      </trkpt>
      <trkpt lat="0" lon="0">
        <time>2020-12-20T09:47:09.679000+00:00</time>
      </trkpt>
      <trkpt lat="0" lon="0">
        <time>2020-12-20T09:47:09.682000+00:00</time>
      </trkpt>
      <trkpt lat="47.3503" lon="-1.27707">
        <ele>67</ele>
        <time>2020-12-20T09:47:10.675000+00:00</time>
      </trkpt>
      <trkpt lat="0" lon="0">
        <time>2020-12-20T09:47:10.690000+00:00</time>
      </trkpt>
      <trkpt lat="0" lon="0">
        <time>2020-12-20T09:47:10.696000+00:00</time>
      </trkpt>
      <trkpt lat="0" lon="0">
        <time>2020-12-20T09:47:10.702000+00:00</time>
      </trkpt>
      <trkpt lat="47.3503" lon="-1.27709">
        <ele>67</ele>
        <time>2020-12-20T09:47:11.727000+00:00</time>
      </trkpt>
      <trkpt lat="0" lon="0">
        <time>2020-12-20T09:47:11.739000+00:00</time>
      </trkpt>
      <trkpt lat="0" lon="0">
        <time>2020-12-20T09:47:11.744000+00:00</time>
      </trkpt>
      <trkpt lat="0" lon="0">
        <time>2020-12-20T09:47:11.747000+00:00</time>
      </trkpt>
      <trkpt lat="47.3503" lon="-1.27712">
        <ele>67</ele>
        <time>2020-12-20T09:47:12.654000+00:00</time>
      </trkpt>
      <trkpt lat="0" lon="0">
        <time>2020-12-20T09:47:12.658000+00:00</time>
      </trkpt>
      <trkpt lat="0" lon="0">
        <time>2020-12-20T09:47:12.661000+00:00</time>
      </trkpt>
      <trkpt lat="0" lon="0">
        <time>2020-12-20T09:47:12.662000+00:00</time>
      </trkpt>
      <trkpt lat="47.3503" lon="-1.27715">
        <ele>68</ele>
        <time>2020-12-20T09:47:13.673000+00:00</time>
      </trkpt>
      <trkpt lat="0" lon="0">
        <time>2020-12-20T09:47:13.686000+00:00</time>
      </trkpt>
      <trkpt lat="0" lon="0">
        <time>2020-12-20T09:47:13.690000+00:00</time>
      </trkpt>
      <trkpt lat="0" lon="0">
        <time>2020-12-20T09:47:13.692000+00:00</time>
      </trkpt>
      <trkpt lat="47.3503" lon="-1.27718">
        <ele>68</ele>
        <time>2020-12-20T09:47:14.675000+00:00</time>
      </trkpt>
      <trkpt lat="0" lon="0">
        <time>2020-12-20T09:47:14.690000+00:00</time>
      </trkpt>
      <trkpt lat="0" lon="0">
        <time>2020-12-20T09:47:14.698000+00:00</time>
      </trkpt>
      <trkpt lat="0" lon="0">
        <time>2020-12-20T09:47:14.706000+00:00</time>
      </trkpt>
      <trkpt lat="47.3503" lon="-1.27721">
        <ele>68</ele>
        <time>2020-12-20T09:47:15.681000+00:00</time>
      </trkpt>
      <trkpt lat="0" lon="0">
        <time>2020-12-20T09:47:15.685000+00:00</time>
      </trkpt>
      <trkpt lat="0" lon="0">
        <time>2020-12-20T09:47:15.691000+00:00</time>
      </trkpt>
      <trkpt lat="0" lon="0">
        <time>2020-12-20T09:47:15.694000+00:00</time>
      </trkpt>
      <trkpt lat="47.3503" lon="-1.27724">
        <ele>68</ele>
        <time>2020-12-20T09:47:16.673000+00:00</time>
      </trkpt>
      <trkpt lat="0" lon="0">
        <time>2020-12-20T09:47:16.682000+00:00</time>
      </trkpt>
      <trkpt lat="0" lon="0">
        <time>2020-12-20T09:47:16.686000+00:00</time>
      </trkpt>
      <trkpt lat="0" lon="0">
        <time>2020-12-20T09:47:16.688000+00:00</time>
      </trkpt>
      <trkpt lat="47.35029" lon="-1.27727">
        <ele>68</ele>
        <time>2020-12-20T09:47:17.682000+00:00</time>
      </trkpt>
      <trkpt lat="0" lon="0">
        <time>2020-12-20T09:47:17.693000+00:00</time>
      </trkpt>
      <trkpt lat="0" lon="0">
        <time>2020-12-20T09:47:17.704000+00:00</time>
      </trkpt>
      <trkpt lat="0" lon="0">
        <time>2020-12-20T09:47:17.707000+00:00</time>
      </trkpt>
      <trkpt lat="47.35028" lon="-1.27731">
        <ele>69</ele>
        <time>2020-12-20T09:47:18.704000+00:00</time>
      </trkpt>
      <trkpt lat="0" lon="0">
        <time>2020-12-20T09:47:18.709000+00:00</time>
      </trkpt>
      <trkpt lat="0" lon="0">
        <time>2020-12-20T09:47:18.716000+00:00</time>
      </trkpt>
      <trkpt lat="0" lon="0">
        <time>2020-12-20T09:47:18.719000+00:00</time>
      </trkpt>
      <trkpt lat="47.35027" lon="-1.27735">
        <ele>69</ele>
        <time>2020-12-20T09:47:19.698000+00:00</time>
      </trkpt>
      <trkpt lat="0" lon="0">
        <time>2020-12-20T09:47:19.713000+00:00</time>
      </trkpt>
      <trkpt lat="0" lon="0">
        <time>2020-12-20T09:47:19.720000+00:00</time>
      </trkpt>
      <trkpt lat="0" lon="0">
        <time>2020-12-20T09:47:19.723000+00:00</time>
      </trkpt>
      <trkpt lat="47.35026" lon="-1.27739">
        <ele>69</ele>
        <time>2020-12-20T09:47:20.647000+00:00</time>
      </trkpt>
      <trkpt lat="0" lon="0">
        <time>2020-12-20T09:47:20.650000+00:00</time>
      </trkpt>
      <trkpt lat="0" lon="0">
        <time>2020-12-20T09:47:20.658000+00:00</time>
      </trkpt>
      <trkpt lat="0" lon="0">
        <time>2020-12-20T09:47:20.661000+00:00</time>
      </trkpt>
      <trkpt lat="47.35024" lon="-1.27743">
        <ele>69</ele>
        <time>2020-12-20T09:47:21.714000+00:00</time>
      </trkpt>
      <trkpt lat="0" lon="0">
        <time>2020-12-20T09:47:21.719000+00:00</time>
      </trkpt>
      <trkpt lat="0" lon="0">
        <time>2020-12-20T09:47:21.723000+00:00</time>
      </trkpt>
      <trkpt lat="0" lon="0">
        <time>2020-12-20T09:47:21.725000+00:00</time>
      </trkpt>
      <trkpt lat="47.35023" lon="-1.27747">
        <ele>69</ele>
        <time>2020-12-20T09:47:22.682000+00:00</time>
      </trkpt>
      <trkpt lat="0" lon="0">
        <time>2020-12-20T09:47:22.687000+00:00</time>
      </trkpt>
      <trkpt lat="0" lon="0">
        <time>2020-12-20T09:47:22.695000+00:00</time>
      </trkpt>
      <trkpt lat="0" lon="0">
        <time>2020-12-20T09:47:22.697000+00:00</time>
      </trkpt>
      <trkpt lat="47.35022" lon="-1.27752">
        <ele>69</ele>
        <time>2020-12-20T09:47:23.698000+00:00</time>
      </trkpt>
      <trkpt lat="0" lon="0">
        <time>2020-12-20T09:47:23.713000+00:00</time>
      </trkpt>
      <trkpt lat="0" lon="0">
        <time>2020-12-20T09:47:23.720000+00:00</time>
      </trkpt>
      <trkpt lat="0" lon="0">
        <time>2020-12-20T09:47:23.722000+00:00</time>
      </trkpt>
      <trkpt lat="47.35021" lon="-1.27757">
        <ele>69</ele>
        <time>2020-12-20T09:47:24.684000+00:00</time>
      </trkpt>
      <trkpt lat="0" lon="0">
        <time>2020-12-20T09:47:24.690000+00:00</time>
      </trkpt>
      <trkpt lat="0" lon="0">
        <time>2020-12-20T09:47:24.695000+00:00</time>
      </trkpt>
      <trkpt lat="0" lon="0">
        <time>2020-12-20T09:47:24.697000+00:00</time>
      </trkpt>
      <trkpt lat="47.3502" lon="-1.27762">
        <ele>69</ele>
        <time>2020-12-20T09:47:25.667000+00:00</time>
      </trkpt>
      <trkpt lat="0" lon="0">
        <time>2020-12-20T09:47:25.684000+00:00</time>
      </trkpt>
      <trkpt lat="0" lon="0">
        <time>2020-12-20T09:47:25.685000+00:00</time>
      </trkpt>
      <trkpt lat="0" lon="0">
        <time>2020-12-20T09:47:25.686000+00:00</time>
      </trkpt>
      <trkpt lat="47.35019" lon="-1.27767">
        <ele>70</ele>
        <time>2020-12-20T09:47:26.700000+00:00</time>
      </trkpt>
      <trkpt lat="0" lon="0">
        <time>2020-12-20T09:47:26.712000+00:00</time>
      </trkpt>
      <trkpt lat="0" lon="0">
        <time>2020-12-20T09:47:26.721000+00:00</time>
      </trkpt>
      <trkpt lat="0" lon="0">
        <time>2020-12-20T09:47:26.728000+00:00</time>
      </trkpt>
      <trkpt lat="47.35018" lon="-1.27772">
        <ele>70</ele>
        <time>2020-12-20T09:47:27.714000+00:00</time>
      </trkpt>
      <trkpt lat="0" lon="0">
        <time>2020-12-20T09:47:27.724000+00:00</time>
      </trkpt>
      <trkpt lat="0" lon="0">
        <time>2020-12-20T09:47:27.730000+00:00</time>
      </trkpt>
      <trkpt lat="0" lon="0">
        <time>2020-12-20T09:47:27.733000+00:00</time>
      </trkpt>
      <trkpt lat="47.35018" lon="-1.27777">
        <ele>70</ele>
        <time>2020-12-20T09:47:28.694000+00:00</time>
      </trkpt>
      <trkpt lat="0" lon="0">
        <time>2020-12-20T09:47:28.711000+00:00</time>
      </trkpt>
      <trkpt lat="0" lon="0">
        <time>2020-12-20T09:47:28.715000+00:00</time>
      </trkpt>
      <trkpt lat="0" lon="0">
        <time>2020-12-20T09:47:28.717000+00:00</time>
      </trkpt>
      <trkpt lat="47.35017" lon="-1.27782">
        <ele>70</ele>
        <time>2020-12-20T09:47:29.691000+00:00</time>
      </trkpt>
      <trkpt lat="0" lon="0">
        <time>2020-12-20T09:47:29.698000+00:00</time>
      </trkpt>
      <trkpt lat="0" lon="0">
        <time>2020-12-20T09:47:29.703000+00:00</time>
      </trkpt>
      <trkpt lat="0" lon="0">
        <time>2020-12-20T09:47:29.706000+00:00</time>
      </trkpt>
      <trkpt lat="47.35016" lon="-1.27787">
        <ele>70</ele>
        <time>2020-12-20T09:47:30.681000+00:00</time>
      </trkpt>
      <trkpt lat="0" lon="0">
        <time>2020-12-20T09:47:30.690000+00:00</time>
      </trkpt>
      <trkpt lat="0" lon="0">
        <time>2020-12-20T09:47:30.697000+00:00</time>
      </trkpt>
      <trkpt lat="0" lon="0">
        <time>2020-12-20T09:47:30.701000+00:00</time>
      </trkpt>
      <trkpt lat="47.35016" lon="-1.27792">
        <ele>70</ele>
        <time>2020-12-20T09:47:31.674000+00:00</time>
      </trkpt>
      <trkpt lat="0" lon="0">
        <time>2020-12-20T09:47:31.690000+00:00</time>
      </trkpt>
      <trkpt lat="0" lon="0">
        <time>2020-12-20T09:47:31.694000+00:00</time>
      </trkpt>
      <trkpt lat="0" lon="0">
        <time>2020-12-20T09:47:31.696000+00:00</time>
      </trkpt>
      <trkpt lat="47.35015" lon="-1.27797">
        <ele>70</ele>
        <time>2020-12-20T09:47:32.716000+00:00</time>
      </trkpt>
      <trkpt lat="0" lon="0">
        <time>2020-12-20T09:47:32.718000+00:00</time>
      </trkpt>
      <trkpt lat="0" lon="0">
        <time>2020-12-20T09:47:32.720000+00:00</time>
      </trkpt>
      <trkpt lat="0" lon="0">
        <time>2020-12-20T09:47:32.721000+00:00</time>
      </trkpt>
      <trkpt lat="47.35015" lon="-1.27803">
        <ele>70</ele>
        <time>2020-12-20T09:47:33.687000+00:00</time>
      </trkpt>
      <trkpt lat="0" lon="0">
        <time>2020-12-20T09:47:33.705000+00:00</time>
      </trkpt>
      <trkpt lat="0" lon="0">
        <time>2020-12-20T09:47:33.710000+00:00</time>
      </trkpt>
      <trkpt lat="0" lon="0">
        <time>2020-12-20T09:47:33.713000+00:00</time>
      </trkpt>
      <trkpt lat="47.35014" lon="-1.27808">
        <ele>69</ele>
        <time>2020-12-20T09:47:34.699000+00:00</time>
      </trkpt>
      <trkpt lat="0" lon="0">
        <time>2020-12-20T09:47:34.721000+00:00</time>
      </trkpt>
      <trkpt lat="0" lon="0">
        <time>2020-12-20T09:47:34.728000+00:00</time>
      </trkpt>
      <trkpt lat="0" lon="0">
        <time>2020-12-20T09:47:34.730000+00:00</time>
      </trkpt>
      <trkpt lat="47.35014" lon="-1.27813">
        <ele>69</ele>
        <time>2020-12-20T09:47:35.733000+00:00</time>
      </trkpt>
      <trkpt lat="0" lon="0">
        <time>2020-12-20T09:47:35.742000+00:00</time>
      </trkpt>
      <trkpt lat="0" lon="0">
        <time>2020-12-20T09:47:35.746000+00:00</time>
      </trkpt>
      <trkpt lat="0" lon="0">
        <time>2020-12-20T09:47:35.749000+00:00</time>
      </trkpt>
      <trkpt lat="47.35013" lon="-1.27819">
        <ele>69</ele>
        <time>2020-12-20T09:47:36.706000+00:00</time>
      </trkpt>
      <trkpt lat="0" lon="0">
        <time>2020-12-20T09:47:36.725000+00:00</time>
      </trkpt>
      <trkpt lat="0" lon="0">
        <time>2020-12-20T09:47:36.732000+00:00</time>
      </trkpt>
      <trkpt lat="0" lon="0">
        <time>2020-12-20T09:47:36.736000+00:00</time>
      </trkpt>
      <trkpt lat="47.35013" lon="-1.27824">
        <ele>70</ele>
        <time>2020-12-20T09:47:37.639000+00:00</time>
      </trkpt>
      <trkpt lat="0" lon="0">
        <time>2020-12-20T09:47:37.646000+00:00</time>
      </trkpt>
      <trkpt lat="0" lon="0">
        <time>2020-12-20T09:47:37.657000+00:00</time>
      </trkpt>
      <trkpt lat="0" lon="0">
        <time>2020-12-20T09:47:37.659000+00:00</time>
      </trkpt>
      <trkpt lat="47.35012" lon="-1.27829">
        <ele>70</ele>
        <time>2020-12-20T09:47:38.694000+00:00</time>
      </trkpt>
      <trkpt lat="0" lon="0">
        <time>2020-12-20T09:47:38.706000+00:00</time>
      </trkpt>
      <trkpt lat="0" lon="0">
        <time>2020-12-20T09:47:38.710000+00:00</time>
      </trkpt>
      <trkpt lat="0" lon="0">
        <time>2020-12-20T09:47:38.712000+00:00</time>
      </trkpt>
      <trkpt lat="47.35011" lon="-1.27834">
        <ele>70</ele>
        <time>2020-12-20T09:47:39.690000+00:00</time>
      </trkpt>
      <trkpt lat="0" lon="0">
        <time>2020-12-20T09:47:39.710000+00:00</time>
      </trkpt>
      <trkpt lat="0" lon="0">
        <time>2020-12-20T09:47:39.714000+00:00</time>
      </trkpt>
      <trkpt lat="0" lon="0">
        <time>2020-12-20T09:47:39.718000+00:00</time>
      </trkpt>
      <trkpt lat="47.35011" lon="-1.2784">
        <ele>70</ele>
        <time>2020-12-20T09:47:40.710000+00:00</time>
      </trkpt>
      <trkpt lat="0" lon="0">
        <time>2020-12-20T09:47:40.717000+00:00</time>
      </trkpt>
      <trkpt lat="0" lon="0">
        <time>2020-12-20T09:47:40.722000+00:00</time>
      </trkpt>
      <trkpt lat="0" lon="0">
        <time>2020-12-20T09:47:40.725000+00:00</time>
      </trkpt>
      <trkpt lat="47.3501" lon="-1.27845">
        <ele>70</ele>
        <time>2020-12-20T09:47:41.714000+00:00</time>
      </trkpt>
      <trkpt lat="0" lon="0">
        <time>2020-12-20T09:47:41.719000+00:00</time>
      </trkpt>
      <trkpt lat="0" lon="0">
        <time>2020-12-20T09:47:41.726000+00:00</time>
      </trkpt>
      <trkpt lat="0" lon="0">
        <time>2020-12-20T09:47:41.731000+00:00</time>
      </trkpt>
      <trkpt lat="47.35009" lon="-1.2785">
        <ele>71</ele>
        <time>2020-12-20T09:47:42.681000+00:00</time>
      </trkpt>
      <trkpt lat="0" lon="0">
        <time>2020-12-20T09:47:42.687000+00:00</time>
      </trkpt>
      <trkpt lat="0" lon="0">
        <time>2020-12-20T09:47:42.694000+00:00</time>
      </trkpt>
      <trkpt lat="0" lon="0">
        <time>2020-12-20T09:47:42.696000+00:00</time>
      </trkpt>
      <trkpt lat="47.35008" lon="-1.27855">
        <ele>71</ele>
        <time>2020-12-20T09:47:43.715000+00:00</time>
      </trkpt>
      <trkpt lat="0" lon="0">
        <time>2020-12-20T09:47:43.719000+00:00</time>
      </trkpt>
      <trkpt lat="0" lon="0">
        <time>2020-12-20T09:47:43.726000+00:00</time>
      </trkpt>
      <trkpt lat="0" lon="0">
        <time>2020-12-20T09:47:43.728000+00:00</time>
      </trkpt>
      <trkpt lat="47.35007" lon="-1.2786">
        <ele>72</ele>
        <time>2020-12-20T09:47:44.741000+00:00</time>
      </trkpt>
      <trkpt lat="0" lon="0">
        <time>2020-12-20T09:47:44.753000+00:00</time>
      </trkpt>
      <trkpt lat="0" lon="0">
        <time>2020-12-20T09:47:44.755000+00:00</time>
      </trkpt>
      <trkpt lat="0" lon="0">
        <time>2020-12-20T09:47:44.756000+00:00</time>
      </trkpt>
      <trkpt lat="47.35006" lon="-1.27866">
        <ele>72</ele>
        <time>2020-12-20T09:47:45.695000+00:00</time>
      </trkpt>
      <trkpt lat="0" lon="0">
        <time>2020-12-20T09:47:45.715000+00:00</time>
      </trkpt>
      <trkpt lat="0" lon="0">
        <time>2020-12-20T09:47:45.720000+00:00</time>
      </trkpt>
      <trkpt lat="0" lon="0">
        <time>2020-12-20T09:47:45.722000+00:00</time>
      </trkpt>
      <trkpt lat="47.35005" lon="-1.27871">
        <ele>73</ele>
        <time>2020-12-20T09:47:46.669000+00:00</time>
      </trkpt>
      <trkpt lat="0" lon="0">
        <time>2020-12-20T09:47:46.681000+00:00</time>
      </trkpt>
      <trkpt lat="0" lon="0">
        <time>2020-12-20T09:47:46.685000+00:00</time>
      </trkpt>
      <trkpt lat="0" lon="0">
        <time>2020-12-20T09:47:46.687000+00:00</time>
      </trkpt>
      <trkpt lat="47.35004" lon="-1.27876">
        <ele>73</ele>
        <time>2020-12-20T09:47:47.671000+00:00</time>
      </trkpt>
      <trkpt lat="0" lon="0">
        <time>2020-12-20T09:47:47.673000+00:00</time>
      </trkpt>
      <trkpt lat="0" lon="0">
        <time>2020-12-20T09:47:47.675000+00:00</time>
      </trkpt>
      <trkpt lat="0" lon="0">
        <time>2020-12-20T09:47:47.676000+00:00</time>
      </trkpt>
      <trkpt lat="47.35002" lon="-1.27881">
        <ele>74</ele>
        <time>2020-12-20T09:47:48.690000+00:00</time>
      </trkpt>
      <trkpt lat="0" lon="0">
        <time>2020-12-20T09:47:48.703000+00:00</time>
      </trkpt>
      <trkpt lat="0" lon="0">
        <time>2020-12-20T09:47:48.711000+00:00</time>
      </trkpt>
      <trkpt lat="0" lon="0">
        <time>2020-12-20T09:47:48.715000+00:00</time>
      </trkpt>
      <trkpt lat="47.35001" lon="-1.27886">
        <ele>74</ele>
        <time>2020-12-20T09:47:49.704000+00:00</time>
      </trkpt>
      <trkpt lat="0" lon="0">
        <time>2020-12-20T09:47:49.710000+00:00</time>
      </trkpt>
      <trkpt lat="0" lon="0">
        <time>2020-12-20T09:47:49.715000+00:00</time>
      </trkpt>
      <trkpt lat="0" lon="0">
        <time>2020-12-20T09:47:49.717000+00:00</time>
      </trkpt>
      <trkpt lat="47.34999" lon="-1.27892">
        <ele>75</ele>
        <time>2020-12-20T09:47:50.690000+00:00</time>
      </trkpt>
      <trkpt lat="0" lon="0">
        <time>2020-12-20T09:47:50.704000+00:00</time>
      </trkpt>
      <trkpt lat="0" lon="0">
        <time>2020-12-20T09:47:50.716000+00:00</time>
      </trkpt>
      <trkpt lat="0" lon="0">
        <time>2020-12-20T09:47:50.719000+00:00</time>
      </trkpt>
      <trkpt lat="47.34997" lon="-1.27897">
        <ele>75</ele>
        <time>2020-12-20T09:47:51.696000+00:00</time>
      </trkpt>
      <trkpt lat="0" lon="0">
        <time>2020-12-20T09:47:51.705000+00:00</time>
      </trkpt>
      <trkpt lat="0" lon="0">
        <time>2020-12-20T09:47:51.714000+00:00</time>
      </trkpt>
      <trkpt lat="0" lon="0">
        <time>2020-12-20T09:47:51.718000+00:00</time>
      </trkpt>
      <trkpt lat="47.34995" lon="-1.27902">
        <ele>76</ele>
        <time>2020-12-20T09:47:52.668000+00:00</time>
      </trkpt>
      <trkpt lat="0" lon="0">
        <time>2020-12-20T09:47:52.680000+00:00</time>
      </trkpt>
      <trkpt lat="0" lon="0">
        <time>2020-12-20T09:47:52.686000+00:00</time>
      </trkpt>
      <trkpt lat="0" lon="0">
        <time>2020-12-20T09:47:52.689000+00:00</time>
      </trkpt>
      <trkpt lat="47.34993" lon="-1.27907">
        <ele>77</ele>
        <time>2020-12-20T09:47:53.701000+00:00</time>
      </trkpt>
      <trkpt lat="0" lon="0">
        <time>2020-12-20T09:47:53.707000+00:00</time>
      </trkpt>
      <trkpt lat="0" lon="0">
        <time>2020-12-20T09:47:53.715000+00:00</time>
      </trkpt>
      <trkpt lat="0" lon="0">
        <time>2020-12-20T09:47:53.718000+00:00</time>
      </trkpt>
      <trkpt lat="47.34991" lon="-1.27911">
        <ele>77</ele>
        <time>2020-12-20T09:47:54.727000+00:00</time>
      </trkpt>
      <trkpt lat="0" lon="0">
        <time>2020-12-20T09:47:54.735000+00:00</time>
      </trkpt>
      <trkpt lat="0" lon="0">
        <time>2020-12-20T09:47:54.739000+00:00</time>
      </trkpt>
      <trkpt lat="0" lon="0">
        <time>2020-12-20T09:47:54.741000+00:00</time>
      </trkpt>
      <trkpt lat="47.34988" lon="-1.27916">
        <ele>77</ele>
        <time>2020-12-20T09:47:55.733000+00:00</time>
      </trkpt>
      <trkpt lat="0" lon="0">
        <time>2020-12-20T09:47:55.744000+00:00</time>
      </trkpt>
      <trkpt lat="0" lon="0">
        <time>2020-12-20T09:47:55.748000+00:00</time>
      </trkpt>
      <trkpt lat="0" lon="0">
        <time>2020-12-20T09:47:55.750000+00:00</time>
      </trkpt>
      <trkpt lat="47.34986" lon="-1.27921">
        <ele>77</ele>
        <time>2020-12-20T09:47:56.671000+00:00</time>
      </trkpt>
      <trkpt lat="0" lon="0">
        <time>2020-12-20T09:47:56.684000+00:00</time>
      </trkpt>
      <trkpt lat="0" lon="0">
        <time>2020-12-20T09:47:56.691000+00:00</time>
      </trkpt>
      <trkpt lat="0" lon="0">
        <time>2020-12-20T09:47:56.693000+00:00</time>
      </trkpt>
      <trkpt lat="47.34983" lon="-1.27926">
        <ele>78</ele>
        <time>2020-12-20T09:47:57.727000+00:00</time>
      </trkpt>
      <trkpt lat="0" lon="0">
        <time>2020-12-20T09:47:57.736000+00:00</time>
      </trkpt>
      <trkpt lat="0" lon="0">
        <time>2020-12-20T09:47:57.740000+00:00</time>
      </trkpt>
      <trkpt lat="0" lon="0">
        <time>2020-12-20T09:47:57.742000+00:00</time>
      </trkpt>
      <trkpt lat="47.3498" lon="-1.27931">
        <ele>78</ele>
        <time>2020-12-20T09:47:58.702000+00:00</time>
      </trkpt>
      <trkpt lat="0" lon="0">
        <time>2020-12-20T09:47:58.714000+00:00</time>
      </trkpt>
      <trkpt lat="0" lon="0">
        <time>2020-12-20T09:47:58.720000+00:00</time>
      </trkpt>
      <trkpt lat="0" lon="0">
        <time>2020-12-20T09:47:58.723000+00:00</time>
      </trkpt>
      <trkpt lat="47.34978" lon="-1.27937">
        <ele>78</ele>
        <time>2020-12-20T09:47:59.714000+00:00</time>
      </trkpt>
      <trkpt lat="0" lon="0">
        <time>2020-12-20T09:47:59.729000+00:00</time>
      </trkpt>
      <trkpt lat="0" lon="0">
        <time>2020-12-20T09:47:59.731000+00:00</time>
      </trkpt>
      <trkpt lat="0" lon="0">
        <time>2020-12-20T09:47:59.733000+00:00</time>
      </trkpt>
      <trkpt lat="47.34975" lon="-1.27942">
        <ele>78</ele>
        <time>2020-12-20T09:48:00.710000+00:00</time>
      </trkpt>
      <trkpt lat="0" lon="0">
        <time>2020-12-20T09:48:00.727000+00:00</time>
      </trkpt>
      <trkpt lat="0" lon="0">
        <time>2020-12-20T09:48:00.735000+00:00</time>
      </trkpt>
      <trkpt lat="0" lon="0">
        <time>2020-12-20T09:48:00.738000+00:00</time>
      </trkpt>
      <trkpt lat="47.34972" lon="-1.27947">
        <ele>78</ele>
        <time>2020-12-20T09:48:01.685000+00:00</time>
      </trkpt>
      <trkpt lat="0" lon="0">
        <time>2020-12-20T09:48:01.690000+00:00</time>
      </trkpt>
      <trkpt lat="0" lon="0">
        <time>2020-12-20T09:48:01.698000+00:00</time>
      </trkpt>
      <trkpt lat="0" lon="0">
        <time>2020-12-20T09:48:01.702000+00:00</time>
      </trkpt>
      <trkpt lat="47.3497" lon="-1.27953">
        <ele>77</ele>
        <time>2020-12-20T09:48:02.691000+00:00</time>
      </trkpt>
      <trkpt lat="0" lon="0">
        <time>2020-12-20T09:48:02.697000+00:00</time>
      </trkpt>
      <trkpt lat="0" lon="0">
        <time>2020-12-20T09:48:02.706000+00:00</time>
      </trkpt>
      <trkpt lat="0" lon="0">
        <time>2020-12-20T09:48:02.708000+00:00</time>
      </trkpt>
      <trkpt lat="47.34967" lon="-1.27958">
        <ele>78</ele>
        <time>2020-12-20T09:48:03.658000+00:00</time>
      </trkpt>
      <trkpt lat="0" lon="0">
        <time>2020-12-20T09:48:03.673000+00:00</time>
      </trkpt>
      <trkpt lat="0" lon="0">
        <time>2020-12-20T09:48:03.675000+00:00</time>
      </trkpt>
      <trkpt lat="0" lon="0">
        <time>2020-12-20T09:48:03.676000+00:00</time>
      </trkpt>
      <trkpt lat="47.34964" lon="-1.27964">
        <ele>78</ele>
        <time>2020-12-20T09:48:04.703000+00:00</time>
      </trkpt>
      <trkpt lat="0" lon="0">
        <time>2020-12-20T09:48:04.709000+00:00</time>
      </trkpt>
      <trkpt lat="0" lon="0">
        <time>2020-12-20T09:48:04.715000+00:00</time>
      </trkpt>
      <trkpt lat="0" lon="0">
        <time>2020-12-20T09:48:04.717000+00:00</time>
      </trkpt>
      <trkpt lat="47.34961" lon="-1.2797">
        <ele>78</ele>
        <time>2020-12-20T09:48:05.728000+00:00</time>
      </trkpt>
      <trkpt lat="0" lon="0">
        <time>2020-12-20T09:48:05.742000+00:00</time>
      </trkpt>
      <trkpt lat="0" lon="0">
        <time>2020-12-20T09:48:05.747000+00:00</time>
      </trkpt>
      <trkpt lat="0" lon="0">
        <time>2020-12-20T09:48:05.757000+00:00</time>
      </trkpt>
      <trkpt lat="47.34958" lon="-1.27976">
        <ele>78</ele>
        <time>2020-12-20T09:48:06.689000+00:00</time>
      </trkpt>
      <trkpt lat="0" lon="0">
        <time>2020-12-20T09:48:06.691000+00:00</time>
      </trkpt>
      <trkpt lat="0" lon="0">
        <time>2020-12-20T09:48:06.695000+00:00</time>
      </trkpt>
      <trkpt lat="0" lon="0">
        <time>2020-12-20T09:48:06.696000+00:00</time>
      </trkpt>
      <trkpt lat="47.34955" lon="-1.27982">
        <ele>78</ele>
        <time>2020-12-20T09:48:07.667000+00:00</time>
      </trkpt>
      <trkpt lat="0" lon="0">
        <time>2020-12-20T09:48:07.677000+00:00</time>
      </trkpt>
      <trkpt lat="0" lon="0">
        <time>2020-12-20T09:48:07.681000+00:00</time>
      </trkpt>
      <trkpt lat="0" lon="0">
        <time>2020-12-20T09:48:07.683000+00:00</time>
      </trkpt>
      <trkpt lat="47.34952" lon="-1.27988">
        <ele>78</ele>
        <time>2020-12-20T09:48:08.718000+00:00</time>
      </trkpt>
      <trkpt lat="0" lon="0">
        <time>2020-12-20T09:48:08.736000+00:00</time>
      </trkpt>
      <trkpt lat="0" lon="0">
        <time>2020-12-20T09:48:08.743000+00:00</time>
      </trkpt>
      <trkpt lat="0" lon="0">
        <time>2020-12-20T09:48:08.749000+00:00</time>
      </trkpt>
      <trkpt lat="47.34949" lon="-1.27994">
        <ele>78</ele>
        <time>2020-12-20T09:48:09.710000+00:00</time>
      </trkpt>
      <trkpt lat="0" lon="0">
        <time>2020-12-20T09:48:09.718000+00:00</time>
      </trkpt>
      <trkpt lat="0" lon="0">
        <time>2020-12-20T09:48:09.722000+00:00</time>
      </trkpt>
      <trkpt lat="0" lon="0">
        <time>2020-12-20T09:48:09.725000+00:00</time>
      </trkpt>
      <trkpt lat="47.34946" lon="-1.28">
        <ele>78</ele>
        <time>2020-12-20T09:48:10.696000+00:00</time>
      </trkpt>
      <trkpt lat="0" lon="0">
        <time>2020-12-20T09:48:10.717000+00:00</time>
      </trkpt>
      <trkpt lat="0" lon="0">
        <time>2020-12-20T09:48:10.724000+00:00</time>
      </trkpt>
      <trkpt lat="0" lon="0">
        <time>2020-12-20T09:48:10.728000+00:00</time>
      </trkpt>
      <trkpt lat="47.34943" lon="-1.28007">
        <ele>78</ele>
        <time>2020-12-20T09:48:11.706000+00:00</time>
      </trkpt>
      <trkpt lat="0" lon="0">
        <time>2020-12-20T09:48:11.718000+00:00</time>
      </trkpt>
      <trkpt lat="0" lon="0">
        <time>2020-12-20T09:48:11.724000+00:00</time>
      </trkpt>
      <trkpt lat="0" lon="0">
        <time>2020-12-20T09:48:11.726000+00:00</time>
      </trkpt>
      <trkpt lat="47.3494" lon="-1.28013">
        <ele>78</ele>
        <time>2020-12-20T09:48:12.678000+00:00</time>
      </trkpt>
      <trkpt lat="0" lon="0">
        <time>2020-12-20T09:48:12.684000+00:00</time>
      </trkpt>
      <trkpt lat="0" lon="0">
        <time>2020-12-20T09:48:12.686000+00:00</time>
      </trkpt>
      <trkpt lat="0" lon="0">
        <time>2020-12-20T09:48:12.687000+00:00</time>
      </trkpt>
      <trkpt lat="47.34937" lon="-1.28019">
        <ele>78</ele>
        <time>2020-12-20T09:48:13.698000+00:00</time>
      </trkpt>
      <trkpt lat="0" lon="0">
        <time>2020-12-20T09:48:13.706000+00:00</time>
      </trkpt>
      <trkpt lat="0" lon="0">
        <time>2020-12-20T09:48:13.709000+00:00</time>
      </trkpt>
      <trkpt lat="0" lon="0">
        <time>2020-12-20T09:48:13.713000+00:00</time>
      </trkpt>
      <trkpt lat="47.34934" lon="-1.28025">
        <ele>78</ele>
        <time>2020-12-20T09:48:14.702000+00:00</time>
      </trkpt>
      <trkpt lat="0" lon="0">
        <time>2020-12-20T09:48:14.713000+00:00</time>
      </trkpt>
      <trkpt lat="0" lon="0">
        <time>2020-12-20T09:48:14.717000+00:00</time>
      </trkpt>
      <trkpt lat="0" lon="0">
        <time>2020-12-20T09:48:14.720000+00:00</time>
      </trkpt>
      <trkpt lat="47.34931" lon="-1.28031">
        <ele>78</ele>
        <time>2020-12-20T09:48:15.706000+00:00</time>
      </trkpt>
      <trkpt lat="0" lon="0">
        <time>2020-12-20T09:48:15.718000+00:00</time>
      </trkpt>
      <trkpt lat="0" lon="0">
        <time>2020-12-20T09:48:15.724000+00:00</time>
      </trkpt>
      <trkpt lat="0" lon="0">
        <time>2020-12-20T09:48:15.726000+00:00</time>
      </trkpt>
      <trkpt lat="47.34929" lon="-1.28037">
        <ele>77</ele>
        <time>2020-12-20T09:48:16.716000+00:00</time>
      </trkpt>
      <trkpt lat="0" lon="0">
        <time>2020-12-20T09:48:16.731000+00:00</time>
      </trkpt>
      <trkpt lat="0" lon="0">
        <time>2020-12-20T09:48:16.744000+00:00</time>
      </trkpt>
      <trkpt lat="0" lon="0">
        <time>2020-12-20T09:48:16.750000+00:00</time>
      </trkpt>
      <trkpt lat="47.34926" lon="-1.28043">
        <ele>77</ele>
        <time>2020-12-20T09:48:17.720000+00:00</time>
      </trkpt>
      <trkpt lat="0" lon="0">
        <time>2020-12-20T09:48:17.735000+00:00</time>
      </trkpt>
      <trkpt lat="0" lon="0">
        <time>2020-12-20T09:48:17.738000+00:00</time>
      </trkpt>
      <trkpt lat="0" lon="0">
        <time>2020-12-20T09:48:17.741000+00:00</time>
      </trkpt>
      <trkpt lat="47.34923" lon="-1.28049">
        <ele>77</ele>
        <time>2020-12-20T09:48:18.707000+00:00</time>
      </trkpt>
      <trkpt lat="0" lon="0">
        <time>2020-12-20T09:48:18.709000+00:00</time>
      </trkpt>
      <trkpt lat="0" lon="0">
        <time>2020-12-20T09:48:18.711000+00:00</time>
      </trkpt>
      <trkpt lat="0" lon="0">
        <time>2020-12-20T09:48:18.714000+00:00</time>
      </trkpt>
      <trkpt lat="47.34921" lon="-1.28054">
        <ele>77</ele>
        <time>2020-12-20T09:48:19.690000+00:00</time>
      </trkpt>
      <trkpt lat="0" lon="0">
        <time>2020-12-20T09:48:19.699000+00:00</time>
      </trkpt>
      <trkpt lat="0" lon="0">
        <time>2020-12-20T09:48:19.704000+00:00</time>
      </trkpt>
      <trkpt lat="0" lon="0">
        <time>2020-12-20T09:48:19.708000+00:00</time>
      </trkpt>
      <trkpt lat="47.34918" lon="-1.2806">
        <ele>77</ele>
        <time>2020-12-20T09:48:20.684000+00:00</time>
      </trkpt>
      <trkpt lat="0" lon="0">
        <time>2020-12-20T09:48:20.694000+00:00</time>
      </trkpt>
      <trkpt lat="0" lon="0">
        <time>2020-12-20T09:48:20.705000+00:00</time>
      </trkpt>
      <trkpt lat="0" lon="0">
        <time>2020-12-20T09:48:20.713000+00:00</time>
      </trkpt>
      <trkpt lat="47.34916" lon="-1.28066">
        <ele>77</ele>
        <time>2020-12-20T09:48:21.700000+00:00</time>
      </trkpt>
      <trkpt lat="0" lon="0">
        <time>2020-12-20T09:48:21.717000+00:00</time>
      </trkpt>
      <trkpt lat="0" lon="0">
        <time>2020-12-20T09:48:21.722000+00:00</time>
      </trkpt>
      <trkpt lat="0" lon="0">
        <time>2020-12-20T09:48:21.725000+00:00</time>
      </trkpt>
      <trkpt lat="47.34913" lon="-1.28071">
        <ele>77</ele>
        <time>2020-12-20T09:48:22.693000+00:00</time>
      </trkpt>
      <trkpt lat="0" lon="0">
        <time>2020-12-20T09:48:22.714000+00:00</time>
      </trkpt>
      <trkpt lat="0" lon="0">
        <time>2020-12-20T09:48:22.722000+00:00</time>
      </trkpt>
      <trkpt lat="0" lon="0">
        <time>2020-12-20T09:48:22.724000+00:00</time>
      </trkpt>
      <trkpt lat="47.3491" lon="-1.28077">
        <ele>76</ele>
        <time>2020-12-20T09:48:23.706000+00:00</time>
      </trkpt>
      <trkpt lat="0" lon="0">
        <time>2020-12-20T09:48:23.715000+00:00</time>
      </trkpt>
      <trkpt lat="0" lon="0">
        <time>2020-12-20T09:48:23.724000+00:00</time>
      </trkpt>
      <trkpt lat="0" lon="0">
        <time>2020-12-20T09:48:23.731000+00:00</time>
      </trkpt>
      <trkpt lat="47.34908" lon="-1.28083">
        <ele>76</ele>
        <time>2020-12-20T09:48:24.703000+00:00</time>
      </trkpt>
      <trkpt lat="0" lon="0">
        <time>2020-12-20T09:48:24.711000+00:00</time>
      </trkpt>
      <trkpt lat="0" lon="0">
        <time>2020-12-20T09:48:24.713000+00:00</time>
      </trkpt>
      <trkpt lat="0" lon="0">
        <time>2020-12-20T09:48:24.715000+00:00</time>
      </trkpt>
      <trkpt lat="47.34905" lon="-1.28089">
        <ele>76</ele>
        <time>2020-12-20T09:48:25.716000+00:00</time>
      </trkpt>
      <trkpt lat="0" lon="0">
        <time>2020-12-20T09:48:25.720000+00:00</time>
      </trkpt>
      <trkpt lat="0" lon="0">
        <time>2020-12-20T09:48:25.724000+00:00</time>
      </trkpt>
      <trkpt lat="0" lon="0">
        <time>2020-12-20T09:48:25.726000+00:00</time>
      </trkpt>
      <trkpt lat="47.34902" lon="-1.28094">
        <ele>75</ele>
        <time>2020-12-20T09:48:26.710000+00:00</time>
      </trkpt>
      <trkpt lat="0" lon="0">
        <time>2020-12-20T09:48:26.714000+00:00</time>
      </trkpt>
      <trkpt lat="0" lon="0">
        <time>2020-12-20T09:48:26.718000+00:00</time>
      </trkpt>
      <trkpt lat="0" lon="0">
        <time>2020-12-20T09:48:26.721000+00:00</time>
      </trkpt>
      <trkpt lat="47.349" lon="-1.281">
        <ele>75</ele>
        <time>2020-12-20T09:48:27.696000+00:00</time>
      </trkpt>
      <trkpt lat="0" lon="0">
        <time>2020-12-20T09:48:27.706000+00:00</time>
      </trkpt>
      <trkpt lat="0" lon="0">
        <time>2020-12-20T09:48:27.711000+00:00</time>
      </trkpt>
      <trkpt lat="0" lon="0">
        <time>2020-12-20T09:48:27.714000+00:00</time>
      </trkpt>
      <trkpt lat="47.34898" lon="-1.28106">
        <ele>75</ele>
        <time>2020-12-20T09:48:28.671000+00:00</time>
      </trkpt>
      <trkpt lat="0" lon="0">
        <time>2020-12-20T09:48:28.686000+00:00</time>
      </trkpt>
      <trkpt lat="0" lon="0">
        <time>2020-12-20T09:48:28.692000+00:00</time>
      </trkpt>
      <trkpt lat="0" lon="0">
        <time>2020-12-20T09:48:28.694000+00:00</time>
      </trkpt>
      <trkpt lat="47.34895" lon="-1.28112">
        <ele>75</ele>
        <time>2020-12-20T09:48:29.692000+00:00</time>
      </trkpt>
      <trkpt lat="0" lon="0">
        <time>2020-12-20T09:48:29.697000+00:00</time>
      </trkpt>
      <trkpt lat="0" lon="0">
        <time>2020-12-20T09:48:29.701000+00:00</time>
      </trkpt>
      <trkpt lat="0" lon="0">
        <time>2020-12-20T09:48:29.704000+00:00</time>
      </trkpt>
      <trkpt lat="47.34892" lon="-1.28117">
        <ele>75</ele>
        <time>2020-12-20T09:48:30.684000+00:00</time>
      </trkpt>
      <trkpt lat="0" lon="0">
        <time>2020-12-20T09:48:30.691000+00:00</time>
      </trkpt>
      <trkpt lat="0" lon="0">
        <time>2020-12-20T09:48:30.693000+00:00</time>
      </trkpt>
      <trkpt lat="0" lon="0">
        <time>2020-12-20T09:48:30.697000+00:00</time>
      </trkpt>
      <trkpt lat="47.3489" lon="-1.28123">
        <ele>75</ele>
        <time>2020-12-20T09:48:31.680000+00:00</time>
      </trkpt>
      <trkpt lat="0" lon="0">
        <time>2020-12-20T09:48:31.688000+00:00</time>
      </trkpt>
      <trkpt lat="0" lon="0">
        <time>2020-12-20T09:48:31.692000+00:00</time>
      </trkpt>
      <trkpt lat="0" lon="0">
        <time>2020-12-20T09:48:31.694000+00:00</time>
      </trkpt>
      <trkpt lat="47.34887" lon="-1.28129">
        <ele>76</ele>
        <time>2020-12-20T09:48:32.692000+00:00</time>
      </trkpt>
      <trkpt lat="0" lon="0">
        <time>2020-12-20T09:48:32.697000+00:00</time>
      </trkpt>
      <trkpt lat="0" lon="0">
        <time>2020-12-20T09:48:32.705000+00:00</time>
      </trkpt>
      <trkpt lat="0" lon="0">
        <time>2020-12-20T09:48:32.709000+00:00</time>
      </trkpt>
      <trkpt lat="47.34885" lon="-1.28134">
        <ele>75</ele>
        <time>2020-12-20T09:48:33.730000+00:00</time>
      </trkpt>
      <trkpt lat="0" lon="0">
        <time>2020-12-20T09:48:33.735000+00:00</time>
      </trkpt>
      <trkpt lat="0" lon="0">
        <time>2020-12-20T09:48:33.739000+00:00</time>
      </trkpt>
      <trkpt lat="0" lon="0">
        <time>2020-12-20T09:48:33.746000+00:00</time>
      </trkpt>
      <trkpt lat="47.34882" lon="-1.2814">
        <ele>75</ele>
        <time>2020-12-20T09:48:34.669000+00:00</time>
      </trkpt>
      <trkpt lat="0" lon="0">
        <time>2020-12-20T09:48:34.678000+00:00</time>
      </trkpt>
      <trkpt lat="0" lon="0">
        <time>2020-12-20T09:48:34.686000+00:00</time>
      </trkpt>
      <trkpt lat="0" lon="0">
        <time>2020-12-20T09:48:34.689000+00:00</time>
      </trkpt>
      <trkpt lat="47.3488" lon="-1.28145">
        <ele>75</ele>
        <time>2020-12-20T09:48:35.703000+00:00</time>
      </trkpt>
      <trkpt lat="0" lon="0">
        <time>2020-12-20T09:48:35.713000+00:00</time>
      </trkpt>
      <trkpt lat="0" lon="0">
        <time>2020-12-20T09:48:35.717000+00:00</time>
      </trkpt>
      <trkpt lat="0" lon="0">
        <time>2020-12-20T09:48:35.719000+00:00</time>
      </trkpt>
      <trkpt lat="47.34877" lon="-1.28151">
        <ele>76</ele>
        <time>2020-12-20T09:48:36.682000+00:00</time>
      </trkpt>
      <trkpt lat="0" lon="0">
        <time>2020-12-20T09:48:36.690000+00:00</time>
      </trkpt>
      <trkpt lat="0" lon="0">
        <time>2020-12-20T09:48:36.692000+00:00</time>
      </trkpt>
      <trkpt lat="0" lon="0">
        <time>2020-12-20T09:48:36.693000+00:00</time>
      </trkpt>
      <trkpt lat="47.34874" lon="-1.28157">
        <ele>76</ele>
        <time>2020-12-20T09:48:37.665000+00:00</time>
      </trkpt>
      <trkpt lat="0" lon="0">
        <time>2020-12-20T09:48:37.672000+00:00</time>
      </trkpt>
      <trkpt lat="0" lon="0">
        <time>2020-12-20T09:48:37.685000+00:00</time>
      </trkpt>
      <trkpt lat="0" lon="0">
        <time>2020-12-20T09:48:37.687000+00:00</time>
      </trkpt>
      <trkpt lat="47.34872" lon="-1.28164">
        <ele>76</ele>
        <time>2020-12-20T09:48:38.690000+00:00</time>
      </trkpt>
      <trkpt lat="0" lon="0">
        <time>2020-12-20T09:48:38.707000+00:00</time>
      </trkpt>
      <trkpt lat="0" lon="0">
        <time>2020-12-20T09:48:38.716000+00:00</time>
      </trkpt>
      <trkpt lat="0" lon="0">
        <time>2020-12-20T09:48:38.721000+00:00</time>
      </trkpt>
      <trkpt lat="47.34869" lon="-1.28171">
        <ele>76</ele>
        <time>2020-12-20T09:48:39.690000+00:00</time>
      </trkpt>
      <trkpt lat="0" lon="0">
        <time>2020-12-20T09:48:39.708000+00:00</time>
      </trkpt>
      <trkpt lat="0" lon="0">
        <time>2020-12-20T09:48:39.716000+00:00</time>
      </trkpt>
      <trkpt lat="0" lon="0">
        <time>2020-12-20T09:48:39.719000+00:00</time>
      </trkpt>
      <trkpt lat="47.34866" lon="-1.28178">
        <ele>76</ele>
        <time>2020-12-20T09:48:40.667000+00:00</time>
      </trkpt>
      <trkpt lat="0" lon="0">
        <time>2020-12-20T09:48:40.679000+00:00</time>
      </trkpt>
      <trkpt lat="0" lon="0">
        <time>2020-12-20T09:48:40.683000+00:00</time>
      </trkpt>
      <trkpt lat="0" lon="0">
        <time>2020-12-20T09:48:40.685000+00:00</time>
      </trkpt>
      <trkpt lat="47.34864" lon="-1.28185">
        <ele>76</ele>
        <time>2020-12-20T09:48:41.705000+00:00</time>
      </trkpt>
      <trkpt lat="0" lon="0">
        <time>2020-12-20T09:48:41.716000+00:00</time>
      </trkpt>
      <trkpt lat="0" lon="0">
        <time>2020-12-20T09:48:41.722000+00:00</time>
      </trkpt>
      <trkpt lat="0" lon="0">
        <time>2020-12-20T09:48:41.724000+00:00</time>
      </trkpt>
      <trkpt lat="47.34861" lon="-1.28192">
        <ele>76</ele>
        <time>2020-12-20T09:48:42.724000+00:00</time>
      </trkpt>
      <trkpt lat="0" lon="0">
        <time>2020-12-20T09:48:42.742000+00:00</time>
      </trkpt>
      <trkpt lat="0" lon="0">
        <time>2020-12-20T09:48:42.746000+00:00</time>
      </trkpt>
      <trkpt lat="0" lon="0">
        <time>2020-12-20T09:48:42.748000+00:00</time>
      </trkpt>
      <trkpt lat="47.34858" lon="-1.28199">
        <ele>76</ele>
        <time>2020-12-20T09:48:43.697000+00:00</time>
      </trkpt>
      <trkpt lat="0" lon="0">
        <time>2020-12-20T09:48:43.710000+00:00</time>
      </trkpt>
      <trkpt lat="0" lon="0">
        <time>2020-12-20T09:48:43.718000+00:00</time>
      </trkpt>
      <trkpt lat="0" lon="0">
        <time>2020-12-20T09:48:43.721000+00:00</time>
      </trkpt>
      <trkpt lat="47.34856" lon="-1.28207">
        <ele>76</ele>
        <time>2020-12-20T09:48:44.677000+00:00</time>
      </trkpt>
      <trkpt lat="0" lon="0">
        <time>2020-12-20T09:48:44.689000+00:00</time>
      </trkpt>
      <trkpt lat="0" lon="0">
        <time>2020-12-20T09:48:44.693000+00:00</time>
      </trkpt>
      <trkpt lat="0" lon="0">
        <time>2020-12-20T09:48:44.696000+00:00</time>
      </trkpt>
      <trkpt lat="47.34853" lon="-1.28214">
        <ele>76</ele>
        <time>2020-12-20T09:48:45.682000+00:00</time>
      </trkpt>
      <trkpt lat="0" lon="0">
        <time>2020-12-20T09:48:45.688000+00:00</time>
      </trkpt>
      <trkpt lat="0" lon="0">
        <time>2020-12-20T09:48:45.694000+00:00</time>
      </trkpt>
      <trkpt lat="0" lon="0">
        <time>2020-12-20T09:48:45.697000+00:00</time>
      </trkpt>
      <trkpt lat="47.3485" lon="-1.2822">
        <ele>76</ele>
        <time>2020-12-20T09:48:46.694000+00:00</time>
      </trkpt>
      <trkpt lat="0" lon="0">
        <time>2020-12-20T09:48:46.704000+00:00</time>
      </trkpt>
      <trkpt lat="0" lon="0">
        <time>2020-12-20T09:48:46.708000+00:00</time>
      </trkpt>
      <trkpt lat="0" lon="0">
        <time>2020-12-20T09:48:46.712000+00:00</time>
      </trkpt>
      <trkpt lat="47.34846" lon="-1.28227">
        <ele>76</ele>
        <time>2020-12-20T09:48:47.673000+00:00</time>
      </trkpt>
      <trkpt lat="0" lon="0">
        <time>2020-12-20T09:48:47.677000+00:00</time>
      </trkpt>
      <trkpt lat="0" lon="0">
        <time>2020-12-20T09:48:47.681000+00:00</time>
      </trkpt>
      <trkpt lat="0" lon="0">
        <time>2020-12-20T09:48:47.683000+00:00</time>
      </trkpt>
      <trkpt lat="47.34843" lon="-1.28234">
        <ele>76</ele>
        <time>2020-12-20T09:48:48.730000+00:00</time>
      </trkpt>
      <trkpt lat="0" lon="0">
        <time>2020-12-20T09:48:48.739000+00:00</time>
      </trkpt>
      <trkpt lat="0" lon="0">
        <time>2020-12-20T09:48:48.742000+00:00</time>
      </trkpt>
      <trkpt lat="0" lon="0">
        <time>2020-12-20T09:48:48.744000+00:00</time>
      </trkpt>
      <trkpt lat="47.3484" lon="-1.28241">
        <ele>75</ele>
        <time>2020-12-20T09:48:49.702000+00:00</time>
      </trkpt>
      <trkpt lat="0" lon="0">
        <time>2020-12-20T09:48:49.711000+00:00</time>
      </trkpt>
      <trkpt lat="0" lon="0">
        <time>2020-12-20T09:48:49.716000+00:00</time>
      </trkpt>
      <trkpt lat="0" lon="0">
        <time>2020-12-20T09:48:49.718000+00:00</time>
      </trkpt>
      <trkpt lat="47.34836" lon="-1.28247">
        <ele>74</ele>
        <time>2020-12-20T09:48:50.754000+00:00</time>
      </trkpt>
      <trkpt lat="0" lon="0">
        <time>2020-12-20T09:48:50.756000+00:00</time>
      </trkpt>
      <trkpt lat="0" lon="0">
        <time>2020-12-20T09:48:50.758000+00:00</time>
      </trkpt>
      <trkpt lat="0" lon="0">
        <time>2020-12-20T09:48:50.759000+00:00</time>
      </trkpt>
      <trkpt lat="47.34832" lon="-1.28254">
        <ele>74</ele>
        <time>2020-12-20T09:48:51.711000+00:00</time>
      </trkpt>
      <trkpt lat="0" lon="0">
        <time>2020-12-20T09:48:51.716000+00:00</time>
      </trkpt>
      <trkpt lat="0" lon="0">
        <time>2020-12-20T09:48:51.722000+00:00</time>
      </trkpt>
      <trkpt lat="0" lon="0">
        <time>2020-12-20T09:48:51.725000+00:00</time>
      </trkpt>
      <trkpt lat="47.34828" lon="-1.28262">
        <ele>73</ele>
        <time>2020-12-20T09:48:52.704000+00:00</time>
      </trkpt>
      <trkpt lat="0" lon="0">
        <time>2020-12-20T09:48:52.719000+00:00</time>
      </trkpt>
      <trkpt lat="0" lon="0">
        <time>2020-12-20T09:48:52.732000+00:00</time>
      </trkpt>
      <trkpt lat="0" lon="0">
        <time>2020-12-20T09:48:52.734000+00:00</time>
      </trkpt>
      <trkpt lat="47.34824" lon="-1.28269">
        <ele>73</ele>
        <time>2020-12-20T09:48:53.719000+00:00</time>
      </trkpt>
      <trkpt lat="0" lon="0">
        <time>2020-12-20T09:48:53.732000+00:00</time>
      </trkpt>
      <trkpt lat="0" lon="0">
        <time>2020-12-20T09:48:53.739000+00:00</time>
      </trkpt>
      <trkpt lat="0" lon="0">
        <time>2020-12-20T09:48:53.745000+00:00</time>
      </trkpt>
      <trkpt lat="47.3482" lon="-1.28277">
        <ele>72</ele>
        <time>2020-12-20T09:48:54.667000+00:00</time>
      </trkpt>
      <trkpt lat="0" lon="0">
        <time>2020-12-20T09:48:54.672000+00:00</time>
      </trkpt>
      <trkpt lat="0" lon="0">
        <time>2020-12-20T09:48:54.686000+00:00</time>
      </trkpt>
      <trkpt lat="0" lon="0">
        <time>2020-12-20T09:48:54.688000+00:00</time>
      </trkpt>
      <trkpt lat="47.34815" lon="-1.28285">
        <ele>72</ele>
        <time>2020-12-20T09:48:55.677000+00:00</time>
      </trkpt>
      <trkpt lat="0" lon="0">
        <time>2020-12-20T09:48:55.684000+00:00</time>
      </trkpt>
      <trkpt lat="0" lon="0">
        <time>2020-12-20T09:48:55.689000+00:00</time>
      </trkpt>
      <trkpt lat="0" lon="0">
        <time>2020-12-20T09:48:55.693000+00:00</time>
      </trkpt>
      <trkpt lat="47.34811" lon="-1.28294">
        <ele>72</ele>
        <time>2020-12-20T09:48:56.695000+00:00</time>
      </trkpt>
      <trkpt lat="0" lon="0">
        <time>2020-12-20T09:48:56.712000+00:00</time>
      </trkpt>
      <trkpt lat="0" lon="0">
        <time>2020-12-20T09:48:56.723000+00:00</time>
      </trkpt>
      <trkpt lat="0" lon="0">
        <time>2020-12-20T09:48:56.725000+00:00</time>
      </trkpt>
      <trkpt lat="47.34806" lon="-1.28303">
        <ele>71</ele>
        <time>2020-12-20T09:48:57.698000+00:00</time>
      </trkpt>
      <trkpt lat="0" lon="0">
        <time>2020-12-20T09:48:57.707000+00:00</time>
      </trkpt>
      <trkpt lat="0" lon="0">
        <time>2020-12-20T09:48:57.720000+00:00</time>
      </trkpt>
      <trkpt lat="0" lon="0">
        <time>2020-12-20T09:48:57.723000+00:00</time>
      </trkpt>
      <trkpt lat="47.34802" lon="-1.28313">
        <ele>71</ele>
        <time>2020-12-20T09:48:58.706000+00:00</time>
      </trkpt>
      <trkpt lat="0" lon="0">
        <time>2020-12-20T09:48:58.719000+00:00</time>
      </trkpt>
      <trkpt lat="0" lon="0">
        <time>2020-12-20T09:48:58.729000+00:00</time>
      </trkpt>
      <trkpt lat="0" lon="0">
        <time>2020-12-20T09:48:58.734000+00:00</time>
      </trkpt>
      <trkpt lat="47.34798" lon="-1.28322">
        <ele>71</ele>
        <time>2020-12-20T09:48:59.706000+00:00</time>
      </trkpt>
      <trkpt lat="0" lon="0">
        <time>2020-12-20T09:48:59.712000+00:00</time>
      </trkpt>
      <trkpt lat="0" lon="0">
        <time>2020-12-20T09:48:59.718000+00:00</time>
      </trkpt>
      <trkpt lat="0" lon="0">
        <time>2020-12-20T09:48:59.723000+00:00</time>
      </trkpt>
      <trkpt lat="47.34793" lon="-1.28332">
        <ele>71</ele>
        <time>2020-12-20T09:49:00.666000+00:00</time>
      </trkpt>
      <trkpt lat="0" lon="0">
        <time>2020-12-20T09:49:00.679000+00:00</time>
      </trkpt>
      <trkpt lat="0" lon="0">
        <time>2020-12-20T09:49:00.687000+00:00</time>
      </trkpt>
      <trkpt lat="0" lon="0">
        <time>2020-12-20T09:49:00.690000+00:00</time>
      </trkpt>
      <trkpt lat="47.34789" lon="-1.28342">
        <ele>70</ele>
        <time>2020-12-20T09:49:01.702000+00:00</time>
      </trkpt>
      <trkpt lat="0" lon="0">
        <time>2020-12-20T09:49:01.705000+00:00</time>
      </trkpt>
      <trkpt lat="0" lon="0">
        <time>2020-12-20T09:49:01.707000+00:00</time>
      </trkpt>
      <trkpt lat="0" lon="0">
        <time>2020-12-20T09:49:01.710000+00:00</time>
      </trkpt>
      <trkpt lat="47.34785" lon="-1.28352">
        <ele>70</ele>
        <time>2020-12-20T09:49:02.711000+00:00</time>
      </trkpt>
      <trkpt lat="0" lon="0">
        <time>2020-12-20T09:49:02.716000+00:00</time>
      </trkpt>
      <trkpt lat="0" lon="0">
        <time>2020-12-20T09:49:02.722000+00:00</time>
      </trkpt>
      <trkpt lat="0" lon="0">
        <time>2020-12-20T09:49:02.724000+00:00</time>
      </trkpt>
      <trkpt lat="47.34781" lon="-1.28362">
        <ele>69</ele>
        <time>2020-12-20T09:49:03.704000+00:00</time>
      </trkpt>
      <trkpt lat="0" lon="0">
        <time>2020-12-20T09:49:03.715000+00:00</time>
      </trkpt>
      <trkpt lat="0" lon="0">
        <time>2020-12-20T09:49:03.722000+00:00</time>
      </trkpt>
      <trkpt lat="0" lon="0">
        <time>2020-12-20T09:49:03.727000+00:00</time>
      </trkpt>
      <trkpt lat="47.34777" lon="-1.28373">
        <ele>68</ele>
        <time>2020-12-20T09:49:04.651000+00:00</time>
      </trkpt>
      <trkpt lat="0" lon="0">
        <time>2020-12-20T09:49:04.659000+00:00</time>
      </trkpt>
      <trkpt lat="0" lon="0">
        <time>2020-12-20T09:49:04.663000+00:00</time>
      </trkpt>
      <trkpt lat="0" lon="0">
        <time>2020-12-20T09:49:04.667000+00:00</time>
      </trkpt>
      <trkpt lat="47.34772" lon="-1.28383">
        <ele>68</ele>
        <time>2020-12-20T09:49:05.637000+00:00</time>
      </trkpt>
      <trkpt lat="0" lon="0">
        <time>2020-12-20T09:49:05.645000+00:00</time>
      </trkpt>
      <trkpt lat="0" lon="0">
        <time>2020-12-20T09:49:05.650000+00:00</time>
      </trkpt>
      <trkpt lat="0" lon="0">
        <time>2020-12-20T09:49:05.655000+00:00</time>
      </trkpt>
      <trkpt lat="47.34768" lon="-1.28394">
        <ele>67</ele>
        <time>2020-12-20T09:49:06.655000+00:00</time>
      </trkpt>
      <trkpt lat="0" lon="0">
        <time>2020-12-20T09:49:06.663000+00:00</time>
      </trkpt>
      <trkpt lat="0" lon="0">
        <time>2020-12-20T09:49:06.668000+00:00</time>
      </trkpt>
      <trkpt lat="0" lon="0">
        <time>2020-12-20T09:49:06.670000+00:00</time>
      </trkpt>
      <trkpt lat="47.34764" lon="-1.28405">
        <ele>66</ele>
        <time>2020-12-20T09:49:07.662000+00:00</time>
      </trkpt>
      <trkpt lat="0" lon="0">
        <time>2020-12-20T09:49:07.667000+00:00</time>
      </trkpt>
      <trkpt lat="0" lon="0">
        <time>2020-12-20T09:49:07.671000+00:00</time>
      </trkpt>
      <trkpt lat="0" lon="0">
        <time>2020-12-20T09:49:07.673000+00:00</time>
      </trkpt>
      <trkpt lat="47.34759" lon="-1.28416">
        <ele>65</ele>
        <time>2020-12-20T09:49:08.702000+00:00</time>
      </trkpt>
      <trkpt lat="0" lon="0">
        <time>2020-12-20T09:49:08.712000+00:00</time>
      </trkpt>
      <trkpt lat="0" lon="0">
        <time>2020-12-20T09:49:08.717000+00:00</time>
      </trkpt>
      <trkpt lat="0" lon="0">
        <time>2020-12-20T09:49:08.719000+00:00</time>
      </trkpt>
      <trkpt lat="47.34755" lon="-1.28427">
        <ele>64</ele>
        <time>2020-12-20T09:49:09.698000+00:00</time>
      </trkpt>
      <trkpt lat="0" lon="0">
        <time>2020-12-20T09:49:09.711000+00:00</time>
      </trkpt>
      <trkpt lat="0" lon="0">
        <time>2020-12-20T09:49:09.720000+00:00</time>
      </trkpt>
      <trkpt lat="0" lon="0">
        <time>2020-12-20T09:49:09.722000+00:00</time>
      </trkpt>
      <trkpt lat="47.3475" lon="-1.28439">
        <ele>63</ele>
        <time>2020-12-20T09:49:10.702000+00:00</time>
      </trkpt>
      <trkpt lat="0" lon="0">
        <time>2020-12-20T09:49:10.720000+00:00</time>
      </trkpt>
      <trkpt lat="0" lon="0">
        <time>2020-12-20T09:49:10.723000+00:00</time>
      </trkpt>
      <trkpt lat="0" lon="0">
        <time>2020-12-20T09:49:10.733000+00:00</time>
      </trkpt>
      <trkpt lat="47.34745" lon="-1.28451">
        <ele>62</ele>
        <time>2020-12-20T09:49:11.699000+00:00</time>
      </trkpt>
      <trkpt lat="0" lon="0">
        <time>2020-12-20T09:49:11.707000+00:00</time>
      </trkpt>
      <trkpt lat="0" lon="0">
        <time>2020-12-20T09:49:11.720000+00:00</time>
      </trkpt>
      <trkpt lat="0" lon="0">
        <time>2020-12-20T09:49:11.723000+00:00</time>
      </trkpt>
      <trkpt lat="47.34739" lon="-1.28463">
        <ele>62</ele>
        <time>2020-12-20T09:49:12.690000+00:00</time>
      </trkpt>
      <trkpt lat="0" lon="0">
        <time>2020-12-20T09:49:12.704000+00:00</time>
      </trkpt>
      <trkpt lat="0" lon="0">
        <time>2020-12-20T09:49:12.708000+00:00</time>
      </trkpt>
      <trkpt lat="0" lon="0">
        <time>2020-12-20T09:49:12.710000+00:00</time>
      </trkpt>
      <trkpt lat="47.34734" lon="-1.28475">
        <ele>61</ele>
        <time>2020-12-20T09:49:13.640000+00:00</time>
      </trkpt>
      <trkpt lat="0" lon="0">
        <time>2020-12-20T09:49:13.642000+00:00</time>
      </trkpt>
      <trkpt lat="0" lon="0">
        <time>2020-12-20T09:49:13.643000+00:00</time>
      </trkpt>
      <trkpt lat="0" lon="0">
        <time>2020-12-20T09:49:13.646000+00:00</time>
      </trkpt>
      <trkpt lat="47.34728" lon="-1.28486">
        <ele>61</ele>
        <time>2020-12-20T09:49:14.687000+00:00</time>
      </trkpt>
      <trkpt lat="0" lon="0">
        <time>2020-12-20T09:49:14.697000+00:00</time>
      </trkpt>
      <trkpt lat="0" lon="0">
        <time>2020-12-20T09:49:14.702000+00:00</time>
      </trkpt>
      <trkpt lat="0" lon="0">
        <time>2020-12-20T09:49:14.706000+00:00</time>
      </trkpt>
      <trkpt lat="47.34721" lon="-1.28497">
        <ele>61</ele>
        <time>2020-12-20T09:49:15.678000+00:00</time>
      </trkpt>
      <trkpt lat="0" lon="0">
        <time>2020-12-20T09:49:15.683000+00:00</time>
      </trkpt>
      <trkpt lat="0" lon="0">
        <time>2020-12-20T09:49:15.693000+00:00</time>
      </trkpt>
      <trkpt lat="0" lon="0">
        <time>2020-12-20T09:49:15.695000+00:00</time>
      </trkpt>
      <trkpt lat="47.34715" lon="-1.28507">
        <ele>60</ele>
        <time>2020-12-20T09:49:16.700000+00:00</time>
      </trkpt>
      <trkpt lat="0" lon="0">
        <time>2020-12-20T09:49:16.714000+00:00</time>
      </trkpt>
      <trkpt lat="0" lon="0">
        <time>2020-12-20T09:49:16.721000+00:00</time>
      </trkpt>
      <trkpt lat="0" lon="0">
        <time>2020-12-20T09:49:16.722000+00:00</time>
      </trkpt>
      <trkpt lat="47.34708" lon="-1.28516">
        <ele>60</ele>
        <time>2020-12-20T09:49:17.697000+00:00</time>
      </trkpt>
      <trkpt lat="0" lon="0">
        <time>2020-12-20T09:49:17.714000+00:00</time>
      </trkpt>
      <trkpt lat="0" lon="0">
        <time>2020-12-20T09:49:17.726000+00:00</time>
      </trkpt>
      <trkpt lat="0" lon="0">
        <time>2020-12-20T09:49:17.730000+00:00</time>
      </trkpt>
      <trkpt lat="47.347" lon="-1.28524">
        <ele>60</ele>
        <time>2020-12-20T09:49:18.721000+00:00</time>
      </trkpt>
      <trkpt lat="0" lon="0">
        <time>2020-12-20T09:49:18.730000+00:00</time>
      </trkpt>
      <trkpt lat="0" lon="0">
        <time>2020-12-20T09:49:18.735000+00:00</time>
      </trkpt>
      <trkpt lat="0" lon="0">
        <time>2020-12-20T09:49:18.737000+00:00</time>
      </trkpt>
      <trkpt lat="47.34693" lon="-1.28532">
        <ele>59</ele>
        <time>2020-12-20T09:49:19.717000+00:00</time>
      </trkpt>
      <trkpt lat="0" lon="0">
        <time>2020-12-20T09:49:19.736000+00:00</time>
      </trkpt>
      <trkpt lat="0" lon="0">
        <time>2020-12-20T09:49:19.739000+00:00</time>
      </trkpt>
      <trkpt lat="0" lon="0">
        <time>2020-12-20T09:49:19.742000+00:00</time>
      </trkpt>
      <trkpt lat="47.34687" lon="-1.2854">
        <ele>59</ele>
        <time>2020-12-20T09:49:20.708000+00:00</time>
      </trkpt>
      <trkpt lat="0" lon="0">
        <time>2020-12-20T09:49:20.722000+00:00</time>
      </trkpt>
      <trkpt lat="0" lon="0">
        <time>2020-12-20T09:49:20.728000+00:00</time>
      </trkpt>
      <trkpt lat="0" lon="0">
        <time>2020-12-20T09:49:20.733000+00:00</time>
      </trkpt>
      <trkpt lat="47.3468" lon="-1.28547">
        <ele>59</ele>
        <time>2020-12-20T09:49:21.711000+00:00</time>
      </trkpt>
      <trkpt lat="0" lon="0">
        <time>2020-12-20T09:49:21.720000+00:00</time>
      </trkpt>
      <trkpt lat="0" lon="0">
        <time>2020-12-20T09:49:21.729000+00:00</time>
      </trkpt>
      <trkpt lat="0" lon="0">
        <time>2020-12-20T09:49:21.731000+00:00</time>
      </trkpt>
      <trkpt lat="47.34675" lon="-1.28555">
        <ele>59</ele>
        <time>2020-12-20T09:49:22.741000+00:00</time>
      </trkpt>
      <trkpt lat="0" lon="0">
        <time>2020-12-20T09:49:22.754000+00:00</time>
      </trkpt>
      <trkpt lat="0" lon="0">
        <time>2020-12-20T09:49:22.756000+00:00</time>
      </trkpt>
      <trkpt lat="0" lon="0">
        <time>2020-12-20T09:49:22.757000+00:00</time>
      </trkpt>
      <trkpt lat="47.3467" lon="-1.28563">
        <ele>59</ele>
        <time>2020-12-20T09:49:23.705000+00:00</time>
      </trkpt>
      <trkpt lat="0" lon="0">
        <time>2020-12-20T09:49:23.717000+00:00</time>
      </trkpt>
      <trkpt lat="0" lon="0">
        <time>2020-12-20T09:49:23.722000+00:00</time>
      </trkpt>
      <trkpt lat="0" lon="0">
        <time>2020-12-20T09:49:23.725000+00:00</time>
      </trkpt>
      <trkpt lat="47.34665" lon="-1.28571">
        <ele>59</ele>
        <time>2020-12-20T09:49:24.719000+00:00</time>
      </trkpt>
      <trkpt lat="0" lon="0">
        <time>2020-12-20T09:49:24.728000+00:00</time>
      </trkpt>
      <trkpt lat="0" lon="0">
        <time>2020-12-20T09:49:24.732000+00:00</time>
      </trkpt>
      <trkpt lat="0" lon="0">
        <time>2020-12-20T09:49:24.739000+00:00</time>
      </trkpt>
      <trkpt lat="47.34661" lon="-1.2858">
        <ele>58</ele>
        <time>2020-12-20T09:49:25.733000+00:00</time>
      </trkpt>
      <trkpt lat="0" lon="0">
        <time>2020-12-20T09:49:25.741000+00:00</time>
      </trkpt>
      <trkpt lat="0" lon="0">
        <time>2020-12-20T09:49:25.745000+00:00</time>
      </trkpt>
      <trkpt lat="0" lon="0">
        <time>2020-12-20T09:49:25.748000+00:00</time>
      </trkpt>
      <trkpt lat="47.34658" lon="-1.28587">
        <ele>58</ele>
        <time>2020-12-20T09:49:26.680000+00:00</time>
      </trkpt>
      <trkpt lat="0" lon="0">
        <time>2020-12-20T09:49:26.705000+00:00</time>
      </trkpt>
      <trkpt lat="0" lon="0">
        <time>2020-12-20T09:49:26.708000+00:00</time>
      </trkpt>
      <trkpt lat="0" lon="0">
        <time>2020-12-20T09:49:26.713000+00:00</time>
      </trkpt>
      <trkpt lat="47.34654" lon="-1.28594">
        <ele>58</ele>
        <time>2020-12-20T09:49:27.695000+00:00</time>
      </trkpt>
      <trkpt lat="0" lon="0">
        <time>2020-12-20T09:49:27.708000+00:00</time>
      </trkpt>
      <trkpt lat="0" lon="0">
        <time>2020-12-20T09:49:27.713000+00:00</time>
      </trkpt>
      <trkpt lat="0" lon="0">
        <time>2020-12-20T09:49:27.717000+00:00</time>
      </trkpt>
      <trkpt lat="47.34652" lon="-1.28601">
        <ele>57</ele>
        <time>2020-12-20T09:49:28.710000+00:00</time>
      </trkpt>
      <trkpt lat="0" lon="0">
        <time>2020-12-20T09:49:28.728000+00:00</time>
      </trkpt>
      <trkpt lat="0" lon="0">
        <time>2020-12-20T09:49:28.736000+00:00</time>
      </trkpt>
      <trkpt lat="0" lon="0">
        <time>2020-12-20T09:49:28.744000+00:00</time>
      </trkpt>
      <trkpt lat="47.34649" lon="-1.28606">
        <ele>57</ele>
        <time>2020-12-20T09:49:29.725000+00:00</time>
      </trkpt>
      <trkpt lat="0" lon="0">
        <time>2020-12-20T09:49:29.734000+00:00</time>
      </trkpt>
      <trkpt lat="0" lon="0">
        <time>2020-12-20T09:49:29.740000+00:00</time>
      </trkpt>
      <trkpt lat="0" lon="0">
        <time>2020-12-20T09:49:29.742000+00:00</time>
      </trkpt>
      <trkpt lat="47.34647" lon="-1.28611">
        <ele>57</ele>
        <time>2020-12-20T09:49:30.692000+00:00</time>
      </trkpt>
      <trkpt lat="0" lon="0">
        <time>2020-12-20T09:49:30.695000+00:00</time>
      </trkpt>
      <trkpt lat="0" lon="0">
        <time>2020-12-20T09:49:30.716000+00:00</time>
      </trkpt>
      <trkpt lat="0" lon="0">
        <time>2020-12-20T09:49:30.718000+00:00</time>
      </trkpt>
      <trkpt lat="47.34645" lon="-1.28615">
        <ele>57</ele>
        <time>2020-12-20T09:49:31.708000+00:00</time>
      </trkpt>
      <trkpt lat="0" lon="0">
        <time>2020-12-20T09:49:31.721000+00:00</time>
      </trkpt>
      <trkpt lat="0" lon="0">
        <time>2020-12-20T09:49:31.726000+00:00</time>
      </trkpt>
      <trkpt lat="0" lon="0">
        <time>2020-12-20T09:49:31.728000+00:00</time>
      </trkpt>
      <trkpt lat="47.34643" lon="-1.28619">
        <ele>57</ele>
        <time>2020-12-20T09:49:32.704000+00:00</time>
      </trkpt>
      <trkpt lat="0" lon="0">
        <time>2020-12-20T09:49:32.715000+00:00</time>
      </trkpt>
      <trkpt lat="0" lon="0">
        <time>2020-12-20T09:49:32.722000+00:00</time>
      </trkpt>
      <trkpt lat="0" lon="0">
        <time>2020-12-20T09:49:32.725000+00:00</time>
      </trkpt>
      <trkpt lat="47.34641" lon="-1.28622">
        <ele>56</ele>
        <time>2020-12-20T09:49:33.726000+00:00</time>
      </trkpt>
      <trkpt lat="0" lon="0">
        <time>2020-12-20T09:49:33.733000+00:00</time>
      </trkpt>
      <trkpt lat="0" lon="0">
        <time>2020-12-20T09:49:33.735000+00:00</time>
      </trkpt>
      <trkpt lat="0" lon="0">
        <time>2020-12-20T09:49:33.737000+00:00</time>
      </trkpt>
      <trkpt lat="47.34638" lon="-1.28626">
        <ele>56</ele>
        <time>2020-12-20T09:49:34.692000+00:00</time>
      </trkpt>
      <trkpt lat="0" lon="0">
        <time>2020-12-20T09:49:34.697000+00:00</time>
      </trkpt>
      <trkpt lat="0" lon="0">
        <time>2020-12-20T09:49:34.701000+00:00</time>
      </trkpt>
      <trkpt lat="0" lon="0">
        <time>2020-12-20T09:49:34.704000+00:00</time>
      </trkpt>
      <trkpt lat="47.34636" lon="-1.28629">
        <ele>56</ele>
        <time>2020-12-20T09:49:35.689000+00:00</time>
      </trkpt>
      <trkpt lat="0" lon="0">
        <time>2020-12-20T09:49:35.696000+00:00</time>
      </trkpt>
      <trkpt lat="0" lon="0">
        <time>2020-12-20T09:49:35.702000+00:00</time>
      </trkpt>
      <trkpt lat="0" lon="0">
        <time>2020-12-20T09:49:35.710000+00:00</time>
      </trkpt>
      <trkpt lat="47.34633" lon="-1.28633">
        <ele>56</ele>
        <time>2020-12-20T09:49:36.665000+00:00</time>
      </trkpt>
      <trkpt lat="0" lon="0">
        <time>2020-12-20T09:49:36.673000+00:00</time>
      </trkpt>
      <trkpt lat="0" lon="0">
        <time>2020-12-20T09:49:36.675000+00:00</time>
      </trkpt>
      <trkpt lat="47.3463" lon="-1.28638">
        <ele>56</ele>
        <time>2020-12-20T09:49:37.688000+00:00</time>
      </trkpt>
      <trkpt lat="0" lon="0">
        <time>2020-12-20T09:49:37.697000+00:00</time>
      </trkpt>
      <trkpt lat="0" lon="0">
        <time>2020-12-20T09:49:37.703000+00:00</time>
      </trkpt>
      <trkpt lat="0" lon="0">
        <time>2020-12-20T09:49:37.705000+00:00</time>
      </trkpt>
      <trkpt lat="47.34627" lon="-1.28643">
        <ele>54</ele>
        <time>2020-12-20T09:49:38.680000+00:00</time>
      </trkpt>
      <trkpt lat="0" lon="0">
        <time>2020-12-20T09:49:38.686000+00:00</time>
      </trkpt>
      <trkpt lat="0" lon="0">
        <time>2020-12-20T09:49:38.693000+00:00</time>
      </trkpt>
      <trkpt lat="0" lon="0">
        <time>2020-12-20T09:49:38.695000+00:00</time>
      </trkpt>
      <trkpt lat="47.34624" lon="-1.28648">
        <ele>54</ele>
        <time>2020-12-20T09:49:39.689000+00:00</time>
      </trkpt>
      <trkpt lat="0" lon="0">
        <time>2020-12-20T09:49:39.715000+00:00</time>
      </trkpt>
      <trkpt lat="0" lon="0">
        <time>2020-12-20T09:49:39.719000+00:00</time>
      </trkpt>
      <trkpt lat="0" lon="0">
        <time>2020-12-20T09:49:39.720000+00:00</time>
      </trkpt>
      <trkpt lat="47.34621" lon="-1.28653">
        <ele>53</ele>
        <time>2020-12-20T09:49:40.733000+00:00</time>
      </trkpt>
      <trkpt lat="0" lon="0">
        <time>2020-12-20T09:49:40.743000+00:00</time>
      </trkpt>
      <trkpt lat="0" lon="0">
        <time>2020-12-20T09:49:40.748000+00:00</time>
      </trkpt>
      <trkpt lat="0" lon="0">
        <time>2020-12-20T09:49:40.751000+00:00</time>
      </trkpt>
      <trkpt lat="47.34618" lon="-1.28658">
        <ele>52</ele>
        <time>2020-12-20T09:49:41.726000+00:00</time>
      </trkpt>
      <trkpt lat="0" lon="0">
        <time>2020-12-20T09:49:41.734000+00:00</time>
      </trkpt>
      <trkpt lat="0" lon="0">
        <time>2020-12-20T09:49:41.739000+00:00</time>
      </trkpt>
      <trkpt lat="0" lon="0">
        <time>2020-12-20T09:49:41.742000+00:00</time>
      </trkpt>
      <trkpt lat="47.34615" lon="-1.28663">
        <ele>52</ele>
        <time>2020-12-20T09:49:42.713000+00:00</time>
      </trkpt>
      <trkpt lat="0" lon="0">
        <time>2020-12-20T09:49:42.722000+00:00</time>
      </trkpt>
      <trkpt lat="0" lon="0">
        <time>2020-12-20T09:49:42.726000+00:00</time>
      </trkpt>
      <trkpt lat="0" lon="0">
        <time>2020-12-20T09:49:42.729000+00:00</time>
      </trkpt>
      <trkpt lat="47.34612" lon="-1.28668">
        <ele>52</ele>
        <time>2020-12-20T09:49:43.717000+00:00</time>
      </trkpt>
      <trkpt lat="0" lon="0">
        <time>2020-12-20T09:49:43.724000+00:00</time>
      </trkpt>
      <trkpt lat="0" lon="0">
        <time>2020-12-20T09:49:43.729000+00:00</time>
      </trkpt>
      <trkpt lat="0" lon="0">
        <time>2020-12-20T09:49:43.732000+00:00</time>
      </trkpt>
      <trkpt lat="47.34609" lon="-1.28673">
        <ele>53</ele>
        <time>2020-12-20T09:49:44.685000+00:00</time>
      </trkpt>
      <trkpt lat="0" lon="0">
        <time>2020-12-20T09:49:44.702000+00:00</time>
      </trkpt>
      <trkpt lat="0" lon="0">
        <time>2020-12-20T09:49:44.708000+00:00</time>
      </trkpt>
      <trkpt lat="0" lon="0">
        <time>2020-12-20T09:49:44.710000+00:00</time>
      </trkpt>
      <trkpt lat="47.34607" lon="-1.28678">
        <ele>53</ele>
        <time>2020-12-20T09:49:45.710000+00:00</time>
      </trkpt>
      <trkpt lat="0" lon="0">
        <time>2020-12-20T09:49:45.719000+00:00</time>
      </trkpt>
      <trkpt lat="0" lon="0">
        <time>2020-12-20T09:49:45.723000+00:00</time>
      </trkpt>
      <trkpt lat="0" lon="0">
        <time>2020-12-20T09:49:45.726000+00:00</time>
      </trkpt>
      <trkpt lat="47.34604" lon="-1.28682">
        <ele>53</ele>
        <time>2020-12-20T09:49:46.714000+00:00</time>
      </trkpt>
      <trkpt lat="0" lon="0">
        <time>2020-12-20T09:49:46.737000+00:00</time>
      </trkpt>
      <trkpt lat="0" lon="0">
        <time>2020-12-20T09:49:46.743000+00:00</time>
      </trkpt>
      <trkpt lat="0" lon="0">
        <time>2020-12-20T09:49:46.750000+00:00</time>
      </trkpt>
      <trkpt lat="47.34602" lon="-1.28687">
        <ele>53</ele>
        <time>2020-12-20T09:49:47.710000+00:00</time>
      </trkpt>
      <trkpt lat="0" lon="0">
        <time>2020-12-20T09:49:47.722000+00:00</time>
      </trkpt>
      <trkpt lat="0" lon="0">
        <time>2020-12-20T09:49:47.726000+00:00</time>
      </trkpt>
      <trkpt lat="0" lon="0">
        <time>2020-12-20T09:49:47.728000+00:00</time>
      </trkpt>
      <trkpt lat="47.346" lon="-1.28691">
        <ele>54</ele>
        <time>2020-12-20T09:49:48.695000+00:00</time>
      </trkpt>
      <trkpt lat="0" lon="0">
        <time>2020-12-20T09:49:48.700000+00:00</time>
      </trkpt>
      <trkpt lat="0" lon="0">
        <time>2020-12-20T09:49:48.704000+00:00</time>
      </trkpt>
      <trkpt lat="0" lon="0">
        <time>2020-12-20T09:49:48.706000+00:00</time>
      </trkpt>
      <trkpt lat="47.34598" lon="-1.28694">
        <ele>53</ele>
        <time>2020-12-20T09:49:49.699000+00:00</time>
      </trkpt>
      <trkpt lat="0" lon="0">
        <time>2020-12-20T09:49:49.721000+00:00</time>
      </trkpt>
      <trkpt lat="0" lon="0">
        <time>2020-12-20T09:49:49.723000+00:00</time>
      </trkpt>
      <trkpt lat="0" lon="0">
        <time>2020-12-20T09:49:49.725000+00:00</time>
      </trkpt>
      <trkpt lat="47.34597" lon="-1.28698">
        <ele>53</ele>
        <time>2020-12-20T09:49:50.730000+00:00</time>
      </trkpt>
      <trkpt lat="0" lon="0">
        <time>2020-12-20T09:49:50.744000+00:00</time>
      </trkpt>
      <trkpt lat="0" lon="0">
        <time>2020-12-20T09:49:50.749000+00:00</time>
      </trkpt>
      <trkpt lat="0" lon="0">
        <time>2020-12-20T09:49:50.752000+00:00</time>
      </trkpt>
      <trkpt lat="47.34596" lon="-1.28702">
        <ele>53</ele>
        <time>2020-12-20T09:49:51.690000+00:00</time>
      </trkpt>
      <trkpt lat="0" lon="0">
        <time>2020-12-20T09:49:51.703000+00:00</time>
      </trkpt>
      <trkpt lat="0" lon="0">
        <time>2020-12-20T09:49:51.705000+00:00</time>
      </trkpt>
      <trkpt lat="0" lon="0">
        <time>2020-12-20T09:49:51.706000+00:00</time>
      </trkpt>
      <trkpt lat="47.34595" lon="-1.28705">
        <ele>54</ele>
        <time>2020-12-20T09:49:52.686000+00:00</time>
      </trkpt>
      <trkpt lat="0" lon="0">
        <time>2020-12-20T09:49:52.693000+00:00</time>
      </trkpt>
      <trkpt lat="0" lon="0">
        <time>2020-12-20T09:49:52.696000+00:00</time>
      </trkpt>
      <trkpt lat="0" lon="0">
        <time>2020-12-20T09:49:52.697000+00:00</time>
      </trkpt>
      <trkpt lat="47.34595" lon="-1.28708">
        <ele>54</ele>
        <time>2020-12-20T09:49:53.714000+00:00</time>
      </trkpt>
      <trkpt lat="0" lon="0">
        <time>2020-12-20T09:49:53.722000+00:00</time>
      </trkpt>
      <trkpt lat="0" lon="0">
        <time>2020-12-20T09:49:53.728000+00:00</time>
      </trkpt>
      <trkpt lat="0" lon="0">
        <time>2020-12-20T09:49:53.734000+00:00</time>
      </trkpt>
      <trkpt lat="47.34594" lon="-1.28711">
        <ele>54</ele>
        <time>2020-12-20T09:49:54.702000+00:00</time>
      </trkpt>
      <trkpt lat="0" lon="0">
        <time>2020-12-20T09:49:54.711000+00:00</time>
      </trkpt>
      <trkpt lat="0" lon="0">
        <time>2020-12-20T09:49:54.717000+00:00</time>
      </trkpt>
      <trkpt lat="0" lon="0">
        <time>2020-12-20T09:49:54.721000+00:00</time>
      </trkpt>
      <trkpt lat="47.34594" lon="-1.28714">
        <ele>54</ele>
        <time>2020-12-20T09:49:55.700000+00:00</time>
      </trkpt>
      <trkpt lat="0" lon="0">
        <time>2020-12-20T09:49:55.709000+00:00</time>
      </trkpt>
      <trkpt lat="0" lon="0">
        <time>2020-12-20T09:49:55.714000+00:00</time>
      </trkpt>
      <trkpt lat="0" lon="0">
        <time>2020-12-20T09:49:55.717000+00:00</time>
      </trkpt>
      <trkpt lat="47.34594" lon="-1.28715">
        <ele>54</ele>
        <time>2020-12-20T09:49:56.706000+00:00</time>
      </trkpt>
      <trkpt lat="0" lon="0">
        <time>2020-12-20T09:49:56.718000+00:00</time>
      </trkpt>
      <trkpt lat="0" lon="0">
        <time>2020-12-20T09:49:56.724000+00:00</time>
      </trkpt>
      <trkpt lat="0" lon="0">
        <time>2020-12-20T09:49:56.726000+00:00</time>
      </trkpt>
      <trkpt lat="47.34593" lon="-1.28717">
        <ele>54</ele>
        <time>2020-12-20T09:49:57.676000+00:00</time>
      </trkpt>
      <trkpt lat="0" lon="0">
        <time>2020-12-20T09:49:57.681000+00:00</time>
      </trkpt>
      <trkpt lat="0" lon="0">
        <time>2020-12-20T09:49:57.684000+00:00</time>
      </trkpt>
      <trkpt lat="0" lon="0">
        <time>2020-12-20T09:49:57.687000+00:00</time>
      </trkpt>
      <trkpt lat="47.34593" lon="-1.28717">
        <ele>54</ele>
        <time>2020-12-20T09:49:58.658000+00:00</time>
      </trkpt>
      <trkpt lat="0" lon="0">
        <time>2020-12-20T09:49:58.661000+00:00</time>
      </trkpt>
      <trkpt lat="0" lon="0">
        <time>2020-12-20T09:49:58.662000+00:00</time>
      </trkpt>
      <trkpt lat="0" lon="0">
        <time>2020-12-20T09:49:58.663000+00:00</time>
      </trkpt>
      <trkpt lat="47.34593" lon="-1.28718">
        <ele>54</ele>
        <time>2020-12-20T09:49:59.716000+00:00</time>
      </trkpt>
      <trkpt lat="0" lon="0">
        <time>2020-12-20T09:49:59.739000+00:00</time>
      </trkpt>
      <trkpt lat="0" lon="0">
        <time>2020-12-20T09:49:59.746000+00:00</time>
      </trkpt>
      <trkpt lat="0" lon="0">
        <time>2020-12-20T09:49:59.749000+00:00</time>
      </trkpt>
      <trkpt lat="47.34593" lon="-1.28718">
        <ele>54</ele>
        <time>2020-12-20T09:50:00.712000+00:00</time>
      </trkpt>
      <trkpt lat="0" lon="0">
        <time>2020-12-20T09:50:00.720000+00:00</time>
      </trkpt>
      <trkpt lat="0" lon="0">
        <time>2020-12-20T09:50:00.726000+00:00</time>
      </trkpt>
      <trkpt lat="0" lon="0">
        <time>2020-12-20T09:50:00.730000+00:00</time>
      </trkpt>
      <trkpt lat="47.34593" lon="-1.28718">
        <ele>54</ele>
        <time>2020-12-20T09:50:01.681000+00:00</time>
      </trkpt>
      <trkpt lat="0" lon="0">
        <time>2020-12-20T09:50:01.698000+00:00</time>
      </trkpt>
      <trkpt lat="0" lon="0">
        <time>2020-12-20T09:50:01.707000+00:00</time>
      </trkpt>
      <trkpt lat="0" lon="0">
        <time>2020-12-20T09:50:01.710000+00:00</time>
      </trkpt>
      <trkpt lat="47.34594" lon="-1.28718">
        <ele>54</ele>
        <time>2020-12-20T09:50:02.701000+00:00</time>
      </trkpt>
      <trkpt lat="0" lon="0">
        <time>2020-12-20T09:50:02.720000+00:00</time>
      </trkpt>
      <trkpt lat="0" lon="0">
        <time>2020-12-20T09:50:02.726000+00:00</time>
      </trkpt>
      <trkpt lat="0" lon="0">
        <time>2020-12-20T09:50:02.727000+00:00</time>
      </trkpt>
      <trkpt lat="47.34594" lon="-1.28717">
        <ele>54</ele>
        <time>2020-12-20T09:50:03.716000+00:00</time>
      </trkpt>
      <trkpt lat="0" lon="0">
        <time>2020-12-20T09:50:03.723000+00:00</time>
      </trkpt>
      <trkpt lat="0" lon="0">
        <time>2020-12-20T09:50:03.727000+00:00</time>
      </trkpt>
      <trkpt lat="0" lon="0">
        <time>2020-12-20T09:50:03.730000+00:00</time>
      </trkpt>
      <trkpt lat="47.34594" lon="-1.28717">
        <ele>54</ele>
        <time>2020-12-20T09:50:04.713000+00:00</time>
      </trkpt>
      <trkpt lat="0" lon="0">
        <time>2020-12-20T09:50:04.723000+00:00</time>
      </trkpt>
      <trkpt lat="0" lon="0">
        <time>2020-12-20T09:50:04.729000+00:00</time>
      </trkpt>
      <trkpt lat="0" lon="0">
        <time>2020-12-20T09:50:04.732000+00:00</time>
      </trkpt>
      <trkpt lat="47.34594" lon="-1.28716">
        <ele>54</ele>
        <time>2020-12-20T09:50:05.701000+00:00</time>
      </trkpt>
      <trkpt lat="0" lon="0">
        <time>2020-12-20T09:50:05.712000+00:00</time>
      </trkpt>
      <trkpt lat="0" lon="0">
        <time>2020-12-20T09:50:05.723000+00:00</time>
      </trkpt>
      <trkpt lat="0" lon="0">
        <time>2020-12-20T09:50:05.729000+00:00</time>
      </trkpt>
      <trkpt lat="47.34595" lon="-1.28715">
        <ele>54</ele>
        <time>2020-12-20T09:50:06.731000+00:00</time>
      </trkpt>
      <trkpt lat="0" lon="0">
        <time>2020-12-20T09:50:06.743000+00:00</time>
      </trkpt>
      <trkpt lat="0" lon="0">
        <time>2020-12-20T09:50:06.753000+00:00</time>
      </trkpt>
      <trkpt lat="0" lon="0">
        <time>2020-12-20T09:50:06.756000+00:00</time>
      </trkpt>
      <trkpt lat="47.34595" lon="-1.28715">
        <ele>53</ele>
        <time>2020-12-20T09:50:07.722000+00:00</time>
      </trkpt>
      <trkpt lat="0" lon="0">
        <time>2020-12-20T09:50:07.732000+00:00</time>
      </trkpt>
      <trkpt lat="0" lon="0">
        <time>2020-12-20T09:50:07.740000+00:00</time>
      </trkpt>
      <trkpt lat="0" lon="0">
        <time>2020-12-20T09:50:07.754000+00:00</time>
      </trkpt>
      <trkpt lat="47.34587" lon="-1.2874">
        <ele>53</ele>
        <time>2020-12-20T09:50:08.701000+00:00</time>
      </trkpt>
      <trkpt lat="0" lon="0">
        <time>2020-12-20T09:50:08.712000+00:00</time>
      </trkpt>
      <trkpt lat="0" lon="0">
        <time>2020-12-20T09:50:08.715000+00:00</time>
      </trkpt>
      <trkpt lat="0" lon="0">
        <time>2020-12-20T09:50:08.720000+00:00</time>
      </trkpt>
      <trkpt lat="47.34586" lon="-1.28746">
        <ele>52</ele>
        <time>2020-12-20T09:50:09.754000+00:00</time>
      </trkpt>
      <trkpt lat="0" lon="0">
        <time>2020-12-20T09:50:09.762000+00:00</time>
      </trkpt>
      <trkpt lat="0" lon="0">
        <time>2020-12-20T09:50:09.764000+00:00</time>
      </trkpt>
      <trkpt lat="0" lon="0">
        <time>2020-12-20T09:50:09.766000+00:00</time>
      </trkpt>
      <trkpt lat="47.34585" lon="-1.28751">
        <ele>53</ele>
        <time>2020-12-20T09:50:10.738000+00:00</time>
      </trkpt>
      <trkpt lat="0" lon="0">
        <time>2020-12-20T09:50:10.742000+00:00</time>
      </trkpt>
      <trkpt lat="0" lon="0">
        <time>2020-12-20T09:50:10.752000+00:00</time>
      </trkpt>
      <trkpt lat="0" lon="0">
        <time>2020-12-20T09:50:10.754000+00:00</time>
      </trkpt>
      <trkpt lat="47.34583" lon="-1.28758">
        <ele>53</ele>
        <time>2020-12-20T09:50:11.764000+00:00</time>
      </trkpt>
      <trkpt lat="0" lon="0">
        <time>2020-12-20T09:50:11.775000+00:00</time>
      </trkpt>
      <trkpt lat="0" lon="0">
        <time>2020-12-20T09:50:11.779000+00:00</time>
      </trkpt>
      <trkpt lat="0" lon="0">
        <time>2020-12-20T09:50:11.783000+00:00</time>
      </trkpt>
      <trkpt lat="47.34582" lon="-1.28764">
        <ele>52</ele>
        <time>2020-12-20T09:50:12.762000+00:00</time>
      </trkpt>
      <trkpt lat="0" lon="0">
        <time>2020-12-20T09:50:12.770000+00:00</time>
      </trkpt>
      <trkpt lat="0" lon="0">
        <time>2020-12-20T09:50:12.776000+00:00</time>
      </trkpt>
      <trkpt lat="0" lon="0">
        <time>2020-12-20T09:50:12.780000+00:00</time>
      </trkpt>
      <trkpt lat="47.3458" lon="-1.28771">
        <ele>52</ele>
        <time>2020-12-20T09:50:13.760000+00:00</time>
      </trkpt>
      <trkpt lat="0" lon="0">
        <time>2020-12-20T09:50:13.775000+00:00</time>
      </trkpt>
      <trkpt lat="0" lon="0">
        <time>2020-12-20T09:50:13.780000+00:00</time>
      </trkpt>
      <trkpt lat="0" lon="0">
        <time>2020-12-20T09:50:13.783000+00:00</time>
      </trkpt>
      <trkpt lat="47.34578" lon="-1.28778">
        <ele>51</ele>
        <time>2020-12-20T09:50:14.757000+00:00</time>
      </trkpt>
      <trkpt lat="0" lon="0">
        <time>2020-12-20T09:50:14.764000+00:00</time>
      </trkpt>
      <trkpt lat="0" lon="0">
        <time>2020-12-20T09:50:14.770000+00:00</time>
      </trkpt>
      <trkpt lat="0" lon="0">
        <time>2020-12-20T09:50:14.774000+00:00</time>
      </trkpt>
      <trkpt lat="47.34577" lon="-1.28784">
        <ele>51</ele>
        <time>2020-12-20T09:50:15.752000+00:00</time>
      </trkpt>
      <trkpt lat="0" lon="0">
        <time>2020-12-20T09:50:15.759000+00:00</time>
      </trkpt>
      <trkpt lat="0" lon="0">
        <time>2020-12-20T09:50:15.763000+00:00</time>
      </trkpt>
      <trkpt lat="0" lon="0">
        <time>2020-12-20T09:50:15.765000+00:00</time>
      </trkpt>
      <trkpt lat="47.34575" lon="-1.28791">
        <ele>51</ele>
        <time>2020-12-20T09:50:16.764000+00:00</time>
      </trkpt>
      <trkpt lat="0" lon="0">
        <time>2020-12-20T09:50:16.771000+00:00</time>
      </trkpt>
      <trkpt lat="0" lon="0">
        <time>2020-12-20T09:50:16.778000+00:00</time>
      </trkpt>
      <trkpt lat="0" lon="0">
        <time>2020-12-20T09:50:16.780000+00:00</time>
      </trkpt>
      <trkpt lat="47.34574" lon="-1.28798">
        <ele>51</ele>
        <time>2020-12-20T09:50:17.755000+00:00</time>
      </trkpt>
      <trkpt lat="0" lon="0">
        <time>2020-12-20T09:50:17.764000+00:00</time>
      </trkpt>
      <trkpt lat="0" lon="0">
        <time>2020-12-20T09:50:17.771000+00:00</time>
      </trkpt>
      <trkpt lat="0" lon="0">
        <time>2020-12-20T09:50:17.773000+00:00</time>
      </trkpt>
      <trkpt lat="47.34572" lon="-1.28804">
        <ele>51</ele>
        <time>2020-12-20T09:50:18.752000+00:00</time>
      </trkpt>
      <trkpt lat="0" lon="0">
        <time>2020-12-20T09:50:18.766000+00:00</time>
      </trkpt>
      <trkpt lat="0" lon="0">
        <time>2020-12-20T09:50:18.774000+00:00</time>
      </trkpt>
      <trkpt lat="0" lon="0">
        <time>2020-12-20T09:50:18.781000+00:00</time>
      </trkpt>
      <trkpt lat="47.3457" lon="-1.2881">
        <ele>51</ele>
        <time>2020-12-20T09:50:19.721000+00:00</time>
      </trkpt>
      <trkpt lat="0" lon="0">
        <time>2020-12-20T09:50:19.726000+00:00</time>
      </trkpt>
      <trkpt lat="0" lon="0">
        <time>2020-12-20T09:50:19.732000+00:00</time>
      </trkpt>
      <trkpt lat="0" lon="0">
        <time>2020-12-20T09:50:19.734000+00:00</time>
      </trkpt>
      <trkpt lat="47.34569" lon="-1.28815">
        <ele>51</ele>
        <time>2020-12-20T09:50:20.697000+00:00</time>
      </trkpt>
      <trkpt lat="0" lon="0">
        <time>2020-12-20T09:50:20.708000+00:00</time>
      </trkpt>
      <trkpt lat="0" lon="0">
        <time>2020-12-20T09:50:20.711000+00:00</time>
      </trkpt>
      <trkpt lat="0" lon="0">
        <time>2020-12-20T09:50:20.713000+00:00</time>
      </trkpt>
      <trkpt lat="47.34567" lon="-1.2882">
        <ele>51</ele>
        <time>2020-12-20T09:50:21.703000+00:00</time>
      </trkpt>
      <trkpt lat="0" lon="0">
        <time>2020-12-20T09:50:21.722000+00:00</time>
      </trkpt>
      <trkpt lat="0" lon="0">
        <time>2020-12-20T09:50:21.725000+00:00</time>
      </trkpt>
      <trkpt lat="0" lon="0">
        <time>2020-12-20T09:50:21.732000+00:00</time>
      </trkpt>
      <trkpt lat="47.34565" lon="-1.28824">
        <ele>51</ele>
        <time>2020-12-20T09:50:22.733000+00:00</time>
      </trkpt>
      <trkpt lat="0" lon="0">
        <time>2020-12-20T09:50:22.747000+00:00</time>
      </trkpt>
      <trkpt lat="0" lon="0">
        <time>2020-12-20T09:50:22.755000+00:00</time>
      </trkpt>
      <trkpt lat="0" lon="0">
        <time>2020-12-20T09:50:22.757000+00:00</time>
      </trkpt>
      <trkpt lat="47.34564" lon="-1.28829">
        <ele>51</ele>
        <time>2020-12-20T09:50:23.735000+00:00</time>
      </trkpt>
      <trkpt lat="0" lon="0">
        <time>2020-12-20T09:50:23.747000+00:00</time>
      </trkpt>
      <trkpt lat="0" lon="0">
        <time>2020-12-20T09:50:23.750000+00:00</time>
      </trkpt>
      <trkpt lat="0" lon="0">
        <time>2020-12-20T09:50:23.758000+00:00</time>
      </trkpt>
      <trkpt lat="47.34563" lon="-1.28833">
        <ele>51</ele>
        <time>2020-12-20T09:50:24.709000+00:00</time>
      </trkpt>
      <trkpt lat="0" lon="0">
        <time>2020-12-20T09:50:24.732000+00:00</time>
      </trkpt>
      <trkpt lat="0" lon="0">
        <time>2020-12-20T09:50:24.735000+00:00</time>
      </trkpt>
      <trkpt lat="0" lon="0">
        <time>2020-12-20T09:50:24.738000+00:00</time>
      </trkpt>
      <trkpt lat="47.34561" lon="-1.28837">
        <ele>51</ele>
        <time>2020-12-20T09:50:25.759000+00:00</time>
      </trkpt>
      <trkpt lat="0" lon="0">
        <time>2020-12-20T09:50:25.774000+00:00</time>
      </trkpt>
      <trkpt lat="0" lon="0">
        <time>2020-12-20T09:50:25.782000+00:00</time>
      </trkpt>
      <trkpt lat="0" lon="0">
        <time>2020-12-20T09:50:25.784000+00:00</time>
      </trkpt>
      <trkpt lat="47.3456" lon="-1.2884">
        <ele>51</ele>
        <time>2020-12-20T09:50:26.755000+00:00</time>
      </trkpt>
      <trkpt lat="0" lon="0">
        <time>2020-12-20T09:50:26.763000+00:00</time>
      </trkpt>
      <trkpt lat="0" lon="0">
        <time>2020-12-20T09:50:26.765000+00:00</time>
      </trkpt>
      <trkpt lat="0" lon="0">
        <time>2020-12-20T09:50:26.766000+00:00</time>
      </trkpt>
      <trkpt lat="47.34559" lon="-1.28844">
        <ele>52</ele>
        <time>2020-12-20T09:50:27.777000+00:00</time>
      </trkpt>
      <trkpt lat="0" lon="0">
        <time>2020-12-20T09:50:27.787000+00:00</time>
      </trkpt>
      <trkpt lat="0" lon="0">
        <time>2020-12-20T09:50:27.797000+00:00</time>
      </trkpt>
      <trkpt lat="0" lon="0">
        <time>2020-12-20T09:50:27.799000+00:00</time>
      </trkpt>
      <trkpt lat="47.34557" lon="-1.28848">
        <ele>52</ele>
        <time>2020-12-20T09:50:28.756000+00:00</time>
      </trkpt>
      <trkpt lat="0" lon="0">
        <time>2020-12-20T09:50:28.761000+00:00</time>
      </trkpt>
      <trkpt lat="0" lon="0">
        <time>2020-12-20T09:50:28.770000+00:00</time>
      </trkpt>
      <trkpt lat="0" lon="0">
        <time>2020-12-20T09:50:28.775000+00:00</time>
      </trkpt>
      <trkpt lat="47.34556" lon="-1.28852">
        <ele>52</ele>
        <time>2020-12-20T09:50:29.715000+00:00</time>
      </trkpt>
      <trkpt lat="0" lon="0">
        <time>2020-12-20T09:50:29.729000+00:00</time>
      </trkpt>
      <trkpt lat="0" lon="0">
        <time>2020-12-20T09:50:29.733000+00:00</time>
      </trkpt>
      <trkpt lat="0" lon="0">
        <time>2020-12-20T09:50:29.736000+00:00</time>
      </trkpt>
      <trkpt lat="47.34555" lon="-1.28856">
        <ele>52</ele>
        <time>2020-12-20T09:50:30.749000+00:00</time>
      </trkpt>
      <trkpt lat="0" lon="0">
        <time>2020-12-20T09:50:30.762000+00:00</time>
      </trkpt>
      <trkpt lat="0" lon="0">
        <time>2020-12-20T09:50:30.769000+00:00</time>
      </trkpt>
      <trkpt lat="0" lon="0">
        <time>2020-12-20T09:50:30.773000+00:00</time>
      </trkpt>
      <trkpt lat="47.34554" lon="-1.2886">
        <ele>52</ele>
        <time>2020-12-20T09:50:31.757000+00:00</time>
      </trkpt>
      <trkpt lat="0" lon="0">
        <time>2020-12-20T09:50:31.766000+00:00</time>
      </trkpt>
      <trkpt lat="0" lon="0">
        <time>2020-12-20T09:50:31.770000+00:00</time>
      </trkpt>
      <trkpt lat="0" lon="0">
        <time>2020-12-20T09:50:31.772000+00:00</time>
      </trkpt>
      <trkpt lat="47.34553" lon="-1.28863">
        <ele>52</ele>
        <time>2020-12-20T09:50:32.763000+00:00</time>
      </trkpt>
      <trkpt lat="0" lon="0">
        <time>2020-12-20T09:50:32.770000+00:00</time>
      </trkpt>
      <trkpt lat="0" lon="0">
        <time>2020-12-20T09:50:32.775000+00:00</time>
      </trkpt>
      <trkpt lat="0" lon="0">
        <time>2020-12-20T09:50:32.784000+00:00</time>
      </trkpt>
      <trkpt lat="47.34551" lon="-1.28867">
        <ele>52</ele>
        <time>2020-12-20T09:50:33.762000+00:00</time>
      </trkpt>
      <trkpt lat="0" lon="0">
        <time>2020-12-20T09:50:33.779000+00:00</time>
      </trkpt>
      <trkpt lat="0" lon="0">
        <time>2020-12-20T09:50:33.784000+00:00</time>
      </trkpt>
      <trkpt lat="0" lon="0">
        <time>2020-12-20T09:50:33.788000+00:00</time>
      </trkpt>
      <trkpt lat="47.3455" lon="-1.2887">
        <ele>52</ele>
        <time>2020-12-20T09:50:34.744000+00:00</time>
      </trkpt>
      <trkpt lat="0" lon="0">
        <time>2020-12-20T09:50:34.755000+00:00</time>
      </trkpt>
      <trkpt lat="0" lon="0">
        <time>2020-12-20T09:50:34.760000+00:00</time>
      </trkpt>
      <trkpt lat="0" lon="0">
        <time>2020-12-20T09:50:34.764000+00:00</time>
      </trkpt>
      <trkpt lat="47.34549" lon="-1.28872">
        <ele>52</ele>
        <time>2020-12-20T09:50:35.719000+00:00</time>
      </trkpt>
      <trkpt lat="0" lon="0">
        <time>2020-12-20T09:50:35.734000+00:00</time>
      </trkpt>
      <trkpt lat="0" lon="0">
        <time>2020-12-20T09:50:35.738000+00:00</time>
      </trkpt>
      <trkpt lat="0" lon="0">
        <time>2020-12-20T09:50:35.740000+00:00</time>
      </trkpt>
      <trkpt lat="47.34547" lon="-1.28874">
        <ele>52</ele>
        <time>2020-12-20T09:50:36.729000+00:00</time>
      </trkpt>
      <trkpt lat="0" lon="0">
        <time>2020-12-20T09:50:36.739000+00:00</time>
      </trkpt>
      <trkpt lat="0" lon="0">
        <time>2020-12-20T09:50:36.744000+00:00</time>
      </trkpt>
      <trkpt lat="0" lon="0">
        <time>2020-12-20T09:50:36.746000+00:00</time>
      </trkpt>
      <trkpt lat="47.34545" lon="-1.28876">
        <ele>52</ele>
        <time>2020-12-20T09:50:37.728000+00:00</time>
      </trkpt>
      <trkpt lat="0" lon="0">
        <time>2020-12-20T09:50:37.738000+00:00</time>
      </trkpt>
      <trkpt lat="0" lon="0">
        <time>2020-12-20T09:50:37.743000+00:00</time>
      </trkpt>
      <trkpt lat="0" lon="0">
        <time>2020-12-20T09:50:37.747000+00:00</time>
      </trkpt>
      <trkpt lat="47.34543" lon="-1.28877">
        <ele>52</ele>
        <time>2020-12-20T09:50:38.742000+00:00</time>
      </trkpt>
      <trkpt lat="0" lon="0">
        <time>2020-12-20T09:50:38.748000+00:00</time>
      </trkpt>
      <trkpt lat="0" lon="0">
        <time>2020-12-20T09:50:38.752000+00:00</time>
      </trkpt>
      <trkpt lat="0" lon="0">
        <time>2020-12-20T09:50:38.758000+00:00</time>
      </trkpt>
      <trkpt lat="47.3454" lon="-1.28878">
        <ele>52</ele>
        <time>2020-12-20T09:50:39.713000+00:00</time>
      </trkpt>
      <trkpt lat="0" lon="0">
        <time>2020-12-20T09:50:39.718000+00:00</time>
      </trkpt>
      <trkpt lat="0" lon="0">
        <time>2020-12-20T09:50:39.725000+00:00</time>
      </trkpt>
      <trkpt lat="0" lon="0">
        <time>2020-12-20T09:50:39.730000+00:00</time>
      </trkpt>
      <trkpt lat="47.34537" lon="-1.28879">
        <ele>52</ele>
        <time>2020-12-20T09:50:40.761000+00:00</time>
      </trkpt>
      <trkpt lat="0" lon="0">
        <time>2020-12-20T09:50:40.767000+00:00</time>
      </trkpt>
      <trkpt lat="0" lon="0">
        <time>2020-12-20T09:50:40.772000+00:00</time>
      </trkpt>
      <trkpt lat="0" lon="0">
        <time>2020-12-20T09:50:40.775000+00:00</time>
      </trkpt>
      <trkpt lat="47.34533" lon="-1.2888">
        <ele>51</ele>
        <time>2020-12-20T09:50:41.729000+00:00</time>
      </trkpt>
      <trkpt lat="0" lon="0">
        <time>2020-12-20T09:50:41.735000+00:00</time>
      </trkpt>
      <trkpt lat="0" lon="0">
        <time>2020-12-20T09:50:41.737000+00:00</time>
      </trkpt>
      <trkpt lat="47.34528" lon="-1.28881">
        <ele>51</ele>
        <time>2020-12-20T09:50:42.763000+00:00</time>
      </trkpt>
      <trkpt lat="0" lon="0">
        <time>2020-12-20T09:50:42.768000+00:00</time>
      </trkpt>
      <trkpt lat="0" lon="0">
        <time>2020-12-20T09:50:42.770000+00:00</time>
      </trkpt>
      <trkpt lat="0" lon="0">
        <time>2020-12-20T09:50:42.772000+00:00</time>
      </trkpt>
      <trkpt lat="47.34524" lon="-1.28883">
        <ele>50</ele>
        <time>2020-12-20T09:50:43.742000+00:00</time>
      </trkpt>
      <trkpt lat="0" lon="0">
        <time>2020-12-20T09:50:43.749000+00:00</time>
      </trkpt>
      <trkpt lat="0" lon="0">
        <time>2020-12-20T09:50:43.754000+00:00</time>
      </trkpt>
      <trkpt lat="0" lon="0">
        <time>2020-12-20T09:50:43.756000+00:00</time>
      </trkpt>
      <trkpt lat="47.34519" lon="-1.28885">
        <ele>50</ele>
        <time>2020-12-20T09:50:44.781000+00:00</time>
      </trkpt>
      <trkpt lat="0" lon="0">
        <time>2020-12-20T09:50:44.789000+00:00</time>
      </trkpt>
      <trkpt lat="0" lon="0">
        <time>2020-12-20T09:50:44.793000+00:00</time>
      </trkpt>
      <trkpt lat="0" lon="0">
        <time>2020-12-20T09:50:44.796000+00:00</time>
      </trkpt>
      <trkpt lat="47.34514" lon="-1.28887">
        <ele>49</ele>
        <time>2020-12-20T09:50:45.725000+00:00</time>
      </trkpt>
      <trkpt lat="0" lon="0">
        <time>2020-12-20T09:50:45.735000+00:00</time>
      </trkpt>
      <trkpt lat="0" lon="0">
        <time>2020-12-20T09:50:45.738000+00:00</time>
      </trkpt>
      <trkpt lat="0" lon="0">
        <time>2020-12-20T09:50:45.743000+00:00</time>
      </trkpt>
      <trkpt lat="47.3451" lon="-1.2889">
        <ele>49</ele>
        <time>2020-12-20T09:50:46.667000+00:00</time>
      </trkpt>
      <trkpt lat="0" lon="0">
        <time>2020-12-20T09:50:46.672000+00:00</time>
      </trkpt>
      <trkpt lat="0" lon="0">
        <time>2020-12-20T09:50:46.675000+00:00</time>
      </trkpt>
      <trkpt lat="0" lon="0">
        <time>2020-12-20T09:50:46.677000+00:00</time>
      </trkpt>
      <trkpt lat="47.34505" lon="-1.28893">
        <ele>50</ele>
        <time>2020-12-20T09:50:47.707000+00:00</time>
      </trkpt>
      <trkpt lat="0" lon="0">
        <time>2020-12-20T09:50:47.714000+00:00</time>
      </trkpt>
      <trkpt lat="0" lon="0">
        <time>2020-12-20T09:50:47.716000+00:00</time>
      </trkpt>
      <trkpt lat="0" lon="0">
        <time>2020-12-20T09:50:47.717000+00:00</time>
      </trkpt>
      <trkpt lat="47.34501" lon="-1.28896">
        <ele>50</ele>
        <time>2020-12-20T09:50:48.769000+00:00</time>
      </trkpt>
      <trkpt lat="0" lon="0">
        <time>2020-12-20T09:50:48.775000+00:00</time>
      </trkpt>
      <trkpt lat="0" lon="0">
        <time>2020-12-20T09:50:48.776000+00:00</time>
      </trkpt>
      <trkpt lat="0" lon="0">
        <time>2020-12-20T09:50:48.777000+00:00</time>
      </trkpt>
      <trkpt lat="47.34497" lon="-1.289">
        <ele>50</ele>
        <time>2020-12-20T09:50:49.716000+00:00</time>
      </trkpt>
      <trkpt lat="0" lon="0">
        <time>2020-12-20T09:50:49.734000+00:00</time>
      </trkpt>
      <trkpt lat="0" lon="0">
        <time>2020-12-20T09:50:49.736000+00:00</time>
      </trkpt>
      <trkpt lat="0" lon="0">
        <time>2020-12-20T09:50:49.737000+00:00</time>
      </trkpt>
      <trkpt lat="47.34493" lon="-1.28904">
        <ele>50</ele>
        <time>2020-12-20T09:50:50.706000+00:00</time>
      </trkpt>
      <trkpt lat="0" lon="0">
        <time>2020-12-20T09:50:50.708000+00:00</time>
      </trkpt>
      <trkpt lat="0" lon="0">
        <time>2020-12-20T09:50:50.709000+00:00</time>
      </trkpt>
      <trkpt lat="47.3449" lon="-1.28908">
        <ele>50</ele>
        <time>2020-12-20T09:50:51.753000+00:00</time>
      </trkpt>
      <trkpt lat="0" lon="0">
        <time>2020-12-20T09:50:51.763000+00:00</time>
      </trkpt>
      <trkpt lat="0" lon="0">
        <time>2020-12-20T09:50:51.771000+00:00</time>
      </trkpt>
      <trkpt lat="0" lon="0">
        <time>2020-12-20T09:50:51.773000+00:00</time>
      </trkpt>
      <trkpt lat="47.34486" lon="-1.28913">
        <ele>50</ele>
        <time>2020-12-20T09:50:52.724000+00:00</time>
      </trkpt>
      <trkpt lat="0" lon="0">
        <time>2020-12-20T09:50:52.741000+00:00</time>
      </trkpt>
      <trkpt lat="0" lon="0">
        <time>2020-12-20T09:50:52.755000+00:00</time>
      </trkpt>
      <trkpt lat="0" lon="0">
        <time>2020-12-20T09:50:52.759000+00:00</time>
      </trkpt>
      <trkpt lat="47.34482" lon="-1.28917">
        <ele>50</ele>
        <time>2020-12-20T09:50:53.707000+00:00</time>
      </trkpt>
      <trkpt lat="0" lon="0">
        <time>2020-12-20T09:50:53.718000+00:00</time>
      </trkpt>
      <trkpt lat="0" lon="0">
        <time>2020-12-20T09:50:53.723000+00:00</time>
      </trkpt>
      <trkpt lat="0" lon="0">
        <time>2020-12-20T09:50:53.726000+00:00</time>
      </trkpt>
      <trkpt lat="47.34479" lon="-1.28922">
        <ele>49</ele>
        <time>2020-12-20T09:50:54.757000+00:00</time>
      </trkpt>
      <trkpt lat="0" lon="0">
        <time>2020-12-20T09:50:54.761000+00:00</time>
      </trkpt>
      <trkpt lat="0" lon="0">
        <time>2020-12-20T09:50:54.773000+00:00</time>
      </trkpt>
      <trkpt lat="0" lon="0">
        <time>2020-12-20T09:50:54.776000+00:00</time>
      </trkpt>
      <trkpt lat="47.34475" lon="-1.28928">
        <ele>49</ele>
        <time>2020-12-20T09:50:55.726000+00:00</time>
      </trkpt>
      <trkpt lat="0" lon="0">
        <time>2020-12-20T09:50:55.737000+00:00</time>
      </trkpt>
      <trkpt lat="0" lon="0">
        <time>2020-12-20T09:50:55.741000+00:00</time>
      </trkpt>
      <trkpt lat="0" lon="0">
        <time>2020-12-20T09:50:55.744000+00:00</time>
      </trkpt>
      <trkpt lat="47.34472" lon="-1.28933">
        <ele>50</ele>
        <time>2020-12-20T09:50:56.732000+00:00</time>
      </trkpt>
      <trkpt lat="0" lon="0">
        <time>2020-12-20T09:50:56.739000+00:00</time>
      </trkpt>
      <trkpt lat="0" lon="0">
        <time>2020-12-20T09:50:56.748000+00:00</time>
      </trkpt>
      <trkpt lat="0" lon="0">
        <time>2020-12-20T09:50:56.753000+00:00</time>
      </trkpt>
      <trkpt lat="47.34469" lon="-1.28939">
        <ele>50</ele>
        <time>2020-12-20T09:50:57.729000+00:00</time>
      </trkpt>
      <trkpt lat="0" lon="0">
        <time>2020-12-20T09:50:57.754000+00:00</time>
      </trkpt>
      <trkpt lat="0" lon="0">
        <time>2020-12-20T09:50:57.761000+00:00</time>
      </trkpt>
      <trkpt lat="0" lon="0">
        <time>2020-12-20T09:50:57.763000+00:00</time>
      </trkpt>
      <trkpt lat="47.34465" lon="-1.28945">
        <ele>50</ele>
        <time>2020-12-20T09:50:58.723000+00:00</time>
      </trkpt>
      <trkpt lat="0" lon="0">
        <time>2020-12-20T09:50:58.734000+00:00</time>
      </trkpt>
      <trkpt lat="0" lon="0">
        <time>2020-12-20T09:50:58.739000+00:00</time>
      </trkpt>
      <trkpt lat="0" lon="0">
        <time>2020-12-20T09:50:58.742000+00:00</time>
      </trkpt>
      <trkpt lat="47.34462" lon="-1.28951">
        <ele>51</ele>
        <time>2020-12-20T09:50:59.774000+00:00</time>
      </trkpt>
      <trkpt lat="0" lon="0">
        <time>2020-12-20T09:50:59.792000+00:00</time>
      </trkpt>
      <trkpt lat="0" lon="0">
        <time>2020-12-20T09:50:59.797000+00:00</time>
      </trkpt>
      <trkpt lat="0" lon="0">
        <time>2020-12-20T09:50:59.801000+00:00</time>
      </trkpt>
      <trkpt lat="47.34459" lon="-1.28957">
        <ele>51</ele>
        <time>2020-12-20T09:51:00.741000+00:00</time>
      </trkpt>
      <trkpt lat="0" lon="0">
        <time>2020-12-20T09:51:00.747000+00:00</time>
      </trkpt>
      <trkpt lat="0" lon="0">
        <time>2020-12-20T09:51:00.756000+00:00</time>
      </trkpt>
      <trkpt lat="0" lon="0">
        <time>2020-12-20T09:51:00.760000+00:00</time>
      </trkpt>
      <trkpt lat="47.34456" lon="-1.28963">
        <ele>51</ele>
        <time>2020-12-20T09:51:01.725000+00:00</time>
      </trkpt>
      <trkpt lat="0" lon="0">
        <time>2020-12-20T09:51:01.730000+00:00</time>
      </trkpt>
      <trkpt lat="0" lon="0">
        <time>2020-12-20T09:51:01.734000+00:00</time>
      </trkpt>
      <trkpt lat="0" lon="0">
        <time>2020-12-20T09:51:01.736000+00:00</time>
      </trkpt>
      <trkpt lat="47.34453" lon="-1.2897">
        <ele>52</ele>
        <time>2020-12-20T09:51:02.753000+00:00</time>
      </trkpt>
      <trkpt lat="0" lon="0">
        <time>2020-12-20T09:51:02.761000+00:00</time>
      </trkpt>
      <trkpt lat="0" lon="0">
        <time>2020-12-20T09:51:02.766000+00:00</time>
      </trkpt>
      <trkpt lat="0" lon="0">
        <time>2020-12-20T09:51:02.770000+00:00</time>
      </trkpt>
      <trkpt lat="47.3445" lon="-1.28976">
        <ele>52</ele>
        <time>2020-12-20T09:51:03.770000+00:00</time>
      </trkpt>
      <trkpt lat="0" lon="0">
        <time>2020-12-20T09:51:03.793000+00:00</time>
      </trkpt>
      <trkpt lat="0" lon="0">
        <time>2020-12-20T09:51:03.798000+00:00</time>
      </trkpt>
      <trkpt lat="0" lon="0">
        <time>2020-12-20T09:51:03.800000+00:00</time>
      </trkpt>
      <trkpt lat="47.34448" lon="-1.28983">
        <ele>51</ele>
        <time>2020-12-20T09:51:04.760000+00:00</time>
      </trkpt>
      <trkpt lat="0" lon="0">
        <time>2020-12-20T09:51:04.765000+00:00</time>
      </trkpt>
      <trkpt lat="0" lon="0">
        <time>2020-12-20T09:51:04.770000+00:00</time>
      </trkpt>
      <trkpt lat="0" lon="0">
        <time>2020-12-20T09:51:04.775000+00:00</time>
      </trkpt>
      <trkpt lat="47.34445" lon="-1.2899">
        <ele>51</ele>
        <time>2020-12-20T09:51:05.758000+00:00</time>
      </trkpt>
      <trkpt lat="0" lon="0">
        <time>2020-12-20T09:51:05.766000+00:00</time>
      </trkpt>
      <trkpt lat="0" lon="0">
        <time>2020-12-20T09:51:05.769000+00:00</time>
      </trkpt>
      <trkpt lat="0" lon="0">
        <time>2020-12-20T09:51:05.770000+00:00</time>
      </trkpt>
      <trkpt lat="47.34443" lon="-1.28997">
        <ele>51</ele>
        <time>2020-12-20T09:51:06.748000+00:00</time>
      </trkpt>
      <trkpt lat="0" lon="0">
        <time>2020-12-20T09:51:06.753000+00:00</time>
      </trkpt>
      <trkpt lat="0" lon="0">
        <time>2020-12-20T09:51:06.761000+00:00</time>
      </trkpt>
      <trkpt lat="0" lon="0">
        <time>2020-12-20T09:51:06.764000+00:00</time>
      </trkpt>
      <trkpt lat="47.34441" lon="-1.29004">
        <ele>51</ele>
        <time>2020-12-20T09:51:07.757000+00:00</time>
      </trkpt>
      <trkpt lat="0" lon="0">
        <time>2020-12-20T09:51:07.772000+00:00</time>
      </trkpt>
      <trkpt lat="0" lon="0">
        <time>2020-12-20T09:51:07.777000+00:00</time>
      </trkpt>
      <trkpt lat="0" lon="0">
        <time>2020-12-20T09:51:07.780000+00:00</time>
      </trkpt>
      <trkpt lat="47.3444" lon="-1.29012">
        <ele>50</ele>
        <time>2020-12-20T09:51:08.757000+00:00</time>
      </trkpt>
      <trkpt lat="0" lon="0">
        <time>2020-12-20T09:51:08.763000+00:00</time>
      </trkpt>
      <trkpt lat="0" lon="0">
        <time>2020-12-20T09:51:08.768000+00:00</time>
      </trkpt>
      <trkpt lat="0" lon="0">
        <time>2020-12-20T09:51:08.770000+00:00</time>
      </trkpt>
      <trkpt lat="47.34438" lon="-1.29019">
        <ele>50</ele>
        <time>2020-12-20T09:51:09.766000+00:00</time>
      </trkpt>
      <trkpt lat="0" lon="0">
        <time>2020-12-20T09:51:09.777000+00:00</time>
      </trkpt>
      <trkpt lat="0" lon="0">
        <time>2020-12-20T09:51:09.784000+00:00</time>
      </trkpt>
      <trkpt lat="0" lon="0">
        <time>2020-12-20T09:51:09.786000+00:00</time>
      </trkpt>
      <trkpt lat="47.34437" lon="-1.29026">
        <ele>49</ele>
        <time>2020-12-20T09:51:10.758000+00:00</time>
      </trkpt>
      <trkpt lat="0" lon="0">
        <time>2020-12-20T09:51:10.768000+00:00</time>
      </trkpt>
      <trkpt lat="0" lon="0">
        <time>2020-12-20T09:51:10.778000+00:00</time>
      </trkpt>
      <trkpt lat="0" lon="0">
        <time>2020-12-20T09:51:10.781000+00:00</time>
      </trkpt>
      <trkpt lat="47.34435" lon="-1.29034">
        <ele>49</ele>
        <time>2020-12-20T09:51:11.737000+00:00</time>
      </trkpt>
      <trkpt lat="0" lon="0">
        <time>2020-12-20T09:51:11.742000+00:00</time>
      </trkpt>
      <trkpt lat="0" lon="0">
        <time>2020-12-20T09:51:11.747000+00:00</time>
      </trkpt>
      <trkpt lat="0" lon="0">
        <time>2020-12-20T09:51:11.749000+00:00</time>
      </trkpt>
      <trkpt lat="47.34434" lon="-1.29041">
        <ele>49</ele>
        <time>2020-12-20T09:51:12.747000+00:00</time>
      </trkpt>
      <trkpt lat="0" lon="0">
        <time>2020-12-20T09:51:12.757000+00:00</time>
      </trkpt>
      <trkpt lat="0" lon="0">
        <time>2020-12-20T09:51:12.762000+00:00</time>
      </trkpt>
      <trkpt lat="0" lon="0">
        <time>2020-12-20T09:51:12.764000+00:00</time>
      </trkpt>
      <trkpt lat="47.34433" lon="-1.29049">
        <ele>49</ele>
        <time>2020-12-20T09:51:13.760000+00:00</time>
      </trkpt>
      <trkpt lat="0" lon="0">
        <time>2020-12-20T09:51:13.770000+00:00</time>
      </trkpt>
      <trkpt lat="0" lon="0">
        <time>2020-12-20T09:51:13.774000+00:00</time>
      </trkpt>
      <trkpt lat="0" lon="0">
        <time>2020-12-20T09:51:13.777000+00:00</time>
      </trkpt>
      <trkpt lat="47.34432" lon="-1.29056">
        <ele>48</ele>
        <time>2020-12-20T09:51:14.705000+00:00</time>
      </trkpt>
      <trkpt lat="0" lon="0">
        <time>2020-12-20T09:51:14.714000+00:00</time>
      </trkpt>
      <trkpt lat="0" lon="0">
        <time>2020-12-20T09:51:14.725000+00:00</time>
      </trkpt>
      <trkpt lat="0" lon="0">
        <time>2020-12-20T09:51:14.730000+00:00</time>
      </trkpt>
      <trkpt lat="47.34431" lon="-1.29063">
        <ele>48</ele>
        <time>2020-12-20T09:51:15.758000+00:00</time>
      </trkpt>
      <trkpt lat="0" lon="0">
        <time>2020-12-20T09:51:15.772000+00:00</time>
      </trkpt>
      <trkpt lat="0" lon="0">
        <time>2020-12-20T09:51:15.776000+00:00</time>
      </trkpt>
      <trkpt lat="0" lon="0">
        <time>2020-12-20T09:51:15.778000+00:00</time>
      </trkpt>
      <trkpt lat="47.34431" lon="-1.29071">
        <ele>48</ele>
        <time>2020-12-20T09:51:16.735000+00:00</time>
      </trkpt>
      <trkpt lat="0" lon="0">
        <time>2020-12-20T09:51:16.742000+00:00</time>
      </trkpt>
      <trkpt lat="0" lon="0">
        <time>2020-12-20T09:51:16.749000+00:00</time>
      </trkpt>
      <trkpt lat="0" lon="0">
        <time>2020-12-20T09:51:16.753000+00:00</time>
      </trkpt>
      <trkpt lat="47.34431" lon="-1.29078">
        <ele>48</ele>
        <time>2020-12-20T09:51:17.680000+00:00</time>
      </trkpt>
      <trkpt lat="0" lon="0">
        <time>2020-12-20T09:51:17.682000+00:00</time>
      </trkpt>
      <trkpt lat="0" lon="0">
        <time>2020-12-20T09:51:17.684000+00:00</time>
      </trkpt>
      <trkpt lat="47.34431" lon="-1.29085">
        <ele>49</ele>
        <time>2020-12-20T09:51:18.712000+00:00</time>
      </trkpt>
      <trkpt lat="0" lon="0">
        <time>2020-12-20T09:51:18.723000+00:00</time>
      </trkpt>
      <trkpt lat="0" lon="0">
        <time>2020-12-20T09:51:18.728000+00:00</time>
      </trkpt>
      <trkpt lat="0" lon="0">
        <time>2020-12-20T09:51:18.730000+00:00</time>
      </trkpt>
      <trkpt lat="47.34431" lon="-1.29092">
        <ele>49</ele>
        <time>2020-12-20T09:51:19.743000+00:00</time>
      </trkpt>
      <trkpt lat="0" lon="0">
        <time>2020-12-20T09:51:19.758000+00:00</time>
      </trkpt>
      <trkpt lat="0" lon="0">
        <time>2020-12-20T09:51:19.762000+00:00</time>
      </trkpt>
      <trkpt lat="0" lon="0">
        <time>2020-12-20T09:51:19.764000+00:00</time>
      </trkpt>
      <trkpt lat="47.34431" lon="-1.29099">
        <ele>49</ele>
        <time>2020-12-20T09:51:20.731000+00:00</time>
      </trkpt>
      <trkpt lat="0" lon="0">
        <time>2020-12-20T09:51:20.739000+00:00</time>
      </trkpt>
      <trkpt lat="0" lon="0">
        <time>2020-12-20T09:51:20.744000+00:00</time>
      </trkpt>
      <trkpt lat="0" lon="0">
        <time>2020-12-20T09:51:20.746000+00:00</time>
      </trkpt>
      <trkpt lat="47.34432" lon="-1.29105">
        <ele>50</ele>
        <time>2020-12-20T09:51:21.757000+00:00</time>
      </trkpt>
      <trkpt lat="0" lon="0">
        <time>2020-12-20T09:51:21.774000+00:00</time>
      </trkpt>
      <trkpt lat="0" lon="0">
        <time>2020-12-20T09:51:21.779000+00:00</time>
      </trkpt>
      <trkpt lat="0" lon="0">
        <time>2020-12-20T09:51:21.785000+00:00</time>
      </trkpt>
      <trkpt lat="47.34432" lon="-1.29112">
        <ele>50</ele>
        <time>2020-12-20T09:51:22.741000+00:00</time>
      </trkpt>
      <trkpt lat="0" lon="0">
        <time>2020-12-20T09:51:22.752000+00:00</time>
      </trkpt>
      <trkpt lat="0" lon="0">
        <time>2020-12-20T09:51:22.768000+00:00</time>
      </trkpt>
      <trkpt lat="0" lon="0">
        <time>2020-12-20T09:51:22.770000+00:00</time>
      </trkpt>
      <trkpt lat="47.34433" lon="-1.29117">
        <ele>50</ele>
        <time>2020-12-20T09:51:23.698000+00:00</time>
      </trkpt>
      <trkpt lat="0" lon="0">
        <time>2020-12-20T09:51:23.702000+00:00</time>
      </trkpt>
      <trkpt lat="0" lon="0">
        <time>2020-12-20T09:51:23.714000+00:00</time>
      </trkpt>
      <trkpt lat="0" lon="0">
        <time>2020-12-20T09:51:23.717000+00:00</time>
      </trkpt>
      <trkpt lat="47.34434" lon="-1.29123">
        <ele>50</ele>
        <time>2020-12-20T09:51:24.711000+00:00</time>
      </trkpt>
      <trkpt lat="0" lon="0">
        <time>2020-12-20T09:51:24.719000+00:00</time>
      </trkpt>
      <trkpt lat="0" lon="0">
        <time>2020-12-20T09:51:24.726000+00:00</time>
      </trkpt>
      <trkpt lat="0" lon="0">
        <time>2020-12-20T09:51:24.728000+00:00</time>
      </trkpt>
      <trkpt lat="47.34435" lon="-1.29128">
        <ele>50</ele>
        <time>2020-12-20T09:51:25.739000+00:00</time>
      </trkpt>
      <trkpt lat="0" lon="0">
        <time>2020-12-20T09:51:25.746000+00:00</time>
      </trkpt>
      <trkpt lat="0" lon="0">
        <time>2020-12-20T09:51:25.750000+00:00</time>
      </trkpt>
      <trkpt lat="0" lon="0">
        <time>2020-12-20T09:51:25.751000+00:00</time>
      </trkpt>
      <trkpt lat="47.34436" lon="-1.29133">
        <ele>51</ele>
        <time>2020-12-20T09:51:26.754000+00:00</time>
      </trkpt>
      <trkpt lat="0" lon="0">
        <time>2020-12-20T09:51:26.768000+00:00</time>
      </trkpt>
      <trkpt lat="0" lon="0">
        <time>2020-12-20T09:51:26.776000+00:00</time>
      </trkpt>
      <trkpt lat="0" lon="0">
        <time>2020-12-20T09:51:26.779000+00:00</time>
      </trkpt>
      <trkpt lat="47.34436" lon="-1.29139">
        <ele>51</ele>
        <time>2020-12-20T09:51:27.721000+00:00</time>
      </trkpt>
      <trkpt lat="0" lon="0">
        <time>2020-12-20T09:51:27.728000+00:00</time>
      </trkpt>
      <trkpt lat="0" lon="0">
        <time>2020-12-20T09:51:27.732000+00:00</time>
      </trkpt>
      <trkpt lat="0" lon="0">
        <time>2020-12-20T09:51:27.734000+00:00</time>
      </trkpt>
      <trkpt lat="47.34437" lon="-1.29145">
        <ele>51</ele>
        <time>2020-12-20T09:51:28.750000+00:00</time>
      </trkpt>
      <trkpt lat="0" lon="0">
        <time>2020-12-20T09:51:28.755000+00:00</time>
      </trkpt>
      <trkpt lat="0" lon="0">
        <time>2020-12-20T09:51:28.761000+00:00</time>
      </trkpt>
      <trkpt lat="0" lon="0">
        <time>2020-12-20T09:51:28.766000+00:00</time>
      </trkpt>
      <trkpt lat="47.34438" lon="-1.29151">
        <ele>51</ele>
        <time>2020-12-20T09:51:29.727000+00:00</time>
      </trkpt>
      <trkpt lat="0" lon="0">
        <time>2020-12-20T09:51:29.741000+00:00</time>
      </trkpt>
      <trkpt lat="0" lon="0">
        <time>2020-12-20T09:51:29.745000+00:00</time>
      </trkpt>
      <trkpt lat="0" lon="0">
        <time>2020-12-20T09:51:29.748000+00:00</time>
      </trkpt>
      <trkpt lat="47.34438" lon="-1.29157">
        <ele>50</ele>
        <time>2020-12-20T09:51:30.743000+00:00</time>
      </trkpt>
      <trkpt lat="0" lon="0">
        <time>2020-12-20T09:51:30.754000+00:00</time>
      </trkpt>
      <trkpt lat="0" lon="0">
        <time>2020-12-20T09:51:30.759000+00:00</time>
      </trkpt>
      <trkpt lat="0" lon="0">
        <time>2020-12-20T09:51:30.761000+00:00</time>
      </trkpt>
      <trkpt lat="47.34439" lon="-1.29164">
        <ele>50</ele>
        <time>2020-12-20T09:51:31.761000+00:00</time>
      </trkpt>
      <trkpt lat="0" lon="0">
        <time>2020-12-20T09:51:31.767000+00:00</time>
      </trkpt>
      <trkpt lat="0" lon="0">
        <time>2020-12-20T09:51:31.777000+00:00</time>
      </trkpt>
      <trkpt lat="0" lon="0">
        <time>2020-12-20T09:51:31.782000+00:00</time>
      </trkpt>
      <trkpt lat="47.34439" lon="-1.29171">
        <ele>50</ele>
        <time>2020-12-20T09:51:32.698000+00:00</time>
      </trkpt>
      <trkpt lat="0" lon="0">
        <time>2020-12-20T09:51:32.702000+00:00</time>
      </trkpt>
      <trkpt lat="0" lon="0">
        <time>2020-12-20T09:51:32.703000+00:00</time>
      </trkpt>
      <trkpt lat="0" lon="0">
        <time>2020-12-20T09:51:32.704000+00:00</time>
      </trkpt>
      <trkpt lat="47.34439" lon="-1.29178">
        <ele>50</ele>
        <time>2020-12-20T09:51:33.734000+00:00</time>
      </trkpt>
      <trkpt lat="0" lon="0">
        <time>2020-12-20T09:51:33.743000+00:00</time>
      </trkpt>
      <trkpt lat="0" lon="0">
        <time>2020-12-20T09:51:33.748000+00:00</time>
      </trkpt>
      <trkpt lat="0" lon="0">
        <time>2020-12-20T09:51:33.750000+00:00</time>
      </trkpt>
      <trkpt lat="47.34439" lon="-1.29185">
        <ele>50</ele>
        <time>2020-12-20T09:51:34.777000+00:00</time>
      </trkpt>
      <trkpt lat="0" lon="0">
        <time>2020-12-20T09:51:34.792000+00:00</time>
      </trkpt>
      <trkpt lat="0" lon="0">
        <time>2020-12-20T09:51:34.801000+00:00</time>
      </trkpt>
      <trkpt lat="0" lon="0">
        <time>2020-12-20T09:51:34.805000+00:00</time>
      </trkpt>
      <trkpt lat="47.34439" lon="-1.29193">
        <ele>50</ele>
        <time>2020-12-20T09:51:35.751000+00:00</time>
      </trkpt>
      <trkpt lat="0" lon="0">
        <time>2020-12-20T09:51:35.762000+00:00</time>
      </trkpt>
      <trkpt lat="0" lon="0">
        <time>2020-12-20T09:51:35.770000+00:00</time>
      </trkpt>
      <trkpt lat="0" lon="0">
        <time>2020-12-20T09:51:35.782000+00:00</time>
      </trkpt>
      <trkpt lat="47.3444" lon="-1.292">
        <ele>50</ele>
        <time>2020-12-20T09:51:36.754000+00:00</time>
      </trkpt>
      <trkpt lat="0" lon="0">
        <time>2020-12-20T09:51:36.769000+00:00</time>
      </trkpt>
      <trkpt lat="0" lon="0">
        <time>2020-12-20T09:51:36.781000+00:00</time>
      </trkpt>
      <trkpt lat="0" lon="0">
        <time>2020-12-20T09:51:36.783000+00:00</time>
      </trkpt>
      <trkpt lat="47.3444" lon="-1.29207">
        <ele>49</ele>
        <time>2020-12-20T09:51:37.777000+00:00</time>
      </trkpt>
      <trkpt lat="0" lon="0">
        <time>2020-12-20T09:51:37.784000+00:00</time>
      </trkpt>
      <trkpt lat="0" lon="0">
        <time>2020-12-20T09:51:37.788000+00:00</time>
      </trkpt>
      <trkpt lat="0" lon="0">
        <time>2020-12-20T09:51:37.792000+00:00</time>
      </trkpt>
      <trkpt lat="47.3444" lon="-1.29215">
        <ele>50</ele>
        <time>2020-12-20T09:51:38.734000+00:00</time>
      </trkpt>
      <trkpt lat="0" lon="0">
        <time>2020-12-20T09:51:38.757000+00:00</time>
      </trkpt>
      <trkpt lat="0" lon="0">
        <time>2020-12-20T09:51:38.761000+00:00</time>
      </trkpt>
      <trkpt lat="0" lon="0">
        <time>2020-12-20T09:51:38.762000+00:00</time>
      </trkpt>
      <trkpt lat="47.3444" lon="-1.29223">
        <ele>50</ele>
        <time>2020-12-20T09:51:39.720000+00:00</time>
      </trkpt>
      <trkpt lat="0" lon="0">
        <time>2020-12-20T09:51:39.733000+00:00</time>
      </trkpt>
      <trkpt lat="0" lon="0">
        <time>2020-12-20T09:51:39.738000+00:00</time>
      </trkpt>
      <trkpt lat="0" lon="0">
        <time>2020-12-20T09:51:39.740000+00:00</time>
      </trkpt>
      <trkpt lat="47.3444" lon="-1.2923">
        <ele>50</ele>
        <time>2020-12-20T09:51:40.722000+00:00</time>
      </trkpt>
      <trkpt lat="0" lon="0">
        <time>2020-12-20T09:51:40.747000+00:00</time>
      </trkpt>
      <trkpt lat="0" lon="0">
        <time>2020-12-20T09:51:40.755000+00:00</time>
      </trkpt>
      <trkpt lat="0" lon="0">
        <time>2020-12-20T09:51:40.758000+00:00</time>
      </trkpt>
      <trkpt lat="47.3444" lon="-1.29238">
        <ele>50</ele>
        <time>2020-12-20T09:51:41.739000+00:00</time>
      </trkpt>
      <trkpt lat="0" lon="0">
        <time>2020-12-20T09:51:41.749000+00:00</time>
      </trkpt>
      <trkpt lat="0" lon="0">
        <time>2020-12-20T09:51:41.758000+00:00</time>
      </trkpt>
      <trkpt lat="0" lon="0">
        <time>2020-12-20T09:51:41.761000+00:00</time>
      </trkpt>
      <trkpt lat="47.34439" lon="-1.29246">
        <ele>50</ele>
        <time>2020-12-20T09:51:42.751000+00:00</time>
      </trkpt>
      <trkpt lat="0" lon="0">
        <time>2020-12-20T09:51:42.763000+00:00</time>
      </trkpt>
      <trkpt lat="0" lon="0">
        <time>2020-12-20T09:51:42.771000+00:00</time>
      </trkpt>
      <trkpt lat="0" lon="0">
        <time>2020-12-20T09:51:42.776000+00:00</time>
      </trkpt>
      <trkpt lat="47.34439" lon="-1.29255">
        <ele>50</ele>
        <time>2020-12-20T09:51:43.776000+00:00</time>
      </trkpt>
      <trkpt lat="0" lon="0">
        <time>2020-12-20T09:51:43.782000+00:00</time>
      </trkpt>
      <trkpt lat="0" lon="0">
        <time>2020-12-20T09:51:43.794000+00:00</time>
      </trkpt>
      <trkpt lat="0" lon="0">
        <time>2020-12-20T09:51:43.800000+00:00</time>
      </trkpt>
      <trkpt lat="47.34439" lon="-1.29263">
        <ele>50</ele>
        <time>2020-12-20T09:51:44.723000+00:00</time>
      </trkpt>
      <trkpt lat="0" lon="0">
        <time>2020-12-20T09:51:44.733000+00:00</time>
      </trkpt>
      <trkpt lat="0" lon="0">
        <time>2020-12-20T09:51:44.737000+00:00</time>
      </trkpt>
      <trkpt lat="0" lon="0">
        <time>2020-12-20T09:51:44.739000+00:00</time>
      </trkpt>
      <trkpt lat="47.34439" lon="-1.29271">
        <ele>50</ele>
        <time>2020-12-20T09:51:45.751000+00:00</time>
      </trkpt>
      <trkpt lat="0" lon="0">
        <time>2020-12-20T09:51:45.770000+00:00</time>
      </trkpt>
      <trkpt lat="0" lon="0">
        <time>2020-12-20T09:51:45.774000+00:00</time>
      </trkpt>
      <trkpt lat="0" lon="0">
        <time>2020-12-20T09:51:45.775000+00:00</time>
      </trkpt>
      <trkpt lat="47.34439" lon="-1.29279">
        <ele>50</ele>
        <time>2020-12-20T09:51:46.756000+00:00</time>
      </trkpt>
      <trkpt lat="0" lon="0">
        <time>2020-12-20T09:51:46.763000+00:00</time>
      </trkpt>
      <trkpt lat="0" lon="0">
        <time>2020-12-20T09:51:46.767000+00:00</time>
      </trkpt>
      <trkpt lat="0" lon="0">
        <time>2020-12-20T09:51:46.772000+00:00</time>
      </trkpt>
      <trkpt lat="47.34439" lon="-1.29286">
        <ele>50</ele>
        <time>2020-12-20T09:51:47.752000+00:00</time>
      </trkpt>
      <trkpt lat="0" lon="0">
        <time>2020-12-20T09:51:47.758000+00:00</time>
      </trkpt>
      <trkpt lat="0" lon="0">
        <time>2020-12-20T09:51:47.765000+00:00</time>
      </trkpt>
      <trkpt lat="0" lon="0">
        <time>2020-12-20T09:51:47.771000+00:00</time>
      </trkpt>
      <trkpt lat="47.34439" lon="-1.29294">
        <ele>50</ele>
        <time>2020-12-20T09:51:48.753000+00:00</time>
      </trkpt>
      <trkpt lat="0" lon="0">
        <time>2020-12-20T09:51:48.765000+00:00</time>
      </trkpt>
      <trkpt lat="0" lon="0">
        <time>2020-12-20T09:51:48.770000+00:00</time>
      </trkpt>
      <trkpt lat="0" lon="0">
        <time>2020-12-20T09:51:48.772000+00:00</time>
      </trkpt>
      <trkpt lat="47.3444" lon="-1.29302">
        <ele>50</ele>
        <time>2020-12-20T09:51:49.717000+00:00</time>
      </trkpt>
      <trkpt lat="0" lon="0">
        <time>2020-12-20T09:51:49.730000+00:00</time>
      </trkpt>
      <trkpt lat="0" lon="0">
        <time>2020-12-20T09:51:49.735000+00:00</time>
      </trkpt>
      <trkpt lat="0" lon="0">
        <time>2020-12-20T09:51:49.740000+00:00</time>
      </trkpt>
      <trkpt lat="47.3444" lon="-1.29309">
        <ele>50</ele>
        <time>2020-12-20T09:51:50.741000+00:00</time>
      </trkpt>
      <trkpt lat="0" lon="0">
        <time>2020-12-20T09:51:50.759000+00:00</time>
      </trkpt>
      <trkpt lat="0" lon="0">
        <time>2020-12-20T09:51:50.766000+00:00</time>
      </trkpt>
      <trkpt lat="0" lon="0">
        <time>2020-12-20T09:51:50.769000+00:00</time>
      </trkpt>
      <trkpt lat="47.3444" lon="-1.29316">
        <ele>50</ele>
        <time>2020-12-20T09:51:51.759000+00:00</time>
      </trkpt>
      <trkpt lat="0" lon="0">
        <time>2020-12-20T09:51:51.770000+00:00</time>
      </trkpt>
      <trkpt lat="0" lon="0">
        <time>2020-12-20T09:51:51.779000+00:00</time>
      </trkpt>
      <trkpt lat="0" lon="0">
        <time>2020-12-20T09:51:51.781000+00:00</time>
      </trkpt>
      <trkpt lat="47.3444" lon="-1.29324">
        <ele>50</ele>
        <time>2020-12-20T09:51:52.763000+00:00</time>
      </trkpt>
      <trkpt lat="0" lon="0">
        <time>2020-12-20T09:51:52.767000+00:00</time>
      </trkpt>
      <trkpt lat="0" lon="0">
        <time>2020-12-20T09:51:52.773000+00:00</time>
      </trkpt>
      <trkpt lat="0" lon="0">
        <time>2020-12-20T09:51:52.776000+00:00</time>
      </trkpt>
      <trkpt lat="47.3444" lon="-1.29331">
        <ele>50</ele>
        <time>2020-12-20T09:51:53.754000+00:00</time>
      </trkpt>
      <trkpt lat="0" lon="0">
        <time>2020-12-20T09:51:53.771000+00:00</time>
      </trkpt>
      <trkpt lat="0" lon="0">
        <time>2020-12-20T09:51:53.778000+00:00</time>
      </trkpt>
      <trkpt lat="0" lon="0">
        <time>2020-12-20T09:51:53.781000+00:00</time>
      </trkpt>
      <trkpt lat="47.34441" lon="-1.29338">
        <ele>51</ele>
        <time>2020-12-20T09:51:54.772000+00:00</time>
      </trkpt>
      <trkpt lat="0" lon="0">
        <time>2020-12-20T09:51:54.788000+00:00</time>
      </trkpt>
      <trkpt lat="0" lon="0">
        <time>2020-12-20T09:51:54.793000+00:00</time>
      </trkpt>
      <trkpt lat="0" lon="0">
        <time>2020-12-20T09:51:54.797000+00:00</time>
      </trkpt>
      <trkpt lat="47.34441" lon="-1.29345">
        <ele>51</ele>
        <time>2020-12-20T09:51:55.749000+00:00</time>
      </trkpt>
      <trkpt lat="0" lon="0">
        <time>2020-12-20T09:51:55.751000+00:00</time>
      </trkpt>
      <trkpt lat="0" lon="0">
        <time>2020-12-20T09:51:55.753000+00:00</time>
      </trkpt>
      <trkpt lat="0" lon="0">
        <time>2020-12-20T09:51:55.754000+00:00</time>
      </trkpt>
      <trkpt lat="47.34441" lon="-1.29352">
        <ele>51</ele>
        <time>2020-12-20T09:51:56.747000+00:00</time>
      </trkpt>
      <trkpt lat="0" lon="0">
        <time>2020-12-20T09:51:56.757000+00:00</time>
      </trkpt>
      <trkpt lat="0" lon="0">
        <time>2020-12-20T09:51:56.765000+00:00</time>
      </trkpt>
      <trkpt lat="0" lon="0">
        <time>2020-12-20T09:51:56.767000+00:00</time>
      </trkpt>
      <trkpt lat="47.34442" lon="-1.2936">
        <ele>51</ele>
        <time>2020-12-20T09:51:57.737000+00:00</time>
      </trkpt>
      <trkpt lat="0" lon="0">
        <time>2020-12-20T09:51:57.757000+00:00</time>
      </trkpt>
      <trkpt lat="0" lon="0">
        <time>2020-12-20T09:51:57.763000+00:00</time>
      </trkpt>
      <trkpt lat="0" lon="0">
        <time>2020-12-20T09:51:57.774000+00:00</time>
      </trkpt>
      <trkpt lat="47.34442" lon="-1.29367">
        <ele>51</ele>
        <time>2020-12-20T09:51:58.748000+00:00</time>
      </trkpt>
      <trkpt lat="0" lon="0">
        <time>2020-12-20T09:51:58.767000+00:00</time>
      </trkpt>
      <trkpt lat="0" lon="0">
        <time>2020-12-20T09:51:58.774000+00:00</time>
      </trkpt>
      <trkpt lat="0" lon="0">
        <time>2020-12-20T09:51:58.777000+00:00</time>
      </trkpt>
      <trkpt lat="47.34443" lon="-1.29374">
        <ele>51</ele>
        <time>2020-12-20T09:51:59.741000+00:00</time>
      </trkpt>
      <trkpt lat="0" lon="0">
        <time>2020-12-20T09:51:59.761000+00:00</time>
      </trkpt>
      <trkpt lat="0" lon="0">
        <time>2020-12-20T09:51:59.766000+00:00</time>
      </trkpt>
      <trkpt lat="0" lon="0">
        <time>2020-12-20T09:51:59.770000+00:00</time>
      </trkpt>
      <trkpt lat="47.34443" lon="-1.29382">
        <ele>51</ele>
        <time>2020-12-20T09:52:00.735000+00:00</time>
      </trkpt>
      <trkpt lat="0" lon="0">
        <time>2020-12-20T09:52:00.748000+00:00</time>
      </trkpt>
      <trkpt lat="0" lon="0">
        <time>2020-12-20T09:52:00.754000+00:00</time>
      </trkpt>
      <trkpt lat="0" lon="0">
        <time>2020-12-20T09:52:00.757000+00:00</time>
      </trkpt>
      <trkpt lat="47.34443" lon="-1.29389">
        <ele>51</ele>
        <time>2020-12-20T09:52:01.717000+00:00</time>
      </trkpt>
      <trkpt lat="0" lon="0">
        <time>2020-12-20T09:52:01.723000+00:00</time>
      </trkpt>
      <trkpt lat="0" lon="0">
        <time>2020-12-20T09:52:01.730000+00:00</time>
      </trkpt>
      <trkpt lat="0" lon="0">
        <time>2020-12-20T09:52:01.732000+00:00</time>
      </trkpt>
      <trkpt lat="47.34443" lon="-1.29396">
        <ele>51</ele>
        <time>2020-12-20T09:52:02.705000+00:00</time>
      </trkpt>
      <trkpt lat="0" lon="0">
        <time>2020-12-20T09:52:02.709000+00:00</time>
      </trkpt>
      <trkpt lat="0" lon="0">
        <time>2020-12-20T09:52:02.714000+00:00</time>
      </trkpt>
      <trkpt lat="0" lon="0">
        <time>2020-12-20T09:52:02.726000+00:00</time>
      </trkpt>
      <trkpt lat="47.34442" lon="-1.29404">
        <ele>51</ele>
        <time>2020-12-20T09:52:03.734000+00:00</time>
      </trkpt>
      <trkpt lat="0" lon="0">
        <time>2020-12-20T09:52:03.743000+00:00</time>
      </trkpt>
      <trkpt lat="0" lon="0">
        <time>2020-12-20T09:52:03.749000+00:00</time>
      </trkpt>
      <trkpt lat="0" lon="0">
        <time>2020-12-20T09:52:03.752000+00:00</time>
      </trkpt>
      <trkpt lat="47.34442" lon="-1.29411">
        <ele>51</ele>
        <time>2020-12-20T09:52:04.776000+00:00</time>
      </trkpt>
      <trkpt lat="0" lon="0">
        <time>2020-12-20T09:52:04.783000+00:00</time>
      </trkpt>
      <trkpt lat="0" lon="0">
        <time>2020-12-20T09:52:04.789000+00:00</time>
      </trkpt>
      <trkpt lat="0" lon="0">
        <time>2020-12-20T09:52:04.791000+00:00</time>
      </trkpt>
      <trkpt lat="47.34442" lon="-1.29418">
        <ele>51</ele>
        <time>2020-12-20T09:52:05.714000+00:00</time>
      </trkpt>
      <trkpt lat="0" lon="0">
        <time>2020-12-20T09:52:05.726000+00:00</time>
      </trkpt>
      <trkpt lat="0" lon="0">
        <time>2020-12-20T09:52:05.732000+00:00</time>
      </trkpt>
      <trkpt lat="0" lon="0">
        <time>2020-12-20T09:52:05.735000+00:00</time>
      </trkpt>
      <trkpt lat="47.34442" lon="-1.29426">
        <ele>51</ele>
        <time>2020-12-20T09:52:06.742000+00:00</time>
      </trkpt>
      <trkpt lat="0" lon="0">
        <time>2020-12-20T09:52:06.746000+00:00</time>
      </trkpt>
      <trkpt lat="0" lon="0">
        <time>2020-12-20T09:52:06.749000+00:00</time>
      </trkpt>
      <trkpt lat="0" lon="0">
        <time>2020-12-20T09:52:06.750000+00:00</time>
      </trkpt>
      <trkpt lat="47.34442" lon="-1.29434">
        <ele>50</ele>
        <time>2020-12-20T09:52:07.725000+00:00</time>
      </trkpt>
      <trkpt lat="0" lon="0">
        <time>2020-12-20T09:52:07.733000+00:00</time>
      </trkpt>
      <trkpt lat="0" lon="0">
        <time>2020-12-20T09:52:07.738000+00:00</time>
      </trkpt>
      <trkpt lat="0" lon="0">
        <time>2020-12-20T09:52:07.740000+00:00</time>
      </trkpt>
      <trkpt lat="47.34441" lon="-1.29441">
        <ele>50</ele>
        <time>2020-12-20T09:52:08.719000+00:00</time>
      </trkpt>
      <trkpt lat="0" lon="0">
        <time>2020-12-20T09:52:08.732000+00:00</time>
      </trkpt>
      <trkpt lat="0" lon="0">
        <time>2020-12-20T09:52:08.738000+00:00</time>
      </trkpt>
      <trkpt lat="0" lon="0">
        <time>2020-12-20T09:52:08.741000+00:00</time>
      </trkpt>
      <trkpt lat="47.3444" lon="-1.29449">
        <ele>50</ele>
        <time>2020-12-20T09:52:09.767000+00:00</time>
      </trkpt>
      <trkpt lat="0" lon="0">
        <time>2020-12-20T09:52:09.784000+00:00</time>
      </trkpt>
      <trkpt lat="0" lon="0">
        <time>2020-12-20T09:52:09.788000+00:00</time>
      </trkpt>
      <trkpt lat="0" lon="0">
        <time>2020-12-20T09:52:09.791000+00:00</time>
      </trkpt>
      <trkpt lat="47.3444" lon="-1.29456">
        <ele>50</ele>
        <time>2020-12-20T09:52:10.766000+00:00</time>
      </trkpt>
      <trkpt lat="0" lon="0">
        <time>2020-12-20T09:52:10.774000+00:00</time>
      </trkpt>
      <trkpt lat="0" lon="0">
        <time>2020-12-20T09:52:10.778000+00:00</time>
      </trkpt>
      <trkpt lat="0" lon="0">
        <time>2020-12-20T09:52:10.781000+00:00</time>
      </trkpt>
      <trkpt lat="47.34439" lon="-1.29464">
        <ele>49</ele>
        <time>2020-12-20T09:52:11.730000+00:00</time>
      </trkpt>
      <trkpt lat="0" lon="0">
        <time>2020-12-20T09:52:11.739000+00:00</time>
      </trkpt>
      <trkpt lat="0" lon="0">
        <time>2020-12-20T09:52:11.745000+00:00</time>
      </trkpt>
      <trkpt lat="0" lon="0">
        <time>2020-12-20T09:52:11.752000+00:00</time>
      </trkpt>
      <trkpt lat="47.34439" lon="-1.29472">
        <ele>49</ele>
        <time>2020-12-20T09:52:12.715000+00:00</time>
      </trkpt>
      <trkpt lat="0" lon="0">
        <time>2020-12-20T09:52:12.730000+00:00</time>
      </trkpt>
      <trkpt lat="0" lon="0">
        <time>2020-12-20T09:52:12.738000+00:00</time>
      </trkpt>
      <trkpt lat="0" lon="0">
        <time>2020-12-20T09:52:12.739000+00:00</time>
      </trkpt>
      <trkpt lat="47.34438" lon="-1.2948">
        <ele>49</ele>
        <time>2020-12-20T09:52:13.737000+00:00</time>
      </trkpt>
      <trkpt lat="0" lon="0">
        <time>2020-12-20T09:52:13.743000+00:00</time>
      </trkpt>
      <trkpt lat="0" lon="0">
        <time>2020-12-20T09:52:13.747000+00:00</time>
      </trkpt>
      <trkpt lat="0" lon="0">
        <time>2020-12-20T09:52:13.750000+00:00</time>
      </trkpt>
      <trkpt lat="47.34437" lon="-1.29488">
        <ele>49</ele>
        <time>2020-12-20T09:52:14.709000+00:00</time>
      </trkpt>
      <trkpt lat="0" lon="0">
        <time>2020-12-20T09:52:14.741000+00:00</time>
      </trkpt>
      <trkpt lat="0" lon="0">
        <time>2020-12-20T09:52:14.749000+00:00</time>
      </trkpt>
      <trkpt lat="0" lon="0">
        <time>2020-12-20T09:52:14.750000+00:00</time>
      </trkpt>
      <trkpt lat="47.34436" lon="-1.29496">
        <ele>49</ele>
        <time>2020-12-20T09:52:15.729000+00:00</time>
      </trkpt>
      <trkpt lat="0" lon="0">
        <time>2020-12-20T09:52:15.739000+00:00</time>
      </trkpt>
      <trkpt lat="0" lon="0">
        <time>2020-12-20T09:52:15.743000+00:00</time>
      </trkpt>
      <trkpt lat="0" lon="0">
        <time>2020-12-20T09:52:15.746000+00:00</time>
      </trkpt>
      <trkpt lat="47.34435" lon="-1.29504">
        <ele>50</ele>
        <time>2020-12-20T09:52:16.746000+00:00</time>
      </trkpt>
      <trkpt lat="0" lon="0">
        <time>2020-12-20T09:52:16.756000+00:00</time>
      </trkpt>
      <trkpt lat="0" lon="0">
        <time>2020-12-20T09:52:16.760000+00:00</time>
      </trkpt>
      <trkpt lat="0" lon="0">
        <time>2020-12-20T09:52:16.762000+00:00</time>
      </trkpt>
      <trkpt lat="47.34434" lon="-1.29512">
        <ele>50</ele>
        <time>2020-12-20T09:52:17.755000+00:00</time>
      </trkpt>
      <trkpt lat="0" lon="0">
        <time>2020-12-20T09:52:17.759000+00:00</time>
      </trkpt>
      <trkpt lat="0" lon="0">
        <time>2020-12-20T09:52:17.770000+00:00</time>
      </trkpt>
      <trkpt lat="0" lon="0">
        <time>2020-12-20T09:52:17.782000+00:00</time>
      </trkpt>
      <trkpt lat="47.34432" lon="-1.2952">
        <ele>50</ele>
        <time>2020-12-20T09:52:18.757000+00:00</time>
      </trkpt>
      <trkpt lat="0" lon="0">
        <time>2020-12-20T09:52:18.764000+00:00</time>
      </trkpt>
      <trkpt lat="0" lon="0">
        <time>2020-12-20T09:52:18.769000+00:00</time>
      </trkpt>
      <trkpt lat="0" lon="0">
        <time>2020-12-20T09:52:18.771000+00:00</time>
      </trkpt>
      <trkpt lat="47.34431" lon="-1.29528">
        <ele>49</ele>
        <time>2020-12-20T09:52:19.745000+00:00</time>
      </trkpt>
      <trkpt lat="0" lon="0">
        <time>2020-12-20T09:52:19.764000+00:00</time>
      </trkpt>
      <trkpt lat="0" lon="0">
        <time>2020-12-20T09:52:19.769000+00:00</time>
      </trkpt>
      <trkpt lat="0" lon="0">
        <time>2020-12-20T09:52:19.776000+00:00</time>
      </trkpt>
      <trkpt lat="47.3443" lon="-1.29536">
        <ele>49</ele>
        <time>2020-12-20T09:52:20.732000+00:00</time>
      </trkpt>
      <trkpt lat="0" lon="0">
        <time>2020-12-20T09:52:20.750000+00:00</time>
      </trkpt>
      <trkpt lat="0" lon="0">
        <time>2020-12-20T09:52:20.756000+00:00</time>
      </trkpt>
      <trkpt lat="0" lon="0">
        <time>2020-12-20T09:52:20.759000+00:00</time>
      </trkpt>
      <trkpt lat="47.34429" lon="-1.29544">
        <ele>49</ele>
        <time>2020-12-20T09:52:21.741000+00:00</time>
      </trkpt>
      <trkpt lat="0" lon="0">
        <time>2020-12-20T09:52:21.754000+00:00</time>
      </trkpt>
      <trkpt lat="0" lon="0">
        <time>2020-12-20T09:52:21.758000+00:00</time>
      </trkpt>
      <trkpt lat="0" lon="0">
        <time>2020-12-20T09:52:21.765000+00:00</time>
      </trkpt>
      <trkpt lat="47.34427" lon="-1.29552">
        <ele>49</ele>
        <time>2020-12-20T09:52:22.740000+00:00</time>
      </trkpt>
      <trkpt lat="0" lon="0">
        <time>2020-12-20T09:52:22.752000+00:00</time>
      </trkpt>
      <trkpt lat="0" lon="0">
        <time>2020-12-20T09:52:22.757000+00:00</time>
      </trkpt>
      <trkpt lat="0" lon="0">
        <time>2020-12-20T09:52:22.758000+00:00</time>
      </trkpt>
      <trkpt lat="47.34426" lon="-1.29561">
        <ele>49</ele>
        <time>2020-12-20T09:52:23.763000+00:00</time>
      </trkpt>
      <trkpt lat="0" lon="0">
        <time>2020-12-20T09:52:23.772000+00:00</time>
      </trkpt>
      <trkpt lat="0" lon="0">
        <time>2020-12-20T09:52:23.776000+00:00</time>
      </trkpt>
      <trkpt lat="0" lon="0">
        <time>2020-12-20T09:52:23.778000+00:00</time>
      </trkpt>
      <trkpt lat="47.34425" lon="-1.29569">
        <ele>49</ele>
        <time>2020-12-20T09:52:24.765000+00:00</time>
      </trkpt>
      <trkpt lat="0" lon="0">
        <time>2020-12-20T09:52:24.772000+00:00</time>
      </trkpt>
      <trkpt lat="0" lon="0">
        <time>2020-12-20T09:52:24.779000+00:00</time>
      </trkpt>
      <trkpt lat="0" lon="0">
        <time>2020-12-20T09:52:24.783000+00:00</time>
      </trkpt>
      <trkpt lat="47.34424" lon="-1.29577">
        <ele>48</ele>
        <time>2020-12-20T09:52:25.768000+00:00</time>
      </trkpt>
      <trkpt lat="0" lon="0">
        <time>2020-12-20T09:52:25.780000+00:00</time>
      </trkpt>
      <trkpt lat="0" lon="0">
        <time>2020-12-20T09:52:25.785000+00:00</time>
      </trkpt>
      <trkpt lat="0" lon="0">
        <time>2020-12-20T09:52:25.787000+00:00</time>
      </trkpt>
      <trkpt lat="47.34423" lon="-1.29585">
        <ele>48</ele>
        <time>2020-12-20T09:52:26.747000+00:00</time>
      </trkpt>
      <trkpt lat="0" lon="0">
        <time>2020-12-20T09:52:26.757000+00:00</time>
      </trkpt>
      <trkpt lat="0" lon="0">
        <time>2020-12-20T09:52:26.764000+00:00</time>
      </trkpt>
      <trkpt lat="0" lon="0">
        <time>2020-12-20T09:52:26.769000+00:00</time>
      </trkpt>
      <trkpt lat="47.34421" lon="-1.29593">
        <ele>49</ele>
        <time>2020-12-20T09:52:27.758000+00:00</time>
      </trkpt>
      <trkpt lat="0" lon="0">
        <time>2020-12-20T09:52:27.764000+00:00</time>
      </trkpt>
      <trkpt lat="0" lon="0">
        <time>2020-12-20T09:52:27.769000+00:00</time>
      </trkpt>
      <trkpt lat="0" lon="0">
        <time>2020-12-20T09:52:27.771000+00:00</time>
      </trkpt>
      <trkpt lat="47.3442" lon="-1.29601">
        <ele>49</ele>
        <time>2020-12-20T09:52:28.745000+00:00</time>
      </trkpt>
      <trkpt lat="0" lon="0">
        <time>2020-12-20T09:52:28.759000+00:00</time>
      </trkpt>
      <trkpt lat="0" lon="0">
        <time>2020-12-20T09:52:28.776000+00:00</time>
      </trkpt>
      <trkpt lat="0" lon="0">
        <time>2020-12-20T09:52:28.781000+00:00</time>
      </trkpt>
      <trkpt lat="47.34419" lon="-1.29608">
        <ele>49</ele>
        <time>2020-12-20T09:52:29.768000+00:00</time>
      </trkpt>
      <trkpt lat="0" lon="0">
        <time>2020-12-20T09:52:29.783000+00:00</time>
      </trkpt>
      <trkpt lat="0" lon="0">
        <time>2020-12-20T09:52:29.790000+00:00</time>
      </trkpt>
      <trkpt lat="0" lon="0">
        <time>2020-12-20T09:52:29.793000+00:00</time>
      </trkpt>
      <trkpt lat="47.34417" lon="-1.29615">
        <ele>50</ele>
        <time>2020-12-20T09:52:30.714000+00:00</time>
      </trkpt>
      <trkpt lat="0" lon="0">
        <time>2020-12-20T09:52:30.716000+00:00</time>
      </trkpt>
      <trkpt lat="0" lon="0">
        <time>2020-12-20T09:52:30.718000+00:00</time>
      </trkpt>
      <trkpt lat="0" lon="0">
        <time>2020-12-20T09:52:30.719000+00:00</time>
      </trkpt>
      <trkpt lat="47.34416" lon="-1.29622">
        <ele>50</ele>
        <time>2020-12-20T09:52:31.695000+00:00</time>
      </trkpt>
      <trkpt lat="0" lon="0">
        <time>2020-12-20T09:52:31.701000+00:00</time>
      </trkpt>
      <trkpt lat="0" lon="0">
        <time>2020-12-20T09:52:31.706000+00:00</time>
      </trkpt>
      <trkpt lat="0" lon="0">
        <time>2020-12-20T09:52:31.713000+00:00</time>
      </trkpt>
      <trkpt lat="47.34414" lon="-1.29629">
        <ele>50</ele>
        <time>2020-12-20T09:52:32.755000+00:00</time>
      </trkpt>
      <trkpt lat="0" lon="0">
        <time>2020-12-20T09:52:32.764000+00:00</time>
      </trkpt>
      <trkpt lat="0" lon="0">
        <time>2020-12-20T09:52:32.769000+00:00</time>
      </trkpt>
      <trkpt lat="0" lon="0">
        <time>2020-12-20T09:52:32.772000+00:00</time>
      </trkpt>
      <trkpt lat="47.34412" lon="-1.29636">
        <ele>50</ele>
        <time>2020-12-20T09:52:33.724000+00:00</time>
      </trkpt>
      <trkpt lat="0" lon="0">
        <time>2020-12-20T09:52:33.736000+00:00</time>
      </trkpt>
      <trkpt lat="0" lon="0">
        <time>2020-12-20T09:52:33.740000+00:00</time>
      </trkpt>
      <trkpt lat="0" lon="0">
        <time>2020-12-20T09:52:33.742000+00:00</time>
      </trkpt>
      <trkpt lat="47.34411" lon="-1.29643">
        <ele>50</ele>
        <time>2020-12-20T09:52:34.780000+00:00</time>
      </trkpt>
      <trkpt lat="0" lon="0">
        <time>2020-12-20T09:52:34.797000+00:00</time>
      </trkpt>
      <trkpt lat="0" lon="0">
        <time>2020-12-20T09:52:34.804000+00:00</time>
      </trkpt>
      <trkpt lat="0" lon="0">
        <time>2020-12-20T09:52:34.806000+00:00</time>
      </trkpt>
      <trkpt lat="47.34409" lon="-1.29649">
        <ele>50</ele>
        <time>2020-12-20T09:52:35.763000+00:00</time>
      </trkpt>
      <trkpt lat="0" lon="0">
        <time>2020-12-20T09:52:35.779000+00:00</time>
      </trkpt>
      <trkpt lat="0" lon="0">
        <time>2020-12-20T09:52:35.784000+00:00</time>
      </trkpt>
      <trkpt lat="0" lon="0">
        <time>2020-12-20T09:52:35.786000+00:00</time>
      </trkpt>
      <trkpt lat="47.34407" lon="-1.29655">
        <ele>50</ele>
        <time>2020-12-20T09:52:36.766000+00:00</time>
      </trkpt>
      <trkpt lat="0" lon="0">
        <time>2020-12-20T09:52:36.786000+00:00</time>
      </trkpt>
      <trkpt lat="0" lon="0">
        <time>2020-12-20T09:52:36.791000+00:00</time>
      </trkpt>
      <trkpt lat="0" lon="0">
        <time>2020-12-20T09:52:36.795000+00:00</time>
      </trkpt>
      <trkpt lat="47.34405" lon="-1.29661">
        <ele>51</ele>
        <time>2020-12-20T09:52:37.772000+00:00</time>
      </trkpt>
      <trkpt lat="0" lon="0">
        <time>2020-12-20T09:52:37.782000+00:00</time>
      </trkpt>
      <trkpt lat="0" lon="0">
        <time>2020-12-20T09:52:37.786000+00:00</time>
      </trkpt>
      <trkpt lat="0" lon="0">
        <time>2020-12-20T09:52:37.789000+00:00</time>
      </trkpt>
      <trkpt lat="47.34402" lon="-1.29667">
        <ele>51</ele>
        <time>2020-12-20T09:52:38.755000+00:00</time>
      </trkpt>
      <trkpt lat="0" lon="0">
        <time>2020-12-20T09:52:38.777000+00:00</time>
      </trkpt>
      <trkpt lat="0" lon="0">
        <time>2020-12-20T09:52:38.783000+00:00</time>
      </trkpt>
      <trkpt lat="0" lon="0">
        <time>2020-12-20T09:52:38.786000+00:00</time>
      </trkpt>
      <trkpt lat="47.344" lon="-1.29673">
        <ele>51</ele>
        <time>2020-12-20T09:52:39.751000+00:00</time>
      </trkpt>
      <trkpt lat="0" lon="0">
        <time>2020-12-20T09:52:39.759000+00:00</time>
      </trkpt>
      <trkpt lat="0" lon="0">
        <time>2020-12-20T09:52:39.763000+00:00</time>
      </trkpt>
      <trkpt lat="0" lon="0">
        <time>2020-12-20T09:52:39.766000+00:00</time>
      </trkpt>
      <trkpt lat="47.34397" lon="-1.29679">
        <ele>51</ele>
        <time>2020-12-20T09:52:40.749000+00:00</time>
      </trkpt>
      <trkpt lat="0" lon="0">
        <time>2020-12-20T09:52:40.755000+00:00</time>
      </trkpt>
      <trkpt lat="0" lon="0">
        <time>2020-12-20T09:52:40.767000+00:00</time>
      </trkpt>
      <trkpt lat="0" lon="0">
        <time>2020-12-20T09:52:40.769000+00:00</time>
      </trkpt>
      <trkpt lat="47.34395" lon="-1.29685">
        <ele>51</ele>
        <time>2020-12-20T09:52:41.766000+00:00</time>
      </trkpt>
      <trkpt lat="0" lon="0">
        <time>2020-12-20T09:52:41.774000+00:00</time>
      </trkpt>
      <trkpt lat="0" lon="0">
        <time>2020-12-20T09:52:41.778000+00:00</time>
      </trkpt>
      <trkpt lat="0" lon="0">
        <time>2020-12-20T09:52:41.780000+00:00</time>
      </trkpt>
      <trkpt lat="47.34392" lon="-1.2969">
        <ele>51</ele>
        <time>2020-12-20T09:52:42.718000+00:00</time>
      </trkpt>
      <trkpt lat="0" lon="0">
        <time>2020-12-20T09:52:42.741000+00:00</time>
      </trkpt>
      <trkpt lat="0" lon="0">
        <time>2020-12-20T09:52:42.745000+00:00</time>
      </trkpt>
      <trkpt lat="0" lon="0">
        <time>2020-12-20T09:52:42.747000+00:00</time>
      </trkpt>
      <trkpt lat="47.34389" lon="-1.29696">
        <ele>51</ele>
        <time>2020-12-20T09:52:43.773000+00:00</time>
      </trkpt>
      <trkpt lat="0" lon="0">
        <time>2020-12-20T09:52:43.778000+00:00</time>
      </trkpt>
      <trkpt lat="0" lon="0">
        <time>2020-12-20T09:52:43.791000+00:00</time>
      </trkpt>
      <trkpt lat="0" lon="0">
        <time>2020-12-20T09:52:43.799000+00:00</time>
      </trkpt>
      <trkpt lat="47.34386" lon="-1.29701">
        <ele>51</ele>
        <time>2020-12-20T09:52:44.775000+00:00</time>
      </trkpt>
      <trkpt lat="0" lon="0">
        <time>2020-12-20T09:52:44.789000+00:00</time>
      </trkpt>
      <trkpt lat="0" lon="0">
        <time>2020-12-20T09:52:44.793000+00:00</time>
      </trkpt>
      <trkpt lat="0" lon="0">
        <time>2020-12-20T09:52:44.795000+00:00</time>
      </trkpt>
      <trkpt lat="47.34383" lon="-1.29707">
        <ele>51</ele>
        <time>2020-12-20T09:52:45.752000+00:00</time>
      </trkpt>
      <trkpt lat="0" lon="0">
        <time>2020-12-20T09:52:45.763000+00:00</time>
      </trkpt>
      <trkpt lat="0" lon="0">
        <time>2020-12-20T09:52:45.770000+00:00</time>
      </trkpt>
      <trkpt lat="0" lon="0">
        <time>2020-12-20T09:52:45.778000+00:00</time>
      </trkpt>
      <trkpt lat="47.3438" lon="-1.29713">
        <ele>51</ele>
        <time>2020-12-20T09:52:46.743000+00:00</time>
      </trkpt>
      <trkpt lat="0" lon="0">
        <time>2020-12-20T09:52:46.750000+00:00</time>
      </trkpt>
      <trkpt lat="0" lon="0">
        <time>2020-12-20T09:52:46.759000+00:00</time>
      </trkpt>
      <trkpt lat="0" lon="0">
        <time>2020-12-20T09:52:46.763000+00:00</time>
      </trkpt>
      <trkpt lat="47.34376" lon="-1.29718">
        <ele>51</ele>
        <time>2020-12-20T09:52:47.760000+00:00</time>
      </trkpt>
      <trkpt lat="0" lon="0">
        <time>2020-12-20T09:52:47.766000+00:00</time>
      </trkpt>
      <trkpt lat="0" lon="0">
        <time>2020-12-20T09:52:47.772000+00:00</time>
      </trkpt>
      <trkpt lat="0" lon="0">
        <time>2020-12-20T09:52:47.774000+00:00</time>
      </trkpt>
      <trkpt lat="47.34373" lon="-1.29724">
        <ele>51</ele>
        <time>2020-12-20T09:52:48.750000+00:00</time>
      </trkpt>
      <trkpt lat="0" lon="0">
        <time>2020-12-20T09:52:48.766000+00:00</time>
      </trkpt>
      <trkpt lat="0" lon="0">
        <time>2020-12-20T09:52:48.770000+00:00</time>
      </trkpt>
      <trkpt lat="0" lon="0">
        <time>2020-12-20T09:52:48.773000+00:00</time>
      </trkpt>
      <trkpt lat="47.3437" lon="-1.29729">
        <ele>51</ele>
        <time>2020-12-20T09:52:49.734000+00:00</time>
      </trkpt>
      <trkpt lat="0" lon="0">
        <time>2020-12-20T09:52:49.755000+00:00</time>
      </trkpt>
      <trkpt lat="0" lon="0">
        <time>2020-12-20T09:52:49.759000+00:00</time>
      </trkpt>
      <trkpt lat="0" lon="0">
        <time>2020-12-20T09:52:49.765000+00:00</time>
      </trkpt>
      <trkpt lat="47.34366" lon="-1.29735">
        <ele>51</ele>
        <time>2020-12-20T09:52:50.723000+00:00</time>
      </trkpt>
      <trkpt lat="0" lon="0">
        <time>2020-12-20T09:52:50.731000+00:00</time>
      </trkpt>
      <trkpt lat="0" lon="0">
        <time>2020-12-20T09:52:50.735000+00:00</time>
      </trkpt>
      <trkpt lat="0" lon="0">
        <time>2020-12-20T09:52:50.738000+00:00</time>
      </trkpt>
      <trkpt lat="47.34363" lon="-1.29741">
        <ele>51</ele>
        <time>2020-12-20T09:52:51.752000+00:00</time>
      </trkpt>
      <trkpt lat="0" lon="0">
        <time>2020-12-20T09:52:51.763000+00:00</time>
      </trkpt>
      <trkpt lat="0" lon="0">
        <time>2020-12-20T09:52:51.770000+00:00</time>
      </trkpt>
      <trkpt lat="0" lon="0">
        <time>2020-12-20T09:52:51.773000+00:00</time>
      </trkpt>
      <trkpt lat="47.3436" lon="-1.29746">
        <ele>51</ele>
        <time>2020-12-20T09:52:52.750000+00:00</time>
      </trkpt>
      <trkpt lat="0" lon="0">
        <time>2020-12-20T09:52:52.757000+00:00</time>
      </trkpt>
      <trkpt lat="0" lon="0">
        <time>2020-12-20T09:52:52.761000+00:00</time>
      </trkpt>
      <trkpt lat="0" lon="0">
        <time>2020-12-20T09:52:52.764000+00:00</time>
      </trkpt>
      <trkpt lat="47.34356" lon="-1.29752">
        <ele>51</ele>
        <time>2020-12-20T09:52:53.730000+00:00</time>
      </trkpt>
      <trkpt lat="0" lon="0">
        <time>2020-12-20T09:52:53.743000+00:00</time>
      </trkpt>
      <trkpt lat="0" lon="0">
        <time>2020-12-20T09:52:53.750000+00:00</time>
      </trkpt>
      <trkpt lat="0" lon="0">
        <time>2020-12-20T09:52:53.753000+00:00</time>
      </trkpt>
      <trkpt lat="47.34353" lon="-1.29758">
        <ele>51</ele>
        <time>2020-12-20T09:52:54.720000+00:00</time>
      </trkpt>
      <trkpt lat="0" lon="0">
        <time>2020-12-20T09:52:54.726000+00:00</time>
      </trkpt>
      <trkpt lat="0" lon="0">
        <time>2020-12-20T09:52:54.730000+00:00</time>
      </trkpt>
      <trkpt lat="0" lon="0">
        <time>2020-12-20T09:52:54.732000+00:00</time>
      </trkpt>
      <trkpt lat="47.3435" lon="-1.29765">
        <ele>51</ele>
        <time>2020-12-20T09:52:55.750000+00:00</time>
      </trkpt>
      <trkpt lat="0" lon="0">
        <time>2020-12-20T09:52:55.754000+00:00</time>
      </trkpt>
      <trkpt lat="0" lon="0">
        <time>2020-12-20T09:52:55.759000+00:00</time>
      </trkpt>
      <trkpt lat="0" lon="0">
        <time>2020-12-20T09:52:55.763000+00:00</time>
      </trkpt>
      <trkpt lat="47.34347" lon="-1.29771">
        <ele>51</ele>
        <time>2020-12-20T09:52:56.721000+00:00</time>
      </trkpt>
      <trkpt lat="0" lon="0">
        <time>2020-12-20T09:52:56.747000+00:00</time>
      </trkpt>
      <trkpt lat="0" lon="0">
        <time>2020-12-20T09:52:56.752000+00:00</time>
      </trkpt>
      <trkpt lat="0" lon="0">
        <time>2020-12-20T09:52:56.754000+00:00</time>
      </trkpt>
      <trkpt lat="47.34345" lon="-1.29777">
        <ele>50</ele>
        <time>2020-12-20T09:52:57.747000+00:00</time>
      </trkpt>
      <trkpt lat="0" lon="0">
        <time>2020-12-20T09:52:57.764000+00:00</time>
      </trkpt>
      <trkpt lat="0" lon="0">
        <time>2020-12-20T09:52:57.770000+00:00</time>
      </trkpt>
      <trkpt lat="0" lon="0">
        <time>2020-12-20T09:52:57.773000+00:00</time>
      </trkpt>
      <trkpt lat="47.34342" lon="-1.29784">
        <ele>50</ele>
        <time>2020-12-20T09:52:58.775000+00:00</time>
      </trkpt>
      <trkpt lat="0" lon="0">
        <time>2020-12-20T09:52:58.783000+00:00</time>
      </trkpt>
      <trkpt lat="0" lon="0">
        <time>2020-12-20T09:52:58.789000+00:00</time>
      </trkpt>
      <trkpt lat="0" lon="0">
        <time>2020-12-20T09:52:58.791000+00:00</time>
      </trkpt>
      <trkpt lat="47.34339" lon="-1.2979">
        <ele>50</ele>
        <time>2020-12-20T09:52:59.730000+00:00</time>
      </trkpt>
      <trkpt lat="0" lon="0">
        <time>2020-12-20T09:52:59.749000+00:00</time>
      </trkpt>
      <trkpt lat="0" lon="0">
        <time>2020-12-20T09:52:59.759000+00:00</time>
      </trkpt>
      <trkpt lat="0" lon="0">
        <time>2020-12-20T09:52:59.761000+00:00</time>
      </trkpt>
      <trkpt lat="47.34336" lon="-1.29797">
        <ele>50</ele>
        <time>2020-12-20T09:53:00.740000+00:00</time>
      </trkpt>
      <trkpt lat="0" lon="0">
        <time>2020-12-20T09:53:00.748000+00:00</time>
      </trkpt>
      <trkpt lat="0" lon="0">
        <time>2020-12-20T09:53:00.753000+00:00</time>
      </trkpt>
      <trkpt lat="0" lon="0">
        <time>2020-12-20T09:53:00.754000+00:00</time>
      </trkpt>
      <trkpt lat="47.34333" lon="-1.29803">
        <ele>49</ele>
        <time>2020-12-20T09:53:01.741000+00:00</time>
      </trkpt>
      <trkpt lat="0" lon="0">
        <time>2020-12-20T09:53:01.754000+00:00</time>
      </trkpt>
      <trkpt lat="0" lon="0">
        <time>2020-12-20T09:53:01.766000+00:00</time>
      </trkpt>
      <trkpt lat="0" lon="0">
        <time>2020-12-20T09:53:01.769000+00:00</time>
      </trkpt>
      <trkpt lat="47.34331" lon="-1.2981">
        <ele>49</ele>
        <time>2020-12-20T09:53:02.735000+00:00</time>
      </trkpt>
      <trkpt lat="0" lon="0">
        <time>2020-12-20T09:53:02.749000+00:00</time>
      </trkpt>
      <trkpt lat="0" lon="0">
        <time>2020-12-20T09:53:02.755000+00:00</time>
      </trkpt>
      <trkpt lat="0" lon="0">
        <time>2020-12-20T09:53:02.759000+00:00</time>
      </trkpt>
      <trkpt lat="47.34328" lon="-1.29816">
        <ele>49</ele>
        <time>2020-12-20T09:53:03.751000+00:00</time>
      </trkpt>
      <trkpt lat="0" lon="0">
        <time>2020-12-20T09:53:03.757000+00:00</time>
      </trkpt>
      <trkpt lat="0" lon="0">
        <time>2020-12-20T09:53:03.760000+00:00</time>
      </trkpt>
      <trkpt lat="0" lon="0">
        <time>2020-12-20T09:53:03.762000+00:00</time>
      </trkpt>
      <trkpt lat="47.34325" lon="-1.29823">
        <ele>49</ele>
        <time>2020-12-20T09:53:04.711000+00:00</time>
      </trkpt>
      <trkpt lat="0" lon="0">
        <time>2020-12-20T09:53:04.728000+00:00</time>
      </trkpt>
      <trkpt lat="0" lon="0">
        <time>2020-12-20T09:53:04.734000+00:00</time>
      </trkpt>
      <trkpt lat="0" lon="0">
        <time>2020-12-20T09:53:04.736000+00:00</time>
      </trkpt>
      <trkpt lat="47.34322" lon="-1.29829">
        <ele>49</ele>
        <time>2020-12-20T09:53:05.745000+00:00</time>
      </trkpt>
      <trkpt lat="0" lon="0">
        <time>2020-12-20T09:53:05.762000+00:00</time>
      </trkpt>
      <trkpt lat="0" lon="0">
        <time>2020-12-20T09:53:05.766000+00:00</time>
      </trkpt>
      <trkpt lat="0" lon="0">
        <time>2020-12-20T09:53:05.770000+00:00</time>
      </trkpt>
      <trkpt lat="47.34319" lon="-1.29836">
        <ele>49</ele>
        <time>2020-12-20T09:53:06.741000+00:00</time>
      </trkpt>
      <trkpt lat="0" lon="0">
        <time>2020-12-20T09:53:06.747000+00:00</time>
      </trkpt>
      <trkpt lat="0" lon="0">
        <time>2020-12-20T09:53:06.752000+00:00</time>
      </trkpt>
      <trkpt lat="0" lon="0">
        <time>2020-12-20T09:53:06.755000+00:00</time>
      </trkpt>
      <trkpt lat="47.34317" lon="-1.29842">
        <ele>49</ele>
        <time>2020-12-20T09:53:07.744000+00:00</time>
      </trkpt>
      <trkpt lat="0" lon="0">
        <time>2020-12-20T09:53:07.753000+00:00</time>
      </trkpt>
      <trkpt lat="0" lon="0">
        <time>2020-12-20T09:53:07.759000+00:00</time>
      </trkpt>
      <trkpt lat="0" lon="0">
        <time>2020-12-20T09:53:07.761000+00:00</time>
      </trkpt>
      <trkpt lat="47.34314" lon="-1.29849">
        <ele>48</ele>
        <time>2020-12-20T09:53:08.755000+00:00</time>
      </trkpt>
      <trkpt lat="0" lon="0">
        <time>2020-12-20T09:53:08.765000+00:00</time>
      </trkpt>
      <trkpt lat="0" lon="0">
        <time>2020-12-20T09:53:08.769000+00:00</time>
      </trkpt>
      <trkpt lat="0" lon="0">
        <time>2020-12-20T09:53:08.773000+00:00</time>
      </trkpt>
      <trkpt lat="47.34311" lon="-1.29856">
        <ele>48</ele>
        <time>2020-12-20T09:53:09.757000+00:00</time>
      </trkpt>
      <trkpt lat="0" lon="0">
        <time>2020-12-20T09:53:09.775000+00:00</time>
      </trkpt>
      <trkpt lat="0" lon="0">
        <time>2020-12-20T09:53:09.779000+00:00</time>
      </trkpt>
      <trkpt lat="0" lon="0">
        <time>2020-12-20T09:53:09.781000+00:00</time>
      </trkpt>
      <trkpt lat="47.34309" lon="-1.29862">
        <ele>47</ele>
        <time>2020-12-20T09:53:10.743000+00:00</time>
      </trkpt>
      <trkpt lat="0" lon="0">
        <time>2020-12-20T09:53:10.774000+00:00</time>
      </trkpt>
      <trkpt lat="0" lon="0">
        <time>2020-12-20T09:53:10.781000+00:00</time>
      </trkpt>
      <trkpt lat="0" lon="0">
        <time>2020-12-20T09:53:10.782000+00:00</time>
      </trkpt>
      <trkpt lat="47.34306" lon="-1.29869">
        <ele>47</ele>
        <time>2020-12-20T09:53:11.755000+00:00</time>
      </trkpt>
      <trkpt lat="0" lon="0">
        <time>2020-12-20T09:53:11.763000+00:00</time>
      </trkpt>
      <trkpt lat="0" lon="0">
        <time>2020-12-20T09:53:11.766000+00:00</time>
      </trkpt>
      <trkpt lat="0" lon="0">
        <time>2020-12-20T09:53:11.767000+00:00</time>
      </trkpt>
      <trkpt lat="47.34304" lon="-1.29876">
        <ele>48</ele>
        <time>2020-12-20T09:53:12.764000+00:00</time>
      </trkpt>
      <trkpt lat="0" lon="0">
        <time>2020-12-20T09:53:12.777000+00:00</time>
      </trkpt>
      <trkpt lat="0" lon="0">
        <time>2020-12-20T09:53:12.788000+00:00</time>
      </trkpt>
      <trkpt lat="0" lon="0">
        <time>2020-12-20T09:53:12.790000+00:00</time>
      </trkpt>
      <trkpt lat="47.34301" lon="-1.29882">
        <ele>48</ele>
        <time>2020-12-20T09:53:13.754000+00:00</time>
      </trkpt>
      <trkpt lat="0" lon="0">
        <time>2020-12-20T09:53:13.762000+00:00</time>
      </trkpt>
      <trkpt lat="0" lon="0">
        <time>2020-12-20T09:53:13.768000+00:00</time>
      </trkpt>
      <trkpt lat="0" lon="0">
        <time>2020-12-20T09:53:13.772000+00:00</time>
      </trkpt>
      <trkpt lat="47.34299" lon="-1.29889">
        <ele>48</ele>
        <time>2020-12-20T09:53:14.766000+00:00</time>
      </trkpt>
      <trkpt lat="0" lon="0">
        <time>2020-12-20T09:53:14.776000+00:00</time>
      </trkpt>
      <trkpt lat="0" lon="0">
        <time>2020-12-20T09:53:14.789000+00:00</time>
      </trkpt>
      <trkpt lat="0" lon="0">
        <time>2020-12-20T09:53:14.797000+00:00</time>
      </trkpt>
      <trkpt lat="47.34296" lon="-1.29896">
        <ele>48</ele>
        <time>2020-12-20T09:53:15.741000+00:00</time>
      </trkpt>
      <trkpt lat="0" lon="0">
        <time>2020-12-20T09:53:15.757000+00:00</time>
      </trkpt>
      <trkpt lat="0" lon="0">
        <time>2020-12-20T09:53:15.767000+00:00</time>
      </trkpt>
      <trkpt lat="0" lon="0">
        <time>2020-12-20T09:53:15.772000+00:00</time>
      </trkpt>
      <trkpt lat="47.34294" lon="-1.29902">
        <ele>48</ele>
        <time>2020-12-20T09:53:16.714000+00:00</time>
      </trkpt>
      <trkpt lat="0" lon="0">
        <time>2020-12-20T09:53:16.725000+00:00</time>
      </trkpt>
      <trkpt lat="0" lon="0">
        <time>2020-12-20T09:53:16.726000+00:00</time>
      </trkpt>
      <trkpt lat="0" lon="0">
        <time>2020-12-20T09:53:16.727000+00:00</time>
      </trkpt>
      <trkpt lat="47.34292" lon="-1.29909">
        <ele>48</ele>
        <time>2020-12-20T09:53:17.733000+00:00</time>
      </trkpt>
      <trkpt lat="0" lon="0">
        <time>2020-12-20T09:53:17.738000+00:00</time>
      </trkpt>
      <trkpt lat="0" lon="0">
        <time>2020-12-20T09:53:17.740000+00:00</time>
      </trkpt>
      <trkpt lat="0" lon="0">
        <time>2020-12-20T09:53:17.741000+00:00</time>
      </trkpt>
      <trkpt lat="47.34289" lon="-1.29916">
        <ele>48</ele>
        <time>2020-12-20T09:53:18.739000+00:00</time>
      </trkpt>
      <trkpt lat="0" lon="0">
        <time>2020-12-20T09:53:18.750000+00:00</time>
      </trkpt>
      <trkpt lat="0" lon="0">
        <time>2020-12-20T09:53:18.754000+00:00</time>
      </trkpt>
      <trkpt lat="0" lon="0">
        <time>2020-12-20T09:53:18.757000+00:00</time>
      </trkpt>
      <trkpt lat="47.34287" lon="-1.29922">
        <ele>48</ele>
        <time>2020-12-20T09:53:19.763000+00:00</time>
      </trkpt>
      <trkpt lat="0" lon="0">
        <time>2020-12-20T09:53:19.775000+00:00</time>
      </trkpt>
      <trkpt lat="0" lon="0">
        <time>2020-12-20T09:53:19.781000+00:00</time>
      </trkpt>
      <trkpt lat="0" lon="0">
        <time>2020-12-20T09:53:19.783000+00:00</time>
      </trkpt>
      <trkpt lat="47.34285" lon="-1.29929">
        <ele>48</ele>
        <time>2020-12-20T09:53:20.747000+00:00</time>
      </trkpt>
      <trkpt lat="0" lon="0">
        <time>2020-12-20T09:53:20.752000+00:00</time>
      </trkpt>
      <trkpt lat="0" lon="0">
        <time>2020-12-20T09:53:20.758000+00:00</time>
      </trkpt>
      <trkpt lat="0" lon="0">
        <time>2020-12-20T09:53:20.760000+00:00</time>
      </trkpt>
      <trkpt lat="47.34283" lon="-1.29936">
        <ele>48</ele>
        <time>2020-12-20T09:53:21.745000+00:00</time>
      </trkpt>
      <trkpt lat="0" lon="0">
        <time>2020-12-20T09:53:21.751000+00:00</time>
      </trkpt>
      <trkpt lat="0" lon="0">
        <time>2020-12-20T09:53:21.756000+00:00</time>
      </trkpt>
      <trkpt lat="0" lon="0">
        <time>2020-12-20T09:53:21.758000+00:00</time>
      </trkpt>
      <trkpt lat="47.34281" lon="-1.29942">
        <ele>48</ele>
        <time>2020-12-20T09:53:22.766000+00:00</time>
      </trkpt>
      <trkpt lat="0" lon="0">
        <time>2020-12-20T09:53:22.780000+00:00</time>
      </trkpt>
      <trkpt lat="0" lon="0">
        <time>2020-12-20T09:53:22.784000+00:00</time>
      </trkpt>
      <trkpt lat="0" lon="0">
        <time>2020-12-20T09:53:22.788000+00:00</time>
      </trkpt>
      <trkpt lat="47.34279" lon="-1.29949">
        <ele>48</ele>
        <time>2020-12-20T09:53:23.726000+00:00</time>
      </trkpt>
      <trkpt lat="0" lon="0">
        <time>2020-12-20T09:53:23.731000+00:00</time>
      </trkpt>
      <trkpt lat="0" lon="0">
        <time>2020-12-20T09:53:23.734000+00:00</time>
      </trkpt>
      <trkpt lat="0" lon="0">
        <time>2020-12-20T09:53:23.735000+00:00</time>
      </trkpt>
      <trkpt lat="47.34278" lon="-1.29956">
        <ele>48</ele>
        <time>2020-12-20T09:53:24.709000+00:00</time>
      </trkpt>
      <trkpt lat="0" lon="0">
        <time>2020-12-20T09:53:24.718000+00:00</time>
      </trkpt>
      <trkpt lat="0" lon="0">
        <time>2020-12-20T09:53:24.727000+00:00</time>
      </trkpt>
      <trkpt lat="0" lon="0">
        <time>2020-12-20T09:53:24.729000+00:00</time>
      </trkpt>
      <trkpt lat="47.34277" lon="-1.29963">
        <ele>48</ele>
        <time>2020-12-20T09:53:25.730000+00:00</time>
      </trkpt>
      <trkpt lat="0" lon="0">
        <time>2020-12-20T09:53:25.747000+00:00</time>
      </trkpt>
      <trkpt lat="0" lon="0">
        <time>2020-12-20T09:53:25.752000+00:00</time>
      </trkpt>
      <trkpt lat="0" lon="0">
        <time>2020-12-20T09:53:25.757000+00:00</time>
      </trkpt>
      <trkpt lat="47.34277" lon="-1.29969">
        <ele>48</ele>
        <time>2020-12-20T09:53:26.746000+00:00</time>
      </trkpt>
      <trkpt lat="0" lon="0">
        <time>2020-12-20T09:53:26.762000+00:00</time>
      </trkpt>
      <trkpt lat="0" lon="0">
        <time>2020-12-20T09:53:26.766000+00:00</time>
      </trkpt>
      <trkpt lat="0" lon="0">
        <time>2020-12-20T09:53:26.768000+00:00</time>
      </trkpt>
      <trkpt lat="47.34276" lon="-1.29976">
        <ele>48</ele>
        <time>2020-12-20T09:53:27.757000+00:00</time>
      </trkpt>
      <trkpt lat="0" lon="0">
        <time>2020-12-20T09:53:27.775000+00:00</time>
      </trkpt>
      <trkpt lat="0" lon="0">
        <time>2020-12-20T09:53:27.787000+00:00</time>
      </trkpt>
      <trkpt lat="0" lon="0">
        <time>2020-12-20T09:53:27.793000+00:00</time>
      </trkpt>
      <trkpt lat="47.34276" lon="-1.29982">
        <ele>49</ele>
        <time>2020-12-20T09:53:28.765000+00:00</time>
      </trkpt>
      <trkpt lat="0" lon="0">
        <time>2020-12-20T09:53:28.781000+00:00</time>
      </trkpt>
      <trkpt lat="0" lon="0">
        <time>2020-12-20T09:53:28.790000+00:00</time>
      </trkpt>
      <trkpt lat="0" lon="0">
        <time>2020-12-20T09:53:28.792000+00:00</time>
      </trkpt>
      <trkpt lat="47.34276" lon="-1.29988">
        <ele>49</ele>
        <time>2020-12-20T09:53:29.713000+00:00</time>
      </trkpt>
      <trkpt lat="0" lon="0">
        <time>2020-12-20T09:53:29.716000+00:00</time>
      </trkpt>
      <trkpt lat="0" lon="0">
        <time>2020-12-20T09:53:29.723000+00:00</time>
      </trkpt>
      <trkpt lat="0" lon="0">
        <time>2020-12-20T09:53:29.724000+00:00</time>
      </trkpt>
      <trkpt lat="47.34275" lon="-1.29995">
        <ele>49</ele>
        <time>2020-12-20T09:53:30.737000+00:00</time>
      </trkpt>
      <trkpt lat="0" lon="0">
        <time>2020-12-20T09:53:30.746000+00:00</time>
      </trkpt>
      <trkpt lat="0" lon="0">
        <time>2020-12-20T09:53:30.750000+00:00</time>
      </trkpt>
      <trkpt lat="0" lon="0">
        <time>2020-12-20T09:53:30.753000+00:00</time>
      </trkpt>
      <trkpt lat="47.34275" lon="-1.3">
        <ele>49</ele>
        <time>2020-12-20T09:53:31.751000+00:00</time>
      </trkpt>
      <trkpt lat="0" lon="0">
        <time>2020-12-20T09:53:31.761000+00:00</time>
      </trkpt>
      <trkpt lat="0" lon="0">
        <time>2020-12-20T09:53:31.767000+00:00</time>
      </trkpt>
      <trkpt lat="0" lon="0">
        <time>2020-12-20T09:53:31.771000+00:00</time>
      </trkpt>
      <trkpt lat="47.34276" lon="-1.30006">
        <ele>49</ele>
        <time>2020-12-20T09:53:32.750000+00:00</time>
      </trkpt>
      <trkpt lat="0" lon="0">
        <time>2020-12-20T09:53:32.754000+00:00</time>
      </trkpt>
      <trkpt lat="0" lon="0">
        <time>2020-12-20T09:53:32.758000+00:00</time>
      </trkpt>
      <trkpt lat="0" lon="0">
        <time>2020-12-20T09:53:32.760000+00:00</time>
      </trkpt>
      <trkpt lat="47.34276" lon="-1.30012">
        <ele>49</ele>
        <time>2020-12-20T09:53:33.739000+00:00</time>
      </trkpt>
      <trkpt lat="0" lon="0">
        <time>2020-12-20T09:53:33.756000+00:00</time>
      </trkpt>
      <trkpt lat="0" lon="0">
        <time>2020-12-20T09:53:33.761000+00:00</time>
      </trkpt>
      <trkpt lat="0" lon="0">
        <time>2020-12-20T09:53:33.763000+00:00</time>
      </trkpt>
      <trkpt lat="47.34276" lon="-1.30018">
        <ele>50</ele>
        <time>2020-12-20T09:53:34.771000+00:00</time>
      </trkpt>
      <trkpt lat="0" lon="0">
        <time>2020-12-20T09:53:34.790000+00:00</time>
      </trkpt>
      <trkpt lat="0" lon="0">
        <time>2020-12-20T09:53:34.802000+00:00</time>
      </trkpt>
      <trkpt lat="0" lon="0">
        <time>2020-12-20T09:53:34.807000+00:00</time>
      </trkpt>
      <trkpt lat="47.34277" lon="-1.30023">
        <ele>50</ele>
        <time>2020-12-20T09:53:35.758000+00:00</time>
      </trkpt>
      <trkpt lat="0" lon="0">
        <time>2020-12-20T09:53:35.771000+00:00</time>
      </trkpt>
      <trkpt lat="0" lon="0">
        <time>2020-12-20T09:53:35.775000+00:00</time>
      </trkpt>
      <trkpt lat="0" lon="0">
        <time>2020-12-20T09:53:35.777000+00:00</time>
      </trkpt>
      <trkpt lat="47.34278" lon="-1.30029">
        <ele>50</ele>
        <time>2020-12-20T09:53:36.720000+00:00</time>
      </trkpt>
      <trkpt lat="0" lon="0">
        <time>2020-12-20T09:53:36.741000+00:00</time>
      </trkpt>
      <trkpt lat="0" lon="0">
        <time>2020-12-20T09:53:36.745000+00:00</time>
      </trkpt>
      <trkpt lat="0" lon="0">
        <time>2020-12-20T09:53:36.747000+00:00</time>
      </trkpt>
      <trkpt lat="47.34279" lon="-1.30034">
        <ele>50</ele>
        <time>2020-12-20T09:53:37.758000+00:00</time>
      </trkpt>
      <trkpt lat="0" lon="0">
        <time>2020-12-20T09:53:37.767000+00:00</time>
      </trkpt>
      <trkpt lat="0" lon="0">
        <time>2020-12-20T09:53:37.771000+00:00</time>
      </trkpt>
      <trkpt lat="0" lon="0">
        <time>2020-12-20T09:53:37.774000+00:00</time>
      </trkpt>
      <trkpt lat="47.34281" lon="-1.30039">
        <ele>50</ele>
        <time>2020-12-20T09:53:38.743000+00:00</time>
      </trkpt>
      <trkpt lat="0" lon="0">
        <time>2020-12-20T09:53:38.747000+00:00</time>
      </trkpt>
      <trkpt lat="0" lon="0">
        <time>2020-12-20T09:53:38.757000+00:00</time>
      </trkpt>
      <trkpt lat="0" lon="0">
        <time>2020-12-20T09:53:38.760000+00:00</time>
      </trkpt>
      <trkpt lat="47.34282" lon="-1.30045">
        <ele>50</ele>
        <time>2020-12-20T09:53:39.717000+00:00</time>
      </trkpt>
      <trkpt lat="0" lon="0">
        <time>2020-12-20T09:53:39.729000+00:00</time>
      </trkpt>
      <trkpt lat="0" lon="0">
        <time>2020-12-20T09:53:39.735000+00:00</time>
      </trkpt>
      <trkpt lat="0" lon="0">
        <time>2020-12-20T09:53:39.736000+00:00</time>
      </trkpt>
      <trkpt lat="47.34284" lon="-1.3005">
        <ele>51</ele>
        <time>2020-12-20T09:53:40.735000+00:00</time>
      </trkpt>
      <trkpt lat="0" lon="0">
        <time>2020-12-20T09:53:40.753000+00:00</time>
      </trkpt>
      <trkpt lat="0" lon="0">
        <time>2020-12-20T09:53:40.757000+00:00</time>
      </trkpt>
      <trkpt lat="0" lon="0">
        <time>2020-12-20T09:53:40.759000+00:00</time>
      </trkpt>
      <trkpt lat="47.34286" lon="-1.30055">
        <ele>51</ele>
        <time>2020-12-20T09:53:41.741000+00:00</time>
      </trkpt>
      <trkpt lat="0" lon="0">
        <time>2020-12-20T09:53:41.750000+00:00</time>
      </trkpt>
      <trkpt lat="0" lon="0">
        <time>2020-12-20T09:53:41.765000+00:00</time>
      </trkpt>
      <trkpt lat="0" lon="0">
        <time>2020-12-20T09:53:41.767000+00:00</time>
      </trkpt>
      <trkpt lat="47.34288" lon="-1.30059">
        <ele>51</ele>
        <time>2020-12-20T09:53:42.778000+00:00</time>
      </trkpt>
      <trkpt lat="0" lon="0">
        <time>2020-12-20T09:53:42.811000+00:00</time>
      </trkpt>
      <trkpt lat="0" lon="0">
        <time>2020-12-20T09:53:42.814000+00:00</time>
      </trkpt>
      <trkpt lat="0" lon="0">
        <time>2020-12-20T09:53:42.815000+00:00</time>
      </trkpt>
      <trkpt lat="47.3429" lon="-1.30064">
        <ele>51</ele>
        <time>2020-12-20T09:53:43.721000+00:00</time>
      </trkpt>
      <trkpt lat="0" lon="0">
        <time>2020-12-20T09:53:43.728000+00:00</time>
      </trkpt>
      <trkpt lat="0" lon="0">
        <time>2020-12-20T09:53:43.736000+00:00</time>
      </trkpt>
      <trkpt lat="0" lon="0">
        <time>2020-12-20T09:53:43.737000+00:00</time>
      </trkpt>
      <trkpt lat="47.34292" lon="-1.30068">
        <ele>51</ele>
        <time>2020-12-20T09:53:44.748000+00:00</time>
      </trkpt>
      <trkpt lat="0" lon="0">
        <time>2020-12-20T09:53:44.762000+00:00</time>
      </trkpt>
      <trkpt lat="0" lon="0">
        <time>2020-12-20T09:53:44.771000+00:00</time>
      </trkpt>
      <trkpt lat="0" lon="0">
        <time>2020-12-20T09:53:44.775000+00:00</time>
      </trkpt>
      <trkpt lat="47.34294" lon="-1.30072">
        <ele>52</ele>
        <time>2020-12-20T09:53:45.733000+00:00</time>
      </trkpt>
      <trkpt lat="0" lon="0">
        <time>2020-12-20T09:53:45.740000+00:00</time>
      </trkpt>
      <trkpt lat="0" lon="0">
        <time>2020-12-20T09:53:45.746000+00:00</time>
      </trkpt>
      <trkpt lat="0" lon="0">
        <time>2020-12-20T09:53:45.749000+00:00</time>
      </trkpt>
      <trkpt lat="47.34296" lon="-1.30077">
        <ele>52</ele>
        <time>2020-12-20T09:53:46.740000+00:00</time>
      </trkpt>
      <trkpt lat="0" lon="0">
        <time>2020-12-20T09:53:46.751000+00:00</time>
      </trkpt>
      <trkpt lat="0" lon="0">
        <time>2020-12-20T09:53:46.761000+00:00</time>
      </trkpt>
      <trkpt lat="0" lon="0">
        <time>2020-12-20T09:53:46.763000+00:00</time>
      </trkpt>
      <trkpt lat="47.34299" lon="-1.30081">
        <ele>52</ele>
        <time>2020-12-20T09:53:47.744000+00:00</time>
      </trkpt>
      <trkpt lat="0" lon="0">
        <time>2020-12-20T09:53:47.765000+00:00</time>
      </trkpt>
      <trkpt lat="0" lon="0">
        <time>2020-12-20T09:53:47.768000+00:00</time>
      </trkpt>
      <trkpt lat="0" lon="0">
        <time>2020-12-20T09:53:47.771000+00:00</time>
      </trkpt>
      <trkpt lat="47.34301" lon="-1.30085">
        <ele>52</ele>
        <time>2020-12-20T09:53:48.761000+00:00</time>
      </trkpt>
      <trkpt lat="0" lon="0">
        <time>2020-12-20T09:53:48.770000+00:00</time>
      </trkpt>
      <trkpt lat="0" lon="0">
        <time>2020-12-20T09:53:48.774000+00:00</time>
      </trkpt>
      <trkpt lat="0" lon="0">
        <time>2020-12-20T09:53:48.777000+00:00</time>
      </trkpt>
      <trkpt lat="47.34303" lon="-1.30088">
        <ele>52</ele>
        <time>2020-12-20T09:53:49.759000+00:00</time>
      </trkpt>
      <trkpt lat="0" lon="0">
        <time>2020-12-20T09:53:49.778000+00:00</time>
      </trkpt>
      <trkpt lat="0" lon="0">
        <time>2020-12-20T09:53:49.782000+00:00</time>
      </trkpt>
      <trkpt lat="0" lon="0">
        <time>2020-12-20T09:53:49.784000+00:00</time>
      </trkpt>
      <trkpt lat="47.34305" lon="-1.30091">
        <ele>52</ele>
        <time>2020-12-20T09:53:50.741000+00:00</time>
      </trkpt>
      <trkpt lat="0" lon="0">
        <time>2020-12-20T09:53:50.747000+00:00</time>
      </trkpt>
      <trkpt lat="0" lon="0">
        <time>2020-12-20T09:53:50.749000+00:00</time>
      </trkpt>
      <trkpt lat="0" lon="0">
        <time>2020-12-20T09:53:50.750000+00:00</time>
      </trkpt>
      <trkpt lat="47.34307" lon="-1.30094">
        <ele>52</ele>
        <time>2020-12-20T09:53:51.747000+00:00</time>
      </trkpt>
      <trkpt lat="0" lon="0">
        <time>2020-12-20T09:53:51.759000+00:00</time>
      </trkpt>
      <trkpt lat="0" lon="0">
        <time>2020-12-20T09:53:51.765000+00:00</time>
      </trkpt>
      <trkpt lat="0" lon="0">
        <time>2020-12-20T09:53:51.770000+00:00</time>
      </trkpt>
      <trkpt lat="47.3431" lon="-1.30097">
        <ele>52</ele>
        <time>2020-12-20T09:53:52.770000+00:00</time>
      </trkpt>
      <trkpt lat="0" lon="0">
        <time>2020-12-20T09:53:52.781000+00:00</time>
      </trkpt>
      <trkpt lat="0" lon="0">
        <time>2020-12-20T09:53:52.785000+00:00</time>
      </trkpt>
      <trkpt lat="0" lon="0">
        <time>2020-12-20T09:53:52.787000+00:00</time>
      </trkpt>
      <trkpt lat="47.34313" lon="-1.301">
        <ele>53</ele>
        <time>2020-12-20T09:53:53.689000+00:00</time>
      </trkpt>
      <trkpt lat="0" lon="0">
        <time>2020-12-20T09:53:53.700000+00:00</time>
      </trkpt>
      <trkpt lat="0" lon="0">
        <time>2020-12-20T09:53:53.704000+00:00</time>
      </trkpt>
      <trkpt lat="0" lon="0">
        <time>2020-12-20T09:53:53.707000+00:00</time>
      </trkpt>
      <trkpt lat="47.34316" lon="-1.30102">
        <ele>53</ele>
        <time>2020-12-20T09:53:54.767000+00:00</time>
      </trkpt>
      <trkpt lat="0" lon="0">
        <time>2020-12-20T09:53:54.776000+00:00</time>
      </trkpt>
      <trkpt lat="0" lon="0">
        <time>2020-12-20T09:53:54.790000+00:00</time>
      </trkpt>
      <trkpt lat="0" lon="0">
        <time>2020-12-20T09:53:54.793000+00:00</time>
      </trkpt>
      <trkpt lat="47.34319" lon="-1.30103">
        <ele>53</ele>
        <time>2020-12-20T09:53:55.773000+00:00</time>
      </trkpt>
      <trkpt lat="0" lon="0">
        <time>2020-12-20T09:53:55.778000+00:00</time>
      </trkpt>
      <trkpt lat="0" lon="0">
        <time>2020-12-20T09:53:55.784000+00:00</time>
      </trkpt>
      <trkpt lat="0" lon="0">
        <time>2020-12-20T09:53:55.789000+00:00</time>
      </trkpt>
      <trkpt lat="47.34323" lon="-1.30105">
        <ele>52</ele>
        <time>2020-12-20T09:53:56.746000+00:00</time>
      </trkpt>
      <trkpt lat="0" lon="0">
        <time>2020-12-20T09:53:56.757000+00:00</time>
      </trkpt>
      <trkpt lat="0" lon="0">
        <time>2020-12-20T09:53:56.766000+00:00</time>
      </trkpt>
      <trkpt lat="0" lon="0">
        <time>2020-12-20T09:53:56.771000+00:00</time>
      </trkpt>
      <trkpt lat="47.34326" lon="-1.30106">
        <ele>53</ele>
        <time>2020-12-20T09:53:57.756000+00:00</time>
      </trkpt>
      <trkpt lat="0" lon="0">
        <time>2020-12-20T09:53:57.766000+00:00</time>
      </trkpt>
      <trkpt lat="0" lon="0">
        <time>2020-12-20T09:53:57.774000+00:00</time>
      </trkpt>
      <trkpt lat="0" lon="0">
        <time>2020-12-20T09:53:57.780000+00:00</time>
      </trkpt>
      <trkpt lat="47.3433" lon="-1.30107">
        <ele>53</ele>
        <time>2020-12-20T09:53:58.744000+00:00</time>
      </trkpt>
      <trkpt lat="0" lon="0">
        <time>2020-12-20T09:53:58.752000+00:00</time>
      </trkpt>
      <trkpt lat="0" lon="0">
        <time>2020-12-20T09:53:58.756000+00:00</time>
      </trkpt>
      <trkpt lat="0" lon="0">
        <time>2020-12-20T09:53:58.767000+00:00</time>
      </trkpt>
      <trkpt lat="47.34334" lon="-1.30108">
        <ele>53</ele>
        <time>2020-12-20T09:53:59.734000+00:00</time>
      </trkpt>
      <trkpt lat="0" lon="0">
        <time>2020-12-20T09:53:59.743000+00:00</time>
      </trkpt>
      <trkpt lat="0" lon="0">
        <time>2020-12-20T09:53:59.747000+00:00</time>
      </trkpt>
      <trkpt lat="0" lon="0">
        <time>2020-12-20T09:53:59.750000+00:00</time>
      </trkpt>
      <trkpt lat="47.34338" lon="-1.30109">
        <ele>53</ele>
        <time>2020-12-20T09:54:00.744000+00:00</time>
      </trkpt>
      <trkpt lat="0" lon="0">
        <time>2020-12-20T09:54:00.749000+00:00</time>
      </trkpt>
      <trkpt lat="0" lon="0">
        <time>2020-12-20T09:54:00.756000+00:00</time>
      </trkpt>
      <trkpt lat="0" lon="0">
        <time>2020-12-20T09:54:00.758000+00:00</time>
      </trkpt>
      <trkpt lat="47.34342" lon="-1.3011">
        <ele>53</ele>
        <time>2020-12-20T09:54:01.732000+00:00</time>
      </trkpt>
      <trkpt lat="0" lon="0">
        <time>2020-12-20T09:54:01.739000+00:00</time>
      </trkpt>
      <trkpt lat="0" lon="0">
        <time>2020-12-20T09:54:01.743000+00:00</time>
      </trkpt>
      <trkpt lat="0" lon="0">
        <time>2020-12-20T09:54:01.745000+00:00</time>
      </trkpt>
      <trkpt lat="47.34346" lon="-1.30112">
        <ele>53</ele>
        <time>2020-12-20T09:54:02.743000+00:00</time>
      </trkpt>
      <trkpt lat="0" lon="0">
        <time>2020-12-20T09:54:02.750000+00:00</time>
      </trkpt>
      <trkpt lat="0" lon="0">
        <time>2020-12-20T09:54:02.762000+00:00</time>
      </trkpt>
      <trkpt lat="0" lon="0">
        <time>2020-12-20T09:54:02.764000+00:00</time>
      </trkpt>
      <trkpt lat="47.34349" lon="-1.30113">
        <ele>53</ele>
        <time>2020-12-20T09:54:03.720000+00:00</time>
      </trkpt>
      <trkpt lat="0" lon="0">
        <time>2020-12-20T09:54:03.740000+00:00</time>
      </trkpt>
      <trkpt lat="0" lon="0">
        <time>2020-12-20T09:54:03.751000+00:00</time>
      </trkpt>
      <trkpt lat="0" lon="0">
        <time>2020-12-20T09:54:03.753000+00:00</time>
      </trkpt>
      <trkpt lat="47.34352" lon="-1.30115">
        <ele>53</ele>
        <time>2020-12-20T09:54:04.730000+00:00</time>
      </trkpt>
      <trkpt lat="0" lon="0">
        <time>2020-12-20T09:54:04.736000+00:00</time>
      </trkpt>
      <trkpt lat="0" lon="0">
        <time>2020-12-20T09:54:04.743000+00:00</time>
      </trkpt>
      <trkpt lat="0" lon="0">
        <time>2020-12-20T09:54:04.746000+00:00</time>
      </trkpt>
      <trkpt lat="47.34354" lon="-1.30117">
        <ele>53</ele>
        <time>2020-12-20T09:54:05.742000+00:00</time>
      </trkpt>
      <trkpt lat="0" lon="0">
        <time>2020-12-20T09:54:05.751000+00:00</time>
      </trkpt>
      <trkpt lat="0" lon="0">
        <time>2020-12-20T09:54:05.758000+00:00</time>
      </trkpt>
      <trkpt lat="0" lon="0">
        <time>2020-12-20T09:54:05.760000+00:00</time>
      </trkpt>
      <trkpt lat="47.34356" lon="-1.30119">
        <ele>53</ele>
        <time>2020-12-20T09:54:06.739000+00:00</time>
      </trkpt>
      <trkpt lat="0" lon="0">
        <time>2020-12-20T09:54:06.753000+00:00</time>
      </trkpt>
      <trkpt lat="0" lon="0">
        <time>2020-12-20T09:54:06.758000+00:00</time>
      </trkpt>
      <trkpt lat="0" lon="0">
        <time>2020-12-20T09:54:06.761000+00:00</time>
      </trkpt>
      <trkpt lat="47.34358" lon="-1.30121">
        <ele>53</ele>
        <time>2020-12-20T09:54:07.773000+00:00</time>
      </trkpt>
      <trkpt lat="0" lon="0">
        <time>2020-12-20T09:54:07.775000+00:00</time>
      </trkpt>
      <trkpt lat="0" lon="0">
        <time>2020-12-20T09:54:07.779000+00:00</time>
      </trkpt>
      <trkpt lat="0" lon="0">
        <time>2020-12-20T09:54:07.780000+00:00</time>
      </trkpt>
      <trkpt lat="47.3436" lon="-1.30123">
        <ele>53</ele>
        <time>2020-12-20T09:54:08.756000+00:00</time>
      </trkpt>
      <trkpt lat="0" lon="0">
        <time>2020-12-20T09:54:08.762000+00:00</time>
      </trkpt>
      <trkpt lat="0" lon="0">
        <time>2020-12-20T09:54:08.768000+00:00</time>
      </trkpt>
      <trkpt lat="0" lon="0">
        <time>2020-12-20T09:54:08.772000+00:00</time>
      </trkpt>
      <trkpt lat="47.34361" lon="-1.30125">
        <ele>53</ele>
        <time>2020-12-20T09:54:09.756000+00:00</time>
      </trkpt>
      <trkpt lat="0" lon="0">
        <time>2020-12-20T09:54:09.764000+00:00</time>
      </trkpt>
      <trkpt lat="0" lon="0">
        <time>2020-12-20T09:54:09.769000+00:00</time>
      </trkpt>
      <trkpt lat="0" lon="0">
        <time>2020-12-20T09:54:09.775000+00:00</time>
      </trkpt>
      <trkpt lat="47.34363" lon="-1.30127">
        <ele>53</ele>
        <time>2020-12-20T09:54:10.749000+00:00</time>
      </trkpt>
      <trkpt lat="0" lon="0">
        <time>2020-12-20T09:54:10.762000+00:00</time>
      </trkpt>
      <trkpt lat="0" lon="0">
        <time>2020-12-20T09:54:10.768000+00:00</time>
      </trkpt>
      <trkpt lat="0" lon="0">
        <time>2020-12-20T09:54:10.770000+00:00</time>
      </trkpt>
      <trkpt lat="47.34365" lon="-1.3013">
        <ele>53</ele>
        <time>2020-12-20T09:54:11.768000+00:00</time>
      </trkpt>
      <trkpt lat="0" lon="0">
        <time>2020-12-20T09:54:11.784000+00:00</time>
      </trkpt>
      <trkpt lat="0" lon="0">
        <time>2020-12-20T09:54:11.792000+00:00</time>
      </trkpt>
      <trkpt lat="0" lon="0">
        <time>2020-12-20T09:54:11.794000+00:00</time>
      </trkpt>
      <trkpt lat="47.34367" lon="-1.30132">
        <ele>53</ele>
        <time>2020-12-20T09:54:12.742000+00:00</time>
      </trkpt>
      <trkpt lat="0" lon="0">
        <time>2020-12-20T09:54:12.764000+00:00</time>
      </trkpt>
      <trkpt lat="0" lon="0">
        <time>2020-12-20T09:54:12.773000+00:00</time>
      </trkpt>
      <trkpt lat="0" lon="0">
        <time>2020-12-20T09:54:12.775000+00:00</time>
      </trkpt>
      <trkpt lat="47.3437" lon="-1.30135">
        <ele>53</ele>
        <time>2020-12-20T09:54:13.736000+00:00</time>
      </trkpt>
      <trkpt lat="0" lon="0">
        <time>2020-12-20T09:54:13.763000+00:00</time>
      </trkpt>
      <trkpt lat="0" lon="0">
        <time>2020-12-20T09:54:13.769000+00:00</time>
      </trkpt>
      <trkpt lat="0" lon="0">
        <time>2020-12-20T09:54:13.771000+00:00</time>
      </trkpt>
      <trkpt lat="47.34373" lon="-1.30138">
        <ele>54</ele>
        <time>2020-12-20T09:54:14.768000+00:00</time>
      </trkpt>
      <trkpt lat="0" lon="0">
        <time>2020-12-20T09:54:14.781000+00:00</time>
      </trkpt>
      <trkpt lat="0" lon="0">
        <time>2020-12-20T09:54:14.789000+00:00</time>
      </trkpt>
      <trkpt lat="0" lon="0">
        <time>2020-12-20T09:54:14.792000+00:00</time>
      </trkpt>
      <trkpt lat="47.34376" lon="-1.30141">
        <ele>54</ele>
        <time>2020-12-20T09:54:15.727000+00:00</time>
      </trkpt>
      <trkpt lat="0" lon="0">
        <time>2020-12-20T09:54:15.731000+00:00</time>
      </trkpt>
      <trkpt lat="0" lon="0">
        <time>2020-12-20T09:54:15.740000+00:00</time>
      </trkpt>
      <trkpt lat="0" lon="0">
        <time>2020-12-20T09:54:15.750000+00:00</time>
      </trkpt>
      <trkpt lat="47.34379" lon="-1.30144">
        <ele>54</ele>
        <time>2020-12-20T09:54:16.769000+00:00</time>
      </trkpt>
      <trkpt lat="0" lon="0">
        <time>2020-12-20T09:54:16.788000+00:00</time>
      </trkpt>
      <trkpt lat="0" lon="0">
        <time>2020-12-20T09:54:16.793000+00:00</time>
      </trkpt>
      <trkpt lat="0" lon="0">
        <time>2020-12-20T09:54:16.795000+00:00</time>
      </trkpt>
      <trkpt lat="47.34382" lon="-1.30147">
        <ele>54</ele>
        <time>2020-12-20T09:54:17.754000+00:00</time>
      </trkpt>
      <trkpt lat="0" lon="0">
        <time>2020-12-20T09:54:17.758000+00:00</time>
      </trkpt>
      <trkpt lat="0" lon="0">
        <time>2020-12-20T09:54:17.761000+00:00</time>
      </trkpt>
      <trkpt lat="0" lon="0">
        <time>2020-12-20T09:54:17.762000+00:00</time>
      </trkpt>
      <trkpt lat="47.34385" lon="-1.30149">
        <ele>54</ele>
        <time>2020-12-20T09:54:18.753000+00:00</time>
      </trkpt>
      <trkpt lat="0" lon="0">
        <time>2020-12-20T09:54:18.759000+00:00</time>
      </trkpt>
      <trkpt lat="0" lon="0">
        <time>2020-12-20T09:54:18.761000+00:00</time>
      </trkpt>
      <trkpt lat="47.34388" lon="-1.30152">
        <ele>54</ele>
        <time>2020-12-20T09:54:19.751000+00:00</time>
      </trkpt>
      <trkpt lat="0" lon="0">
        <time>2020-12-20T09:54:19.758000+00:00</time>
      </trkpt>
      <trkpt lat="0" lon="0">
        <time>2020-12-20T09:54:19.769000+00:00</time>
      </trkpt>
      <trkpt lat="0" lon="0">
        <time>2020-12-20T09:54:19.771000+00:00</time>
      </trkpt>
      <trkpt lat="47.34392" lon="-1.30154">
        <ele>54</ele>
        <time>2020-12-20T09:54:20.754000+00:00</time>
      </trkpt>
      <trkpt lat="0" lon="0">
        <time>2020-12-20T09:54:20.766000+00:00</time>
      </trkpt>
      <trkpt lat="0" lon="0">
        <time>2020-12-20T09:54:20.773000+00:00</time>
      </trkpt>
      <trkpt lat="0" lon="0">
        <time>2020-12-20T09:54:20.777000+00:00</time>
      </trkpt>
      <trkpt lat="47.34395" lon="-1.30157">
        <ele>55</ele>
        <time>2020-12-20T09:54:21.736000+00:00</time>
      </trkpt>
      <trkpt lat="0" lon="0">
        <time>2020-12-20T09:54:21.744000+00:00</time>
      </trkpt>
      <trkpt lat="0" lon="0">
        <time>2020-12-20T09:54:21.745000+00:00</time>
      </trkpt>
      <trkpt lat="0" lon="0">
        <time>2020-12-20T09:54:21.746000+00:00</time>
      </trkpt>
      <trkpt lat="47.34399" lon="-1.3016">
        <ele>54</ele>
        <time>2020-12-20T09:54:22.757000+00:00</time>
      </trkpt>
      <trkpt lat="0" lon="0">
        <time>2020-12-20T09:54:22.771000+00:00</time>
      </trkpt>
      <trkpt lat="0" lon="0">
        <time>2020-12-20T09:54:22.780000+00:00</time>
      </trkpt>
      <trkpt lat="0" lon="0">
        <time>2020-12-20T09:54:22.783000+00:00</time>
      </trkpt>
      <trkpt lat="47.34402" lon="-1.30162">
        <ele>55</ele>
        <time>2020-12-20T09:54:23.747000+00:00</time>
      </trkpt>
      <trkpt lat="0" lon="0">
        <time>2020-12-20T09:54:23.753000+00:00</time>
      </trkpt>
      <trkpt lat="0" lon="0">
        <time>2020-12-20T09:54:23.764000+00:00</time>
      </trkpt>
      <trkpt lat="0" lon="0">
        <time>2020-12-20T09:54:23.766000+00:00</time>
      </trkpt>
      <trkpt lat="47.34406" lon="-1.30165">
        <ele>54</ele>
        <time>2020-12-20T09:54:24.731000+00:00</time>
      </trkpt>
      <trkpt lat="0" lon="0">
        <time>2020-12-20T09:54:24.753000+00:00</time>
      </trkpt>
      <trkpt lat="0" lon="0">
        <time>2020-12-20T09:54:24.758000+00:00</time>
      </trkpt>
      <trkpt lat="0" lon="0">
        <time>2020-12-20T09:54:24.761000+00:00</time>
      </trkpt>
      <trkpt lat="47.34409" lon="-1.30168">
        <ele>54</ele>
        <time>2020-12-20T09:54:25.774000+00:00</time>
      </trkpt>
      <trkpt lat="0" lon="0">
        <time>2020-12-20T09:54:25.779000+00:00</time>
      </trkpt>
      <trkpt lat="0" lon="0">
        <time>2020-12-20T09:54:25.785000+00:00</time>
      </trkpt>
      <trkpt lat="0" lon="0">
        <time>2020-12-20T09:54:25.788000+00:00</time>
      </trkpt>
      <trkpt lat="47.34413" lon="-1.30171">
        <ele>55</ele>
        <time>2020-12-20T09:54:26.774000+00:00</time>
      </trkpt>
      <trkpt lat="0" lon="0">
        <time>2020-12-20T09:54:26.783000+00:00</time>
      </trkpt>
      <trkpt lat="0" lon="0">
        <time>2020-12-20T09:54:26.787000+00:00</time>
      </trkpt>
      <trkpt lat="0" lon="0">
        <time>2020-12-20T09:54:26.791000+00:00</time>
      </trkpt>
      <trkpt lat="47.34417" lon="-1.30173">
        <ele>55</ele>
        <time>2020-12-20T09:54:27.743000+00:00</time>
      </trkpt>
      <trkpt lat="0" lon="0">
        <time>2020-12-20T09:54:27.766000+00:00</time>
      </trkpt>
      <trkpt lat="0" lon="0">
        <time>2020-12-20T09:54:27.770000+00:00</time>
      </trkpt>
      <trkpt lat="0" lon="0">
        <time>2020-12-20T09:54:27.773000+00:00</time>
      </trkpt>
      <trkpt lat="47.34421" lon="-1.30176">
        <ele>55</ele>
        <time>2020-12-20T09:54:28.760000+00:00</time>
      </trkpt>
      <trkpt lat="0" lon="0">
        <time>2020-12-20T09:54:28.773000+00:00</time>
      </trkpt>
      <trkpt lat="0" lon="0">
        <time>2020-12-20T09:54:28.778000+00:00</time>
      </trkpt>
      <trkpt lat="0" lon="0">
        <time>2020-12-20T09:54:28.782000+00:00</time>
      </trkpt>
      <trkpt lat="47.34425" lon="-1.30179">
        <ele>55</ele>
        <time>2020-12-20T09:54:29.758000+00:00</time>
      </trkpt>
      <trkpt lat="0" lon="0">
        <time>2020-12-20T09:54:29.770000+00:00</time>
      </trkpt>
      <trkpt lat="0" lon="0">
        <time>2020-12-20T09:54:29.778000+00:00</time>
      </trkpt>
      <trkpt lat="0" lon="0">
        <time>2020-12-20T09:54:29.780000+00:00</time>
      </trkpt>
      <trkpt lat="47.3443" lon="-1.30181">
        <ele>55</ele>
        <time>2020-12-20T09:54:30.747000+00:00</time>
      </trkpt>
      <trkpt lat="0" lon="0">
        <time>2020-12-20T09:54:30.763000+00:00</time>
      </trkpt>
      <trkpt lat="0" lon="0">
        <time>2020-12-20T09:54:30.768000+00:00</time>
      </trkpt>
      <trkpt lat="0" lon="0">
        <time>2020-12-20T09:54:30.770000+00:00</time>
      </trkpt>
      <trkpt lat="47.34434" lon="-1.30184">
        <ele>54</ele>
        <time>2020-12-20T09:54:31.736000+00:00</time>
      </trkpt>
      <trkpt lat="0" lon="0">
        <time>2020-12-20T09:54:31.739000+00:00</time>
      </trkpt>
      <trkpt lat="0" lon="0">
        <time>2020-12-20T09:54:31.758000+00:00</time>
      </trkpt>
      <trkpt lat="0" lon="0">
        <time>2020-12-20T09:54:31.773000+00:00</time>
      </trkpt>
      <trkpt lat="47.34438" lon="-1.30186">
        <ele>54</ele>
        <time>2020-12-20T09:54:32.755000+00:00</time>
      </trkpt>
      <trkpt lat="0" lon="0">
        <time>2020-12-20T09:54:32.773000+00:00</time>
      </trkpt>
      <trkpt lat="0" lon="0">
        <time>2020-12-20T09:54:32.781000+00:00</time>
      </trkpt>
      <trkpt lat="0" lon="0">
        <time>2020-12-20T09:54:32.784000+00:00</time>
      </trkpt>
      <trkpt lat="47.34442" lon="-1.30189">
        <ele>54</ele>
        <time>2020-12-20T09:54:33.763000+00:00</time>
      </trkpt>
      <trkpt lat="0" lon="0">
        <time>2020-12-20T09:54:33.768000+00:00</time>
      </trkpt>
      <trkpt lat="0" lon="0">
        <time>2020-12-20T09:54:33.772000+00:00</time>
      </trkpt>
      <trkpt lat="0" lon="0">
        <time>2020-12-20T09:54:33.774000+00:00</time>
      </trkpt>
      <trkpt lat="47.34446" lon="-1.30191">
        <ele>54</ele>
        <time>2020-12-20T09:54:34.760000+00:00</time>
      </trkpt>
      <trkpt lat="0" lon="0">
        <time>2020-12-20T09:54:34.770000+00:00</time>
      </trkpt>
      <trkpt lat="0" lon="0">
        <time>2020-12-20T09:54:34.776000+00:00</time>
      </trkpt>
      <trkpt lat="0" lon="0">
        <time>2020-12-20T09:54:34.777000+00:00</time>
      </trkpt>
      <trkpt lat="47.3445" lon="-1.30193">
        <ele>54</ele>
        <time>2020-12-20T09:54:35.764000+00:00</time>
      </trkpt>
      <trkpt lat="0" lon="0">
        <time>2020-12-20T09:54:35.769000+00:00</time>
      </trkpt>
      <trkpt lat="0" lon="0">
        <time>2020-12-20T09:54:35.775000+00:00</time>
      </trkpt>
      <trkpt lat="0" lon="0">
        <time>2020-12-20T09:54:35.777000+00:00</time>
      </trkpt>
      <trkpt lat="47.34454" lon="-1.30195">
        <ele>54</ele>
        <time>2020-12-20T09:54:36.733000+00:00</time>
      </trkpt>
      <trkpt lat="0" lon="0">
        <time>2020-12-20T09:54:36.737000+00:00</time>
      </trkpt>
      <trkpt lat="0" lon="0">
        <time>2020-12-20T09:54:36.743000+00:00</time>
      </trkpt>
      <trkpt lat="0" lon="0">
        <time>2020-12-20T09:54:36.746000+00:00</time>
      </trkpt>
      <trkpt lat="47.34458" lon="-1.30197">
        <ele>54</ele>
        <time>2020-12-20T09:54:37.772000+00:00</time>
      </trkpt>
      <trkpt lat="0" lon="0">
        <time>2020-12-20T09:54:37.779000+00:00</time>
      </trkpt>
      <trkpt lat="0" lon="0">
        <time>2020-12-20T09:54:37.784000+00:00</time>
      </trkpt>
      <trkpt lat="0" lon="0">
        <time>2020-12-20T09:54:37.786000+00:00</time>
      </trkpt>
      <trkpt lat="47.34461" lon="-1.30198">
        <ele>54</ele>
        <time>2020-12-20T09:54:38.721000+00:00</time>
      </trkpt>
      <trkpt lat="0" lon="0">
        <time>2020-12-20T09:54:38.741000+00:00</time>
      </trkpt>
      <trkpt lat="0" lon="0">
        <time>2020-12-20T09:54:38.745000+00:00</time>
      </trkpt>
      <trkpt lat="0" lon="0">
        <time>2020-12-20T09:54:38.747000+00:00</time>
      </trkpt>
      <trkpt lat="47.34464" lon="-1.30199">
        <ele>54</ele>
        <time>2020-12-20T09:54:39.749000+00:00</time>
      </trkpt>
      <trkpt lat="0" lon="0">
        <time>2020-12-20T09:54:39.758000+00:00</time>
      </trkpt>
      <trkpt lat="0" lon="0">
        <time>2020-12-20T09:54:39.766000+00:00</time>
      </trkpt>
      <trkpt lat="0" lon="0">
        <time>2020-12-20T09:54:39.772000+00:00</time>
      </trkpt>
      <trkpt lat="47.34468" lon="-1.302">
        <ele>54</ele>
        <time>2020-12-20T09:54:40.745000+00:00</time>
      </trkpt>
      <trkpt lat="0" lon="0">
        <time>2020-12-20T09:54:40.756000+00:00</time>
      </trkpt>
      <trkpt lat="0" lon="0">
        <time>2020-12-20T09:54:40.761000+00:00</time>
      </trkpt>
      <trkpt lat="0" lon="0">
        <time>2020-12-20T09:54:40.764000+00:00</time>
      </trkpt>
      <trkpt lat="47.34471" lon="-1.30201">
        <ele>54</ele>
        <time>2020-12-20T09:54:41.722000+00:00</time>
      </trkpt>
      <trkpt lat="0" lon="0">
        <time>2020-12-20T09:54:41.726000+00:00</time>
      </trkpt>
      <trkpt lat="0" lon="0">
        <time>2020-12-20T09:54:41.731000+00:00</time>
      </trkpt>
      <trkpt lat="0" lon="0">
        <time>2020-12-20T09:54:41.733000+00:00</time>
      </trkpt>
      <trkpt lat="47.34474" lon="-1.30201">
        <ele>55</ele>
        <time>2020-12-20T09:54:42.752000+00:00</time>
      </trkpt>
      <trkpt lat="0" lon="0">
        <time>2020-12-20T09:54:42.765000+00:00</time>
      </trkpt>
      <trkpt lat="0" lon="0">
        <time>2020-12-20T09:54:42.774000+00:00</time>
      </trkpt>
      <trkpt lat="0" lon="0">
        <time>2020-12-20T09:54:42.776000+00:00</time>
      </trkpt>
      <trkpt lat="47.34477" lon="-1.30202">
        <ele>55</ele>
        <time>2020-12-20T09:54:43.738000+00:00</time>
      </trkpt>
      <trkpt lat="0" lon="0">
        <time>2020-12-20T09:54:43.754000+00:00</time>
      </trkpt>
      <trkpt lat="0" lon="0">
        <time>2020-12-20T09:54:43.773000+00:00</time>
      </trkpt>
      <trkpt lat="0" lon="0">
        <time>2020-12-20T09:54:43.774000+00:00</time>
      </trkpt>
      <trkpt lat="47.3448" lon="-1.30202">
        <ele>55</ele>
        <time>2020-12-20T09:54:44.723000+00:00</time>
      </trkpt>
      <trkpt lat="0" lon="0">
        <time>2020-12-20T09:54:44.735000+00:00</time>
      </trkpt>
      <trkpt lat="0" lon="0">
        <time>2020-12-20T09:54:44.739000+00:00</time>
      </trkpt>
      <trkpt lat="0" lon="0">
        <time>2020-12-20T09:54:44.742000+00:00</time>
      </trkpt>
      <trkpt lat="47.34482" lon="-1.30202">
        <ele>55</ele>
        <time>2020-12-20T09:54:45.741000+00:00</time>
      </trkpt>
      <trkpt lat="0" lon="0">
        <time>2020-12-20T09:54:45.752000+00:00</time>
      </trkpt>
      <trkpt lat="0" lon="0">
        <time>2020-12-20T09:54:45.756000+00:00</time>
      </trkpt>
      <trkpt lat="0" lon="0">
        <time>2020-12-20T09:54:45.759000+00:00</time>
      </trkpt>
      <trkpt lat="47.34485" lon="-1.30203">
        <ele>55</ele>
        <time>2020-12-20T09:54:46.722000+00:00</time>
      </trkpt>
      <trkpt lat="0" lon="0">
        <time>2020-12-20T09:54:46.734000+00:00</time>
      </trkpt>
      <trkpt lat="0" lon="0">
        <time>2020-12-20T09:54:46.738000+00:00</time>
      </trkpt>
      <trkpt lat="0" lon="0">
        <time>2020-12-20T09:54:46.741000+00:00</time>
      </trkpt>
      <trkpt lat="47.34488" lon="-1.30203">
        <ele>55</ele>
        <time>2020-12-20T09:54:47.740000+00:00</time>
      </trkpt>
      <trkpt lat="0" lon="0">
        <time>2020-12-20T09:54:47.755000+00:00</time>
      </trkpt>
      <trkpt lat="0" lon="0">
        <time>2020-12-20T09:54:47.761000+00:00</time>
      </trkpt>
      <trkpt lat="0" lon="0">
        <time>2020-12-20T09:54:47.763000+00:00</time>
      </trkpt>
      <trkpt lat="47.3449" lon="-1.30204">
        <ele>55</ele>
        <time>2020-12-20T09:54:48.729000+00:00</time>
      </trkpt>
      <trkpt lat="0" lon="0">
        <time>2020-12-20T09:54:48.739000+00:00</time>
      </trkpt>
      <trkpt lat="0" lon="0">
        <time>2020-12-20T09:54:48.743000+00:00</time>
      </trkpt>
      <trkpt lat="0" lon="0">
        <time>2020-12-20T09:54:48.747000+00:00</time>
      </trkpt>
      <trkpt lat="47.34493" lon="-1.30204">
        <ele>55</ele>
        <time>2020-12-20T09:54:49.709000+00:00</time>
      </trkpt>
      <trkpt lat="0" lon="0">
        <time>2020-12-20T09:54:49.731000+00:00</time>
      </trkpt>
      <trkpt lat="0" lon="0">
        <time>2020-12-20T09:54:49.740000+00:00</time>
      </trkpt>
      <trkpt lat="0" lon="0">
        <time>2020-12-20T09:54:49.742000+00:00</time>
      </trkpt>
      <trkpt lat="47.34496" lon="-1.30204">
        <ele>55</ele>
        <time>2020-12-20T09:54:50.715000+00:00</time>
      </trkpt>
      <trkpt lat="0" lon="0">
        <time>2020-12-20T09:54:50.723000+00:00</time>
      </trkpt>
      <trkpt lat="0" lon="0">
        <time>2020-12-20T09:54:50.729000+00:00</time>
      </trkpt>
      <trkpt lat="0" lon="0">
        <time>2020-12-20T09:54:50.732000+00:00</time>
      </trkpt>
      <trkpt lat="47.34498" lon="-1.30204">
        <ele>55</ele>
        <time>2020-12-20T09:54:51.696000+00:00</time>
      </trkpt>
      <trkpt lat="0" lon="0">
        <time>2020-12-20T09:54:51.704000+00:00</time>
      </trkpt>
      <trkpt lat="0" lon="0">
        <time>2020-12-20T09:54:51.726000+00:00</time>
      </trkpt>
      <trkpt lat="0" lon="0">
        <time>2020-12-20T09:54:51.729000+00:00</time>
      </trkpt>
      <trkpt lat="47.34501" lon="-1.30204">
        <ele>55</ele>
        <time>2020-12-20T09:54:52.743000+00:00</time>
      </trkpt>
      <trkpt lat="0" lon="0">
        <time>2020-12-20T09:54:52.753000+00:00</time>
      </trkpt>
      <trkpt lat="0" lon="0">
        <time>2020-12-20T09:54:52.761000+00:00</time>
      </trkpt>
      <trkpt lat="0" lon="0">
        <time>2020-12-20T09:54:52.763000+00:00</time>
      </trkpt>
      <trkpt lat="47.34503" lon="-1.30204">
        <ele>55</ele>
        <time>2020-12-20T09:54:53.719000+00:00</time>
      </trkpt>
      <trkpt lat="0" lon="0">
        <time>2020-12-20T09:54:53.732000+00:00</time>
      </trkpt>
      <trkpt lat="0" lon="0">
        <time>2020-12-20T09:54:53.737000+00:00</time>
      </trkpt>
      <trkpt lat="0" lon="0">
        <time>2020-12-20T09:54:53.739000+00:00</time>
      </trkpt>
      <trkpt lat="47.34505" lon="-1.30205">
        <ele>55</ele>
        <time>2020-12-20T09:54:54.721000+00:00</time>
      </trkpt>
      <trkpt lat="0" lon="0">
        <time>2020-12-20T09:54:54.739000+00:00</time>
      </trkpt>
      <trkpt lat="0" lon="0">
        <time>2020-12-20T09:54:54.748000+00:00</time>
      </trkpt>
      <trkpt lat="0" lon="0">
        <time>2020-12-20T09:54:54.756000+00:00</time>
      </trkpt>
      <trkpt lat="47.34507" lon="-1.30205">
        <ele>55</ele>
        <time>2020-12-20T09:54:55.713000+00:00</time>
      </trkpt>
      <trkpt lat="0" lon="0">
        <time>2020-12-20T09:54:55.718000+00:00</time>
      </trkpt>
      <trkpt lat="0" lon="0">
        <time>2020-12-20T09:54:55.730000+00:00</time>
      </trkpt>
      <trkpt lat="0" lon="0">
        <time>2020-12-20T09:54:55.735000+00:00</time>
      </trkpt>
      <trkpt lat="47.34509" lon="-1.30205">
        <ele>55</ele>
        <time>2020-12-20T09:54:56.709000+00:00</time>
      </trkpt>
      <trkpt lat="0" lon="0">
        <time>2020-12-20T09:54:56.713000+00:00</time>
      </trkpt>
      <trkpt lat="0" lon="0">
        <time>2020-12-20T09:54:56.719000+00:00</time>
      </trkpt>
      <trkpt lat="0" lon="0">
        <time>2020-12-20T09:54:56.721000+00:00</time>
      </trkpt>
      <trkpt lat="47.34511" lon="-1.30205">
        <ele>55</ele>
        <time>2020-12-20T09:54:57.700000+00:00</time>
      </trkpt>
      <trkpt lat="0" lon="0">
        <time>2020-12-20T09:54:57.719000+00:00</time>
      </trkpt>
      <trkpt lat="0" lon="0">
        <time>2020-12-20T09:54:57.723000+00:00</time>
      </trkpt>
      <trkpt lat="0" lon="0">
        <time>2020-12-20T09:54:57.726000+00:00</time>
      </trkpt>
      <trkpt lat="47.34513" lon="-1.30205">
        <ele>55</ele>
        <time>2020-12-20T09:54:58.734000+00:00</time>
      </trkpt>
      <trkpt lat="0" lon="0">
        <time>2020-12-20T09:54:58.747000+00:00</time>
      </trkpt>
      <trkpt lat="0" lon="0">
        <time>2020-12-20T09:54:58.755000+00:00</time>
      </trkpt>
      <trkpt lat="0" lon="0">
        <time>2020-12-20T09:54:58.757000+00:00</time>
      </trkpt>
      <trkpt lat="47.34515" lon="-1.30205">
        <ele>55</ele>
        <time>2020-12-20T09:54:59.734000+00:00</time>
      </trkpt>
      <trkpt lat="0" lon="0">
        <time>2020-12-20T09:54:59.753000+00:00</time>
      </trkpt>
      <trkpt lat="0" lon="0">
        <time>2020-12-20T09:54:59.760000+00:00</time>
      </trkpt>
      <trkpt lat="0" lon="0">
        <time>2020-12-20T09:54:59.764000+00:00</time>
      </trkpt>
      <trkpt lat="47.34517" lon="-1.30204">
        <ele>55</ele>
        <time>2020-12-20T09:55:00.752000+00:00</time>
      </trkpt>
      <trkpt lat="0" lon="0">
        <time>2020-12-20T09:55:00.765000+00:00</time>
      </trkpt>
      <trkpt lat="0" lon="0">
        <time>2020-12-20T09:55:00.769000+00:00</time>
      </trkpt>
      <trkpt lat="0" lon="0">
        <time>2020-12-20T09:55:00.771000+00:00</time>
      </trkpt>
      <trkpt lat="47.34519" lon="-1.30204">
        <ele>55</ele>
        <time>2020-12-20T09:55:01.698000+00:00</time>
      </trkpt>
      <trkpt lat="0" lon="0">
        <time>2020-12-20T09:55:01.706000+00:00</time>
      </trkpt>
      <trkpt lat="0" lon="0">
        <time>2020-12-20T09:55:01.712000+00:00</time>
      </trkpt>
      <trkpt lat="0" lon="0">
        <time>2020-12-20T09:55:01.714000+00:00</time>
      </trkpt>
      <trkpt lat="47.3452" lon="-1.30204">
        <ele>55</ele>
        <time>2020-12-20T09:55:02.693000+00:00</time>
      </trkpt>
      <trkpt lat="0" lon="0">
        <time>2020-12-20T09:55:02.699000+00:00</time>
      </trkpt>
      <trkpt lat="0" lon="0">
        <time>2020-12-20T09:55:02.705000+00:00</time>
      </trkpt>
      <trkpt lat="0" lon="0">
        <time>2020-12-20T09:55:02.707000+00:00</time>
      </trkpt>
      <trkpt lat="47.34522" lon="-1.30203">
        <ele>55</ele>
        <time>2020-12-20T09:55:03.729000+00:00</time>
      </trkpt>
      <trkpt lat="0" lon="0">
        <time>2020-12-20T09:55:03.735000+00:00</time>
      </trkpt>
      <trkpt lat="0" lon="0">
        <time>2020-12-20T09:55:03.740000+00:00</time>
      </trkpt>
      <trkpt lat="0" lon="0">
        <time>2020-12-20T09:55:03.742000+00:00</time>
      </trkpt>
      <trkpt lat="47.34524" lon="-1.30202">
        <ele>55</ele>
        <time>2020-12-20T09:55:04.704000+00:00</time>
      </trkpt>
      <trkpt lat="0" lon="0">
        <time>2020-12-20T09:55:04.717000+00:00</time>
      </trkpt>
      <trkpt lat="0" lon="0">
        <time>2020-12-20T09:55:04.724000+00:00</time>
      </trkpt>
      <trkpt lat="0" lon="0">
        <time>2020-12-20T09:55:04.728000+00:00</time>
      </trkpt>
      <trkpt lat="47.34525" lon="-1.30202">
        <ele>55</ele>
        <time>2020-12-20T09:55:05.705000+00:00</time>
      </trkpt>
      <trkpt lat="0" lon="0">
        <time>2020-12-20T09:55:05.729000+00:00</time>
      </trkpt>
      <trkpt lat="0" lon="0">
        <time>2020-12-20T09:55:05.738000+00:00</time>
      </trkpt>
      <trkpt lat="0" lon="0">
        <time>2020-12-20T09:55:05.748000+00:00</time>
      </trkpt>
      <trkpt lat="47.34527" lon="-1.30202">
        <ele>55</ele>
        <time>2020-12-20T09:55:06.690000+00:00</time>
      </trkpt>
      <trkpt lat="0" lon="0">
        <time>2020-12-20T09:55:06.694000+00:00</time>
      </trkpt>
      <trkpt lat="0" lon="0">
        <time>2020-12-20T09:55:06.702000+00:00</time>
      </trkpt>
      <trkpt lat="0" lon="0">
        <time>2020-12-20T09:55:06.709000+00:00</time>
      </trkpt>
      <trkpt lat="47.34528" lon="-1.30202">
        <ele>55</ele>
        <time>2020-12-20T09:55:07.719000+00:00</time>
      </trkpt>
      <trkpt lat="0" lon="0">
        <time>2020-12-20T09:55:07.728000+00:00</time>
      </trkpt>
      <trkpt lat="0" lon="0">
        <time>2020-12-20T09:55:07.734000+00:00</time>
      </trkpt>
      <trkpt lat="0" lon="0">
        <time>2020-12-20T09:55:07.736000+00:00</time>
      </trkpt>
      <trkpt lat="47.34529" lon="-1.30203">
        <ele>55</ele>
        <time>2020-12-20T09:55:08.724000+00:00</time>
      </trkpt>
      <trkpt lat="0" lon="0">
        <time>2020-12-20T09:55:08.732000+00:00</time>
      </trkpt>
      <trkpt lat="0" lon="0">
        <time>2020-12-20T09:55:08.735000+00:00</time>
      </trkpt>
      <trkpt lat="0" lon="0">
        <time>2020-12-20T09:55:08.739000+00:00</time>
      </trkpt>
      <trkpt lat="47.3453" lon="-1.30204">
        <ele>55</ele>
        <time>2020-12-20T09:55:09.718000+00:00</time>
      </trkpt>
      <trkpt lat="0" lon="0">
        <time>2020-12-20T09:55:09.730000+00:00</time>
      </trkpt>
      <trkpt lat="0" lon="0">
        <time>2020-12-20T09:55:09.734000+00:00</time>
      </trkpt>
      <trkpt lat="0" lon="0">
        <time>2020-12-20T09:55:09.738000+00:00</time>
      </trkpt>
      <trkpt lat="47.34531" lon="-1.30204">
        <ele>55</ele>
        <time>2020-12-20T09:55:10.713000+00:00</time>
      </trkpt>
      <trkpt lat="0" lon="0">
        <time>2020-12-20T09:55:10.718000+00:00</time>
      </trkpt>
      <trkpt lat="0" lon="0">
        <time>2020-12-20T09:55:10.723000+00:00</time>
      </trkpt>
      <trkpt lat="0" lon="0">
        <time>2020-12-20T09:55:10.726000+00:00</time>
      </trkpt>
      <trkpt lat="47.34532" lon="-1.30205">
        <ele>55</ele>
        <time>2020-12-20T09:55:11.725000+00:00</time>
      </trkpt>
      <trkpt lat="0" lon="0">
        <time>2020-12-20T09:55:11.740000+00:00</time>
      </trkpt>
      <trkpt lat="0" lon="0">
        <time>2020-12-20T09:55:11.749000+00:00</time>
      </trkpt>
      <trkpt lat="0" lon="0">
        <time>2020-12-20T09:55:11.751000+00:00</time>
      </trkpt>
      <trkpt lat="47.34533" lon="-1.30206">
        <ele>55</ele>
        <time>2020-12-20T09:55:12.729000+00:00</time>
      </trkpt>
      <trkpt lat="0" lon="0">
        <time>2020-12-20T09:55:12.739000+00:00</time>
      </trkpt>
      <trkpt lat="0" lon="0">
        <time>2020-12-20T09:55:12.744000+00:00</time>
      </trkpt>
      <trkpt lat="0" lon="0">
        <time>2020-12-20T09:55:12.747000+00:00</time>
      </trkpt>
      <trkpt lat="47.34534" lon="-1.30207">
        <ele>55</ele>
        <time>2020-12-20T09:55:13.740000+00:00</time>
      </trkpt>
      <trkpt lat="0" lon="0">
        <time>2020-12-20T09:55:13.745000+00:00</time>
      </trkpt>
      <trkpt lat="0" lon="0">
        <time>2020-12-20T09:55:13.747000+00:00</time>
      </trkpt>
      <trkpt lat="0" lon="0">
        <time>2020-12-20T09:55:13.748000+00:00</time>
      </trkpt>
      <trkpt lat="47.34535" lon="-1.30208">
        <ele>55</ele>
        <time>2020-12-20T09:55:14.668000+00:00</time>
      </trkpt>
      <trkpt lat="0" lon="0">
        <time>2020-12-20T09:55:14.686000+00:00</time>
      </trkpt>
      <trkpt lat="0" lon="0">
        <time>2020-12-20T09:55:14.690000+00:00</time>
      </trkpt>
      <trkpt lat="0" lon="0">
        <time>2020-12-20T09:55:14.692000+00:00</time>
      </trkpt>
      <trkpt lat="47.34536" lon="-1.30209">
        <ele>54</ele>
        <time>2020-12-20T09:55:15.722000+00:00</time>
      </trkpt>
      <trkpt lat="0" lon="0">
        <time>2020-12-20T09:55:15.736000+00:00</time>
      </trkpt>
      <trkpt lat="0" lon="0">
        <time>2020-12-20T09:55:15.740000+00:00</time>
      </trkpt>
      <trkpt lat="0" lon="0">
        <time>2020-12-20T09:55:15.742000+00:00</time>
      </trkpt>
      <trkpt lat="47.34538" lon="-1.30211">
        <ele>54</ele>
        <time>2020-12-20T09:55:16.722000+00:00</time>
      </trkpt>
      <trkpt lat="0" lon="0">
        <time>2020-12-20T09:55:16.732000+00:00</time>
      </trkpt>
      <trkpt lat="0" lon="0">
        <time>2020-12-20T09:55:16.737000+00:00</time>
      </trkpt>
      <trkpt lat="0" lon="0">
        <time>2020-12-20T09:55:16.740000+00:00</time>
      </trkpt>
      <trkpt lat="47.34539" lon="-1.30212">
        <ele>54</ele>
        <time>2020-12-20T09:55:17.705000+00:00</time>
      </trkpt>
      <trkpt lat="0" lon="0">
        <time>2020-12-20T09:55:17.710000+00:00</time>
      </trkpt>
      <trkpt lat="0" lon="0">
        <time>2020-12-20T09:55:17.724000+00:00</time>
      </trkpt>
      <trkpt lat="0" lon="0">
        <time>2020-12-20T09:55:17.726000+00:00</time>
      </trkpt>
      <trkpt lat="47.34539" lon="-1.30212">
        <ele>54</ele>
        <time>2020-12-20T09:55:18.677000+00:00</time>
      </trkpt>
      <trkpt lat="0" lon="0">
        <time>2020-12-20T09:55:18.685000+00:00</time>
      </trkpt>
      <trkpt lat="0" lon="0">
        <time>2020-12-20T09:55:18.690000+00:00</time>
      </trkpt>
      <trkpt lat="0" lon="0">
        <time>2020-12-20T09:55:18.692000+00:00</time>
      </trkpt>
      <trkpt lat="47.3454" lon="-1.30213">
        <ele>54</ele>
        <time>2020-12-20T09:55:19.700000+00:00</time>
      </trkpt>
      <trkpt lat="0" lon="0">
        <time>2020-12-20T09:55:19.706000+00:00</time>
      </trkpt>
      <trkpt lat="0" lon="0">
        <time>2020-12-20T09:55:19.721000+00:00</time>
      </trkpt>
      <trkpt lat="0" lon="0">
        <time>2020-12-20T09:55:19.727000+00:00</time>
      </trkpt>
      <trkpt lat="47.34541" lon="-1.30214">
        <ele>54</ele>
        <time>2020-12-20T09:55:20.709000+00:00</time>
      </trkpt>
      <trkpt lat="0" lon="0">
        <time>2020-12-20T09:55:20.722000+00:00</time>
      </trkpt>
      <trkpt lat="0" lon="0">
        <time>2020-12-20T09:55:20.727000+00:00</time>
      </trkpt>
      <trkpt lat="0" lon="0">
        <time>2020-12-20T09:55:20.730000+00:00</time>
      </trkpt>
      <trkpt lat="47.34543" lon="-1.30215">
        <ele>54</ele>
        <time>2020-12-20T09:55:21.718000+00:00</time>
      </trkpt>
      <trkpt lat="0" lon="0">
        <time>2020-12-20T09:55:21.740000+00:00</time>
      </trkpt>
      <trkpt lat="0" lon="0">
        <time>2020-12-20T09:55:21.748000+00:00</time>
      </trkpt>
      <trkpt lat="0" lon="0">
        <time>2020-12-20T09:55:21.750000+00:00</time>
      </trkpt>
      <trkpt lat="47.34544" lon="-1.30216">
        <ele>54</ele>
        <time>2020-12-20T09:55:22.702000+00:00</time>
      </trkpt>
      <trkpt lat="0" lon="0">
        <time>2020-12-20T09:55:22.713000+00:00</time>
      </trkpt>
      <trkpt lat="0" lon="0">
        <time>2020-12-20T09:55:22.725000+00:00</time>
      </trkpt>
      <trkpt lat="0" lon="0">
        <time>2020-12-20T09:55:22.726000+00:00</time>
      </trkpt>
      <trkpt lat="47.34545" lon="-1.30216">
        <ele>55</ele>
        <time>2020-12-20T09:55:23.727000+00:00</time>
      </trkpt>
      <trkpt lat="0" lon="0">
        <time>2020-12-20T09:55:23.742000+00:00</time>
      </trkpt>
      <trkpt lat="0" lon="0">
        <time>2020-12-20T09:55:23.747000+00:00</time>
      </trkpt>
      <trkpt lat="0" lon="0">
        <time>2020-12-20T09:55:23.750000+00:00</time>
      </trkpt>
      <trkpt lat="47.34546" lon="-1.30217">
        <ele>55</ele>
        <time>2020-12-20T09:55:24.737000+00:00</time>
      </trkpt>
      <trkpt lat="0" lon="0">
        <time>2020-12-20T09:55:24.743000+00:00</time>
      </trkpt>
      <trkpt lat="0" lon="0">
        <time>2020-12-20T09:55:24.752000+00:00</time>
      </trkpt>
      <trkpt lat="0" lon="0">
        <time>2020-12-20T09:55:24.754000+00:00</time>
      </trkpt>
      <trkpt lat="47.34548" lon="-1.30217">
        <ele>55</ele>
        <time>2020-12-20T09:55:25.739000+00:00</time>
      </trkpt>
      <trkpt lat="0" lon="0">
        <time>2020-12-20T09:55:25.746000+00:00</time>
      </trkpt>
      <trkpt lat="0" lon="0">
        <time>2020-12-20T09:55:25.751000+00:00</time>
      </trkpt>
      <trkpt lat="0" lon="0">
        <time>2020-12-20T09:55:25.753000+00:00</time>
      </trkpt>
      <trkpt lat="47.3455" lon="-1.30218">
        <ele>55</ele>
        <time>2020-12-20T09:55:26.721000+00:00</time>
      </trkpt>
      <trkpt lat="0" lon="0">
        <time>2020-12-20T09:55:26.733000+00:00</time>
      </trkpt>
      <trkpt lat="0" lon="0">
        <time>2020-12-20T09:55:26.743000+00:00</time>
      </trkpt>
      <trkpt lat="0" lon="0">
        <time>2020-12-20T09:55:26.749000+00:00</time>
      </trkpt>
      <trkpt lat="47.34551" lon="-1.30219">
        <ele>55</ele>
        <time>2020-12-20T09:55:27.738000+00:00</time>
      </trkpt>
      <trkpt lat="0" lon="0">
        <time>2020-12-20T09:55:27.742000+00:00</time>
      </trkpt>
      <trkpt lat="0" lon="0">
        <time>2020-12-20T09:55:27.748000+00:00</time>
      </trkpt>
      <trkpt lat="0" lon="0">
        <time>2020-12-20T09:55:27.750000+00:00</time>
      </trkpt>
      <trkpt lat="47.34553" lon="-1.3022">
        <ele>55</ele>
        <time>2020-12-20T09:55:28.697000+00:00</time>
      </trkpt>
      <trkpt lat="0" lon="0">
        <time>2020-12-20T09:55:28.709000+00:00</time>
      </trkpt>
      <trkpt lat="0" lon="0">
        <time>2020-12-20T09:55:28.720000+00:00</time>
      </trkpt>
      <trkpt lat="0" lon="0">
        <time>2020-12-20T09:55:28.727000+00:00</time>
      </trkpt>
      <trkpt lat="47.34554" lon="-1.30221">
        <ele>55</ele>
        <time>2020-12-20T09:55:29.690000+00:00</time>
      </trkpt>
      <trkpt lat="0" lon="0">
        <time>2020-12-20T09:55:29.699000+00:00</time>
      </trkpt>
      <trkpt lat="0" lon="0">
        <time>2020-12-20T09:55:29.708000+00:00</time>
      </trkpt>
      <trkpt lat="0" lon="0">
        <time>2020-12-20T09:55:29.712000+00:00</time>
      </trkpt>
      <trkpt lat="47.34556" lon="-1.30222">
        <ele>55</ele>
        <time>2020-12-20T09:55:30.675000+00:00</time>
      </trkpt>
      <trkpt lat="0" lon="0">
        <time>2020-12-20T09:55:30.685000+00:00</time>
      </trkpt>
      <trkpt lat="0" lon="0">
        <time>2020-12-20T09:55:30.689000+00:00</time>
      </trkpt>
      <trkpt lat="0" lon="0">
        <time>2020-12-20T09:55:30.690000+00:00</time>
      </trkpt>
      <trkpt lat="47.34557" lon="-1.30222">
        <ele>55</ele>
        <time>2020-12-20T09:55:31.699000+00:00</time>
      </trkpt>
      <trkpt lat="0" lon="0">
        <time>2020-12-20T09:55:31.705000+00:00</time>
      </trkpt>
      <trkpt lat="0" lon="0">
        <time>2020-12-20T09:55:31.710000+00:00</time>
      </trkpt>
      <trkpt lat="0" lon="0">
        <time>2020-12-20T09:55:31.717000+00:00</time>
      </trkpt>
      <trkpt lat="47.34557" lon="-1.30223">
        <ele>55</ele>
        <time>2020-12-20T09:55:32.707000+00:00</time>
      </trkpt>
      <trkpt lat="0" lon="0">
        <time>2020-12-20T09:55:32.717000+00:00</time>
      </trkpt>
      <trkpt lat="0" lon="0">
        <time>2020-12-20T09:55:32.721000+00:00</time>
      </trkpt>
      <trkpt lat="0" lon="0">
        <time>2020-12-20T09:55:32.728000+00:00</time>
      </trkpt>
      <trkpt lat="47.34558" lon="-1.30223">
        <ele>55</ele>
        <time>2020-12-20T09:55:33.669000+00:00</time>
      </trkpt>
      <trkpt lat="0" lon="0">
        <time>2020-12-20T09:55:33.691000+00:00</time>
      </trkpt>
      <trkpt lat="0" lon="0">
        <time>2020-12-20T09:55:33.701000+00:00</time>
      </trkpt>
      <trkpt lat="0" lon="0">
        <time>2020-12-20T09:55:33.702000+00:00</time>
      </trkpt>
      <trkpt lat="47.34558" lon="-1.30223">
        <ele>55</ele>
        <time>2020-12-20T09:55:34.677000+00:00</time>
      </trkpt>
      <trkpt lat="0" lon="0">
        <time>2020-12-20T09:55:34.682000+00:00</time>
      </trkpt>
      <trkpt lat="0" lon="0">
        <time>2020-12-20T09:55:34.701000+00:00</time>
      </trkpt>
      <trkpt lat="0" lon="0">
        <time>2020-12-20T09:55:34.705000+00:00</time>
      </trkpt>
      <trkpt lat="47.34558" lon="-1.30223">
        <ele>55</ele>
        <time>2020-12-20T09:55:35.668000+00:00</time>
      </trkpt>
      <trkpt lat="0" lon="0">
        <time>2020-12-20T09:55:35.681000+00:00</time>
      </trkpt>
      <trkpt lat="0" lon="0">
        <time>2020-12-20T09:55:35.686000+00:00</time>
      </trkpt>
      <trkpt lat="0" lon="0">
        <time>2020-12-20T09:55:35.689000+00:00</time>
      </trkpt>
      <trkpt lat="47.34559" lon="-1.30223">
        <ele>57</ele>
        <time>2020-12-20T09:55:36.725000+00:00</time>
      </trkpt>
      <trkpt lat="0" lon="0">
        <time>2020-12-20T09:55:36.730000+00:00</time>
      </trkpt>
      <trkpt lat="0" lon="0">
        <time>2020-12-20T09:55:36.735000+00:00</time>
      </trkpt>
      <trkpt lat="0" lon="0">
        <time>2020-12-20T09:55:36.737000+00:00</time>
      </trkpt>
      <trkpt lat="47.3456" lon="-1.30224">
        <ele>58</ele>
        <time>2020-12-20T09:55:37.727000+00:00</time>
      </trkpt>
      <trkpt lat="0" lon="0">
        <time>2020-12-20T09:55:37.732000+00:00</time>
      </trkpt>
      <trkpt lat="0" lon="0">
        <time>2020-12-20T09:55:37.737000+00:00</time>
      </trkpt>
      <trkpt lat="0" lon="0">
        <time>2020-12-20T09:55:37.739000+00:00</time>
      </trkpt>
      <trkpt lat="47.34561" lon="-1.30224">
        <ele>59</ele>
        <time>2020-12-20T09:55:38.695000+00:00</time>
      </trkpt>
      <trkpt lat="0" lon="0">
        <time>2020-12-20T09:55:38.699000+00:00</time>
      </trkpt>
      <trkpt lat="0" lon="0">
        <time>2020-12-20T09:55:38.705000+00:00</time>
      </trkpt>
      <trkpt lat="0" lon="0">
        <time>2020-12-20T09:55:38.707000+00:00</time>
      </trkpt>
      <trkpt lat="47.34562" lon="-1.30225">
        <ele>59</ele>
        <time>2020-12-20T09:55:39.740000+00:00</time>
      </trkpt>
      <trkpt lat="0" lon="0">
        <time>2020-12-20T09:55:39.744000+00:00</time>
      </trkpt>
      <trkpt lat="0" lon="0">
        <time>2020-12-20T09:55:39.747000+00:00</time>
      </trkpt>
      <trkpt lat="0" lon="0">
        <time>2020-12-20T09:55:39.750000+00:00</time>
      </trkpt>
      <trkpt lat="47.34563" lon="-1.30226">
        <ele>59</ele>
        <time>2020-12-20T09:55:40.710000+00:00</time>
      </trkpt>
      <trkpt lat="0" lon="0">
        <time>2020-12-20T09:55:40.722000+00:00</time>
      </trkpt>
      <trkpt lat="0" lon="0">
        <time>2020-12-20T09:55:40.741000+00:00</time>
      </trkpt>
      <trkpt lat="0" lon="0">
        <time>2020-12-20T09:55:40.743000+00:00</time>
      </trkpt>
      <trkpt lat="47.34564" lon="-1.30228">
        <ele>60</ele>
        <time>2020-12-20T09:55:41.714000+00:00</time>
      </trkpt>
      <trkpt lat="0" lon="0">
        <time>2020-12-20T09:55:41.732000+00:00</time>
      </trkpt>
      <trkpt lat="0" lon="0">
        <time>2020-12-20T09:55:41.742000+00:00</time>
      </trkpt>
      <trkpt lat="0" lon="0">
        <time>2020-12-20T09:55:41.745000+00:00</time>
      </trkpt>
      <trkpt lat="47.34564" lon="-1.30229">
        <ele>60</ele>
        <time>2020-12-20T09:55:42.698000+00:00</time>
      </trkpt>
      <trkpt lat="0" lon="0">
        <time>2020-12-20T09:55:42.717000+00:00</time>
      </trkpt>
      <trkpt lat="0" lon="0">
        <time>2020-12-20T09:55:42.725000+00:00</time>
      </trkpt>
      <trkpt lat="0" lon="0">
        <time>2020-12-20T09:55:42.734000+00:00</time>
      </trkpt>
      <trkpt lat="47.34565" lon="-1.3023">
        <ele>60</ele>
        <time>2020-12-20T09:55:43.722000+00:00</time>
      </trkpt>
      <trkpt lat="0" lon="0">
        <time>2020-12-20T09:55:43.729000+00:00</time>
      </trkpt>
      <trkpt lat="0" lon="0">
        <time>2020-12-20T09:55:43.736000+00:00</time>
      </trkpt>
      <trkpt lat="0" lon="0">
        <time>2020-12-20T09:55:43.742000+00:00</time>
      </trkpt>
      <trkpt lat="47.34565" lon="-1.30231">
        <ele>61</ele>
        <time>2020-12-20T09:55:44.711000+00:00</time>
      </trkpt>
      <trkpt lat="0" lon="0">
        <time>2020-12-20T09:55:44.748000+00:00</time>
      </trkpt>
      <trkpt lat="0" lon="0">
        <time>2020-12-20T09:55:44.750000+00:00</time>
      </trkpt>
      <trkpt lat="0" lon="0">
        <time>2020-12-20T09:55:44.752000+00:00</time>
      </trkpt>
      <trkpt lat="47.34565" lon="-1.30233">
        <ele>61</ele>
        <time>2020-12-20T09:55:45.729000+00:00</time>
      </trkpt>
      <trkpt lat="0" lon="0">
        <time>2020-12-20T09:55:45.744000+00:00</time>
      </trkpt>
      <trkpt lat="0" lon="0">
        <time>2020-12-20T09:55:45.748000+00:00</time>
      </trkpt>
      <trkpt lat="0" lon="0">
        <time>2020-12-20T09:55:45.750000+00:00</time>
      </trkpt>
      <trkpt lat="47.34566" lon="-1.30235">
        <ele>61</ele>
        <time>2020-12-20T09:55:46.782000+00:00</time>
      </trkpt>
      <trkpt lat="0" lon="0">
        <time>2020-12-20T09:55:46.788000+00:00</time>
      </trkpt>
      <trkpt lat="0" lon="0">
        <time>2020-12-20T09:55:46.790000+00:00</time>
      </trkpt>
      <trkpt lat="0" lon="0">
        <time>2020-12-20T09:55:46.791000+00:00</time>
      </trkpt>
      <trkpt lat="47.34566" lon="-1.30237">
        <ele>60</ele>
        <time>2020-12-20T09:55:47.745000+00:00</time>
      </trkpt>
      <trkpt lat="0" lon="0">
        <time>2020-12-20T09:55:47.750000+00:00</time>
      </trkpt>
      <trkpt lat="0" lon="0">
        <time>2020-12-20T09:55:47.753000+00:00</time>
      </trkpt>
      <trkpt lat="0" lon="0">
        <time>2020-12-20T09:55:47.755000+00:00</time>
      </trkpt>
      <trkpt lat="47.34566" lon="-1.30238">
        <ele>60</ele>
        <time>2020-12-20T09:55:48.747000+00:00</time>
      </trkpt>
      <trkpt lat="0" lon="0">
        <time>2020-12-20T09:55:48.763000+00:00</time>
      </trkpt>
      <trkpt lat="0" lon="0">
        <time>2020-12-20T09:55:48.770000+00:00</time>
      </trkpt>
      <trkpt lat="0" lon="0">
        <time>2020-12-20T09:55:48.774000+00:00</time>
      </trkpt>
      <trkpt lat="47.34566" lon="-1.30239">
        <ele>60</ele>
        <time>2020-12-20T09:55:49.698000+00:00</time>
      </trkpt>
      <trkpt lat="0" lon="0">
        <time>2020-12-20T09:55:49.708000+00:00</time>
      </trkpt>
      <trkpt lat="0" lon="0">
        <time>2020-12-20T09:55:49.715000+00:00</time>
      </trkpt>
      <trkpt lat="0" lon="0">
        <time>2020-12-20T09:55:49.726000+00:00</time>
      </trkpt>
      <trkpt lat="47.34567" lon="-1.30241">
        <ele>60</ele>
        <time>2020-12-20T09:55:50.729000+00:00</time>
      </trkpt>
      <trkpt lat="0" lon="0">
        <time>2020-12-20T09:55:50.735000+00:00</time>
      </trkpt>
      <trkpt lat="0" lon="0">
        <time>2020-12-20T09:55:50.745000+00:00</time>
      </trkpt>
      <trkpt lat="0" lon="0">
        <time>2020-12-20T09:55:50.749000+00:00</time>
      </trkpt>
      <trkpt lat="47.34567" lon="-1.30242">
        <ele>60</ele>
        <time>2020-12-20T09:55:51.702000+00:00</time>
      </trkpt>
      <trkpt lat="0" lon="0">
        <time>2020-12-20T09:55:51.714000+00:00</time>
      </trkpt>
      <trkpt lat="0" lon="0">
        <time>2020-12-20T09:55:51.722000+00:00</time>
      </trkpt>
      <trkpt lat="0" lon="0">
        <time>2020-12-20T09:55:51.727000+00:00</time>
      </trkpt>
      <trkpt lat="47.34568" lon="-1.30244">
        <ele>60</ele>
        <time>2020-12-20T09:55:52.722000+00:00</time>
      </trkpt>
      <trkpt lat="0" lon="0">
        <time>2020-12-20T09:55:52.729000+00:00</time>
      </trkpt>
      <trkpt lat="0" lon="0">
        <time>2020-12-20T09:55:52.731000+00:00</time>
      </trkpt>
      <trkpt lat="0" lon="0">
        <time>2020-12-20T09:55:52.732000+00:00</time>
      </trkpt>
      <trkpt lat="47.34569" lon="-1.30245">
        <ele>61</ele>
        <time>2020-12-20T09:55:53.725000+00:00</time>
      </trkpt>
      <trkpt lat="0" lon="0">
        <time>2020-12-20T09:55:53.729000+00:00</time>
      </trkpt>
      <trkpt lat="0" lon="0">
        <time>2020-12-20T09:55:53.734000+00:00</time>
      </trkpt>
      <trkpt lat="0" lon="0">
        <time>2020-12-20T09:55:53.737000+00:00</time>
      </trkpt>
      <trkpt lat="47.34569" lon="-1.30247">
        <ele>61</ele>
        <time>2020-12-20T09:55:54.707000+00:00</time>
      </trkpt>
      <trkpt lat="0" lon="0">
        <time>2020-12-20T09:55:54.718000+00:00</time>
      </trkpt>
      <trkpt lat="0" lon="0">
        <time>2020-12-20T09:55:54.723000+00:00</time>
      </trkpt>
      <trkpt lat="0" lon="0">
        <time>2020-12-20T09:55:54.726000+00:00</time>
      </trkpt>
      <trkpt lat="47.3457" lon="-1.30248">
        <ele>61</ele>
        <time>2020-12-20T09:55:55.744000+00:00</time>
      </trkpt>
      <trkpt lat="0" lon="0">
        <time>2020-12-20T09:55:55.760000+00:00</time>
      </trkpt>
      <trkpt lat="0" lon="0">
        <time>2020-12-20T09:55:55.767000+00:00</time>
      </trkpt>
      <trkpt lat="0" lon="0">
        <time>2020-12-20T09:55:55.770000+00:00</time>
      </trkpt>
      <trkpt lat="47.3457" lon="-1.30249">
        <ele>66</ele>
        <time>2020-12-20T09:55:56.712000+00:00</time>
      </trkpt>
      <trkpt lat="0" lon="0">
        <time>2020-12-20T09:55:56.720000+00:00</time>
      </trkpt>
      <trkpt lat="0" lon="0">
        <time>2020-12-20T09:55:56.725000+00:00</time>
      </trkpt>
      <trkpt lat="0" lon="0">
        <time>2020-12-20T09:55:56.727000+00:00</time>
      </trkpt>
      <trkpt lat="47.34571" lon="-1.30251">
        <ele>67</ele>
        <time>2020-12-20T09:55:57.736000+00:00</time>
      </trkpt>
      <trkpt lat="0" lon="0">
        <time>2020-12-20T09:55:57.754000+00:00</time>
      </trkpt>
      <trkpt lat="0" lon="0">
        <time>2020-12-20T09:55:57.759000+00:00</time>
      </trkpt>
      <trkpt lat="0" lon="0">
        <time>2020-12-20T09:55:57.762000+00:00</time>
      </trkpt>
      <trkpt lat="47.34572" lon="-1.30252">
        <ele>67</ele>
        <time>2020-12-20T09:55:58.729000+00:00</time>
      </trkpt>
      <trkpt lat="0" lon="0">
        <time>2020-12-20T09:55:58.741000+00:00</time>
      </trkpt>
      <trkpt lat="0" lon="0">
        <time>2020-12-20T09:55:58.757000+00:00</time>
      </trkpt>
      <trkpt lat="0" lon="0">
        <time>2020-12-20T09:55:58.759000+00:00</time>
      </trkpt>
      <trkpt lat="47.34573" lon="-1.30254">
        <ele>68</ele>
        <time>2020-12-20T09:55:59.718000+00:00</time>
      </trkpt>
      <trkpt lat="0" lon="0">
        <time>2020-12-20T09:55:59.726000+00:00</time>
      </trkpt>
      <trkpt lat="0" lon="0">
        <time>2020-12-20T09:55:59.729000+00:00</time>
      </trkpt>
      <trkpt lat="0" lon="0">
        <time>2020-12-20T09:55:59.731000+00:00</time>
      </trkpt>
      <trkpt lat="47.34573" lon="-1.30255">
        <ele>68</ele>
        <time>2020-12-20T09:56:00.723000+00:00</time>
      </trkpt>
      <trkpt lat="0" lon="0">
        <time>2020-12-20T09:56:00.728000+00:00</time>
      </trkpt>
      <trkpt lat="0" lon="0">
        <time>2020-12-20T09:56:00.742000+00:00</time>
      </trkpt>
      <trkpt lat="0" lon="0">
        <time>2020-12-20T09:56:00.745000+00:00</time>
      </trkpt>
      <trkpt lat="47.34574" lon="-1.30256">
        <ele>68</ele>
        <time>2020-12-20T09:56:01.745000+00:00</time>
      </trkpt>
      <trkpt lat="0" lon="0">
        <time>2020-12-20T09:56:01.758000+00:00</time>
      </trkpt>
      <trkpt lat="0" lon="0">
        <time>2020-12-20T09:56:01.766000+00:00</time>
      </trkpt>
      <trkpt lat="0" lon="0">
        <time>2020-12-20T09:56:01.769000+00:00</time>
      </trkpt>
      <trkpt lat="47.34574" lon="-1.30258">
        <ele>68</ele>
        <time>2020-12-20T09:56:02.749000+00:00</time>
      </trkpt>
      <trkpt lat="0" lon="0">
        <time>2020-12-20T09:56:02.762000+00:00</time>
      </trkpt>
      <trkpt lat="0" lon="0">
        <time>2020-12-20T09:56:02.769000+00:00</time>
      </trkpt>
      <trkpt lat="0" lon="0">
        <time>2020-12-20T09:56:02.775000+00:00</time>
      </trkpt>
      <trkpt lat="47.34575" lon="-1.30259">
        <ele>68</ele>
        <time>2020-12-20T09:56:03.750000+00:00</time>
      </trkpt>
      <trkpt lat="0" lon="0">
        <time>2020-12-20T09:56:03.761000+00:00</time>
      </trkpt>
      <trkpt lat="0" lon="0">
        <time>2020-12-20T09:56:03.772000+00:00</time>
      </trkpt>
      <trkpt lat="0" lon="0">
        <time>2020-12-20T09:56:03.775000+00:00</time>
      </trkpt>
      <trkpt lat="47.34575" lon="-1.3026">
        <ele>67</ele>
        <time>2020-12-20T09:56:04.756000+00:00</time>
      </trkpt>
      <trkpt lat="0" lon="0">
        <time>2020-12-20T09:56:04.766000+00:00</time>
      </trkpt>
      <trkpt lat="0" lon="0">
        <time>2020-12-20T09:56:04.770000+00:00</time>
      </trkpt>
      <trkpt lat="0" lon="0">
        <time>2020-12-20T09:56:04.775000+00:00</time>
      </trkpt>
      <trkpt lat="47.34575" lon="-1.30261">
        <ele>67</ele>
        <time>2020-12-20T09:56:05.726000+00:00</time>
      </trkpt>
      <trkpt lat="0" lon="0">
        <time>2020-12-20T09:56:05.738000+00:00</time>
      </trkpt>
      <trkpt lat="0" lon="0">
        <time>2020-12-20T09:56:05.743000+00:00</time>
      </trkpt>
      <trkpt lat="0" lon="0">
        <time>2020-12-20T09:56:05.747000+00:00</time>
      </trkpt>
      <trkpt lat="47.34576" lon="-1.30262">
        <ele>67</ele>
        <time>2020-12-20T09:56:06.747000+00:00</time>
      </trkpt>
      <trkpt lat="0" lon="0">
        <time>2020-12-20T09:56:06.760000+00:00</time>
      </trkpt>
      <trkpt lat="0" lon="0">
        <time>2020-12-20T09:56:06.768000+00:00</time>
      </trkpt>
      <trkpt lat="0" lon="0">
        <time>2020-12-20T09:56:06.770000+00:00</time>
      </trkpt>
      <trkpt lat="47.34576" lon="-1.30263">
        <ele>68</ele>
        <time>2020-12-20T09:56:07.685000+00:00</time>
      </trkpt>
      <trkpt lat="0" lon="0">
        <time>2020-12-20T09:56:07.693000+00:00</time>
      </trkpt>
      <trkpt lat="0" lon="0">
        <time>2020-12-20T09:56:07.696000+00:00</time>
      </trkpt>
      <trkpt lat="0" lon="0">
        <time>2020-12-20T09:56:07.698000+00:00</time>
      </trkpt>
      <trkpt lat="47.34576" lon="-1.30264">
        <ele>69</ele>
        <time>2020-12-20T09:56:08.743000+00:00</time>
      </trkpt>
      <trkpt lat="0" lon="0">
        <time>2020-12-20T09:56:08.748000+00:00</time>
      </trkpt>
      <trkpt lat="0" lon="0">
        <time>2020-12-20T09:56:08.752000+00:00</time>
      </trkpt>
      <trkpt lat="0" lon="0">
        <time>2020-12-20T09:56:08.755000+00:00</time>
      </trkpt>
      <trkpt lat="47.34577" lon="-1.30265">
        <ele>69</ele>
        <time>2020-12-20T09:56:09.715000+00:00</time>
      </trkpt>
      <trkpt lat="0" lon="0">
        <time>2020-12-20T09:56:09.727000+00:00</time>
      </trkpt>
      <trkpt lat="0" lon="0">
        <time>2020-12-20T09:56:09.737000+00:00</time>
      </trkpt>
      <trkpt lat="0" lon="0">
        <time>2020-12-20T09:56:09.744000+00:00</time>
      </trkpt>
      <trkpt lat="47.34577" lon="-1.30267">
        <ele>68</ele>
        <time>2020-12-20T09:56:10.749000+00:00</time>
      </trkpt>
      <trkpt lat="0" lon="0">
        <time>2020-12-20T09:56:10.759000+00:00</time>
      </trkpt>
      <trkpt lat="0" lon="0">
        <time>2020-12-20T09:56:10.761000+00:00</time>
      </trkpt>
      <trkpt lat="0" lon="0">
        <time>2020-12-20T09:56:10.762000+00:00</time>
      </trkpt>
      <trkpt lat="47.34577" lon="-1.30268">
        <ele>68</ele>
        <time>2020-12-20T09:56:11.717000+00:00</time>
      </trkpt>
      <trkpt lat="0" lon="0">
        <time>2020-12-20T09:56:11.725000+00:00</time>
      </trkpt>
      <trkpt lat="0" lon="0">
        <time>2020-12-20T09:56:11.730000+00:00</time>
      </trkpt>
      <trkpt lat="0" lon="0">
        <time>2020-12-20T09:56:11.732000+00:00</time>
      </trkpt>
      <trkpt lat="47.34577" lon="-1.30268">
        <ele>68</ele>
        <time>2020-12-20T09:56:12.718000+00:00</time>
      </trkpt>
      <trkpt lat="0" lon="0">
        <time>2020-12-20T09:56:12.733000+00:00</time>
      </trkpt>
      <trkpt lat="0" lon="0">
        <time>2020-12-20T09:56:12.737000+00:00</time>
      </trkpt>
      <trkpt lat="0" lon="0">
        <time>2020-12-20T09:56:12.740000+00:00</time>
      </trkpt>
      <trkpt lat="47.34577" lon="-1.30269">
        <ele>68</ele>
        <time>2020-12-20T09:56:13.766000+00:00</time>
      </trkpt>
      <trkpt lat="0" lon="0">
        <time>2020-12-20T09:56:13.772000+00:00</time>
      </trkpt>
      <trkpt lat="0" lon="0">
        <time>2020-12-20T09:56:13.776000+00:00</time>
      </trkpt>
      <trkpt lat="0" lon="0">
        <time>2020-12-20T09:56:13.801000+00:00</time>
      </trkpt>
      <trkpt lat="47.34566" lon="-1.30307">
        <ele>66</ele>
        <time>2020-12-20T09:56:14.729000+00:00</time>
      </trkpt>
      <trkpt lat="0" lon="0">
        <time>2020-12-20T09:56:14.730000+00:00</time>
      </trkpt>
      <trkpt lat="0" lon="0">
        <time>2020-12-20T09:56:14.731000+00:00</time>
      </trkpt>
      <trkpt lat="0" lon="0">
        <time>2020-12-20T09:56:14.732000+00:00</time>
      </trkpt>
      <trkpt lat="47.34566" lon="-1.30309">
        <ele>66</ele>
        <time>2020-12-20T09:56:15.734000+00:00</time>
      </trkpt>
      <trkpt lat="0" lon="0">
        <time>2020-12-20T09:56:15.744000+00:00</time>
      </trkpt>
      <trkpt lat="0" lon="0">
        <time>2020-12-20T09:56:15.747000+00:00</time>
      </trkpt>
      <trkpt lat="0" lon="0">
        <time>2020-12-20T09:56:15.748000+00:00</time>
      </trkpt>
      <trkpt lat="47.34565" lon="-1.30311">
        <ele>66</ele>
        <time>2020-12-20T09:56:16.779000+00:00</time>
      </trkpt>
      <trkpt lat="0" lon="0">
        <time>2020-12-20T09:56:16.785000+00:00</time>
      </trkpt>
      <trkpt lat="0" lon="0">
        <time>2020-12-20T09:56:16.792000+00:00</time>
      </trkpt>
      <trkpt lat="0" lon="0">
        <time>2020-12-20T09:56:16.795000+00:00</time>
      </trkpt>
      <trkpt lat="47.34565" lon="-1.30313">
        <ele>66</ele>
        <time>2020-12-20T09:56:17.780000+00:00</time>
      </trkpt>
      <trkpt lat="0" lon="0">
        <time>2020-12-20T09:56:17.791000+00:00</time>
      </trkpt>
      <trkpt lat="0" lon="0">
        <time>2020-12-20T09:56:17.809000+00:00</time>
      </trkpt>
      <trkpt lat="0" lon="0">
        <time>2020-12-20T09:56:17.811000+00:00</time>
      </trkpt>
      <trkpt lat="47.34564" lon="-1.30314">
        <ele>67</ele>
        <time>2020-12-20T09:56:18.770000+00:00</time>
      </trkpt>
      <trkpt lat="0" lon="0">
        <time>2020-12-20T09:56:18.776000+00:00</time>
      </trkpt>
      <trkpt lat="0" lon="0">
        <time>2020-12-20T09:56:18.781000+00:00</time>
      </trkpt>
      <trkpt lat="0" lon="0">
        <time>2020-12-20T09:56:18.790000+00:00</time>
      </trkpt>
      <trkpt lat="47.34564" lon="-1.30316">
        <ele>67</ele>
        <time>2020-12-20T09:56:19.762000+00:00</time>
      </trkpt>
      <trkpt lat="0" lon="0">
        <time>2020-12-20T09:56:19.773000+00:00</time>
      </trkpt>
      <trkpt lat="0" lon="0">
        <time>2020-12-20T09:56:19.777000+00:00</time>
      </trkpt>
      <trkpt lat="0" lon="0">
        <time>2020-12-20T09:56:19.780000+00:00</time>
      </trkpt>
      <trkpt lat="47.34564" lon="-1.30317">
        <ele>67</ele>
        <time>2020-12-20T09:56:20.821000+00:00</time>
      </trkpt>
      <trkpt lat="0" lon="0">
        <time>2020-12-20T09:56:20.825000+00:00</time>
      </trkpt>
      <trkpt lat="0" lon="0">
        <time>2020-12-20T09:56:20.829000+00:00</time>
      </trkpt>
      <trkpt lat="0" lon="0">
        <time>2020-12-20T09:56:20.832000+00:00</time>
      </trkpt>
      <trkpt lat="47.34563" lon="-1.30319">
        <ele>66</ele>
        <time>2020-12-20T09:56:21.749000+00:00</time>
      </trkpt>
      <trkpt lat="0" lon="0">
        <time>2020-12-20T09:56:21.755000+00:00</time>
      </trkpt>
      <trkpt lat="0" lon="0">
        <time>2020-12-20T09:56:21.766000+00:00</time>
      </trkpt>
      <trkpt lat="0" lon="0">
        <time>2020-12-20T09:56:21.772000+00:00</time>
      </trkpt>
      <trkpt lat="47.34562" lon="-1.30321">
        <ele>66</ele>
        <time>2020-12-20T09:56:22.797000+00:00</time>
      </trkpt>
      <trkpt lat="0" lon="0">
        <time>2020-12-20T09:56:22.807000+00:00</time>
      </trkpt>
      <trkpt lat="0" lon="0">
        <time>2020-12-20T09:56:22.814000+00:00</time>
      </trkpt>
      <trkpt lat="0" lon="0">
        <time>2020-12-20T09:56:22.816000+00:00</time>
      </trkpt>
      <trkpt lat="47.34562" lon="-1.30322">
        <ele>67</ele>
        <time>2020-12-20T09:56:23.788000+00:00</time>
      </trkpt>
      <trkpt lat="0" lon="0">
        <time>2020-12-20T09:56:23.810000+00:00</time>
      </trkpt>
      <trkpt lat="0" lon="0">
        <time>2020-12-20T09:56:23.815000+00:00</time>
      </trkpt>
      <trkpt lat="0" lon="0">
        <time>2020-12-20T09:56:23.818000+00:00</time>
      </trkpt>
      <trkpt lat="47.34561" lon="-1.30324">
        <ele>67</ele>
        <time>2020-12-20T09:56:24.773000+00:00</time>
      </trkpt>
      <trkpt lat="0" lon="0">
        <time>2020-12-20T09:56:24.784000+00:00</time>
      </trkpt>
      <trkpt lat="0" lon="0">
        <time>2020-12-20T09:56:24.791000+00:00</time>
      </trkpt>
      <trkpt lat="0" lon="0">
        <time>2020-12-20T09:56:24.792000+00:00</time>
      </trkpt>
      <trkpt lat="47.34561" lon="-1.30326">
        <ele>67</ele>
        <time>2020-12-20T09:56:25.767000+00:00</time>
      </trkpt>
      <trkpt lat="0" lon="0">
        <time>2020-12-20T09:56:25.771000+00:00</time>
      </trkpt>
      <trkpt lat="0" lon="0">
        <time>2020-12-20T09:56:25.780000+00:00</time>
      </trkpt>
      <trkpt lat="0" lon="0">
        <time>2020-12-20T09:56:25.791000+00:00</time>
      </trkpt>
      <trkpt lat="47.3456" lon="-1.30328">
        <ele>67</ele>
        <time>2020-12-20T09:56:26.774000+00:00</time>
      </trkpt>
      <trkpt lat="0" lon="0">
        <time>2020-12-20T09:56:26.786000+00:00</time>
      </trkpt>
      <trkpt lat="0" lon="0">
        <time>2020-12-20T09:56:26.793000+00:00</time>
      </trkpt>
      <trkpt lat="0" lon="0">
        <time>2020-12-20T09:56:26.798000+00:00</time>
      </trkpt>
      <trkpt lat="47.3456" lon="-1.3033">
        <ele>67</ele>
        <time>2020-12-20T09:56:27.774000+00:00</time>
      </trkpt>
      <trkpt lat="0" lon="0">
        <time>2020-12-20T09:56:27.794000+00:00</time>
      </trkpt>
      <trkpt lat="0" lon="0">
        <time>2020-12-20T09:56:27.798000+00:00</time>
      </trkpt>
      <trkpt lat="0" lon="0">
        <time>2020-12-20T09:56:27.800000+00:00</time>
      </trkpt>
      <trkpt lat="47.34559" lon="-1.30333">
        <ele>67</ele>
        <time>2020-12-20T09:56:28.800000+00:00</time>
      </trkpt>
      <trkpt lat="0" lon="0">
        <time>2020-12-20T09:56:28.811000+00:00</time>
      </trkpt>
      <trkpt lat="0" lon="0">
        <time>2020-12-20T09:56:28.815000+00:00</time>
      </trkpt>
      <trkpt lat="0" lon="0">
        <time>2020-12-20T09:56:28.818000+00:00</time>
      </trkpt>
      <trkpt lat="47.34559" lon="-1.30335">
        <ele>67</ele>
        <time>2020-12-20T09:56:29.798000+00:00</time>
      </trkpt>
      <trkpt lat="0" lon="0">
        <time>2020-12-20T09:56:29.804000+00:00</time>
      </trkpt>
      <trkpt lat="0" lon="0">
        <time>2020-12-20T09:56:29.810000+00:00</time>
      </trkpt>
      <trkpt lat="0" lon="0">
        <time>2020-12-20T09:56:29.812000+00:00</time>
      </trkpt>
      <trkpt lat="47.34559" lon="-1.30337">
        <ele>68</ele>
        <time>2020-12-20T09:56:30.750000+00:00</time>
      </trkpt>
      <trkpt lat="0" lon="0">
        <time>2020-12-20T09:56:30.757000+00:00</time>
      </trkpt>
      <trkpt lat="0" lon="0">
        <time>2020-12-20T09:56:30.762000+00:00</time>
      </trkpt>
      <trkpt lat="0" lon="0">
        <time>2020-12-20T09:56:30.764000+00:00</time>
      </trkpt>
      <trkpt lat="47.34558" lon="-1.3034">
        <ele>68</ele>
        <time>2020-12-20T09:56:31.791000+00:00</time>
      </trkpt>
      <trkpt lat="0" lon="0">
        <time>2020-12-20T09:56:31.811000+00:00</time>
      </trkpt>
      <trkpt lat="0" lon="0">
        <time>2020-12-20T09:56:31.812000+00:00</time>
      </trkpt>
      <trkpt lat="0" lon="0">
        <time>2020-12-20T09:56:31.814000+00:00</time>
      </trkpt>
      <trkpt lat="47.34558" lon="-1.30343">
        <ele>69</ele>
        <time>2020-12-20T09:56:32.761000+00:00</time>
      </trkpt>
      <trkpt lat="0" lon="0">
        <time>2020-12-20T09:56:32.768000+00:00</time>
      </trkpt>
      <trkpt lat="0" lon="0">
        <time>2020-12-20T09:56:32.772000+00:00</time>
      </trkpt>
      <trkpt lat="0" lon="0">
        <time>2020-12-20T09:56:32.778000+00:00</time>
      </trkpt>
      <trkpt lat="47.34558" lon="-1.30346">
        <ele>69</ele>
        <time>2020-12-20T09:56:33.754000+00:00</time>
      </trkpt>
      <trkpt lat="0" lon="0">
        <time>2020-12-20T09:56:33.765000+00:00</time>
      </trkpt>
      <trkpt lat="0" lon="0">
        <time>2020-12-20T09:56:33.769000+00:00</time>
      </trkpt>
      <trkpt lat="0" lon="0">
        <time>2020-12-20T09:56:33.772000+00:00</time>
      </trkpt>
      <trkpt lat="47.34558" lon="-1.30349">
        <ele>69</ele>
        <time>2020-12-20T09:56:34.775000+00:00</time>
      </trkpt>
      <trkpt lat="0" lon="0">
        <time>2020-12-20T09:56:34.784000+00:00</time>
      </trkpt>
      <trkpt lat="0" lon="0">
        <time>2020-12-20T09:56:34.794000+00:00</time>
      </trkpt>
      <trkpt lat="0" lon="0">
        <time>2020-12-20T09:56:34.797000+00:00</time>
      </trkpt>
      <trkpt lat="47.34557" lon="-1.30352">
        <ele>70</ele>
        <time>2020-12-20T09:56:35.745000+00:00</time>
      </trkpt>
      <trkpt lat="0" lon="0">
        <time>2020-12-20T09:56:35.756000+00:00</time>
      </trkpt>
      <trkpt lat="0" lon="0">
        <time>2020-12-20T09:56:35.763000+00:00</time>
      </trkpt>
      <trkpt lat="0" lon="0">
        <time>2020-12-20T09:56:35.765000+00:00</time>
      </trkpt>
      <trkpt lat="47.34557" lon="-1.30355">
        <ele>70</ele>
        <time>2020-12-20T09:56:36.779000+00:00</time>
      </trkpt>
      <trkpt lat="0" lon="0">
        <time>2020-12-20T09:56:36.784000+00:00</time>
      </trkpt>
      <trkpt lat="0" lon="0">
        <time>2020-12-20T09:56:36.788000+00:00</time>
      </trkpt>
      <trkpt lat="0" lon="0">
        <time>2020-12-20T09:56:36.793000+00:00</time>
      </trkpt>
      <trkpt lat="47.34557" lon="-1.30358">
        <ele>71</ele>
        <time>2020-12-20T09:56:37.761000+00:00</time>
      </trkpt>
      <trkpt lat="0" lon="0">
        <time>2020-12-20T09:56:37.771000+00:00</time>
      </trkpt>
      <trkpt lat="0" lon="0">
        <time>2020-12-20T09:56:37.777000+00:00</time>
      </trkpt>
      <trkpt lat="0" lon="0">
        <time>2020-12-20T09:56:37.780000+00:00</time>
      </trkpt>
      <trkpt lat="47.34556" lon="-1.30361">
        <ele>71</ele>
        <time>2020-12-20T09:56:38.795000+00:00</time>
      </trkpt>
      <trkpt lat="0" lon="0">
        <time>2020-12-20T09:56:38.804000+00:00</time>
      </trkpt>
      <trkpt lat="0" lon="0">
        <time>2020-12-20T09:56:38.808000+00:00</time>
      </trkpt>
      <trkpt lat="0" lon="0">
        <time>2020-12-20T09:56:38.811000+00:00</time>
      </trkpt>
      <trkpt lat="47.34556" lon="-1.30364">
        <ele>71</ele>
        <time>2020-12-20T09:56:39.766000+00:00</time>
      </trkpt>
      <trkpt lat="0" lon="0">
        <time>2020-12-20T09:56:39.773000+00:00</time>
      </trkpt>
      <trkpt lat="0" lon="0">
        <time>2020-12-20T09:56:39.778000+00:00</time>
      </trkpt>
      <trkpt lat="0" lon="0">
        <time>2020-12-20T09:56:39.780000+00:00</time>
      </trkpt>
      <trkpt lat="47.34555" lon="-1.30368">
        <ele>72</ele>
        <time>2020-12-20T09:56:40.803000+00:00</time>
      </trkpt>
      <trkpt lat="0" lon="0">
        <time>2020-12-20T09:56:40.810000+00:00</time>
      </trkpt>
      <trkpt lat="0" lon="0">
        <time>2020-12-20T09:56:40.822000+00:00</time>
      </trkpt>
      <trkpt lat="0" lon="0">
        <time>2020-12-20T09:56:40.824000+00:00</time>
      </trkpt>
      <trkpt lat="47.34555" lon="-1.30371">
        <ele>72</ele>
        <time>2020-12-20T09:56:41.801000+00:00</time>
      </trkpt>
      <trkpt lat="0" lon="0">
        <time>2020-12-20T09:56:41.809000+00:00</time>
      </trkpt>
      <trkpt lat="0" lon="0">
        <time>2020-12-20T09:56:41.814000+00:00</time>
      </trkpt>
      <trkpt lat="0" lon="0">
        <time>2020-12-20T09:56:41.818000+00:00</time>
      </trkpt>
      <trkpt lat="47.34554" lon="-1.30374">
        <ele>71</ele>
        <time>2020-12-20T09:56:42.802000+00:00</time>
      </trkpt>
      <trkpt lat="0" lon="0">
        <time>2020-12-20T09:56:42.807000+00:00</time>
      </trkpt>
      <trkpt lat="0" lon="0">
        <time>2020-12-20T09:56:42.814000+00:00</time>
      </trkpt>
      <trkpt lat="0" lon="0">
        <time>2020-12-20T09:56:42.819000+00:00</time>
      </trkpt>
      <trkpt lat="47.34554" lon="-1.30378">
        <ele>72</ele>
        <time>2020-12-20T09:56:43.761000+00:00</time>
      </trkpt>
      <trkpt lat="0" lon="0">
        <time>2020-12-20T09:56:43.767000+00:00</time>
      </trkpt>
      <trkpt lat="0" lon="0">
        <time>2020-12-20T09:56:43.769000+00:00</time>
      </trkpt>
      <trkpt lat="0" lon="0">
        <time>2020-12-20T09:56:43.771000+00:00</time>
      </trkpt>
      <trkpt lat="47.34554" lon="-1.30381">
        <ele>72</ele>
        <time>2020-12-20T09:56:44.778000+00:00</time>
      </trkpt>
      <trkpt lat="0" lon="0">
        <time>2020-12-20T09:56:44.794000+00:00</time>
      </trkpt>
      <trkpt lat="0" lon="0">
        <time>2020-12-20T09:56:44.799000+00:00</time>
      </trkpt>
      <trkpt lat="0" lon="0">
        <time>2020-12-20T09:56:44.813000+00:00</time>
      </trkpt>
      <trkpt lat="47.34553" lon="-1.30385">
        <ele>73</ele>
        <time>2020-12-20T09:56:45.735000+00:00</time>
      </trkpt>
      <trkpt lat="0" lon="0">
        <time>2020-12-20T09:56:45.744000+00:00</time>
      </trkpt>
      <trkpt lat="0" lon="0">
        <time>2020-12-20T09:56:45.755000+00:00</time>
      </trkpt>
      <trkpt lat="0" lon="0">
        <time>2020-12-20T09:56:45.757000+00:00</time>
      </trkpt>
      <trkpt lat="47.34553" lon="-1.30388">
        <ele>73</ele>
        <time>2020-12-20T09:56:46.787000+00:00</time>
      </trkpt>
      <trkpt lat="0" lon="0">
        <time>2020-12-20T09:56:46.803000+00:00</time>
      </trkpt>
      <trkpt lat="0" lon="0">
        <time>2020-12-20T09:56:46.811000+00:00</time>
      </trkpt>
      <trkpt lat="0" lon="0">
        <time>2020-12-20T09:56:46.812000+00:00</time>
      </trkpt>
      <trkpt lat="47.34552" lon="-1.30391">
        <ele>73</ele>
        <time>2020-12-20T09:56:47.785000+00:00</time>
      </trkpt>
      <trkpt lat="0" lon="0">
        <time>2020-12-20T09:56:47.800000+00:00</time>
      </trkpt>
      <trkpt lat="0" lon="0">
        <time>2020-12-20T09:56:47.804000+00:00</time>
      </trkpt>
      <trkpt lat="0" lon="0">
        <time>2020-12-20T09:56:47.807000+00:00</time>
      </trkpt>
      <trkpt lat="47.34552" lon="-1.30394">
        <ele>73</ele>
        <time>2020-12-20T09:56:48.769000+00:00</time>
      </trkpt>
      <trkpt lat="0" lon="0">
        <time>2020-12-20T09:56:48.782000+00:00</time>
      </trkpt>
      <trkpt lat="0" lon="0">
        <time>2020-12-20T09:56:48.787000+00:00</time>
      </trkpt>
      <trkpt lat="0" lon="0">
        <time>2020-12-20T09:56:48.790000+00:00</time>
      </trkpt>
      <trkpt lat="47.34551" lon="-1.30396">
        <ele>74</ele>
        <time>2020-12-20T09:56:49.757000+00:00</time>
      </trkpt>
      <trkpt lat="0" lon="0">
        <time>2020-12-20T09:56:49.762000+00:00</time>
      </trkpt>
      <trkpt lat="0" lon="0">
        <time>2020-12-20T09:56:49.766000+00:00</time>
      </trkpt>
      <trkpt lat="0" lon="0">
        <time>2020-12-20T09:56:49.768000+00:00</time>
      </trkpt>
      <trkpt lat="47.3455" lon="-1.30399">
        <ele>74</ele>
        <time>2020-12-20T09:56:50.749000+00:00</time>
      </trkpt>
      <trkpt lat="0" lon="0">
        <time>2020-12-20T09:56:50.757000+00:00</time>
      </trkpt>
      <trkpt lat="0" lon="0">
        <time>2020-12-20T09:56:50.761000+00:00</time>
      </trkpt>
      <trkpt lat="0" lon="0">
        <time>2020-12-20T09:56:50.764000+00:00</time>
      </trkpt>
      <trkpt lat="47.34549" lon="-1.30401">
        <ele>75</ele>
        <time>2020-12-20T09:56:51.794000+00:00</time>
      </trkpt>
      <trkpt lat="0" lon="0">
        <time>2020-12-20T09:56:51.806000+00:00</time>
      </trkpt>
      <trkpt lat="0" lon="0">
        <time>2020-12-20T09:56:51.813000+00:00</time>
      </trkpt>
      <trkpt lat="0" lon="0">
        <time>2020-12-20T09:56:51.816000+00:00</time>
      </trkpt>
      <trkpt lat="47.34548" lon="-1.30404">
        <ele>75</ele>
        <time>2020-12-20T09:56:52.762000+00:00</time>
      </trkpt>
      <trkpt lat="0" lon="0">
        <time>2020-12-20T09:56:52.771000+00:00</time>
      </trkpt>
      <trkpt lat="0" lon="0">
        <time>2020-12-20T09:56:52.775000+00:00</time>
      </trkpt>
      <trkpt lat="0" lon="0">
        <time>2020-12-20T09:56:52.777000+00:00</time>
      </trkpt>
      <trkpt lat="47.34547" lon="-1.30406">
        <ele>74</ele>
        <time>2020-12-20T09:56:53.780000+00:00</time>
      </trkpt>
      <trkpt lat="0" lon="0">
        <time>2020-12-20T09:56:53.785000+00:00</time>
      </trkpt>
      <trkpt lat="0" lon="0">
        <time>2020-12-20T09:56:53.790000+00:00</time>
      </trkpt>
      <trkpt lat="0" lon="0">
        <time>2020-12-20T09:56:53.793000+00:00</time>
      </trkpt>
      <trkpt lat="47.34546" lon="-1.30409">
        <ele>74</ele>
        <time>2020-12-20T09:56:54.780000+00:00</time>
      </trkpt>
      <trkpt lat="0" lon="0">
        <time>2020-12-20T09:56:54.788000+00:00</time>
      </trkpt>
      <trkpt lat="0" lon="0">
        <time>2020-12-20T09:56:54.796000+00:00</time>
      </trkpt>
      <trkpt lat="0" lon="0">
        <time>2020-12-20T09:56:54.798000+00:00</time>
      </trkpt>
      <trkpt lat="47.34545" lon="-1.30411">
        <ele>74</ele>
        <time>2020-12-20T09:56:55.812000+00:00</time>
      </trkpt>
      <trkpt lat="0" lon="0">
        <time>2020-12-20T09:56:55.816000+00:00</time>
      </trkpt>
      <trkpt lat="0" lon="0">
        <time>2020-12-20T09:56:55.822000+00:00</time>
      </trkpt>
      <trkpt lat="0" lon="0">
        <time>2020-12-20T09:56:55.823000+00:00</time>
      </trkpt>
      <trkpt lat="47.34544" lon="-1.30414">
        <ele>74</ele>
        <time>2020-12-20T09:56:56.788000+00:00</time>
      </trkpt>
      <trkpt lat="0" lon="0">
        <time>2020-12-20T09:56:56.795000+00:00</time>
      </trkpt>
      <trkpt lat="0" lon="0">
        <time>2020-12-20T09:56:56.800000+00:00</time>
      </trkpt>
      <trkpt lat="0" lon="0">
        <time>2020-12-20T09:56:56.803000+00:00</time>
      </trkpt>
      <trkpt lat="47.34543" lon="-1.30416">
        <ele>75</ele>
        <time>2020-12-20T09:56:57.791000+00:00</time>
      </trkpt>
      <trkpt lat="0" lon="0">
        <time>2020-12-20T09:56:57.806000+00:00</time>
      </trkpt>
      <trkpt lat="0" lon="0">
        <time>2020-12-20T09:56:57.817000+00:00</time>
      </trkpt>
      <trkpt lat="0" lon="0">
        <time>2020-12-20T09:56:57.818000+00:00</time>
      </trkpt>
      <trkpt lat="47.34542" lon="-1.30419">
        <ele>75</ele>
        <time>2020-12-20T09:56:58.792000+00:00</time>
      </trkpt>
      <trkpt lat="0" lon="0">
        <time>2020-12-20T09:56:58.805000+00:00</time>
      </trkpt>
      <trkpt lat="0" lon="0">
        <time>2020-12-20T09:56:58.812000+00:00</time>
      </trkpt>
      <trkpt lat="0" lon="0">
        <time>2020-12-20T09:56:58.814000+00:00</time>
      </trkpt>
      <trkpt lat="47.34541" lon="-1.30421">
        <ele>75</ele>
        <time>2020-12-20T09:56:59.778000+00:00</time>
      </trkpt>
      <trkpt lat="0" lon="0">
        <time>2020-12-20T09:56:59.790000+00:00</time>
      </trkpt>
      <trkpt lat="0" lon="0">
        <time>2020-12-20T09:56:59.794000+00:00</time>
      </trkpt>
      <trkpt lat="0" lon="0">
        <time>2020-12-20T09:56:59.797000+00:00</time>
      </trkpt>
      <trkpt lat="47.3454" lon="-1.30423">
        <ele>75</ele>
        <time>2020-12-20T09:57:00.777000+00:00</time>
      </trkpt>
      <trkpt lat="0" lon="0">
        <time>2020-12-20T09:57:00.784000+00:00</time>
      </trkpt>
      <trkpt lat="0" lon="0">
        <time>2020-12-20T09:57:00.788000+00:00</time>
      </trkpt>
      <trkpt lat="0" lon="0">
        <time>2020-12-20T09:57:00.791000+00:00</time>
      </trkpt>
      <trkpt lat="47.34539" lon="-1.30426">
        <ele>75</ele>
        <time>2020-12-20T09:57:01.759000+00:00</time>
      </trkpt>
      <trkpt lat="0" lon="0">
        <time>2020-12-20T09:57:01.768000+00:00</time>
      </trkpt>
      <trkpt lat="0" lon="0">
        <time>2020-12-20T09:57:01.770000+00:00</time>
      </trkpt>
      <trkpt lat="0" lon="0">
        <time>2020-12-20T09:57:01.771000+00:00</time>
      </trkpt>
      <trkpt lat="47.34538" lon="-1.30428">
        <ele>76</ele>
        <time>2020-12-20T09:57:02.781000+00:00</time>
      </trkpt>
      <trkpt lat="0" lon="0">
        <time>2020-12-20T09:57:02.797000+00:00</time>
      </trkpt>
      <trkpt lat="0" lon="0">
        <time>2020-12-20T09:57:02.802000+00:00</time>
      </trkpt>
      <trkpt lat="0" lon="0">
        <time>2020-12-20T09:57:02.804000+00:00</time>
      </trkpt>
      <trkpt lat="47.34537" lon="-1.30431">
        <ele>76</ele>
        <time>2020-12-20T09:57:03.757000+00:00</time>
      </trkpt>
      <trkpt lat="0" lon="0">
        <time>2020-12-20T09:57:03.766000+00:00</time>
      </trkpt>
      <trkpt lat="0" lon="0">
        <time>2020-12-20T09:57:03.770000+00:00</time>
      </trkpt>
      <trkpt lat="0" lon="0">
        <time>2020-12-20T09:57:03.772000+00:00</time>
      </trkpt>
      <trkpt lat="47.34536" lon="-1.30434">
        <ele>76</ele>
        <time>2020-12-20T09:57:04.709000+00:00</time>
      </trkpt>
      <trkpt lat="0" lon="0">
        <time>2020-12-20T09:57:04.722000+00:00</time>
      </trkpt>
      <trkpt lat="0" lon="0">
        <time>2020-12-20T09:57:04.728000+00:00</time>
      </trkpt>
      <trkpt lat="0" lon="0">
        <time>2020-12-20T09:57:04.732000+00:00</time>
      </trkpt>
      <trkpt lat="47.34535" lon="-1.30436">
        <ele>77</ele>
        <time>2020-12-20T09:57:05.775000+00:00</time>
      </trkpt>
      <trkpt lat="0" lon="0">
        <time>2020-12-20T09:57:05.783000+00:00</time>
      </trkpt>
      <trkpt lat="0" lon="0">
        <time>2020-12-20T09:57:05.787000+00:00</time>
      </trkpt>
      <trkpt lat="0" lon="0">
        <time>2020-12-20T09:57:05.790000+00:00</time>
      </trkpt>
      <trkpt lat="47.34534" lon="-1.30439">
        <ele>77</ele>
        <time>2020-12-20T09:57:06.780000+00:00</time>
      </trkpt>
      <trkpt lat="0" lon="0">
        <time>2020-12-20T09:57:06.792000+00:00</time>
      </trkpt>
      <trkpt lat="0" lon="0">
        <time>2020-12-20T09:57:06.801000+00:00</time>
      </trkpt>
      <trkpt lat="0" lon="0">
        <time>2020-12-20T09:57:06.803000+00:00</time>
      </trkpt>
      <trkpt lat="47.34533" lon="-1.30442">
        <ele>77</ele>
        <time>2020-12-20T09:57:07.809000+00:00</time>
      </trkpt>
      <trkpt lat="0" lon="0">
        <time>2020-12-20T09:57:07.816000+00:00</time>
      </trkpt>
      <trkpt lat="0" lon="0">
        <time>2020-12-20T09:57:07.818000+00:00</time>
      </trkpt>
      <trkpt lat="0" lon="0">
        <time>2020-12-20T09:57:07.819000+00:00</time>
      </trkpt>
      <trkpt lat="47.34533" lon="-1.30445">
        <ele>77</ele>
        <time>2020-12-20T09:57:08.730000+00:00</time>
      </trkpt>
      <trkpt lat="0" lon="0">
        <time>2020-12-20T09:57:08.747000+00:00</time>
      </trkpt>
      <trkpt lat="0" lon="0">
        <time>2020-12-20T09:57:08.751000+00:00</time>
      </trkpt>
      <trkpt lat="0" lon="0">
        <time>2020-12-20T09:57:08.757000+00:00</time>
      </trkpt>
      <trkpt lat="47.34532" lon="-1.30448">
        <ele>77</ele>
        <time>2020-12-20T09:57:09.763000+00:00</time>
      </trkpt>
      <trkpt lat="0" lon="0">
        <time>2020-12-20T09:57:09.772000+00:00</time>
      </trkpt>
      <trkpt lat="0" lon="0">
        <time>2020-12-20T09:57:09.776000+00:00</time>
      </trkpt>
      <trkpt lat="0" lon="0">
        <time>2020-12-20T09:57:09.779000+00:00</time>
      </trkpt>
      <trkpt lat="47.34531" lon="-1.30451">
        <ele>77</ele>
        <time>2020-12-20T09:57:10.776000+00:00</time>
      </trkpt>
      <trkpt lat="0" lon="0">
        <time>2020-12-20T09:57:10.794000+00:00</time>
      </trkpt>
      <trkpt lat="0" lon="0">
        <time>2020-12-20T09:57:10.799000+00:00</time>
      </trkpt>
      <trkpt lat="0" lon="0">
        <time>2020-12-20T09:57:10.803000+00:00</time>
      </trkpt>
      <trkpt lat="47.3453" lon="-1.30454">
        <ele>77</ele>
        <time>2020-12-20T09:57:11.803000+00:00</time>
      </trkpt>
      <trkpt lat="0" lon="0">
        <time>2020-12-20T09:57:11.820000+00:00</time>
      </trkpt>
      <trkpt lat="0" lon="0">
        <time>2020-12-20T09:57:11.824000+00:00</time>
      </trkpt>
      <trkpt lat="0" lon="0">
        <time>2020-12-20T09:57:11.828000+00:00</time>
      </trkpt>
      <trkpt lat="47.34529" lon="-1.30457">
        <ele>77</ele>
        <time>2020-12-20T09:57:12.780000+00:00</time>
      </trkpt>
      <trkpt lat="0" lon="0">
        <time>2020-12-20T09:57:12.798000+00:00</time>
      </trkpt>
      <trkpt lat="0" lon="0">
        <time>2020-12-20T09:57:12.808000+00:00</time>
      </trkpt>
      <trkpt lat="0" lon="0">
        <time>2020-12-20T09:57:12.811000+00:00</time>
      </trkpt>
      <trkpt lat="47.34529" lon="-1.30461">
        <ele>78</ele>
        <time>2020-12-20T09:57:13.790000+00:00</time>
      </trkpt>
      <trkpt lat="0" lon="0">
        <time>2020-12-20T09:57:13.799000+00:00</time>
      </trkpt>
      <trkpt lat="0" lon="0">
        <time>2020-12-20T09:57:13.803000+00:00</time>
      </trkpt>
      <trkpt lat="0" lon="0">
        <time>2020-12-20T09:57:13.807000+00:00</time>
      </trkpt>
      <trkpt lat="47.34528" lon="-1.30464">
        <ele>78</ele>
        <time>2020-12-20T09:57:14.787000+00:00</time>
      </trkpt>
      <trkpt lat="0" lon="0">
        <time>2020-12-20T09:57:14.794000+00:00</time>
      </trkpt>
      <trkpt lat="0" lon="0">
        <time>2020-12-20T09:57:14.800000+00:00</time>
      </trkpt>
      <trkpt lat="0" lon="0">
        <time>2020-12-20T09:57:14.802000+00:00</time>
      </trkpt>
      <trkpt lat="47.34527" lon="-1.30467">
        <ele>78</ele>
        <time>2020-12-20T09:57:15.791000+00:00</time>
      </trkpt>
      <trkpt lat="0" lon="0">
        <time>2020-12-20T09:57:15.807000+00:00</time>
      </trkpt>
      <trkpt lat="0" lon="0">
        <time>2020-12-20T09:57:15.816000+00:00</time>
      </trkpt>
      <trkpt lat="0" lon="0">
        <time>2020-12-20T09:57:15.823000+00:00</time>
      </trkpt>
      <trkpt lat="47.34526" lon="-1.3047">
        <ele>78</ele>
        <time>2020-12-20T09:57:16.764000+00:00</time>
      </trkpt>
      <trkpt lat="0" lon="0">
        <time>2020-12-20T09:57:16.774000+00:00</time>
      </trkpt>
      <trkpt lat="0" lon="0">
        <time>2020-12-20T09:57:16.780000+00:00</time>
      </trkpt>
      <trkpt lat="0" lon="0">
        <time>2020-12-20T09:57:16.782000+00:00</time>
      </trkpt>
      <trkpt lat="47.34524" lon="-1.30473">
        <ele>78</ele>
        <time>2020-12-20T09:57:17.747000+00:00</time>
      </trkpt>
      <trkpt lat="0" lon="0">
        <time>2020-12-20T09:57:17.758000+00:00</time>
      </trkpt>
      <trkpt lat="0" lon="0">
        <time>2020-12-20T09:57:17.767000+00:00</time>
      </trkpt>
      <trkpt lat="0" lon="0">
        <time>2020-12-20T09:57:17.769000+00:00</time>
      </trkpt>
      <trkpt lat="47.34523" lon="-1.30476">
        <ele>78</ele>
        <time>2020-12-20T09:57:18.796000+00:00</time>
      </trkpt>
      <trkpt lat="0" lon="0">
        <time>2020-12-20T09:57:18.806000+00:00</time>
      </trkpt>
      <trkpt lat="0" lon="0">
        <time>2020-12-20T09:57:18.815000+00:00</time>
      </trkpt>
      <trkpt lat="0" lon="0">
        <time>2020-12-20T09:57:18.821000+00:00</time>
      </trkpt>
      <trkpt lat="47.34521" lon="-1.30479">
        <ele>79</ele>
        <time>2020-12-20T09:57:19.754000+00:00</time>
      </trkpt>
      <trkpt lat="0" lon="0">
        <time>2020-12-20T09:57:19.771000+00:00</time>
      </trkpt>
      <trkpt lat="0" lon="0">
        <time>2020-12-20T09:57:19.775000+00:00</time>
      </trkpt>
      <trkpt lat="0" lon="0">
        <time>2020-12-20T09:57:19.777000+00:00</time>
      </trkpt>
      <trkpt lat="47.3452" lon="-1.30481">
        <ele>79</ele>
        <time>2020-12-20T09:57:20.825000+00:00</time>
      </trkpt>
      <trkpt lat="0" lon="0">
        <time>2020-12-20T09:57:20.838000+00:00</time>
      </trkpt>
      <trkpt lat="0" lon="0">
        <time>2020-12-20T09:57:20.845000+00:00</time>
      </trkpt>
      <trkpt lat="0" lon="0">
        <time>2020-12-20T09:57:20.849000+00:00</time>
      </trkpt>
      <trkpt lat="47.34518" lon="-1.30483">
        <ele>79</ele>
        <time>2020-12-20T09:57:21.773000+00:00</time>
      </trkpt>
      <trkpt lat="0" lon="0">
        <time>2020-12-20T09:57:21.778000+00:00</time>
      </trkpt>
      <trkpt lat="0" lon="0">
        <time>2020-12-20T09:57:21.782000+00:00</time>
      </trkpt>
      <trkpt lat="0" lon="0">
        <time>2020-12-20T09:57:21.785000+00:00</time>
      </trkpt>
      <trkpt lat="47.34516" lon="-1.30485">
        <ele>78</ele>
        <time>2020-12-20T09:57:22.790000+00:00</time>
      </trkpt>
      <trkpt lat="0" lon="0">
        <time>2020-12-20T09:57:22.796000+00:00</time>
      </trkpt>
      <trkpt lat="0" lon="0">
        <time>2020-12-20T09:57:22.806000+00:00</time>
      </trkpt>
      <trkpt lat="0" lon="0">
        <time>2020-12-20T09:57:22.808000+00:00</time>
      </trkpt>
      <trkpt lat="47.34514" lon="-1.30487">
        <ele>77</ele>
        <time>2020-12-20T09:57:23.772000+00:00</time>
      </trkpt>
      <trkpt lat="0" lon="0">
        <time>2020-12-20T09:57:23.786000+00:00</time>
      </trkpt>
      <trkpt lat="0" lon="0">
        <time>2020-12-20T09:57:23.791000+00:00</time>
      </trkpt>
      <trkpt lat="0" lon="0">
        <time>2020-12-20T09:57:23.794000+00:00</time>
      </trkpt>
      <trkpt lat="47.34512" lon="-1.30488">
        <ele>77</ele>
        <time>2020-12-20T09:57:24.771000+00:00</time>
      </trkpt>
      <trkpt lat="0" lon="0">
        <time>2020-12-20T09:57:24.775000+00:00</time>
      </trkpt>
      <trkpt lat="0" lon="0">
        <time>2020-12-20T09:57:24.777000+00:00</time>
      </trkpt>
      <trkpt lat="0" lon="0">
        <time>2020-12-20T09:57:24.778000+00:00</time>
      </trkpt>
      <trkpt lat="47.3451" lon="-1.30489">
        <ele>77</ele>
        <time>2020-12-20T09:57:25.763000+00:00</time>
      </trkpt>
      <trkpt lat="0" lon="0">
        <time>2020-12-20T09:57:25.771000+00:00</time>
      </trkpt>
      <trkpt lat="0" lon="0">
        <time>2020-12-20T09:57:25.782000+00:00</time>
      </trkpt>
      <trkpt lat="0" lon="0">
        <time>2020-12-20T09:57:25.786000+00:00</time>
      </trkpt>
      <trkpt lat="47.34507" lon="-1.3049">
        <ele>77</ele>
        <time>2020-12-20T09:57:26.791000+00:00</time>
      </trkpt>
      <trkpt lat="0" lon="0">
        <time>2020-12-20T09:57:26.801000+00:00</time>
      </trkpt>
      <trkpt lat="0" lon="0">
        <time>2020-12-20T09:57:26.806000+00:00</time>
      </trkpt>
      <trkpt lat="0" lon="0">
        <time>2020-12-20T09:57:26.812000+00:00</time>
      </trkpt>
      <trkpt lat="47.34505" lon="-1.3049">
        <ele>77</ele>
        <time>2020-12-20T09:57:27.807000+00:00</time>
      </trkpt>
      <trkpt lat="0" lon="0">
        <time>2020-12-20T09:57:27.811000+00:00</time>
      </trkpt>
      <trkpt lat="0" lon="0">
        <time>2020-12-20T09:57:27.828000+00:00</time>
      </trkpt>
      <trkpt lat="0" lon="0">
        <time>2020-12-20T09:57:27.830000+00:00</time>
      </trkpt>
      <trkpt lat="47.34503" lon="-1.3049">
        <ele>77</ele>
        <time>2020-12-20T09:57:28.794000+00:00</time>
      </trkpt>
      <trkpt lat="0" lon="0">
        <time>2020-12-20T09:57:28.799000+00:00</time>
      </trkpt>
      <trkpt lat="0" lon="0">
        <time>2020-12-20T09:57:28.805000+00:00</time>
      </trkpt>
      <trkpt lat="0" lon="0">
        <time>2020-12-20T09:57:28.807000+00:00</time>
      </trkpt>
      <trkpt lat="47.34501" lon="-1.3049">
        <ele>78</ele>
        <time>2020-12-20T09:57:29.756000+00:00</time>
      </trkpt>
      <trkpt lat="0" lon="0">
        <time>2020-12-20T09:57:29.774000+00:00</time>
      </trkpt>
      <trkpt lat="0" lon="0">
        <time>2020-12-20T09:57:29.781000+00:00</time>
      </trkpt>
      <trkpt lat="0" lon="0">
        <time>2020-12-20T09:57:29.785000+00:00</time>
      </trkpt>
      <trkpt lat="47.34498" lon="-1.3049">
        <ele>79</ele>
        <time>2020-12-20T09:57:30.789000+00:00</time>
      </trkpt>
      <trkpt lat="0" lon="0">
        <time>2020-12-20T09:57:30.794000+00:00</time>
      </trkpt>
      <trkpt lat="0" lon="0">
        <time>2020-12-20T09:57:30.805000+00:00</time>
      </trkpt>
      <trkpt lat="0" lon="0">
        <time>2020-12-20T09:57:30.810000+00:00</time>
      </trkpt>
      <trkpt lat="47.34496" lon="-1.3049">
        <ele>79</ele>
        <time>2020-12-20T09:57:31.803000+00:00</time>
      </trkpt>
      <trkpt lat="0" lon="0">
        <time>2020-12-20T09:57:31.809000+00:00</time>
      </trkpt>
      <trkpt lat="0" lon="0">
        <time>2020-12-20T09:57:31.813000+00:00</time>
      </trkpt>
      <trkpt lat="0" lon="0">
        <time>2020-12-20T09:57:31.814000+00:00</time>
      </trkpt>
      <trkpt lat="47.34494" lon="-1.3049">
        <ele>79</ele>
        <time>2020-12-20T09:57:32.766000+00:00</time>
      </trkpt>
      <trkpt lat="0" lon="0">
        <time>2020-12-20T09:57:32.772000+00:00</time>
      </trkpt>
      <trkpt lat="0" lon="0">
        <time>2020-12-20T09:57:32.776000+00:00</time>
      </trkpt>
      <trkpt lat="0" lon="0">
        <time>2020-12-20T09:57:32.779000+00:00</time>
      </trkpt>
      <trkpt lat="47.34492" lon="-1.30491">
        <ele>79</ele>
        <time>2020-12-20T09:57:33.778000+00:00</time>
      </trkpt>
      <trkpt lat="0" lon="0">
        <time>2020-12-20T09:57:33.793000+00:00</time>
      </trkpt>
      <trkpt lat="0" lon="0">
        <time>2020-12-20T09:57:33.801000+00:00</time>
      </trkpt>
      <trkpt lat="0" lon="0">
        <time>2020-12-20T09:57:33.806000+00:00</time>
      </trkpt>
      <trkpt lat="47.34491" lon="-1.30493">
        <ele>79</ele>
        <time>2020-12-20T09:57:34.743000+00:00</time>
      </trkpt>
      <trkpt lat="0" lon="0">
        <time>2020-12-20T09:57:34.753000+00:00</time>
      </trkpt>
      <trkpt lat="0" lon="0">
        <time>2020-12-20T09:57:34.759000+00:00</time>
      </trkpt>
      <trkpt lat="0" lon="0">
        <time>2020-12-20T09:57:34.766000+00:00</time>
      </trkpt>
      <trkpt lat="47.34489" lon="-1.30495">
        <ele>80</ele>
        <time>2020-12-20T09:57:35.759000+00:00</time>
      </trkpt>
      <trkpt lat="0" lon="0">
        <time>2020-12-20T09:57:35.779000+00:00</time>
      </trkpt>
      <trkpt lat="0" lon="0">
        <time>2020-12-20T09:57:35.788000+00:00</time>
      </trkpt>
      <trkpt lat="0" lon="0">
        <time>2020-12-20T09:57:35.791000+00:00</time>
      </trkpt>
      <trkpt lat="47.34488" lon="-1.30497">
        <ele>81</ele>
        <time>2020-12-20T09:57:36.757000+00:00</time>
      </trkpt>
      <trkpt lat="0" lon="0">
        <time>2020-12-20T09:57:36.764000+00:00</time>
      </trkpt>
      <trkpt lat="0" lon="0">
        <time>2020-12-20T09:57:36.771000+00:00</time>
      </trkpt>
      <trkpt lat="0" lon="0">
        <time>2020-12-20T09:57:36.774000+00:00</time>
      </trkpt>
      <trkpt lat="47.34487" lon="-1.30499">
        <ele>81</ele>
        <time>2020-12-20T09:57:37.765000+00:00</time>
      </trkpt>
      <trkpt lat="0" lon="0">
        <time>2020-12-20T09:57:37.778000+00:00</time>
      </trkpt>
      <trkpt lat="0" lon="0">
        <time>2020-12-20T09:57:37.786000+00:00</time>
      </trkpt>
      <trkpt lat="0" lon="0">
        <time>2020-12-20T09:57:37.788000+00:00</time>
      </trkpt>
      <trkpt lat="47.34486" lon="-1.30502">
        <ele>82</ele>
        <time>2020-12-20T09:57:38.792000+00:00</time>
      </trkpt>
      <trkpt lat="0" lon="0">
        <time>2020-12-20T09:57:38.801000+00:00</time>
      </trkpt>
      <trkpt lat="0" lon="0">
        <time>2020-12-20T09:57:38.808000+00:00</time>
      </trkpt>
      <trkpt lat="0" lon="0">
        <time>2020-12-20T09:57:38.811000+00:00</time>
      </trkpt>
      <trkpt lat="47.34485" lon="-1.30504">
        <ele>82</ele>
        <time>2020-12-20T09:57:39.758000+00:00</time>
      </trkpt>
      <trkpt lat="0" lon="0">
        <time>2020-12-20T09:57:39.776000+00:00</time>
      </trkpt>
      <trkpt lat="0" lon="0">
        <time>2020-12-20T09:57:39.785000+00:00</time>
      </trkpt>
      <trkpt lat="0" lon="0">
        <time>2020-12-20T09:57:39.796000+00:00</time>
      </trkpt>
      <trkpt lat="47.34484" lon="-1.30507">
        <ele>82</ele>
        <time>2020-12-20T09:57:40.818000+00:00</time>
      </trkpt>
      <trkpt lat="0" lon="0">
        <time>2020-12-20T09:57:40.839000+00:00</time>
      </trkpt>
      <trkpt lat="0" lon="0">
        <time>2020-12-20T09:57:40.843000+00:00</time>
      </trkpt>
      <trkpt lat="0" lon="0">
        <time>2020-12-20T09:57:40.847000+00:00</time>
      </trkpt>
      <trkpt lat="47.34483" lon="-1.30509">
        <ele>83</ele>
        <time>2020-12-20T09:57:41.762000+00:00</time>
      </trkpt>
      <trkpt lat="0" lon="0">
        <time>2020-12-20T09:57:41.768000+00:00</time>
      </trkpt>
      <trkpt lat="0" lon="0">
        <time>2020-12-20T09:57:41.772000+00:00</time>
      </trkpt>
      <trkpt lat="0" lon="0">
        <time>2020-12-20T09:57:41.774000+00:00</time>
      </trkpt>
      <trkpt lat="47.34482" lon="-1.30511">
        <ele>83</ele>
        <time>2020-12-20T09:57:42.728000+00:00</time>
      </trkpt>
      <trkpt lat="0" lon="0">
        <time>2020-12-20T09:57:42.744000+00:00</time>
      </trkpt>
      <trkpt lat="0" lon="0">
        <time>2020-12-20T09:57:42.754000+00:00</time>
      </trkpt>
      <trkpt lat="0" lon="0">
        <time>2020-12-20T09:57:42.756000+00:00</time>
      </trkpt>
      <trkpt lat="47.34482" lon="-1.30513">
        <ele>83</ele>
        <time>2020-12-20T09:57:43.776000+00:00</time>
      </trkpt>
      <trkpt lat="0" lon="0">
        <time>2020-12-20T09:57:43.783000+00:00</time>
      </trkpt>
      <trkpt lat="0" lon="0">
        <time>2020-12-20T09:57:43.802000+00:00</time>
      </trkpt>
      <trkpt lat="0" lon="0">
        <time>2020-12-20T09:57:43.807000+00:00</time>
      </trkpt>
      <trkpt lat="47.34481" lon="-1.30515">
        <ele>84</ele>
        <time>2020-12-20T09:57:44.742000+00:00</time>
      </trkpt>
      <trkpt lat="0" lon="0">
        <time>2020-12-20T09:57:44.748000+00:00</time>
      </trkpt>
      <trkpt lat="0" lon="0">
        <time>2020-12-20T09:57:44.753000+00:00</time>
      </trkpt>
      <trkpt lat="0" lon="0">
        <time>2020-12-20T09:57:44.759000+00:00</time>
      </trkpt>
      <trkpt lat="47.3448" lon="-1.30517">
        <ele>84</ele>
        <time>2020-12-20T09:57:45.749000+00:00</time>
      </trkpt>
      <trkpt lat="0" lon="0">
        <time>2020-12-20T09:57:45.758000+00:00</time>
      </trkpt>
      <trkpt lat="0" lon="0">
        <time>2020-12-20T09:57:45.762000+00:00</time>
      </trkpt>
      <trkpt lat="0" lon="0">
        <time>2020-12-20T09:57:45.765000+00:00</time>
      </trkpt>
      <trkpt lat="47.3448" lon="-1.30518">
        <ele>83</ele>
        <time>2020-12-20T09:57:46.755000+00:00</time>
      </trkpt>
      <trkpt lat="0" lon="0">
        <time>2020-12-20T09:57:46.771000+00:00</time>
      </trkpt>
      <trkpt lat="0" lon="0">
        <time>2020-12-20T09:57:46.777000+00:00</time>
      </trkpt>
      <trkpt lat="0" lon="0">
        <time>2020-12-20T09:57:46.781000+00:00</time>
      </trkpt>
      <trkpt lat="47.34479" lon="-1.3052">
        <ele>84</ele>
        <time>2020-12-20T09:57:47.753000+00:00</time>
      </trkpt>
      <trkpt lat="0" lon="0">
        <time>2020-12-20T09:57:47.763000+00:00</time>
      </trkpt>
      <trkpt lat="0" lon="0">
        <time>2020-12-20T09:57:47.771000+00:00</time>
      </trkpt>
      <trkpt lat="0" lon="0">
        <time>2020-12-20T09:57:47.773000+00:00</time>
      </trkpt>
      <trkpt lat="47.34478" lon="-1.30522">
        <ele>84</ele>
        <time>2020-12-20T09:57:48.722000+00:00</time>
      </trkpt>
      <trkpt lat="0" lon="0">
        <time>2020-12-20T09:57:48.727000+00:00</time>
      </trkpt>
      <trkpt lat="0" lon="0">
        <time>2020-12-20T09:57:48.736000+00:00</time>
      </trkpt>
      <trkpt lat="0" lon="0">
        <time>2020-12-20T09:57:48.738000+00:00</time>
      </trkpt>
      <trkpt lat="47.34478" lon="-1.30524">
        <ele>84</ele>
        <time>2020-12-20T09:57:49.795000+00:00</time>
      </trkpt>
      <trkpt lat="0" lon="0">
        <time>2020-12-20T09:57:49.804000+00:00</time>
      </trkpt>
      <trkpt lat="0" lon="0">
        <time>2020-12-20T09:57:49.811000+00:00</time>
      </trkpt>
      <trkpt lat="0" lon="0">
        <time>2020-12-20T09:57:49.815000+00:00</time>
      </trkpt>
      <trkpt lat="47.34477" lon="-1.30526">
        <ele>84</ele>
        <time>2020-12-20T09:57:50.787000+00:00</time>
      </trkpt>
      <trkpt lat="0" lon="0">
        <time>2020-12-20T09:57:50.800000+00:00</time>
      </trkpt>
      <trkpt lat="0" lon="0">
        <time>2020-12-20T09:57:50.805000+00:00</time>
      </trkpt>
      <trkpt lat="0" lon="0">
        <time>2020-12-20T09:57:50.808000+00:00</time>
      </trkpt>
      <trkpt lat="47.34476" lon="-1.30528">
        <ele>84</ele>
        <time>2020-12-20T09:57:51.782000+00:00</time>
      </trkpt>
      <trkpt lat="0" lon="0">
        <time>2020-12-20T09:57:51.790000+00:00</time>
      </trkpt>
      <trkpt lat="0" lon="0">
        <time>2020-12-20T09:57:51.794000+00:00</time>
      </trkpt>
      <trkpt lat="0" lon="0">
        <time>2020-12-20T09:57:51.796000+00:00</time>
      </trkpt>
      <trkpt lat="47.34476" lon="-1.3053">
        <ele>84</ele>
        <time>2020-12-20T09:57:52.767000+00:00</time>
      </trkpt>
      <trkpt lat="0" lon="0">
        <time>2020-12-20T09:57:52.778000+00:00</time>
      </trkpt>
      <trkpt lat="0" lon="0">
        <time>2020-12-20T09:57:52.786000+00:00</time>
      </trkpt>
      <trkpt lat="0" lon="0">
        <time>2020-12-20T09:57:52.789000+00:00</time>
      </trkpt>
      <trkpt lat="47.34475" lon="-1.30532">
        <ele>85</ele>
        <time>2020-12-20T09:57:53.804000+00:00</time>
      </trkpt>
      <trkpt lat="0" lon="0">
        <time>2020-12-20T09:57:53.816000+00:00</time>
      </trkpt>
      <trkpt lat="0" lon="0">
        <time>2020-12-20T09:57:53.822000+00:00</time>
      </trkpt>
      <trkpt lat="0" lon="0">
        <time>2020-12-20T09:57:53.825000+00:00</time>
      </trkpt>
      <trkpt lat="47.34474" lon="-1.30533">
        <ele>86</ele>
        <time>2020-12-20T09:57:54.794000+00:00</time>
      </trkpt>
      <trkpt lat="0" lon="0">
        <time>2020-12-20T09:57:54.803000+00:00</time>
      </trkpt>
      <trkpt lat="0" lon="0">
        <time>2020-12-20T09:57:54.810000+00:00</time>
      </trkpt>
      <trkpt lat="0" lon="0">
        <time>2020-12-20T09:57:54.813000+00:00</time>
      </trkpt>
      <trkpt lat="47.34473" lon="-1.30535">
        <ele>87</ele>
        <time>2020-12-20T09:57:55.793000+00:00</time>
      </trkpt>
      <trkpt lat="0" lon="0">
        <time>2020-12-20T09:57:55.810000+00:00</time>
      </trkpt>
      <trkpt lat="0" lon="0">
        <time>2020-12-20T09:57:55.817000+00:00</time>
      </trkpt>
      <trkpt lat="0" lon="0">
        <time>2020-12-20T09:57:55.821000+00:00</time>
      </trkpt>
      <trkpt lat="47.34473" lon="-1.30537">
        <ele>87</ele>
        <time>2020-12-20T09:57:56.767000+00:00</time>
      </trkpt>
      <trkpt lat="0" lon="0">
        <time>2020-12-20T09:57:56.772000+00:00</time>
      </trkpt>
      <trkpt lat="0" lon="0">
        <time>2020-12-20T09:57:56.778000+00:00</time>
      </trkpt>
      <trkpt lat="0" lon="0">
        <time>2020-12-20T09:57:56.781000+00:00</time>
      </trkpt>
      <trkpt lat="47.34472" lon="-1.30539">
        <ele>87</ele>
        <time>2020-12-20T09:57:57.803000+00:00</time>
      </trkpt>
      <trkpt lat="0" lon="0">
        <time>2020-12-20T09:57:57.812000+00:00</time>
      </trkpt>
      <trkpt lat="0" lon="0">
        <time>2020-12-20T09:57:57.816000+00:00</time>
      </trkpt>
      <trkpt lat="0" lon="0">
        <time>2020-12-20T09:57:57.819000+00:00</time>
      </trkpt>
      <trkpt lat="47.34471" lon="-1.30541">
        <ele>88</ele>
        <time>2020-12-20T09:57:58.807000+00:00</time>
      </trkpt>
      <trkpt lat="0" lon="0">
        <time>2020-12-20T09:57:58.809000+00:00</time>
      </trkpt>
      <trkpt lat="0" lon="0">
        <time>2020-12-20T09:57:58.811000+00:00</time>
      </trkpt>
      <trkpt lat="0" lon="0">
        <time>2020-12-20T09:57:58.812000+00:00</time>
      </trkpt>
      <trkpt lat="47.34471" lon="-1.30543">
        <ele>88</ele>
        <time>2020-12-20T09:57:59.765000+00:00</time>
      </trkpt>
      <trkpt lat="0" lon="0">
        <time>2020-12-20T09:57:59.774000+00:00</time>
      </trkpt>
      <trkpt lat="0" lon="0">
        <time>2020-12-20T09:57:59.785000+00:00</time>
      </trkpt>
      <trkpt lat="0" lon="0">
        <time>2020-12-20T09:57:59.788000+00:00</time>
      </trkpt>
      <trkpt lat="47.34471" lon="-1.30545">
        <ele>88</ele>
        <time>2020-12-20T09:58:00.780000+00:00</time>
      </trkpt>
      <trkpt lat="0" lon="0">
        <time>2020-12-20T09:58:00.784000+00:00</time>
      </trkpt>
      <trkpt lat="0" lon="0">
        <time>2020-12-20T09:58:00.791000+00:00</time>
      </trkpt>
      <trkpt lat="0" lon="0">
        <time>2020-12-20T09:58:00.794000+00:00</time>
      </trkpt>
      <trkpt lat="47.34471" lon="-1.30547">
        <ele>88</ele>
        <time>2020-12-20T09:58:01.826000+00:00</time>
      </trkpt>
      <trkpt lat="0" lon="0">
        <time>2020-12-20T09:58:01.848000+00:00</time>
      </trkpt>
      <trkpt lat="0" lon="0">
        <time>2020-12-20T09:58:01.852000+00:00</time>
      </trkpt>
      <trkpt lat="0" lon="0">
        <time>2020-12-20T09:58:01.859000+00:00</time>
      </trkpt>
      <trkpt lat="47.3447" lon="-1.30549">
        <ele>89</ele>
        <time>2020-12-20T09:58:02.791000+00:00</time>
      </trkpt>
      <trkpt lat="0" lon="0">
        <time>2020-12-20T09:58:02.800000+00:00</time>
      </trkpt>
      <trkpt lat="0" lon="0">
        <time>2020-12-20T09:58:02.806000+00:00</time>
      </trkpt>
      <trkpt lat="0" lon="0">
        <time>2020-12-20T09:58:02.815000+00:00</time>
      </trkpt>
      <trkpt lat="47.3447" lon="-1.30551">
        <ele>89</ele>
        <time>2020-12-20T09:58:03.768000+00:00</time>
      </trkpt>
      <trkpt lat="0" lon="0">
        <time>2020-12-20T09:58:03.778000+00:00</time>
      </trkpt>
      <trkpt lat="0" lon="0">
        <time>2020-12-20T09:58:03.783000+00:00</time>
      </trkpt>
      <trkpt lat="0" lon="0">
        <time>2020-12-20T09:58:03.785000+00:00</time>
      </trkpt>
      <trkpt lat="47.3447" lon="-1.30554">
        <ele>89</ele>
        <time>2020-12-20T09:58:04.791000+00:00</time>
      </trkpt>
      <trkpt lat="0" lon="0">
        <time>2020-12-20T09:58:04.799000+00:00</time>
      </trkpt>
      <trkpt lat="0" lon="0">
        <time>2020-12-20T09:58:04.809000+00:00</time>
      </trkpt>
      <trkpt lat="0" lon="0">
        <time>2020-12-20T09:58:04.813000+00:00</time>
      </trkpt>
      <trkpt lat="47.3447" lon="-1.30556">
        <ele>88</ele>
        <time>2020-12-20T09:58:05.751000+00:00</time>
      </trkpt>
      <trkpt lat="0" lon="0">
        <time>2020-12-20T09:58:05.763000+00:00</time>
      </trkpt>
      <trkpt lat="0" lon="0">
        <time>2020-12-20T09:58:05.771000+00:00</time>
      </trkpt>
      <trkpt lat="0" lon="0">
        <time>2020-12-20T09:58:05.773000+00:00</time>
      </trkpt>
      <trkpt lat="47.3447" lon="-1.30558">
        <ele>88</ele>
        <time>2020-12-20T09:58:06.790000+00:00</time>
      </trkpt>
      <trkpt lat="0" lon="0">
        <time>2020-12-20T09:58:06.799000+00:00</time>
      </trkpt>
      <trkpt lat="0" lon="0">
        <time>2020-12-20T09:58:06.807000+00:00</time>
      </trkpt>
      <trkpt lat="0" lon="0">
        <time>2020-12-20T09:58:06.815000+00:00</time>
      </trkpt>
      <trkpt lat="47.3447" lon="-1.3056">
        <ele>87</ele>
        <time>2020-12-20T09:58:07.769000+00:00</time>
      </trkpt>
      <trkpt lat="0" lon="0">
        <time>2020-12-20T09:58:07.775000+00:00</time>
      </trkpt>
      <trkpt lat="0" lon="0">
        <time>2020-12-20T09:58:07.784000+00:00</time>
      </trkpt>
      <trkpt lat="0" lon="0">
        <time>2020-12-20T09:58:07.789000+00:00</time>
      </trkpt>
      <trkpt lat="47.3447" lon="-1.30562">
        <ele>88</ele>
        <time>2020-12-20T09:58:08.772000+00:00</time>
      </trkpt>
      <trkpt lat="0" lon="0">
        <time>2020-12-20T09:58:08.785000+00:00</time>
      </trkpt>
      <trkpt lat="0" lon="0">
        <time>2020-12-20T09:58:08.789000+00:00</time>
      </trkpt>
      <trkpt lat="0" lon="0">
        <time>2020-12-20T09:58:08.792000+00:00</time>
      </trkpt>
      <trkpt lat="47.3447" lon="-1.30564">
        <ele>87</ele>
        <time>2020-12-20T09:58:09.774000+00:00</time>
      </trkpt>
      <trkpt lat="0" lon="0">
        <time>2020-12-20T09:58:09.786000+00:00</time>
      </trkpt>
      <trkpt lat="0" lon="0">
        <time>2020-12-20T09:58:09.790000+00:00</time>
      </trkpt>
      <trkpt lat="0" lon="0">
        <time>2020-12-20T09:58:09.794000+00:00</time>
      </trkpt>
      <trkpt lat="47.3447" lon="-1.30566">
        <ele>87</ele>
        <time>2020-12-20T09:58:10.762000+00:00</time>
      </trkpt>
      <trkpt lat="0" lon="0">
        <time>2020-12-20T09:58:10.769000+00:00</time>
      </trkpt>
      <trkpt lat="0" lon="0">
        <time>2020-12-20T09:58:10.777000+00:00</time>
      </trkpt>
      <trkpt lat="0" lon="0">
        <time>2020-12-20T09:58:10.781000+00:00</time>
      </trkpt>
      <trkpt lat="47.3447" lon="-1.30568">
        <ele>87</ele>
        <time>2020-12-20T09:58:11.757000+00:00</time>
      </trkpt>
      <trkpt lat="0" lon="0">
        <time>2020-12-20T09:58:11.765000+00:00</time>
      </trkpt>
      <trkpt lat="0" lon="0">
        <time>2020-12-20T09:58:11.773000+00:00</time>
      </trkpt>
      <trkpt lat="0" lon="0">
        <time>2020-12-20T09:58:11.775000+00:00</time>
      </trkpt>
      <trkpt lat="47.34469" lon="-1.3057">
        <ele>88</ele>
        <time>2020-12-20T09:58:12.772000+00:00</time>
      </trkpt>
      <trkpt lat="0" lon="0">
        <time>2020-12-20T09:58:12.777000+00:00</time>
      </trkpt>
      <trkpt lat="0" lon="0">
        <time>2020-12-20T09:58:12.782000+00:00</time>
      </trkpt>
      <trkpt lat="0" lon="0">
        <time>2020-12-20T09:58:12.785000+00:00</time>
      </trkpt>
      <trkpt lat="47.34469" lon="-1.30571">
        <ele>88</ele>
        <time>2020-12-20T09:58:13.799000+00:00</time>
      </trkpt>
      <trkpt lat="0" lon="0">
        <time>2020-12-20T09:58:13.810000+00:00</time>
      </trkpt>
      <trkpt lat="0" lon="0">
        <time>2020-12-20T09:58:13.814000+00:00</time>
      </trkpt>
      <trkpt lat="0" lon="0">
        <time>2020-12-20T09:58:13.817000+00:00</time>
      </trkpt>
      <trkpt lat="47.34469" lon="-1.30573">
        <ele>88</ele>
        <time>2020-12-20T09:58:14.809000+00:00</time>
      </trkpt>
      <trkpt lat="0" lon="0">
        <time>2020-12-20T09:58:14.815000+00:00</time>
      </trkpt>
      <trkpt lat="0" lon="0">
        <time>2020-12-20T09:58:14.820000+00:00</time>
      </trkpt>
      <trkpt lat="0" lon="0">
        <time>2020-12-20T09:58:14.823000+00:00</time>
      </trkpt>
      <trkpt lat="47.34469" lon="-1.30575">
        <ele>88</ele>
        <time>2020-12-20T09:58:15.755000+00:00</time>
      </trkpt>
      <trkpt lat="0" lon="0">
        <time>2020-12-20T09:58:15.765000+00:00</time>
      </trkpt>
      <trkpt lat="0" lon="0">
        <time>2020-12-20T09:58:15.767000+00:00</time>
      </trkpt>
      <trkpt lat="0" lon="0">
        <time>2020-12-20T09:58:15.768000+00:00</time>
      </trkpt>
      <trkpt lat="47.34468" lon="-1.30577">
        <ele>88</ele>
        <time>2020-12-20T09:58:16.793000+00:00</time>
      </trkpt>
      <trkpt lat="0" lon="0">
        <time>2020-12-20T09:58:16.803000+00:00</time>
      </trkpt>
      <trkpt lat="0" lon="0">
        <time>2020-12-20T09:58:16.813000+00:00</time>
      </trkpt>
      <trkpt lat="0" lon="0">
        <time>2020-12-20T09:58:16.815000+00:00</time>
      </trkpt>
      <trkpt lat="47.34468" lon="-1.3058">
        <ele>89</ele>
        <time>2020-12-20T09:58:17.799000+00:00</time>
      </trkpt>
      <trkpt lat="0" lon="0">
        <time>2020-12-20T09:58:17.806000+00:00</time>
      </trkpt>
      <trkpt lat="0" lon="0">
        <time>2020-12-20T09:58:17.812000+00:00</time>
      </trkpt>
      <trkpt lat="0" lon="0">
        <time>2020-12-20T09:58:17.816000+00:00</time>
      </trkpt>
      <trkpt lat="47.34468" lon="-1.30582">
        <ele>89</ele>
        <time>2020-12-20T09:58:18.848000+00:00</time>
      </trkpt>
      <trkpt lat="0" lon="0">
        <time>2020-12-20T09:58:18.867000+00:00</time>
      </trkpt>
      <trkpt lat="0" lon="0">
        <time>2020-12-20T09:58:18.871000+00:00</time>
      </trkpt>
      <trkpt lat="0" lon="0">
        <time>2020-12-20T09:58:18.876000+00:00</time>
      </trkpt>
      <trkpt lat="47.34468" lon="-1.30584">
        <ele>90</ele>
        <time>2020-12-20T09:58:19.747000+00:00</time>
      </trkpt>
      <trkpt lat="0" lon="0">
        <time>2020-12-20T09:58:19.754000+00:00</time>
      </trkpt>
      <trkpt lat="0" lon="0">
        <time>2020-12-20T09:58:19.761000+00:00</time>
      </trkpt>
      <trkpt lat="0" lon="0">
        <time>2020-12-20T09:58:19.763000+00:00</time>
      </trkpt>
      <trkpt lat="47.34467" lon="-1.30587">
        <ele>90</ele>
        <time>2020-12-20T09:58:20.806000+00:00</time>
      </trkpt>
      <trkpt lat="0" lon="0">
        <time>2020-12-20T09:58:20.818000+00:00</time>
      </trkpt>
      <trkpt lat="0" lon="0">
        <time>2020-12-20T09:58:20.824000+00:00</time>
      </trkpt>
      <trkpt lat="0" lon="0">
        <time>2020-12-20T09:58:20.827000+00:00</time>
      </trkpt>
      <trkpt lat="47.34467" lon="-1.30589">
        <ele>90</ele>
        <time>2020-12-20T09:58:21.765000+00:00</time>
      </trkpt>
      <trkpt lat="0" lon="0">
        <time>2020-12-20T09:58:21.773000+00:00</time>
      </trkpt>
      <trkpt lat="0" lon="0">
        <time>2020-12-20T09:58:21.778000+00:00</time>
      </trkpt>
      <trkpt lat="0" lon="0">
        <time>2020-12-20T09:58:21.780000+00:00</time>
      </trkpt>
      <trkpt lat="47.34466" lon="-1.30591">
        <ele>90</ele>
        <time>2020-12-20T09:58:22.775000+00:00</time>
      </trkpt>
      <trkpt lat="0" lon="0">
        <time>2020-12-20T09:58:22.783000+00:00</time>
      </trkpt>
      <trkpt lat="0" lon="0">
        <time>2020-12-20T09:58:22.790000+00:00</time>
      </trkpt>
      <trkpt lat="0" lon="0">
        <time>2020-12-20T09:58:22.800000+00:00</time>
      </trkpt>
      <trkpt lat="47.34466" lon="-1.30593">
        <ele>90</ele>
        <time>2020-12-20T09:58:23.788000+00:00</time>
      </trkpt>
      <trkpt lat="0" lon="0">
        <time>2020-12-20T09:58:23.812000+00:00</time>
      </trkpt>
      <trkpt lat="0" lon="0">
        <time>2020-12-20T09:58:23.818000+00:00</time>
      </trkpt>
      <trkpt lat="0" lon="0">
        <time>2020-12-20T09:58:23.825000+00:00</time>
      </trkpt>
      <trkpt lat="47.34465" lon="-1.30595">
        <ele>91</ele>
        <time>2020-12-20T09:58:24.804000+00:00</time>
      </trkpt>
      <trkpt lat="0" lon="0">
        <time>2020-12-20T09:58:24.815000+00:00</time>
      </trkpt>
      <trkpt lat="0" lon="0">
        <time>2020-12-20T09:58:24.822000+00:00</time>
      </trkpt>
      <trkpt lat="0" lon="0">
        <time>2020-12-20T09:58:24.827000+00:00</time>
      </trkpt>
      <trkpt lat="47.34465" lon="-1.30597">
        <ele>91</ele>
        <time>2020-12-20T09:58:25.791000+00:00</time>
      </trkpt>
      <trkpt lat="0" lon="0">
        <time>2020-12-20T09:58:25.801000+00:00</time>
      </trkpt>
      <trkpt lat="0" lon="0">
        <time>2020-12-20T09:58:25.809000+00:00</time>
      </trkpt>
      <trkpt lat="0" lon="0">
        <time>2020-12-20T09:58:25.815000+00:00</time>
      </trkpt>
      <trkpt lat="47.34464" lon="-1.30599">
        <ele>91</ele>
        <time>2020-12-20T09:58:26.783000+00:00</time>
      </trkpt>
      <trkpt lat="0" lon="0">
        <time>2020-12-20T09:58:26.791000+00:00</time>
      </trkpt>
      <trkpt lat="0" lon="0">
        <time>2020-12-20T09:58:26.797000+00:00</time>
      </trkpt>
      <trkpt lat="0" lon="0">
        <time>2020-12-20T09:58:26.800000+00:00</time>
      </trkpt>
      <trkpt lat="47.34464" lon="-1.30601">
        <ele>91</ele>
        <time>2020-12-20T09:58:27.754000+00:00</time>
      </trkpt>
      <trkpt lat="0" lon="0">
        <time>2020-12-20T09:58:27.758000+00:00</time>
      </trkpt>
      <trkpt lat="0" lon="0">
        <time>2020-12-20T09:58:27.761000+00:00</time>
      </trkpt>
      <trkpt lat="0" lon="0">
        <time>2020-12-20T09:58:27.762000+00:00</time>
      </trkpt>
      <trkpt lat="47.34463" lon="-1.30602">
        <ele>91</ele>
        <time>2020-12-20T09:58:28.753000+00:00</time>
      </trkpt>
      <trkpt lat="0" lon="0">
        <time>2020-12-20T09:58:28.758000+00:00</time>
      </trkpt>
      <trkpt lat="0" lon="0">
        <time>2020-12-20T09:58:28.762000+00:00</time>
      </trkpt>
      <trkpt lat="0" lon="0">
        <time>2020-12-20T09:58:28.769000+00:00</time>
      </trkpt>
      <trkpt lat="47.34463" lon="-1.30604">
        <ele>92</ele>
        <time>2020-12-20T09:58:29.782000+00:00</time>
      </trkpt>
      <trkpt lat="0" lon="0">
        <time>2020-12-20T09:58:29.793000+00:00</time>
      </trkpt>
      <trkpt lat="0" lon="0">
        <time>2020-12-20T09:58:29.800000+00:00</time>
      </trkpt>
      <trkpt lat="0" lon="0">
        <time>2020-12-20T09:58:29.806000+00:00</time>
      </trkpt>
      <trkpt lat="47.34463" lon="-1.30606">
        <ele>92</ele>
        <time>2020-12-20T09:58:30.777000+00:00</time>
      </trkpt>
      <trkpt lat="0" lon="0">
        <time>2020-12-20T09:58:30.808000+00:00</time>
      </trkpt>
      <trkpt lat="0" lon="0">
        <time>2020-12-20T09:58:30.811000+00:00</time>
      </trkpt>
      <trkpt lat="0" lon="0">
        <time>2020-12-20T09:58:30.812000+00:00</time>
      </trkpt>
      <trkpt lat="47.34462" lon="-1.30608">
        <ele>92</ele>
        <time>2020-12-20T09:58:31.736000+00:00</time>
      </trkpt>
      <trkpt lat="0" lon="0">
        <time>2020-12-20T09:58:31.756000+00:00</time>
      </trkpt>
      <trkpt lat="0" lon="0">
        <time>2020-12-20T09:58:31.759000+00:00</time>
      </trkpt>
      <trkpt lat="0" lon="0">
        <time>2020-12-20T09:58:31.762000+00:00</time>
      </trkpt>
      <trkpt lat="47.34462" lon="-1.30609">
        <ele>92</ele>
        <time>2020-12-20T09:58:32.764000+00:00</time>
      </trkpt>
      <trkpt lat="0" lon="0">
        <time>2020-12-20T09:58:32.778000+00:00</time>
      </trkpt>
      <trkpt lat="0" lon="0">
        <time>2020-12-20T09:58:32.785000+00:00</time>
      </trkpt>
      <trkpt lat="0" lon="0">
        <time>2020-12-20T09:58:32.787000+00:00</time>
      </trkpt>
      <trkpt lat="47.34462" lon="-1.30611">
        <ele>91</ele>
        <time>2020-12-20T09:58:33.753000+00:00</time>
      </trkpt>
      <trkpt lat="0" lon="0">
        <time>2020-12-20T09:58:33.759000+00:00</time>
      </trkpt>
      <trkpt lat="0" lon="0">
        <time>2020-12-20T09:58:33.764000+00:00</time>
      </trkpt>
      <trkpt lat="0" lon="0">
        <time>2020-12-20T09:58:33.769000+00:00</time>
      </trkpt>
      <trkpt lat="47.34462" lon="-1.30614">
        <ele>92</ele>
        <time>2020-12-20T09:58:34.787000+00:00</time>
      </trkpt>
      <trkpt lat="0" lon="0">
        <time>2020-12-20T09:58:34.792000+00:00</time>
      </trkpt>
      <trkpt lat="0" lon="0">
        <time>2020-12-20T09:58:34.803000+00:00</time>
      </trkpt>
      <trkpt lat="0" lon="0">
        <time>2020-12-20T09:58:34.806000+00:00</time>
      </trkpt>
      <trkpt lat="47.34461" lon="-1.30616">
        <ele>92</ele>
        <time>2020-12-20T09:58:35.788000+00:00</time>
      </trkpt>
      <trkpt lat="0" lon="0">
        <time>2020-12-20T09:58:35.799000+00:00</time>
      </trkpt>
      <trkpt lat="0" lon="0">
        <time>2020-12-20T09:58:35.807000+00:00</time>
      </trkpt>
      <trkpt lat="0" lon="0">
        <time>2020-12-20T09:58:35.813000+00:00</time>
      </trkpt>
      <trkpt lat="47.34461" lon="-1.30619">
        <ele>92</ele>
        <time>2020-12-20T09:58:36.780000+00:00</time>
      </trkpt>
      <trkpt lat="0" lon="0">
        <time>2020-12-20T09:58:36.803000+00:00</time>
      </trkpt>
      <trkpt lat="0" lon="0">
        <time>2020-12-20T09:58:36.807000+00:00</time>
      </trkpt>
      <trkpt lat="0" lon="0">
        <time>2020-12-20T09:58:36.812000+00:00</time>
      </trkpt>
      <trkpt lat="47.34461" lon="-1.30622">
        <ele>92</ele>
        <time>2020-12-20T09:58:37.775000+00:00</time>
      </trkpt>
      <trkpt lat="0" lon="0">
        <time>2020-12-20T09:58:37.782000+00:00</time>
      </trkpt>
      <trkpt lat="0" lon="0">
        <time>2020-12-20T09:58:37.787000+00:00</time>
      </trkpt>
      <trkpt lat="0" lon="0">
        <time>2020-12-20T09:58:37.790000+00:00</time>
      </trkpt>
      <trkpt lat="47.3446" lon="-1.30625">
        <ele>92</ele>
        <time>2020-12-20T09:58:38.799000+00:00</time>
      </trkpt>
      <trkpt lat="0" lon="0">
        <time>2020-12-20T09:58:38.812000+00:00</time>
      </trkpt>
      <trkpt lat="0" lon="0">
        <time>2020-12-20T09:58:38.815000+00:00</time>
      </trkpt>
      <trkpt lat="0" lon="0">
        <time>2020-12-20T09:58:38.816000+00:00</time>
      </trkpt>
      <trkpt lat="47.3446" lon="-1.30628">
        <ele>92</ele>
        <time>2020-12-20T09:58:39.786000+00:00</time>
      </trkpt>
      <trkpt lat="0" lon="0">
        <time>2020-12-20T09:58:39.800000+00:00</time>
      </trkpt>
      <trkpt lat="0" lon="0">
        <time>2020-12-20T09:58:39.803000+00:00</time>
      </trkpt>
      <trkpt lat="0" lon="0">
        <time>2020-12-20T09:58:39.806000+00:00</time>
      </trkpt>
      <trkpt lat="47.34459" lon="-1.30632">
        <ele>92</ele>
        <time>2020-12-20T09:58:40.791000+00:00</time>
      </trkpt>
      <trkpt lat="0" lon="0">
        <time>2020-12-20T09:58:40.798000+00:00</time>
      </trkpt>
      <trkpt lat="0" lon="0">
        <time>2020-12-20T09:58:40.803000+00:00</time>
      </trkpt>
      <trkpt lat="0" lon="0">
        <time>2020-12-20T09:58:40.805000+00:00</time>
      </trkpt>
      <trkpt lat="47.34459" lon="-1.30635">
        <ele>92</ele>
        <time>2020-12-20T09:58:41.798000+00:00</time>
      </trkpt>
      <trkpt lat="0" lon="0">
        <time>2020-12-20T09:58:41.812000+00:00</time>
      </trkpt>
      <trkpt lat="0" lon="0">
        <time>2020-12-20T09:58:41.821000+00:00</time>
      </trkpt>
      <trkpt lat="0" lon="0">
        <time>2020-12-20T09:58:41.824000+00:00</time>
      </trkpt>
      <trkpt lat="47.34458" lon="-1.30638">
        <ele>92</ele>
        <time>2020-12-20T09:58:42.775000+00:00</time>
      </trkpt>
      <trkpt lat="0" lon="0">
        <time>2020-12-20T09:58:42.780000+00:00</time>
      </trkpt>
      <trkpt lat="0" lon="0">
        <time>2020-12-20T09:58:42.788000+00:00</time>
      </trkpt>
      <trkpt lat="0" lon="0">
        <time>2020-12-20T09:58:42.791000+00:00</time>
      </trkpt>
      <trkpt lat="47.34458" lon="-1.30641">
        <ele>92</ele>
        <time>2020-12-20T09:58:43.785000+00:00</time>
      </trkpt>
      <trkpt lat="0" lon="0">
        <time>2020-12-20T09:58:43.795000+00:00</time>
      </trkpt>
      <trkpt lat="0" lon="0">
        <time>2020-12-20T09:58:43.802000+00:00</time>
      </trkpt>
      <trkpt lat="0" lon="0">
        <time>2020-12-20T09:58:43.805000+00:00</time>
      </trkpt>
      <trkpt lat="47.34457" lon="-1.30645">
        <ele>92</ele>
        <time>2020-12-20T09:58:44.777000+00:00</time>
      </trkpt>
      <trkpt lat="0" lon="0">
        <time>2020-12-20T09:58:44.781000+00:00</time>
      </trkpt>
      <trkpt lat="0" lon="0">
        <time>2020-12-20T09:58:44.784000+00:00</time>
      </trkpt>
      <trkpt lat="0" lon="0">
        <time>2020-12-20T09:58:44.787000+00:00</time>
      </trkpt>
      <trkpt lat="47.34456" lon="-1.30648">
        <ele>92</ele>
        <time>2020-12-20T09:58:45.765000+00:00</time>
      </trkpt>
      <trkpt lat="0" lon="0">
        <time>2020-12-20T09:58:45.769000+00:00</time>
      </trkpt>
      <trkpt lat="0" lon="0">
        <time>2020-12-20T09:58:45.776000+00:00</time>
      </trkpt>
      <trkpt lat="0" lon="0">
        <time>2020-12-20T09:58:45.780000+00:00</time>
      </trkpt>
      <trkpt lat="47.34455" lon="-1.30651">
        <ele>92</ele>
        <time>2020-12-20T09:58:46.750000+00:00</time>
      </trkpt>
      <trkpt lat="0" lon="0">
        <time>2020-12-20T09:58:46.761000+00:00</time>
      </trkpt>
      <trkpt lat="0" lon="0">
        <time>2020-12-20T09:58:46.766000+00:00</time>
      </trkpt>
      <trkpt lat="0" lon="0">
        <time>2020-12-20T09:58:46.771000+00:00</time>
      </trkpt>
      <trkpt lat="47.34455" lon="-1.30655">
        <ele>92</ele>
        <time>2020-12-20T09:58:47.756000+00:00</time>
      </trkpt>
      <trkpt lat="0" lon="0">
        <time>2020-12-20T09:58:47.763000+00:00</time>
      </trkpt>
      <trkpt lat="0" lon="0">
        <time>2020-12-20T09:58:47.773000+00:00</time>
      </trkpt>
      <trkpt lat="0" lon="0">
        <time>2020-12-20T09:58:47.776000+00:00</time>
      </trkpt>
      <trkpt lat="47.34454" lon="-1.30658">
        <ele>93</ele>
        <time>2020-12-20T09:58:48.781000+00:00</time>
      </trkpt>
      <trkpt lat="0" lon="0">
        <time>2020-12-20T09:58:48.787000+00:00</time>
      </trkpt>
      <trkpt lat="0" lon="0">
        <time>2020-12-20T09:58:48.795000+00:00</time>
      </trkpt>
      <trkpt lat="0" lon="0">
        <time>2020-12-20T09:58:48.798000+00:00</time>
      </trkpt>
      <trkpt lat="47.34453" lon="-1.30661">
        <ele>93</ele>
        <time>2020-12-20T09:58:49.768000+00:00</time>
      </trkpt>
      <trkpt lat="0" lon="0">
        <time>2020-12-20T09:58:49.784000+00:00</time>
      </trkpt>
      <trkpt lat="0" lon="0">
        <time>2020-12-20T09:58:49.793000+00:00</time>
      </trkpt>
      <trkpt lat="0" lon="0">
        <time>2020-12-20T09:58:49.800000+00:00</time>
      </trkpt>
      <trkpt lat="47.34452" lon="-1.30665">
        <ele>93</ele>
        <time>2020-12-20T09:58:50.760000+00:00</time>
      </trkpt>
      <trkpt lat="0" lon="0">
        <time>2020-12-20T09:58:50.778000+00:00</time>
      </trkpt>
      <trkpt lat="0" lon="0">
        <time>2020-12-20T09:58:50.786000+00:00</time>
      </trkpt>
      <trkpt lat="0" lon="0">
        <time>2020-12-20T09:58:50.789000+00:00</time>
      </trkpt>
      <trkpt lat="47.34451" lon="-1.30668">
        <ele>93</ele>
        <time>2020-12-20T09:58:51.784000+00:00</time>
      </trkpt>
      <trkpt lat="0" lon="0">
        <time>2020-12-20T09:58:51.792000+00:00</time>
      </trkpt>
      <trkpt lat="0" lon="0">
        <time>2020-12-20T09:58:51.798000+00:00</time>
      </trkpt>
      <trkpt lat="0" lon="0">
        <time>2020-12-20T09:58:51.802000+00:00</time>
      </trkpt>
      <trkpt lat="47.3445" lon="-1.30671">
        <ele>93</ele>
        <time>2020-12-20T09:58:52.784000+00:00</time>
      </trkpt>
      <trkpt lat="0" lon="0">
        <time>2020-12-20T09:58:52.790000+00:00</time>
      </trkpt>
      <trkpt lat="0" lon="0">
        <time>2020-12-20T09:58:52.798000+00:00</time>
      </trkpt>
      <trkpt lat="0" lon="0">
        <time>2020-12-20T09:58:52.801000+00:00</time>
      </trkpt>
      <trkpt lat="47.34449" lon="-1.30674">
        <ele>93</ele>
        <time>2020-12-20T09:58:53.786000+00:00</time>
      </trkpt>
      <trkpt lat="0" lon="0">
        <time>2020-12-20T09:58:53.794000+00:00</time>
      </trkpt>
      <trkpt lat="0" lon="0">
        <time>2020-12-20T09:58:53.798000+00:00</time>
      </trkpt>
      <trkpt lat="0" lon="0">
        <time>2020-12-20T09:58:53.802000+00:00</time>
      </trkpt>
      <trkpt lat="47.34448" lon="-1.30677">
        <ele>93</ele>
        <time>2020-12-20T09:58:54.764000+00:00</time>
      </trkpt>
      <trkpt lat="0" lon="0">
        <time>2020-12-20T09:58:54.777000+00:00</time>
      </trkpt>
      <trkpt lat="0" lon="0">
        <time>2020-12-20T09:58:54.782000+00:00</time>
      </trkpt>
      <trkpt lat="0" lon="0">
        <time>2020-12-20T09:58:54.784000+00:00</time>
      </trkpt>
      <trkpt lat="47.34447" lon="-1.30681">
        <ele>93</ele>
        <time>2020-12-20T09:58:55.744000+00:00</time>
      </trkpt>
      <trkpt lat="0" lon="0">
        <time>2020-12-20T09:58:55.749000+00:00</time>
      </trkpt>
      <trkpt lat="0" lon="0">
        <time>2020-12-20T09:58:55.751000+00:00</time>
      </trkpt>
      <trkpt lat="0" lon="0">
        <time>2020-12-20T09:58:55.752000+00:00</time>
      </trkpt>
      <trkpt lat="47.34446" lon="-1.30684">
        <ele>93</ele>
        <time>2020-12-20T09:58:56.763000+00:00</time>
      </trkpt>
      <trkpt lat="0" lon="0">
        <time>2020-12-20T09:58:56.784000+00:00</time>
      </trkpt>
      <trkpt lat="0" lon="0">
        <time>2020-12-20T09:58:56.798000+00:00</time>
      </trkpt>
      <trkpt lat="0" lon="0">
        <time>2020-12-20T09:58:56.799000+00:00</time>
      </trkpt>
      <trkpt lat="47.34445" lon="-1.30687">
        <ele>93</ele>
        <time>2020-12-20T09:58:57.756000+00:00</time>
      </trkpt>
      <trkpt lat="0" lon="0">
        <time>2020-12-20T09:58:57.770000+00:00</time>
      </trkpt>
      <trkpt lat="0" lon="0">
        <time>2020-12-20T09:58:57.775000+00:00</time>
      </trkpt>
      <trkpt lat="0" lon="0">
        <time>2020-12-20T09:58:57.778000+00:00</time>
      </trkpt>
      <trkpt lat="47.34444" lon="-1.3069">
        <ele>93</ele>
        <time>2020-12-20T09:58:58.747000+00:00</time>
      </trkpt>
      <trkpt lat="0" lon="0">
        <time>2020-12-20T09:58:58.754000+00:00</time>
      </trkpt>
      <trkpt lat="0" lon="0">
        <time>2020-12-20T09:58:58.771000+00:00</time>
      </trkpt>
      <trkpt lat="0" lon="0">
        <time>2020-12-20T09:58:58.774000+00:00</time>
      </trkpt>
      <trkpt lat="47.34442" lon="-1.30693">
        <ele>92</ele>
        <time>2020-12-20T09:58:59.776000+00:00</time>
      </trkpt>
      <trkpt lat="0" lon="0">
        <time>2020-12-20T09:58:59.803000+00:00</time>
      </trkpt>
      <trkpt lat="0" lon="0">
        <time>2020-12-20T09:58:59.811000+00:00</time>
      </trkpt>
      <trkpt lat="0" lon="0">
        <time>2020-12-20T09:58:59.814000+00:00</time>
      </trkpt>
      <trkpt lat="47.3444" lon="-1.30695">
        <ele>92</ele>
        <time>2020-12-20T09:59:00.794000+00:00</time>
      </trkpt>
      <trkpt lat="0" lon="0">
        <time>2020-12-20T09:59:00.804000+00:00</time>
      </trkpt>
      <trkpt lat="0" lon="0">
        <time>2020-12-20T09:59:00.814000+00:00</time>
      </trkpt>
      <trkpt lat="0" lon="0">
        <time>2020-12-20T09:59:00.822000+00:00</time>
      </trkpt>
      <trkpt lat="47.34438" lon="-1.30697">
        <ele>92</ele>
        <time>2020-12-20T09:59:01.792000+00:00</time>
      </trkpt>
      <trkpt lat="0" lon="0">
        <time>2020-12-20T09:59:01.805000+00:00</time>
      </trkpt>
      <trkpt lat="0" lon="0">
        <time>2020-12-20T09:59:01.809000+00:00</time>
      </trkpt>
      <trkpt lat="0" lon="0">
        <time>2020-12-20T09:59:01.811000+00:00</time>
      </trkpt>
      <trkpt lat="47.34436" lon="-1.30698">
        <ele>91</ele>
        <time>2020-12-20T09:59:02.760000+00:00</time>
      </trkpt>
      <trkpt lat="0" lon="0">
        <time>2020-12-20T09:59:02.767000+00:00</time>
      </trkpt>
      <trkpt lat="0" lon="0">
        <time>2020-12-20T09:59:02.771000+00:00</time>
      </trkpt>
      <trkpt lat="0" lon="0">
        <time>2020-12-20T09:59:02.774000+00:00</time>
      </trkpt>
      <trkpt lat="47.34434" lon="-1.30699">
        <ele>91</ele>
        <time>2020-12-20T09:59:03.762000+00:00</time>
      </trkpt>
      <trkpt lat="0" lon="0">
        <time>2020-12-20T09:59:03.778000+00:00</time>
      </trkpt>
      <trkpt lat="0" lon="0">
        <time>2020-12-20T09:59:03.786000+00:00</time>
      </trkpt>
      <trkpt lat="0" lon="0">
        <time>2020-12-20T09:59:03.789000+00:00</time>
      </trkpt>
      <trkpt lat="47.34432" lon="-1.307">
        <ele>91</ele>
        <time>2020-12-20T09:59:04.770000+00:00</time>
      </trkpt>
      <trkpt lat="0" lon="0">
        <time>2020-12-20T09:59:04.786000+00:00</time>
      </trkpt>
      <trkpt lat="0" lon="0">
        <time>2020-12-20T09:59:04.791000+00:00</time>
      </trkpt>
      <trkpt lat="0" lon="0">
        <time>2020-12-20T09:59:04.796000+00:00</time>
      </trkpt>
      <trkpt lat="47.34429" lon="-1.30701">
        <ele>91</ele>
        <time>2020-12-20T09:59:05.779000+00:00</time>
      </trkpt>
      <trkpt lat="0" lon="0">
        <time>2020-12-20T09:59:05.786000+00:00</time>
      </trkpt>
      <trkpt lat="0" lon="0">
        <time>2020-12-20T09:59:05.793000+00:00</time>
      </trkpt>
      <trkpt lat="0" lon="0">
        <time>2020-12-20T09:59:05.796000+00:00</time>
      </trkpt>
      <trkpt lat="47.34427" lon="-1.30701">
        <ele>91</ele>
        <time>2020-12-20T09:59:06.794000+00:00</time>
      </trkpt>
      <trkpt lat="0" lon="0">
        <time>2020-12-20T09:59:06.809000+00:00</time>
      </trkpt>
      <trkpt lat="0" lon="0">
        <time>2020-12-20T09:59:06.818000+00:00</time>
      </trkpt>
      <trkpt lat="0" lon="0">
        <time>2020-12-20T09:59:06.820000+00:00</time>
      </trkpt>
      <trkpt lat="47.34424" lon="-1.307">
        <ele>90</ele>
        <time>2020-12-20T09:59:07.800000+00:00</time>
      </trkpt>
      <trkpt lat="0" lon="0">
        <time>2020-12-20T09:59:07.812000+00:00</time>
      </trkpt>
      <trkpt lat="0" lon="0">
        <time>2020-12-20T09:59:07.821000+00:00</time>
      </trkpt>
      <trkpt lat="0" lon="0">
        <time>2020-12-20T09:59:07.823000+00:00</time>
      </trkpt>
      <trkpt lat="47.34421" lon="-1.30699">
        <ele>90</ele>
        <time>2020-12-20T09:59:08.777000+00:00</time>
      </trkpt>
      <trkpt lat="0" lon="0">
        <time>2020-12-20T09:59:08.783000+00:00</time>
      </trkpt>
      <trkpt lat="0" lon="0">
        <time>2020-12-20T09:59:08.789000+00:00</time>
      </trkpt>
      <trkpt lat="0" lon="0">
        <time>2020-12-20T09:59:08.791000+00:00</time>
      </trkpt>
      <trkpt lat="47.34418" lon="-1.30698">
        <ele>90</ele>
        <time>2020-12-20T09:59:09.745000+00:00</time>
      </trkpt>
      <trkpt lat="0" lon="0">
        <time>2020-12-20T09:59:09.755000+00:00</time>
      </trkpt>
      <trkpt lat="0" lon="0">
        <time>2020-12-20T09:59:09.757000+00:00</time>
      </trkpt>
      <trkpt lat="0" lon="0">
        <time>2020-12-20T09:59:09.759000+00:00</time>
      </trkpt>
      <trkpt lat="47.34415" lon="-1.30696">
        <ele>89</ele>
        <time>2020-12-20T09:59:10.730000+00:00</time>
      </trkpt>
      <trkpt lat="0" lon="0">
        <time>2020-12-20T09:59:10.740000+00:00</time>
      </trkpt>
      <trkpt lat="0" lon="0">
        <time>2020-12-20T09:59:10.743000+00:00</time>
      </trkpt>
      <trkpt lat="0" lon="0">
        <time>2020-12-20T09:59:10.748000+00:00</time>
      </trkpt>
      <trkpt lat="47.34412" lon="-1.30694">
        <ele>89</ele>
        <time>2020-12-20T09:59:11.764000+00:00</time>
      </trkpt>
      <trkpt lat="0" lon="0">
        <time>2020-12-20T09:59:11.769000+00:00</time>
      </trkpt>
      <trkpt lat="0" lon="0">
        <time>2020-12-20T09:59:11.774000+00:00</time>
      </trkpt>
      <trkpt lat="0" lon="0">
        <time>2020-12-20T09:59:11.777000+00:00</time>
      </trkpt>
      <trkpt lat="47.34409" lon="-1.30691">
        <ele>89</ele>
        <time>2020-12-20T09:59:12.811000+00:00</time>
      </trkpt>
      <trkpt lat="0" lon="0">
        <time>2020-12-20T09:59:12.817000+00:00</time>
      </trkpt>
      <trkpt lat="0" lon="0">
        <time>2020-12-20T09:59:12.823000+00:00</time>
      </trkpt>
      <trkpt lat="0" lon="0">
        <time>2020-12-20T09:59:12.826000+00:00</time>
      </trkpt>
      <trkpt lat="47.34406" lon="-1.30689">
        <ele>89</ele>
        <time>2020-12-20T09:59:13.768000+00:00</time>
      </trkpt>
      <trkpt lat="0" lon="0">
        <time>2020-12-20T09:59:13.786000+00:00</time>
      </trkpt>
      <trkpt lat="0" lon="0">
        <time>2020-12-20T09:59:13.791000+00:00</time>
      </trkpt>
      <trkpt lat="0" lon="0">
        <time>2020-12-20T09:59:13.793000+00:00</time>
      </trkpt>
      <trkpt lat="47.34402" lon="-1.30686">
        <ele>91</ele>
        <time>2020-12-20T09:59:14.790000+00:00</time>
      </trkpt>
      <trkpt lat="0" lon="0">
        <time>2020-12-20T09:59:14.801000+00:00</time>
      </trkpt>
      <trkpt lat="0" lon="0">
        <time>2020-12-20T09:59:14.806000+00:00</time>
      </trkpt>
      <trkpt lat="0" lon="0">
        <time>2020-12-20T09:59:14.809000+00:00</time>
      </trkpt>
      <trkpt lat="47.34399" lon="-1.30683">
        <ele>92</ele>
        <time>2020-12-20T09:59:15.780000+00:00</time>
      </trkpt>
      <trkpt lat="0" lon="0">
        <time>2020-12-20T09:59:15.785000+00:00</time>
      </trkpt>
      <trkpt lat="0" lon="0">
        <time>2020-12-20T09:59:15.787000+00:00</time>
      </trkpt>
      <trkpt lat="0" lon="0">
        <time>2020-12-20T09:59:15.788000+00:00</time>
      </trkpt>
      <trkpt lat="47.34395" lon="-1.30681">
        <ele>92</ele>
        <time>2020-12-20T09:59:16.796000+00:00</time>
      </trkpt>
      <trkpt lat="0" lon="0">
        <time>2020-12-20T09:59:16.800000+00:00</time>
      </trkpt>
      <trkpt lat="0" lon="0">
        <time>2020-12-20T09:59:16.806000+00:00</time>
      </trkpt>
      <trkpt lat="0" lon="0">
        <time>2020-12-20T09:59:16.809000+00:00</time>
      </trkpt>
      <trkpt lat="47.3439" lon="-1.30679">
        <ele>91</ele>
        <time>2020-12-20T09:59:17.737000+00:00</time>
      </trkpt>
      <trkpt lat="0" lon="0">
        <time>2020-12-20T09:59:17.743000+00:00</time>
      </trkpt>
      <trkpt lat="0" lon="0">
        <time>2020-12-20T09:59:17.747000+00:00</time>
      </trkpt>
      <trkpt lat="0" lon="0">
        <time>2020-12-20T09:59:17.749000+00:00</time>
      </trkpt>
      <trkpt lat="47.34386" lon="-1.30677">
        <ele>91</ele>
        <time>2020-12-20T09:59:18.794000+00:00</time>
      </trkpt>
      <trkpt lat="0" lon="0">
        <time>2020-12-20T09:59:18.807000+00:00</time>
      </trkpt>
      <trkpt lat="0" lon="0">
        <time>2020-12-20T09:59:18.812000+00:00</time>
      </trkpt>
      <trkpt lat="0" lon="0">
        <time>2020-12-20T09:59:18.815000+00:00</time>
      </trkpt>
      <trkpt lat="47.34382" lon="-1.30677">
        <ele>92</ele>
        <time>2020-12-20T09:59:19.740000+00:00</time>
      </trkpt>
      <trkpt lat="0" lon="0">
        <time>2020-12-20T09:59:19.747000+00:00</time>
      </trkpt>
      <trkpt lat="0" lon="0">
        <time>2020-12-20T09:59:19.751000+00:00</time>
      </trkpt>
      <trkpt lat="0" lon="0">
        <time>2020-12-20T09:59:19.753000+00:00</time>
      </trkpt>
      <trkpt lat="47.34378" lon="-1.30677">
        <ele>93</ele>
        <time>2020-12-20T09:59:20.754000+00:00</time>
      </trkpt>
      <trkpt lat="0" lon="0">
        <time>2020-12-20T09:59:20.762000+00:00</time>
      </trkpt>
      <trkpt lat="0" lon="0">
        <time>2020-12-20T09:59:20.769000+00:00</time>
      </trkpt>
      <trkpt lat="0" lon="0">
        <time>2020-12-20T09:59:20.772000+00:00</time>
      </trkpt>
      <trkpt lat="47.34375" lon="-1.30679">
        <ele>93</ele>
        <time>2020-12-20T09:59:21.768000+00:00</time>
      </trkpt>
      <trkpt lat="0" lon="0">
        <time>2020-12-20T09:59:21.772000+00:00</time>
      </trkpt>
      <trkpt lat="0" lon="0">
        <time>2020-12-20T09:59:21.777000+00:00</time>
      </trkpt>
      <trkpt lat="0" lon="0">
        <time>2020-12-20T09:59:21.781000+00:00</time>
      </trkpt>
      <trkpt lat="47.34373" lon="-1.30682">
        <ele>94</ele>
        <time>2020-12-20T09:59:22.746000+00:00</time>
      </trkpt>
      <trkpt lat="0" lon="0">
        <time>2020-12-20T09:59:22.750000+00:00</time>
      </trkpt>
      <trkpt lat="0" lon="0">
        <time>2020-12-20T09:59:22.762000+00:00</time>
      </trkpt>
      <trkpt lat="0" lon="0">
        <time>2020-12-20T09:59:22.766000+00:00</time>
      </trkpt>
      <trkpt lat="47.34372" lon="-1.30686">
        <ele>94</ele>
        <time>2020-12-20T09:59:23.773000+00:00</time>
      </trkpt>
      <trkpt lat="0" lon="0">
        <time>2020-12-20T09:59:23.779000+00:00</time>
      </trkpt>
      <trkpt lat="0" lon="0">
        <time>2020-12-20T09:59:23.791000+00:00</time>
      </trkpt>
      <trkpt lat="0" lon="0">
        <time>2020-12-20T09:59:23.793000+00:00</time>
      </trkpt>
      <trkpt lat="47.3437" lon="-1.30691">
        <ele>94</ele>
        <time>2020-12-20T09:59:24.715000+00:00</time>
      </trkpt>
      <trkpt lat="0" lon="0">
        <time>2020-12-20T09:59:24.717000+00:00</time>
      </trkpt>
      <trkpt lat="0" lon="0">
        <time>2020-12-20T09:59:24.718000+00:00</time>
      </trkpt>
      <trkpt lat="0" lon="0">
        <time>2020-12-20T09:59:24.720000+00:00</time>
      </trkpt>
      <trkpt lat="47.34369" lon="-1.30696">
        <ele>94</ele>
        <time>2020-12-20T09:59:25.731000+00:00</time>
      </trkpt>
      <trkpt lat="0" lon="0">
        <time>2020-12-20T09:59:25.739000+00:00</time>
      </trkpt>
      <trkpt lat="0" lon="0">
        <time>2020-12-20T09:59:25.744000+00:00</time>
      </trkpt>
      <trkpt lat="0" lon="0">
        <time>2020-12-20T09:59:25.747000+00:00</time>
      </trkpt>
      <trkpt lat="47.34368" lon="-1.30702">
        <ele>95</ele>
        <time>2020-12-20T09:59:26.802000+00:00</time>
      </trkpt>
      <trkpt lat="0" lon="0">
        <time>2020-12-20T09:59:26.808000+00:00</time>
      </trkpt>
      <trkpt lat="0" lon="0">
        <time>2020-12-20T09:59:26.811000+00:00</time>
      </trkpt>
      <trkpt lat="0" lon="0">
        <time>2020-12-20T09:59:26.814000+00:00</time>
      </trkpt>
      <trkpt lat="47.34368" lon="-1.30709">
        <ele>95</ele>
        <time>2020-12-20T09:59:27.784000+00:00</time>
      </trkpt>
      <trkpt lat="0" lon="0">
        <time>2020-12-20T09:59:27.794000+00:00</time>
      </trkpt>
      <trkpt lat="0" lon="0">
        <time>2020-12-20T09:59:27.796000+00:00</time>
      </trkpt>
      <trkpt lat="0" lon="0">
        <time>2020-12-20T09:59:27.797000+00:00</time>
      </trkpt>
      <trkpt lat="47.34367" lon="-1.30715">
        <ele>95</ele>
        <time>2020-12-20T09:59:28.796000+00:00</time>
      </trkpt>
      <trkpt lat="0" lon="0">
        <time>2020-12-20T09:59:28.815000+00:00</time>
      </trkpt>
      <trkpt lat="0" lon="0">
        <time>2020-12-20T09:59:28.823000+00:00</time>
      </trkpt>
      <trkpt lat="0" lon="0">
        <time>2020-12-20T09:59:28.833000+00:00</time>
      </trkpt>
      <trkpt lat="47.34366" lon="-1.30722">
        <ele>95</ele>
        <time>2020-12-20T09:59:29.791000+00:00</time>
      </trkpt>
      <trkpt lat="0" lon="0">
        <time>2020-12-20T09:59:29.802000+00:00</time>
      </trkpt>
      <trkpt lat="0" lon="0">
        <time>2020-12-20T09:59:29.808000+00:00</time>
      </trkpt>
      <trkpt lat="0" lon="0">
        <time>2020-12-20T09:59:29.810000+00:00</time>
      </trkpt>
      <trkpt lat="47.34365" lon="-1.30728">
        <ele>96</ele>
        <time>2020-12-20T09:59:30.822000+00:00</time>
      </trkpt>
      <trkpt lat="0" lon="0">
        <time>2020-12-20T09:59:30.827000+00:00</time>
      </trkpt>
      <trkpt lat="0" lon="0">
        <time>2020-12-20T09:59:30.832000+00:00</time>
      </trkpt>
      <trkpt lat="0" lon="0">
        <time>2020-12-20T09:59:30.836000+00:00</time>
      </trkpt>
      <trkpt lat="47.34365" lon="-1.30735">
        <ele>95</ele>
        <time>2020-12-20T09:59:31.810000+00:00</time>
      </trkpt>
      <trkpt lat="0" lon="0">
        <time>2020-12-20T09:59:31.818000+00:00</time>
      </trkpt>
      <trkpt lat="0" lon="0">
        <time>2020-12-20T09:59:31.826000+00:00</time>
      </trkpt>
      <trkpt lat="0" lon="0">
        <time>2020-12-20T09:59:31.830000+00:00</time>
      </trkpt>
      <trkpt lat="47.34364" lon="-1.30742">
        <ele>96</ele>
        <time>2020-12-20T09:59:32.804000+00:00</time>
      </trkpt>
      <trkpt lat="0" lon="0">
        <time>2020-12-20T09:59:32.822000+00:00</time>
      </trkpt>
      <trkpt lat="0" lon="0">
        <time>2020-12-20T09:59:32.829000+00:00</time>
      </trkpt>
      <trkpt lat="0" lon="0">
        <time>2020-12-20T09:59:32.832000+00:00</time>
      </trkpt>
      <trkpt lat="47.34363" lon="-1.30749">
        <ele>96</ele>
        <time>2020-12-20T09:59:33.740000+00:00</time>
      </trkpt>
      <trkpt lat="0" lon="0">
        <time>2020-12-20T09:59:33.753000+00:00</time>
      </trkpt>
      <trkpt lat="0" lon="0">
        <time>2020-12-20T09:59:33.755000+00:00</time>
      </trkpt>
      <trkpt lat="0" lon="0">
        <time>2020-12-20T09:59:33.756000+00:00</time>
      </trkpt>
      <trkpt lat="47.34362" lon="-1.30756">
        <ele>96</ele>
        <time>2020-12-20T09:59:34.784000+00:00</time>
      </trkpt>
      <trkpt lat="0" lon="0">
        <time>2020-12-20T09:59:34.795000+00:00</time>
      </trkpt>
      <trkpt lat="0" lon="0">
        <time>2020-12-20T09:59:34.801000+00:00</time>
      </trkpt>
      <trkpt lat="0" lon="0">
        <time>2020-12-20T09:59:34.803000+00:00</time>
      </trkpt>
      <trkpt lat="47.34361" lon="-1.30763">
        <ele>96</ele>
        <time>2020-12-20T09:59:35.782000+00:00</time>
      </trkpt>
      <trkpt lat="0" lon="0">
        <time>2020-12-20T09:59:35.794000+00:00</time>
      </trkpt>
      <trkpt lat="0" lon="0">
        <time>2020-12-20T09:59:35.803000+00:00</time>
      </trkpt>
      <trkpt lat="0" lon="0">
        <time>2020-12-20T09:59:35.808000+00:00</time>
      </trkpt>
      <trkpt lat="47.3436" lon="-1.30769">
        <ele>96</ele>
        <time>2020-12-20T09:59:36.768000+00:00</time>
      </trkpt>
      <trkpt lat="0" lon="0">
        <time>2020-12-20T09:59:36.773000+00:00</time>
      </trkpt>
      <trkpt lat="0" lon="0">
        <time>2020-12-20T09:59:36.779000+00:00</time>
      </trkpt>
      <trkpt lat="0" lon="0">
        <time>2020-12-20T09:59:36.782000+00:00</time>
      </trkpt>
      <trkpt lat="47.34358" lon="-1.30775">
        <ele>96</ele>
        <time>2020-12-20T09:59:37.803000+00:00</time>
      </trkpt>
      <trkpt lat="0" lon="0">
        <time>2020-12-20T09:59:37.812000+00:00</time>
      </trkpt>
      <trkpt lat="0" lon="0">
        <time>2020-12-20T09:59:37.817000+00:00</time>
      </trkpt>
      <trkpt lat="0" lon="0">
        <time>2020-12-20T09:59:37.822000+00:00</time>
      </trkpt>
      <trkpt lat="47.34357" lon="-1.30781">
        <ele>96</ele>
        <time>2020-12-20T09:59:38.772000+00:00</time>
      </trkpt>
      <trkpt lat="0" lon="0">
        <time>2020-12-20T09:59:38.786000+00:00</time>
      </trkpt>
      <trkpt lat="0" lon="0">
        <time>2020-12-20T09:59:38.790000+00:00</time>
      </trkpt>
      <trkpt lat="0" lon="0">
        <time>2020-12-20T09:59:38.792000+00:00</time>
      </trkpt>
      <trkpt lat="47.34356" lon="-1.30787">
        <ele>97</ele>
        <time>2020-12-20T09:59:39.784000+00:00</time>
      </trkpt>
      <trkpt lat="0" lon="0">
        <time>2020-12-20T09:59:39.791000+00:00</time>
      </trkpt>
      <trkpt lat="0" lon="0">
        <time>2020-12-20T09:59:39.799000+00:00</time>
      </trkpt>
      <trkpt lat="0" lon="0">
        <time>2020-12-20T09:59:39.802000+00:00</time>
      </trkpt>
      <trkpt lat="47.34355" lon="-1.30792">
        <ele>97</ele>
        <time>2020-12-20T09:59:40.799000+00:00</time>
      </trkpt>
      <trkpt lat="0" lon="0">
        <time>2020-12-20T09:59:40.808000+00:00</time>
      </trkpt>
      <trkpt lat="0" lon="0">
        <time>2020-12-20T09:59:40.813000+00:00</time>
      </trkpt>
      <trkpt lat="0" lon="0">
        <time>2020-12-20T09:59:40.816000+00:00</time>
      </trkpt>
      <trkpt lat="47.34354" lon="-1.30798">
        <ele>97</ele>
        <time>2020-12-20T09:59:41.805000+00:00</time>
      </trkpt>
      <trkpt lat="0" lon="0">
        <time>2020-12-20T09:59:41.837000+00:00</time>
      </trkpt>
      <trkpt lat="0" lon="0">
        <time>2020-12-20T09:59:41.839000+00:00</time>
      </trkpt>
      <trkpt lat="0" lon="0">
        <time>2020-12-20T09:59:41.841000+00:00</time>
      </trkpt>
      <trkpt lat="47.34353" lon="-1.30803">
        <ele>97</ele>
        <time>2020-12-20T09:59:42.773000+00:00</time>
      </trkpt>
      <trkpt lat="0" lon="0">
        <time>2020-12-20T09:59:42.784000+00:00</time>
      </trkpt>
      <trkpt lat="0" lon="0">
        <time>2020-12-20T09:59:42.789000+00:00</time>
      </trkpt>
      <trkpt lat="0" lon="0">
        <time>2020-12-20T09:59:42.791000+00:00</time>
      </trkpt>
      <trkpt lat="47.34352" lon="-1.30808">
        <ele>97</ele>
        <time>2020-12-20T09:59:43.784000+00:00</time>
      </trkpt>
      <trkpt lat="0" lon="0">
        <time>2020-12-20T09:59:43.796000+00:00</time>
      </trkpt>
      <trkpt lat="0" lon="0">
        <time>2020-12-20T09:59:43.807000+00:00</time>
      </trkpt>
      <trkpt lat="0" lon="0">
        <time>2020-12-20T09:59:43.810000+00:00</time>
      </trkpt>
      <trkpt lat="47.34351" lon="-1.30813">
        <ele>97</ele>
        <time>2020-12-20T09:59:44.799000+00:00</time>
      </trkpt>
      <trkpt lat="0" lon="0">
        <time>2020-12-20T09:59:44.811000+00:00</time>
      </trkpt>
      <trkpt lat="0" lon="0">
        <time>2020-12-20T09:59:44.820000+00:00</time>
      </trkpt>
      <trkpt lat="0" lon="0">
        <time>2020-12-20T09:59:44.830000+00:00</time>
      </trkpt>
      <trkpt lat="47.34349" lon="-1.30818">
        <ele>97</ele>
        <time>2020-12-20T09:59:45.786000+00:00</time>
      </trkpt>
      <trkpt lat="0" lon="0">
        <time>2020-12-20T09:59:45.802000+00:00</time>
      </trkpt>
      <trkpt lat="0" lon="0">
        <time>2020-12-20T09:59:45.807000+00:00</time>
      </trkpt>
      <trkpt lat="0" lon="0">
        <time>2020-12-20T09:59:45.810000+00:00</time>
      </trkpt>
      <trkpt lat="47.34348" lon="-1.30823">
        <ele>97</ele>
        <time>2020-12-20T09:59:46.779000+00:00</time>
      </trkpt>
      <trkpt lat="0" lon="0">
        <time>2020-12-20T09:59:46.783000+00:00</time>
      </trkpt>
      <trkpt lat="0" lon="0">
        <time>2020-12-20T09:59:46.790000+00:00</time>
      </trkpt>
      <trkpt lat="0" lon="0">
        <time>2020-12-20T09:59:46.792000+00:00</time>
      </trkpt>
      <trkpt lat="47.34347" lon="-1.30827">
        <ele>97</ele>
        <time>2020-12-20T09:59:47.770000+00:00</time>
      </trkpt>
      <trkpt lat="0" lon="0">
        <time>2020-12-20T09:59:47.776000+00:00</time>
      </trkpt>
      <trkpt lat="0" lon="0">
        <time>2020-12-20T09:59:47.780000+00:00</time>
      </trkpt>
      <trkpt lat="0" lon="0">
        <time>2020-12-20T09:59:47.783000+00:00</time>
      </trkpt>
      <trkpt lat="47.34345" lon="-1.30831">
        <ele>97</ele>
        <time>2020-12-20T09:59:48.799000+00:00</time>
      </trkpt>
      <trkpt lat="0" lon="0">
        <time>2020-12-20T09:59:48.807000+00:00</time>
      </trkpt>
      <trkpt lat="0" lon="0">
        <time>2020-12-20T09:59:48.824000+00:00</time>
      </trkpt>
      <trkpt lat="0" lon="0">
        <time>2020-12-20T09:59:48.826000+00:00</time>
      </trkpt>
      <trkpt lat="47.34344" lon="-1.30835">
        <ele>97</ele>
        <time>2020-12-20T09:59:49.752000+00:00</time>
      </trkpt>
      <trkpt lat="0" lon="0">
        <time>2020-12-20T09:59:49.758000+00:00</time>
      </trkpt>
      <trkpt lat="0" lon="0">
        <time>2020-12-20T09:59:49.769000+00:00</time>
      </trkpt>
      <trkpt lat="0" lon="0">
        <time>2020-12-20T09:59:49.772000+00:00</time>
      </trkpt>
      <trkpt lat="47.34342" lon="-1.30839">
        <ele>97</ele>
        <time>2020-12-20T09:59:50.762000+00:00</time>
      </trkpt>
      <trkpt lat="0" lon="0">
        <time>2020-12-20T09:59:50.767000+00:00</time>
      </trkpt>
      <trkpt lat="0" lon="0">
        <time>2020-12-20T09:59:50.774000+00:00</time>
      </trkpt>
      <trkpt lat="0" lon="0">
        <time>2020-12-20T09:59:50.778000+00:00</time>
      </trkpt>
      <trkpt lat="47.34341" lon="-1.30843">
        <ele>97</ele>
        <time>2020-12-20T09:59:51.762000+00:00</time>
      </trkpt>
      <trkpt lat="0" lon="0">
        <time>2020-12-20T09:59:51.768000+00:00</time>
      </trkpt>
      <trkpt lat="0" lon="0">
        <time>2020-12-20T09:59:51.774000+00:00</time>
      </trkpt>
      <trkpt lat="0" lon="0">
        <time>2020-12-20T09:59:51.777000+00:00</time>
      </trkpt>
      <trkpt lat="47.34339" lon="-1.30846">
        <ele>98</ele>
        <time>2020-12-20T09:59:52.796000+00:00</time>
      </trkpt>
      <trkpt lat="0" lon="0">
        <time>2020-12-20T09:59:52.801000+00:00</time>
      </trkpt>
      <trkpt lat="0" lon="0">
        <time>2020-12-20T09:59:52.805000+00:00</time>
      </trkpt>
      <trkpt lat="0" lon="0">
        <time>2020-12-20T09:59:52.807000+00:00</time>
      </trkpt>
      <trkpt lat="47.34337" lon="-1.30849">
        <ele>98</ele>
        <time>2020-12-20T09:59:53.776000+00:00</time>
      </trkpt>
      <trkpt lat="0" lon="0">
        <time>2020-12-20T09:59:53.786000+00:00</time>
      </trkpt>
      <trkpt lat="0" lon="0">
        <time>2020-12-20T09:59:53.790000+00:00</time>
      </trkpt>
      <trkpt lat="0" lon="0">
        <time>2020-12-20T09:59:53.792000+00:00</time>
      </trkpt>
      <trkpt lat="47.34335" lon="-1.30851">
        <ele>98</ele>
        <time>2020-12-20T09:59:54.787000+00:00</time>
      </trkpt>
      <trkpt lat="0" lon="0">
        <time>2020-12-20T09:59:54.798000+00:00</time>
      </trkpt>
      <trkpt lat="0" lon="0">
        <time>2020-12-20T09:59:54.808000+00:00</time>
      </trkpt>
      <trkpt lat="0" lon="0">
        <time>2020-12-20T09:59:54.815000+00:00</time>
      </trkpt>
      <trkpt lat="47.34332" lon="-1.30854">
        <ele>98</ele>
        <time>2020-12-20T09:59:55.763000+00:00</time>
      </trkpt>
      <trkpt lat="0" lon="0">
        <time>2020-12-20T09:59:55.767000+00:00</time>
      </trkpt>
      <trkpt lat="0" lon="0">
        <time>2020-12-20T09:59:55.769000+00:00</time>
      </trkpt>
      <trkpt lat="0" lon="0">
        <time>2020-12-20T09:59:55.771000+00:00</time>
      </trkpt>
      <trkpt lat="47.3433" lon="-1.30856">
        <ele>98</ele>
        <time>2020-12-20T09:59:56.778000+00:00</time>
      </trkpt>
      <trkpt lat="0" lon="0">
        <time>2020-12-20T09:59:56.795000+00:00</time>
      </trkpt>
      <trkpt lat="0" lon="0">
        <time>2020-12-20T09:59:56.800000+00:00</time>
      </trkpt>
      <trkpt lat="0" lon="0">
        <time>2020-12-20T09:59:56.802000+00:00</time>
      </trkpt>
      <trkpt lat="47.34328" lon="-1.30857">
        <ele>98</ele>
        <time>2020-12-20T09:59:57.792000+00:00</time>
      </trkpt>
      <trkpt lat="0" lon="0">
        <time>2020-12-20T09:59:57.812000+00:00</time>
      </trkpt>
      <trkpt lat="0" lon="0">
        <time>2020-12-20T09:59:57.816000+00:00</time>
      </trkpt>
      <trkpt lat="0" lon="0">
        <time>2020-12-20T09:59:57.821000+00:00</time>
      </trkpt>
      <trkpt lat="47.34325" lon="-1.30858">
        <ele>98</ele>
        <time>2020-12-20T09:59:58.746000+00:00</time>
      </trkpt>
      <trkpt lat="0" lon="0">
        <time>2020-12-20T09:59:58.751000+00:00</time>
      </trkpt>
      <trkpt lat="0" lon="0">
        <time>2020-12-20T09:59:58.764000+00:00</time>
      </trkpt>
      <trkpt lat="0" lon="0">
        <time>2020-12-20T09:59:58.765000+00:00</time>
      </trkpt>
      <trkpt lat="47.34323" lon="-1.30859">
        <ele>98</ele>
        <time>2020-12-20T09:59:59.803000+00:00</time>
      </trkpt>
      <trkpt lat="0" lon="0">
        <time>2020-12-20T09:59:59.814000+00:00</time>
      </trkpt>
      <trkpt lat="0" lon="0">
        <time>2020-12-20T09:59:59.817000+00:00</time>
      </trkpt>
      <trkpt lat="0" lon="0">
        <time>2020-12-20T09:59:59.819000+00:00</time>
      </trkpt>
      <trkpt lat="47.3432" lon="-1.30859">
        <ele>98</ele>
        <time>2020-12-20T10:00:00.790000+00:00</time>
      </trkpt>
      <trkpt lat="0" lon="0">
        <time>2020-12-20T10:00:00.794000+00:00</time>
      </trkpt>
      <trkpt lat="0" lon="0">
        <time>2020-12-20T10:00:00.799000+00:00</time>
      </trkpt>
      <trkpt lat="0" lon="0">
        <time>2020-12-20T10:00:00.802000+00:00</time>
      </trkpt>
      <trkpt lat="47.34318" lon="-1.3086">
        <ele>98</ele>
        <time>2020-12-20T10:00:01.760000+00:00</time>
      </trkpt>
      <trkpt lat="0" lon="0">
        <time>2020-12-20T10:00:01.772000+00:00</time>
      </trkpt>
      <trkpt lat="0" lon="0">
        <time>2020-12-20T10:00:01.775000+00:00</time>
      </trkpt>
      <trkpt lat="0" lon="0">
        <time>2020-12-20T10:00:01.778000+00:00</time>
      </trkpt>
      <trkpt lat="47.34315" lon="-1.3086">
        <ele>97</ele>
        <time>2020-12-20T10:00:02.766000+00:00</time>
      </trkpt>
      <trkpt lat="0" lon="0">
        <time>2020-12-20T10:00:02.777000+00:00</time>
      </trkpt>
      <trkpt lat="0" lon="0">
        <time>2020-12-20T10:00:02.783000+00:00</time>
      </trkpt>
      <trkpt lat="0" lon="0">
        <time>2020-12-20T10:00:02.787000+00:00</time>
      </trkpt>
      <trkpt lat="47.34312" lon="-1.30861">
        <ele>97</ele>
        <time>2020-12-20T10:00:03.748000+00:00</time>
      </trkpt>
      <trkpt lat="0" lon="0">
        <time>2020-12-20T10:00:03.762000+00:00</time>
      </trkpt>
      <trkpt lat="0" lon="0">
        <time>2020-12-20T10:00:03.764000+00:00</time>
      </trkpt>
      <trkpt lat="0" lon="0">
        <time>2020-12-20T10:00:03.765000+00:00</time>
      </trkpt>
      <trkpt lat="47.34309" lon="-1.30862">
        <ele>96</ele>
        <time>2020-12-20T10:00:04.797000+00:00</time>
      </trkpt>
      <trkpt lat="0" lon="0">
        <time>2020-12-20T10:00:04.804000+00:00</time>
      </trkpt>
      <trkpt lat="0" lon="0">
        <time>2020-12-20T10:00:04.806000+00:00</time>
      </trkpt>
      <trkpt lat="0" lon="0">
        <time>2020-12-20T10:00:04.807000+00:00</time>
      </trkpt>
      <trkpt lat="47.34307" lon="-1.30863">
        <ele>96</ele>
        <time>2020-12-20T10:00:05.793000+00:00</time>
      </trkpt>
      <trkpt lat="0" lon="0">
        <time>2020-12-20T10:00:05.798000+00:00</time>
      </trkpt>
      <trkpt lat="0" lon="0">
        <time>2020-12-20T10:00:05.803000+00:00</time>
      </trkpt>
      <trkpt lat="0" lon="0">
        <time>2020-12-20T10:00:05.806000+00:00</time>
      </trkpt>
      <trkpt lat="47.34305" lon="-1.30865">
        <ele>96</ele>
        <time>2020-12-20T10:00:06.791000+00:00</time>
      </trkpt>
      <trkpt lat="0" lon="0">
        <time>2020-12-20T10:00:06.800000+00:00</time>
      </trkpt>
      <trkpt lat="0" lon="0">
        <time>2020-12-20T10:00:06.804000+00:00</time>
      </trkpt>
      <trkpt lat="0" lon="0">
        <time>2020-12-20T10:00:06.806000+00:00</time>
      </trkpt>
      <trkpt lat="47.34303" lon="-1.30866">
        <ele>96</ele>
        <time>2020-12-20T10:00:07.745000+00:00</time>
      </trkpt>
      <trkpt lat="0" lon="0">
        <time>2020-12-20T10:00:07.751000+00:00</time>
      </trkpt>
      <trkpt lat="0" lon="0">
        <time>2020-12-20T10:00:07.755000+00:00</time>
      </trkpt>
      <trkpt lat="0" lon="0">
        <time>2020-12-20T10:00:07.758000+00:00</time>
      </trkpt>
      <trkpt lat="47.34301" lon="-1.30868">
        <ele>96</ele>
        <time>2020-12-20T10:00:08.738000+00:00</time>
      </trkpt>
      <trkpt lat="0" lon="0">
        <time>2020-12-20T10:00:08.740000+00:00</time>
      </trkpt>
      <trkpt lat="0" lon="0">
        <time>2020-12-20T10:00:08.747000+00:00</time>
      </trkpt>
      <trkpt lat="0" lon="0">
        <time>2020-12-20T10:00:08.751000+00:00</time>
      </trkpt>
      <trkpt lat="47.343" lon="-1.3087">
        <ele>97</ele>
        <time>2020-12-20T10:00:09.757000+00:00</time>
      </trkpt>
      <trkpt lat="0" lon="0">
        <time>2020-12-20T10:00:09.767000+00:00</time>
      </trkpt>
      <trkpt lat="0" lon="0">
        <time>2020-12-20T10:00:09.771000+00:00</time>
      </trkpt>
      <trkpt lat="0" lon="0">
        <time>2020-12-20T10:00:09.774000+00:00</time>
      </trkpt>
      <trkpt lat="47.34298" lon="-1.30872">
        <ele>97</ele>
        <time>2020-12-20T10:00:10.795000+00:00</time>
      </trkpt>
      <trkpt lat="0" lon="0">
        <time>2020-12-20T10:00:10.815000+00:00</time>
      </trkpt>
      <trkpt lat="0" lon="0">
        <time>2020-12-20T10:00:10.823000+00:00</time>
      </trkpt>
      <trkpt lat="0" lon="0">
        <time>2020-12-20T10:00:10.828000+00:00</time>
      </trkpt>
      <trkpt lat="47.34297" lon="-1.30874">
        <ele>97</ele>
        <time>2020-12-20T10:00:11.800000+00:00</time>
      </trkpt>
      <trkpt lat="0" lon="0">
        <time>2020-12-20T10:00:11.805000+00:00</time>
      </trkpt>
      <trkpt lat="0" lon="0">
        <time>2020-12-20T10:00:11.821000+00:00</time>
      </trkpt>
      <trkpt lat="0" lon="0">
        <time>2020-12-20T10:00:11.824000+00:00</time>
      </trkpt>
      <trkpt lat="47.34296" lon="-1.30875">
        <ele>98</ele>
        <time>2020-12-20T10:00:12.782000+00:00</time>
      </trkpt>
      <trkpt lat="0" lon="0">
        <time>2020-12-20T10:00:12.794000+00:00</time>
      </trkpt>
      <trkpt lat="0" lon="0">
        <time>2020-12-20T10:00:12.796000+00:00</time>
      </trkpt>
      <trkpt lat="0" lon="0">
        <time>2020-12-20T10:00:12.797000+00:00</time>
      </trkpt>
      <trkpt lat="47.34294" lon="-1.30877">
        <ele>98</ele>
        <time>2020-12-20T10:00:13.790000+00:00</time>
      </trkpt>
      <trkpt lat="0" lon="0">
        <time>2020-12-20T10:00:13.798000+00:00</time>
      </trkpt>
      <trkpt lat="0" lon="0">
        <time>2020-12-20T10:00:13.806000+00:00</time>
      </trkpt>
      <trkpt lat="0" lon="0">
        <time>2020-12-20T10:00:13.815000+00:00</time>
      </trkpt>
      <trkpt lat="47.34293" lon="-1.30879">
        <ele>98</ele>
        <time>2020-12-20T10:00:14.790000+00:00</time>
      </trkpt>
      <trkpt lat="0" lon="0">
        <time>2020-12-20T10:00:14.798000+00:00</time>
      </trkpt>
      <trkpt lat="0" lon="0">
        <time>2020-12-20T10:00:14.802000+00:00</time>
      </trkpt>
      <trkpt lat="0" lon="0">
        <time>2020-12-20T10:00:14.804000+00:00</time>
      </trkpt>
      <trkpt lat="47.34292" lon="-1.30881">
        <ele>98</ele>
        <time>2020-12-20T10:00:15.731000+00:00</time>
      </trkpt>
      <trkpt lat="0" lon="0">
        <time>2020-12-20T10:00:15.746000+00:00</time>
      </trkpt>
      <trkpt lat="0" lon="0">
        <time>2020-12-20T10:00:15.751000+00:00</time>
      </trkpt>
      <trkpt lat="0" lon="0">
        <time>2020-12-20T10:00:15.753000+00:00</time>
      </trkpt>
      <trkpt lat="47.34291" lon="-1.30884">
        <ele>98</ele>
        <time>2020-12-20T10:00:16.758000+00:00</time>
      </trkpt>
      <trkpt lat="0" lon="0">
        <time>2020-12-20T10:00:16.774000+00:00</time>
      </trkpt>
      <trkpt lat="0" lon="0">
        <time>2020-12-20T10:00:16.782000+00:00</time>
      </trkpt>
      <trkpt lat="0" lon="0">
        <time>2020-12-20T10:00:16.784000+00:00</time>
      </trkpt>
      <trkpt lat="47.3429" lon="-1.30886">
        <ele>98</ele>
        <time>2020-12-20T10:00:17.770000+00:00</time>
      </trkpt>
      <trkpt lat="0" lon="0">
        <time>2020-12-20T10:00:17.777000+00:00</time>
      </trkpt>
      <trkpt lat="0" lon="0">
        <time>2020-12-20T10:00:17.782000+00:00</time>
      </trkpt>
      <trkpt lat="0" lon="0">
        <time>2020-12-20T10:00:17.785000+00:00</time>
      </trkpt>
      <trkpt lat="47.34288" lon="-1.30888">
        <ele>98</ele>
        <time>2020-12-20T10:00:18.766000+00:00</time>
      </trkpt>
      <trkpt lat="0" lon="0">
        <time>2020-12-20T10:00:18.780000+00:00</time>
      </trkpt>
      <trkpt lat="0" lon="0">
        <time>2020-12-20T10:00:18.790000+00:00</time>
      </trkpt>
      <trkpt lat="0" lon="0">
        <time>2020-12-20T10:00:18.798000+00:00</time>
      </trkpt>
      <trkpt lat="47.34287" lon="-1.3089">
        <ele>99</ele>
        <time>2020-12-20T10:00:19.760000+00:00</time>
      </trkpt>
      <trkpt lat="0" lon="0">
        <time>2020-12-20T10:00:19.774000+00:00</time>
      </trkpt>
      <trkpt lat="0" lon="0">
        <time>2020-12-20T10:00:19.779000+00:00</time>
      </trkpt>
      <trkpt lat="0" lon="0">
        <time>2020-12-20T10:00:19.781000+00:00</time>
      </trkpt>
      <trkpt lat="47.34285" lon="-1.30893">
        <ele>99</ele>
        <time>2020-12-20T10:00:20.784000+00:00</time>
      </trkpt>
      <trkpt lat="0" lon="0">
        <time>2020-12-20T10:00:20.790000+00:00</time>
      </trkpt>
      <trkpt lat="0" lon="0">
        <time>2020-12-20T10:00:20.799000+00:00</time>
      </trkpt>
      <trkpt lat="0" lon="0">
        <time>2020-12-20T10:00:20.802000+00:00</time>
      </trkpt>
      <trkpt lat="47.34283" lon="-1.30895">
        <ele>99</ele>
        <time>2020-12-20T10:00:21.792000+00:00</time>
      </trkpt>
      <trkpt lat="0" lon="0">
        <time>2020-12-20T10:00:21.809000+00:00</time>
      </trkpt>
      <trkpt lat="0" lon="0">
        <time>2020-12-20T10:00:21.817000+00:00</time>
      </trkpt>
      <trkpt lat="0" lon="0">
        <time>2020-12-20T10:00:21.820000+00:00</time>
      </trkpt>
      <trkpt lat="47.34281" lon="-1.30898">
        <ele>99</ele>
        <time>2020-12-20T10:00:22.781000+00:00</time>
      </trkpt>
      <trkpt lat="0" lon="0">
        <time>2020-12-20T10:00:22.786000+00:00</time>
      </trkpt>
      <trkpt lat="0" lon="0">
        <time>2020-12-20T10:00:22.790000+00:00</time>
      </trkpt>
      <trkpt lat="0" lon="0">
        <time>2020-12-20T10:00:22.792000+00:00</time>
      </trkpt>
      <trkpt lat="47.34279" lon="-1.309">
        <ele>99</ele>
        <time>2020-12-20T10:00:23.790000+00:00</time>
      </trkpt>
      <trkpt lat="0" lon="0">
        <time>2020-12-20T10:00:23.806000+00:00</time>
      </trkpt>
      <trkpt lat="0" lon="0">
        <time>2020-12-20T10:00:23.811000+00:00</time>
      </trkpt>
      <trkpt lat="0" lon="0">
        <time>2020-12-20T10:00:23.815000+00:00</time>
      </trkpt>
      <trkpt lat="47.34277" lon="-1.30903">
        <ele>99</ele>
        <time>2020-12-20T10:00:24.782000+00:00</time>
      </trkpt>
      <trkpt lat="0" lon="0">
        <time>2020-12-20T10:00:24.796000+00:00</time>
      </trkpt>
      <trkpt lat="0" lon="0">
        <time>2020-12-20T10:00:24.803000+00:00</time>
      </trkpt>
      <trkpt lat="0" lon="0">
        <time>2020-12-20T10:00:24.807000+00:00</time>
      </trkpt>
      <trkpt lat="47.34275" lon="-1.30906">
        <ele>99</ele>
        <time>2020-12-20T10:00:25.774000+00:00</time>
      </trkpt>
      <trkpt lat="0" lon="0">
        <time>2020-12-20T10:00:25.792000+00:00</time>
      </trkpt>
      <trkpt lat="0" lon="0">
        <time>2020-12-20T10:00:25.796000+00:00</time>
      </trkpt>
      <trkpt lat="0" lon="0">
        <time>2020-12-20T10:00:25.803000+00:00</time>
      </trkpt>
      <trkpt lat="47.34273" lon="-1.30909">
        <ele>100</ele>
        <time>2020-12-20T10:00:26.762000+00:00</time>
      </trkpt>
      <trkpt lat="0" lon="0">
        <time>2020-12-20T10:00:26.777000+00:00</time>
      </trkpt>
      <trkpt lat="0" lon="0">
        <time>2020-12-20T10:00:26.781000+00:00</time>
      </trkpt>
      <trkpt lat="0" lon="0">
        <time>2020-12-20T10:00:26.784000+00:00</time>
      </trkpt>
      <trkpt lat="47.34271" lon="-1.30912">
        <ele>100</ele>
        <time>2020-12-20T10:00:27.779000+00:00</time>
      </trkpt>
      <trkpt lat="0" lon="0">
        <time>2020-12-20T10:00:27.783000+00:00</time>
      </trkpt>
      <trkpt lat="0" lon="0">
        <time>2020-12-20T10:00:27.787000+00:00</time>
      </trkpt>
      <trkpt lat="0" lon="0">
        <time>2020-12-20T10:00:27.790000+00:00</time>
      </trkpt>
      <trkpt lat="47.3427" lon="-1.30915">
        <ele>100</ele>
        <time>2020-12-20T10:00:28.795000+00:00</time>
      </trkpt>
      <trkpt lat="0" lon="0">
        <time>2020-12-20T10:00:28.803000+00:00</time>
      </trkpt>
      <trkpt lat="0" lon="0">
        <time>2020-12-20T10:00:28.809000+00:00</time>
      </trkpt>
      <trkpt lat="0" lon="0">
        <time>2020-12-20T10:00:28.814000+00:00</time>
      </trkpt>
      <trkpt lat="47.34268" lon="-1.30918">
        <ele>100</ele>
        <time>2020-12-20T10:00:29.762000+00:00</time>
      </trkpt>
      <trkpt lat="0" lon="0">
        <time>2020-12-20T10:00:29.772000+00:00</time>
      </trkpt>
      <trkpt lat="0" lon="0">
        <time>2020-12-20T10:00:29.777000+00:00</time>
      </trkpt>
      <trkpt lat="0" lon="0">
        <time>2020-12-20T10:00:29.779000+00:00</time>
      </trkpt>
      <trkpt lat="47.34266" lon="-1.30921">
        <ele>100</ele>
        <time>2020-12-20T10:00:30.758000+00:00</time>
      </trkpt>
      <trkpt lat="0" lon="0">
        <time>2020-12-20T10:00:30.768000+00:00</time>
      </trkpt>
      <trkpt lat="0" lon="0">
        <time>2020-12-20T10:00:30.775000+00:00</time>
      </trkpt>
      <trkpt lat="0" lon="0">
        <time>2020-12-20T10:00:30.778000+00:00</time>
      </trkpt>
      <trkpt lat="47.34264" lon="-1.30924">
        <ele>100</ele>
        <time>2020-12-20T10:00:31.749000+00:00</time>
      </trkpt>
      <trkpt lat="0" lon="0">
        <time>2020-12-20T10:00:31.763000+00:00</time>
      </trkpt>
      <trkpt lat="0" lon="0">
        <time>2020-12-20T10:00:31.769000+00:00</time>
      </trkpt>
      <trkpt lat="0" lon="0">
        <time>2020-12-20T10:00:31.771000+00:00</time>
      </trkpt>
      <trkpt lat="47.34262" lon="-1.30927">
        <ele>100</ele>
        <time>2020-12-20T10:00:32.750000+00:00</time>
      </trkpt>
      <trkpt lat="0" lon="0">
        <time>2020-12-20T10:00:32.759000+00:00</time>
      </trkpt>
      <trkpt lat="0" lon="0">
        <time>2020-12-20T10:00:32.764000+00:00</time>
      </trkpt>
      <trkpt lat="0" lon="0">
        <time>2020-12-20T10:00:32.766000+00:00</time>
      </trkpt>
      <trkpt lat="47.34261" lon="-1.30931">
        <ele>100</ele>
        <time>2020-12-20T10:00:33.777000+00:00</time>
      </trkpt>
      <trkpt lat="0" lon="0">
        <time>2020-12-20T10:00:33.796000+00:00</time>
      </trkpt>
      <trkpt lat="0" lon="0">
        <time>2020-12-20T10:00:33.800000+00:00</time>
      </trkpt>
      <trkpt lat="0" lon="0">
        <time>2020-12-20T10:00:33.803000+00:00</time>
      </trkpt>
      <trkpt lat="47.34259" lon="-1.30934">
        <ele>100</ele>
        <time>2020-12-20T10:00:34.781000+00:00</time>
      </trkpt>
      <trkpt lat="0" lon="0">
        <time>2020-12-20T10:00:34.788000+00:00</time>
      </trkpt>
      <trkpt lat="0" lon="0">
        <time>2020-12-20T10:00:34.792000+00:00</time>
      </trkpt>
      <trkpt lat="0" lon="0">
        <time>2020-12-20T10:00:34.795000+00:00</time>
      </trkpt>
      <trkpt lat="47.34257" lon="-1.30938">
        <ele>100</ele>
        <time>2020-12-20T10:00:35.759000+00:00</time>
      </trkpt>
      <trkpt lat="0" lon="0">
        <time>2020-12-20T10:00:35.767000+00:00</time>
      </trkpt>
      <trkpt lat="0" lon="0">
        <time>2020-12-20T10:00:35.772000+00:00</time>
      </trkpt>
      <trkpt lat="0" lon="0">
        <time>2020-12-20T10:00:35.774000+00:00</time>
      </trkpt>
      <trkpt lat="47.34256" lon="-1.30941">
        <ele>101</ele>
        <time>2020-12-20T10:00:36.760000+00:00</time>
      </trkpt>
      <trkpt lat="0" lon="0">
        <time>2020-12-20T10:00:36.764000+00:00</time>
      </trkpt>
      <trkpt lat="0" lon="0">
        <time>2020-12-20T10:00:36.774000+00:00</time>
      </trkpt>
      <trkpt lat="0" lon="0">
        <time>2020-12-20T10:00:36.776000+00:00</time>
      </trkpt>
      <trkpt lat="47.34254" lon="-1.30945">
        <ele>101</ele>
        <time>2020-12-20T10:00:37.746000+00:00</time>
      </trkpt>
      <trkpt lat="0" lon="0">
        <time>2020-12-20T10:00:37.763000+00:00</time>
      </trkpt>
      <trkpt lat="0" lon="0">
        <time>2020-12-20T10:00:37.767000+00:00</time>
      </trkpt>
      <trkpt lat="0" lon="0">
        <time>2020-12-20T10:00:37.770000+00:00</time>
      </trkpt>
      <trkpt lat="47.34253" lon="-1.30948">
        <ele>101</ele>
        <time>2020-12-20T10:00:38.795000+00:00</time>
      </trkpt>
      <trkpt lat="0" lon="0">
        <time>2020-12-20T10:00:38.808000+00:00</time>
      </trkpt>
      <trkpt lat="0" lon="0">
        <time>2020-12-20T10:00:38.817000+00:00</time>
      </trkpt>
      <trkpt lat="0" lon="0">
        <time>2020-12-20T10:00:38.819000+00:00</time>
      </trkpt>
      <trkpt lat="47.34251" lon="-1.30951">
        <ele>101</ele>
        <time>2020-12-20T10:00:39.810000+00:00</time>
      </trkpt>
      <trkpt lat="0" lon="0">
        <time>2020-12-20T10:00:39.814000+00:00</time>
      </trkpt>
      <trkpt lat="0" lon="0">
        <time>2020-12-20T10:00:39.820000+00:00</time>
      </trkpt>
      <trkpt lat="0" lon="0">
        <time>2020-12-20T10:00:39.822000+00:00</time>
      </trkpt>
      <trkpt lat="47.34249" lon="-1.30954">
        <ele>101</ele>
        <time>2020-12-20T10:00:40.757000+00:00</time>
      </trkpt>
      <trkpt lat="0" lon="0">
        <time>2020-12-20T10:00:40.763000+00:00</time>
      </trkpt>
      <trkpt lat="0" lon="0">
        <time>2020-12-20T10:00:40.767000+00:00</time>
      </trkpt>
      <trkpt lat="0" lon="0">
        <time>2020-12-20T10:00:40.770000+00:00</time>
      </trkpt>
      <trkpt lat="47.34247" lon="-1.30957">
        <ele>101</ele>
        <time>2020-12-20T10:00:41.749000+00:00</time>
      </trkpt>
      <trkpt lat="0" lon="0">
        <time>2020-12-20T10:00:41.755000+00:00</time>
      </trkpt>
      <trkpt lat="0" lon="0">
        <time>2020-12-20T10:00:41.759000+00:00</time>
      </trkpt>
      <trkpt lat="0" lon="0">
        <time>2020-12-20T10:00:41.761000+00:00</time>
      </trkpt>
      <trkpt lat="47.34245" lon="-1.3096">
        <ele>101</ele>
        <time>2020-12-20T10:00:42.777000+00:00</time>
      </trkpt>
      <trkpt lat="0" lon="0">
        <time>2020-12-20T10:00:42.788000+00:00</time>
      </trkpt>
      <trkpt lat="0" lon="0">
        <time>2020-12-20T10:00:42.801000+00:00</time>
      </trkpt>
      <trkpt lat="0" lon="0">
        <time>2020-12-20T10:00:42.804000+00:00</time>
      </trkpt>
      <trkpt lat="47.34242" lon="-1.30962">
        <ele>101</ele>
        <time>2020-12-20T10:00:43.781000+00:00</time>
      </trkpt>
      <trkpt lat="0" lon="0">
        <time>2020-12-20T10:00:43.788000+00:00</time>
      </trkpt>
      <trkpt lat="0" lon="0">
        <time>2020-12-20T10:00:43.793000+00:00</time>
      </trkpt>
      <trkpt lat="0" lon="0">
        <time>2020-12-20T10:00:43.796000+00:00</time>
      </trkpt>
      <trkpt lat="47.3424" lon="-1.30965">
        <ele>101</ele>
        <time>2020-12-20T10:00:44.771000+00:00</time>
      </trkpt>
      <trkpt lat="0" lon="0">
        <time>2020-12-20T10:00:44.782000+00:00</time>
      </trkpt>
      <trkpt lat="0" lon="0">
        <time>2020-12-20T10:00:44.786000+00:00</time>
      </trkpt>
      <trkpt lat="0" lon="0">
        <time>2020-12-20T10:00:44.789000+00:00</time>
      </trkpt>
      <trkpt lat="47.34237" lon="-1.30967">
        <ele>102</ele>
        <time>2020-12-20T10:00:45.765000+00:00</time>
      </trkpt>
      <trkpt lat="0" lon="0">
        <time>2020-12-20T10:00:45.770000+00:00</time>
      </trkpt>
      <trkpt lat="0" lon="0">
        <time>2020-12-20T10:00:45.777000+00:00</time>
      </trkpt>
      <trkpt lat="0" lon="0">
        <time>2020-12-20T10:00:45.782000+00:00</time>
      </trkpt>
      <trkpt lat="47.34235" lon="-1.30969">
        <ele>101</ele>
        <time>2020-12-20T10:00:46.781000+00:00</time>
      </trkpt>
      <trkpt lat="0" lon="0">
        <time>2020-12-20T10:00:46.795000+00:00</time>
      </trkpt>
      <trkpt lat="0" lon="0">
        <time>2020-12-20T10:00:46.801000+00:00</time>
      </trkpt>
      <trkpt lat="0" lon="0">
        <time>2020-12-20T10:00:46.804000+00:00</time>
      </trkpt>
      <trkpt lat="47.34232" lon="-1.30971">
        <ele>101</ele>
        <time>2020-12-20T10:00:47.813000+00:00</time>
      </trkpt>
      <trkpt lat="0" lon="0">
        <time>2020-12-20T10:00:47.828000+00:00</time>
      </trkpt>
      <trkpt lat="0" lon="0">
        <time>2020-12-20T10:00:47.834000+00:00</time>
      </trkpt>
      <trkpt lat="0" lon="0">
        <time>2020-12-20T10:00:47.838000+00:00</time>
      </trkpt>
      <trkpt lat="47.3423" lon="-1.30973">
        <ele>102</ele>
        <time>2020-12-20T10:00:48.768000+00:00</time>
      </trkpt>
      <trkpt lat="0" lon="0">
        <time>2020-12-20T10:00:48.777000+00:00</time>
      </trkpt>
      <trkpt lat="0" lon="0">
        <time>2020-12-20T10:00:48.781000+00:00</time>
      </trkpt>
      <trkpt lat="0" lon="0">
        <time>2020-12-20T10:00:48.784000+00:00</time>
      </trkpt>
      <trkpt lat="47.34228" lon="-1.30974">
        <ele>101</ele>
        <time>2020-12-20T10:00:49.758000+00:00</time>
      </trkpt>
      <trkpt lat="0" lon="0">
        <time>2020-12-20T10:00:49.763000+00:00</time>
      </trkpt>
      <trkpt lat="0" lon="0">
        <time>2020-12-20T10:00:49.769000+00:00</time>
      </trkpt>
      <trkpt lat="0" lon="0">
        <time>2020-12-20T10:00:49.774000+00:00</time>
      </trkpt>
      <trkpt lat="47.34226" lon="-1.30975">
        <ele>101</ele>
        <time>2020-12-20T10:00:50.764000+00:00</time>
      </trkpt>
      <trkpt lat="0" lon="0">
        <time>2020-12-20T10:00:50.774000+00:00</time>
      </trkpt>
      <trkpt lat="0" lon="0">
        <time>2020-12-20T10:00:50.778000+00:00</time>
      </trkpt>
      <trkpt lat="0" lon="0">
        <time>2020-12-20T10:00:50.781000+00:00</time>
      </trkpt>
      <trkpt lat="47.34224" lon="-1.30977">
        <ele>101</ele>
        <time>2020-12-20T10:00:51.785000+00:00</time>
      </trkpt>
      <trkpt lat="0" lon="0">
        <time>2020-12-20T10:00:51.798000+00:00</time>
      </trkpt>
      <trkpt lat="0" lon="0">
        <time>2020-12-20T10:00:51.805000+00:00</time>
      </trkpt>
      <trkpt lat="0" lon="0">
        <time>2020-12-20T10:00:51.810000+00:00</time>
      </trkpt>
      <trkpt lat="47.34222" lon="-1.30978">
        <ele>101</ele>
        <time>2020-12-20T10:00:52.759000+00:00</time>
      </trkpt>
      <trkpt lat="0" lon="0">
        <time>2020-12-20T10:00:52.768000+00:00</time>
      </trkpt>
      <trkpt lat="0" lon="0">
        <time>2020-12-20T10:00:52.772000+00:00</time>
      </trkpt>
      <trkpt lat="0" lon="0">
        <time>2020-12-20T10:00:52.775000+00:00</time>
      </trkpt>
      <trkpt lat="47.34221" lon="-1.30979">
        <ele>101</ele>
        <time>2020-12-20T10:00:53.740000+00:00</time>
      </trkpt>
      <trkpt lat="0" lon="0">
        <time>2020-12-20T10:00:53.751000+00:00</time>
      </trkpt>
      <trkpt lat="0" lon="0">
        <time>2020-12-20T10:00:53.757000+00:00</time>
      </trkpt>
      <trkpt lat="0" lon="0">
        <time>2020-12-20T10:00:53.759000+00:00</time>
      </trkpt>
      <trkpt lat="47.34219" lon="-1.3098">
        <ele>101</ele>
        <time>2020-12-20T10:00:54.744000+00:00</time>
      </trkpt>
      <trkpt lat="0" lon="0">
        <time>2020-12-20T10:00:54.752000+00:00</time>
      </trkpt>
      <trkpt lat="0" lon="0">
        <time>2020-12-20T10:00:54.757000+00:00</time>
      </trkpt>
      <trkpt lat="0" lon="0">
        <time>2020-12-20T10:00:54.759000+00:00</time>
      </trkpt>
      <trkpt lat="47.34218" lon="-1.30981">
        <ele>101</ele>
        <time>2020-12-20T10:00:55.786000+00:00</time>
      </trkpt>
      <trkpt lat="0" lon="0">
        <time>2020-12-20T10:00:55.796000+00:00</time>
      </trkpt>
      <trkpt lat="0" lon="0">
        <time>2020-12-20T10:00:55.800000+00:00</time>
      </trkpt>
      <trkpt lat="0" lon="0">
        <time>2020-12-20T10:00:55.803000+00:00</time>
      </trkpt>
      <trkpt lat="47.34216" lon="-1.30981">
        <ele>102</ele>
        <time>2020-12-20T10:00:56.793000+00:00</time>
      </trkpt>
      <trkpt lat="0" lon="0">
        <time>2020-12-20T10:00:56.795000+00:00</time>
      </trkpt>
      <trkpt lat="0" lon="0">
        <time>2020-12-20T10:00:56.798000+00:00</time>
      </trkpt>
      <trkpt lat="0" lon="0">
        <time>2020-12-20T10:00:56.799000+00:00</time>
      </trkpt>
      <trkpt lat="47.34214" lon="-1.30982">
        <ele>102</ele>
        <time>2020-12-20T10:00:57.782000+00:00</time>
      </trkpt>
      <trkpt lat="0" lon="0">
        <time>2020-12-20T10:00:57.791000+00:00</time>
      </trkpt>
      <trkpt lat="0" lon="0">
        <time>2020-12-20T10:00:57.797000+00:00</time>
      </trkpt>
      <trkpt lat="0" lon="0">
        <time>2020-12-20T10:00:57.804000+00:00</time>
      </trkpt>
      <trkpt lat="47.34213" lon="-1.30983">
        <ele>102</ele>
        <time>2020-12-20T10:00:58.784000+00:00</time>
      </trkpt>
      <trkpt lat="0" lon="0">
        <time>2020-12-20T10:00:58.790000+00:00</time>
      </trkpt>
      <trkpt lat="0" lon="0">
        <time>2020-12-20T10:00:58.793000+00:00</time>
      </trkpt>
      <trkpt lat="0" lon="0">
        <time>2020-12-20T10:00:58.796000+00:00</time>
      </trkpt>
      <trkpt lat="47.34211" lon="-1.30984">
        <ele>101</ele>
        <time>2020-12-20T10:00:59.785000+00:00</time>
      </trkpt>
      <trkpt lat="0" lon="0">
        <time>2020-12-20T10:00:59.792000+00:00</time>
      </trkpt>
      <trkpt lat="0" lon="0">
        <time>2020-12-20T10:00:59.798000+00:00</time>
      </trkpt>
      <trkpt lat="0" lon="0">
        <time>2020-12-20T10:00:59.803000+00:00</time>
      </trkpt>
      <trkpt lat="47.34209" lon="-1.30984">
        <ele>101</ele>
        <time>2020-12-20T10:01:00.762000+00:00</time>
      </trkpt>
      <trkpt lat="0" lon="0">
        <time>2020-12-20T10:01:00.771000+00:00</time>
      </trkpt>
      <trkpt lat="0" lon="0">
        <time>2020-12-20T10:01:00.777000+00:00</time>
      </trkpt>
      <trkpt lat="0" lon="0">
        <time>2020-12-20T10:01:00.780000+00:00</time>
      </trkpt>
      <trkpt lat="47.34207" lon="-1.30985">
        <ele>102</ele>
        <time>2020-12-20T10:01:01.769000+00:00</time>
      </trkpt>
      <trkpt lat="0" lon="0">
        <time>2020-12-20T10:01:01.781000+00:00</time>
      </trkpt>
      <trkpt lat="0" lon="0">
        <time>2020-12-20T10:01:01.788000+00:00</time>
      </trkpt>
      <trkpt lat="0" lon="0">
        <time>2020-12-20T10:01:01.790000+00:00</time>
      </trkpt>
      <trkpt lat="47.34205" lon="-1.30986">
        <ele>102</ele>
        <time>2020-12-20T10:01:02.778000+00:00</time>
      </trkpt>
      <trkpt lat="0" lon="0">
        <time>2020-12-20T10:01:02.782000+00:00</time>
      </trkpt>
      <trkpt lat="0" lon="0">
        <time>2020-12-20T10:01:02.784000+00:00</time>
      </trkpt>
      <trkpt lat="0" lon="0">
        <time>2020-12-20T10:01:02.786000+00:00</time>
      </trkpt>
      <trkpt lat="47.34204" lon="-1.30988">
        <ele>102</ele>
        <time>2020-12-20T10:01:03.750000+00:00</time>
      </trkpt>
      <trkpt lat="0" lon="0">
        <time>2020-12-20T10:01:03.762000+00:00</time>
      </trkpt>
      <trkpt lat="0" lon="0">
        <time>2020-12-20T10:01:03.769000+00:00</time>
      </trkpt>
      <trkpt lat="0" lon="0">
        <time>2020-12-20T10:01:03.771000+00:00</time>
      </trkpt>
      <trkpt lat="47.34202" lon="-1.30989">
        <ele>102</ele>
        <time>2020-12-20T10:01:04.754000+00:00</time>
      </trkpt>
      <trkpt lat="0" lon="0">
        <time>2020-12-20T10:01:04.767000+00:00</time>
      </trkpt>
      <trkpt lat="0" lon="0">
        <time>2020-12-20T10:01:04.780000+00:00</time>
      </trkpt>
      <trkpt lat="0" lon="0">
        <time>2020-12-20T10:01:04.783000+00:00</time>
      </trkpt>
      <trkpt lat="47.342" lon="-1.30991">
        <ele>102</ele>
        <time>2020-12-20T10:01:05.764000+00:00</time>
      </trkpt>
      <trkpt lat="0" lon="0">
        <time>2020-12-20T10:01:05.778000+00:00</time>
      </trkpt>
      <trkpt lat="0" lon="0">
        <time>2020-12-20T10:01:05.784000+00:00</time>
      </trkpt>
      <trkpt lat="0" lon="0">
        <time>2020-12-20T10:01:05.790000+00:00</time>
      </trkpt>
      <trkpt lat="47.34198" lon="-1.30993">
        <ele>102</ele>
        <time>2020-12-20T10:01:06.768000+00:00</time>
      </trkpt>
      <trkpt lat="0" lon="0">
        <time>2020-12-20T10:01:06.791000+00:00</time>
      </trkpt>
      <trkpt lat="0" lon="0">
        <time>2020-12-20T10:01:06.796000+00:00</time>
      </trkpt>
      <trkpt lat="0" lon="0">
        <time>2020-12-20T10:01:06.799000+00:00</time>
      </trkpt>
      <trkpt lat="47.34196" lon="-1.30995">
        <ele>102</ele>
        <time>2020-12-20T10:01:07.758000+00:00</time>
      </trkpt>
      <trkpt lat="0" lon="0">
        <time>2020-12-20T10:01:07.765000+00:00</time>
      </trkpt>
      <trkpt lat="0" lon="0">
        <time>2020-12-20T10:01:07.776000+00:00</time>
      </trkpt>
      <trkpt lat="0" lon="0">
        <time>2020-12-20T10:01:07.779000+00:00</time>
      </trkpt>
      <trkpt lat="47.34194" lon="-1.30997">
        <ele>102</ele>
        <time>2020-12-20T10:01:08.805000+00:00</time>
      </trkpt>
      <trkpt lat="0" lon="0">
        <time>2020-12-20T10:01:08.811000+00:00</time>
      </trkpt>
      <trkpt lat="0" lon="0">
        <time>2020-12-20T10:01:08.819000+00:00</time>
      </trkpt>
      <trkpt lat="0" lon="0">
        <time>2020-12-20T10:01:08.821000+00:00</time>
      </trkpt>
      <trkpt lat="47.34191" lon="-1.30998">
        <ele>102</ele>
        <time>2020-12-20T10:01:09.779000+00:00</time>
      </trkpt>
      <trkpt lat="0" lon="0">
        <time>2020-12-20T10:01:09.784000+00:00</time>
      </trkpt>
      <trkpt lat="0" lon="0">
        <time>2020-12-20T10:01:09.795000+00:00</time>
      </trkpt>
      <trkpt lat="0" lon="0">
        <time>2020-12-20T10:01:09.797000+00:00</time>
      </trkpt>
      <trkpt lat="47.34189" lon="-1.31">
        <ele>103</ele>
        <time>2020-12-20T10:01:10.767000+00:00</time>
      </trkpt>
      <trkpt lat="0" lon="0">
        <time>2020-12-20T10:01:10.780000+00:00</time>
      </trkpt>
      <trkpt lat="0" lon="0">
        <time>2020-12-20T10:01:10.791000+00:00</time>
      </trkpt>
      <trkpt lat="0" lon="0">
        <time>2020-12-20T10:01:10.795000+00:00</time>
      </trkpt>
      <trkpt lat="47.34187" lon="-1.31002">
        <ele>103</ele>
        <time>2020-12-20T10:01:11.793000+00:00</time>
      </trkpt>
      <trkpt lat="0" lon="0">
        <time>2020-12-20T10:01:11.806000+00:00</time>
      </trkpt>
      <trkpt lat="0" lon="0">
        <time>2020-12-20T10:01:11.811000+00:00</time>
      </trkpt>
      <trkpt lat="0" lon="0">
        <time>2020-12-20T10:01:11.816000+00:00</time>
      </trkpt>
      <trkpt lat="47.34185" lon="-1.31004">
        <ele>103</ele>
        <time>2020-12-20T10:01:12.796000+00:00</time>
      </trkpt>
      <trkpt lat="0" lon="0">
        <time>2020-12-20T10:01:12.800000+00:00</time>
      </trkpt>
      <trkpt lat="0" lon="0">
        <time>2020-12-20T10:01:12.810000+00:00</time>
      </trkpt>
      <trkpt lat="0" lon="0">
        <time>2020-12-20T10:01:12.816000+00:00</time>
      </trkpt>
      <trkpt lat="47.34183" lon="-1.31006">
        <ele>103</ele>
        <time>2020-12-20T10:01:13.750000+00:00</time>
      </trkpt>
      <trkpt lat="0" lon="0">
        <time>2020-12-20T10:01:13.756000+00:00</time>
      </trkpt>
      <trkpt lat="0" lon="0">
        <time>2020-12-20T10:01:13.760000+00:00</time>
      </trkpt>
      <trkpt lat="0" lon="0">
        <time>2020-12-20T10:01:13.762000+00:00</time>
      </trkpt>
      <trkpt lat="47.34181" lon="-1.31008">
        <ele>103</ele>
        <time>2020-12-20T10:01:14.759000+00:00</time>
      </trkpt>
      <trkpt lat="0" lon="0">
        <time>2020-12-20T10:01:14.775000+00:00</time>
      </trkpt>
      <trkpt lat="0" lon="0">
        <time>2020-12-20T10:01:14.781000+00:00</time>
      </trkpt>
      <trkpt lat="0" lon="0">
        <time>2020-12-20T10:01:14.785000+00:00</time>
      </trkpt>
      <trkpt lat="47.34179" lon="-1.3101">
        <ele>103</ele>
        <time>2020-12-20T10:01:15.705000+00:00</time>
      </trkpt>
      <trkpt lat="0" lon="0">
        <time>2020-12-20T10:01:15.708000+00:00</time>
      </trkpt>
      <trkpt lat="0" lon="0">
        <time>2020-12-20T10:01:15.712000+00:00</time>
      </trkpt>
      <trkpt lat="47.34177" lon="-1.31012">
        <ele>103</ele>
        <time>2020-12-20T10:01:16.689000+00:00</time>
      </trkpt>
      <trkpt lat="0" lon="0">
        <time>2020-12-20T10:01:16.691000+00:00</time>
      </trkpt>
      <trkpt lat="0" lon="0">
        <time>2020-12-20T10:01:16.694000+00:00</time>
      </trkpt>
      <trkpt lat="0" lon="0">
        <time>2020-12-20T10:01:16.695000+00:00</time>
      </trkpt>
      <trkpt lat="47.34176" lon="-1.31014">
        <ele>102</ele>
        <time>2020-12-20T10:01:17.742000+00:00</time>
      </trkpt>
      <trkpt lat="0" lon="0">
        <time>2020-12-20T10:01:17.750000+00:00</time>
      </trkpt>
      <trkpt lat="0" lon="0">
        <time>2020-12-20T10:01:17.755000+00:00</time>
      </trkpt>
      <trkpt lat="0" lon="0">
        <time>2020-12-20T10:01:17.758000+00:00</time>
      </trkpt>
      <trkpt lat="47.34174" lon="-1.31016">
        <ele>102</ele>
        <time>2020-12-20T10:01:18.786000+00:00</time>
      </trkpt>
      <trkpt lat="0" lon="0">
        <time>2020-12-20T10:01:18.791000+00:00</time>
      </trkpt>
      <trkpt lat="0" lon="0">
        <time>2020-12-20T10:01:18.793000+00:00</time>
      </trkpt>
      <trkpt lat="47.34173" lon="-1.31018">
        <ele>102</ele>
        <time>2020-12-20T10:01:19.746000+00:00</time>
      </trkpt>
      <trkpt lat="0" lon="0">
        <time>2020-12-20T10:01:19.749000+00:00</time>
      </trkpt>
      <trkpt lat="0" lon="0">
        <time>2020-12-20T10:01:19.758000+00:00</time>
      </trkpt>
      <trkpt lat="0" lon="0">
        <time>2020-12-20T10:01:19.761000+00:00</time>
      </trkpt>
      <trkpt lat="47.34172" lon="-1.31019">
        <ele>102</ele>
        <time>2020-12-20T10:01:20.726000+00:00</time>
      </trkpt>
      <trkpt lat="0" lon="0">
        <time>2020-12-20T10:01:20.735000+00:00</time>
      </trkpt>
      <trkpt lat="0" lon="0">
        <time>2020-12-20T10:01:20.739000+00:00</time>
      </trkpt>
      <trkpt lat="0" lon="0">
        <time>2020-12-20T10:01:20.742000+00:00</time>
      </trkpt>
      <trkpt lat="47.34171" lon="-1.3102">
        <ele>102</ele>
        <time>2020-12-20T10:01:21.759000+00:00</time>
      </trkpt>
      <trkpt lat="0" lon="0">
        <time>2020-12-20T10:01:21.770000+00:00</time>
      </trkpt>
      <trkpt lat="0" lon="0">
        <time>2020-12-20T10:01:21.776000+00:00</time>
      </trkpt>
      <trkpt lat="0" lon="0">
        <time>2020-12-20T10:01:21.780000+00:00</time>
      </trkpt>
      <trkpt lat="47.34171" lon="-1.31021">
        <ele>102</ele>
        <time>2020-12-20T10:01:22.718000+00:00</time>
      </trkpt>
      <trkpt lat="0" lon="0">
        <time>2020-12-20T10:01:22.725000+00:00</time>
      </trkpt>
      <trkpt lat="0" lon="0">
        <time>2020-12-20T10:01:22.728000+00:00</time>
      </trkpt>
      <trkpt lat="0" lon="0">
        <time>2020-12-20T10:01:22.732000+00:00</time>
      </trkpt>
      <trkpt lat="47.34171" lon="-1.31021">
        <ele>102</ele>
        <time>2020-12-20T10:01:23.718000+00:00</time>
      </trkpt>
      <trkpt lat="0" lon="0">
        <time>2020-12-20T10:01:23.730000+00:00</time>
      </trkpt>
      <trkpt lat="0" lon="0">
        <time>2020-12-20T10:01:23.739000+00:00</time>
      </trkpt>
      <trkpt lat="0" lon="0">
        <time>2020-12-20T10:01:23.741000+00:00</time>
      </trkpt>
      <trkpt lat="47.34171" lon="-1.31022">
        <ele>102</ele>
        <time>2020-12-20T10:01:24.787000+00:00</time>
      </trkpt>
      <trkpt lat="0" lon="0">
        <time>2020-12-20T10:01:24.795000+00:00</time>
      </trkpt>
      <trkpt lat="0" lon="0">
        <time>2020-12-20T10:01:24.805000+00:00</time>
      </trkpt>
      <trkpt lat="0" lon="0">
        <time>2020-12-20T10:01:24.810000+00:00</time>
      </trkpt>
      <trkpt lat="47.34171" lon="-1.31022">
        <ele>102</ele>
        <time>2020-12-20T10:01:25.736000+00:00</time>
      </trkpt>
      <trkpt lat="0" lon="0">
        <time>2020-12-20T10:01:25.742000+00:00</time>
      </trkpt>
      <trkpt lat="0" lon="0">
        <time>2020-12-20T10:01:25.748000+00:00</time>
      </trkpt>
      <trkpt lat="0" lon="0">
        <time>2020-12-20T10:01:25.751000+00:00</time>
      </trkpt>
      <trkpt lat="47.34172" lon="-1.31022">
        <ele>102</ele>
        <time>2020-12-20T10:01:26.778000+00:00</time>
      </trkpt>
      <trkpt lat="0" lon="0">
        <time>2020-12-20T10:01:26.801000+00:00</time>
      </trkpt>
      <trkpt lat="0" lon="0">
        <time>2020-12-20T10:01:26.806000+00:00</time>
      </trkpt>
      <trkpt lat="0" lon="0">
        <time>2020-12-20T10:01:26.809000+00:00</time>
      </trkpt>
      <trkpt lat="47.34172" lon="-1.31022">
        <ele>102</ele>
        <time>2020-12-20T10:01:27.780000+00:00</time>
      </trkpt>
      <trkpt lat="0" lon="0">
        <time>2020-12-20T10:01:27.785000+00:00</time>
      </trkpt>
      <trkpt lat="0" lon="0">
        <time>2020-12-20T10:01:27.787000+00:00</time>
      </trkpt>
      <trkpt lat="0" lon="0">
        <time>2020-12-20T10:01:27.788000+00:00</time>
      </trkpt>
      <trkpt lat="47.34172" lon="-1.31021">
        <ele>102</ele>
        <time>2020-12-20T10:01:28.720000+00:00</time>
      </trkpt>
      <trkpt lat="0" lon="0">
        <time>2020-12-20T10:01:28.722000+00:00</time>
      </trkpt>
      <trkpt lat="0" lon="0">
        <time>2020-12-20T10:01:28.724000+00:00</time>
      </trkpt>
      <trkpt lat="0" lon="0">
        <time>2020-12-20T10:01:28.725000+00:00</time>
      </trkpt>
      <trkpt lat="47.34173" lon="-1.31021">
        <ele>102</ele>
        <time>2020-12-20T10:01:29.771000+00:00</time>
      </trkpt>
      <trkpt lat="0" lon="0">
        <time>2020-12-20T10:01:29.781000+00:00</time>
      </trkpt>
      <trkpt lat="0" lon="0">
        <time>2020-12-20T10:01:29.794000+00:00</time>
      </trkpt>
      <trkpt lat="0" lon="0">
        <time>2020-12-20T10:01:29.825000+00:00</time>
      </trkpt>
      <trkpt lat="47.34163" lon="-1.31028">
        <ele>107</ele>
        <time>2020-12-20T10:01:30.746000+00:00</time>
      </trkpt>
      <trkpt lat="0" lon="0">
        <time>2020-12-20T10:01:30.757000+00:00</time>
      </trkpt>
      <trkpt lat="0" lon="0">
        <time>2020-12-20T10:01:30.764000+00:00</time>
      </trkpt>
      <trkpt lat="0" lon="0">
        <time>2020-12-20T10:01:30.765000+00:00</time>
      </trkpt>
      <trkpt lat="47.3416" lon="-1.3103">
        <ele>106</ele>
        <time>2020-12-20T10:01:31.800000+00:00</time>
      </trkpt>
      <trkpt lat="0" lon="0">
        <time>2020-12-20T10:01:31.808000+00:00</time>
      </trkpt>
      <trkpt lat="0" lon="0">
        <time>2020-12-20T10:01:31.810000+00:00</time>
      </trkpt>
      <trkpt lat="0" lon="0">
        <time>2020-12-20T10:01:31.811000+00:00</time>
      </trkpt>
      <trkpt lat="47.34157" lon="-1.31032">
        <ele>106</ele>
        <time>2020-12-20T10:01:32.804000+00:00</time>
      </trkpt>
      <trkpt lat="0" lon="0">
        <time>2020-12-20T10:01:32.813000+00:00</time>
      </trkpt>
      <trkpt lat="0" lon="0">
        <time>2020-12-20T10:01:32.825000+00:00</time>
      </trkpt>
      <trkpt lat="0" lon="0">
        <time>2020-12-20T10:01:32.826000+00:00</time>
      </trkpt>
      <trkpt lat="47.34154" lon="-1.31034">
        <ele>107</ele>
        <time>2020-12-20T10:01:33.828000+00:00</time>
      </trkpt>
      <trkpt lat="0" lon="0">
        <time>2020-12-20T10:01:33.835000+00:00</time>
      </trkpt>
      <trkpt lat="0" lon="0">
        <time>2020-12-20T10:01:33.843000+00:00</time>
      </trkpt>
      <trkpt lat="0" lon="0">
        <time>2020-12-20T10:01:33.847000+00:00</time>
      </trkpt>
      <trkpt lat="47.34151" lon="-1.31037">
        <ele>107</ele>
        <time>2020-12-20T10:01:34.832000+00:00</time>
      </trkpt>
      <trkpt lat="0" lon="0">
        <time>2020-12-20T10:01:34.836000+00:00</time>
      </trkpt>
      <trkpt lat="0" lon="0">
        <time>2020-12-20T10:01:34.847000+00:00</time>
      </trkpt>
      <trkpt lat="0" lon="0">
        <time>2020-12-20T10:01:34.853000+00:00</time>
      </trkpt>
      <trkpt lat="47.34148" lon="-1.31039">
        <ele>107</ele>
        <time>2020-12-20T10:01:35.821000+00:00</time>
      </trkpt>
      <trkpt lat="0" lon="0">
        <time>2020-12-20T10:01:35.842000+00:00</time>
      </trkpt>
      <trkpt lat="0" lon="0">
        <time>2020-12-20T10:01:35.846000+00:00</time>
      </trkpt>
      <trkpt lat="0" lon="0">
        <time>2020-12-20T10:01:35.849000+00:00</time>
      </trkpt>
      <trkpt lat="47.34145" lon="-1.31041">
        <ele>106</ele>
        <time>2020-12-20T10:01:36.787000+00:00</time>
      </trkpt>
      <trkpt lat="0" lon="0">
        <time>2020-12-20T10:01:36.798000+00:00</time>
      </trkpt>
      <trkpt lat="0" lon="0">
        <time>2020-12-20T10:01:36.804000+00:00</time>
      </trkpt>
      <trkpt lat="0" lon="0">
        <time>2020-12-20T10:01:36.808000+00:00</time>
      </trkpt>
      <trkpt lat="47.34142" lon="-1.31044">
        <ele>107</ele>
        <time>2020-12-20T10:01:37.799000+00:00</time>
      </trkpt>
      <trkpt lat="0" lon="0">
        <time>2020-12-20T10:01:37.804000+00:00</time>
      </trkpt>
      <trkpt lat="0" lon="0">
        <time>2020-12-20T10:01:37.809000+00:00</time>
      </trkpt>
      <trkpt lat="0" lon="0">
        <time>2020-12-20T10:01:37.812000+00:00</time>
      </trkpt>
      <trkpt lat="47.34139" lon="-1.31047">
        <ele>107</ele>
        <time>2020-12-20T10:01:38.809000+00:00</time>
      </trkpt>
      <trkpt lat="0" lon="0">
        <time>2020-12-20T10:01:38.816000+00:00</time>
      </trkpt>
      <trkpt lat="0" lon="0">
        <time>2020-12-20T10:01:38.828000+00:00</time>
      </trkpt>
      <trkpt lat="0" lon="0">
        <time>2020-12-20T10:01:38.830000+00:00</time>
      </trkpt>
      <trkpt lat="47.34136" lon="-1.3105">
        <ele>107</ele>
        <time>2020-12-20T10:01:39.780000+00:00</time>
      </trkpt>
      <trkpt lat="0" lon="0">
        <time>2020-12-20T10:01:39.789000+00:00</time>
      </trkpt>
      <trkpt lat="0" lon="0">
        <time>2020-12-20T10:01:39.799000+00:00</time>
      </trkpt>
      <trkpt lat="0" lon="0">
        <time>2020-12-20T10:01:39.803000+00:00</time>
      </trkpt>
      <trkpt lat="47.34133" lon="-1.31053">
        <ele>107</ele>
        <time>2020-12-20T10:01:40.724000+00:00</time>
      </trkpt>
      <trkpt lat="0" lon="0">
        <time>2020-12-20T10:01:40.738000+00:00</time>
      </trkpt>
      <trkpt lat="0" lon="0">
        <time>2020-12-20T10:01:40.741000+00:00</time>
      </trkpt>
      <trkpt lat="0" lon="0">
        <time>2020-12-20T10:01:40.743000+00:00</time>
      </trkpt>
      <trkpt lat="47.3413" lon="-1.31056">
        <ele>107</ele>
        <time>2020-12-20T10:01:41.766000+00:00</time>
      </trkpt>
      <trkpt lat="0" lon="0">
        <time>2020-12-20T10:01:41.771000+00:00</time>
      </trkpt>
      <trkpt lat="0" lon="0">
        <time>2020-12-20T10:01:41.780000+00:00</time>
      </trkpt>
      <trkpt lat="0" lon="0">
        <time>2020-12-20T10:01:41.783000+00:00</time>
      </trkpt>
      <trkpt lat="47.34128" lon="-1.3106">
        <ele>107</ele>
        <time>2020-12-20T10:01:42.843000+00:00</time>
      </trkpt>
      <trkpt lat="0" lon="0">
        <time>2020-12-20T10:01:42.845000+00:00</time>
      </trkpt>
      <trkpt lat="0" lon="0">
        <time>2020-12-20T10:01:42.847000+00:00</time>
      </trkpt>
      <trkpt lat="0" lon="0">
        <time>2020-12-20T10:01:42.850000+00:00</time>
      </trkpt>
      <trkpt lat="47.34126" lon="-1.31063">
        <ele>107</ele>
        <time>2020-12-20T10:01:43.827000+00:00</time>
      </trkpt>
      <trkpt lat="0" lon="0">
        <time>2020-12-20T10:01:43.832000+00:00</time>
      </trkpt>
      <trkpt lat="0" lon="0">
        <time>2020-12-20T10:01:43.839000+00:00</time>
      </trkpt>
      <trkpt lat="0" lon="0">
        <time>2020-12-20T10:01:43.844000+00:00</time>
      </trkpt>
      <trkpt lat="47.34123" lon="-1.31067">
        <ele>107</ele>
        <time>2020-12-20T10:01:44.792000+00:00</time>
      </trkpt>
      <trkpt lat="0" lon="0">
        <time>2020-12-20T10:01:44.810000+00:00</time>
      </trkpt>
      <trkpt lat="0" lon="0">
        <time>2020-12-20T10:01:44.815000+00:00</time>
      </trkpt>
      <trkpt lat="0" lon="0">
        <time>2020-12-20T10:01:44.822000+00:00</time>
      </trkpt>
      <trkpt lat="47.34121" lon="-1.31071">
        <ele>107</ele>
        <time>2020-12-20T10:01:45.814000+00:00</time>
      </trkpt>
      <trkpt lat="0" lon="0">
        <time>2020-12-20T10:01:45.824000+00:00</time>
      </trkpt>
      <trkpt lat="0" lon="0">
        <time>2020-12-20T10:01:45.830000+00:00</time>
      </trkpt>
      <trkpt lat="0" lon="0">
        <time>2020-12-20T10:01:45.833000+00:00</time>
      </trkpt>
      <trkpt lat="47.34119" lon="-1.31075">
        <ele>108</ele>
        <time>2020-12-20T10:01:46.773000+00:00</time>
      </trkpt>
      <trkpt lat="0" lon="0">
        <time>2020-12-20T10:01:46.779000+00:00</time>
      </trkpt>
      <trkpt lat="0" lon="0">
        <time>2020-12-20T10:01:46.782000+00:00</time>
      </trkpt>
      <trkpt lat="0" lon="0">
        <time>2020-12-20T10:01:46.785000+00:00</time>
      </trkpt>
      <trkpt lat="47.34118" lon="-1.31079">
        <ele>108</ele>
        <time>2020-12-20T10:01:47.778000+00:00</time>
      </trkpt>
      <trkpt lat="0" lon="0">
        <time>2020-12-20T10:01:47.783000+00:00</time>
      </trkpt>
      <trkpt lat="0" lon="0">
        <time>2020-12-20T10:01:47.788000+00:00</time>
      </trkpt>
      <trkpt lat="0" lon="0">
        <time>2020-12-20T10:01:47.790000+00:00</time>
      </trkpt>
      <trkpt lat="47.34116" lon="-1.31083">
        <ele>108</ele>
        <time>2020-12-20T10:01:48.801000+00:00</time>
      </trkpt>
      <trkpt lat="0" lon="0">
        <time>2020-12-20T10:01:48.803000+00:00</time>
      </trkpt>
      <trkpt lat="0" lon="0">
        <time>2020-12-20T10:01:48.806000+00:00</time>
      </trkpt>
      <trkpt lat="0" lon="0">
        <time>2020-12-20T10:01:48.807000+00:00</time>
      </trkpt>
      <trkpt lat="47.34113" lon="-1.31086">
        <ele>108</ele>
        <time>2020-12-20T10:01:49.812000+00:00</time>
      </trkpt>
      <trkpt lat="0" lon="0">
        <time>2020-12-20T10:01:49.819000+00:00</time>
      </trkpt>
      <trkpt lat="0" lon="0">
        <time>2020-12-20T10:01:49.824000+00:00</time>
      </trkpt>
      <trkpt lat="0" lon="0">
        <time>2020-12-20T10:01:49.827000+00:00</time>
      </trkpt>
      <trkpt lat="47.34111" lon="-1.3109">
        <ele>108</ele>
        <time>2020-12-20T10:01:50.739000+00:00</time>
      </trkpt>
      <trkpt lat="0" lon="0">
        <time>2020-12-20T10:01:50.751000+00:00</time>
      </trkpt>
      <trkpt lat="0" lon="0">
        <time>2020-12-20T10:01:50.756000+00:00</time>
      </trkpt>
      <trkpt lat="0" lon="0">
        <time>2020-12-20T10:01:50.759000+00:00</time>
      </trkpt>
      <trkpt lat="47.34108" lon="-1.31093">
        <ele>108</ele>
        <time>2020-12-20T10:01:51.695000+00:00</time>
      </trkpt>
      <trkpt lat="0" lon="0">
        <time>2020-12-20T10:01:51.700000+00:00</time>
      </trkpt>
      <trkpt lat="0" lon="0">
        <time>2020-12-20T10:01:51.703000+00:00</time>
      </trkpt>
      <trkpt lat="0" lon="0">
        <time>2020-12-20T10:01:51.704000+00:00</time>
      </trkpt>
      <trkpt lat="47.34104" lon="-1.31095">
        <ele>108</ele>
        <time>2020-12-20T10:01:52.773000+00:00</time>
      </trkpt>
      <trkpt lat="0" lon="0">
        <time>2020-12-20T10:01:52.784000+00:00</time>
      </trkpt>
      <trkpt lat="0" lon="0">
        <time>2020-12-20T10:01:52.790000+00:00</time>
      </trkpt>
      <trkpt lat="0" lon="0">
        <time>2020-12-20T10:01:52.792000+00:00</time>
      </trkpt>
      <trkpt lat="47.341" lon="-1.31097">
        <ele>108</ele>
        <time>2020-12-20T10:01:53.836000+00:00</time>
      </trkpt>
      <trkpt lat="0" lon="0">
        <time>2020-12-20T10:01:53.844000+00:00</time>
      </trkpt>
      <trkpt lat="0" lon="0">
        <time>2020-12-20T10:01:53.848000+00:00</time>
      </trkpt>
      <trkpt lat="0" lon="0">
        <time>2020-12-20T10:01:53.851000+00:00</time>
      </trkpt>
      <trkpt lat="47.34096" lon="-1.31098">
        <ele>109</ele>
        <time>2020-12-20T10:01:54.834000+00:00</time>
      </trkpt>
      <trkpt lat="0" lon="0">
        <time>2020-12-20T10:01:54.854000+00:00</time>
      </trkpt>
      <trkpt lat="0" lon="0">
        <time>2020-12-20T10:01:54.862000+00:00</time>
      </trkpt>
      <trkpt lat="0" lon="0">
        <time>2020-12-20T10:01:54.863000+00:00</time>
      </trkpt>
      <trkpt lat="47.34092" lon="-1.31099">
        <ele>109</ele>
        <time>2020-12-20T10:01:55.716000+00:00</time>
      </trkpt>
      <trkpt lat="0" lon="0">
        <time>2020-12-20T10:01:55.718000+00:00</time>
      </trkpt>
      <trkpt lat="0" lon="0">
        <time>2020-12-20T10:01:55.722000+00:00</time>
      </trkpt>
      <trkpt lat="0" lon="0">
        <time>2020-12-20T10:01:55.723000+00:00</time>
      </trkpt>
      <trkpt lat="47.34088" lon="-1.311">
        <ele>109</ele>
        <time>2020-12-20T10:01:56.819000+00:00</time>
      </trkpt>
      <trkpt lat="0" lon="0">
        <time>2020-12-20T10:01:56.831000+00:00</time>
      </trkpt>
      <trkpt lat="0" lon="0">
        <time>2020-12-20T10:01:56.838000+00:00</time>
      </trkpt>
      <trkpt lat="0" lon="0">
        <time>2020-12-20T10:01:56.847000+00:00</time>
      </trkpt>
      <trkpt lat="47.34083" lon="-1.311">
        <ele>110</ele>
        <time>2020-12-20T10:01:57.802000+00:00</time>
      </trkpt>
      <trkpt lat="0" lon="0">
        <time>2020-12-20T10:01:57.814000+00:00</time>
      </trkpt>
      <trkpt lat="0" lon="0">
        <time>2020-12-20T10:01:57.818000+00:00</time>
      </trkpt>
      <trkpt lat="0" lon="0">
        <time>2020-12-20T10:01:57.820000+00:00</time>
      </trkpt>
      <trkpt lat="47.34079" lon="-1.31101">
        <ele>109</ele>
        <time>2020-12-20T10:01:58.810000+00:00</time>
      </trkpt>
      <trkpt lat="0" lon="0">
        <time>2020-12-20T10:01:58.820000+00:00</time>
      </trkpt>
      <trkpt lat="0" lon="0">
        <time>2020-12-20T10:01:58.831000+00:00</time>
      </trkpt>
      <trkpt lat="0" lon="0">
        <time>2020-12-20T10:01:58.834000+00:00</time>
      </trkpt>
      <trkpt lat="47.34074" lon="-1.31102">
        <ele>109</ele>
        <time>2020-12-20T10:01:59.802000+00:00</time>
      </trkpt>
      <trkpt lat="0" lon="0">
        <time>2020-12-20T10:01:59.811000+00:00</time>
      </trkpt>
      <trkpt lat="0" lon="0">
        <time>2020-12-20T10:01:59.818000+00:00</time>
      </trkpt>
      <trkpt lat="0" lon="0">
        <time>2020-12-20T10:01:59.821000+00:00</time>
      </trkpt>
      <trkpt lat="47.3407" lon="-1.31102">
        <ele>109</ele>
        <time>2020-12-20T10:02:00.777000+00:00</time>
      </trkpt>
      <trkpt lat="0" lon="0">
        <time>2020-12-20T10:02:00.787000+00:00</time>
      </trkpt>
      <trkpt lat="0" lon="0">
        <time>2020-12-20T10:02:00.794000+00:00</time>
      </trkpt>
      <trkpt lat="0" lon="0">
        <time>2020-12-20T10:02:00.796000+00:00</time>
      </trkpt>
      <trkpt lat="47.34065" lon="-1.31103">
        <ele>109</ele>
        <time>2020-12-20T10:02:01.783000+00:00</time>
      </trkpt>
      <trkpt lat="0" lon="0">
        <time>2020-12-20T10:02:01.789000+00:00</time>
      </trkpt>
      <trkpt lat="0" lon="0">
        <time>2020-12-20T10:02:01.794000+00:00</time>
      </trkpt>
      <trkpt lat="0" lon="0">
        <time>2020-12-20T10:02:01.796000+00:00</time>
      </trkpt>
      <trkpt lat="47.34061" lon="-1.31103">
        <ele>110</ele>
        <time>2020-12-20T10:02:02.771000+00:00</time>
      </trkpt>
      <trkpt lat="0" lon="0">
        <time>2020-12-20T10:02:02.803000+00:00</time>
      </trkpt>
      <trkpt lat="0" lon="0">
        <time>2020-12-20T10:02:02.806000+00:00</time>
      </trkpt>
      <trkpt lat="0" lon="0">
        <time>2020-12-20T10:02:02.808000+00:00</time>
      </trkpt>
      <trkpt lat="47.34057" lon="-1.31104">
        <ele>111</ele>
        <time>2020-12-20T10:02:03.814000+00:00</time>
      </trkpt>
      <trkpt lat="0" lon="0">
        <time>2020-12-20T10:02:03.822000+00:00</time>
      </trkpt>
      <trkpt lat="0" lon="0">
        <time>2020-12-20T10:02:03.827000+00:00</time>
      </trkpt>
      <trkpt lat="0" lon="0">
        <time>2020-12-20T10:02:03.831000+00:00</time>
      </trkpt>
      <trkpt lat="47.34052" lon="-1.31105">
        <ele>111</ele>
        <time>2020-12-20T10:02:04.824000+00:00</time>
      </trkpt>
      <trkpt lat="0" lon="0">
        <time>2020-12-20T10:02:04.839000+00:00</time>
      </trkpt>
      <trkpt lat="0" lon="0">
        <time>2020-12-20T10:02:04.850000+00:00</time>
      </trkpt>
      <trkpt lat="0" lon="0">
        <time>2020-12-20T10:02:04.853000+00:00</time>
      </trkpt>
      <trkpt lat="47.34048" lon="-1.31107">
        <ele>111</ele>
        <time>2020-12-20T10:02:05.808000+00:00</time>
      </trkpt>
      <trkpt lat="0" lon="0">
        <time>2020-12-20T10:02:05.817000+00:00</time>
      </trkpt>
      <trkpt lat="0" lon="0">
        <time>2020-12-20T10:02:05.822000+00:00</time>
      </trkpt>
      <trkpt lat="0" lon="0">
        <time>2020-12-20T10:02:05.824000+00:00</time>
      </trkpt>
      <trkpt lat="47.34043" lon="-1.31108">
        <ele>111</ele>
        <time>2020-12-20T10:02:06.787000+00:00</time>
      </trkpt>
      <trkpt lat="0" lon="0">
        <time>2020-12-20T10:02:06.801000+00:00</time>
      </trkpt>
      <trkpt lat="0" lon="0">
        <time>2020-12-20T10:02:06.806000+00:00</time>
      </trkpt>
      <trkpt lat="0" lon="0">
        <time>2020-12-20T10:02:06.808000+00:00</time>
      </trkpt>
      <trkpt lat="47.34039" lon="-1.3111">
        <ele>111</ele>
        <time>2020-12-20T10:02:07.836000+00:00</time>
      </trkpt>
      <trkpt lat="0" lon="0">
        <time>2020-12-20T10:02:07.855000+00:00</time>
      </trkpt>
      <trkpt lat="0" lon="0">
        <time>2020-12-20T10:02:07.867000+00:00</time>
      </trkpt>
      <trkpt lat="0" lon="0">
        <time>2020-12-20T10:02:07.873000+00:00</time>
      </trkpt>
      <trkpt lat="47.34034" lon="-1.31112">
        <ele>110</ele>
        <time>2020-12-20T10:02:08.814000+00:00</time>
      </trkpt>
      <trkpt lat="0" lon="0">
        <time>2020-12-20T10:02:08.835000+00:00</time>
      </trkpt>
      <trkpt lat="0" lon="0">
        <time>2020-12-20T10:02:08.839000+00:00</time>
      </trkpt>
      <trkpt lat="0" lon="0">
        <time>2020-12-20T10:02:08.842000+00:00</time>
      </trkpt>
      <trkpt lat="47.34029" lon="-1.31115">
        <ele>110</ele>
        <time>2020-12-20T10:02:09.723000+00:00</time>
      </trkpt>
      <trkpt lat="0" lon="0">
        <time>2020-12-20T10:02:09.725000+00:00</time>
      </trkpt>
      <trkpt lat="0" lon="0">
        <time>2020-12-20T10:02:09.727000+00:00</time>
      </trkpt>
      <trkpt lat="0" lon="0">
        <time>2020-12-20T10:02:09.729000+00:00</time>
      </trkpt>
      <trkpt lat="47.34024" lon="-1.31117">
        <ele>110</ele>
        <time>2020-12-20T10:02:10.806000+00:00</time>
      </trkpt>
      <trkpt lat="0" lon="0">
        <time>2020-12-20T10:02:10.813000+00:00</time>
      </trkpt>
      <trkpt lat="0" lon="0">
        <time>2020-12-20T10:02:10.817000+00:00</time>
      </trkpt>
      <trkpt lat="0" lon="0">
        <time>2020-12-20T10:02:10.820000+00:00</time>
      </trkpt>
      <trkpt lat="47.34019" lon="-1.3112">
        <ele>110</ele>
        <time>2020-12-20T10:02:11.762000+00:00</time>
      </trkpt>
      <trkpt lat="0" lon="0">
        <time>2020-12-20T10:02:11.770000+00:00</time>
      </trkpt>
      <trkpt lat="0" lon="0">
        <time>2020-12-20T10:02:11.775000+00:00</time>
      </trkpt>
      <trkpt lat="0" lon="0">
        <time>2020-12-20T10:02:11.779000+00:00</time>
      </trkpt>
      <trkpt lat="47.34015" lon="-1.31122">
        <ele>110</ele>
        <time>2020-12-20T10:02:12.733000+00:00</time>
      </trkpt>
      <trkpt lat="0" lon="0">
        <time>2020-12-20T10:02:12.747000+00:00</time>
      </trkpt>
      <trkpt lat="0" lon="0">
        <time>2020-12-20T10:02:12.752000+00:00</time>
      </trkpt>
      <trkpt lat="0" lon="0">
        <time>2020-12-20T10:02:12.754000+00:00</time>
      </trkpt>
      <trkpt lat="47.3401" lon="-1.31125">
        <ele>110</ele>
        <time>2020-12-20T10:02:13.799000+00:00</time>
      </trkpt>
      <trkpt lat="0" lon="0">
        <time>2020-12-20T10:02:13.814000+00:00</time>
      </trkpt>
      <trkpt lat="0" lon="0">
        <time>2020-12-20T10:02:13.818000+00:00</time>
      </trkpt>
      <trkpt lat="0" lon="0">
        <time>2020-12-20T10:02:13.823000+00:00</time>
      </trkpt>
      <trkpt lat="47.34005" lon="-1.31128">
        <ele>110</ele>
        <time>2020-12-20T10:02:14.750000+00:00</time>
      </trkpt>
      <trkpt lat="0" lon="0">
        <time>2020-12-20T10:02:14.756000+00:00</time>
      </trkpt>
      <trkpt lat="0" lon="0">
        <time>2020-12-20T10:02:14.764000+00:00</time>
      </trkpt>
      <trkpt lat="0" lon="0">
        <time>2020-12-20T10:02:14.767000+00:00</time>
      </trkpt>
      <trkpt lat="47.34" lon="-1.3113">
        <ele>110</ele>
        <time>2020-12-20T10:02:15.788000+00:00</time>
      </trkpt>
      <trkpt lat="0" lon="0">
        <time>2020-12-20T10:02:15.797000+00:00</time>
      </trkpt>
      <trkpt lat="0" lon="0">
        <time>2020-12-20T10:02:15.808000+00:00</time>
      </trkpt>
      <trkpt lat="0" lon="0">
        <time>2020-12-20T10:02:15.813000+00:00</time>
      </trkpt>
      <trkpt lat="47.33995" lon="-1.31133">
        <ele>110</ele>
        <time>2020-12-20T10:02:16.798000+00:00</time>
      </trkpt>
      <trkpt lat="0" lon="0">
        <time>2020-12-20T10:02:16.807000+00:00</time>
      </trkpt>
      <trkpt lat="0" lon="0">
        <time>2020-12-20T10:02:16.812000+00:00</time>
      </trkpt>
      <trkpt lat="0" lon="0">
        <time>2020-12-20T10:02:16.814000+00:00</time>
      </trkpt>
      <trkpt lat="47.3399" lon="-1.31136">
        <ele>110</ele>
        <time>2020-12-20T10:02:17.799000+00:00</time>
      </trkpt>
      <trkpt lat="0" lon="0">
        <time>2020-12-20T10:02:17.807000+00:00</time>
      </trkpt>
      <trkpt lat="0" lon="0">
        <time>2020-12-20T10:02:17.814000+00:00</time>
      </trkpt>
      <trkpt lat="0" lon="0">
        <time>2020-12-20T10:02:17.816000+00:00</time>
      </trkpt>
      <trkpt lat="47.33985" lon="-1.3114">
        <ele>110</ele>
        <time>2020-12-20T10:02:18.791000+00:00</time>
      </trkpt>
      <trkpt lat="0" lon="0">
        <time>2020-12-20T10:02:18.802000+00:00</time>
      </trkpt>
      <trkpt lat="0" lon="0">
        <time>2020-12-20T10:02:18.812000+00:00</time>
      </trkpt>
      <trkpt lat="0" lon="0">
        <time>2020-12-20T10:02:18.815000+00:00</time>
      </trkpt>
      <trkpt lat="47.33981" lon="-1.31143">
        <ele>110</ele>
        <time>2020-12-20T10:02:19.806000+00:00</time>
      </trkpt>
      <trkpt lat="0" lon="0">
        <time>2020-12-20T10:02:19.821000+00:00</time>
      </trkpt>
      <trkpt lat="0" lon="0">
        <time>2020-12-20T10:02:19.826000+00:00</time>
      </trkpt>
      <trkpt lat="0" lon="0">
        <time>2020-12-20T10:02:19.829000+00:00</time>
      </trkpt>
      <trkpt lat="47.33976" lon="-1.31147">
        <ele>110</ele>
        <time>2020-12-20T10:02:20.775000+00:00</time>
      </trkpt>
      <trkpt lat="0" lon="0">
        <time>2020-12-20T10:02:20.778000+00:00</time>
      </trkpt>
      <trkpt lat="0" lon="0">
        <time>2020-12-20T10:02:20.781000+00:00</time>
      </trkpt>
      <trkpt lat="0" lon="0">
        <time>2020-12-20T10:02:20.783000+00:00</time>
      </trkpt>
      <trkpt lat="47.33972" lon="-1.3115">
        <ele>111</ele>
        <time>2020-12-20T10:02:21.782000+00:00</time>
      </trkpt>
      <trkpt lat="0" lon="0">
        <time>2020-12-20T10:02:21.789000+00:00</time>
      </trkpt>
      <trkpt lat="0" lon="0">
        <time>2020-12-20T10:02:21.790000+00:00</time>
      </trkpt>
      <trkpt lat="47.33967" lon="-1.31154">
        <ele>111</ele>
        <time>2020-12-20T10:02:22.843000+00:00</time>
      </trkpt>
      <trkpt lat="0" lon="0">
        <time>2020-12-20T10:02:22.855000+00:00</time>
      </trkpt>
      <trkpt lat="0" lon="0">
        <time>2020-12-20T10:02:22.857000+00:00</time>
      </trkpt>
      <trkpt lat="0" lon="0">
        <time>2020-12-20T10:02:22.858000+00:00</time>
      </trkpt>
      <trkpt lat="47.33963" lon="-1.31157">
        <ele>111</ele>
        <time>2020-12-20T10:02:23.782000+00:00</time>
      </trkpt>
      <trkpt lat="0" lon="0">
        <time>2020-12-20T10:02:23.788000+00:00</time>
      </trkpt>
      <trkpt lat="0" lon="0">
        <time>2020-12-20T10:02:23.792000+00:00</time>
      </trkpt>
      <trkpt lat="0" lon="0">
        <time>2020-12-20T10:02:23.795000+00:00</time>
      </trkpt>
      <trkpt lat="47.3396" lon="-1.31162">
        <ele>111</ele>
        <time>2020-12-20T10:02:24.825000+00:00</time>
      </trkpt>
      <trkpt lat="0" lon="0">
        <time>2020-12-20T10:02:24.847000+00:00</time>
      </trkpt>
      <trkpt lat="0" lon="0">
        <time>2020-12-20T10:02:24.858000+00:00</time>
      </trkpt>
      <trkpt lat="0" lon="0">
        <time>2020-12-20T10:02:24.862000+00:00</time>
      </trkpt>
      <trkpt lat="47.33956" lon="-1.31166">
        <ele>111</ele>
        <time>2020-12-20T10:02:25.827000+00:00</time>
      </trkpt>
      <trkpt lat="0" lon="0">
        <time>2020-12-20T10:02:25.842000+00:00</time>
      </trkpt>
      <trkpt lat="0" lon="0">
        <time>2020-12-20T10:02:25.850000+00:00</time>
      </trkpt>
      <trkpt lat="0" lon="0">
        <time>2020-12-20T10:02:25.855000+00:00</time>
      </trkpt>
      <trkpt lat="47.33953" lon="-1.31171">
        <ele>111</ele>
        <time>2020-12-20T10:02:26.819000+00:00</time>
      </trkpt>
      <trkpt lat="0" lon="0">
        <time>2020-12-20T10:02:26.836000+00:00</time>
      </trkpt>
      <trkpt lat="0" lon="0">
        <time>2020-12-20T10:02:26.844000+00:00</time>
      </trkpt>
      <trkpt lat="0" lon="0">
        <time>2020-12-20T10:02:26.847000+00:00</time>
      </trkpt>
      <trkpt lat="47.3395" lon="-1.31175">
        <ele>111</ele>
        <time>2020-12-20T10:02:27.810000+00:00</time>
      </trkpt>
      <trkpt lat="0" lon="0">
        <time>2020-12-20T10:02:27.817000+00:00</time>
      </trkpt>
      <trkpt lat="0" lon="0">
        <time>2020-12-20T10:02:27.822000+00:00</time>
      </trkpt>
      <trkpt lat="0" lon="0">
        <time>2020-12-20T10:02:27.825000+00:00</time>
      </trkpt>
      <trkpt lat="47.33946" lon="-1.31181">
        <ele>110</ele>
        <time>2020-12-20T10:02:28.796000+00:00</time>
      </trkpt>
      <trkpt lat="0" lon="0">
        <time>2020-12-20T10:02:28.806000+00:00</time>
      </trkpt>
      <trkpt lat="0" lon="0">
        <time>2020-12-20T10:02:28.810000+00:00</time>
      </trkpt>
      <trkpt lat="0" lon="0">
        <time>2020-12-20T10:02:28.812000+00:00</time>
      </trkpt>
      <trkpt lat="47.33943" lon="-1.31186">
        <ele>110</ele>
        <time>2020-12-20T10:02:29.788000+00:00</time>
      </trkpt>
      <trkpt lat="0" lon="0">
        <time>2020-12-20T10:02:29.793000+00:00</time>
      </trkpt>
      <trkpt lat="0" lon="0">
        <time>2020-12-20T10:02:29.801000+00:00</time>
      </trkpt>
      <trkpt lat="0" lon="0">
        <time>2020-12-20T10:02:29.803000+00:00</time>
      </trkpt>
      <trkpt lat="47.3394" lon="-1.31193">
        <ele>110</ele>
        <time>2020-12-20T10:02:30.816000+00:00</time>
      </trkpt>
      <trkpt lat="0" lon="0">
        <time>2020-12-20T10:02:30.829000+00:00</time>
      </trkpt>
      <trkpt lat="0" lon="0">
        <time>2020-12-20T10:02:30.836000+00:00</time>
      </trkpt>
      <trkpt lat="0" lon="0">
        <time>2020-12-20T10:02:30.841000+00:00</time>
      </trkpt>
      <trkpt lat="47.33937" lon="-1.31199">
        <ele>110</ele>
        <time>2020-12-20T10:02:31.825000+00:00</time>
      </trkpt>
      <trkpt lat="0" lon="0">
        <time>2020-12-20T10:02:31.830000+00:00</time>
      </trkpt>
      <trkpt lat="0" lon="0">
        <time>2020-12-20T10:02:31.835000+00:00</time>
      </trkpt>
      <trkpt lat="0" lon="0">
        <time>2020-12-20T10:02:31.838000+00:00</time>
      </trkpt>
      <trkpt lat="47.33934" lon="-1.31206">
        <ele>110</ele>
        <time>2020-12-20T10:02:32.793000+00:00</time>
      </trkpt>
      <trkpt lat="0" lon="0">
        <time>2020-12-20T10:02:32.801000+00:00</time>
      </trkpt>
      <trkpt lat="0" lon="0">
        <time>2020-12-20T10:02:32.805000+00:00</time>
      </trkpt>
      <trkpt lat="0" lon="0">
        <time>2020-12-20T10:02:32.807000+00:00</time>
      </trkpt>
      <trkpt lat="47.33932" lon="-1.31213">
        <ele>110</ele>
        <time>2020-12-20T10:02:33.790000+00:00</time>
      </trkpt>
      <trkpt lat="0" lon="0">
        <time>2020-12-20T10:02:33.805000+00:00</time>
      </trkpt>
      <trkpt lat="0" lon="0">
        <time>2020-12-20T10:02:33.819000+00:00</time>
      </trkpt>
      <trkpt lat="0" lon="0">
        <time>2020-12-20T10:02:33.822000+00:00</time>
      </trkpt>
      <trkpt lat="47.33929" lon="-1.3122">
        <ele>110</ele>
        <time>2020-12-20T10:02:34.836000+00:00</time>
      </trkpt>
      <trkpt lat="0" lon="0">
        <time>2020-12-20T10:02:34.843000+00:00</time>
      </trkpt>
      <trkpt lat="0" lon="0">
        <time>2020-12-20T10:02:34.845000+00:00</time>
      </trkpt>
      <trkpt lat="0" lon="0">
        <time>2020-12-20T10:02:34.846000+00:00</time>
      </trkpt>
      <trkpt lat="47.33926" lon="-1.31226">
        <ele>110</ele>
        <time>2020-12-20T10:02:35.822000+00:00</time>
      </trkpt>
      <trkpt lat="0" lon="0">
        <time>2020-12-20T10:02:35.834000+00:00</time>
      </trkpt>
      <trkpt lat="0" lon="0">
        <time>2020-12-20T10:02:35.839000+00:00</time>
      </trkpt>
      <trkpt lat="0" lon="0">
        <time>2020-12-20T10:02:35.844000+00:00</time>
      </trkpt>
      <trkpt lat="47.33924" lon="-1.31233">
        <ele>110</ele>
        <time>2020-12-20T10:02:36.849000+00:00</time>
      </trkpt>
      <trkpt lat="0" lon="0">
        <time>2020-12-20T10:02:36.858000+00:00</time>
      </trkpt>
      <trkpt lat="0" lon="0">
        <time>2020-12-20T10:02:36.863000+00:00</time>
      </trkpt>
      <trkpt lat="0" lon="0">
        <time>2020-12-20T10:02:36.866000+00:00</time>
      </trkpt>
      <trkpt lat="47.33921" lon="-1.31239">
        <ele>110</ele>
        <time>2020-12-20T10:02:37.813000+00:00</time>
      </trkpt>
      <trkpt lat="0" lon="0">
        <time>2020-12-20T10:02:37.827000+00:00</time>
      </trkpt>
      <trkpt lat="0" lon="0">
        <time>2020-12-20T10:02:37.833000+00:00</time>
      </trkpt>
      <trkpt lat="0" lon="0">
        <time>2020-12-20T10:02:37.835000+00:00</time>
      </trkpt>
      <trkpt lat="47.33918" lon="-1.31245">
        <ele>110</ele>
        <time>2020-12-20T10:02:38.817000+00:00</time>
      </trkpt>
      <trkpt lat="0" lon="0">
        <time>2020-12-20T10:02:38.828000+00:00</time>
      </trkpt>
      <trkpt lat="0" lon="0">
        <time>2020-12-20T10:02:38.830000+00:00</time>
      </trkpt>
      <trkpt lat="0" lon="0">
        <time>2020-12-20T10:02:38.832000+00:00</time>
      </trkpt>
      <trkpt lat="47.33915" lon="-1.31251">
        <ele>110</ele>
        <time>2020-12-20T10:02:39.853000+00:00</time>
      </trkpt>
      <trkpt lat="0" lon="0">
        <time>2020-12-20T10:02:39.863000+00:00</time>
      </trkpt>
      <trkpt lat="0" lon="0">
        <time>2020-12-20T10:02:39.867000+00:00</time>
      </trkpt>
      <trkpt lat="0" lon="0">
        <time>2020-12-20T10:02:39.870000+00:00</time>
      </trkpt>
      <trkpt lat="47.33912" lon="-1.31257">
        <ele>109</ele>
        <time>2020-12-20T10:02:40.859000+00:00</time>
      </trkpt>
      <trkpt lat="0" lon="0">
        <time>2020-12-20T10:02:40.863000+00:00</time>
      </trkpt>
      <trkpt lat="0" lon="0">
        <time>2020-12-20T10:02:40.866000+00:00</time>
      </trkpt>
      <trkpt lat="0" lon="0">
        <time>2020-12-20T10:02:40.867000+00:00</time>
      </trkpt>
      <trkpt lat="47.33909" lon="-1.31262">
        <ele>109</ele>
        <time>2020-12-20T10:02:41.841000+00:00</time>
      </trkpt>
      <trkpt lat="0" lon="0">
        <time>2020-12-20T10:02:41.851000+00:00</time>
      </trkpt>
      <trkpt lat="0" lon="0">
        <time>2020-12-20T10:02:41.855000+00:00</time>
      </trkpt>
      <trkpt lat="0" lon="0">
        <time>2020-12-20T10:02:41.858000+00:00</time>
      </trkpt>
      <trkpt lat="47.33906" lon="-1.31267">
        <ele>110</ele>
        <time>2020-12-20T10:02:42.852000+00:00</time>
      </trkpt>
      <trkpt lat="0" lon="0">
        <time>2020-12-20T10:02:42.864000+00:00</time>
      </trkpt>
      <trkpt lat="0" lon="0">
        <time>2020-12-20T10:02:42.870000+00:00</time>
      </trkpt>
      <trkpt lat="0" lon="0">
        <time>2020-12-20T10:02:42.872000+00:00</time>
      </trkpt>
      <trkpt lat="47.33902" lon="-1.31272">
        <ele>110</ele>
        <time>2020-12-20T10:02:43.840000+00:00</time>
      </trkpt>
      <trkpt lat="0" lon="0">
        <time>2020-12-20T10:02:43.844000+00:00</time>
      </trkpt>
      <trkpt lat="0" lon="0">
        <time>2020-12-20T10:02:43.858000+00:00</time>
      </trkpt>
      <trkpt lat="0" lon="0">
        <time>2020-12-20T10:02:43.862000+00:00</time>
      </trkpt>
      <trkpt lat="47.33899" lon="-1.31277">
        <ele>110</ele>
        <time>2020-12-20T10:02:44.758000+00:00</time>
      </trkpt>
      <trkpt lat="0" lon="0">
        <time>2020-12-20T10:02:44.760000+00:00</time>
      </trkpt>
      <trkpt lat="0" lon="0">
        <time>2020-12-20T10:02:44.762000+00:00</time>
      </trkpt>
      <trkpt lat="0" lon="0">
        <time>2020-12-20T10:02:44.763000+00:00</time>
      </trkpt>
      <trkpt lat="47.33896" lon="-1.31282">
        <ele>110</ele>
        <time>2020-12-20T10:02:45.800000+00:00</time>
      </trkpt>
      <trkpt lat="0" lon="0">
        <time>2020-12-20T10:02:45.811000+00:00</time>
      </trkpt>
      <trkpt lat="0" lon="0">
        <time>2020-12-20T10:02:45.818000+00:00</time>
      </trkpt>
      <trkpt lat="0" lon="0">
        <time>2020-12-20T10:02:45.821000+00:00</time>
      </trkpt>
      <trkpt lat="47.33893" lon="-1.31286">
        <ele>110</ele>
        <time>2020-12-20T10:02:46.798000+00:00</time>
      </trkpt>
      <trkpt lat="0" lon="0">
        <time>2020-12-20T10:02:46.805000+00:00</time>
      </trkpt>
      <trkpt lat="0" lon="0">
        <time>2020-12-20T10:02:46.813000+00:00</time>
      </trkpt>
      <trkpt lat="0" lon="0">
        <time>2020-12-20T10:02:46.816000+00:00</time>
      </trkpt>
      <trkpt lat="47.3389" lon="-1.31291">
        <ele>111</ele>
        <time>2020-12-20T10:02:47.742000+00:00</time>
      </trkpt>
      <trkpt lat="0" lon="0">
        <time>2020-12-20T10:02:47.749000+00:00</time>
      </trkpt>
      <trkpt lat="0" lon="0">
        <time>2020-12-20T10:02:47.756000+00:00</time>
      </trkpt>
      <trkpt lat="0" lon="0">
        <time>2020-12-20T10:02:47.758000+00:00</time>
      </trkpt>
      <trkpt lat="47.33886" lon="-1.31296">
        <ele>111</ele>
        <time>2020-12-20T10:02:48.810000+00:00</time>
      </trkpt>
      <trkpt lat="0" lon="0">
        <time>2020-12-20T10:02:48.821000+00:00</time>
      </trkpt>
      <trkpt lat="0" lon="0">
        <time>2020-12-20T10:02:48.830000+00:00</time>
      </trkpt>
      <trkpt lat="0" lon="0">
        <time>2020-12-20T10:02:48.833000+00:00</time>
      </trkpt>
      <trkpt lat="47.33883" lon="-1.31301">
        <ele>111</ele>
        <time>2020-12-20T10:02:49.849000+00:00</time>
      </trkpt>
      <trkpt lat="0" lon="0">
        <time>2020-12-20T10:02:49.870000+00:00</time>
      </trkpt>
      <trkpt lat="0" lon="0">
        <time>2020-12-20T10:02:49.879000+00:00</time>
      </trkpt>
      <trkpt lat="0" lon="0">
        <time>2020-12-20T10:02:49.887000+00:00</time>
      </trkpt>
      <trkpt lat="47.33879" lon="-1.31306">
        <ele>111</ele>
        <time>2020-12-20T10:02:50.828000+00:00</time>
      </trkpt>
      <trkpt lat="0" lon="0">
        <time>2020-12-20T10:02:50.846000+00:00</time>
      </trkpt>
      <trkpt lat="0" lon="0">
        <time>2020-12-20T10:02:50.853000+00:00</time>
      </trkpt>
      <trkpt lat="0" lon="0">
        <time>2020-12-20T10:02:50.858000+00:00</time>
      </trkpt>
      <trkpt lat="47.33876" lon="-1.31311">
        <ele>111</ele>
        <time>2020-12-20T10:02:51.847000+00:00</time>
      </trkpt>
      <trkpt lat="0" lon="0">
        <time>2020-12-20T10:02:51.850000+00:00</time>
      </trkpt>
      <trkpt lat="0" lon="0">
        <time>2020-12-20T10:02:51.859000+00:00</time>
      </trkpt>
      <trkpt lat="0" lon="0">
        <time>2020-12-20T10:02:51.864000+00:00</time>
      </trkpt>
      <trkpt lat="47.33873" lon="-1.31316">
        <ele>111</ele>
        <time>2020-12-20T10:02:52.797000+00:00</time>
      </trkpt>
      <trkpt lat="0" lon="0">
        <time>2020-12-20T10:02:52.805000+00:00</time>
      </trkpt>
      <trkpt lat="0" lon="0">
        <time>2020-12-20T10:02:52.811000+00:00</time>
      </trkpt>
      <trkpt lat="0" lon="0">
        <time>2020-12-20T10:02:52.814000+00:00</time>
      </trkpt>
      <trkpt lat="47.33869" lon="-1.31322">
        <ele>111</ele>
        <time>2020-12-20T10:02:53.777000+00:00</time>
      </trkpt>
      <trkpt lat="0" lon="0">
        <time>2020-12-20T10:02:53.786000+00:00</time>
      </trkpt>
      <trkpt lat="0" lon="0">
        <time>2020-12-20T10:02:53.790000+00:00</time>
      </trkpt>
      <trkpt lat="0" lon="0">
        <time>2020-12-20T10:02:53.792000+00:00</time>
      </trkpt>
      <trkpt lat="47.33865" lon="-1.31327">
        <ele>111</ele>
        <time>2020-12-20T10:02:54.822000+00:00</time>
      </trkpt>
      <trkpt lat="0" lon="0">
        <time>2020-12-20T10:02:54.831000+00:00</time>
      </trkpt>
      <trkpt lat="0" lon="0">
        <time>2020-12-20T10:02:54.842000+00:00</time>
      </trkpt>
      <trkpt lat="0" lon="0">
        <time>2020-12-20T10:02:54.844000+00:00</time>
      </trkpt>
      <trkpt lat="47.33862" lon="-1.31332">
        <ele>111</ele>
        <time>2020-12-20T10:02:55.796000+00:00</time>
      </trkpt>
      <trkpt lat="0" lon="0">
        <time>2020-12-20T10:02:55.810000+00:00</time>
      </trkpt>
      <trkpt lat="0" lon="0">
        <time>2020-12-20T10:02:55.817000+00:00</time>
      </trkpt>
      <trkpt lat="0" lon="0">
        <time>2020-12-20T10:02:55.823000+00:00</time>
      </trkpt>
      <trkpt lat="47.33858" lon="-1.31338">
        <ele>110</ele>
        <time>2020-12-20T10:02:56.835000+00:00</time>
      </trkpt>
      <trkpt lat="0" lon="0">
        <time>2020-12-20T10:02:56.851000+00:00</time>
      </trkpt>
      <trkpt lat="0" lon="0">
        <time>2020-12-20T10:02:56.858000+00:00</time>
      </trkpt>
      <trkpt lat="0" lon="0">
        <time>2020-12-20T10:02:56.864000+00:00</time>
      </trkpt>
      <trkpt lat="47.33855" lon="-1.31343">
        <ele>111</ele>
        <time>2020-12-20T10:02:57.822000+00:00</time>
      </trkpt>
      <trkpt lat="0" lon="0">
        <time>2020-12-20T10:02:57.828000+00:00</time>
      </trkpt>
      <trkpt lat="0" lon="0">
        <time>2020-12-20T10:02:57.844000+00:00</time>
      </trkpt>
      <trkpt lat="0" lon="0">
        <time>2020-12-20T10:02:57.850000+00:00</time>
      </trkpt>
      <trkpt lat="47.33852" lon="-1.31349">
        <ele>111</ele>
        <time>2020-12-20T10:02:58.837000+00:00</time>
      </trkpt>
      <trkpt lat="0" lon="0">
        <time>2020-12-20T10:02:58.845000+00:00</time>
      </trkpt>
      <trkpt lat="0" lon="0">
        <time>2020-12-20T10:02:58.850000+00:00</time>
      </trkpt>
      <trkpt lat="0" lon="0">
        <time>2020-12-20T10:02:58.857000+00:00</time>
      </trkpt>
      <trkpt lat="47.33849" lon="-1.31354">
        <ele>111</ele>
        <time>2020-12-20T10:02:59.820000+00:00</time>
      </trkpt>
      <trkpt lat="0" lon="0">
        <time>2020-12-20T10:02:59.829000+00:00</time>
      </trkpt>
      <trkpt lat="0" lon="0">
        <time>2020-12-20T10:02:59.834000+00:00</time>
      </trkpt>
      <trkpt lat="0" lon="0">
        <time>2020-12-20T10:02:59.837000+00:00</time>
      </trkpt>
      <trkpt lat="47.33846" lon="-1.31359">
        <ele>111</ele>
        <time>2020-12-20T10:03:00.851000+00:00</time>
      </trkpt>
      <trkpt lat="0" lon="0">
        <time>2020-12-20T10:03:00.857000+00:00</time>
      </trkpt>
      <trkpt lat="0" lon="0">
        <time>2020-12-20T10:03:00.864000+00:00</time>
      </trkpt>
      <trkpt lat="0" lon="0">
        <time>2020-12-20T10:03:00.867000+00:00</time>
      </trkpt>
      <trkpt lat="47.33844" lon="-1.31364">
        <ele>111</ele>
        <time>2020-12-20T10:03:01.831000+00:00</time>
      </trkpt>
      <trkpt lat="0" lon="0">
        <time>2020-12-20T10:03:01.844000+00:00</time>
      </trkpt>
      <trkpt lat="0" lon="0">
        <time>2020-12-20T10:03:01.849000+00:00</time>
      </trkpt>
      <trkpt lat="0" lon="0">
        <time>2020-12-20T10:03:01.851000+00:00</time>
      </trkpt>
      <trkpt lat="47.33842" lon="-1.3137">
        <ele>111</ele>
        <time>2020-12-20T10:03:02.835000+00:00</time>
      </trkpt>
      <trkpt lat="0" lon="0">
        <time>2020-12-20T10:03:02.839000+00:00</time>
      </trkpt>
      <trkpt lat="0" lon="0">
        <time>2020-12-20T10:03:02.841000+00:00</time>
      </trkpt>
      <trkpt lat="0" lon="0">
        <time>2020-12-20T10:03:02.843000+00:00</time>
      </trkpt>
      <trkpt lat="47.3384" lon="-1.31375">
        <ele>111</ele>
        <time>2020-12-20T10:03:03.887000+00:00</time>
      </trkpt>
      <trkpt lat="0" lon="0">
        <time>2020-12-20T10:03:03.914000+00:00</time>
      </trkpt>
      <trkpt lat="0" lon="0">
        <time>2020-12-20T10:03:03.925000+00:00</time>
      </trkpt>
      <trkpt lat="0" lon="0">
        <time>2020-12-20T10:03:03.927000+00:00</time>
      </trkpt>
      <trkpt lat="47.33838" lon="-1.3138">
        <ele>111</ele>
        <time>2020-12-20T10:03:04.817000+00:00</time>
      </trkpt>
      <trkpt lat="0" lon="0">
        <time>2020-12-20T10:03:04.827000+00:00</time>
      </trkpt>
      <trkpt lat="0" lon="0">
        <time>2020-12-20T10:03:04.832000+00:00</time>
      </trkpt>
      <trkpt lat="0" lon="0">
        <time>2020-12-20T10:03:04.835000+00:00</time>
      </trkpt>
      <trkpt lat="47.33836" lon="-1.31385">
        <ele>111</ele>
        <time>2020-12-20T10:03:05.834000+00:00</time>
      </trkpt>
      <trkpt lat="0" lon="0">
        <time>2020-12-20T10:03:05.866000+00:00</time>
      </trkpt>
      <trkpt lat="0" lon="0">
        <time>2020-12-20T10:03:05.874000+00:00</time>
      </trkpt>
      <trkpt lat="0" lon="0">
        <time>2020-12-20T10:03:05.876000+00:00</time>
      </trkpt>
      <trkpt lat="47.33835" lon="-1.31389">
        <ele>111</ele>
        <time>2020-12-20T10:03:06.812000+00:00</time>
      </trkpt>
      <trkpt lat="0" lon="0">
        <time>2020-12-20T10:03:06.829000+00:00</time>
      </trkpt>
      <trkpt lat="0" lon="0">
        <time>2020-12-20T10:03:06.838000+00:00</time>
      </trkpt>
      <trkpt lat="0" lon="0">
        <time>2020-12-20T10:03:06.841000+00:00</time>
      </trkpt>
      <trkpt lat="47.33833" lon="-1.31394">
        <ele>111</ele>
        <time>2020-12-20T10:03:07.836000+00:00</time>
      </trkpt>
      <trkpt lat="0" lon="0">
        <time>2020-12-20T10:03:07.862000+00:00</time>
      </trkpt>
      <trkpt lat="0" lon="0">
        <time>2020-12-20T10:03:07.865000+00:00</time>
      </trkpt>
      <trkpt lat="0" lon="0">
        <time>2020-12-20T10:03:07.868000+00:00</time>
      </trkpt>
      <trkpt lat="47.33832" lon="-1.31399">
        <ele>111</ele>
        <time>2020-12-20T10:03:08.837000+00:00</time>
      </trkpt>
      <trkpt lat="0" lon="0">
        <time>2020-12-20T10:03:08.844000+00:00</time>
      </trkpt>
      <trkpt lat="0" lon="0">
        <time>2020-12-20T10:03:08.846000+00:00</time>
      </trkpt>
      <trkpt lat="0" lon="0">
        <time>2020-12-20T10:03:08.847000+00:00</time>
      </trkpt>
      <trkpt lat="47.33831" lon="-1.31404">
        <ele>111</ele>
        <time>2020-12-20T10:03:09.807000+00:00</time>
      </trkpt>
      <trkpt lat="0" lon="0">
        <time>2020-12-20T10:03:09.813000+00:00</time>
      </trkpt>
      <trkpt lat="0" lon="0">
        <time>2020-12-20T10:03:09.820000+00:00</time>
      </trkpt>
      <trkpt lat="0" lon="0">
        <time>2020-12-20T10:03:09.825000+00:00</time>
      </trkpt>
      <trkpt lat="47.3383" lon="-1.31408">
        <ele>112</ele>
        <time>2020-12-20T10:03:10.846000+00:00</time>
      </trkpt>
      <trkpt lat="0" lon="0">
        <time>2020-12-20T10:03:10.856000+00:00</time>
      </trkpt>
      <trkpt lat="0" lon="0">
        <time>2020-12-20T10:03:10.861000+00:00</time>
      </trkpt>
      <trkpt lat="0" lon="0">
        <time>2020-12-20T10:03:10.863000+00:00</time>
      </trkpt>
      <trkpt lat="47.33828" lon="-1.31413">
        <ele>112</ele>
        <time>2020-12-20T10:03:11.829000+00:00</time>
      </trkpt>
      <trkpt lat="0" lon="0">
        <time>2020-12-20T10:03:11.842000+00:00</time>
      </trkpt>
      <trkpt lat="0" lon="0">
        <time>2020-12-20T10:03:11.850000+00:00</time>
      </trkpt>
      <trkpt lat="0" lon="0">
        <time>2020-12-20T10:03:11.852000+00:00</time>
      </trkpt>
      <trkpt lat="47.33827" lon="-1.31418">
        <ele>112</ele>
        <time>2020-12-20T10:03:12.804000+00:00</time>
      </trkpt>
      <trkpt lat="0" lon="0">
        <time>2020-12-20T10:03:12.825000+00:00</time>
      </trkpt>
      <trkpt lat="0" lon="0">
        <time>2020-12-20T10:03:12.831000+00:00</time>
      </trkpt>
      <trkpt lat="0" lon="0">
        <time>2020-12-20T10:03:12.834000+00:00</time>
      </trkpt>
      <trkpt lat="47.33826" lon="-1.31422">
        <ele>112</ele>
        <time>2020-12-20T10:03:13.799000+00:00</time>
      </trkpt>
      <trkpt lat="0" lon="0">
        <time>2020-12-20T10:03:13.806000+00:00</time>
      </trkpt>
      <trkpt lat="0" lon="0">
        <time>2020-12-20T10:03:13.808000+00:00</time>
      </trkpt>
      <trkpt lat="0" lon="0">
        <time>2020-12-20T10:03:13.810000+00:00</time>
      </trkpt>
      <trkpt lat="47.33825" lon="-1.31426">
        <ele>112</ele>
        <time>2020-12-20T10:03:14.829000+00:00</time>
      </trkpt>
      <trkpt lat="0" lon="0">
        <time>2020-12-20T10:03:14.835000+00:00</time>
      </trkpt>
      <trkpt lat="0" lon="0">
        <time>2020-12-20T10:03:14.839000+00:00</time>
      </trkpt>
      <trkpt lat="0" lon="0">
        <time>2020-12-20T10:03:14.846000+00:00</time>
      </trkpt>
      <trkpt lat="47.33824" lon="-1.31429">
        <ele>112</ele>
        <time>2020-12-20T10:03:15.780000+00:00</time>
      </trkpt>
      <trkpt lat="0" lon="0">
        <time>2020-12-20T10:03:15.788000+00:00</time>
      </trkpt>
      <trkpt lat="0" lon="0">
        <time>2020-12-20T10:03:15.793000+00:00</time>
      </trkpt>
      <trkpt lat="0" lon="0">
        <time>2020-12-20T10:03:15.796000+00:00</time>
      </trkpt>
      <trkpt lat="47.33823" lon="-1.31433">
        <ele>112</ele>
        <time>2020-12-20T10:03:16.810000+00:00</time>
      </trkpt>
      <trkpt lat="0" lon="0">
        <time>2020-12-20T10:03:16.820000+00:00</time>
      </trkpt>
      <trkpt lat="0" lon="0">
        <time>2020-12-20T10:03:16.832000+00:00</time>
      </trkpt>
      <trkpt lat="0" lon="0">
        <time>2020-12-20T10:03:16.834000+00:00</time>
      </trkpt>
      <trkpt lat="47.33822" lon="-1.31436">
        <ele>112</ele>
        <time>2020-12-20T10:03:17.803000+00:00</time>
      </trkpt>
      <trkpt lat="0" lon="0">
        <time>2020-12-20T10:03:17.814000+00:00</time>
      </trkpt>
      <trkpt lat="0" lon="0">
        <time>2020-12-20T10:03:17.818000+00:00</time>
      </trkpt>
      <trkpt lat="0" lon="0">
        <time>2020-12-20T10:03:17.821000+00:00</time>
      </trkpt>
      <trkpt lat="47.33822" lon="-1.31439">
        <ele>112</ele>
        <time>2020-12-20T10:03:18.803000+00:00</time>
      </trkpt>
      <trkpt lat="0" lon="0">
        <time>2020-12-20T10:03:18.813000+00:00</time>
      </trkpt>
      <trkpt lat="0" lon="0">
        <time>2020-12-20T10:03:18.817000+00:00</time>
      </trkpt>
      <trkpt lat="0" lon="0">
        <time>2020-12-20T10:03:18.820000+00:00</time>
      </trkpt>
      <trkpt lat="47.33821" lon="-1.31442">
        <ele>112</ele>
        <time>2020-12-20T10:03:19.804000+00:00</time>
      </trkpt>
      <trkpt lat="0" lon="0">
        <time>2020-12-20T10:03:19.809000+00:00</time>
      </trkpt>
      <trkpt lat="0" lon="0">
        <time>2020-12-20T10:03:19.811000+00:00</time>
      </trkpt>
      <trkpt lat="0" lon="0">
        <time>2020-12-20T10:03:19.812000+00:00</time>
      </trkpt>
      <trkpt lat="47.3382" lon="-1.31445">
        <ele>113</ele>
        <time>2020-12-20T10:03:20.797000+00:00</time>
      </trkpt>
      <trkpt lat="0" lon="0">
        <time>2020-12-20T10:03:20.820000+00:00</time>
      </trkpt>
      <trkpt lat="0" lon="0">
        <time>2020-12-20T10:03:20.824000+00:00</time>
      </trkpt>
      <trkpt lat="0" lon="0">
        <time>2020-12-20T10:03:20.831000+00:00</time>
      </trkpt>
      <trkpt lat="47.33819" lon="-1.31449">
        <ele>113</ele>
        <time>2020-12-20T10:03:21.826000+00:00</time>
      </trkpt>
      <trkpt lat="0" lon="0">
        <time>2020-12-20T10:03:21.839000+00:00</time>
      </trkpt>
      <trkpt lat="0" lon="0">
        <time>2020-12-20T10:03:21.847000+00:00</time>
      </trkpt>
      <trkpt lat="0" lon="0">
        <time>2020-12-20T10:03:21.849000+00:00</time>
      </trkpt>
      <trkpt lat="47.33818" lon="-1.31453">
        <ele>114</ele>
        <time>2020-12-20T10:03:22.814000+00:00</time>
      </trkpt>
      <trkpt lat="0" lon="0">
        <time>2020-12-20T10:03:22.831000+00:00</time>
      </trkpt>
      <trkpt lat="0" lon="0">
        <time>2020-12-20T10:03:22.838000+00:00</time>
      </trkpt>
      <trkpt lat="0" lon="0">
        <time>2020-12-20T10:03:22.841000+00:00</time>
      </trkpt>
      <trkpt lat="47.33817" lon="-1.31458">
        <ele>114</ele>
        <time>2020-12-20T10:03:23.811000+00:00</time>
      </trkpt>
      <trkpt lat="0" lon="0">
        <time>2020-12-20T10:03:23.818000+00:00</time>
      </trkpt>
      <trkpt lat="0" lon="0">
        <time>2020-12-20T10:03:23.822000+00:00</time>
      </trkpt>
      <trkpt lat="0" lon="0">
        <time>2020-12-20T10:03:23.826000+00:00</time>
      </trkpt>
      <trkpt lat="47.33816" lon="-1.31462">
        <ele>114</ele>
        <time>2020-12-20T10:03:24.825000+00:00</time>
      </trkpt>
      <trkpt lat="0" lon="0">
        <time>2020-12-20T10:03:24.834000+00:00</time>
      </trkpt>
      <trkpt lat="0" lon="0">
        <time>2020-12-20T10:03:24.838000+00:00</time>
      </trkpt>
      <trkpt lat="0" lon="0">
        <time>2020-12-20T10:03:24.841000+00:00</time>
      </trkpt>
      <trkpt lat="47.33815" lon="-1.31466">
        <ele>115</ele>
        <time>2020-12-20T10:03:25.824000+00:00</time>
      </trkpt>
      <trkpt lat="0" lon="0">
        <time>2020-12-20T10:03:25.844000+00:00</time>
      </trkpt>
      <trkpt lat="0" lon="0">
        <time>2020-12-20T10:03:25.848000+00:00</time>
      </trkpt>
      <trkpt lat="0" lon="0">
        <time>2020-12-20T10:03:25.851000+00:00</time>
      </trkpt>
      <trkpt lat="47.33813" lon="-1.31471">
        <ele>115</ele>
        <time>2020-12-20T10:03:26.839000+00:00</time>
      </trkpt>
      <trkpt lat="0" lon="0">
        <time>2020-12-20T10:03:26.849000+00:00</time>
      </trkpt>
      <trkpt lat="0" lon="0">
        <time>2020-12-20T10:03:26.855000+00:00</time>
      </trkpt>
      <trkpt lat="0" lon="0">
        <time>2020-12-20T10:03:26.862000+00:00</time>
      </trkpt>
      <trkpt lat="47.33812" lon="-1.31475">
        <ele>115</ele>
        <time>2020-12-20T10:03:27.832000+00:00</time>
      </trkpt>
      <trkpt lat="0" lon="0">
        <time>2020-12-20T10:03:27.844000+00:00</time>
      </trkpt>
      <trkpt lat="0" lon="0">
        <time>2020-12-20T10:03:27.853000+00:00</time>
      </trkpt>
      <trkpt lat="0" lon="0">
        <time>2020-12-20T10:03:27.856000+00:00</time>
      </trkpt>
      <trkpt lat="47.3381" lon="-1.3148">
        <ele>116</ele>
        <time>2020-12-20T10:03:28.791000+00:00</time>
      </trkpt>
      <trkpt lat="0" lon="0">
        <time>2020-12-20T10:03:28.807000+00:00</time>
      </trkpt>
      <trkpt lat="0" lon="0">
        <time>2020-12-20T10:03:28.814000+00:00</time>
      </trkpt>
      <trkpt lat="0" lon="0">
        <time>2020-12-20T10:03:28.821000+00:00</time>
      </trkpt>
      <trkpt lat="47.33808" lon="-1.31484">
        <ele>116</ele>
        <time>2020-12-20T10:03:29.839000+00:00</time>
      </trkpt>
      <trkpt lat="0" lon="0">
        <time>2020-12-20T10:03:29.860000+00:00</time>
      </trkpt>
      <trkpt lat="0" lon="0">
        <time>2020-12-20T10:03:29.868000+00:00</time>
      </trkpt>
      <trkpt lat="0" lon="0">
        <time>2020-12-20T10:03:29.870000+00:00</time>
      </trkpt>
      <trkpt lat="47.33806" lon="-1.31489">
        <ele>116</ele>
        <time>2020-12-20T10:03:30.835000+00:00</time>
      </trkpt>
      <trkpt lat="0" lon="0">
        <time>2020-12-20T10:03:30.856000+00:00</time>
      </trkpt>
      <trkpt lat="0" lon="0">
        <time>2020-12-20T10:03:30.862000+00:00</time>
      </trkpt>
      <trkpt lat="0" lon="0">
        <time>2020-12-20T10:03:30.865000+00:00</time>
      </trkpt>
      <trkpt lat="47.33805" lon="-1.31493">
        <ele>116</ele>
        <time>2020-12-20T10:03:31.802000+00:00</time>
      </trkpt>
      <trkpt lat="0" lon="0">
        <time>2020-12-20T10:03:31.810000+00:00</time>
      </trkpt>
      <trkpt lat="0" lon="0">
        <time>2020-12-20T10:03:31.817000+00:00</time>
      </trkpt>
      <trkpt lat="0" lon="0">
        <time>2020-12-20T10:03:31.820000+00:00</time>
      </trkpt>
      <trkpt lat="47.33803" lon="-1.31498">
        <ele>116</ele>
        <time>2020-12-20T10:03:32.856000+00:00</time>
      </trkpt>
      <trkpt lat="0" lon="0">
        <time>2020-12-20T10:03:32.879000+00:00</time>
      </trkpt>
      <trkpt lat="0" lon="0">
        <time>2020-12-20T10:03:32.885000+00:00</time>
      </trkpt>
      <trkpt lat="0" lon="0">
        <time>2020-12-20T10:03:32.890000+00:00</time>
      </trkpt>
      <trkpt lat="47.33802" lon="-1.31503">
        <ele>117</ele>
        <time>2020-12-20T10:03:33.790000+00:00</time>
      </trkpt>
      <trkpt lat="0" lon="0">
        <time>2020-12-20T10:03:33.810000+00:00</time>
      </trkpt>
      <trkpt lat="0" lon="0">
        <time>2020-12-20T10:03:33.818000+00:00</time>
      </trkpt>
      <trkpt lat="0" lon="0">
        <time>2020-12-20T10:03:33.825000+00:00</time>
      </trkpt>
      <trkpt lat="47.33801" lon="-1.31507">
        <ele>117</ele>
        <time>2020-12-20T10:03:34.829000+00:00</time>
      </trkpt>
      <trkpt lat="0" lon="0">
        <time>2020-12-20T10:03:34.835000+00:00</time>
      </trkpt>
      <trkpt lat="0" lon="0">
        <time>2020-12-20T10:03:34.839000+00:00</time>
      </trkpt>
      <trkpt lat="0" lon="0">
        <time>2020-12-20T10:03:34.842000+00:00</time>
      </trkpt>
      <trkpt lat="47.338" lon="-1.31512">
        <ele>118</ele>
        <time>2020-12-20T10:03:35.829000+00:00</time>
      </trkpt>
      <trkpt lat="0" lon="0">
        <time>2020-12-20T10:03:35.847000+00:00</time>
      </trkpt>
      <trkpt lat="0" lon="0">
        <time>2020-12-20T10:03:35.851000+00:00</time>
      </trkpt>
      <trkpt lat="0" lon="0">
        <time>2020-12-20T10:03:35.858000+00:00</time>
      </trkpt>
      <trkpt lat="47.33798" lon="-1.31516">
        <ele>118</ele>
        <time>2020-12-20T10:03:36.785000+00:00</time>
      </trkpt>
      <trkpt lat="0" lon="0">
        <time>2020-12-20T10:03:36.793000+00:00</time>
      </trkpt>
      <trkpt lat="0" lon="0">
        <time>2020-12-20T10:03:36.797000+00:00</time>
      </trkpt>
      <trkpt lat="0" lon="0">
        <time>2020-12-20T10:03:36.800000+00:00</time>
      </trkpt>
      <trkpt lat="47.33797" lon="-1.3152">
        <ele>119</ele>
        <time>2020-12-20T10:03:37.775000+00:00</time>
      </trkpt>
      <trkpt lat="0" lon="0">
        <time>2020-12-20T10:03:37.786000+00:00</time>
      </trkpt>
      <trkpt lat="0" lon="0">
        <time>2020-12-20T10:03:37.794000+00:00</time>
      </trkpt>
      <trkpt lat="0" lon="0">
        <time>2020-12-20T10:03:37.795000+00:00</time>
      </trkpt>
      <trkpt lat="47.33796" lon="-1.31525">
        <ele>118</ele>
        <time>2020-12-20T10:03:38.839000+00:00</time>
      </trkpt>
      <trkpt lat="0" lon="0">
        <time>2020-12-20T10:03:38.862000+00:00</time>
      </trkpt>
      <trkpt lat="0" lon="0">
        <time>2020-12-20T10:03:38.870000+00:00</time>
      </trkpt>
      <trkpt lat="0" lon="0">
        <time>2020-12-20T10:03:38.872000+00:00</time>
      </trkpt>
      <trkpt lat="47.33795" lon="-1.31529">
        <ele>118</ele>
        <time>2020-12-20T10:03:39.742000+00:00</time>
      </trkpt>
      <trkpt lat="0" lon="0">
        <time>2020-12-20T10:03:39.751000+00:00</time>
      </trkpt>
      <trkpt lat="0" lon="0">
        <time>2020-12-20T10:03:39.759000+00:00</time>
      </trkpt>
      <trkpt lat="0" lon="0">
        <time>2020-12-20T10:03:39.762000+00:00</time>
      </trkpt>
      <trkpt lat="47.33794" lon="-1.31533">
        <ele>119</ele>
        <time>2020-12-20T10:03:40.755000+00:00</time>
      </trkpt>
      <trkpt lat="0" lon="0">
        <time>2020-12-20T10:03:40.766000+00:00</time>
      </trkpt>
      <trkpt lat="0" lon="0">
        <time>2020-12-20T10:03:40.774000+00:00</time>
      </trkpt>
      <trkpt lat="0" lon="0">
        <time>2020-12-20T10:03:40.785000+00:00</time>
      </trkpt>
      <trkpt lat="47.33793" lon="-1.31537">
        <ele>119</ele>
        <time>2020-12-20T10:03:41.775000+00:00</time>
      </trkpt>
      <trkpt lat="0" lon="0">
        <time>2020-12-20T10:03:41.784000+00:00</time>
      </trkpt>
      <trkpt lat="0" lon="0">
        <time>2020-12-20T10:03:41.788000+00:00</time>
      </trkpt>
      <trkpt lat="0" lon="0">
        <time>2020-12-20T10:03:41.791000+00:00</time>
      </trkpt>
      <trkpt lat="47.33793" lon="-1.31542">
        <ele>119</ele>
        <time>2020-12-20T10:03:42.824000+00:00</time>
      </trkpt>
      <trkpt lat="0" lon="0">
        <time>2020-12-20T10:03:42.826000+00:00</time>
      </trkpt>
      <trkpt lat="0" lon="0">
        <time>2020-12-20T10:03:42.830000+00:00</time>
      </trkpt>
      <trkpt lat="0" lon="0">
        <time>2020-12-20T10:03:42.831000+00:00</time>
      </trkpt>
      <trkpt lat="47.33792" lon="-1.31546">
        <ele>119</ele>
        <time>2020-12-20T10:03:43.800000+00:00</time>
      </trkpt>
      <trkpt lat="0" lon="0">
        <time>2020-12-20T10:03:43.810000+00:00</time>
      </trkpt>
      <trkpt lat="0" lon="0">
        <time>2020-12-20T10:03:43.816000+00:00</time>
      </trkpt>
      <trkpt lat="0" lon="0">
        <time>2020-12-20T10:03:43.819000+00:00</time>
      </trkpt>
      <trkpt lat="47.33791" lon="-1.31549">
        <ele>119</ele>
        <time>2020-12-20T10:03:44.840000+00:00</time>
      </trkpt>
      <trkpt lat="0" lon="0">
        <time>2020-12-20T10:03:44.845000+00:00</time>
      </trkpt>
      <trkpt lat="0" lon="0">
        <time>2020-12-20T10:03:44.850000+00:00</time>
      </trkpt>
      <trkpt lat="0" lon="0">
        <time>2020-12-20T10:03:44.853000+00:00</time>
      </trkpt>
      <trkpt lat="47.33791" lon="-1.31553">
        <ele>118</ele>
        <time>2020-12-20T10:03:45.830000+00:00</time>
      </trkpt>
      <trkpt lat="0" lon="0">
        <time>2020-12-20T10:03:45.838000+00:00</time>
      </trkpt>
      <trkpt lat="0" lon="0">
        <time>2020-12-20T10:03:45.847000+00:00</time>
      </trkpt>
      <trkpt lat="0" lon="0">
        <time>2020-12-20T10:03:45.850000+00:00</time>
      </trkpt>
      <trkpt lat="47.33791" lon="-1.31556">
        <ele>118</ele>
        <time>2020-12-20T10:03:46.815000+00:00</time>
      </trkpt>
      <trkpt lat="0" lon="0">
        <time>2020-12-20T10:03:46.824000+00:00</time>
      </trkpt>
      <trkpt lat="0" lon="0">
        <time>2020-12-20T10:03:46.828000+00:00</time>
      </trkpt>
      <trkpt lat="0" lon="0">
        <time>2020-12-20T10:03:46.836000+00:00</time>
      </trkpt>
      <trkpt lat="47.33791" lon="-1.31559">
        <ele>118</ele>
        <time>2020-12-20T10:03:47.744000+00:00</time>
      </trkpt>
      <trkpt lat="0" lon="0">
        <time>2020-12-20T10:03:47.756000+00:00</time>
      </trkpt>
      <trkpt lat="0" lon="0">
        <time>2020-12-20T10:03:47.760000+00:00</time>
      </trkpt>
      <trkpt lat="0" lon="0">
        <time>2020-12-20T10:03:47.763000+00:00</time>
      </trkpt>
      <trkpt lat="47.33791" lon="-1.31562">
        <ele>118</ele>
        <time>2020-12-20T10:03:48.822000+00:00</time>
      </trkpt>
      <trkpt lat="0" lon="0">
        <time>2020-12-20T10:03:48.834000+00:00</time>
      </trkpt>
      <trkpt lat="0" lon="0">
        <time>2020-12-20T10:03:48.840000+00:00</time>
      </trkpt>
      <trkpt lat="0" lon="0">
        <time>2020-12-20T10:03:48.843000+00:00</time>
      </trkpt>
      <trkpt lat="47.33791" lon="-1.31565">
        <ele>118</ele>
        <time>2020-12-20T10:03:49.849000+00:00</time>
      </trkpt>
      <trkpt lat="0" lon="0">
        <time>2020-12-20T10:03:49.858000+00:00</time>
      </trkpt>
      <trkpt lat="0" lon="0">
        <time>2020-12-20T10:03:49.862000+00:00</time>
      </trkpt>
      <trkpt lat="0" lon="0">
        <time>2020-12-20T10:03:49.864000+00:00</time>
      </trkpt>
      <trkpt lat="47.33792" lon="-1.31568">
        <ele>118</ele>
        <time>2020-12-20T10:03:50.832000+00:00</time>
      </trkpt>
      <trkpt lat="0" lon="0">
        <time>2020-12-20T10:03:50.844000+00:00</time>
      </trkpt>
      <trkpt lat="0" lon="0">
        <time>2020-12-20T10:03:50.853000+00:00</time>
      </trkpt>
      <trkpt lat="0" lon="0">
        <time>2020-12-20T10:03:50.856000+00:00</time>
      </trkpt>
      <trkpt lat="47.33793" lon="-1.31571">
        <ele>118</ele>
        <time>2020-12-20T10:03:51.829000+00:00</time>
      </trkpt>
      <trkpt lat="0" lon="0">
        <time>2020-12-20T10:03:51.840000+00:00</time>
      </trkpt>
      <trkpt lat="0" lon="0">
        <time>2020-12-20T10:03:51.848000+00:00</time>
      </trkpt>
      <trkpt lat="0" lon="0">
        <time>2020-12-20T10:03:51.850000+00:00</time>
      </trkpt>
      <trkpt lat="47.33794" lon="-1.31574">
        <ele>118</ele>
        <time>2020-12-20T10:03:52.816000+00:00</time>
      </trkpt>
      <trkpt lat="0" lon="0">
        <time>2020-12-20T10:03:52.829000+00:00</time>
      </trkpt>
      <trkpt lat="0" lon="0">
        <time>2020-12-20T10:03:52.839000+00:00</time>
      </trkpt>
      <trkpt lat="0" lon="0">
        <time>2020-12-20T10:03:52.843000+00:00</time>
      </trkpt>
      <trkpt lat="47.33796" lon="-1.31577">
        <ele>119</ele>
        <time>2020-12-20T10:03:53.718000+00:00</time>
      </trkpt>
      <trkpt lat="0" lon="0">
        <time>2020-12-20T10:03:53.734000+00:00</time>
      </trkpt>
      <trkpt lat="0" lon="0">
        <time>2020-12-20T10:03:53.736000+00:00</time>
      </trkpt>
      <trkpt lat="0" lon="0">
        <time>2020-12-20T10:03:53.738000+00:00</time>
      </trkpt>
      <trkpt lat="47.33798" lon="-1.31581">
        <ele>119</ele>
        <time>2020-12-20T10:03:54.825000+00:00</time>
      </trkpt>
      <trkpt lat="0" lon="0">
        <time>2020-12-20T10:03:54.835000+00:00</time>
      </trkpt>
      <trkpt lat="0" lon="0">
        <time>2020-12-20T10:03:54.845000+00:00</time>
      </trkpt>
      <trkpt lat="0" lon="0">
        <time>2020-12-20T10:03:54.846000+00:00</time>
      </trkpt>
      <trkpt lat="47.338" lon="-1.31585">
        <ele>119</ele>
        <time>2020-12-20T10:03:55.734000+00:00</time>
      </trkpt>
      <trkpt lat="0" lon="0">
        <time>2020-12-20T10:03:55.741000+00:00</time>
      </trkpt>
      <trkpt lat="0" lon="0">
        <time>2020-12-20T10:03:55.744000+00:00</time>
      </trkpt>
      <trkpt lat="0" lon="0">
        <time>2020-12-20T10:03:55.749000+00:00</time>
      </trkpt>
      <trkpt lat="47.33802" lon="-1.31589">
        <ele>119</ele>
        <time>2020-12-20T10:03:56.774000+00:00</time>
      </trkpt>
      <trkpt lat="0" lon="0">
        <time>2020-12-20T10:03:56.780000+00:00</time>
      </trkpt>
      <trkpt lat="0" lon="0">
        <time>2020-12-20T10:03:56.787000+00:00</time>
      </trkpt>
      <trkpt lat="0" lon="0">
        <time>2020-12-20T10:03:56.789000+00:00</time>
      </trkpt>
      <trkpt lat="47.33804" lon="-1.31593">
        <ele>120</ele>
        <time>2020-12-20T10:03:57.801000+00:00</time>
      </trkpt>
      <trkpt lat="0" lon="0">
        <time>2020-12-20T10:03:57.808000+00:00</time>
      </trkpt>
      <trkpt lat="0" lon="0">
        <time>2020-12-20T10:03:57.812000+00:00</time>
      </trkpt>
      <trkpt lat="0" lon="0">
        <time>2020-12-20T10:03:57.815000+00:00</time>
      </trkpt>
      <trkpt lat="47.33807" lon="-1.31598">
        <ele>120</ele>
        <time>2020-12-20T10:03:58.773000+00:00</time>
      </trkpt>
      <trkpt lat="0" lon="0">
        <time>2020-12-20T10:03:58.782000+00:00</time>
      </trkpt>
      <trkpt lat="0" lon="0">
        <time>2020-12-20T10:03:58.786000+00:00</time>
      </trkpt>
      <trkpt lat="0" lon="0">
        <time>2020-12-20T10:03:58.789000+00:00</time>
      </trkpt>
      <trkpt lat="47.33809" lon="-1.31602">
        <ele>120</ele>
        <time>2020-12-20T10:03:59.808000+00:00</time>
      </trkpt>
      <trkpt lat="0" lon="0">
        <time>2020-12-20T10:03:59.826000+00:00</time>
      </trkpt>
      <trkpt lat="0" lon="0">
        <time>2020-12-20T10:03:59.832000+00:00</time>
      </trkpt>
      <trkpt lat="0" lon="0">
        <time>2020-12-20T10:03:59.835000+00:00</time>
      </trkpt>
      <trkpt lat="47.33812" lon="-1.31607">
        <ele>121</ele>
        <time>2020-12-20T10:04:00.804000+00:00</time>
      </trkpt>
      <trkpt lat="0" lon="0">
        <time>2020-12-20T10:04:00.820000+00:00</time>
      </trkpt>
      <trkpt lat="0" lon="0">
        <time>2020-12-20T10:04:00.824000+00:00</time>
      </trkpt>
      <trkpt lat="0" lon="0">
        <time>2020-12-20T10:04:00.832000+00:00</time>
      </trkpt>
      <trkpt lat="47.33814" lon="-1.31611">
        <ele>121</ele>
        <time>2020-12-20T10:04:01.880000+00:00</time>
      </trkpt>
      <trkpt lat="0" lon="0">
        <time>2020-12-20T10:04:01.892000+00:00</time>
      </trkpt>
      <trkpt lat="0" lon="0">
        <time>2020-12-20T10:04:01.897000+00:00</time>
      </trkpt>
      <trkpt lat="0" lon="0">
        <time>2020-12-20T10:04:01.902000+00:00</time>
      </trkpt>
      <trkpt lat="47.33816" lon="-1.31615">
        <ele>121</ele>
        <time>2020-12-20T10:04:02.826000+00:00</time>
      </trkpt>
      <trkpt lat="0" lon="0">
        <time>2020-12-20T10:04:02.839000+00:00</time>
      </trkpt>
      <trkpt lat="0" lon="0">
        <time>2020-12-20T10:04:02.846000+00:00</time>
      </trkpt>
      <trkpt lat="0" lon="0">
        <time>2020-12-20T10:04:02.848000+00:00</time>
      </trkpt>
      <trkpt lat="47.33819" lon="-1.31619">
        <ele>121</ele>
        <time>2020-12-20T10:04:03.851000+00:00</time>
      </trkpt>
      <trkpt lat="0" lon="0">
        <time>2020-12-20T10:04:03.862000+00:00</time>
      </trkpt>
      <trkpt lat="0" lon="0">
        <time>2020-12-20T10:04:03.867000+00:00</time>
      </trkpt>
      <trkpt lat="0" lon="0">
        <time>2020-12-20T10:04:03.871000+00:00</time>
      </trkpt>
      <trkpt lat="47.33821" lon="-1.31623">
        <ele>121</ele>
        <time>2020-12-20T10:04:04.747000+00:00</time>
      </trkpt>
      <trkpt lat="0" lon="0">
        <time>2020-12-20T10:04:04.751000+00:00</time>
      </trkpt>
      <trkpt lat="0" lon="0">
        <time>2020-12-20T10:04:04.754000+00:00</time>
      </trkpt>
      <trkpt lat="0" lon="0">
        <time>2020-12-20T10:04:04.755000+00:00</time>
      </trkpt>
      <trkpt lat="47.33823" lon="-1.31626">
        <ele>121</ele>
        <time>2020-12-20T10:04:05.831000+00:00</time>
      </trkpt>
      <trkpt lat="0" lon="0">
        <time>2020-12-20T10:04:05.835000+00:00</time>
      </trkpt>
      <trkpt lat="0" lon="0">
        <time>2020-12-20T10:04:05.836000+00:00</time>
      </trkpt>
      <trkpt lat="0" lon="0">
        <time>2020-12-20T10:04:05.837000+00:00</time>
      </trkpt>
      <trkpt lat="47.33825" lon="-1.3163">
        <ele>121</ele>
        <time>2020-12-20T10:04:06.806000+00:00</time>
      </trkpt>
      <trkpt lat="0" lon="0">
        <time>2020-12-20T10:04:06.826000+00:00</time>
      </trkpt>
      <trkpt lat="0" lon="0">
        <time>2020-12-20T10:04:06.832000+00:00</time>
      </trkpt>
      <trkpt lat="0" lon="0">
        <time>2020-12-20T10:04:06.840000+00:00</time>
      </trkpt>
      <trkpt lat="47.33826" lon="-1.31633">
        <ele>122</ele>
        <time>2020-12-20T10:04:07.808000+00:00</time>
      </trkpt>
      <trkpt lat="0" lon="0">
        <time>2020-12-20T10:04:07.821000+00:00</time>
      </trkpt>
      <trkpt lat="0" lon="0">
        <time>2020-12-20T10:04:07.827000+00:00</time>
      </trkpt>
      <trkpt lat="0" lon="0">
        <time>2020-12-20T10:04:07.829000+00:00</time>
      </trkpt>
      <trkpt lat="47.33828" lon="-1.31636">
        <ele>123</ele>
        <time>2020-12-20T10:04:08.803000+00:00</time>
      </trkpt>
      <trkpt lat="0" lon="0">
        <time>2020-12-20T10:04:08.808000+00:00</time>
      </trkpt>
      <trkpt lat="0" lon="0">
        <time>2020-12-20T10:04:08.813000+00:00</time>
      </trkpt>
      <trkpt lat="0" lon="0">
        <time>2020-12-20T10:04:08.818000+00:00</time>
      </trkpt>
      <trkpt lat="47.33829" lon="-1.3164">
        <ele>123</ele>
        <time>2020-12-20T10:04:09.820000+00:00</time>
      </trkpt>
      <trkpt lat="0" lon="0">
        <time>2020-12-20T10:04:09.834000+00:00</time>
      </trkpt>
      <trkpt lat="0" lon="0">
        <time>2020-12-20T10:04:09.839000+00:00</time>
      </trkpt>
      <trkpt lat="0" lon="0">
        <time>2020-12-20T10:04:09.842000+00:00</time>
      </trkpt>
      <trkpt lat="47.3383" lon="-1.31643">
        <ele>123</ele>
        <time>2020-12-20T10:04:10.809000+00:00</time>
      </trkpt>
      <trkpt lat="0" lon="0">
        <time>2020-12-20T10:04:10.811000+00:00</time>
      </trkpt>
      <trkpt lat="0" lon="0">
        <time>2020-12-20T10:04:10.813000+00:00</time>
      </trkpt>
      <trkpt lat="0" lon="0">
        <time>2020-12-20T10:04:10.816000+00:00</time>
      </trkpt>
      <trkpt lat="47.33832" lon="-1.31647">
        <ele>123</ele>
        <time>2020-12-20T10:04:11.858000+00:00</time>
      </trkpt>
      <trkpt lat="0" lon="0">
        <time>2020-12-20T10:04:11.863000+00:00</time>
      </trkpt>
      <trkpt lat="0" lon="0">
        <time>2020-12-20T10:04:11.868000+00:00</time>
      </trkpt>
      <trkpt lat="0" lon="0">
        <time>2020-12-20T10:04:11.871000+00:00</time>
      </trkpt>
      <trkpt lat="47.33833" lon="-1.31651">
        <ele>123</ele>
        <time>2020-12-20T10:04:12.832000+00:00</time>
      </trkpt>
      <trkpt lat="0" lon="0">
        <time>2020-12-20T10:04:12.844000+00:00</time>
      </trkpt>
      <trkpt lat="0" lon="0">
        <time>2020-12-20T10:04:12.849000+00:00</time>
      </trkpt>
      <trkpt lat="0" lon="0">
        <time>2020-12-20T10:04:12.853000+00:00</time>
      </trkpt>
      <trkpt lat="47.33835" lon="-1.31655">
        <ele>123</ele>
        <time>2020-12-20T10:04:13.824000+00:00</time>
      </trkpt>
      <trkpt lat="0" lon="0">
        <time>2020-12-20T10:04:13.842000+00:00</time>
      </trkpt>
      <trkpt lat="0" lon="0">
        <time>2020-12-20T10:04:13.848000+00:00</time>
      </trkpt>
      <trkpt lat="0" lon="0">
        <time>2020-12-20T10:04:13.850000+00:00</time>
      </trkpt>
      <trkpt lat="47.33836" lon="-1.31659">
        <ele>124</ele>
        <time>2020-12-20T10:04:14.781000+00:00</time>
      </trkpt>
      <trkpt lat="0" lon="0">
        <time>2020-12-20T10:04:14.787000+00:00</time>
      </trkpt>
      <trkpt lat="0" lon="0">
        <time>2020-12-20T10:04:14.790000+00:00</time>
      </trkpt>
      <trkpt lat="0" lon="0">
        <time>2020-12-20T10:04:14.795000+00:00</time>
      </trkpt>
      <trkpt lat="47.33838" lon="-1.31663">
        <ele>124</ele>
        <time>2020-12-20T10:04:15.775000+00:00</time>
      </trkpt>
      <trkpt lat="0" lon="0">
        <time>2020-12-20T10:04:15.790000+00:00</time>
      </trkpt>
      <trkpt lat="0" lon="0">
        <time>2020-12-20T10:04:15.800000+00:00</time>
      </trkpt>
      <trkpt lat="0" lon="0">
        <time>2020-12-20T10:04:15.803000+00:00</time>
      </trkpt>
      <trkpt lat="47.3384" lon="-1.31666">
        <ele>124</ele>
        <time>2020-12-20T10:04:16.792000+00:00</time>
      </trkpt>
      <trkpt lat="0" lon="0">
        <time>2020-12-20T10:04:16.822000+00:00</time>
      </trkpt>
      <trkpt lat="0" lon="0">
        <time>2020-12-20T10:04:16.824000+00:00</time>
      </trkpt>
      <trkpt lat="0" lon="0">
        <time>2020-12-20T10:04:16.825000+00:00</time>
      </trkpt>
      <trkpt lat="47.33842" lon="-1.3167">
        <ele>125</ele>
        <time>2020-12-20T10:04:17.815000+00:00</time>
      </trkpt>
      <trkpt lat="0" lon="0">
        <time>2020-12-20T10:04:17.827000+00:00</time>
      </trkpt>
      <trkpt lat="0" lon="0">
        <time>2020-12-20T10:04:17.829000+00:00</time>
      </trkpt>
      <trkpt lat="0" lon="0">
        <time>2020-12-20T10:04:17.830000+00:00</time>
      </trkpt>
      <trkpt lat="47.33844" lon="-1.31674">
        <ele>124</ele>
        <time>2020-12-20T10:04:18.834000+00:00</time>
      </trkpt>
      <trkpt lat="0" lon="0">
        <time>2020-12-20T10:04:18.845000+00:00</time>
      </trkpt>
      <trkpt lat="0" lon="0">
        <time>2020-12-20T10:04:18.850000+00:00</time>
      </trkpt>
      <trkpt lat="0" lon="0">
        <time>2020-12-20T10:04:18.853000+00:00</time>
      </trkpt>
      <trkpt lat="47.33846" lon="-1.31678">
        <ele>124</ele>
        <time>2020-12-20T10:04:19.757000+00:00</time>
      </trkpt>
      <trkpt lat="0" lon="0">
        <time>2020-12-20T10:04:19.767000+00:00</time>
      </trkpt>
      <trkpt lat="0" lon="0">
        <time>2020-12-20T10:04:19.772000+00:00</time>
      </trkpt>
      <trkpt lat="0" lon="0">
        <time>2020-12-20T10:04:19.780000+00:00</time>
      </trkpt>
      <trkpt lat="47.33848" lon="-1.31683">
        <ele>124</ele>
        <time>2020-12-20T10:04:20.795000+00:00</time>
      </trkpt>
      <trkpt lat="0" lon="0">
        <time>2020-12-20T10:04:20.809000+00:00</time>
      </trkpt>
      <trkpt lat="0" lon="0">
        <time>2020-12-20T10:04:20.817000+00:00</time>
      </trkpt>
      <trkpt lat="0" lon="0">
        <time>2020-12-20T10:04:20.819000+00:00</time>
      </trkpt>
      <trkpt lat="47.3385" lon="-1.31687">
        <ele>124</ele>
        <time>2020-12-20T10:04:21.824000+00:00</time>
      </trkpt>
      <trkpt lat="0" lon="0">
        <time>2020-12-20T10:04:21.834000+00:00</time>
      </trkpt>
      <trkpt lat="0" lon="0">
        <time>2020-12-20T10:04:21.839000+00:00</time>
      </trkpt>
      <trkpt lat="0" lon="0">
        <time>2020-12-20T10:04:21.840000+00:00</time>
      </trkpt>
      <trkpt lat="47.33852" lon="-1.31691">
        <ele>124</ele>
        <time>2020-12-20T10:04:22.800000+00:00</time>
      </trkpt>
      <trkpt lat="0" lon="0">
        <time>2020-12-20T10:04:22.806000+00:00</time>
      </trkpt>
      <trkpt lat="0" lon="0">
        <time>2020-12-20T10:04:22.811000+00:00</time>
      </trkpt>
      <trkpt lat="0" lon="0">
        <time>2020-12-20T10:04:22.815000+00:00</time>
      </trkpt>
      <trkpt lat="47.33854" lon="-1.31696">
        <ele>123</ele>
        <time>2020-12-20T10:04:23.816000+00:00</time>
      </trkpt>
      <trkpt lat="0" lon="0">
        <time>2020-12-20T10:04:23.826000+00:00</time>
      </trkpt>
      <trkpt lat="0" lon="0">
        <time>2020-12-20T10:04:23.831000+00:00</time>
      </trkpt>
      <trkpt lat="0" lon="0">
        <time>2020-12-20T10:04:23.834000+00:00</time>
      </trkpt>
      <trkpt lat="47.33856" lon="-1.317">
        <ele>124</ele>
        <time>2020-12-20T10:04:24.797000+00:00</time>
      </trkpt>
      <trkpt lat="0" lon="0">
        <time>2020-12-20T10:04:24.805000+00:00</time>
      </trkpt>
      <trkpt lat="0" lon="0">
        <time>2020-12-20T10:04:24.815000+00:00</time>
      </trkpt>
      <trkpt lat="0" lon="0">
        <time>2020-12-20T10:04:24.818000+00:00</time>
      </trkpt>
      <trkpt lat="47.33859" lon="-1.31704">
        <ele>124</ele>
        <time>2020-12-20T10:04:25.779000+00:00</time>
      </trkpt>
      <trkpt lat="0" lon="0">
        <time>2020-12-20T10:04:25.793000+00:00</time>
      </trkpt>
      <trkpt lat="0" lon="0">
        <time>2020-12-20T10:04:25.800000+00:00</time>
      </trkpt>
      <trkpt lat="0" lon="0">
        <time>2020-12-20T10:04:25.802000+00:00</time>
      </trkpt>
      <trkpt lat="47.33861" lon="-1.31709">
        <ele>124</ele>
        <time>2020-12-20T10:04:26.821000+00:00</time>
      </trkpt>
      <trkpt lat="0" lon="0">
        <time>2020-12-20T10:04:26.829000+00:00</time>
      </trkpt>
      <trkpt lat="0" lon="0">
        <time>2020-12-20T10:04:26.835000+00:00</time>
      </trkpt>
      <trkpt lat="0" lon="0">
        <time>2020-12-20T10:04:26.837000+00:00</time>
      </trkpt>
      <trkpt lat="47.33863" lon="-1.31713">
        <ele>124</ele>
        <time>2020-12-20T10:04:27.869000+00:00</time>
      </trkpt>
      <trkpt lat="0" lon="0">
        <time>2020-12-20T10:04:27.885000+00:00</time>
      </trkpt>
      <trkpt lat="0" lon="0">
        <time>2020-12-20T10:04:27.893000+00:00</time>
      </trkpt>
      <trkpt lat="0" lon="0">
        <time>2020-12-20T10:04:27.901000+00:00</time>
      </trkpt>
      <trkpt lat="47.33865" lon="-1.31717">
        <ele>124</ele>
        <time>2020-12-20T10:04:28.872000+00:00</time>
      </trkpt>
      <trkpt lat="0" lon="0">
        <time>2020-12-20T10:04:28.879000+00:00</time>
      </trkpt>
      <trkpt lat="0" lon="0">
        <time>2020-12-20T10:04:28.886000+00:00</time>
      </trkpt>
      <trkpt lat="0" lon="0">
        <time>2020-12-20T10:04:28.890000+00:00</time>
      </trkpt>
      <trkpt lat="47.33868" lon="-1.31721">
        <ele>124</ele>
        <time>2020-12-20T10:04:29.812000+00:00</time>
      </trkpt>
      <trkpt lat="0" lon="0">
        <time>2020-12-20T10:04:29.835000+00:00</time>
      </trkpt>
      <trkpt lat="0" lon="0">
        <time>2020-12-20T10:04:29.840000+00:00</time>
      </trkpt>
      <trkpt lat="0" lon="0">
        <time>2020-12-20T10:04:29.844000+00:00</time>
      </trkpt>
      <trkpt lat="47.3387" lon="-1.31725">
        <ele>124</ele>
        <time>2020-12-20T10:04:30.854000+00:00</time>
      </trkpt>
      <trkpt lat="0" lon="0">
        <time>2020-12-20T10:04:30.869000+00:00</time>
      </trkpt>
      <trkpt lat="0" lon="0">
        <time>2020-12-20T10:04:30.875000+00:00</time>
      </trkpt>
      <trkpt lat="0" lon="0">
        <time>2020-12-20T10:04:30.878000+00:00</time>
      </trkpt>
      <trkpt lat="47.33872" lon="-1.31729">
        <ele>124</ele>
        <time>2020-12-20T10:04:31.755000+00:00</time>
      </trkpt>
      <trkpt lat="0" lon="0">
        <time>2020-12-20T10:04:31.759000+00:00</time>
      </trkpt>
      <trkpt lat="0" lon="0">
        <time>2020-12-20T10:04:31.760000+00:00</time>
      </trkpt>
      <trkpt lat="47.33874" lon="-1.31733">
        <ele>124</ele>
        <time>2020-12-20T10:04:32.733000+00:00</time>
      </trkpt>
      <trkpt lat="0" lon="0">
        <time>2020-12-20T10:04:32.745000+00:00</time>
      </trkpt>
      <trkpt lat="0" lon="0">
        <time>2020-12-20T10:04:32.763000+00:00</time>
      </trkpt>
      <trkpt lat="0" lon="0">
        <time>2020-12-20T10:04:32.766000+00:00</time>
      </trkpt>
      <trkpt lat="47.33876" lon="-1.31736">
        <ele>125</ele>
        <time>2020-12-20T10:04:33.751000+00:00</time>
      </trkpt>
      <trkpt lat="0" lon="0">
        <time>2020-12-20T10:04:33.756000+00:00</time>
      </trkpt>
      <trkpt lat="0" lon="0">
        <time>2020-12-20T10:04:33.759000+00:00</time>
      </trkpt>
      <trkpt lat="0" lon="0">
        <time>2020-12-20T10:04:33.760000+00:00</time>
      </trkpt>
      <trkpt lat="47.33878" lon="-1.3174">
        <ele>125</ele>
        <time>2020-12-20T10:04:34.704000+00:00</time>
      </trkpt>
      <trkpt lat="0" lon="0">
        <time>2020-12-20T10:04:34.713000+00:00</time>
      </trkpt>
      <trkpt lat="0" lon="0">
        <time>2020-12-20T10:04:34.715000+00:00</time>
      </trkpt>
      <trkpt lat="0" lon="0">
        <time>2020-12-20T10:04:34.716000+00:00</time>
      </trkpt>
      <trkpt lat="47.3388" lon="-1.31743">
        <ele>125</ele>
        <time>2020-12-20T10:04:35.717000+00:00</time>
      </trkpt>
      <trkpt lat="0" lon="0">
        <time>2020-12-20T10:04:35.719000+00:00</time>
      </trkpt>
      <trkpt lat="0" lon="0">
        <time>2020-12-20T10:04:35.721000+00:00</time>
      </trkpt>
      <trkpt lat="0" lon="0">
        <time>2020-12-20T10:04:35.723000+00:00</time>
      </trkpt>
      <trkpt lat="47.33881" lon="-1.31746">
        <ele>125</ele>
        <time>2020-12-20T10:04:36.727000+00:00</time>
      </trkpt>
      <trkpt lat="0" lon="0">
        <time>2020-12-20T10:04:36.729000+00:00</time>
      </trkpt>
      <trkpt lat="0" lon="0">
        <time>2020-12-20T10:04:36.731000+00:00</time>
      </trkpt>
      <trkpt lat="0" lon="0">
        <time>2020-12-20T10:04:36.732000+00:00</time>
      </trkpt>
      <trkpt lat="47.33883" lon="-1.31749">
        <ele>126</ele>
        <time>2020-12-20T10:04:37.743000+00:00</time>
      </trkpt>
      <trkpt lat="0" lon="0">
        <time>2020-12-20T10:04:37.750000+00:00</time>
      </trkpt>
      <trkpt lat="0" lon="0">
        <time>2020-12-20T10:04:37.758000+00:00</time>
      </trkpt>
      <trkpt lat="0" lon="0">
        <time>2020-12-20T10:04:37.759000+00:00</time>
      </trkpt>
      <trkpt lat="47.33884" lon="-1.31752">
        <ele>126</ele>
        <time>2020-12-20T10:04:38.715000+00:00</time>
      </trkpt>
      <trkpt lat="0" lon="0">
        <time>2020-12-20T10:04:38.718000+00:00</time>
      </trkpt>
      <trkpt lat="0" lon="0">
        <time>2020-12-20T10:04:38.720000+00:00</time>
      </trkpt>
      <trkpt lat="47.33885" lon="-1.31754">
        <ele>127</ele>
        <time>2020-12-20T10:04:39.732000+00:00</time>
      </trkpt>
      <trkpt lat="0" lon="0">
        <time>2020-12-20T10:04:39.734000+00:00</time>
      </trkpt>
      <trkpt lat="0" lon="0">
        <time>2020-12-20T10:04:39.735000+00:00</time>
      </trkpt>
      <trkpt lat="47.33887" lon="-1.31757">
        <ele>127</ele>
        <time>2020-12-20T10:04:40.718000+00:00</time>
      </trkpt>
      <trkpt lat="0" lon="0">
        <time>2020-12-20T10:04:40.720000+00:00</time>
      </trkpt>
      <trkpt lat="0" lon="0">
        <time>2020-12-20T10:04:40.722000+00:00</time>
      </trkpt>
      <trkpt lat="0" lon="0">
        <time>2020-12-20T10:04:40.723000+00:00</time>
      </trkpt>
      <trkpt lat="47.33888" lon="-1.31759">
        <ele>127</ele>
        <time>2020-12-20T10:04:41.725000+00:00</time>
      </trkpt>
      <trkpt lat="0" lon="0">
        <time>2020-12-20T10:04:41.731000+00:00</time>
      </trkpt>
      <trkpt lat="0" lon="0">
        <time>2020-12-20T10:04:41.733000+00:00</time>
      </trkpt>
      <trkpt lat="0" lon="0">
        <time>2020-12-20T10:04:41.734000+00:00</time>
      </trkpt>
      <trkpt lat="47.33889" lon="-1.31761">
        <ele>127</ele>
        <time>2020-12-20T10:04:42.710000+00:00</time>
      </trkpt>
      <trkpt lat="0" lon="0">
        <time>2020-12-20T10:04:42.719000+00:00</time>
      </trkpt>
      <trkpt lat="0" lon="0">
        <time>2020-12-20T10:04:42.723000+00:00</time>
      </trkpt>
      <trkpt lat="0" lon="0">
        <time>2020-12-20T10:04:42.726000+00:00</time>
      </trkpt>
      <trkpt lat="47.3389" lon="-1.31763">
        <ele>128</ele>
        <time>2020-12-20T10:04:43.710000+00:00</time>
      </trkpt>
      <trkpt lat="0" lon="0">
        <time>2020-12-20T10:04:43.718000+00:00</time>
      </trkpt>
      <trkpt lat="0" lon="0">
        <time>2020-12-20T10:04:43.720000+00:00</time>
      </trkpt>
      <trkpt lat="0" lon="0">
        <time>2020-12-20T10:04:43.721000+00:00</time>
      </trkpt>
      <trkpt lat="47.3389" lon="-1.31765">
        <ele>128</ele>
        <time>2020-12-20T10:04:44.783000+00:00</time>
      </trkpt>
      <trkpt lat="0" lon="0">
        <time>2020-12-20T10:04:44.798000+00:00</time>
      </trkpt>
      <trkpt lat="0" lon="0">
        <time>2020-12-20T10:04:44.803000+00:00</time>
      </trkpt>
      <trkpt lat="0" lon="0">
        <time>2020-12-20T10:04:44.806000+00:00</time>
      </trkpt>
      <trkpt lat="47.33891" lon="-1.31767">
        <ele>129</ele>
        <time>2020-12-20T10:04:45.819000+00:00</time>
      </trkpt>
      <trkpt lat="0" lon="0">
        <time>2020-12-20T10:04:45.831000+00:00</time>
      </trkpt>
      <trkpt lat="0" lon="0">
        <time>2020-12-20T10:04:45.835000+00:00</time>
      </trkpt>
      <trkpt lat="0" lon="0">
        <time>2020-12-20T10:04:45.837000+00:00</time>
      </trkpt>
      <trkpt lat="47.33892" lon="-1.3177">
        <ele>129</ele>
        <time>2020-12-20T10:04:46.815000+00:00</time>
      </trkpt>
      <trkpt lat="0" lon="0">
        <time>2020-12-20T10:04:46.823000+00:00</time>
      </trkpt>
      <trkpt lat="0" lon="0">
        <time>2020-12-20T10:04:46.829000+00:00</time>
      </trkpt>
      <trkpt lat="0" lon="0">
        <time>2020-12-20T10:04:46.832000+00:00</time>
      </trkpt>
      <trkpt lat="47.33893" lon="-1.31772">
        <ele>129</ele>
        <time>2020-12-20T10:04:47.806000+00:00</time>
      </trkpt>
      <trkpt lat="0" lon="0">
        <time>2020-12-20T10:04:47.824000+00:00</time>
      </trkpt>
      <trkpt lat="0" lon="0">
        <time>2020-12-20T10:04:47.835000+00:00</time>
      </trkpt>
      <trkpt lat="0" lon="0">
        <time>2020-12-20T10:04:47.838000+00:00</time>
      </trkpt>
      <trkpt lat="47.33895" lon="-1.31775">
        <ele>129</ele>
        <time>2020-12-20T10:04:48.842000+00:00</time>
      </trkpt>
      <trkpt lat="0" lon="0">
        <time>2020-12-20T10:04:48.847000+00:00</time>
      </trkpt>
      <trkpt lat="0" lon="0">
        <time>2020-12-20T10:04:48.855000+00:00</time>
      </trkpt>
      <trkpt lat="0" lon="0">
        <time>2020-12-20T10:04:48.856000+00:00</time>
      </trkpt>
      <trkpt lat="47.33896" lon="-1.31777">
        <ele>129</ele>
        <time>2020-12-20T10:04:49.834000+00:00</time>
      </trkpt>
      <trkpt lat="0" lon="0">
        <time>2020-12-20T10:04:49.840000+00:00</time>
      </trkpt>
      <trkpt lat="0" lon="0">
        <time>2020-12-20T10:04:49.844000+00:00</time>
      </trkpt>
      <trkpt lat="0" lon="0">
        <time>2020-12-20T10:04:49.846000+00:00</time>
      </trkpt>
      <trkpt lat="47.33898" lon="-1.31781">
        <ele>129</ele>
        <time>2020-12-20T10:04:50.747000+00:00</time>
      </trkpt>
      <trkpt lat="0" lon="0">
        <time>2020-12-20T10:04:50.758000+00:00</time>
      </trkpt>
      <trkpt lat="0" lon="0">
        <time>2020-12-20T10:04:50.762000+00:00</time>
      </trkpt>
      <trkpt lat="0" lon="0">
        <time>2020-12-20T10:04:50.764000+00:00</time>
      </trkpt>
      <trkpt lat="47.33899" lon="-1.31784">
        <ele>130</ele>
        <time>2020-12-20T10:04:51.806000+00:00</time>
      </trkpt>
      <trkpt lat="0" lon="0">
        <time>2020-12-20T10:04:51.814000+00:00</time>
      </trkpt>
      <trkpt lat="0" lon="0">
        <time>2020-12-20T10:04:51.818000+00:00</time>
      </trkpt>
      <trkpt lat="0" lon="0">
        <time>2020-12-20T10:04:51.820000+00:00</time>
      </trkpt>
      <trkpt lat="47.33901" lon="-1.31787">
        <ele>130</ele>
        <time>2020-12-20T10:04:52.824000+00:00</time>
      </trkpt>
      <trkpt lat="0" lon="0">
        <time>2020-12-20T10:04:52.835000+00:00</time>
      </trkpt>
      <trkpt lat="0" lon="0">
        <time>2020-12-20T10:04:52.845000+00:00</time>
      </trkpt>
      <trkpt lat="0" lon="0">
        <time>2020-12-20T10:04:52.847000+00:00</time>
      </trkpt>
      <trkpt lat="47.33903" lon="-1.31791">
        <ele>130</ele>
        <time>2020-12-20T10:04:53.787000+00:00</time>
      </trkpt>
      <trkpt lat="0" lon="0">
        <time>2020-12-20T10:04:53.798000+00:00</time>
      </trkpt>
      <trkpt lat="0" lon="0">
        <time>2020-12-20T10:04:53.803000+00:00</time>
      </trkpt>
      <trkpt lat="0" lon="0">
        <time>2020-12-20T10:04:53.805000+00:00</time>
      </trkpt>
      <trkpt lat="47.33904" lon="-1.31795">
        <ele>130</ele>
        <time>2020-12-20T10:04:54.847000+00:00</time>
      </trkpt>
      <trkpt lat="0" lon="0">
        <time>2020-12-20T10:04:54.857000+00:00</time>
      </trkpt>
      <trkpt lat="0" lon="0">
        <time>2020-12-20T10:04:54.862000+00:00</time>
      </trkpt>
      <trkpt lat="0" lon="0">
        <time>2020-12-20T10:04:54.866000+00:00</time>
      </trkpt>
      <trkpt lat="47.33906" lon="-1.31798">
        <ele>131</ele>
        <time>2020-12-20T10:04:55.823000+00:00</time>
      </trkpt>
      <trkpt lat="0" lon="0">
        <time>2020-12-20T10:04:55.829000+00:00</time>
      </trkpt>
      <trkpt lat="0" lon="0">
        <time>2020-12-20T10:04:55.834000+00:00</time>
      </trkpt>
      <trkpt lat="0" lon="0">
        <time>2020-12-20T10:04:55.836000+00:00</time>
      </trkpt>
      <trkpt lat="47.33908" lon="-1.31802">
        <ele>130</ele>
        <time>2020-12-20T10:04:56.842000+00:00</time>
      </trkpt>
      <trkpt lat="0" lon="0">
        <time>2020-12-20T10:04:56.849000+00:00</time>
      </trkpt>
      <trkpt lat="0" lon="0">
        <time>2020-12-20T10:04:56.854000+00:00</time>
      </trkpt>
      <trkpt lat="0" lon="0">
        <time>2020-12-20T10:04:56.857000+00:00</time>
      </trkpt>
      <trkpt lat="47.3391" lon="-1.31806">
        <ele>130</ele>
        <time>2020-12-20T10:04:57.813000+00:00</time>
      </trkpt>
      <trkpt lat="0" lon="0">
        <time>2020-12-20T10:04:57.822000+00:00</time>
      </trkpt>
      <trkpt lat="0" lon="0">
        <time>2020-12-20T10:04:57.828000+00:00</time>
      </trkpt>
      <trkpt lat="0" lon="0">
        <time>2020-12-20T10:04:57.831000+00:00</time>
      </trkpt>
      <trkpt lat="47.33911" lon="-1.3181">
        <ele>131</ele>
        <time>2020-12-20T10:04:58.830000+00:00</time>
      </trkpt>
      <trkpt lat="0" lon="0">
        <time>2020-12-20T10:04:58.841000+00:00</time>
      </trkpt>
      <trkpt lat="0" lon="0">
        <time>2020-12-20T10:04:58.846000+00:00</time>
      </trkpt>
      <trkpt lat="0" lon="0">
        <time>2020-12-20T10:04:58.848000+00:00</time>
      </trkpt>
      <trkpt lat="47.33913" lon="-1.31814">
        <ele>131</ele>
        <time>2020-12-20T10:04:59.790000+00:00</time>
      </trkpt>
      <trkpt lat="0" lon="0">
        <time>2020-12-20T10:04:59.814000+00:00</time>
      </trkpt>
      <trkpt lat="0" lon="0">
        <time>2020-12-20T10:04:59.818000+00:00</time>
      </trkpt>
      <trkpt lat="0" lon="0">
        <time>2020-12-20T10:04:59.820000+00:00</time>
      </trkpt>
      <trkpt lat="47.33915" lon="-1.31818">
        <ele>130</ele>
        <time>2020-12-20T10:05:00.796000+00:00</time>
      </trkpt>
      <trkpt lat="0" lon="0">
        <time>2020-12-20T10:05:00.806000+00:00</time>
      </trkpt>
      <trkpt lat="0" lon="0">
        <time>2020-12-20T10:05:00.810000+00:00</time>
      </trkpt>
      <trkpt lat="0" lon="0">
        <time>2020-12-20T10:05:00.813000+00:00</time>
      </trkpt>
      <trkpt lat="47.33917" lon="-1.31822">
        <ele>130</ele>
        <time>2020-12-20T10:05:01.789000+00:00</time>
      </trkpt>
      <trkpt lat="0" lon="0">
        <time>2020-12-20T10:05:01.799000+00:00</time>
      </trkpt>
      <trkpt lat="0" lon="0">
        <time>2020-12-20T10:05:01.808000+00:00</time>
      </trkpt>
      <trkpt lat="0" lon="0">
        <time>2020-12-20T10:05:01.812000+00:00</time>
      </trkpt>
      <trkpt lat="47.33919" lon="-1.31826">
        <ele>130</ele>
        <time>2020-12-20T10:05:02.814000+00:00</time>
      </trkpt>
      <trkpt lat="0" lon="0">
        <time>2020-12-20T10:05:02.829000+00:00</time>
      </trkpt>
      <trkpt lat="0" lon="0">
        <time>2020-12-20T10:05:02.833000+00:00</time>
      </trkpt>
      <trkpt lat="0" lon="0">
        <time>2020-12-20T10:05:02.835000+00:00</time>
      </trkpt>
      <trkpt lat="47.3392" lon="-1.31831">
        <ele>130</ele>
        <time>2020-12-20T10:05:03.860000+00:00</time>
      </trkpt>
      <trkpt lat="0" lon="0">
        <time>2020-12-20T10:05:03.878000+00:00</time>
      </trkpt>
      <trkpt lat="0" lon="0">
        <time>2020-12-20T10:05:03.887000+00:00</time>
      </trkpt>
      <trkpt lat="0" lon="0">
        <time>2020-12-20T10:05:03.890000+00:00</time>
      </trkpt>
      <trkpt lat="47.33922" lon="-1.31835">
        <ele>130</ele>
        <time>2020-12-20T10:05:04.787000+00:00</time>
      </trkpt>
      <trkpt lat="0" lon="0">
        <time>2020-12-20T10:05:04.796000+00:00</time>
      </trkpt>
      <trkpt lat="0" lon="0">
        <time>2020-12-20T10:05:04.804000+00:00</time>
      </trkpt>
      <trkpt lat="0" lon="0">
        <time>2020-12-20T10:05:04.806000+00:00</time>
      </trkpt>
      <trkpt lat="47.33924" lon="-1.31838">
        <ele>130</ele>
        <time>2020-12-20T10:05:05.827000+00:00</time>
      </trkpt>
      <trkpt lat="0" lon="0">
        <time>2020-12-20T10:05:05.838000+00:00</time>
      </trkpt>
      <trkpt lat="0" lon="0">
        <time>2020-12-20T10:05:05.844000+00:00</time>
      </trkpt>
      <trkpt lat="0" lon="0">
        <time>2020-12-20T10:05:05.846000+00:00</time>
      </trkpt>
      <trkpt lat="47.33926" lon="-1.31842">
        <ele>130</ele>
        <time>2020-12-20T10:05:06.822000+00:00</time>
      </trkpt>
      <trkpt lat="0" lon="0">
        <time>2020-12-20T10:05:06.839000+00:00</time>
      </trkpt>
      <trkpt lat="0" lon="0">
        <time>2020-12-20T10:05:06.850000+00:00</time>
      </trkpt>
      <trkpt lat="0" lon="0">
        <time>2020-12-20T10:05:06.853000+00:00</time>
      </trkpt>
      <trkpt lat="47.33928" lon="-1.31846">
        <ele>130</ele>
        <time>2020-12-20T10:05:07.782000+00:00</time>
      </trkpt>
      <trkpt lat="0" lon="0">
        <time>2020-12-20T10:05:07.789000+00:00</time>
      </trkpt>
      <trkpt lat="0" lon="0">
        <time>2020-12-20T10:05:07.794000+00:00</time>
      </trkpt>
      <trkpt lat="0" lon="0">
        <time>2020-12-20T10:05:07.799000+00:00</time>
      </trkpt>
      <trkpt lat="47.33929" lon="-1.3185">
        <ele>130</ele>
        <time>2020-12-20T10:05:08.709000+00:00</time>
      </trkpt>
      <trkpt lat="0" lon="0">
        <time>2020-12-20T10:05:08.715000+00:00</time>
      </trkpt>
      <trkpt lat="0" lon="0">
        <time>2020-12-20T10:05:08.716000+00:00</time>
      </trkpt>
      <trkpt lat="0" lon="0">
        <time>2020-12-20T10:05:08.719000+00:00</time>
      </trkpt>
      <trkpt lat="47.33931" lon="-1.31854">
        <ele>130</ele>
        <time>2020-12-20T10:05:09.765000+00:00</time>
      </trkpt>
      <trkpt lat="0" lon="0">
        <time>2020-12-20T10:05:09.776000+00:00</time>
      </trkpt>
      <trkpt lat="0" lon="0">
        <time>2020-12-20T10:05:09.782000+00:00</time>
      </trkpt>
      <trkpt lat="0" lon="0">
        <time>2020-12-20T10:05:09.784000+00:00</time>
      </trkpt>
      <trkpt lat="47.33932" lon="-1.31858">
        <ele>129</ele>
        <time>2020-12-20T10:05:10.791000+00:00</time>
      </trkpt>
      <trkpt lat="0" lon="0">
        <time>2020-12-20T10:05:10.799000+00:00</time>
      </trkpt>
      <trkpt lat="0" lon="0">
        <time>2020-12-20T10:05:10.804000+00:00</time>
      </trkpt>
      <trkpt lat="0" lon="0">
        <time>2020-12-20T10:05:10.806000+00:00</time>
      </trkpt>
      <trkpt lat="47.33933" lon="-1.31862">
        <ele>130</ele>
        <time>2020-12-20T10:05:11.815000+00:00</time>
      </trkpt>
      <trkpt lat="0" lon="0">
        <time>2020-12-20T10:05:11.827000+00:00</time>
      </trkpt>
      <trkpt lat="0" lon="0">
        <time>2020-12-20T10:05:11.836000+00:00</time>
      </trkpt>
      <trkpt lat="0" lon="0">
        <time>2020-12-20T10:05:11.839000+00:00</time>
      </trkpt>
      <trkpt lat="47.33934" lon="-1.31866">
        <ele>130</ele>
        <time>2020-12-20T10:05:12.821000+00:00</time>
      </trkpt>
      <trkpt lat="0" lon="0">
        <time>2020-12-20T10:05:12.835000+00:00</time>
      </trkpt>
      <trkpt lat="0" lon="0">
        <time>2020-12-20T10:05:12.839000+00:00</time>
      </trkpt>
      <trkpt lat="0" lon="0">
        <time>2020-12-20T10:05:12.842000+00:00</time>
      </trkpt>
      <trkpt lat="47.33934" lon="-1.3187">
        <ele>130</ele>
        <time>2020-12-20T10:05:13.795000+00:00</time>
      </trkpt>
      <trkpt lat="0" lon="0">
        <time>2020-12-20T10:05:13.804000+00:00</time>
      </trkpt>
      <trkpt lat="0" lon="0">
        <time>2020-12-20T10:05:13.810000+00:00</time>
      </trkpt>
      <trkpt lat="0" lon="0">
        <time>2020-12-20T10:05:13.812000+00:00</time>
      </trkpt>
      <trkpt lat="47.33934" lon="-1.31873">
        <ele>130</ele>
        <time>2020-12-20T10:05:14.764000+00:00</time>
      </trkpt>
      <trkpt lat="0" lon="0">
        <time>2020-12-20T10:05:14.770000+00:00</time>
      </trkpt>
      <trkpt lat="0" lon="0">
        <time>2020-12-20T10:05:14.774000+00:00</time>
      </trkpt>
      <trkpt lat="0" lon="0">
        <time>2020-12-20T10:05:14.777000+00:00</time>
      </trkpt>
      <trkpt lat="47.33934" lon="-1.31877">
        <ele>130</ele>
        <time>2020-12-20T10:05:15.754000+00:00</time>
      </trkpt>
      <trkpt lat="0" lon="0">
        <time>2020-12-20T10:05:15.766000+00:00</time>
      </trkpt>
      <trkpt lat="0" lon="0">
        <time>2020-12-20T10:05:15.771000+00:00</time>
      </trkpt>
      <trkpt lat="0" lon="0">
        <time>2020-12-20T10:05:15.774000+00:00</time>
      </trkpt>
      <trkpt lat="47.33933" lon="-1.3188">
        <ele>130</ele>
        <time>2020-12-20T10:05:16.827000+00:00</time>
      </trkpt>
      <trkpt lat="0" lon="0">
        <time>2020-12-20T10:05:16.846000+00:00</time>
      </trkpt>
      <trkpt lat="0" lon="0">
        <time>2020-12-20T10:05:16.854000+00:00</time>
      </trkpt>
      <trkpt lat="0" lon="0">
        <time>2020-12-20T10:05:16.859000+00:00</time>
      </trkpt>
      <trkpt lat="47.33933" lon="-1.31883">
        <ele>130</ele>
        <time>2020-12-20T10:05:17.845000+00:00</time>
      </trkpt>
      <trkpt lat="0" lon="0">
        <time>2020-12-20T10:05:17.852000+00:00</time>
      </trkpt>
      <trkpt lat="0" lon="0">
        <time>2020-12-20T10:05:17.856000+00:00</time>
      </trkpt>
      <trkpt lat="0" lon="0">
        <time>2020-12-20T10:05:17.859000+00:00</time>
      </trkpt>
      <trkpt lat="47.33932" lon="-1.31886">
        <ele>129</ele>
        <time>2020-12-20T10:05:18.799000+00:00</time>
      </trkpt>
      <trkpt lat="0" lon="0">
        <time>2020-12-20T10:05:18.807000+00:00</time>
      </trkpt>
      <trkpt lat="0" lon="0">
        <time>2020-12-20T10:05:18.808000+00:00</time>
      </trkpt>
      <trkpt lat="0" lon="0">
        <time>2020-12-20T10:05:18.809000+00:00</time>
      </trkpt>
      <trkpt lat="47.33931" lon="-1.31889">
        <ele>130</ele>
        <time>2020-12-20T10:05:19.799000+00:00</time>
      </trkpt>
      <trkpt lat="0" lon="0">
        <time>2020-12-20T10:05:19.810000+00:00</time>
      </trkpt>
      <trkpt lat="0" lon="0">
        <time>2020-12-20T10:05:19.812000+00:00</time>
      </trkpt>
      <trkpt lat="0" lon="0">
        <time>2020-12-20T10:05:19.814000+00:00</time>
      </trkpt>
      <trkpt lat="47.3393" lon="-1.31892">
        <ele>130</ele>
        <time>2020-12-20T10:05:20.784000+00:00</time>
      </trkpt>
      <trkpt lat="0" lon="0">
        <time>2020-12-20T10:05:20.786000+00:00</time>
      </trkpt>
      <trkpt lat="0" lon="0">
        <time>2020-12-20T10:05:20.788000+00:00</time>
      </trkpt>
      <trkpt lat="0" lon="0">
        <time>2020-12-20T10:05:20.789000+00:00</time>
      </trkpt>
      <trkpt lat="47.33929" lon="-1.31896">
        <ele>130</ele>
        <time>2020-12-20T10:05:21.820000+00:00</time>
      </trkpt>
      <trkpt lat="0" lon="0">
        <time>2020-12-20T10:05:21.828000+00:00</time>
      </trkpt>
      <trkpt lat="0" lon="0">
        <time>2020-12-20T10:05:21.834000+00:00</time>
      </trkpt>
      <trkpt lat="0" lon="0">
        <time>2020-12-20T10:05:21.837000+00:00</time>
      </trkpt>
      <trkpt lat="47.33928" lon="-1.31899">
        <ele>130</ele>
        <time>2020-12-20T10:05:22.770000+00:00</time>
      </trkpt>
      <trkpt lat="0" lon="0">
        <time>2020-12-20T10:05:22.782000+00:00</time>
      </trkpt>
      <trkpt lat="0" lon="0">
        <time>2020-12-20T10:05:22.795000+00:00</time>
      </trkpt>
      <trkpt lat="0" lon="0">
        <time>2020-12-20T10:05:22.799000+00:00</time>
      </trkpt>
      <trkpt lat="47.33927" lon="-1.31902">
        <ele>130</ele>
        <time>2020-12-20T10:05:23.796000+00:00</time>
      </trkpt>
      <trkpt lat="0" lon="0">
        <time>2020-12-20T10:05:23.811000+00:00</time>
      </trkpt>
      <trkpt lat="0" lon="0">
        <time>2020-12-20T10:05:23.815000+00:00</time>
      </trkpt>
      <trkpt lat="0" lon="0">
        <time>2020-12-20T10:05:23.817000+00:00</time>
      </trkpt>
      <trkpt lat="47.33925" lon="-1.31904">
        <ele>130</ele>
        <time>2020-12-20T10:05:24.827000+00:00</time>
      </trkpt>
      <trkpt lat="0" lon="0">
        <time>2020-12-20T10:05:24.839000+00:00</time>
      </trkpt>
      <trkpt lat="0" lon="0">
        <time>2020-12-20T10:05:24.844000+00:00</time>
      </trkpt>
      <trkpt lat="0" lon="0">
        <time>2020-12-20T10:05:24.847000+00:00</time>
      </trkpt>
      <trkpt lat="47.33923" lon="-1.31907">
        <ele>130</ele>
        <time>2020-12-20T10:05:25.811000+00:00</time>
      </trkpt>
      <trkpt lat="0" lon="0">
        <time>2020-12-20T10:05:25.816000+00:00</time>
      </trkpt>
      <trkpt lat="0" lon="0">
        <time>2020-12-20T10:05:25.823000+00:00</time>
      </trkpt>
      <trkpt lat="0" lon="0">
        <time>2020-12-20T10:05:25.825000+00:00</time>
      </trkpt>
      <trkpt lat="47.33922" lon="-1.31909">
        <ele>131</ele>
        <time>2020-12-20T10:05:26.846000+00:00</time>
      </trkpt>
      <trkpt lat="0" lon="0">
        <time>2020-12-20T10:05:26.853000+00:00</time>
      </trkpt>
      <trkpt lat="0" lon="0">
        <time>2020-12-20T10:05:26.858000+00:00</time>
      </trkpt>
      <trkpt lat="0" lon="0">
        <time>2020-12-20T10:05:26.860000+00:00</time>
      </trkpt>
      <trkpt lat="47.3392" lon="-1.31912">
        <ele>131</ele>
        <time>2020-12-20T10:05:27.853000+00:00</time>
      </trkpt>
      <trkpt lat="0" lon="0">
        <time>2020-12-20T10:05:27.859000+00:00</time>
      </trkpt>
      <trkpt lat="0" lon="0">
        <time>2020-12-20T10:05:27.867000+00:00</time>
      </trkpt>
      <trkpt lat="0" lon="0">
        <time>2020-12-20T10:05:27.869000+00:00</time>
      </trkpt>
      <trkpt lat="47.33919" lon="-1.31914">
        <ele>131</ele>
        <time>2020-12-20T10:05:28.832000+00:00</time>
      </trkpt>
      <trkpt lat="0" lon="0">
        <time>2020-12-20T10:05:28.835000+00:00</time>
      </trkpt>
      <trkpt lat="0" lon="0">
        <time>2020-12-20T10:05:28.837000+00:00</time>
      </trkpt>
      <trkpt lat="0" lon="0">
        <time>2020-12-20T10:05:28.838000+00:00</time>
      </trkpt>
      <trkpt lat="47.33918" lon="-1.31916">
        <ele>131</ele>
        <time>2020-12-20T10:05:29.818000+00:00</time>
      </trkpt>
      <trkpt lat="0" lon="0">
        <time>2020-12-20T10:05:29.819000+00:00</time>
      </trkpt>
      <trkpt lat="0" lon="0">
        <time>2020-12-20T10:05:29.821000+00:00</time>
      </trkpt>
      <trkpt lat="0" lon="0">
        <time>2020-12-20T10:05:29.822000+00:00</time>
      </trkpt>
      <trkpt lat="47.33917" lon="-1.31919">
        <ele>131</ele>
        <time>2020-12-20T10:05:30.814000+00:00</time>
      </trkpt>
      <trkpt lat="0" lon="0">
        <time>2020-12-20T10:05:30.822000+00:00</time>
      </trkpt>
      <trkpt lat="0" lon="0">
        <time>2020-12-20T10:05:30.827000+00:00</time>
      </trkpt>
      <trkpt lat="0" lon="0">
        <time>2020-12-20T10:05:30.829000+00:00</time>
      </trkpt>
      <trkpt lat="47.33915" lon="-1.31922">
        <ele>131</ele>
        <time>2020-12-20T10:05:31.834000+00:00</time>
      </trkpt>
      <trkpt lat="0" lon="0">
        <time>2020-12-20T10:05:31.844000+00:00</time>
      </trkpt>
      <trkpt lat="0" lon="0">
        <time>2020-12-20T10:05:31.850000+00:00</time>
      </trkpt>
      <trkpt lat="0" lon="0">
        <time>2020-12-20T10:05:31.855000+00:00</time>
      </trkpt>
      <trkpt lat="47.33914" lon="-1.31926">
        <ele>131</ele>
        <time>2020-12-20T10:05:32.778000+00:00</time>
      </trkpt>
      <trkpt lat="0" lon="0">
        <time>2020-12-20T10:05:32.789000+00:00</time>
      </trkpt>
      <trkpt lat="0" lon="0">
        <time>2020-12-20T10:05:32.795000+00:00</time>
      </trkpt>
      <trkpt lat="0" lon="0">
        <time>2020-12-20T10:05:32.798000+00:00</time>
      </trkpt>
      <trkpt lat="47.33912" lon="-1.3193">
        <ele>131</ele>
        <time>2020-12-20T10:05:33.774000+00:00</time>
      </trkpt>
      <trkpt lat="0" lon="0">
        <time>2020-12-20T10:05:33.784000+00:00</time>
      </trkpt>
      <trkpt lat="0" lon="0">
        <time>2020-12-20T10:05:33.788000+00:00</time>
      </trkpt>
      <trkpt lat="0" lon="0">
        <time>2020-12-20T10:05:33.792000+00:00</time>
      </trkpt>
      <trkpt lat="47.3391" lon="-1.31934">
        <ele>131</ele>
        <time>2020-12-20T10:05:34.775000+00:00</time>
      </trkpt>
      <trkpt lat="0" lon="0">
        <time>2020-12-20T10:05:34.779000+00:00</time>
      </trkpt>
      <trkpt lat="0" lon="0">
        <time>2020-12-20T10:05:34.787000+00:00</time>
      </trkpt>
      <trkpt lat="0" lon="0">
        <time>2020-12-20T10:05:34.790000+00:00</time>
      </trkpt>
      <trkpt lat="47.33909" lon="-1.31937">
        <ele>131</ele>
        <time>2020-12-20T10:05:35.794000+00:00</time>
      </trkpt>
      <trkpt lat="0" lon="0">
        <time>2020-12-20T10:05:35.807000+00:00</time>
      </trkpt>
      <trkpt lat="0" lon="0">
        <time>2020-12-20T10:05:35.809000+00:00</time>
      </trkpt>
      <trkpt lat="0" lon="0">
        <time>2020-12-20T10:05:35.810000+00:00</time>
      </trkpt>
      <trkpt lat="47.33907" lon="-1.31941">
        <ele>131</ele>
        <time>2020-12-20T10:05:36.874000+00:00</time>
      </trkpt>
      <trkpt lat="0" lon="0">
        <time>2020-12-20T10:05:36.876000+00:00</time>
      </trkpt>
      <trkpt lat="0" lon="0">
        <time>2020-12-20T10:05:36.878000+00:00</time>
      </trkpt>
      <trkpt lat="0" lon="0">
        <time>2020-12-20T10:05:36.879000+00:00</time>
      </trkpt>
      <trkpt lat="47.33905" lon="-1.31945">
        <ele>131</ele>
        <time>2020-12-20T10:05:37.805000+00:00</time>
      </trkpt>
      <trkpt lat="0" lon="0">
        <time>2020-12-20T10:05:37.811000+00:00</time>
      </trkpt>
      <trkpt lat="0" lon="0">
        <time>2020-12-20T10:05:37.822000+00:00</time>
      </trkpt>
      <trkpt lat="0" lon="0">
        <time>2020-12-20T10:05:37.825000+00:00</time>
      </trkpt>
      <trkpt lat="47.33903" lon="-1.31949">
        <ele>131</ele>
        <time>2020-12-20T10:05:38.819000+00:00</time>
      </trkpt>
      <trkpt lat="0" lon="0">
        <time>2020-12-20T10:05:38.830000+00:00</time>
      </trkpt>
      <trkpt lat="0" lon="0">
        <time>2020-12-20T10:05:38.835000+00:00</time>
      </trkpt>
      <trkpt lat="0" lon="0">
        <time>2020-12-20T10:05:38.840000+00:00</time>
      </trkpt>
      <trkpt lat="47.33902" lon="-1.31952">
        <ele>131</ele>
        <time>2020-12-20T10:05:39.845000+00:00</time>
      </trkpt>
      <trkpt lat="0" lon="0">
        <time>2020-12-20T10:05:39.851000+00:00</time>
      </trkpt>
      <trkpt lat="0" lon="0">
        <time>2020-12-20T10:05:39.856000+00:00</time>
      </trkpt>
      <trkpt lat="0" lon="0">
        <time>2020-12-20T10:05:39.858000+00:00</time>
      </trkpt>
      <trkpt lat="47.339" lon="-1.31956">
        <ele>131</ele>
        <time>2020-12-20T10:05:40.804000+00:00</time>
      </trkpt>
      <trkpt lat="0" lon="0">
        <time>2020-12-20T10:05:40.811000+00:00</time>
      </trkpt>
      <trkpt lat="0" lon="0">
        <time>2020-12-20T10:05:40.821000+00:00</time>
      </trkpt>
      <trkpt lat="0" lon="0">
        <time>2020-12-20T10:05:40.824000+00:00</time>
      </trkpt>
      <trkpt lat="47.33898" lon="-1.3196">
        <ele>131</ele>
        <time>2020-12-20T10:05:41.829000+00:00</time>
      </trkpt>
      <trkpt lat="0" lon="0">
        <time>2020-12-20T10:05:41.844000+00:00</time>
      </trkpt>
      <trkpt lat="0" lon="0">
        <time>2020-12-20T10:05:41.853000+00:00</time>
      </trkpt>
      <trkpt lat="0" lon="0">
        <time>2020-12-20T10:05:41.856000+00:00</time>
      </trkpt>
      <trkpt lat="47.33896" lon="-1.31963">
        <ele>131</ele>
        <time>2020-12-20T10:05:42.771000+00:00</time>
      </trkpt>
      <trkpt lat="0" lon="0">
        <time>2020-12-20T10:05:42.782000+00:00</time>
      </trkpt>
      <trkpt lat="0" lon="0">
        <time>2020-12-20T10:05:42.793000+00:00</time>
      </trkpt>
      <trkpt lat="0" lon="0">
        <time>2020-12-20T10:05:42.799000+00:00</time>
      </trkpt>
      <trkpt lat="47.33895" lon="-1.31966">
        <ele>132</ele>
        <time>2020-12-20T10:05:43.826000+00:00</time>
      </trkpt>
      <trkpt lat="0" lon="0">
        <time>2020-12-20T10:05:43.839000+00:00</time>
      </trkpt>
      <trkpt lat="0" lon="0">
        <time>2020-12-20T10:05:43.841000+00:00</time>
      </trkpt>
      <trkpt lat="0" lon="0">
        <time>2020-12-20T10:05:43.842000+00:00</time>
      </trkpt>
      <trkpt lat="47.33893" lon="-1.31969">
        <ele>132</ele>
        <time>2020-12-20T10:05:44.810000+00:00</time>
      </trkpt>
      <trkpt lat="0" lon="0">
        <time>2020-12-20T10:05:44.820000+00:00</time>
      </trkpt>
      <trkpt lat="0" lon="0">
        <time>2020-12-20T10:05:44.825000+00:00</time>
      </trkpt>
      <trkpt lat="0" lon="0">
        <time>2020-12-20T10:05:44.827000+00:00</time>
      </trkpt>
      <trkpt lat="47.33892" lon="-1.31972">
        <ele>132</ele>
        <time>2020-12-20T10:05:45.861000+00:00</time>
      </trkpt>
      <trkpt lat="0" lon="0">
        <time>2020-12-20T10:05:45.877000+00:00</time>
      </trkpt>
      <trkpt lat="0" lon="0">
        <time>2020-12-20T10:05:45.882000+00:00</time>
      </trkpt>
      <trkpt lat="0" lon="0">
        <time>2020-12-20T10:05:45.884000+00:00</time>
      </trkpt>
      <trkpt lat="47.33891" lon="-1.31974">
        <ele>132</ele>
        <time>2020-12-20T10:05:46.844000+00:00</time>
      </trkpt>
      <trkpt lat="0" lon="0">
        <time>2020-12-20T10:05:46.855000+00:00</time>
      </trkpt>
      <trkpt lat="0" lon="0">
        <time>2020-12-20T10:05:46.861000+00:00</time>
      </trkpt>
      <trkpt lat="0" lon="0">
        <time>2020-12-20T10:05:46.864000+00:00</time>
      </trkpt>
      <trkpt lat="47.3389" lon="-1.31976">
        <ele>132</ele>
        <time>2020-12-20T10:05:47.875000+00:00</time>
      </trkpt>
      <trkpt lat="0" lon="0">
        <time>2020-12-20T10:05:47.885000+00:00</time>
      </trkpt>
      <trkpt lat="0" lon="0">
        <time>2020-12-20T10:05:47.891000+00:00</time>
      </trkpt>
      <trkpt lat="0" lon="0">
        <time>2020-12-20T10:05:47.894000+00:00</time>
      </trkpt>
      <trkpt lat="47.33889" lon="-1.31977">
        <ele>132</ele>
        <time>2020-12-20T10:05:48.806000+00:00</time>
      </trkpt>
      <trkpt lat="0" lon="0">
        <time>2020-12-20T10:05:48.822000+00:00</time>
      </trkpt>
      <trkpt lat="0" lon="0">
        <time>2020-12-20T10:05:48.827000+00:00</time>
      </trkpt>
      <trkpt lat="0" lon="0">
        <time>2020-12-20T10:05:48.830000+00:00</time>
      </trkpt>
      <trkpt lat="47.33889" lon="-1.31978">
        <ele>132</ele>
        <time>2020-12-20T10:05:49.876000+00:00</time>
      </trkpt>
      <trkpt lat="0" lon="0">
        <time>2020-12-20T10:05:49.890000+00:00</time>
      </trkpt>
      <trkpt lat="0" lon="0">
        <time>2020-12-20T10:05:49.895000+00:00</time>
      </trkpt>
      <trkpt lat="0" lon="0">
        <time>2020-12-20T10:05:49.898000+00:00</time>
      </trkpt>
      <trkpt lat="47.33888" lon="-1.31979">
        <ele>131</ele>
        <time>2020-12-20T10:05:50.836000+00:00</time>
      </trkpt>
      <trkpt lat="0" lon="0">
        <time>2020-12-20T10:05:50.857000+00:00</time>
      </trkpt>
      <trkpt lat="0" lon="0">
        <time>2020-12-20T10:05:50.862000+00:00</time>
      </trkpt>
      <trkpt lat="0" lon="0">
        <time>2020-12-20T10:05:50.864000+00:00</time>
      </trkpt>
      <trkpt lat="47.33888" lon="-1.3198">
        <ele>131</ele>
        <time>2020-12-20T10:05:51.818000+00:00</time>
      </trkpt>
      <trkpt lat="0" lon="0">
        <time>2020-12-20T10:05:51.832000+00:00</time>
      </trkpt>
      <trkpt lat="0" lon="0">
        <time>2020-12-20T10:05:51.841000+00:00</time>
      </trkpt>
      <trkpt lat="0" lon="0">
        <time>2020-12-20T10:05:51.843000+00:00</time>
      </trkpt>
      <trkpt lat="47.33888" lon="-1.31982">
        <ele>132</ele>
        <time>2020-12-20T10:05:52.761000+00:00</time>
      </trkpt>
      <trkpt lat="0" lon="0">
        <time>2020-12-20T10:05:52.768000+00:00</time>
      </trkpt>
      <trkpt lat="0" lon="0">
        <time>2020-12-20T10:05:52.780000+00:00</time>
      </trkpt>
      <trkpt lat="0" lon="0">
        <time>2020-12-20T10:05:52.783000+00:00</time>
      </trkpt>
      <trkpt lat="47.33887" lon="-1.31984">
        <ele>132</ele>
        <time>2020-12-20T10:05:53.843000+00:00</time>
      </trkpt>
      <trkpt lat="0" lon="0">
        <time>2020-12-20T10:05:53.845000+00:00</time>
      </trkpt>
      <trkpt lat="0" lon="0">
        <time>2020-12-20T10:05:53.847000+00:00</time>
      </trkpt>
      <trkpt lat="47.33887" lon="-1.31986">
        <ele>133</ele>
        <time>2020-12-20T10:05:54.770000+00:00</time>
      </trkpt>
      <trkpt lat="0" lon="0">
        <time>2020-12-20T10:05:54.775000+00:00</time>
      </trkpt>
      <trkpt lat="0" lon="0">
        <time>2020-12-20T10:05:54.780000+00:00</time>
      </trkpt>
      <trkpt lat="0" lon="0">
        <time>2020-12-20T10:05:54.787000+00:00</time>
      </trkpt>
      <trkpt lat="47.33887" lon="-1.31988">
        <ele>133</ele>
        <time>2020-12-20T10:05:55.779000+00:00</time>
      </trkpt>
      <trkpt lat="0" lon="0">
        <time>2020-12-20T10:05:55.790000+00:00</time>
      </trkpt>
      <trkpt lat="0" lon="0">
        <time>2020-12-20T10:05:55.795000+00:00</time>
      </trkpt>
      <trkpt lat="0" lon="0">
        <time>2020-12-20T10:05:55.798000+00:00</time>
      </trkpt>
      <trkpt lat="47.33886" lon="-1.31989">
        <ele>133</ele>
        <time>2020-12-20T10:05:56.824000+00:00</time>
      </trkpt>
      <trkpt lat="0" lon="0">
        <time>2020-12-20T10:05:56.842000+00:00</time>
      </trkpt>
      <trkpt lat="0" lon="0">
        <time>2020-12-20T10:05:56.847000+00:00</time>
      </trkpt>
      <trkpt lat="0" lon="0">
        <time>2020-12-20T10:05:56.850000+00:00</time>
      </trkpt>
      <trkpt lat="47.33886" lon="-1.31991">
        <ele>132</ele>
        <time>2020-12-20T10:05:57.771000+00:00</time>
      </trkpt>
      <trkpt lat="0" lon="0">
        <time>2020-12-20T10:05:57.783000+00:00</time>
      </trkpt>
      <trkpt lat="0" lon="0">
        <time>2020-12-20T10:05:57.788000+00:00</time>
      </trkpt>
      <trkpt lat="0" lon="0">
        <time>2020-12-20T10:05:57.792000+00:00</time>
      </trkpt>
      <trkpt lat="47.33886" lon="-1.31994">
        <ele>132</ele>
        <time>2020-12-20T10:05:58.799000+00:00</time>
      </trkpt>
      <trkpt lat="0" lon="0">
        <time>2020-12-20T10:05:58.807000+00:00</time>
      </trkpt>
      <trkpt lat="0" lon="0">
        <time>2020-12-20T10:05:58.812000+00:00</time>
      </trkpt>
      <trkpt lat="0" lon="0">
        <time>2020-12-20T10:05:58.817000+00:00</time>
      </trkpt>
      <trkpt lat="47.33887" lon="-1.31996">
        <ele>132</ele>
        <time>2020-12-20T10:05:59.807000+00:00</time>
      </trkpt>
      <trkpt lat="0" lon="0">
        <time>2020-12-20T10:05:59.814000+00:00</time>
      </trkpt>
      <trkpt lat="0" lon="0">
        <time>2020-12-20T10:05:59.821000+00:00</time>
      </trkpt>
      <trkpt lat="0" lon="0">
        <time>2020-12-20T10:05:59.826000+00:00</time>
      </trkpt>
      <trkpt lat="47.33887" lon="-1.31999">
        <ele>132</ele>
        <time>2020-12-20T10:06:00.789000+00:00</time>
      </trkpt>
      <trkpt lat="0" lon="0">
        <time>2020-12-20T10:06:00.801000+00:00</time>
      </trkpt>
      <trkpt lat="0" lon="0">
        <time>2020-12-20T10:06:00.808000+00:00</time>
      </trkpt>
      <trkpt lat="0" lon="0">
        <time>2020-12-20T10:06:00.812000+00:00</time>
      </trkpt>
      <trkpt lat="47.33887" lon="-1.32002">
        <ele>132</ele>
        <time>2020-12-20T10:06:01.815000+00:00</time>
      </trkpt>
      <trkpt lat="0" lon="0">
        <time>2020-12-20T10:06:01.830000+00:00</time>
      </trkpt>
      <trkpt lat="0" lon="0">
        <time>2020-12-20T10:06:01.835000+00:00</time>
      </trkpt>
      <trkpt lat="0" lon="0">
        <time>2020-12-20T10:06:01.838000+00:00</time>
      </trkpt>
      <trkpt lat="47.33887" lon="-1.32004">
        <ele>132</ele>
        <time>2020-12-20T10:06:02.832000+00:00</time>
      </trkpt>
      <trkpt lat="0" lon="0">
        <time>2020-12-20T10:06:02.845000+00:00</time>
      </trkpt>
      <trkpt lat="0" lon="0">
        <time>2020-12-20T10:06:02.855000+00:00</time>
      </trkpt>
      <trkpt lat="0" lon="0">
        <time>2020-12-20T10:06:02.858000+00:00</time>
      </trkpt>
      <trkpt lat="47.33888" lon="-1.32007">
        <ele>132</ele>
        <time>2020-12-20T10:06:03.811000+00:00</time>
      </trkpt>
      <trkpt lat="0" lon="0">
        <time>2020-12-20T10:06:03.816000+00:00</time>
      </trkpt>
      <trkpt lat="0" lon="0">
        <time>2020-12-20T10:06:03.821000+00:00</time>
      </trkpt>
      <trkpt lat="0" lon="0">
        <time>2020-12-20T10:06:03.824000+00:00</time>
      </trkpt>
      <trkpt lat="47.33888" lon="-1.32009">
        <ele>132</ele>
        <time>2020-12-20T10:06:04.781000+00:00</time>
      </trkpt>
      <trkpt lat="0" lon="0">
        <time>2020-12-20T10:06:04.788000+00:00</time>
      </trkpt>
      <trkpt lat="0" lon="0">
        <time>2020-12-20T10:06:04.793000+00:00</time>
      </trkpt>
      <trkpt lat="0" lon="0">
        <time>2020-12-20T10:06:04.795000+00:00</time>
      </trkpt>
      <trkpt lat="47.33888" lon="-1.32011">
        <ele>132</ele>
        <time>2020-12-20T10:06:05.828000+00:00</time>
      </trkpt>
      <trkpt lat="0" lon="0">
        <time>2020-12-20T10:06:05.841000+00:00</time>
      </trkpt>
      <trkpt lat="0" lon="0">
        <time>2020-12-20T10:06:05.848000+00:00</time>
      </trkpt>
      <trkpt lat="0" lon="0">
        <time>2020-12-20T10:06:05.849000+00:00</time>
      </trkpt>
      <trkpt lat="47.33889" lon="-1.32016">
        <ele>131</ele>
        <time>2020-12-20T10:06:07.841000+00:00</time>
      </trkpt>
      <trkpt lat="0" lon="0">
        <time>2020-12-20T10:06:07.854000+00:00</time>
      </trkpt>
      <trkpt lat="0" lon="0">
        <time>2020-12-20T10:06:07.861000+00:00</time>
      </trkpt>
      <trkpt lat="0" lon="0">
        <time>2020-12-20T10:06:07.864000+00:00</time>
      </trkpt>
      <trkpt lat="47.3389" lon="-1.32018">
        <ele>131</ele>
        <time>2020-12-20T10:06:08.804000+00:00</time>
      </trkpt>
      <trkpt lat="0" lon="0">
        <time>2020-12-20T10:06:08.817000+00:00</time>
      </trkpt>
      <trkpt lat="0" lon="0">
        <time>2020-12-20T10:06:08.828000+00:00</time>
      </trkpt>
      <trkpt lat="0" lon="0">
        <time>2020-12-20T10:06:08.833000+00:00</time>
      </trkpt>
      <trkpt lat="47.3389" lon="-1.3202">
        <ele>131</ele>
        <time>2020-12-20T10:06:09.800000+00:00</time>
      </trkpt>
      <trkpt lat="0" lon="0">
        <time>2020-12-20T10:06:09.806000+00:00</time>
      </trkpt>
      <trkpt lat="0" lon="0">
        <time>2020-12-20T10:06:09.811000+00:00</time>
      </trkpt>
      <trkpt lat="0" lon="0">
        <time>2020-12-20T10:06:09.814000+00:00</time>
      </trkpt>
      <trkpt lat="47.33891" lon="-1.32022">
        <ele>131</ele>
        <time>2020-12-20T10:06:10.834000+00:00</time>
      </trkpt>
      <trkpt lat="0" lon="0">
        <time>2020-12-20T10:06:10.843000+00:00</time>
      </trkpt>
      <trkpt lat="0" lon="0">
        <time>2020-12-20T10:06:10.849000+00:00</time>
      </trkpt>
      <trkpt lat="0" lon="0">
        <time>2020-12-20T10:06:10.851000+00:00</time>
      </trkpt>
      <trkpt lat="47.33892" lon="-1.32024">
        <ele>131</ele>
        <time>2020-12-20T10:06:11.780000+00:00</time>
      </trkpt>
      <trkpt lat="0" lon="0">
        <time>2020-12-20T10:06:11.797000+00:00</time>
      </trkpt>
      <trkpt lat="0" lon="0">
        <time>2020-12-20T10:06:11.807000+00:00</time>
      </trkpt>
      <trkpt lat="0" lon="0">
        <time>2020-12-20T10:06:11.809000+00:00</time>
      </trkpt>
      <trkpt lat="47.33892" lon="-1.32026">
        <ele>131</ele>
        <time>2020-12-20T10:06:12.832000+00:00</time>
      </trkpt>
      <trkpt lat="0" lon="0">
        <time>2020-12-20T10:06:12.850000+00:00</time>
      </trkpt>
      <trkpt lat="0" lon="0">
        <time>2020-12-20T10:06:12.854000+00:00</time>
      </trkpt>
      <trkpt lat="0" lon="0">
        <time>2020-12-20T10:06:12.856000+00:00</time>
      </trkpt>
      <trkpt lat="47.33893" lon="-1.32029">
        <ele>132</ele>
        <time>2020-12-20T10:06:13.834000+00:00</time>
      </trkpt>
      <trkpt lat="0" lon="0">
        <time>2020-12-20T10:06:13.846000+00:00</time>
      </trkpt>
      <trkpt lat="0" lon="0">
        <time>2020-12-20T10:06:13.855000+00:00</time>
      </trkpt>
      <trkpt lat="0" lon="0">
        <time>2020-12-20T10:06:13.858000+00:00</time>
      </trkpt>
      <trkpt lat="47.33894" lon="-1.32032">
        <ele>133</ele>
        <time>2020-12-20T10:06:14.806000+00:00</time>
      </trkpt>
      <trkpt lat="0" lon="0">
        <time>2020-12-20T10:06:14.814000+00:00</time>
      </trkpt>
      <trkpt lat="0" lon="0">
        <time>2020-12-20T10:06:14.826000+00:00</time>
      </trkpt>
      <trkpt lat="0" lon="0">
        <time>2020-12-20T10:06:14.833000+00:00</time>
      </trkpt>
      <trkpt lat="47.33895" lon="-1.32035">
        <ele>132</ele>
        <time>2020-12-20T10:06:15.812000+00:00</time>
      </trkpt>
      <trkpt lat="0" lon="0">
        <time>2020-12-20T10:06:15.817000+00:00</time>
      </trkpt>
      <trkpt lat="0" lon="0">
        <time>2020-12-20T10:06:15.821000+00:00</time>
      </trkpt>
      <trkpt lat="0" lon="0">
        <time>2020-12-20T10:06:15.824000+00:00</time>
      </trkpt>
      <trkpt lat="47.33897" lon="-1.32039">
        <ele>133</ele>
        <time>2020-12-20T10:06:16.810000+00:00</time>
      </trkpt>
      <trkpt lat="0" lon="0">
        <time>2020-12-20T10:06:16.812000+00:00</time>
      </trkpt>
      <trkpt lat="0" lon="0">
        <time>2020-12-20T10:06:16.815000+00:00</time>
      </trkpt>
      <trkpt lat="0" lon="0">
        <time>2020-12-20T10:06:16.816000+00:00</time>
      </trkpt>
      <trkpt lat="47.33898" lon="-1.32042">
        <ele>133</ele>
        <time>2020-12-20T10:06:17.880000+00:00</time>
      </trkpt>
      <trkpt lat="0" lon="0">
        <time>2020-12-20T10:06:17.896000+00:00</time>
      </trkpt>
      <trkpt lat="0" lon="0">
        <time>2020-12-20T10:06:17.903000+00:00</time>
      </trkpt>
      <trkpt lat="0" lon="0">
        <time>2020-12-20T10:06:17.910000+00:00</time>
      </trkpt>
      <trkpt lat="47.33899" lon="-1.32046">
        <ele>133</ele>
        <time>2020-12-20T10:06:18.843000+00:00</time>
      </trkpt>
      <trkpt lat="0" lon="0">
        <time>2020-12-20T10:06:18.854000+00:00</time>
      </trkpt>
      <trkpt lat="0" lon="0">
        <time>2020-12-20T10:06:18.860000+00:00</time>
      </trkpt>
      <trkpt lat="0" lon="0">
        <time>2020-12-20T10:06:18.864000+00:00</time>
      </trkpt>
      <trkpt lat="47.33901" lon="-1.3205">
        <ele>132</ele>
        <time>2020-12-20T10:06:19.834000+00:00</time>
      </trkpt>
      <trkpt lat="0" lon="0">
        <time>2020-12-20T10:06:19.841000+00:00</time>
      </trkpt>
      <trkpt lat="0" lon="0">
        <time>2020-12-20T10:06:19.849000+00:00</time>
      </trkpt>
      <trkpt lat="0" lon="0">
        <time>2020-12-20T10:06:19.858000+00:00</time>
      </trkpt>
      <trkpt lat="47.33902" lon="-1.32054">
        <ele>132</ele>
        <time>2020-12-20T10:06:20.818000+00:00</time>
      </trkpt>
      <trkpt lat="0" lon="0">
        <time>2020-12-20T10:06:20.825000+00:00</time>
      </trkpt>
      <trkpt lat="0" lon="0">
        <time>2020-12-20T10:06:20.831000+00:00</time>
      </trkpt>
      <trkpt lat="0" lon="0">
        <time>2020-12-20T10:06:20.836000+00:00</time>
      </trkpt>
      <trkpt lat="47.33904" lon="-1.32059">
        <ele>132</ele>
        <time>2020-12-20T10:06:21.836000+00:00</time>
      </trkpt>
      <trkpt lat="0" lon="0">
        <time>2020-12-20T10:06:21.840000+00:00</time>
      </trkpt>
      <trkpt lat="0" lon="0">
        <time>2020-12-20T10:06:21.854000+00:00</time>
      </trkpt>
      <trkpt lat="0" lon="0">
        <time>2020-12-20T10:06:21.856000+00:00</time>
      </trkpt>
      <trkpt lat="47.33906" lon="-1.32063">
        <ele>132</ele>
        <time>2020-12-20T10:06:22.818000+00:00</time>
      </trkpt>
      <trkpt lat="0" lon="0">
        <time>2020-12-20T10:06:22.830000+00:00</time>
      </trkpt>
      <trkpt lat="0" lon="0">
        <time>2020-12-20T10:06:22.832000+00:00</time>
      </trkpt>
      <trkpt lat="0" lon="0">
        <time>2020-12-20T10:06:22.834000+00:00</time>
      </trkpt>
      <trkpt lat="47.33907" lon="-1.32068">
        <ele>132</ele>
        <time>2020-12-20T10:06:23.807000+00:00</time>
      </trkpt>
      <trkpt lat="0" lon="0">
        <time>2020-12-20T10:06:23.811000+00:00</time>
      </trkpt>
      <trkpt lat="0" lon="0">
        <time>2020-12-20T10:06:23.816000+00:00</time>
      </trkpt>
      <trkpt lat="0" lon="0">
        <time>2020-12-20T10:06:23.819000+00:00</time>
      </trkpt>
      <trkpt lat="47.33909" lon="-1.32072">
        <ele>132</ele>
        <time>2020-12-20T10:06:24.831000+00:00</time>
      </trkpt>
      <trkpt lat="0" lon="0">
        <time>2020-12-20T10:06:24.858000+00:00</time>
      </trkpt>
      <trkpt lat="0" lon="0">
        <time>2020-12-20T10:06:24.862000+00:00</time>
      </trkpt>
      <trkpt lat="0" lon="0">
        <time>2020-12-20T10:06:24.864000+00:00</time>
      </trkpt>
      <trkpt lat="47.33911" lon="-1.32077">
        <ele>133</ele>
        <time>2020-12-20T10:06:25.793000+00:00</time>
      </trkpt>
      <trkpt lat="0" lon="0">
        <time>2020-12-20T10:06:25.808000+00:00</time>
      </trkpt>
      <trkpt lat="0" lon="0">
        <time>2020-12-20T10:06:25.815000+00:00</time>
      </trkpt>
      <trkpt lat="0" lon="0">
        <time>2020-12-20T10:06:25.821000+00:00</time>
      </trkpt>
      <trkpt lat="47.33913" lon="-1.32081">
        <ele>133</ele>
        <time>2020-12-20T10:06:26.838000+00:00</time>
      </trkpt>
      <trkpt lat="0" lon="0">
        <time>2020-12-20T10:06:26.846000+00:00</time>
      </trkpt>
      <trkpt lat="0" lon="0">
        <time>2020-12-20T10:06:26.853000+00:00</time>
      </trkpt>
      <trkpt lat="0" lon="0">
        <time>2020-12-20T10:06:26.857000+00:00</time>
      </trkpt>
      <trkpt lat="47.33915" lon="-1.32086">
        <ele>133</ele>
        <time>2020-12-20T10:06:27.798000+00:00</time>
      </trkpt>
      <trkpt lat="0" lon="0">
        <time>2020-12-20T10:06:27.799000+00:00</time>
      </trkpt>
      <trkpt lat="0" lon="0">
        <time>2020-12-20T10:06:27.803000+00:00</time>
      </trkpt>
      <trkpt lat="0" lon="0">
        <time>2020-12-20T10:06:27.804000+00:00</time>
      </trkpt>
      <trkpt lat="47.33917" lon="-1.32092">
        <ele>132</ele>
        <time>2020-12-20T10:06:28.771000+00:00</time>
      </trkpt>
      <trkpt lat="0" lon="0">
        <time>2020-12-20T10:06:28.788000+00:00</time>
      </trkpt>
      <trkpt lat="0" lon="0">
        <time>2020-12-20T10:06:28.792000+00:00</time>
      </trkpt>
      <trkpt lat="0" lon="0">
        <time>2020-12-20T10:06:28.798000+00:00</time>
      </trkpt>
      <trkpt lat="47.33919" lon="-1.32098">
        <ele>131</ele>
        <time>2020-12-20T10:06:29.820000+00:00</time>
      </trkpt>
      <trkpt lat="0" lon="0">
        <time>2020-12-20T10:06:29.829000+00:00</time>
      </trkpt>
      <trkpt lat="0" lon="0">
        <time>2020-12-20T10:06:29.831000+00:00</time>
      </trkpt>
      <trkpt lat="0" lon="0">
        <time>2020-12-20T10:06:29.832000+00:00</time>
      </trkpt>
      <trkpt lat="47.33921" lon="-1.32104">
        <ele>131</ele>
        <time>2020-12-20T10:06:30.827000+00:00</time>
      </trkpt>
      <trkpt lat="0" lon="0">
        <time>2020-12-20T10:06:30.846000+00:00</time>
      </trkpt>
      <trkpt lat="0" lon="0">
        <time>2020-12-20T10:06:30.851000+00:00</time>
      </trkpt>
      <trkpt lat="0" lon="0">
        <time>2020-12-20T10:06:30.855000+00:00</time>
      </trkpt>
      <trkpt lat="47.33924" lon="-1.3211">
        <ele>131</ele>
        <time>2020-12-20T10:06:31.844000+00:00</time>
      </trkpt>
      <trkpt lat="0" lon="0">
        <time>2020-12-20T10:06:31.859000+00:00</time>
      </trkpt>
      <trkpt lat="0" lon="0">
        <time>2020-12-20T10:06:31.870000+00:00</time>
      </trkpt>
      <trkpt lat="0" lon="0">
        <time>2020-12-20T10:06:31.875000+00:00</time>
      </trkpt>
      <trkpt lat="47.33926" lon="-1.32115">
        <ele>131</ele>
        <time>2020-12-20T10:06:32.769000+00:00</time>
      </trkpt>
      <trkpt lat="0" lon="0">
        <time>2020-12-20T10:06:32.785000+00:00</time>
      </trkpt>
      <trkpt lat="0" lon="0">
        <time>2020-12-20T10:06:32.793000+00:00</time>
      </trkpt>
      <trkpt lat="0" lon="0">
        <time>2020-12-20T10:06:32.806000+00:00</time>
      </trkpt>
      <trkpt lat="47.33929" lon="-1.32121">
        <ele>130</ele>
        <time>2020-12-20T10:06:33.821000+00:00</time>
      </trkpt>
      <trkpt lat="0" lon="0">
        <time>2020-12-20T10:06:33.826000+00:00</time>
      </trkpt>
      <trkpt lat="0" lon="0">
        <time>2020-12-20T10:06:33.840000+00:00</time>
      </trkpt>
      <trkpt lat="0" lon="0">
        <time>2020-12-20T10:06:33.845000+00:00</time>
      </trkpt>
      <trkpt lat="47.33931" lon="-1.32126">
        <ele>130</ele>
        <time>2020-12-20T10:06:34.776000+00:00</time>
      </trkpt>
      <trkpt lat="0" lon="0">
        <time>2020-12-20T10:06:34.788000+00:00</time>
      </trkpt>
      <trkpt lat="0" lon="0">
        <time>2020-12-20T10:06:34.798000+00:00</time>
      </trkpt>
      <trkpt lat="0" lon="0">
        <time>2020-12-20T10:06:34.799000+00:00</time>
      </trkpt>
      <trkpt lat="47.33934" lon="-1.32131">
        <ele>131</ele>
        <time>2020-12-20T10:06:35.841000+00:00</time>
      </trkpt>
      <trkpt lat="0" lon="0">
        <time>2020-12-20T10:06:35.849000+00:00</time>
      </trkpt>
      <trkpt lat="0" lon="0">
        <time>2020-12-20T10:06:35.860000+00:00</time>
      </trkpt>
      <trkpt lat="0" lon="0">
        <time>2020-12-20T10:06:35.863000+00:00</time>
      </trkpt>
      <trkpt lat="47.33937" lon="-1.32136">
        <ele>131</ele>
        <time>2020-12-20T10:06:36.808000+00:00</time>
      </trkpt>
      <trkpt lat="0" lon="0">
        <time>2020-12-20T10:06:36.820000+00:00</time>
      </trkpt>
      <trkpt lat="0" lon="0">
        <time>2020-12-20T10:06:36.831000+00:00</time>
      </trkpt>
      <trkpt lat="0" lon="0">
        <time>2020-12-20T10:06:36.834000+00:00</time>
      </trkpt>
      <trkpt lat="47.3394" lon="-1.32141">
        <ele>130</ele>
        <time>2020-12-20T10:06:37.819000+00:00</time>
      </trkpt>
      <trkpt lat="0" lon="0">
        <time>2020-12-20T10:06:37.833000+00:00</time>
      </trkpt>
      <trkpt lat="0" lon="0">
        <time>2020-12-20T10:06:37.837000+00:00</time>
      </trkpt>
      <trkpt lat="0" lon="0">
        <time>2020-12-20T10:06:37.839000+00:00</time>
      </trkpt>
      <trkpt lat="47.33944" lon="-1.32146">
        <ele>130</ele>
        <time>2020-12-20T10:06:38.816000+00:00</time>
      </trkpt>
      <trkpt lat="0" lon="0">
        <time>2020-12-20T10:06:38.823000+00:00</time>
      </trkpt>
      <trkpt lat="0" lon="0">
        <time>2020-12-20T10:06:38.833000+00:00</time>
      </trkpt>
      <trkpt lat="0" lon="0">
        <time>2020-12-20T10:06:38.838000+00:00</time>
      </trkpt>
      <trkpt lat="47.33947" lon="-1.32151">
        <ele>130</ele>
        <time>2020-12-20T10:06:39.802000+00:00</time>
      </trkpt>
      <trkpt lat="0" lon="0">
        <time>2020-12-20T10:06:39.811000+00:00</time>
      </trkpt>
      <trkpt lat="0" lon="0">
        <time>2020-12-20T10:06:39.817000+00:00</time>
      </trkpt>
      <trkpt lat="0" lon="0">
        <time>2020-12-20T10:06:39.823000+00:00</time>
      </trkpt>
      <trkpt lat="47.3395" lon="-1.32156">
        <ele>130</ele>
        <time>2020-12-20T10:06:40.814000+00:00</time>
      </trkpt>
      <trkpt lat="0" lon="0">
        <time>2020-12-20T10:06:40.829000+00:00</time>
      </trkpt>
      <trkpt lat="0" lon="0">
        <time>2020-12-20T10:06:40.835000+00:00</time>
      </trkpt>
      <trkpt lat="0" lon="0">
        <time>2020-12-20T10:06:40.839000+00:00</time>
      </trkpt>
      <trkpt lat="47.33953" lon="-1.32163">
        <ele>129</ele>
        <time>2020-12-20T10:06:41.770000+00:00</time>
      </trkpt>
      <trkpt lat="0" lon="0">
        <time>2020-12-20T10:06:41.788000+00:00</time>
      </trkpt>
      <trkpt lat="0" lon="0">
        <time>2020-12-20T10:06:41.793000+00:00</time>
      </trkpt>
      <trkpt lat="0" lon="0">
        <time>2020-12-20T10:06:41.796000+00:00</time>
      </trkpt>
      <trkpt lat="47.33956" lon="-1.3217">
        <ele>129</ele>
        <time>2020-12-20T10:06:42.776000+00:00</time>
      </trkpt>
      <trkpt lat="0" lon="0">
        <time>2020-12-20T10:06:42.789000+00:00</time>
      </trkpt>
      <trkpt lat="0" lon="0">
        <time>2020-12-20T10:06:42.793000+00:00</time>
      </trkpt>
      <trkpt lat="0" lon="0">
        <time>2020-12-20T10:06:42.795000+00:00</time>
      </trkpt>
      <trkpt lat="47.33959" lon="-1.32177">
        <ele>128</ele>
        <time>2020-12-20T10:06:43.766000+00:00</time>
      </trkpt>
      <trkpt lat="0" lon="0">
        <time>2020-12-20T10:06:43.777000+00:00</time>
      </trkpt>
      <trkpt lat="0" lon="0">
        <time>2020-12-20T10:06:43.780000+00:00</time>
      </trkpt>
      <trkpt lat="0" lon="0">
        <time>2020-12-20T10:06:43.783000+00:00</time>
      </trkpt>
      <trkpt lat="47.33961" lon="-1.32185">
        <ele>127</ele>
        <time>2020-12-20T10:06:44.788000+00:00</time>
      </trkpt>
      <trkpt lat="0" lon="0">
        <time>2020-12-20T10:06:44.800000+00:00</time>
      </trkpt>
      <trkpt lat="0" lon="0">
        <time>2020-12-20T10:06:44.809000+00:00</time>
      </trkpt>
      <trkpt lat="0" lon="0">
        <time>2020-12-20T10:06:44.811000+00:00</time>
      </trkpt>
      <trkpt lat="47.33964" lon="-1.32193">
        <ele>127</ele>
        <time>2020-12-20T10:06:45.791000+00:00</time>
      </trkpt>
      <trkpt lat="0" lon="0">
        <time>2020-12-20T10:06:45.804000+00:00</time>
      </trkpt>
      <trkpt lat="0" lon="0">
        <time>2020-12-20T10:06:45.806000+00:00</time>
      </trkpt>
      <trkpt lat="0" lon="0">
        <time>2020-12-20T10:06:45.807000+00:00</time>
      </trkpt>
      <trkpt lat="47.33967" lon="-1.322">
        <ele>126</ele>
        <time>2020-12-20T10:06:46.866000+00:00</time>
      </trkpt>
      <trkpt lat="0" lon="0">
        <time>2020-12-20T10:06:46.872000+00:00</time>
      </trkpt>
      <trkpt lat="0" lon="0">
        <time>2020-12-20T10:06:46.880000+00:00</time>
      </trkpt>
      <trkpt lat="0" lon="0">
        <time>2020-12-20T10:06:46.883000+00:00</time>
      </trkpt>
      <trkpt lat="47.3397" lon="-1.32208">
        <ele>126</ele>
        <time>2020-12-20T10:06:47.738000+00:00</time>
      </trkpt>
      <trkpt lat="0" lon="0">
        <time>2020-12-20T10:06:47.739000+00:00</time>
      </trkpt>
      <trkpt lat="0" lon="0">
        <time>2020-12-20T10:06:47.740000+00:00</time>
      </trkpt>
      <trkpt lat="0" lon="0">
        <time>2020-12-20T10:06:47.741000+00:00</time>
      </trkpt>
      <trkpt lat="47.33973" lon="-1.32215">
        <ele>125</ele>
        <time>2020-12-20T10:06:48.834000+00:00</time>
      </trkpt>
      <trkpt lat="0" lon="0">
        <time>2020-12-20T10:06:48.844000+00:00</time>
      </trkpt>
      <trkpt lat="0" lon="0">
        <time>2020-12-20T10:06:48.849000+00:00</time>
      </trkpt>
      <trkpt lat="0" lon="0">
        <time>2020-12-20T10:06:48.852000+00:00</time>
      </trkpt>
      <trkpt lat="47.33977" lon="-1.32222">
        <ele>125</ele>
        <time>2020-12-20T10:06:49.819000+00:00</time>
      </trkpt>
      <trkpt lat="0" lon="0">
        <time>2020-12-20T10:06:49.827000+00:00</time>
      </trkpt>
      <trkpt lat="0" lon="0">
        <time>2020-12-20T10:06:49.835000+00:00</time>
      </trkpt>
      <trkpt lat="0" lon="0">
        <time>2020-12-20T10:06:49.839000+00:00</time>
      </trkpt>
      <trkpt lat="47.3398" lon="-1.32228">
        <ele>125</ele>
        <time>2020-12-20T10:06:50.837000+00:00</time>
      </trkpt>
      <trkpt lat="0" lon="0">
        <time>2020-12-20T10:06:50.844000+00:00</time>
      </trkpt>
      <trkpt lat="0" lon="0">
        <time>2020-12-20T10:06:50.848000+00:00</time>
      </trkpt>
      <trkpt lat="0" lon="0">
        <time>2020-12-20T10:06:50.854000+00:00</time>
      </trkpt>
      <trkpt lat="47.33983" lon="-1.32234">
        <ele>124</ele>
        <time>2020-12-20T10:06:51.799000+00:00</time>
      </trkpt>
      <trkpt lat="0" lon="0">
        <time>2020-12-20T10:06:51.806000+00:00</time>
      </trkpt>
      <trkpt lat="0" lon="0">
        <time>2020-12-20T10:06:51.810000+00:00</time>
      </trkpt>
      <trkpt lat="0" lon="0">
        <time>2020-12-20T10:06:51.812000+00:00</time>
      </trkpt>
      <trkpt lat="47.33986" lon="-1.3224">
        <ele>124</ele>
        <time>2020-12-20T10:06:52.832000+00:00</time>
      </trkpt>
      <trkpt lat="0" lon="0">
        <time>2020-12-20T10:06:52.839000+00:00</time>
      </trkpt>
      <trkpt lat="0" lon="0">
        <time>2020-12-20T10:06:52.845000+00:00</time>
      </trkpt>
      <trkpt lat="0" lon="0">
        <time>2020-12-20T10:06:52.848000+00:00</time>
      </trkpt>
      <trkpt lat="47.33989" lon="-1.32245">
        <ele>124</ele>
        <time>2020-12-20T10:06:53.813000+00:00</time>
      </trkpt>
      <trkpt lat="0" lon="0">
        <time>2020-12-20T10:06:53.820000+00:00</time>
      </trkpt>
      <trkpt lat="0" lon="0">
        <time>2020-12-20T10:06:53.830000+00:00</time>
      </trkpt>
      <trkpt lat="0" lon="0">
        <time>2020-12-20T10:06:53.835000+00:00</time>
      </trkpt>
      <trkpt lat="47.33992" lon="-1.3225">
        <ele>124</ele>
        <time>2020-12-20T10:06:54.814000+00:00</time>
      </trkpt>
      <trkpt lat="0" lon="0">
        <time>2020-12-20T10:06:54.821000+00:00</time>
      </trkpt>
      <trkpt lat="0" lon="0">
        <time>2020-12-20T10:06:54.825000+00:00</time>
      </trkpt>
      <trkpt lat="0" lon="0">
        <time>2020-12-20T10:06:54.828000+00:00</time>
      </trkpt>
      <trkpt lat="47.33995" lon="-1.32255">
        <ele>124</ele>
        <time>2020-12-20T10:06:55.799000+00:00</time>
      </trkpt>
      <trkpt lat="0" lon="0">
        <time>2020-12-20T10:06:55.809000+00:00</time>
      </trkpt>
      <trkpt lat="0" lon="0">
        <time>2020-12-20T10:06:55.816000+00:00</time>
      </trkpt>
      <trkpt lat="0" lon="0">
        <time>2020-12-20T10:06:55.817000+00:00</time>
      </trkpt>
      <trkpt lat="47.33997" lon="-1.3226">
        <ele>124</ele>
        <time>2020-12-20T10:06:56.803000+00:00</time>
      </trkpt>
      <trkpt lat="0" lon="0">
        <time>2020-12-20T10:06:56.815000+00:00</time>
      </trkpt>
      <trkpt lat="0" lon="0">
        <time>2020-12-20T10:06:56.826000+00:00</time>
      </trkpt>
      <trkpt lat="0" lon="0">
        <time>2020-12-20T10:06:56.829000+00:00</time>
      </trkpt>
      <trkpt lat="47.34" lon="-1.32264">
        <ele>123</ele>
        <time>2020-12-20T10:06:57.823000+00:00</time>
      </trkpt>
      <trkpt lat="0" lon="0">
        <time>2020-12-20T10:06:57.827000+00:00</time>
      </trkpt>
      <trkpt lat="0" lon="0">
        <time>2020-12-20T10:06:57.829000+00:00</time>
      </trkpt>
      <trkpt lat="0" lon="0">
        <time>2020-12-20T10:06:57.831000+00:00</time>
      </trkpt>
      <trkpt lat="47.34004" lon="-1.32273">
        <ele>124</ele>
        <time>2020-12-20T10:06:59.697000+00:00</time>
      </trkpt>
      <trkpt lat="0" lon="0">
        <time>2020-12-20T10:06:59.712000+00:00</time>
      </trkpt>
      <trkpt lat="0" lon="0">
        <time>2020-12-20T10:06:59.718000+00:00</time>
      </trkpt>
      <trkpt lat="0" lon="0">
        <time>2020-12-20T10:06:59.719000+00:00</time>
      </trkpt>
      <trkpt lat="47.34006" lon="-1.32276">
        <ele>124</ele>
        <time>2020-12-20T10:07:00.744000+00:00</time>
      </trkpt>
      <trkpt lat="0" lon="0">
        <time>2020-12-20T10:07:00.769000+00:00</time>
      </trkpt>
      <trkpt lat="0" lon="0">
        <time>2020-12-20T10:07:00.780000+00:00</time>
      </trkpt>
      <trkpt lat="0" lon="0">
        <time>2020-12-20T10:07:00.787000+00:00</time>
      </trkpt>
      <trkpt lat="47.34007" lon="-1.32279">
        <ele>124</ele>
        <time>2020-12-20T10:07:01.705000+00:00</time>
      </trkpt>
      <trkpt lat="0" lon="0">
        <time>2020-12-20T10:07:01.721000+00:00</time>
      </trkpt>
      <trkpt lat="0" lon="0">
        <time>2020-12-20T10:07:01.725000+00:00</time>
      </trkpt>
      <trkpt lat="0" lon="0">
        <time>2020-12-20T10:07:01.727000+00:00</time>
      </trkpt>
      <trkpt lat="47.34009" lon="-1.32282">
        <ele>124</ele>
        <time>2020-12-20T10:07:02.748000+00:00</time>
      </trkpt>
      <trkpt lat="0" lon="0">
        <time>2020-12-20T10:07:02.755000+00:00</time>
      </trkpt>
      <trkpt lat="0" lon="0">
        <time>2020-12-20T10:07:02.765000+00:00</time>
      </trkpt>
      <trkpt lat="0" lon="0">
        <time>2020-12-20T10:07:02.770000+00:00</time>
      </trkpt>
      <trkpt lat="47.3401" lon="-1.32285">
        <ele>124</ele>
        <time>2020-12-20T10:07:03.755000+00:00</time>
      </trkpt>
      <trkpt lat="0" lon="0">
        <time>2020-12-20T10:07:03.784000+00:00</time>
      </trkpt>
      <trkpt lat="0" lon="0">
        <time>2020-12-20T10:07:03.790000+00:00</time>
      </trkpt>
      <trkpt lat="0" lon="0">
        <time>2020-12-20T10:07:03.796000+00:00</time>
      </trkpt>
      <trkpt lat="47.34011" lon="-1.32287">
        <ele>125</ele>
        <time>2020-12-20T10:07:04.755000+00:00</time>
      </trkpt>
      <trkpt lat="0" lon="0">
        <time>2020-12-20T10:07:04.759000+00:00</time>
      </trkpt>
      <trkpt lat="0" lon="0">
        <time>2020-12-20T10:07:04.767000+00:00</time>
      </trkpt>
      <trkpt lat="0" lon="0">
        <time>2020-12-20T10:07:04.771000+00:00</time>
      </trkpt>
      <trkpt lat="47.34012" lon="-1.3229">
        <ele>125</ele>
        <time>2020-12-20T10:07:05.770000+00:00</time>
      </trkpt>
      <trkpt lat="0" lon="0">
        <time>2020-12-20T10:07:05.774000+00:00</time>
      </trkpt>
      <trkpt lat="0" lon="0">
        <time>2020-12-20T10:07:05.786000+00:00</time>
      </trkpt>
      <trkpt lat="0" lon="0">
        <time>2020-12-20T10:07:05.789000+00:00</time>
      </trkpt>
      <trkpt lat="47.34012" lon="-1.32294">
        <ele>125</ele>
        <time>2020-12-20T10:07:06.863000+00:00</time>
      </trkpt>
      <trkpt lat="0" lon="0">
        <time>2020-12-20T10:07:06.869000+00:00</time>
      </trkpt>
      <trkpt lat="0" lon="0">
        <time>2020-12-20T10:07:06.874000+00:00</time>
      </trkpt>
      <trkpt lat="0" lon="0">
        <time>2020-12-20T10:07:06.877000+00:00</time>
      </trkpt>
      <trkpt lat="47.34013" lon="-1.32298">
        <ele>126</ele>
        <time>2020-12-20T10:07:07.739000+00:00</time>
      </trkpt>
      <trkpt lat="0" lon="0">
        <time>2020-12-20T10:07:07.749000+00:00</time>
      </trkpt>
      <trkpt lat="0" lon="0">
        <time>2020-12-20T10:07:07.755000+00:00</time>
      </trkpt>
      <trkpt lat="0" lon="0">
        <time>2020-12-20T10:07:07.758000+00:00</time>
      </trkpt>
      <trkpt lat="47.34014" lon="-1.32302">
        <ele>126</ele>
        <time>2020-12-20T10:07:08.772000+00:00</time>
      </trkpt>
      <trkpt lat="0" lon="0">
        <time>2020-12-20T10:07:08.775000+00:00</time>
      </trkpt>
      <trkpt lat="0" lon="0">
        <time>2020-12-20T10:07:08.778000+00:00</time>
      </trkpt>
      <trkpt lat="0" lon="0">
        <time>2020-12-20T10:07:08.779000+00:00</time>
      </trkpt>
      <trkpt lat="47.34014" lon="-1.32307">
        <ele>127</ele>
        <time>2020-12-20T10:07:09.794000+00:00</time>
      </trkpt>
      <trkpt lat="0" lon="0">
        <time>2020-12-20T10:07:09.808000+00:00</time>
      </trkpt>
      <trkpt lat="0" lon="0">
        <time>2020-12-20T10:07:09.815000+00:00</time>
      </trkpt>
      <trkpt lat="0" lon="0">
        <time>2020-12-20T10:07:09.816000+00:00</time>
      </trkpt>
      <trkpt lat="47.34014" lon="-1.32313">
        <ele>128</ele>
        <time>2020-12-20T10:07:10.791000+00:00</time>
      </trkpt>
      <trkpt lat="0" lon="0">
        <time>2020-12-20T10:07:10.799000+00:00</time>
      </trkpt>
      <trkpt lat="0" lon="0">
        <time>2020-12-20T10:07:10.804000+00:00</time>
      </trkpt>
      <trkpt lat="0" lon="0">
        <time>2020-12-20T10:07:10.807000+00:00</time>
      </trkpt>
      <trkpt lat="47.34013" lon="-1.32321">
        <ele>127</ele>
        <time>2020-12-20T10:07:11.809000+00:00</time>
      </trkpt>
      <trkpt lat="0" lon="0">
        <time>2020-12-20T10:07:11.825000+00:00</time>
      </trkpt>
      <trkpt lat="0" lon="0">
        <time>2020-12-20T10:07:11.832000+00:00</time>
      </trkpt>
      <trkpt lat="0" lon="0">
        <time>2020-12-20T10:07:11.835000+00:00</time>
      </trkpt>
      <trkpt lat="47.34013" lon="-1.3233">
        <ele>128</ele>
        <time>2020-12-20T10:07:12.808000+00:00</time>
      </trkpt>
      <trkpt lat="0" lon="0">
        <time>2020-12-20T10:07:12.823000+00:00</time>
      </trkpt>
      <trkpt lat="0" lon="0">
        <time>2020-12-20T10:07:12.829000+00:00</time>
      </trkpt>
      <trkpt lat="0" lon="0">
        <time>2020-12-20T10:07:12.831000+00:00</time>
      </trkpt>
      <trkpt lat="47.34013" lon="-1.32338">
        <ele>128</ele>
        <time>2020-12-20T10:07:13.862000+00:00</time>
      </trkpt>
      <trkpt lat="0" lon="0">
        <time>2020-12-20T10:07:13.875000+00:00</time>
      </trkpt>
      <trkpt lat="0" lon="0">
        <time>2020-12-20T10:07:13.886000+00:00</time>
      </trkpt>
      <trkpt lat="0" lon="0">
        <time>2020-12-20T10:07:13.890000+00:00</time>
      </trkpt>
      <trkpt lat="47.34013" lon="-1.32347">
        <ele>128</ele>
        <time>2020-12-20T10:07:14.855000+00:00</time>
      </trkpt>
      <trkpt lat="0" lon="0">
        <time>2020-12-20T10:07:14.857000+00:00</time>
      </trkpt>
      <trkpt lat="0" lon="0">
        <time>2020-12-20T10:07:14.859000+00:00</time>
      </trkpt>
      <trkpt lat="0" lon="0">
        <time>2020-12-20T10:07:14.860000+00:00</time>
      </trkpt>
      <trkpt lat="47.34015" lon="-1.32356">
        <ele>129</ele>
        <time>2020-12-20T10:07:15.794000+00:00</time>
      </trkpt>
      <trkpt lat="0" lon="0">
        <time>2020-12-20T10:07:15.809000+00:00</time>
      </trkpt>
      <trkpt lat="0" lon="0">
        <time>2020-12-20T10:07:15.814000+00:00</time>
      </trkpt>
      <trkpt lat="0" lon="0">
        <time>2020-12-20T10:07:15.816000+00:00</time>
      </trkpt>
      <trkpt lat="47.34017" lon="-1.32365">
        <ele>129</ele>
        <time>2020-12-20T10:07:16.762000+00:00</time>
      </trkpt>
      <trkpt lat="0" lon="0">
        <time>2020-12-20T10:07:16.775000+00:00</time>
      </trkpt>
      <trkpt lat="0" lon="0">
        <time>2020-12-20T10:07:16.782000+00:00</time>
      </trkpt>
      <trkpt lat="0" lon="0">
        <time>2020-12-20T10:07:16.787000+00:00</time>
      </trkpt>
      <trkpt lat="47.34019" lon="-1.32374">
        <ele>129</ele>
        <time>2020-12-20T10:07:17.684000+00:00</time>
      </trkpt>
      <trkpt lat="0" lon="0">
        <time>2020-12-20T10:07:17.690000+00:00</time>
      </trkpt>
      <trkpt lat="0" lon="0">
        <time>2020-12-20T10:07:17.691000+00:00</time>
      </trkpt>
      <trkpt lat="47.34022" lon="-1.32382">
        <ele>129</ele>
        <time>2020-12-20T10:07:18.800000+00:00</time>
      </trkpt>
      <trkpt lat="0" lon="0">
        <time>2020-12-20T10:07:18.812000+00:00</time>
      </trkpt>
      <trkpt lat="0" lon="0">
        <time>2020-12-20T10:07:18.816000+00:00</time>
      </trkpt>
      <trkpt lat="0" lon="0">
        <time>2020-12-20T10:07:18.819000+00:00</time>
      </trkpt>
      <trkpt lat="47.34026" lon="-1.3239">
        <ele>130</ele>
        <time>2020-12-20T10:07:19.741000+00:00</time>
      </trkpt>
      <trkpt lat="0" lon="0">
        <time>2020-12-20T10:07:19.748000+00:00</time>
      </trkpt>
      <trkpt lat="0" lon="0">
        <time>2020-12-20T10:07:19.752000+00:00</time>
      </trkpt>
      <trkpt lat="0" lon="0">
        <time>2020-12-20T10:07:19.754000+00:00</time>
      </trkpt>
      <trkpt lat="47.34029" lon="-1.32396">
        <ele>130</ele>
        <time>2020-12-20T10:07:20.799000+00:00</time>
      </trkpt>
      <trkpt lat="0" lon="0">
        <time>2020-12-20T10:07:20.801000+00:00</time>
      </trkpt>
      <trkpt lat="0" lon="0">
        <time>2020-12-20T10:07:20.804000+00:00</time>
      </trkpt>
      <trkpt lat="0" lon="0">
        <time>2020-12-20T10:07:20.805000+00:00</time>
      </trkpt>
      <trkpt lat="47.34032" lon="-1.32402">
        <ele>130</ele>
        <time>2020-12-20T10:07:21.815000+00:00</time>
      </trkpt>
      <trkpt lat="0" lon="0">
        <time>2020-12-20T10:07:21.829000+00:00</time>
      </trkpt>
      <trkpt lat="0" lon="0">
        <time>2020-12-20T10:07:21.836000+00:00</time>
      </trkpt>
      <trkpt lat="0" lon="0">
        <time>2020-12-20T10:07:21.838000+00:00</time>
      </trkpt>
      <trkpt lat="47.34035" lon="-1.32406">
        <ele>129</ele>
        <time>2020-12-20T10:07:22.821000+00:00</time>
      </trkpt>
      <trkpt lat="0" lon="0">
        <time>2020-12-20T10:07:22.842000+00:00</time>
      </trkpt>
      <trkpt lat="0" lon="0">
        <time>2020-12-20T10:07:22.850000+00:00</time>
      </trkpt>
      <trkpt lat="0" lon="0">
        <time>2020-12-20T10:07:22.852000+00:00</time>
      </trkpt>
      <trkpt lat="47.34039" lon="-1.3241">
        <ele>129</ele>
        <time>2020-12-20T10:07:23.856000+00:00</time>
      </trkpt>
      <trkpt lat="0" lon="0">
        <time>2020-12-20T10:07:23.860000+00:00</time>
      </trkpt>
      <trkpt lat="0" lon="0">
        <time>2020-12-20T10:07:23.865000+00:00</time>
      </trkpt>
      <trkpt lat="0" lon="0">
        <time>2020-12-20T10:07:23.868000+00:00</time>
      </trkpt>
      <trkpt lat="47.34043" lon="-1.32413">
        <ele>128</ele>
        <time>2020-12-20T10:07:24.849000+00:00</time>
      </trkpt>
      <trkpt lat="0" lon="0">
        <time>2020-12-20T10:07:24.855000+00:00</time>
      </trkpt>
      <trkpt lat="0" lon="0">
        <time>2020-12-20T10:07:24.861000+00:00</time>
      </trkpt>
      <trkpt lat="0" lon="0">
        <time>2020-12-20T10:07:24.864000+00:00</time>
      </trkpt>
      <trkpt lat="47.34046" lon="-1.32416">
        <ele>128</ele>
        <time>2020-12-20T10:07:25.779000+00:00</time>
      </trkpt>
      <trkpt lat="0" lon="0">
        <time>2020-12-20T10:07:25.792000+00:00</time>
      </trkpt>
      <trkpt lat="0" lon="0">
        <time>2020-12-20T10:07:25.799000+00:00</time>
      </trkpt>
      <trkpt lat="0" lon="0">
        <time>2020-12-20T10:07:25.801000+00:00</time>
      </trkpt>
      <trkpt lat="47.3405" lon="-1.32418">
        <ele>128</ele>
        <time>2020-12-20T10:07:26.812000+00:00</time>
      </trkpt>
      <trkpt lat="0" lon="0">
        <time>2020-12-20T10:07:26.824000+00:00</time>
      </trkpt>
      <trkpt lat="0" lon="0">
        <time>2020-12-20T10:07:26.827000+00:00</time>
      </trkpt>
      <trkpt lat="0" lon="0">
        <time>2020-12-20T10:07:26.829000+00:00</time>
      </trkpt>
      <trkpt lat="47.34054" lon="-1.32421">
        <ele>127</ele>
        <time>2020-12-20T10:07:27.802000+00:00</time>
      </trkpt>
      <trkpt lat="0" lon="0">
        <time>2020-12-20T10:07:27.826000+00:00</time>
      </trkpt>
      <trkpt lat="0" lon="0">
        <time>2020-12-20T10:07:27.835000+00:00</time>
      </trkpt>
      <trkpt lat="0" lon="0">
        <time>2020-12-20T10:07:27.839000+00:00</time>
      </trkpt>
      <trkpt lat="47.34057" lon="-1.32423">
        <ele>127</ele>
        <time>2020-12-20T10:07:28.778000+00:00</time>
      </trkpt>
      <trkpt lat="0" lon="0">
        <time>2020-12-20T10:07:28.784000+00:00</time>
      </trkpt>
      <trkpt lat="0" lon="0">
        <time>2020-12-20T10:07:28.788000+00:00</time>
      </trkpt>
      <trkpt lat="0" lon="0">
        <time>2020-12-20T10:07:28.791000+00:00</time>
      </trkpt>
      <trkpt lat="47.34061" lon="-1.32425">
        <ele>127</ele>
        <time>2020-12-20T10:07:29.817000+00:00</time>
      </trkpt>
      <trkpt lat="0" lon="0">
        <time>2020-12-20T10:07:29.823000+00:00</time>
      </trkpt>
      <trkpt lat="0" lon="0">
        <time>2020-12-20T10:07:29.837000+00:00</time>
      </trkpt>
      <trkpt lat="0" lon="0">
        <time>2020-12-20T10:07:29.839000+00:00</time>
      </trkpt>
      <trkpt lat="47.34064" lon="-1.32427">
        <ele>127</ele>
        <time>2020-12-20T10:07:30.840000+00:00</time>
      </trkpt>
      <trkpt lat="0" lon="0">
        <time>2020-12-20T10:07:30.850000+00:00</time>
      </trkpt>
      <trkpt lat="0" lon="0">
        <time>2020-12-20T10:07:30.855000+00:00</time>
      </trkpt>
      <trkpt lat="0" lon="0">
        <time>2020-12-20T10:07:30.858000+00:00</time>
      </trkpt>
      <trkpt lat="47.34067" lon="-1.32428">
        <ele>127</ele>
        <time>2020-12-20T10:07:31.804000+00:00</time>
      </trkpt>
      <trkpt lat="0" lon="0">
        <time>2020-12-20T10:07:31.817000+00:00</time>
      </trkpt>
      <trkpt lat="0" lon="0">
        <time>2020-12-20T10:07:31.831000+00:00</time>
      </trkpt>
      <trkpt lat="0" lon="0">
        <time>2020-12-20T10:07:31.832000+00:00</time>
      </trkpt>
      <trkpt lat="47.34069" lon="-1.3243">
        <ele>126</ele>
        <time>2020-12-20T10:07:32.789000+00:00</time>
      </trkpt>
      <trkpt lat="0" lon="0">
        <time>2020-12-20T10:07:32.797000+00:00</time>
      </trkpt>
      <trkpt lat="0" lon="0">
        <time>2020-12-20T10:07:32.802000+00:00</time>
      </trkpt>
      <trkpt lat="0" lon="0">
        <time>2020-12-20T10:07:32.809000+00:00</time>
      </trkpt>
      <trkpt lat="47.34072" lon="-1.32431">
        <ele>126</ele>
        <time>2020-12-20T10:07:33.826000+00:00</time>
      </trkpt>
      <trkpt lat="0" lon="0">
        <time>2020-12-20T10:07:33.843000+00:00</time>
      </trkpt>
      <trkpt lat="0" lon="0">
        <time>2020-12-20T10:07:33.848000+00:00</time>
      </trkpt>
      <trkpt lat="0" lon="0">
        <time>2020-12-20T10:07:33.852000+00:00</time>
      </trkpt>
      <trkpt lat="47.34074" lon="-1.32433">
        <ele>126</ele>
        <time>2020-12-20T10:07:34.855000+00:00</time>
      </trkpt>
      <trkpt lat="0" lon="0">
        <time>2020-12-20T10:07:34.871000+00:00</time>
      </trkpt>
      <trkpt lat="0" lon="0">
        <time>2020-12-20T10:07:34.878000+00:00</time>
      </trkpt>
      <trkpt lat="0" lon="0">
        <time>2020-12-20T10:07:34.881000+00:00</time>
      </trkpt>
      <trkpt lat="47.34075" lon="-1.32434">
        <ele>125</ele>
        <time>2020-12-20T10:07:35.814000+00:00</time>
      </trkpt>
      <trkpt lat="0" lon="0">
        <time>2020-12-20T10:07:35.820000+00:00</time>
      </trkpt>
      <trkpt lat="0" lon="0">
        <time>2020-12-20T10:07:35.826000+00:00</time>
      </trkpt>
      <trkpt lat="0" lon="0">
        <time>2020-12-20T10:07:35.835000+00:00</time>
      </trkpt>
      <trkpt lat="47.34077" lon="-1.32435">
        <ele>125</ele>
        <time>2020-12-20T10:07:36.844000+00:00</time>
      </trkpt>
      <trkpt lat="0" lon="0">
        <time>2020-12-20T10:07:36.853000+00:00</time>
      </trkpt>
      <trkpt lat="0" lon="0">
        <time>2020-12-20T10:07:36.867000+00:00</time>
      </trkpt>
      <trkpt lat="0" lon="0">
        <time>2020-12-20T10:07:36.870000+00:00</time>
      </trkpt>
      <trkpt lat="47.34078" lon="-1.32435">
        <ele>125</ele>
        <time>2020-12-20T10:07:37.822000+00:00</time>
      </trkpt>
      <trkpt lat="0" lon="0">
        <time>2020-12-20T10:07:37.827000+00:00</time>
      </trkpt>
      <trkpt lat="0" lon="0">
        <time>2020-12-20T10:07:37.831000+00:00</time>
      </trkpt>
      <trkpt lat="0" lon="0">
        <time>2020-12-20T10:07:37.832000+00:00</time>
      </trkpt>
      <trkpt lat="47.3408" lon="-1.32436">
        <ele>124</ele>
        <time>2020-12-20T10:07:38.784000+00:00</time>
      </trkpt>
      <trkpt lat="0" lon="0">
        <time>2020-12-20T10:07:38.804000+00:00</time>
      </trkpt>
      <trkpt lat="0" lon="0">
        <time>2020-12-20T10:07:38.808000+00:00</time>
      </trkpt>
      <trkpt lat="0" lon="0">
        <time>2020-12-20T10:07:38.810000+00:00</time>
      </trkpt>
      <trkpt lat="47.34081" lon="-1.32437">
        <ele>124</ele>
        <time>2020-12-20T10:07:39.724000+00:00</time>
      </trkpt>
      <trkpt lat="0" lon="0">
        <time>2020-12-20T10:07:39.736000+00:00</time>
      </trkpt>
      <trkpt lat="0" lon="0">
        <time>2020-12-20T10:07:39.743000+00:00</time>
      </trkpt>
      <trkpt lat="0" lon="0">
        <time>2020-12-20T10:07:39.747000+00:00</time>
      </trkpt>
      <trkpt lat="47.34082" lon="-1.32438">
        <ele>124</ele>
        <time>2020-12-20T10:07:40.771000+00:00</time>
      </trkpt>
      <trkpt lat="0" lon="0">
        <time>2020-12-20T10:07:40.784000+00:00</time>
      </trkpt>
      <trkpt lat="0" lon="0">
        <time>2020-12-20T10:07:40.787000+00:00</time>
      </trkpt>
      <trkpt lat="0" lon="0">
        <time>2020-12-20T10:07:40.788000+00:00</time>
      </trkpt>
      <trkpt lat="47.34083" lon="-1.32439">
        <ele>124</ele>
        <time>2020-12-20T10:07:41.778000+00:00</time>
      </trkpt>
      <trkpt lat="0" lon="0">
        <time>2020-12-20T10:07:41.796000+00:00</time>
      </trkpt>
      <trkpt lat="0" lon="0">
        <time>2020-12-20T10:07:41.800000+00:00</time>
      </trkpt>
      <trkpt lat="0" lon="0">
        <time>2020-12-20T10:07:41.804000+00:00</time>
      </trkpt>
      <trkpt lat="47.34084" lon="-1.3244">
        <ele>124</ele>
        <time>2020-12-20T10:07:42.826000+00:00</time>
      </trkpt>
      <trkpt lat="0" lon="0">
        <time>2020-12-20T10:07:42.831000+00:00</time>
      </trkpt>
      <trkpt lat="0" lon="0">
        <time>2020-12-20T10:07:42.835000+00:00</time>
      </trkpt>
      <trkpt lat="0" lon="0">
        <time>2020-12-20T10:07:42.838000+00:00</time>
      </trkpt>
      <trkpt lat="47.34086" lon="-1.32441">
        <ele>124</ele>
        <time>2020-12-20T10:07:43.702000+00:00</time>
      </trkpt>
      <trkpt lat="0" lon="0">
        <time>2020-12-20T10:07:43.711000+00:00</time>
      </trkpt>
      <trkpt lat="0" lon="0">
        <time>2020-12-20T10:07:43.717000+00:00</time>
      </trkpt>
      <trkpt lat="0" lon="0">
        <time>2020-12-20T10:07:43.719000+00:00</time>
      </trkpt>
      <trkpt lat="47.34087" lon="-1.32443">
        <ele>124</ele>
        <time>2020-12-20T10:07:44.786000+00:00</time>
      </trkpt>
      <trkpt lat="0" lon="0">
        <time>2020-12-20T10:07:44.791000+00:00</time>
      </trkpt>
      <trkpt lat="0" lon="0">
        <time>2020-12-20T10:07:44.793000+00:00</time>
      </trkpt>
      <trkpt lat="0" lon="0">
        <time>2020-12-20T10:07:44.794000+00:00</time>
      </trkpt>
      <trkpt lat="47.34089" lon="-1.32444">
        <ele>124</ele>
        <time>2020-12-20T10:07:45.803000+00:00</time>
      </trkpt>
      <trkpt lat="0" lon="0">
        <time>2020-12-20T10:07:45.808000+00:00</time>
      </trkpt>
      <trkpt lat="0" lon="0">
        <time>2020-12-20T10:07:45.812000+00:00</time>
      </trkpt>
      <trkpt lat="0" lon="0">
        <time>2020-12-20T10:07:45.814000+00:00</time>
      </trkpt>
      <trkpt lat="47.34091" lon="-1.32446">
        <ele>124</ele>
        <time>2020-12-20T10:07:46.792000+00:00</time>
      </trkpt>
      <trkpt lat="0" lon="0">
        <time>2020-12-20T10:07:46.801000+00:00</time>
      </trkpt>
      <trkpt lat="0" lon="0">
        <time>2020-12-20T10:07:46.811000+00:00</time>
      </trkpt>
      <trkpt lat="0" lon="0">
        <time>2020-12-20T10:07:46.814000+00:00</time>
      </trkpt>
      <trkpt lat="47.34093" lon="-1.32447">
        <ele>124</ele>
        <time>2020-12-20T10:07:47.778000+00:00</time>
      </trkpt>
      <trkpt lat="0" lon="0">
        <time>2020-12-20T10:07:47.787000+00:00</time>
      </trkpt>
      <trkpt lat="0" lon="0">
        <time>2020-12-20T10:07:47.795000+00:00</time>
      </trkpt>
      <trkpt lat="0" lon="0">
        <time>2020-12-20T10:07:47.798000+00:00</time>
      </trkpt>
      <trkpt lat="47.34095" lon="-1.32449">
        <ele>124</ele>
        <time>2020-12-20T10:07:48.774000+00:00</time>
      </trkpt>
      <trkpt lat="0" lon="0">
        <time>2020-12-20T10:07:48.788000+00:00</time>
      </trkpt>
      <trkpt lat="0" lon="0">
        <time>2020-12-20T10:07:48.791000+00:00</time>
      </trkpt>
      <trkpt lat="0" lon="0">
        <time>2020-12-20T10:07:48.794000+00:00</time>
      </trkpt>
      <trkpt lat="47.34097" lon="-1.32451">
        <ele>124</ele>
        <time>2020-12-20T10:07:49.814000+00:00</time>
      </trkpt>
      <trkpt lat="0" lon="0">
        <time>2020-12-20T10:07:49.817000+00:00</time>
      </trkpt>
      <trkpt lat="0" lon="0">
        <time>2020-12-20T10:07:49.819000+00:00</time>
      </trkpt>
      <trkpt lat="0" lon="0">
        <time>2020-12-20T10:07:49.821000+00:00</time>
      </trkpt>
      <trkpt lat="47.34099" lon="-1.32453">
        <ele>123</ele>
        <time>2020-12-20T10:07:50.827000+00:00</time>
      </trkpt>
      <trkpt lat="0" lon="0">
        <time>2020-12-20T10:07:50.845000+00:00</time>
      </trkpt>
      <trkpt lat="0" lon="0">
        <time>2020-12-20T10:07:50.851000+00:00</time>
      </trkpt>
      <trkpt lat="0" lon="0">
        <time>2020-12-20T10:07:50.853000+00:00</time>
      </trkpt>
      <trkpt lat="47.34101" lon="-1.32454">
        <ele>123</ele>
        <time>2020-12-20T10:07:51.780000+00:00</time>
      </trkpt>
      <trkpt lat="0" lon="0">
        <time>2020-12-20T10:07:51.790000+00:00</time>
      </trkpt>
      <trkpt lat="0" lon="0">
        <time>2020-12-20T10:07:51.798000+00:00</time>
      </trkpt>
      <trkpt lat="0" lon="0">
        <time>2020-12-20T10:07:51.802000+00:00</time>
      </trkpt>
      <trkpt lat="47.34103" lon="-1.32456">
        <ele>123</ele>
        <time>2020-12-20T10:07:52.822000+00:00</time>
      </trkpt>
      <trkpt lat="0" lon="0">
        <time>2020-12-20T10:07:52.835000+00:00</time>
      </trkpt>
      <trkpt lat="0" lon="0">
        <time>2020-12-20T10:07:52.842000+00:00</time>
      </trkpt>
      <trkpt lat="0" lon="0">
        <time>2020-12-20T10:07:52.845000+00:00</time>
      </trkpt>
      <trkpt lat="47.34105" lon="-1.32458">
        <ele>123</ele>
        <time>2020-12-20T10:07:53.770000+00:00</time>
      </trkpt>
      <trkpt lat="0" lon="0">
        <time>2020-12-20T10:07:53.778000+00:00</time>
      </trkpt>
      <trkpt lat="0" lon="0">
        <time>2020-12-20T10:07:53.784000+00:00</time>
      </trkpt>
      <trkpt lat="0" lon="0">
        <time>2020-12-20T10:07:53.787000+00:00</time>
      </trkpt>
      <trkpt lat="47.34107" lon="-1.32459">
        <ele>123</ele>
        <time>2020-12-20T10:07:54.797000+00:00</time>
      </trkpt>
      <trkpt lat="0" lon="0">
        <time>2020-12-20T10:07:54.816000+00:00</time>
      </trkpt>
      <trkpt lat="0" lon="0">
        <time>2020-12-20T10:07:54.824000+00:00</time>
      </trkpt>
      <trkpt lat="0" lon="0">
        <time>2020-12-20T10:07:54.828000+00:00</time>
      </trkpt>
      <trkpt lat="47.34109" lon="-1.32461">
        <ele>123</ele>
        <time>2020-12-20T10:07:55.803000+00:00</time>
      </trkpt>
      <trkpt lat="0" lon="0">
        <time>2020-12-20T10:07:55.815000+00:00</time>
      </trkpt>
      <trkpt lat="0" lon="0">
        <time>2020-12-20T10:07:55.819000+00:00</time>
      </trkpt>
      <trkpt lat="0" lon="0">
        <time>2020-12-20T10:07:55.820000+00:00</time>
      </trkpt>
      <trkpt lat="47.34111" lon="-1.32463">
        <ele>123</ele>
        <time>2020-12-20T10:07:56.860000+00:00</time>
      </trkpt>
      <trkpt lat="0" lon="0">
        <time>2020-12-20T10:07:56.873000+00:00</time>
      </trkpt>
      <trkpt lat="0" lon="0">
        <time>2020-12-20T10:07:56.878000+00:00</time>
      </trkpt>
      <trkpt lat="0" lon="0">
        <time>2020-12-20T10:07:56.882000+00:00</time>
      </trkpt>
      <trkpt lat="47.34113" lon="-1.32465">
        <ele>123</ele>
        <time>2020-12-20T10:07:57.799000+00:00</time>
      </trkpt>
      <trkpt lat="0" lon="0">
        <time>2020-12-20T10:07:57.808000+00:00</time>
      </trkpt>
      <trkpt lat="0" lon="0">
        <time>2020-12-20T10:07:57.815000+00:00</time>
      </trkpt>
      <trkpt lat="0" lon="0">
        <time>2020-12-20T10:07:57.817000+00:00</time>
      </trkpt>
      <trkpt lat="47.34115" lon="-1.32468">
        <ele>123</ele>
        <time>2020-12-20T10:07:58.710000+00:00</time>
      </trkpt>
      <trkpt lat="0" lon="0">
        <time>2020-12-20T10:07:58.711000+00:00</time>
      </trkpt>
      <trkpt lat="0" lon="0">
        <time>2020-12-20T10:07:58.712000+00:00</time>
      </trkpt>
      <trkpt lat="47.34117" lon="-1.3247">
        <ele>123</ele>
        <time>2020-12-20T10:07:59.676000+00:00</time>
      </trkpt>
      <trkpt lat="0" lon="0">
        <time>2020-12-20T10:07:59.684000+00:00</time>
      </trkpt>
      <trkpt lat="0" lon="0">
        <time>2020-12-20T10:07:59.688000+00:00</time>
      </trkpt>
      <trkpt lat="0" lon="0">
        <time>2020-12-20T10:07:59.689000+00:00</time>
      </trkpt>
      <trkpt lat="47.34118" lon="-1.32473">
        <ele>123</ele>
        <time>2020-12-20T10:08:00.824000+00:00</time>
      </trkpt>
      <trkpt lat="0" lon="0">
        <time>2020-12-20T10:08:00.838000+00:00</time>
      </trkpt>
      <trkpt lat="0" lon="0">
        <time>2020-12-20T10:08:00.843000+00:00</time>
      </trkpt>
      <trkpt lat="0" lon="0">
        <time>2020-12-20T10:08:00.845000+00:00</time>
      </trkpt>
      <trkpt lat="47.3412" lon="-1.32476">
        <ele>123</ele>
        <time>2020-12-20T10:08:01.779000+00:00</time>
      </trkpt>
      <trkpt lat="0" lon="0">
        <time>2020-12-20T10:08:01.798000+00:00</time>
      </trkpt>
      <trkpt lat="0" lon="0">
        <time>2020-12-20T10:08:01.806000+00:00</time>
      </trkpt>
      <trkpt lat="0" lon="0">
        <time>2020-12-20T10:08:01.808000+00:00</time>
      </trkpt>
      <trkpt lat="47.34122" lon="-1.32478">
        <ele>124</ele>
        <time>2020-12-20T10:08:02.791000+00:00</time>
      </trkpt>
      <trkpt lat="0" lon="0">
        <time>2020-12-20T10:08:02.802000+00:00</time>
      </trkpt>
      <trkpt lat="0" lon="0">
        <time>2020-12-20T10:08:02.807000+00:00</time>
      </trkpt>
      <trkpt lat="0" lon="0">
        <time>2020-12-20T10:08:02.810000+00:00</time>
      </trkpt>
      <trkpt lat="47.34124" lon="-1.32481">
        <ele>124</ele>
        <time>2020-12-20T10:08:03.794000+00:00</time>
      </trkpt>
      <trkpt lat="0" lon="0">
        <time>2020-12-20T10:08:03.803000+00:00</time>
      </trkpt>
      <trkpt lat="0" lon="0">
        <time>2020-12-20T10:08:03.807000+00:00</time>
      </trkpt>
      <trkpt lat="0" lon="0">
        <time>2020-12-20T10:08:03.810000+00:00</time>
      </trkpt>
      <trkpt lat="47.34127" lon="-1.32484">
        <ele>124</ele>
        <time>2020-12-20T10:08:04.817000+00:00</time>
      </trkpt>
      <trkpt lat="0" lon="0">
        <time>2020-12-20T10:08:04.823000+00:00</time>
      </trkpt>
      <trkpt lat="0" lon="0">
        <time>2020-12-20T10:08:04.826000+00:00</time>
      </trkpt>
      <trkpt lat="0" lon="0">
        <time>2020-12-20T10:08:04.827000+00:00</time>
      </trkpt>
      <trkpt lat="47.34129" lon="-1.32487">
        <ele>124</ele>
        <time>2020-12-20T10:08:05.835000+00:00</time>
      </trkpt>
      <trkpt lat="0" lon="0">
        <time>2020-12-20T10:08:05.847000+00:00</time>
      </trkpt>
      <trkpt lat="0" lon="0">
        <time>2020-12-20T10:08:05.853000+00:00</time>
      </trkpt>
      <trkpt lat="0" lon="0">
        <time>2020-12-20T10:08:05.856000+00:00</time>
      </trkpt>
      <trkpt lat="47.34132" lon="-1.32489">
        <ele>124</ele>
        <time>2020-12-20T10:08:06.823000+00:00</time>
      </trkpt>
      <trkpt lat="0" lon="0">
        <time>2020-12-20T10:08:06.827000+00:00</time>
      </trkpt>
      <trkpt lat="0" lon="0">
        <time>2020-12-20T10:08:06.832000+00:00</time>
      </trkpt>
      <trkpt lat="0" lon="0">
        <time>2020-12-20T10:08:06.836000+00:00</time>
      </trkpt>
      <trkpt lat="47.34134" lon="-1.32492">
        <ele>124</ele>
        <time>2020-12-20T10:08:07.802000+00:00</time>
      </trkpt>
      <trkpt lat="0" lon="0">
        <time>2020-12-20T10:08:07.824000+00:00</time>
      </trkpt>
      <trkpt lat="0" lon="0">
        <time>2020-12-20T10:08:07.837000+00:00</time>
      </trkpt>
      <trkpt lat="0" lon="0">
        <time>2020-12-20T10:08:07.839000+00:00</time>
      </trkpt>
      <trkpt lat="47.34136" lon="-1.32495">
        <ele>124</ele>
        <time>2020-12-20T10:08:08.801000+00:00</time>
      </trkpt>
      <trkpt lat="0" lon="0">
        <time>2020-12-20T10:08:08.819000+00:00</time>
      </trkpt>
      <trkpt lat="0" lon="0">
        <time>2020-12-20T10:08:08.828000+00:00</time>
      </trkpt>
      <trkpt lat="0" lon="0">
        <time>2020-12-20T10:08:08.830000+00:00</time>
      </trkpt>
      <trkpt lat="47.34138" lon="-1.32498">
        <ele>124</ele>
        <time>2020-12-20T10:08:09.794000+00:00</time>
      </trkpt>
      <trkpt lat="0" lon="0">
        <time>2020-12-20T10:08:09.813000+00:00</time>
      </trkpt>
      <trkpt lat="0" lon="0">
        <time>2020-12-20T10:08:09.818000+00:00</time>
      </trkpt>
      <trkpt lat="0" lon="0">
        <time>2020-12-20T10:08:09.823000+00:00</time>
      </trkpt>
      <trkpt lat="47.3414" lon="-1.32501">
        <ele>123</ele>
        <time>2020-12-20T10:08:10.796000+00:00</time>
      </trkpt>
      <trkpt lat="0" lon="0">
        <time>2020-12-20T10:08:10.810000+00:00</time>
      </trkpt>
      <trkpt lat="0" lon="0">
        <time>2020-12-20T10:08:10.815000+00:00</time>
      </trkpt>
      <trkpt lat="0" lon="0">
        <time>2020-12-20T10:08:10.818000+00:00</time>
      </trkpt>
      <trkpt lat="47.34142" lon="-1.32504">
        <ele>123</ele>
        <time>2020-12-20T10:08:11.808000+00:00</time>
      </trkpt>
      <trkpt lat="0" lon="0">
        <time>2020-12-20T10:08:11.822000+00:00</time>
      </trkpt>
      <trkpt lat="0" lon="0">
        <time>2020-12-20T10:08:11.826000+00:00</time>
      </trkpt>
      <trkpt lat="0" lon="0">
        <time>2020-12-20T10:08:11.828000+00:00</time>
      </trkpt>
      <trkpt lat="47.34145" lon="-1.32507">
        <ele>123</ele>
        <time>2020-12-20T10:08:12.797000+00:00</time>
      </trkpt>
      <trkpt lat="0" lon="0">
        <time>2020-12-20T10:08:12.801000+00:00</time>
      </trkpt>
      <trkpt lat="0" lon="0">
        <time>2020-12-20T10:08:12.804000+00:00</time>
      </trkpt>
      <trkpt lat="0" lon="0">
        <time>2020-12-20T10:08:12.806000+00:00</time>
      </trkpt>
      <trkpt lat="47.34147" lon="-1.3251">
        <ele>123</ele>
        <time>2020-12-20T10:08:13.803000+00:00</time>
      </trkpt>
      <trkpt lat="0" lon="0">
        <time>2020-12-20T10:08:13.810000+00:00</time>
      </trkpt>
      <trkpt lat="0" lon="0">
        <time>2020-12-20T10:08:13.819000+00:00</time>
      </trkpt>
      <trkpt lat="0" lon="0">
        <time>2020-12-20T10:08:13.827000+00:00</time>
      </trkpt>
      <trkpt lat="47.3415" lon="-1.32513">
        <ele>123</ele>
        <time>2020-12-20T10:08:14.808000+00:00</time>
      </trkpt>
      <trkpt lat="0" lon="0">
        <time>2020-12-20T10:08:14.813000+00:00</time>
      </trkpt>
      <trkpt lat="0" lon="0">
        <time>2020-12-20T10:08:14.820000+00:00</time>
      </trkpt>
      <trkpt lat="0" lon="0">
        <time>2020-12-20T10:08:14.825000+00:00</time>
      </trkpt>
      <trkpt lat="47.34152" lon="-1.32516">
        <ele>123</ele>
        <time>2020-12-20T10:08:15.788000+00:00</time>
      </trkpt>
      <trkpt lat="0" lon="0">
        <time>2020-12-20T10:08:15.808000+00:00</time>
      </trkpt>
      <trkpt lat="0" lon="0">
        <time>2020-12-20T10:08:15.812000+00:00</time>
      </trkpt>
      <trkpt lat="0" lon="0">
        <time>2020-12-20T10:08:15.814000+00:00</time>
      </trkpt>
      <trkpt lat="47.34154" lon="-1.32519">
        <ele>123</ele>
        <time>2020-12-20T10:08:16.822000+00:00</time>
      </trkpt>
      <trkpt lat="0" lon="0">
        <time>2020-12-20T10:08:16.828000+00:00</time>
      </trkpt>
      <trkpt lat="0" lon="0">
        <time>2020-12-20T10:08:16.840000+00:00</time>
      </trkpt>
      <trkpt lat="0" lon="0">
        <time>2020-12-20T10:08:16.843000+00:00</time>
      </trkpt>
      <trkpt lat="47.34156" lon="-1.32521">
        <ele>123</ele>
        <time>2020-12-20T10:08:17.799000+00:00</time>
      </trkpt>
      <trkpt lat="0" lon="0">
        <time>2020-12-20T10:08:17.808000+00:00</time>
      </trkpt>
      <trkpt lat="0" lon="0">
        <time>2020-12-20T10:08:17.812000+00:00</time>
      </trkpt>
      <trkpt lat="0" lon="0">
        <time>2020-12-20T10:08:17.815000+00:00</time>
      </trkpt>
      <trkpt lat="47.34158" lon="-1.32524">
        <ele>123</ele>
        <time>2020-12-20T10:08:18.811000+00:00</time>
      </trkpt>
      <trkpt lat="0" lon="0">
        <time>2020-12-20T10:08:18.818000+00:00</time>
      </trkpt>
      <trkpt lat="0" lon="0">
        <time>2020-12-20T10:08:18.823000+00:00</time>
      </trkpt>
      <trkpt lat="0" lon="0">
        <time>2020-12-20T10:08:18.826000+00:00</time>
      </trkpt>
      <trkpt lat="47.3416" lon="-1.32526">
        <ele>123</ele>
        <time>2020-12-20T10:08:19.823000+00:00</time>
      </trkpt>
      <trkpt lat="0" lon="0">
        <time>2020-12-20T10:08:19.833000+00:00</time>
      </trkpt>
      <trkpt lat="0" lon="0">
        <time>2020-12-20T10:08:19.841000+00:00</time>
      </trkpt>
      <trkpt lat="0" lon="0">
        <time>2020-12-20T10:08:19.847000+00:00</time>
      </trkpt>
      <trkpt lat="47.34161" lon="-1.32528">
        <ele>123</ele>
        <time>2020-12-20T10:08:20.839000+00:00</time>
      </trkpt>
      <trkpt lat="0" lon="0">
        <time>2020-12-20T10:08:20.846000+00:00</time>
      </trkpt>
      <trkpt lat="0" lon="0">
        <time>2020-12-20T10:08:20.855000+00:00</time>
      </trkpt>
      <trkpt lat="0" lon="0">
        <time>2020-12-20T10:08:20.858000+00:00</time>
      </trkpt>
      <trkpt lat="47.34162" lon="-1.3253">
        <ele>123</ele>
        <time>2020-12-20T10:08:21.833000+00:00</time>
      </trkpt>
      <trkpt lat="0" lon="0">
        <time>2020-12-20T10:08:21.847000+00:00</time>
      </trkpt>
      <trkpt lat="0" lon="0">
        <time>2020-12-20T10:08:21.855000+00:00</time>
      </trkpt>
      <trkpt lat="0" lon="0">
        <time>2020-12-20T10:08:21.859000+00:00</time>
      </trkpt>
      <trkpt lat="47.34163" lon="-1.32531">
        <ele>123</ele>
        <time>2020-12-20T10:08:22.843000+00:00</time>
      </trkpt>
      <trkpt lat="0" lon="0">
        <time>2020-12-20T10:08:22.852000+00:00</time>
      </trkpt>
      <trkpt lat="0" lon="0">
        <time>2020-12-20T10:08:22.857000+00:00</time>
      </trkpt>
      <trkpt lat="0" lon="0">
        <time>2020-12-20T10:08:22.860000+00:00</time>
      </trkpt>
      <trkpt lat="47.34163" lon="-1.32533">
        <ele>122</ele>
        <time>2020-12-20T10:08:23.792000+00:00</time>
      </trkpt>
      <trkpt lat="0" lon="0">
        <time>2020-12-20T10:08:23.804000+00:00</time>
      </trkpt>
      <trkpt lat="0" lon="0">
        <time>2020-12-20T10:08:23.806000+00:00</time>
      </trkpt>
      <trkpt lat="0" lon="0">
        <time>2020-12-20T10:08:23.807000+00:00</time>
      </trkpt>
      <trkpt lat="47.34164" lon="-1.32534">
        <ele>122</ele>
        <time>2020-12-20T10:08:24.810000+00:00</time>
      </trkpt>
      <trkpt lat="0" lon="0">
        <time>2020-12-20T10:08:24.821000+00:00</time>
      </trkpt>
      <trkpt lat="0" lon="0">
        <time>2020-12-20T10:08:24.826000+00:00</time>
      </trkpt>
      <trkpt lat="0" lon="0">
        <time>2020-12-20T10:08:24.830000+00:00</time>
      </trkpt>
      <trkpt lat="47.34165" lon="-1.32536">
        <ele>122</ele>
        <time>2020-12-20T10:08:25.827000+00:00</time>
      </trkpt>
      <trkpt lat="0" lon="0">
        <time>2020-12-20T10:08:25.836000+00:00</time>
      </trkpt>
      <trkpt lat="0" lon="0">
        <time>2020-12-20T10:08:25.852000+00:00</time>
      </trkpt>
      <trkpt lat="0" lon="0">
        <time>2020-12-20T10:08:25.855000+00:00</time>
      </trkpt>
      <trkpt lat="47.34165" lon="-1.32537">
        <ele>122</ele>
        <time>2020-12-20T10:08:26.827000+00:00</time>
      </trkpt>
      <trkpt lat="0" lon="0">
        <time>2020-12-20T10:08:26.842000+00:00</time>
      </trkpt>
      <trkpt lat="0" lon="0">
        <time>2020-12-20T10:08:26.849000+00:00</time>
      </trkpt>
      <trkpt lat="0" lon="0">
        <time>2020-12-20T10:08:26.857000+00:00</time>
      </trkpt>
      <trkpt lat="47.34166" lon="-1.32539">
        <ele>122</ele>
        <time>2020-12-20T10:08:27.843000+00:00</time>
      </trkpt>
      <trkpt lat="0" lon="0">
        <time>2020-12-20T10:08:27.849000+00:00</time>
      </trkpt>
      <trkpt lat="0" lon="0">
        <time>2020-12-20T10:08:27.862000+00:00</time>
      </trkpt>
      <trkpt lat="0" lon="0">
        <time>2020-12-20T10:08:27.866000+00:00</time>
      </trkpt>
      <trkpt lat="47.34167" lon="-1.3254">
        <ele>122</ele>
        <time>2020-12-20T10:08:28.696000+00:00</time>
      </trkpt>
      <trkpt lat="0" lon="0">
        <time>2020-12-20T10:08:28.702000+00:00</time>
      </trkpt>
      <trkpt lat="0" lon="0">
        <time>2020-12-20T10:08:28.703000+00:00</time>
      </trkpt>
      <trkpt lat="47.34168" lon="-1.32542">
        <ele>122</ele>
        <time>2020-12-20T10:08:29.779000+00:00</time>
      </trkpt>
      <trkpt lat="0" lon="0">
        <time>2020-12-20T10:08:29.787000+00:00</time>
      </trkpt>
      <trkpt lat="0" lon="0">
        <time>2020-12-20T10:08:29.789000+00:00</time>
      </trkpt>
      <trkpt lat="0" lon="0">
        <time>2020-12-20T10:08:29.790000+00:00</time>
      </trkpt>
      <trkpt lat="47.34169" lon="-1.32544">
        <ele>122</ele>
        <time>2020-12-20T10:08:30.814000+00:00</time>
      </trkpt>
      <trkpt lat="0" lon="0">
        <time>2020-12-20T10:08:30.823000+00:00</time>
      </trkpt>
      <trkpt lat="0" lon="0">
        <time>2020-12-20T10:08:30.838000+00:00</time>
      </trkpt>
      <trkpt lat="0" lon="0">
        <time>2020-12-20T10:08:30.842000+00:00</time>
      </trkpt>
      <trkpt lat="47.3417" lon="-1.32547">
        <ele>122</ele>
        <time>2020-12-20T10:08:31.735000+00:00</time>
      </trkpt>
      <trkpt lat="0" lon="0">
        <time>2020-12-20T10:08:31.749000+00:00</time>
      </trkpt>
      <trkpt lat="0" lon="0">
        <time>2020-12-20T10:08:31.753000+00:00</time>
      </trkpt>
      <trkpt lat="0" lon="0">
        <time>2020-12-20T10:08:31.754000+00:00</time>
      </trkpt>
      <trkpt lat="47.34171" lon="-1.32549">
        <ele>122</ele>
        <time>2020-12-20T10:08:32.767000+00:00</time>
      </trkpt>
      <trkpt lat="0" lon="0">
        <time>2020-12-20T10:08:32.775000+00:00</time>
      </trkpt>
      <trkpt lat="0" lon="0">
        <time>2020-12-20T10:08:32.780000+00:00</time>
      </trkpt>
      <trkpt lat="0" lon="0">
        <time>2020-12-20T10:08:32.783000+00:00</time>
      </trkpt>
      <trkpt lat="47.34172" lon="-1.32552">
        <ele>122</ele>
        <time>2020-12-20T10:08:33.824000+00:00</time>
      </trkpt>
      <trkpt lat="0" lon="0">
        <time>2020-12-20T10:08:33.835000+00:00</time>
      </trkpt>
      <trkpt lat="0" lon="0">
        <time>2020-12-20T10:08:33.839000+00:00</time>
      </trkpt>
      <trkpt lat="0" lon="0">
        <time>2020-12-20T10:08:33.842000+00:00</time>
      </trkpt>
      <trkpt lat="47.34175" lon="-1.32558">
        <ele>121</ele>
        <time>2020-12-20T10:08:35.768000+00:00</time>
      </trkpt>
      <trkpt lat="0" lon="0">
        <time>2020-12-20T10:08:35.785000+00:00</time>
      </trkpt>
      <trkpt lat="0" lon="0">
        <time>2020-12-20T10:08:35.799000+00:00</time>
      </trkpt>
      <trkpt lat="0" lon="0">
        <time>2020-12-20T10:08:35.805000+00:00</time>
      </trkpt>
      <trkpt lat="47.34177" lon="-1.32562">
        <ele>121</ele>
        <time>2020-12-20T10:08:36.718000+00:00</time>
      </trkpt>
      <trkpt lat="0" lon="0">
        <time>2020-12-20T10:08:36.722000+00:00</time>
      </trkpt>
      <trkpt lat="0" lon="0">
        <time>2020-12-20T10:08:36.727000+00:00</time>
      </trkpt>
      <trkpt lat="0" lon="0">
        <time>2020-12-20T10:08:36.728000+00:00</time>
      </trkpt>
      <trkpt lat="47.34178" lon="-1.32566">
        <ele>122</ele>
        <time>2020-12-20T10:08:37.715000+00:00</time>
      </trkpt>
      <trkpt lat="0" lon="0">
        <time>2020-12-20T10:08:37.722000+00:00</time>
      </trkpt>
      <trkpt lat="0" lon="0">
        <time>2020-12-20T10:08:37.727000+00:00</time>
      </trkpt>
      <trkpt lat="0" lon="0">
        <time>2020-12-20T10:08:37.731000+00:00</time>
      </trkpt>
      <trkpt lat="47.3418" lon="-1.3257">
        <ele>122</ele>
        <time>2020-12-20T10:08:38.752000+00:00</time>
      </trkpt>
      <trkpt lat="0" lon="0">
        <time>2020-12-20T10:08:38.759000+00:00</time>
      </trkpt>
      <trkpt lat="0" lon="0">
        <time>2020-12-20T10:08:38.761000+00:00</time>
      </trkpt>
      <trkpt lat="0" lon="0">
        <time>2020-12-20T10:08:38.764000+00:00</time>
      </trkpt>
      <trkpt lat="47.34182" lon="-1.32574">
        <ele>122</ele>
        <time>2020-12-20T10:08:39.787000+00:00</time>
      </trkpt>
      <trkpt lat="0" lon="0">
        <time>2020-12-20T10:08:39.800000+00:00</time>
      </trkpt>
      <trkpt lat="0" lon="0">
        <time>2020-12-20T10:08:39.805000+00:00</time>
      </trkpt>
      <trkpt lat="0" lon="0">
        <time>2020-12-20T10:08:39.807000+00:00</time>
      </trkpt>
      <trkpt lat="47.34184" lon="-1.32579">
        <ele>123</ele>
        <time>2020-12-20T10:08:40.830000+00:00</time>
      </trkpt>
      <trkpt lat="0" lon="0">
        <time>2020-12-20T10:08:40.842000+00:00</time>
      </trkpt>
      <trkpt lat="0" lon="0">
        <time>2020-12-20T10:08:40.857000+00:00</time>
      </trkpt>
      <trkpt lat="0" lon="0">
        <time>2020-12-20T10:08:40.859000+00:00</time>
      </trkpt>
      <trkpt lat="47.34186" lon="-1.32583">
        <ele>124</ele>
        <time>2020-12-20T10:08:41.822000+00:00</time>
      </trkpt>
      <trkpt lat="0" lon="0">
        <time>2020-12-20T10:08:41.832000+00:00</time>
      </trkpt>
      <trkpt lat="0" lon="0">
        <time>2020-12-20T10:08:41.835000+00:00</time>
      </trkpt>
      <trkpt lat="0" lon="0">
        <time>2020-12-20T10:08:41.838000+00:00</time>
      </trkpt>
      <trkpt lat="47.34188" lon="-1.32588">
        <ele>125</ele>
        <time>2020-12-20T10:08:42.801000+00:00</time>
      </trkpt>
      <trkpt lat="0" lon="0">
        <time>2020-12-20T10:08:42.807000+00:00</time>
      </trkpt>
      <trkpt lat="0" lon="0">
        <time>2020-12-20T10:08:42.812000+00:00</time>
      </trkpt>
      <trkpt lat="0" lon="0">
        <time>2020-12-20T10:08:42.814000+00:00</time>
      </trkpt>
      <trkpt lat="47.3419" lon="-1.32593">
        <ele>125</ele>
        <time>2020-12-20T10:08:43.783000+00:00</time>
      </trkpt>
      <trkpt lat="0" lon="0">
        <time>2020-12-20T10:08:43.799000+00:00</time>
      </trkpt>
      <trkpt lat="0" lon="0">
        <time>2020-12-20T10:08:43.807000+00:00</time>
      </trkpt>
      <trkpt lat="0" lon="0">
        <time>2020-12-20T10:08:43.809000+00:00</time>
      </trkpt>
      <trkpt lat="47.34192" lon="-1.32598">
        <ele>126</ele>
        <time>2020-12-20T10:08:44.741000+00:00</time>
      </trkpt>
      <trkpt lat="0" lon="0">
        <time>2020-12-20T10:08:44.754000+00:00</time>
      </trkpt>
      <trkpt lat="0" lon="0">
        <time>2020-12-20T10:08:44.759000+00:00</time>
      </trkpt>
      <trkpt lat="0" lon="0">
        <time>2020-12-20T10:08:44.765000+00:00</time>
      </trkpt>
      <trkpt lat="47.34194" lon="-1.32603">
        <ele>125</ele>
        <time>2020-12-20T10:08:45.823000+00:00</time>
      </trkpt>
      <trkpt lat="0" lon="0">
        <time>2020-12-20T10:08:45.838000+00:00</time>
      </trkpt>
      <trkpt lat="0" lon="0">
        <time>2020-12-20T10:08:45.846000+00:00</time>
      </trkpt>
      <trkpt lat="0" lon="0">
        <time>2020-12-20T10:08:45.849000+00:00</time>
      </trkpt>
      <trkpt lat="47.34195" lon="-1.32608">
        <ele>125</ele>
        <time>2020-12-20T10:08:46.842000+00:00</time>
      </trkpt>
      <trkpt lat="0" lon="0">
        <time>2020-12-20T10:08:46.855000+00:00</time>
      </trkpt>
      <trkpt lat="0" lon="0">
        <time>2020-12-20T10:08:46.866000+00:00</time>
      </trkpt>
      <trkpt lat="0" lon="0">
        <time>2020-12-20T10:08:46.870000+00:00</time>
      </trkpt>
      <trkpt lat="47.34197" lon="-1.32612">
        <ele>125</ele>
        <time>2020-12-20T10:08:47.812000+00:00</time>
      </trkpt>
      <trkpt lat="0" lon="0">
        <time>2020-12-20T10:08:47.817000+00:00</time>
      </trkpt>
      <trkpt lat="0" lon="0">
        <time>2020-12-20T10:08:47.820000+00:00</time>
      </trkpt>
      <trkpt lat="0" lon="0">
        <time>2020-12-20T10:08:47.823000+00:00</time>
      </trkpt>
      <trkpt lat="47.34198" lon="-1.32615">
        <ele>125</ele>
        <time>2020-12-20T10:08:48.788000+00:00</time>
      </trkpt>
      <trkpt lat="0" lon="0">
        <time>2020-12-20T10:08:48.792000+00:00</time>
      </trkpt>
      <trkpt lat="0" lon="0">
        <time>2020-12-20T10:08:48.796000+00:00</time>
      </trkpt>
      <trkpt lat="0" lon="0">
        <time>2020-12-20T10:08:48.798000+00:00</time>
      </trkpt>
      <trkpt lat="47.34199" lon="-1.32619">
        <ele>124</ele>
        <time>2020-12-20T10:08:49.817000+00:00</time>
      </trkpt>
      <trkpt lat="0" lon="0">
        <time>2020-12-20T10:08:49.835000+00:00</time>
      </trkpt>
      <trkpt lat="0" lon="0">
        <time>2020-12-20T10:08:49.842000+00:00</time>
      </trkpt>
      <trkpt lat="0" lon="0">
        <time>2020-12-20T10:08:49.844000+00:00</time>
      </trkpt>
      <trkpt lat="47.342" lon="-1.32623">
        <ele>124</ele>
        <time>2020-12-20T10:08:50.834000+00:00</time>
      </trkpt>
      <trkpt lat="0" lon="0">
        <time>2020-12-20T10:08:50.855000+00:00</time>
      </trkpt>
      <trkpt lat="0" lon="0">
        <time>2020-12-20T10:08:50.860000+00:00</time>
      </trkpt>
      <trkpt lat="0" lon="0">
        <time>2020-12-20T10:08:50.863000+00:00</time>
      </trkpt>
      <trkpt lat="47.342" lon="-1.32627">
        <ele>124</ele>
        <time>2020-12-20T10:08:51.775000+00:00</time>
      </trkpt>
      <trkpt lat="0" lon="0">
        <time>2020-12-20T10:08:51.780000+00:00</time>
      </trkpt>
      <trkpt lat="0" lon="0">
        <time>2020-12-20T10:08:51.786000+00:00</time>
      </trkpt>
      <trkpt lat="0" lon="0">
        <time>2020-12-20T10:08:51.788000+00:00</time>
      </trkpt>
      <trkpt lat="47.34201" lon="-1.32631">
        <ele>123</ele>
        <time>2020-12-20T10:08:52.813000+00:00</time>
      </trkpt>
      <trkpt lat="0" lon="0">
        <time>2020-12-20T10:08:52.825000+00:00</time>
      </trkpt>
      <trkpt lat="0" lon="0">
        <time>2020-12-20T10:08:52.829000+00:00</time>
      </trkpt>
      <trkpt lat="0" lon="0">
        <time>2020-12-20T10:08:52.834000+00:00</time>
      </trkpt>
      <trkpt lat="47.34201" lon="-1.32635">
        <ele>123</ele>
        <time>2020-12-20T10:08:53.739000+00:00</time>
      </trkpt>
      <trkpt lat="0" lon="0">
        <time>2020-12-20T10:08:53.746000+00:00</time>
      </trkpt>
      <trkpt lat="0" lon="0">
        <time>2020-12-20T10:08:53.755000+00:00</time>
      </trkpt>
      <trkpt lat="0" lon="0">
        <time>2020-12-20T10:08:53.765000+00:00</time>
      </trkpt>
      <trkpt lat="47.34201" lon="-1.32639">
        <ele>122</ele>
        <time>2020-12-20T10:08:54.796000+00:00</time>
      </trkpt>
      <trkpt lat="0" lon="0">
        <time>2020-12-20T10:08:54.807000+00:00</time>
      </trkpt>
      <trkpt lat="0" lon="0">
        <time>2020-12-20T10:08:54.812000+00:00</time>
      </trkpt>
      <trkpt lat="0" lon="0">
        <time>2020-12-20T10:08:54.816000+00:00</time>
      </trkpt>
      <trkpt lat="47.342" lon="-1.32643">
        <ele>122</ele>
        <time>2020-12-20T10:08:55.841000+00:00</time>
      </trkpt>
      <trkpt lat="0" lon="0">
        <time>2020-12-20T10:08:55.848000+00:00</time>
      </trkpt>
      <trkpt lat="0" lon="0">
        <time>2020-12-20T10:08:55.854000+00:00</time>
      </trkpt>
      <trkpt lat="0" lon="0">
        <time>2020-12-20T10:08:55.856000+00:00</time>
      </trkpt>
      <trkpt lat="47.342" lon="-1.32648">
        <ele>121</ele>
        <time>2020-12-20T10:08:56.813000+00:00</time>
      </trkpt>
      <trkpt lat="0" lon="0">
        <time>2020-12-20T10:08:56.814000+00:00</time>
      </trkpt>
      <trkpt lat="0" lon="0">
        <time>2020-12-20T10:08:56.819000+00:00</time>
      </trkpt>
      <trkpt lat="0" lon="0">
        <time>2020-12-20T10:08:56.824000+00:00</time>
      </trkpt>
      <trkpt lat="47.34199" lon="-1.32652">
        <ele>122</ele>
        <time>2020-12-20T10:08:57.802000+00:00</time>
      </trkpt>
      <trkpt lat="0" lon="0">
        <time>2020-12-20T10:08:57.807000+00:00</time>
      </trkpt>
      <trkpt lat="0" lon="0">
        <time>2020-12-20T10:08:57.815000+00:00</time>
      </trkpt>
      <trkpt lat="0" lon="0">
        <time>2020-12-20T10:08:57.818000+00:00</time>
      </trkpt>
      <trkpt lat="47.34198" lon="-1.32657">
        <ele>123</ele>
        <time>2020-12-20T10:08:58.790000+00:00</time>
      </trkpt>
      <trkpt lat="0" lon="0">
        <time>2020-12-20T10:08:58.803000+00:00</time>
      </trkpt>
      <trkpt lat="0" lon="0">
        <time>2020-12-20T10:08:58.808000+00:00</time>
      </trkpt>
      <trkpt lat="0" lon="0">
        <time>2020-12-20T10:08:58.812000+00:00</time>
      </trkpt>
      <trkpt lat="47.34197" lon="-1.32662">
        <ele>123</ele>
        <time>2020-12-20T10:08:59.814000+00:00</time>
      </trkpt>
      <trkpt lat="0" lon="0">
        <time>2020-12-20T10:08:59.826000+00:00</time>
      </trkpt>
      <trkpt lat="0" lon="0">
        <time>2020-12-20T10:08:59.830000+00:00</time>
      </trkpt>
      <trkpt lat="0" lon="0">
        <time>2020-12-20T10:08:59.834000+00:00</time>
      </trkpt>
      <trkpt lat="47.34195" lon="-1.32667">
        <ele>123</ele>
        <time>2020-12-20T10:09:00.817000+00:00</time>
      </trkpt>
      <trkpt lat="0" lon="0">
        <time>2020-12-20T10:09:00.829000+00:00</time>
      </trkpt>
      <trkpt lat="0" lon="0">
        <time>2020-12-20T10:09:00.835000+00:00</time>
      </trkpt>
      <trkpt lat="0" lon="0">
        <time>2020-12-20T10:09:00.838000+00:00</time>
      </trkpt>
      <trkpt lat="47.34194" lon="-1.32672">
        <ele>122</ele>
        <time>2020-12-20T10:09:01.800000+00:00</time>
      </trkpt>
      <trkpt lat="0" lon="0">
        <time>2020-12-20T10:09:01.809000+00:00</time>
      </trkpt>
      <trkpt lat="0" lon="0">
        <time>2020-12-20T10:09:01.819000+00:00</time>
      </trkpt>
      <trkpt lat="0" lon="0">
        <time>2020-12-20T10:09:01.822000+00:00</time>
      </trkpt>
      <trkpt lat="47.34192" lon="-1.32676">
        <ele>123</ele>
        <time>2020-12-20T10:09:02.826000+00:00</time>
      </trkpt>
      <trkpt lat="0" lon="0">
        <time>2020-12-20T10:09:02.834000+00:00</time>
      </trkpt>
      <trkpt lat="0" lon="0">
        <time>2020-12-20T10:09:02.840000+00:00</time>
      </trkpt>
      <trkpt lat="0" lon="0">
        <time>2020-12-20T10:09:02.843000+00:00</time>
      </trkpt>
      <trkpt lat="47.3419" lon="-1.32681">
        <ele>122</ele>
        <time>2020-12-20T10:09:03.827000+00:00</time>
      </trkpt>
      <trkpt lat="0" lon="0">
        <time>2020-12-20T10:09:03.841000+00:00</time>
      </trkpt>
      <trkpt lat="0" lon="0">
        <time>2020-12-20T10:09:03.846000+00:00</time>
      </trkpt>
      <trkpt lat="0" lon="0">
        <time>2020-12-20T10:09:03.851000+00:00</time>
      </trkpt>
      <trkpt lat="47.34188" lon="-1.32685">
        <ele>122</ele>
        <time>2020-12-20T10:09:04.838000+00:00</time>
      </trkpt>
      <trkpt lat="0" lon="0">
        <time>2020-12-20T10:09:04.849000+00:00</time>
      </trkpt>
      <trkpt lat="0" lon="0">
        <time>2020-12-20T10:09:04.858000+00:00</time>
      </trkpt>
      <trkpt lat="0" lon="0">
        <time>2020-12-20T10:09:04.862000+00:00</time>
      </trkpt>
      <trkpt lat="47.34186" lon="-1.32689">
        <ele>122</ele>
        <time>2020-12-20T10:09:05.750000+00:00</time>
      </trkpt>
      <trkpt lat="0" lon="0">
        <time>2020-12-20T10:09:05.768000+00:00</time>
      </trkpt>
      <trkpt lat="0" lon="0">
        <time>2020-12-20T10:09:05.774000+00:00</time>
      </trkpt>
      <trkpt lat="0" lon="0">
        <time>2020-12-20T10:09:05.775000+00:00</time>
      </trkpt>
      <trkpt lat="47.34184" lon="-1.32693">
        <ele>121</ele>
        <time>2020-12-20T10:09:06.813000+00:00</time>
      </trkpt>
      <trkpt lat="0" lon="0">
        <time>2020-12-20T10:09:06.826000+00:00</time>
      </trkpt>
      <trkpt lat="0" lon="0">
        <time>2020-12-20T10:09:06.833000+00:00</time>
      </trkpt>
      <trkpt lat="0" lon="0">
        <time>2020-12-20T10:09:06.836000+00:00</time>
      </trkpt>
      <trkpt lat="47.34183" lon="-1.32698">
        <ele>120</ele>
        <time>2020-12-20T10:09:07.837000+00:00</time>
      </trkpt>
      <trkpt lat="0" lon="0">
        <time>2020-12-20T10:09:07.849000+00:00</time>
      </trkpt>
      <trkpt lat="0" lon="0">
        <time>2020-12-20T10:09:07.860000+00:00</time>
      </trkpt>
      <trkpt lat="0" lon="0">
        <time>2020-12-20T10:09:07.863000+00:00</time>
      </trkpt>
      <trkpt lat="47.34181" lon="-1.32702">
        <ele>120</ele>
        <time>2020-12-20T10:09:08.793000+00:00</time>
      </trkpt>
      <trkpt lat="0" lon="0">
        <time>2020-12-20T10:09:08.807000+00:00</time>
      </trkpt>
      <trkpt lat="0" lon="0">
        <time>2020-12-20T10:09:08.811000+00:00</time>
      </trkpt>
      <trkpt lat="0" lon="0">
        <time>2020-12-20T10:09:08.814000+00:00</time>
      </trkpt>
      <trkpt lat="47.3418" lon="-1.32706">
        <ele>119</ele>
        <time>2020-12-20T10:09:09.856000+00:00</time>
      </trkpt>
      <trkpt lat="0" lon="0">
        <time>2020-12-20T10:09:09.865000+00:00</time>
      </trkpt>
      <trkpt lat="0" lon="0">
        <time>2020-12-20T10:09:09.877000+00:00</time>
      </trkpt>
      <trkpt lat="0" lon="0">
        <time>2020-12-20T10:09:09.879000+00:00</time>
      </trkpt>
      <trkpt lat="47.34178" lon="-1.3271">
        <ele>118</ele>
        <time>2020-12-20T10:09:10.859000+00:00</time>
      </trkpt>
      <trkpt lat="0" lon="0">
        <time>2020-12-20T10:09:10.872000+00:00</time>
      </trkpt>
      <trkpt lat="0" lon="0">
        <time>2020-12-20T10:09:10.878000+00:00</time>
      </trkpt>
      <trkpt lat="0" lon="0">
        <time>2020-12-20T10:09:10.880000+00:00</time>
      </trkpt>
      <trkpt lat="47.34177" lon="-1.32713">
        <ele>118</ele>
        <time>2020-12-20T10:09:11.814000+00:00</time>
      </trkpt>
      <trkpt lat="0" lon="0">
        <time>2020-12-20T10:09:11.822000+00:00</time>
      </trkpt>
      <trkpt lat="0" lon="0">
        <time>2020-12-20T10:09:11.824000+00:00</time>
      </trkpt>
      <trkpt lat="0" lon="0">
        <time>2020-12-20T10:09:11.825000+00:00</time>
      </trkpt>
      <trkpt lat="47.34175" lon="-1.32717">
        <ele>118</ele>
        <time>2020-12-20T10:09:12.845000+00:00</time>
      </trkpt>
      <trkpt lat="0" lon="0">
        <time>2020-12-20T10:09:12.855000+00:00</time>
      </trkpt>
      <trkpt lat="0" lon="0">
        <time>2020-12-20T10:09:12.863000+00:00</time>
      </trkpt>
      <trkpt lat="0" lon="0">
        <time>2020-12-20T10:09:12.868000+00:00</time>
      </trkpt>
      <trkpt lat="47.34174" lon="-1.3272">
        <ele>117</ele>
        <time>2020-12-20T10:09:13.809000+00:00</time>
      </trkpt>
      <trkpt lat="0" lon="0">
        <time>2020-12-20T10:09:13.816000+00:00</time>
      </trkpt>
      <trkpt lat="0" lon="0">
        <time>2020-12-20T10:09:13.823000+00:00</time>
      </trkpt>
      <trkpt lat="0" lon="0">
        <time>2020-12-20T10:09:13.827000+00:00</time>
      </trkpt>
      <trkpt lat="47.34172" lon="-1.32723">
        <ele>117</ele>
        <time>2020-12-20T10:09:14.773000+00:00</time>
      </trkpt>
      <trkpt lat="0" lon="0">
        <time>2020-12-20T10:09:14.790000+00:00</time>
      </trkpt>
      <trkpt lat="0" lon="0">
        <time>2020-12-20T10:09:14.793000+00:00</time>
      </trkpt>
      <trkpt lat="0" lon="0">
        <time>2020-12-20T10:09:14.796000+00:00</time>
      </trkpt>
      <trkpt lat="47.34171" lon="-1.32725">
        <ele>117</ele>
        <time>2020-12-20T10:09:15.772000+00:00</time>
      </trkpt>
      <trkpt lat="0" lon="0">
        <time>2020-12-20T10:09:15.781000+00:00</time>
      </trkpt>
      <trkpt lat="0" lon="0">
        <time>2020-12-20T10:09:15.786000+00:00</time>
      </trkpt>
      <trkpt lat="0" lon="0">
        <time>2020-12-20T10:09:15.788000+00:00</time>
      </trkpt>
      <trkpt lat="47.3417" lon="-1.32728">
        <ele>117</ele>
        <time>2020-12-20T10:09:16.765000+00:00</time>
      </trkpt>
      <trkpt lat="0" lon="0">
        <time>2020-12-20T10:09:16.772000+00:00</time>
      </trkpt>
      <trkpt lat="0" lon="0">
        <time>2020-12-20T10:09:16.776000+00:00</time>
      </trkpt>
      <trkpt lat="0" lon="0">
        <time>2020-12-20T10:09:16.782000+00:00</time>
      </trkpt>
      <trkpt lat="47.34168" lon="-1.32731">
        <ele>117</ele>
        <time>2020-12-20T10:09:17.775000+00:00</time>
      </trkpt>
      <trkpt lat="0" lon="0">
        <time>2020-12-20T10:09:17.782000+00:00</time>
      </trkpt>
      <trkpt lat="0" lon="0">
        <time>2020-12-20T10:09:17.786000+00:00</time>
      </trkpt>
      <trkpt lat="0" lon="0">
        <time>2020-12-20T10:09:17.789000+00:00</time>
      </trkpt>
      <trkpt lat="47.34167" lon="-1.32733">
        <ele>116</ele>
        <time>2020-12-20T10:09:18.787000+00:00</time>
      </trkpt>
      <trkpt lat="0" lon="0">
        <time>2020-12-20T10:09:18.798000+00:00</time>
      </trkpt>
      <trkpt lat="0" lon="0">
        <time>2020-12-20T10:09:18.802000+00:00</time>
      </trkpt>
      <trkpt lat="0" lon="0">
        <time>2020-12-20T10:09:18.804000+00:00</time>
      </trkpt>
      <trkpt lat="47.34166" lon="-1.32735">
        <ele>116</ele>
        <time>2020-12-20T10:09:19.807000+00:00</time>
      </trkpt>
      <trkpt lat="0" lon="0">
        <time>2020-12-20T10:09:19.823000+00:00</time>
      </trkpt>
      <trkpt lat="0" lon="0">
        <time>2020-12-20T10:09:19.828000+00:00</time>
      </trkpt>
      <trkpt lat="0" lon="0">
        <time>2020-12-20T10:09:19.830000+00:00</time>
      </trkpt>
      <trkpt lat="47.34164" lon="-1.32738">
        <ele>115</ele>
        <time>2020-12-20T10:09:20.846000+00:00</time>
      </trkpt>
      <trkpt lat="0" lon="0">
        <time>2020-12-20T10:09:20.852000+00:00</time>
      </trkpt>
      <trkpt lat="0" lon="0">
        <time>2020-12-20T10:09:20.857000+00:00</time>
      </trkpt>
      <trkpt lat="0" lon="0">
        <time>2020-12-20T10:09:20.860000+00:00</time>
      </trkpt>
      <trkpt lat="47.34163" lon="-1.3274">
        <ele>115</ele>
        <time>2020-12-20T10:09:21.785000+00:00</time>
      </trkpt>
      <trkpt lat="0" lon="0">
        <time>2020-12-20T10:09:21.803000+00:00</time>
      </trkpt>
      <trkpt lat="0" lon="0">
        <time>2020-12-20T10:09:21.808000+00:00</time>
      </trkpt>
      <trkpt lat="0" lon="0">
        <time>2020-12-20T10:09:21.811000+00:00</time>
      </trkpt>
      <trkpt lat="47.34161" lon="-1.32743">
        <ele>115</ele>
        <time>2020-12-20T10:09:22.783000+00:00</time>
      </trkpt>
      <trkpt lat="0" lon="0">
        <time>2020-12-20T10:09:22.789000+00:00</time>
      </trkpt>
      <trkpt lat="0" lon="0">
        <time>2020-12-20T10:09:22.791000+00:00</time>
      </trkpt>
      <trkpt lat="0" lon="0">
        <time>2020-12-20T10:09:22.793000+00:00</time>
      </trkpt>
      <trkpt lat="47.3416" lon="-1.32745">
        <ele>114</ele>
        <time>2020-12-20T10:09:23.778000+00:00</time>
      </trkpt>
      <trkpt lat="0" lon="0">
        <time>2020-12-20T10:09:23.788000+00:00</time>
      </trkpt>
      <trkpt lat="0" lon="0">
        <time>2020-12-20T10:09:23.795000+00:00</time>
      </trkpt>
      <trkpt lat="0" lon="0">
        <time>2020-12-20T10:09:23.799000+00:00</time>
      </trkpt>
      <trkpt lat="47.34158" lon="-1.32748">
        <ele>114</ele>
        <time>2020-12-20T10:09:24.781000+00:00</time>
      </trkpt>
      <trkpt lat="0" lon="0">
        <time>2020-12-20T10:09:24.783000+00:00</time>
      </trkpt>
      <trkpt lat="0" lon="0">
        <time>2020-12-20T10:09:24.786000+00:00</time>
      </trkpt>
      <trkpt lat="0" lon="0">
        <time>2020-12-20T10:09:24.787000+00:00</time>
      </trkpt>
      <trkpt lat="47.34156" lon="-1.3275">
        <ele>114</ele>
        <time>2020-12-20T10:09:25.791000+00:00</time>
      </trkpt>
      <trkpt lat="0" lon="0">
        <time>2020-12-20T10:09:25.809000+00:00</time>
      </trkpt>
      <trkpt lat="0" lon="0">
        <time>2020-12-20T10:09:25.813000+00:00</time>
      </trkpt>
      <trkpt lat="0" lon="0">
        <time>2020-12-20T10:09:25.816000+00:00</time>
      </trkpt>
      <trkpt lat="47.34155" lon="-1.32752">
        <ele>114</ele>
        <time>2020-12-20T10:09:26.801000+00:00</time>
      </trkpt>
      <trkpt lat="0" lon="0">
        <time>2020-12-20T10:09:26.810000+00:00</time>
      </trkpt>
      <trkpt lat="0" lon="0">
        <time>2020-12-20T10:09:26.816000+00:00</time>
      </trkpt>
      <trkpt lat="0" lon="0">
        <time>2020-12-20T10:09:26.823000+00:00</time>
      </trkpt>
      <trkpt lat="47.34154" lon="-1.32755">
        <ele>115</ele>
        <time>2020-12-20T10:09:27.724000+00:00</time>
      </trkpt>
      <trkpt lat="0" lon="0">
        <time>2020-12-20T10:09:27.737000+00:00</time>
      </trkpt>
      <trkpt lat="0" lon="0">
        <time>2020-12-20T10:09:27.741000+00:00</time>
      </trkpt>
      <trkpt lat="0" lon="0">
        <time>2020-12-20T10:09:27.745000+00:00</time>
      </trkpt>
      <trkpt lat="47.34152" lon="-1.32758">
        <ele>117</ele>
        <time>2020-12-20T10:09:28.799000+00:00</time>
      </trkpt>
      <trkpt lat="0" lon="0">
        <time>2020-12-20T10:09:28.816000+00:00</time>
      </trkpt>
      <trkpt lat="0" lon="0">
        <time>2020-12-20T10:09:28.820000+00:00</time>
      </trkpt>
      <trkpt lat="0" lon="0">
        <time>2020-12-20T10:09:28.824000+00:00</time>
      </trkpt>
      <trkpt lat="47.3415" lon="-1.32761">
        <ele>118</ele>
        <time>2020-12-20T10:09:29.781000+00:00</time>
      </trkpt>
      <trkpt lat="0" lon="0">
        <time>2020-12-20T10:09:29.786000+00:00</time>
      </trkpt>
      <trkpt lat="0" lon="0">
        <time>2020-12-20T10:09:29.789000+00:00</time>
      </trkpt>
      <trkpt lat="0" lon="0">
        <time>2020-12-20T10:09:29.790000+00:00</time>
      </trkpt>
      <trkpt lat="47.34148" lon="-1.32763">
        <ele>120</ele>
        <time>2020-12-20T10:09:30.770000+00:00</time>
      </trkpt>
      <trkpt lat="0" lon="0">
        <time>2020-12-20T10:09:30.775000+00:00</time>
      </trkpt>
      <trkpt lat="0" lon="0">
        <time>2020-12-20T10:09:30.782000+00:00</time>
      </trkpt>
      <trkpt lat="0" lon="0">
        <time>2020-12-20T10:09:30.786000+00:00</time>
      </trkpt>
      <trkpt lat="47.34146" lon="-1.32766">
        <ele>120</ele>
        <time>2020-12-20T10:09:31.772000+00:00</time>
      </trkpt>
      <trkpt lat="0" lon="0">
        <time>2020-12-20T10:09:31.783000+00:00</time>
      </trkpt>
      <trkpt lat="0" lon="0">
        <time>2020-12-20T10:09:31.787000+00:00</time>
      </trkpt>
      <trkpt lat="0" lon="0">
        <time>2020-12-20T10:09:31.790000+00:00</time>
      </trkpt>
      <trkpt lat="47.34144" lon="-1.32768">
        <ele>120</ele>
        <time>2020-12-20T10:09:32.807000+00:00</time>
      </trkpt>
      <trkpt lat="0" lon="0">
        <time>2020-12-20T10:09:32.812000+00:00</time>
      </trkpt>
      <trkpt lat="0" lon="0">
        <time>2020-12-20T10:09:32.817000+00:00</time>
      </trkpt>
      <trkpt lat="0" lon="0">
        <time>2020-12-20T10:09:32.820000+00:00</time>
      </trkpt>
      <trkpt lat="47.34142" lon="-1.3277">
        <ele>120</ele>
        <time>2020-12-20T10:09:33.804000+00:00</time>
      </trkpt>
      <trkpt lat="0" lon="0">
        <time>2020-12-20T10:09:33.814000+00:00</time>
      </trkpt>
      <trkpt lat="0" lon="0">
        <time>2020-12-20T10:09:33.819000+00:00</time>
      </trkpt>
      <trkpt lat="0" lon="0">
        <time>2020-12-20T10:09:33.821000+00:00</time>
      </trkpt>
      <trkpt lat="47.3414" lon="-1.32772">
        <ele>120</ele>
        <time>2020-12-20T10:09:34.772000+00:00</time>
      </trkpt>
      <trkpt lat="0" lon="0">
        <time>2020-12-20T10:09:34.788000+00:00</time>
      </trkpt>
      <trkpt lat="0" lon="0">
        <time>2020-12-20T10:09:34.792000+00:00</time>
      </trkpt>
      <trkpt lat="0" lon="0">
        <time>2020-12-20T10:09:34.797000+00:00</time>
      </trkpt>
      <trkpt lat="47.34138" lon="-1.32774">
        <ele>121</ele>
        <time>2020-12-20T10:09:35.764000+00:00</time>
      </trkpt>
      <trkpt lat="0" lon="0">
        <time>2020-12-20T10:09:35.768000+00:00</time>
      </trkpt>
      <trkpt lat="0" lon="0">
        <time>2020-12-20T10:09:35.775000+00:00</time>
      </trkpt>
      <trkpt lat="0" lon="0">
        <time>2020-12-20T10:09:35.776000+00:00</time>
      </trkpt>
      <trkpt lat="47.34136" lon="-1.32776">
        <ele>121</ele>
        <time>2020-12-20T10:09:36.821000+00:00</time>
      </trkpt>
      <trkpt lat="0" lon="0">
        <time>2020-12-20T10:09:36.837000+00:00</time>
      </trkpt>
      <trkpt lat="0" lon="0">
        <time>2020-12-20T10:09:36.847000+00:00</time>
      </trkpt>
      <trkpt lat="0" lon="0">
        <time>2020-12-20T10:09:36.850000+00:00</time>
      </trkpt>
      <trkpt lat="47.34133" lon="-1.32779">
        <ele>121</ele>
        <time>2020-12-20T10:09:37.767000+00:00</time>
      </trkpt>
      <trkpt lat="0" lon="0">
        <time>2020-12-20T10:09:37.789000+00:00</time>
      </trkpt>
      <trkpt lat="0" lon="0">
        <time>2020-12-20T10:09:37.793000+00:00</time>
      </trkpt>
      <trkpt lat="0" lon="0">
        <time>2020-12-20T10:09:37.795000+00:00</time>
      </trkpt>
      <trkpt lat="47.34131" lon="-1.32782">
        <ele>121</ele>
        <time>2020-12-20T10:09:38.800000+00:00</time>
      </trkpt>
      <trkpt lat="0" lon="0">
        <time>2020-12-20T10:09:38.813000+00:00</time>
      </trkpt>
      <trkpt lat="0" lon="0">
        <time>2020-12-20T10:09:38.822000+00:00</time>
      </trkpt>
      <trkpt lat="0" lon="0">
        <time>2020-12-20T10:09:38.829000+00:00</time>
      </trkpt>
      <trkpt lat="47.34129" lon="-1.32784">
        <ele>121</ele>
        <time>2020-12-20T10:09:39.752000+00:00</time>
      </trkpt>
      <trkpt lat="0" lon="0">
        <time>2020-12-20T10:09:39.762000+00:00</time>
      </trkpt>
      <trkpt lat="0" lon="0">
        <time>2020-12-20T10:09:39.768000+00:00</time>
      </trkpt>
      <trkpt lat="0" lon="0">
        <time>2020-12-20T10:09:39.772000+00:00</time>
      </trkpt>
      <trkpt lat="47.34127" lon="-1.32787">
        <ele>121</ele>
        <time>2020-12-20T10:09:40.778000+00:00</time>
      </trkpt>
      <trkpt lat="0" lon="0">
        <time>2020-12-20T10:09:40.789000+00:00</time>
      </trkpt>
      <trkpt lat="0" lon="0">
        <time>2020-12-20T10:09:40.794000+00:00</time>
      </trkpt>
      <trkpt lat="0" lon="0">
        <time>2020-12-20T10:09:40.798000+00:00</time>
      </trkpt>
      <trkpt lat="47.34126" lon="-1.3279">
        <ele>121</ele>
        <time>2020-12-20T10:09:41.758000+00:00</time>
      </trkpt>
      <trkpt lat="0" lon="0">
        <time>2020-12-20T10:09:41.770000+00:00</time>
      </trkpt>
      <trkpt lat="0" lon="0">
        <time>2020-12-20T10:09:41.773000+00:00</time>
      </trkpt>
      <trkpt lat="0" lon="0">
        <time>2020-12-20T10:09:41.775000+00:00</time>
      </trkpt>
      <trkpt lat="47.34124" lon="-1.32793">
        <ele>121</ele>
        <time>2020-12-20T10:09:42.749000+00:00</time>
      </trkpt>
      <trkpt lat="0" lon="0">
        <time>2020-12-20T10:09:42.759000+00:00</time>
      </trkpt>
      <trkpt lat="0" lon="0">
        <time>2020-12-20T10:09:42.763000+00:00</time>
      </trkpt>
      <trkpt lat="0" lon="0">
        <time>2020-12-20T10:09:42.765000+00:00</time>
      </trkpt>
      <trkpt lat="47.34123" lon="-1.32795">
        <ele>121</ele>
        <time>2020-12-20T10:09:43.764000+00:00</time>
      </trkpt>
      <trkpt lat="0" lon="0">
        <time>2020-12-20T10:09:43.776000+00:00</time>
      </trkpt>
      <trkpt lat="0" lon="0">
        <time>2020-12-20T10:09:43.780000+00:00</time>
      </trkpt>
      <trkpt lat="0" lon="0">
        <time>2020-12-20T10:09:43.783000+00:00</time>
      </trkpt>
      <trkpt lat="47.34122" lon="-1.32797">
        <ele>121</ele>
        <time>2020-12-20T10:09:44.742000+00:00</time>
      </trkpt>
      <trkpt lat="0" lon="0">
        <time>2020-12-20T10:09:44.759000+00:00</time>
      </trkpt>
      <trkpt lat="0" lon="0">
        <time>2020-12-20T10:09:44.775000+00:00</time>
      </trkpt>
      <trkpt lat="0" lon="0">
        <time>2020-12-20T10:09:44.777000+00:00</time>
      </trkpt>
      <trkpt lat="47.3412" lon="-1.32799">
        <ele>121</ele>
        <time>2020-12-20T10:09:45.807000+00:00</time>
      </trkpt>
      <trkpt lat="0" lon="0">
        <time>2020-12-20T10:09:45.826000+00:00</time>
      </trkpt>
      <trkpt lat="0" lon="0">
        <time>2020-12-20T10:09:45.830000+00:00</time>
      </trkpt>
      <trkpt lat="0" lon="0">
        <time>2020-12-20T10:09:45.835000+00:00</time>
      </trkpt>
      <trkpt lat="47.34119" lon="-1.32802">
        <ele>121</ele>
        <time>2020-12-20T10:09:46.767000+00:00</time>
      </trkpt>
      <trkpt lat="0" lon="0">
        <time>2020-12-20T10:09:46.773000+00:00</time>
      </trkpt>
      <trkpt lat="0" lon="0">
        <time>2020-12-20T10:09:46.778000+00:00</time>
      </trkpt>
      <trkpt lat="0" lon="0">
        <time>2020-12-20T10:09:46.780000+00:00</time>
      </trkpt>
      <trkpt lat="47.34117" lon="-1.32805">
        <ele>121</ele>
        <time>2020-12-20T10:09:47.706000+00:00</time>
      </trkpt>
      <trkpt lat="0" lon="0">
        <time>2020-12-20T10:09:47.707000+00:00</time>
      </trkpt>
      <trkpt lat="0" lon="0">
        <time>2020-12-20T10:09:47.709000+00:00</time>
      </trkpt>
      <trkpt lat="47.34116" lon="-1.32807">
        <ele>121</ele>
        <time>2020-12-20T10:09:48.772000+00:00</time>
      </trkpt>
      <trkpt lat="0" lon="0">
        <time>2020-12-20T10:09:48.777000+00:00</time>
      </trkpt>
      <trkpt lat="0" lon="0">
        <time>2020-12-20T10:09:48.780000+00:00</time>
      </trkpt>
      <trkpt lat="0" lon="0">
        <time>2020-12-20T10:09:48.784000+00:00</time>
      </trkpt>
      <trkpt lat="47.34114" lon="-1.3281">
        <ele>120</ele>
        <time>2020-12-20T10:09:49.720000+00:00</time>
      </trkpt>
      <trkpt lat="0" lon="0">
        <time>2020-12-20T10:09:49.724000+00:00</time>
      </trkpt>
      <trkpt lat="0" lon="0">
        <time>2020-12-20T10:09:49.735000+00:00</time>
      </trkpt>
      <trkpt lat="0" lon="0">
        <time>2020-12-20T10:09:49.743000+00:00</time>
      </trkpt>
      <trkpt lat="47.34112" lon="-1.32813">
        <ele>120</ele>
        <time>2020-12-20T10:09:50.740000+00:00</time>
      </trkpt>
      <trkpt lat="0" lon="0">
        <time>2020-12-20T10:09:50.752000+00:00</time>
      </trkpt>
      <trkpt lat="0" lon="0">
        <time>2020-12-20T10:09:50.758000+00:00</time>
      </trkpt>
      <trkpt lat="0" lon="0">
        <time>2020-12-20T10:09:50.763000+00:00</time>
      </trkpt>
      <trkpt lat="47.3411" lon="-1.32816">
        <ele>120</ele>
        <time>2020-12-20T10:09:51.758000+00:00</time>
      </trkpt>
      <trkpt lat="0" lon="0">
        <time>2020-12-20T10:09:51.764000+00:00</time>
      </trkpt>
      <trkpt lat="0" lon="0">
        <time>2020-12-20T10:09:51.771000+00:00</time>
      </trkpt>
      <trkpt lat="0" lon="0">
        <time>2020-12-20T10:09:51.774000+00:00</time>
      </trkpt>
      <trkpt lat="47.34108" lon="-1.3282">
        <ele>120</ele>
        <time>2020-12-20T10:09:52.780000+00:00</time>
      </trkpt>
      <trkpt lat="0" lon="0">
        <time>2020-12-20T10:09:52.798000+00:00</time>
      </trkpt>
      <trkpt lat="0" lon="0">
        <time>2020-12-20T10:09:52.804000+00:00</time>
      </trkpt>
      <trkpt lat="0" lon="0">
        <time>2020-12-20T10:09:52.813000+00:00</time>
      </trkpt>
      <trkpt lat="47.34106" lon="-1.32823">
        <ele>120</ele>
        <time>2020-12-20T10:09:53.726000+00:00</time>
      </trkpt>
      <trkpt lat="0" lon="0">
        <time>2020-12-20T10:09:53.733000+00:00</time>
      </trkpt>
      <trkpt lat="0" lon="0">
        <time>2020-12-20T10:09:53.737000+00:00</time>
      </trkpt>
      <trkpt lat="0" lon="0">
        <time>2020-12-20T10:09:53.740000+00:00</time>
      </trkpt>
      <trkpt lat="47.34103" lon="-1.32827">
        <ele>119</ele>
        <time>2020-12-20T10:09:54.688000+00:00</time>
      </trkpt>
      <trkpt lat="0" lon="0">
        <time>2020-12-20T10:09:54.690000+00:00</time>
      </trkpt>
      <trkpt lat="0" lon="0">
        <time>2020-12-20T10:09:54.693000+00:00</time>
      </trkpt>
      <trkpt lat="0" lon="0">
        <time>2020-12-20T10:09:54.694000+00:00</time>
      </trkpt>
      <trkpt lat="47.34101" lon="-1.32831">
        <ele>119</ele>
        <time>2020-12-20T10:09:55.681000+00:00</time>
      </trkpt>
      <trkpt lat="0" lon="0">
        <time>2020-12-20T10:09:55.684000+00:00</time>
      </trkpt>
      <trkpt lat="0" lon="0">
        <time>2020-12-20T10:09:55.690000+00:00</time>
      </trkpt>
      <trkpt lat="0" lon="0">
        <time>2020-12-20T10:09:55.693000+00:00</time>
      </trkpt>
      <trkpt lat="47.341" lon="-1.32835">
        <ele>119</ele>
        <time>2020-12-20T10:09:56.740000+00:00</time>
      </trkpt>
      <trkpt lat="0" lon="0">
        <time>2020-12-20T10:09:56.754000+00:00</time>
      </trkpt>
      <trkpt lat="0" lon="0">
        <time>2020-12-20T10:09:56.758000+00:00</time>
      </trkpt>
      <trkpt lat="0" lon="0">
        <time>2020-12-20T10:09:56.761000+00:00</time>
      </trkpt>
      <trkpt lat="47.34098" lon="-1.32839">
        <ele>118</ele>
        <time>2020-12-20T10:09:57.716000+00:00</time>
      </trkpt>
      <trkpt lat="0" lon="0">
        <time>2020-12-20T10:09:57.721000+00:00</time>
      </trkpt>
      <trkpt lat="0" lon="0">
        <time>2020-12-20T10:09:57.732000+00:00</time>
      </trkpt>
      <trkpt lat="0" lon="0">
        <time>2020-12-20T10:09:57.733000+00:00</time>
      </trkpt>
      <trkpt lat="47.34096" lon="-1.32843">
        <ele>117</ele>
        <time>2020-12-20T10:09:58.749000+00:00</time>
      </trkpt>
      <trkpt lat="0" lon="0">
        <time>2020-12-20T10:09:58.771000+00:00</time>
      </trkpt>
      <trkpt lat="0" lon="0">
        <time>2020-12-20T10:09:58.775000+00:00</time>
      </trkpt>
      <trkpt lat="0" lon="0">
        <time>2020-12-20T10:09:58.778000+00:00</time>
      </trkpt>
      <trkpt lat="47.34094" lon="-1.32848">
        <ele>117</ele>
        <time>2020-12-20T10:09:59.752000+00:00</time>
      </trkpt>
      <trkpt lat="0" lon="0">
        <time>2020-12-20T10:09:59.762000+00:00</time>
      </trkpt>
      <trkpt lat="0" lon="0">
        <time>2020-12-20T10:09:59.772000+00:00</time>
      </trkpt>
      <trkpt lat="0" lon="0">
        <time>2020-12-20T10:09:59.774000+00:00</time>
      </trkpt>
      <trkpt lat="47.34093" lon="-1.32853">
        <ele>116</ele>
        <time>2020-12-20T10:10:00.786000+00:00</time>
      </trkpt>
      <trkpt lat="0" lon="0">
        <time>2020-12-20T10:10:00.805000+00:00</time>
      </trkpt>
      <trkpt lat="0" lon="0">
        <time>2020-12-20T10:10:00.816000+00:00</time>
      </trkpt>
      <trkpt lat="0" lon="0">
        <time>2020-12-20T10:10:00.822000+00:00</time>
      </trkpt>
      <trkpt lat="47.34091" lon="-1.32857">
        <ele>116</ele>
        <time>2020-12-20T10:10:01.753000+00:00</time>
      </trkpt>
      <trkpt lat="0" lon="0">
        <time>2020-12-20T10:10:01.773000+00:00</time>
      </trkpt>
      <trkpt lat="0" lon="0">
        <time>2020-12-20T10:10:01.781000+00:00</time>
      </trkpt>
      <trkpt lat="0" lon="0">
        <time>2020-12-20T10:10:01.783000+00:00</time>
      </trkpt>
      <trkpt lat="47.34089" lon="-1.32861">
        <ele>116</ele>
        <time>2020-12-20T10:10:02.731000+00:00</time>
      </trkpt>
      <trkpt lat="0" lon="0">
        <time>2020-12-20T10:10:02.740000+00:00</time>
      </trkpt>
      <trkpt lat="0" lon="0">
        <time>2020-12-20T10:10:02.746000+00:00</time>
      </trkpt>
      <trkpt lat="0" lon="0">
        <time>2020-12-20T10:10:02.750000+00:00</time>
      </trkpt>
      <trkpt lat="47.34087" lon="-1.32866">
        <ele>115</ele>
        <time>2020-12-20T10:10:03.696000+00:00</time>
      </trkpt>
      <trkpt lat="0" lon="0">
        <time>2020-12-20T10:10:03.697000+00:00</time>
      </trkpt>
      <trkpt lat="0" lon="0">
        <time>2020-12-20T10:10:03.698000+00:00</time>
      </trkpt>
      <trkpt lat="47.34085" lon="-1.3287">
        <ele>115</ele>
        <time>2020-12-20T10:10:04.732000+00:00</time>
      </trkpt>
      <trkpt lat="0" lon="0">
        <time>2020-12-20T10:10:04.736000+00:00</time>
      </trkpt>
      <trkpt lat="0" lon="0">
        <time>2020-12-20T10:10:04.746000+00:00</time>
      </trkpt>
      <trkpt lat="0" lon="0">
        <time>2020-12-20T10:10:04.748000+00:00</time>
      </trkpt>
      <trkpt lat="47.34084" lon="-1.32873">
        <ele>115</ele>
        <time>2020-12-20T10:10:05.758000+00:00</time>
      </trkpt>
      <trkpt lat="0" lon="0">
        <time>2020-12-20T10:10:05.765000+00:00</time>
      </trkpt>
      <trkpt lat="0" lon="0">
        <time>2020-12-20T10:10:05.773000+00:00</time>
      </trkpt>
      <trkpt lat="0" lon="0">
        <time>2020-12-20T10:10:05.775000+00:00</time>
      </trkpt>
      <trkpt lat="47.34082" lon="-1.32877">
        <ele>114</ele>
        <time>2020-12-20T10:10:06.721000+00:00</time>
      </trkpt>
      <trkpt lat="0" lon="0">
        <time>2020-12-20T10:10:06.727000+00:00</time>
      </trkpt>
      <trkpt lat="0" lon="0">
        <time>2020-12-20T10:10:06.730000+00:00</time>
      </trkpt>
      <trkpt lat="0" lon="0">
        <time>2020-12-20T10:10:06.731000+00:00</time>
      </trkpt>
      <trkpt lat="47.3408" lon="-1.3288">
        <ele>114</ele>
        <time>2020-12-20T10:10:07.738000+00:00</time>
      </trkpt>
      <trkpt lat="0" lon="0">
        <time>2020-12-20T10:10:07.745000+00:00</time>
      </trkpt>
      <trkpt lat="0" lon="0">
        <time>2020-12-20T10:10:07.750000+00:00</time>
      </trkpt>
      <trkpt lat="0" lon="0">
        <time>2020-12-20T10:10:07.753000+00:00</time>
      </trkpt>
      <trkpt lat="47.34078" lon="-1.32883">
        <ele>114</ele>
        <time>2020-12-20T10:10:08.753000+00:00</time>
      </trkpt>
      <trkpt lat="0" lon="0">
        <time>2020-12-20T10:10:08.762000+00:00</time>
      </trkpt>
      <trkpt lat="0" lon="0">
        <time>2020-12-20T10:10:08.769000+00:00</time>
      </trkpt>
      <trkpt lat="0" lon="0">
        <time>2020-12-20T10:10:08.771000+00:00</time>
      </trkpt>
      <trkpt lat="47.34076" lon="-1.32886">
        <ele>113</ele>
        <time>2020-12-20T10:10:09.735000+00:00</time>
      </trkpt>
      <trkpt lat="0" lon="0">
        <time>2020-12-20T10:10:09.740000+00:00</time>
      </trkpt>
      <trkpt lat="0" lon="0">
        <time>2020-12-20T10:10:09.746000+00:00</time>
      </trkpt>
      <trkpt lat="0" lon="0">
        <time>2020-12-20T10:10:09.748000+00:00</time>
      </trkpt>
      <trkpt lat="47.34074" lon="-1.32889">
        <ele>113</ele>
        <time>2020-12-20T10:10:10.729000+00:00</time>
      </trkpt>
      <trkpt lat="0" lon="0">
        <time>2020-12-20T10:10:10.737000+00:00</time>
      </trkpt>
      <trkpt lat="0" lon="0">
        <time>2020-12-20T10:10:10.748000+00:00</time>
      </trkpt>
      <trkpt lat="0" lon="0">
        <time>2020-12-20T10:10:10.749000+00:00</time>
      </trkpt>
      <trkpt lat="47.34073" lon="-1.32892">
        <ele>112</ele>
        <time>2020-12-20T10:10:11.762000+00:00</time>
      </trkpt>
      <trkpt lat="0" lon="0">
        <time>2020-12-20T10:10:11.775000+00:00</time>
      </trkpt>
      <trkpt lat="0" lon="0">
        <time>2020-12-20T10:10:11.779000+00:00</time>
      </trkpt>
      <trkpt lat="0" lon="0">
        <time>2020-12-20T10:10:11.785000+00:00</time>
      </trkpt>
      <trkpt lat="47.34071" lon="-1.32895">
        <ele>111</ele>
        <time>2020-12-20T10:10:12.745000+00:00</time>
      </trkpt>
      <trkpt lat="0" lon="0">
        <time>2020-12-20T10:10:12.757000+00:00</time>
      </trkpt>
      <trkpt lat="0" lon="0">
        <time>2020-12-20T10:10:12.765000+00:00</time>
      </trkpt>
      <trkpt lat="0" lon="0">
        <time>2020-12-20T10:10:12.771000+00:00</time>
      </trkpt>
      <trkpt lat="47.3407" lon="-1.32898">
        <ele>111</ele>
        <time>2020-12-20T10:10:13.756000+00:00</time>
      </trkpt>
      <trkpt lat="0" lon="0">
        <time>2020-12-20T10:10:13.765000+00:00</time>
      </trkpt>
      <trkpt lat="0" lon="0">
        <time>2020-12-20T10:10:13.776000+00:00</time>
      </trkpt>
      <trkpt lat="0" lon="0">
        <time>2020-12-20T10:10:13.780000+00:00</time>
      </trkpt>
      <trkpt lat="47.34069" lon="-1.329">
        <ele>110</ele>
        <time>2020-12-20T10:10:14.723000+00:00</time>
      </trkpt>
      <trkpt lat="0" lon="0">
        <time>2020-12-20T10:10:14.735000+00:00</time>
      </trkpt>
      <trkpt lat="0" lon="0">
        <time>2020-12-20T10:10:14.744000+00:00</time>
      </trkpt>
      <trkpt lat="0" lon="0">
        <time>2020-12-20T10:10:14.746000+00:00</time>
      </trkpt>
      <trkpt lat="47.34067" lon="-1.32903">
        <ele>110</ele>
        <time>2020-12-20T10:10:15.672000+00:00</time>
      </trkpt>
      <trkpt lat="0" lon="0">
        <time>2020-12-20T10:10:15.680000+00:00</time>
      </trkpt>
      <trkpt lat="0" lon="0">
        <time>2020-12-20T10:10:15.683000+00:00</time>
      </trkpt>
      <trkpt lat="0" lon="0">
        <time>2020-12-20T10:10:15.685000+00:00</time>
      </trkpt>
      <trkpt lat="47.34066" lon="-1.32905">
        <ele>110</ele>
        <time>2020-12-20T10:10:16.696000+00:00</time>
      </trkpt>
      <trkpt lat="0" lon="0">
        <time>2020-12-20T10:10:16.701000+00:00</time>
      </trkpt>
      <trkpt lat="0" lon="0">
        <time>2020-12-20T10:10:16.704000+00:00</time>
      </trkpt>
      <trkpt lat="0" lon="0">
        <time>2020-12-20T10:10:16.706000+00:00</time>
      </trkpt>
      <trkpt lat="47.34065" lon="-1.32906">
        <ele>111</ele>
        <time>2020-12-20T10:10:17.691000+00:00</time>
      </trkpt>
      <trkpt lat="0" lon="0">
        <time>2020-12-20T10:10:17.700000+00:00</time>
      </trkpt>
      <trkpt lat="0" lon="0">
        <time>2020-12-20T10:10:17.705000+00:00</time>
      </trkpt>
      <trkpt lat="0" lon="0">
        <time>2020-12-20T10:10:17.709000+00:00</time>
      </trkpt>
      <trkpt lat="47.34065" lon="-1.32907">
        <ele>112</ele>
        <time>2020-12-20T10:10:18.664000+00:00</time>
      </trkpt>
      <trkpt lat="0" lon="0">
        <time>2020-12-20T10:10:18.671000+00:00</time>
      </trkpt>
      <trkpt lat="0" lon="0">
        <time>2020-12-20T10:10:18.673000+00:00</time>
      </trkpt>
      <trkpt lat="0" lon="0">
        <time>2020-12-20T10:10:18.674000+00:00</time>
      </trkpt>
      <trkpt lat="47.34064" lon="-1.32908">
        <ele>112</ele>
        <time>2020-12-20T10:10:19.666000+00:00</time>
      </trkpt>
      <trkpt lat="0" lon="0">
        <time>2020-12-20T10:10:19.678000+00:00</time>
      </trkpt>
      <trkpt lat="0" lon="0">
        <time>2020-12-20T10:10:19.683000+00:00</time>
      </trkpt>
      <trkpt lat="0" lon="0">
        <time>2020-12-20T10:10:19.684000+00:00</time>
      </trkpt>
      <trkpt lat="47.34064" lon="-1.32909">
        <ele>112</ele>
        <time>2020-12-20T10:10:20.736000+00:00</time>
      </trkpt>
      <trkpt lat="0" lon="0">
        <time>2020-12-20T10:10:20.747000+00:00</time>
      </trkpt>
      <trkpt lat="0" lon="0">
        <time>2020-12-20T10:10:20.752000+00:00</time>
      </trkpt>
      <trkpt lat="0" lon="0">
        <time>2020-12-20T10:10:20.754000+00:00</time>
      </trkpt>
      <trkpt lat="47.34063" lon="-1.32909">
        <ele>114</ele>
        <time>2020-12-20T10:10:21.746000+00:00</time>
      </trkpt>
      <trkpt lat="0" lon="0">
        <time>2020-12-20T10:10:21.751000+00:00</time>
      </trkpt>
      <trkpt lat="0" lon="0">
        <time>2020-12-20T10:10:21.756000+00:00</time>
      </trkpt>
      <trkpt lat="0" lon="0">
        <time>2020-12-20T10:10:21.760000+00:00</time>
      </trkpt>
      <trkpt lat="47.34062" lon="-1.3291">
        <ele>114</ele>
        <time>2020-12-20T10:10:22.762000+00:00</time>
      </trkpt>
      <trkpt lat="0" lon="0">
        <time>2020-12-20T10:10:22.768000+00:00</time>
      </trkpt>
      <trkpt lat="0" lon="0">
        <time>2020-12-20T10:10:22.774000+00:00</time>
      </trkpt>
      <trkpt lat="0" lon="0">
        <time>2020-12-20T10:10:22.780000+00:00</time>
      </trkpt>
      <trkpt lat="47.34061" lon="-1.32911">
        <ele>114</ele>
        <time>2020-12-20T10:10:23.733000+00:00</time>
      </trkpt>
      <trkpt lat="0" lon="0">
        <time>2020-12-20T10:10:23.744000+00:00</time>
      </trkpt>
      <trkpt lat="0" lon="0">
        <time>2020-12-20T10:10:23.751000+00:00</time>
      </trkpt>
      <trkpt lat="0" lon="0">
        <time>2020-12-20T10:10:23.753000+00:00</time>
      </trkpt>
      <trkpt lat="47.3406" lon="-1.32913">
        <ele>112</ele>
        <time>2020-12-20T10:10:24.707000+00:00</time>
      </trkpt>
      <trkpt lat="0" lon="0">
        <time>2020-12-20T10:10:24.725000+00:00</time>
      </trkpt>
      <trkpt lat="0" lon="0">
        <time>2020-12-20T10:10:24.731000+00:00</time>
      </trkpt>
      <trkpt lat="0" lon="0">
        <time>2020-12-20T10:10:24.733000+00:00</time>
      </trkpt>
      <trkpt lat="47.34059" lon="-1.32915">
        <ele>112</ele>
        <time>2020-12-20T10:10:25.697000+00:00</time>
      </trkpt>
      <trkpt lat="0" lon="0">
        <time>2020-12-20T10:10:25.703000+00:00</time>
      </trkpt>
      <trkpt lat="0" lon="0">
        <time>2020-12-20T10:10:25.714000+00:00</time>
      </trkpt>
      <trkpt lat="0" lon="0">
        <time>2020-12-20T10:10:25.719000+00:00</time>
      </trkpt>
      <trkpt lat="47.34058" lon="-1.32917">
        <ele>112</ele>
        <time>2020-12-20T10:10:26.779000+00:00</time>
      </trkpt>
      <trkpt lat="0" lon="0">
        <time>2020-12-20T10:10:26.781000+00:00</time>
      </trkpt>
      <trkpt lat="0" lon="0">
        <time>2020-12-20T10:10:26.785000+00:00</time>
      </trkpt>
      <trkpt lat="0" lon="0">
        <time>2020-12-20T10:10:26.786000+00:00</time>
      </trkpt>
      <trkpt lat="47.34056" lon="-1.3292">
        <ele>111</ele>
        <time>2020-12-20T10:10:27.740000+00:00</time>
      </trkpt>
      <trkpt lat="0" lon="0">
        <time>2020-12-20T10:10:27.743000+00:00</time>
      </trkpt>
      <trkpt lat="0" lon="0">
        <time>2020-12-20T10:10:27.746000+00:00</time>
      </trkpt>
      <trkpt lat="0" lon="0">
        <time>2020-12-20T10:10:27.747000+00:00</time>
      </trkpt>
      <trkpt lat="47.34054" lon="-1.32923">
        <ele>110</ele>
        <time>2020-12-20T10:10:28.724000+00:00</time>
      </trkpt>
      <trkpt lat="0" lon="0">
        <time>2020-12-20T10:10:28.728000+00:00</time>
      </trkpt>
      <trkpt lat="0" lon="0">
        <time>2020-12-20T10:10:28.744000+00:00</time>
      </trkpt>
      <trkpt lat="0" lon="0">
        <time>2020-12-20T10:10:28.746000+00:00</time>
      </trkpt>
      <trkpt lat="47.34052" lon="-1.32927">
        <ele>110</ele>
        <time>2020-12-20T10:10:29.733000+00:00</time>
      </trkpt>
      <trkpt lat="0" lon="0">
        <time>2020-12-20T10:10:29.741000+00:00</time>
      </trkpt>
      <trkpt lat="0" lon="0">
        <time>2020-12-20T10:10:29.743000+00:00</time>
      </trkpt>
      <trkpt lat="0" lon="0">
        <time>2020-12-20T10:10:29.744000+00:00</time>
      </trkpt>
      <trkpt lat="47.34049" lon="-1.3293">
        <ele>109</ele>
        <time>2020-12-20T10:10:30.727000+00:00</time>
      </trkpt>
      <trkpt lat="0" lon="0">
        <time>2020-12-20T10:10:30.735000+00:00</time>
      </trkpt>
      <trkpt lat="0" lon="0">
        <time>2020-12-20T10:10:30.737000+00:00</time>
      </trkpt>
      <trkpt lat="0" lon="0">
        <time>2020-12-20T10:10:30.738000+00:00</time>
      </trkpt>
      <trkpt lat="47.34046" lon="-1.32933">
        <ele>108</ele>
        <time>2020-12-20T10:10:31.732000+00:00</time>
      </trkpt>
      <trkpt lat="0" lon="0">
        <time>2020-12-20T10:10:31.745000+00:00</time>
      </trkpt>
      <trkpt lat="0" lon="0">
        <time>2020-12-20T10:10:31.747000+00:00</time>
      </trkpt>
      <trkpt lat="0" lon="0">
        <time>2020-12-20T10:10:31.750000+00:00</time>
      </trkpt>
      <trkpt lat="47.34042" lon="-1.32936">
        <ele>107</ele>
        <time>2020-12-20T10:10:32.729000+00:00</time>
      </trkpt>
      <trkpt lat="0" lon="0">
        <time>2020-12-20T10:10:32.733000+00:00</time>
      </trkpt>
      <trkpt lat="0" lon="0">
        <time>2020-12-20T10:10:32.738000+00:00</time>
      </trkpt>
      <trkpt lat="0" lon="0">
        <time>2020-12-20T10:10:32.741000+00:00</time>
      </trkpt>
      <trkpt lat="47.34039" lon="-1.32939">
        <ele>107</ele>
        <time>2020-12-20T10:10:33.741000+00:00</time>
      </trkpt>
      <trkpt lat="0" lon="0">
        <time>2020-12-20T10:10:33.748000+00:00</time>
      </trkpt>
      <trkpt lat="0" lon="0">
        <time>2020-12-20T10:10:33.754000+00:00</time>
      </trkpt>
      <trkpt lat="0" lon="0">
        <time>2020-12-20T10:10:33.757000+00:00</time>
      </trkpt>
      <trkpt lat="47.34035" lon="-1.32942">
        <ele>106</ele>
        <time>2020-12-20T10:10:34.756000+00:00</time>
      </trkpt>
      <trkpt lat="0" lon="0">
        <time>2020-12-20T10:10:34.767000+00:00</time>
      </trkpt>
      <trkpt lat="0" lon="0">
        <time>2020-12-20T10:10:34.769000+00:00</time>
      </trkpt>
      <trkpt lat="0" lon="0">
        <time>2020-12-20T10:10:34.771000+00:00</time>
      </trkpt>
      <trkpt lat="47.34031" lon="-1.32944">
        <ele>106</ele>
        <time>2020-12-20T10:10:35.759000+00:00</time>
      </trkpt>
      <trkpt lat="0" lon="0">
        <time>2020-12-20T10:10:35.771000+00:00</time>
      </trkpt>
      <trkpt lat="0" lon="0">
        <time>2020-12-20T10:10:35.777000+00:00</time>
      </trkpt>
      <trkpt lat="0" lon="0">
        <time>2020-12-20T10:10:35.781000+00:00</time>
      </trkpt>
      <trkpt lat="47.34027" lon="-1.32947">
        <ele>105</ele>
        <time>2020-12-20T10:10:36.752000+00:00</time>
      </trkpt>
      <trkpt lat="0" lon="0">
        <time>2020-12-20T10:10:36.760000+00:00</time>
      </trkpt>
      <trkpt lat="0" lon="0">
        <time>2020-12-20T10:10:36.765000+00:00</time>
      </trkpt>
      <trkpt lat="0" lon="0">
        <time>2020-12-20T10:10:36.769000+00:00</time>
      </trkpt>
      <trkpt lat="47.34024" lon="-1.3295">
        <ele>105</ele>
        <time>2020-12-20T10:10:37.778000+00:00</time>
      </trkpt>
      <trkpt lat="0" lon="0">
        <time>2020-12-20T10:10:37.783000+00:00</time>
      </trkpt>
      <trkpt lat="0" lon="0">
        <time>2020-12-20T10:10:37.789000+00:00</time>
      </trkpt>
      <trkpt lat="0" lon="0">
        <time>2020-12-20T10:10:37.791000+00:00</time>
      </trkpt>
      <trkpt lat="47.3402" lon="-1.32953">
        <ele>104</ele>
        <time>2020-12-20T10:10:38.773000+00:00</time>
      </trkpt>
      <trkpt lat="0" lon="0">
        <time>2020-12-20T10:10:38.778000+00:00</time>
      </trkpt>
      <trkpt lat="0" lon="0">
        <time>2020-12-20T10:10:38.785000+00:00</time>
      </trkpt>
      <trkpt lat="0" lon="0">
        <time>2020-12-20T10:10:38.788000+00:00</time>
      </trkpt>
      <trkpt lat="47.34016" lon="-1.32956">
        <ele>103</ele>
        <time>2020-12-20T10:10:39.775000+00:00</time>
      </trkpt>
      <trkpt lat="0" lon="0">
        <time>2020-12-20T10:10:39.783000+00:00</time>
      </trkpt>
      <trkpt lat="0" lon="0">
        <time>2020-12-20T10:10:39.787000+00:00</time>
      </trkpt>
      <trkpt lat="0" lon="0">
        <time>2020-12-20T10:10:39.790000+00:00</time>
      </trkpt>
      <trkpt lat="47.34012" lon="-1.32959">
        <ele>102</ele>
        <time>2020-12-20T10:10:40.770000+00:00</time>
      </trkpt>
      <trkpt lat="0" lon="0">
        <time>2020-12-20T10:10:40.795000+00:00</time>
      </trkpt>
      <trkpt lat="0" lon="0">
        <time>2020-12-20T10:10:40.797000+00:00</time>
      </trkpt>
      <trkpt lat="0" lon="0">
        <time>2020-12-20T10:10:40.798000+00:00</time>
      </trkpt>
      <trkpt lat="47.34009" lon="-1.32963">
        <ele>102</ele>
        <time>2020-12-20T10:10:41.773000+00:00</time>
      </trkpt>
      <trkpt lat="0" lon="0">
        <time>2020-12-20T10:10:41.778000+00:00</time>
      </trkpt>
      <trkpt lat="0" lon="0">
        <time>2020-12-20T10:10:41.781000+00:00</time>
      </trkpt>
      <trkpt lat="0" lon="0">
        <time>2020-12-20T10:10:41.782000+00:00</time>
      </trkpt>
      <trkpt lat="47.34006" lon="-1.32966">
        <ele>101</ele>
        <time>2020-12-20T10:10:42.749000+00:00</time>
      </trkpt>
      <trkpt lat="0" lon="0">
        <time>2020-12-20T10:10:42.762000+00:00</time>
      </trkpt>
      <trkpt lat="0" lon="0">
        <time>2020-12-20T10:10:42.767000+00:00</time>
      </trkpt>
      <trkpt lat="0" lon="0">
        <time>2020-12-20T10:10:42.772000+00:00</time>
      </trkpt>
      <trkpt lat="47.34002" lon="-1.32969">
        <ele>100</ele>
        <time>2020-12-20T10:10:43.773000+00:00</time>
      </trkpt>
      <trkpt lat="0" lon="0">
        <time>2020-12-20T10:10:43.778000+00:00</time>
      </trkpt>
      <trkpt lat="0" lon="0">
        <time>2020-12-20T10:10:43.786000+00:00</time>
      </trkpt>
      <trkpt lat="0" lon="0">
        <time>2020-12-20T10:10:43.797000+00:00</time>
      </trkpt>
      <trkpt lat="47.34" lon="-1.32972">
        <ele>100</ele>
        <time>2020-12-20T10:10:44.775000+00:00</time>
      </trkpt>
      <trkpt lat="0" lon="0">
        <time>2020-12-20T10:10:44.787000+00:00</time>
      </trkpt>
      <trkpt lat="0" lon="0">
        <time>2020-12-20T10:10:44.791000+00:00</time>
      </trkpt>
      <trkpt lat="0" lon="0">
        <time>2020-12-20T10:10:44.794000+00:00</time>
      </trkpt>
      <trkpt lat="47.33998" lon="-1.32974">
        <ele>100</ele>
        <time>2020-12-20T10:10:45.787000+00:00</time>
      </trkpt>
      <trkpt lat="0" lon="0">
        <time>2020-12-20T10:10:45.794000+00:00</time>
      </trkpt>
      <trkpt lat="0" lon="0">
        <time>2020-12-20T10:10:45.799000+00:00</time>
      </trkpt>
      <trkpt lat="0" lon="0">
        <time>2020-12-20T10:10:45.801000+00:00</time>
      </trkpt>
      <trkpt lat="47.33996" lon="-1.32977">
        <ele>99</ele>
        <time>2020-12-20T10:10:46.768000+00:00</time>
      </trkpt>
      <trkpt lat="0" lon="0">
        <time>2020-12-20T10:10:46.771000+00:00</time>
      </trkpt>
      <trkpt lat="0" lon="0">
        <time>2020-12-20T10:10:46.772000+00:00</time>
      </trkpt>
      <trkpt lat="0" lon="0">
        <time>2020-12-20T10:10:46.773000+00:00</time>
      </trkpt>
      <trkpt lat="47.33993" lon="-1.3298">
        <ele>99</ele>
        <time>2020-12-20T10:10:47.800000+00:00</time>
      </trkpt>
      <trkpt lat="0" lon="0">
        <time>2020-12-20T10:10:47.803000+00:00</time>
      </trkpt>
      <trkpt lat="0" lon="0">
        <time>2020-12-20T10:10:47.811000+00:00</time>
      </trkpt>
      <trkpt lat="0" lon="0">
        <time>2020-12-20T10:10:47.813000+00:00</time>
      </trkpt>
      <trkpt lat="47.3399" lon="-1.32983">
        <ele>98</ele>
        <time>2020-12-20T10:10:48.786000+00:00</time>
      </trkpt>
      <trkpt lat="0" lon="0">
        <time>2020-12-20T10:10:48.791000+00:00</time>
      </trkpt>
      <trkpt lat="0" lon="0">
        <time>2020-12-20T10:10:48.794000+00:00</time>
      </trkpt>
      <trkpt lat="0" lon="0">
        <time>2020-12-20T10:10:48.795000+00:00</time>
      </trkpt>
      <trkpt lat="47.33988" lon="-1.32987">
        <ele>97</ele>
        <time>2020-12-20T10:10:49.739000+00:00</time>
      </trkpt>
      <trkpt lat="0" lon="0">
        <time>2020-12-20T10:10:49.746000+00:00</time>
      </trkpt>
      <trkpt lat="0" lon="0">
        <time>2020-12-20T10:10:49.748000+00:00</time>
      </trkpt>
      <trkpt lat="0" lon="0">
        <time>2020-12-20T10:10:49.750000+00:00</time>
      </trkpt>
      <trkpt lat="47.33985" lon="-1.3299">
        <ele>97</ele>
        <time>2020-12-20T10:10:50.737000+00:00</time>
      </trkpt>
      <trkpt lat="0" lon="0">
        <time>2020-12-20T10:10:50.745000+00:00</time>
      </trkpt>
      <trkpt lat="0" lon="0">
        <time>2020-12-20T10:10:50.752000+00:00</time>
      </trkpt>
      <trkpt lat="0" lon="0">
        <time>2020-12-20T10:10:50.755000+00:00</time>
      </trkpt>
      <trkpt lat="47.33983" lon="-1.32994">
        <ele>97</ele>
        <time>2020-12-20T10:10:51.758000+00:00</time>
      </trkpt>
      <trkpt lat="0" lon="0">
        <time>2020-12-20T10:10:51.768000+00:00</time>
      </trkpt>
      <trkpt lat="0" lon="0">
        <time>2020-12-20T10:10:51.774000+00:00</time>
      </trkpt>
      <trkpt lat="0" lon="0">
        <time>2020-12-20T10:10:51.777000+00:00</time>
      </trkpt>
      <trkpt lat="47.3398" lon="-1.32997">
        <ele>96</ele>
        <time>2020-12-20T10:10:52.756000+00:00</time>
      </trkpt>
      <trkpt lat="0" lon="0">
        <time>2020-12-20T10:10:52.776000+00:00</time>
      </trkpt>
      <trkpt lat="0" lon="0">
        <time>2020-12-20T10:10:52.779000+00:00</time>
      </trkpt>
      <trkpt lat="0" lon="0">
        <time>2020-12-20T10:10:52.780000+00:00</time>
      </trkpt>
      <trkpt lat="47.33978" lon="-1.33001">
        <ele>96</ele>
        <time>2020-12-20T10:10:53.742000+00:00</time>
      </trkpt>
      <trkpt lat="0" lon="0">
        <time>2020-12-20T10:10:53.745000+00:00</time>
      </trkpt>
      <trkpt lat="0" lon="0">
        <time>2020-12-20T10:10:53.747000+00:00</time>
      </trkpt>
      <trkpt lat="0" lon="0">
        <time>2020-12-20T10:10:53.748000+00:00</time>
      </trkpt>
      <trkpt lat="47.33976" lon="-1.33005">
        <ele>97</ele>
        <time>2020-12-20T10:10:54.738000+00:00</time>
      </trkpt>
      <trkpt lat="0" lon="0">
        <time>2020-12-20T10:10:54.750000+00:00</time>
      </trkpt>
      <trkpt lat="0" lon="0">
        <time>2020-12-20T10:10:54.754000+00:00</time>
      </trkpt>
      <trkpt lat="0" lon="0">
        <time>2020-12-20T10:10:54.757000+00:00</time>
      </trkpt>
      <trkpt lat="47.33974" lon="-1.33008">
        <ele>96</ele>
        <time>2020-12-20T10:10:55.723000+00:00</time>
      </trkpt>
      <trkpt lat="0" lon="0">
        <time>2020-12-20T10:10:55.730000+00:00</time>
      </trkpt>
      <trkpt lat="0" lon="0">
        <time>2020-12-20T10:10:55.734000+00:00</time>
      </trkpt>
      <trkpt lat="0" lon="0">
        <time>2020-12-20T10:10:55.735000+00:00</time>
      </trkpt>
      <trkpt lat="47.33972" lon="-1.33012">
        <ele>96</ele>
        <time>2020-12-20T10:10:56.770000+00:00</time>
      </trkpt>
      <trkpt lat="0" lon="0">
        <time>2020-12-20T10:10:56.793000+00:00</time>
      </trkpt>
      <trkpt lat="0" lon="0">
        <time>2020-12-20T10:10:56.795000+00:00</time>
      </trkpt>
      <trkpt lat="0" lon="0">
        <time>2020-12-20T10:10:56.797000+00:00</time>
      </trkpt>
      <trkpt lat="47.33971" lon="-1.33014">
        <ele>95</ele>
        <time>2020-12-20T10:10:57.770000+00:00</time>
      </trkpt>
      <trkpt lat="0" lon="0">
        <time>2020-12-20T10:10:57.781000+00:00</time>
      </trkpt>
      <trkpt lat="0" lon="0">
        <time>2020-12-20T10:10:57.783000+00:00</time>
      </trkpt>
      <trkpt lat="0" lon="0">
        <time>2020-12-20T10:10:57.784000+00:00</time>
      </trkpt>
      <trkpt lat="47.33969" lon="-1.33017">
        <ele>95</ele>
        <time>2020-12-20T10:10:58.780000+00:00</time>
      </trkpt>
      <trkpt lat="0" lon="0">
        <time>2020-12-20T10:10:58.786000+00:00</time>
      </trkpt>
      <trkpt lat="0" lon="0">
        <time>2020-12-20T10:10:58.794000+00:00</time>
      </trkpt>
      <trkpt lat="0" lon="0">
        <time>2020-12-20T10:10:58.797000+00:00</time>
      </trkpt>
      <trkpt lat="47.33968" lon="-1.3302">
        <ele>94</ele>
        <time>2020-12-20T10:10:59.762000+00:00</time>
      </trkpt>
      <trkpt lat="0" lon="0">
        <time>2020-12-20T10:10:59.764000+00:00</time>
      </trkpt>
      <trkpt lat="0" lon="0">
        <time>2020-12-20T10:10:59.770000+00:00</time>
      </trkpt>
      <trkpt lat="0" lon="0">
        <time>2020-12-20T10:10:59.771000+00:00</time>
      </trkpt>
      <trkpt lat="47.33967" lon="-1.33022">
        <ele>94</ele>
        <time>2020-12-20T10:11:00.755000+00:00</time>
      </trkpt>
      <trkpt lat="0" lon="0">
        <time>2020-12-20T10:11:00.764000+00:00</time>
      </trkpt>
      <trkpt lat="0" lon="0">
        <time>2020-12-20T10:11:00.769000+00:00</time>
      </trkpt>
      <trkpt lat="0" lon="0">
        <time>2020-12-20T10:11:00.770000+00:00</time>
      </trkpt>
      <trkpt lat="47.33966" lon="-1.33025">
        <ele>94</ele>
        <time>2020-12-20T10:11:01.770000+00:00</time>
      </trkpt>
      <trkpt lat="0" lon="0">
        <time>2020-12-20T10:11:01.780000+00:00</time>
      </trkpt>
      <trkpt lat="0" lon="0">
        <time>2020-12-20T10:11:01.789000+00:00</time>
      </trkpt>
      <trkpt lat="0" lon="0">
        <time>2020-12-20T10:11:01.792000+00:00</time>
      </trkpt>
      <trkpt lat="47.33965" lon="-1.33028">
        <ele>94</ele>
        <time>2020-12-20T10:11:02.778000+00:00</time>
      </trkpt>
      <trkpt lat="0" lon="0">
        <time>2020-12-20T10:11:02.784000+00:00</time>
      </trkpt>
      <trkpt lat="0" lon="0">
        <time>2020-12-20T10:11:02.788000+00:00</time>
      </trkpt>
      <trkpt lat="0" lon="0">
        <time>2020-12-20T10:11:02.792000+00:00</time>
      </trkpt>
      <trkpt lat="47.33964" lon="-1.3303">
        <ele>94</ele>
        <time>2020-12-20T10:11:03.771000+00:00</time>
      </trkpt>
      <trkpt lat="0" lon="0">
        <time>2020-12-20T10:11:03.781000+00:00</time>
      </trkpt>
      <trkpt lat="0" lon="0">
        <time>2020-12-20T10:11:03.788000+00:00</time>
      </trkpt>
      <trkpt lat="0" lon="0">
        <time>2020-12-20T10:11:03.789000+00:00</time>
      </trkpt>
      <trkpt lat="47.33963" lon="-1.33031">
        <ele>94</ele>
        <time>2020-12-20T10:11:04.778000+00:00</time>
      </trkpt>
      <trkpt lat="0" lon="0">
        <time>2020-12-20T10:11:04.783000+00:00</time>
      </trkpt>
      <trkpt lat="0" lon="0">
        <time>2020-12-20T10:11:04.787000+00:00</time>
      </trkpt>
      <trkpt lat="0" lon="0">
        <time>2020-12-20T10:11:04.788000+00:00</time>
      </trkpt>
      <trkpt lat="47.33962" lon="-1.33034">
        <ele>95</ele>
        <time>2020-12-20T10:11:05.738000+00:00</time>
      </trkpt>
      <trkpt lat="0" lon="0">
        <time>2020-12-20T10:11:05.740000+00:00</time>
      </trkpt>
      <trkpt lat="0" lon="0">
        <time>2020-12-20T10:11:05.742000+00:00</time>
      </trkpt>
      <trkpt lat="0" lon="0">
        <time>2020-12-20T10:11:05.743000+00:00</time>
      </trkpt>
      <trkpt lat="47.3396" lon="-1.33037">
        <ele>96</ele>
        <time>2020-12-20T10:11:06.783000+00:00</time>
      </trkpt>
      <trkpt lat="0" lon="0">
        <time>2020-12-20T10:11:06.787000+00:00</time>
      </trkpt>
      <trkpt lat="0" lon="0">
        <time>2020-12-20T10:11:06.792000+00:00</time>
      </trkpt>
      <trkpt lat="0" lon="0">
        <time>2020-12-20T10:11:06.794000+00:00</time>
      </trkpt>
      <trkpt lat="47.33958" lon="-1.3304">
        <ele>97</ele>
        <time>2020-12-20T10:11:07.749000+00:00</time>
      </trkpt>
      <trkpt lat="0" lon="0">
        <time>2020-12-20T10:11:07.756000+00:00</time>
      </trkpt>
      <trkpt lat="0" lon="0">
        <time>2020-12-20T10:11:07.758000+00:00</time>
      </trkpt>
      <trkpt lat="0" lon="0">
        <time>2020-12-20T10:11:07.760000+00:00</time>
      </trkpt>
      <trkpt lat="47.33956" lon="-1.33043">
        <ele>98</ele>
        <time>2020-12-20T10:11:08.754000+00:00</time>
      </trkpt>
      <trkpt lat="0" lon="0">
        <time>2020-12-20T10:11:08.758000+00:00</time>
      </trkpt>
      <trkpt lat="0" lon="0">
        <time>2020-12-20T10:11:08.771000+00:00</time>
      </trkpt>
      <trkpt lat="0" lon="0">
        <time>2020-12-20T10:11:08.773000+00:00</time>
      </trkpt>
      <trkpt lat="47.33954" lon="-1.33046">
        <ele>98</ele>
        <time>2020-12-20T10:11:09.763000+00:00</time>
      </trkpt>
      <trkpt lat="0" lon="0">
        <time>2020-12-20T10:11:09.768000+00:00</time>
      </trkpt>
      <trkpt lat="0" lon="0">
        <time>2020-12-20T10:11:09.777000+00:00</time>
      </trkpt>
      <trkpt lat="0" lon="0">
        <time>2020-12-20T10:11:09.780000+00:00</time>
      </trkpt>
      <trkpt lat="47.33953" lon="-1.33049">
        <ele>99</ele>
        <time>2020-12-20T10:11:10.737000+00:00</time>
      </trkpt>
      <trkpt lat="0" lon="0">
        <time>2020-12-20T10:11:10.747000+00:00</time>
      </trkpt>
      <trkpt lat="0" lon="0">
        <time>2020-12-20T10:11:10.752000+00:00</time>
      </trkpt>
      <trkpt lat="0" lon="0">
        <time>2020-12-20T10:11:10.754000+00:00</time>
      </trkpt>
      <trkpt lat="47.33951" lon="-1.33052">
        <ele>100</ele>
        <time>2020-12-20T10:11:11.750000+00:00</time>
      </trkpt>
      <trkpt lat="0" lon="0">
        <time>2020-12-20T10:11:11.755000+00:00</time>
      </trkpt>
      <trkpt lat="0" lon="0">
        <time>2020-12-20T10:11:11.757000+00:00</time>
      </trkpt>
      <trkpt lat="0" lon="0">
        <time>2020-12-20T10:11:11.758000+00:00</time>
      </trkpt>
      <trkpt lat="47.3395" lon="-1.33055">
        <ele>100</ele>
        <time>2020-12-20T10:11:12.750000+00:00</time>
      </trkpt>
      <trkpt lat="0" lon="0">
        <time>2020-12-20T10:11:12.757000+00:00</time>
      </trkpt>
      <trkpt lat="0" lon="0">
        <time>2020-12-20T10:11:12.764000+00:00</time>
      </trkpt>
      <trkpt lat="0" lon="0">
        <time>2020-12-20T10:11:12.766000+00:00</time>
      </trkpt>
      <trkpt lat="47.33949" lon="-1.33057">
        <ele>100</ele>
        <time>2020-12-20T10:11:13.760000+00:00</time>
      </trkpt>
      <trkpt lat="0" lon="0">
        <time>2020-12-20T10:11:13.776000+00:00</time>
      </trkpt>
      <trkpt lat="0" lon="0">
        <time>2020-12-20T10:11:13.785000+00:00</time>
      </trkpt>
      <trkpt lat="0" lon="0">
        <time>2020-12-20T10:11:13.789000+00:00</time>
      </trkpt>
      <trkpt lat="47.33947" lon="-1.33059">
        <ele>101</ele>
        <time>2020-12-20T10:11:14.738000+00:00</time>
      </trkpt>
      <trkpt lat="0" lon="0">
        <time>2020-12-20T10:11:14.749000+00:00</time>
      </trkpt>
      <trkpt lat="0" lon="0">
        <time>2020-12-20T10:11:14.754000+00:00</time>
      </trkpt>
      <trkpt lat="0" lon="0">
        <time>2020-12-20T10:11:14.758000+00:00</time>
      </trkpt>
      <trkpt lat="47.33946" lon="-1.33062">
        <ele>102</ele>
        <time>2020-12-20T10:11:15.773000+00:00</time>
      </trkpt>
      <trkpt lat="0" lon="0">
        <time>2020-12-20T10:11:15.782000+00:00</time>
      </trkpt>
      <trkpt lat="0" lon="0">
        <time>2020-12-20T10:11:15.784000+00:00</time>
      </trkpt>
      <trkpt lat="0" lon="0">
        <time>2020-12-20T10:11:15.785000+00:00</time>
      </trkpt>
      <trkpt lat="47.33945" lon="-1.33065">
        <ele>102</ele>
        <time>2020-12-20T10:11:16.773000+00:00</time>
      </trkpt>
      <trkpt lat="0" lon="0">
        <time>2020-12-20T10:11:16.790000+00:00</time>
      </trkpt>
      <trkpt lat="0" lon="0">
        <time>2020-12-20T10:11:16.793000+00:00</time>
      </trkpt>
      <trkpt lat="0" lon="0">
        <time>2020-12-20T10:11:16.794000+00:00</time>
      </trkpt>
      <trkpt lat="47.33944" lon="-1.33067">
        <ele>102</ele>
        <time>2020-12-20T10:11:17.763000+00:00</time>
      </trkpt>
      <trkpt lat="0" lon="0">
        <time>2020-12-20T10:11:17.770000+00:00</time>
      </trkpt>
      <trkpt lat="0" lon="0">
        <time>2020-12-20T10:11:17.772000+00:00</time>
      </trkpt>
      <trkpt lat="0" lon="0">
        <time>2020-12-20T10:11:17.773000+00:00</time>
      </trkpt>
      <trkpt lat="47.33943" lon="-1.3307">
        <ele>102</ele>
        <time>2020-12-20T10:11:18.790000+00:00</time>
      </trkpt>
      <trkpt lat="0" lon="0">
        <time>2020-12-20T10:11:18.801000+00:00</time>
      </trkpt>
      <trkpt lat="0" lon="0">
        <time>2020-12-20T10:11:18.806000+00:00</time>
      </trkpt>
      <trkpt lat="0" lon="0">
        <time>2020-12-20T10:11:18.807000+00:00</time>
      </trkpt>
      <trkpt lat="47.33942" lon="-1.33072">
        <ele>102</ele>
        <time>2020-12-20T10:11:19.747000+00:00</time>
      </trkpt>
      <trkpt lat="0" lon="0">
        <time>2020-12-20T10:11:19.760000+00:00</time>
      </trkpt>
      <trkpt lat="0" lon="0">
        <time>2020-12-20T10:11:19.762000+00:00</time>
      </trkpt>
      <trkpt lat="0" lon="0">
        <time>2020-12-20T10:11:19.763000+00:00</time>
      </trkpt>
      <trkpt lat="47.33941" lon="-1.33074">
        <ele>102</ele>
        <time>2020-12-20T10:11:20.769000+00:00</time>
      </trkpt>
      <trkpt lat="0" lon="0">
        <time>2020-12-20T10:11:20.777000+00:00</time>
      </trkpt>
      <trkpt lat="0" lon="0">
        <time>2020-12-20T10:11:20.783000+00:00</time>
      </trkpt>
      <trkpt lat="0" lon="0">
        <time>2020-12-20T10:11:20.785000+00:00</time>
      </trkpt>
      <trkpt lat="47.33941" lon="-1.33076">
        <ele>103</ele>
        <time>2020-12-20T10:11:21.786000+00:00</time>
      </trkpt>
      <trkpt lat="0" lon="0">
        <time>2020-12-20T10:11:21.792000+00:00</time>
      </trkpt>
      <trkpt lat="0" lon="0">
        <time>2020-12-20T10:11:21.796000+00:00</time>
      </trkpt>
      <trkpt lat="0" lon="0">
        <time>2020-12-20T10:11:21.797000+00:00</time>
      </trkpt>
      <trkpt lat="47.3394" lon="-1.33079">
        <ele>103</ele>
        <time>2020-12-20T10:11:22.781000+00:00</time>
      </trkpt>
      <trkpt lat="0" lon="0">
        <time>2020-12-20T10:11:22.792000+00:00</time>
      </trkpt>
      <trkpt lat="0" lon="0">
        <time>2020-12-20T10:11:22.800000+00:00</time>
      </trkpt>
      <trkpt lat="0" lon="0">
        <time>2020-12-20T10:11:22.801000+00:00</time>
      </trkpt>
      <trkpt lat="47.33939" lon="-1.33081">
        <ele>103</ele>
        <time>2020-12-20T10:11:23.772000+00:00</time>
      </trkpt>
      <trkpt lat="0" lon="0">
        <time>2020-12-20T10:11:23.782000+00:00</time>
      </trkpt>
      <trkpt lat="0" lon="0">
        <time>2020-12-20T10:11:23.787000+00:00</time>
      </trkpt>
      <trkpt lat="0" lon="0">
        <time>2020-12-20T10:11:23.789000+00:00</time>
      </trkpt>
      <trkpt lat="47.33938" lon="-1.33083">
        <ele>103</ele>
        <time>2020-12-20T10:11:24.758000+00:00</time>
      </trkpt>
      <trkpt lat="0" lon="0">
        <time>2020-12-20T10:11:24.766000+00:00</time>
      </trkpt>
      <trkpt lat="0" lon="0">
        <time>2020-12-20T10:11:24.772000+00:00</time>
      </trkpt>
      <trkpt lat="0" lon="0">
        <time>2020-12-20T10:11:24.774000+00:00</time>
      </trkpt>
      <trkpt lat="47.33938" lon="-1.33084">
        <ele>103</ele>
        <time>2020-12-20T10:11:25.759000+00:00</time>
      </trkpt>
      <trkpt lat="0" lon="0">
        <time>2020-12-20T10:11:25.761000+00:00</time>
      </trkpt>
      <trkpt lat="0" lon="0">
        <time>2020-12-20T10:11:25.762000+00:00</time>
      </trkpt>
      <trkpt lat="0" lon="0">
        <time>2020-12-20T10:11:25.763000+00:00</time>
      </trkpt>
      <trkpt lat="47.33937" lon="-1.33086">
        <ele>103</ele>
        <time>2020-12-20T10:11:26.767000+00:00</time>
      </trkpt>
      <trkpt lat="0" lon="0">
        <time>2020-12-20T10:11:26.774000+00:00</time>
      </trkpt>
      <trkpt lat="0" lon="0">
        <time>2020-12-20T10:11:26.779000+00:00</time>
      </trkpt>
      <trkpt lat="0" lon="0">
        <time>2020-12-20T10:11:26.783000+00:00</time>
      </trkpt>
      <trkpt lat="47.33937" lon="-1.33087">
        <ele>104</ele>
        <time>2020-12-20T10:11:27.752000+00:00</time>
      </trkpt>
      <trkpt lat="0" lon="0">
        <time>2020-12-20T10:11:27.760000+00:00</time>
      </trkpt>
      <trkpt lat="0" lon="0">
        <time>2020-12-20T10:11:27.765000+00:00</time>
      </trkpt>
      <trkpt lat="0" lon="0">
        <time>2020-12-20T10:11:27.767000+00:00</time>
      </trkpt>
      <trkpt lat="47.33936" lon="-1.33089">
        <ele>105</ele>
        <time>2020-12-20T10:11:28.748000+00:00</time>
      </trkpt>
      <trkpt lat="0" lon="0">
        <time>2020-12-20T10:11:28.757000+00:00</time>
      </trkpt>
      <trkpt lat="0" lon="0">
        <time>2020-12-20T10:11:28.766000+00:00</time>
      </trkpt>
      <trkpt lat="0" lon="0">
        <time>2020-12-20T10:11:28.768000+00:00</time>
      </trkpt>
      <trkpt lat="47.33935" lon="-1.33091">
        <ele>105</ele>
        <time>2020-12-20T10:11:29.761000+00:00</time>
      </trkpt>
      <trkpt lat="0" lon="0">
        <time>2020-12-20T10:11:29.776000+00:00</time>
      </trkpt>
      <trkpt lat="0" lon="0">
        <time>2020-12-20T10:11:29.778000+00:00</time>
      </trkpt>
      <trkpt lat="0" lon="0">
        <time>2020-12-20T10:11:29.779000+00:00</time>
      </trkpt>
      <trkpt lat="47.33934" lon="-1.33093">
        <ele>105</ele>
        <time>2020-12-20T10:11:30.760000+00:00</time>
      </trkpt>
      <trkpt lat="0" lon="0">
        <time>2020-12-20T10:11:30.772000+00:00</time>
      </trkpt>
      <trkpt lat="0" lon="0">
        <time>2020-12-20T10:11:30.778000+00:00</time>
      </trkpt>
      <trkpt lat="0" lon="0">
        <time>2020-12-20T10:11:30.783000+00:00</time>
      </trkpt>
      <trkpt lat="47.33933" lon="-1.33094">
        <ele>105</ele>
        <time>2020-12-20T10:11:31.754000+00:00</time>
      </trkpt>
      <trkpt lat="0" lon="0">
        <time>2020-12-20T10:11:31.759000+00:00</time>
      </trkpt>
      <trkpt lat="0" lon="0">
        <time>2020-12-20T10:11:31.771000+00:00</time>
      </trkpt>
      <trkpt lat="0" lon="0">
        <time>2020-12-20T10:11:31.772000+00:00</time>
      </trkpt>
      <trkpt lat="47.33932" lon="-1.33095">
        <ele>105</ele>
        <time>2020-12-20T10:11:32.751000+00:00</time>
      </trkpt>
      <trkpt lat="0" lon="0">
        <time>2020-12-20T10:11:32.753000+00:00</time>
      </trkpt>
      <trkpt lat="0" lon="0">
        <time>2020-12-20T10:11:32.757000+00:00</time>
      </trkpt>
      <trkpt lat="0" lon="0">
        <time>2020-12-20T10:11:32.758000+00:00</time>
      </trkpt>
      <trkpt lat="47.3393" lon="-1.33097">
        <ele>106</ele>
        <time>2020-12-20T10:11:33.770000+00:00</time>
      </trkpt>
      <trkpt lat="0" lon="0">
        <time>2020-12-20T10:11:33.777000+00:00</time>
      </trkpt>
      <trkpt lat="0" lon="0">
        <time>2020-12-20T10:11:33.779000+00:00</time>
      </trkpt>
      <trkpt lat="0" lon="0">
        <time>2020-12-20T10:11:33.780000+00:00</time>
      </trkpt>
      <trkpt lat="47.33929" lon="-1.33098">
        <ele>106</ele>
        <time>2020-12-20T10:11:34.753000+00:00</time>
      </trkpt>
      <trkpt lat="0" lon="0">
        <time>2020-12-20T10:11:34.759000+00:00</time>
      </trkpt>
      <trkpt lat="0" lon="0">
        <time>2020-12-20T10:11:34.765000+00:00</time>
      </trkpt>
      <trkpt lat="0" lon="0">
        <time>2020-12-20T10:11:34.768000+00:00</time>
      </trkpt>
      <trkpt lat="47.33928" lon="-1.331">
        <ele>106</ele>
        <time>2020-12-20T10:11:35.755000+00:00</time>
      </trkpt>
      <trkpt lat="0" lon="0">
        <time>2020-12-20T10:11:35.771000+00:00</time>
      </trkpt>
      <trkpt lat="0" lon="0">
        <time>2020-12-20T10:11:35.776000+00:00</time>
      </trkpt>
      <trkpt lat="0" lon="0">
        <time>2020-12-20T10:11:35.781000+00:00</time>
      </trkpt>
      <trkpt lat="47.33927" lon="-1.33103">
        <ele>106</ele>
        <time>2020-12-20T10:11:36.736000+00:00</time>
      </trkpt>
      <trkpt lat="0" lon="0">
        <time>2020-12-20T10:11:36.744000+00:00</time>
      </trkpt>
      <trkpt lat="0" lon="0">
        <time>2020-12-20T10:11:36.756000+00:00</time>
      </trkpt>
      <trkpt lat="0" lon="0">
        <time>2020-12-20T10:11:36.758000+00:00</time>
      </trkpt>
      <trkpt lat="47.33926" lon="-1.33104">
        <ele>106</ele>
        <time>2020-12-20T10:11:37.764000+00:00</time>
      </trkpt>
      <trkpt lat="0" lon="0">
        <time>2020-12-20T10:11:37.772000+00:00</time>
      </trkpt>
      <trkpt lat="0" lon="0">
        <time>2020-12-20T10:11:37.777000+00:00</time>
      </trkpt>
      <trkpt lat="0" lon="0">
        <time>2020-12-20T10:11:37.778000+00:00</time>
      </trkpt>
      <trkpt lat="47.33925" lon="-1.33105">
        <ele>106</ele>
        <time>2020-12-20T10:11:38.763000+00:00</time>
      </trkpt>
      <trkpt lat="0" lon="0">
        <time>2020-12-20T10:11:38.775000+00:00</time>
      </trkpt>
      <trkpt lat="0" lon="0">
        <time>2020-12-20T10:11:38.781000+00:00</time>
      </trkpt>
      <trkpt lat="0" lon="0">
        <time>2020-12-20T10:11:38.784000+00:00</time>
      </trkpt>
      <trkpt lat="47.33923" lon="-1.33108">
        <ele>106</ele>
        <time>2020-12-20T10:11:39.763000+00:00</time>
      </trkpt>
      <trkpt lat="0" lon="0">
        <time>2020-12-20T10:11:39.765000+00:00</time>
      </trkpt>
      <trkpt lat="0" lon="0">
        <time>2020-12-20T10:11:39.767000+00:00</time>
      </trkpt>
      <trkpt lat="47.33922" lon="-1.33111">
        <ele>106</ele>
        <time>2020-12-20T10:11:40.778000+00:00</time>
      </trkpt>
      <trkpt lat="0" lon="0">
        <time>2020-12-20T10:11:40.786000+00:00</time>
      </trkpt>
      <trkpt lat="0" lon="0">
        <time>2020-12-20T10:11:40.791000+00:00</time>
      </trkpt>
      <trkpt lat="0" lon="0">
        <time>2020-12-20T10:11:40.796000+00:00</time>
      </trkpt>
      <trkpt lat="47.3392" lon="-1.33116">
        <ele>106</ele>
        <time>2020-12-20T10:11:42.712000+00:00</time>
      </trkpt>
      <trkpt lat="0" lon="0">
        <time>2020-12-20T10:11:42.740000+00:00</time>
      </trkpt>
      <trkpt lat="0" lon="0">
        <time>2020-12-20T10:11:42.743000+00:00</time>
      </trkpt>
      <trkpt lat="0" lon="0">
        <time>2020-12-20T10:11:42.744000+00:00</time>
      </trkpt>
      <trkpt lat="47.33919" lon="-1.33118">
        <ele>106</ele>
        <time>2020-12-20T10:11:43.774000+00:00</time>
      </trkpt>
      <trkpt lat="0" lon="0">
        <time>2020-12-20T10:11:43.792000+00:00</time>
      </trkpt>
      <trkpt lat="0" lon="0">
        <time>2020-12-20T10:11:43.795000+00:00</time>
      </trkpt>
      <trkpt lat="0" lon="0">
        <time>2020-12-20T10:11:43.796000+00:00</time>
      </trkpt>
      <trkpt lat="47.33918" lon="-1.3312">
        <ele>106</ele>
        <time>2020-12-20T10:11:44.688000+00:00</time>
      </trkpt>
      <trkpt lat="0" lon="0">
        <time>2020-12-20T10:11:44.707000+00:00</time>
      </trkpt>
      <trkpt lat="0" lon="0">
        <time>2020-12-20T10:11:44.711000+00:00</time>
      </trkpt>
      <trkpt lat="0" lon="0">
        <time>2020-12-20T10:11:44.713000+00:00</time>
      </trkpt>
      <trkpt lat="47.33917" lon="-1.33123">
        <ele>106</ele>
        <time>2020-12-20T10:11:45.745000+00:00</time>
      </trkpt>
      <trkpt lat="0" lon="0">
        <time>2020-12-20T10:11:45.751000+00:00</time>
      </trkpt>
      <trkpt lat="0" lon="0">
        <time>2020-12-20T10:11:45.758000+00:00</time>
      </trkpt>
      <trkpt lat="0" lon="0">
        <time>2020-12-20T10:11:45.764000+00:00</time>
      </trkpt>
      <trkpt lat="47.33916" lon="-1.33125">
        <ele>106</ele>
        <time>2020-12-20T10:11:46.785000+00:00</time>
      </trkpt>
      <trkpt lat="0" lon="0">
        <time>2020-12-20T10:11:46.794000+00:00</time>
      </trkpt>
      <trkpt lat="0" lon="0">
        <time>2020-12-20T10:11:46.799000+00:00</time>
      </trkpt>
      <trkpt lat="0" lon="0">
        <time>2020-12-20T10:11:46.801000+00:00</time>
      </trkpt>
      <trkpt lat="47.33915" lon="-1.33128">
        <ele>106</ele>
        <time>2020-12-20T10:11:47.774000+00:00</time>
      </trkpt>
      <trkpt lat="0" lon="0">
        <time>2020-12-20T10:11:47.776000+00:00</time>
      </trkpt>
      <trkpt lat="0" lon="0">
        <time>2020-12-20T10:11:47.779000+00:00</time>
      </trkpt>
      <trkpt lat="0" lon="0">
        <time>2020-12-20T10:11:47.780000+00:00</time>
      </trkpt>
      <trkpt lat="47.33913" lon="-1.33131">
        <ele>106</ele>
        <time>2020-12-20T10:11:49.696000+00:00</time>
      </trkpt>
      <trkpt lat="0" lon="0">
        <time>2020-12-20T10:11:49.706000+00:00</time>
      </trkpt>
      <trkpt lat="0" lon="0">
        <time>2020-12-20T10:11:49.711000+00:00</time>
      </trkpt>
      <trkpt lat="0" lon="0">
        <time>2020-12-20T10:11:49.713000+00:00</time>
      </trkpt>
      <trkpt lat="47.33912" lon="-1.33133">
        <ele>107</ele>
        <time>2020-12-20T10:11:50.711000+00:00</time>
      </trkpt>
      <trkpt lat="0" lon="0">
        <time>2020-12-20T10:11:50.738000+00:00</time>
      </trkpt>
      <trkpt lat="0" lon="0">
        <time>2020-12-20T10:11:50.744000+00:00</time>
      </trkpt>
      <trkpt lat="0" lon="0">
        <time>2020-12-20T10:11:50.747000+00:00</time>
      </trkpt>
      <trkpt lat="47.33912" lon="-1.33135">
        <ele>107</ele>
        <time>2020-12-20T10:11:51.667000+00:00</time>
      </trkpt>
      <trkpt lat="0" lon="0">
        <time>2020-12-20T10:11:51.681000+00:00</time>
      </trkpt>
      <trkpt lat="0" lon="0">
        <time>2020-12-20T10:11:51.686000+00:00</time>
      </trkpt>
      <trkpt lat="0" lon="0">
        <time>2020-12-20T10:11:51.689000+00:00</time>
      </trkpt>
      <trkpt lat="47.33911" lon="-1.33138">
        <ele>107</ele>
        <time>2020-12-20T10:11:52.731000+00:00</time>
      </trkpt>
      <trkpt lat="0" lon="0">
        <time>2020-12-20T10:11:52.743000+00:00</time>
      </trkpt>
      <trkpt lat="0" lon="0">
        <time>2020-12-20T10:11:52.755000+00:00</time>
      </trkpt>
      <trkpt lat="0" lon="0">
        <time>2020-12-20T10:11:52.759000+00:00</time>
      </trkpt>
      <trkpt lat="47.33911" lon="-1.33141">
        <ele>107</ele>
        <time>2020-12-20T10:11:53.716000+00:00</time>
      </trkpt>
      <trkpt lat="0" lon="0">
        <time>2020-12-20T10:11:53.723000+00:00</time>
      </trkpt>
      <trkpt lat="0" lon="0">
        <time>2020-12-20T10:11:53.737000+00:00</time>
      </trkpt>
      <trkpt lat="0" lon="0">
        <time>2020-12-20T10:11:53.744000+00:00</time>
      </trkpt>
      <trkpt lat="47.3391" lon="-1.33143">
        <ele>107</ele>
        <time>2020-12-20T10:11:54.704000+00:00</time>
      </trkpt>
      <trkpt lat="0" lon="0">
        <time>2020-12-20T10:11:54.720000+00:00</time>
      </trkpt>
      <trkpt lat="0" lon="0">
        <time>2020-12-20T10:11:54.728000+00:00</time>
      </trkpt>
      <trkpt lat="0" lon="0">
        <time>2020-12-20T10:11:54.732000+00:00</time>
      </trkpt>
      <trkpt lat="47.3391" lon="-1.33145">
        <ele>107</ele>
        <time>2020-12-20T10:11:55.724000+00:00</time>
      </trkpt>
      <trkpt lat="0" lon="0">
        <time>2020-12-20T10:11:55.757000+00:00</time>
      </trkpt>
      <trkpt lat="0" lon="0">
        <time>2020-12-20T10:11:55.759000+00:00</time>
      </trkpt>
      <trkpt lat="0" lon="0">
        <time>2020-12-20T10:11:55.761000+00:00</time>
      </trkpt>
      <trkpt lat="47.3391" lon="-1.33147">
        <ele>107</ele>
        <time>2020-12-20T10:11:56.758000+00:00</time>
      </trkpt>
      <trkpt lat="0" lon="0">
        <time>2020-12-20T10:11:56.759000+00:00</time>
      </trkpt>
      <trkpt lat="0" lon="0">
        <time>2020-12-20T10:11:56.760000+00:00</time>
      </trkpt>
      <trkpt lat="47.33909" lon="-1.33149">
        <ele>107</ele>
        <time>2020-12-20T10:11:57.720000+00:00</time>
      </trkpt>
      <trkpt lat="0" lon="0">
        <time>2020-12-20T10:11:57.736000+00:00</time>
      </trkpt>
      <trkpt lat="0" lon="0">
        <time>2020-12-20T10:11:57.739000+00:00</time>
      </trkpt>
      <trkpt lat="0" lon="0">
        <time>2020-12-20T10:11:57.742000+00:00</time>
      </trkpt>
      <trkpt lat="47.33909" lon="-1.33151">
        <ele>107</ele>
        <time>2020-12-20T10:11:58.756000+00:00</time>
      </trkpt>
      <trkpt lat="0" lon="0">
        <time>2020-12-20T10:11:58.762000+00:00</time>
      </trkpt>
      <trkpt lat="0" lon="0">
        <time>2020-12-20T10:11:58.777000+00:00</time>
      </trkpt>
      <trkpt lat="0" lon="0">
        <time>2020-12-20T10:11:58.782000+00:00</time>
      </trkpt>
      <trkpt lat="47.33908" lon="-1.33153">
        <ele>107</ele>
        <time>2020-12-20T10:11:59.731000+00:00</time>
      </trkpt>
      <trkpt lat="0" lon="0">
        <time>2020-12-20T10:11:59.738000+00:00</time>
      </trkpt>
      <trkpt lat="0" lon="0">
        <time>2020-12-20T10:11:59.748000+00:00</time>
      </trkpt>
      <trkpt lat="0" lon="0">
        <time>2020-12-20T10:11:59.753000+00:00</time>
      </trkpt>
      <trkpt lat="47.33907" lon="-1.33156">
        <ele>107</ele>
        <time>2020-12-20T10:12:00.711000+00:00</time>
      </trkpt>
      <trkpt lat="0" lon="0">
        <time>2020-12-20T10:12:00.721000+00:00</time>
      </trkpt>
      <trkpt lat="0" lon="0">
        <time>2020-12-20T10:12:00.725000+00:00</time>
      </trkpt>
      <trkpt lat="0" lon="0">
        <time>2020-12-20T10:12:00.727000+00:00</time>
      </trkpt>
      <trkpt lat="47.33907" lon="-1.33157">
        <ele>107</ele>
        <time>2020-12-20T10:12:01.711000+00:00</time>
      </trkpt>
      <trkpt lat="0" lon="0">
        <time>2020-12-20T10:12:01.729000+00:00</time>
      </trkpt>
      <trkpt lat="0" lon="0">
        <time>2020-12-20T10:12:01.734000+00:00</time>
      </trkpt>
      <trkpt lat="47.33906" lon="-1.33159">
        <ele>107</ele>
        <time>2020-12-20T10:12:02.685000+00:00</time>
      </trkpt>
      <trkpt lat="0" lon="0">
        <time>2020-12-20T10:12:02.693000+00:00</time>
      </trkpt>
      <trkpt lat="0" lon="0">
        <time>2020-12-20T10:12:02.699000+00:00</time>
      </trkpt>
      <trkpt lat="0" lon="0">
        <time>2020-12-20T10:12:02.701000+00:00</time>
      </trkpt>
      <trkpt lat="47.33906" lon="-1.3316">
        <ele>108</ele>
        <time>2020-12-20T10:12:03.747000+00:00</time>
      </trkpt>
      <trkpt lat="0" lon="0">
        <time>2020-12-20T10:12:03.749000+00:00</time>
      </trkpt>
      <trkpt lat="0" lon="0">
        <time>2020-12-20T10:12:03.752000+00:00</time>
      </trkpt>
      <trkpt lat="0" lon="0">
        <time>2020-12-20T10:12:03.753000+00:00</time>
      </trkpt>
      <trkpt lat="47.33905" lon="-1.33162">
        <ele>108</ele>
        <time>2020-12-20T10:12:04.769000+00:00</time>
      </trkpt>
      <trkpt lat="0" lon="0">
        <time>2020-12-20T10:12:04.778000+00:00</time>
      </trkpt>
      <trkpt lat="0" lon="0">
        <time>2020-12-20T10:12:04.780000+00:00</time>
      </trkpt>
      <trkpt lat="0" lon="0">
        <time>2020-12-20T10:12:04.791000+00:00</time>
      </trkpt>
      <trkpt lat="47.33904" lon="-1.33164">
        <ele>109</ele>
        <time>2020-12-20T10:12:05.719000+00:00</time>
      </trkpt>
      <trkpt lat="0" lon="0">
        <time>2020-12-20T10:12:05.735000+00:00</time>
      </trkpt>
      <trkpt lat="0" lon="0">
        <time>2020-12-20T10:12:05.745000+00:00</time>
      </trkpt>
      <trkpt lat="0" lon="0">
        <time>2020-12-20T10:12:05.754000+00:00</time>
      </trkpt>
      <trkpt lat="47.33903" lon="-1.33166">
        <ele>109</ele>
        <time>2020-12-20T10:12:06.683000+00:00</time>
      </trkpt>
      <trkpt lat="0" lon="0">
        <time>2020-12-20T10:12:06.685000+00:00</time>
      </trkpt>
      <trkpt lat="0" lon="0">
        <time>2020-12-20T10:12:06.687000+00:00</time>
      </trkpt>
      <trkpt lat="0" lon="0">
        <time>2020-12-20T10:12:06.688000+00:00</time>
      </trkpt>
      <trkpt lat="47.33903" lon="-1.33168">
        <ele>109</ele>
        <time>2020-12-20T10:12:07.706000+00:00</time>
      </trkpt>
      <trkpt lat="0" lon="0">
        <time>2020-12-20T10:12:07.715000+00:00</time>
      </trkpt>
      <trkpt lat="0" lon="0">
        <time>2020-12-20T10:12:07.717000+00:00</time>
      </trkpt>
      <trkpt lat="0" lon="0">
        <time>2020-12-20T10:12:07.718000+00:00</time>
      </trkpt>
      <trkpt lat="47.33902" lon="-1.33169">
        <ele>109</ele>
        <time>2020-12-20T10:12:08.750000+00:00</time>
      </trkpt>
      <trkpt lat="0" lon="0">
        <time>2020-12-20T10:12:08.770000+00:00</time>
      </trkpt>
      <trkpt lat="0" lon="0">
        <time>2020-12-20T10:12:08.772000+00:00</time>
      </trkpt>
      <trkpt lat="0" lon="0">
        <time>2020-12-20T10:12:08.773000+00:00</time>
      </trkpt>
      <trkpt lat="47.33901" lon="-1.33171">
        <ele>110</ele>
        <time>2020-12-20T10:12:09.712000+00:00</time>
      </trkpt>
      <trkpt lat="0" lon="0">
        <time>2020-12-20T10:12:09.717000+00:00</time>
      </trkpt>
      <trkpt lat="0" lon="0">
        <time>2020-12-20T10:12:09.723000+00:00</time>
      </trkpt>
      <trkpt lat="0" lon="0">
        <time>2020-12-20T10:12:09.725000+00:00</time>
      </trkpt>
      <trkpt lat="47.33901" lon="-1.33173">
        <ele>111</ele>
        <time>2020-12-20T10:12:10.743000+00:00</time>
      </trkpt>
      <trkpt lat="0" lon="0">
        <time>2020-12-20T10:12:10.754000+00:00</time>
      </trkpt>
      <trkpt lat="0" lon="0">
        <time>2020-12-20T10:12:10.758000+00:00</time>
      </trkpt>
      <trkpt lat="0" lon="0">
        <time>2020-12-20T10:12:10.760000+00:00</time>
      </trkpt>
      <trkpt lat="47.339" lon="-1.33175">
        <ele>111</ele>
        <time>2020-12-20T10:12:11.702000+00:00</time>
      </trkpt>
      <trkpt lat="0" lon="0">
        <time>2020-12-20T10:12:11.717000+00:00</time>
      </trkpt>
      <trkpt lat="0" lon="0">
        <time>2020-12-20T10:12:11.721000+00:00</time>
      </trkpt>
      <trkpt lat="0" lon="0">
        <time>2020-12-20T10:12:11.723000+00:00</time>
      </trkpt>
      <trkpt lat="47.339" lon="-1.33177">
        <ele>111</ele>
        <time>2020-12-20T10:12:12.742000+00:00</time>
      </trkpt>
      <trkpt lat="0" lon="0">
        <time>2020-12-20T10:12:12.744000+00:00</time>
      </trkpt>
      <trkpt lat="0" lon="0">
        <time>2020-12-20T10:12:12.746000+00:00</time>
      </trkpt>
      <trkpt lat="0" lon="0">
        <time>2020-12-20T10:12:12.747000+00:00</time>
      </trkpt>
      <trkpt lat="47.33899" lon="-1.33179">
        <ele>111</ele>
        <time>2020-12-20T10:12:13.749000+00:00</time>
      </trkpt>
      <trkpt lat="0" lon="0">
        <time>2020-12-20T10:12:13.768000+00:00</time>
      </trkpt>
      <trkpt lat="0" lon="0">
        <time>2020-12-20T10:12:13.774000+00:00</time>
      </trkpt>
      <trkpt lat="0" lon="0">
        <time>2020-12-20T10:12:13.776000+00:00</time>
      </trkpt>
      <trkpt lat="47.33899" lon="-1.33181">
        <ele>112</ele>
        <time>2020-12-20T10:12:14.735000+00:00</time>
      </trkpt>
      <trkpt lat="0" lon="0">
        <time>2020-12-20T10:12:14.750000+00:00</time>
      </trkpt>
      <trkpt lat="0" lon="0">
        <time>2020-12-20T10:12:14.754000+00:00</time>
      </trkpt>
      <trkpt lat="0" lon="0">
        <time>2020-12-20T10:12:14.757000+00:00</time>
      </trkpt>
      <trkpt lat="47.33899" lon="-1.33183">
        <ele>111</ele>
        <time>2020-12-20T10:12:15.743000+00:00</time>
      </trkpt>
      <trkpt lat="0" lon="0">
        <time>2020-12-20T10:12:15.751000+00:00</time>
      </trkpt>
      <trkpt lat="0" lon="0">
        <time>2020-12-20T10:12:15.763000+00:00</time>
      </trkpt>
      <trkpt lat="0" lon="0">
        <time>2020-12-20T10:12:15.765000+00:00</time>
      </trkpt>
      <trkpt lat="47.33899" lon="-1.33185">
        <ele>111</ele>
        <time>2020-12-20T10:12:16.731000+00:00</time>
      </trkpt>
      <trkpt lat="0" lon="0">
        <time>2020-12-20T10:12:16.738000+00:00</time>
      </trkpt>
      <trkpt lat="0" lon="0">
        <time>2020-12-20T10:12:16.743000+00:00</time>
      </trkpt>
      <trkpt lat="0" lon="0">
        <time>2020-12-20T10:12:16.746000+00:00</time>
      </trkpt>
      <trkpt lat="47.33899" lon="-1.33186">
        <ele>111</ele>
        <time>2020-12-20T10:12:17.720000+00:00</time>
      </trkpt>
      <trkpt lat="0" lon="0">
        <time>2020-12-20T10:12:17.740000+00:00</time>
      </trkpt>
      <trkpt lat="0" lon="0">
        <time>2020-12-20T10:12:17.748000+00:00</time>
      </trkpt>
      <trkpt lat="0" lon="0">
        <time>2020-12-20T10:12:17.762000+00:00</time>
      </trkpt>
      <trkpt lat="47.33899" lon="-1.33188">
        <ele>111</ele>
        <time>2020-12-20T10:12:18.714000+00:00</time>
      </trkpt>
      <trkpt lat="0" lon="0">
        <time>2020-12-20T10:12:18.732000+00:00</time>
      </trkpt>
      <trkpt lat="0" lon="0">
        <time>2020-12-20T10:12:18.740000+00:00</time>
      </trkpt>
      <trkpt lat="0" lon="0">
        <time>2020-12-20T10:12:18.743000+00:00</time>
      </trkpt>
      <trkpt lat="47.33899" lon="-1.3319">
        <ele>111</ele>
        <time>2020-12-20T10:12:19.727000+00:00</time>
      </trkpt>
      <trkpt lat="0" lon="0">
        <time>2020-12-20T10:12:19.737000+00:00</time>
      </trkpt>
      <trkpt lat="0" lon="0">
        <time>2020-12-20T10:12:19.743000+00:00</time>
      </trkpt>
      <trkpt lat="0" lon="0">
        <time>2020-12-20T10:12:19.745000+00:00</time>
      </trkpt>
      <trkpt lat="47.33899" lon="-1.33192">
        <ele>111</ele>
        <time>2020-12-20T10:12:20.704000+00:00</time>
      </trkpt>
      <trkpt lat="0" lon="0">
        <time>2020-12-20T10:12:20.712000+00:00</time>
      </trkpt>
      <trkpt lat="0" lon="0">
        <time>2020-12-20T10:12:20.721000+00:00</time>
      </trkpt>
      <trkpt lat="0" lon="0">
        <time>2020-12-20T10:12:20.723000+00:00</time>
      </trkpt>
      <trkpt lat="47.33899" lon="-1.33194">
        <ele>111</ele>
        <time>2020-12-20T10:12:21.752000+00:00</time>
      </trkpt>
      <trkpt lat="0" lon="0">
        <time>2020-12-20T10:12:21.758000+00:00</time>
      </trkpt>
      <trkpt lat="0" lon="0">
        <time>2020-12-20T10:12:21.773000+00:00</time>
      </trkpt>
      <trkpt lat="0" lon="0">
        <time>2020-12-20T10:12:21.775000+00:00</time>
      </trkpt>
      <trkpt lat="47.33899" lon="-1.33196">
        <ele>112</ele>
        <time>2020-12-20T10:12:22.712000+00:00</time>
      </trkpt>
      <trkpt lat="0" lon="0">
        <time>2020-12-20T10:12:22.724000+00:00</time>
      </trkpt>
      <trkpt lat="0" lon="0">
        <time>2020-12-20T10:12:22.730000+00:00</time>
      </trkpt>
      <trkpt lat="0" lon="0">
        <time>2020-12-20T10:12:22.734000+00:00</time>
      </trkpt>
      <trkpt lat="47.33898" lon="-1.33198">
        <ele>112</ele>
        <time>2020-12-20T10:12:23.727000+00:00</time>
      </trkpt>
      <trkpt lat="0" lon="0">
        <time>2020-12-20T10:12:23.728000+00:00</time>
      </trkpt>
      <trkpt lat="0" lon="0">
        <time>2020-12-20T10:12:23.729000+00:00</time>
      </trkpt>
      <trkpt lat="0" lon="0">
        <time>2020-12-20T10:12:23.730000+00:00</time>
      </trkpt>
      <trkpt lat="47.33898" lon="-1.332">
        <ele>112</ele>
        <time>2020-12-20T10:12:24.730000+00:00</time>
      </trkpt>
      <trkpt lat="0" lon="0">
        <time>2020-12-20T10:12:24.732000+00:00</time>
      </trkpt>
      <trkpt lat="0" lon="0">
        <time>2020-12-20T10:12:24.736000+00:00</time>
      </trkpt>
      <trkpt lat="0" lon="0">
        <time>2020-12-20T10:12:24.738000+00:00</time>
      </trkpt>
      <trkpt lat="47.33897" lon="-1.33202">
        <ele>111</ele>
        <time>2020-12-20T10:12:25.682000+00:00</time>
      </trkpt>
      <trkpt lat="0" lon="0">
        <time>2020-12-20T10:12:25.687000+00:00</time>
      </trkpt>
      <trkpt lat="0" lon="0">
        <time>2020-12-20T10:12:25.691000+00:00</time>
      </trkpt>
      <trkpt lat="0" lon="0">
        <time>2020-12-20T10:12:25.693000+00:00</time>
      </trkpt>
      <trkpt lat="47.33896" lon="-1.33203">
        <ele>112</ele>
        <time>2020-12-20T10:12:26.782000+00:00</time>
      </trkpt>
      <trkpt lat="0" lon="0">
        <time>2020-12-20T10:12:26.788000+00:00</time>
      </trkpt>
      <trkpt lat="0" lon="0">
        <time>2020-12-20T10:12:26.793000+00:00</time>
      </trkpt>
      <trkpt lat="0" lon="0">
        <time>2020-12-20T10:12:26.797000+00:00</time>
      </trkpt>
      <trkpt lat="47.33896" lon="-1.33205">
        <ele>112</ele>
        <time>2020-12-20T10:12:27.741000+00:00</time>
      </trkpt>
      <trkpt lat="0" lon="0">
        <time>2020-12-20T10:12:27.767000+00:00</time>
      </trkpt>
      <trkpt lat="0" lon="0">
        <time>2020-12-20T10:12:27.776000+00:00</time>
      </trkpt>
      <trkpt lat="0" lon="0">
        <time>2020-12-20T10:12:27.786000+00:00</time>
      </trkpt>
      <trkpt lat="47.33895" lon="-1.33206">
        <ele>112</ele>
        <time>2020-12-20T10:12:28.718000+00:00</time>
      </trkpt>
      <trkpt lat="0" lon="0">
        <time>2020-12-20T10:12:28.727000+00:00</time>
      </trkpt>
      <trkpt lat="0" lon="0">
        <time>2020-12-20T10:12:28.732000+00:00</time>
      </trkpt>
      <trkpt lat="0" lon="0">
        <time>2020-12-20T10:12:28.734000+00:00</time>
      </trkpt>
      <trkpt lat="47.33894" lon="-1.33208">
        <ele>111</ele>
        <time>2020-12-20T10:12:29.732000+00:00</time>
      </trkpt>
      <trkpt lat="0" lon="0">
        <time>2020-12-20T10:12:29.740000+00:00</time>
      </trkpt>
      <trkpt lat="0" lon="0">
        <time>2020-12-20T10:12:29.745000+00:00</time>
      </trkpt>
      <trkpt lat="0" lon="0">
        <time>2020-12-20T10:12:29.748000+00:00</time>
      </trkpt>
      <trkpt lat="47.33894" lon="-1.3321">
        <ele>112</ele>
        <time>2020-12-20T10:12:30.734000+00:00</time>
      </trkpt>
      <trkpt lat="0" lon="0">
        <time>2020-12-20T10:12:30.749000+00:00</time>
      </trkpt>
      <trkpt lat="0" lon="0">
        <time>2020-12-20T10:12:30.762000+00:00</time>
      </trkpt>
      <trkpt lat="0" lon="0">
        <time>2020-12-20T10:12:30.767000+00:00</time>
      </trkpt>
      <trkpt lat="47.33892" lon="-1.33212">
        <ele>112</ele>
        <time>2020-12-20T10:12:31.738000+00:00</time>
      </trkpt>
      <trkpt lat="0" lon="0">
        <time>2020-12-20T10:12:31.749000+00:00</time>
      </trkpt>
      <trkpt lat="0" lon="0">
        <time>2020-12-20T10:12:31.754000+00:00</time>
      </trkpt>
      <trkpt lat="0" lon="0">
        <time>2020-12-20T10:12:31.757000+00:00</time>
      </trkpt>
      <trkpt lat="47.33891" lon="-1.33215">
        <ele>112</ele>
        <time>2020-12-20T10:12:32.741000+00:00</time>
      </trkpt>
      <trkpt lat="0" lon="0">
        <time>2020-12-20T10:12:32.751000+00:00</time>
      </trkpt>
      <trkpt lat="0" lon="0">
        <time>2020-12-20T10:12:32.756000+00:00</time>
      </trkpt>
      <trkpt lat="0" lon="0">
        <time>2020-12-20T10:12:32.760000+00:00</time>
      </trkpt>
      <trkpt lat="47.33889" lon="-1.33218">
        <ele>112</ele>
        <time>2020-12-20T10:12:33.744000+00:00</time>
      </trkpt>
      <trkpt lat="0" lon="0">
        <time>2020-12-20T10:12:33.748000+00:00</time>
      </trkpt>
      <trkpt lat="0" lon="0">
        <time>2020-12-20T10:12:33.752000+00:00</time>
      </trkpt>
      <trkpt lat="0" lon="0">
        <time>2020-12-20T10:12:33.754000+00:00</time>
      </trkpt>
      <trkpt lat="47.33888" lon="-1.33221">
        <ele>113</ele>
        <time>2020-12-20T10:12:34.740000+00:00</time>
      </trkpt>
      <trkpt lat="0" lon="0">
        <time>2020-12-20T10:12:34.759000+00:00</time>
      </trkpt>
      <trkpt lat="0" lon="0">
        <time>2020-12-20T10:12:34.762000+00:00</time>
      </trkpt>
      <trkpt lat="0" lon="0">
        <time>2020-12-20T10:12:34.765000+00:00</time>
      </trkpt>
      <trkpt lat="47.33886" lon="-1.33224">
        <ele>113</ele>
        <time>2020-12-20T10:12:35.744000+00:00</time>
      </trkpt>
      <trkpt lat="0" lon="0">
        <time>2020-12-20T10:12:35.758000+00:00</time>
      </trkpt>
      <trkpt lat="0" lon="0">
        <time>2020-12-20T10:12:35.767000+00:00</time>
      </trkpt>
      <trkpt lat="0" lon="0">
        <time>2020-12-20T10:12:35.770000+00:00</time>
      </trkpt>
      <trkpt lat="47.33884" lon="-1.33227">
        <ele>113</ele>
        <time>2020-12-20T10:12:36.729000+00:00</time>
      </trkpt>
      <trkpt lat="0" lon="0">
        <time>2020-12-20T10:12:36.735000+00:00</time>
      </trkpt>
      <trkpt lat="0" lon="0">
        <time>2020-12-20T10:12:36.739000+00:00</time>
      </trkpt>
      <trkpt lat="0" lon="0">
        <time>2020-12-20T10:12:36.744000+00:00</time>
      </trkpt>
      <trkpt lat="47.33882" lon="-1.33229">
        <ele>114</ele>
        <time>2020-12-20T10:12:37.736000+00:00</time>
      </trkpt>
      <trkpt lat="0" lon="0">
        <time>2020-12-20T10:12:37.742000+00:00</time>
      </trkpt>
      <trkpt lat="0" lon="0">
        <time>2020-12-20T10:12:37.750000+00:00</time>
      </trkpt>
      <trkpt lat="0" lon="0">
        <time>2020-12-20T10:12:37.753000+00:00</time>
      </trkpt>
      <trkpt lat="47.33881" lon="-1.33232">
        <ele>114</ele>
        <time>2020-12-20T10:12:38.744000+00:00</time>
      </trkpt>
      <trkpt lat="0" lon="0">
        <time>2020-12-20T10:12:38.755000+00:00</time>
      </trkpt>
      <trkpt lat="0" lon="0">
        <time>2020-12-20T10:12:38.763000+00:00</time>
      </trkpt>
      <trkpt lat="0" lon="0">
        <time>2020-12-20T10:12:38.768000+00:00</time>
      </trkpt>
      <trkpt lat="47.3388" lon="-1.33233">
        <ele>114</ele>
        <time>2020-12-20T10:12:39.729000+00:00</time>
      </trkpt>
      <trkpt lat="0" lon="0">
        <time>2020-12-20T10:12:39.737000+00:00</time>
      </trkpt>
      <trkpt lat="0" lon="0">
        <time>2020-12-20T10:12:39.748000+00:00</time>
      </trkpt>
      <trkpt lat="0" lon="0">
        <time>2020-12-20T10:12:39.751000+00:00</time>
      </trkpt>
      <trkpt lat="47.33878" lon="-1.33236">
        <ele>115</ele>
        <time>2020-12-20T10:12:40.738000+00:00</time>
      </trkpt>
      <trkpt lat="0" lon="0">
        <time>2020-12-20T10:12:40.746000+00:00</time>
      </trkpt>
      <trkpt lat="0" lon="0">
        <time>2020-12-20T10:12:40.751000+00:00</time>
      </trkpt>
      <trkpt lat="0" lon="0">
        <time>2020-12-20T10:12:40.754000+00:00</time>
      </trkpt>
      <trkpt lat="47.33877" lon="-1.33237">
        <ele>115</ele>
        <time>2020-12-20T10:12:41.692000+00:00</time>
      </trkpt>
      <trkpt lat="0" lon="0">
        <time>2020-12-20T10:12:41.701000+00:00</time>
      </trkpt>
      <trkpt lat="0" lon="0">
        <time>2020-12-20T10:12:41.705000+00:00</time>
      </trkpt>
      <trkpt lat="0" lon="0">
        <time>2020-12-20T10:12:41.709000+00:00</time>
      </trkpt>
      <trkpt lat="47.33876" lon="-1.33239">
        <ele>115</ele>
        <time>2020-12-20T10:12:42.729000+00:00</time>
      </trkpt>
      <trkpt lat="0" lon="0">
        <time>2020-12-20T10:12:42.739000+00:00</time>
      </trkpt>
      <trkpt lat="0" lon="0">
        <time>2020-12-20T10:12:42.744000+00:00</time>
      </trkpt>
      <trkpt lat="0" lon="0">
        <time>2020-12-20T10:12:42.749000+00:00</time>
      </trkpt>
      <trkpt lat="47.33875" lon="-1.33241">
        <ele>115</ele>
        <time>2020-12-20T10:12:43.759000+00:00</time>
      </trkpt>
      <trkpt lat="0" lon="0">
        <time>2020-12-20T10:12:43.767000+00:00</time>
      </trkpt>
      <trkpt lat="0" lon="0">
        <time>2020-12-20T10:12:43.776000+00:00</time>
      </trkpt>
      <trkpt lat="0" lon="0">
        <time>2020-12-20T10:12:43.779000+00:00</time>
      </trkpt>
      <trkpt lat="47.33874" lon="-1.33242">
        <ele>115</ele>
        <time>2020-12-20T10:12:44.762000+00:00</time>
      </trkpt>
      <trkpt lat="0" lon="0">
        <time>2020-12-20T10:12:44.766000+00:00</time>
      </trkpt>
      <trkpt lat="0" lon="0">
        <time>2020-12-20T10:12:44.773000+00:00</time>
      </trkpt>
      <trkpt lat="0" lon="0">
        <time>2020-12-20T10:12:44.776000+00:00</time>
      </trkpt>
      <trkpt lat="47.33873" lon="-1.33243">
        <ele>115</ele>
        <time>2020-12-20T10:12:45.753000+00:00</time>
      </trkpt>
      <trkpt lat="0" lon="0">
        <time>2020-12-20T10:12:45.758000+00:00</time>
      </trkpt>
      <trkpt lat="0" lon="0">
        <time>2020-12-20T10:12:45.763000+00:00</time>
      </trkpt>
      <trkpt lat="0" lon="0">
        <time>2020-12-20T10:12:45.765000+00:00</time>
      </trkpt>
      <trkpt lat="47.33873" lon="-1.33245">
        <ele>115</ele>
        <time>2020-12-20T10:12:46.766000+00:00</time>
      </trkpt>
      <trkpt lat="0" lon="0">
        <time>2020-12-20T10:12:46.775000+00:00</time>
      </trkpt>
      <trkpt lat="0" lon="0">
        <time>2020-12-20T10:12:46.781000+00:00</time>
      </trkpt>
      <trkpt lat="0" lon="0">
        <time>2020-12-20T10:12:46.785000+00:00</time>
      </trkpt>
      <trkpt lat="47.33872" lon="-1.33246">
        <ele>115</ele>
        <time>2020-12-20T10:12:47.758000+00:00</time>
      </trkpt>
      <trkpt lat="0" lon="0">
        <time>2020-12-20T10:12:47.762000+00:00</time>
      </trkpt>
      <trkpt lat="0" lon="0">
        <time>2020-12-20T10:12:47.771000+00:00</time>
      </trkpt>
      <trkpt lat="0" lon="0">
        <time>2020-12-20T10:12:47.774000+00:00</time>
      </trkpt>
      <trkpt lat="47.33871" lon="-1.33248">
        <ele>115</ele>
        <time>2020-12-20T10:12:48.722000+00:00</time>
      </trkpt>
      <trkpt lat="0" lon="0">
        <time>2020-12-20T10:12:48.731000+00:00</time>
      </trkpt>
      <trkpt lat="0" lon="0">
        <time>2020-12-20T10:12:48.735000+00:00</time>
      </trkpt>
      <trkpt lat="0" lon="0">
        <time>2020-12-20T10:12:48.739000+00:00</time>
      </trkpt>
      <trkpt lat="47.33871" lon="-1.33249">
        <ele>116</ele>
        <time>2020-12-20T10:12:49.772000+00:00</time>
      </trkpt>
      <trkpt lat="0" lon="0">
        <time>2020-12-20T10:12:49.784000+00:00</time>
      </trkpt>
      <trkpt lat="0" lon="0">
        <time>2020-12-20T10:12:49.788000+00:00</time>
      </trkpt>
      <trkpt lat="0" lon="0">
        <time>2020-12-20T10:12:49.790000+00:00</time>
      </trkpt>
      <trkpt lat="47.3387" lon="-1.33251">
        <ele>116</ele>
        <time>2020-12-20T10:12:50.754000+00:00</time>
      </trkpt>
      <trkpt lat="0" lon="0">
        <time>2020-12-20T10:12:50.769000+00:00</time>
      </trkpt>
      <trkpt lat="0" lon="0">
        <time>2020-12-20T10:12:50.773000+00:00</time>
      </trkpt>
      <trkpt lat="0" lon="0">
        <time>2020-12-20T10:12:50.775000+00:00</time>
      </trkpt>
      <trkpt lat="47.33869" lon="-1.33252">
        <ele>117</ele>
        <time>2020-12-20T10:12:51.734000+00:00</time>
      </trkpt>
      <trkpt lat="0" lon="0">
        <time>2020-12-20T10:12:51.742000+00:00</time>
      </trkpt>
      <trkpt lat="0" lon="0">
        <time>2020-12-20T10:12:51.747000+00:00</time>
      </trkpt>
      <trkpt lat="0" lon="0">
        <time>2020-12-20T10:12:51.751000+00:00</time>
      </trkpt>
      <trkpt lat="47.33868" lon="-1.33254">
        <ele>117</ele>
        <time>2020-12-20T10:12:52.718000+00:00</time>
      </trkpt>
      <trkpt lat="0" lon="0">
        <time>2020-12-20T10:12:52.720000+00:00</time>
      </trkpt>
      <trkpt lat="0" lon="0">
        <time>2020-12-20T10:12:52.723000+00:00</time>
      </trkpt>
      <trkpt lat="0" lon="0">
        <time>2020-12-20T10:12:52.724000+00:00</time>
      </trkpt>
      <trkpt lat="47.33867" lon="-1.33256">
        <ele>117</ele>
        <time>2020-12-20T10:12:53.722000+00:00</time>
      </trkpt>
      <trkpt lat="0" lon="0">
        <time>2020-12-20T10:12:53.736000+00:00</time>
      </trkpt>
      <trkpt lat="0" lon="0">
        <time>2020-12-20T10:12:53.743000+00:00</time>
      </trkpt>
      <trkpt lat="0" lon="0">
        <time>2020-12-20T10:12:53.746000+00:00</time>
      </trkpt>
      <trkpt lat="47.33867" lon="-1.33257">
        <ele>118</ele>
        <time>2020-12-20T10:12:54.747000+00:00</time>
      </trkpt>
      <trkpt lat="0" lon="0">
        <time>2020-12-20T10:12:54.760000+00:00</time>
      </trkpt>
      <trkpt lat="0" lon="0">
        <time>2020-12-20T10:12:54.766000+00:00</time>
      </trkpt>
      <trkpt lat="0" lon="0">
        <time>2020-12-20T10:12:54.768000+00:00</time>
      </trkpt>
      <trkpt lat="47.33866" lon="-1.33259">
        <ele>118</ele>
        <time>2020-12-20T10:12:55.736000+00:00</time>
      </trkpt>
      <trkpt lat="0" lon="0">
        <time>2020-12-20T10:12:55.746000+00:00</time>
      </trkpt>
      <trkpt lat="0" lon="0">
        <time>2020-12-20T10:12:55.750000+00:00</time>
      </trkpt>
      <trkpt lat="0" lon="0">
        <time>2020-12-20T10:12:55.752000+00:00</time>
      </trkpt>
      <trkpt lat="47.33865" lon="-1.3326">
        <ele>119</ele>
        <time>2020-12-20T10:12:56.754000+00:00</time>
      </trkpt>
      <trkpt lat="0" lon="0">
        <time>2020-12-20T10:12:56.765000+00:00</time>
      </trkpt>
      <trkpt lat="0" lon="0">
        <time>2020-12-20T10:12:56.769000+00:00</time>
      </trkpt>
      <trkpt lat="0" lon="0">
        <time>2020-12-20T10:12:56.772000+00:00</time>
      </trkpt>
      <trkpt lat="47.33865" lon="-1.33262">
        <ele>119</ele>
        <time>2020-12-20T10:12:57.756000+00:00</time>
      </trkpt>
      <trkpt lat="0" lon="0">
        <time>2020-12-20T10:12:57.760000+00:00</time>
      </trkpt>
      <trkpt lat="0" lon="0">
        <time>2020-12-20T10:12:57.764000+00:00</time>
      </trkpt>
      <trkpt lat="0" lon="0">
        <time>2020-12-20T10:12:57.766000+00:00</time>
      </trkpt>
      <trkpt lat="47.33864" lon="-1.33264">
        <ele>119</ele>
        <time>2020-12-20T10:12:58.744000+00:00</time>
      </trkpt>
      <trkpt lat="0" lon="0">
        <time>2020-12-20T10:12:58.755000+00:00</time>
      </trkpt>
      <trkpt lat="0" lon="0">
        <time>2020-12-20T10:12:58.764000+00:00</time>
      </trkpt>
      <trkpt lat="0" lon="0">
        <time>2020-12-20T10:12:58.768000+00:00</time>
      </trkpt>
      <trkpt lat="47.33864" lon="-1.33266">
        <ele>120</ele>
        <time>2020-12-20T10:12:59.723000+00:00</time>
      </trkpt>
      <trkpt lat="0" lon="0">
        <time>2020-12-20T10:12:59.733000+00:00</time>
      </trkpt>
      <trkpt lat="0" lon="0">
        <time>2020-12-20T10:12:59.736000+00:00</time>
      </trkpt>
      <trkpt lat="0" lon="0">
        <time>2020-12-20T10:12:59.739000+00:00</time>
      </trkpt>
      <trkpt lat="47.33864" lon="-1.33267">
        <ele>120</ele>
        <time>2020-12-20T10:13:00.741000+00:00</time>
      </trkpt>
      <trkpt lat="0" lon="0">
        <time>2020-12-20T10:13:00.751000+00:00</time>
      </trkpt>
      <trkpt lat="0" lon="0">
        <time>2020-12-20T10:13:00.752000+00:00</time>
      </trkpt>
      <trkpt lat="47.33864" lon="-1.33268">
        <ele>120</ele>
        <time>2020-12-20T10:13:01.727000+00:00</time>
      </trkpt>
      <trkpt lat="0" lon="0">
        <time>2020-12-20T10:13:01.740000+00:00</time>
      </trkpt>
      <trkpt lat="0" lon="0">
        <time>2020-12-20T10:13:01.743000+00:00</time>
      </trkpt>
      <trkpt lat="0" lon="0">
        <time>2020-12-20T10:13:01.747000+00:00</time>
      </trkpt>
      <trkpt lat="47.33863" lon="-1.33269">
        <ele>120</ele>
        <time>2020-12-20T10:13:02.745000+00:00</time>
      </trkpt>
      <trkpt lat="0" lon="0">
        <time>2020-12-20T10:13:02.756000+00:00</time>
      </trkpt>
      <trkpt lat="0" lon="0">
        <time>2020-12-20T10:13:02.759000+00:00</time>
      </trkpt>
      <trkpt lat="0" lon="0">
        <time>2020-12-20T10:13:02.762000+00:00</time>
      </trkpt>
      <trkpt lat="47.33863" lon="-1.33271">
        <ele>119</ele>
        <time>2020-12-20T10:13:03.754000+00:00</time>
      </trkpt>
      <trkpt lat="0" lon="0">
        <time>2020-12-20T10:13:03.769000+00:00</time>
      </trkpt>
      <trkpt lat="0" lon="0">
        <time>2020-12-20T10:13:03.778000+00:00</time>
      </trkpt>
      <trkpt lat="0" lon="0">
        <time>2020-12-20T10:13:03.780000+00:00</time>
      </trkpt>
      <trkpt lat="47.33862" lon="-1.33273">
        <ele>120</ele>
        <time>2020-12-20T10:13:04.790000+00:00</time>
      </trkpt>
      <trkpt lat="0" lon="0">
        <time>2020-12-20T10:13:04.803000+00:00</time>
      </trkpt>
      <trkpt lat="0" lon="0">
        <time>2020-12-20T10:13:04.807000+00:00</time>
      </trkpt>
      <trkpt lat="0" lon="0">
        <time>2020-12-20T10:13:04.812000+00:00</time>
      </trkpt>
      <trkpt lat="47.33862" lon="-1.33275">
        <ele>120</ele>
        <time>2020-12-20T10:13:05.740000+00:00</time>
      </trkpt>
      <trkpt lat="0" lon="0">
        <time>2020-12-20T10:13:05.749000+00:00</time>
      </trkpt>
      <trkpt lat="0" lon="0">
        <time>2020-12-20T10:13:05.753000+00:00</time>
      </trkpt>
      <trkpt lat="0" lon="0">
        <time>2020-12-20T10:13:05.756000+00:00</time>
      </trkpt>
      <trkpt lat="47.33861" lon="-1.33277">
        <ele>120</ele>
        <time>2020-12-20T10:13:06.743000+00:00</time>
      </trkpt>
      <trkpt lat="0" lon="0">
        <time>2020-12-20T10:13:06.759000+00:00</time>
      </trkpt>
      <trkpt lat="0" lon="0">
        <time>2020-12-20T10:13:06.767000+00:00</time>
      </trkpt>
      <trkpt lat="0" lon="0">
        <time>2020-12-20T10:13:06.769000+00:00</time>
      </trkpt>
      <trkpt lat="47.33861" lon="-1.33278">
        <ele>120</ele>
        <time>2020-12-20T10:13:07.758000+00:00</time>
      </trkpt>
      <trkpt lat="0" lon="0">
        <time>2020-12-20T10:13:07.767000+00:00</time>
      </trkpt>
      <trkpt lat="0" lon="0">
        <time>2020-12-20T10:13:07.774000+00:00</time>
      </trkpt>
      <trkpt lat="0" lon="0">
        <time>2020-12-20T10:13:07.779000+00:00</time>
      </trkpt>
      <trkpt lat="47.3386" lon="-1.3328">
        <ele>120</ele>
        <time>2020-12-20T10:13:08.758000+00:00</time>
      </trkpt>
      <trkpt lat="0" lon="0">
        <time>2020-12-20T10:13:08.768000+00:00</time>
      </trkpt>
      <trkpt lat="0" lon="0">
        <time>2020-12-20T10:13:08.772000+00:00</time>
      </trkpt>
      <trkpt lat="0" lon="0">
        <time>2020-12-20T10:13:08.775000+00:00</time>
      </trkpt>
      <trkpt lat="47.33859" lon="-1.33282">
        <ele>120</ele>
        <time>2020-12-20T10:13:09.724000+00:00</time>
      </trkpt>
      <trkpt lat="0" lon="0">
        <time>2020-12-20T10:13:09.732000+00:00</time>
      </trkpt>
      <trkpt lat="0" lon="0">
        <time>2020-12-20T10:13:09.734000+00:00</time>
      </trkpt>
      <trkpt lat="0" lon="0">
        <time>2020-12-20T10:13:09.735000+00:00</time>
      </trkpt>
      <trkpt lat="47.33858" lon="-1.33284">
        <ele>121</ele>
        <time>2020-12-20T10:13:10.769000+00:00</time>
      </trkpt>
      <trkpt lat="0" lon="0">
        <time>2020-12-20T10:13:10.771000+00:00</time>
      </trkpt>
      <trkpt lat="0" lon="0">
        <time>2020-12-20T10:13:10.773000+00:00</time>
      </trkpt>
      <trkpt lat="0" lon="0">
        <time>2020-12-20T10:13:10.780000+00:00</time>
      </trkpt>
      <trkpt lat="47.33857" lon="-1.33286">
        <ele>121</ele>
        <time>2020-12-20T10:13:11.760000+00:00</time>
      </trkpt>
      <trkpt lat="0" lon="0">
        <time>2020-12-20T10:13:11.779000+00:00</time>
      </trkpt>
      <trkpt lat="0" lon="0">
        <time>2020-12-20T10:13:11.786000+00:00</time>
      </trkpt>
      <trkpt lat="0" lon="0">
        <time>2020-12-20T10:13:11.789000+00:00</time>
      </trkpt>
      <trkpt lat="47.33857" lon="-1.33288">
        <ele>121</ele>
        <time>2020-12-20T10:13:12.749000+00:00</time>
      </trkpt>
      <trkpt lat="0" lon="0">
        <time>2020-12-20T10:13:12.753000+00:00</time>
      </trkpt>
      <trkpt lat="0" lon="0">
        <time>2020-12-20T10:13:12.757000+00:00</time>
      </trkpt>
      <trkpt lat="0" lon="0">
        <time>2020-12-20T10:13:12.760000+00:00</time>
      </trkpt>
      <trkpt lat="47.33856" lon="-1.3329">
        <ele>121</ele>
        <time>2020-12-20T10:13:13.719000+00:00</time>
      </trkpt>
      <trkpt lat="0" lon="0">
        <time>2020-12-20T10:13:13.724000+00:00</time>
      </trkpt>
      <trkpt lat="0" lon="0">
        <time>2020-12-20T10:13:13.728000+00:00</time>
      </trkpt>
      <trkpt lat="0" lon="0">
        <time>2020-12-20T10:13:13.731000+00:00</time>
      </trkpt>
      <trkpt lat="47.33855" lon="-1.33292">
        <ele>121</ele>
        <time>2020-12-20T10:13:14.740000+00:00</time>
      </trkpt>
      <trkpt lat="0" lon="0">
        <time>2020-12-20T10:13:14.751000+00:00</time>
      </trkpt>
      <trkpt lat="0" lon="0">
        <time>2020-12-20T10:13:14.757000+00:00</time>
      </trkpt>
      <trkpt lat="0" lon="0">
        <time>2020-12-20T10:13:14.760000+00:00</time>
      </trkpt>
      <trkpt lat="47.33854" lon="-1.33294">
        <ele>122</ele>
        <time>2020-12-20T10:13:15.747000+00:00</time>
      </trkpt>
      <trkpt lat="0" lon="0">
        <time>2020-12-20T10:13:15.752000+00:00</time>
      </trkpt>
      <trkpt lat="0" lon="0">
        <time>2020-12-20T10:13:15.756000+00:00</time>
      </trkpt>
      <trkpt lat="0" lon="0">
        <time>2020-12-20T10:13:15.758000+00:00</time>
      </trkpt>
      <trkpt lat="47.33853" lon="-1.33296">
        <ele>123</ele>
        <time>2020-12-20T10:13:16.763000+00:00</time>
      </trkpt>
      <trkpt lat="0" lon="0">
        <time>2020-12-20T10:13:16.787000+00:00</time>
      </trkpt>
      <trkpt lat="0" lon="0">
        <time>2020-12-20T10:13:16.791000+00:00</time>
      </trkpt>
      <trkpt lat="0" lon="0">
        <time>2020-12-20T10:13:16.793000+00:00</time>
      </trkpt>
      <trkpt lat="47.33852" lon="-1.33298">
        <ele>123</ele>
        <time>2020-12-20T10:13:17.761000+00:00</time>
      </trkpt>
      <trkpt lat="0" lon="0">
        <time>2020-12-20T10:13:17.779000+00:00</time>
      </trkpt>
      <trkpt lat="0" lon="0">
        <time>2020-12-20T10:13:17.790000+00:00</time>
      </trkpt>
      <trkpt lat="0" lon="0">
        <time>2020-12-20T10:13:17.792000+00:00</time>
      </trkpt>
      <trkpt lat="47.33851" lon="-1.333">
        <ele>123</ele>
        <time>2020-12-20T10:13:18.748000+00:00</time>
      </trkpt>
      <trkpt lat="0" lon="0">
        <time>2020-12-20T10:13:18.754000+00:00</time>
      </trkpt>
      <trkpt lat="0" lon="0">
        <time>2020-12-20T10:13:18.763000+00:00</time>
      </trkpt>
      <trkpt lat="0" lon="0">
        <time>2020-12-20T10:13:18.766000+00:00</time>
      </trkpt>
      <trkpt lat="47.3385" lon="-1.33302">
        <ele>123</ele>
        <time>2020-12-20T10:13:19.737000+00:00</time>
      </trkpt>
      <trkpt lat="0" lon="0">
        <time>2020-12-20T10:13:19.743000+00:00</time>
      </trkpt>
      <trkpt lat="0" lon="0">
        <time>2020-12-20T10:13:19.751000+00:00</time>
      </trkpt>
      <trkpt lat="0" lon="0">
        <time>2020-12-20T10:13:19.756000+00:00</time>
      </trkpt>
      <trkpt lat="47.33849" lon="-1.33304">
        <ele>123</ele>
        <time>2020-12-20T10:13:20.745000+00:00</time>
      </trkpt>
      <trkpt lat="0" lon="0">
        <time>2020-12-20T10:13:20.758000+00:00</time>
      </trkpt>
      <trkpt lat="0" lon="0">
        <time>2020-12-20T10:13:20.768000+00:00</time>
      </trkpt>
      <trkpt lat="0" lon="0">
        <time>2020-12-20T10:13:20.770000+00:00</time>
      </trkpt>
      <trkpt lat="47.33848" lon="-1.33306">
        <ele>124</ele>
        <time>2020-12-20T10:13:21.760000+00:00</time>
      </trkpt>
      <trkpt lat="0" lon="0">
        <time>2020-12-20T10:13:21.769000+00:00</time>
      </trkpt>
      <trkpt lat="0" lon="0">
        <time>2020-12-20T10:13:21.771000+00:00</time>
      </trkpt>
      <trkpt lat="0" lon="0">
        <time>2020-12-20T10:13:21.773000+00:00</time>
      </trkpt>
      <trkpt lat="47.33847" lon="-1.33308">
        <ele>124</ele>
        <time>2020-12-20T10:13:22.743000+00:00</time>
      </trkpt>
      <trkpt lat="0" lon="0">
        <time>2020-12-20T10:13:22.752000+00:00</time>
      </trkpt>
      <trkpt lat="0" lon="0">
        <time>2020-12-20T10:13:22.757000+00:00</time>
      </trkpt>
      <trkpt lat="0" lon="0">
        <time>2020-12-20T10:13:22.759000+00:00</time>
      </trkpt>
      <trkpt lat="47.33845" lon="-1.3331">
        <ele>124</ele>
        <time>2020-12-20T10:13:23.741000+00:00</time>
      </trkpt>
      <trkpt lat="0" lon="0">
        <time>2020-12-20T10:13:23.747000+00:00</time>
      </trkpt>
      <trkpt lat="0" lon="0">
        <time>2020-12-20T10:13:23.751000+00:00</time>
      </trkpt>
      <trkpt lat="0" lon="0">
        <time>2020-12-20T10:13:23.759000+00:00</time>
      </trkpt>
      <trkpt lat="47.33844" lon="-1.33313">
        <ele>125</ele>
        <time>2020-12-20T10:13:24.736000+00:00</time>
      </trkpt>
      <trkpt lat="0" lon="0">
        <time>2020-12-20T10:13:24.754000+00:00</time>
      </trkpt>
      <trkpt lat="0" lon="0">
        <time>2020-12-20T10:13:24.761000+00:00</time>
      </trkpt>
      <trkpt lat="0" lon="0">
        <time>2020-12-20T10:13:24.763000+00:00</time>
      </trkpt>
      <trkpt lat="47.33843" lon="-1.33315">
        <ele>125</ele>
        <time>2020-12-20T10:13:25.755000+00:00</time>
      </trkpt>
      <trkpt lat="0" lon="0">
        <time>2020-12-20T10:13:25.783000+00:00</time>
      </trkpt>
      <trkpt lat="0" lon="0">
        <time>2020-12-20T10:13:25.786000+00:00</time>
      </trkpt>
      <trkpt lat="0" lon="0">
        <time>2020-12-20T10:13:25.788000+00:00</time>
      </trkpt>
      <trkpt lat="47.33842" lon="-1.33317">
        <ele>125</ele>
        <time>2020-12-20T10:13:26.736000+00:00</time>
      </trkpt>
      <trkpt lat="0" lon="0">
        <time>2020-12-20T10:13:26.752000+00:00</time>
      </trkpt>
      <trkpt lat="0" lon="0">
        <time>2020-12-20T10:13:26.755000+00:00</time>
      </trkpt>
      <trkpt lat="0" lon="0">
        <time>2020-12-20T10:13:26.759000+00:00</time>
      </trkpt>
      <trkpt lat="47.33842" lon="-1.3332">
        <ele>125</ele>
        <time>2020-12-20T10:13:27.776000+00:00</time>
      </trkpt>
      <trkpt lat="0" lon="0">
        <time>2020-12-20T10:13:27.787000+00:00</time>
      </trkpt>
      <trkpt lat="0" lon="0">
        <time>2020-12-20T10:13:27.791000+00:00</time>
      </trkpt>
      <trkpt lat="0" lon="0">
        <time>2020-12-20T10:13:27.795000+00:00</time>
      </trkpt>
      <trkpt lat="47.33841" lon="-1.33322">
        <ele>124</ele>
        <time>2020-12-20T10:13:28.738000+00:00</time>
      </trkpt>
      <trkpt lat="0" lon="0">
        <time>2020-12-20T10:13:28.743000+00:00</time>
      </trkpt>
      <trkpt lat="0" lon="0">
        <time>2020-12-20T10:13:28.752000+00:00</time>
      </trkpt>
      <trkpt lat="0" lon="0">
        <time>2020-12-20T10:13:28.754000+00:00</time>
      </trkpt>
      <trkpt lat="47.3384" lon="-1.33324">
        <ele>124</ele>
        <time>2020-12-20T10:13:29.747000+00:00</time>
      </trkpt>
      <trkpt lat="0" lon="0">
        <time>2020-12-20T10:13:29.754000+00:00</time>
      </trkpt>
      <trkpt lat="0" lon="0">
        <time>2020-12-20T10:13:29.758000+00:00</time>
      </trkpt>
      <trkpt lat="0" lon="0">
        <time>2020-12-20T10:13:29.760000+00:00</time>
      </trkpt>
      <trkpt lat="47.3384" lon="-1.33327">
        <ele>124</ele>
        <time>2020-12-20T10:13:30.736000+00:00</time>
      </trkpt>
      <trkpt lat="0" lon="0">
        <time>2020-12-20T10:13:30.753000+00:00</time>
      </trkpt>
      <trkpt lat="0" lon="0">
        <time>2020-12-20T10:13:30.759000+00:00</time>
      </trkpt>
      <trkpt lat="0" lon="0">
        <time>2020-12-20T10:13:30.766000+00:00</time>
      </trkpt>
      <trkpt lat="47.33839" lon="-1.33329">
        <ele>125</ele>
        <time>2020-12-20T10:13:31.776000+00:00</time>
      </trkpt>
      <trkpt lat="0" lon="0">
        <time>2020-12-20T10:13:31.782000+00:00</time>
      </trkpt>
      <trkpt lat="0" lon="0">
        <time>2020-12-20T10:13:31.787000+00:00</time>
      </trkpt>
      <trkpt lat="0" lon="0">
        <time>2020-12-20T10:13:31.791000+00:00</time>
      </trkpt>
      <trkpt lat="47.33839" lon="-1.33331">
        <ele>125</ele>
        <time>2020-12-20T10:13:32.729000+00:00</time>
      </trkpt>
      <trkpt lat="0" lon="0">
        <time>2020-12-20T10:13:32.738000+00:00</time>
      </trkpt>
      <trkpt lat="0" lon="0">
        <time>2020-12-20T10:13:32.747000+00:00</time>
      </trkpt>
      <trkpt lat="0" lon="0">
        <time>2020-12-20T10:13:32.759000+00:00</time>
      </trkpt>
      <trkpt lat="47.33838" lon="-1.33333">
        <ele>125</ele>
        <time>2020-12-20T10:13:33.739000+00:00</time>
      </trkpt>
      <trkpt lat="0" lon="0">
        <time>2020-12-20T10:13:33.743000+00:00</time>
      </trkpt>
      <trkpt lat="0" lon="0">
        <time>2020-12-20T10:13:33.748000+00:00</time>
      </trkpt>
      <trkpt lat="0" lon="0">
        <time>2020-12-20T10:13:33.750000+00:00</time>
      </trkpt>
      <trkpt lat="47.33837" lon="-1.33336">
        <ele>126</ele>
        <time>2020-12-20T10:13:34.766000+00:00</time>
      </trkpt>
      <trkpt lat="0" lon="0">
        <time>2020-12-20T10:13:34.772000+00:00</time>
      </trkpt>
      <trkpt lat="0" lon="0">
        <time>2020-12-20T10:13:34.779000+00:00</time>
      </trkpt>
      <trkpt lat="0" lon="0">
        <time>2020-12-20T10:13:34.781000+00:00</time>
      </trkpt>
      <trkpt lat="47.33837" lon="-1.33338">
        <ele>126</ele>
        <time>2020-12-20T10:13:35.764000+00:00</time>
      </trkpt>
      <trkpt lat="0" lon="0">
        <time>2020-12-20T10:13:35.773000+00:00</time>
      </trkpt>
      <trkpt lat="0" lon="0">
        <time>2020-12-20T10:13:35.777000+00:00</time>
      </trkpt>
      <trkpt lat="0" lon="0">
        <time>2020-12-20T10:13:35.780000+00:00</time>
      </trkpt>
      <trkpt lat="47.33836" lon="-1.3334">
        <ele>126</ele>
        <time>2020-12-20T10:13:36.772000+00:00</time>
      </trkpt>
      <trkpt lat="0" lon="0">
        <time>2020-12-20T10:13:36.777000+00:00</time>
      </trkpt>
      <trkpt lat="0" lon="0">
        <time>2020-12-20T10:13:36.781000+00:00</time>
      </trkpt>
      <trkpt lat="0" lon="0">
        <time>2020-12-20T10:13:36.784000+00:00</time>
      </trkpt>
      <trkpt lat="47.33836" lon="-1.33342">
        <ele>126</ele>
        <time>2020-12-20T10:13:37.750000+00:00</time>
      </trkpt>
      <trkpt lat="0" lon="0">
        <time>2020-12-20T10:13:37.774000+00:00</time>
      </trkpt>
      <trkpt lat="0" lon="0">
        <time>2020-12-20T10:13:37.777000+00:00</time>
      </trkpt>
      <trkpt lat="0" lon="0">
        <time>2020-12-20T10:13:37.778000+00:00</time>
      </trkpt>
      <trkpt lat="47.33836" lon="-1.33344">
        <ele>126</ele>
        <time>2020-12-20T10:13:38.774000+00:00</time>
      </trkpt>
      <trkpt lat="0" lon="0">
        <time>2020-12-20T10:13:38.782000+00:00</time>
      </trkpt>
      <trkpt lat="0" lon="0">
        <time>2020-12-20T10:13:38.786000+00:00</time>
      </trkpt>
      <trkpt lat="0" lon="0">
        <time>2020-12-20T10:13:38.788000+00:00</time>
      </trkpt>
      <trkpt lat="47.33835" lon="-1.33346">
        <ele>126</ele>
        <time>2020-12-20T10:13:39.741000+00:00</time>
      </trkpt>
      <trkpt lat="0" lon="0">
        <time>2020-12-20T10:13:39.766000+00:00</time>
      </trkpt>
      <trkpt lat="0" lon="0">
        <time>2020-12-20T10:13:39.770000+00:00</time>
      </trkpt>
      <trkpt lat="0" lon="0">
        <time>2020-12-20T10:13:39.771000+00:00</time>
      </trkpt>
      <trkpt lat="47.33835" lon="-1.33348">
        <ele>126</ele>
        <time>2020-12-20T10:13:40.768000+00:00</time>
      </trkpt>
      <trkpt lat="0" lon="0">
        <time>2020-12-20T10:13:40.773000+00:00</time>
      </trkpt>
      <trkpt lat="0" lon="0">
        <time>2020-12-20T10:13:40.777000+00:00</time>
      </trkpt>
      <trkpt lat="0" lon="0">
        <time>2020-12-20T10:13:40.780000+00:00</time>
      </trkpt>
      <trkpt lat="47.33834" lon="-1.3335">
        <ele>127</ele>
        <time>2020-12-20T10:13:41.765000+00:00</time>
      </trkpt>
      <trkpt lat="0" lon="0">
        <time>2020-12-20T10:13:41.772000+00:00</time>
      </trkpt>
      <trkpt lat="0" lon="0">
        <time>2020-12-20T10:13:41.782000+00:00</time>
      </trkpt>
      <trkpt lat="0" lon="0">
        <time>2020-12-20T10:13:41.790000+00:00</time>
      </trkpt>
      <trkpt lat="47.33834" lon="-1.33352">
        <ele>126</ele>
        <time>2020-12-20T10:13:42.762000+00:00</time>
      </trkpt>
      <trkpt lat="0" lon="0">
        <time>2020-12-20T10:13:42.780000+00:00</time>
      </trkpt>
      <trkpt lat="0" lon="0">
        <time>2020-12-20T10:13:42.788000+00:00</time>
      </trkpt>
      <trkpt lat="0" lon="0">
        <time>2020-12-20T10:13:42.792000+00:00</time>
      </trkpt>
      <trkpt lat="47.33833" lon="-1.33354">
        <ele>126</ele>
        <time>2020-12-20T10:13:43.771000+00:00</time>
      </trkpt>
      <trkpt lat="0" lon="0">
        <time>2020-12-20T10:13:43.778000+00:00</time>
      </trkpt>
      <trkpt lat="0" lon="0">
        <time>2020-12-20T10:13:43.783000+00:00</time>
      </trkpt>
      <trkpt lat="0" lon="0">
        <time>2020-12-20T10:13:43.787000+00:00</time>
      </trkpt>
      <trkpt lat="47.33833" lon="-1.33356">
        <ele>125</ele>
        <time>2020-12-20T10:13:44.748000+00:00</time>
      </trkpt>
      <trkpt lat="0" lon="0">
        <time>2020-12-20T10:13:44.755000+00:00</time>
      </trkpt>
      <trkpt lat="0" lon="0">
        <time>2020-12-20T10:13:44.756000+00:00</time>
      </trkpt>
      <trkpt lat="0" lon="0">
        <time>2020-12-20T10:13:44.757000+00:00</time>
      </trkpt>
      <trkpt lat="47.33832" lon="-1.33357">
        <ele>125</ele>
        <time>2020-12-20T10:13:45.756000+00:00</time>
      </trkpt>
      <trkpt lat="0" lon="0">
        <time>2020-12-20T10:13:45.769000+00:00</time>
      </trkpt>
      <trkpt lat="0" lon="0">
        <time>2020-12-20T10:13:45.776000+00:00</time>
      </trkpt>
      <trkpt lat="0" lon="0">
        <time>2020-12-20T10:13:45.779000+00:00</time>
      </trkpt>
      <trkpt lat="47.33832" lon="-1.33359">
        <ele>126</ele>
        <time>2020-12-20T10:13:46.742000+00:00</time>
      </trkpt>
      <trkpt lat="0" lon="0">
        <time>2020-12-20T10:13:46.755000+00:00</time>
      </trkpt>
      <trkpt lat="0" lon="0">
        <time>2020-12-20T10:13:46.763000+00:00</time>
      </trkpt>
      <trkpt lat="0" lon="0">
        <time>2020-12-20T10:13:46.766000+00:00</time>
      </trkpt>
      <trkpt lat="47.33831" lon="-1.33361">
        <ele>126</ele>
        <time>2020-12-20T10:13:47.755000+00:00</time>
      </trkpt>
      <trkpt lat="0" lon="0">
        <time>2020-12-20T10:13:47.758000+00:00</time>
      </trkpt>
      <trkpt lat="0" lon="0">
        <time>2020-12-20T10:13:47.761000+00:00</time>
      </trkpt>
      <trkpt lat="0" lon="0">
        <time>2020-12-20T10:13:47.762000+00:00</time>
      </trkpt>
      <trkpt lat="47.33831" lon="-1.33362">
        <ele>126</ele>
        <time>2020-12-20T10:13:48.775000+00:00</time>
      </trkpt>
      <trkpt lat="0" lon="0">
        <time>2020-12-20T10:13:48.781000+00:00</time>
      </trkpt>
      <trkpt lat="0" lon="0">
        <time>2020-12-20T10:13:48.792000+00:00</time>
      </trkpt>
      <trkpt lat="0" lon="0">
        <time>2020-12-20T10:13:48.794000+00:00</time>
      </trkpt>
      <trkpt lat="47.3383" lon="-1.33364">
        <ele>127</ele>
        <time>2020-12-20T10:13:49.776000+00:00</time>
      </trkpt>
      <trkpt lat="0" lon="0">
        <time>2020-12-20T10:13:49.784000+00:00</time>
      </trkpt>
      <trkpt lat="0" lon="0">
        <time>2020-12-20T10:13:49.789000+00:00</time>
      </trkpt>
      <trkpt lat="0" lon="0">
        <time>2020-12-20T10:13:49.791000+00:00</time>
      </trkpt>
      <trkpt lat="47.3383" lon="-1.33366">
        <ele>127</ele>
        <time>2020-12-20T10:13:50.764000+00:00</time>
      </trkpt>
      <trkpt lat="0" lon="0">
        <time>2020-12-20T10:13:50.771000+00:00</time>
      </trkpt>
      <trkpt lat="0" lon="0">
        <time>2020-12-20T10:13:50.775000+00:00</time>
      </trkpt>
      <trkpt lat="0" lon="0">
        <time>2020-12-20T10:13:50.778000+00:00</time>
      </trkpt>
      <trkpt lat="47.33829" lon="-1.33368">
        <ele>127</ele>
        <time>2020-12-20T10:13:51.751000+00:00</time>
      </trkpt>
      <trkpt lat="0" lon="0">
        <time>2020-12-20T10:13:51.761000+00:00</time>
      </trkpt>
      <trkpt lat="0" lon="0">
        <time>2020-12-20T10:13:51.775000+00:00</time>
      </trkpt>
      <trkpt lat="0" lon="0">
        <time>2020-12-20T10:13:51.778000+00:00</time>
      </trkpt>
      <trkpt lat="47.33828" lon="-1.33369">
        <ele>127</ele>
        <time>2020-12-20T10:13:52.753000+00:00</time>
      </trkpt>
      <trkpt lat="0" lon="0">
        <time>2020-12-20T10:13:52.760000+00:00</time>
      </trkpt>
      <trkpt lat="0" lon="0">
        <time>2020-12-20T10:13:52.765000+00:00</time>
      </trkpt>
      <trkpt lat="0" lon="0">
        <time>2020-12-20T10:13:52.767000+00:00</time>
      </trkpt>
      <trkpt lat="47.33827" lon="-1.33371">
        <ele>127</ele>
        <time>2020-12-20T10:13:53.766000+00:00</time>
      </trkpt>
      <trkpt lat="0" lon="0">
        <time>2020-12-20T10:13:53.776000+00:00</time>
      </trkpt>
      <trkpt lat="0" lon="0">
        <time>2020-12-20T10:13:53.782000+00:00</time>
      </trkpt>
      <trkpt lat="0" lon="0">
        <time>2020-12-20T10:13:53.784000+00:00</time>
      </trkpt>
      <trkpt lat="47.33827" lon="-1.33373">
        <ele>127</ele>
        <time>2020-12-20T10:13:54.770000+00:00</time>
      </trkpt>
      <trkpt lat="0" lon="0">
        <time>2020-12-20T10:13:54.779000+00:00</time>
      </trkpt>
      <trkpt lat="0" lon="0">
        <time>2020-12-20T10:13:54.784000+00:00</time>
      </trkpt>
      <trkpt lat="0" lon="0">
        <time>2020-12-20T10:13:54.786000+00:00</time>
      </trkpt>
      <trkpt lat="47.33826" lon="-1.33374">
        <ele>127</ele>
        <time>2020-12-20T10:13:55.775000+00:00</time>
      </trkpt>
      <trkpt lat="0" lon="0">
        <time>2020-12-20T10:13:55.778000+00:00</time>
      </trkpt>
      <trkpt lat="0" lon="0">
        <time>2020-12-20T10:13:55.779000+00:00</time>
      </trkpt>
      <trkpt lat="0" lon="0">
        <time>2020-12-20T10:13:55.780000+00:00</time>
      </trkpt>
      <trkpt lat="47.33825" lon="-1.33376">
        <ele>128</ele>
        <time>2020-12-20T10:13:56.707000+00:00</time>
      </trkpt>
      <trkpt lat="0" lon="0">
        <time>2020-12-20T10:13:56.708000+00:00</time>
      </trkpt>
      <trkpt lat="0" lon="0">
        <time>2020-12-20T10:13:56.709000+00:00</time>
      </trkpt>
      <trkpt lat="47.33825" lon="-1.33378">
        <ele>128</ele>
        <time>2020-12-20T10:13:57.752000+00:00</time>
      </trkpt>
      <trkpt lat="0" lon="0">
        <time>2020-12-20T10:13:57.757000+00:00</time>
      </trkpt>
      <trkpt lat="0" lon="0">
        <time>2020-12-20T10:13:57.763000+00:00</time>
      </trkpt>
      <trkpt lat="0" lon="0">
        <time>2020-12-20T10:13:57.766000+00:00</time>
      </trkpt>
      <trkpt lat="47.33824" lon="-1.33379">
        <ele>127</ele>
        <time>2020-12-20T10:13:58.756000+00:00</time>
      </trkpt>
      <trkpt lat="0" lon="0">
        <time>2020-12-20T10:13:58.761000+00:00</time>
      </trkpt>
      <trkpt lat="0" lon="0">
        <time>2020-12-20T10:13:58.778000+00:00</time>
      </trkpt>
      <trkpt lat="0" lon="0">
        <time>2020-12-20T10:13:58.787000+00:00</time>
      </trkpt>
      <trkpt lat="47.33823" lon="-1.33381">
        <ele>127</ele>
        <time>2020-12-20T10:13:59.732000+00:00</time>
      </trkpt>
      <trkpt lat="0" lon="0">
        <time>2020-12-20T10:13:59.736000+00:00</time>
      </trkpt>
      <trkpt lat="0" lon="0">
        <time>2020-12-20T10:13:59.738000+00:00</time>
      </trkpt>
      <trkpt lat="0" lon="0">
        <time>2020-12-20T10:13:59.739000+00:00</time>
      </trkpt>
      <trkpt lat="47.33823" lon="-1.33383">
        <ele>128</ele>
        <time>2020-12-20T10:14:00.658000+00:00</time>
      </trkpt>
      <trkpt lat="0" lon="0">
        <time>2020-12-20T10:14:00.660000+00:00</time>
      </trkpt>
      <trkpt lat="0" lon="0">
        <time>2020-12-20T10:14:00.661000+00:00</time>
      </trkpt>
      <trkpt lat="0" lon="0">
        <time>2020-12-20T10:14:00.663000+00:00</time>
      </trkpt>
      <trkpt lat="47.33822" lon="-1.33384">
        <ele>128</ele>
        <time>2020-12-20T10:14:01.713000+00:00</time>
      </trkpt>
      <trkpt lat="0" lon="0">
        <time>2020-12-20T10:14:01.715000+00:00</time>
      </trkpt>
      <trkpt lat="0" lon="0">
        <time>2020-12-20T10:14:01.716000+00:00</time>
      </trkpt>
      <trkpt lat="0" lon="0">
        <time>2020-12-20T10:14:01.717000+00:00</time>
      </trkpt>
      <trkpt lat="47.33822" lon="-1.33385">
        <ele>128</ele>
        <time>2020-12-20T10:14:02.770000+00:00</time>
      </trkpt>
      <trkpt lat="0" lon="0">
        <time>2020-12-20T10:14:02.776000+00:00</time>
      </trkpt>
      <trkpt lat="0" lon="0">
        <time>2020-12-20T10:14:02.786000+00:00</time>
      </trkpt>
      <trkpt lat="0" lon="0">
        <time>2020-12-20T10:14:02.788000+00:00</time>
      </trkpt>
      <trkpt lat="47.33821" lon="-1.33386">
        <ele>129</ele>
        <time>2020-12-20T10:14:03.740000+00:00</time>
      </trkpt>
      <trkpt lat="0" lon="0">
        <time>2020-12-20T10:14:03.745000+00:00</time>
      </trkpt>
      <trkpt lat="0" lon="0">
        <time>2020-12-20T10:14:03.756000+00:00</time>
      </trkpt>
      <trkpt lat="0" lon="0">
        <time>2020-12-20T10:14:03.758000+00:00</time>
      </trkpt>
      <trkpt lat="47.33821" lon="-1.33387">
        <ele>130</ele>
        <time>2020-12-20T10:14:04.709000+00:00</time>
      </trkpt>
      <trkpt lat="0" lon="0">
        <time>2020-12-20T10:14:04.720000+00:00</time>
      </trkpt>
      <trkpt lat="0" lon="0">
        <time>2020-12-20T10:14:04.730000+00:00</time>
      </trkpt>
      <trkpt lat="0" lon="0">
        <time>2020-12-20T10:14:04.735000+00:00</time>
      </trkpt>
      <trkpt lat="47.3382" lon="-1.33389">
        <ele>131</ele>
        <time>2020-12-20T10:14:05.727000+00:00</time>
      </trkpt>
      <trkpt lat="0" lon="0">
        <time>2020-12-20T10:14:05.738000+00:00</time>
      </trkpt>
      <trkpt lat="0" lon="0">
        <time>2020-12-20T10:14:05.743000+00:00</time>
      </trkpt>
      <trkpt lat="0" lon="0">
        <time>2020-12-20T10:14:05.751000+00:00</time>
      </trkpt>
      <trkpt lat="47.33819" lon="-1.3339">
        <ele>132</ele>
        <time>2020-12-20T10:14:06.733000+00:00</time>
      </trkpt>
      <trkpt lat="0" lon="0">
        <time>2020-12-20T10:14:06.739000+00:00</time>
      </trkpt>
      <trkpt lat="0" lon="0">
        <time>2020-12-20T10:14:06.743000+00:00</time>
      </trkpt>
      <trkpt lat="0" lon="0">
        <time>2020-12-20T10:14:06.744000+00:00</time>
      </trkpt>
      <trkpt lat="47.33819" lon="-1.33392">
        <ele>133</ele>
        <time>2020-12-20T10:14:07.720000+00:00</time>
      </trkpt>
      <trkpt lat="0" lon="0">
        <time>2020-12-20T10:14:07.725000+00:00</time>
      </trkpt>
      <trkpt lat="0" lon="0">
        <time>2020-12-20T10:14:07.730000+00:00</time>
      </trkpt>
      <trkpt lat="0" lon="0">
        <time>2020-12-20T10:14:07.732000+00:00</time>
      </trkpt>
      <trkpt lat="47.33818" lon="-1.33394">
        <ele>134</ele>
        <time>2020-12-20T10:14:08.748000+00:00</time>
      </trkpt>
      <trkpt lat="0" lon="0">
        <time>2020-12-20T10:14:08.760000+00:00</time>
      </trkpt>
      <trkpt lat="0" lon="0">
        <time>2020-12-20T10:14:08.762000+00:00</time>
      </trkpt>
      <trkpt lat="0" lon="0">
        <time>2020-12-20T10:14:08.764000+00:00</time>
      </trkpt>
      <trkpt lat="47.33817" lon="-1.33396">
        <ele>134</ele>
        <time>2020-12-20T10:14:09.748000+00:00</time>
      </trkpt>
      <trkpt lat="0" lon="0">
        <time>2020-12-20T10:14:09.753000+00:00</time>
      </trkpt>
      <trkpt lat="0" lon="0">
        <time>2020-12-20T10:14:09.757000+00:00</time>
      </trkpt>
      <trkpt lat="0" lon="0">
        <time>2020-12-20T10:14:09.762000+00:00</time>
      </trkpt>
      <trkpt lat="47.33816" lon="-1.33398">
        <ele>133</ele>
        <time>2020-12-20T10:14:10.750000+00:00</time>
      </trkpt>
      <trkpt lat="0" lon="0">
        <time>2020-12-20T10:14:10.756000+00:00</time>
      </trkpt>
      <trkpt lat="0" lon="0">
        <time>2020-12-20T10:14:10.760000+00:00</time>
      </trkpt>
      <trkpt lat="0" lon="0">
        <time>2020-12-20T10:14:10.762000+00:00</time>
      </trkpt>
      <trkpt lat="47.33815" lon="-1.33401">
        <ele>133</ele>
        <time>2020-12-20T10:14:11.740000+00:00</time>
      </trkpt>
      <trkpt lat="0" lon="0">
        <time>2020-12-20T10:14:11.744000+00:00</time>
      </trkpt>
      <trkpt lat="0" lon="0">
        <time>2020-12-20T10:14:11.751000+00:00</time>
      </trkpt>
      <trkpt lat="0" lon="0">
        <time>2020-12-20T10:14:11.753000+00:00</time>
      </trkpt>
      <trkpt lat="47.33814" lon="-1.33404">
        <ele>134</ele>
        <time>2020-12-20T10:14:12.735000+00:00</time>
      </trkpt>
      <trkpt lat="0" lon="0">
        <time>2020-12-20T10:14:12.740000+00:00</time>
      </trkpt>
      <trkpt lat="0" lon="0">
        <time>2020-12-20T10:14:12.742000+00:00</time>
      </trkpt>
      <trkpt lat="0" lon="0">
        <time>2020-12-20T10:14:12.743000+00:00</time>
      </trkpt>
      <trkpt lat="47.33813" lon="-1.33406">
        <ele>134</ele>
        <time>2020-12-20T10:14:13.732000+00:00</time>
      </trkpt>
      <trkpt lat="0" lon="0">
        <time>2020-12-20T10:14:13.737000+00:00</time>
      </trkpt>
      <trkpt lat="0" lon="0">
        <time>2020-12-20T10:14:13.742000+00:00</time>
      </trkpt>
      <trkpt lat="0" lon="0">
        <time>2020-12-20T10:14:13.744000+00:00</time>
      </trkpt>
      <trkpt lat="47.33812" lon="-1.33409">
        <ele>134</ele>
        <time>2020-12-20T10:14:14.751000+00:00</time>
      </trkpt>
      <trkpt lat="0" lon="0">
        <time>2020-12-20T10:14:14.758000+00:00</time>
      </trkpt>
      <trkpt lat="0" lon="0">
        <time>2020-12-20T10:14:14.764000+00:00</time>
      </trkpt>
      <trkpt lat="0" lon="0">
        <time>2020-12-20T10:14:14.766000+00:00</time>
      </trkpt>
      <trkpt lat="47.33811" lon="-1.33411">
        <ele>135</ele>
        <time>2020-12-20T10:14:15.752000+00:00</time>
      </trkpt>
      <trkpt lat="0" lon="0">
        <time>2020-12-20T10:14:15.765000+00:00</time>
      </trkpt>
      <trkpt lat="0" lon="0">
        <time>2020-12-20T10:14:15.770000+00:00</time>
      </trkpt>
      <trkpt lat="0" lon="0">
        <time>2020-12-20T10:14:15.771000+00:00</time>
      </trkpt>
      <trkpt lat="47.33811" lon="-1.33414">
        <ele>136</ele>
        <time>2020-12-20T10:14:16.739000+00:00</time>
      </trkpt>
      <trkpt lat="0" lon="0">
        <time>2020-12-20T10:14:16.747000+00:00</time>
      </trkpt>
      <trkpt lat="0" lon="0">
        <time>2020-12-20T10:14:16.749000+00:00</time>
      </trkpt>
      <trkpt lat="0" lon="0">
        <time>2020-12-20T10:14:16.750000+00:00</time>
      </trkpt>
      <trkpt lat="47.3381" lon="-1.33416">
        <ele>136</ele>
        <time>2020-12-20T10:14:17.731000+00:00</time>
      </trkpt>
      <trkpt lat="0" lon="0">
        <time>2020-12-20T10:14:17.738000+00:00</time>
      </trkpt>
      <trkpt lat="0" lon="0">
        <time>2020-12-20T10:14:17.741000+00:00</time>
      </trkpt>
      <trkpt lat="0" lon="0">
        <time>2020-12-20T10:14:17.743000+00:00</time>
      </trkpt>
      <trkpt lat="47.3381" lon="-1.33418">
        <ele>136</ele>
        <time>2020-12-20T10:14:18.735000+00:00</time>
      </trkpt>
      <trkpt lat="0" lon="0">
        <time>2020-12-20T10:14:18.751000+00:00</time>
      </trkpt>
      <trkpt lat="0" lon="0">
        <time>2020-12-20T10:14:18.761000+00:00</time>
      </trkpt>
      <trkpt lat="0" lon="0">
        <time>2020-12-20T10:14:18.762000+00:00</time>
      </trkpt>
      <trkpt lat="47.33809" lon="-1.3342">
        <ele>137</ele>
        <time>2020-12-20T10:14:19.767000+00:00</time>
      </trkpt>
      <trkpt lat="0" lon="0">
        <time>2020-12-20T10:14:19.771000+00:00</time>
      </trkpt>
      <trkpt lat="0" lon="0">
        <time>2020-12-20T10:14:19.777000+00:00</time>
      </trkpt>
      <trkpt lat="0" lon="0">
        <time>2020-12-20T10:14:19.778000+00:00</time>
      </trkpt>
      <trkpt lat="47.33809" lon="-1.33423">
        <ele>138</ele>
        <time>2020-12-20T10:14:20.754000+00:00</time>
      </trkpt>
      <trkpt lat="0" lon="0">
        <time>2020-12-20T10:14:20.762000+00:00</time>
      </trkpt>
      <trkpt lat="0" lon="0">
        <time>2020-12-20T10:14:20.766000+00:00</time>
      </trkpt>
      <trkpt lat="0" lon="0">
        <time>2020-12-20T10:14:20.770000+00:00</time>
      </trkpt>
      <trkpt lat="47.33808" lon="-1.33425">
        <ele>138</ele>
        <time>2020-12-20T10:14:21.763000+00:00</time>
      </trkpt>
      <trkpt lat="0" lon="0">
        <time>2020-12-20T10:14:21.769000+00:00</time>
      </trkpt>
      <trkpt lat="0" lon="0">
        <time>2020-12-20T10:14:21.775000+00:00</time>
      </trkpt>
      <trkpt lat="0" lon="0">
        <time>2020-12-20T10:14:21.777000+00:00</time>
      </trkpt>
      <trkpt lat="47.33807" lon="-1.33427">
        <ele>139</ele>
        <time>2020-12-20T10:14:22.795000+00:00</time>
      </trkpt>
      <trkpt lat="0" lon="0">
        <time>2020-12-20T10:14:22.807000+00:00</time>
      </trkpt>
      <trkpt lat="0" lon="0">
        <time>2020-12-20T10:14:22.813000+00:00</time>
      </trkpt>
      <trkpt lat="0" lon="0">
        <time>2020-12-20T10:14:22.815000+00:00</time>
      </trkpt>
      <trkpt lat="47.33806" lon="-1.3343">
        <ele>140</ele>
        <time>2020-12-20T10:14:23.771000+00:00</time>
      </trkpt>
      <trkpt lat="0" lon="0">
        <time>2020-12-20T10:14:23.781000+00:00</time>
      </trkpt>
      <trkpt lat="0" lon="0">
        <time>2020-12-20T10:14:23.791000+00:00</time>
      </trkpt>
      <trkpt lat="0" lon="0">
        <time>2020-12-20T10:14:23.794000+00:00</time>
      </trkpt>
      <trkpt lat="47.33805" lon="-1.33433">
        <ele>141</ele>
        <time>2020-12-20T10:14:24.777000+00:00</time>
      </trkpt>
      <trkpt lat="0" lon="0">
        <time>2020-12-20T10:14:24.781000+00:00</time>
      </trkpt>
      <trkpt lat="0" lon="0">
        <time>2020-12-20T10:14:24.788000+00:00</time>
      </trkpt>
      <trkpt lat="0" lon="0">
        <time>2020-12-20T10:14:24.793000+00:00</time>
      </trkpt>
      <trkpt lat="47.33804" lon="-1.33435">
        <ele>141</ele>
        <time>2020-12-20T10:14:25.761000+00:00</time>
      </trkpt>
      <trkpt lat="0" lon="0">
        <time>2020-12-20T10:14:25.769000+00:00</time>
      </trkpt>
      <trkpt lat="0" lon="0">
        <time>2020-12-20T10:14:25.774000+00:00</time>
      </trkpt>
      <trkpt lat="0" lon="0">
        <time>2020-12-20T10:14:25.776000+00:00</time>
      </trkpt>
      <trkpt lat="47.33802" lon="-1.33438">
        <ele>140</ele>
        <time>2020-12-20T10:14:26.727000+00:00</time>
      </trkpt>
      <trkpt lat="0" lon="0">
        <time>2020-12-20T10:14:26.731000+00:00</time>
      </trkpt>
      <trkpt lat="0" lon="0">
        <time>2020-12-20T10:14:26.734000+00:00</time>
      </trkpt>
      <trkpt lat="0" lon="0">
        <time>2020-12-20T10:14:26.737000+00:00</time>
      </trkpt>
      <trkpt lat="47.33801" lon="-1.3344">
        <ele>140</ele>
        <time>2020-12-20T10:14:27.774000+00:00</time>
      </trkpt>
      <trkpt lat="0" lon="0">
        <time>2020-12-20T10:14:27.776000+00:00</time>
      </trkpt>
      <trkpt lat="0" lon="0">
        <time>2020-12-20T10:14:27.778000+00:00</time>
      </trkpt>
      <trkpt lat="0" lon="0">
        <time>2020-12-20T10:14:27.779000+00:00</time>
      </trkpt>
      <trkpt lat="47.338" lon="-1.33443">
        <ele>141</ele>
        <time>2020-12-20T10:14:28.751000+00:00</time>
      </trkpt>
      <trkpt lat="0" lon="0">
        <time>2020-12-20T10:14:28.768000+00:00</time>
      </trkpt>
      <trkpt lat="0" lon="0">
        <time>2020-12-20T10:14:28.772000+00:00</time>
      </trkpt>
      <trkpt lat="0" lon="0">
        <time>2020-12-20T10:14:28.776000+00:00</time>
      </trkpt>
      <trkpt lat="47.33799" lon="-1.33446">
        <ele>141</ele>
        <time>2020-12-20T10:14:29.757000+00:00</time>
      </trkpt>
      <trkpt lat="0" lon="0">
        <time>2020-12-20T10:14:29.762000+00:00</time>
      </trkpt>
      <trkpt lat="0" lon="0">
        <time>2020-12-20T10:14:29.766000+00:00</time>
      </trkpt>
      <trkpt lat="0" lon="0">
        <time>2020-12-20T10:14:29.770000+00:00</time>
      </trkpt>
      <trkpt lat="47.33798" lon="-1.33448">
        <ele>142</ele>
        <time>2020-12-20T10:14:30.751000+00:00</time>
      </trkpt>
      <trkpt lat="0" lon="0">
        <time>2020-12-20T10:14:30.765000+00:00</time>
      </trkpt>
      <trkpt lat="0" lon="0">
        <time>2020-12-20T10:14:30.768000+00:00</time>
      </trkpt>
      <trkpt lat="0" lon="0">
        <time>2020-12-20T10:14:30.770000+00:00</time>
      </trkpt>
      <trkpt lat="47.33796" lon="-1.33451">
        <ele>143</ele>
        <time>2020-12-20T10:14:31.767000+00:00</time>
      </trkpt>
      <trkpt lat="0" lon="0">
        <time>2020-12-20T10:14:31.785000+00:00</time>
      </trkpt>
      <trkpt lat="0" lon="0">
        <time>2020-12-20T10:14:31.793000+00:00</time>
      </trkpt>
      <trkpt lat="0" lon="0">
        <time>2020-12-20T10:14:31.796000+00:00</time>
      </trkpt>
      <trkpt lat="47.33795" lon="-1.33454">
        <ele>143</ele>
        <time>2020-12-20T10:14:32.770000+00:00</time>
      </trkpt>
      <trkpt lat="0" lon="0">
        <time>2020-12-20T10:14:32.776000+00:00</time>
      </trkpt>
      <trkpt lat="0" lon="0">
        <time>2020-12-20T10:14:32.780000+00:00</time>
      </trkpt>
      <trkpt lat="0" lon="0">
        <time>2020-12-20T10:14:32.783000+00:00</time>
      </trkpt>
      <trkpt lat="47.33794" lon="-1.33457">
        <ele>143</ele>
        <time>2020-12-20T10:14:33.768000+00:00</time>
      </trkpt>
      <trkpt lat="0" lon="0">
        <time>2020-12-20T10:14:33.771000+00:00</time>
      </trkpt>
      <trkpt lat="0" lon="0">
        <time>2020-12-20T10:14:33.774000+00:00</time>
      </trkpt>
      <trkpt lat="0" lon="0">
        <time>2020-12-20T10:14:33.775000+00:00</time>
      </trkpt>
      <trkpt lat="47.33793" lon="-1.33459">
        <ele>142</ele>
        <time>2020-12-20T10:14:34.788000+00:00</time>
      </trkpt>
      <trkpt lat="0" lon="0">
        <time>2020-12-20T10:14:34.796000+00:00</time>
      </trkpt>
      <trkpt lat="0" lon="0">
        <time>2020-12-20T10:14:34.800000+00:00</time>
      </trkpt>
      <trkpt lat="0" lon="0">
        <time>2020-12-20T10:14:34.803000+00:00</time>
      </trkpt>
      <trkpt lat="47.33791" lon="-1.33462">
        <ele>142</ele>
        <time>2020-12-20T10:14:35.766000+00:00</time>
      </trkpt>
      <trkpt lat="0" lon="0">
        <time>2020-12-20T10:14:35.783000+00:00</time>
      </trkpt>
      <trkpt lat="0" lon="0">
        <time>2020-12-20T10:14:35.787000+00:00</time>
      </trkpt>
      <trkpt lat="0" lon="0">
        <time>2020-12-20T10:14:35.789000+00:00</time>
      </trkpt>
      <trkpt lat="47.3379" lon="-1.33465">
        <ele>142</ele>
        <time>2020-12-20T10:14:36.745000+00:00</time>
      </trkpt>
      <trkpt lat="0" lon="0">
        <time>2020-12-20T10:14:36.748000+00:00</time>
      </trkpt>
      <trkpt lat="0" lon="0">
        <time>2020-12-20T10:14:36.750000+00:00</time>
      </trkpt>
      <trkpt lat="0" lon="0">
        <time>2020-12-20T10:14:36.751000+00:00</time>
      </trkpt>
      <trkpt lat="47.33789" lon="-1.33468">
        <ele>142</ele>
        <time>2020-12-20T10:14:37.784000+00:00</time>
      </trkpt>
      <trkpt lat="0" lon="0">
        <time>2020-12-20T10:14:37.791000+00:00</time>
      </trkpt>
      <trkpt lat="0" lon="0">
        <time>2020-12-20T10:14:37.795000+00:00</time>
      </trkpt>
      <trkpt lat="0" lon="0">
        <time>2020-12-20T10:14:37.798000+00:00</time>
      </trkpt>
      <trkpt lat="47.33787" lon="-1.3347">
        <ele>142</ele>
        <time>2020-12-20T10:14:38.749000+00:00</time>
      </trkpt>
      <trkpt lat="0" lon="0">
        <time>2020-12-20T10:14:38.754000+00:00</time>
      </trkpt>
      <trkpt lat="0" lon="0">
        <time>2020-12-20T10:14:38.757000+00:00</time>
      </trkpt>
      <trkpt lat="0" lon="0">
        <time>2020-12-20T10:14:38.760000+00:00</time>
      </trkpt>
      <trkpt lat="47.33786" lon="-1.33473">
        <ele>141</ele>
        <time>2020-12-20T10:14:39.802000+00:00</time>
      </trkpt>
      <trkpt lat="0" lon="0">
        <time>2020-12-20T10:14:39.804000+00:00</time>
      </trkpt>
      <trkpt lat="0" lon="0">
        <time>2020-12-20T10:14:39.807000+00:00</time>
      </trkpt>
      <trkpt lat="0" lon="0">
        <time>2020-12-20T10:14:39.808000+00:00</time>
      </trkpt>
      <trkpt lat="47.33784" lon="-1.33476">
        <ele>141</ele>
        <time>2020-12-20T10:14:40.760000+00:00</time>
      </trkpt>
      <trkpt lat="0" lon="0">
        <time>2020-12-20T10:14:40.767000+00:00</time>
      </trkpt>
      <trkpt lat="0" lon="0">
        <time>2020-12-20T10:14:40.771000+00:00</time>
      </trkpt>
      <trkpt lat="0" lon="0">
        <time>2020-12-20T10:14:40.781000+00:00</time>
      </trkpt>
      <trkpt lat="47.33782" lon="-1.33479">
        <ele>141</ele>
        <time>2020-12-20T10:14:41.751000+00:00</time>
      </trkpt>
      <trkpt lat="0" lon="0">
        <time>2020-12-20T10:14:41.762000+00:00</time>
      </trkpt>
      <trkpt lat="0" lon="0">
        <time>2020-12-20T10:14:41.771000+00:00</time>
      </trkpt>
      <trkpt lat="0" lon="0">
        <time>2020-12-20T10:14:41.778000+00:00</time>
      </trkpt>
      <trkpt lat="47.33781" lon="-1.33481">
        <ele>140</ele>
        <time>2020-12-20T10:14:42.774000+00:00</time>
      </trkpt>
      <trkpt lat="0" lon="0">
        <time>2020-12-20T10:14:42.782000+00:00</time>
      </trkpt>
      <trkpt lat="0" lon="0">
        <time>2020-12-20T10:14:42.789000+00:00</time>
      </trkpt>
      <trkpt lat="0" lon="0">
        <time>2020-12-20T10:14:42.791000+00:00</time>
      </trkpt>
      <trkpt lat="47.33779" lon="-1.33484">
        <ele>140</ele>
        <time>2020-12-20T10:14:43.764000+00:00</time>
      </trkpt>
      <trkpt lat="0" lon="0">
        <time>2020-12-20T10:14:43.776000+00:00</time>
      </trkpt>
      <trkpt lat="0" lon="0">
        <time>2020-12-20T10:14:43.780000+00:00</time>
      </trkpt>
      <trkpt lat="0" lon="0">
        <time>2020-12-20T10:14:43.782000+00:00</time>
      </trkpt>
      <trkpt lat="47.33778" lon="-1.33487">
        <ele>140</ele>
        <time>2020-12-20T10:14:44.739000+00:00</time>
      </trkpt>
      <trkpt lat="0" lon="0">
        <time>2020-12-20T10:14:44.749000+00:00</time>
      </trkpt>
      <trkpt lat="0" lon="0">
        <time>2020-12-20T10:14:44.754000+00:00</time>
      </trkpt>
      <trkpt lat="0" lon="0">
        <time>2020-12-20T10:14:44.755000+00:00</time>
      </trkpt>
      <trkpt lat="47.33776" lon="-1.3349">
        <ele>140</ele>
        <time>2020-12-20T10:14:45.754000+00:00</time>
      </trkpt>
      <trkpt lat="0" lon="0">
        <time>2020-12-20T10:14:45.768000+00:00</time>
      </trkpt>
      <trkpt lat="0" lon="0">
        <time>2020-12-20T10:14:45.776000+00:00</time>
      </trkpt>
      <trkpt lat="0" lon="0">
        <time>2020-12-20T10:14:45.779000+00:00</time>
      </trkpt>
      <trkpt lat="47.33774" lon="-1.33493">
        <ele>140</ele>
        <time>2020-12-20T10:14:46.783000+00:00</time>
      </trkpt>
      <trkpt lat="0" lon="0">
        <time>2020-12-20T10:14:46.788000+00:00</time>
      </trkpt>
      <trkpt lat="0" lon="0">
        <time>2020-12-20T10:14:46.795000+00:00</time>
      </trkpt>
      <trkpt lat="0" lon="0">
        <time>2020-12-20T10:14:46.797000+00:00</time>
      </trkpt>
      <trkpt lat="47.33772" lon="-1.33495">
        <ele>140</ele>
        <time>2020-12-20T10:14:47.756000+00:00</time>
      </trkpt>
      <trkpt lat="0" lon="0">
        <time>2020-12-20T10:14:47.761000+00:00</time>
      </trkpt>
      <trkpt lat="0" lon="0">
        <time>2020-12-20T10:14:47.767000+00:00</time>
      </trkpt>
      <trkpt lat="0" lon="0">
        <time>2020-12-20T10:14:47.769000+00:00</time>
      </trkpt>
      <trkpt lat="47.3377" lon="-1.33498">
        <ele>140</ele>
        <time>2020-12-20T10:14:48.696000+00:00</time>
      </trkpt>
      <trkpt lat="0" lon="0">
        <time>2020-12-20T10:14:48.697000+00:00</time>
      </trkpt>
      <trkpt lat="0" lon="0">
        <time>2020-12-20T10:14:48.699000+00:00</time>
      </trkpt>
      <trkpt lat="0" lon="0">
        <time>2020-12-20T10:14:48.703000+00:00</time>
      </trkpt>
      <trkpt lat="47.33768" lon="-1.335">
        <ele>139</ele>
        <time>2020-12-20T10:14:49.731000+00:00</time>
      </trkpt>
      <trkpt lat="0" lon="0">
        <time>2020-12-20T10:14:49.734000+00:00</time>
      </trkpt>
      <trkpt lat="0" lon="0">
        <time>2020-12-20T10:14:49.737000+00:00</time>
      </trkpt>
      <trkpt lat="0" lon="0">
        <time>2020-12-20T10:14:49.739000+00:00</time>
      </trkpt>
      <trkpt lat="47.33767" lon="-1.33503">
        <ele>139</ele>
        <time>2020-12-20T10:14:50.746000+00:00</time>
      </trkpt>
      <trkpt lat="0" lon="0">
        <time>2020-12-20T10:14:50.747000+00:00</time>
      </trkpt>
      <trkpt lat="0" lon="0">
        <time>2020-12-20T10:14:50.748000+00:00</time>
      </trkpt>
      <trkpt lat="47.33765" lon="-1.33505">
        <ele>138</ele>
        <time>2020-12-20T10:14:51.763000+00:00</time>
      </trkpt>
      <trkpt lat="0" lon="0">
        <time>2020-12-20T10:14:51.768000+00:00</time>
      </trkpt>
      <trkpt lat="0" lon="0">
        <time>2020-12-20T10:14:51.778000+00:00</time>
      </trkpt>
      <trkpt lat="0" lon="0">
        <time>2020-12-20T10:14:51.780000+00:00</time>
      </trkpt>
      <trkpt lat="47.33763" lon="-1.33507">
        <ele>139</ele>
        <time>2020-12-20T10:14:52.736000+00:00</time>
      </trkpt>
      <trkpt lat="0" lon="0">
        <time>2020-12-20T10:14:52.741000+00:00</time>
      </trkpt>
      <trkpt lat="0" lon="0">
        <time>2020-12-20T10:14:52.747000+00:00</time>
      </trkpt>
      <trkpt lat="0" lon="0">
        <time>2020-12-20T10:14:52.749000+00:00</time>
      </trkpt>
      <trkpt lat="47.33761" lon="-1.33509">
        <ele>138</ele>
        <time>2020-12-20T10:14:53.700000+00:00</time>
      </trkpt>
      <trkpt lat="0" lon="0">
        <time>2020-12-20T10:14:53.701000+00:00</time>
      </trkpt>
      <trkpt lat="0" lon="0">
        <time>2020-12-20T10:14:53.702000+00:00</time>
      </trkpt>
      <trkpt lat="0" lon="0">
        <time>2020-12-20T10:14:53.703000+00:00</time>
      </trkpt>
      <trkpt lat="47.3376" lon="-1.33511">
        <ele>140</ele>
        <time>2020-12-20T10:14:54.729000+00:00</time>
      </trkpt>
      <trkpt lat="0" lon="0">
        <time>2020-12-20T10:14:54.740000+00:00</time>
      </trkpt>
      <trkpt lat="0" lon="0">
        <time>2020-12-20T10:14:54.747000+00:00</time>
      </trkpt>
      <trkpt lat="0" lon="0">
        <time>2020-12-20T10:14:54.748000+00:00</time>
      </trkpt>
      <trkpt lat="47.33759" lon="-1.33512">
        <ele>142</ele>
        <time>2020-12-20T10:14:55.757000+00:00</time>
      </trkpt>
      <trkpt lat="0" lon="0">
        <time>2020-12-20T10:14:55.766000+00:00</time>
      </trkpt>
      <trkpt lat="0" lon="0">
        <time>2020-12-20T10:14:55.769000+00:00</time>
      </trkpt>
      <trkpt lat="0" lon="0">
        <time>2020-12-20T10:14:55.773000+00:00</time>
      </trkpt>
      <trkpt lat="47.33758" lon="-1.33513">
        <ele>143</ele>
        <time>2020-12-20T10:14:56.750000+00:00</time>
      </trkpt>
      <trkpt lat="0" lon="0">
        <time>2020-12-20T10:14:56.757000+00:00</time>
      </trkpt>
      <trkpt lat="0" lon="0">
        <time>2020-12-20T10:14:56.763000+00:00</time>
      </trkpt>
      <trkpt lat="0" lon="0">
        <time>2020-12-20T10:14:56.765000+00:00</time>
      </trkpt>
      <trkpt lat="47.33757" lon="-1.33515">
        <ele>144</ele>
        <time>2020-12-20T10:14:57.727000+00:00</time>
      </trkpt>
      <trkpt lat="0" lon="0">
        <time>2020-12-20T10:14:57.728000+00:00</time>
      </trkpt>
      <trkpt lat="0" lon="0">
        <time>2020-12-20T10:14:57.729000+00:00</time>
      </trkpt>
      <trkpt lat="0" lon="0">
        <time>2020-12-20T10:14:57.730000+00:00</time>
      </trkpt>
      <trkpt lat="47.33756" lon="-1.33516">
        <ele>143</ele>
        <time>2020-12-20T10:14:58.675000+00:00</time>
      </trkpt>
      <trkpt lat="0" lon="0">
        <time>2020-12-20T10:14:58.676000+00:00</time>
      </trkpt>
      <trkpt lat="0" lon="0">
        <time>2020-12-20T10:14:58.677000+00:00</time>
      </trkpt>
      <trkpt lat="0" lon="0">
        <time>2020-12-20T10:14:58.678000+00:00</time>
      </trkpt>
      <trkpt lat="47.33756" lon="-1.33518">
        <ele>144</ele>
        <time>2020-12-20T10:14:59.770000+00:00</time>
      </trkpt>
      <trkpt lat="0" lon="0">
        <time>2020-12-20T10:14:59.779000+00:00</time>
      </trkpt>
      <trkpt lat="0" lon="0">
        <time>2020-12-20T10:14:59.783000+00:00</time>
      </trkpt>
      <trkpt lat="0" lon="0">
        <time>2020-12-20T10:14:59.785000+00:00</time>
      </trkpt>
      <trkpt lat="47.33756" lon="-1.3352">
        <ele>144</ele>
        <time>2020-12-20T10:15:00.737000+00:00</time>
      </trkpt>
      <trkpt lat="0" lon="0">
        <time>2020-12-20T10:15:00.743000+00:00</time>
      </trkpt>
      <trkpt lat="0" lon="0">
        <time>2020-12-20T10:15:00.747000+00:00</time>
      </trkpt>
      <trkpt lat="0" lon="0">
        <time>2020-12-20T10:15:00.750000+00:00</time>
      </trkpt>
      <trkpt lat="47.33756" lon="-1.33521">
        <ele>143</ele>
        <time>2020-12-20T10:15:01.701000+00:00</time>
      </trkpt>
      <trkpt lat="0" lon="0">
        <time>2020-12-20T10:15:01.704000+00:00</time>
      </trkpt>
      <trkpt lat="0" lon="0">
        <time>2020-12-20T10:15:01.706000+00:00</time>
      </trkpt>
      <trkpt lat="0" lon="0">
        <time>2020-12-20T10:15:01.707000+00:00</time>
      </trkpt>
      <trkpt lat="47.33755" lon="-1.33523">
        <ele>143</ele>
        <time>2020-12-20T10:15:02.750000+00:00</time>
      </trkpt>
      <trkpt lat="0" lon="0">
        <time>2020-12-20T10:15:02.759000+00:00</time>
      </trkpt>
      <trkpt lat="0" lon="0">
        <time>2020-12-20T10:15:02.769000+00:00</time>
      </trkpt>
      <trkpt lat="0" lon="0">
        <time>2020-12-20T10:15:02.771000+00:00</time>
      </trkpt>
      <trkpt lat="47.33755" lon="-1.33524">
        <ele>143</ele>
        <time>2020-12-20T10:15:03.773000+00:00</time>
      </trkpt>
      <trkpt lat="0" lon="0">
        <time>2020-12-20T10:15:03.780000+00:00</time>
      </trkpt>
      <trkpt lat="0" lon="0">
        <time>2020-12-20T10:15:03.784000+00:00</time>
      </trkpt>
      <trkpt lat="0" lon="0">
        <time>2020-12-20T10:15:03.787000+00:00</time>
      </trkpt>
      <trkpt lat="47.33754" lon="-1.33526">
        <ele>143</ele>
        <time>2020-12-20T10:15:04.761000+00:00</time>
      </trkpt>
      <trkpt lat="0" lon="0">
        <time>2020-12-20T10:15:04.771000+00:00</time>
      </trkpt>
      <trkpt lat="0" lon="0">
        <time>2020-12-20T10:15:04.775000+00:00</time>
      </trkpt>
      <trkpt lat="0" lon="0">
        <time>2020-12-20T10:15:04.782000+00:00</time>
      </trkpt>
      <trkpt lat="47.33754" lon="-1.33527">
        <ele>143</ele>
        <time>2020-12-20T10:15:05.755000+00:00</time>
      </trkpt>
      <trkpt lat="0" lon="0">
        <time>2020-12-20T10:15:05.764000+00:00</time>
      </trkpt>
      <trkpt lat="0" lon="0">
        <time>2020-12-20T10:15:05.766000+00:00</time>
      </trkpt>
      <trkpt lat="0" lon="0">
        <time>2020-12-20T10:15:05.767000+00:00</time>
      </trkpt>
      <trkpt lat="47.33753" lon="-1.33528">
        <ele>142</ele>
        <time>2020-12-20T10:15:06.745000+00:00</time>
      </trkpt>
      <trkpt lat="0" lon="0">
        <time>2020-12-20T10:15:06.747000+00:00</time>
      </trkpt>
      <trkpt lat="0" lon="0">
        <time>2020-12-20T10:15:06.750000+00:00</time>
      </trkpt>
      <trkpt lat="0" lon="0">
        <time>2020-12-20T10:15:06.751000+00:00</time>
      </trkpt>
      <trkpt lat="47.33752" lon="-1.3353">
        <ele>142</ele>
        <time>2020-12-20T10:15:07.752000+00:00</time>
      </trkpt>
      <trkpt lat="0" lon="0">
        <time>2020-12-20T10:15:07.757000+00:00</time>
      </trkpt>
      <trkpt lat="0" lon="0">
        <time>2020-12-20T10:15:07.761000+00:00</time>
      </trkpt>
      <trkpt lat="0" lon="0">
        <time>2020-12-20T10:15:07.764000+00:00</time>
      </trkpt>
      <trkpt lat="47.3375" lon="-1.33532">
        <ele>142</ele>
        <time>2020-12-20T10:15:08.753000+00:00</time>
      </trkpt>
      <trkpt lat="0" lon="0">
        <time>2020-12-20T10:15:08.763000+00:00</time>
      </trkpt>
      <trkpt lat="0" lon="0">
        <time>2020-12-20T10:15:08.767000+00:00</time>
      </trkpt>
      <trkpt lat="0" lon="0">
        <time>2020-12-20T10:15:08.769000+00:00</time>
      </trkpt>
      <trkpt lat="47.33748" lon="-1.33533">
        <ele>141</ele>
        <time>2020-12-20T10:15:09.752000+00:00</time>
      </trkpt>
      <trkpt lat="0" lon="0">
        <time>2020-12-20T10:15:09.763000+00:00</time>
      </trkpt>
      <trkpt lat="0" lon="0">
        <time>2020-12-20T10:15:09.768000+00:00</time>
      </trkpt>
      <trkpt lat="0" lon="0">
        <time>2020-12-20T10:15:09.770000+00:00</time>
      </trkpt>
      <trkpt lat="47.33746" lon="-1.33536">
        <ele>140</ele>
        <time>2020-12-20T10:15:10.776000+00:00</time>
      </trkpt>
      <trkpt lat="0" lon="0">
        <time>2020-12-20T10:15:10.797000+00:00</time>
      </trkpt>
      <trkpt lat="0" lon="0">
        <time>2020-12-20T10:15:10.806000+00:00</time>
      </trkpt>
      <trkpt lat="0" lon="0">
        <time>2020-12-20T10:15:10.809000+00:00</time>
      </trkpt>
      <trkpt lat="47.33743" lon="-1.33538">
        <ele>139</ele>
        <time>2020-12-20T10:15:11.758000+00:00</time>
      </trkpt>
      <trkpt lat="0" lon="0">
        <time>2020-12-20T10:15:11.765000+00:00</time>
      </trkpt>
      <trkpt lat="0" lon="0">
        <time>2020-12-20T10:15:11.769000+00:00</time>
      </trkpt>
      <trkpt lat="0" lon="0">
        <time>2020-12-20T10:15:11.775000+00:00</time>
      </trkpt>
      <trkpt lat="47.33741" lon="-1.3354">
        <ele>139</ele>
        <time>2020-12-20T10:15:12.742000+00:00</time>
      </trkpt>
      <trkpt lat="0" lon="0">
        <time>2020-12-20T10:15:12.744000+00:00</time>
      </trkpt>
      <trkpt lat="0" lon="0">
        <time>2020-12-20T10:15:12.746000+00:00</time>
      </trkpt>
      <trkpt lat="0" lon="0">
        <time>2020-12-20T10:15:12.747000+00:00</time>
      </trkpt>
      <trkpt lat="47.33738" lon="-1.33543">
        <ele>139</ele>
        <time>2020-12-20T10:15:13.759000+00:00</time>
      </trkpt>
      <trkpt lat="0" lon="0">
        <time>2020-12-20T10:15:13.767000+00:00</time>
      </trkpt>
      <trkpt lat="0" lon="0">
        <time>2020-12-20T10:15:13.772000+00:00</time>
      </trkpt>
      <trkpt lat="0" lon="0">
        <time>2020-12-20T10:15:13.775000+00:00</time>
      </trkpt>
      <trkpt lat="47.33734" lon="-1.33546">
        <ele>139</ele>
        <time>2020-12-20T10:15:14.784000+00:00</time>
      </trkpt>
      <trkpt lat="0" lon="0">
        <time>2020-12-20T10:15:14.792000+00:00</time>
      </trkpt>
      <trkpt lat="0" lon="0">
        <time>2020-12-20T10:15:14.796000+00:00</time>
      </trkpt>
      <trkpt lat="0" lon="0">
        <time>2020-12-20T10:15:14.802000+00:00</time>
      </trkpt>
      <trkpt lat="47.33731" lon="-1.33549">
        <ele>139</ele>
        <time>2020-12-20T10:15:15.768000+00:00</time>
      </trkpt>
      <trkpt lat="0" lon="0">
        <time>2020-12-20T10:15:15.774000+00:00</time>
      </trkpt>
      <trkpt lat="0" lon="0">
        <time>2020-12-20T10:15:15.786000+00:00</time>
      </trkpt>
      <trkpt lat="0" lon="0">
        <time>2020-12-20T10:15:15.787000+00:00</time>
      </trkpt>
      <trkpt lat="47.33727" lon="-1.33552">
        <ele>139</ele>
        <time>2020-12-20T10:15:16.765000+00:00</time>
      </trkpt>
      <trkpt lat="0" lon="0">
        <time>2020-12-20T10:15:16.772000+00:00</time>
      </trkpt>
      <trkpt lat="0" lon="0">
        <time>2020-12-20T10:15:16.779000+00:00</time>
      </trkpt>
      <trkpt lat="0" lon="0">
        <time>2020-12-20T10:15:16.782000+00:00</time>
      </trkpt>
      <trkpt lat="47.33724" lon="-1.33554">
        <ele>139</ele>
        <time>2020-12-20T10:15:17.786000+00:00</time>
      </trkpt>
      <trkpt lat="0" lon="0">
        <time>2020-12-20T10:15:17.798000+00:00</time>
      </trkpt>
      <trkpt lat="0" lon="0">
        <time>2020-12-20T10:15:17.805000+00:00</time>
      </trkpt>
      <trkpt lat="0" lon="0">
        <time>2020-12-20T10:15:17.810000+00:00</time>
      </trkpt>
      <trkpt lat="47.3372" lon="-1.33557">
        <ele>138</ele>
        <time>2020-12-20T10:15:18.793000+00:00</time>
      </trkpt>
      <trkpt lat="0" lon="0">
        <time>2020-12-20T10:15:18.797000+00:00</time>
      </trkpt>
      <trkpt lat="0" lon="0">
        <time>2020-12-20T10:15:18.801000+00:00</time>
      </trkpt>
      <trkpt lat="0" lon="0">
        <time>2020-12-20T10:15:18.802000+00:00</time>
      </trkpt>
      <trkpt lat="47.33716" lon="-1.3356">
        <ele>138</ele>
        <time>2020-12-20T10:15:19.762000+00:00</time>
      </trkpt>
      <trkpt lat="0" lon="0">
        <time>2020-12-20T10:15:19.772000+00:00</time>
      </trkpt>
      <trkpt lat="0" lon="0">
        <time>2020-12-20T10:15:19.776000+00:00</time>
      </trkpt>
      <trkpt lat="0" lon="0">
        <time>2020-12-20T10:15:19.782000+00:00</time>
      </trkpt>
      <trkpt lat="47.33712" lon="-1.33563">
        <ele>138</ele>
        <time>2020-12-20T10:15:20.747000+00:00</time>
      </trkpt>
      <trkpt lat="0" lon="0">
        <time>2020-12-20T10:15:20.755000+00:00</time>
      </trkpt>
      <trkpt lat="0" lon="0">
        <time>2020-12-20T10:15:20.759000+00:00</time>
      </trkpt>
      <trkpt lat="0" lon="0">
        <time>2020-12-20T10:15:20.762000+00:00</time>
      </trkpt>
      <trkpt lat="47.33709" lon="-1.33566">
        <ele>137</ele>
        <time>2020-12-20T10:15:21.740000+00:00</time>
      </trkpt>
      <trkpt lat="0" lon="0">
        <time>2020-12-20T10:15:21.744000+00:00</time>
      </trkpt>
      <trkpt lat="0" lon="0">
        <time>2020-12-20T10:15:21.750000+00:00</time>
      </trkpt>
      <trkpt lat="0" lon="0">
        <time>2020-12-20T10:15:21.754000+00:00</time>
      </trkpt>
      <trkpt lat="47.33705" lon="-1.33569">
        <ele>137</ele>
        <time>2020-12-20T10:15:22.807000+00:00</time>
      </trkpt>
      <trkpt lat="0" lon="0">
        <time>2020-12-20T10:15:22.814000+00:00</time>
      </trkpt>
      <trkpt lat="0" lon="0">
        <time>2020-12-20T10:15:22.819000+00:00</time>
      </trkpt>
      <trkpt lat="0" lon="0">
        <time>2020-12-20T10:15:22.821000+00:00</time>
      </trkpt>
      <trkpt lat="47.33701" lon="-1.33572">
        <ele>137</ele>
        <time>2020-12-20T10:15:23.821000+00:00</time>
      </trkpt>
      <trkpt lat="0" lon="0">
        <time>2020-12-20T10:15:23.832000+00:00</time>
      </trkpt>
      <trkpt lat="0" lon="0">
        <time>2020-12-20T10:15:23.837000+00:00</time>
      </trkpt>
      <trkpt lat="0" lon="0">
        <time>2020-12-20T10:15:23.840000+00:00</time>
      </trkpt>
      <trkpt lat="47.33694" lon="-1.33578">
        <ele>137</ele>
        <time>2020-12-20T10:15:25.710000+00:00</time>
      </trkpt>
      <trkpt lat="0" lon="0">
        <time>2020-12-20T10:15:25.714000+00:00</time>
      </trkpt>
      <trkpt lat="0" lon="0">
        <time>2020-12-20T10:15:25.724000+00:00</time>
      </trkpt>
      <trkpt lat="0" lon="0">
        <time>2020-12-20T10:15:25.725000+00:00</time>
      </trkpt>
      <trkpt lat="47.33691" lon="-1.33581">
        <ele>137</ele>
        <time>2020-12-20T10:15:26.712000+00:00</time>
      </trkpt>
      <trkpt lat="0" lon="0">
        <time>2020-12-20T10:15:26.713000+00:00</time>
      </trkpt>
      <trkpt lat="0" lon="0">
        <time>2020-12-20T10:15:26.715000+00:00</time>
      </trkpt>
      <trkpt lat="0" lon="0">
        <time>2020-12-20T10:15:26.716000+00:00</time>
      </trkpt>
      <trkpt lat="47.33687" lon="-1.33584">
        <ele>137</ele>
        <time>2020-12-20T10:15:27.813000+00:00</time>
      </trkpt>
      <trkpt lat="0" lon="0">
        <time>2020-12-20T10:15:27.824000+00:00</time>
      </trkpt>
      <trkpt lat="0" lon="0">
        <time>2020-12-20T10:15:27.828000+00:00</time>
      </trkpt>
      <trkpt lat="0" lon="0">
        <time>2020-12-20T10:15:27.830000+00:00</time>
      </trkpt>
      <trkpt lat="47.33684" lon="-1.33587">
        <ele>136</ele>
        <time>2020-12-20T10:15:28.788000+00:00</time>
      </trkpt>
      <trkpt lat="0" lon="0">
        <time>2020-12-20T10:15:28.801000+00:00</time>
      </trkpt>
      <trkpt lat="0" lon="0">
        <time>2020-12-20T10:15:28.804000+00:00</time>
      </trkpt>
      <trkpt lat="0" lon="0">
        <time>2020-12-20T10:15:28.809000+00:00</time>
      </trkpt>
      <trkpt lat="47.33681" lon="-1.33591">
        <ele>136</ele>
        <time>2020-12-20T10:15:29.821000+00:00</time>
      </trkpt>
      <trkpt lat="0" lon="0">
        <time>2020-12-20T10:15:29.830000+00:00</time>
      </trkpt>
      <trkpt lat="0" lon="0">
        <time>2020-12-20T10:15:29.838000+00:00</time>
      </trkpt>
      <trkpt lat="0" lon="0">
        <time>2020-12-20T10:15:29.848000+00:00</time>
      </trkpt>
      <trkpt lat="47.33678" lon="-1.33594">
        <ele>136</ele>
        <time>2020-12-20T10:15:30.816000+00:00</time>
      </trkpt>
      <trkpt lat="0" lon="0">
        <time>2020-12-20T10:15:30.818000+00:00</time>
      </trkpt>
      <trkpt lat="0" lon="0">
        <time>2020-12-20T10:15:30.820000+00:00</time>
      </trkpt>
      <trkpt lat="0" lon="0">
        <time>2020-12-20T10:15:30.821000+00:00</time>
      </trkpt>
      <trkpt lat="47.33675" lon="-1.33597">
        <ele>136</ele>
        <time>2020-12-20T10:15:31.828000+00:00</time>
      </trkpt>
      <trkpt lat="0" lon="0">
        <time>2020-12-20T10:15:31.839000+00:00</time>
      </trkpt>
      <trkpt lat="0" lon="0">
        <time>2020-12-20T10:15:31.845000+00:00</time>
      </trkpt>
      <trkpt lat="0" lon="0">
        <time>2020-12-20T10:15:31.851000+00:00</time>
      </trkpt>
      <trkpt lat="47.33672" lon="-1.33601">
        <ele>136</ele>
        <time>2020-12-20T10:15:32.834000+00:00</time>
      </trkpt>
      <trkpt lat="0" lon="0">
        <time>2020-12-20T10:15:32.842000+00:00</time>
      </trkpt>
      <trkpt lat="0" lon="0">
        <time>2020-12-20T10:15:32.848000+00:00</time>
      </trkpt>
      <trkpt lat="0" lon="0">
        <time>2020-12-20T10:15:32.851000+00:00</time>
      </trkpt>
      <trkpt lat="47.33669" lon="-1.33605">
        <ele>136</ele>
        <time>2020-12-20T10:15:33.817000+00:00</time>
      </trkpt>
      <trkpt lat="0" lon="0">
        <time>2020-12-20T10:15:33.820000+00:00</time>
      </trkpt>
      <trkpt lat="0" lon="0">
        <time>2020-12-20T10:15:33.822000+00:00</time>
      </trkpt>
      <trkpt lat="0" lon="0">
        <time>2020-12-20T10:15:33.823000+00:00</time>
      </trkpt>
      <trkpt lat="47.33667" lon="-1.33608">
        <ele>137</ele>
        <time>2020-12-20T10:15:34.832000+00:00</time>
      </trkpt>
      <trkpt lat="0" lon="0">
        <time>2020-12-20T10:15:34.840000+00:00</time>
      </trkpt>
      <trkpt lat="0" lon="0">
        <time>2020-12-20T10:15:34.849000+00:00</time>
      </trkpt>
      <trkpt lat="0" lon="0">
        <time>2020-12-20T10:15:34.850000+00:00</time>
      </trkpt>
      <trkpt lat="47.33664" lon="-1.33612">
        <ele>137</ele>
        <time>2020-12-20T10:15:35.879000+00:00</time>
      </trkpt>
      <trkpt lat="0" lon="0">
        <time>2020-12-20T10:15:35.890000+00:00</time>
      </trkpt>
      <trkpt lat="0" lon="0">
        <time>2020-12-20T10:15:35.891000+00:00</time>
      </trkpt>
      <trkpt lat="0" lon="0">
        <time>2020-12-20T10:15:35.892000+00:00</time>
      </trkpt>
      <trkpt lat="47.33661" lon="-1.33616">
        <ele>136</ele>
        <time>2020-12-20T10:15:36.820000+00:00</time>
      </trkpt>
      <trkpt lat="0" lon="0">
        <time>2020-12-20T10:15:36.834000+00:00</time>
      </trkpt>
      <trkpt lat="0" lon="0">
        <time>2020-12-20T10:15:36.843000+00:00</time>
      </trkpt>
      <trkpt lat="0" lon="0">
        <time>2020-12-20T10:15:36.846000+00:00</time>
      </trkpt>
      <trkpt lat="47.33659" lon="-1.3362">
        <ele>137</ele>
        <time>2020-12-20T10:15:37.842000+00:00</time>
      </trkpt>
      <trkpt lat="0" lon="0">
        <time>2020-12-20T10:15:37.866000+00:00</time>
      </trkpt>
      <trkpt lat="0" lon="0">
        <time>2020-12-20T10:15:37.875000+00:00</time>
      </trkpt>
      <trkpt lat="0" lon="0">
        <time>2020-12-20T10:15:37.877000+00:00</time>
      </trkpt>
      <trkpt lat="47.33656" lon="-1.33624">
        <ele>137</ele>
        <time>2020-12-20T10:15:38.837000+00:00</time>
      </trkpt>
      <trkpt lat="0" lon="0">
        <time>2020-12-20T10:15:38.844000+00:00</time>
      </trkpt>
      <trkpt lat="0" lon="0">
        <time>2020-12-20T10:15:38.854000+00:00</time>
      </trkpt>
      <trkpt lat="0" lon="0">
        <time>2020-12-20T10:15:38.856000+00:00</time>
      </trkpt>
      <trkpt lat="47.33654" lon="-1.33628">
        <ele>137</ele>
        <time>2020-12-20T10:15:39.816000+00:00</time>
      </trkpt>
      <trkpt lat="0" lon="0">
        <time>2020-12-20T10:15:39.818000+00:00</time>
      </trkpt>
      <trkpt lat="0" lon="0">
        <time>2020-12-20T10:15:39.822000+00:00</time>
      </trkpt>
      <trkpt lat="0" lon="0">
        <time>2020-12-20T10:15:39.824000+00:00</time>
      </trkpt>
      <trkpt lat="47.33652" lon="-1.33632">
        <ele>137</ele>
        <time>2020-12-20T10:15:40.820000+00:00</time>
      </trkpt>
      <trkpt lat="0" lon="0">
        <time>2020-12-20T10:15:40.832000+00:00</time>
      </trkpt>
      <trkpt lat="0" lon="0">
        <time>2020-12-20T10:15:40.835000+00:00</time>
      </trkpt>
      <trkpt lat="0" lon="0">
        <time>2020-12-20T10:15:40.838000+00:00</time>
      </trkpt>
      <trkpt lat="47.3365" lon="-1.33635">
        <ele>137</ele>
        <time>2020-12-20T10:15:41.814000+00:00</time>
      </trkpt>
      <trkpt lat="0" lon="0">
        <time>2020-12-20T10:15:41.825000+00:00</time>
      </trkpt>
      <trkpt lat="0" lon="0">
        <time>2020-12-20T10:15:41.831000+00:00</time>
      </trkpt>
      <trkpt lat="0" lon="0">
        <time>2020-12-20T10:15:41.833000+00:00</time>
      </trkpt>
      <trkpt lat="47.33648" lon="-1.33639">
        <ele>137</ele>
        <time>2020-12-20T10:15:42.820000+00:00</time>
      </trkpt>
      <trkpt lat="0" lon="0">
        <time>2020-12-20T10:15:42.831000+00:00</time>
      </trkpt>
      <trkpt lat="0" lon="0">
        <time>2020-12-20T10:15:42.835000+00:00</time>
      </trkpt>
      <trkpt lat="0" lon="0">
        <time>2020-12-20T10:15:42.836000+00:00</time>
      </trkpt>
      <trkpt lat="47.33646" lon="-1.33643">
        <ele>137</ele>
        <time>2020-12-20T10:15:43.824000+00:00</time>
      </trkpt>
      <trkpt lat="0" lon="0">
        <time>2020-12-20T10:15:43.837000+00:00</time>
      </trkpt>
      <trkpt lat="0" lon="0">
        <time>2020-12-20T10:15:43.843000+00:00</time>
      </trkpt>
      <trkpt lat="0" lon="0">
        <time>2020-12-20T10:15:43.846000+00:00</time>
      </trkpt>
      <trkpt lat="47.33643" lon="-1.33647">
        <ele>138</ele>
        <time>2020-12-20T10:15:44.809000+00:00</time>
      </trkpt>
      <trkpt lat="0" lon="0">
        <time>2020-12-20T10:15:44.828000+00:00</time>
      </trkpt>
      <trkpt lat="0" lon="0">
        <time>2020-12-20T10:15:44.835000+00:00</time>
      </trkpt>
      <trkpt lat="0" lon="0">
        <time>2020-12-20T10:15:44.836000+00:00</time>
      </trkpt>
      <trkpt lat="47.33641" lon="-1.3365">
        <ele>138</ele>
        <time>2020-12-20T10:15:45.775000+00:00</time>
      </trkpt>
      <trkpt lat="0" lon="0">
        <time>2020-12-20T10:15:45.788000+00:00</time>
      </trkpt>
      <trkpt lat="0" lon="0">
        <time>2020-12-20T10:15:45.792000+00:00</time>
      </trkpt>
      <trkpt lat="0" lon="0">
        <time>2020-12-20T10:15:45.795000+00:00</time>
      </trkpt>
      <trkpt lat="47.33639" lon="-1.33654">
        <ele>138</ele>
        <time>2020-12-20T10:15:46.808000+00:00</time>
      </trkpt>
      <trkpt lat="0" lon="0">
        <time>2020-12-20T10:15:46.824000+00:00</time>
      </trkpt>
      <trkpt lat="0" lon="0">
        <time>2020-12-20T10:15:46.831000+00:00</time>
      </trkpt>
      <trkpt lat="0" lon="0">
        <time>2020-12-20T10:15:46.834000+00:00</time>
      </trkpt>
      <trkpt lat="47.33637" lon="-1.33658">
        <ele>139</ele>
        <time>2020-12-20T10:15:47.828000+00:00</time>
      </trkpt>
      <trkpt lat="0" lon="0">
        <time>2020-12-20T10:15:47.838000+00:00</time>
      </trkpt>
      <trkpt lat="0" lon="0">
        <time>2020-12-20T10:15:47.842000+00:00</time>
      </trkpt>
      <trkpt lat="0" lon="0">
        <time>2020-12-20T10:15:47.844000+00:00</time>
      </trkpt>
      <trkpt lat="47.33635" lon="-1.33662">
        <ele>139</ele>
        <time>2020-12-20T10:15:48.826000+00:00</time>
      </trkpt>
      <trkpt lat="0" lon="0">
        <time>2020-12-20T10:15:48.841000+00:00</time>
      </trkpt>
      <trkpt lat="0" lon="0">
        <time>2020-12-20T10:15:48.846000+00:00</time>
      </trkpt>
      <trkpt lat="0" lon="0">
        <time>2020-12-20T10:15:48.848000+00:00</time>
      </trkpt>
      <trkpt lat="47.33632" lon="-1.33666">
        <ele>139</ele>
        <time>2020-12-20T10:15:49.845000+00:00</time>
      </trkpt>
      <trkpt lat="0" lon="0">
        <time>2020-12-20T10:15:49.850000+00:00</time>
      </trkpt>
      <trkpt lat="0" lon="0">
        <time>2020-12-20T10:15:49.856000+00:00</time>
      </trkpt>
      <trkpt lat="0" lon="0">
        <time>2020-12-20T10:15:49.858000+00:00</time>
      </trkpt>
      <trkpt lat="47.3363" lon="-1.33669">
        <ele>139</ele>
        <time>2020-12-20T10:15:50.842000+00:00</time>
      </trkpt>
      <trkpt lat="0" lon="0">
        <time>2020-12-20T10:15:50.848000+00:00</time>
      </trkpt>
      <trkpt lat="0" lon="0">
        <time>2020-12-20T10:15:50.855000+00:00</time>
      </trkpt>
      <trkpt lat="0" lon="0">
        <time>2020-12-20T10:15:50.860000+00:00</time>
      </trkpt>
      <trkpt lat="47.33628" lon="-1.33673">
        <ele>138</ele>
        <time>2020-12-20T10:15:51.819000+00:00</time>
      </trkpt>
      <trkpt lat="0" lon="0">
        <time>2020-12-20T10:15:51.832000+00:00</time>
      </trkpt>
      <trkpt lat="0" lon="0">
        <time>2020-12-20T10:15:51.836000+00:00</time>
      </trkpt>
      <trkpt lat="0" lon="0">
        <time>2020-12-20T10:15:51.839000+00:00</time>
      </trkpt>
      <trkpt lat="47.33627" lon="-1.33677">
        <ele>137</ele>
        <time>2020-12-20T10:15:52.797000+00:00</time>
      </trkpt>
      <trkpt lat="0" lon="0">
        <time>2020-12-20T10:15:52.805000+00:00</time>
      </trkpt>
      <trkpt lat="0" lon="0">
        <time>2020-12-20T10:15:52.810000+00:00</time>
      </trkpt>
      <trkpt lat="0" lon="0">
        <time>2020-12-20T10:15:52.812000+00:00</time>
      </trkpt>
      <trkpt lat="47.33625" lon="-1.33681">
        <ele>137</ele>
        <time>2020-12-20T10:15:53.823000+00:00</time>
      </trkpt>
      <trkpt lat="0" lon="0">
        <time>2020-12-20T10:15:53.835000+00:00</time>
      </trkpt>
      <trkpt lat="0" lon="0">
        <time>2020-12-20T10:15:53.839000+00:00</time>
      </trkpt>
      <trkpt lat="0" lon="0">
        <time>2020-12-20T10:15:53.842000+00:00</time>
      </trkpt>
      <trkpt lat="47.33624" lon="-1.33684">
        <ele>136</ele>
        <time>2020-12-20T10:15:54.716000+00:00</time>
      </trkpt>
      <trkpt lat="0" lon="0">
        <time>2020-12-20T10:15:54.731000+00:00</time>
      </trkpt>
      <trkpt lat="0" lon="0">
        <time>2020-12-20T10:15:54.739000+00:00</time>
      </trkpt>
      <trkpt lat="0" lon="0">
        <time>2020-12-20T10:15:54.741000+00:00</time>
      </trkpt>
      <trkpt lat="47.33622" lon="-1.33687">
        <ele>135</ele>
        <time>2020-12-20T10:15:55.777000+00:00</time>
      </trkpt>
      <trkpt lat="0" lon="0">
        <time>2020-12-20T10:15:55.787000+00:00</time>
      </trkpt>
      <trkpt lat="0" lon="0">
        <time>2020-12-20T10:15:55.792000+00:00</time>
      </trkpt>
      <trkpt lat="0" lon="0">
        <time>2020-12-20T10:15:55.794000+00:00</time>
      </trkpt>
      <trkpt lat="47.33621" lon="-1.33689">
        <ele>135</ele>
        <time>2020-12-20T10:15:56.817000+00:00</time>
      </trkpt>
      <trkpt lat="0" lon="0">
        <time>2020-12-20T10:15:56.827000+00:00</time>
      </trkpt>
      <trkpt lat="0" lon="0">
        <time>2020-12-20T10:15:56.831000+00:00</time>
      </trkpt>
      <trkpt lat="0" lon="0">
        <time>2020-12-20T10:15:56.840000+00:00</time>
      </trkpt>
      <trkpt lat="47.3362" lon="-1.3369">
        <ele>134</ele>
        <time>2020-12-20T10:15:57.780000+00:00</time>
      </trkpt>
      <trkpt lat="0" lon="0">
        <time>2020-12-20T10:15:57.785000+00:00</time>
      </trkpt>
      <trkpt lat="0" lon="0">
        <time>2020-12-20T10:15:57.789000+00:00</time>
      </trkpt>
      <trkpt lat="0" lon="0">
        <time>2020-12-20T10:15:57.791000+00:00</time>
      </trkpt>
      <trkpt lat="47.33619" lon="-1.33692">
        <ele>134</ele>
        <time>2020-12-20T10:15:58.801000+00:00</time>
      </trkpt>
      <trkpt lat="0" lon="0">
        <time>2020-12-20T10:15:58.808000+00:00</time>
      </trkpt>
      <trkpt lat="0" lon="0">
        <time>2020-12-20T10:15:58.811000+00:00</time>
      </trkpt>
      <trkpt lat="0" lon="0">
        <time>2020-12-20T10:15:58.812000+00:00</time>
      </trkpt>
      <trkpt lat="47.33619" lon="-1.33692">
        <ele>134</ele>
        <time>2020-12-20T10:15:59.741000+00:00</time>
      </trkpt>
      <trkpt lat="0" lon="0">
        <time>2020-12-20T10:15:59.746000+00:00</time>
      </trkpt>
      <trkpt lat="0" lon="0">
        <time>2020-12-20T10:15:59.763000+00:00</time>
      </trkpt>
      <trkpt lat="0" lon="0">
        <time>2020-12-20T10:15:59.765000+00:00</time>
      </trkpt>
      <trkpt lat="47.33618" lon="-1.33693">
        <ele>134</ele>
        <time>2020-12-20T10:16:00.711000+00:00</time>
      </trkpt>
      <trkpt lat="0" lon="0">
        <time>2020-12-20T10:16:00.716000+00:00</time>
      </trkpt>
      <trkpt lat="0" lon="0">
        <time>2020-12-20T10:16:00.724000+00:00</time>
      </trkpt>
      <trkpt lat="0" lon="0">
        <time>2020-12-20T10:16:00.727000+00:00</time>
      </trkpt>
      <trkpt lat="47.33617" lon="-1.33693">
        <ele>134</ele>
        <time>2020-12-20T10:16:01.739000+00:00</time>
      </trkpt>
      <trkpt lat="0" lon="0">
        <time>2020-12-20T10:16:01.754000+00:00</time>
      </trkpt>
      <trkpt lat="0" lon="0">
        <time>2020-12-20T10:16:01.758000+00:00</time>
      </trkpt>
      <trkpt lat="0" lon="0">
        <time>2020-12-20T10:16:01.761000+00:00</time>
      </trkpt>
      <trkpt lat="47.33617" lon="-1.33693">
        <ele>134</ele>
        <time>2020-12-20T10:16:02.739000+00:00</time>
      </trkpt>
      <trkpt lat="0" lon="0">
        <time>2020-12-20T10:16:02.748000+00:00</time>
      </trkpt>
      <trkpt lat="0" lon="0">
        <time>2020-12-20T10:16:02.759000+00:00</time>
      </trkpt>
      <trkpt lat="0" lon="0">
        <time>2020-12-20T10:16:02.761000+00:00</time>
      </trkpt>
      <trkpt lat="47.33616" lon="-1.33693">
        <ele>134</ele>
        <time>2020-12-20T10:16:03.769000+00:00</time>
      </trkpt>
      <trkpt lat="0" lon="0">
        <time>2020-12-20T10:16:03.777000+00:00</time>
      </trkpt>
      <trkpt lat="0" lon="0">
        <time>2020-12-20T10:16:03.784000+00:00</time>
      </trkpt>
      <trkpt lat="0" lon="0">
        <time>2020-12-20T10:16:03.787000+00:00</time>
      </trkpt>
      <trkpt lat="47.33616" lon="-1.33692">
        <ele>134</ele>
        <time>2020-12-20T10:16:04.760000+00:00</time>
      </trkpt>
      <trkpt lat="0" lon="0">
        <time>2020-12-20T10:16:04.770000+00:00</time>
      </trkpt>
      <trkpt lat="0" lon="0">
        <time>2020-12-20T10:16:04.773000+00:00</time>
      </trkpt>
      <trkpt lat="0" lon="0">
        <time>2020-12-20T10:16:04.774000+00:00</time>
      </trkpt>
      <trkpt lat="47.33615" lon="-1.33692">
        <ele>134</ele>
        <time>2020-12-20T10:16:05.767000+00:00</time>
      </trkpt>
      <trkpt lat="0" lon="0">
        <time>2020-12-20T10:16:05.782000+00:00</time>
      </trkpt>
      <trkpt lat="0" lon="0">
        <time>2020-12-20T10:16:05.785000+00:00</time>
      </trkpt>
      <trkpt lat="0" lon="0">
        <time>2020-12-20T10:16:05.788000+00:00</time>
      </trkpt>
      <trkpt lat="47.33615" lon="-1.33691">
        <ele>134</ele>
        <time>2020-12-20T10:16:06.789000+00:00</time>
      </trkpt>
      <trkpt lat="0" lon="0">
        <time>2020-12-20T10:16:06.800000+00:00</time>
      </trkpt>
      <trkpt lat="0" lon="0">
        <time>2020-12-20T10:16:06.804000+00:00</time>
      </trkpt>
      <trkpt lat="0" lon="0">
        <time>2020-12-20T10:16:06.806000+00:00</time>
      </trkpt>
      <trkpt lat="47.33615" lon="-1.3369">
        <ele>134</ele>
        <time>2020-12-20T10:16:07.785000+00:00</time>
      </trkpt>
      <trkpt lat="0" lon="0">
        <time>2020-12-20T10:16:07.801000+00:00</time>
      </trkpt>
      <trkpt lat="0" lon="0">
        <time>2020-12-20T10:16:07.808000+00:00</time>
      </trkpt>
      <trkpt lat="0" lon="0">
        <time>2020-12-20T10:16:07.812000+00:00</time>
      </trkpt>
      <trkpt lat="47.33616" lon="-1.3369">
        <ele>134</ele>
        <time>2020-12-20T10:16:08.819000+00:00</time>
      </trkpt>
      <trkpt lat="0" lon="0">
        <time>2020-12-20T10:16:08.827000+00:00</time>
      </trkpt>
      <trkpt lat="0" lon="0">
        <time>2020-12-20T10:16:08.833000+00:00</time>
      </trkpt>
      <trkpt lat="0" lon="0">
        <time>2020-12-20T10:16:08.843000+00:00</time>
      </trkpt>
      <trkpt lat="47.33616" lon="-1.33689">
        <ele>134</ele>
        <time>2020-12-20T10:16:09.812000+00:00</time>
      </trkpt>
      <trkpt lat="0" lon="0">
        <time>2020-12-20T10:16:09.820000+00:00</time>
      </trkpt>
      <trkpt lat="0" lon="0">
        <time>2020-12-20T10:16:09.822000+00:00</time>
      </trkpt>
      <trkpt lat="0" lon="0">
        <time>2020-12-20T10:16:09.852000+00:00</time>
      </trkpt>
      <trkpt lat="47.33608" lon="-1.33709">
        <ele>122</ele>
        <time>2020-12-20T10:16:10.814000+00:00</time>
      </trkpt>
      <trkpt lat="0" lon="0">
        <time>2020-12-20T10:16:10.819000+00:00</time>
      </trkpt>
      <trkpt lat="0" lon="0">
        <time>2020-12-20T10:16:10.823000+00:00</time>
      </trkpt>
      <trkpt lat="0" lon="0">
        <time>2020-12-20T10:16:10.825000+00:00</time>
      </trkpt>
      <trkpt lat="47.33606" lon="-1.33712">
        <ele>122</ele>
        <time>2020-12-20T10:16:11.877000+00:00</time>
      </trkpt>
      <trkpt lat="0" lon="0">
        <time>2020-12-20T10:16:11.882000+00:00</time>
      </trkpt>
      <trkpt lat="0" lon="0">
        <time>2020-12-20T10:16:11.892000+00:00</time>
      </trkpt>
      <trkpt lat="0" lon="0">
        <time>2020-12-20T10:16:11.894000+00:00</time>
      </trkpt>
      <trkpt lat="47.33605" lon="-1.33716">
        <ele>121</ele>
        <time>2020-12-20T10:16:12.926000+00:00</time>
      </trkpt>
      <trkpt lat="0" lon="0">
        <time>2020-12-20T10:16:12.934000+00:00</time>
      </trkpt>
      <trkpt lat="0" lon="0">
        <time>2020-12-20T10:16:12.937000+00:00</time>
      </trkpt>
      <trkpt lat="0" lon="0">
        <time>2020-12-20T10:16:12.940000+00:00</time>
      </trkpt>
      <trkpt lat="47.33603" lon="-1.33719">
        <ele>122</ele>
        <time>2020-12-20T10:16:13.869000+00:00</time>
      </trkpt>
      <trkpt lat="0" lon="0">
        <time>2020-12-20T10:16:13.878000+00:00</time>
      </trkpt>
      <trkpt lat="0" lon="0">
        <time>2020-12-20T10:16:13.884000+00:00</time>
      </trkpt>
      <trkpt lat="0" lon="0">
        <time>2020-12-20T10:16:13.887000+00:00</time>
      </trkpt>
      <trkpt lat="47.33602" lon="-1.33722">
        <ele>121</ele>
        <time>2020-12-20T10:16:14.839000+00:00</time>
      </trkpt>
      <trkpt lat="0" lon="0">
        <time>2020-12-20T10:16:14.855000+00:00</time>
      </trkpt>
      <trkpt lat="0" lon="0">
        <time>2020-12-20T10:16:14.860000+00:00</time>
      </trkpt>
      <trkpt lat="0" lon="0">
        <time>2020-12-20T10:16:14.866000+00:00</time>
      </trkpt>
      <trkpt lat="47.336" lon="-1.33726">
        <ele>121</ele>
        <time>2020-12-20T10:16:15.933000+00:00</time>
      </trkpt>
      <trkpt lat="0" lon="0">
        <time>2020-12-20T10:16:15.937000+00:00</time>
      </trkpt>
      <trkpt lat="0" lon="0">
        <time>2020-12-20T10:16:15.942000+00:00</time>
      </trkpt>
      <trkpt lat="0" lon="0">
        <time>2020-12-20T10:16:15.944000+00:00</time>
      </trkpt>
      <trkpt lat="47.33597" lon="-1.33729">
        <ele>121</ele>
        <time>2020-12-20T10:16:16.821000+00:00</time>
      </trkpt>
      <trkpt lat="0" lon="0">
        <time>2020-12-20T10:16:16.823000+00:00</time>
      </trkpt>
      <trkpt lat="0" lon="0">
        <time>2020-12-20T10:16:16.825000+00:00</time>
      </trkpt>
      <trkpt lat="0" lon="0">
        <time>2020-12-20T10:16:16.826000+00:00</time>
      </trkpt>
      <trkpt lat="47.33595" lon="-1.33732">
        <ele>122</ele>
        <time>2020-12-20T10:16:17.932000+00:00</time>
      </trkpt>
      <trkpt lat="0" lon="0">
        <time>2020-12-20T10:16:17.937000+00:00</time>
      </trkpt>
      <trkpt lat="0" lon="0">
        <time>2020-12-20T10:16:17.941000+00:00</time>
      </trkpt>
      <trkpt lat="0" lon="0">
        <time>2020-12-20T10:16:17.944000+00:00</time>
      </trkpt>
      <trkpt lat="47.33592" lon="-1.33735">
        <ele>122</ele>
        <time>2020-12-20T10:16:18.877000+00:00</time>
      </trkpt>
      <trkpt lat="0" lon="0">
        <time>2020-12-20T10:16:18.883000+00:00</time>
      </trkpt>
      <trkpt lat="0" lon="0">
        <time>2020-12-20T10:16:18.890000+00:00</time>
      </trkpt>
      <trkpt lat="0" lon="0">
        <time>2020-12-20T10:16:18.892000+00:00</time>
      </trkpt>
      <trkpt lat="47.3359" lon="-1.33738">
        <ele>122</ele>
        <time>2020-12-20T10:16:19.870000+00:00</time>
      </trkpt>
      <trkpt lat="0" lon="0">
        <time>2020-12-20T10:16:19.879000+00:00</time>
      </trkpt>
      <trkpt lat="0" lon="0">
        <time>2020-12-20T10:16:19.884000+00:00</time>
      </trkpt>
      <trkpt lat="0" lon="0">
        <time>2020-12-20T10:16:19.887000+00:00</time>
      </trkpt>
      <trkpt lat="47.33587" lon="-1.33741">
        <ele>123</ele>
        <time>2020-12-20T10:16:20.878000+00:00</time>
      </trkpt>
      <trkpt lat="0" lon="0">
        <time>2020-12-20T10:16:20.886000+00:00</time>
      </trkpt>
      <trkpt lat="0" lon="0">
        <time>2020-12-20T10:16:20.892000+00:00</time>
      </trkpt>
      <trkpt lat="0" lon="0">
        <time>2020-12-20T10:16:20.895000+00:00</time>
      </trkpt>
      <trkpt lat="47.33584" lon="-1.33744">
        <ele>123</ele>
        <time>2020-12-20T10:16:21.873000+00:00</time>
      </trkpt>
      <trkpt lat="0" lon="0">
        <time>2020-12-20T10:16:21.878000+00:00</time>
      </trkpt>
      <trkpt lat="0" lon="0">
        <time>2020-12-20T10:16:21.896000+00:00</time>
      </trkpt>
      <trkpt lat="0" lon="0">
        <time>2020-12-20T10:16:21.901000+00:00</time>
      </trkpt>
      <trkpt lat="47.33582" lon="-1.33746">
        <ele>123</ele>
        <time>2020-12-20T10:16:22.883000+00:00</time>
      </trkpt>
      <trkpt lat="0" lon="0">
        <time>2020-12-20T10:16:22.888000+00:00</time>
      </trkpt>
      <trkpt lat="0" lon="0">
        <time>2020-12-20T10:16:22.896000+00:00</time>
      </trkpt>
      <trkpt lat="0" lon="0">
        <time>2020-12-20T10:16:22.899000+00:00</time>
      </trkpt>
      <trkpt lat="47.33579" lon="-1.33749">
        <ele>123</ele>
        <time>2020-12-20T10:16:23.778000+00:00</time>
      </trkpt>
      <trkpt lat="0" lon="0">
        <time>2020-12-20T10:16:23.791000+00:00</time>
      </trkpt>
      <trkpt lat="0" lon="0">
        <time>2020-12-20T10:16:23.799000+00:00</time>
      </trkpt>
      <trkpt lat="0" lon="0">
        <time>2020-12-20T10:16:23.801000+00:00</time>
      </trkpt>
      <trkpt lat="47.33576" lon="-1.33752">
        <ele>123</ele>
        <time>2020-12-20T10:16:24.900000+00:00</time>
      </trkpt>
      <trkpt lat="0" lon="0">
        <time>2020-12-20T10:16:24.910000+00:00</time>
      </trkpt>
      <trkpt lat="0" lon="0">
        <time>2020-12-20T10:16:24.917000+00:00</time>
      </trkpt>
      <trkpt lat="0" lon="0">
        <time>2020-12-20T10:16:24.920000+00:00</time>
      </trkpt>
      <trkpt lat="47.33574" lon="-1.33754">
        <ele>122</ele>
        <time>2020-12-20T10:16:25.853000+00:00</time>
      </trkpt>
      <trkpt lat="0" lon="0">
        <time>2020-12-20T10:16:25.862000+00:00</time>
      </trkpt>
      <trkpt lat="0" lon="0">
        <time>2020-12-20T10:16:25.867000+00:00</time>
      </trkpt>
      <trkpt lat="0" lon="0">
        <time>2020-12-20T10:16:25.870000+00:00</time>
      </trkpt>
      <trkpt lat="47.33571" lon="-1.33757">
        <ele>122</ele>
        <time>2020-12-20T10:16:26.889000+00:00</time>
      </trkpt>
      <trkpt lat="0" lon="0">
        <time>2020-12-20T10:16:26.899000+00:00</time>
      </trkpt>
      <trkpt lat="0" lon="0">
        <time>2020-12-20T10:16:26.904000+00:00</time>
      </trkpt>
      <trkpt lat="0" lon="0">
        <time>2020-12-20T10:16:26.906000+00:00</time>
      </trkpt>
      <trkpt lat="47.33568" lon="-1.3376">
        <ele>122</ele>
        <time>2020-12-20T10:16:27.859000+00:00</time>
      </trkpt>
      <trkpt lat="0" lon="0">
        <time>2020-12-20T10:16:27.878000+00:00</time>
      </trkpt>
      <trkpt lat="0" lon="0">
        <time>2020-12-20T10:16:27.883000+00:00</time>
      </trkpt>
      <trkpt lat="0" lon="0">
        <time>2020-12-20T10:16:27.885000+00:00</time>
      </trkpt>
      <trkpt lat="47.33566" lon="-1.33763">
        <ele>122</ele>
        <time>2020-12-20T10:16:28.869000+00:00</time>
      </trkpt>
      <trkpt lat="0" lon="0">
        <time>2020-12-20T10:16:28.879000+00:00</time>
      </trkpt>
      <trkpt lat="0" lon="0">
        <time>2020-12-20T10:16:28.881000+00:00</time>
      </trkpt>
      <trkpt lat="0" lon="0">
        <time>2020-12-20T10:16:28.883000+00:00</time>
      </trkpt>
      <trkpt lat="47.33563" lon="-1.33766">
        <ele>122</ele>
        <time>2020-12-20T10:16:29.854000+00:00</time>
      </trkpt>
      <trkpt lat="0" lon="0">
        <time>2020-12-20T10:16:29.868000+00:00</time>
      </trkpt>
      <trkpt lat="0" lon="0">
        <time>2020-12-20T10:16:29.872000+00:00</time>
      </trkpt>
      <trkpt lat="0" lon="0">
        <time>2020-12-20T10:16:29.875000+00:00</time>
      </trkpt>
      <trkpt lat="47.3356" lon="-1.33769">
        <ele>122</ele>
        <time>2020-12-20T10:16:30.917000+00:00</time>
      </trkpt>
      <trkpt lat="0" lon="0">
        <time>2020-12-20T10:16:30.925000+00:00</time>
      </trkpt>
      <trkpt lat="0" lon="0">
        <time>2020-12-20T10:16:30.929000+00:00</time>
      </trkpt>
      <trkpt lat="0" lon="0">
        <time>2020-12-20T10:16:30.932000+00:00</time>
      </trkpt>
      <trkpt lat="47.33557" lon="-1.33771">
        <ele>122</ele>
        <time>2020-12-20T10:16:31.879000+00:00</time>
      </trkpt>
      <trkpt lat="0" lon="0">
        <time>2020-12-20T10:16:31.888000+00:00</time>
      </trkpt>
      <trkpt lat="0" lon="0">
        <time>2020-12-20T10:16:31.893000+00:00</time>
      </trkpt>
      <trkpt lat="0" lon="0">
        <time>2020-12-20T10:16:31.900000+00:00</time>
      </trkpt>
      <trkpt lat="47.33555" lon="-1.33774">
        <ele>122</ele>
        <time>2020-12-20T10:16:32.901000+00:00</time>
      </trkpt>
      <trkpt lat="0" lon="0">
        <time>2020-12-20T10:16:32.907000+00:00</time>
      </trkpt>
      <trkpt lat="0" lon="0">
        <time>2020-12-20T10:16:32.915000+00:00</time>
      </trkpt>
      <trkpt lat="0" lon="0">
        <time>2020-12-20T10:16:32.920000+00:00</time>
      </trkpt>
      <trkpt lat="47.33552" lon="-1.33777">
        <ele>122</ele>
        <time>2020-12-20T10:16:33.871000+00:00</time>
      </trkpt>
      <trkpt lat="0" lon="0">
        <time>2020-12-20T10:16:33.891000+00:00</time>
      </trkpt>
      <trkpt lat="0" lon="0">
        <time>2020-12-20T10:16:33.898000+00:00</time>
      </trkpt>
      <trkpt lat="0" lon="0">
        <time>2020-12-20T10:16:33.903000+00:00</time>
      </trkpt>
      <trkpt lat="47.33549" lon="-1.3378">
        <ele>122</ele>
        <time>2020-12-20T10:16:34.915000+00:00</time>
      </trkpt>
      <trkpt lat="0" lon="0">
        <time>2020-12-20T10:16:34.918000+00:00</time>
      </trkpt>
      <trkpt lat="0" lon="0">
        <time>2020-12-20T10:16:34.920000+00:00</time>
      </trkpt>
      <trkpt lat="0" lon="0">
        <time>2020-12-20T10:16:34.924000+00:00</time>
      </trkpt>
      <trkpt lat="47.33547" lon="-1.33783">
        <ele>121</ele>
        <time>2020-12-20T10:16:35.885000+00:00</time>
      </trkpt>
      <trkpt lat="0" lon="0">
        <time>2020-12-20T10:16:35.898000+00:00</time>
      </trkpt>
      <trkpt lat="0" lon="0">
        <time>2020-12-20T10:16:35.902000+00:00</time>
      </trkpt>
      <trkpt lat="0" lon="0">
        <time>2020-12-20T10:16:35.904000+00:00</time>
      </trkpt>
      <trkpt lat="47.33544" lon="-1.33786">
        <ele>122</ele>
        <time>2020-12-20T10:16:36.912000+00:00</time>
      </trkpt>
      <trkpt lat="0" lon="0">
        <time>2020-12-20T10:16:36.921000+00:00</time>
      </trkpt>
      <trkpt lat="0" lon="0">
        <time>2020-12-20T10:16:36.926000+00:00</time>
      </trkpt>
      <trkpt lat="0" lon="0">
        <time>2020-12-20T10:16:36.929000+00:00</time>
      </trkpt>
      <trkpt lat="47.3354" lon="-1.33789">
        <ele>120</ele>
        <time>2020-12-20T10:16:37.875000+00:00</time>
      </trkpt>
      <trkpt lat="0" lon="0">
        <time>2020-12-20T10:16:37.884000+00:00</time>
      </trkpt>
      <trkpt lat="0" lon="0">
        <time>2020-12-20T10:16:37.888000+00:00</time>
      </trkpt>
      <trkpt lat="0" lon="0">
        <time>2020-12-20T10:16:37.891000+00:00</time>
      </trkpt>
      <trkpt lat="47.33537" lon="-1.33793">
        <ele>119</ele>
        <time>2020-12-20T10:16:38.929000+00:00</time>
      </trkpt>
      <trkpt lat="0" lon="0">
        <time>2020-12-20T10:16:38.935000+00:00</time>
      </trkpt>
      <trkpt lat="0" lon="0">
        <time>2020-12-20T10:16:38.943000+00:00</time>
      </trkpt>
      <trkpt lat="0" lon="0">
        <time>2020-12-20T10:16:38.946000+00:00</time>
      </trkpt>
      <trkpt lat="47.33534" lon="-1.33797">
        <ele>118</ele>
        <time>2020-12-20T10:16:39.918000+00:00</time>
      </trkpt>
      <trkpt lat="0" lon="0">
        <time>2020-12-20T10:16:39.931000+00:00</time>
      </trkpt>
      <trkpt lat="0" lon="0">
        <time>2020-12-20T10:16:39.936000+00:00</time>
      </trkpt>
      <trkpt lat="0" lon="0">
        <time>2020-12-20T10:16:39.938000+00:00</time>
      </trkpt>
      <trkpt lat="47.3353" lon="-1.33801">
        <ele>117</ele>
        <time>2020-12-20T10:16:40.839000+00:00</time>
      </trkpt>
      <trkpt lat="0" lon="0">
        <time>2020-12-20T10:16:40.843000+00:00</time>
      </trkpt>
      <trkpt lat="0" lon="0">
        <time>2020-12-20T10:16:40.846000+00:00</time>
      </trkpt>
      <trkpt lat="0" lon="0">
        <time>2020-12-20T10:16:40.848000+00:00</time>
      </trkpt>
      <trkpt lat="47.33526" lon="-1.33805">
        <ele>117</ele>
        <time>2020-12-20T10:16:41.789000+00:00</time>
      </trkpt>
      <trkpt lat="0" lon="0">
        <time>2020-12-20T10:16:41.806000+00:00</time>
      </trkpt>
      <trkpt lat="0" lon="0">
        <time>2020-12-20T10:16:41.817000+00:00</time>
      </trkpt>
      <trkpt lat="0" lon="0">
        <time>2020-12-20T10:16:41.819000+00:00</time>
      </trkpt>
      <trkpt lat="47.33523" lon="-1.33809">
        <ele>116</ele>
        <time>2020-12-20T10:16:42.895000+00:00</time>
      </trkpt>
      <trkpt lat="0" lon="0">
        <time>2020-12-20T10:16:42.908000+00:00</time>
      </trkpt>
      <trkpt lat="0" lon="0">
        <time>2020-12-20T10:16:42.914000+00:00</time>
      </trkpt>
      <trkpt lat="0" lon="0">
        <time>2020-12-20T10:16:42.924000+00:00</time>
      </trkpt>
      <trkpt lat="47.33519" lon="-1.33814">
        <ele>116</ele>
        <time>2020-12-20T10:16:43.896000+00:00</time>
      </trkpt>
      <trkpt lat="0" lon="0">
        <time>2020-12-20T10:16:43.902000+00:00</time>
      </trkpt>
      <trkpt lat="0" lon="0">
        <time>2020-12-20T10:16:43.908000+00:00</time>
      </trkpt>
      <trkpt lat="0" lon="0">
        <time>2020-12-20T10:16:43.910000+00:00</time>
      </trkpt>
      <trkpt lat="47.33515" lon="-1.33819">
        <ele>116</ele>
        <time>2020-12-20T10:16:44.894000+00:00</time>
      </trkpt>
      <trkpt lat="0" lon="0">
        <time>2020-12-20T10:16:44.910000+00:00</time>
      </trkpt>
      <trkpt lat="0" lon="0">
        <time>2020-12-20T10:16:44.914000+00:00</time>
      </trkpt>
      <trkpt lat="0" lon="0">
        <time>2020-12-20T10:16:44.917000+00:00</time>
      </trkpt>
      <trkpt lat="47.33512" lon="-1.33824">
        <ele>116</ele>
        <time>2020-12-20T10:16:45.871000+00:00</time>
      </trkpt>
      <trkpt lat="0" lon="0">
        <time>2020-12-20T10:16:45.879000+00:00</time>
      </trkpt>
      <trkpt lat="0" lon="0">
        <time>2020-12-20T10:16:45.889000+00:00</time>
      </trkpt>
      <trkpt lat="0" lon="0">
        <time>2020-12-20T10:16:45.896000+00:00</time>
      </trkpt>
      <trkpt lat="47.33508" lon="-1.33828">
        <ele>117</ele>
        <time>2020-12-20T10:16:46.907000+00:00</time>
      </trkpt>
      <trkpt lat="0" lon="0">
        <time>2020-12-20T10:16:46.914000+00:00</time>
      </trkpt>
      <trkpt lat="0" lon="0">
        <time>2020-12-20T10:16:46.922000+00:00</time>
      </trkpt>
      <trkpt lat="0" lon="0">
        <time>2020-12-20T10:16:46.933000+00:00</time>
      </trkpt>
      <trkpt lat="47.33505" lon="-1.33833">
        <ele>117</ele>
        <time>2020-12-20T10:16:47.923000+00:00</time>
      </trkpt>
      <trkpt lat="0" lon="0">
        <time>2020-12-20T10:16:47.930000+00:00</time>
      </trkpt>
      <trkpt lat="0" lon="0">
        <time>2020-12-20T10:16:47.938000+00:00</time>
      </trkpt>
      <trkpt lat="0" lon="0">
        <time>2020-12-20T10:16:47.941000+00:00</time>
      </trkpt>
      <trkpt lat="47.33501" lon="-1.33838">
        <ele>116</ele>
        <time>2020-12-20T10:16:48.923000+00:00</time>
      </trkpt>
      <trkpt lat="0" lon="0">
        <time>2020-12-20T10:16:48.934000+00:00</time>
      </trkpt>
      <trkpt lat="0" lon="0">
        <time>2020-12-20T10:16:48.941000+00:00</time>
      </trkpt>
      <trkpt lat="0" lon="0">
        <time>2020-12-20T10:16:48.944000+00:00</time>
      </trkpt>
      <trkpt lat="47.33498" lon="-1.33844">
        <ele>116</ele>
        <time>2020-12-20T10:16:49.897000+00:00</time>
      </trkpt>
      <trkpt lat="0" lon="0">
        <time>2020-12-20T10:16:49.907000+00:00</time>
      </trkpt>
      <trkpt lat="0" lon="0">
        <time>2020-12-20T10:16:49.912000+00:00</time>
      </trkpt>
      <trkpt lat="0" lon="0">
        <time>2020-12-20T10:16:49.914000+00:00</time>
      </trkpt>
      <trkpt lat="47.33495" lon="-1.33849">
        <ele>116</ele>
        <time>2020-12-20T10:16:50.894000+00:00</time>
      </trkpt>
      <trkpt lat="0" lon="0">
        <time>2020-12-20T10:16:50.907000+00:00</time>
      </trkpt>
      <trkpt lat="0" lon="0">
        <time>2020-12-20T10:16:50.918000+00:00</time>
      </trkpt>
      <trkpt lat="0" lon="0">
        <time>2020-12-20T10:16:50.920000+00:00</time>
      </trkpt>
      <trkpt lat="47.33492" lon="-1.33855">
        <ele>116</ele>
        <time>2020-12-20T10:16:51.924000+00:00</time>
      </trkpt>
      <trkpt lat="0" lon="0">
        <time>2020-12-20T10:16:51.927000+00:00</time>
      </trkpt>
      <trkpt lat="0" lon="0">
        <time>2020-12-20T10:16:51.931000+00:00</time>
      </trkpt>
      <trkpt lat="0" lon="0">
        <time>2020-12-20T10:16:51.932000+00:00</time>
      </trkpt>
      <trkpt lat="47.33488" lon="-1.3386">
        <ele>116</ele>
        <time>2020-12-20T10:16:52.867000+00:00</time>
      </trkpt>
      <trkpt lat="0" lon="0">
        <time>2020-12-20T10:16:52.873000+00:00</time>
      </trkpt>
      <trkpt lat="0" lon="0">
        <time>2020-12-20T10:16:52.879000+00:00</time>
      </trkpt>
      <trkpt lat="0" lon="0">
        <time>2020-12-20T10:16:52.882000+00:00</time>
      </trkpt>
      <trkpt lat="47.33485" lon="-1.33865">
        <ele>116</ele>
        <time>2020-12-20T10:16:53.850000+00:00</time>
      </trkpt>
      <trkpt lat="0" lon="0">
        <time>2020-12-20T10:16:53.857000+00:00</time>
      </trkpt>
      <trkpt lat="0" lon="0">
        <time>2020-12-20T10:16:53.880000+00:00</time>
      </trkpt>
      <trkpt lat="0" lon="0">
        <time>2020-12-20T10:16:53.882000+00:00</time>
      </trkpt>
      <trkpt lat="47.33481" lon="-1.3387">
        <ele>115</ele>
        <time>2020-12-20T10:16:54.909000+00:00</time>
      </trkpt>
      <trkpt lat="0" lon="0">
        <time>2020-12-20T10:16:54.915000+00:00</time>
      </trkpt>
      <trkpt lat="0" lon="0">
        <time>2020-12-20T10:16:54.925000+00:00</time>
      </trkpt>
      <trkpt lat="0" lon="0">
        <time>2020-12-20T10:16:54.927000+00:00</time>
      </trkpt>
      <trkpt lat="47.33477" lon="-1.33875">
        <ele>115</ele>
        <time>2020-12-20T10:16:55.892000+00:00</time>
      </trkpt>
      <trkpt lat="0" lon="0">
        <time>2020-12-20T10:16:55.894000+00:00</time>
      </trkpt>
      <trkpt lat="0" lon="0">
        <time>2020-12-20T10:16:55.896000+00:00</time>
      </trkpt>
      <trkpt lat="0" lon="0">
        <time>2020-12-20T10:16:55.898000+00:00</time>
      </trkpt>
      <trkpt lat="47.33473" lon="-1.33879">
        <ele>115</ele>
        <time>2020-12-20T10:16:56.896000+00:00</time>
      </trkpt>
      <trkpt lat="0" lon="0">
        <time>2020-12-20T10:16:56.904000+00:00</time>
      </trkpt>
      <trkpt lat="0" lon="0">
        <time>2020-12-20T10:16:56.911000+00:00</time>
      </trkpt>
      <trkpt lat="0" lon="0">
        <time>2020-12-20T10:16:56.920000+00:00</time>
      </trkpt>
      <trkpt lat="47.33468" lon="-1.33883">
        <ele>115</ele>
        <time>2020-12-20T10:16:57.874000+00:00</time>
      </trkpt>
      <trkpt lat="0" lon="0">
        <time>2020-12-20T10:16:57.878000+00:00</time>
      </trkpt>
      <trkpt lat="0" lon="0">
        <time>2020-12-20T10:16:57.890000+00:00</time>
      </trkpt>
      <trkpt lat="0" lon="0">
        <time>2020-12-20T10:16:57.901000+00:00</time>
      </trkpt>
      <trkpt lat="47.33464" lon="-1.33887">
        <ele>115</ele>
        <time>2020-12-20T10:16:58.887000+00:00</time>
      </trkpt>
      <trkpt lat="0" lon="0">
        <time>2020-12-20T10:16:58.897000+00:00</time>
      </trkpt>
      <trkpt lat="0" lon="0">
        <time>2020-12-20T10:16:58.906000+00:00</time>
      </trkpt>
      <trkpt lat="0" lon="0">
        <time>2020-12-20T10:16:58.910000+00:00</time>
      </trkpt>
      <trkpt lat="47.3346" lon="-1.3389">
        <ele>115</ele>
        <time>2020-12-20T10:16:59.860000+00:00</time>
      </trkpt>
      <trkpt lat="0" lon="0">
        <time>2020-12-20T10:16:59.872000+00:00</time>
      </trkpt>
      <trkpt lat="0" lon="0">
        <time>2020-12-20T10:16:59.877000+00:00</time>
      </trkpt>
      <trkpt lat="0" lon="0">
        <time>2020-12-20T10:16:59.879000+00:00</time>
      </trkpt>
      <trkpt lat="47.33457" lon="-1.33893">
        <ele>115</ele>
        <time>2020-12-20T10:17:00.895000+00:00</time>
      </trkpt>
      <trkpt lat="0" lon="0">
        <time>2020-12-20T10:17:00.907000+00:00</time>
      </trkpt>
      <trkpt lat="0" lon="0">
        <time>2020-12-20T10:17:00.912000+00:00</time>
      </trkpt>
      <trkpt lat="0" lon="0">
        <time>2020-12-20T10:17:00.918000+00:00</time>
      </trkpt>
      <trkpt lat="47.33453" lon="-1.33895">
        <ele>116</ele>
        <time>2020-12-20T10:17:01.907000+00:00</time>
      </trkpt>
      <trkpt lat="0" lon="0">
        <time>2020-12-20T10:17:01.917000+00:00</time>
      </trkpt>
      <trkpt lat="0" lon="0">
        <time>2020-12-20T10:17:01.921000+00:00</time>
      </trkpt>
      <trkpt lat="0" lon="0">
        <time>2020-12-20T10:17:01.923000+00:00</time>
      </trkpt>
      <trkpt lat="47.3345" lon="-1.33897">
        <ele>116</ele>
        <time>2020-12-20T10:17:02.883000+00:00</time>
      </trkpt>
      <trkpt lat="0" lon="0">
        <time>2020-12-20T10:17:02.911000+00:00</time>
      </trkpt>
      <trkpt lat="0" lon="0">
        <time>2020-12-20T10:17:02.923000+00:00</time>
      </trkpt>
      <trkpt lat="0" lon="0">
        <time>2020-12-20T10:17:02.926000+00:00</time>
      </trkpt>
      <trkpt lat="47.33447" lon="-1.33899">
        <ele>116</ele>
        <time>2020-12-20T10:17:03.848000+00:00</time>
      </trkpt>
      <trkpt lat="0" lon="0">
        <time>2020-12-20T10:17:03.854000+00:00</time>
      </trkpt>
      <trkpt lat="0" lon="0">
        <time>2020-12-20T10:17:03.858000+00:00</time>
      </trkpt>
      <trkpt lat="0" lon="0">
        <time>2020-12-20T10:17:03.862000+00:00</time>
      </trkpt>
      <trkpt lat="47.33443" lon="-1.339">
        <ele>116</ele>
        <time>2020-12-20T10:17:04.881000+00:00</time>
      </trkpt>
      <trkpt lat="0" lon="0">
        <time>2020-12-20T10:17:04.886000+00:00</time>
      </trkpt>
      <trkpt lat="0" lon="0">
        <time>2020-12-20T10:17:04.897000+00:00</time>
      </trkpt>
      <trkpt lat="0" lon="0">
        <time>2020-12-20T10:17:04.901000+00:00</time>
      </trkpt>
      <trkpt lat="47.3344" lon="-1.33901">
        <ele>116</ele>
        <time>2020-12-20T10:17:05.763000+00:00</time>
      </trkpt>
      <trkpt lat="0" lon="0">
        <time>2020-12-20T10:17:05.772000+00:00</time>
      </trkpt>
      <trkpt lat="0" lon="0">
        <time>2020-12-20T10:17:05.777000+00:00</time>
      </trkpt>
      <trkpt lat="0" lon="0">
        <time>2020-12-20T10:17:05.779000+00:00</time>
      </trkpt>
      <trkpt lat="47.33437" lon="-1.33903">
        <ele>116</ele>
        <time>2020-12-20T10:17:06.838000+00:00</time>
      </trkpt>
      <trkpt lat="0" lon="0">
        <time>2020-12-20T10:17:06.844000+00:00</time>
      </trkpt>
      <trkpt lat="0" lon="0">
        <time>2020-12-20T10:17:06.856000+00:00</time>
      </trkpt>
      <trkpt lat="0" lon="0">
        <time>2020-12-20T10:17:06.859000+00:00</time>
      </trkpt>
      <trkpt lat="47.33434" lon="-1.33904">
        <ele>115</ele>
        <time>2020-12-20T10:17:07.887000+00:00</time>
      </trkpt>
      <trkpt lat="0" lon="0">
        <time>2020-12-20T10:17:07.895000+00:00</time>
      </trkpt>
      <trkpt lat="0" lon="0">
        <time>2020-12-20T10:17:07.903000+00:00</time>
      </trkpt>
      <trkpt lat="0" lon="0">
        <time>2020-12-20T10:17:07.906000+00:00</time>
      </trkpt>
      <trkpt lat="47.33431" lon="-1.33905">
        <ele>115</ele>
        <time>2020-12-20T10:17:08.900000+00:00</time>
      </trkpt>
      <trkpt lat="0" lon="0">
        <time>2020-12-20T10:17:08.912000+00:00</time>
      </trkpt>
      <trkpt lat="0" lon="0">
        <time>2020-12-20T10:17:08.917000+00:00</time>
      </trkpt>
      <trkpt lat="0" lon="0">
        <time>2020-12-20T10:17:08.919000+00:00</time>
      </trkpt>
      <trkpt lat="47.33427" lon="-1.33907">
        <ele>116</ele>
        <time>2020-12-20T10:17:09.874000+00:00</time>
      </trkpt>
      <trkpt lat="0" lon="0">
        <time>2020-12-20T10:17:09.883000+00:00</time>
      </trkpt>
      <trkpt lat="0" lon="0">
        <time>2020-12-20T10:17:09.893000+00:00</time>
      </trkpt>
      <trkpt lat="0" lon="0">
        <time>2020-12-20T10:17:09.898000+00:00</time>
      </trkpt>
      <trkpt lat="47.33424" lon="-1.33908">
        <ele>116</ele>
        <time>2020-12-20T10:17:10.895000+00:00</time>
      </trkpt>
      <trkpt lat="0" lon="0">
        <time>2020-12-20T10:17:10.908000+00:00</time>
      </trkpt>
      <trkpt lat="0" lon="0">
        <time>2020-12-20T10:17:10.918000+00:00</time>
      </trkpt>
      <trkpt lat="0" lon="0">
        <time>2020-12-20T10:17:10.922000+00:00</time>
      </trkpt>
      <trkpt lat="47.33421" lon="-1.33909">
        <ele>117</ele>
        <time>2020-12-20T10:17:11.889000+00:00</time>
      </trkpt>
      <trkpt lat="0" lon="0">
        <time>2020-12-20T10:17:11.896000+00:00</time>
      </trkpt>
      <trkpt lat="0" lon="0">
        <time>2020-12-20T10:17:11.902000+00:00</time>
      </trkpt>
      <trkpt lat="0" lon="0">
        <time>2020-12-20T10:17:11.905000+00:00</time>
      </trkpt>
      <trkpt lat="47.33418" lon="-1.3391">
        <ele>117</ele>
        <time>2020-12-20T10:17:12.893000+00:00</time>
      </trkpt>
      <trkpt lat="0" lon="0">
        <time>2020-12-20T10:17:12.902000+00:00</time>
      </trkpt>
      <trkpt lat="0" lon="0">
        <time>2020-12-20T10:17:12.907000+00:00</time>
      </trkpt>
      <trkpt lat="0" lon="0">
        <time>2020-12-20T10:17:12.910000+00:00</time>
      </trkpt>
      <trkpt lat="47.33415" lon="-1.33911">
        <ele>118</ele>
        <time>2020-12-20T10:17:13.884000+00:00</time>
      </trkpt>
      <trkpt lat="0" lon="0">
        <time>2020-12-20T10:17:13.890000+00:00</time>
      </trkpt>
      <trkpt lat="0" lon="0">
        <time>2020-12-20T10:17:13.897000+00:00</time>
      </trkpt>
      <trkpt lat="0" lon="0">
        <time>2020-12-20T10:17:13.899000+00:00</time>
      </trkpt>
      <trkpt lat="47.33412" lon="-1.33912">
        <ele>118</ele>
        <time>2020-12-20T10:17:14.873000+00:00</time>
      </trkpt>
      <trkpt lat="0" lon="0">
        <time>2020-12-20T10:17:14.889000+00:00</time>
      </trkpt>
      <trkpt lat="0" lon="0">
        <time>2020-12-20T10:17:14.897000+00:00</time>
      </trkpt>
      <trkpt lat="0" lon="0">
        <time>2020-12-20T10:17:14.899000+00:00</time>
      </trkpt>
      <trkpt lat="47.3341" lon="-1.33913">
        <ele>118</ele>
        <time>2020-12-20T10:17:15.854000+00:00</time>
      </trkpt>
      <trkpt lat="0" lon="0">
        <time>2020-12-20T10:17:15.857000+00:00</time>
      </trkpt>
      <trkpt lat="0" lon="0">
        <time>2020-12-20T10:17:15.859000+00:00</time>
      </trkpt>
      <trkpt lat="0" lon="0">
        <time>2020-12-20T10:17:15.860000+00:00</time>
      </trkpt>
      <trkpt lat="47.33407" lon="-1.33914">
        <ele>119</ele>
        <time>2020-12-20T10:17:16.841000+00:00</time>
      </trkpt>
      <trkpt lat="0" lon="0">
        <time>2020-12-20T10:17:16.849000+00:00</time>
      </trkpt>
      <trkpt lat="0" lon="0">
        <time>2020-12-20T10:17:16.855000+00:00</time>
      </trkpt>
      <trkpt lat="0" lon="0">
        <time>2020-12-20T10:17:16.857000+00:00</time>
      </trkpt>
      <trkpt lat="47.33405" lon="-1.33915">
        <ele>119</ele>
        <time>2020-12-20T10:17:17.912000+00:00</time>
      </trkpt>
      <trkpt lat="0" lon="0">
        <time>2020-12-20T10:17:17.922000+00:00</time>
      </trkpt>
      <trkpt lat="0" lon="0">
        <time>2020-12-20T10:17:17.929000+00:00</time>
      </trkpt>
      <trkpt lat="0" lon="0">
        <time>2020-12-20T10:17:17.933000+00:00</time>
      </trkpt>
      <trkpt lat="47.33402" lon="-1.33916">
        <ele>120</ele>
        <time>2020-12-20T10:17:18.891000+00:00</time>
      </trkpt>
      <trkpt lat="0" lon="0">
        <time>2020-12-20T10:17:18.899000+00:00</time>
      </trkpt>
      <trkpt lat="0" lon="0">
        <time>2020-12-20T10:17:18.903000+00:00</time>
      </trkpt>
      <trkpt lat="0" lon="0">
        <time>2020-12-20T10:17:18.907000+00:00</time>
      </trkpt>
      <trkpt lat="47.334" lon="-1.33917">
        <ele>121</ele>
        <time>2020-12-20T10:17:19.895000+00:00</time>
      </trkpt>
      <trkpt lat="0" lon="0">
        <time>2020-12-20T10:17:19.904000+00:00</time>
      </trkpt>
      <trkpt lat="0" lon="0">
        <time>2020-12-20T10:17:19.914000+00:00</time>
      </trkpt>
      <trkpt lat="0" lon="0">
        <time>2020-12-20T10:17:19.920000+00:00</time>
      </trkpt>
      <trkpt lat="47.33397" lon="-1.33918">
        <ele>121</ele>
        <time>2020-12-20T10:17:20.886000+00:00</time>
      </trkpt>
      <trkpt lat="0" lon="0">
        <time>2020-12-20T10:17:20.897000+00:00</time>
      </trkpt>
      <trkpt lat="0" lon="0">
        <time>2020-12-20T10:17:20.906000+00:00</time>
      </trkpt>
      <trkpt lat="0" lon="0">
        <time>2020-12-20T10:17:20.908000+00:00</time>
      </trkpt>
      <trkpt lat="47.33395" lon="-1.33919">
        <ele>121</ele>
        <time>2020-12-20T10:17:21.881000+00:00</time>
      </trkpt>
      <trkpt lat="0" lon="0">
        <time>2020-12-20T10:17:21.883000+00:00</time>
      </trkpt>
      <trkpt lat="0" lon="0">
        <time>2020-12-20T10:17:21.886000+00:00</time>
      </trkpt>
      <trkpt lat="0" lon="0">
        <time>2020-12-20T10:17:21.887000+00:00</time>
      </trkpt>
      <trkpt lat="47.33392" lon="-1.3392">
        <ele>122</ele>
        <time>2020-12-20T10:17:22.865000+00:00</time>
      </trkpt>
      <trkpt lat="0" lon="0">
        <time>2020-12-20T10:17:22.884000+00:00</time>
      </trkpt>
      <trkpt lat="0" lon="0">
        <time>2020-12-20T10:17:22.888000+00:00</time>
      </trkpt>
      <trkpt lat="0" lon="0">
        <time>2020-12-20T10:17:22.891000+00:00</time>
      </trkpt>
      <trkpt lat="47.3339" lon="-1.3392">
        <ele>122</ele>
        <time>2020-12-20T10:17:23.852000+00:00</time>
      </trkpt>
      <trkpt lat="0" lon="0">
        <time>2020-12-20T10:17:23.867000+00:00</time>
      </trkpt>
      <trkpt lat="0" lon="0">
        <time>2020-12-20T10:17:23.871000+00:00</time>
      </trkpt>
      <trkpt lat="0" lon="0">
        <time>2020-12-20T10:17:23.876000+00:00</time>
      </trkpt>
      <trkpt lat="47.33387" lon="-1.33921">
        <ele>122</ele>
        <time>2020-12-20T10:17:24.889000+00:00</time>
      </trkpt>
      <trkpt lat="0" lon="0">
        <time>2020-12-20T10:17:24.899000+00:00</time>
      </trkpt>
      <trkpt lat="0" lon="0">
        <time>2020-12-20T10:17:24.907000+00:00</time>
      </trkpt>
      <trkpt lat="0" lon="0">
        <time>2020-12-20T10:17:24.910000+00:00</time>
      </trkpt>
      <trkpt lat="47.33385" lon="-1.33922">
        <ele>123</ele>
        <time>2020-12-20T10:17:25.808000+00:00</time>
      </trkpt>
      <trkpt lat="0" lon="0">
        <time>2020-12-20T10:17:25.815000+00:00</time>
      </trkpt>
      <trkpt lat="0" lon="0">
        <time>2020-12-20T10:17:25.820000+00:00</time>
      </trkpt>
      <trkpt lat="0" lon="0">
        <time>2020-12-20T10:17:25.822000+00:00</time>
      </trkpt>
      <trkpt lat="47.33383" lon="-1.33923">
        <ele>123</ele>
        <time>2020-12-20T10:17:26.874000+00:00</time>
      </trkpt>
      <trkpt lat="0" lon="0">
        <time>2020-12-20T10:17:26.882000+00:00</time>
      </trkpt>
      <trkpt lat="0" lon="0">
        <time>2020-12-20T10:17:26.886000+00:00</time>
      </trkpt>
      <trkpt lat="0" lon="0">
        <time>2020-12-20T10:17:26.888000+00:00</time>
      </trkpt>
      <trkpt lat="47.3338" lon="-1.33924">
        <ele>123</ele>
        <time>2020-12-20T10:17:27.847000+00:00</time>
      </trkpt>
      <trkpt lat="0" lon="0">
        <time>2020-12-20T10:17:27.860000+00:00</time>
      </trkpt>
      <trkpt lat="0" lon="0">
        <time>2020-12-20T10:17:27.866000+00:00</time>
      </trkpt>
      <trkpt lat="0" lon="0">
        <time>2020-12-20T10:17:27.869000+00:00</time>
      </trkpt>
      <trkpt lat="47.33377" lon="-1.33924">
        <ele>123</ele>
        <time>2020-12-20T10:17:28.912000+00:00</time>
      </trkpt>
      <trkpt lat="0" lon="0">
        <time>2020-12-20T10:17:28.919000+00:00</time>
      </trkpt>
      <trkpt lat="0" lon="0">
        <time>2020-12-20T10:17:28.923000+00:00</time>
      </trkpt>
      <trkpt lat="0" lon="0">
        <time>2020-12-20T10:17:28.926000+00:00</time>
      </trkpt>
      <trkpt lat="47.33375" lon="-1.33925">
        <ele>123</ele>
        <time>2020-12-20T10:17:29.849000+00:00</time>
      </trkpt>
      <trkpt lat="0" lon="0">
        <time>2020-12-20T10:17:29.866000+00:00</time>
      </trkpt>
      <trkpt lat="0" lon="0">
        <time>2020-12-20T10:17:29.874000+00:00</time>
      </trkpt>
      <trkpt lat="0" lon="0">
        <time>2020-12-20T10:17:29.878000+00:00</time>
      </trkpt>
      <trkpt lat="47.33372" lon="-1.33926">
        <ele>122</ele>
        <time>2020-12-20T10:17:30.831000+00:00</time>
      </trkpt>
      <trkpt lat="0" lon="0">
        <time>2020-12-20T10:17:30.836000+00:00</time>
      </trkpt>
      <trkpt lat="0" lon="0">
        <time>2020-12-20T10:17:30.849000+00:00</time>
      </trkpt>
      <trkpt lat="0" lon="0">
        <time>2020-12-20T10:17:30.851000+00:00</time>
      </trkpt>
      <trkpt lat="47.33369" lon="-1.33927">
        <ele>122</ele>
        <time>2020-12-20T10:17:31.877000+00:00</time>
      </trkpt>
      <trkpt lat="0" lon="0">
        <time>2020-12-20T10:17:31.883000+00:00</time>
      </trkpt>
      <trkpt lat="0" lon="0">
        <time>2020-12-20T10:17:31.886000+00:00</time>
      </trkpt>
      <trkpt lat="0" lon="0">
        <time>2020-12-20T10:17:31.890000+00:00</time>
      </trkpt>
      <trkpt lat="47.33367" lon="-1.33927">
        <ele>122</ele>
        <time>2020-12-20T10:17:32.893000+00:00</time>
      </trkpt>
      <trkpt lat="0" lon="0">
        <time>2020-12-20T10:17:32.895000+00:00</time>
      </trkpt>
      <trkpt lat="0" lon="0">
        <time>2020-12-20T10:17:32.897000+00:00</time>
      </trkpt>
      <trkpt lat="0" lon="0">
        <time>2020-12-20T10:17:32.898000+00:00</time>
      </trkpt>
      <trkpt lat="47.33364" lon="-1.33928">
        <ele>123</ele>
        <time>2020-12-20T10:17:33.897000+00:00</time>
      </trkpt>
      <trkpt lat="0" lon="0">
        <time>2020-12-20T10:17:33.911000+00:00</time>
      </trkpt>
      <trkpt lat="0" lon="0">
        <time>2020-12-20T10:17:33.919000+00:00</time>
      </trkpt>
      <trkpt lat="0" lon="0">
        <time>2020-12-20T10:17:33.923000+00:00</time>
      </trkpt>
      <trkpt lat="47.33361" lon="-1.33929">
        <ele>122</ele>
        <time>2020-12-20T10:17:34.862000+00:00</time>
      </trkpt>
      <trkpt lat="0" lon="0">
        <time>2020-12-20T10:17:34.875000+00:00</time>
      </trkpt>
      <trkpt lat="0" lon="0">
        <time>2020-12-20T10:17:34.883000+00:00</time>
      </trkpt>
      <trkpt lat="0" lon="0">
        <time>2020-12-20T10:17:34.886000+00:00</time>
      </trkpt>
      <trkpt lat="47.33359" lon="-1.3393">
        <ele>122</ele>
        <time>2020-12-20T10:17:35.862000+00:00</time>
      </trkpt>
      <trkpt lat="0" lon="0">
        <time>2020-12-20T10:17:35.881000+00:00</time>
      </trkpt>
      <trkpt lat="0" lon="0">
        <time>2020-12-20T10:17:35.886000+00:00</time>
      </trkpt>
      <trkpt lat="0" lon="0">
        <time>2020-12-20T10:17:35.889000+00:00</time>
      </trkpt>
      <trkpt lat="47.33356" lon="-1.33931">
        <ele>121</ele>
        <time>2020-12-20T10:17:36.878000+00:00</time>
      </trkpt>
      <trkpt lat="0" lon="0">
        <time>2020-12-20T10:17:36.887000+00:00</time>
      </trkpt>
      <trkpt lat="0" lon="0">
        <time>2020-12-20T10:17:36.897000+00:00</time>
      </trkpt>
      <trkpt lat="0" lon="0">
        <time>2020-12-20T10:17:36.900000+00:00</time>
      </trkpt>
      <trkpt lat="47.33354" lon="-1.33932">
        <ele>121</ele>
        <time>2020-12-20T10:17:37.861000+00:00</time>
      </trkpt>
      <trkpt lat="0" lon="0">
        <time>2020-12-20T10:17:37.870000+00:00</time>
      </trkpt>
      <trkpt lat="0" lon="0">
        <time>2020-12-20T10:17:37.876000+00:00</time>
      </trkpt>
      <trkpt lat="0" lon="0">
        <time>2020-12-20T10:17:37.879000+00:00</time>
      </trkpt>
      <trkpt lat="47.33351" lon="-1.33933">
        <ele>122</ele>
        <time>2020-12-20T10:17:38.905000+00:00</time>
      </trkpt>
      <trkpt lat="0" lon="0">
        <time>2020-12-20T10:17:38.913000+00:00</time>
      </trkpt>
      <trkpt lat="0" lon="0">
        <time>2020-12-20T10:17:38.915000+00:00</time>
      </trkpt>
      <trkpt lat="0" lon="0">
        <time>2020-12-20T10:17:38.916000+00:00</time>
      </trkpt>
      <trkpt lat="47.33349" lon="-1.33934">
        <ele>122</ele>
        <time>2020-12-20T10:17:39.849000+00:00</time>
      </trkpt>
      <trkpt lat="0" lon="0">
        <time>2020-12-20T10:17:39.860000+00:00</time>
      </trkpt>
      <trkpt lat="0" lon="0">
        <time>2020-12-20T10:17:39.866000+00:00</time>
      </trkpt>
      <trkpt lat="0" lon="0">
        <time>2020-12-20T10:17:39.868000+00:00</time>
      </trkpt>
      <trkpt lat="47.33346" lon="-1.33934">
        <ele>122</ele>
        <time>2020-12-20T10:17:40.843000+00:00</time>
      </trkpt>
      <trkpt lat="0" lon="0">
        <time>2020-12-20T10:17:40.856000+00:00</time>
      </trkpt>
      <trkpt lat="0" lon="0">
        <time>2020-12-20T10:17:40.863000+00:00</time>
      </trkpt>
      <trkpt lat="0" lon="0">
        <time>2020-12-20T10:17:40.866000+00:00</time>
      </trkpt>
      <trkpt lat="47.33343" lon="-1.33936">
        <ele>122</ele>
        <time>2020-12-20T10:17:41.845000+00:00</time>
      </trkpt>
      <trkpt lat="0" lon="0">
        <time>2020-12-20T10:17:41.857000+00:00</time>
      </trkpt>
      <trkpt lat="0" lon="0">
        <time>2020-12-20T10:17:41.865000+00:00</time>
      </trkpt>
      <trkpt lat="0" lon="0">
        <time>2020-12-20T10:17:41.867000+00:00</time>
      </trkpt>
      <trkpt lat="47.3334" lon="-1.33937">
        <ele>122</ele>
        <time>2020-12-20T10:17:42.844000+00:00</time>
      </trkpt>
      <trkpt lat="0" lon="0">
        <time>2020-12-20T10:17:42.851000+00:00</time>
      </trkpt>
      <trkpt lat="0" lon="0">
        <time>2020-12-20T10:17:42.864000+00:00</time>
      </trkpt>
      <trkpt lat="0" lon="0">
        <time>2020-12-20T10:17:42.866000+00:00</time>
      </trkpt>
      <trkpt lat="47.33337" lon="-1.33938">
        <ele>122</ele>
        <time>2020-12-20T10:17:43.891000+00:00</time>
      </trkpt>
      <trkpt lat="0" lon="0">
        <time>2020-12-20T10:17:43.906000+00:00</time>
      </trkpt>
      <trkpt lat="0" lon="0">
        <time>2020-12-20T10:17:43.913000+00:00</time>
      </trkpt>
      <trkpt lat="0" lon="0">
        <time>2020-12-20T10:17:43.919000+00:00</time>
      </trkpt>
      <trkpt lat="47.33335" lon="-1.33939">
        <ele>122</ele>
        <time>2020-12-20T10:17:44.909000+00:00</time>
      </trkpt>
      <trkpt lat="0" lon="0">
        <time>2020-12-20T10:17:44.912000+00:00</time>
      </trkpt>
      <trkpt lat="0" lon="0">
        <time>2020-12-20T10:17:44.914000+00:00</time>
      </trkpt>
      <trkpt lat="0" lon="0">
        <time>2020-12-20T10:17:44.916000+00:00</time>
      </trkpt>
      <trkpt lat="47.33332" lon="-1.3394">
        <ele>122</ele>
        <time>2020-12-20T10:17:45.873000+00:00</time>
      </trkpt>
      <trkpt lat="0" lon="0">
        <time>2020-12-20T10:17:45.887000+00:00</time>
      </trkpt>
      <trkpt lat="0" lon="0">
        <time>2020-12-20T10:17:45.893000+00:00</time>
      </trkpt>
      <trkpt lat="0" lon="0">
        <time>2020-12-20T10:17:45.896000+00:00</time>
      </trkpt>
      <trkpt lat="47.33329" lon="-1.33942">
        <ele>122</ele>
        <time>2020-12-20T10:17:46.832000+00:00</time>
      </trkpt>
      <trkpt lat="0" lon="0">
        <time>2020-12-20T10:17:46.842000+00:00</time>
      </trkpt>
      <trkpt lat="0" lon="0">
        <time>2020-12-20T10:17:46.848000+00:00</time>
      </trkpt>
      <trkpt lat="0" lon="0">
        <time>2020-12-20T10:17:46.850000+00:00</time>
      </trkpt>
      <trkpt lat="47.33326" lon="-1.33943">
        <ele>122</ele>
        <time>2020-12-20T10:17:47.841000+00:00</time>
      </trkpt>
      <trkpt lat="0" lon="0">
        <time>2020-12-20T10:17:47.849000+00:00</time>
      </trkpt>
      <trkpt lat="0" lon="0">
        <time>2020-12-20T10:17:47.851000+00:00</time>
      </trkpt>
      <trkpt lat="0" lon="0">
        <time>2020-12-20T10:17:47.853000+00:00</time>
      </trkpt>
      <trkpt lat="47.33324" lon="-1.33944">
        <ele>122</ele>
        <time>2020-12-20T10:17:48.847000+00:00</time>
      </trkpt>
      <trkpt lat="0" lon="0">
        <time>2020-12-20T10:17:48.858000+00:00</time>
      </trkpt>
      <trkpt lat="0" lon="0">
        <time>2020-12-20T10:17:48.862000+00:00</time>
      </trkpt>
      <trkpt lat="0" lon="0">
        <time>2020-12-20T10:17:48.864000+00:00</time>
      </trkpt>
      <trkpt lat="47.33321" lon="-1.33945">
        <ele>122</ele>
        <time>2020-12-20T10:17:49.865000+00:00</time>
      </trkpt>
      <trkpt lat="0" lon="0">
        <time>2020-12-20T10:17:49.874000+00:00</time>
      </trkpt>
      <trkpt lat="0" lon="0">
        <time>2020-12-20T10:17:49.879000+00:00</time>
      </trkpt>
      <trkpt lat="0" lon="0">
        <time>2020-12-20T10:17:49.882000+00:00</time>
      </trkpt>
      <trkpt lat="47.33318" lon="-1.33946">
        <ele>121</ele>
        <time>2020-12-20T10:17:50.845000+00:00</time>
      </trkpt>
      <trkpt lat="0" lon="0">
        <time>2020-12-20T10:17:50.855000+00:00</time>
      </trkpt>
      <trkpt lat="0" lon="0">
        <time>2020-12-20T10:17:50.867000+00:00</time>
      </trkpt>
      <trkpt lat="0" lon="0">
        <time>2020-12-20T10:17:50.870000+00:00</time>
      </trkpt>
      <trkpt lat="47.33316" lon="-1.33947">
        <ele>122</ele>
        <time>2020-12-20T10:17:51.892000+00:00</time>
      </trkpt>
      <trkpt lat="0" lon="0">
        <time>2020-12-20T10:17:51.903000+00:00</time>
      </trkpt>
      <trkpt lat="0" lon="0">
        <time>2020-12-20T10:17:51.911000+00:00</time>
      </trkpt>
      <trkpt lat="0" lon="0">
        <time>2020-12-20T10:17:51.913000+00:00</time>
      </trkpt>
      <trkpt lat="47.33313" lon="-1.33948">
        <ele>122</ele>
        <time>2020-12-20T10:17:52.861000+00:00</time>
      </trkpt>
      <trkpt lat="0" lon="0">
        <time>2020-12-20T10:17:52.870000+00:00</time>
      </trkpt>
      <trkpt lat="0" lon="0">
        <time>2020-12-20T10:17:52.880000+00:00</time>
      </trkpt>
      <trkpt lat="0" lon="0">
        <time>2020-12-20T10:17:52.888000+00:00</time>
      </trkpt>
      <trkpt lat="47.33311" lon="-1.33949">
        <ele>122</ele>
        <time>2020-12-20T10:17:53.885000+00:00</time>
      </trkpt>
      <trkpt lat="0" lon="0">
        <time>2020-12-20T10:17:53.899000+00:00</time>
      </trkpt>
      <trkpt lat="0" lon="0">
        <time>2020-12-20T10:17:53.904000+00:00</time>
      </trkpt>
      <trkpt lat="0" lon="0">
        <time>2020-12-20T10:17:53.907000+00:00</time>
      </trkpt>
      <trkpt lat="47.33308" lon="-1.3395">
        <ele>122</ele>
        <time>2020-12-20T10:17:54.856000+00:00</time>
      </trkpt>
      <trkpt lat="0" lon="0">
        <time>2020-12-20T10:17:54.864000+00:00</time>
      </trkpt>
      <trkpt lat="0" lon="0">
        <time>2020-12-20T10:17:54.871000+00:00</time>
      </trkpt>
      <trkpt lat="0" lon="0">
        <time>2020-12-20T10:17:54.874000+00:00</time>
      </trkpt>
      <trkpt lat="47.33306" lon="-1.33951">
        <ele>122</ele>
        <time>2020-12-20T10:17:55.899000+00:00</time>
      </trkpt>
      <trkpt lat="0" lon="0">
        <time>2020-12-20T10:17:55.921000+00:00</time>
      </trkpt>
      <trkpt lat="0" lon="0">
        <time>2020-12-20T10:17:55.925000+00:00</time>
      </trkpt>
      <trkpt lat="0" lon="0">
        <time>2020-12-20T10:17:55.928000+00:00</time>
      </trkpt>
      <trkpt lat="47.33304" lon="-1.33952">
        <ele>123</ele>
        <time>2020-12-20T10:17:56.887000+00:00</time>
      </trkpt>
      <trkpt lat="0" lon="0">
        <time>2020-12-20T10:17:56.898000+00:00</time>
      </trkpt>
      <trkpt lat="0" lon="0">
        <time>2020-12-20T10:17:56.903000+00:00</time>
      </trkpt>
      <trkpt lat="0" lon="0">
        <time>2020-12-20T10:17:56.906000+00:00</time>
      </trkpt>
      <trkpt lat="47.33301" lon="-1.33953">
        <ele>123</ele>
        <time>2020-12-20T10:17:57.861000+00:00</time>
      </trkpt>
      <trkpt lat="0" lon="0">
        <time>2020-12-20T10:17:57.868000+00:00</time>
      </trkpt>
      <trkpt lat="0" lon="0">
        <time>2020-12-20T10:17:57.876000+00:00</time>
      </trkpt>
      <trkpt lat="0" lon="0">
        <time>2020-12-20T10:17:57.879000+00:00</time>
      </trkpt>
      <trkpt lat="47.33299" lon="-1.33955">
        <ele>123</ele>
        <time>2020-12-20T10:17:58.885000+00:00</time>
      </trkpt>
      <trkpt lat="0" lon="0">
        <time>2020-12-20T10:17:58.894000+00:00</time>
      </trkpt>
      <trkpt lat="0" lon="0">
        <time>2020-12-20T10:17:58.899000+00:00</time>
      </trkpt>
      <trkpt lat="0" lon="0">
        <time>2020-12-20T10:17:58.903000+00:00</time>
      </trkpt>
      <trkpt lat="47.33296" lon="-1.33956">
        <ele>123</ele>
        <time>2020-12-20T10:17:59.848000+00:00</time>
      </trkpt>
      <trkpt lat="0" lon="0">
        <time>2020-12-20T10:17:59.859000+00:00</time>
      </trkpt>
      <trkpt lat="0" lon="0">
        <time>2020-12-20T10:17:59.870000+00:00</time>
      </trkpt>
      <trkpt lat="0" lon="0">
        <time>2020-12-20T10:17:59.873000+00:00</time>
      </trkpt>
      <trkpt lat="47.33294" lon="-1.33958">
        <ele>123</ele>
        <time>2020-12-20T10:18:00.888000+00:00</time>
      </trkpt>
      <trkpt lat="0" lon="0">
        <time>2020-12-20T10:18:00.896000+00:00</time>
      </trkpt>
      <trkpt lat="0" lon="0">
        <time>2020-12-20T10:18:00.902000+00:00</time>
      </trkpt>
      <trkpt lat="0" lon="0">
        <time>2020-12-20T10:18:00.905000+00:00</time>
      </trkpt>
      <trkpt lat="47.33292" lon="-1.3396">
        <ele>123</ele>
        <time>2020-12-20T10:18:01.879000+00:00</time>
      </trkpt>
      <trkpt lat="0" lon="0">
        <time>2020-12-20T10:18:01.884000+00:00</time>
      </trkpt>
      <trkpt lat="0" lon="0">
        <time>2020-12-20T10:18:01.892000+00:00</time>
      </trkpt>
      <trkpt lat="0" lon="0">
        <time>2020-12-20T10:18:01.894000+00:00</time>
      </trkpt>
      <trkpt lat="47.33289" lon="-1.33963">
        <ele>123</ele>
        <time>2020-12-20T10:18:02.865000+00:00</time>
      </trkpt>
      <trkpt lat="0" lon="0">
        <time>2020-12-20T10:18:02.887000+00:00</time>
      </trkpt>
      <trkpt lat="0" lon="0">
        <time>2020-12-20T10:18:02.897000+00:00</time>
      </trkpt>
      <trkpt lat="0" lon="0">
        <time>2020-12-20T10:18:02.901000+00:00</time>
      </trkpt>
      <trkpt lat="47.33287" lon="-1.33965">
        <ele>123</ele>
        <time>2020-12-20T10:18:03.916000+00:00</time>
      </trkpt>
      <trkpt lat="0" lon="0">
        <time>2020-12-20T10:18:03.929000+00:00</time>
      </trkpt>
      <trkpt lat="0" lon="0">
        <time>2020-12-20T10:18:03.934000+00:00</time>
      </trkpt>
      <trkpt lat="0" lon="0">
        <time>2020-12-20T10:18:03.938000+00:00</time>
      </trkpt>
      <trkpt lat="47.33285" lon="-1.33968">
        <ele>123</ele>
        <time>2020-12-20T10:18:04.907000+00:00</time>
      </trkpt>
      <trkpt lat="0" lon="0">
        <time>2020-12-20T10:18:04.921000+00:00</time>
      </trkpt>
      <trkpt lat="0" lon="0">
        <time>2020-12-20T10:18:04.925000+00:00</time>
      </trkpt>
      <trkpt lat="0" lon="0">
        <time>2020-12-20T10:18:04.928000+00:00</time>
      </trkpt>
      <trkpt lat="47.33283" lon="-1.33971">
        <ele>124</ele>
        <time>2020-12-20T10:18:05.908000+00:00</time>
      </trkpt>
      <trkpt lat="0" lon="0">
        <time>2020-12-20T10:18:05.915000+00:00</time>
      </trkpt>
      <trkpt lat="0" lon="0">
        <time>2020-12-20T10:18:05.920000+00:00</time>
      </trkpt>
      <trkpt lat="0" lon="0">
        <time>2020-12-20T10:18:05.924000+00:00</time>
      </trkpt>
      <trkpt lat="47.33281" lon="-1.33973">
        <ele>124</ele>
        <time>2020-12-20T10:18:06.874000+00:00</time>
      </trkpt>
      <trkpt lat="0" lon="0">
        <time>2020-12-20T10:18:06.890000+00:00</time>
      </trkpt>
      <trkpt lat="0" lon="0">
        <time>2020-12-20T10:18:06.903000+00:00</time>
      </trkpt>
      <trkpt lat="0" lon="0">
        <time>2020-12-20T10:18:06.905000+00:00</time>
      </trkpt>
      <trkpt lat="47.33279" lon="-1.33976">
        <ele>125</ele>
        <time>2020-12-20T10:18:07.870000+00:00</time>
      </trkpt>
      <trkpt lat="0" lon="0">
        <time>2020-12-20T10:18:07.872000+00:00</time>
      </trkpt>
      <trkpt lat="0" lon="0">
        <time>2020-12-20T10:18:07.874000+00:00</time>
      </trkpt>
      <trkpt lat="0" lon="0">
        <time>2020-12-20T10:18:07.876000+00:00</time>
      </trkpt>
      <trkpt lat="47.33277" lon="-1.33979">
        <ele>125</ele>
        <time>2020-12-20T10:18:08.851000+00:00</time>
      </trkpt>
      <trkpt lat="0" lon="0">
        <time>2020-12-20T10:18:08.862000+00:00</time>
      </trkpt>
      <trkpt lat="0" lon="0">
        <time>2020-12-20T10:18:08.866000+00:00</time>
      </trkpt>
      <trkpt lat="0" lon="0">
        <time>2020-12-20T10:18:08.869000+00:00</time>
      </trkpt>
      <trkpt lat="47.33275" lon="-1.33983">
        <ele>125</ele>
        <time>2020-12-20T10:18:09.854000+00:00</time>
      </trkpt>
      <trkpt lat="0" lon="0">
        <time>2020-12-20T10:18:09.860000+00:00</time>
      </trkpt>
      <trkpt lat="0" lon="0">
        <time>2020-12-20T10:18:09.868000+00:00</time>
      </trkpt>
      <trkpt lat="0" lon="0">
        <time>2020-12-20T10:18:09.870000+00:00</time>
      </trkpt>
      <trkpt lat="47.33273" lon="-1.33986">
        <ele>125</ele>
        <time>2020-12-20T10:18:10.901000+00:00</time>
      </trkpt>
      <trkpt lat="0" lon="0">
        <time>2020-12-20T10:18:10.919000+00:00</time>
      </trkpt>
      <trkpt lat="0" lon="0">
        <time>2020-12-20T10:18:10.924000+00:00</time>
      </trkpt>
      <trkpt lat="0" lon="0">
        <time>2020-12-20T10:18:10.928000+00:00</time>
      </trkpt>
      <trkpt lat="47.33272" lon="-1.33989">
        <ele>126</ele>
        <time>2020-12-20T10:18:11.839000+00:00</time>
      </trkpt>
      <trkpt lat="0" lon="0">
        <time>2020-12-20T10:18:11.842000+00:00</time>
      </trkpt>
      <trkpt lat="0" lon="0">
        <time>2020-12-20T10:18:11.844000+00:00</time>
      </trkpt>
      <trkpt lat="0" lon="0">
        <time>2020-12-20T10:18:11.845000+00:00</time>
      </trkpt>
      <trkpt lat="47.3327" lon="-1.33993">
        <ele>126</ele>
        <time>2020-12-20T10:18:12.845000+00:00</time>
      </trkpt>
      <trkpt lat="0" lon="0">
        <time>2020-12-20T10:18:12.852000+00:00</time>
      </trkpt>
      <trkpt lat="0" lon="0">
        <time>2020-12-20T10:18:12.855000+00:00</time>
      </trkpt>
      <trkpt lat="0" lon="0">
        <time>2020-12-20T10:18:12.862000+00:00</time>
      </trkpt>
      <trkpt lat="47.33269" lon="-1.33996">
        <ele>126</ele>
        <time>2020-12-20T10:18:13.870000+00:00</time>
      </trkpt>
      <trkpt lat="0" lon="0">
        <time>2020-12-20T10:18:13.876000+00:00</time>
      </trkpt>
      <trkpt lat="0" lon="0">
        <time>2020-12-20T10:18:13.880000+00:00</time>
      </trkpt>
      <trkpt lat="0" lon="0">
        <time>2020-12-20T10:18:13.883000+00:00</time>
      </trkpt>
      <trkpt lat="47.33267" lon="-1.34">
        <ele>127</ele>
        <time>2020-12-20T10:18:14.886000+00:00</time>
      </trkpt>
      <trkpt lat="0" lon="0">
        <time>2020-12-20T10:18:14.901000+00:00</time>
      </trkpt>
      <trkpt lat="0" lon="0">
        <time>2020-12-20T10:18:14.906000+00:00</time>
      </trkpt>
      <trkpt lat="0" lon="0">
        <time>2020-12-20T10:18:14.909000+00:00</time>
      </trkpt>
      <trkpt lat="47.33266" lon="-1.34003">
        <ele>128</ele>
        <time>2020-12-20T10:18:15.826000+00:00</time>
      </trkpt>
      <trkpt lat="0" lon="0">
        <time>2020-12-20T10:18:15.841000+00:00</time>
      </trkpt>
      <trkpt lat="0" lon="0">
        <time>2020-12-20T10:18:15.845000+00:00</time>
      </trkpt>
      <trkpt lat="0" lon="0">
        <time>2020-12-20T10:18:15.848000+00:00</time>
      </trkpt>
      <trkpt lat="47.33264" lon="-1.34006">
        <ele>128</ele>
        <time>2020-12-20T10:18:16.863000+00:00</time>
      </trkpt>
      <trkpt lat="0" lon="0">
        <time>2020-12-20T10:18:16.872000+00:00</time>
      </trkpt>
      <trkpt lat="0" lon="0">
        <time>2020-12-20T10:18:16.878000+00:00</time>
      </trkpt>
      <trkpt lat="0" lon="0">
        <time>2020-12-20T10:18:16.881000+00:00</time>
      </trkpt>
      <trkpt lat="47.33263" lon="-1.3401">
        <ele>128</ele>
        <time>2020-12-20T10:18:17.923000+00:00</time>
      </trkpt>
      <trkpt lat="0" lon="0">
        <time>2020-12-20T10:18:17.933000+00:00</time>
      </trkpt>
      <trkpt lat="0" lon="0">
        <time>2020-12-20T10:18:17.941000+00:00</time>
      </trkpt>
      <trkpt lat="0" lon="0">
        <time>2020-12-20T10:18:17.944000+00:00</time>
      </trkpt>
      <trkpt lat="47.33261" lon="-1.34013">
        <ele>129</ele>
        <time>2020-12-20T10:18:18.897000+00:00</time>
      </trkpt>
      <trkpt lat="0" lon="0">
        <time>2020-12-20T10:18:18.900000+00:00</time>
      </trkpt>
      <trkpt lat="0" lon="0">
        <time>2020-12-20T10:18:18.902000+00:00</time>
      </trkpt>
      <trkpt lat="0" lon="0">
        <time>2020-12-20T10:18:18.904000+00:00</time>
      </trkpt>
      <trkpt lat="47.3326" lon="-1.34016">
        <ele>129</ele>
        <time>2020-12-20T10:18:19.867000+00:00</time>
      </trkpt>
      <trkpt lat="0" lon="0">
        <time>2020-12-20T10:18:19.873000+00:00</time>
      </trkpt>
      <trkpt lat="0" lon="0">
        <time>2020-12-20T10:18:19.877000+00:00</time>
      </trkpt>
      <trkpt lat="0" lon="0">
        <time>2020-12-20T10:18:19.882000+00:00</time>
      </trkpt>
      <trkpt lat="47.33258" lon="-1.34019">
        <ele>129</ele>
        <time>2020-12-20T10:18:20.892000+00:00</time>
      </trkpt>
      <trkpt lat="0" lon="0">
        <time>2020-12-20T10:18:20.899000+00:00</time>
      </trkpt>
      <trkpt lat="0" lon="0">
        <time>2020-12-20T10:18:20.904000+00:00</time>
      </trkpt>
      <trkpt lat="0" lon="0">
        <time>2020-12-20T10:18:20.906000+00:00</time>
      </trkpt>
      <trkpt lat="47.33257" lon="-1.34021">
        <ele>130</ele>
        <time>2020-12-20T10:18:21.862000+00:00</time>
      </trkpt>
      <trkpt lat="0" lon="0">
        <time>2020-12-20T10:18:21.887000+00:00</time>
      </trkpt>
      <trkpt lat="0" lon="0">
        <time>2020-12-20T10:18:21.891000+00:00</time>
      </trkpt>
      <trkpt lat="0" lon="0">
        <time>2020-12-20T10:18:21.893000+00:00</time>
      </trkpt>
      <trkpt lat="47.33255" lon="-1.34024">
        <ele>130</ele>
        <time>2020-12-20T10:18:22.872000+00:00</time>
      </trkpt>
      <trkpt lat="0" lon="0">
        <time>2020-12-20T10:18:22.882000+00:00</time>
      </trkpt>
      <trkpt lat="0" lon="0">
        <time>2020-12-20T10:18:22.888000+00:00</time>
      </trkpt>
      <trkpt lat="0" lon="0">
        <time>2020-12-20T10:18:22.890000+00:00</time>
      </trkpt>
      <trkpt lat="47.33254" lon="-1.34026">
        <ele>131</ele>
        <time>2020-12-20T10:18:23.866000+00:00</time>
      </trkpt>
      <trkpt lat="0" lon="0">
        <time>2020-12-20T10:18:23.877000+00:00</time>
      </trkpt>
      <trkpt lat="0" lon="0">
        <time>2020-12-20T10:18:23.886000+00:00</time>
      </trkpt>
      <trkpt lat="0" lon="0">
        <time>2020-12-20T10:18:23.888000+00:00</time>
      </trkpt>
      <trkpt lat="47.33252" lon="-1.34029">
        <ele>132</ele>
        <time>2020-12-20T10:18:24.907000+00:00</time>
      </trkpt>
      <trkpt lat="0" lon="0">
        <time>2020-12-20T10:18:24.911000+00:00</time>
      </trkpt>
      <trkpt lat="0" lon="0">
        <time>2020-12-20T10:18:24.913000+00:00</time>
      </trkpt>
      <trkpt lat="0" lon="0">
        <time>2020-12-20T10:18:24.914000+00:00</time>
      </trkpt>
      <trkpt lat="47.33251" lon="-1.34031">
        <ele>132</ele>
        <time>2020-12-20T10:18:25.905000+00:00</time>
      </trkpt>
      <trkpt lat="0" lon="0">
        <time>2020-12-20T10:18:25.916000+00:00</time>
      </trkpt>
      <trkpt lat="0" lon="0">
        <time>2020-12-20T10:18:25.921000+00:00</time>
      </trkpt>
      <trkpt lat="0" lon="0">
        <time>2020-12-20T10:18:25.923000+00:00</time>
      </trkpt>
      <trkpt lat="47.3325" lon="-1.34033">
        <ele>132</ele>
        <time>2020-12-20T10:18:26.895000+00:00</time>
      </trkpt>
      <trkpt lat="0" lon="0">
        <time>2020-12-20T10:18:26.906000+00:00</time>
      </trkpt>
      <trkpt lat="0" lon="0">
        <time>2020-12-20T10:18:26.910000+00:00</time>
      </trkpt>
      <trkpt lat="0" lon="0">
        <time>2020-12-20T10:18:26.915000+00:00</time>
      </trkpt>
      <trkpt lat="47.33248" lon="-1.34036">
        <ele>132</ele>
        <time>2020-12-20T10:18:27.900000+00:00</time>
      </trkpt>
      <trkpt lat="0" lon="0">
        <time>2020-12-20T10:18:27.907000+00:00</time>
      </trkpt>
      <trkpt lat="0" lon="0">
        <time>2020-12-20T10:18:27.914000+00:00</time>
      </trkpt>
      <trkpt lat="0" lon="0">
        <time>2020-12-20T10:18:27.917000+00:00</time>
      </trkpt>
      <trkpt lat="47.33247" lon="-1.34038">
        <ele>133</ele>
        <time>2020-12-20T10:18:28.941000+00:00</time>
      </trkpt>
      <trkpt lat="0" lon="0">
        <time>2020-12-20T10:18:28.966000+00:00</time>
      </trkpt>
      <trkpt lat="0" lon="0">
        <time>2020-12-20T10:18:28.975000+00:00</time>
      </trkpt>
      <trkpt lat="0" lon="0">
        <time>2020-12-20T10:18:28.978000+00:00</time>
      </trkpt>
      <trkpt lat="47.33245" lon="-1.34041">
        <ele>134</ele>
        <time>2020-12-20T10:18:29.944000+00:00</time>
      </trkpt>
      <trkpt lat="0" lon="0">
        <time>2020-12-20T10:18:29.954000+00:00</time>
      </trkpt>
      <trkpt lat="0" lon="0">
        <time>2020-12-20T10:18:29.962000+00:00</time>
      </trkpt>
      <trkpt lat="0" lon="0">
        <time>2020-12-20T10:18:29.971000+00:00</time>
      </trkpt>
      <trkpt lat="47.33243" lon="-1.34043">
        <ele>134</ele>
        <time>2020-12-20T10:18:30.929000+00:00</time>
      </trkpt>
      <trkpt lat="0" lon="0">
        <time>2020-12-20T10:18:30.934000+00:00</time>
      </trkpt>
      <trkpt lat="0" lon="0">
        <time>2020-12-20T10:18:30.936000+00:00</time>
      </trkpt>
      <trkpt lat="0" lon="0">
        <time>2020-12-20T10:18:30.937000+00:00</time>
      </trkpt>
      <trkpt lat="47.33242" lon="-1.34046">
        <ele>134</ele>
        <time>2020-12-20T10:18:31.899000+00:00</time>
      </trkpt>
      <trkpt lat="0" lon="0">
        <time>2020-12-20T10:18:31.905000+00:00</time>
      </trkpt>
      <trkpt lat="0" lon="0">
        <time>2020-12-20T10:18:31.917000+00:00</time>
      </trkpt>
      <trkpt lat="0" lon="0">
        <time>2020-12-20T10:18:31.919000+00:00</time>
      </trkpt>
      <trkpt lat="47.3324" lon="-1.34049">
        <ele>134</ele>
        <time>2020-12-20T10:18:32.930000+00:00</time>
      </trkpt>
      <trkpt lat="0" lon="0">
        <time>2020-12-20T10:18:32.940000+00:00</time>
      </trkpt>
      <trkpt lat="0" lon="0">
        <time>2020-12-20T10:18:32.948000+00:00</time>
      </trkpt>
      <trkpt lat="0" lon="0">
        <time>2020-12-20T10:18:32.951000+00:00</time>
      </trkpt>
      <trkpt lat="47.33238" lon="-1.34052">
        <ele>135</ele>
        <time>2020-12-20T10:18:33.883000+00:00</time>
      </trkpt>
      <trkpt lat="0" lon="0">
        <time>2020-12-20T10:18:33.894000+00:00</time>
      </trkpt>
      <trkpt lat="0" lon="0">
        <time>2020-12-20T10:18:33.903000+00:00</time>
      </trkpt>
      <trkpt lat="0" lon="0">
        <time>2020-12-20T10:18:33.905000+00:00</time>
      </trkpt>
      <trkpt lat="47.33236" lon="-1.34054">
        <ele>135</ele>
        <time>2020-12-20T10:18:34.861000+00:00</time>
      </trkpt>
      <trkpt lat="0" lon="0">
        <time>2020-12-20T10:18:34.882000+00:00</time>
      </trkpt>
      <trkpt lat="0" lon="0">
        <time>2020-12-20T10:18:34.890000+00:00</time>
      </trkpt>
      <trkpt lat="0" lon="0">
        <time>2020-12-20T10:18:34.892000+00:00</time>
      </trkpt>
      <trkpt lat="47.33234" lon="-1.34057">
        <ele>135</ele>
        <time>2020-12-20T10:18:35.882000+00:00</time>
      </trkpt>
      <trkpt lat="0" lon="0">
        <time>2020-12-20T10:18:35.896000+00:00</time>
      </trkpt>
      <trkpt lat="0" lon="0">
        <time>2020-12-20T10:18:35.905000+00:00</time>
      </trkpt>
      <trkpt lat="0" lon="0">
        <time>2020-12-20T10:18:35.908000+00:00</time>
      </trkpt>
      <trkpt lat="47.33232" lon="-1.34061">
        <ele>136</ele>
        <time>2020-12-20T10:18:36.901000+00:00</time>
      </trkpt>
      <trkpt lat="0" lon="0">
        <time>2020-12-20T10:18:36.903000+00:00</time>
      </trkpt>
      <trkpt lat="0" lon="0">
        <time>2020-12-20T10:18:36.907000+00:00</time>
      </trkpt>
      <trkpt lat="0" lon="0">
        <time>2020-12-20T10:18:36.908000+00:00</time>
      </trkpt>
      <trkpt lat="47.33229" lon="-1.34067">
        <ele>136</ele>
        <time>2020-12-20T10:18:38.924000+00:00</time>
      </trkpt>
      <trkpt lat="0" lon="0">
        <time>2020-12-20T10:18:38.938000+00:00</time>
      </trkpt>
      <trkpt lat="0" lon="0">
        <time>2020-12-20T10:18:38.942000+00:00</time>
      </trkpt>
      <trkpt lat="0" lon="0">
        <time>2020-12-20T10:18:38.946000+00:00</time>
      </trkpt>
      <trkpt lat="47.33225" lon="-1.34074">
        <ele>135</ele>
        <time>2020-12-20T10:18:40.767000+00:00</time>
      </trkpt>
      <trkpt lat="0" lon="0">
        <time>2020-12-20T10:18:40.779000+00:00</time>
      </trkpt>
      <trkpt lat="0" lon="0">
        <time>2020-12-20T10:18:40.784000+00:00</time>
      </trkpt>
      <trkpt lat="0" lon="0">
        <time>2020-12-20T10:18:40.786000+00:00</time>
      </trkpt>
      <trkpt lat="47.33223" lon="-1.34077">
        <ele>135</ele>
        <time>2020-12-20T10:18:41.746000+00:00</time>
      </trkpt>
      <trkpt lat="0" lon="0">
        <time>2020-12-20T10:18:41.762000+00:00</time>
      </trkpt>
      <trkpt lat="0" lon="0">
        <time>2020-12-20T10:18:41.763000+00:00</time>
      </trkpt>
      <trkpt lat="47.33221" lon="-1.34081">
        <ele>136</ele>
        <time>2020-12-20T10:18:42.773000+00:00</time>
      </trkpt>
      <trkpt lat="0" lon="0">
        <time>2020-12-20T10:18:42.778000+00:00</time>
      </trkpt>
      <trkpt lat="0" lon="0">
        <time>2020-12-20T10:18:42.789000+00:00</time>
      </trkpt>
      <trkpt lat="0" lon="0">
        <time>2020-12-20T10:18:42.791000+00:00</time>
      </trkpt>
      <trkpt lat="47.33219" lon="-1.34085">
        <ele>136</ele>
        <time>2020-12-20T10:18:43.762000+00:00</time>
      </trkpt>
      <trkpt lat="0" lon="0">
        <time>2020-12-20T10:18:43.770000+00:00</time>
      </trkpt>
      <trkpt lat="0" lon="0">
        <time>2020-12-20T10:18:43.774000+00:00</time>
      </trkpt>
      <trkpt lat="0" lon="0">
        <time>2020-12-20T10:18:43.776000+00:00</time>
      </trkpt>
      <trkpt lat="47.33217" lon="-1.34088">
        <ele>136</ele>
        <time>2020-12-20T10:18:44.890000+00:00</time>
      </trkpt>
      <trkpt lat="0" lon="0">
        <time>2020-12-20T10:18:44.905000+00:00</time>
      </trkpt>
      <trkpt lat="0" lon="0">
        <time>2020-12-20T10:18:44.916000+00:00</time>
      </trkpt>
      <trkpt lat="0" lon="0">
        <time>2020-12-20T10:18:44.921000+00:00</time>
      </trkpt>
      <trkpt lat="47.33215" lon="-1.34092">
        <ele>136</ele>
        <time>2020-12-20T10:18:45.851000+00:00</time>
      </trkpt>
      <trkpt lat="0" lon="0">
        <time>2020-12-20T10:18:45.861000+00:00</time>
      </trkpt>
      <trkpt lat="0" lon="0">
        <time>2020-12-20T10:18:45.865000+00:00</time>
      </trkpt>
      <trkpt lat="0" lon="0">
        <time>2020-12-20T10:18:45.868000+00:00</time>
      </trkpt>
      <trkpt lat="47.33213" lon="-1.34095">
        <ele>137</ele>
        <time>2020-12-20T10:18:46.886000+00:00</time>
      </trkpt>
      <trkpt lat="0" lon="0">
        <time>2020-12-20T10:18:46.898000+00:00</time>
      </trkpt>
      <trkpt lat="0" lon="0">
        <time>2020-12-20T10:18:46.907000+00:00</time>
      </trkpt>
      <trkpt lat="0" lon="0">
        <time>2020-12-20T10:18:46.909000+00:00</time>
      </trkpt>
      <trkpt lat="47.33211" lon="-1.34099">
        <ele>137</ele>
        <time>2020-12-20T10:18:47.859000+00:00</time>
      </trkpt>
      <trkpt lat="0" lon="0">
        <time>2020-12-20T10:18:47.879000+00:00</time>
      </trkpt>
      <trkpt lat="0" lon="0">
        <time>2020-12-20T10:18:47.888000+00:00</time>
      </trkpt>
      <trkpt lat="0" lon="0">
        <time>2020-12-20T10:18:47.890000+00:00</time>
      </trkpt>
      <trkpt lat="47.33209" lon="-1.34103">
        <ele>137</ele>
        <time>2020-12-20T10:18:48.870000+00:00</time>
      </trkpt>
      <trkpt lat="0" lon="0">
        <time>2020-12-20T10:18:48.883000+00:00</time>
      </trkpt>
      <trkpt lat="0" lon="0">
        <time>2020-12-20T10:18:48.887000+00:00</time>
      </trkpt>
      <trkpt lat="0" lon="0">
        <time>2020-12-20T10:18:48.890000+00:00</time>
      </trkpt>
      <trkpt lat="47.33207" lon="-1.34106">
        <ele>136</ele>
        <time>2020-12-20T10:18:49.874000+00:00</time>
      </trkpt>
      <trkpt lat="0" lon="0">
        <time>2020-12-20T10:18:49.884000+00:00</time>
      </trkpt>
      <trkpt lat="0" lon="0">
        <time>2020-12-20T10:18:49.892000+00:00</time>
      </trkpt>
      <trkpt lat="0" lon="0">
        <time>2020-12-20T10:18:49.894000+00:00</time>
      </trkpt>
      <trkpt lat="47.33205" lon="-1.3411">
        <ele>137</ele>
        <time>2020-12-20T10:18:50.871000+00:00</time>
      </trkpt>
      <trkpt lat="0" lon="0">
        <time>2020-12-20T10:18:50.888000+00:00</time>
      </trkpt>
      <trkpt lat="0" lon="0">
        <time>2020-12-20T10:18:50.898000+00:00</time>
      </trkpt>
      <trkpt lat="0" lon="0">
        <time>2020-12-20T10:18:50.900000+00:00</time>
      </trkpt>
      <trkpt lat="47.33203" lon="-1.34114">
        <ele>136</ele>
        <time>2020-12-20T10:18:51.913000+00:00</time>
      </trkpt>
      <trkpt lat="0" lon="0">
        <time>2020-12-20T10:18:51.918000+00:00</time>
      </trkpt>
      <trkpt lat="0" lon="0">
        <time>2020-12-20T10:18:51.926000+00:00</time>
      </trkpt>
      <trkpt lat="0" lon="0">
        <time>2020-12-20T10:18:51.930000+00:00</time>
      </trkpt>
      <trkpt lat="47.33201" lon="-1.34118">
        <ele>136</ele>
        <time>2020-12-20T10:18:52.903000+00:00</time>
      </trkpt>
      <trkpt lat="0" lon="0">
        <time>2020-12-20T10:18:52.912000+00:00</time>
      </trkpt>
      <trkpt lat="0" lon="0">
        <time>2020-12-20T10:18:52.913000+00:00</time>
      </trkpt>
      <trkpt lat="0" lon="0">
        <time>2020-12-20T10:18:52.914000+00:00</time>
      </trkpt>
      <trkpt lat="47.33199" lon="-1.34122">
        <ele>136</ele>
        <time>2020-12-20T10:18:53.872000+00:00</time>
      </trkpt>
      <trkpt lat="0" lon="0">
        <time>2020-12-20T10:18:53.884000+00:00</time>
      </trkpt>
      <trkpt lat="0" lon="0">
        <time>2020-12-20T10:18:53.890000+00:00</time>
      </trkpt>
      <trkpt lat="0" lon="0">
        <time>2020-12-20T10:18:53.894000+00:00</time>
      </trkpt>
      <trkpt lat="47.33196" lon="-1.34126">
        <ele>136</ele>
        <time>2020-12-20T10:18:54.846000+00:00</time>
      </trkpt>
      <trkpt lat="0" lon="0">
        <time>2020-12-20T10:18:54.863000+00:00</time>
      </trkpt>
      <trkpt lat="0" lon="0">
        <time>2020-12-20T10:18:54.870000+00:00</time>
      </trkpt>
      <trkpt lat="0" lon="0">
        <time>2020-12-20T10:18:54.874000+00:00</time>
      </trkpt>
      <trkpt lat="47.33194" lon="-1.3413">
        <ele>136</ele>
        <time>2020-12-20T10:18:55.874000+00:00</time>
      </trkpt>
      <trkpt lat="0" lon="0">
        <time>2020-12-20T10:18:55.888000+00:00</time>
      </trkpt>
      <trkpt lat="0" lon="0">
        <time>2020-12-20T10:18:55.897000+00:00</time>
      </trkpt>
      <trkpt lat="0" lon="0">
        <time>2020-12-20T10:18:55.899000+00:00</time>
      </trkpt>
      <trkpt lat="47.33192" lon="-1.34135">
        <ele>136</ele>
        <time>2020-12-20T10:18:56.875000+00:00</time>
      </trkpt>
      <trkpt lat="0" lon="0">
        <time>2020-12-20T10:18:56.889000+00:00</time>
      </trkpt>
      <trkpt lat="0" lon="0">
        <time>2020-12-20T10:18:56.901000+00:00</time>
      </trkpt>
      <trkpt lat="0" lon="0">
        <time>2020-12-20T10:18:56.904000+00:00</time>
      </trkpt>
      <trkpt lat="47.33189" lon="-1.34139">
        <ele>136</ele>
        <time>2020-12-20T10:18:57.891000+00:00</time>
      </trkpt>
      <trkpt lat="0" lon="0">
        <time>2020-12-20T10:18:57.900000+00:00</time>
      </trkpt>
      <trkpt lat="0" lon="0">
        <time>2020-12-20T10:18:57.910000+00:00</time>
      </trkpt>
      <trkpt lat="0" lon="0">
        <time>2020-12-20T10:18:57.913000+00:00</time>
      </trkpt>
      <trkpt lat="47.33187" lon="-1.34143">
        <ele>135</ele>
        <time>2020-12-20T10:18:58.931000+00:00</time>
      </trkpt>
      <trkpt lat="0" lon="0">
        <time>2020-12-20T10:18:58.935000+00:00</time>
      </trkpt>
      <trkpt lat="0" lon="0">
        <time>2020-12-20T10:18:58.939000+00:00</time>
      </trkpt>
      <trkpt lat="0" lon="0">
        <time>2020-12-20T10:18:58.941000+00:00</time>
      </trkpt>
      <trkpt lat="47.33184" lon="-1.34148">
        <ele>134</ele>
        <time>2020-12-20T10:18:59.878000+00:00</time>
      </trkpt>
      <trkpt lat="0" lon="0">
        <time>2020-12-20T10:18:59.902000+00:00</time>
      </trkpt>
      <trkpt lat="0" lon="0">
        <time>2020-12-20T10:18:59.906000+00:00</time>
      </trkpt>
      <trkpt lat="0" lon="0">
        <time>2020-12-20T10:18:59.909000+00:00</time>
      </trkpt>
      <trkpt lat="47.33182" lon="-1.34152">
        <ele>134</ele>
        <time>2020-12-20T10:19:00.901000+00:00</time>
      </trkpt>
      <trkpt lat="0" lon="0">
        <time>2020-12-20T10:19:00.912000+00:00</time>
      </trkpt>
      <trkpt lat="0" lon="0">
        <time>2020-12-20T10:19:00.921000+00:00</time>
      </trkpt>
      <trkpt lat="0" lon="0">
        <time>2020-12-20T10:19:00.923000+00:00</time>
      </trkpt>
      <trkpt lat="47.33179" lon="-1.34157">
        <ele>132</ele>
        <time>2020-12-20T10:19:01.854000+00:00</time>
      </trkpt>
      <trkpt lat="0" lon="0">
        <time>2020-12-20T10:19:01.867000+00:00</time>
      </trkpt>
      <trkpt lat="0" lon="0">
        <time>2020-12-20T10:19:01.877000+00:00</time>
      </trkpt>
      <trkpt lat="0" lon="0">
        <time>2020-12-20T10:19:01.884000+00:00</time>
      </trkpt>
      <trkpt lat="47.33176" lon="-1.34162">
        <ele>131</ele>
        <time>2020-12-20T10:19:02.867000+00:00</time>
      </trkpt>
      <trkpt lat="0" lon="0">
        <time>2020-12-20T10:19:02.885000+00:00</time>
      </trkpt>
      <trkpt lat="0" lon="0">
        <time>2020-12-20T10:19:02.889000+00:00</time>
      </trkpt>
      <trkpt lat="0" lon="0">
        <time>2020-12-20T10:19:02.891000+00:00</time>
      </trkpt>
      <trkpt lat="47.33174" lon="-1.34167">
        <ele>130</ele>
        <time>2020-12-20T10:19:03.882000+00:00</time>
      </trkpt>
      <trkpt lat="0" lon="0">
        <time>2020-12-20T10:19:03.902000+00:00</time>
      </trkpt>
      <trkpt lat="0" lon="0">
        <time>2020-12-20T10:19:03.912000+00:00</time>
      </trkpt>
      <trkpt lat="0" lon="0">
        <time>2020-12-20T10:19:03.917000+00:00</time>
      </trkpt>
      <trkpt lat="47.33171" lon="-1.34172">
        <ele>129</ele>
        <time>2020-12-20T10:19:04.867000+00:00</time>
      </trkpt>
      <trkpt lat="0" lon="0">
        <time>2020-12-20T10:19:04.875000+00:00</time>
      </trkpt>
      <trkpt lat="0" lon="0">
        <time>2020-12-20T10:19:04.882000+00:00</time>
      </trkpt>
      <trkpt lat="0" lon="0">
        <time>2020-12-20T10:19:04.885000+00:00</time>
      </trkpt>
      <trkpt lat="47.33168" lon="-1.34178">
        <ele>128</ele>
        <time>2020-12-20T10:19:05.901000+00:00</time>
      </trkpt>
      <trkpt lat="0" lon="0">
        <time>2020-12-20T10:19:05.913000+00:00</time>
      </trkpt>
      <trkpt lat="0" lon="0">
        <time>2020-12-20T10:19:05.918000+00:00</time>
      </trkpt>
      <trkpt lat="0" lon="0">
        <time>2020-12-20T10:19:05.920000+00:00</time>
      </trkpt>
      <trkpt lat="47.33165" lon="-1.34183">
        <ele>127</ele>
        <time>2020-12-20T10:19:06.885000+00:00</time>
      </trkpt>
      <trkpt lat="0" lon="0">
        <time>2020-12-20T10:19:06.891000+00:00</time>
      </trkpt>
      <trkpt lat="0" lon="0">
        <time>2020-12-20T10:19:06.916000+00:00</time>
      </trkpt>
      <trkpt lat="0" lon="0">
        <time>2020-12-20T10:19:06.918000+00:00</time>
      </trkpt>
      <trkpt lat="47.33162" lon="-1.34189">
        <ele>127</ele>
        <time>2020-12-20T10:19:07.900000+00:00</time>
      </trkpt>
      <trkpt lat="0" lon="0">
        <time>2020-12-20T10:19:07.907000+00:00</time>
      </trkpt>
      <trkpt lat="0" lon="0">
        <time>2020-12-20T10:19:07.917000+00:00</time>
      </trkpt>
      <trkpt lat="0" lon="0">
        <time>2020-12-20T10:19:07.920000+00:00</time>
      </trkpt>
      <trkpt lat="47.33159" lon="-1.34194">
        <ele>127</ele>
        <time>2020-12-20T10:19:08.906000+00:00</time>
      </trkpt>
      <trkpt lat="0" lon="0">
        <time>2020-12-20T10:19:08.912000+00:00</time>
      </trkpt>
      <trkpt lat="0" lon="0">
        <time>2020-12-20T10:19:08.919000+00:00</time>
      </trkpt>
      <trkpt lat="0" lon="0">
        <time>2020-12-20T10:19:08.922000+00:00</time>
      </trkpt>
      <trkpt lat="47.33156" lon="-1.342">
        <ele>127</ele>
        <time>2020-12-20T10:19:09.878000+00:00</time>
      </trkpt>
      <trkpt lat="0" lon="0">
        <time>2020-12-20T10:19:09.883000+00:00</time>
      </trkpt>
      <trkpt lat="0" lon="0">
        <time>2020-12-20T10:19:09.892000+00:00</time>
      </trkpt>
      <trkpt lat="0" lon="0">
        <time>2020-12-20T10:19:09.900000+00:00</time>
      </trkpt>
      <trkpt lat="47.33153" lon="-1.34205">
        <ele>126</ele>
        <time>2020-12-20T10:19:10.894000+00:00</time>
      </trkpt>
      <trkpt lat="0" lon="0">
        <time>2020-12-20T10:19:10.899000+00:00</time>
      </trkpt>
      <trkpt lat="0" lon="0">
        <time>2020-12-20T10:19:10.903000+00:00</time>
      </trkpt>
      <trkpt lat="0" lon="0">
        <time>2020-12-20T10:19:10.905000+00:00</time>
      </trkpt>
      <trkpt lat="47.3315" lon="-1.3421">
        <ele>126</ele>
        <time>2020-12-20T10:19:11.895000+00:00</time>
      </trkpt>
      <trkpt lat="0" lon="0">
        <time>2020-12-20T10:19:11.916000+00:00</time>
      </trkpt>
      <trkpt lat="0" lon="0">
        <time>2020-12-20T10:19:11.929000+00:00</time>
      </trkpt>
      <trkpt lat="0" lon="0">
        <time>2020-12-20T10:19:11.934000+00:00</time>
      </trkpt>
      <trkpt lat="47.33147" lon="-1.34216">
        <ele>125</ele>
        <time>2020-12-20T10:19:12.957000+00:00</time>
      </trkpt>
      <trkpt lat="0" lon="0">
        <time>2020-12-20T10:19:12.970000+00:00</time>
      </trkpt>
      <trkpt lat="0" lon="0">
        <time>2020-12-20T10:19:12.975000+00:00</time>
      </trkpt>
      <trkpt lat="0" lon="0">
        <time>2020-12-20T10:19:12.978000+00:00</time>
      </trkpt>
      <trkpt lat="47.33144" lon="-1.34221">
        <ele>125</ele>
        <time>2020-12-20T10:19:13.895000+00:00</time>
      </trkpt>
      <trkpt lat="0" lon="0">
        <time>2020-12-20T10:19:13.907000+00:00</time>
      </trkpt>
      <trkpt lat="0" lon="0">
        <time>2020-12-20T10:19:13.911000+00:00</time>
      </trkpt>
      <trkpt lat="0" lon="0">
        <time>2020-12-20T10:19:13.914000+00:00</time>
      </trkpt>
      <trkpt lat="47.33141" lon="-1.34226">
        <ele>125</ele>
        <time>2020-12-20T10:19:14.879000+00:00</time>
      </trkpt>
      <trkpt lat="0" lon="0">
        <time>2020-12-20T10:19:14.884000+00:00</time>
      </trkpt>
      <trkpt lat="0" lon="0">
        <time>2020-12-20T10:19:14.890000+00:00</time>
      </trkpt>
      <trkpt lat="0" lon="0">
        <time>2020-12-20T10:19:14.893000+00:00</time>
      </trkpt>
      <trkpt lat="47.33138" lon="-1.34231">
        <ele>124</ele>
        <time>2020-12-20T10:19:15.853000+00:00</time>
      </trkpt>
      <trkpt lat="0" lon="0">
        <time>2020-12-20T10:19:15.866000+00:00</time>
      </trkpt>
      <trkpt lat="0" lon="0">
        <time>2020-12-20T10:19:15.870000+00:00</time>
      </trkpt>
      <trkpt lat="0" lon="0">
        <time>2020-12-20T10:19:15.872000+00:00</time>
      </trkpt>
      <trkpt lat="47.33135" lon="-1.34236">
        <ele>124</ele>
        <time>2020-12-20T10:19:16.903000+00:00</time>
      </trkpt>
      <trkpt lat="0" lon="0">
        <time>2020-12-20T10:19:16.911000+00:00</time>
      </trkpt>
      <trkpt lat="0" lon="0">
        <time>2020-12-20T10:19:16.916000+00:00</time>
      </trkpt>
      <trkpt lat="0" lon="0">
        <time>2020-12-20T10:19:16.919000+00:00</time>
      </trkpt>
      <trkpt lat="47.33132" lon="-1.34242">
        <ele>124</ele>
        <time>2020-12-20T10:19:17.879000+00:00</time>
      </trkpt>
      <trkpt lat="0" lon="0">
        <time>2020-12-20T10:19:17.887000+00:00</time>
      </trkpt>
      <trkpt lat="0" lon="0">
        <time>2020-12-20T10:19:17.892000+00:00</time>
      </trkpt>
      <trkpt lat="0" lon="0">
        <time>2020-12-20T10:19:17.895000+00:00</time>
      </trkpt>
      <trkpt lat="47.33129" lon="-1.34247">
        <ele>123</ele>
        <time>2020-12-20T10:19:18.877000+00:00</time>
      </trkpt>
      <trkpt lat="0" lon="0">
        <time>2020-12-20T10:19:18.893000+00:00</time>
      </trkpt>
      <trkpt lat="0" lon="0">
        <time>2020-12-20T10:19:18.898000+00:00</time>
      </trkpt>
      <trkpt lat="0" lon="0">
        <time>2020-12-20T10:19:18.900000+00:00</time>
      </trkpt>
      <trkpt lat="47.33127" lon="-1.34253">
        <ele>123</ele>
        <time>2020-12-20T10:19:19.847000+00:00</time>
      </trkpt>
      <trkpt lat="0" lon="0">
        <time>2020-12-20T10:19:19.858000+00:00</time>
      </trkpt>
      <trkpt lat="0" lon="0">
        <time>2020-12-20T10:19:19.866000+00:00</time>
      </trkpt>
      <trkpt lat="0" lon="0">
        <time>2020-12-20T10:19:19.869000+00:00</time>
      </trkpt>
      <trkpt lat="47.33126" lon="-1.34258">
        <ele>124</ele>
        <time>2020-12-20T10:19:20.866000+00:00</time>
      </trkpt>
      <trkpt lat="0" lon="0">
        <time>2020-12-20T10:19:20.877000+00:00</time>
      </trkpt>
      <trkpt lat="0" lon="0">
        <time>2020-12-20T10:19:20.882000+00:00</time>
      </trkpt>
      <trkpt lat="0" lon="0">
        <time>2020-12-20T10:19:20.884000+00:00</time>
      </trkpt>
      <trkpt lat="47.33125" lon="-1.34262">
        <ele>124</ele>
        <time>2020-12-20T10:19:21.838000+00:00</time>
      </trkpt>
      <trkpt lat="0" lon="0">
        <time>2020-12-20T10:19:21.852000+00:00</time>
      </trkpt>
      <trkpt lat="0" lon="0">
        <time>2020-12-20T10:19:21.857000+00:00</time>
      </trkpt>
      <trkpt lat="0" lon="0">
        <time>2020-12-20T10:19:21.859000+00:00</time>
      </trkpt>
      <trkpt lat="47.33126" lon="-1.34267">
        <ele>123</ele>
        <time>2020-12-20T10:19:22.859000+00:00</time>
      </trkpt>
      <trkpt lat="0" lon="0">
        <time>2020-12-20T10:19:22.876000+00:00</time>
      </trkpt>
      <trkpt lat="0" lon="0">
        <time>2020-12-20T10:19:22.882000+00:00</time>
      </trkpt>
      <trkpt lat="0" lon="0">
        <time>2020-12-20T10:19:22.885000+00:00</time>
      </trkpt>
      <trkpt lat="47.33127" lon="-1.34271">
        <ele>124</ele>
        <time>2020-12-20T10:19:23.861000+00:00</time>
      </trkpt>
      <trkpt lat="0" lon="0">
        <time>2020-12-20T10:19:23.873000+00:00</time>
      </trkpt>
      <trkpt lat="0" lon="0">
        <time>2020-12-20T10:19:23.881000+00:00</time>
      </trkpt>
      <trkpt lat="0" lon="0">
        <time>2020-12-20T10:19:23.886000+00:00</time>
      </trkpt>
      <trkpt lat="47.33129" lon="-1.34274">
        <ele>124</ele>
        <time>2020-12-20T10:19:24.846000+00:00</time>
      </trkpt>
      <trkpt lat="0" lon="0">
        <time>2020-12-20T10:19:24.864000+00:00</time>
      </trkpt>
      <trkpt lat="0" lon="0">
        <time>2020-12-20T10:19:24.869000+00:00</time>
      </trkpt>
      <trkpt lat="0" lon="0">
        <time>2020-12-20T10:19:24.879000+00:00</time>
      </trkpt>
      <trkpt lat="47.33132" lon="-1.34277">
        <ele>124</ele>
        <time>2020-12-20T10:19:25.856000+00:00</time>
      </trkpt>
      <trkpt lat="0" lon="0">
        <time>2020-12-20T10:19:25.874000+00:00</time>
      </trkpt>
      <trkpt lat="0" lon="0">
        <time>2020-12-20T10:19:25.878000+00:00</time>
      </trkpt>
      <trkpt lat="0" lon="0">
        <time>2020-12-20T10:19:25.882000+00:00</time>
      </trkpt>
      <trkpt lat="47.33135" lon="-1.3428">
        <ele>124</ele>
        <time>2020-12-20T10:19:26.861000+00:00</time>
      </trkpt>
      <trkpt lat="0" lon="0">
        <time>2020-12-20T10:19:26.867000+00:00</time>
      </trkpt>
      <trkpt lat="0" lon="0">
        <time>2020-12-20T10:19:26.872000+00:00</time>
      </trkpt>
      <trkpt lat="0" lon="0">
        <time>2020-12-20T10:19:26.874000+00:00</time>
      </trkpt>
      <trkpt lat="47.33138" lon="-1.34282">
        <ele>123</ele>
        <time>2020-12-20T10:19:27.852000+00:00</time>
      </trkpt>
      <trkpt lat="0" lon="0">
        <time>2020-12-20T10:19:27.865000+00:00</time>
      </trkpt>
      <trkpt lat="0" lon="0">
        <time>2020-12-20T10:19:27.870000+00:00</time>
      </trkpt>
      <trkpt lat="0" lon="0">
        <time>2020-12-20T10:19:27.871000+00:00</time>
      </trkpt>
      <trkpt lat="47.33142" lon="-1.34285">
        <ele>123</ele>
        <time>2020-12-20T10:19:28.898000+00:00</time>
      </trkpt>
      <trkpt lat="0" lon="0">
        <time>2020-12-20T10:19:28.910000+00:00</time>
      </trkpt>
      <trkpt lat="0" lon="0">
        <time>2020-12-20T10:19:28.915000+00:00</time>
      </trkpt>
      <trkpt lat="0" lon="0">
        <time>2020-12-20T10:19:28.919000+00:00</time>
      </trkpt>
      <trkpt lat="47.33145" lon="-1.34287">
        <ele>123</ele>
        <time>2020-12-20T10:19:29.880000+00:00</time>
      </trkpt>
      <trkpt lat="0" lon="0">
        <time>2020-12-20T10:19:29.891000+00:00</time>
      </trkpt>
      <trkpt lat="0" lon="0">
        <time>2020-12-20T10:19:29.895000+00:00</time>
      </trkpt>
      <trkpt lat="0" lon="0">
        <time>2020-12-20T10:19:29.898000+00:00</time>
      </trkpt>
      <trkpt lat="47.33149" lon="-1.34289">
        <ele>123</ele>
        <time>2020-12-20T10:19:30.898000+00:00</time>
      </trkpt>
      <trkpt lat="0" lon="0">
        <time>2020-12-20T10:19:30.905000+00:00</time>
      </trkpt>
      <trkpt lat="0" lon="0">
        <time>2020-12-20T10:19:30.911000+00:00</time>
      </trkpt>
      <trkpt lat="0" lon="0">
        <time>2020-12-20T10:19:30.914000+00:00</time>
      </trkpt>
      <trkpt lat="47.33153" lon="-1.34291">
        <ele>123</ele>
        <time>2020-12-20T10:19:31.844000+00:00</time>
      </trkpt>
      <trkpt lat="0" lon="0">
        <time>2020-12-20T10:19:31.846000+00:00</time>
      </trkpt>
      <trkpt lat="0" lon="0">
        <time>2020-12-20T10:19:31.849000+00:00</time>
      </trkpt>
      <trkpt lat="0" lon="0">
        <time>2020-12-20T10:19:31.855000+00:00</time>
      </trkpt>
      <trkpt lat="47.33157" lon="-1.34293">
        <ele>124</ele>
        <time>2020-12-20T10:19:32.879000+00:00</time>
      </trkpt>
      <trkpt lat="0" lon="0">
        <time>2020-12-20T10:19:32.893000+00:00</time>
      </trkpt>
      <trkpt lat="0" lon="0">
        <time>2020-12-20T10:19:32.897000+00:00</time>
      </trkpt>
      <trkpt lat="0" lon="0">
        <time>2020-12-20T10:19:32.900000+00:00</time>
      </trkpt>
      <trkpt lat="47.3316" lon="-1.34296">
        <ele>123</ele>
        <time>2020-12-20T10:19:33.823000+00:00</time>
      </trkpt>
      <trkpt lat="0" lon="0">
        <time>2020-12-20T10:19:33.827000+00:00</time>
      </trkpt>
      <trkpt lat="0" lon="0">
        <time>2020-12-20T10:19:33.830000+00:00</time>
      </trkpt>
      <trkpt lat="0" lon="0">
        <time>2020-12-20T10:19:33.831000+00:00</time>
      </trkpt>
      <trkpt lat="47.33162" lon="-1.343">
        <ele>123</ele>
        <time>2020-12-20T10:19:34.869000+00:00</time>
      </trkpt>
      <trkpt lat="0" lon="0">
        <time>2020-12-20T10:19:34.874000+00:00</time>
      </trkpt>
      <trkpt lat="0" lon="0">
        <time>2020-12-20T10:19:34.879000+00:00</time>
      </trkpt>
      <trkpt lat="0" lon="0">
        <time>2020-12-20T10:19:34.883000+00:00</time>
      </trkpt>
      <trkpt lat="47.33164" lon="-1.34303">
        <ele>123</ele>
        <time>2020-12-20T10:19:35.843000+00:00</time>
      </trkpt>
      <trkpt lat="0" lon="0">
        <time>2020-12-20T10:19:35.849000+00:00</time>
      </trkpt>
      <trkpt lat="0" lon="0">
        <time>2020-12-20T10:19:35.857000+00:00</time>
      </trkpt>
      <trkpt lat="0" lon="0">
        <time>2020-12-20T10:19:35.860000+00:00</time>
      </trkpt>
      <trkpt lat="47.33165" lon="-1.34307">
        <ele>123</ele>
        <time>2020-12-20T10:19:36.783000+00:00</time>
      </trkpt>
      <trkpt lat="0" lon="0">
        <time>2020-12-20T10:19:36.793000+00:00</time>
      </trkpt>
      <trkpt lat="0" lon="0">
        <time>2020-12-20T10:19:36.798000+00:00</time>
      </trkpt>
      <trkpt lat="0" lon="0">
        <time>2020-12-20T10:19:36.800000+00:00</time>
      </trkpt>
      <trkpt lat="47.33165" lon="-1.34311">
        <ele>123</ele>
        <time>2020-12-20T10:19:37.818000+00:00</time>
      </trkpt>
      <trkpt lat="0" lon="0">
        <time>2020-12-20T10:19:37.827000+00:00</time>
      </trkpt>
      <trkpt lat="0" lon="0">
        <time>2020-12-20T10:19:37.831000+00:00</time>
      </trkpt>
      <trkpt lat="0" lon="0">
        <time>2020-12-20T10:19:37.833000+00:00</time>
      </trkpt>
      <trkpt lat="47.33164" lon="-1.34315">
        <ele>123</ele>
        <time>2020-12-20T10:19:38.827000+00:00</time>
      </trkpt>
      <trkpt lat="0" lon="0">
        <time>2020-12-20T10:19:38.831000+00:00</time>
      </trkpt>
      <trkpt lat="0" lon="0">
        <time>2020-12-20T10:19:38.836000+00:00</time>
      </trkpt>
      <trkpt lat="0" lon="0">
        <time>2020-12-20T10:19:38.839000+00:00</time>
      </trkpt>
      <trkpt lat="47.33163" lon="-1.34319">
        <ele>123</ele>
        <time>2020-12-20T10:19:39.900000+00:00</time>
      </trkpt>
      <trkpt lat="0" lon="0">
        <time>2020-12-20T10:19:39.907000+00:00</time>
      </trkpt>
      <trkpt lat="0" lon="0">
        <time>2020-12-20T10:19:39.910000+00:00</time>
      </trkpt>
      <trkpt lat="0" lon="0">
        <time>2020-12-20T10:19:39.911000+00:00</time>
      </trkpt>
      <trkpt lat="47.33162" lon="-1.34323">
        <ele>123</ele>
        <time>2020-12-20T10:19:40.870000+00:00</time>
      </trkpt>
      <trkpt lat="0" lon="0">
        <time>2020-12-20T10:19:40.884000+00:00</time>
      </trkpt>
      <trkpt lat="0" lon="0">
        <time>2020-12-20T10:19:40.888000+00:00</time>
      </trkpt>
      <trkpt lat="0" lon="0">
        <time>2020-12-20T10:19:40.891000+00:00</time>
      </trkpt>
      <trkpt lat="47.3316" lon="-1.34328">
        <ele>124</ele>
        <time>2020-12-20T10:19:41.808000+00:00</time>
      </trkpt>
      <trkpt lat="0" lon="0">
        <time>2020-12-20T10:19:41.821000+00:00</time>
      </trkpt>
      <trkpt lat="0" lon="0">
        <time>2020-12-20T10:19:41.826000+00:00</time>
      </trkpt>
      <trkpt lat="0" lon="0">
        <time>2020-12-20T10:19:41.828000+00:00</time>
      </trkpt>
      <trkpt lat="47.33157" lon="-1.34332">
        <ele>124</ele>
        <time>2020-12-20T10:19:42.833000+00:00</time>
      </trkpt>
      <trkpt lat="0" lon="0">
        <time>2020-12-20T10:19:42.841000+00:00</time>
      </trkpt>
      <trkpt lat="0" lon="0">
        <time>2020-12-20T10:19:42.851000+00:00</time>
      </trkpt>
      <trkpt lat="0" lon="0">
        <time>2020-12-20T10:19:42.853000+00:00</time>
      </trkpt>
      <trkpt lat="47.33154" lon="-1.34338">
        <ele>124</ele>
        <time>2020-12-20T10:19:43.916000+00:00</time>
      </trkpt>
      <trkpt lat="0" lon="0">
        <time>2020-12-20T10:19:43.922000+00:00</time>
      </trkpt>
      <trkpt lat="0" lon="0">
        <time>2020-12-20T10:19:43.924000+00:00</time>
      </trkpt>
      <trkpt lat="0" lon="0">
        <time>2020-12-20T10:19:43.926000+00:00</time>
      </trkpt>
      <trkpt lat="47.33151" lon="-1.34343">
        <ele>124</ele>
        <time>2020-12-20T10:19:44.933000+00:00</time>
      </trkpt>
      <trkpt lat="0" lon="0">
        <time>2020-12-20T10:19:44.952000+00:00</time>
      </trkpt>
      <trkpt lat="0" lon="0">
        <time>2020-12-20T10:19:44.957000+00:00</time>
      </trkpt>
      <trkpt lat="0" lon="0">
        <time>2020-12-20T10:19:44.959000+00:00</time>
      </trkpt>
      <trkpt lat="47.33148" lon="-1.34348">
        <ele>124</ele>
        <time>2020-12-20T10:19:45.896000+00:00</time>
      </trkpt>
      <trkpt lat="0" lon="0">
        <time>2020-12-20T10:19:45.907000+00:00</time>
      </trkpt>
      <trkpt lat="0" lon="0">
        <time>2020-12-20T10:19:45.914000+00:00</time>
      </trkpt>
      <trkpt lat="0" lon="0">
        <time>2020-12-20T10:19:45.916000+00:00</time>
      </trkpt>
      <trkpt lat="47.33145" lon="-1.34353">
        <ele>124</ele>
        <time>2020-12-20T10:19:46.890000+00:00</time>
      </trkpt>
      <trkpt lat="0" lon="0">
        <time>2020-12-20T10:19:46.899000+00:00</time>
      </trkpt>
      <trkpt lat="0" lon="0">
        <time>2020-12-20T10:19:46.911000+00:00</time>
      </trkpt>
      <trkpt lat="0" lon="0">
        <time>2020-12-20T10:19:46.918000+00:00</time>
      </trkpt>
      <trkpt lat="47.33142" lon="-1.34358">
        <ele>124</ele>
        <time>2020-12-20T10:19:47.903000+00:00</time>
      </trkpt>
      <trkpt lat="0" lon="0">
        <time>2020-12-20T10:19:47.917000+00:00</time>
      </trkpt>
      <trkpt lat="0" lon="0">
        <time>2020-12-20T10:19:47.922000+00:00</time>
      </trkpt>
      <trkpt lat="0" lon="0">
        <time>2020-12-20T10:19:47.925000+00:00</time>
      </trkpt>
      <trkpt lat="47.33139" lon="-1.34362">
        <ele>125</ele>
        <time>2020-12-20T10:19:48.877000+00:00</time>
      </trkpt>
      <trkpt lat="0" lon="0">
        <time>2020-12-20T10:19:48.884000+00:00</time>
      </trkpt>
      <trkpt lat="0" lon="0">
        <time>2020-12-20T10:19:48.889000+00:00</time>
      </trkpt>
      <trkpt lat="0" lon="0">
        <time>2020-12-20T10:19:48.892000+00:00</time>
      </trkpt>
      <trkpt lat="47.33136" lon="-1.34367">
        <ele>125</ele>
        <time>2020-12-20T10:19:49.883000+00:00</time>
      </trkpt>
      <trkpt lat="0" lon="0">
        <time>2020-12-20T10:19:49.887000+00:00</time>
      </trkpt>
      <trkpt lat="0" lon="0">
        <time>2020-12-20T10:19:49.895000+00:00</time>
      </trkpt>
      <trkpt lat="0" lon="0">
        <time>2020-12-20T10:19:49.904000+00:00</time>
      </trkpt>
      <trkpt lat="47.33133" lon="-1.34372">
        <ele>125</ele>
        <time>2020-12-20T10:19:50.863000+00:00</time>
      </trkpt>
      <trkpt lat="0" lon="0">
        <time>2020-12-20T10:19:50.877000+00:00</time>
      </trkpt>
      <trkpt lat="0" lon="0">
        <time>2020-12-20T10:19:50.884000+00:00</time>
      </trkpt>
      <trkpt lat="0" lon="0">
        <time>2020-12-20T10:19:50.886000+00:00</time>
      </trkpt>
      <trkpt lat="47.3313" lon="-1.34377">
        <ele>125</ele>
        <time>2020-12-20T10:19:51.850000+00:00</time>
      </trkpt>
      <trkpt lat="0" lon="0">
        <time>2020-12-20T10:19:51.860000+00:00</time>
      </trkpt>
      <trkpt lat="0" lon="0">
        <time>2020-12-20T10:19:51.868000+00:00</time>
      </trkpt>
      <trkpt lat="0" lon="0">
        <time>2020-12-20T10:19:51.870000+00:00</time>
      </trkpt>
      <trkpt lat="47.33127" lon="-1.34383">
        <ele>124</ele>
        <time>2020-12-20T10:19:52.951000+00:00</time>
      </trkpt>
      <trkpt lat="0" lon="0">
        <time>2020-12-20T10:19:52.959000+00:00</time>
      </trkpt>
      <trkpt lat="0" lon="0">
        <time>2020-12-20T10:19:52.966000+00:00</time>
      </trkpt>
      <trkpt lat="0" lon="0">
        <time>2020-12-20T10:19:52.969000+00:00</time>
      </trkpt>
      <trkpt lat="47.33124" lon="-1.34389">
        <ele>124</ele>
        <time>2020-12-20T10:19:53.890000+00:00</time>
      </trkpt>
      <trkpt lat="0" lon="0">
        <time>2020-12-20T10:19:53.895000+00:00</time>
      </trkpt>
      <trkpt lat="0" lon="0">
        <time>2020-12-20T10:19:53.903000+00:00</time>
      </trkpt>
      <trkpt lat="0" lon="0">
        <time>2020-12-20T10:19:53.906000+00:00</time>
      </trkpt>
      <trkpt lat="47.33121" lon="-1.34395">
        <ele>123</ele>
        <time>2020-12-20T10:19:54.889000+00:00</time>
      </trkpt>
      <trkpt lat="0" lon="0">
        <time>2020-12-20T10:19:54.904000+00:00</time>
      </trkpt>
      <trkpt lat="0" lon="0">
        <time>2020-12-20T10:19:54.914000+00:00</time>
      </trkpt>
      <trkpt lat="0" lon="0">
        <time>2020-12-20T10:19:54.924000+00:00</time>
      </trkpt>
      <trkpt lat="47.33117" lon="-1.34401">
        <ele>123</ele>
        <time>2020-12-20T10:19:55.896000+00:00</time>
      </trkpt>
      <trkpt lat="0" lon="0">
        <time>2020-12-20T10:19:55.906000+00:00</time>
      </trkpt>
      <trkpt lat="0" lon="0">
        <time>2020-12-20T10:19:55.912000+00:00</time>
      </trkpt>
      <trkpt lat="0" lon="0">
        <time>2020-12-20T10:19:55.915000+00:00</time>
      </trkpt>
      <trkpt lat="47.33113" lon="-1.34407">
        <ele>123</ele>
        <time>2020-12-20T10:19:56.785000+00:00</time>
      </trkpt>
      <trkpt lat="0" lon="0">
        <time>2020-12-20T10:19:56.805000+00:00</time>
      </trkpt>
      <trkpt lat="0" lon="0">
        <time>2020-12-20T10:19:56.807000+00:00</time>
      </trkpt>
      <trkpt lat="0" lon="0">
        <time>2020-12-20T10:19:56.808000+00:00</time>
      </trkpt>
      <trkpt lat="47.3311" lon="-1.34413">
        <ele>123</ele>
        <time>2020-12-20T10:19:57.803000+00:00</time>
      </trkpt>
      <trkpt lat="0" lon="0">
        <time>2020-12-20T10:19:57.821000+00:00</time>
      </trkpt>
      <trkpt lat="0" lon="0">
        <time>2020-12-20T10:19:57.825000+00:00</time>
      </trkpt>
      <trkpt lat="0" lon="0">
        <time>2020-12-20T10:19:57.830000+00:00</time>
      </trkpt>
      <trkpt lat="47.33106" lon="-1.34419">
        <ele>123</ele>
        <time>2020-12-20T10:19:58.865000+00:00</time>
      </trkpt>
      <trkpt lat="0" lon="0">
        <time>2020-12-20T10:19:58.873000+00:00</time>
      </trkpt>
      <trkpt lat="0" lon="0">
        <time>2020-12-20T10:19:58.887000+00:00</time>
      </trkpt>
      <trkpt lat="0" lon="0">
        <time>2020-12-20T10:19:58.890000+00:00</time>
      </trkpt>
      <trkpt lat="47.33103" lon="-1.34425">
        <ele>123</ele>
        <time>2020-12-20T10:19:59.840000+00:00</time>
      </trkpt>
      <trkpt lat="0" lon="0">
        <time>2020-12-20T10:19:59.868000+00:00</time>
      </trkpt>
      <trkpt lat="0" lon="0">
        <time>2020-12-20T10:19:59.874000+00:00</time>
      </trkpt>
      <trkpt lat="0" lon="0">
        <time>2020-12-20T10:19:59.875000+00:00</time>
      </trkpt>
      <trkpt lat="47.33099" lon="-1.34431">
        <ele>123</ele>
        <time>2020-12-20T10:20:00.887000+00:00</time>
      </trkpt>
      <trkpt lat="0" lon="0">
        <time>2020-12-20T10:20:00.892000+00:00</time>
      </trkpt>
      <trkpt lat="0" lon="0">
        <time>2020-12-20T10:20:00.896000+00:00</time>
      </trkpt>
      <trkpt lat="0" lon="0">
        <time>2020-12-20T10:20:00.899000+00:00</time>
      </trkpt>
      <trkpt lat="47.33096" lon="-1.34436">
        <ele>122</ele>
        <time>2020-12-20T10:20:01.844000+00:00</time>
      </trkpt>
      <trkpt lat="0" lon="0">
        <time>2020-12-20T10:20:01.852000+00:00</time>
      </trkpt>
      <trkpt lat="0" lon="0">
        <time>2020-12-20T10:20:01.857000+00:00</time>
      </trkpt>
      <trkpt lat="0" lon="0">
        <time>2020-12-20T10:20:01.860000+00:00</time>
      </trkpt>
      <trkpt lat="47.33093" lon="-1.34442">
        <ele>122</ele>
        <time>2020-12-20T10:20:02.875000+00:00</time>
      </trkpt>
      <trkpt lat="0" lon="0">
        <time>2020-12-20T10:20:02.893000+00:00</time>
      </trkpt>
      <trkpt lat="0" lon="0">
        <time>2020-12-20T10:20:02.897000+00:00</time>
      </trkpt>
      <trkpt lat="0" lon="0">
        <time>2020-12-20T10:20:02.899000+00:00</time>
      </trkpt>
      <trkpt lat="47.33089" lon="-1.34447">
        <ele>122</ele>
        <time>2020-12-20T10:20:03.886000+00:00</time>
      </trkpt>
      <trkpt lat="0" lon="0">
        <time>2020-12-20T10:20:03.899000+00:00</time>
      </trkpt>
      <trkpt lat="0" lon="0">
        <time>2020-12-20T10:20:03.907000+00:00</time>
      </trkpt>
      <trkpt lat="0" lon="0">
        <time>2020-12-20T10:20:03.909000+00:00</time>
      </trkpt>
      <trkpt lat="47.33086" lon="-1.34452">
        <ele>122</ele>
        <time>2020-12-20T10:20:04.847000+00:00</time>
      </trkpt>
      <trkpt lat="0" lon="0">
        <time>2020-12-20T10:20:04.870000+00:00</time>
      </trkpt>
      <trkpt lat="0" lon="0">
        <time>2020-12-20T10:20:04.875000+00:00</time>
      </trkpt>
      <trkpt lat="0" lon="0">
        <time>2020-12-20T10:20:04.877000+00:00</time>
      </trkpt>
      <trkpt lat="47.33083" lon="-1.34456">
        <ele>122</ele>
        <time>2020-12-20T10:20:05.847000+00:00</time>
      </trkpt>
      <trkpt lat="0" lon="0">
        <time>2020-12-20T10:20:05.857000+00:00</time>
      </trkpt>
      <trkpt lat="0" lon="0">
        <time>2020-12-20T10:20:05.863000+00:00</time>
      </trkpt>
      <trkpt lat="0" lon="0">
        <time>2020-12-20T10:20:05.866000+00:00</time>
      </trkpt>
      <trkpt lat="47.3308" lon="-1.34461">
        <ele>122</ele>
        <time>2020-12-20T10:20:06.894000+00:00</time>
      </trkpt>
      <trkpt lat="0" lon="0">
        <time>2020-12-20T10:20:06.913000+00:00</time>
      </trkpt>
      <trkpt lat="0" lon="0">
        <time>2020-12-20T10:20:06.921000+00:00</time>
      </trkpt>
      <trkpt lat="0" lon="0">
        <time>2020-12-20T10:20:06.924000+00:00</time>
      </trkpt>
      <trkpt lat="47.33077" lon="-1.34465">
        <ele>122</ele>
        <time>2020-12-20T10:20:07.846000+00:00</time>
      </trkpt>
      <trkpt lat="0" lon="0">
        <time>2020-12-20T10:20:07.856000+00:00</time>
      </trkpt>
      <trkpt lat="0" lon="0">
        <time>2020-12-20T10:20:07.860000+00:00</time>
      </trkpt>
      <trkpt lat="0" lon="0">
        <time>2020-12-20T10:20:07.863000+00:00</time>
      </trkpt>
      <trkpt lat="47.33074" lon="-1.3447">
        <ele>122</ele>
        <time>2020-12-20T10:20:08.871000+00:00</time>
      </trkpt>
      <trkpt lat="0" lon="0">
        <time>2020-12-20T10:20:08.882000+00:00</time>
      </trkpt>
      <trkpt lat="0" lon="0">
        <time>2020-12-20T10:20:08.890000+00:00</time>
      </trkpt>
      <trkpt lat="0" lon="0">
        <time>2020-12-20T10:20:08.893000+00:00</time>
      </trkpt>
      <trkpt lat="47.33072" lon="-1.34474">
        <ele>122</ele>
        <time>2020-12-20T10:20:09.886000+00:00</time>
      </trkpt>
      <trkpt lat="0" lon="0">
        <time>2020-12-20T10:20:09.900000+00:00</time>
      </trkpt>
      <trkpt lat="0" lon="0">
        <time>2020-12-20T10:20:09.904000+00:00</time>
      </trkpt>
      <trkpt lat="0" lon="0">
        <time>2020-12-20T10:20:09.912000+00:00</time>
      </trkpt>
      <trkpt lat="47.33069" lon="-1.34477">
        <ele>122</ele>
        <time>2020-12-20T10:20:10.883000+00:00</time>
      </trkpt>
      <trkpt lat="0" lon="0">
        <time>2020-12-20T10:20:10.895000+00:00</time>
      </trkpt>
      <trkpt lat="0" lon="0">
        <time>2020-12-20T10:20:10.899000+00:00</time>
      </trkpt>
      <trkpt lat="0" lon="0">
        <time>2020-12-20T10:20:10.901000+00:00</time>
      </trkpt>
      <trkpt lat="47.33067" lon="-1.34481">
        <ele>122</ele>
        <time>2020-12-20T10:20:11.886000+00:00</time>
      </trkpt>
      <trkpt lat="0" lon="0">
        <time>2020-12-20T10:20:11.900000+00:00</time>
      </trkpt>
      <trkpt lat="0" lon="0">
        <time>2020-12-20T10:20:11.909000+00:00</time>
      </trkpt>
      <trkpt lat="0" lon="0">
        <time>2020-12-20T10:20:11.911000+00:00</time>
      </trkpt>
      <trkpt lat="47.33064" lon="-1.34485">
        <ele>122</ele>
        <time>2020-12-20T10:20:12.900000+00:00</time>
      </trkpt>
      <trkpt lat="0" lon="0">
        <time>2020-12-20T10:20:12.906000+00:00</time>
      </trkpt>
      <trkpt lat="0" lon="0">
        <time>2020-12-20T10:20:12.910000+00:00</time>
      </trkpt>
      <trkpt lat="0" lon="0">
        <time>2020-12-20T10:20:12.911000+00:00</time>
      </trkpt>
      <trkpt lat="47.33062" lon="-1.34488">
        <ele>122</ele>
        <time>2020-12-20T10:20:13.885000+00:00</time>
      </trkpt>
      <trkpt lat="0" lon="0">
        <time>2020-12-20T10:20:13.893000+00:00</time>
      </trkpt>
      <trkpt lat="0" lon="0">
        <time>2020-12-20T10:20:13.900000+00:00</time>
      </trkpt>
      <trkpt lat="0" lon="0">
        <time>2020-12-20T10:20:13.910000+00:00</time>
      </trkpt>
      <trkpt lat="47.3306" lon="-1.34492">
        <ele>122</ele>
        <time>2020-12-20T10:20:14.850000+00:00</time>
      </trkpt>
      <trkpt lat="0" lon="0">
        <time>2020-12-20T10:20:14.865000+00:00</time>
      </trkpt>
      <trkpt lat="0" lon="0">
        <time>2020-12-20T10:20:14.873000+00:00</time>
      </trkpt>
      <trkpt lat="0" lon="0">
        <time>2020-12-20T10:20:14.875000+00:00</time>
      </trkpt>
      <trkpt lat="47.33058" lon="-1.34495">
        <ele>122</ele>
        <time>2020-12-20T10:20:15.879000+00:00</time>
      </trkpt>
      <trkpt lat="0" lon="0">
        <time>2020-12-20T10:20:15.888000+00:00</time>
      </trkpt>
      <trkpt lat="0" lon="0">
        <time>2020-12-20T10:20:15.902000+00:00</time>
      </trkpt>
      <trkpt lat="0" lon="0">
        <time>2020-12-20T10:20:15.905000+00:00</time>
      </trkpt>
      <trkpt lat="47.33055" lon="-1.34498">
        <ele>123</ele>
        <time>2020-12-20T10:20:16.898000+00:00</time>
      </trkpt>
      <trkpt lat="0" lon="0">
        <time>2020-12-20T10:20:16.908000+00:00</time>
      </trkpt>
      <trkpt lat="0" lon="0">
        <time>2020-12-20T10:20:16.914000+00:00</time>
      </trkpt>
      <trkpt lat="0" lon="0">
        <time>2020-12-20T10:20:16.917000+00:00</time>
      </trkpt>
      <trkpt lat="47.33053" lon="-1.34501">
        <ele>123</ele>
        <time>2020-12-20T10:20:17.838000+00:00</time>
      </trkpt>
      <trkpt lat="0" lon="0">
        <time>2020-12-20T10:20:17.845000+00:00</time>
      </trkpt>
      <trkpt lat="0" lon="0">
        <time>2020-12-20T10:20:17.854000+00:00</time>
      </trkpt>
      <trkpt lat="0" lon="0">
        <time>2020-12-20T10:20:17.857000+00:00</time>
      </trkpt>
      <trkpt lat="47.33051" lon="-1.34504">
        <ele>123</ele>
        <time>2020-12-20T10:20:18.892000+00:00</time>
      </trkpt>
      <trkpt lat="0" lon="0">
        <time>2020-12-20T10:20:18.899000+00:00</time>
      </trkpt>
      <trkpt lat="0" lon="0">
        <time>2020-12-20T10:20:18.904000+00:00</time>
      </trkpt>
      <trkpt lat="0" lon="0">
        <time>2020-12-20T10:20:18.905000+00:00</time>
      </trkpt>
      <trkpt lat="47.33049" lon="-1.34507">
        <ele>123</ele>
        <time>2020-12-20T10:20:19.863000+00:00</time>
      </trkpt>
      <trkpt lat="0" lon="0">
        <time>2020-12-20T10:20:19.879000+00:00</time>
      </trkpt>
      <trkpt lat="0" lon="0">
        <time>2020-12-20T10:20:19.884000+00:00</time>
      </trkpt>
      <trkpt lat="0" lon="0">
        <time>2020-12-20T10:20:19.886000+00:00</time>
      </trkpt>
      <trkpt lat="47.33046" lon="-1.3451">
        <ele>122</ele>
        <time>2020-12-20T10:20:20.881000+00:00</time>
      </trkpt>
      <trkpt lat="0" lon="0">
        <time>2020-12-20T10:20:20.902000+00:00</time>
      </trkpt>
      <trkpt lat="0" lon="0">
        <time>2020-12-20T10:20:20.907000+00:00</time>
      </trkpt>
      <trkpt lat="0" lon="0">
        <time>2020-12-20T10:20:20.911000+00:00</time>
      </trkpt>
      <trkpt lat="47.33044" lon="-1.34513">
        <ele>123</ele>
        <time>2020-12-20T10:20:21.878000+00:00</time>
      </trkpt>
      <trkpt lat="0" lon="0">
        <time>2020-12-20T10:20:21.893000+00:00</time>
      </trkpt>
      <trkpt lat="0" lon="0">
        <time>2020-12-20T10:20:21.903000+00:00</time>
      </trkpt>
      <trkpt lat="0" lon="0">
        <time>2020-12-20T10:20:21.908000+00:00</time>
      </trkpt>
      <trkpt lat="47.33042" lon="-1.34516">
        <ele>123</ele>
        <time>2020-12-20T10:20:22.875000+00:00</time>
      </trkpt>
      <trkpt lat="0" lon="0">
        <time>2020-12-20T10:20:22.894000+00:00</time>
      </trkpt>
      <trkpt lat="0" lon="0">
        <time>2020-12-20T10:20:22.899000+00:00</time>
      </trkpt>
      <trkpt lat="0" lon="0">
        <time>2020-12-20T10:20:22.902000+00:00</time>
      </trkpt>
      <trkpt lat="47.3304" lon="-1.34519">
        <ele>123</ele>
        <time>2020-12-20T10:20:23.852000+00:00</time>
      </trkpt>
      <trkpt lat="0" lon="0">
        <time>2020-12-20T10:20:23.865000+00:00</time>
      </trkpt>
      <trkpt lat="0" lon="0">
        <time>2020-12-20T10:20:23.873000+00:00</time>
      </trkpt>
      <trkpt lat="0" lon="0">
        <time>2020-12-20T10:20:23.877000+00:00</time>
      </trkpt>
      <trkpt lat="47.33039" lon="-1.34522">
        <ele>123</ele>
        <time>2020-12-20T10:20:24.900000+00:00</time>
      </trkpt>
      <trkpt lat="0" lon="0">
        <time>2020-12-20T10:20:24.905000+00:00</time>
      </trkpt>
      <trkpt lat="0" lon="0">
        <time>2020-12-20T10:20:24.907000+00:00</time>
      </trkpt>
      <trkpt lat="0" lon="0">
        <time>2020-12-20T10:20:24.909000+00:00</time>
      </trkpt>
      <trkpt lat="47.33037" lon="-1.34525">
        <ele>123</ele>
        <time>2020-12-20T10:20:25.862000+00:00</time>
      </trkpt>
      <trkpt lat="0" lon="0">
        <time>2020-12-20T10:20:25.873000+00:00</time>
      </trkpt>
      <trkpt lat="0" lon="0">
        <time>2020-12-20T10:20:25.878000+00:00</time>
      </trkpt>
      <trkpt lat="0" lon="0">
        <time>2020-12-20T10:20:25.880000+00:00</time>
      </trkpt>
      <trkpt lat="47.33036" lon="-1.34528">
        <ele>123</ele>
        <time>2020-12-20T10:20:26.877000+00:00</time>
      </trkpt>
      <trkpt lat="0" lon="0">
        <time>2020-12-20T10:20:26.891000+00:00</time>
      </trkpt>
      <trkpt lat="0" lon="0">
        <time>2020-12-20T10:20:26.895000+00:00</time>
      </trkpt>
      <trkpt lat="0" lon="0">
        <time>2020-12-20T10:20:26.899000+00:00</time>
      </trkpt>
      <trkpt lat="47.33034" lon="-1.34531">
        <ele>123</ele>
        <time>2020-12-20T10:20:27.857000+00:00</time>
      </trkpt>
      <trkpt lat="0" lon="0">
        <time>2020-12-20T10:20:27.867000+00:00</time>
      </trkpt>
      <trkpt lat="0" lon="0">
        <time>2020-12-20T10:20:27.878000+00:00</time>
      </trkpt>
      <trkpt lat="0" lon="0">
        <time>2020-12-20T10:20:27.881000+00:00</time>
      </trkpt>
      <trkpt lat="47.33033" lon="-1.34534">
        <ele>123</ele>
        <time>2020-12-20T10:20:28.879000+00:00</time>
      </trkpt>
      <trkpt lat="0" lon="0">
        <time>2020-12-20T10:20:28.898000+00:00</time>
      </trkpt>
      <trkpt lat="0" lon="0">
        <time>2020-12-20T10:20:28.906000+00:00</time>
      </trkpt>
      <trkpt lat="0" lon="0">
        <time>2020-12-20T10:20:28.910000+00:00</time>
      </trkpt>
      <trkpt lat="47.33031" lon="-1.34537">
        <ele>123</ele>
        <time>2020-12-20T10:20:29.846000+00:00</time>
      </trkpt>
      <trkpt lat="0" lon="0">
        <time>2020-12-20T10:20:29.861000+00:00</time>
      </trkpt>
      <trkpt lat="0" lon="0">
        <time>2020-12-20T10:20:29.867000+00:00</time>
      </trkpt>
      <trkpt lat="0" lon="0">
        <time>2020-12-20T10:20:29.871000+00:00</time>
      </trkpt>
      <trkpt lat="47.3303" lon="-1.3454">
        <ele>124</ele>
        <time>2020-12-20T10:20:30.872000+00:00</time>
      </trkpt>
      <trkpt lat="0" lon="0">
        <time>2020-12-20T10:20:30.883000+00:00</time>
      </trkpt>
      <trkpt lat="0" lon="0">
        <time>2020-12-20T10:20:30.885000+00:00</time>
      </trkpt>
      <trkpt lat="0" lon="0">
        <time>2020-12-20T10:20:30.886000+00:00</time>
      </trkpt>
      <trkpt lat="47.33029" lon="-1.34543">
        <ele>124</ele>
        <time>2020-12-20T10:20:31.855000+00:00</time>
      </trkpt>
      <trkpt lat="0" lon="0">
        <time>2020-12-20T10:20:31.868000+00:00</time>
      </trkpt>
      <trkpt lat="0" lon="0">
        <time>2020-12-20T10:20:31.870000+00:00</time>
      </trkpt>
      <trkpt lat="0" lon="0">
        <time>2020-12-20T10:20:31.871000+00:00</time>
      </trkpt>
      <trkpt lat="47.33028" lon="-1.34546">
        <ele>125</ele>
        <time>2020-12-20T10:20:32.879000+00:00</time>
      </trkpt>
      <trkpt lat="0" lon="0">
        <time>2020-12-20T10:20:32.884000+00:00</time>
      </trkpt>
      <trkpt lat="0" lon="0">
        <time>2020-12-20T10:20:32.889000+00:00</time>
      </trkpt>
      <trkpt lat="0" lon="0">
        <time>2020-12-20T10:20:32.891000+00:00</time>
      </trkpt>
      <trkpt lat="47.33026" lon="-1.34548">
        <ele>125</ele>
        <time>2020-12-20T10:20:33.860000+00:00</time>
      </trkpt>
      <trkpt lat="0" lon="0">
        <time>2020-12-20T10:20:33.878000+00:00</time>
      </trkpt>
      <trkpt lat="0" lon="0">
        <time>2020-12-20T10:20:33.881000+00:00</time>
      </trkpt>
      <trkpt lat="0" lon="0">
        <time>2020-12-20T10:20:33.884000+00:00</time>
      </trkpt>
      <trkpt lat="47.33025" lon="-1.34551">
        <ele>125</ele>
        <time>2020-12-20T10:20:34.787000+00:00</time>
      </trkpt>
      <trkpt lat="0" lon="0">
        <time>2020-12-20T10:20:34.803000+00:00</time>
      </trkpt>
      <trkpt lat="0" lon="0">
        <time>2020-12-20T10:20:34.811000+00:00</time>
      </trkpt>
      <trkpt lat="0" lon="0">
        <time>2020-12-20T10:20:34.814000+00:00</time>
      </trkpt>
      <trkpt lat="47.33024" lon="-1.34553">
        <ele>126</ele>
        <time>2020-12-20T10:20:35.877000+00:00</time>
      </trkpt>
      <trkpt lat="0" lon="0">
        <time>2020-12-20T10:20:35.884000+00:00</time>
      </trkpt>
      <trkpt lat="0" lon="0">
        <time>2020-12-20T10:20:35.893000+00:00</time>
      </trkpt>
      <trkpt lat="0" lon="0">
        <time>2020-12-20T10:20:35.898000+00:00</time>
      </trkpt>
      <trkpt lat="47.33022" lon="-1.34556">
        <ele>126</ele>
        <time>2020-12-20T10:20:36.905000+00:00</time>
      </trkpt>
      <trkpt lat="0" lon="0">
        <time>2020-12-20T10:20:36.907000+00:00</time>
      </trkpt>
      <trkpt lat="0" lon="0">
        <time>2020-12-20T10:20:36.910000+00:00</time>
      </trkpt>
      <trkpt lat="0" lon="0">
        <time>2020-12-20T10:20:36.912000+00:00</time>
      </trkpt>
      <trkpt lat="47.33021" lon="-1.34559">
        <ele>126</ele>
        <time>2020-12-20T10:20:37.868000+00:00</time>
      </trkpt>
      <trkpt lat="0" lon="0">
        <time>2020-12-20T10:20:37.885000+00:00</time>
      </trkpt>
      <trkpt lat="0" lon="0">
        <time>2020-12-20T10:20:37.890000+00:00</time>
      </trkpt>
      <trkpt lat="0" lon="0">
        <time>2020-12-20T10:20:37.894000+00:00</time>
      </trkpt>
      <trkpt lat="47.3302" lon="-1.34561">
        <ele>126</ele>
        <time>2020-12-20T10:20:38.858000+00:00</time>
      </trkpt>
      <trkpt lat="0" lon="0">
        <time>2020-12-20T10:20:38.865000+00:00</time>
      </trkpt>
      <trkpt lat="0" lon="0">
        <time>2020-12-20T10:20:38.870000+00:00</time>
      </trkpt>
      <trkpt lat="0" lon="0">
        <time>2020-12-20T10:20:38.874000+00:00</time>
      </trkpt>
      <trkpt lat="47.33019" lon="-1.34564">
        <ele>127</ele>
        <time>2020-12-20T10:20:39.841000+00:00</time>
      </trkpt>
      <trkpt lat="0" lon="0">
        <time>2020-12-20T10:20:39.848000+00:00</time>
      </trkpt>
      <trkpt lat="0" lon="0">
        <time>2020-12-20T10:20:39.850000+00:00</time>
      </trkpt>
      <trkpt lat="0" lon="0">
        <time>2020-12-20T10:20:39.851000+00:00</time>
      </trkpt>
      <trkpt lat="47.33017" lon="-1.34567">
        <ele>127</ele>
        <time>2020-12-20T10:20:40.923000+00:00</time>
      </trkpt>
      <trkpt lat="0" lon="0">
        <time>2020-12-20T10:20:40.930000+00:00</time>
      </trkpt>
      <trkpt lat="0" lon="0">
        <time>2020-12-20T10:20:40.936000+00:00</time>
      </trkpt>
      <trkpt lat="0" lon="0">
        <time>2020-12-20T10:20:40.942000+00:00</time>
      </trkpt>
      <trkpt lat="47.33016" lon="-1.3457">
        <ele>127</ele>
        <time>2020-12-20T10:20:41.871000+00:00</time>
      </trkpt>
      <trkpt lat="0" lon="0">
        <time>2020-12-20T10:20:41.882000+00:00</time>
      </trkpt>
      <trkpt lat="0" lon="0">
        <time>2020-12-20T10:20:41.890000+00:00</time>
      </trkpt>
      <trkpt lat="0" lon="0">
        <time>2020-12-20T10:20:41.897000+00:00</time>
      </trkpt>
      <trkpt lat="47.33015" lon="-1.34573">
        <ele>127</ele>
        <time>2020-12-20T10:20:42.906000+00:00</time>
      </trkpt>
      <trkpt lat="0" lon="0">
        <time>2020-12-20T10:20:42.908000+00:00</time>
      </trkpt>
      <trkpt lat="0" lon="0">
        <time>2020-12-20T10:20:42.910000+00:00</time>
      </trkpt>
      <trkpt lat="0" lon="0">
        <time>2020-12-20T10:20:42.912000+00:00</time>
      </trkpt>
      <trkpt lat="47.33013" lon="-1.34576">
        <ele>127</ele>
        <time>2020-12-20T10:20:43.861000+00:00</time>
      </trkpt>
      <trkpt lat="0" lon="0">
        <time>2020-12-20T10:20:43.870000+00:00</time>
      </trkpt>
      <trkpt lat="0" lon="0">
        <time>2020-12-20T10:20:43.875000+00:00</time>
      </trkpt>
      <trkpt lat="0" lon="0">
        <time>2020-12-20T10:20:43.877000+00:00</time>
      </trkpt>
      <trkpt lat="47.33012" lon="-1.34579">
        <ele>127</ele>
        <time>2020-12-20T10:20:44.886000+00:00</time>
      </trkpt>
      <trkpt lat="0" lon="0">
        <time>2020-12-20T10:20:44.906000+00:00</time>
      </trkpt>
      <trkpt lat="0" lon="0">
        <time>2020-12-20T10:20:44.917000+00:00</time>
      </trkpt>
      <trkpt lat="0" lon="0">
        <time>2020-12-20T10:20:44.920000+00:00</time>
      </trkpt>
      <trkpt lat="47.3301" lon="-1.34582">
        <ele>127</ele>
        <time>2020-12-20T10:20:45.900000+00:00</time>
      </trkpt>
      <trkpt lat="0" lon="0">
        <time>2020-12-20T10:20:45.909000+00:00</time>
      </trkpt>
      <trkpt lat="0" lon="0">
        <time>2020-12-20T10:20:45.915000+00:00</time>
      </trkpt>
      <trkpt lat="0" lon="0">
        <time>2020-12-20T10:20:45.917000+00:00</time>
      </trkpt>
      <trkpt lat="47.33008" lon="-1.34585">
        <ele>127</ele>
        <time>2020-12-20T10:20:46.900000+00:00</time>
      </trkpt>
      <trkpt lat="0" lon="0">
        <time>2020-12-20T10:20:46.921000+00:00</time>
      </trkpt>
      <trkpt lat="0" lon="0">
        <time>2020-12-20T10:20:46.926000+00:00</time>
      </trkpt>
      <trkpt lat="0" lon="0">
        <time>2020-12-20T10:20:46.929000+00:00</time>
      </trkpt>
      <trkpt lat="47.33007" lon="-1.34588">
        <ele>127</ele>
        <time>2020-12-20T10:20:47.870000+00:00</time>
      </trkpt>
      <trkpt lat="0" lon="0">
        <time>2020-12-20T10:20:47.877000+00:00</time>
      </trkpt>
      <trkpt lat="0" lon="0">
        <time>2020-12-20T10:20:47.882000+00:00</time>
      </trkpt>
      <trkpt lat="0" lon="0">
        <time>2020-12-20T10:20:47.886000+00:00</time>
      </trkpt>
      <trkpt lat="47.33006" lon="-1.34591">
        <ele>127</ele>
        <time>2020-12-20T10:20:48.872000+00:00</time>
      </trkpt>
      <trkpt lat="0" lon="0">
        <time>2020-12-20T10:20:48.882000+00:00</time>
      </trkpt>
      <trkpt lat="0" lon="0">
        <time>2020-12-20T10:20:48.884000+00:00</time>
      </trkpt>
      <trkpt lat="0" lon="0">
        <time>2020-12-20T10:20:48.889000+00:00</time>
      </trkpt>
      <trkpt lat="47.33004" lon="-1.34594">
        <ele>127</ele>
        <time>2020-12-20T10:20:49.897000+00:00</time>
      </trkpt>
      <trkpt lat="0" lon="0">
        <time>2020-12-20T10:20:49.910000+00:00</time>
      </trkpt>
      <trkpt lat="0" lon="0">
        <time>2020-12-20T10:20:49.914000+00:00</time>
      </trkpt>
      <trkpt lat="0" lon="0">
        <time>2020-12-20T10:20:49.916000+00:00</time>
      </trkpt>
      <trkpt lat="47.33003" lon="-1.34597">
        <ele>127</ele>
        <time>2020-12-20T10:20:50.886000+00:00</time>
      </trkpt>
      <trkpt lat="0" lon="0">
        <time>2020-12-20T10:20:50.897000+00:00</time>
      </trkpt>
      <trkpt lat="0" lon="0">
        <time>2020-12-20T10:20:50.903000+00:00</time>
      </trkpt>
      <trkpt lat="0" lon="0">
        <time>2020-12-20T10:20:50.905000+00:00</time>
      </trkpt>
      <trkpt lat="47.33001" lon="-1.34601">
        <ele>127</ele>
        <time>2020-12-20T10:20:51.907000+00:00</time>
      </trkpt>
      <trkpt lat="0" lon="0">
        <time>2020-12-20T10:20:51.915000+00:00</time>
      </trkpt>
      <trkpt lat="0" lon="0">
        <time>2020-12-20T10:20:51.920000+00:00</time>
      </trkpt>
      <trkpt lat="0" lon="0">
        <time>2020-12-20T10:20:51.923000+00:00</time>
      </trkpt>
      <trkpt lat="47.33" lon="-1.34604">
        <ele>127</ele>
        <time>2020-12-20T10:20:52.892000+00:00</time>
      </trkpt>
      <trkpt lat="0" lon="0">
        <time>2020-12-20T10:20:52.904000+00:00</time>
      </trkpt>
      <trkpt lat="0" lon="0">
        <time>2020-12-20T10:20:52.911000+00:00</time>
      </trkpt>
      <trkpt lat="0" lon="0">
        <time>2020-12-20T10:20:52.914000+00:00</time>
      </trkpt>
      <trkpt lat="47.32998" lon="-1.34607">
        <ele>127</ele>
        <time>2020-12-20T10:20:53.862000+00:00</time>
      </trkpt>
      <trkpt lat="0" lon="0">
        <time>2020-12-20T10:20:53.882000+00:00</time>
      </trkpt>
      <trkpt lat="0" lon="0">
        <time>2020-12-20T10:20:53.891000+00:00</time>
      </trkpt>
      <trkpt lat="0" lon="0">
        <time>2020-12-20T10:20:53.894000+00:00</time>
      </trkpt>
      <trkpt lat="47.32997" lon="-1.34611">
        <ele>127</ele>
        <time>2020-12-20T10:20:54.888000+00:00</time>
      </trkpt>
      <trkpt lat="0" lon="0">
        <time>2020-12-20T10:20:54.897000+00:00</time>
      </trkpt>
      <trkpt lat="0" lon="0">
        <time>2020-12-20T10:20:54.900000+00:00</time>
      </trkpt>
      <trkpt lat="0" lon="0">
        <time>2020-12-20T10:20:54.901000+00:00</time>
      </trkpt>
      <trkpt lat="47.32996" lon="-1.34614">
        <ele>128</ele>
        <time>2020-12-20T10:20:55.859000+00:00</time>
      </trkpt>
      <trkpt lat="0" lon="0">
        <time>2020-12-20T10:20:55.869000+00:00</time>
      </trkpt>
      <trkpt lat="0" lon="0">
        <time>2020-12-20T10:20:55.874000+00:00</time>
      </trkpt>
      <trkpt lat="0" lon="0">
        <time>2020-12-20T10:20:55.876000+00:00</time>
      </trkpt>
      <trkpt lat="47.32994" lon="-1.34617">
        <ele>128</ele>
        <time>2020-12-20T10:20:56.854000+00:00</time>
      </trkpt>
      <trkpt lat="0" lon="0">
        <time>2020-12-20T10:20:56.863000+00:00</time>
      </trkpt>
      <trkpt lat="0" lon="0">
        <time>2020-12-20T10:20:56.867000+00:00</time>
      </trkpt>
      <trkpt lat="0" lon="0">
        <time>2020-12-20T10:20:56.870000+00:00</time>
      </trkpt>
      <trkpt lat="47.32993" lon="-1.3462">
        <ele>128</ele>
        <time>2020-12-20T10:20:57.867000+00:00</time>
      </trkpt>
      <trkpt lat="0" lon="0">
        <time>2020-12-20T10:20:57.875000+00:00</time>
      </trkpt>
      <trkpt lat="0" lon="0">
        <time>2020-12-20T10:20:57.880000+00:00</time>
      </trkpt>
      <trkpt lat="0" lon="0">
        <time>2020-12-20T10:20:57.882000+00:00</time>
      </trkpt>
      <trkpt lat="47.32992" lon="-1.34623">
        <ele>128</ele>
        <time>2020-12-20T10:20:58.884000+00:00</time>
      </trkpt>
      <trkpt lat="0" lon="0">
        <time>2020-12-20T10:20:58.910000+00:00</time>
      </trkpt>
      <trkpt lat="0" lon="0">
        <time>2020-12-20T10:20:58.920000+00:00</time>
      </trkpt>
      <trkpt lat="0" lon="0">
        <time>2020-12-20T10:20:58.921000+00:00</time>
      </trkpt>
      <trkpt lat="47.3299" lon="-1.34626">
        <ele>128</ele>
        <time>2020-12-20T10:20:59.862000+00:00</time>
      </trkpt>
      <trkpt lat="0" lon="0">
        <time>2020-12-20T10:20:59.871000+00:00</time>
      </trkpt>
      <trkpt lat="0" lon="0">
        <time>2020-12-20T10:20:59.878000+00:00</time>
      </trkpt>
      <trkpt lat="0" lon="0">
        <time>2020-12-20T10:20:59.881000+00:00</time>
      </trkpt>
      <trkpt lat="47.32989" lon="-1.34629">
        <ele>128</ele>
        <time>2020-12-20T10:21:00.866000+00:00</time>
      </trkpt>
      <trkpt lat="0" lon="0">
        <time>2020-12-20T10:21:00.868000+00:00</time>
      </trkpt>
      <trkpt lat="0" lon="0">
        <time>2020-12-20T10:21:00.869000+00:00</time>
      </trkpt>
      <trkpt lat="0" lon="0">
        <time>2020-12-20T10:21:00.870000+00:00</time>
      </trkpt>
      <trkpt lat="47.32987" lon="-1.34631">
        <ele>129</ele>
        <time>2020-12-20T10:21:01.875000+00:00</time>
      </trkpt>
      <trkpt lat="0" lon="0">
        <time>2020-12-20T10:21:01.879000+00:00</time>
      </trkpt>
      <trkpt lat="0" lon="0">
        <time>2020-12-20T10:21:01.886000+00:00</time>
      </trkpt>
      <trkpt lat="0" lon="0">
        <time>2020-12-20T10:21:01.893000+00:00</time>
      </trkpt>
      <trkpt lat="47.32986" lon="-1.34634">
        <ele>129</ele>
        <time>2020-12-20T10:21:02.859000+00:00</time>
      </trkpt>
      <trkpt lat="0" lon="0">
        <time>2020-12-20T10:21:02.881000+00:00</time>
      </trkpt>
      <trkpt lat="0" lon="0">
        <time>2020-12-20T10:21:02.886000+00:00</time>
      </trkpt>
      <trkpt lat="0" lon="0">
        <time>2020-12-20T10:21:02.889000+00:00</time>
      </trkpt>
      <trkpt lat="47.32985" lon="-1.34636">
        <ele>129</ele>
        <time>2020-12-20T10:21:03.851000+00:00</time>
      </trkpt>
      <trkpt lat="0" lon="0">
        <time>2020-12-20T10:21:03.866000+00:00</time>
      </trkpt>
      <trkpt lat="0" lon="0">
        <time>2020-12-20T10:21:03.871000+00:00</time>
      </trkpt>
      <trkpt lat="0" lon="0">
        <time>2020-12-20T10:21:03.876000+00:00</time>
      </trkpt>
      <trkpt lat="47.32983" lon="-1.34638">
        <ele>129</ele>
        <time>2020-12-20T10:21:04.903000+00:00</time>
      </trkpt>
      <trkpt lat="0" lon="0">
        <time>2020-12-20T10:21:04.915000+00:00</time>
      </trkpt>
      <trkpt lat="0" lon="0">
        <time>2020-12-20T10:21:04.922000+00:00</time>
      </trkpt>
      <trkpt lat="0" lon="0">
        <time>2020-12-20T10:21:04.926000+00:00</time>
      </trkpt>
      <trkpt lat="47.32982" lon="-1.34641">
        <ele>129</ele>
        <time>2020-12-20T10:21:05.898000+00:00</time>
      </trkpt>
      <trkpt lat="0" lon="0">
        <time>2020-12-20T10:21:05.909000+00:00</time>
      </trkpt>
      <trkpt lat="0" lon="0">
        <time>2020-12-20T10:21:05.917000+00:00</time>
      </trkpt>
      <trkpt lat="0" lon="0">
        <time>2020-12-20T10:21:05.924000+00:00</time>
      </trkpt>
      <trkpt lat="47.32981" lon="-1.34643">
        <ele>129</ele>
        <time>2020-12-20T10:21:06.839000+00:00</time>
      </trkpt>
      <trkpt lat="0" lon="0">
        <time>2020-12-20T10:21:06.861000+00:00</time>
      </trkpt>
      <trkpt lat="0" lon="0">
        <time>2020-12-20T10:21:06.865000+00:00</time>
      </trkpt>
      <trkpt lat="0" lon="0">
        <time>2020-12-20T10:21:06.866000+00:00</time>
      </trkpt>
      <trkpt lat="47.3298" lon="-1.34645">
        <ele>129</ele>
        <time>2020-12-20T10:21:07.884000+00:00</time>
      </trkpt>
      <trkpt lat="0" lon="0">
        <time>2020-12-20T10:21:07.895000+00:00</time>
      </trkpt>
      <trkpt lat="0" lon="0">
        <time>2020-12-20T10:21:07.901000+00:00</time>
      </trkpt>
      <trkpt lat="0" lon="0">
        <time>2020-12-20T10:21:07.904000+00:00</time>
      </trkpt>
      <trkpt lat="47.32979" lon="-1.34647">
        <ele>129</ele>
        <time>2020-12-20T10:21:08.830000+00:00</time>
      </trkpt>
      <trkpt lat="0" lon="0">
        <time>2020-12-20T10:21:08.849000+00:00</time>
      </trkpt>
      <trkpt lat="0" lon="0">
        <time>2020-12-20T10:21:08.853000+00:00</time>
      </trkpt>
      <trkpt lat="0" lon="0">
        <time>2020-12-20T10:21:08.857000+00:00</time>
      </trkpt>
      <trkpt lat="47.32978" lon="-1.34649">
        <ele>130</ele>
        <time>2020-12-20T10:21:09.755000+00:00</time>
      </trkpt>
      <trkpt lat="0" lon="0">
        <time>2020-12-20T10:21:09.761000+00:00</time>
      </trkpt>
      <trkpt lat="0" lon="0">
        <time>2020-12-20T10:21:09.763000+00:00</time>
      </trkpt>
      <trkpt lat="0" lon="0">
        <time>2020-12-20T10:21:09.764000+00:00</time>
      </trkpt>
      <trkpt lat="47.32977" lon="-1.3465">
        <ele>130</ele>
        <time>2020-12-20T10:21:10.821000+00:00</time>
      </trkpt>
      <trkpt lat="0" lon="0">
        <time>2020-12-20T10:21:10.833000+00:00</time>
      </trkpt>
      <trkpt lat="0" lon="0">
        <time>2020-12-20T10:21:10.845000+00:00</time>
      </trkpt>
      <trkpt lat="0" lon="0">
        <time>2020-12-20T10:21:10.846000+00:00</time>
      </trkpt>
      <trkpt lat="47.32977" lon="-1.34652">
        <ele>130</ele>
        <time>2020-12-20T10:21:11.856000+00:00</time>
      </trkpt>
      <trkpt lat="0" lon="0">
        <time>2020-12-20T10:21:11.870000+00:00</time>
      </trkpt>
      <trkpt lat="0" lon="0">
        <time>2020-12-20T10:21:11.877000+00:00</time>
      </trkpt>
      <trkpt lat="0" lon="0">
        <time>2020-12-20T10:21:11.880000+00:00</time>
      </trkpt>
      <trkpt lat="47.32977" lon="-1.34653">
        <ele>130</ele>
        <time>2020-12-20T10:21:12.853000+00:00</time>
      </trkpt>
      <trkpt lat="0" lon="0">
        <time>2020-12-20T10:21:12.858000+00:00</time>
      </trkpt>
      <trkpt lat="0" lon="0">
        <time>2020-12-20T10:21:12.860000+00:00</time>
      </trkpt>
      <trkpt lat="0" lon="0">
        <time>2020-12-20T10:21:12.861000+00:00</time>
      </trkpt>
      <trkpt lat="47.32977" lon="-1.34654">
        <ele>130</ele>
        <time>2020-12-20T10:21:13.839000+00:00</time>
      </trkpt>
      <trkpt lat="0" lon="0">
        <time>2020-12-20T10:21:13.843000+00:00</time>
      </trkpt>
      <trkpt lat="0" lon="0">
        <time>2020-12-20T10:21:13.854000+00:00</time>
      </trkpt>
      <trkpt lat="0" lon="0">
        <time>2020-12-20T10:21:13.858000+00:00</time>
      </trkpt>
      <trkpt lat="47.32977" lon="-1.34655">
        <ele>129</ele>
        <time>2020-12-20T10:21:14.841000+00:00</time>
      </trkpt>
      <trkpt lat="0" lon="0">
        <time>2020-12-20T10:21:14.851000+00:00</time>
      </trkpt>
      <trkpt lat="0" lon="0">
        <time>2020-12-20T10:21:14.855000+00:00</time>
      </trkpt>
      <trkpt lat="0" lon="0">
        <time>2020-12-20T10:21:14.858000+00:00</time>
      </trkpt>
      <trkpt lat="47.32977" lon="-1.34655">
        <ele>130</ele>
        <time>2020-12-20T10:21:15.857000+00:00</time>
      </trkpt>
      <trkpt lat="0" lon="0">
        <time>2020-12-20T10:21:15.866000+00:00</time>
      </trkpt>
      <trkpt lat="0" lon="0">
        <time>2020-12-20T10:21:15.870000+00:00</time>
      </trkpt>
      <trkpt lat="0" lon="0">
        <time>2020-12-20T10:21:15.872000+00:00</time>
      </trkpt>
      <trkpt lat="47.32977" lon="-1.34656">
        <ele>130</ele>
        <time>2020-12-20T10:21:16.880000+00:00</time>
      </trkpt>
      <trkpt lat="0" lon="0">
        <time>2020-12-20T10:21:16.886000+00:00</time>
      </trkpt>
      <trkpt lat="0" lon="0">
        <time>2020-12-20T10:21:16.892000+00:00</time>
      </trkpt>
      <trkpt lat="0" lon="0">
        <time>2020-12-20T10:21:16.895000+00:00</time>
      </trkpt>
      <trkpt lat="47.32977" lon="-1.34656">
        <ele>130</ele>
        <time>2020-12-20T10:21:17.854000+00:00</time>
      </trkpt>
      <trkpt lat="0" lon="0">
        <time>2020-12-20T10:21:17.861000+00:00</time>
      </trkpt>
      <trkpt lat="0" lon="0">
        <time>2020-12-20T10:21:17.865000+00:00</time>
      </trkpt>
      <trkpt lat="0" lon="0">
        <time>2020-12-20T10:21:17.869000+00:00</time>
      </trkpt>
      <trkpt lat="47.32977" lon="-1.34656">
        <ele>130</ele>
        <time>2020-12-20T10:21:18.822000+00:00</time>
      </trkpt>
      <trkpt lat="0" lon="0">
        <time>2020-12-20T10:21:18.834000+00:00</time>
      </trkpt>
      <trkpt lat="0" lon="0">
        <time>2020-12-20T10:21:18.837000+00:00</time>
      </trkpt>
      <trkpt lat="0" lon="0">
        <time>2020-12-20T10:21:18.839000+00:00</time>
      </trkpt>
      <trkpt lat="47.32977" lon="-1.34656">
        <ele>130</ele>
        <time>2020-12-20T10:21:19.833000+00:00</time>
      </trkpt>
      <trkpt lat="0" lon="0">
        <time>2020-12-20T10:21:19.845000+00:00</time>
      </trkpt>
      <trkpt lat="0" lon="0">
        <time>2020-12-20T10:21:19.852000+00:00</time>
      </trkpt>
      <trkpt lat="0" lon="0">
        <time>2020-12-20T10:21:19.855000+00:00</time>
      </trkpt>
      <trkpt lat="47.32977" lon="-1.34655">
        <ele>130</ele>
        <time>2020-12-20T10:21:20.824000+00:00</time>
      </trkpt>
      <trkpt lat="0" lon="0">
        <time>2020-12-20T10:21:20.842000+00:00</time>
      </trkpt>
      <trkpt lat="0" lon="0">
        <time>2020-12-20T10:21:20.848000+00:00</time>
      </trkpt>
      <trkpt lat="0" lon="0">
        <time>2020-12-20T10:21:20.862000+00:00</time>
      </trkpt>
      <trkpt lat="47.32988" lon="-1.34674">
        <ele>132</ele>
        <time>2020-12-20T10:21:21.811000+00:00</time>
      </trkpt>
      <trkpt lat="0" lon="0">
        <time>2020-12-20T10:21:21.814000+00:00</time>
      </trkpt>
      <trkpt lat="0" lon="0">
        <time>2020-12-20T10:21:21.818000+00:00</time>
      </trkpt>
      <trkpt lat="47.32989" lon="-1.34676">
        <ele>132</ele>
        <time>2020-12-20T10:21:22.886000+00:00</time>
      </trkpt>
      <trkpt lat="0" lon="0">
        <time>2020-12-20T10:21:22.891000+00:00</time>
      </trkpt>
      <trkpt lat="0" lon="0">
        <time>2020-12-20T10:21:22.902000+00:00</time>
      </trkpt>
      <trkpt lat="0" lon="0">
        <time>2020-12-20T10:21:22.903000+00:00</time>
      </trkpt>
      <trkpt lat="47.3299" lon="-1.34678">
        <ele>132</ele>
        <time>2020-12-20T10:21:23.916000+00:00</time>
      </trkpt>
      <trkpt lat="0" lon="0">
        <time>2020-12-20T10:21:23.925000+00:00</time>
      </trkpt>
      <trkpt lat="0" lon="0">
        <time>2020-12-20T10:21:23.934000+00:00</time>
      </trkpt>
      <trkpt lat="0" lon="0">
        <time>2020-12-20T10:21:23.937000+00:00</time>
      </trkpt>
      <trkpt lat="47.32991" lon="-1.3468">
        <ele>133</ele>
        <time>2020-12-20T10:21:24.920000+00:00</time>
      </trkpt>
      <trkpt lat="0" lon="0">
        <time>2020-12-20T10:21:24.922000+00:00</time>
      </trkpt>
      <trkpt lat="0" lon="0">
        <time>2020-12-20T10:21:24.924000+00:00</time>
      </trkpt>
      <trkpt lat="0" lon="0">
        <time>2020-12-20T10:21:24.925000+00:00</time>
      </trkpt>
      <trkpt lat="47.32992" lon="-1.34682">
        <ele>134</ele>
        <time>2020-12-20T10:21:25.884000+00:00</time>
      </trkpt>
      <trkpt lat="0" lon="0">
        <time>2020-12-20T10:21:25.892000+00:00</time>
      </trkpt>
      <trkpt lat="0" lon="0">
        <time>2020-12-20T10:21:25.897000+00:00</time>
      </trkpt>
      <trkpt lat="0" lon="0">
        <time>2020-12-20T10:21:25.900000+00:00</time>
      </trkpt>
      <trkpt lat="47.32993" lon="-1.34684">
        <ele>134</ele>
        <time>2020-12-20T10:21:26.880000+00:00</time>
      </trkpt>
      <trkpt lat="0" lon="0">
        <time>2020-12-20T10:21:26.882000+00:00</time>
      </trkpt>
      <trkpt lat="0" lon="0">
        <time>2020-12-20T10:21:26.884000+00:00</time>
      </trkpt>
      <trkpt lat="0" lon="0">
        <time>2020-12-20T10:21:26.885000+00:00</time>
      </trkpt>
      <trkpt lat="47.32995" lon="-1.34686">
        <ele>133</ele>
        <time>2020-12-20T10:21:27.912000+00:00</time>
      </trkpt>
      <trkpt lat="0" lon="0">
        <time>2020-12-20T10:21:27.918000+00:00</time>
      </trkpt>
      <trkpt lat="0" lon="0">
        <time>2020-12-20T10:21:27.922000+00:00</time>
      </trkpt>
      <trkpt lat="0" lon="0">
        <time>2020-12-20T10:21:27.924000+00:00</time>
      </trkpt>
      <trkpt lat="47.32996" lon="-1.34688">
        <ele>133</ele>
        <time>2020-12-20T10:21:28.918000+00:00</time>
      </trkpt>
      <trkpt lat="0" lon="0">
        <time>2020-12-20T10:21:28.920000+00:00</time>
      </trkpt>
      <trkpt lat="0" lon="0">
        <time>2020-12-20T10:21:28.921000+00:00</time>
      </trkpt>
      <trkpt lat="0" lon="0">
        <time>2020-12-20T10:21:28.922000+00:00</time>
      </trkpt>
      <trkpt lat="47.32997" lon="-1.34691">
        <ele>133</ele>
        <time>2020-12-20T10:21:29.903000+00:00</time>
      </trkpt>
      <trkpt lat="0" lon="0">
        <time>2020-12-20T10:21:29.910000+00:00</time>
      </trkpt>
      <trkpt lat="0" lon="0">
        <time>2020-12-20T10:21:29.914000+00:00</time>
      </trkpt>
      <trkpt lat="0" lon="0">
        <time>2020-12-20T10:21:29.917000+00:00</time>
      </trkpt>
      <trkpt lat="47.32998" lon="-1.34693">
        <ele>133</ele>
        <time>2020-12-20T10:21:30.862000+00:00</time>
      </trkpt>
      <trkpt lat="0" lon="0">
        <time>2020-12-20T10:21:30.875000+00:00</time>
      </trkpt>
      <trkpt lat="0" lon="0">
        <time>2020-12-20T10:21:30.880000+00:00</time>
      </trkpt>
      <trkpt lat="0" lon="0">
        <time>2020-12-20T10:21:30.884000+00:00</time>
      </trkpt>
      <trkpt lat="47.32999" lon="-1.34696">
        <ele>133</ele>
        <time>2020-12-20T10:21:31.880000+00:00</time>
      </trkpt>
      <trkpt lat="0" lon="0">
        <time>2020-12-20T10:21:31.886000+00:00</time>
      </trkpt>
      <trkpt lat="0" lon="0">
        <time>2020-12-20T10:21:31.891000+00:00</time>
      </trkpt>
      <trkpt lat="0" lon="0">
        <time>2020-12-20T10:21:31.894000+00:00</time>
      </trkpt>
      <trkpt lat="47.33001" lon="-1.34699">
        <ele>133</ele>
        <time>2020-12-20T10:21:32.846000+00:00</time>
      </trkpt>
      <trkpt lat="0" lon="0">
        <time>2020-12-20T10:21:32.863000+00:00</time>
      </trkpt>
      <trkpt lat="0" lon="0">
        <time>2020-12-20T10:21:32.870000+00:00</time>
      </trkpt>
      <trkpt lat="0" lon="0">
        <time>2020-12-20T10:21:32.871000+00:00</time>
      </trkpt>
      <trkpt lat="47.33002" lon="-1.34702">
        <ele>133</ele>
        <time>2020-12-20T10:21:33.892000+00:00</time>
      </trkpt>
      <trkpt lat="0" lon="0">
        <time>2020-12-20T10:21:33.904000+00:00</time>
      </trkpt>
      <trkpt lat="0" lon="0">
        <time>2020-12-20T10:21:33.911000+00:00</time>
      </trkpt>
      <trkpt lat="0" lon="0">
        <time>2020-12-20T10:21:33.917000+00:00</time>
      </trkpt>
      <trkpt lat="47.33003" lon="-1.34705">
        <ele>133</ele>
        <time>2020-12-20T10:21:34.877000+00:00</time>
      </trkpt>
      <trkpt lat="0" lon="0">
        <time>2020-12-20T10:21:34.892000+00:00</time>
      </trkpt>
      <trkpt lat="0" lon="0">
        <time>2020-12-20T10:21:34.899000+00:00</time>
      </trkpt>
      <trkpt lat="0" lon="0">
        <time>2020-12-20T10:21:34.902000+00:00</time>
      </trkpt>
      <trkpt lat="47.33004" lon="-1.34707">
        <ele>133</ele>
        <time>2020-12-20T10:21:35.885000+00:00</time>
      </trkpt>
      <trkpt lat="0" lon="0">
        <time>2020-12-20T10:21:35.895000+00:00</time>
      </trkpt>
      <trkpt lat="0" lon="0">
        <time>2020-12-20T10:21:35.897000+00:00</time>
      </trkpt>
      <trkpt lat="0" lon="0">
        <time>2020-12-20T10:21:35.898000+00:00</time>
      </trkpt>
      <trkpt lat="47.33005" lon="-1.34709">
        <ele>133</ele>
        <time>2020-12-20T10:21:36.866000+00:00</time>
      </trkpt>
      <trkpt lat="0" lon="0">
        <time>2020-12-20T10:21:36.871000+00:00</time>
      </trkpt>
      <trkpt lat="0" lon="0">
        <time>2020-12-20T10:21:36.876000+00:00</time>
      </trkpt>
      <trkpt lat="0" lon="0">
        <time>2020-12-20T10:21:36.877000+00:00</time>
      </trkpt>
      <trkpt lat="47.33006" lon="-1.34712">
        <ele>133</ele>
        <time>2020-12-20T10:21:37.917000+00:00</time>
      </trkpt>
      <trkpt lat="0" lon="0">
        <time>2020-12-20T10:21:37.924000+00:00</time>
      </trkpt>
      <trkpt lat="0" lon="0">
        <time>2020-12-20T10:21:37.935000+00:00</time>
      </trkpt>
      <trkpt lat="0" lon="0">
        <time>2020-12-20T10:21:37.940000+00:00</time>
      </trkpt>
      <trkpt lat="47.33006" lon="-1.34714">
        <ele>133</ele>
        <time>2020-12-20T10:21:38.864000+00:00</time>
      </trkpt>
      <trkpt lat="0" lon="0">
        <time>2020-12-20T10:21:38.870000+00:00</time>
      </trkpt>
      <trkpt lat="0" lon="0">
        <time>2020-12-20T10:21:38.878000+00:00</time>
      </trkpt>
      <trkpt lat="0" lon="0">
        <time>2020-12-20T10:21:38.880000+00:00</time>
      </trkpt>
      <trkpt lat="47.33007" lon="-1.34717">
        <ele>133</ele>
        <time>2020-12-20T10:21:39.897000+00:00</time>
      </trkpt>
      <trkpt lat="0" lon="0">
        <time>2020-12-20T10:21:39.904000+00:00</time>
      </trkpt>
      <trkpt lat="0" lon="0">
        <time>2020-12-20T10:21:39.907000+00:00</time>
      </trkpt>
      <trkpt lat="0" lon="0">
        <time>2020-12-20T10:21:39.908000+00:00</time>
      </trkpt>
      <trkpt lat="47.33008" lon="-1.34719">
        <ele>134</ele>
        <time>2020-12-20T10:21:40.901000+00:00</time>
      </trkpt>
      <trkpt lat="0" lon="0">
        <time>2020-12-20T10:21:40.907000+00:00</time>
      </trkpt>
      <trkpt lat="0" lon="0">
        <time>2020-12-20T10:21:40.914000+00:00</time>
      </trkpt>
      <trkpt lat="0" lon="0">
        <time>2020-12-20T10:21:40.917000+00:00</time>
      </trkpt>
      <trkpt lat="47.33009" lon="-1.34721">
        <ele>134</ele>
        <time>2020-12-20T10:21:41.876000+00:00</time>
      </trkpt>
      <trkpt lat="0" lon="0">
        <time>2020-12-20T10:21:41.892000+00:00</time>
      </trkpt>
      <trkpt lat="0" lon="0">
        <time>2020-12-20T10:21:41.896000+00:00</time>
      </trkpt>
      <trkpt lat="0" lon="0">
        <time>2020-12-20T10:21:41.899000+00:00</time>
      </trkpt>
      <trkpt lat="47.3301" lon="-1.34723">
        <ele>134</ele>
        <time>2020-12-20T10:21:42.856000+00:00</time>
      </trkpt>
      <trkpt lat="0" lon="0">
        <time>2020-12-20T10:21:42.861000+00:00</time>
      </trkpt>
      <trkpt lat="0" lon="0">
        <time>2020-12-20T10:21:42.864000+00:00</time>
      </trkpt>
      <trkpt lat="0" lon="0">
        <time>2020-12-20T10:21:42.868000+00:00</time>
      </trkpt>
      <trkpt lat="47.33011" lon="-1.34725">
        <ele>134</ele>
        <time>2020-12-20T10:21:43.850000+00:00</time>
      </trkpt>
      <trkpt lat="0" lon="0">
        <time>2020-12-20T10:21:43.862000+00:00</time>
      </trkpt>
      <trkpt lat="0" lon="0">
        <time>2020-12-20T10:21:43.866000+00:00</time>
      </trkpt>
      <trkpt lat="0" lon="0">
        <time>2020-12-20T10:21:43.869000+00:00</time>
      </trkpt>
      <trkpt lat="47.33012" lon="-1.34727">
        <ele>135</ele>
        <time>2020-12-20T10:21:44.874000+00:00</time>
      </trkpt>
      <trkpt lat="0" lon="0">
        <time>2020-12-20T10:21:44.895000+00:00</time>
      </trkpt>
      <trkpt lat="0" lon="0">
        <time>2020-12-20T10:21:44.901000+00:00</time>
      </trkpt>
      <trkpt lat="0" lon="0">
        <time>2020-12-20T10:21:44.904000+00:00</time>
      </trkpt>
      <trkpt lat="47.33013" lon="-1.34729">
        <ele>135</ele>
        <time>2020-12-20T10:21:45.909000+00:00</time>
      </trkpt>
      <trkpt lat="0" lon="0">
        <time>2020-12-20T10:21:45.916000+00:00</time>
      </trkpt>
      <trkpt lat="0" lon="0">
        <time>2020-12-20T10:21:45.924000+00:00</time>
      </trkpt>
      <trkpt lat="0" lon="0">
        <time>2020-12-20T10:21:45.927000+00:00</time>
      </trkpt>
      <trkpt lat="47.33015" lon="-1.34731">
        <ele>135</ele>
        <time>2020-12-20T10:21:46.894000+00:00</time>
      </trkpt>
      <trkpt lat="0" lon="0">
        <time>2020-12-20T10:21:46.902000+00:00</time>
      </trkpt>
      <trkpt lat="0" lon="0">
        <time>2020-12-20T10:21:46.907000+00:00</time>
      </trkpt>
      <trkpt lat="0" lon="0">
        <time>2020-12-20T10:21:46.909000+00:00</time>
      </trkpt>
      <trkpt lat="47.33016" lon="-1.34733">
        <ele>135</ele>
        <time>2020-12-20T10:21:47.942000+00:00</time>
      </trkpt>
      <trkpt lat="0" lon="0">
        <time>2020-12-20T10:21:47.950000+00:00</time>
      </trkpt>
      <trkpt lat="0" lon="0">
        <time>2020-12-20T10:21:47.957000+00:00</time>
      </trkpt>
      <trkpt lat="0" lon="0">
        <time>2020-12-20T10:21:47.962000+00:00</time>
      </trkpt>
      <trkpt lat="47.33017" lon="-1.34735">
        <ele>136</ele>
        <time>2020-12-20T10:21:48.886000+00:00</time>
      </trkpt>
      <trkpt lat="0" lon="0">
        <time>2020-12-20T10:21:48.897000+00:00</time>
      </trkpt>
      <trkpt lat="0" lon="0">
        <time>2020-12-20T10:21:48.899000+00:00</time>
      </trkpt>
      <trkpt lat="0" lon="0">
        <time>2020-12-20T10:21:48.901000+00:00</time>
      </trkpt>
      <trkpt lat="47.33019" lon="-1.34738">
        <ele>137</ele>
        <time>2020-12-20T10:21:49.891000+00:00</time>
      </trkpt>
      <trkpt lat="0" lon="0">
        <time>2020-12-20T10:21:49.902000+00:00</time>
      </trkpt>
      <trkpt lat="0" lon="0">
        <time>2020-12-20T10:21:49.906000+00:00</time>
      </trkpt>
      <trkpt lat="0" lon="0">
        <time>2020-12-20T10:21:49.908000+00:00</time>
      </trkpt>
      <trkpt lat="47.3302" lon="-1.34741">
        <ele>137</ele>
        <time>2020-12-20T10:21:50.915000+00:00</time>
      </trkpt>
      <trkpt lat="0" lon="0">
        <time>2020-12-20T10:21:50.930000+00:00</time>
      </trkpt>
      <trkpt lat="0" lon="0">
        <time>2020-12-20T10:21:50.937000+00:00</time>
      </trkpt>
      <trkpt lat="0" lon="0">
        <time>2020-12-20T10:21:50.941000+00:00</time>
      </trkpt>
      <trkpt lat="47.33022" lon="-1.34744">
        <ele>137</ele>
        <time>2020-12-20T10:21:51.927000+00:00</time>
      </trkpt>
      <trkpt lat="0" lon="0">
        <time>2020-12-20T10:21:51.940000+00:00</time>
      </trkpt>
      <trkpt lat="0" lon="0">
        <time>2020-12-20T10:21:51.946000+00:00</time>
      </trkpt>
      <trkpt lat="0" lon="0">
        <time>2020-12-20T10:21:51.950000+00:00</time>
      </trkpt>
      <trkpt lat="47.33023" lon="-1.34747">
        <ele>136</ele>
        <time>2020-12-20T10:21:52.852000+00:00</time>
      </trkpt>
      <trkpt lat="0" lon="0">
        <time>2020-12-20T10:21:52.857000+00:00</time>
      </trkpt>
      <trkpt lat="0" lon="0">
        <time>2020-12-20T10:21:52.864000+00:00</time>
      </trkpt>
      <trkpt lat="0" lon="0">
        <time>2020-12-20T10:21:52.866000+00:00</time>
      </trkpt>
      <trkpt lat="47.33024" lon="-1.3475">
        <ele>136</ele>
        <time>2020-12-20T10:21:53.864000+00:00</time>
      </trkpt>
      <trkpt lat="0" lon="0">
        <time>2020-12-20T10:21:53.866000+00:00</time>
      </trkpt>
      <trkpt lat="0" lon="0">
        <time>2020-12-20T10:21:53.867000+00:00</time>
      </trkpt>
      <trkpt lat="47.33025" lon="-1.34753">
        <ele>136</ele>
        <time>2020-12-20T10:21:54.870000+00:00</time>
      </trkpt>
      <trkpt lat="0" lon="0">
        <time>2020-12-20T10:21:54.881000+00:00</time>
      </trkpt>
      <trkpt lat="0" lon="0">
        <time>2020-12-20T10:21:54.883000+00:00</time>
      </trkpt>
      <trkpt lat="0" lon="0">
        <time>2020-12-20T10:21:54.884000+00:00</time>
      </trkpt>
      <trkpt lat="47.33027" lon="-1.34756">
        <ele>136</ele>
        <time>2020-12-20T10:21:55.888000+00:00</time>
      </trkpt>
      <trkpt lat="0" lon="0">
        <time>2020-12-20T10:21:55.897000+00:00</time>
      </trkpt>
      <trkpt lat="0" lon="0">
        <time>2020-12-20T10:21:55.900000+00:00</time>
      </trkpt>
      <trkpt lat="0" lon="0">
        <time>2020-12-20T10:21:55.901000+00:00</time>
      </trkpt>
      <trkpt lat="47.33028" lon="-1.34759">
        <ele>136</ele>
        <time>2020-12-20T10:21:56.905000+00:00</time>
      </trkpt>
      <trkpt lat="0" lon="0">
        <time>2020-12-20T10:21:56.911000+00:00</time>
      </trkpt>
      <trkpt lat="0" lon="0">
        <time>2020-12-20T10:21:56.915000+00:00</time>
      </trkpt>
      <trkpt lat="0" lon="0">
        <time>2020-12-20T10:21:56.922000+00:00</time>
      </trkpt>
      <trkpt lat="47.33029" lon="-1.34762">
        <ele>136</ele>
        <time>2020-12-20T10:21:57.887000+00:00</time>
      </trkpt>
      <trkpt lat="0" lon="0">
        <time>2020-12-20T10:21:57.893000+00:00</time>
      </trkpt>
      <trkpt lat="0" lon="0">
        <time>2020-12-20T10:21:57.898000+00:00</time>
      </trkpt>
      <trkpt lat="0" lon="0">
        <time>2020-12-20T10:21:57.903000+00:00</time>
      </trkpt>
      <trkpt lat="47.3303" lon="-1.34766">
        <ele>136</ele>
        <time>2020-12-20T10:21:58.893000+00:00</time>
      </trkpt>
      <trkpt lat="0" lon="0">
        <time>2020-12-20T10:21:58.908000+00:00</time>
      </trkpt>
      <trkpt lat="0" lon="0">
        <time>2020-12-20T10:21:58.913000+00:00</time>
      </trkpt>
      <trkpt lat="0" lon="0">
        <time>2020-12-20T10:21:58.917000+00:00</time>
      </trkpt>
      <trkpt lat="47.33031" lon="-1.34769">
        <ele>136</ele>
        <time>2020-12-20T10:21:59.904000+00:00</time>
      </trkpt>
      <trkpt lat="0" lon="0">
        <time>2020-12-20T10:21:59.912000+00:00</time>
      </trkpt>
      <trkpt lat="0" lon="0">
        <time>2020-12-20T10:21:59.921000+00:00</time>
      </trkpt>
      <trkpt lat="0" lon="0">
        <time>2020-12-20T10:21:59.923000+00:00</time>
      </trkpt>
      <trkpt lat="47.33033" lon="-1.34772">
        <ele>136</ele>
        <time>2020-12-20T10:22:00.880000+00:00</time>
      </trkpt>
      <trkpt lat="0" lon="0">
        <time>2020-12-20T10:22:00.894000+00:00</time>
      </trkpt>
      <trkpt lat="0" lon="0">
        <time>2020-12-20T10:22:00.896000+00:00</time>
      </trkpt>
      <trkpt lat="0" lon="0">
        <time>2020-12-20T10:22:00.897000+00:00</time>
      </trkpt>
      <trkpt lat="47.33034" lon="-1.34775">
        <ele>136</ele>
        <time>2020-12-20T10:22:01.890000+00:00</time>
      </trkpt>
      <trkpt lat="0" lon="0">
        <time>2020-12-20T10:22:01.899000+00:00</time>
      </trkpt>
      <trkpt lat="0" lon="0">
        <time>2020-12-20T10:22:01.909000+00:00</time>
      </trkpt>
      <trkpt lat="0" lon="0">
        <time>2020-12-20T10:22:01.912000+00:00</time>
      </trkpt>
      <trkpt lat="47.33035" lon="-1.34778">
        <ele>136</ele>
        <time>2020-12-20T10:22:02.902000+00:00</time>
      </trkpt>
      <trkpt lat="0" lon="0">
        <time>2020-12-20T10:22:02.907000+00:00</time>
      </trkpt>
      <trkpt lat="0" lon="0">
        <time>2020-12-20T10:22:02.911000+00:00</time>
      </trkpt>
      <trkpt lat="0" lon="0">
        <time>2020-12-20T10:22:02.913000+00:00</time>
      </trkpt>
      <trkpt lat="47.33037" lon="-1.3478">
        <ele>136</ele>
        <time>2020-12-20T10:22:03.926000+00:00</time>
      </trkpt>
      <trkpt lat="0" lon="0">
        <time>2020-12-20T10:22:03.930000+00:00</time>
      </trkpt>
      <trkpt lat="0" lon="0">
        <time>2020-12-20T10:22:03.938000+00:00</time>
      </trkpt>
      <trkpt lat="0" lon="0">
        <time>2020-12-20T10:22:03.941000+00:00</time>
      </trkpt>
      <trkpt lat="47.33038" lon="-1.34783">
        <ele>137</ele>
        <time>2020-12-20T10:22:04.890000+00:00</time>
      </trkpt>
      <trkpt lat="0" lon="0">
        <time>2020-12-20T10:22:04.895000+00:00</time>
      </trkpt>
      <trkpt lat="0" lon="0">
        <time>2020-12-20T10:22:04.900000+00:00</time>
      </trkpt>
      <trkpt lat="0" lon="0">
        <time>2020-12-20T10:22:04.906000+00:00</time>
      </trkpt>
      <trkpt lat="47.33039" lon="-1.34785">
        <ele>137</ele>
        <time>2020-12-20T10:22:05.905000+00:00</time>
      </trkpt>
      <trkpt lat="0" lon="0">
        <time>2020-12-20T10:22:05.916000+00:00</time>
      </trkpt>
      <trkpt lat="0" lon="0">
        <time>2020-12-20T10:22:05.920000+00:00</time>
      </trkpt>
      <trkpt lat="0" lon="0">
        <time>2020-12-20T10:22:05.923000+00:00</time>
      </trkpt>
      <trkpt lat="47.3304" lon="-1.34788">
        <ele>136</ele>
        <time>2020-12-20T10:22:06.927000+00:00</time>
      </trkpt>
      <trkpt lat="0" lon="0">
        <time>2020-12-20T10:22:06.929000+00:00</time>
      </trkpt>
      <trkpt lat="0" lon="0">
        <time>2020-12-20T10:22:06.940000+00:00</time>
      </trkpt>
      <trkpt lat="0" lon="0">
        <time>2020-12-20T10:22:06.943000+00:00</time>
      </trkpt>
      <trkpt lat="47.33041" lon="-1.3479">
        <ele>136</ele>
        <time>2020-12-20T10:22:07.923000+00:00</time>
      </trkpt>
      <trkpt lat="0" lon="0">
        <time>2020-12-20T10:22:07.935000+00:00</time>
      </trkpt>
      <trkpt lat="0" lon="0">
        <time>2020-12-20T10:22:07.937000+00:00</time>
      </trkpt>
      <trkpt lat="0" lon="0">
        <time>2020-12-20T10:22:07.939000+00:00</time>
      </trkpt>
      <trkpt lat="47.33043" lon="-1.34793">
        <ele>136</ele>
        <time>2020-12-20T10:22:08.877000+00:00</time>
      </trkpt>
      <trkpt lat="0" lon="0">
        <time>2020-12-20T10:22:08.887000+00:00</time>
      </trkpt>
      <trkpt lat="0" lon="0">
        <time>2020-12-20T10:22:08.892000+00:00</time>
      </trkpt>
      <trkpt lat="0" lon="0">
        <time>2020-12-20T10:22:08.897000+00:00</time>
      </trkpt>
      <trkpt lat="47.33044" lon="-1.34796">
        <ele>135</ele>
        <time>2020-12-20T10:22:09.910000+00:00</time>
      </trkpt>
      <trkpt lat="0" lon="0">
        <time>2020-12-20T10:22:09.921000+00:00</time>
      </trkpt>
      <trkpt lat="0" lon="0">
        <time>2020-12-20T10:22:09.923000+00:00</time>
      </trkpt>
      <trkpt lat="47.33045" lon="-1.34798">
        <ele>135</ele>
        <time>2020-12-20T10:22:10.948000+00:00</time>
      </trkpt>
      <trkpt lat="0" lon="0">
        <time>2020-12-20T10:22:10.956000+00:00</time>
      </trkpt>
      <trkpt lat="0" lon="0">
        <time>2020-12-20T10:22:10.962000+00:00</time>
      </trkpt>
      <trkpt lat="0" lon="0">
        <time>2020-12-20T10:22:10.964000+00:00</time>
      </trkpt>
      <trkpt lat="47.33047" lon="-1.34801">
        <ele>135</ele>
        <time>2020-12-20T10:22:11.930000+00:00</time>
      </trkpt>
      <trkpt lat="0" lon="0">
        <time>2020-12-20T10:22:11.961000+00:00</time>
      </trkpt>
      <trkpt lat="0" lon="0">
        <time>2020-12-20T10:22:11.965000+00:00</time>
      </trkpt>
      <trkpt lat="0" lon="0">
        <time>2020-12-20T10:22:11.967000+00:00</time>
      </trkpt>
      <trkpt lat="47.33048" lon="-1.34804">
        <ele>135</ele>
        <time>2020-12-20T10:22:12.935000+00:00</time>
      </trkpt>
      <trkpt lat="0" lon="0">
        <time>2020-12-20T10:22:12.939000+00:00</time>
      </trkpt>
      <trkpt lat="0" lon="0">
        <time>2020-12-20T10:22:12.941000+00:00</time>
      </trkpt>
      <trkpt lat="0" lon="0">
        <time>2020-12-20T10:22:12.942000+00:00</time>
      </trkpt>
      <trkpt lat="47.33049" lon="-1.34806">
        <ele>135</ele>
        <time>2020-12-20T10:22:13.919000+00:00</time>
      </trkpt>
      <trkpt lat="0" lon="0">
        <time>2020-12-20T10:22:13.931000+00:00</time>
      </trkpt>
      <trkpt lat="0" lon="0">
        <time>2020-12-20T10:22:13.937000+00:00</time>
      </trkpt>
      <trkpt lat="0" lon="0">
        <time>2020-12-20T10:22:13.940000+00:00</time>
      </trkpt>
      <trkpt lat="47.33051" lon="-1.34809">
        <ele>135</ele>
        <time>2020-12-20T10:22:14.900000+00:00</time>
      </trkpt>
      <trkpt lat="0" lon="0">
        <time>2020-12-20T10:22:14.917000+00:00</time>
      </trkpt>
      <trkpt lat="0" lon="0">
        <time>2020-12-20T10:22:14.924000+00:00</time>
      </trkpt>
      <trkpt lat="0" lon="0">
        <time>2020-12-20T10:22:14.926000+00:00</time>
      </trkpt>
      <trkpt lat="47.33052" lon="-1.34812">
        <ele>135</ele>
        <time>2020-12-20T10:22:15.865000+00:00</time>
      </trkpt>
      <trkpt lat="0" lon="0">
        <time>2020-12-20T10:22:15.876000+00:00</time>
      </trkpt>
      <trkpt lat="0" lon="0">
        <time>2020-12-20T10:22:15.884000+00:00</time>
      </trkpt>
      <trkpt lat="0" lon="0">
        <time>2020-12-20T10:22:15.887000+00:00</time>
      </trkpt>
      <trkpt lat="47.33054" lon="-1.34814">
        <ele>135</ele>
        <time>2020-12-20T10:22:16.867000+00:00</time>
      </trkpt>
      <trkpt lat="0" lon="0">
        <time>2020-12-20T10:22:16.882000+00:00</time>
      </trkpt>
      <trkpt lat="0" lon="0">
        <time>2020-12-20T10:22:16.886000+00:00</time>
      </trkpt>
      <trkpt lat="0" lon="0">
        <time>2020-12-20T10:22:16.890000+00:00</time>
      </trkpt>
      <trkpt lat="47.33055" lon="-1.34817">
        <ele>135</ele>
        <time>2020-12-20T10:22:17.917000+00:00</time>
      </trkpt>
      <trkpt lat="0" lon="0">
        <time>2020-12-20T10:22:17.941000+00:00</time>
      </trkpt>
      <trkpt lat="0" lon="0">
        <time>2020-12-20T10:22:17.946000+00:00</time>
      </trkpt>
      <trkpt lat="0" lon="0">
        <time>2020-12-20T10:22:17.949000+00:00</time>
      </trkpt>
      <trkpt lat="47.33057" lon="-1.3482">
        <ele>135</ele>
        <time>2020-12-20T10:22:18.897000+00:00</time>
      </trkpt>
      <trkpt lat="0" lon="0">
        <time>2020-12-20T10:22:18.900000+00:00</time>
      </trkpt>
      <trkpt lat="0" lon="0">
        <time>2020-12-20T10:22:18.904000+00:00</time>
      </trkpt>
      <trkpt lat="0" lon="0">
        <time>2020-12-20T10:22:18.906000+00:00</time>
      </trkpt>
      <trkpt lat="47.33058" lon="-1.34823">
        <ele>135</ele>
        <time>2020-12-20T10:22:19.914000+00:00</time>
      </trkpt>
      <trkpt lat="0" lon="0">
        <time>2020-12-20T10:22:19.922000+00:00</time>
      </trkpt>
      <trkpt lat="0" lon="0">
        <time>2020-12-20T10:22:19.929000+00:00</time>
      </trkpt>
      <trkpt lat="0" lon="0">
        <time>2020-12-20T10:22:19.933000+00:00</time>
      </trkpt>
      <trkpt lat="47.3306" lon="-1.34826">
        <ele>135</ele>
        <time>2020-12-20T10:22:20.939000+00:00</time>
      </trkpt>
      <trkpt lat="0" lon="0">
        <time>2020-12-20T10:22:20.947000+00:00</time>
      </trkpt>
      <trkpt lat="0" lon="0">
        <time>2020-12-20T10:22:20.952000+00:00</time>
      </trkpt>
      <trkpt lat="0" lon="0">
        <time>2020-12-20T10:22:20.955000+00:00</time>
      </trkpt>
      <trkpt lat="47.33062" lon="-1.34829">
        <ele>135</ele>
        <time>2020-12-20T10:22:21.895000+00:00</time>
      </trkpt>
      <trkpt lat="0" lon="0">
        <time>2020-12-20T10:22:21.909000+00:00</time>
      </trkpt>
      <trkpt lat="0" lon="0">
        <time>2020-12-20T10:22:21.916000+00:00</time>
      </trkpt>
      <trkpt lat="0" lon="0">
        <time>2020-12-20T10:22:21.919000+00:00</time>
      </trkpt>
      <trkpt lat="47.33064" lon="-1.34833">
        <ele>135</ele>
        <time>2020-12-20T10:22:22.914000+00:00</time>
      </trkpt>
      <trkpt lat="0" lon="0">
        <time>2020-12-20T10:22:22.921000+00:00</time>
      </trkpt>
      <trkpt lat="0" lon="0">
        <time>2020-12-20T10:22:22.928000+00:00</time>
      </trkpt>
      <trkpt lat="0" lon="0">
        <time>2020-12-20T10:22:22.933000+00:00</time>
      </trkpt>
      <trkpt lat="47.33066" lon="-1.34836">
        <ele>134</ele>
        <time>2020-12-20T10:22:23.914000+00:00</time>
      </trkpt>
      <trkpt lat="0" lon="0">
        <time>2020-12-20T10:22:23.922000+00:00</time>
      </trkpt>
      <trkpt lat="0" lon="0">
        <time>2020-12-20T10:22:23.927000+00:00</time>
      </trkpt>
      <trkpt lat="0" lon="0">
        <time>2020-12-20T10:22:23.930000+00:00</time>
      </trkpt>
      <trkpt lat="47.33068" lon="-1.3484">
        <ele>134</ele>
        <time>2020-12-20T10:22:24.888000+00:00</time>
      </trkpt>
      <trkpt lat="0" lon="0">
        <time>2020-12-20T10:22:24.890000+00:00</time>
      </trkpt>
      <trkpt lat="0" lon="0">
        <time>2020-12-20T10:22:24.893000+00:00</time>
      </trkpt>
      <trkpt lat="0" lon="0">
        <time>2020-12-20T10:22:24.894000+00:00</time>
      </trkpt>
      <trkpt lat="47.33069" lon="-1.34844">
        <ele>134</ele>
        <time>2020-12-20T10:22:25.921000+00:00</time>
      </trkpt>
      <trkpt lat="0" lon="0">
        <time>2020-12-20T10:22:25.933000+00:00</time>
      </trkpt>
      <trkpt lat="0" lon="0">
        <time>2020-12-20T10:22:25.937000+00:00</time>
      </trkpt>
      <trkpt lat="0" lon="0">
        <time>2020-12-20T10:22:25.940000+00:00</time>
      </trkpt>
      <trkpt lat="47.33071" lon="-1.34847">
        <ele>134</ele>
        <time>2020-12-20T10:22:26.926000+00:00</time>
      </trkpt>
      <trkpt lat="0" lon="0">
        <time>2020-12-20T10:22:26.928000+00:00</time>
      </trkpt>
      <trkpt lat="0" lon="0">
        <time>2020-12-20T10:22:26.929000+00:00</time>
      </trkpt>
      <trkpt lat="0" lon="0">
        <time>2020-12-20T10:22:26.930000+00:00</time>
      </trkpt>
      <trkpt lat="47.33073" lon="-1.34851">
        <ele>134</ele>
        <time>2020-12-20T10:22:27.910000+00:00</time>
      </trkpt>
      <trkpt lat="0" lon="0">
        <time>2020-12-20T10:22:27.918000+00:00</time>
      </trkpt>
      <trkpt lat="0" lon="0">
        <time>2020-12-20T10:22:27.922000+00:00</time>
      </trkpt>
      <trkpt lat="0" lon="0">
        <time>2020-12-20T10:22:27.924000+00:00</time>
      </trkpt>
      <trkpt lat="47.33074" lon="-1.34854">
        <ele>134</ele>
        <time>2020-12-20T10:22:28.927000+00:00</time>
      </trkpt>
      <trkpt lat="0" lon="0">
        <time>2020-12-20T10:22:28.949000+00:00</time>
      </trkpt>
      <trkpt lat="0" lon="0">
        <time>2020-12-20T10:22:28.954000+00:00</time>
      </trkpt>
      <trkpt lat="0" lon="0">
        <time>2020-12-20T10:22:28.957000+00:00</time>
      </trkpt>
      <trkpt lat="47.33075" lon="-1.34857">
        <ele>134</ele>
        <time>2020-12-20T10:22:29.884000+00:00</time>
      </trkpt>
      <trkpt lat="0" lon="0">
        <time>2020-12-20T10:22:29.891000+00:00</time>
      </trkpt>
      <trkpt lat="0" lon="0">
        <time>2020-12-20T10:22:29.895000+00:00</time>
      </trkpt>
      <trkpt lat="0" lon="0">
        <time>2020-12-20T10:22:29.898000+00:00</time>
      </trkpt>
      <trkpt lat="47.33077" lon="-1.3486">
        <ele>133</ele>
        <time>2020-12-20T10:22:30.895000+00:00</time>
      </trkpt>
      <trkpt lat="0" lon="0">
        <time>2020-12-20T10:22:30.904000+00:00</time>
      </trkpt>
      <trkpt lat="0" lon="0">
        <time>2020-12-20T10:22:30.913000+00:00</time>
      </trkpt>
      <trkpt lat="0" lon="0">
        <time>2020-12-20T10:22:30.915000+00:00</time>
      </trkpt>
      <trkpt lat="47.33078" lon="-1.34863">
        <ele>133</ele>
        <time>2020-12-20T10:22:31.908000+00:00</time>
      </trkpt>
      <trkpt lat="0" lon="0">
        <time>2020-12-20T10:22:31.913000+00:00</time>
      </trkpt>
      <trkpt lat="0" lon="0">
        <time>2020-12-20T10:22:31.921000+00:00</time>
      </trkpt>
      <trkpt lat="0" lon="0">
        <time>2020-12-20T10:22:31.923000+00:00</time>
      </trkpt>
      <trkpt lat="47.33079" lon="-1.34866">
        <ele>133</ele>
        <time>2020-12-20T10:22:32.903000+00:00</time>
      </trkpt>
      <trkpt lat="0" lon="0">
        <time>2020-12-20T10:22:32.915000+00:00</time>
      </trkpt>
      <trkpt lat="0" lon="0">
        <time>2020-12-20T10:22:32.919000+00:00</time>
      </trkpt>
      <trkpt lat="0" lon="0">
        <time>2020-12-20T10:22:32.921000+00:00</time>
      </trkpt>
      <trkpt lat="47.33079" lon="-1.34868">
        <ele>134</ele>
        <time>2020-12-20T10:22:33.893000+00:00</time>
      </trkpt>
      <trkpt lat="0" lon="0">
        <time>2020-12-20T10:22:33.905000+00:00</time>
      </trkpt>
      <trkpt lat="0" lon="0">
        <time>2020-12-20T10:22:33.910000+00:00</time>
      </trkpt>
      <trkpt lat="0" lon="0">
        <time>2020-12-20T10:22:33.916000+00:00</time>
      </trkpt>
      <trkpt lat="47.3308" lon="-1.34871">
        <ele>134</ele>
        <time>2020-12-20T10:22:34.919000+00:00</time>
      </trkpt>
      <trkpt lat="0" lon="0">
        <time>2020-12-20T10:22:34.935000+00:00</time>
      </trkpt>
      <trkpt lat="0" lon="0">
        <time>2020-12-20T10:22:34.939000+00:00</time>
      </trkpt>
      <trkpt lat="0" lon="0">
        <time>2020-12-20T10:22:34.943000+00:00</time>
      </trkpt>
      <trkpt lat="47.33081" lon="-1.34872">
        <ele>134</ele>
        <time>2020-12-20T10:22:35.880000+00:00</time>
      </trkpt>
      <trkpt lat="0" lon="0">
        <time>2020-12-20T10:22:35.891000+00:00</time>
      </trkpt>
      <trkpt lat="0" lon="0">
        <time>2020-12-20T10:22:35.900000+00:00</time>
      </trkpt>
      <trkpt lat="0" lon="0">
        <time>2020-12-20T10:22:35.903000+00:00</time>
      </trkpt>
      <trkpt lat="47.33081" lon="-1.34874">
        <ele>134</ele>
        <time>2020-12-20T10:22:36.868000+00:00</time>
      </trkpt>
      <trkpt lat="0" lon="0">
        <time>2020-12-20T10:22:36.876000+00:00</time>
      </trkpt>
      <trkpt lat="0" lon="0">
        <time>2020-12-20T10:22:36.878000+00:00</time>
      </trkpt>
      <trkpt lat="0" lon="0">
        <time>2020-12-20T10:22:36.879000+00:00</time>
      </trkpt>
      <trkpt lat="47.33082" lon="-1.34877">
        <ele>134</ele>
        <time>2020-12-20T10:22:37.943000+00:00</time>
      </trkpt>
      <trkpt lat="0" lon="0">
        <time>2020-12-20T10:22:37.950000+00:00</time>
      </trkpt>
      <trkpt lat="0" lon="0">
        <time>2020-12-20T10:22:37.956000+00:00</time>
      </trkpt>
      <trkpt lat="0" lon="0">
        <time>2020-12-20T10:22:37.959000+00:00</time>
      </trkpt>
      <trkpt lat="47.33083" lon="-1.34879">
        <ele>135</ele>
        <time>2020-12-20T10:22:38.946000+00:00</time>
      </trkpt>
      <trkpt lat="0" lon="0">
        <time>2020-12-20T10:22:38.963000+00:00</time>
      </trkpt>
      <trkpt lat="0" lon="0">
        <time>2020-12-20T10:22:38.969000+00:00</time>
      </trkpt>
      <trkpt lat="0" lon="0">
        <time>2020-12-20T10:22:38.970000+00:00</time>
      </trkpt>
      <trkpt lat="47.33085" lon="-1.34881">
        <ele>135</ele>
        <time>2020-12-20T10:22:39.897000+00:00</time>
      </trkpt>
      <trkpt lat="0" lon="0">
        <time>2020-12-20T10:22:39.903000+00:00</time>
      </trkpt>
      <trkpt lat="0" lon="0">
        <time>2020-12-20T10:22:39.908000+00:00</time>
      </trkpt>
      <trkpt lat="0" lon="0">
        <time>2020-12-20T10:22:39.911000+00:00</time>
      </trkpt>
      <trkpt lat="47.33086" lon="-1.34884">
        <ele>136</ele>
        <time>2020-12-20T10:22:40.926000+00:00</time>
      </trkpt>
      <trkpt lat="0" lon="0">
        <time>2020-12-20T10:22:40.940000+00:00</time>
      </trkpt>
      <trkpt lat="0" lon="0">
        <time>2020-12-20T10:22:40.945000+00:00</time>
      </trkpt>
      <trkpt lat="0" lon="0">
        <time>2020-12-20T10:22:40.946000+00:00</time>
      </trkpt>
      <trkpt lat="47.33088" lon="-1.34887">
        <ele>136</ele>
        <time>2020-12-20T10:22:41.917000+00:00</time>
      </trkpt>
      <trkpt lat="0" lon="0">
        <time>2020-12-20T10:22:41.935000+00:00</time>
      </trkpt>
      <trkpt lat="0" lon="0">
        <time>2020-12-20T10:22:41.944000+00:00</time>
      </trkpt>
      <trkpt lat="0" lon="0">
        <time>2020-12-20T10:22:41.948000+00:00</time>
      </trkpt>
      <trkpt lat="47.3309" lon="-1.3489">
        <ele>136</ele>
        <time>2020-12-20T10:22:42.916000+00:00</time>
      </trkpt>
      <trkpt lat="0" lon="0">
        <time>2020-12-20T10:22:42.930000+00:00</time>
      </trkpt>
      <trkpt lat="0" lon="0">
        <time>2020-12-20T10:22:42.932000+00:00</time>
      </trkpt>
      <trkpt lat="0" lon="0">
        <time>2020-12-20T10:22:42.933000+00:00</time>
      </trkpt>
      <trkpt lat="47.33092" lon="-1.34893">
        <ele>136</ele>
        <time>2020-12-20T10:22:43.922000+00:00</time>
      </trkpt>
      <trkpt lat="0" lon="0">
        <time>2020-12-20T10:22:43.934000+00:00</time>
      </trkpt>
      <trkpt lat="0" lon="0">
        <time>2020-12-20T10:22:43.939000+00:00</time>
      </trkpt>
      <trkpt lat="0" lon="0">
        <time>2020-12-20T10:22:43.942000+00:00</time>
      </trkpt>
      <trkpt lat="47.33094" lon="-1.34897">
        <ele>136</ele>
        <time>2020-12-20T10:22:44.867000+00:00</time>
      </trkpt>
      <trkpt lat="0" lon="0">
        <time>2020-12-20T10:22:44.871000+00:00</time>
      </trkpt>
      <trkpt lat="0" lon="0">
        <time>2020-12-20T10:22:44.885000+00:00</time>
      </trkpt>
      <trkpt lat="0" lon="0">
        <time>2020-12-20T10:22:44.886000+00:00</time>
      </trkpt>
      <trkpt lat="47.33096" lon="-1.349">
        <ele>136</ele>
        <time>2020-12-20T10:22:45.891000+00:00</time>
      </trkpt>
      <trkpt lat="0" lon="0">
        <time>2020-12-20T10:22:45.900000+00:00</time>
      </trkpt>
      <trkpt lat="0" lon="0">
        <time>2020-12-20T10:22:45.906000+00:00</time>
      </trkpt>
      <trkpt lat="0" lon="0">
        <time>2020-12-20T10:22:45.909000+00:00</time>
      </trkpt>
      <trkpt lat="47.33098" lon="-1.34904">
        <ele>136</ele>
        <time>2020-12-20T10:22:46.877000+00:00</time>
      </trkpt>
      <trkpt lat="0" lon="0">
        <time>2020-12-20T10:22:46.883000+00:00</time>
      </trkpt>
      <trkpt lat="0" lon="0">
        <time>2020-12-20T10:22:46.885000+00:00</time>
      </trkpt>
      <trkpt lat="0" lon="0">
        <time>2020-12-20T10:22:46.886000+00:00</time>
      </trkpt>
      <trkpt lat="47.331" lon="-1.34907">
        <ele>136</ele>
        <time>2020-12-20T10:22:47.906000+00:00</time>
      </trkpt>
      <trkpt lat="0" lon="0">
        <time>2020-12-20T10:22:47.927000+00:00</time>
      </trkpt>
      <trkpt lat="0" lon="0">
        <time>2020-12-20T10:22:47.933000+00:00</time>
      </trkpt>
      <trkpt lat="0" lon="0">
        <time>2020-12-20T10:22:47.934000+00:00</time>
      </trkpt>
      <trkpt lat="47.33102" lon="-1.34911">
        <ele>135</ele>
        <time>2020-12-20T10:22:48.883000+00:00</time>
      </trkpt>
      <trkpt lat="0" lon="0">
        <time>2020-12-20T10:22:48.885000+00:00</time>
      </trkpt>
      <trkpt lat="0" lon="0">
        <time>2020-12-20T10:22:48.886000+00:00</time>
      </trkpt>
      <trkpt lat="0" lon="0">
        <time>2020-12-20T10:22:48.887000+00:00</time>
      </trkpt>
      <trkpt lat="47.33104" lon="-1.34914">
        <ele>135</ele>
        <time>2020-12-20T10:22:49.895000+00:00</time>
      </trkpt>
      <trkpt lat="0" lon="0">
        <time>2020-12-20T10:22:49.903000+00:00</time>
      </trkpt>
      <trkpt lat="0" lon="0">
        <time>2020-12-20T10:22:49.907000+00:00</time>
      </trkpt>
      <trkpt lat="0" lon="0">
        <time>2020-12-20T10:22:49.910000+00:00</time>
      </trkpt>
      <trkpt lat="47.33106" lon="-1.34918">
        <ele>135</ele>
        <time>2020-12-20T10:22:50.907000+00:00</time>
      </trkpt>
      <trkpt lat="0" lon="0">
        <time>2020-12-20T10:22:50.923000+00:00</time>
      </trkpt>
      <trkpt lat="0" lon="0">
        <time>2020-12-20T10:22:50.928000+00:00</time>
      </trkpt>
      <trkpt lat="0" lon="0">
        <time>2020-12-20T10:22:50.930000+00:00</time>
      </trkpt>
      <trkpt lat="47.33108" lon="-1.34921">
        <ele>135</ele>
        <time>2020-12-20T10:22:51.911000+00:00</time>
      </trkpt>
      <trkpt lat="0" lon="0">
        <time>2020-12-20T10:22:51.933000+00:00</time>
      </trkpt>
      <trkpt lat="0" lon="0">
        <time>2020-12-20T10:22:51.941000+00:00</time>
      </trkpt>
      <trkpt lat="0" lon="0">
        <time>2020-12-20T10:22:51.943000+00:00</time>
      </trkpt>
      <trkpt lat="47.3311" lon="-1.34924">
        <ele>134</ele>
        <time>2020-12-20T10:22:52.889000+00:00</time>
      </trkpt>
      <trkpt lat="0" lon="0">
        <time>2020-12-20T10:22:52.895000+00:00</time>
      </trkpt>
      <trkpt lat="0" lon="0">
        <time>2020-12-20T10:22:52.898000+00:00</time>
      </trkpt>
      <trkpt lat="0" lon="0">
        <time>2020-12-20T10:22:52.899000+00:00</time>
      </trkpt>
      <trkpt lat="47.33112" lon="-1.34927">
        <ele>134</ele>
        <time>2020-12-20T10:22:53.950000+00:00</time>
      </trkpt>
      <trkpt lat="0" lon="0">
        <time>2020-12-20T10:22:53.958000+00:00</time>
      </trkpt>
      <trkpt lat="0" lon="0">
        <time>2020-12-20T10:22:53.963000+00:00</time>
      </trkpt>
      <trkpt lat="0" lon="0">
        <time>2020-12-20T10:22:53.965000+00:00</time>
      </trkpt>
      <trkpt lat="47.33114" lon="-1.3493">
        <ele>134</ele>
        <time>2020-12-20T10:22:54.902000+00:00</time>
      </trkpt>
      <trkpt lat="0" lon="0">
        <time>2020-12-20T10:22:54.907000+00:00</time>
      </trkpt>
      <trkpt lat="0" lon="0">
        <time>2020-12-20T10:22:54.912000+00:00</time>
      </trkpt>
      <trkpt lat="0" lon="0">
        <time>2020-12-20T10:22:54.915000+00:00</time>
      </trkpt>
      <trkpt lat="47.33116" lon="-1.34933">
        <ele>134</ele>
        <time>2020-12-20T10:22:55.896000+00:00</time>
      </trkpt>
      <trkpt lat="0" lon="0">
        <time>2020-12-20T10:22:55.903000+00:00</time>
      </trkpt>
      <trkpt lat="0" lon="0">
        <time>2020-12-20T10:22:55.922000+00:00</time>
      </trkpt>
      <trkpt lat="0" lon="0">
        <time>2020-12-20T10:22:55.925000+00:00</time>
      </trkpt>
      <trkpt lat="47.33119" lon="-1.34937">
        <ele>134</ele>
        <time>2020-12-20T10:22:56.920000+00:00</time>
      </trkpt>
      <trkpt lat="0" lon="0">
        <time>2020-12-20T10:22:56.926000+00:00</time>
      </trkpt>
      <trkpt lat="0" lon="0">
        <time>2020-12-20T10:22:56.931000+00:00</time>
      </trkpt>
      <trkpt lat="0" lon="0">
        <time>2020-12-20T10:22:56.934000+00:00</time>
      </trkpt>
      <trkpt lat="47.33121" lon="-1.3494">
        <ele>134</ele>
        <time>2020-12-20T10:22:57.893000+00:00</time>
      </trkpt>
      <trkpt lat="0" lon="0">
        <time>2020-12-20T10:22:57.911000+00:00</time>
      </trkpt>
      <trkpt lat="0" lon="0">
        <time>2020-12-20T10:22:57.915000+00:00</time>
      </trkpt>
      <trkpt lat="0" lon="0">
        <time>2020-12-20T10:22:57.919000+00:00</time>
      </trkpt>
      <trkpt lat="47.33123" lon="-1.34943">
        <ele>134</ele>
        <time>2020-12-20T10:22:58.917000+00:00</time>
      </trkpt>
      <trkpt lat="0" lon="0">
        <time>2020-12-20T10:22:58.923000+00:00</time>
      </trkpt>
      <trkpt lat="0" lon="0">
        <time>2020-12-20T10:22:58.927000+00:00</time>
      </trkpt>
      <trkpt lat="0" lon="0">
        <time>2020-12-20T10:22:58.930000+00:00</time>
      </trkpt>
      <trkpt lat="47.33125" lon="-1.34946">
        <ele>134</ele>
        <time>2020-12-20T10:22:59.915000+00:00</time>
      </trkpt>
      <trkpt lat="0" lon="0">
        <time>2020-12-20T10:22:59.923000+00:00</time>
      </trkpt>
      <trkpt lat="0" lon="0">
        <time>2020-12-20T10:22:59.927000+00:00</time>
      </trkpt>
      <trkpt lat="0" lon="0">
        <time>2020-12-20T10:22:59.935000+00:00</time>
      </trkpt>
      <trkpt lat="47.33127" lon="-1.34948">
        <ele>134</ele>
        <time>2020-12-20T10:23:00.939000+00:00</time>
      </trkpt>
      <trkpt lat="0" lon="0">
        <time>2020-12-20T10:23:00.946000+00:00</time>
      </trkpt>
      <trkpt lat="0" lon="0">
        <time>2020-12-20T10:23:00.953000+00:00</time>
      </trkpt>
      <trkpt lat="0" lon="0">
        <time>2020-12-20T10:23:00.955000+00:00</time>
      </trkpt>
      <trkpt lat="47.33129" lon="-1.3495">
        <ele>134</ele>
        <time>2020-12-20T10:23:01.928000+00:00</time>
      </trkpt>
      <trkpt lat="0" lon="0">
        <time>2020-12-20T10:23:01.946000+00:00</time>
      </trkpt>
      <trkpt lat="0" lon="0">
        <time>2020-12-20T10:23:01.951000+00:00</time>
      </trkpt>
      <trkpt lat="0" lon="0">
        <time>2020-12-20T10:23:01.954000+00:00</time>
      </trkpt>
      <trkpt lat="47.3313" lon="-1.34953">
        <ele>134</ele>
        <time>2020-12-20T10:23:02.959000+00:00</time>
      </trkpt>
      <trkpt lat="0" lon="0">
        <time>2020-12-20T10:23:02.965000+00:00</time>
      </trkpt>
      <trkpt lat="0" lon="0">
        <time>2020-12-20T10:23:02.974000+00:00</time>
      </trkpt>
      <trkpt lat="0" lon="0">
        <time>2020-12-20T10:23:02.977000+00:00</time>
      </trkpt>
      <trkpt lat="47.33132" lon="-1.34955">
        <ele>135</ele>
        <time>2020-12-20T10:23:03.948000+00:00</time>
      </trkpt>
      <trkpt lat="0" lon="0">
        <time>2020-12-20T10:23:03.955000+00:00</time>
      </trkpt>
      <trkpt lat="0" lon="0">
        <time>2020-12-20T10:23:03.962000+00:00</time>
      </trkpt>
      <trkpt lat="0" lon="0">
        <time>2020-12-20T10:23:03.969000+00:00</time>
      </trkpt>
      <trkpt lat="47.33135" lon="-1.34958">
        <ele>135</ele>
        <time>2020-12-20T10:23:04.897000+00:00</time>
      </trkpt>
      <trkpt lat="0" lon="0">
        <time>2020-12-20T10:23:04.904000+00:00</time>
      </trkpt>
      <trkpt lat="0" lon="0">
        <time>2020-12-20T10:23:04.910000+00:00</time>
      </trkpt>
      <trkpt lat="0" lon="0">
        <time>2020-12-20T10:23:04.914000+00:00</time>
      </trkpt>
      <trkpt lat="47.33137" lon="-1.34962">
        <ele>136</ele>
        <time>2020-12-20T10:23:05.949000+00:00</time>
      </trkpt>
      <trkpt lat="0" lon="0">
        <time>2020-12-20T10:23:05.955000+00:00</time>
      </trkpt>
      <trkpt lat="0" lon="0">
        <time>2020-12-20T10:23:05.960000+00:00</time>
      </trkpt>
      <trkpt lat="0" lon="0">
        <time>2020-12-20T10:23:05.963000+00:00</time>
      </trkpt>
      <trkpt lat="47.3314" lon="-1.34965">
        <ele>136</ele>
        <time>2020-12-20T10:23:06.890000+00:00</time>
      </trkpt>
      <trkpt lat="0" lon="0">
        <time>2020-12-20T10:23:06.914000+00:00</time>
      </trkpt>
      <trkpt lat="0" lon="0">
        <time>2020-12-20T10:23:06.918000+00:00</time>
      </trkpt>
      <trkpt lat="0" lon="0">
        <time>2020-12-20T10:23:06.919000+00:00</time>
      </trkpt>
      <trkpt lat="47.33143" lon="-1.34969">
        <ele>136</ele>
        <time>2020-12-20T10:23:07.894000+00:00</time>
      </trkpt>
      <trkpt lat="0" lon="0">
        <time>2020-12-20T10:23:07.904000+00:00</time>
      </trkpt>
      <trkpt lat="0" lon="0">
        <time>2020-12-20T10:23:07.913000+00:00</time>
      </trkpt>
      <trkpt lat="0" lon="0">
        <time>2020-12-20T10:23:07.917000+00:00</time>
      </trkpt>
      <trkpt lat="47.33146" lon="-1.34973">
        <ele>136</ele>
        <time>2020-12-20T10:23:08.918000+00:00</time>
      </trkpt>
      <trkpt lat="0" lon="0">
        <time>2020-12-20T10:23:08.930000+00:00</time>
      </trkpt>
      <trkpt lat="0" lon="0">
        <time>2020-12-20T10:23:08.945000+00:00</time>
      </trkpt>
      <trkpt lat="0" lon="0">
        <time>2020-12-20T10:23:08.948000+00:00</time>
      </trkpt>
      <trkpt lat="47.3315" lon="-1.34978">
        <ele>135</ele>
        <time>2020-12-20T10:23:09.921000+00:00</time>
      </trkpt>
      <trkpt lat="0" lon="0">
        <time>2020-12-20T10:23:09.928000+00:00</time>
      </trkpt>
      <trkpt lat="0" lon="0">
        <time>2020-12-20T10:23:09.936000+00:00</time>
      </trkpt>
      <trkpt lat="0" lon="0">
        <time>2020-12-20T10:23:09.939000+00:00</time>
      </trkpt>
      <trkpt lat="47.33153" lon="-1.34983">
        <ele>135</ele>
        <time>2020-12-20T10:23:10.919000+00:00</time>
      </trkpt>
      <trkpt lat="0" lon="0">
        <time>2020-12-20T10:23:10.937000+00:00</time>
      </trkpt>
      <trkpt lat="0" lon="0">
        <time>2020-12-20T10:23:10.945000+00:00</time>
      </trkpt>
      <trkpt lat="0" lon="0">
        <time>2020-12-20T10:23:10.947000+00:00</time>
      </trkpt>
      <trkpt lat="47.33156" lon="-1.34987">
        <ele>135</ele>
        <time>2020-12-20T10:23:11.934000+00:00</time>
      </trkpt>
      <trkpt lat="0" lon="0">
        <time>2020-12-20T10:23:11.936000+00:00</time>
      </trkpt>
      <trkpt lat="0" lon="0">
        <time>2020-12-20T10:23:11.939000+00:00</time>
      </trkpt>
      <trkpt lat="0" lon="0">
        <time>2020-12-20T10:23:11.940000+00:00</time>
      </trkpt>
      <trkpt lat="47.3316" lon="-1.34992">
        <ele>135</ele>
        <time>2020-12-20T10:23:12.914000+00:00</time>
      </trkpt>
      <trkpt lat="0" lon="0">
        <time>2020-12-20T10:23:12.918000+00:00</time>
      </trkpt>
      <trkpt lat="0" lon="0">
        <time>2020-12-20T10:23:12.922000+00:00</time>
      </trkpt>
      <trkpt lat="0" lon="0">
        <time>2020-12-20T10:23:12.925000+00:00</time>
      </trkpt>
      <trkpt lat="47.33164" lon="-1.34998">
        <ele>136</ele>
        <time>2020-12-20T10:23:13.905000+00:00</time>
      </trkpt>
      <trkpt lat="0" lon="0">
        <time>2020-12-20T10:23:13.920000+00:00</time>
      </trkpt>
      <trkpt lat="0" lon="0">
        <time>2020-12-20T10:23:13.924000+00:00</time>
      </trkpt>
      <trkpt lat="0" lon="0">
        <time>2020-12-20T10:23:13.926000+00:00</time>
      </trkpt>
      <trkpt lat="47.33167" lon="-1.35002">
        <ele>136</ele>
        <time>2020-12-20T10:23:14.913000+00:00</time>
      </trkpt>
      <trkpt lat="0" lon="0">
        <time>2020-12-20T10:23:14.926000+00:00</time>
      </trkpt>
      <trkpt lat="0" lon="0">
        <time>2020-12-20T10:23:14.929000+00:00</time>
      </trkpt>
      <trkpt lat="0" lon="0">
        <time>2020-12-20T10:23:14.933000+00:00</time>
      </trkpt>
      <trkpt lat="47.33171" lon="-1.35007">
        <ele>136</ele>
        <time>2020-12-20T10:23:15.874000+00:00</time>
      </trkpt>
      <trkpt lat="0" lon="0">
        <time>2020-12-20T10:23:15.885000+00:00</time>
      </trkpt>
      <trkpt lat="0" lon="0">
        <time>2020-12-20T10:23:15.891000+00:00</time>
      </trkpt>
      <trkpt lat="0" lon="0">
        <time>2020-12-20T10:23:15.893000+00:00</time>
      </trkpt>
      <trkpt lat="47.33174" lon="-1.35012">
        <ele>136</ele>
        <time>2020-12-20T10:23:16.933000+00:00</time>
      </trkpt>
      <trkpt lat="0" lon="0">
        <time>2020-12-20T10:23:16.943000+00:00</time>
      </trkpt>
      <trkpt lat="0" lon="0">
        <time>2020-12-20T10:23:16.947000+00:00</time>
      </trkpt>
      <trkpt lat="0" lon="0">
        <time>2020-12-20T10:23:16.950000+00:00</time>
      </trkpt>
      <trkpt lat="47.33178" lon="-1.35016">
        <ele>136</ele>
        <time>2020-12-20T10:23:17.910000+00:00</time>
      </trkpt>
      <trkpt lat="0" lon="0">
        <time>2020-12-20T10:23:17.927000+00:00</time>
      </trkpt>
      <trkpt lat="0" lon="0">
        <time>2020-12-20T10:23:17.931000+00:00</time>
      </trkpt>
      <trkpt lat="0" lon="0">
        <time>2020-12-20T10:23:17.934000+00:00</time>
      </trkpt>
      <trkpt lat="47.33181" lon="-1.3502">
        <ele>136</ele>
        <time>2020-12-20T10:23:18.950000+00:00</time>
      </trkpt>
      <trkpt lat="0" lon="0">
        <time>2020-12-20T10:23:18.971000+00:00</time>
      </trkpt>
      <trkpt lat="0" lon="0">
        <time>2020-12-20T10:23:18.979000+00:00</time>
      </trkpt>
      <trkpt lat="0" lon="0">
        <time>2020-12-20T10:23:18.981000+00:00</time>
      </trkpt>
      <trkpt lat="47.33184" lon="-1.35024">
        <ele>136</ele>
        <time>2020-12-20T10:23:19.893000+00:00</time>
      </trkpt>
      <trkpt lat="0" lon="0">
        <time>2020-12-20T10:23:19.904000+00:00</time>
      </trkpt>
      <trkpt lat="0" lon="0">
        <time>2020-12-20T10:23:19.921000+00:00</time>
      </trkpt>
      <trkpt lat="0" lon="0">
        <time>2020-12-20T10:23:19.928000+00:00</time>
      </trkpt>
      <trkpt lat="47.33187" lon="-1.35028">
        <ele>136</ele>
        <time>2020-12-20T10:23:20.923000+00:00</time>
      </trkpt>
      <trkpt lat="0" lon="0">
        <time>2020-12-20T10:23:20.935000+00:00</time>
      </trkpt>
      <trkpt lat="0" lon="0">
        <time>2020-12-20T10:23:20.947000+00:00</time>
      </trkpt>
      <trkpt lat="0" lon="0">
        <time>2020-12-20T10:23:20.949000+00:00</time>
      </trkpt>
      <trkpt lat="47.33189" lon="-1.35032">
        <ele>136</ele>
        <time>2020-12-20T10:23:21.892000+00:00</time>
      </trkpt>
      <trkpt lat="0" lon="0">
        <time>2020-12-20T10:23:21.910000+00:00</time>
      </trkpt>
      <trkpt lat="0" lon="0">
        <time>2020-12-20T10:23:21.915000+00:00</time>
      </trkpt>
      <trkpt lat="0" lon="0">
        <time>2020-12-20T10:23:21.919000+00:00</time>
      </trkpt>
      <trkpt lat="47.33191" lon="-1.35035">
        <ele>136</ele>
        <time>2020-12-20T10:23:22.890000+00:00</time>
      </trkpt>
      <trkpt lat="0" lon="0">
        <time>2020-12-20T10:23:22.900000+00:00</time>
      </trkpt>
      <trkpt lat="0" lon="0">
        <time>2020-12-20T10:23:22.905000+00:00</time>
      </trkpt>
      <trkpt lat="0" lon="0">
        <time>2020-12-20T10:23:22.908000+00:00</time>
      </trkpt>
      <trkpt lat="47.33192" lon="-1.35038">
        <ele>136</ele>
        <time>2020-12-20T10:23:23.871000+00:00</time>
      </trkpt>
      <trkpt lat="0" lon="0">
        <time>2020-12-20T10:23:23.875000+00:00</time>
      </trkpt>
      <trkpt lat="0" lon="0">
        <time>2020-12-20T10:23:23.886000+00:00</time>
      </trkpt>
      <trkpt lat="0" lon="0">
        <time>2020-12-20T10:23:23.889000+00:00</time>
      </trkpt>
      <trkpt lat="47.33192" lon="-1.35041">
        <ele>136</ele>
        <time>2020-12-20T10:23:24.879000+00:00</time>
      </trkpt>
      <trkpt lat="0" lon="0">
        <time>2020-12-20T10:23:24.884000+00:00</time>
      </trkpt>
      <trkpt lat="0" lon="0">
        <time>2020-12-20T10:23:24.896000+00:00</time>
      </trkpt>
      <trkpt lat="0" lon="0">
        <time>2020-12-20T10:23:24.899000+00:00</time>
      </trkpt>
      <trkpt lat="47.33192" lon="-1.35043">
        <ele>136</ele>
        <time>2020-12-20T10:23:25.873000+00:00</time>
      </trkpt>
      <trkpt lat="0" lon="0">
        <time>2020-12-20T10:23:25.878000+00:00</time>
      </trkpt>
      <trkpt lat="0" lon="0">
        <time>2020-12-20T10:23:25.890000+00:00</time>
      </trkpt>
      <trkpt lat="0" lon="0">
        <time>2020-12-20T10:23:25.893000+00:00</time>
      </trkpt>
      <trkpt lat="47.33192" lon="-1.35046">
        <ele>136</ele>
        <time>2020-12-20T10:23:26.888000+00:00</time>
      </trkpt>
      <trkpt lat="0" lon="0">
        <time>2020-12-20T10:23:26.904000+00:00</time>
      </trkpt>
      <trkpt lat="0" lon="0">
        <time>2020-12-20T10:23:26.915000+00:00</time>
      </trkpt>
      <trkpt lat="0" lon="0">
        <time>2020-12-20T10:23:26.923000+00:00</time>
      </trkpt>
      <trkpt lat="47.3319" lon="-1.35049">
        <ele>136</ele>
        <time>2020-12-20T10:23:27.909000+00:00</time>
      </trkpt>
      <trkpt lat="0" lon="0">
        <time>2020-12-20T10:23:27.926000+00:00</time>
      </trkpt>
      <trkpt lat="0" lon="0">
        <time>2020-12-20T10:23:27.930000+00:00</time>
      </trkpt>
      <trkpt lat="0" lon="0">
        <time>2020-12-20T10:23:27.932000+00:00</time>
      </trkpt>
      <trkpt lat="47.33189" lon="-1.35051">
        <ele>136</ele>
        <time>2020-12-20T10:23:28.915000+00:00</time>
      </trkpt>
      <trkpt lat="0" lon="0">
        <time>2020-12-20T10:23:28.925000+00:00</time>
      </trkpt>
      <trkpt lat="0" lon="0">
        <time>2020-12-20T10:23:28.935000+00:00</time>
      </trkpt>
      <trkpt lat="0" lon="0">
        <time>2020-12-20T10:23:28.937000+00:00</time>
      </trkpt>
      <trkpt lat="47.33186" lon="-1.35054">
        <ele>136</ele>
        <time>2020-12-20T10:23:29.962000+00:00</time>
      </trkpt>
      <trkpt lat="0" lon="0">
        <time>2020-12-20T10:23:29.970000+00:00</time>
      </trkpt>
      <trkpt lat="0" lon="0">
        <time>2020-12-20T10:23:29.975000+00:00</time>
      </trkpt>
      <trkpt lat="0" lon="0">
        <time>2020-12-20T10:23:29.978000+00:00</time>
      </trkpt>
      <trkpt lat="47.33184" lon="-1.35057">
        <ele>136</ele>
        <time>2020-12-20T10:23:30.916000+00:00</time>
      </trkpt>
      <trkpt lat="0" lon="0">
        <time>2020-12-20T10:23:30.929000+00:00</time>
      </trkpt>
      <trkpt lat="0" lon="0">
        <time>2020-12-20T10:23:30.933000+00:00</time>
      </trkpt>
      <trkpt lat="0" lon="0">
        <time>2020-12-20T10:23:30.935000+00:00</time>
      </trkpt>
      <trkpt lat="47.33182" lon="-1.3506">
        <ele>136</ele>
        <time>2020-12-20T10:23:31.922000+00:00</time>
      </trkpt>
      <trkpt lat="0" lon="0">
        <time>2020-12-20T10:23:31.929000+00:00</time>
      </trkpt>
      <trkpt lat="0" lon="0">
        <time>2020-12-20T10:23:31.934000+00:00</time>
      </trkpt>
      <trkpt lat="0" lon="0">
        <time>2020-12-20T10:23:31.938000+00:00</time>
      </trkpt>
      <trkpt lat="47.33179" lon="-1.35063">
        <ele>136</ele>
        <time>2020-12-20T10:23:32.935000+00:00</time>
      </trkpt>
      <trkpt lat="0" lon="0">
        <time>2020-12-20T10:23:32.948000+00:00</time>
      </trkpt>
      <trkpt lat="0" lon="0">
        <time>2020-12-20T10:23:32.964000+00:00</time>
      </trkpt>
      <trkpt lat="0" lon="0">
        <time>2020-12-20T10:23:32.968000+00:00</time>
      </trkpt>
      <trkpt lat="47.33176" lon="-1.35066">
        <ele>136</ele>
        <time>2020-12-20T10:23:33.872000+00:00</time>
      </trkpt>
      <trkpt lat="0" lon="0">
        <time>2020-12-20T10:23:33.879000+00:00</time>
      </trkpt>
      <trkpt lat="0" lon="0">
        <time>2020-12-20T10:23:33.883000+00:00</time>
      </trkpt>
      <trkpt lat="0" lon="0">
        <time>2020-12-20T10:23:33.888000+00:00</time>
      </trkpt>
      <trkpt lat="47.33173" lon="-1.35069">
        <ele>135</ele>
        <time>2020-12-20T10:23:34.910000+00:00</time>
      </trkpt>
      <trkpt lat="0" lon="0">
        <time>2020-12-20T10:23:34.921000+00:00</time>
      </trkpt>
      <trkpt lat="0" lon="0">
        <time>2020-12-20T10:23:34.925000+00:00</time>
      </trkpt>
      <trkpt lat="0" lon="0">
        <time>2020-12-20T10:23:34.926000+00:00</time>
      </trkpt>
      <trkpt lat="47.3317" lon="-1.35072">
        <ele>135</ele>
        <time>2020-12-20T10:23:35.925000+00:00</time>
      </trkpt>
      <trkpt lat="0" lon="0">
        <time>2020-12-20T10:23:35.941000+00:00</time>
      </trkpt>
      <trkpt lat="0" lon="0">
        <time>2020-12-20T10:23:35.945000+00:00</time>
      </trkpt>
      <trkpt lat="0" lon="0">
        <time>2020-12-20T10:23:35.948000+00:00</time>
      </trkpt>
      <trkpt lat="47.33167" lon="-1.35075">
        <ele>135</ele>
        <time>2020-12-20T10:23:36.918000+00:00</time>
      </trkpt>
      <trkpt lat="0" lon="0">
        <time>2020-12-20T10:23:36.932000+00:00</time>
      </trkpt>
      <trkpt lat="0" lon="0">
        <time>2020-12-20T10:23:36.936000+00:00</time>
      </trkpt>
      <trkpt lat="0" lon="0">
        <time>2020-12-20T10:23:36.938000+00:00</time>
      </trkpt>
      <trkpt lat="47.33164" lon="-1.35078">
        <ele>134</ele>
        <time>2020-12-20T10:23:37.900000+00:00</time>
      </trkpt>
      <trkpt lat="0" lon="0">
        <time>2020-12-20T10:23:37.912000+00:00</time>
      </trkpt>
      <trkpt lat="0" lon="0">
        <time>2020-12-20T10:23:37.917000+00:00</time>
      </trkpt>
      <trkpt lat="0" lon="0">
        <time>2020-12-20T10:23:37.923000+00:00</time>
      </trkpt>
      <trkpt lat="47.33161" lon="-1.35081">
        <ele>134</ele>
        <time>2020-12-20T10:23:38.890000+00:00</time>
      </trkpt>
      <trkpt lat="0" lon="0">
        <time>2020-12-20T10:23:38.902000+00:00</time>
      </trkpt>
      <trkpt lat="0" lon="0">
        <time>2020-12-20T10:23:38.907000+00:00</time>
      </trkpt>
      <trkpt lat="0" lon="0">
        <time>2020-12-20T10:23:38.909000+00:00</time>
      </trkpt>
      <trkpt lat="47.33158" lon="-1.35083">
        <ele>134</ele>
        <time>2020-12-20T10:23:39.891000+00:00</time>
      </trkpt>
      <trkpt lat="0" lon="0">
        <time>2020-12-20T10:23:39.899000+00:00</time>
      </trkpt>
      <trkpt lat="0" lon="0">
        <time>2020-12-20T10:23:39.907000+00:00</time>
      </trkpt>
      <trkpt lat="0" lon="0">
        <time>2020-12-20T10:23:39.909000+00:00</time>
      </trkpt>
      <trkpt lat="47.33155" lon="-1.35086">
        <ele>134</ele>
        <time>2020-12-20T10:23:40.890000+00:00</time>
      </trkpt>
      <trkpt lat="0" lon="0">
        <time>2020-12-20T10:23:40.893000+00:00</time>
      </trkpt>
      <trkpt lat="0" lon="0">
        <time>2020-12-20T10:23:40.895000+00:00</time>
      </trkpt>
      <trkpt lat="0" lon="0">
        <time>2020-12-20T10:23:40.896000+00:00</time>
      </trkpt>
      <trkpt lat="47.33153" lon="-1.35088">
        <ele>133</ele>
        <time>2020-12-20T10:23:41.935000+00:00</time>
      </trkpt>
      <trkpt lat="0" lon="0">
        <time>2020-12-20T10:23:41.944000+00:00</time>
      </trkpt>
      <trkpt lat="0" lon="0">
        <time>2020-12-20T10:23:41.949000+00:00</time>
      </trkpt>
      <trkpt lat="0" lon="0">
        <time>2020-12-20T10:23:41.953000+00:00</time>
      </trkpt>
      <trkpt lat="47.3315" lon="-1.3509">
        <ele>133</ele>
        <time>2020-12-20T10:23:42.958000+00:00</time>
      </trkpt>
      <trkpt lat="0" lon="0">
        <time>2020-12-20T10:23:42.975000+00:00</time>
      </trkpt>
      <trkpt lat="0" lon="0">
        <time>2020-12-20T10:23:42.980000+00:00</time>
      </trkpt>
      <trkpt lat="0" lon="0">
        <time>2020-12-20T10:23:42.982000+00:00</time>
      </trkpt>
      <trkpt lat="47.33147" lon="-1.35092">
        <ele>133</ele>
        <time>2020-12-20T10:23:43.903000+00:00</time>
      </trkpt>
      <trkpt lat="0" lon="0">
        <time>2020-12-20T10:23:43.912000+00:00</time>
      </trkpt>
      <trkpt lat="0" lon="0">
        <time>2020-12-20T10:23:43.916000+00:00</time>
      </trkpt>
      <trkpt lat="0" lon="0">
        <time>2020-12-20T10:23:43.920000+00:00</time>
      </trkpt>
      <trkpt lat="47.33145" lon="-1.35094">
        <ele>132</ele>
        <time>2020-12-20T10:23:44.884000+00:00</time>
      </trkpt>
      <trkpt lat="0" lon="0">
        <time>2020-12-20T10:23:44.892000+00:00</time>
      </trkpt>
      <trkpt lat="0" lon="0">
        <time>2020-12-20T10:23:44.894000+00:00</time>
      </trkpt>
      <trkpt lat="0" lon="0">
        <time>2020-12-20T10:23:44.897000+00:00</time>
      </trkpt>
      <trkpt lat="47.33142" lon="-1.35096">
        <ele>132</ele>
        <time>2020-12-20T10:23:45.897000+00:00</time>
      </trkpt>
      <trkpt lat="0" lon="0">
        <time>2020-12-20T10:23:45.905000+00:00</time>
      </trkpt>
      <trkpt lat="0" lon="0">
        <time>2020-12-20T10:23:45.911000+00:00</time>
      </trkpt>
      <trkpt lat="0" lon="0">
        <time>2020-12-20T10:23:45.917000+00:00</time>
      </trkpt>
      <trkpt lat="47.3314" lon="-1.35097">
        <ele>132</ele>
        <time>2020-12-20T10:23:46.913000+00:00</time>
      </trkpt>
      <trkpt lat="0" lon="0">
        <time>2020-12-20T10:23:46.915000+00:00</time>
      </trkpt>
      <trkpt lat="0" lon="0">
        <time>2020-12-20T10:23:46.917000+00:00</time>
      </trkpt>
      <trkpt lat="0" lon="0">
        <time>2020-12-20T10:23:46.918000+00:00</time>
      </trkpt>
      <trkpt lat="47.33138" lon="-1.35099">
        <ele>132</ele>
        <time>2020-12-20T10:23:47.923000+00:00</time>
      </trkpt>
      <trkpt lat="0" lon="0">
        <time>2020-12-20T10:23:47.930000+00:00</time>
      </trkpt>
      <trkpt lat="0" lon="0">
        <time>2020-12-20T10:23:47.937000+00:00</time>
      </trkpt>
      <trkpt lat="0" lon="0">
        <time>2020-12-20T10:23:47.940000+00:00</time>
      </trkpt>
      <trkpt lat="47.33136" lon="-1.35101">
        <ele>132</ele>
        <time>2020-12-20T10:23:48.909000+00:00</time>
      </trkpt>
      <trkpt lat="0" lon="0">
        <time>2020-12-20T10:23:48.917000+00:00</time>
      </trkpt>
      <trkpt lat="0" lon="0">
        <time>2020-12-20T10:23:48.923000+00:00</time>
      </trkpt>
      <trkpt lat="0" lon="0">
        <time>2020-12-20T10:23:48.927000+00:00</time>
      </trkpt>
      <trkpt lat="47.33135" lon="-1.35102">
        <ele>132</ele>
        <time>2020-12-20T10:23:49.894000+00:00</time>
      </trkpt>
      <trkpt lat="0" lon="0">
        <time>2020-12-20T10:23:49.916000+00:00</time>
      </trkpt>
      <trkpt lat="0" lon="0">
        <time>2020-12-20T10:23:49.920000+00:00</time>
      </trkpt>
      <trkpt lat="0" lon="0">
        <time>2020-12-20T10:23:49.922000+00:00</time>
      </trkpt>
      <trkpt lat="47.33134" lon="-1.35104">
        <ele>132</ele>
        <time>2020-12-20T10:23:50.886000+00:00</time>
      </trkpt>
      <trkpt lat="0" lon="0">
        <time>2020-12-20T10:23:50.905000+00:00</time>
      </trkpt>
      <trkpt lat="0" lon="0">
        <time>2020-12-20T10:23:50.911000+00:00</time>
      </trkpt>
      <trkpt lat="0" lon="0">
        <time>2020-12-20T10:23:50.913000+00:00</time>
      </trkpt>
      <trkpt lat="47.33134" lon="-1.35106">
        <ele>132</ele>
        <time>2020-12-20T10:23:51.903000+00:00</time>
      </trkpt>
      <trkpt lat="0" lon="0">
        <time>2020-12-20T10:23:51.913000+00:00</time>
      </trkpt>
      <trkpt lat="0" lon="0">
        <time>2020-12-20T10:23:51.917000+00:00</time>
      </trkpt>
      <trkpt lat="0" lon="0">
        <time>2020-12-20T10:23:51.919000+00:00</time>
      </trkpt>
      <trkpt lat="47.33133" lon="-1.35108">
        <ele>132</ele>
        <time>2020-12-20T10:23:52.869000+00:00</time>
      </trkpt>
      <trkpt lat="0" lon="0">
        <time>2020-12-20T10:23:52.883000+00:00</time>
      </trkpt>
      <trkpt lat="0" lon="0">
        <time>2020-12-20T10:23:52.887000+00:00</time>
      </trkpt>
      <trkpt lat="0" lon="0">
        <time>2020-12-20T10:23:52.890000+00:00</time>
      </trkpt>
      <trkpt lat="47.33133" lon="-1.35111">
        <ele>132</ele>
        <time>2020-12-20T10:23:53.925000+00:00</time>
      </trkpt>
      <trkpt lat="0" lon="0">
        <time>2020-12-20T10:23:53.940000+00:00</time>
      </trkpt>
      <trkpt lat="0" lon="0">
        <time>2020-12-20T10:23:53.945000+00:00</time>
      </trkpt>
      <trkpt lat="0" lon="0">
        <time>2020-12-20T10:23:53.947000+00:00</time>
      </trkpt>
      <trkpt lat="47.33134" lon="-1.35113">
        <ele>132</ele>
        <time>2020-12-20T10:23:54.912000+00:00</time>
      </trkpt>
      <trkpt lat="0" lon="0">
        <time>2020-12-20T10:23:54.925000+00:00</time>
      </trkpt>
      <trkpt lat="0" lon="0">
        <time>2020-12-20T10:23:54.931000+00:00</time>
      </trkpt>
      <trkpt lat="0" lon="0">
        <time>2020-12-20T10:23:54.934000+00:00</time>
      </trkpt>
      <trkpt lat="47.33135" lon="-1.35116">
        <ele>132</ele>
        <time>2020-12-20T10:23:55.883000+00:00</time>
      </trkpt>
      <trkpt lat="0" lon="0">
        <time>2020-12-20T10:23:55.899000+00:00</time>
      </trkpt>
      <trkpt lat="0" lon="0">
        <time>2020-12-20T10:23:55.904000+00:00</time>
      </trkpt>
      <trkpt lat="0" lon="0">
        <time>2020-12-20T10:23:55.906000+00:00</time>
      </trkpt>
      <trkpt lat="47.33136" lon="-1.35118">
        <ele>132</ele>
        <time>2020-12-20T10:23:56.906000+00:00</time>
      </trkpt>
      <trkpt lat="0" lon="0">
        <time>2020-12-20T10:23:56.930000+00:00</time>
      </trkpt>
      <trkpt lat="0" lon="0">
        <time>2020-12-20T10:23:56.941000+00:00</time>
      </trkpt>
      <trkpt lat="0" lon="0">
        <time>2020-12-20T10:23:56.943000+00:00</time>
      </trkpt>
      <trkpt lat="47.33137" lon="-1.35121">
        <ele>132</ele>
        <time>2020-12-20T10:23:57.914000+00:00</time>
      </trkpt>
      <trkpt lat="0" lon="0">
        <time>2020-12-20T10:23:57.936000+00:00</time>
      </trkpt>
      <trkpt lat="0" lon="0">
        <time>2020-12-20T10:23:57.940000+00:00</time>
      </trkpt>
      <trkpt lat="0" lon="0">
        <time>2020-12-20T10:23:57.942000+00:00</time>
      </trkpt>
      <trkpt lat="47.33138" lon="-1.35124">
        <ele>132</ele>
        <time>2020-12-20T10:23:58.906000+00:00</time>
      </trkpt>
      <trkpt lat="0" lon="0">
        <time>2020-12-20T10:23:58.927000+00:00</time>
      </trkpt>
      <trkpt lat="0" lon="0">
        <time>2020-12-20T10:23:58.934000+00:00</time>
      </trkpt>
      <trkpt lat="0" lon="0">
        <time>2020-12-20T10:23:58.935000+00:00</time>
      </trkpt>
      <trkpt lat="47.33139" lon="-1.35126">
        <ele>132</ele>
        <time>2020-12-20T10:23:59.921000+00:00</time>
      </trkpt>
      <trkpt lat="0" lon="0">
        <time>2020-12-20T10:23:59.930000+00:00</time>
      </trkpt>
      <trkpt lat="0" lon="0">
        <time>2020-12-20T10:23:59.936000+00:00</time>
      </trkpt>
      <trkpt lat="0" lon="0">
        <time>2020-12-20T10:23:59.939000+00:00</time>
      </trkpt>
      <trkpt lat="47.33141" lon="-1.35129">
        <ele>132</ele>
        <time>2020-12-20T10:24:00.947000+00:00</time>
      </trkpt>
      <trkpt lat="0" lon="0">
        <time>2020-12-20T10:24:00.959000+00:00</time>
      </trkpt>
      <trkpt lat="0" lon="0">
        <time>2020-12-20T10:24:00.969000+00:00</time>
      </trkpt>
      <trkpt lat="0" lon="0">
        <time>2020-12-20T10:24:00.971000+00:00</time>
      </trkpt>
      <trkpt lat="47.33142" lon="-1.35132">
        <ele>133</ele>
        <time>2020-12-20T10:24:01.932000+00:00</time>
      </trkpt>
      <trkpt lat="0" lon="0">
        <time>2020-12-20T10:24:01.943000+00:00</time>
      </trkpt>
      <trkpt lat="0" lon="0">
        <time>2020-12-20T10:24:01.949000+00:00</time>
      </trkpt>
      <trkpt lat="0" lon="0">
        <time>2020-12-20T10:24:01.951000+00:00</time>
      </trkpt>
      <trkpt lat="47.33144" lon="-1.35135">
        <ele>133</ele>
        <time>2020-12-20T10:24:02.934000+00:00</time>
      </trkpt>
      <trkpt lat="0" lon="0">
        <time>2020-12-20T10:24:02.944000+00:00</time>
      </trkpt>
      <trkpt lat="0" lon="0">
        <time>2020-12-20T10:24:02.949000+00:00</time>
      </trkpt>
      <trkpt lat="0" lon="0">
        <time>2020-12-20T10:24:02.952000+00:00</time>
      </trkpt>
      <trkpt lat="47.33146" lon="-1.35139">
        <ele>133</ele>
        <time>2020-12-20T10:24:03.942000+00:00</time>
      </trkpt>
      <trkpt lat="0" lon="0">
        <time>2020-12-20T10:24:03.967000+00:00</time>
      </trkpt>
      <trkpt lat="0" lon="0">
        <time>2020-12-20T10:24:03.973000+00:00</time>
      </trkpt>
      <trkpt lat="0" lon="0">
        <time>2020-12-20T10:24:03.981000+00:00</time>
      </trkpt>
      <trkpt lat="47.33147" lon="-1.35142">
        <ele>133</ele>
        <time>2020-12-20T10:24:04.895000+00:00</time>
      </trkpt>
      <trkpt lat="0" lon="0">
        <time>2020-12-20T10:24:04.909000+00:00</time>
      </trkpt>
      <trkpt lat="0" lon="0">
        <time>2020-12-20T10:24:04.918000+00:00</time>
      </trkpt>
      <trkpt lat="0" lon="0">
        <time>2020-12-20T10:24:04.920000+00:00</time>
      </trkpt>
      <trkpt lat="47.33149" lon="-1.35146">
        <ele>133</ele>
        <time>2020-12-20T10:24:05.921000+00:00</time>
      </trkpt>
      <trkpt lat="0" lon="0">
        <time>2020-12-20T10:24:05.943000+00:00</time>
      </trkpt>
      <trkpt lat="0" lon="0">
        <time>2020-12-20T10:24:05.947000+00:00</time>
      </trkpt>
      <trkpt lat="0" lon="0">
        <time>2020-12-20T10:24:05.949000+00:00</time>
      </trkpt>
      <trkpt lat="47.33151" lon="-1.3515">
        <ele>133</ele>
        <time>2020-12-20T10:24:06.932000+00:00</time>
      </trkpt>
      <trkpt lat="0" lon="0">
        <time>2020-12-20T10:24:06.943000+00:00</time>
      </trkpt>
      <trkpt lat="0" lon="0">
        <time>2020-12-20T10:24:06.947000+00:00</time>
      </trkpt>
      <trkpt lat="0" lon="0">
        <time>2020-12-20T10:24:06.949000+00:00</time>
      </trkpt>
      <trkpt lat="47.33152" lon="-1.35154">
        <ele>133</ele>
        <time>2020-12-20T10:24:07.945000+00:00</time>
      </trkpt>
      <trkpt lat="0" lon="0">
        <time>2020-12-20T10:24:07.966000+00:00</time>
      </trkpt>
      <trkpt lat="0" lon="0">
        <time>2020-12-20T10:24:07.969000+00:00</time>
      </trkpt>
      <trkpt lat="0" lon="0">
        <time>2020-12-20T10:24:07.970000+00:00</time>
      </trkpt>
      <trkpt lat="47.33154" lon="-1.35158">
        <ele>133</ele>
        <time>2020-12-20T10:24:08.897000+00:00</time>
      </trkpt>
      <trkpt lat="0" lon="0">
        <time>2020-12-20T10:24:08.922000+00:00</time>
      </trkpt>
      <trkpt lat="0" lon="0">
        <time>2020-12-20T10:24:08.926000+00:00</time>
      </trkpt>
      <trkpt lat="0" lon="0">
        <time>2020-12-20T10:24:08.927000+00:00</time>
      </trkpt>
      <trkpt lat="47.33155" lon="-1.35162">
        <ele>133</ele>
        <time>2020-12-20T10:24:09.898000+00:00</time>
      </trkpt>
      <trkpt lat="0" lon="0">
        <time>2020-12-20T10:24:09.909000+00:00</time>
      </trkpt>
      <trkpt lat="0" lon="0">
        <time>2020-12-20T10:24:09.916000+00:00</time>
      </trkpt>
      <trkpt lat="0" lon="0">
        <time>2020-12-20T10:24:09.919000+00:00</time>
      </trkpt>
      <trkpt lat="47.33157" lon="-1.35166">
        <ele>133</ele>
        <time>2020-12-20T10:24:10.893000+00:00</time>
      </trkpt>
      <trkpt lat="0" lon="0">
        <time>2020-12-20T10:24:10.909000+00:00</time>
      </trkpt>
      <trkpt lat="0" lon="0">
        <time>2020-12-20T10:24:10.914000+00:00</time>
      </trkpt>
      <trkpt lat="0" lon="0">
        <time>2020-12-20T10:24:10.919000+00:00</time>
      </trkpt>
      <trkpt lat="47.33158" lon="-1.3517">
        <ele>133</ele>
        <time>2020-12-20T10:24:11.908000+00:00</time>
      </trkpt>
      <trkpt lat="0" lon="0">
        <time>2020-12-20T10:24:11.917000+00:00</time>
      </trkpt>
      <trkpt lat="0" lon="0">
        <time>2020-12-20T10:24:11.923000+00:00</time>
      </trkpt>
      <trkpt lat="0" lon="0">
        <time>2020-12-20T10:24:11.927000+00:00</time>
      </trkpt>
      <trkpt lat="47.33159" lon="-1.35174">
        <ele>133</ele>
        <time>2020-12-20T10:24:12.918000+00:00</time>
      </trkpt>
      <trkpt lat="0" lon="0">
        <time>2020-12-20T10:24:12.924000+00:00</time>
      </trkpt>
      <trkpt lat="0" lon="0">
        <time>2020-12-20T10:24:12.933000+00:00</time>
      </trkpt>
      <trkpt lat="0" lon="0">
        <time>2020-12-20T10:24:12.935000+00:00</time>
      </trkpt>
      <trkpt lat="47.3316" lon="-1.35177">
        <ele>133</ele>
        <time>2020-12-20T10:24:13.914000+00:00</time>
      </trkpt>
      <trkpt lat="0" lon="0">
        <time>2020-12-20T10:24:13.926000+00:00</time>
      </trkpt>
      <trkpt lat="0" lon="0">
        <time>2020-12-20T10:24:13.935000+00:00</time>
      </trkpt>
      <trkpt lat="0" lon="0">
        <time>2020-12-20T10:24:13.937000+00:00</time>
      </trkpt>
      <trkpt lat="47.33161" lon="-1.3518">
        <ele>133</ele>
        <time>2020-12-20T10:24:14.903000+00:00</time>
      </trkpt>
      <trkpt lat="0" lon="0">
        <time>2020-12-20T10:24:14.916000+00:00</time>
      </trkpt>
      <trkpt lat="0" lon="0">
        <time>2020-12-20T10:24:14.921000+00:00</time>
      </trkpt>
      <trkpt lat="0" lon="0">
        <time>2020-12-20T10:24:14.922000+00:00</time>
      </trkpt>
      <trkpt lat="47.33162" lon="-1.35184">
        <ele>133</ele>
        <time>2020-12-20T10:24:15.887000+00:00</time>
      </trkpt>
      <trkpt lat="0" lon="0">
        <time>2020-12-20T10:24:15.892000+00:00</time>
      </trkpt>
      <trkpt lat="0" lon="0">
        <time>2020-12-20T10:24:15.895000+00:00</time>
      </trkpt>
      <trkpt lat="0" lon="0">
        <time>2020-12-20T10:24:15.896000+00:00</time>
      </trkpt>
      <trkpt lat="47.33163" lon="-1.35187">
        <ele>134</ele>
        <time>2020-12-20T10:24:16.944000+00:00</time>
      </trkpt>
      <trkpt lat="0" lon="0">
        <time>2020-12-20T10:24:16.956000+00:00</time>
      </trkpt>
      <trkpt lat="0" lon="0">
        <time>2020-12-20T10:24:16.965000+00:00</time>
      </trkpt>
      <trkpt lat="0" lon="0">
        <time>2020-12-20T10:24:16.967000+00:00</time>
      </trkpt>
      <trkpt lat="47.33164" lon="-1.3519">
        <ele>133</ele>
        <time>2020-12-20T10:24:17.921000+00:00</time>
      </trkpt>
      <trkpt lat="0" lon="0">
        <time>2020-12-20T10:24:17.935000+00:00</time>
      </trkpt>
      <trkpt lat="0" lon="0">
        <time>2020-12-20T10:24:17.942000+00:00</time>
      </trkpt>
      <trkpt lat="0" lon="0">
        <time>2020-12-20T10:24:17.944000+00:00</time>
      </trkpt>
      <trkpt lat="47.33165" lon="-1.35193">
        <ele>134</ele>
        <time>2020-12-20T10:24:18.900000+00:00</time>
      </trkpt>
      <trkpt lat="0" lon="0">
        <time>2020-12-20T10:24:18.913000+00:00</time>
      </trkpt>
      <trkpt lat="0" lon="0">
        <time>2020-12-20T10:24:18.922000+00:00</time>
      </trkpt>
      <trkpt lat="0" lon="0">
        <time>2020-12-20T10:24:18.924000+00:00</time>
      </trkpt>
      <trkpt lat="47.33166" lon="-1.35196">
        <ele>134</ele>
        <time>2020-12-20T10:24:19.886000+00:00</time>
      </trkpt>
      <trkpt lat="0" lon="0">
        <time>2020-12-20T10:24:19.910000+00:00</time>
      </trkpt>
      <trkpt lat="0" lon="0">
        <time>2020-12-20T10:24:19.917000+00:00</time>
      </trkpt>
      <trkpt lat="0" lon="0">
        <time>2020-12-20T10:24:19.925000+00:00</time>
      </trkpt>
      <trkpt lat="47.33168" lon="-1.35199">
        <ele>134</ele>
        <time>2020-12-20T10:24:20.923000+00:00</time>
      </trkpt>
      <trkpt lat="0" lon="0">
        <time>2020-12-20T10:24:20.933000+00:00</time>
      </trkpt>
      <trkpt lat="0" lon="0">
        <time>2020-12-20T10:24:20.937000+00:00</time>
      </trkpt>
      <trkpt lat="0" lon="0">
        <time>2020-12-20T10:24:20.939000+00:00</time>
      </trkpt>
      <trkpt lat="47.33169" lon="-1.35202">
        <ele>134</ele>
        <time>2020-12-20T10:24:21.918000+00:00</time>
      </trkpt>
      <trkpt lat="0" lon="0">
        <time>2020-12-20T10:24:21.937000+00:00</time>
      </trkpt>
      <trkpt lat="0" lon="0">
        <time>2020-12-20T10:24:21.943000+00:00</time>
      </trkpt>
      <trkpt lat="0" lon="0">
        <time>2020-12-20T10:24:21.945000+00:00</time>
      </trkpt>
      <trkpt lat="47.3317" lon="-1.35205">
        <ele>134</ele>
        <time>2020-12-20T10:24:22.889000+00:00</time>
      </trkpt>
      <trkpt lat="0" lon="0">
        <time>2020-12-20T10:24:22.902000+00:00</time>
      </trkpt>
      <trkpt lat="0" lon="0">
        <time>2020-12-20T10:24:22.906000+00:00</time>
      </trkpt>
      <trkpt lat="0" lon="0">
        <time>2020-12-20T10:24:22.909000+00:00</time>
      </trkpt>
      <trkpt lat="47.33171" lon="-1.35208">
        <ele>134</ele>
        <time>2020-12-20T10:24:23.941000+00:00</time>
      </trkpt>
      <trkpt lat="0" lon="0">
        <time>2020-12-20T10:24:23.957000+00:00</time>
      </trkpt>
      <trkpt lat="0" lon="0">
        <time>2020-12-20T10:24:23.965000+00:00</time>
      </trkpt>
      <trkpt lat="0" lon="0">
        <time>2020-12-20T10:24:23.969000+00:00</time>
      </trkpt>
      <trkpt lat="47.33172" lon="-1.3521">
        <ele>134</ele>
        <time>2020-12-20T10:24:24.937000+00:00</time>
      </trkpt>
      <trkpt lat="0" lon="0">
        <time>2020-12-20T10:24:24.947000+00:00</time>
      </trkpt>
      <trkpt lat="0" lon="0">
        <time>2020-12-20T10:24:24.958000+00:00</time>
      </trkpt>
      <trkpt lat="0" lon="0">
        <time>2020-12-20T10:24:24.961000+00:00</time>
      </trkpt>
      <trkpt lat="47.33173" lon="-1.35213">
        <ele>134</ele>
        <time>2020-12-20T10:24:25.896000+00:00</time>
      </trkpt>
      <trkpt lat="0" lon="0">
        <time>2020-12-20T10:24:25.909000+00:00</time>
      </trkpt>
      <trkpt lat="0" lon="0">
        <time>2020-12-20T10:24:25.915000+00:00</time>
      </trkpt>
      <trkpt lat="0" lon="0">
        <time>2020-12-20T10:24:25.920000+00:00</time>
      </trkpt>
      <trkpt lat="47.33174" lon="-1.35216">
        <ele>135</ele>
        <time>2020-12-20T10:24:26.909000+00:00</time>
      </trkpt>
      <trkpt lat="0" lon="0">
        <time>2020-12-20T10:24:26.918000+00:00</time>
      </trkpt>
      <trkpt lat="0" lon="0">
        <time>2020-12-20T10:24:26.923000+00:00</time>
      </trkpt>
      <trkpt lat="0" lon="0">
        <time>2020-12-20T10:24:26.929000+00:00</time>
      </trkpt>
      <trkpt lat="47.33175" lon="-1.35219">
        <ele>135</ele>
        <time>2020-12-20T10:24:27.884000+00:00</time>
      </trkpt>
      <trkpt lat="0" lon="0">
        <time>2020-12-20T10:24:27.890000+00:00</time>
      </trkpt>
      <trkpt lat="0" lon="0">
        <time>2020-12-20T10:24:27.897000+00:00</time>
      </trkpt>
      <trkpt lat="0" lon="0">
        <time>2020-12-20T10:24:27.900000+00:00</time>
      </trkpt>
      <trkpt lat="47.33176" lon="-1.35221">
        <ele>136</ele>
        <time>2020-12-20T10:24:28.879000+00:00</time>
      </trkpt>
      <trkpt lat="0" lon="0">
        <time>2020-12-20T10:24:28.899000+00:00</time>
      </trkpt>
      <trkpt lat="0" lon="0">
        <time>2020-12-20T10:24:28.907000+00:00</time>
      </trkpt>
      <trkpt lat="0" lon="0">
        <time>2020-12-20T10:24:28.912000+00:00</time>
      </trkpt>
      <trkpt lat="47.33177" lon="-1.35223">
        <ele>136</ele>
        <time>2020-12-20T10:24:29.839000+00:00</time>
      </trkpt>
      <trkpt lat="0" lon="0">
        <time>2020-12-20T10:24:29.853000+00:00</time>
      </trkpt>
      <trkpt lat="0" lon="0">
        <time>2020-12-20T10:24:29.860000+00:00</time>
      </trkpt>
      <trkpt lat="0" lon="0">
        <time>2020-12-20T10:24:29.863000+00:00</time>
      </trkpt>
      <trkpt lat="47.33178" lon="-1.35225">
        <ele>136</ele>
        <time>2020-12-20T10:24:30.898000+00:00</time>
      </trkpt>
      <trkpt lat="0" lon="0">
        <time>2020-12-20T10:24:30.909000+00:00</time>
      </trkpt>
      <trkpt lat="0" lon="0">
        <time>2020-12-20T10:24:30.913000+00:00</time>
      </trkpt>
      <trkpt lat="0" lon="0">
        <time>2020-12-20T10:24:30.918000+00:00</time>
      </trkpt>
      <trkpt lat="47.33178" lon="-1.35227">
        <ele>136</ele>
        <time>2020-12-20T10:24:31.910000+00:00</time>
      </trkpt>
      <trkpt lat="0" lon="0">
        <time>2020-12-20T10:24:31.917000+00:00</time>
      </trkpt>
      <trkpt lat="0" lon="0">
        <time>2020-12-20T10:24:31.922000+00:00</time>
      </trkpt>
      <trkpt lat="0" lon="0">
        <time>2020-12-20T10:24:31.926000+00:00</time>
      </trkpt>
      <trkpt lat="47.33178" lon="-1.35228">
        <ele>136</ele>
        <time>2020-12-20T10:24:32.862000+00:00</time>
      </trkpt>
      <trkpt lat="0" lon="0">
        <time>2020-12-20T10:24:32.864000+00:00</time>
      </trkpt>
      <trkpt lat="0" lon="0">
        <time>2020-12-20T10:24:32.866000+00:00</time>
      </trkpt>
      <trkpt lat="0" lon="0">
        <time>2020-12-20T10:24:32.867000+00:00</time>
      </trkpt>
      <trkpt lat="47.33179" lon="-1.35229">
        <ele>136</ele>
        <time>2020-12-20T10:24:33.908000+00:00</time>
      </trkpt>
      <trkpt lat="0" lon="0">
        <time>2020-12-20T10:24:33.921000+00:00</time>
      </trkpt>
      <trkpt lat="0" lon="0">
        <time>2020-12-20T10:24:33.926000+00:00</time>
      </trkpt>
      <trkpt lat="0" lon="0">
        <time>2020-12-20T10:24:33.930000+00:00</time>
      </trkpt>
      <trkpt lat="47.33179" lon="-1.3523">
        <ele>137</ele>
        <time>2020-12-20T10:24:34.887000+00:00</time>
      </trkpt>
      <trkpt lat="0" lon="0">
        <time>2020-12-20T10:24:34.899000+00:00</time>
      </trkpt>
      <trkpt lat="0" lon="0">
        <time>2020-12-20T10:24:34.905000+00:00</time>
      </trkpt>
      <trkpt lat="0" lon="0">
        <time>2020-12-20T10:24:34.909000+00:00</time>
      </trkpt>
      <trkpt lat="47.33179" lon="-1.35232">
        <ele>137</ele>
        <time>2020-12-20T10:24:35.853000+00:00</time>
      </trkpt>
      <trkpt lat="0" lon="0">
        <time>2020-12-20T10:24:35.854000+00:00</time>
      </trkpt>
      <trkpt lat="0" lon="0">
        <time>2020-12-20T10:24:35.862000+00:00</time>
      </trkpt>
      <trkpt lat="47.3318" lon="-1.35233">
        <ele>137</ele>
        <time>2020-12-20T10:24:36.911000+00:00</time>
      </trkpt>
      <trkpt lat="0" lon="0">
        <time>2020-12-20T10:24:36.923000+00:00</time>
      </trkpt>
      <trkpt lat="0" lon="0">
        <time>2020-12-20T10:24:36.941000+00:00</time>
      </trkpt>
      <trkpt lat="0" lon="0">
        <time>2020-12-20T10:24:36.942000+00:00</time>
      </trkpt>
      <trkpt lat="47.3318" lon="-1.35234">
        <ele>138</ele>
        <time>2020-12-20T10:24:37.911000+00:00</time>
      </trkpt>
      <trkpt lat="0" lon="0">
        <time>2020-12-20T10:24:37.923000+00:00</time>
      </trkpt>
      <trkpt lat="0" lon="0">
        <time>2020-12-20T10:24:37.927000+00:00</time>
      </trkpt>
      <trkpt lat="0" lon="0">
        <time>2020-12-20T10:24:37.929000+00:00</time>
      </trkpt>
      <trkpt lat="47.3318" lon="-1.35235">
        <ele>138</ele>
        <time>2020-12-20T10:24:38.909000+00:00</time>
      </trkpt>
      <trkpt lat="0" lon="0">
        <time>2020-12-20T10:24:38.911000+00:00</time>
      </trkpt>
      <trkpt lat="0" lon="0">
        <time>2020-12-20T10:24:38.915000+00:00</time>
      </trkpt>
      <trkpt lat="0" lon="0">
        <time>2020-12-20T10:24:38.916000+00:00</time>
      </trkpt>
      <trkpt lat="47.3318" lon="-1.35235">
        <ele>138</ele>
        <time>2020-12-20T10:24:39.907000+00:00</time>
      </trkpt>
      <trkpt lat="0" lon="0">
        <time>2020-12-20T10:24:39.921000+00:00</time>
      </trkpt>
      <trkpt lat="0" lon="0">
        <time>2020-12-20T10:24:39.922000+00:00</time>
      </trkpt>
      <trkpt lat="47.33181" lon="-1.35236">
        <ele>140</ele>
        <time>2020-12-20T10:24:40.947000+00:00</time>
      </trkpt>
      <trkpt lat="0" lon="0">
        <time>2020-12-20T10:24:40.964000+00:00</time>
      </trkpt>
      <trkpt lat="0" lon="0">
        <time>2020-12-20T10:24:40.972000+00:00</time>
      </trkpt>
      <trkpt lat="0" lon="0">
        <time>2020-12-20T10:24:40.976000+00:00</time>
      </trkpt>
      <trkpt lat="47.33181" lon="-1.35238">
        <ele>140</ele>
        <time>2020-12-20T10:24:41.915000+00:00</time>
      </trkpt>
      <trkpt lat="0" lon="0">
        <time>2020-12-20T10:24:41.930000+00:00</time>
      </trkpt>
      <trkpt lat="0" lon="0">
        <time>2020-12-20T10:24:41.939000+00:00</time>
      </trkpt>
      <trkpt lat="0" lon="0">
        <time>2020-12-20T10:24:41.942000+00:00</time>
      </trkpt>
      <trkpt lat="47.33182" lon="-1.35239">
        <ele>140</ele>
        <time>2020-12-20T10:24:42.898000+00:00</time>
      </trkpt>
      <trkpt lat="0" lon="0">
        <time>2020-12-20T10:24:42.908000+00:00</time>
      </trkpt>
      <trkpt lat="0" lon="0">
        <time>2020-12-20T10:24:42.918000+00:00</time>
      </trkpt>
      <trkpt lat="0" lon="0">
        <time>2020-12-20T10:24:42.920000+00:00</time>
      </trkpt>
      <trkpt lat="47.33182" lon="-1.35241">
        <ele>140</ele>
        <time>2020-12-20T10:24:43.898000+00:00</time>
      </trkpt>
      <trkpt lat="0" lon="0">
        <time>2020-12-20T10:24:43.910000+00:00</time>
      </trkpt>
      <trkpt lat="0" lon="0">
        <time>2020-12-20T10:24:43.913000+00:00</time>
      </trkpt>
      <trkpt lat="0" lon="0">
        <time>2020-12-20T10:24:43.916000+00:00</time>
      </trkpt>
      <trkpt lat="47.33183" lon="-1.35242">
        <ele>140</ele>
        <time>2020-12-20T10:24:44.968000+00:00</time>
      </trkpt>
      <trkpt lat="0" lon="0">
        <time>2020-12-20T10:24:44.972000+00:00</time>
      </trkpt>
      <trkpt lat="0" lon="0">
        <time>2020-12-20T10:24:44.975000+00:00</time>
      </trkpt>
      <trkpt lat="0" lon="0">
        <time>2020-12-20T10:24:44.976000+00:00</time>
      </trkpt>
      <trkpt lat="47.33183" lon="-1.35243">
        <ele>140</ele>
        <time>2020-12-20T10:24:45.944000+00:00</time>
      </trkpt>
      <trkpt lat="0" lon="0">
        <time>2020-12-20T10:24:45.953000+00:00</time>
      </trkpt>
      <trkpt lat="0" lon="0">
        <time>2020-12-20T10:24:45.960000+00:00</time>
      </trkpt>
      <trkpt lat="0" lon="0">
        <time>2020-12-20T10:24:45.963000+00:00</time>
      </trkpt>
      <trkpt lat="47.33184" lon="-1.35246">
        <ele>142</ele>
        <time>2020-12-20T10:24:46.933000+00:00</time>
      </trkpt>
      <trkpt lat="0" lon="0">
        <time>2020-12-20T10:24:46.959000+00:00</time>
      </trkpt>
      <trkpt lat="0" lon="0">
        <time>2020-12-20T10:24:46.965000+00:00</time>
      </trkpt>
      <trkpt lat="0" lon="0">
        <time>2020-12-20T10:24:46.966000+00:00</time>
      </trkpt>
      <trkpt lat="47.33185" lon="-1.35247">
        <ele>143</ele>
        <time>2020-12-20T10:24:47.887000+00:00</time>
      </trkpt>
      <trkpt lat="0" lon="0">
        <time>2020-12-20T10:24:47.897000+00:00</time>
      </trkpt>
      <trkpt lat="0" lon="0">
        <time>2020-12-20T10:24:47.907000+00:00</time>
      </trkpt>
      <trkpt lat="0" lon="0">
        <time>2020-12-20T10:24:47.910000+00:00</time>
      </trkpt>
      <trkpt lat="47.33186" lon="-1.35249">
        <ele>144</ele>
        <time>2020-12-20T10:24:48.856000+00:00</time>
      </trkpt>
      <trkpt lat="0" lon="0">
        <time>2020-12-20T10:24:48.862000+00:00</time>
      </trkpt>
      <trkpt lat="0" lon="0">
        <time>2020-12-20T10:24:48.866000+00:00</time>
      </trkpt>
      <trkpt lat="0" lon="0">
        <time>2020-12-20T10:24:48.869000+00:00</time>
      </trkpt>
      <trkpt lat="47.33187" lon="-1.35251">
        <ele>145</ele>
        <time>2020-12-20T10:24:49.873000+00:00</time>
      </trkpt>
      <trkpt lat="0" lon="0">
        <time>2020-12-20T10:24:49.889000+00:00</time>
      </trkpt>
      <trkpt lat="0" lon="0">
        <time>2020-12-20T10:24:49.893000+00:00</time>
      </trkpt>
      <trkpt lat="0" lon="0">
        <time>2020-12-20T10:24:49.896000+00:00</time>
      </trkpt>
      <trkpt lat="47.33188" lon="-1.35253">
        <ele>145</ele>
        <time>2020-12-20T10:24:50.920000+00:00</time>
      </trkpt>
      <trkpt lat="0" lon="0">
        <time>2020-12-20T10:24:50.943000+00:00</time>
      </trkpt>
      <trkpt lat="0" lon="0">
        <time>2020-12-20T10:24:50.950000+00:00</time>
      </trkpt>
      <trkpt lat="0" lon="0">
        <time>2020-12-20T10:24:50.952000+00:00</time>
      </trkpt>
      <trkpt lat="47.33188" lon="-1.35254">
        <ele>145</ele>
        <time>2020-12-20T10:24:51.925000+00:00</time>
      </trkpt>
      <trkpt lat="0" lon="0">
        <time>2020-12-20T10:24:51.938000+00:00</time>
      </trkpt>
      <trkpt lat="0" lon="0">
        <time>2020-12-20T10:24:51.947000+00:00</time>
      </trkpt>
      <trkpt lat="0" lon="0">
        <time>2020-12-20T10:24:51.952000+00:00</time>
      </trkpt>
      <trkpt lat="47.33189" lon="-1.35257">
        <ele>144</ele>
        <time>2020-12-20T10:24:52.906000+00:00</time>
      </trkpt>
      <trkpt lat="0" lon="0">
        <time>2020-12-20T10:24:52.911000+00:00</time>
      </trkpt>
      <trkpt lat="0" lon="0">
        <time>2020-12-20T10:24:52.919000+00:00</time>
      </trkpt>
      <trkpt lat="0" lon="0">
        <time>2020-12-20T10:24:52.922000+00:00</time>
      </trkpt>
      <trkpt lat="47.3319" lon="-1.35259">
        <ele>145</ele>
        <time>2020-12-20T10:24:53.902000+00:00</time>
      </trkpt>
      <trkpt lat="0" lon="0">
        <time>2020-12-20T10:24:53.937000+00:00</time>
      </trkpt>
      <trkpt lat="0" lon="0">
        <time>2020-12-20T10:24:53.939000+00:00</time>
      </trkpt>
      <trkpt lat="0" lon="0">
        <time>2020-12-20T10:24:53.941000+00:00</time>
      </trkpt>
      <trkpt lat="47.33191" lon="-1.35261">
        <ele>145</ele>
        <time>2020-12-20T10:24:54.905000+00:00</time>
      </trkpt>
      <trkpt lat="0" lon="0">
        <time>2020-12-20T10:24:54.924000+00:00</time>
      </trkpt>
      <trkpt lat="0" lon="0">
        <time>2020-12-20T10:24:54.930000+00:00</time>
      </trkpt>
      <trkpt lat="0" lon="0">
        <time>2020-12-20T10:24:54.933000+00:00</time>
      </trkpt>
      <trkpt lat="47.33192" lon="-1.35264">
        <ele>145</ele>
        <time>2020-12-20T10:24:55.883000+00:00</time>
      </trkpt>
      <trkpt lat="0" lon="0">
        <time>2020-12-20T10:24:55.893000+00:00</time>
      </trkpt>
      <trkpt lat="0" lon="0">
        <time>2020-12-20T10:24:55.899000+00:00</time>
      </trkpt>
      <trkpt lat="0" lon="0">
        <time>2020-12-20T10:24:55.902000+00:00</time>
      </trkpt>
      <trkpt lat="47.33193" lon="-1.35265">
        <ele>145</ele>
        <time>2020-12-20T10:24:56.891000+00:00</time>
      </trkpt>
      <trkpt lat="0" lon="0">
        <time>2020-12-20T10:24:56.901000+00:00</time>
      </trkpt>
      <trkpt lat="0" lon="0">
        <time>2020-12-20T10:24:56.906000+00:00</time>
      </trkpt>
      <trkpt lat="0" lon="0">
        <time>2020-12-20T10:24:56.908000+00:00</time>
      </trkpt>
      <trkpt lat="47.33193" lon="-1.35267">
        <ele>145</ele>
        <time>2020-12-20T10:24:57.900000+00:00</time>
      </trkpt>
      <trkpt lat="0" lon="0">
        <time>2020-12-20T10:24:57.907000+00:00</time>
      </trkpt>
      <trkpt lat="0" lon="0">
        <time>2020-12-20T10:24:57.911000+00:00</time>
      </trkpt>
      <trkpt lat="0" lon="0">
        <time>2020-12-20T10:24:57.914000+00:00</time>
      </trkpt>
      <trkpt lat="47.33194" lon="-1.35268">
        <ele>145</ele>
        <time>2020-12-20T10:24:58.899000+00:00</time>
      </trkpt>
      <trkpt lat="0" lon="0">
        <time>2020-12-20T10:24:58.913000+00:00</time>
      </trkpt>
      <trkpt lat="0" lon="0">
        <time>2020-12-20T10:24:58.915000+00:00</time>
      </trkpt>
      <trkpt lat="0" lon="0">
        <time>2020-12-20T10:24:58.917000+00:00</time>
      </trkpt>
      <trkpt lat="47.33194" lon="-1.3527">
        <ele>146</ele>
        <time>2020-12-20T10:24:59.895000+00:00</time>
      </trkpt>
      <trkpt lat="0" lon="0">
        <time>2020-12-20T10:24:59.905000+00:00</time>
      </trkpt>
      <trkpt lat="0" lon="0">
        <time>2020-12-20T10:24:59.910000+00:00</time>
      </trkpt>
      <trkpt lat="0" lon="0">
        <time>2020-12-20T10:24:59.912000+00:00</time>
      </trkpt>
      <trkpt lat="47.33194" lon="-1.35272">
        <ele>146</ele>
        <time>2020-12-20T10:25:00.929000+00:00</time>
      </trkpt>
      <trkpt lat="0" lon="0">
        <time>2020-12-20T10:25:00.943000+00:00</time>
      </trkpt>
      <trkpt lat="0" lon="0">
        <time>2020-12-20T10:25:00.945000+00:00</time>
      </trkpt>
      <trkpt lat="0" lon="0">
        <time>2020-12-20T10:25:00.946000+00:00</time>
      </trkpt>
      <trkpt lat="47.33194" lon="-1.35274">
        <ele>146</ele>
        <time>2020-12-20T10:25:01.874000+00:00</time>
      </trkpt>
      <trkpt lat="0" lon="0">
        <time>2020-12-20T10:25:01.879000+00:00</time>
      </trkpt>
      <trkpt lat="0" lon="0">
        <time>2020-12-20T10:25:01.891000+00:00</time>
      </trkpt>
      <trkpt lat="0" lon="0">
        <time>2020-12-20T10:25:01.894000+00:00</time>
      </trkpt>
      <trkpt lat="47.33194" lon="-1.35275">
        <ele>146</ele>
        <time>2020-12-20T10:25:02.904000+00:00</time>
      </trkpt>
      <trkpt lat="0" lon="0">
        <time>2020-12-20T10:25:02.910000+00:00</time>
      </trkpt>
      <trkpt lat="0" lon="0">
        <time>2020-12-20T10:25:02.916000+00:00</time>
      </trkpt>
      <trkpt lat="0" lon="0">
        <time>2020-12-20T10:25:02.918000+00:00</time>
      </trkpt>
      <trkpt lat="47.33194" lon="-1.35276">
        <ele>146</ele>
        <time>2020-12-20T10:25:03.895000+00:00</time>
      </trkpt>
      <trkpt lat="0" lon="0">
        <time>2020-12-20T10:25:03.908000+00:00</time>
      </trkpt>
      <trkpt lat="0" lon="0">
        <time>2020-12-20T10:25:03.912000+00:00</time>
      </trkpt>
      <trkpt lat="0" lon="0">
        <time>2020-12-20T10:25:03.915000+00:00</time>
      </trkpt>
      <trkpt lat="47.33194" lon="-1.35278">
        <ele>147</ele>
        <time>2020-12-20T10:25:04.888000+00:00</time>
      </trkpt>
      <trkpt lat="0" lon="0">
        <time>2020-12-20T10:25:04.897000+00:00</time>
      </trkpt>
      <trkpt lat="0" lon="0">
        <time>2020-12-20T10:25:04.901000+00:00</time>
      </trkpt>
      <trkpt lat="0" lon="0">
        <time>2020-12-20T10:25:04.905000+00:00</time>
      </trkpt>
      <trkpt lat="47.33195" lon="-1.3528">
        <ele>148</ele>
        <time>2020-12-20T10:25:05.901000+00:00</time>
      </trkpt>
      <trkpt lat="0" lon="0">
        <time>2020-12-20T10:25:05.916000+00:00</time>
      </trkpt>
      <trkpt lat="0" lon="0">
        <time>2020-12-20T10:25:05.921000+00:00</time>
      </trkpt>
      <trkpt lat="0" lon="0">
        <time>2020-12-20T10:25:05.924000+00:00</time>
      </trkpt>
      <trkpt lat="47.33195" lon="-1.35281">
        <ele>147</ele>
        <time>2020-12-20T10:25:06.881000+00:00</time>
      </trkpt>
      <trkpt lat="0" lon="0">
        <time>2020-12-20T10:25:06.886000+00:00</time>
      </trkpt>
      <trkpt lat="0" lon="0">
        <time>2020-12-20T10:25:06.890000+00:00</time>
      </trkpt>
      <trkpt lat="0" lon="0">
        <time>2020-12-20T10:25:06.894000+00:00</time>
      </trkpt>
      <trkpt lat="47.33195" lon="-1.35283">
        <ele>147</ele>
        <time>2020-12-20T10:25:07.876000+00:00</time>
      </trkpt>
      <trkpt lat="0" lon="0">
        <time>2020-12-20T10:25:07.893000+00:00</time>
      </trkpt>
      <trkpt lat="0" lon="0">
        <time>2020-12-20T10:25:07.903000+00:00</time>
      </trkpt>
      <trkpt lat="0" lon="0">
        <time>2020-12-20T10:25:07.906000+00:00</time>
      </trkpt>
      <trkpt lat="47.33195" lon="-1.35285">
        <ele>147</ele>
        <time>2020-12-20T10:25:08.881000+00:00</time>
      </trkpt>
      <trkpt lat="0" lon="0">
        <time>2020-12-20T10:25:08.894000+00:00</time>
      </trkpt>
      <trkpt lat="0" lon="0">
        <time>2020-12-20T10:25:08.900000+00:00</time>
      </trkpt>
      <trkpt lat="0" lon="0">
        <time>2020-12-20T10:25:08.903000+00:00</time>
      </trkpt>
      <trkpt lat="47.33196" lon="-1.35286">
        <ele>147</ele>
        <time>2020-12-20T10:25:09.919000+00:00</time>
      </trkpt>
      <trkpt lat="0" lon="0">
        <time>2020-12-20T10:25:09.929000+00:00</time>
      </trkpt>
      <trkpt lat="0" lon="0">
        <time>2020-12-20T10:25:09.935000+00:00</time>
      </trkpt>
      <trkpt lat="0" lon="0">
        <time>2020-12-20T10:25:09.938000+00:00</time>
      </trkpt>
      <trkpt lat="47.33196" lon="-1.35288">
        <ele>147</ele>
        <time>2020-12-20T10:25:10.911000+00:00</time>
      </trkpt>
      <trkpt lat="0" lon="0">
        <time>2020-12-20T10:25:10.930000+00:00</time>
      </trkpt>
      <trkpt lat="0" lon="0">
        <time>2020-12-20T10:25:10.933000+00:00</time>
      </trkpt>
      <trkpt lat="0" lon="0">
        <time>2020-12-20T10:25:10.934000+00:00</time>
      </trkpt>
      <trkpt lat="47.33197" lon="-1.3529">
        <ele>147</ele>
        <time>2020-12-20T10:25:11.926000+00:00</time>
      </trkpt>
      <trkpt lat="0" lon="0">
        <time>2020-12-20T10:25:11.940000+00:00</time>
      </trkpt>
      <trkpt lat="0" lon="0">
        <time>2020-12-20T10:25:11.948000+00:00</time>
      </trkpt>
      <trkpt lat="0" lon="0">
        <time>2020-12-20T10:25:11.956000+00:00</time>
      </trkpt>
      <trkpt lat="47.33198" lon="-1.35292">
        <ele>147</ele>
        <time>2020-12-20T10:25:12.905000+00:00</time>
      </trkpt>
      <trkpt lat="0" lon="0">
        <time>2020-12-20T10:25:12.909000+00:00</time>
      </trkpt>
      <trkpt lat="0" lon="0">
        <time>2020-12-20T10:25:12.917000+00:00</time>
      </trkpt>
      <trkpt lat="0" lon="0">
        <time>2020-12-20T10:25:12.922000+00:00</time>
      </trkpt>
      <trkpt lat="47.33198" lon="-1.35293">
        <ele>147</ele>
        <time>2020-12-20T10:25:13.874000+00:00</time>
      </trkpt>
      <trkpt lat="0" lon="0">
        <time>2020-12-20T10:25:13.886000+00:00</time>
      </trkpt>
      <trkpt lat="0" lon="0">
        <time>2020-12-20T10:25:13.891000+00:00</time>
      </trkpt>
      <trkpt lat="0" lon="0">
        <time>2020-12-20T10:25:13.895000+00:00</time>
      </trkpt>
      <trkpt lat="47.33199" lon="-1.35295">
        <ele>147</ele>
        <time>2020-12-20T10:25:14.902000+00:00</time>
      </trkpt>
      <trkpt lat="0" lon="0">
        <time>2020-12-20T10:25:14.916000+00:00</time>
      </trkpt>
      <trkpt lat="0" lon="0">
        <time>2020-12-20T10:25:14.925000+00:00</time>
      </trkpt>
      <trkpt lat="0" lon="0">
        <time>2020-12-20T10:25:14.928000+00:00</time>
      </trkpt>
      <trkpt lat="47.33199" lon="-1.35296">
        <ele>147</ele>
        <time>2020-12-20T10:25:15.865000+00:00</time>
      </trkpt>
      <trkpt lat="0" lon="0">
        <time>2020-12-20T10:25:15.878000+00:00</time>
      </trkpt>
      <trkpt lat="0" lon="0">
        <time>2020-12-20T10:25:15.883000+00:00</time>
      </trkpt>
      <trkpt lat="0" lon="0">
        <time>2020-12-20T10:25:15.885000+00:00</time>
      </trkpt>
      <trkpt lat="47.332" lon="-1.35297">
        <ele>146</ele>
        <time>2020-12-20T10:25:16.897000+00:00</time>
      </trkpt>
      <trkpt lat="0" lon="0">
        <time>2020-12-20T10:25:16.909000+00:00</time>
      </trkpt>
      <trkpt lat="0" lon="0">
        <time>2020-12-20T10:25:16.911000+00:00</time>
      </trkpt>
      <trkpt lat="0" lon="0">
        <time>2020-12-20T10:25:16.913000+00:00</time>
      </trkpt>
      <trkpt lat="47.33201" lon="-1.35299">
        <ele>146</ele>
        <time>2020-12-20T10:25:17.939000+00:00</time>
      </trkpt>
      <trkpt lat="0" lon="0">
        <time>2020-12-20T10:25:17.952000+00:00</time>
      </trkpt>
      <trkpt lat="0" lon="0">
        <time>2020-12-20T10:25:17.954000+00:00</time>
      </trkpt>
      <trkpt lat="0" lon="0">
        <time>2020-12-20T10:25:17.955000+00:00</time>
      </trkpt>
      <trkpt lat="47.33202" lon="-1.35301">
        <ele>146</ele>
        <time>2020-12-20T10:25:18.887000+00:00</time>
      </trkpt>
      <trkpt lat="0" lon="0">
        <time>2020-12-20T10:25:18.891000+00:00</time>
      </trkpt>
      <trkpt lat="0" lon="0">
        <time>2020-12-20T10:25:18.899000+00:00</time>
      </trkpt>
      <trkpt lat="0" lon="0">
        <time>2020-12-20T10:25:18.900000+00:00</time>
      </trkpt>
      <trkpt lat="47.33202" lon="-1.35303">
        <ele>145</ele>
        <time>2020-12-20T10:25:19.871000+00:00</time>
      </trkpt>
      <trkpt lat="0" lon="0">
        <time>2020-12-20T10:25:19.877000+00:00</time>
      </trkpt>
      <trkpt lat="0" lon="0">
        <time>2020-12-20T10:25:19.881000+00:00</time>
      </trkpt>
      <trkpt lat="0" lon="0">
        <time>2020-12-20T10:25:19.883000+00:00</time>
      </trkpt>
      <trkpt lat="47.33203" lon="-1.35304">
        <ele>145</ele>
        <time>2020-12-20T10:25:20.884000+00:00</time>
      </trkpt>
      <trkpt lat="0" lon="0">
        <time>2020-12-20T10:25:20.902000+00:00</time>
      </trkpt>
      <trkpt lat="0" lon="0">
        <time>2020-12-20T10:25:20.908000+00:00</time>
      </trkpt>
      <trkpt lat="0" lon="0">
        <time>2020-12-20T10:25:20.911000+00:00</time>
      </trkpt>
      <trkpt lat="47.33203" lon="-1.35306">
        <ele>146</ele>
        <time>2020-12-20T10:25:21.900000+00:00</time>
      </trkpt>
      <trkpt lat="0" lon="0">
        <time>2020-12-20T10:25:21.917000+00:00</time>
      </trkpt>
      <trkpt lat="0" lon="0">
        <time>2020-12-20T10:25:21.928000+00:00</time>
      </trkpt>
      <trkpt lat="0" lon="0">
        <time>2020-12-20T10:25:21.930000+00:00</time>
      </trkpt>
      <trkpt lat="47.33204" lon="-1.35308">
        <ele>146</ele>
        <time>2020-12-20T10:25:22.840000+00:00</time>
      </trkpt>
      <trkpt lat="0" lon="0">
        <time>2020-12-20T10:25:22.852000+00:00</time>
      </trkpt>
      <trkpt lat="0" lon="0">
        <time>2020-12-20T10:25:22.857000+00:00</time>
      </trkpt>
      <trkpt lat="0" lon="0">
        <time>2020-12-20T10:25:22.859000+00:00</time>
      </trkpt>
      <trkpt lat="47.33204" lon="-1.35309">
        <ele>146</ele>
        <time>2020-12-20T10:25:23.907000+00:00</time>
      </trkpt>
      <trkpt lat="0" lon="0">
        <time>2020-12-20T10:25:23.916000+00:00</time>
      </trkpt>
      <trkpt lat="0" lon="0">
        <time>2020-12-20T10:25:23.920000+00:00</time>
      </trkpt>
      <trkpt lat="0" lon="0">
        <time>2020-12-20T10:25:23.922000+00:00</time>
      </trkpt>
      <trkpt lat="47.33205" lon="-1.3531">
        <ele>145</ele>
        <time>2020-12-20T10:25:24.883000+00:00</time>
      </trkpt>
      <trkpt lat="0" lon="0">
        <time>2020-12-20T10:25:24.895000+00:00</time>
      </trkpt>
      <trkpt lat="0" lon="0">
        <time>2020-12-20T10:25:24.900000+00:00</time>
      </trkpt>
      <trkpt lat="0" lon="0">
        <time>2020-12-20T10:25:24.903000+00:00</time>
      </trkpt>
      <trkpt lat="47.33205" lon="-1.35312">
        <ele>145</ele>
        <time>2020-12-20T10:25:25.910000+00:00</time>
      </trkpt>
      <trkpt lat="0" lon="0">
        <time>2020-12-20T10:25:25.915000+00:00</time>
      </trkpt>
      <trkpt lat="0" lon="0">
        <time>2020-12-20T10:25:25.920000+00:00</time>
      </trkpt>
      <trkpt lat="0" lon="0">
        <time>2020-12-20T10:25:25.924000+00:00</time>
      </trkpt>
      <trkpt lat="47.33206" lon="-1.35314">
        <ele>145</ele>
        <time>2020-12-20T10:25:26.937000+00:00</time>
      </trkpt>
      <trkpt lat="0" lon="0">
        <time>2020-12-20T10:25:26.953000+00:00</time>
      </trkpt>
      <trkpt lat="0" lon="0">
        <time>2020-12-20T10:25:26.960000+00:00</time>
      </trkpt>
      <trkpt lat="0" lon="0">
        <time>2020-12-20T10:25:26.962000+00:00</time>
      </trkpt>
      <trkpt lat="47.33206" lon="-1.35316">
        <ele>145</ele>
        <time>2020-12-20T10:25:27.930000+00:00</time>
      </trkpt>
      <trkpt lat="0" lon="0">
        <time>2020-12-20T10:25:27.943000+00:00</time>
      </trkpt>
      <trkpt lat="0" lon="0">
        <time>2020-12-20T10:25:27.951000+00:00</time>
      </trkpt>
      <trkpt lat="0" lon="0">
        <time>2020-12-20T10:25:27.959000+00:00</time>
      </trkpt>
      <trkpt lat="47.33207" lon="-1.35319">
        <ele>145</ele>
        <time>2020-12-20T10:25:28.907000+00:00</time>
      </trkpt>
      <trkpt lat="0" lon="0">
        <time>2020-12-20T10:25:28.914000+00:00</time>
      </trkpt>
      <trkpt lat="0" lon="0">
        <time>2020-12-20T10:25:28.922000+00:00</time>
      </trkpt>
      <trkpt lat="0" lon="0">
        <time>2020-12-20T10:25:28.926000+00:00</time>
      </trkpt>
      <trkpt lat="47.33208" lon="-1.35321">
        <ele>145</ele>
        <time>2020-12-20T10:25:29.901000+00:00</time>
      </trkpt>
      <trkpt lat="0" lon="0">
        <time>2020-12-20T10:25:29.908000+00:00</time>
      </trkpt>
      <trkpt lat="0" lon="0">
        <time>2020-12-20T10:25:29.910000+00:00</time>
      </trkpt>
      <trkpt lat="0" lon="0">
        <time>2020-12-20T10:25:29.912000+00:00</time>
      </trkpt>
      <trkpt lat="47.33208" lon="-1.35324">
        <ele>146</ele>
        <time>2020-12-20T10:25:30.908000+00:00</time>
      </trkpt>
      <trkpt lat="0" lon="0">
        <time>2020-12-20T10:25:30.917000+00:00</time>
      </trkpt>
      <trkpt lat="0" lon="0">
        <time>2020-12-20T10:25:30.921000+00:00</time>
      </trkpt>
      <trkpt lat="0" lon="0">
        <time>2020-12-20T10:25:30.925000+00:00</time>
      </trkpt>
      <trkpt lat="47.33209" lon="-1.35326">
        <ele>146</ele>
        <time>2020-12-20T10:25:31.953000+00:00</time>
      </trkpt>
      <trkpt lat="0" lon="0">
        <time>2020-12-20T10:25:31.959000+00:00</time>
      </trkpt>
      <trkpt lat="0" lon="0">
        <time>2020-12-20T10:25:31.983000+00:00</time>
      </trkpt>
      <trkpt lat="0" lon="0">
        <time>2020-12-20T10:25:31.994000+00:00</time>
      </trkpt>
      <trkpt lat="47.3321" lon="-1.35328">
        <ele>146</ele>
        <time>2020-12-20T10:25:32.891000+00:00</time>
      </trkpt>
      <trkpt lat="0" lon="0">
        <time>2020-12-20T10:25:32.903000+00:00</time>
      </trkpt>
      <trkpt lat="0" lon="0">
        <time>2020-12-20T10:25:32.910000+00:00</time>
      </trkpt>
      <trkpt lat="0" lon="0">
        <time>2020-12-20T10:25:32.913000+00:00</time>
      </trkpt>
      <trkpt lat="47.33211" lon="-1.35331">
        <ele>146</ele>
        <time>2020-12-20T10:25:33.938000+00:00</time>
      </trkpt>
      <trkpt lat="0" lon="0">
        <time>2020-12-20T10:25:33.957000+00:00</time>
      </trkpt>
      <trkpt lat="0" lon="0">
        <time>2020-12-20T10:25:33.967000+00:00</time>
      </trkpt>
      <trkpt lat="0" lon="0">
        <time>2020-12-20T10:25:33.976000+00:00</time>
      </trkpt>
      <trkpt lat="47.33211" lon="-1.35333">
        <ele>146</ele>
        <time>2020-12-20T10:25:34.915000+00:00</time>
      </trkpt>
      <trkpt lat="0" lon="0">
        <time>2020-12-20T10:25:34.924000+00:00</time>
      </trkpt>
      <trkpt lat="0" lon="0">
        <time>2020-12-20T10:25:34.932000+00:00</time>
      </trkpt>
      <trkpt lat="0" lon="0">
        <time>2020-12-20T10:25:34.936000+00:00</time>
      </trkpt>
      <trkpt lat="47.33212" lon="-1.35335">
        <ele>145</ele>
        <time>2020-12-20T10:25:35.907000+00:00</time>
      </trkpt>
      <trkpt lat="0" lon="0">
        <time>2020-12-20T10:25:35.928000+00:00</time>
      </trkpt>
      <trkpt lat="0" lon="0">
        <time>2020-12-20T10:25:35.933000+00:00</time>
      </trkpt>
      <trkpt lat="0" lon="0">
        <time>2020-12-20T10:25:35.936000+00:00</time>
      </trkpt>
      <trkpt lat="47.33213" lon="-1.35338">
        <ele>145</ele>
        <time>2020-12-20T10:25:36.881000+00:00</time>
      </trkpt>
      <trkpt lat="0" lon="0">
        <time>2020-12-20T10:25:36.895000+00:00</time>
      </trkpt>
      <trkpt lat="0" lon="0">
        <time>2020-12-20T10:25:36.905000+00:00</time>
      </trkpt>
      <trkpt lat="0" lon="0">
        <time>2020-12-20T10:25:36.908000+00:00</time>
      </trkpt>
      <trkpt lat="47.33213" lon="-1.3534">
        <ele>146</ele>
        <time>2020-12-20T10:25:37.899000+00:00</time>
      </trkpt>
      <trkpt lat="0" lon="0">
        <time>2020-12-20T10:25:37.909000+00:00</time>
      </trkpt>
      <trkpt lat="0" lon="0">
        <time>2020-12-20T10:25:37.914000+00:00</time>
      </trkpt>
      <trkpt lat="0" lon="0">
        <time>2020-12-20T10:25:37.919000+00:00</time>
      </trkpt>
      <trkpt lat="47.33214" lon="-1.35342">
        <ele>145</ele>
        <time>2020-12-20T10:25:38.840000+00:00</time>
      </trkpt>
      <trkpt lat="0" lon="0">
        <time>2020-12-20T10:25:38.852000+00:00</time>
      </trkpt>
      <trkpt lat="0" lon="0">
        <time>2020-12-20T10:25:38.857000+00:00</time>
      </trkpt>
      <trkpt lat="0" lon="0">
        <time>2020-12-20T10:25:38.861000+00:00</time>
      </trkpt>
      <trkpt lat="47.33215" lon="-1.35345">
        <ele>146</ele>
        <time>2020-12-20T10:25:39.897000+00:00</time>
      </trkpt>
      <trkpt lat="0" lon="0">
        <time>2020-12-20T10:25:39.913000+00:00</time>
      </trkpt>
      <trkpt lat="0" lon="0">
        <time>2020-12-20T10:25:39.918000+00:00</time>
      </trkpt>
      <trkpt lat="0" lon="0">
        <time>2020-12-20T10:25:39.920000+00:00</time>
      </trkpt>
      <trkpt lat="47.33216" lon="-1.35348">
        <ele>146</ele>
        <time>2020-12-20T10:25:40.945000+00:00</time>
      </trkpt>
      <trkpt lat="0" lon="0">
        <time>2020-12-20T10:25:40.962000+00:00</time>
      </trkpt>
      <trkpt lat="0" lon="0">
        <time>2020-12-20T10:25:40.967000+00:00</time>
      </trkpt>
      <trkpt lat="0" lon="0">
        <time>2020-12-20T10:25:40.972000+00:00</time>
      </trkpt>
      <trkpt lat="47.33217" lon="-1.3535">
        <ele>146</ele>
        <time>2020-12-20T10:25:41.886000+00:00</time>
      </trkpt>
      <trkpt lat="0" lon="0">
        <time>2020-12-20T10:25:41.895000+00:00</time>
      </trkpt>
      <trkpt lat="0" lon="0">
        <time>2020-12-20T10:25:41.900000+00:00</time>
      </trkpt>
      <trkpt lat="0" lon="0">
        <time>2020-12-20T10:25:41.902000+00:00</time>
      </trkpt>
      <trkpt lat="47.33218" lon="-1.35353">
        <ele>147</ele>
        <time>2020-12-20T10:25:42.881000+00:00</time>
      </trkpt>
      <trkpt lat="0" lon="0">
        <time>2020-12-20T10:25:42.896000+00:00</time>
      </trkpt>
      <trkpt lat="0" lon="0">
        <time>2020-12-20T10:25:42.902000+00:00</time>
      </trkpt>
      <trkpt lat="0" lon="0">
        <time>2020-12-20T10:25:42.903000+00:00</time>
      </trkpt>
      <trkpt lat="47.33219" lon="-1.35356">
        <ele>147</ele>
        <time>2020-12-20T10:25:43.917000+00:00</time>
      </trkpt>
      <trkpt lat="0" lon="0">
        <time>2020-12-20T10:25:43.927000+00:00</time>
      </trkpt>
      <trkpt lat="0" lon="0">
        <time>2020-12-20T10:25:43.933000+00:00</time>
      </trkpt>
      <trkpt lat="0" lon="0">
        <time>2020-12-20T10:25:43.939000+00:00</time>
      </trkpt>
      <trkpt lat="47.3322" lon="-1.35359">
        <ele>147</ele>
        <time>2020-12-20T10:25:44.900000+00:00</time>
      </trkpt>
      <trkpt lat="0" lon="0">
        <time>2020-12-20T10:25:44.909000+00:00</time>
      </trkpt>
      <trkpt lat="0" lon="0">
        <time>2020-12-20T10:25:44.922000+00:00</time>
      </trkpt>
      <trkpt lat="0" lon="0">
        <time>2020-12-20T10:25:44.923000+00:00</time>
      </trkpt>
      <trkpt lat="47.33221" lon="-1.35362">
        <ele>148</ele>
        <time>2020-12-20T10:25:45.874000+00:00</time>
      </trkpt>
      <trkpt lat="0" lon="0">
        <time>2020-12-20T10:25:45.886000+00:00</time>
      </trkpt>
      <trkpt lat="0" lon="0">
        <time>2020-12-20T10:25:45.895000+00:00</time>
      </trkpt>
      <trkpt lat="0" lon="0">
        <time>2020-12-20T10:25:45.898000+00:00</time>
      </trkpt>
      <trkpt lat="47.33222" lon="-1.35365">
        <ele>148</ele>
        <time>2020-12-20T10:25:46.877000+00:00</time>
      </trkpt>
      <trkpt lat="0" lon="0">
        <time>2020-12-20T10:25:46.883000+00:00</time>
      </trkpt>
      <trkpt lat="0" lon="0">
        <time>2020-12-20T10:25:46.895000+00:00</time>
      </trkpt>
      <trkpt lat="0" lon="0">
        <time>2020-12-20T10:25:46.898000+00:00</time>
      </trkpt>
      <trkpt lat="47.33223" lon="-1.35368">
        <ele>148</ele>
        <time>2020-12-20T10:25:47.867000+00:00</time>
      </trkpt>
      <trkpt lat="0" lon="0">
        <time>2020-12-20T10:25:47.883000+00:00</time>
      </trkpt>
      <trkpt lat="0" lon="0">
        <time>2020-12-20T10:25:47.889000+00:00</time>
      </trkpt>
      <trkpt lat="0" lon="0">
        <time>2020-12-20T10:25:47.898000+00:00</time>
      </trkpt>
      <trkpt lat="47.33224" lon="-1.3537">
        <ele>147</ele>
        <time>2020-12-20T10:25:48.907000+00:00</time>
      </trkpt>
      <trkpt lat="0" lon="0">
        <time>2020-12-20T10:25:48.913000+00:00</time>
      </trkpt>
      <trkpt lat="0" lon="0">
        <time>2020-12-20T10:25:48.918000+00:00</time>
      </trkpt>
      <trkpt lat="0" lon="0">
        <time>2020-12-20T10:25:48.921000+00:00</time>
      </trkpt>
      <trkpt lat="47.33225" lon="-1.35373">
        <ele>147</ele>
        <time>2020-12-20T10:25:49.895000+00:00</time>
      </trkpt>
      <trkpt lat="0" lon="0">
        <time>2020-12-20T10:25:49.904000+00:00</time>
      </trkpt>
      <trkpt lat="0" lon="0">
        <time>2020-12-20T10:25:49.909000+00:00</time>
      </trkpt>
      <trkpt lat="0" lon="0">
        <time>2020-12-20T10:25:49.911000+00:00</time>
      </trkpt>
      <trkpt lat="47.33226" lon="-1.35375">
        <ele>147</ele>
        <time>2020-12-20T10:25:50.879000+00:00</time>
      </trkpt>
      <trkpt lat="0" lon="0">
        <time>2020-12-20T10:25:50.890000+00:00</time>
      </trkpt>
      <trkpt lat="0" lon="0">
        <time>2020-12-20T10:25:50.895000+00:00</time>
      </trkpt>
      <trkpt lat="0" lon="0">
        <time>2020-12-20T10:25:50.898000+00:00</time>
      </trkpt>
      <trkpt lat="47.33226" lon="-1.35377">
        <ele>147</ele>
        <time>2020-12-20T10:25:51.877000+00:00</time>
      </trkpt>
      <trkpt lat="0" lon="0">
        <time>2020-12-20T10:25:51.887000+00:00</time>
      </trkpt>
      <trkpt lat="0" lon="0">
        <time>2020-12-20T10:25:51.891000+00:00</time>
      </trkpt>
      <trkpt lat="0" lon="0">
        <time>2020-12-20T10:25:51.894000+00:00</time>
      </trkpt>
      <trkpt lat="47.33227" lon="-1.35379">
        <ele>148</ele>
        <time>2020-12-20T10:25:52.890000+00:00</time>
      </trkpt>
      <trkpt lat="0" lon="0">
        <time>2020-12-20T10:25:52.897000+00:00</time>
      </trkpt>
      <trkpt lat="0" lon="0">
        <time>2020-12-20T10:25:52.902000+00:00</time>
      </trkpt>
      <trkpt lat="0" lon="0">
        <time>2020-12-20T10:25:52.904000+00:00</time>
      </trkpt>
      <trkpt lat="47.33227" lon="-1.35381">
        <ele>147</ele>
        <time>2020-12-20T10:25:53.925000+00:00</time>
      </trkpt>
      <trkpt lat="0" lon="0">
        <time>2020-12-20T10:25:53.933000+00:00</time>
      </trkpt>
      <trkpt lat="0" lon="0">
        <time>2020-12-20T10:25:53.938000+00:00</time>
      </trkpt>
      <trkpt lat="0" lon="0">
        <time>2020-12-20T10:25:53.941000+00:00</time>
      </trkpt>
      <trkpt lat="47.33228" lon="-1.35383">
        <ele>148</ele>
        <time>2020-12-20T10:25:54.859000+00:00</time>
      </trkpt>
      <trkpt lat="0" lon="0">
        <time>2020-12-20T10:25:54.865000+00:00</time>
      </trkpt>
      <trkpt lat="0" lon="0">
        <time>2020-12-20T10:25:54.874000+00:00</time>
      </trkpt>
      <trkpt lat="0" lon="0">
        <time>2020-12-20T10:25:54.876000+00:00</time>
      </trkpt>
      <trkpt lat="47.33228" lon="-1.35385">
        <ele>148</ele>
        <time>2020-12-20T10:25:55.895000+00:00</time>
      </trkpt>
      <trkpt lat="0" lon="0">
        <time>2020-12-20T10:25:55.910000+00:00</time>
      </trkpt>
      <trkpt lat="0" lon="0">
        <time>2020-12-20T10:25:55.915000+00:00</time>
      </trkpt>
      <trkpt lat="0" lon="0">
        <time>2020-12-20T10:25:55.919000+00:00</time>
      </trkpt>
      <trkpt lat="47.33229" lon="-1.35387">
        <ele>149</ele>
        <time>2020-12-20T10:25:56.917000+00:00</time>
      </trkpt>
      <trkpt lat="0" lon="0">
        <time>2020-12-20T10:25:56.927000+00:00</time>
      </trkpt>
      <trkpt lat="0" lon="0">
        <time>2020-12-20T10:25:56.936000+00:00</time>
      </trkpt>
      <trkpt lat="0" lon="0">
        <time>2020-12-20T10:25:56.939000+00:00</time>
      </trkpt>
      <trkpt lat="47.33229" lon="-1.35389">
        <ele>149</ele>
        <time>2020-12-20T10:25:57.915000+00:00</time>
      </trkpt>
      <trkpt lat="0" lon="0">
        <time>2020-12-20T10:25:57.926000+00:00</time>
      </trkpt>
      <trkpt lat="0" lon="0">
        <time>2020-12-20T10:25:57.934000+00:00</time>
      </trkpt>
      <trkpt lat="0" lon="0">
        <time>2020-12-20T10:25:57.937000+00:00</time>
      </trkpt>
      <trkpt lat="47.3323" lon="-1.35391">
        <ele>150</ele>
        <time>2020-12-20T10:25:58.886000+00:00</time>
      </trkpt>
      <trkpt lat="0" lon="0">
        <time>2020-12-20T10:25:58.893000+00:00</time>
      </trkpt>
      <trkpt lat="0" lon="0">
        <time>2020-12-20T10:25:58.903000+00:00</time>
      </trkpt>
      <trkpt lat="0" lon="0">
        <time>2020-12-20T10:25:58.906000+00:00</time>
      </trkpt>
      <trkpt lat="47.33231" lon="-1.35393">
        <ele>150</ele>
        <time>2020-12-20T10:25:59.886000+00:00</time>
      </trkpt>
      <trkpt lat="0" lon="0">
        <time>2020-12-20T10:25:59.907000+00:00</time>
      </trkpt>
      <trkpt lat="0" lon="0">
        <time>2020-12-20T10:25:59.911000+00:00</time>
      </trkpt>
      <trkpt lat="0" lon="0">
        <time>2020-12-20T10:25:59.912000+00:00</time>
      </trkpt>
      <trkpt lat="47.33231" lon="-1.35394">
        <ele>150</ele>
        <time>2020-12-20T10:26:00.884000+00:00</time>
      </trkpt>
      <trkpt lat="0" lon="0">
        <time>2020-12-20T10:26:00.899000+00:00</time>
      </trkpt>
      <trkpt lat="0" lon="0">
        <time>2020-12-20T10:26:00.907000+00:00</time>
      </trkpt>
      <trkpt lat="0" lon="0">
        <time>2020-12-20T10:26:00.911000+00:00</time>
      </trkpt>
      <trkpt lat="47.33232" lon="-1.35396">
        <ele>151</ele>
        <time>2020-12-20T10:26:01.871000+00:00</time>
      </trkpt>
      <trkpt lat="0" lon="0">
        <time>2020-12-20T10:26:01.889000+00:00</time>
      </trkpt>
      <trkpt lat="0" lon="0">
        <time>2020-12-20T10:26:01.894000+00:00</time>
      </trkpt>
      <trkpt lat="0" lon="0">
        <time>2020-12-20T10:26:01.897000+00:00</time>
      </trkpt>
      <trkpt lat="47.33233" lon="-1.35398">
        <ele>152</ele>
        <time>2020-12-20T10:26:02.893000+00:00</time>
      </trkpt>
      <trkpt lat="0" lon="0">
        <time>2020-12-20T10:26:02.905000+00:00</time>
      </trkpt>
      <trkpt lat="0" lon="0">
        <time>2020-12-20T10:26:02.910000+00:00</time>
      </trkpt>
      <trkpt lat="0" lon="0">
        <time>2020-12-20T10:26:02.912000+00:00</time>
      </trkpt>
      <trkpt lat="47.33233" lon="-1.354">
        <ele>152</ele>
        <time>2020-12-20T10:26:03.856000+00:00</time>
      </trkpt>
      <trkpt lat="0" lon="0">
        <time>2020-12-20T10:26:03.865000+00:00</time>
      </trkpt>
      <trkpt lat="0" lon="0">
        <time>2020-12-20T10:26:03.867000+00:00</time>
      </trkpt>
      <trkpt lat="0" lon="0">
        <time>2020-12-20T10:26:03.868000+00:00</time>
      </trkpt>
      <trkpt lat="47.33234" lon="-1.35401">
        <ele>152</ele>
        <time>2020-12-20T10:26:04.877000+00:00</time>
      </trkpt>
      <trkpt lat="0" lon="0">
        <time>2020-12-20T10:26:04.883000+00:00</time>
      </trkpt>
      <trkpt lat="0" lon="0">
        <time>2020-12-20T10:26:04.885000+00:00</time>
      </trkpt>
      <trkpt lat="0" lon="0">
        <time>2020-12-20T10:26:04.886000+00:00</time>
      </trkpt>
      <trkpt lat="47.33234" lon="-1.35403">
        <ele>152</ele>
        <time>2020-12-20T10:26:05.915000+00:00</time>
      </trkpt>
      <trkpt lat="0" lon="0">
        <time>2020-12-20T10:26:05.922000+00:00</time>
      </trkpt>
      <trkpt lat="0" lon="0">
        <time>2020-12-20T10:26:05.928000+00:00</time>
      </trkpt>
      <trkpt lat="0" lon="0">
        <time>2020-12-20T10:26:05.932000+00:00</time>
      </trkpt>
      <trkpt lat="47.33235" lon="-1.35404">
        <ele>152</ele>
        <time>2020-12-20T10:26:06.877000+00:00</time>
      </trkpt>
      <trkpt lat="0" lon="0">
        <time>2020-12-20T10:26:06.889000+00:00</time>
      </trkpt>
      <trkpt lat="0" lon="0">
        <time>2020-12-20T10:26:06.891000+00:00</time>
      </trkpt>
      <trkpt lat="0" lon="0">
        <time>2020-12-20T10:26:06.892000+00:00</time>
      </trkpt>
      <trkpt lat="47.33236" lon="-1.35406">
        <ele>153</ele>
        <time>2020-12-20T10:26:07.867000+00:00</time>
      </trkpt>
      <trkpt lat="0" lon="0">
        <time>2020-12-20T10:26:07.872000+00:00</time>
      </trkpt>
      <trkpt lat="0" lon="0">
        <time>2020-12-20T10:26:07.876000+00:00</time>
      </trkpt>
      <trkpt lat="0" lon="0">
        <time>2020-12-20T10:26:07.879000+00:00</time>
      </trkpt>
      <trkpt lat="47.33236" lon="-1.35408">
        <ele>153</ele>
        <time>2020-12-20T10:26:08.908000+00:00</time>
      </trkpt>
      <trkpt lat="0" lon="0">
        <time>2020-12-20T10:26:08.921000+00:00</time>
      </trkpt>
      <trkpt lat="0" lon="0">
        <time>2020-12-20T10:26:08.926000+00:00</time>
      </trkpt>
      <trkpt lat="0" lon="0">
        <time>2020-12-20T10:26:08.934000+00:00</time>
      </trkpt>
      <trkpt lat="47.33237" lon="-1.3541">
        <ele>153</ele>
        <time>2020-12-20T10:26:09.863000+00:00</time>
      </trkpt>
      <trkpt lat="0" lon="0">
        <time>2020-12-20T10:26:09.870000+00:00</time>
      </trkpt>
      <trkpt lat="0" lon="0">
        <time>2020-12-20T10:26:09.876000+00:00</time>
      </trkpt>
      <trkpt lat="0" lon="0">
        <time>2020-12-20T10:26:09.882000+00:00</time>
      </trkpt>
      <trkpt lat="47.33238" lon="-1.35412">
        <ele>153</ele>
        <time>2020-12-20T10:26:10.907000+00:00</time>
      </trkpt>
      <trkpt lat="0" lon="0">
        <time>2020-12-20T10:26:10.921000+00:00</time>
      </trkpt>
      <trkpt lat="0" lon="0">
        <time>2020-12-20T10:26:10.927000+00:00</time>
      </trkpt>
      <trkpt lat="0" lon="0">
        <time>2020-12-20T10:26:10.928000+00:00</time>
      </trkpt>
      <trkpt lat="47.33239" lon="-1.35414">
        <ele>154</ele>
        <time>2020-12-20T10:26:11.883000+00:00</time>
      </trkpt>
      <trkpt lat="0" lon="0">
        <time>2020-12-20T10:26:11.888000+00:00</time>
      </trkpt>
      <trkpt lat="0" lon="0">
        <time>2020-12-20T10:26:11.892000+00:00</time>
      </trkpt>
      <trkpt lat="0" lon="0">
        <time>2020-12-20T10:26:11.893000+00:00</time>
      </trkpt>
      <trkpt lat="47.3324" lon="-1.35416">
        <ele>154</ele>
        <time>2020-12-20T10:26:12.912000+00:00</time>
      </trkpt>
      <trkpt lat="0" lon="0">
        <time>2020-12-20T10:26:12.926000+00:00</time>
      </trkpt>
      <trkpt lat="0" lon="0">
        <time>2020-12-20T10:26:12.931000+00:00</time>
      </trkpt>
      <trkpt lat="0" lon="0">
        <time>2020-12-20T10:26:12.934000+00:00</time>
      </trkpt>
      <trkpt lat="47.33241" lon="-1.35419">
        <ele>153</ele>
        <time>2020-12-20T10:26:13.898000+00:00</time>
      </trkpt>
      <trkpt lat="0" lon="0">
        <time>2020-12-20T10:26:13.921000+00:00</time>
      </trkpt>
      <trkpt lat="0" lon="0">
        <time>2020-12-20T10:26:13.927000+00:00</time>
      </trkpt>
      <trkpt lat="0" lon="0">
        <time>2020-12-20T10:26:13.930000+00:00</time>
      </trkpt>
      <trkpt lat="47.33242" lon="-1.35421">
        <ele>153</ele>
        <time>2020-12-20T10:26:14.916000+00:00</time>
      </trkpt>
      <trkpt lat="0" lon="0">
        <time>2020-12-20T10:26:14.927000+00:00</time>
      </trkpt>
      <trkpt lat="0" lon="0">
        <time>2020-12-20T10:26:14.932000+00:00</time>
      </trkpt>
      <trkpt lat="0" lon="0">
        <time>2020-12-20T10:26:14.934000+00:00</time>
      </trkpt>
      <trkpt lat="47.33242" lon="-1.35422">
        <ele>153</ele>
        <time>2020-12-20T10:26:15.848000+00:00</time>
      </trkpt>
      <trkpt lat="0" lon="0">
        <time>2020-12-20T10:26:15.862000+00:00</time>
      </trkpt>
      <trkpt lat="0" lon="0">
        <time>2020-12-20T10:26:15.866000+00:00</time>
      </trkpt>
      <trkpt lat="0" lon="0">
        <time>2020-12-20T10:26:15.869000+00:00</time>
      </trkpt>
      <trkpt lat="47.33243" lon="-1.35423">
        <ele>153</ele>
        <time>2020-12-20T10:26:16.886000+00:00</time>
      </trkpt>
      <trkpt lat="0" lon="0">
        <time>2020-12-20T10:26:16.897000+00:00</time>
      </trkpt>
      <trkpt lat="0" lon="0">
        <time>2020-12-20T10:26:16.906000+00:00</time>
      </trkpt>
      <trkpt lat="0" lon="0">
        <time>2020-12-20T10:26:16.909000+00:00</time>
      </trkpt>
      <trkpt lat="47.33243" lon="-1.35424">
        <ele>153</ele>
        <time>2020-12-20T10:26:17.891000+00:00</time>
      </trkpt>
      <trkpt lat="0" lon="0">
        <time>2020-12-20T10:26:17.902000+00:00</time>
      </trkpt>
      <trkpt lat="0" lon="0">
        <time>2020-12-20T10:26:17.920000+00:00</time>
      </trkpt>
      <trkpt lat="0" lon="0">
        <time>2020-12-20T10:26:17.925000+00:00</time>
      </trkpt>
      <trkpt lat="47.33243" lon="-1.35425">
        <ele>153</ele>
        <time>2020-12-20T10:26:18.891000+00:00</time>
      </trkpt>
      <trkpt lat="0" lon="0">
        <time>2020-12-20T10:26:18.902000+00:00</time>
      </trkpt>
      <trkpt lat="0" lon="0">
        <time>2020-12-20T10:26:18.911000+00:00</time>
      </trkpt>
      <trkpt lat="0" lon="0">
        <time>2020-12-20T10:26:18.915000+00:00</time>
      </trkpt>
      <trkpt lat="47.33243" lon="-1.35425">
        <ele>153</ele>
        <time>2020-12-20T10:26:19.880000+00:00</time>
      </trkpt>
      <trkpt lat="0" lon="0">
        <time>2020-12-20T10:26:19.888000+00:00</time>
      </trkpt>
      <trkpt lat="0" lon="0">
        <time>2020-12-20T10:26:19.893000+00:00</time>
      </trkpt>
      <trkpt lat="0" lon="0">
        <time>2020-12-20T10:26:19.895000+00:00</time>
      </trkpt>
      <trkpt lat="47.33243" lon="-1.35425">
        <ele>153</ele>
        <time>2020-12-20T10:26:20.914000+00:00</time>
      </trkpt>
      <trkpt lat="0" lon="0">
        <time>2020-12-20T10:26:20.923000+00:00</time>
      </trkpt>
      <trkpt lat="0" lon="0">
        <time>2020-12-20T10:26:20.927000+00:00</time>
      </trkpt>
      <trkpt lat="0" lon="0">
        <time>2020-12-20T10:26:20.931000+00:00</time>
      </trkpt>
      <trkpt lat="47.33243" lon="-1.35425">
        <ele>153</ele>
        <time>2020-12-20T10:26:21.878000+00:00</time>
      </trkpt>
      <trkpt lat="0" lon="0">
        <time>2020-12-20T10:26:21.890000+00:00</time>
      </trkpt>
      <trkpt lat="0" lon="0">
        <time>2020-12-20T10:26:21.894000+00:00</time>
      </trkpt>
      <trkpt lat="0" lon="0">
        <time>2020-12-20T10:26:21.897000+00:00</time>
      </trkpt>
      <trkpt lat="47.33243" lon="-1.35425">
        <ele>153</ele>
        <time>2020-12-20T10:26:22.903000+00:00</time>
      </trkpt>
      <trkpt lat="0" lon="0">
        <time>2020-12-20T10:26:22.910000+00:00</time>
      </trkpt>
      <trkpt lat="0" lon="0">
        <time>2020-12-20T10:26:22.920000+00:00</time>
      </trkpt>
      <trkpt lat="0" lon="0">
        <time>2020-12-20T10:26:22.922000+00:00</time>
      </trkpt>
      <trkpt lat="47.33243" lon="-1.35425">
        <ele>153</ele>
        <time>2020-12-20T10:26:23.915000+00:00</time>
      </trkpt>
      <trkpt lat="0" lon="0">
        <time>2020-12-20T10:26:23.922000+00:00</time>
      </trkpt>
      <trkpt lat="0" lon="0">
        <time>2020-12-20T10:26:23.929000+00:00</time>
      </trkpt>
      <trkpt lat="0" lon="0">
        <time>2020-12-20T10:26:23.945000+00:00</time>
      </trkpt>
      <trkpt lat="47.33251" lon="-1.35443">
        <ele>146</ele>
        <time>2020-12-20T10:26:24.821000+00:00</time>
      </trkpt>
      <trkpt lat="0" lon="0">
        <time>2020-12-20T10:26:24.830000+00:00</time>
      </trkpt>
      <trkpt lat="0" lon="0">
        <time>2020-12-20T10:26:24.837000+00:00</time>
      </trkpt>
      <trkpt lat="0" lon="0">
        <time>2020-12-20T10:26:24.839000+00:00</time>
      </trkpt>
      <trkpt lat="47.33253" lon="-1.35447">
        <ele>146</ele>
        <time>2020-12-20T10:26:25.890000+00:00</time>
      </trkpt>
      <trkpt lat="0" lon="0">
        <time>2020-12-20T10:26:25.897000+00:00</time>
      </trkpt>
      <trkpt lat="0" lon="0">
        <time>2020-12-20T10:26:25.906000+00:00</time>
      </trkpt>
      <trkpt lat="0" lon="0">
        <time>2020-12-20T10:26:25.908000+00:00</time>
      </trkpt>
      <trkpt lat="47.33254" lon="-1.3545">
        <ele>146</ele>
        <time>2020-12-20T10:26:26.873000+00:00</time>
      </trkpt>
      <trkpt lat="0" lon="0">
        <time>2020-12-20T10:26:26.883000+00:00</time>
      </trkpt>
      <trkpt lat="0" lon="0">
        <time>2020-12-20T10:26:26.887000+00:00</time>
      </trkpt>
      <trkpt lat="0" lon="0">
        <time>2020-12-20T10:26:26.890000+00:00</time>
      </trkpt>
      <trkpt lat="47.33255" lon="-1.35453">
        <ele>145</ele>
        <time>2020-12-20T10:26:27.888000+00:00</time>
      </trkpt>
      <trkpt lat="0" lon="0">
        <time>2020-12-20T10:26:27.892000+00:00</time>
      </trkpt>
      <trkpt lat="0" lon="0">
        <time>2020-12-20T10:26:27.904000+00:00</time>
      </trkpt>
      <trkpt lat="0" lon="0">
        <time>2020-12-20T10:26:27.905000+00:00</time>
      </trkpt>
      <trkpt lat="47.33256" lon="-1.35457">
        <ele>145</ele>
        <time>2020-12-20T10:26:28.891000+00:00</time>
      </trkpt>
      <trkpt lat="0" lon="0">
        <time>2020-12-20T10:26:28.897000+00:00</time>
      </trkpt>
      <trkpt lat="0" lon="0">
        <time>2020-12-20T10:26:28.902000+00:00</time>
      </trkpt>
      <trkpt lat="0" lon="0">
        <time>2020-12-20T10:26:28.904000+00:00</time>
      </trkpt>
      <trkpt lat="47.33258" lon="-1.3546">
        <ele>146</ele>
        <time>2020-12-20T10:26:29.942000+00:00</time>
      </trkpt>
      <trkpt lat="0" lon="0">
        <time>2020-12-20T10:26:29.962000+00:00</time>
      </trkpt>
      <trkpt lat="0" lon="0">
        <time>2020-12-20T10:26:29.967000+00:00</time>
      </trkpt>
      <trkpt lat="0" lon="0">
        <time>2020-12-20T10:26:29.970000+00:00</time>
      </trkpt>
      <trkpt lat="47.3326" lon="-1.35464">
        <ele>146</ele>
        <time>2020-12-20T10:26:30.834000+00:00</time>
      </trkpt>
      <trkpt lat="0" lon="0">
        <time>2020-12-20T10:26:30.840000+00:00</time>
      </trkpt>
      <trkpt lat="0" lon="0">
        <time>2020-12-20T10:26:30.849000+00:00</time>
      </trkpt>
      <trkpt lat="0" lon="0">
        <time>2020-12-20T10:26:30.851000+00:00</time>
      </trkpt>
      <trkpt lat="47.33262" lon="-1.35467">
        <ele>148</ele>
        <time>2020-12-20T10:26:31.939000+00:00</time>
      </trkpt>
      <trkpt lat="0" lon="0">
        <time>2020-12-20T10:26:31.944000+00:00</time>
      </trkpt>
      <trkpt lat="0" lon="0">
        <time>2020-12-20T10:26:31.954000+00:00</time>
      </trkpt>
      <trkpt lat="0" lon="0">
        <time>2020-12-20T10:26:31.959000+00:00</time>
      </trkpt>
      <trkpt lat="47.33264" lon="-1.35471">
        <ele>149</ele>
        <time>2020-12-20T10:26:32.909000+00:00</time>
      </trkpt>
      <trkpt lat="0" lon="0">
        <time>2020-12-20T10:26:32.921000+00:00</time>
      </trkpt>
      <trkpt lat="0" lon="0">
        <time>2020-12-20T10:26:32.923000+00:00</time>
      </trkpt>
      <trkpt lat="0" lon="0">
        <time>2020-12-20T10:26:32.924000+00:00</time>
      </trkpt>
      <trkpt lat="47.33268" lon="-1.35479">
        <ele>149</ele>
        <time>2020-12-20T10:26:34.919000+00:00</time>
      </trkpt>
      <trkpt lat="0" lon="0">
        <time>2020-12-20T10:26:34.931000+00:00</time>
      </trkpt>
      <trkpt lat="0" lon="0">
        <time>2020-12-20T10:26:34.936000+00:00</time>
      </trkpt>
      <trkpt lat="0" lon="0">
        <time>2020-12-20T10:26:34.939000+00:00</time>
      </trkpt>
      <trkpt lat="47.3327" lon="-1.35483">
        <ele>148</ele>
        <time>2020-12-20T10:26:35.919000+00:00</time>
      </trkpt>
      <trkpt lat="0" lon="0">
        <time>2020-12-20T10:26:35.925000+00:00</time>
      </trkpt>
      <trkpt lat="0" lon="0">
        <time>2020-12-20T10:26:35.931000+00:00</time>
      </trkpt>
      <trkpt lat="0" lon="0">
        <time>2020-12-20T10:26:35.939000+00:00</time>
      </trkpt>
      <trkpt lat="47.33272" lon="-1.35487">
        <ele>148</ele>
        <time>2020-12-20T10:26:36.902000+00:00</time>
      </trkpt>
      <trkpt lat="0" lon="0">
        <time>2020-12-20T10:26:36.918000+00:00</time>
      </trkpt>
      <trkpt lat="0" lon="0">
        <time>2020-12-20T10:26:36.931000+00:00</time>
      </trkpt>
      <trkpt lat="0" lon="0">
        <time>2020-12-20T10:26:36.932000+00:00</time>
      </trkpt>
      <trkpt lat="47.33274" lon="-1.35491">
        <ele>148</ele>
        <time>2020-12-20T10:26:37.895000+00:00</time>
      </trkpt>
      <trkpt lat="0" lon="0">
        <time>2020-12-20T10:26:37.901000+00:00</time>
      </trkpt>
      <trkpt lat="0" lon="0">
        <time>2020-12-20T10:26:37.906000+00:00</time>
      </trkpt>
      <trkpt lat="0" lon="0">
        <time>2020-12-20T10:26:37.909000+00:00</time>
      </trkpt>
      <trkpt lat="47.33276" lon="-1.35494">
        <ele>148</ele>
        <time>2020-12-20T10:26:38.897000+00:00</time>
      </trkpt>
      <trkpt lat="0" lon="0">
        <time>2020-12-20T10:26:38.903000+00:00</time>
      </trkpt>
      <trkpt lat="0" lon="0">
        <time>2020-12-20T10:26:38.907000+00:00</time>
      </trkpt>
      <trkpt lat="0" lon="0">
        <time>2020-12-20T10:26:38.910000+00:00</time>
      </trkpt>
      <trkpt lat="47.33277" lon="-1.35498">
        <ele>147</ele>
        <time>2020-12-20T10:26:39.878000+00:00</time>
      </trkpt>
      <trkpt lat="0" lon="0">
        <time>2020-12-20T10:26:39.897000+00:00</time>
      </trkpt>
      <trkpt lat="0" lon="0">
        <time>2020-12-20T10:26:39.901000+00:00</time>
      </trkpt>
      <trkpt lat="0" lon="0">
        <time>2020-12-20T10:26:39.904000+00:00</time>
      </trkpt>
      <trkpt lat="47.33279" lon="-1.35501">
        <ele>147</ele>
        <time>2020-12-20T10:26:40.905000+00:00</time>
      </trkpt>
      <trkpt lat="0" lon="0">
        <time>2020-12-20T10:26:40.919000+00:00</time>
      </trkpt>
      <trkpt lat="0" lon="0">
        <time>2020-12-20T10:26:40.923000+00:00</time>
      </trkpt>
      <trkpt lat="0" lon="0">
        <time>2020-12-20T10:26:40.926000+00:00</time>
      </trkpt>
      <trkpt lat="47.3328" lon="-1.35505">
        <ele>147</ele>
        <time>2020-12-20T10:26:41.920000+00:00</time>
      </trkpt>
      <trkpt lat="0" lon="0">
        <time>2020-12-20T10:26:41.927000+00:00</time>
      </trkpt>
      <trkpt lat="0" lon="0">
        <time>2020-12-20T10:26:41.930000+00:00</time>
      </trkpt>
      <trkpt lat="0" lon="0">
        <time>2020-12-20T10:26:41.933000+00:00</time>
      </trkpt>
      <trkpt lat="47.33281" lon="-1.35509">
        <ele>147</ele>
        <time>2020-12-20T10:26:42.907000+00:00</time>
      </trkpt>
      <trkpt lat="0" lon="0">
        <time>2020-12-20T10:26:42.916000+00:00</time>
      </trkpt>
      <trkpt lat="0" lon="0">
        <time>2020-12-20T10:26:42.926000+00:00</time>
      </trkpt>
      <trkpt lat="0" lon="0">
        <time>2020-12-20T10:26:42.929000+00:00</time>
      </trkpt>
      <trkpt lat="47.33283" lon="-1.35512">
        <ele>147</ele>
        <time>2020-12-20T10:26:43.908000+00:00</time>
      </trkpt>
      <trkpt lat="0" lon="0">
        <time>2020-12-20T10:26:43.922000+00:00</time>
      </trkpt>
      <trkpt lat="0" lon="0">
        <time>2020-12-20T10:26:43.928000+00:00</time>
      </trkpt>
      <trkpt lat="0" lon="0">
        <time>2020-12-20T10:26:43.931000+00:00</time>
      </trkpt>
      <trkpt lat="47.33284" lon="-1.35516">
        <ele>147</ele>
        <time>2020-12-20T10:26:44.924000+00:00</time>
      </trkpt>
      <trkpt lat="0" lon="0">
        <time>2020-12-20T10:26:44.947000+00:00</time>
      </trkpt>
      <trkpt lat="0" lon="0">
        <time>2020-12-20T10:26:44.959000+00:00</time>
      </trkpt>
      <trkpt lat="0" lon="0">
        <time>2020-12-20T10:26:44.961000+00:00</time>
      </trkpt>
      <trkpt lat="47.33286" lon="-1.35519">
        <ele>146</ele>
        <time>2020-12-20T10:26:45.852000+00:00</time>
      </trkpt>
      <trkpt lat="0" lon="0">
        <time>2020-12-20T10:26:45.854000+00:00</time>
      </trkpt>
      <trkpt lat="0" lon="0">
        <time>2020-12-20T10:26:45.856000+00:00</time>
      </trkpt>
      <trkpt lat="0" lon="0">
        <time>2020-12-20T10:26:45.865000+00:00</time>
      </trkpt>
      <trkpt lat="47.33287" lon="-1.35523">
        <ele>146</ele>
        <time>2020-12-20T10:26:46.857000+00:00</time>
      </trkpt>
      <trkpt lat="0" lon="0">
        <time>2020-12-20T10:26:46.867000+00:00</time>
      </trkpt>
      <trkpt lat="0" lon="0">
        <time>2020-12-20T10:26:46.872000+00:00</time>
      </trkpt>
      <trkpt lat="0" lon="0">
        <time>2020-12-20T10:26:46.874000+00:00</time>
      </trkpt>
      <trkpt lat="47.33288" lon="-1.35526">
        <ele>146</ele>
        <time>2020-12-20T10:26:47.856000+00:00</time>
      </trkpt>
      <trkpt lat="0" lon="0">
        <time>2020-12-20T10:26:47.865000+00:00</time>
      </trkpt>
      <trkpt lat="0" lon="0">
        <time>2020-12-20T10:26:47.871000+00:00</time>
      </trkpt>
      <trkpt lat="0" lon="0">
        <time>2020-12-20T10:26:47.875000+00:00</time>
      </trkpt>
      <trkpt lat="47.3329" lon="-1.3553">
        <ele>146</ele>
        <time>2020-12-20T10:26:48.849000+00:00</time>
      </trkpt>
      <trkpt lat="0" lon="0">
        <time>2020-12-20T10:26:48.875000+00:00</time>
      </trkpt>
      <trkpt lat="0" lon="0">
        <time>2020-12-20T10:26:48.881000+00:00</time>
      </trkpt>
      <trkpt lat="0" lon="0">
        <time>2020-12-20T10:26:48.884000+00:00</time>
      </trkpt>
      <trkpt lat="47.33291" lon="-1.35533">
        <ele>145</ele>
        <time>2020-12-20T10:26:49.884000+00:00</time>
      </trkpt>
      <trkpt lat="0" lon="0">
        <time>2020-12-20T10:26:49.895000+00:00</time>
      </trkpt>
      <trkpt lat="0" lon="0">
        <time>2020-12-20T10:26:49.900000+00:00</time>
      </trkpt>
      <trkpt lat="0" lon="0">
        <time>2020-12-20T10:26:49.903000+00:00</time>
      </trkpt>
      <trkpt lat="47.33292" lon="-1.35536">
        <ele>145</ele>
        <time>2020-12-20T10:26:50.879000+00:00</time>
      </trkpt>
      <trkpt lat="0" lon="0">
        <time>2020-12-20T10:26:50.884000+00:00</time>
      </trkpt>
      <trkpt lat="0" lon="0">
        <time>2020-12-20T10:26:50.890000+00:00</time>
      </trkpt>
      <trkpt lat="0" lon="0">
        <time>2020-12-20T10:26:50.891000+00:00</time>
      </trkpt>
      <trkpt lat="47.33293" lon="-1.35539">
        <ele>145</ele>
        <time>2020-12-20T10:26:51.891000+00:00</time>
      </trkpt>
      <trkpt lat="0" lon="0">
        <time>2020-12-20T10:26:51.900000+00:00</time>
      </trkpt>
      <trkpt lat="0" lon="0">
        <time>2020-12-20T10:26:51.905000+00:00</time>
      </trkpt>
      <trkpt lat="0" lon="0">
        <time>2020-12-20T10:26:51.907000+00:00</time>
      </trkpt>
      <trkpt lat="47.33294" lon="-1.35543">
        <ele>145</ele>
        <time>2020-12-20T10:26:52.881000+00:00</time>
      </trkpt>
      <trkpt lat="0" lon="0">
        <time>2020-12-20T10:26:52.887000+00:00</time>
      </trkpt>
      <trkpt lat="0" lon="0">
        <time>2020-12-20T10:26:52.892000+00:00</time>
      </trkpt>
      <trkpt lat="0" lon="0">
        <time>2020-12-20T10:26:52.895000+00:00</time>
      </trkpt>
      <trkpt lat="47.33295" lon="-1.35546">
        <ele>145</ele>
        <time>2020-12-20T10:26:53.868000+00:00</time>
      </trkpt>
      <trkpt lat="0" lon="0">
        <time>2020-12-20T10:26:53.881000+00:00</time>
      </trkpt>
      <trkpt lat="0" lon="0">
        <time>2020-12-20T10:26:53.884000+00:00</time>
      </trkpt>
      <trkpt lat="0" lon="0">
        <time>2020-12-20T10:26:53.887000+00:00</time>
      </trkpt>
      <trkpt lat="47.33296" lon="-1.35549">
        <ele>145</ele>
        <time>2020-12-20T10:26:54.902000+00:00</time>
      </trkpt>
      <trkpt lat="0" lon="0">
        <time>2020-12-20T10:26:54.912000+00:00</time>
      </trkpt>
      <trkpt lat="0" lon="0">
        <time>2020-12-20T10:26:54.916000+00:00</time>
      </trkpt>
      <trkpt lat="0" lon="0">
        <time>2020-12-20T10:26:54.920000+00:00</time>
      </trkpt>
      <trkpt lat="47.33297" lon="-1.35552">
        <ele>146</ele>
        <time>2020-12-20T10:26:55.903000+00:00</time>
      </trkpt>
      <trkpt lat="0" lon="0">
        <time>2020-12-20T10:26:55.910000+00:00</time>
      </trkpt>
      <trkpt lat="0" lon="0">
        <time>2020-12-20T10:26:55.916000+00:00</time>
      </trkpt>
      <trkpt lat="0" lon="0">
        <time>2020-12-20T10:26:55.920000+00:00</time>
      </trkpt>
      <trkpt lat="47.33298" lon="-1.35556">
        <ele>146</ele>
        <time>2020-12-20T10:26:56.899000+00:00</time>
      </trkpt>
      <trkpt lat="0" lon="0">
        <time>2020-12-20T10:26:56.918000+00:00</time>
      </trkpt>
      <trkpt lat="0" lon="0">
        <time>2020-12-20T10:26:56.922000+00:00</time>
      </trkpt>
      <trkpt lat="0" lon="0">
        <time>2020-12-20T10:26:56.924000+00:00</time>
      </trkpt>
      <trkpt lat="47.333" lon="-1.35559">
        <ele>147</ele>
        <time>2020-12-20T10:26:57.931000+00:00</time>
      </trkpt>
      <trkpt lat="0" lon="0">
        <time>2020-12-20T10:26:57.938000+00:00</time>
      </trkpt>
      <trkpt lat="0" lon="0">
        <time>2020-12-20T10:26:57.943000+00:00</time>
      </trkpt>
      <trkpt lat="0" lon="0">
        <time>2020-12-20T10:26:57.945000+00:00</time>
      </trkpt>
      <trkpt lat="47.33301" lon="-1.35563">
        <ele>147</ele>
        <time>2020-12-20T10:26:58.908000+00:00</time>
      </trkpt>
      <trkpt lat="0" lon="0">
        <time>2020-12-20T10:26:58.929000+00:00</time>
      </trkpt>
      <trkpt lat="0" lon="0">
        <time>2020-12-20T10:26:58.941000+00:00</time>
      </trkpt>
      <trkpt lat="0" lon="0">
        <time>2020-12-20T10:26:58.943000+00:00</time>
      </trkpt>
      <trkpt lat="47.33303" lon="-1.35567">
        <ele>148</ele>
        <time>2020-12-20T10:26:59.887000+00:00</time>
      </trkpt>
      <trkpt lat="0" lon="0">
        <time>2020-12-20T10:26:59.892000+00:00</time>
      </trkpt>
      <trkpt lat="0" lon="0">
        <time>2020-12-20T10:26:59.897000+00:00</time>
      </trkpt>
      <trkpt lat="0" lon="0">
        <time>2020-12-20T10:26:59.899000+00:00</time>
      </trkpt>
      <trkpt lat="47.33304" lon="-1.35571">
        <ele>148</ele>
        <time>2020-12-20T10:27:00.881000+00:00</time>
      </trkpt>
      <trkpt lat="0" lon="0">
        <time>2020-12-20T10:27:00.895000+00:00</time>
      </trkpt>
      <trkpt lat="0" lon="0">
        <time>2020-12-20T10:27:00.907000+00:00</time>
      </trkpt>
      <trkpt lat="0" lon="0">
        <time>2020-12-20T10:27:00.908000+00:00</time>
      </trkpt>
      <trkpt lat="47.33306" lon="-1.35575">
        <ele>148</ele>
        <time>2020-12-20T10:27:01.906000+00:00</time>
      </trkpt>
      <trkpt lat="0" lon="0">
        <time>2020-12-20T10:27:01.914000+00:00</time>
      </trkpt>
      <trkpt lat="0" lon="0">
        <time>2020-12-20T10:27:01.916000+00:00</time>
      </trkpt>
      <trkpt lat="0" lon="0">
        <time>2020-12-20T10:27:01.918000+00:00</time>
      </trkpt>
      <trkpt lat="47.33307" lon="-1.35579">
        <ele>148</ele>
        <time>2020-12-20T10:27:02.951000+00:00</time>
      </trkpt>
      <trkpt lat="0" lon="0">
        <time>2020-12-20T10:27:02.960000+00:00</time>
      </trkpt>
      <trkpt lat="0" lon="0">
        <time>2020-12-20T10:27:02.973000+00:00</time>
      </trkpt>
      <trkpt lat="0" lon="0">
        <time>2020-12-20T10:27:02.976000+00:00</time>
      </trkpt>
      <trkpt lat="47.33308" lon="-1.35583">
        <ele>148</ele>
        <time>2020-12-20T10:27:03.898000+00:00</time>
      </trkpt>
      <trkpt lat="0" lon="0">
        <time>2020-12-20T10:27:03.905000+00:00</time>
      </trkpt>
      <trkpt lat="0" lon="0">
        <time>2020-12-20T10:27:03.907000+00:00</time>
      </trkpt>
      <trkpt lat="0" lon="0">
        <time>2020-12-20T10:27:03.908000+00:00</time>
      </trkpt>
      <trkpt lat="47.33309" lon="-1.35587">
        <ele>149</ele>
        <time>2020-12-20T10:27:04.939000+00:00</time>
      </trkpt>
      <trkpt lat="0" lon="0">
        <time>2020-12-20T10:27:04.948000+00:00</time>
      </trkpt>
      <trkpt lat="0" lon="0">
        <time>2020-12-20T10:27:04.956000+00:00</time>
      </trkpt>
      <trkpt lat="0" lon="0">
        <time>2020-12-20T10:27:04.958000+00:00</time>
      </trkpt>
      <trkpt lat="47.3331" lon="-1.3559">
        <ele>149</ele>
        <time>2020-12-20T10:27:05.897000+00:00</time>
      </trkpt>
      <trkpt lat="0" lon="0">
        <time>2020-12-20T10:27:05.906000+00:00</time>
      </trkpt>
      <trkpt lat="0" lon="0">
        <time>2020-12-20T10:27:05.914000+00:00</time>
      </trkpt>
      <trkpt lat="0" lon="0">
        <time>2020-12-20T10:27:05.918000+00:00</time>
      </trkpt>
      <trkpt lat="47.33311" lon="-1.35594">
        <ele>149</ele>
        <time>2020-12-20T10:27:06.927000+00:00</time>
      </trkpt>
      <trkpt lat="0" lon="0">
        <time>2020-12-20T10:27:06.945000+00:00</time>
      </trkpt>
      <trkpt lat="0" lon="0">
        <time>2020-12-20T10:27:06.949000+00:00</time>
      </trkpt>
      <trkpt lat="0" lon="0">
        <time>2020-12-20T10:27:06.953000+00:00</time>
      </trkpt>
      <trkpt lat="47.33312" lon="-1.35598">
        <ele>149</ele>
        <time>2020-12-20T10:27:07.847000+00:00</time>
      </trkpt>
      <trkpt lat="0" lon="0">
        <time>2020-12-20T10:27:07.853000+00:00</time>
      </trkpt>
      <trkpt lat="0" lon="0">
        <time>2020-12-20T10:27:07.854000+00:00</time>
      </trkpt>
      <trkpt lat="0" lon="0">
        <time>2020-12-20T10:27:07.856000+00:00</time>
      </trkpt>
      <trkpt lat="47.33312" lon="-1.35601">
        <ele>149</ele>
        <time>2020-12-20T10:27:08.875000+00:00</time>
      </trkpt>
      <trkpt lat="0" lon="0">
        <time>2020-12-20T10:27:08.894000+00:00</time>
      </trkpt>
      <trkpt lat="0" lon="0">
        <time>2020-12-20T10:27:08.899000+00:00</time>
      </trkpt>
      <trkpt lat="0" lon="0">
        <time>2020-12-20T10:27:08.902000+00:00</time>
      </trkpt>
      <trkpt lat="47.33312" lon="-1.35605">
        <ele>149</ele>
        <time>2020-12-20T10:27:09.847000+00:00</time>
      </trkpt>
      <trkpt lat="0" lon="0">
        <time>2020-12-20T10:27:09.868000+00:00</time>
      </trkpt>
      <trkpt lat="0" lon="0">
        <time>2020-12-20T10:27:09.875000+00:00</time>
      </trkpt>
      <trkpt lat="0" lon="0">
        <time>2020-12-20T10:27:09.877000+00:00</time>
      </trkpt>
      <trkpt lat="47.33312" lon="-1.35609">
        <ele>148</ele>
        <time>2020-12-20T10:27:10.895000+00:00</time>
      </trkpt>
      <trkpt lat="0" lon="0">
        <time>2020-12-20T10:27:10.913000+00:00</time>
      </trkpt>
      <trkpt lat="0" lon="0">
        <time>2020-12-20T10:27:10.917000+00:00</time>
      </trkpt>
      <trkpt lat="0" lon="0">
        <time>2020-12-20T10:27:10.920000+00:00</time>
      </trkpt>
      <trkpt lat="47.33312" lon="-1.35612">
        <ele>148</ele>
        <time>2020-12-20T10:27:11.936000+00:00</time>
      </trkpt>
      <trkpt lat="0" lon="0">
        <time>2020-12-20T10:27:11.952000+00:00</time>
      </trkpt>
      <trkpt lat="0" lon="0">
        <time>2020-12-20T10:27:11.958000+00:00</time>
      </trkpt>
      <trkpt lat="0" lon="0">
        <time>2020-12-20T10:27:11.961000+00:00</time>
      </trkpt>
      <trkpt lat="47.33312" lon="-1.35615">
        <ele>147</ele>
        <time>2020-12-20T10:27:12.889000+00:00</time>
      </trkpt>
      <trkpt lat="0" lon="0">
        <time>2020-12-20T10:27:12.898000+00:00</time>
      </trkpt>
      <trkpt lat="0" lon="0">
        <time>2020-12-20T10:27:12.904000+00:00</time>
      </trkpt>
      <trkpt lat="0" lon="0">
        <time>2020-12-20T10:27:12.910000+00:00</time>
      </trkpt>
      <trkpt lat="47.33311" lon="-1.35618">
        <ele>147</ele>
        <time>2020-12-20T10:27:13.845000+00:00</time>
      </trkpt>
      <trkpt lat="0" lon="0">
        <time>2020-12-20T10:27:13.855000+00:00</time>
      </trkpt>
      <trkpt lat="0" lon="0">
        <time>2020-12-20T10:27:13.857000+00:00</time>
      </trkpt>
      <trkpt lat="0" lon="0">
        <time>2020-12-20T10:27:13.860000+00:00</time>
      </trkpt>
      <trkpt lat="47.33311" lon="-1.3562">
        <ele>146</ele>
        <time>2020-12-20T10:27:14.912000+00:00</time>
      </trkpt>
      <trkpt lat="0" lon="0">
        <time>2020-12-20T10:27:14.921000+00:00</time>
      </trkpt>
      <trkpt lat="0" lon="0">
        <time>2020-12-20T10:27:14.929000+00:00</time>
      </trkpt>
      <trkpt lat="0" lon="0">
        <time>2020-12-20T10:27:14.935000+00:00</time>
      </trkpt>
      <trkpt lat="47.3331" lon="-1.35623">
        <ele>145</ele>
        <time>2020-12-20T10:27:15.897000+00:00</time>
      </trkpt>
      <trkpt lat="0" lon="0">
        <time>2020-12-20T10:27:15.899000+00:00</time>
      </trkpt>
      <trkpt lat="0" lon="0">
        <time>2020-12-20T10:27:15.901000+00:00</time>
      </trkpt>
      <trkpt lat="0" lon="0">
        <time>2020-12-20T10:27:15.902000+00:00</time>
      </trkpt>
      <trkpt lat="47.33309" lon="-1.35624">
        <ele>145</ele>
        <time>2020-12-20T10:27:16.941000+00:00</time>
      </trkpt>
      <trkpt lat="0" lon="0">
        <time>2020-12-20T10:27:16.947000+00:00</time>
      </trkpt>
      <trkpt lat="0" lon="0">
        <time>2020-12-20T10:27:16.953000+00:00</time>
      </trkpt>
      <trkpt lat="0" lon="0">
        <time>2020-12-20T10:27:16.956000+00:00</time>
      </trkpt>
      <trkpt lat="47.33309" lon="-1.35626">
        <ele>144</ele>
        <time>2020-12-20T10:27:17.913000+00:00</time>
      </trkpt>
      <trkpt lat="0" lon="0">
        <time>2020-12-20T10:27:17.924000+00:00</time>
      </trkpt>
      <trkpt lat="0" lon="0">
        <time>2020-12-20T10:27:17.928000+00:00</time>
      </trkpt>
      <trkpt lat="0" lon="0">
        <time>2020-12-20T10:27:17.931000+00:00</time>
      </trkpt>
      <trkpt lat="47.33308" lon="-1.35627">
        <ele>143</ele>
        <time>2020-12-20T10:27:18.900000+00:00</time>
      </trkpt>
      <trkpt lat="0" lon="0">
        <time>2020-12-20T10:27:18.924000+00:00</time>
      </trkpt>
      <trkpt lat="0" lon="0">
        <time>2020-12-20T10:27:18.928000+00:00</time>
      </trkpt>
      <trkpt lat="0" lon="0">
        <time>2020-12-20T10:27:18.931000+00:00</time>
      </trkpt>
      <trkpt lat="47.33307" lon="-1.35629">
        <ele>143</ele>
        <time>2020-12-20T10:27:19.901000+00:00</time>
      </trkpt>
      <trkpt lat="0" lon="0">
        <time>2020-12-20T10:27:19.907000+00:00</time>
      </trkpt>
      <trkpt lat="0" lon="0">
        <time>2020-12-20T10:27:19.909000+00:00</time>
      </trkpt>
      <trkpt lat="0" lon="0">
        <time>2020-12-20T10:27:19.910000+00:00</time>
      </trkpt>
      <trkpt lat="47.33306" lon="-1.3563">
        <ele>142</ele>
        <time>2020-12-20T10:27:20.885000+00:00</time>
      </trkpt>
      <trkpt lat="0" lon="0">
        <time>2020-12-20T10:27:20.892000+00:00</time>
      </trkpt>
      <trkpt lat="0" lon="0">
        <time>2020-12-20T10:27:20.898000+00:00</time>
      </trkpt>
      <trkpt lat="0" lon="0">
        <time>2020-12-20T10:27:20.900000+00:00</time>
      </trkpt>
      <trkpt lat="47.33305" lon="-1.35631">
        <ele>141</ele>
        <time>2020-12-20T10:27:21.907000+00:00</time>
      </trkpt>
      <trkpt lat="0" lon="0">
        <time>2020-12-20T10:27:21.912000+00:00</time>
      </trkpt>
      <trkpt lat="0" lon="0">
        <time>2020-12-20T10:27:21.917000+00:00</time>
      </trkpt>
      <trkpt lat="0" lon="0">
        <time>2020-12-20T10:27:21.919000+00:00</time>
      </trkpt>
      <trkpt lat="47.33304" lon="-1.35632">
        <ele>141</ele>
        <time>2020-12-20T10:27:22.908000+00:00</time>
      </trkpt>
      <trkpt lat="0" lon="0">
        <time>2020-12-20T10:27:22.914000+00:00</time>
      </trkpt>
      <trkpt lat="0" lon="0">
        <time>2020-12-20T10:27:22.921000+00:00</time>
      </trkpt>
      <trkpt lat="0" lon="0">
        <time>2020-12-20T10:27:22.925000+00:00</time>
      </trkpt>
      <trkpt lat="47.33303" lon="-1.35633">
        <ele>140</ele>
        <time>2020-12-20T10:27:23.887000+00:00</time>
      </trkpt>
      <trkpt lat="0" lon="0">
        <time>2020-12-20T10:27:23.898000+00:00</time>
      </trkpt>
      <trkpt lat="0" lon="0">
        <time>2020-12-20T10:27:23.906000+00:00</time>
      </trkpt>
      <trkpt lat="0" lon="0">
        <time>2020-12-20T10:27:23.909000+00:00</time>
      </trkpt>
      <trkpt lat="47.33302" lon="-1.35633">
        <ele>140</ele>
        <time>2020-12-20T10:27:24.888000+00:00</time>
      </trkpt>
      <trkpt lat="0" lon="0">
        <time>2020-12-20T10:27:24.898000+00:00</time>
      </trkpt>
      <trkpt lat="0" lon="0">
        <time>2020-12-20T10:27:24.902000+00:00</time>
      </trkpt>
      <trkpt lat="0" lon="0">
        <time>2020-12-20T10:27:24.905000+00:00</time>
      </trkpt>
      <trkpt lat="47.33301" lon="-1.35634">
        <ele>139</ele>
        <time>2020-12-20T10:27:25.900000+00:00</time>
      </trkpt>
      <trkpt lat="0" lon="0">
        <time>2020-12-20T10:27:25.907000+00:00</time>
      </trkpt>
      <trkpt lat="0" lon="0">
        <time>2020-12-20T10:27:25.909000+00:00</time>
      </trkpt>
      <trkpt lat="0" lon="0">
        <time>2020-12-20T10:27:25.910000+00:00</time>
      </trkpt>
      <trkpt lat="47.333" lon="-1.35634">
        <ele>139</ele>
        <time>2020-12-20T10:27:26.915000+00:00</time>
      </trkpt>
      <trkpt lat="0" lon="0">
        <time>2020-12-20T10:27:26.924000+00:00</time>
      </trkpt>
      <trkpt lat="0" lon="0">
        <time>2020-12-20T10:27:26.932000+00:00</time>
      </trkpt>
      <trkpt lat="0" lon="0">
        <time>2020-12-20T10:27:26.935000+00:00</time>
      </trkpt>
      <trkpt lat="47.33299" lon="-1.35634">
        <ele>139</ele>
        <time>2020-12-20T10:27:27.911000+00:00</time>
      </trkpt>
      <trkpt lat="0" lon="0">
        <time>2020-12-20T10:27:27.925000+00:00</time>
      </trkpt>
      <trkpt lat="0" lon="0">
        <time>2020-12-20T10:27:27.935000+00:00</time>
      </trkpt>
      <trkpt lat="0" lon="0">
        <time>2020-12-20T10:27:27.941000+00:00</time>
      </trkpt>
      <trkpt lat="47.33298" lon="-1.35634">
        <ele>138</ele>
        <time>2020-12-20T10:27:28.885000+00:00</time>
      </trkpt>
      <trkpt lat="0" lon="0">
        <time>2020-12-20T10:27:28.905000+00:00</time>
      </trkpt>
      <trkpt lat="0" lon="0">
        <time>2020-12-20T10:27:28.914000+00:00</time>
      </trkpt>
      <trkpt lat="0" lon="0">
        <time>2020-12-20T10:27:28.919000+00:00</time>
      </trkpt>
      <trkpt lat="47.33297" lon="-1.35634">
        <ele>139</ele>
        <time>2020-12-20T10:27:29.884000+00:00</time>
      </trkpt>
      <trkpt lat="0" lon="0">
        <time>2020-12-20T10:27:29.901000+00:00</time>
      </trkpt>
      <trkpt lat="0" lon="0">
        <time>2020-12-20T10:27:29.911000+00:00</time>
      </trkpt>
      <trkpt lat="0" lon="0">
        <time>2020-12-20T10:27:29.915000+00:00</time>
      </trkpt>
      <trkpt lat="47.33296" lon="-1.35634">
        <ele>139</ele>
        <time>2020-12-20T10:27:30.891000+00:00</time>
      </trkpt>
      <trkpt lat="0" lon="0">
        <time>2020-12-20T10:27:30.902000+00:00</time>
      </trkpt>
      <trkpt lat="0" lon="0">
        <time>2020-12-20T10:27:30.906000+00:00</time>
      </trkpt>
      <trkpt lat="0" lon="0">
        <time>2020-12-20T10:27:30.908000+00:00</time>
      </trkpt>
      <trkpt lat="47.33295" lon="-1.35635">
        <ele>138</ele>
        <time>2020-12-20T10:27:31.926000+00:00</time>
      </trkpt>
      <trkpt lat="0" lon="0">
        <time>2020-12-20T10:27:31.932000+00:00</time>
      </trkpt>
      <trkpt lat="0" lon="0">
        <time>2020-12-20T10:27:31.934000+00:00</time>
      </trkpt>
      <trkpt lat="0" lon="0">
        <time>2020-12-20T10:27:31.935000+00:00</time>
      </trkpt>
      <trkpt lat="47.33293" lon="-1.35635">
        <ele>138</ele>
        <time>2020-12-20T10:27:32.891000+00:00</time>
      </trkpt>
      <trkpt lat="0" lon="0">
        <time>2020-12-20T10:27:32.898000+00:00</time>
      </trkpt>
      <trkpt lat="0" lon="0">
        <time>2020-12-20T10:27:32.905000+00:00</time>
      </trkpt>
      <trkpt lat="0" lon="0">
        <time>2020-12-20T10:27:32.907000+00:00</time>
      </trkpt>
      <trkpt lat="47.33292" lon="-1.35636">
        <ele>138</ele>
        <time>2020-12-20T10:27:33.928000+00:00</time>
      </trkpt>
      <trkpt lat="0" lon="0">
        <time>2020-12-20T10:27:33.937000+00:00</time>
      </trkpt>
      <trkpt lat="0" lon="0">
        <time>2020-12-20T10:27:33.942000+00:00</time>
      </trkpt>
      <trkpt lat="0" lon="0">
        <time>2020-12-20T10:27:33.944000+00:00</time>
      </trkpt>
      <trkpt lat="47.33291" lon="-1.35637">
        <ele>137</ele>
        <time>2020-12-20T10:27:34.909000+00:00</time>
      </trkpt>
      <trkpt lat="0" lon="0">
        <time>2020-12-20T10:27:34.926000+00:00</time>
      </trkpt>
      <trkpt lat="0" lon="0">
        <time>2020-12-20T10:27:34.931000+00:00</time>
      </trkpt>
      <trkpt lat="0" lon="0">
        <time>2020-12-20T10:27:34.934000+00:00</time>
      </trkpt>
      <trkpt lat="47.33289" lon="-1.35638">
        <ele>137</ele>
        <time>2020-12-20T10:27:35.904000+00:00</time>
      </trkpt>
      <trkpt lat="0" lon="0">
        <time>2020-12-20T10:27:35.920000+00:00</time>
      </trkpt>
      <trkpt lat="0" lon="0">
        <time>2020-12-20T10:27:35.926000+00:00</time>
      </trkpt>
      <trkpt lat="0" lon="0">
        <time>2020-12-20T10:27:35.928000+00:00</time>
      </trkpt>
      <trkpt lat="47.33288" lon="-1.35638">
        <ele>136</ele>
        <time>2020-12-20T10:27:36.914000+00:00</time>
      </trkpt>
      <trkpt lat="0" lon="0">
        <time>2020-12-20T10:27:36.926000+00:00</time>
      </trkpt>
      <trkpt lat="0" lon="0">
        <time>2020-12-20T10:27:36.931000+00:00</time>
      </trkpt>
      <trkpt lat="0" lon="0">
        <time>2020-12-20T10:27:36.933000+00:00</time>
      </trkpt>
      <trkpt lat="47.33287" lon="-1.35639">
        <ele>136</ele>
        <time>2020-12-20T10:27:37.926000+00:00</time>
      </trkpt>
      <trkpt lat="0" lon="0">
        <time>2020-12-20T10:27:37.936000+00:00</time>
      </trkpt>
      <trkpt lat="0" lon="0">
        <time>2020-12-20T10:27:37.940000+00:00</time>
      </trkpt>
      <trkpt lat="0" lon="0">
        <time>2020-12-20T10:27:37.943000+00:00</time>
      </trkpt>
      <trkpt lat="47.33286" lon="-1.3564">
        <ele>136</ele>
        <time>2020-12-20T10:27:38.879000+00:00</time>
      </trkpt>
      <trkpt lat="0" lon="0">
        <time>2020-12-20T10:27:38.889000+00:00</time>
      </trkpt>
      <trkpt lat="0" lon="0">
        <time>2020-12-20T10:27:38.895000+00:00</time>
      </trkpt>
      <trkpt lat="0" lon="0">
        <time>2020-12-20T10:27:38.901000+00:00</time>
      </trkpt>
      <trkpt lat="47.33284" lon="-1.3564">
        <ele>136</ele>
        <time>2020-12-20T10:27:39.879000+00:00</time>
      </trkpt>
      <trkpt lat="0" lon="0">
        <time>2020-12-20T10:27:39.887000+00:00</time>
      </trkpt>
      <trkpt lat="0" lon="0">
        <time>2020-12-20T10:27:39.891000+00:00</time>
      </trkpt>
      <trkpt lat="0" lon="0">
        <time>2020-12-20T10:27:39.895000+00:00</time>
      </trkpt>
      <trkpt lat="47.33283" lon="-1.35641">
        <ele>136</ele>
        <time>2020-12-20T10:27:40.914000+00:00</time>
      </trkpt>
      <trkpt lat="0" lon="0">
        <time>2020-12-20T10:27:40.932000+00:00</time>
      </trkpt>
      <trkpt lat="0" lon="0">
        <time>2020-12-20T10:27:40.938000+00:00</time>
      </trkpt>
      <trkpt lat="0" lon="0">
        <time>2020-12-20T10:27:40.941000+00:00</time>
      </trkpt>
      <trkpt lat="47.33281" lon="-1.35641">
        <ele>136</ele>
        <time>2020-12-20T10:27:41.878000+00:00</time>
      </trkpt>
      <trkpt lat="0" lon="0">
        <time>2020-12-20T10:27:41.886000+00:00</time>
      </trkpt>
      <trkpt lat="0" lon="0">
        <time>2020-12-20T10:27:41.892000+00:00</time>
      </trkpt>
      <trkpt lat="0" lon="0">
        <time>2020-12-20T10:27:41.895000+00:00</time>
      </trkpt>
      <trkpt lat="47.3328" lon="-1.35641">
        <ele>136</ele>
        <time>2020-12-20T10:27:42.925000+00:00</time>
      </trkpt>
      <trkpt lat="0" lon="0">
        <time>2020-12-20T10:27:42.937000+00:00</time>
      </trkpt>
      <trkpt lat="0" lon="0">
        <time>2020-12-20T10:27:42.946000+00:00</time>
      </trkpt>
      <trkpt lat="0" lon="0">
        <time>2020-12-20T10:27:42.949000+00:00</time>
      </trkpt>
      <trkpt lat="47.33279" lon="-1.35642">
        <ele>135</ele>
        <time>2020-12-20T10:27:43.936000+00:00</time>
      </trkpt>
      <trkpt lat="0" lon="0">
        <time>2020-12-20T10:27:43.937000+00:00</time>
      </trkpt>
      <trkpt lat="0" lon="0">
        <time>2020-12-20T10:27:43.939000+00:00</time>
      </trkpt>
      <trkpt lat="0" lon="0">
        <time>2020-12-20T10:27:43.941000+00:00</time>
      </trkpt>
      <trkpt lat="47.33277" lon="-1.35642">
        <ele>135</ele>
        <time>2020-12-20T10:27:44.914000+00:00</time>
      </trkpt>
      <trkpt lat="0" lon="0">
        <time>2020-12-20T10:27:44.933000+00:00</time>
      </trkpt>
      <trkpt lat="0" lon="0">
        <time>2020-12-20T10:27:44.938000+00:00</time>
      </trkpt>
      <trkpt lat="0" lon="0">
        <time>2020-12-20T10:27:44.940000+00:00</time>
      </trkpt>
      <trkpt lat="47.33276" lon="-1.35643">
        <ele>135</ele>
        <time>2020-12-20T10:27:45.933000+00:00</time>
      </trkpt>
      <trkpt lat="0" lon="0">
        <time>2020-12-20T10:27:45.943000+00:00</time>
      </trkpt>
      <trkpt lat="0" lon="0">
        <time>2020-12-20T10:27:45.949000+00:00</time>
      </trkpt>
      <trkpt lat="0" lon="0">
        <time>2020-12-20T10:27:45.952000+00:00</time>
      </trkpt>
      <trkpt lat="47.33274" lon="-1.35644">
        <ele>135</ele>
        <time>2020-12-20T10:27:46.921000+00:00</time>
      </trkpt>
      <trkpt lat="0" lon="0">
        <time>2020-12-20T10:27:46.926000+00:00</time>
      </trkpt>
      <trkpt lat="0" lon="0">
        <time>2020-12-20T10:27:46.931000+00:00</time>
      </trkpt>
      <trkpt lat="0" lon="0">
        <time>2020-12-20T10:27:46.934000+00:00</time>
      </trkpt>
      <trkpt lat="47.33272" lon="-1.35645">
        <ele>134</ele>
        <time>2020-12-20T10:27:47.898000+00:00</time>
      </trkpt>
      <trkpt lat="0" lon="0">
        <time>2020-12-20T10:27:47.912000+00:00</time>
      </trkpt>
      <trkpt lat="0" lon="0">
        <time>2020-12-20T10:27:47.917000+00:00</time>
      </trkpt>
      <trkpt lat="0" lon="0">
        <time>2020-12-20T10:27:47.919000+00:00</time>
      </trkpt>
      <trkpt lat="47.3327" lon="-1.35645">
        <ele>134</ele>
        <time>2020-12-20T10:27:48.918000+00:00</time>
      </trkpt>
      <trkpt lat="0" lon="0">
        <time>2020-12-20T10:27:48.930000+00:00</time>
      </trkpt>
      <trkpt lat="0" lon="0">
        <time>2020-12-20T10:27:48.940000+00:00</time>
      </trkpt>
      <trkpt lat="0" lon="0">
        <time>2020-12-20T10:27:48.947000+00:00</time>
      </trkpt>
      <trkpt lat="47.33268" lon="-1.35646">
        <ele>134</ele>
        <time>2020-12-20T10:27:49.901000+00:00</time>
      </trkpt>
      <trkpt lat="0" lon="0">
        <time>2020-12-20T10:27:49.918000+00:00</time>
      </trkpt>
      <trkpt lat="0" lon="0">
        <time>2020-12-20T10:27:49.924000+00:00</time>
      </trkpt>
      <trkpt lat="0" lon="0">
        <time>2020-12-20T10:27:49.927000+00:00</time>
      </trkpt>
      <trkpt lat="47.33267" lon="-1.35647">
        <ele>133</ele>
        <time>2020-12-20T10:27:50.903000+00:00</time>
      </trkpt>
      <trkpt lat="0" lon="0">
        <time>2020-12-20T10:27:50.916000+00:00</time>
      </trkpt>
      <trkpt lat="0" lon="0">
        <time>2020-12-20T10:27:50.920000+00:00</time>
      </trkpt>
      <trkpt lat="0" lon="0">
        <time>2020-12-20T10:27:50.922000+00:00</time>
      </trkpt>
      <trkpt lat="47.33265" lon="-1.35648">
        <ele>133</ele>
        <time>2020-12-20T10:27:51.894000+00:00</time>
      </trkpt>
      <trkpt lat="0" lon="0">
        <time>2020-12-20T10:27:51.902000+00:00</time>
      </trkpt>
      <trkpt lat="0" lon="0">
        <time>2020-12-20T10:27:51.907000+00:00</time>
      </trkpt>
      <trkpt lat="0" lon="0">
        <time>2020-12-20T10:27:51.909000+00:00</time>
      </trkpt>
      <trkpt lat="47.33263" lon="-1.35648">
        <ele>133</ele>
        <time>2020-12-20T10:27:52.908000+00:00</time>
      </trkpt>
      <trkpt lat="0" lon="0">
        <time>2020-12-20T10:27:52.914000+00:00</time>
      </trkpt>
      <trkpt lat="0" lon="0">
        <time>2020-12-20T10:27:52.920000+00:00</time>
      </trkpt>
      <trkpt lat="0" lon="0">
        <time>2020-12-20T10:27:52.922000+00:00</time>
      </trkpt>
      <trkpt lat="47.33261" lon="-1.35649">
        <ele>132</ele>
        <time>2020-12-20T10:27:53.900000+00:00</time>
      </trkpt>
      <trkpt lat="0" lon="0">
        <time>2020-12-20T10:27:53.911000+00:00</time>
      </trkpt>
      <trkpt lat="0" lon="0">
        <time>2020-12-20T10:27:53.916000+00:00</time>
      </trkpt>
      <trkpt lat="0" lon="0">
        <time>2020-12-20T10:27:53.918000+00:00</time>
      </trkpt>
      <trkpt lat="47.33259" lon="-1.35649">
        <ele>131</ele>
        <time>2020-12-20T10:27:54.872000+00:00</time>
      </trkpt>
      <trkpt lat="0" lon="0">
        <time>2020-12-20T10:27:54.877000+00:00</time>
      </trkpt>
      <trkpt lat="0" lon="0">
        <time>2020-12-20T10:27:54.879000+00:00</time>
      </trkpt>
      <trkpt lat="0" lon="0">
        <time>2020-12-20T10:27:54.883000+00:00</time>
      </trkpt>
      <trkpt lat="47.33256" lon="-1.3565">
        <ele>131</ele>
        <time>2020-12-20T10:27:55.892000+00:00</time>
      </trkpt>
      <trkpt lat="0" lon="0">
        <time>2020-12-20T10:27:55.899000+00:00</time>
      </trkpt>
      <trkpt lat="0" lon="0">
        <time>2020-12-20T10:27:55.903000+00:00</time>
      </trkpt>
      <trkpt lat="0" lon="0">
        <time>2020-12-20T10:27:55.905000+00:00</time>
      </trkpt>
      <trkpt lat="47.33254" lon="-1.3565">
        <ele>131</ele>
        <time>2020-12-20T10:27:56.902000+00:00</time>
      </trkpt>
      <trkpt lat="0" lon="0">
        <time>2020-12-20T10:27:56.916000+00:00</time>
      </trkpt>
      <trkpt lat="0" lon="0">
        <time>2020-12-20T10:27:56.921000+00:00</time>
      </trkpt>
      <trkpt lat="0" lon="0">
        <time>2020-12-20T10:27:56.924000+00:00</time>
      </trkpt>
      <trkpt lat="47.33252" lon="-1.3565">
        <ele>131</ele>
        <time>2020-12-20T10:27:57.881000+00:00</time>
      </trkpt>
      <trkpt lat="0" lon="0">
        <time>2020-12-20T10:27:57.887000+00:00</time>
      </trkpt>
      <trkpt lat="0" lon="0">
        <time>2020-12-20T10:27:57.894000+00:00</time>
      </trkpt>
      <trkpt lat="0" lon="0">
        <time>2020-12-20T10:27:57.897000+00:00</time>
      </trkpt>
      <trkpt lat="47.3325" lon="-1.3565">
        <ele>131</ele>
        <time>2020-12-20T10:27:58.920000+00:00</time>
      </trkpt>
      <trkpt lat="0" lon="0">
        <time>2020-12-20T10:27:58.929000+00:00</time>
      </trkpt>
      <trkpt lat="0" lon="0">
        <time>2020-12-20T10:27:58.934000+00:00</time>
      </trkpt>
      <trkpt lat="0" lon="0">
        <time>2020-12-20T10:27:58.936000+00:00</time>
      </trkpt>
      <trkpt lat="47.33248" lon="-1.35651">
        <ele>130</ele>
        <time>2020-12-20T10:27:59.898000+00:00</time>
      </trkpt>
      <trkpt lat="0" lon="0">
        <time>2020-12-20T10:27:59.907000+00:00</time>
      </trkpt>
      <trkpt lat="0" lon="0">
        <time>2020-12-20T10:27:59.914000+00:00</time>
      </trkpt>
      <trkpt lat="0" lon="0">
        <time>2020-12-20T10:27:59.920000+00:00</time>
      </trkpt>
      <trkpt lat="47.33246" lon="-1.35651">
        <ele>130</ele>
        <time>2020-12-20T10:28:00.913000+00:00</time>
      </trkpt>
      <trkpt lat="0" lon="0">
        <time>2020-12-20T10:28:00.921000+00:00</time>
      </trkpt>
      <trkpt lat="0" lon="0">
        <time>2020-12-20T10:28:00.923000+00:00</time>
      </trkpt>
      <trkpt lat="0" lon="0">
        <time>2020-12-20T10:28:00.924000+00:00</time>
      </trkpt>
      <trkpt lat="47.33244" lon="-1.35651">
        <ele>130</ele>
        <time>2020-12-20T10:28:01.821000+00:00</time>
      </trkpt>
      <trkpt lat="0" lon="0">
        <time>2020-12-20T10:28:01.823000+00:00</time>
      </trkpt>
      <trkpt lat="0" lon="0">
        <time>2020-12-20T10:28:01.824000+00:00</time>
      </trkpt>
      <trkpt lat="47.33242" lon="-1.35651">
        <ele>129</ele>
        <time>2020-12-20T10:28:02.842000+00:00</time>
      </trkpt>
      <trkpt lat="0" lon="0">
        <time>2020-12-20T10:28:02.852000+00:00</time>
      </trkpt>
      <trkpt lat="0" lon="0">
        <time>2020-12-20T10:28:02.860000+00:00</time>
      </trkpt>
      <trkpt lat="0" lon="0">
        <time>2020-12-20T10:28:02.863000+00:00</time>
      </trkpt>
      <trkpt lat="47.33241" lon="-1.3565">
        <ele>129</ele>
        <time>2020-12-20T10:28:03.847000+00:00</time>
      </trkpt>
      <trkpt lat="0" lon="0">
        <time>2020-12-20T10:28:03.859000+00:00</time>
      </trkpt>
      <trkpt lat="0" lon="0">
        <time>2020-12-20T10:28:03.875000+00:00</time>
      </trkpt>
      <trkpt lat="0" lon="0">
        <time>2020-12-20T10:28:03.876000+00:00</time>
      </trkpt>
      <trkpt lat="47.33239" lon="-1.3565">
        <ele>129</ele>
        <time>2020-12-20T10:28:04.770000+00:00</time>
      </trkpt>
      <trkpt lat="0" lon="0">
        <time>2020-12-20T10:28:04.771000+00:00</time>
      </trkpt>
      <trkpt lat="0" lon="0">
        <time>2020-12-20T10:28:04.773000+00:00</time>
      </trkpt>
      <trkpt lat="0" lon="0">
        <time>2020-12-20T10:28:04.775000+00:00</time>
      </trkpt>
      <trkpt lat="47.33238" lon="-1.3565">
        <ele>130</ele>
        <time>2020-12-20T10:28:05.799000+00:00</time>
      </trkpt>
      <trkpt lat="0" lon="0">
        <time>2020-12-20T10:28:05.801000+00:00</time>
      </trkpt>
      <trkpt lat="0" lon="0">
        <time>2020-12-20T10:28:05.803000+00:00</time>
      </trkpt>
      <trkpt lat="0" lon="0">
        <time>2020-12-20T10:28:05.805000+00:00</time>
      </trkpt>
      <trkpt lat="47.33236" lon="-1.3565">
        <ele>130</ele>
        <time>2020-12-20T10:28:06.881000+00:00</time>
      </trkpt>
      <trkpt lat="0" lon="0">
        <time>2020-12-20T10:28:06.892000+00:00</time>
      </trkpt>
      <trkpt lat="0" lon="0">
        <time>2020-12-20T10:28:06.897000+00:00</time>
      </trkpt>
      <trkpt lat="0" lon="0">
        <time>2020-12-20T10:28:06.900000+00:00</time>
      </trkpt>
      <trkpt lat="47.33235" lon="-1.3565">
        <ele>130</ele>
        <time>2020-12-20T10:28:07.837000+00:00</time>
      </trkpt>
      <trkpt lat="0" lon="0">
        <time>2020-12-20T10:28:07.862000+00:00</time>
      </trkpt>
      <trkpt lat="0" lon="0">
        <time>2020-12-20T10:28:07.865000+00:00</time>
      </trkpt>
      <trkpt lat="0" lon="0">
        <time>2020-12-20T10:28:07.866000+00:00</time>
      </trkpt>
      <trkpt lat="47.33234" lon="-1.35649">
        <ele>131</ele>
        <time>2020-12-20T10:28:08.885000+00:00</time>
      </trkpt>
      <trkpt lat="0" lon="0">
        <time>2020-12-20T10:28:08.899000+00:00</time>
      </trkpt>
      <trkpt lat="0" lon="0">
        <time>2020-12-20T10:28:08.901000+00:00</time>
      </trkpt>
      <trkpt lat="0" lon="0">
        <time>2020-12-20T10:28:08.903000+00:00</time>
      </trkpt>
      <trkpt lat="47.33233" lon="-1.35649">
        <ele>132</ele>
        <time>2020-12-20T10:28:09.911000+00:00</time>
      </trkpt>
      <trkpt lat="0" lon="0">
        <time>2020-12-20T10:28:09.921000+00:00</time>
      </trkpt>
      <trkpt lat="0" lon="0">
        <time>2020-12-20T10:28:09.936000+00:00</time>
      </trkpt>
      <trkpt lat="0" lon="0">
        <time>2020-12-20T10:28:09.939000+00:00</time>
      </trkpt>
      <trkpt lat="47.33231" lon="-1.35649">
        <ele>133</ele>
        <time>2020-12-20T10:28:10.919000+00:00</time>
      </trkpt>
      <trkpt lat="0" lon="0">
        <time>2020-12-20T10:28:10.934000+00:00</time>
      </trkpt>
      <trkpt lat="0" lon="0">
        <time>2020-12-20T10:28:10.950000+00:00</time>
      </trkpt>
      <trkpt lat="0" lon="0">
        <time>2020-12-20T10:28:10.953000+00:00</time>
      </trkpt>
      <trkpt lat="47.3323" lon="-1.35648">
        <ele>133</ele>
        <time>2020-12-20T10:28:11.822000+00:00</time>
      </trkpt>
      <trkpt lat="0" lon="0">
        <time>2020-12-20T10:28:11.827000+00:00</time>
      </trkpt>
      <trkpt lat="0" lon="0">
        <time>2020-12-20T10:28:11.833000+00:00</time>
      </trkpt>
      <trkpt lat="0" lon="0">
        <time>2020-12-20T10:28:11.835000+00:00</time>
      </trkpt>
      <trkpt lat="47.33228" lon="-1.35648">
        <ele>133</ele>
        <time>2020-12-20T10:28:12.884000+00:00</time>
      </trkpt>
      <trkpt lat="0" lon="0">
        <time>2020-12-20T10:28:12.889000+00:00</time>
      </trkpt>
      <trkpt lat="0" lon="0">
        <time>2020-12-20T10:28:12.898000+00:00</time>
      </trkpt>
      <trkpt lat="0" lon="0">
        <time>2020-12-20T10:28:12.901000+00:00</time>
      </trkpt>
      <trkpt lat="47.33227" lon="-1.35648">
        <ele>134</ele>
        <time>2020-12-20T10:28:13.875000+00:00</time>
      </trkpt>
      <trkpt lat="0" lon="0">
        <time>2020-12-20T10:28:13.890000+00:00</time>
      </trkpt>
      <trkpt lat="0" lon="0">
        <time>2020-12-20T10:28:13.894000+00:00</time>
      </trkpt>
      <trkpt lat="0" lon="0">
        <time>2020-12-20T10:28:13.897000+00:00</time>
      </trkpt>
      <trkpt lat="47.33226" lon="-1.35648">
        <ele>134</ele>
        <time>2020-12-20T10:28:14.889000+00:00</time>
      </trkpt>
      <trkpt lat="0" lon="0">
        <time>2020-12-20T10:28:14.908000+00:00</time>
      </trkpt>
      <trkpt lat="0" lon="0">
        <time>2020-12-20T10:28:14.914000+00:00</time>
      </trkpt>
      <trkpt lat="0" lon="0">
        <time>2020-12-20T10:28:14.916000+00:00</time>
      </trkpt>
      <trkpt lat="47.33224" lon="-1.35649">
        <ele>134</ele>
        <time>2020-12-20T10:28:15.905000+00:00</time>
      </trkpt>
      <trkpt lat="0" lon="0">
        <time>2020-12-20T10:28:15.919000+00:00</time>
      </trkpt>
      <trkpt lat="0" lon="0">
        <time>2020-12-20T10:28:15.931000+00:00</time>
      </trkpt>
      <trkpt lat="0" lon="0">
        <time>2020-12-20T10:28:15.933000+00:00</time>
      </trkpt>
      <trkpt lat="47.33222" lon="-1.3565">
        <ele>134</ele>
        <time>2020-12-20T10:28:16.859000+00:00</time>
      </trkpt>
      <trkpt lat="0" lon="0">
        <time>2020-12-20T10:28:16.876000+00:00</time>
      </trkpt>
      <trkpt lat="0" lon="0">
        <time>2020-12-20T10:28:16.879000+00:00</time>
      </trkpt>
      <trkpt lat="0" lon="0">
        <time>2020-12-20T10:28:16.882000+00:00</time>
      </trkpt>
      <trkpt lat="47.3322" lon="-1.35651">
        <ele>134</ele>
        <time>2020-12-20T10:28:17.908000+00:00</time>
      </trkpt>
      <trkpt lat="0" lon="0">
        <time>2020-12-20T10:28:17.915000+00:00</time>
      </trkpt>
      <trkpt lat="0" lon="0">
        <time>2020-12-20T10:28:17.924000+00:00</time>
      </trkpt>
      <trkpt lat="0" lon="0">
        <time>2020-12-20T10:28:17.928000+00:00</time>
      </trkpt>
      <trkpt lat="47.33216" lon="-1.35653">
        <ele>134</ele>
        <time>2020-12-20T10:28:19.805000+00:00</time>
      </trkpt>
      <trkpt lat="0" lon="0">
        <time>2020-12-20T10:28:19.816000+00:00</time>
      </trkpt>
      <trkpt lat="0" lon="0">
        <time>2020-12-20T10:28:19.818000+00:00</time>
      </trkpt>
      <trkpt lat="0" lon="0">
        <time>2020-12-20T10:28:19.820000+00:00</time>
      </trkpt>
      <trkpt lat="47.33213" lon="-1.35654">
        <ele>133</ele>
        <time>2020-12-20T10:28:20.835000+00:00</time>
      </trkpt>
      <trkpt lat="0" lon="0">
        <time>2020-12-20T10:28:20.843000+00:00</time>
      </trkpt>
      <trkpt lat="0" lon="0">
        <time>2020-12-20T10:28:20.847000+00:00</time>
      </trkpt>
      <trkpt lat="0" lon="0">
        <time>2020-12-20T10:28:20.849000+00:00</time>
      </trkpt>
      <trkpt lat="47.33209" lon="-1.35655">
        <ele>133</ele>
        <time>2020-12-20T10:28:21.783000+00:00</time>
      </trkpt>
      <trkpt lat="0" lon="0">
        <time>2020-12-20T10:28:21.791000+00:00</time>
      </trkpt>
      <trkpt lat="0" lon="0">
        <time>2020-12-20T10:28:21.795000+00:00</time>
      </trkpt>
      <trkpt lat="0" lon="0">
        <time>2020-12-20T10:28:21.797000+00:00</time>
      </trkpt>
      <trkpt lat="47.33205" lon="-1.35657">
        <ele>134</ele>
        <time>2020-12-20T10:28:22.833000+00:00</time>
      </trkpt>
      <trkpt lat="0" lon="0">
        <time>2020-12-20T10:28:22.839000+00:00</time>
      </trkpt>
      <trkpt lat="0" lon="0">
        <time>2020-12-20T10:28:22.845000+00:00</time>
      </trkpt>
      <trkpt lat="0" lon="0">
        <time>2020-12-20T10:28:22.847000+00:00</time>
      </trkpt>
      <trkpt lat="47.33201" lon="-1.35658">
        <ele>135</ele>
        <time>2020-12-20T10:28:23.854000+00:00</time>
      </trkpt>
      <trkpt lat="0" lon="0">
        <time>2020-12-20T10:28:23.865000+00:00</time>
      </trkpt>
      <trkpt lat="0" lon="0">
        <time>2020-12-20T10:28:23.870000+00:00</time>
      </trkpt>
      <trkpt lat="0" lon="0">
        <time>2020-12-20T10:28:23.872000+00:00</time>
      </trkpt>
      <trkpt lat="47.33197" lon="-1.3566">
        <ele>136</ele>
        <time>2020-12-20T10:28:24.850000+00:00</time>
      </trkpt>
      <trkpt lat="0" lon="0">
        <time>2020-12-20T10:28:24.871000+00:00</time>
      </trkpt>
      <trkpt lat="0" lon="0">
        <time>2020-12-20T10:28:24.876000+00:00</time>
      </trkpt>
      <trkpt lat="0" lon="0">
        <time>2020-12-20T10:28:24.878000+00:00</time>
      </trkpt>
      <trkpt lat="47.33194" lon="-1.35662">
        <ele>136</ele>
        <time>2020-12-20T10:28:25.858000+00:00</time>
      </trkpt>
      <trkpt lat="0" lon="0">
        <time>2020-12-20T10:28:25.871000+00:00</time>
      </trkpt>
      <trkpt lat="0" lon="0">
        <time>2020-12-20T10:28:25.879000+00:00</time>
      </trkpt>
      <trkpt lat="0" lon="0">
        <time>2020-12-20T10:28:25.881000+00:00</time>
      </trkpt>
      <trkpt lat="47.3319" lon="-1.35664">
        <ele>137</ele>
        <time>2020-12-20T10:28:26.867000+00:00</time>
      </trkpt>
      <trkpt lat="0" lon="0">
        <time>2020-12-20T10:28:26.869000+00:00</time>
      </trkpt>
      <trkpt lat="0" lon="0">
        <time>2020-12-20T10:28:26.874000+00:00</time>
      </trkpt>
      <trkpt lat="0" lon="0">
        <time>2020-12-20T10:28:26.876000+00:00</time>
      </trkpt>
      <trkpt lat="47.33187" lon="-1.35665">
        <ele>137</ele>
        <time>2020-12-20T10:28:27.867000+00:00</time>
      </trkpt>
      <trkpt lat="0" lon="0">
        <time>2020-12-20T10:28:27.876000+00:00</time>
      </trkpt>
      <trkpt lat="0" lon="0">
        <time>2020-12-20T10:28:27.880000+00:00</time>
      </trkpt>
      <trkpt lat="0" lon="0">
        <time>2020-12-20T10:28:27.887000+00:00</time>
      </trkpt>
      <trkpt lat="47.33184" lon="-1.35667">
        <ele>136</ele>
        <time>2020-12-20T10:28:28.906000+00:00</time>
      </trkpt>
      <trkpt lat="0" lon="0">
        <time>2020-12-20T10:28:28.913000+00:00</time>
      </trkpt>
      <trkpt lat="0" lon="0">
        <time>2020-12-20T10:28:28.921000+00:00</time>
      </trkpt>
      <trkpt lat="0" lon="0">
        <time>2020-12-20T10:28:28.923000+00:00</time>
      </trkpt>
      <trkpt lat="47.33182" lon="-1.35669">
        <ele>136</ele>
        <time>2020-12-20T10:28:29.906000+00:00</time>
      </trkpt>
      <trkpt lat="0" lon="0">
        <time>2020-12-20T10:28:29.927000+00:00</time>
      </trkpt>
      <trkpt lat="0" lon="0">
        <time>2020-12-20T10:28:29.935000+00:00</time>
      </trkpt>
      <trkpt lat="0" lon="0">
        <time>2020-12-20T10:28:29.936000+00:00</time>
      </trkpt>
      <trkpt lat="47.3318" lon="-1.3567">
        <ele>136</ele>
        <time>2020-12-20T10:28:30.848000+00:00</time>
      </trkpt>
      <trkpt lat="0" lon="0">
        <time>2020-12-20T10:28:30.857000+00:00</time>
      </trkpt>
      <trkpt lat="0" lon="0">
        <time>2020-12-20T10:28:30.861000+00:00</time>
      </trkpt>
      <trkpt lat="0" lon="0">
        <time>2020-12-20T10:28:30.866000+00:00</time>
      </trkpt>
      <trkpt lat="47.33178" lon="-1.35672">
        <ele>135</ele>
        <time>2020-12-20T10:28:31.884000+00:00</time>
      </trkpt>
      <trkpt lat="0" lon="0">
        <time>2020-12-20T10:28:31.897000+00:00</time>
      </trkpt>
      <trkpt lat="0" lon="0">
        <time>2020-12-20T10:28:31.901000+00:00</time>
      </trkpt>
      <trkpt lat="0" lon="0">
        <time>2020-12-20T10:28:31.903000+00:00</time>
      </trkpt>
      <trkpt lat="47.33176" lon="-1.35674">
        <ele>135</ele>
        <time>2020-12-20T10:28:32.912000+00:00</time>
      </trkpt>
      <trkpt lat="0" lon="0">
        <time>2020-12-20T10:28:32.920000+00:00</time>
      </trkpt>
      <trkpt lat="0" lon="0">
        <time>2020-12-20T10:28:32.926000+00:00</time>
      </trkpt>
      <trkpt lat="0" lon="0">
        <time>2020-12-20T10:28:32.928000+00:00</time>
      </trkpt>
      <trkpt lat="47.33173" lon="-1.35675">
        <ele>135</ele>
        <time>2020-12-20T10:28:33.938000+00:00</time>
      </trkpt>
      <trkpt lat="0" lon="0">
        <time>2020-12-20T10:28:33.943000+00:00</time>
      </trkpt>
      <trkpt lat="0" lon="0">
        <time>2020-12-20T10:28:33.948000+00:00</time>
      </trkpt>
      <trkpt lat="0" lon="0">
        <time>2020-12-20T10:28:33.952000+00:00</time>
      </trkpt>
      <trkpt lat="47.33171" lon="-1.35677">
        <ele>135</ele>
        <time>2020-12-20T10:28:34.923000+00:00</time>
      </trkpt>
      <trkpt lat="0" lon="0">
        <time>2020-12-20T10:28:34.941000+00:00</time>
      </trkpt>
      <trkpt lat="0" lon="0">
        <time>2020-12-20T10:28:34.945000+00:00</time>
      </trkpt>
      <trkpt lat="0" lon="0">
        <time>2020-12-20T10:28:34.952000+00:00</time>
      </trkpt>
      <trkpt lat="47.33169" lon="-1.35679">
        <ele>135</ele>
        <time>2020-12-20T10:28:35.868000+00:00</time>
      </trkpt>
      <trkpt lat="0" lon="0">
        <time>2020-12-20T10:28:35.873000+00:00</time>
      </trkpt>
      <trkpt lat="0" lon="0">
        <time>2020-12-20T10:28:35.877000+00:00</time>
      </trkpt>
      <trkpt lat="0" lon="0">
        <time>2020-12-20T10:28:35.879000+00:00</time>
      </trkpt>
      <trkpt lat="47.33167" lon="-1.3568">
        <ele>134</ele>
        <time>2020-12-20T10:28:36.840000+00:00</time>
      </trkpt>
      <trkpt lat="0" lon="0">
        <time>2020-12-20T10:28:36.853000+00:00</time>
      </trkpt>
      <trkpt lat="0" lon="0">
        <time>2020-12-20T10:28:36.858000+00:00</time>
      </trkpt>
      <trkpt lat="0" lon="0">
        <time>2020-12-20T10:28:36.860000+00:00</time>
      </trkpt>
      <trkpt lat="47.33165" lon="-1.35681">
        <ele>134</ele>
        <time>2020-12-20T10:28:37.867000+00:00</time>
      </trkpt>
      <trkpt lat="0" lon="0">
        <time>2020-12-20T10:28:37.877000+00:00</time>
      </trkpt>
      <trkpt lat="0" lon="0">
        <time>2020-12-20T10:28:37.879000+00:00</time>
      </trkpt>
      <trkpt lat="0" lon="0">
        <time>2020-12-20T10:28:37.880000+00:00</time>
      </trkpt>
      <trkpt lat="47.33163" lon="-1.35682">
        <ele>134</ele>
        <time>2020-12-20T10:28:38.869000+00:00</time>
      </trkpt>
      <trkpt lat="0" lon="0">
        <time>2020-12-20T10:28:38.884000+00:00</time>
      </trkpt>
      <trkpt lat="0" lon="0">
        <time>2020-12-20T10:28:38.889000+00:00</time>
      </trkpt>
      <trkpt lat="0" lon="0">
        <time>2020-12-20T10:28:38.899000+00:00</time>
      </trkpt>
      <trkpt lat="47.33161" lon="-1.35683">
        <ele>133</ele>
        <time>2020-12-20T10:28:39.860000+00:00</time>
      </trkpt>
      <trkpt lat="0" lon="0">
        <time>2020-12-20T10:28:39.864000+00:00</time>
      </trkpt>
      <trkpt lat="0" lon="0">
        <time>2020-12-20T10:28:39.870000+00:00</time>
      </trkpt>
      <trkpt lat="0" lon="0">
        <time>2020-12-20T10:28:39.878000+00:00</time>
      </trkpt>
      <trkpt lat="47.33159" lon="-1.35684">
        <ele>133</ele>
        <time>2020-12-20T10:28:40.835000+00:00</time>
      </trkpt>
      <trkpt lat="0" lon="0">
        <time>2020-12-20T10:28:40.852000+00:00</time>
      </trkpt>
      <trkpt lat="0" lon="0">
        <time>2020-12-20T10:28:40.857000+00:00</time>
      </trkpt>
      <trkpt lat="0" lon="0">
        <time>2020-12-20T10:28:40.859000+00:00</time>
      </trkpt>
      <trkpt lat="47.33157" lon="-1.35684">
        <ele>132</ele>
        <time>2020-12-20T10:28:41.808000+00:00</time>
      </trkpt>
      <trkpt lat="0" lon="0">
        <time>2020-12-20T10:28:41.816000+00:00</time>
      </trkpt>
      <trkpt lat="0" lon="0">
        <time>2020-12-20T10:28:41.820000+00:00</time>
      </trkpt>
      <trkpt lat="0" lon="0">
        <time>2020-12-20T10:28:41.822000+00:00</time>
      </trkpt>
      <trkpt lat="47.33155" lon="-1.35685">
        <ele>132</ele>
        <time>2020-12-20T10:28:42.824000+00:00</time>
      </trkpt>
      <trkpt lat="0" lon="0">
        <time>2020-12-20T10:28:42.831000+00:00</time>
      </trkpt>
      <trkpt lat="0" lon="0">
        <time>2020-12-20T10:28:42.836000+00:00</time>
      </trkpt>
      <trkpt lat="0" lon="0">
        <time>2020-12-20T10:28:42.839000+00:00</time>
      </trkpt>
      <trkpt lat="47.33154" lon="-1.35685">
        <ele>132</ele>
        <time>2020-12-20T10:28:43.869000+00:00</time>
      </trkpt>
      <trkpt lat="0" lon="0">
        <time>2020-12-20T10:28:43.886000+00:00</time>
      </trkpt>
      <trkpt lat="0" lon="0">
        <time>2020-12-20T10:28:43.891000+00:00</time>
      </trkpt>
      <trkpt lat="0" lon="0">
        <time>2020-12-20T10:28:43.893000+00:00</time>
      </trkpt>
      <trkpt lat="47.33152" lon="-1.35686">
        <ele>132</ele>
        <time>2020-12-20T10:28:44.889000+00:00</time>
      </trkpt>
      <trkpt lat="0" lon="0">
        <time>2020-12-20T10:28:44.902000+00:00</time>
      </trkpt>
      <trkpt lat="0" lon="0">
        <time>2020-12-20T10:28:44.917000+00:00</time>
      </trkpt>
      <trkpt lat="0" lon="0">
        <time>2020-12-20T10:28:44.919000+00:00</time>
      </trkpt>
      <trkpt lat="47.3315" lon="-1.35687">
        <ele>132</ele>
        <time>2020-12-20T10:28:45.868000+00:00</time>
      </trkpt>
      <trkpt lat="0" lon="0">
        <time>2020-12-20T10:28:45.883000+00:00</time>
      </trkpt>
      <trkpt lat="0" lon="0">
        <time>2020-12-20T10:28:45.890000+00:00</time>
      </trkpt>
      <trkpt lat="0" lon="0">
        <time>2020-12-20T10:28:45.892000+00:00</time>
      </trkpt>
      <trkpt lat="47.33148" lon="-1.35688">
        <ele>131</ele>
        <time>2020-12-20T10:28:46.839000+00:00</time>
      </trkpt>
      <trkpt lat="0" lon="0">
        <time>2020-12-20T10:28:46.845000+00:00</time>
      </trkpt>
      <trkpt lat="0" lon="0">
        <time>2020-12-20T10:28:46.849000+00:00</time>
      </trkpt>
      <trkpt lat="0" lon="0">
        <time>2020-12-20T10:28:46.855000+00:00</time>
      </trkpt>
      <trkpt lat="47.33145" lon="-1.35689">
        <ele>130</ele>
        <time>2020-12-20T10:28:47.866000+00:00</time>
      </trkpt>
      <trkpt lat="0" lon="0">
        <time>2020-12-20T10:28:47.885000+00:00</time>
      </trkpt>
      <trkpt lat="0" lon="0">
        <time>2020-12-20T10:28:47.890000+00:00</time>
      </trkpt>
      <trkpt lat="0" lon="0">
        <time>2020-12-20T10:28:47.893000+00:00</time>
      </trkpt>
      <trkpt lat="47.33142" lon="-1.3569">
        <ele>130</ele>
        <time>2020-12-20T10:28:48.858000+00:00</time>
      </trkpt>
      <trkpt lat="0" lon="0">
        <time>2020-12-20T10:28:48.873000+00:00</time>
      </trkpt>
      <trkpt lat="0" lon="0">
        <time>2020-12-20T10:28:48.883000+00:00</time>
      </trkpt>
      <trkpt lat="0" lon="0">
        <time>2020-12-20T10:28:48.887000+00:00</time>
      </trkpt>
      <trkpt lat="47.3314" lon="-1.3569">
        <ele>130</ele>
        <time>2020-12-20T10:28:49.845000+00:00</time>
      </trkpt>
      <trkpt lat="0" lon="0">
        <time>2020-12-20T10:28:49.863000+00:00</time>
      </trkpt>
      <trkpt lat="0" lon="0">
        <time>2020-12-20T10:28:49.870000+00:00</time>
      </trkpt>
      <trkpt lat="0" lon="0">
        <time>2020-12-20T10:28:49.872000+00:00</time>
      </trkpt>
      <trkpt lat="47.33137" lon="-1.35691">
        <ele>130</ele>
        <time>2020-12-20T10:28:50.856000+00:00</time>
      </trkpt>
      <trkpt lat="0" lon="0">
        <time>2020-12-20T10:28:50.873000+00:00</time>
      </trkpt>
      <trkpt lat="0" lon="0">
        <time>2020-12-20T10:28:50.877000+00:00</time>
      </trkpt>
      <trkpt lat="0" lon="0">
        <time>2020-12-20T10:28:50.881000+00:00</time>
      </trkpt>
      <trkpt lat="47.33135" lon="-1.35692">
        <ele>129</ele>
        <time>2020-12-20T10:28:51.835000+00:00</time>
      </trkpt>
      <trkpt lat="0" lon="0">
        <time>2020-12-20T10:28:51.852000+00:00</time>
      </trkpt>
      <trkpt lat="0" lon="0">
        <time>2020-12-20T10:28:51.858000+00:00</time>
      </trkpt>
      <trkpt lat="0" lon="0">
        <time>2020-12-20T10:28:51.861000+00:00</time>
      </trkpt>
      <trkpt lat="47.33133" lon="-1.35692">
        <ele>129</ele>
        <time>2020-12-20T10:28:52.865000+00:00</time>
      </trkpt>
      <trkpt lat="0" lon="0">
        <time>2020-12-20T10:28:52.880000+00:00</time>
      </trkpt>
      <trkpt lat="0" lon="0">
        <time>2020-12-20T10:28:52.886000+00:00</time>
      </trkpt>
      <trkpt lat="0" lon="0">
        <time>2020-12-20T10:28:52.889000+00:00</time>
      </trkpt>
      <trkpt lat="47.33131" lon="-1.35693">
        <ele>129</ele>
        <time>2020-12-20T10:28:53.840000+00:00</time>
      </trkpt>
      <trkpt lat="0" lon="0">
        <time>2020-12-20T10:28:53.849000+00:00</time>
      </trkpt>
      <trkpt lat="0" lon="0">
        <time>2020-12-20T10:28:53.854000+00:00</time>
      </trkpt>
      <trkpt lat="0" lon="0">
        <time>2020-12-20T10:28:53.856000+00:00</time>
      </trkpt>
      <trkpt lat="47.33129" lon="-1.35693">
        <ele>128</ele>
        <time>2020-12-20T10:28:54.837000+00:00</time>
      </trkpt>
      <trkpt lat="0" lon="0">
        <time>2020-12-20T10:28:54.842000+00:00</time>
      </trkpt>
      <trkpt lat="0" lon="0">
        <time>2020-12-20T10:28:54.853000+00:00</time>
      </trkpt>
      <trkpt lat="0" lon="0">
        <time>2020-12-20T10:28:54.856000+00:00</time>
      </trkpt>
      <trkpt lat="47.33127" lon="-1.35694">
        <ele>128</ele>
        <time>2020-12-20T10:28:55.837000+00:00</time>
      </trkpt>
      <trkpt lat="0" lon="0">
        <time>2020-12-20T10:28:55.846000+00:00</time>
      </trkpt>
      <trkpt lat="0" lon="0">
        <time>2020-12-20T10:28:55.854000+00:00</time>
      </trkpt>
      <trkpt lat="0" lon="0">
        <time>2020-12-20T10:28:55.858000+00:00</time>
      </trkpt>
      <trkpt lat="47.33126" lon="-1.35694">
        <ele>128</ele>
        <time>2020-12-20T10:28:56.838000+00:00</time>
      </trkpt>
      <trkpt lat="0" lon="0">
        <time>2020-12-20T10:28:56.856000+00:00</time>
      </trkpt>
      <trkpt lat="0" lon="0">
        <time>2020-12-20T10:28:56.860000+00:00</time>
      </trkpt>
      <trkpt lat="0" lon="0">
        <time>2020-12-20T10:28:56.863000+00:00</time>
      </trkpt>
      <trkpt lat="47.33125" lon="-1.35694">
        <ele>127</ele>
        <time>2020-12-20T10:28:57.851000+00:00</time>
      </trkpt>
      <trkpt lat="0" lon="0">
        <time>2020-12-20T10:28:57.863000+00:00</time>
      </trkpt>
      <trkpt lat="0" lon="0">
        <time>2020-12-20T10:28:57.868000+00:00</time>
      </trkpt>
      <trkpt lat="0" lon="0">
        <time>2020-12-20T10:28:57.870000+00:00</time>
      </trkpt>
      <trkpt lat="47.33124" lon="-1.35695">
        <ele>127</ele>
        <time>2020-12-20T10:28:58.843000+00:00</time>
      </trkpt>
      <trkpt lat="0" lon="0">
        <time>2020-12-20T10:28:58.849000+00:00</time>
      </trkpt>
      <trkpt lat="0" lon="0">
        <time>2020-12-20T10:28:58.856000+00:00</time>
      </trkpt>
      <trkpt lat="0" lon="0">
        <time>2020-12-20T10:28:58.861000+00:00</time>
      </trkpt>
      <trkpt lat="47.33123" lon="-1.35695">
        <ele>127</ele>
        <time>2020-12-20T10:28:59.808000+00:00</time>
      </trkpt>
      <trkpt lat="0" lon="0">
        <time>2020-12-20T10:28:59.823000+00:00</time>
      </trkpt>
      <trkpt lat="0" lon="0">
        <time>2020-12-20T10:28:59.829000+00:00</time>
      </trkpt>
      <trkpt lat="0" lon="0">
        <time>2020-12-20T10:28:59.832000+00:00</time>
      </trkpt>
      <trkpt lat="47.33123" lon="-1.35695">
        <ele>127</ele>
        <time>2020-12-20T10:29:00.849000+00:00</time>
      </trkpt>
      <trkpt lat="0" lon="0">
        <time>2020-12-20T10:29:00.857000+00:00</time>
      </trkpt>
      <trkpt lat="0" lon="0">
        <time>2020-12-20T10:29:00.864000+00:00</time>
      </trkpt>
      <trkpt lat="0" lon="0">
        <time>2020-12-20T10:29:00.869000+00:00</time>
      </trkpt>
      <trkpt lat="47.33123" lon="-1.35695">
        <ele>127</ele>
        <time>2020-12-20T10:29:01.845000+00:00</time>
      </trkpt>
      <trkpt lat="0" lon="0">
        <time>2020-12-20T10:29:01.854000+00:00</time>
      </trkpt>
      <trkpt lat="0" lon="0">
        <time>2020-12-20T10:29:01.859000+00:00</time>
      </trkpt>
      <trkpt lat="0" lon="0">
        <time>2020-12-20T10:29:01.861000+00:00</time>
      </trkpt>
      <trkpt lat="47.33122" lon="-1.35695">
        <ele>127</ele>
        <time>2020-12-20T10:29:02.797000+00:00</time>
      </trkpt>
      <trkpt lat="0" lon="0">
        <time>2020-12-20T10:29:02.815000+00:00</time>
      </trkpt>
      <trkpt lat="0" lon="0">
        <time>2020-12-20T10:29:02.826000+00:00</time>
      </trkpt>
      <trkpt lat="0" lon="0">
        <time>2020-12-20T10:29:02.828000+00:00</time>
      </trkpt>
      <trkpt lat="47.33123" lon="-1.35695">
        <ele>127</ele>
        <time>2020-12-20T10:29:03.834000+00:00</time>
      </trkpt>
      <trkpt lat="0" lon="0">
        <time>2020-12-20T10:29:03.842000+00:00</time>
      </trkpt>
      <trkpt lat="0" lon="0">
        <time>2020-12-20T10:29:03.850000+00:00</time>
      </trkpt>
      <trkpt lat="0" lon="0">
        <time>2020-12-20T10:29:03.853000+00:00</time>
      </trkpt>
      <trkpt lat="47.33123" lon="-1.35694">
        <ele>127</ele>
        <time>2020-12-20T10:29:04.831000+00:00</time>
      </trkpt>
      <trkpt lat="0" lon="0">
        <time>2020-12-20T10:29:04.850000+00:00</time>
      </trkpt>
      <trkpt lat="0" lon="0">
        <time>2020-12-20T10:29:04.859000+00:00</time>
      </trkpt>
      <trkpt lat="0" lon="0">
        <time>2020-12-20T10:29:04.861000+00:00</time>
      </trkpt>
      <trkpt lat="47.33123" lon="-1.35694">
        <ele>127</ele>
        <time>2020-12-20T10:29:05.812000+00:00</time>
      </trkpt>
      <trkpt lat="0" lon="0">
        <time>2020-12-20T10:29:05.818000+00:00</time>
      </trkpt>
      <trkpt lat="0" lon="0">
        <time>2020-12-20T10:29:05.824000+00:00</time>
      </trkpt>
      <trkpt lat="0" lon="0">
        <time>2020-12-20T10:29:05.828000+00:00</time>
      </trkpt>
      <trkpt lat="47.33123" lon="-1.35695">
        <ele>127</ele>
        <time>2020-12-20T10:29:06.808000+00:00</time>
      </trkpt>
      <trkpt lat="0" lon="0">
        <time>2020-12-20T10:29:06.830000+00:00</time>
      </trkpt>
      <trkpt lat="0" lon="0">
        <time>2020-12-20T10:29:06.841000+00:00</time>
      </trkpt>
      <trkpt lat="0" lon="0">
        <time>2020-12-20T10:29:06.852000+00:00</time>
      </trkpt>
      <trkpt lat="47.33106" lon="-1.35701">
        <ele>129</ele>
        <time>2020-12-20T10:29:07.837000+00:00</time>
      </trkpt>
      <trkpt lat="0" lon="0">
        <time>2020-12-20T10:29:07.839000+00:00</time>
      </trkpt>
      <trkpt lat="0" lon="0">
        <time>2020-12-20T10:29:07.840000+00:00</time>
      </trkpt>
      <trkpt lat="0" lon="0">
        <time>2020-12-20T10:29:07.841000+00:00</time>
      </trkpt>
      <trkpt lat="47.33105" lon="-1.35702">
        <ele>129</ele>
        <time>2020-12-20T10:29:08.837000+00:00</time>
      </trkpt>
      <trkpt lat="0" lon="0">
        <time>2020-12-20T10:29:08.838000+00:00</time>
      </trkpt>
      <trkpt lat="0" lon="0">
        <time>2020-12-20T10:29:08.839000+00:00</time>
      </trkpt>
      <trkpt lat="47.33103" lon="-1.35703">
        <ele>129</ele>
        <time>2020-12-20T10:29:09.849000+00:00</time>
      </trkpt>
      <trkpt lat="0" lon="0">
        <time>2020-12-20T10:29:09.859000+00:00</time>
      </trkpt>
      <trkpt lat="0" lon="0">
        <time>2020-12-20T10:29:09.864000+00:00</time>
      </trkpt>
      <trkpt lat="0" lon="0">
        <time>2020-12-20T10:29:09.867000+00:00</time>
      </trkpt>
      <trkpt lat="47.33102" lon="-1.35703">
        <ele>129</ele>
        <time>2020-12-20T10:29:10.864000+00:00</time>
      </trkpt>
      <trkpt lat="0" lon="0">
        <time>2020-12-20T10:29:10.874000+00:00</time>
      </trkpt>
      <trkpt lat="0" lon="0">
        <time>2020-12-20T10:29:10.877000+00:00</time>
      </trkpt>
      <trkpt lat="0" lon="0">
        <time>2020-12-20T10:29:10.880000+00:00</time>
      </trkpt>
      <trkpt lat="47.331" lon="-1.35704">
        <ele>129</ele>
        <time>2020-12-20T10:29:11.860000+00:00</time>
      </trkpt>
      <trkpt lat="0" lon="0">
        <time>2020-12-20T10:29:11.877000+00:00</time>
      </trkpt>
      <trkpt lat="0" lon="0">
        <time>2020-12-20T10:29:11.881000+00:00</time>
      </trkpt>
      <trkpt lat="0" lon="0">
        <time>2020-12-20T10:29:11.883000+00:00</time>
      </trkpt>
      <trkpt lat="47.33099" lon="-1.35705">
        <ele>130</ele>
        <time>2020-12-20T10:29:12.841000+00:00</time>
      </trkpt>
      <trkpt lat="0" lon="0">
        <time>2020-12-20T10:29:12.847000+00:00</time>
      </trkpt>
      <trkpt lat="0" lon="0">
        <time>2020-12-20T10:29:12.851000+00:00</time>
      </trkpt>
      <trkpt lat="0" lon="0">
        <time>2020-12-20T10:29:12.854000+00:00</time>
      </trkpt>
      <trkpt lat="47.33098" lon="-1.35705">
        <ele>130</ele>
        <time>2020-12-20T10:29:13.913000+00:00</time>
      </trkpt>
      <trkpt lat="0" lon="0">
        <time>2020-12-20T10:29:13.925000+00:00</time>
      </trkpt>
      <trkpt lat="0" lon="0">
        <time>2020-12-20T10:29:13.934000+00:00</time>
      </trkpt>
      <trkpt lat="0" lon="0">
        <time>2020-12-20T10:29:13.941000+00:00</time>
      </trkpt>
      <trkpt lat="47.33098" lon="-1.35706">
        <ele>130</ele>
        <time>2020-12-20T10:29:14.865000+00:00</time>
      </trkpt>
      <trkpt lat="0" lon="0">
        <time>2020-12-20T10:29:14.877000+00:00</time>
      </trkpt>
      <trkpt lat="0" lon="0">
        <time>2020-12-20T10:29:14.884000+00:00</time>
      </trkpt>
      <trkpt lat="0" lon="0">
        <time>2020-12-20T10:29:14.887000+00:00</time>
      </trkpt>
      <trkpt lat="47.33097" lon="-1.35706">
        <ele>130</ele>
        <time>2020-12-20T10:29:15.884000+00:00</time>
      </trkpt>
      <trkpt lat="0" lon="0">
        <time>2020-12-20T10:29:15.900000+00:00</time>
      </trkpt>
      <trkpt lat="0" lon="0">
        <time>2020-12-20T10:29:15.905000+00:00</time>
      </trkpt>
      <trkpt lat="0" lon="0">
        <time>2020-12-20T10:29:15.907000+00:00</time>
      </trkpt>
      <trkpt lat="47.33097" lon="-1.35706">
        <ele>130</ele>
        <time>2020-12-20T10:29:16.870000+00:00</time>
      </trkpt>
      <trkpt lat="0" lon="0">
        <time>2020-12-20T10:29:16.883000+00:00</time>
      </trkpt>
      <trkpt lat="0" lon="0">
        <time>2020-12-20T10:29:16.887000+00:00</time>
      </trkpt>
      <trkpt lat="0" lon="0">
        <time>2020-12-20T10:29:16.888000+00:00</time>
      </trkpt>
      <trkpt lat="47.33097" lon="-1.35706">
        <ele>130</ele>
        <time>2020-12-20T10:29:17.881000+00:00</time>
      </trkpt>
      <trkpt lat="0" lon="0">
        <time>2020-12-20T10:29:17.888000+00:00</time>
      </trkpt>
      <trkpt lat="0" lon="0">
        <time>2020-12-20T10:29:17.893000+00:00</time>
      </trkpt>
      <trkpt lat="0" lon="0">
        <time>2020-12-20T10:29:17.895000+00:00</time>
      </trkpt>
      <trkpt lat="47.33097" lon="-1.35707">
        <ele>130</ele>
        <time>2020-12-20T10:29:18.834000+00:00</time>
      </trkpt>
      <trkpt lat="0" lon="0">
        <time>2020-12-20T10:29:18.842000+00:00</time>
      </trkpt>
      <trkpt lat="0" lon="0">
        <time>2020-12-20T10:29:18.849000+00:00</time>
      </trkpt>
      <trkpt lat="0" lon="0">
        <time>2020-12-20T10:29:18.855000+00:00</time>
      </trkpt>
      <trkpt lat="47.33097" lon="-1.35707">
        <ele>130</ele>
        <time>2020-12-20T10:29:19.863000+00:00</time>
      </trkpt>
      <trkpt lat="0" lon="0">
        <time>2020-12-20T10:29:19.874000+00:00</time>
      </trkpt>
      <trkpt lat="0" lon="0">
        <time>2020-12-20T10:29:19.878000+00:00</time>
      </trkpt>
      <trkpt lat="0" lon="0">
        <time>2020-12-20T10:29:19.891000+00:00</time>
      </trkpt>
      <trkpt lat="47.33097" lon="-1.35707">
        <ele>130</ele>
        <time>2020-12-20T10:29:20.863000+00:00</time>
      </trkpt>
      <trkpt lat="0" lon="0">
        <time>2020-12-20T10:29:20.870000+00:00</time>
      </trkpt>
      <trkpt lat="0" lon="0">
        <time>2020-12-20T10:29:20.885000+00:00</time>
      </trkpt>
      <trkpt lat="0" lon="0">
        <time>2020-12-20T10:29:20.911000+00:00</time>
      </trkpt>
      <trkpt lat="47.33082" lon="-1.3571">
        <ele>128</ele>
        <time>2020-12-20T10:29:21.935000+00:00</time>
      </trkpt>
      <trkpt lat="0" lon="0">
        <time>2020-12-20T10:29:21.940000+00:00</time>
      </trkpt>
      <trkpt lat="0" lon="0">
        <time>2020-12-20T10:29:21.944000+00:00</time>
      </trkpt>
      <trkpt lat="0" lon="0">
        <time>2020-12-20T10:29:21.946000+00:00</time>
      </trkpt>
      <trkpt lat="47.33079" lon="-1.3571">
        <ele>128</ele>
        <time>2020-12-20T10:29:22.908000+00:00</time>
      </trkpt>
      <trkpt lat="0" lon="0">
        <time>2020-12-20T10:29:22.912000+00:00</time>
      </trkpt>
      <trkpt lat="0" lon="0">
        <time>2020-12-20T10:29:22.930000+00:00</time>
      </trkpt>
      <trkpt lat="0" lon="0">
        <time>2020-12-20T10:29:22.934000+00:00</time>
      </trkpt>
      <trkpt lat="47.33076" lon="-1.3571">
        <ele>128</ele>
        <time>2020-12-20T10:29:23.915000+00:00</time>
      </trkpt>
      <trkpt lat="0" lon="0">
        <time>2020-12-20T10:29:23.924000+00:00</time>
      </trkpt>
      <trkpt lat="0" lon="0">
        <time>2020-12-20T10:29:23.930000+00:00</time>
      </trkpt>
      <trkpt lat="0" lon="0">
        <time>2020-12-20T10:29:23.932000+00:00</time>
      </trkpt>
      <trkpt lat="47.33074" lon="-1.3571">
        <ele>128</ele>
        <time>2020-12-20T10:29:24.963000+00:00</time>
      </trkpt>
      <trkpt lat="0" lon="0">
        <time>2020-12-20T10:29:24.967000+00:00</time>
      </trkpt>
      <trkpt lat="0" lon="0">
        <time>2020-12-20T10:29:24.972000+00:00</time>
      </trkpt>
      <trkpt lat="0" lon="0">
        <time>2020-12-20T10:29:24.975000+00:00</time>
      </trkpt>
      <trkpt lat="47.33071" lon="-1.3571">
        <ele>127</ele>
        <time>2020-12-20T10:29:25.979000+00:00</time>
      </trkpt>
      <trkpt lat="0" lon="0">
        <time>2020-12-20T10:29:25.987000+00:00</time>
      </trkpt>
      <trkpt lat="0" lon="0">
        <time>2020-12-20T10:29:25.991000+00:00</time>
      </trkpt>
      <trkpt lat="0" lon="0">
        <time>2020-12-20T10:29:25.992000+00:00</time>
      </trkpt>
      <trkpt lat="47.33069" lon="-1.3571">
        <ele>126</ele>
        <time>2020-12-20T10:29:26.940000+00:00</time>
      </trkpt>
      <trkpt lat="0" lon="0">
        <time>2020-12-20T10:29:26.949000+00:00</time>
      </trkpt>
      <trkpt lat="0" lon="0">
        <time>2020-12-20T10:29:26.953000+00:00</time>
      </trkpt>
      <trkpt lat="0" lon="0">
        <time>2020-12-20T10:29:26.955000+00:00</time>
      </trkpt>
      <trkpt lat="47.33066" lon="-1.3571">
        <ele>126</ele>
        <time>2020-12-20T10:29:27.972000+00:00</time>
      </trkpt>
      <trkpt lat="0" lon="0">
        <time>2020-12-20T10:29:27.976000+00:00</time>
      </trkpt>
      <trkpt lat="0" lon="0">
        <time>2020-12-20T10:29:27.981000+00:00</time>
      </trkpt>
      <trkpt lat="0" lon="0">
        <time>2020-12-20T10:29:27.983000+00:00</time>
      </trkpt>
      <trkpt lat="47.33064" lon="-1.3571">
        <ele>125</ele>
        <time>2020-12-20T10:29:28.957000+00:00</time>
      </trkpt>
      <trkpt lat="0" lon="0">
        <time>2020-12-20T10:29:28.963000+00:00</time>
      </trkpt>
      <trkpt lat="0" lon="0">
        <time>2020-12-20T10:29:28.968000+00:00</time>
      </trkpt>
      <trkpt lat="0" lon="0">
        <time>2020-12-20T10:29:28.970000+00:00</time>
      </trkpt>
      <trkpt lat="47.33062" lon="-1.35709">
        <ele>125</ele>
        <time>2020-12-20T10:29:29.976000+00:00</time>
      </trkpt>
      <trkpt lat="0" lon="0">
        <time>2020-12-20T10:29:29.979000+00:00</time>
      </trkpt>
      <trkpt lat="0" lon="0">
        <time>2020-12-20T10:29:29.986000+00:00</time>
      </trkpt>
      <trkpt lat="0" lon="0">
        <time>2020-12-20T10:29:29.992000+00:00</time>
      </trkpt>
      <trkpt lat="47.3306" lon="-1.35709">
        <ele>125</ele>
        <time>2020-12-20T10:29:30.917000+00:00</time>
      </trkpt>
      <trkpt lat="0" lon="0">
        <time>2020-12-20T10:29:30.935000+00:00</time>
      </trkpt>
      <trkpt lat="0" lon="0">
        <time>2020-12-20T10:29:30.942000+00:00</time>
      </trkpt>
      <trkpt lat="0" lon="0">
        <time>2020-12-20T10:29:30.949000+00:00</time>
      </trkpt>
      <trkpt lat="47.33058" lon="-1.35709">
        <ele>125</ele>
        <time>2020-12-20T10:29:31.975000+00:00</time>
      </trkpt>
      <trkpt lat="0" lon="0">
        <time>2020-12-20T10:29:31.985000+00:00</time>
      </trkpt>
      <trkpt lat="0" lon="0">
        <time>2020-12-20T10:29:31.990000+00:00</time>
      </trkpt>
      <trkpt lat="0" lon="0">
        <time>2020-12-20T10:29:31.992000+00:00</time>
      </trkpt>
      <trkpt lat="47.33056" lon="-1.35709">
        <ele>125</ele>
        <time>2020-12-20T10:29:32.962000+00:00</time>
      </trkpt>
      <trkpt lat="0" lon="0">
        <time>2020-12-20T10:29:32.967000+00:00</time>
      </trkpt>
      <trkpt lat="0" lon="0">
        <time>2020-12-20T10:29:32.976000+00:00</time>
      </trkpt>
      <trkpt lat="0" lon="0">
        <time>2020-12-20T10:29:32.978000+00:00</time>
      </trkpt>
      <trkpt lat="47.33054" lon="-1.35709">
        <ele>125</ele>
        <time>2020-12-20T10:29:33.975000+00:00</time>
      </trkpt>
      <trkpt lat="0" lon="0">
        <time>2020-12-20T10:29:33.995000+00:00</time>
      </trkpt>
      <trkpt lat="0" lon="0">
        <time>2020-12-20T10:29:34.005000+00:00</time>
      </trkpt>
      <trkpt lat="0" lon="0">
        <time>2020-12-20T10:29:34.009000+00:00</time>
      </trkpt>
      <trkpt lat="47.33052" lon="-1.35709">
        <ele>126</ele>
        <time>2020-12-20T10:29:34.962000+00:00</time>
      </trkpt>
      <trkpt lat="0" lon="0">
        <time>2020-12-20T10:29:34.970000+00:00</time>
      </trkpt>
      <trkpt lat="0" lon="0">
        <time>2020-12-20T10:29:34.974000+00:00</time>
      </trkpt>
      <trkpt lat="0" lon="0">
        <time>2020-12-20T10:29:34.979000+00:00</time>
      </trkpt>
      <trkpt lat="47.33049" lon="-1.35709">
        <ele>126</ele>
        <time>2020-12-20T10:29:35.983000+00:00</time>
      </trkpt>
      <trkpt lat="0" lon="0">
        <time>2020-12-20T10:29:35.999000+00:00</time>
      </trkpt>
      <trkpt lat="0" lon="0">
        <time>2020-12-20T10:29:36.003000+00:00</time>
      </trkpt>
      <trkpt lat="0" lon="0">
        <time>2020-12-20T10:29:36.005000+00:00</time>
      </trkpt>
      <trkpt lat="47.33047" lon="-1.35709">
        <ele>126</ele>
        <time>2020-12-20T10:29:36.951000+00:00</time>
      </trkpt>
      <trkpt lat="0" lon="0">
        <time>2020-12-20T10:29:36.955000+00:00</time>
      </trkpt>
      <trkpt lat="0" lon="0">
        <time>2020-12-20T10:29:36.960000+00:00</time>
      </trkpt>
      <trkpt lat="0" lon="0">
        <time>2020-12-20T10:29:36.962000+00:00</time>
      </trkpt>
      <trkpt lat="47.33045" lon="-1.35709">
        <ele>126</ele>
        <time>2020-12-20T10:29:37.994000+00:00</time>
      </trkpt>
      <trkpt lat="0" lon="0">
        <time>2020-12-20T10:29:37.999000+00:00</time>
      </trkpt>
      <trkpt lat="0" lon="0">
        <time>2020-12-20T10:29:38.004000+00:00</time>
      </trkpt>
      <trkpt lat="0" lon="0">
        <time>2020-12-20T10:29:38.008000+00:00</time>
      </trkpt>
      <trkpt lat="47.33042" lon="-1.3571">
        <ele>127</ele>
        <time>2020-12-20T10:29:38.989000+00:00</time>
      </trkpt>
      <trkpt lat="0" lon="0">
        <time>2020-12-20T10:29:38.995000+00:00</time>
      </trkpt>
      <trkpt lat="0" lon="0">
        <time>2020-12-20T10:29:39.002000+00:00</time>
      </trkpt>
      <trkpt lat="0" lon="0">
        <time>2020-12-20T10:29:39.005000+00:00</time>
      </trkpt>
      <trkpt lat="47.3304" lon="-1.3571">
        <ele>127</ele>
        <time>2020-12-20T10:29:40.007000+00:00</time>
      </trkpt>
      <trkpt lat="0" lon="0">
        <time>2020-12-20T10:29:40.018000+00:00</time>
      </trkpt>
      <trkpt lat="0" lon="0">
        <time>2020-12-20T10:29:40.023000+00:00</time>
      </trkpt>
      <trkpt lat="0" lon="0">
        <time>2020-12-20T10:29:40.026000+00:00</time>
      </trkpt>
      <trkpt lat="47.33038" lon="-1.3571">
        <ele>127</ele>
        <time>2020-12-20T10:29:40.966000+00:00</time>
      </trkpt>
      <trkpt lat="0" lon="0">
        <time>2020-12-20T10:29:40.976000+00:00</time>
      </trkpt>
      <trkpt lat="0" lon="0">
        <time>2020-12-20T10:29:40.981000+00:00</time>
      </trkpt>
      <trkpt lat="0" lon="0">
        <time>2020-12-20T10:29:40.983000+00:00</time>
      </trkpt>
      <trkpt lat="47.33035" lon="-1.35711">
        <ele>127</ele>
        <time>2020-12-20T10:29:41.956000+00:00</time>
      </trkpt>
      <trkpt lat="0" lon="0">
        <time>2020-12-20T10:29:41.965000+00:00</time>
      </trkpt>
      <trkpt lat="0" lon="0">
        <time>2020-12-20T10:29:41.969000+00:00</time>
      </trkpt>
      <trkpt lat="0" lon="0">
        <time>2020-12-20T10:29:41.972000+00:00</time>
      </trkpt>
      <trkpt lat="47.33033" lon="-1.35711">
        <ele>127</ele>
        <time>2020-12-20T10:29:42.966000+00:00</time>
      </trkpt>
      <trkpt lat="0" lon="0">
        <time>2020-12-20T10:29:42.974000+00:00</time>
      </trkpt>
      <trkpt lat="0" lon="0">
        <time>2020-12-20T10:29:42.981000+00:00</time>
      </trkpt>
      <trkpt lat="0" lon="0">
        <time>2020-12-20T10:29:42.987000+00:00</time>
      </trkpt>
      <trkpt lat="47.33031" lon="-1.35712">
        <ele>127</ele>
        <time>2020-12-20T10:29:43.974000+00:00</time>
      </trkpt>
      <trkpt lat="0" lon="0">
        <time>2020-12-20T10:29:43.982000+00:00</time>
      </trkpt>
      <trkpt lat="0" lon="0">
        <time>2020-12-20T10:29:43.987000+00:00</time>
      </trkpt>
      <trkpt lat="0" lon="0">
        <time>2020-12-20T10:29:43.991000+00:00</time>
      </trkpt>
      <trkpt lat="47.33029" lon="-1.35713">
        <ele>127</ele>
        <time>2020-12-20T10:29:44.923000+00:00</time>
      </trkpt>
      <trkpt lat="0" lon="0">
        <time>2020-12-20T10:29:44.925000+00:00</time>
      </trkpt>
      <trkpt lat="0" lon="0">
        <time>2020-12-20T10:29:44.928000+00:00</time>
      </trkpt>
      <trkpt lat="0" lon="0">
        <time>2020-12-20T10:29:44.930000+00:00</time>
      </trkpt>
      <trkpt lat="47.33027" lon="-1.35714">
        <ele>127</ele>
        <time>2020-12-20T10:29:45.971000+00:00</time>
      </trkpt>
      <trkpt lat="0" lon="0">
        <time>2020-12-20T10:29:45.977000+00:00</time>
      </trkpt>
      <trkpt lat="0" lon="0">
        <time>2020-12-20T10:29:45.983000+00:00</time>
      </trkpt>
      <trkpt lat="0" lon="0">
        <time>2020-12-20T10:29:45.985000+00:00</time>
      </trkpt>
      <trkpt lat="47.33025" lon="-1.35715">
        <ele>127</ele>
        <time>2020-12-20T10:29:46.983000+00:00</time>
      </trkpt>
      <trkpt lat="0" lon="0">
        <time>2020-12-20T10:29:46.990000+00:00</time>
      </trkpt>
      <trkpt lat="0" lon="0">
        <time>2020-12-20T10:29:46.992000+00:00</time>
      </trkpt>
      <trkpt lat="0" lon="0">
        <time>2020-12-20T10:29:46.993000+00:00</time>
      </trkpt>
      <trkpt lat="47.33022" lon="-1.35716">
        <ele>127</ele>
        <time>2020-12-20T10:29:47.969000+00:00</time>
      </trkpt>
      <trkpt lat="0" lon="0">
        <time>2020-12-20T10:29:47.973000+00:00</time>
      </trkpt>
      <trkpt lat="0" lon="0">
        <time>2020-12-20T10:29:47.976000+00:00</time>
      </trkpt>
      <trkpt lat="0" lon="0">
        <time>2020-12-20T10:29:47.979000+00:00</time>
      </trkpt>
      <trkpt lat="47.3302" lon="-1.35717">
        <ele>127</ele>
        <time>2020-12-20T10:29:48.974000+00:00</time>
      </trkpt>
      <trkpt lat="0" lon="0">
        <time>2020-12-20T10:29:48.981000+00:00</time>
      </trkpt>
      <trkpt lat="0" lon="0">
        <time>2020-12-20T10:29:48.987000+00:00</time>
      </trkpt>
      <trkpt lat="0" lon="0">
        <time>2020-12-20T10:29:48.989000+00:00</time>
      </trkpt>
      <trkpt lat="47.33018" lon="-1.35719">
        <ele>127</ele>
        <time>2020-12-20T10:29:50.005000+00:00</time>
      </trkpt>
      <trkpt lat="0" lon="0">
        <time>2020-12-20T10:29:50.015000+00:00</time>
      </trkpt>
      <trkpt lat="0" lon="0">
        <time>2020-12-20T10:29:50.022000+00:00</time>
      </trkpt>
      <trkpt lat="0" lon="0">
        <time>2020-12-20T10:29:50.025000+00:00</time>
      </trkpt>
      <trkpt lat="47.33015" lon="-1.3572">
        <ele>127</ele>
        <time>2020-12-20T10:29:50.981000+00:00</time>
      </trkpt>
      <trkpt lat="0" lon="0">
        <time>2020-12-20T10:29:50.990000+00:00</time>
      </trkpt>
      <trkpt lat="0" lon="0">
        <time>2020-12-20T10:29:50.994000+00:00</time>
      </trkpt>
      <trkpt lat="0" lon="0">
        <time>2020-12-20T10:29:50.996000+00:00</time>
      </trkpt>
      <trkpt lat="47.33013" lon="-1.35722">
        <ele>127</ele>
        <time>2020-12-20T10:29:51.948000+00:00</time>
      </trkpt>
      <trkpt lat="0" lon="0">
        <time>2020-12-20T10:29:51.952000+00:00</time>
      </trkpt>
      <trkpt lat="0" lon="0">
        <time>2020-12-20T10:29:51.957000+00:00</time>
      </trkpt>
      <trkpt lat="0" lon="0">
        <time>2020-12-20T10:29:51.959000+00:00</time>
      </trkpt>
      <trkpt lat="47.3301" lon="-1.35724">
        <ele>128</ele>
        <time>2020-12-20T10:29:52.991000+00:00</time>
      </trkpt>
      <trkpt lat="0" lon="0">
        <time>2020-12-20T10:29:52.996000+00:00</time>
      </trkpt>
      <trkpt lat="0" lon="0">
        <time>2020-12-20T10:29:53.003000+00:00</time>
      </trkpt>
      <trkpt lat="0" lon="0">
        <time>2020-12-20T10:29:53.007000+00:00</time>
      </trkpt>
      <trkpt lat="47.33008" lon="-1.35726">
        <ele>128</ele>
        <time>2020-12-20T10:29:53.991000+00:00</time>
      </trkpt>
      <trkpt lat="0" lon="0">
        <time>2020-12-20T10:29:53.996000+00:00</time>
      </trkpt>
      <trkpt lat="0" lon="0">
        <time>2020-12-20T10:29:54.003000+00:00</time>
      </trkpt>
      <trkpt lat="0" lon="0">
        <time>2020-12-20T10:29:54.006000+00:00</time>
      </trkpt>
      <trkpt lat="47.33005" lon="-1.35728">
        <ele>127</ele>
        <time>2020-12-20T10:29:54.956000+00:00</time>
      </trkpt>
      <trkpt lat="0" lon="0">
        <time>2020-12-20T10:29:54.960000+00:00</time>
      </trkpt>
      <trkpt lat="0" lon="0">
        <time>2020-12-20T10:29:54.967000+00:00</time>
      </trkpt>
      <trkpt lat="0" lon="0">
        <time>2020-12-20T10:29:54.974000+00:00</time>
      </trkpt>
      <trkpt lat="47.33003" lon="-1.35729">
        <ele>127</ele>
        <time>2020-12-20T10:29:55.979000+00:00</time>
      </trkpt>
      <trkpt lat="0" lon="0">
        <time>2020-12-20T10:29:55.995000+00:00</time>
      </trkpt>
      <trkpt lat="0" lon="0">
        <time>2020-12-20T10:29:55.999000+00:00</time>
      </trkpt>
      <trkpt lat="0" lon="0">
        <time>2020-12-20T10:29:56.001000+00:00</time>
      </trkpt>
      <trkpt lat="47.33" lon="-1.3573">
        <ele>127</ele>
        <time>2020-12-20T10:29:56.952000+00:00</time>
      </trkpt>
      <trkpt lat="0" lon="0">
        <time>2020-12-20T10:29:56.971000+00:00</time>
      </trkpt>
      <trkpt lat="0" lon="0">
        <time>2020-12-20T10:29:56.980000+00:00</time>
      </trkpt>
      <trkpt lat="0" lon="0">
        <time>2020-12-20T10:29:56.983000+00:00</time>
      </trkpt>
      <trkpt lat="47.32997" lon="-1.3573">
        <ele>126</ele>
        <time>2020-12-20T10:29:57.929000+00:00</time>
      </trkpt>
      <trkpt lat="0" lon="0">
        <time>2020-12-20T10:29:57.939000+00:00</time>
      </trkpt>
      <trkpt lat="0" lon="0">
        <time>2020-12-20T10:29:57.948000+00:00</time>
      </trkpt>
      <trkpt lat="0" lon="0">
        <time>2020-12-20T10:29:57.951000+00:00</time>
      </trkpt>
      <trkpt lat="47.32995" lon="-1.3573">
        <ele>126</ele>
        <time>2020-12-20T10:29:58.942000+00:00</time>
      </trkpt>
      <trkpt lat="0" lon="0">
        <time>2020-12-20T10:29:58.973000+00:00</time>
      </trkpt>
      <trkpt lat="0" lon="0">
        <time>2020-12-20T10:29:58.978000+00:00</time>
      </trkpt>
      <trkpt lat="0" lon="0">
        <time>2020-12-20T10:29:58.980000+00:00</time>
      </trkpt>
      <trkpt lat="47.32993" lon="-1.35729">
        <ele>125</ele>
        <time>2020-12-20T10:29:59.908000+00:00</time>
      </trkpt>
      <trkpt lat="0" lon="0">
        <time>2020-12-20T10:29:59.913000+00:00</time>
      </trkpt>
      <trkpt lat="0" lon="0">
        <time>2020-12-20T10:29:59.915000+00:00</time>
      </trkpt>
      <trkpt lat="0" lon="0">
        <time>2020-12-20T10:29:59.921000+00:00</time>
      </trkpt>
      <trkpt lat="47.32991" lon="-1.35727">
        <ele>125</ele>
        <time>2020-12-20T10:30:00.981000+00:00</time>
      </trkpt>
      <trkpt lat="0" lon="0">
        <time>2020-12-20T10:30:00.988000+00:00</time>
      </trkpt>
      <trkpt lat="0" lon="0">
        <time>2020-12-20T10:30:00.995000+00:00</time>
      </trkpt>
      <trkpt lat="0" lon="0">
        <time>2020-12-20T10:30:00.997000+00:00</time>
      </trkpt>
      <trkpt lat="47.32989" lon="-1.35725">
        <ele>125</ele>
        <time>2020-12-20T10:30:01.944000+00:00</time>
      </trkpt>
      <trkpt lat="0" lon="0">
        <time>2020-12-20T10:30:01.950000+00:00</time>
      </trkpt>
      <trkpt lat="0" lon="0">
        <time>2020-12-20T10:30:01.955000+00:00</time>
      </trkpt>
      <trkpt lat="0" lon="0">
        <time>2020-12-20T10:30:01.957000+00:00</time>
      </trkpt>
      <trkpt lat="47.32987" lon="-1.35723">
        <ele>125</ele>
        <time>2020-12-20T10:30:02.984000+00:00</time>
      </trkpt>
      <trkpt lat="0" lon="0">
        <time>2020-12-20T10:30:02.994000+00:00</time>
      </trkpt>
      <trkpt lat="0" lon="0">
        <time>2020-12-20T10:30:02.998000+00:00</time>
      </trkpt>
      <trkpt lat="0" lon="0">
        <time>2020-12-20T10:30:03+00:00</time>
      </trkpt>
      <trkpt lat="47.32986" lon="-1.35721">
        <ele>125</ele>
        <time>2020-12-20T10:30:03.998000+00:00</time>
      </trkpt>
      <trkpt lat="0" lon="0">
        <time>2020-12-20T10:30:04.003000+00:00</time>
      </trkpt>
      <trkpt lat="0" lon="0">
        <time>2020-12-20T10:30:04.008000+00:00</time>
      </trkpt>
      <trkpt lat="0" lon="0">
        <time>2020-12-20T10:30:04.012000+00:00</time>
      </trkpt>
      <trkpt lat="47.32984" lon="-1.35718">
        <ele>126</ele>
        <time>2020-12-20T10:30:04.972000+00:00</time>
      </trkpt>
      <trkpt lat="0" lon="0">
        <time>2020-12-20T10:30:04.983000+00:00</time>
      </trkpt>
      <trkpt lat="0" lon="0">
        <time>2020-12-20T10:30:04.987000+00:00</time>
      </trkpt>
      <trkpt lat="0" lon="0">
        <time>2020-12-20T10:30:04.989000+00:00</time>
      </trkpt>
      <trkpt lat="47.32983" lon="-1.35715">
        <ele>125</ele>
        <time>2020-12-20T10:30:06.003000+00:00</time>
      </trkpt>
      <trkpt lat="0" lon="0">
        <time>2020-12-20T10:30:06.022000+00:00</time>
      </trkpt>
      <trkpt lat="0" lon="0">
        <time>2020-12-20T10:30:06.028000+00:00</time>
      </trkpt>
      <trkpt lat="0" lon="0">
        <time>2020-12-20T10:30:06.031000+00:00</time>
      </trkpt>
      <trkpt lat="47.32982" lon="-1.35712">
        <ele>126</ele>
        <time>2020-12-20T10:30:06.948000+00:00</time>
      </trkpt>
      <trkpt lat="0" lon="0">
        <time>2020-12-20T10:30:06.959000+00:00</time>
      </trkpt>
      <trkpt lat="0" lon="0">
        <time>2020-12-20T10:30:06.969000+00:00</time>
      </trkpt>
      <trkpt lat="0" lon="0">
        <time>2020-12-20T10:30:06.974000+00:00</time>
      </trkpt>
      <trkpt lat="47.32981" lon="-1.35709">
        <ele>126</ele>
        <time>2020-12-20T10:30:07.958000+00:00</time>
      </trkpt>
      <trkpt lat="0" lon="0">
        <time>2020-12-20T10:30:07.967000+00:00</time>
      </trkpt>
      <trkpt lat="0" lon="0">
        <time>2020-12-20T10:30:07.985000+00:00</time>
      </trkpt>
      <trkpt lat="0" lon="0">
        <time>2020-12-20T10:30:07.987000+00:00</time>
      </trkpt>
      <trkpt lat="47.3298" lon="-1.35706">
        <ele>126</ele>
        <time>2020-12-20T10:30:08.967000+00:00</time>
      </trkpt>
      <trkpt lat="0" lon="0">
        <time>2020-12-20T10:30:08.973000+00:00</time>
      </trkpt>
      <trkpt lat="0" lon="0">
        <time>2020-12-20T10:30:08.982000+00:00</time>
      </trkpt>
      <trkpt lat="0" lon="0">
        <time>2020-12-20T10:30:08.985000+00:00</time>
      </trkpt>
      <trkpt lat="47.32979" lon="-1.35704">
        <ele>127</ele>
        <time>2020-12-20T10:30:09.946000+00:00</time>
      </trkpt>
      <trkpt lat="0" lon="0">
        <time>2020-12-20T10:30:09.955000+00:00</time>
      </trkpt>
      <trkpt lat="0" lon="0">
        <time>2020-12-20T10:30:09.962000+00:00</time>
      </trkpt>
      <trkpt lat="0" lon="0">
        <time>2020-12-20T10:30:09.965000+00:00</time>
      </trkpt>
      <trkpt lat="47.32977" lon="-1.35701">
        <ele>126</ele>
        <time>2020-12-20T10:30:10.964000+00:00</time>
      </trkpt>
      <trkpt lat="0" lon="0">
        <time>2020-12-20T10:30:10.972000+00:00</time>
      </trkpt>
      <trkpt lat="0" lon="0">
        <time>2020-12-20T10:30:10.977000+00:00</time>
      </trkpt>
      <trkpt lat="0" lon="0">
        <time>2020-12-20T10:30:10.980000+00:00</time>
      </trkpt>
      <trkpt lat="47.32976" lon="-1.35699">
        <ele>126</ele>
        <time>2020-12-20T10:30:12.003000+00:00</time>
      </trkpt>
      <trkpt lat="0" lon="0">
        <time>2020-12-20T10:30:12.017000+00:00</time>
      </trkpt>
      <trkpt lat="0" lon="0">
        <time>2020-12-20T10:30:12.022000+00:00</time>
      </trkpt>
      <trkpt lat="0" lon="0">
        <time>2020-12-20T10:30:12.031000+00:00</time>
      </trkpt>
      <trkpt lat="47.32974" lon="-1.35697">
        <ele>126</ele>
        <time>2020-12-20T10:30:12.933000+00:00</time>
      </trkpt>
      <trkpt lat="0" lon="0">
        <time>2020-12-20T10:30:12.943000+00:00</time>
      </trkpt>
      <trkpt lat="0" lon="0">
        <time>2020-12-20T10:30:12.951000+00:00</time>
      </trkpt>
      <trkpt lat="0" lon="0">
        <time>2020-12-20T10:30:12.954000+00:00</time>
      </trkpt>
      <trkpt lat="47.32973" lon="-1.35695">
        <ele>125</ele>
        <time>2020-12-20T10:30:13.957000+00:00</time>
      </trkpt>
      <trkpt lat="0" lon="0">
        <time>2020-12-20T10:30:13.968000+00:00</time>
      </trkpt>
      <trkpt lat="0" lon="0">
        <time>2020-12-20T10:30:13.974000+00:00</time>
      </trkpt>
      <trkpt lat="0" lon="0">
        <time>2020-12-20T10:30:13.976000+00:00</time>
      </trkpt>
      <trkpt lat="47.32971" lon="-1.35694">
        <ele>125</ele>
        <time>2020-12-20T10:30:14.949000+00:00</time>
      </trkpt>
      <trkpt lat="0" lon="0">
        <time>2020-12-20T10:30:14.959000+00:00</time>
      </trkpt>
      <trkpt lat="0" lon="0">
        <time>2020-12-20T10:30:14.963000+00:00</time>
      </trkpt>
      <trkpt lat="0" lon="0">
        <time>2020-12-20T10:30:14.969000+00:00</time>
      </trkpt>
      <trkpt lat="47.3297" lon="-1.35692">
        <ele>125</ele>
        <time>2020-12-20T10:30:15.931000+00:00</time>
      </trkpt>
      <trkpt lat="0" lon="0">
        <time>2020-12-20T10:30:15.935000+00:00</time>
      </trkpt>
      <trkpt lat="0" lon="0">
        <time>2020-12-20T10:30:15.942000+00:00</time>
      </trkpt>
      <trkpt lat="0" lon="0">
        <time>2020-12-20T10:30:15.946000+00:00</time>
      </trkpt>
      <trkpt lat="47.32968" lon="-1.35691">
        <ele>125</ele>
        <time>2020-12-20T10:30:16.973000+00:00</time>
      </trkpt>
      <trkpt lat="0" lon="0">
        <time>2020-12-20T10:30:16.976000+00:00</time>
      </trkpt>
      <trkpt lat="0" lon="0">
        <time>2020-12-20T10:30:16.980000+00:00</time>
      </trkpt>
      <trkpt lat="0" lon="0">
        <time>2020-12-20T10:30:16.983000+00:00</time>
      </trkpt>
      <trkpt lat="47.32967" lon="-1.3569">
        <ele>124</ele>
        <time>2020-12-20T10:30:17.927000+00:00</time>
      </trkpt>
      <trkpt lat="0" lon="0">
        <time>2020-12-20T10:30:17.938000+00:00</time>
      </trkpt>
      <trkpt lat="0" lon="0">
        <time>2020-12-20T10:30:17.944000+00:00</time>
      </trkpt>
      <trkpt lat="0" lon="0">
        <time>2020-12-20T10:30:17.946000+00:00</time>
      </trkpt>
      <trkpt lat="47.32965" lon="-1.35689">
        <ele>124</ele>
        <time>2020-12-20T10:30:18.968000+00:00</time>
      </trkpt>
      <trkpt lat="0" lon="0">
        <time>2020-12-20T10:30:18.975000+00:00</time>
      </trkpt>
      <trkpt lat="0" lon="0">
        <time>2020-12-20T10:30:18.980000+00:00</time>
      </trkpt>
      <trkpt lat="0" lon="0">
        <time>2020-12-20T10:30:18.981000+00:00</time>
      </trkpt>
      <trkpt lat="47.32963" lon="-1.35688">
        <ele>124</ele>
        <time>2020-12-20T10:30:19.965000+00:00</time>
      </trkpt>
      <trkpt lat="0" lon="0">
        <time>2020-12-20T10:30:19.976000+00:00</time>
      </trkpt>
      <trkpt lat="0" lon="0">
        <time>2020-12-20T10:30:19.985000+00:00</time>
      </trkpt>
      <trkpt lat="0" lon="0">
        <time>2020-12-20T10:30:19.988000+00:00</time>
      </trkpt>
      <trkpt lat="47.32961" lon="-1.35687">
        <ele>124</ele>
        <time>2020-12-20T10:30:20.967000+00:00</time>
      </trkpt>
      <trkpt lat="0" lon="0">
        <time>2020-12-20T10:30:20.974000+00:00</time>
      </trkpt>
      <trkpt lat="0" lon="0">
        <time>2020-12-20T10:30:20.980000+00:00</time>
      </trkpt>
      <trkpt lat="0" lon="0">
        <time>2020-12-20T10:30:20.982000+00:00</time>
      </trkpt>
      <trkpt lat="47.32959" lon="-1.35687">
        <ele>124</ele>
        <time>2020-12-20T10:30:21.973000+00:00</time>
      </trkpt>
      <trkpt lat="0" lon="0">
        <time>2020-12-20T10:30:21.992000+00:00</time>
      </trkpt>
      <trkpt lat="0" lon="0">
        <time>2020-12-20T10:30:22.001000+00:00</time>
      </trkpt>
      <trkpt lat="0" lon="0">
        <time>2020-12-20T10:30:22.005000+00:00</time>
      </trkpt>
      <trkpt lat="47.32957" lon="-1.35686">
        <ele>124</ele>
        <time>2020-12-20T10:30:22.969000+00:00</time>
      </trkpt>
      <trkpt lat="0" lon="0">
        <time>2020-12-20T10:30:22.978000+00:00</time>
      </trkpt>
      <trkpt lat="0" lon="0">
        <time>2020-12-20T10:30:22.986000+00:00</time>
      </trkpt>
      <trkpt lat="0" lon="0">
        <time>2020-12-20T10:30:22.988000+00:00</time>
      </trkpt>
      <trkpt lat="47.32955" lon="-1.35685">
        <ele>125</ele>
        <time>2020-12-20T10:30:23.922000+00:00</time>
      </trkpt>
      <trkpt lat="0" lon="0">
        <time>2020-12-20T10:30:23.929000+00:00</time>
      </trkpt>
      <trkpt lat="0" lon="0">
        <time>2020-12-20T10:30:23.933000+00:00</time>
      </trkpt>
      <trkpt lat="0" lon="0">
        <time>2020-12-20T10:30:23.935000+00:00</time>
      </trkpt>
      <trkpt lat="47.32953" lon="-1.35684">
        <ele>125</ele>
        <time>2020-12-20T10:30:24.944000+00:00</time>
      </trkpt>
      <trkpt lat="0" lon="0">
        <time>2020-12-20T10:30:24.955000+00:00</time>
      </trkpt>
      <trkpt lat="0" lon="0">
        <time>2020-12-20T10:30:24.961000+00:00</time>
      </trkpt>
      <trkpt lat="0" lon="0">
        <time>2020-12-20T10:30:24.963000+00:00</time>
      </trkpt>
      <trkpt lat="47.32951" lon="-1.35683">
        <ele>125</ele>
        <time>2020-12-20T10:30:25.960000+00:00</time>
      </trkpt>
      <trkpt lat="0" lon="0">
        <time>2020-12-20T10:30:25.974000+00:00</time>
      </trkpt>
      <trkpt lat="0" lon="0">
        <time>2020-12-20T10:30:25.982000+00:00</time>
      </trkpt>
      <trkpt lat="0" lon="0">
        <time>2020-12-20T10:30:25.984000+00:00</time>
      </trkpt>
      <trkpt lat="47.32948" lon="-1.35682">
        <ele>125</ele>
        <time>2020-12-20T10:30:26.978000+00:00</time>
      </trkpt>
      <trkpt lat="0" lon="0">
        <time>2020-12-20T10:30:26.993000+00:00</time>
      </trkpt>
      <trkpt lat="0" lon="0">
        <time>2020-12-20T10:30:26.998000+00:00</time>
      </trkpt>
      <trkpt lat="0" lon="0">
        <time>2020-12-20T10:30:27+00:00</time>
      </trkpt>
      <trkpt lat="47.32946" lon="-1.35681">
        <ele>125</ele>
        <time>2020-12-20T10:30:27.973000+00:00</time>
      </trkpt>
      <trkpt lat="0" lon="0">
        <time>2020-12-20T10:30:27.981000+00:00</time>
      </trkpt>
      <trkpt lat="0" lon="0">
        <time>2020-12-20T10:30:27.991000+00:00</time>
      </trkpt>
      <trkpt lat="0" lon="0">
        <time>2020-12-20T10:30:27.993000+00:00</time>
      </trkpt>
      <trkpt lat="47.32944" lon="-1.3568">
        <ele>125</ele>
        <time>2020-12-20T10:30:28.920000+00:00</time>
      </trkpt>
      <trkpt lat="0" lon="0">
        <time>2020-12-20T10:30:28.924000+00:00</time>
      </trkpt>
      <trkpt lat="0" lon="0">
        <time>2020-12-20T10:30:28.933000+00:00</time>
      </trkpt>
      <trkpt lat="0" lon="0">
        <time>2020-12-20T10:30:28.936000+00:00</time>
      </trkpt>
      <trkpt lat="47.32941" lon="-1.35679">
        <ele>126</ele>
        <time>2020-12-20T10:30:29.956000+00:00</time>
      </trkpt>
      <trkpt lat="0" lon="0">
        <time>2020-12-20T10:30:29.964000+00:00</time>
      </trkpt>
      <trkpt lat="0" lon="0">
        <time>2020-12-20T10:30:29.975000+00:00</time>
      </trkpt>
      <trkpt lat="0" lon="0">
        <time>2020-12-20T10:30:29.978000+00:00</time>
      </trkpt>
      <trkpt lat="47.32939" lon="-1.35678">
        <ele>126</ele>
        <time>2020-12-20T10:30:30.921000+00:00</time>
      </trkpt>
      <trkpt lat="0" lon="0">
        <time>2020-12-20T10:30:30.934000+00:00</time>
      </trkpt>
      <trkpt lat="0" lon="0">
        <time>2020-12-20T10:30:30.943000+00:00</time>
      </trkpt>
      <trkpt lat="0" lon="0">
        <time>2020-12-20T10:30:30.945000+00:00</time>
      </trkpt>
      <trkpt lat="47.32937" lon="-1.35677">
        <ele>126</ele>
        <time>2020-12-20T10:30:31.979000+00:00</time>
      </trkpt>
      <trkpt lat="0" lon="0">
        <time>2020-12-20T10:30:31.992000+00:00</time>
      </trkpt>
      <trkpt lat="0" lon="0">
        <time>2020-12-20T10:30:31.997000+00:00</time>
      </trkpt>
      <trkpt lat="0" lon="0">
        <time>2020-12-20T10:30:32.001000+00:00</time>
      </trkpt>
      <trkpt lat="47.32935" lon="-1.35676">
        <ele>126</ele>
        <time>2020-12-20T10:30:32.954000+00:00</time>
      </trkpt>
      <trkpt lat="0" lon="0">
        <time>2020-12-20T10:30:32.966000+00:00</time>
      </trkpt>
      <trkpt lat="0" lon="0">
        <time>2020-12-20T10:30:32.971000+00:00</time>
      </trkpt>
      <trkpt lat="0" lon="0">
        <time>2020-12-20T10:30:32.977000+00:00</time>
      </trkpt>
      <trkpt lat="47.32932" lon="-1.35675">
        <ele>126</ele>
        <time>2020-12-20T10:30:33.907000+00:00</time>
      </trkpt>
      <trkpt lat="0" lon="0">
        <time>2020-12-20T10:30:33.913000+00:00</time>
      </trkpt>
      <trkpt lat="0" lon="0">
        <time>2020-12-20T10:30:33.917000+00:00</time>
      </trkpt>
      <trkpt lat="0" lon="0">
        <time>2020-12-20T10:30:33.920000+00:00</time>
      </trkpt>
      <trkpt lat="47.3293" lon="-1.35674">
        <ele>126</ele>
        <time>2020-12-20T10:30:34.924000+00:00</time>
      </trkpt>
      <trkpt lat="0" lon="0">
        <time>2020-12-20T10:30:34.928000+00:00</time>
      </trkpt>
      <trkpt lat="0" lon="0">
        <time>2020-12-20T10:30:34.934000+00:00</time>
      </trkpt>
      <trkpt lat="0" lon="0">
        <time>2020-12-20T10:30:34.936000+00:00</time>
      </trkpt>
      <trkpt lat="47.32928" lon="-1.35673">
        <ele>126</ele>
        <time>2020-12-20T10:30:35.961000+00:00</time>
      </trkpt>
      <trkpt lat="0" lon="0">
        <time>2020-12-20T10:30:35.969000+00:00</time>
      </trkpt>
      <trkpt lat="0" lon="0">
        <time>2020-12-20T10:30:35.973000+00:00</time>
      </trkpt>
      <trkpt lat="0" lon="0">
        <time>2020-12-20T10:30:35.982000+00:00</time>
      </trkpt>
      <trkpt lat="47.32925" lon="-1.35672">
        <ele>126</ele>
        <time>2020-12-20T10:30:36.929000+00:00</time>
      </trkpt>
      <trkpt lat="0" lon="0">
        <time>2020-12-20T10:30:36.946000+00:00</time>
      </trkpt>
      <trkpt lat="0" lon="0">
        <time>2020-12-20T10:30:36.948000+00:00</time>
      </trkpt>
      <trkpt lat="0" lon="0">
        <time>2020-12-20T10:30:36.949000+00:00</time>
      </trkpt>
      <trkpt lat="47.32923" lon="-1.35671">
        <ele>126</ele>
        <time>2020-12-20T10:30:37.964000+00:00</time>
      </trkpt>
      <trkpt lat="0" lon="0">
        <time>2020-12-20T10:30:37.983000+00:00</time>
      </trkpt>
      <trkpt lat="0" lon="0">
        <time>2020-12-20T10:30:37.994000+00:00</time>
      </trkpt>
      <trkpt lat="0" lon="0">
        <time>2020-12-20T10:30:37.997000+00:00</time>
      </trkpt>
      <trkpt lat="47.32921" lon="-1.3567">
        <ele>126</ele>
        <time>2020-12-20T10:30:38.947000+00:00</time>
      </trkpt>
      <trkpt lat="0" lon="0">
        <time>2020-12-20T10:30:38.953000+00:00</time>
      </trkpt>
      <trkpt lat="0" lon="0">
        <time>2020-12-20T10:30:38.965000+00:00</time>
      </trkpt>
      <trkpt lat="0" lon="0">
        <time>2020-12-20T10:30:38.967000+00:00</time>
      </trkpt>
      <trkpt lat="47.32918" lon="-1.35669">
        <ele>126</ele>
        <time>2020-12-20T10:30:39.960000+00:00</time>
      </trkpt>
      <trkpt lat="0" lon="0">
        <time>2020-12-20T10:30:39.970000+00:00</time>
      </trkpt>
      <trkpt lat="0" lon="0">
        <time>2020-12-20T10:30:39.977000+00:00</time>
      </trkpt>
      <trkpt lat="0" lon="0">
        <time>2020-12-20T10:30:39.979000+00:00</time>
      </trkpt>
      <trkpt lat="47.32916" lon="-1.35668">
        <ele>126</ele>
        <time>2020-12-20T10:30:40.944000+00:00</time>
      </trkpt>
      <trkpt lat="0" lon="0">
        <time>2020-12-20T10:30:40.949000+00:00</time>
      </trkpt>
      <trkpt lat="0" lon="0">
        <time>2020-12-20T10:30:40.950000+00:00</time>
      </trkpt>
      <trkpt lat="0" lon="0">
        <time>2020-12-20T10:30:40.952000+00:00</time>
      </trkpt>
      <trkpt lat="47.32914" lon="-1.35666">
        <ele>126</ele>
        <time>2020-12-20T10:30:41.980000+00:00</time>
      </trkpt>
      <trkpt lat="0" lon="0">
        <time>2020-12-20T10:30:42.006000+00:00</time>
      </trkpt>
      <trkpt lat="0" lon="0">
        <time>2020-12-20T10:30:42.010000+00:00</time>
      </trkpt>
      <trkpt lat="0" lon="0">
        <time>2020-12-20T10:30:42.014000+00:00</time>
      </trkpt>
      <trkpt lat="47.32912" lon="-1.35665">
        <ele>126</ele>
        <time>2020-12-20T10:30:42.957000+00:00</time>
      </trkpt>
      <trkpt lat="0" lon="0">
        <time>2020-12-20T10:30:42.966000+00:00</time>
      </trkpt>
      <trkpt lat="0" lon="0">
        <time>2020-12-20T10:30:42.970000+00:00</time>
      </trkpt>
      <trkpt lat="0" lon="0">
        <time>2020-12-20T10:30:42.972000+00:00</time>
      </trkpt>
      <trkpt lat="47.3291" lon="-1.35664">
        <ele>126</ele>
        <time>2020-12-20T10:30:43.971000+00:00</time>
      </trkpt>
      <trkpt lat="0" lon="0">
        <time>2020-12-20T10:30:43.980000+00:00</time>
      </trkpt>
      <trkpt lat="0" lon="0">
        <time>2020-12-20T10:30:43.986000+00:00</time>
      </trkpt>
      <trkpt lat="0" lon="0">
        <time>2020-12-20T10:30:43.989000+00:00</time>
      </trkpt>
      <trkpt lat="47.32908" lon="-1.35664">
        <ele>125</ele>
        <time>2020-12-20T10:30:44.943000+00:00</time>
      </trkpt>
      <trkpt lat="0" lon="0">
        <time>2020-12-20T10:30:44.956000+00:00</time>
      </trkpt>
      <trkpt lat="0" lon="0">
        <time>2020-12-20T10:30:44.961000+00:00</time>
      </trkpt>
      <trkpt lat="0" lon="0">
        <time>2020-12-20T10:30:44.963000+00:00</time>
      </trkpt>
      <trkpt lat="47.32906" lon="-1.35663">
        <ele>126</ele>
        <time>2020-12-20T10:30:45.983000+00:00</time>
      </trkpt>
      <trkpt lat="0" lon="0">
        <time>2020-12-20T10:30:45.988000+00:00</time>
      </trkpt>
      <trkpt lat="0" lon="0">
        <time>2020-12-20T10:30:45.995000+00:00</time>
      </trkpt>
      <trkpt lat="0" lon="0">
        <time>2020-12-20T10:30:45.997000+00:00</time>
      </trkpt>
      <trkpt lat="47.32904" lon="-1.35662">
        <ele>126</ele>
        <time>2020-12-20T10:30:46.985000+00:00</time>
      </trkpt>
      <trkpt lat="0" lon="0">
        <time>2020-12-20T10:30:46.990000+00:00</time>
      </trkpt>
      <trkpt lat="0" lon="0">
        <time>2020-12-20T10:30:46.991000+00:00</time>
      </trkpt>
      <trkpt lat="47.32901" lon="-1.35661">
        <ele>126</ele>
        <time>2020-12-20T10:30:47.976000+00:00</time>
      </trkpt>
      <trkpt lat="0" lon="0">
        <time>2020-12-20T10:30:47.987000+00:00</time>
      </trkpt>
      <trkpt lat="0" lon="0">
        <time>2020-12-20T10:30:47.991000+00:00</time>
      </trkpt>
      <trkpt lat="0" lon="0">
        <time>2020-12-20T10:30:47.994000+00:00</time>
      </trkpt>
      <trkpt lat="47.32899" lon="-1.3566">
        <ele>126</ele>
        <time>2020-12-20T10:30:48.968000+00:00</time>
      </trkpt>
      <trkpt lat="0" lon="0">
        <time>2020-12-20T10:30:48.986000+00:00</time>
      </trkpt>
      <trkpt lat="0" lon="0">
        <time>2020-12-20T10:30:48.990000+00:00</time>
      </trkpt>
      <trkpt lat="0" lon="0">
        <time>2020-12-20T10:30:48.993000+00:00</time>
      </trkpt>
      <trkpt lat="47.32897" lon="-1.35659">
        <ele>127</ele>
        <time>2020-12-20T10:30:49.982000+00:00</time>
      </trkpt>
      <trkpt lat="0" lon="0">
        <time>2020-12-20T10:30:49.995000+00:00</time>
      </trkpt>
      <trkpt lat="0" lon="0">
        <time>2020-12-20T10:30:50.001000+00:00</time>
      </trkpt>
      <trkpt lat="0" lon="0">
        <time>2020-12-20T10:30:50.004000+00:00</time>
      </trkpt>
      <trkpt lat="47.32896" lon="-1.35658">
        <ele>127</ele>
        <time>2020-12-20T10:30:50.966000+00:00</time>
      </trkpt>
      <trkpt lat="0" lon="0">
        <time>2020-12-20T10:30:50.981000+00:00</time>
      </trkpt>
      <trkpt lat="0" lon="0">
        <time>2020-12-20T10:30:50.992000+00:00</time>
      </trkpt>
      <trkpt lat="0" lon="0">
        <time>2020-12-20T10:30:50.995000+00:00</time>
      </trkpt>
      <trkpt lat="47.32894" lon="-1.35657">
        <ele>127</ele>
        <time>2020-12-20T10:30:51.987000+00:00</time>
      </trkpt>
      <trkpt lat="0" lon="0">
        <time>2020-12-20T10:30:52.004000+00:00</time>
      </trkpt>
      <trkpt lat="0" lon="0">
        <time>2020-12-20T10:30:52.010000+00:00</time>
      </trkpt>
      <trkpt lat="0" lon="0">
        <time>2020-12-20T10:30:52.014000+00:00</time>
      </trkpt>
      <trkpt lat="47.32892" lon="-1.35657">
        <ele>127</ele>
        <time>2020-12-20T10:30:52.970000+00:00</time>
      </trkpt>
      <trkpt lat="0" lon="0">
        <time>2020-12-20T10:30:52.978000+00:00</time>
      </trkpt>
      <trkpt lat="0" lon="0">
        <time>2020-12-20T10:30:52.980000+00:00</time>
      </trkpt>
      <trkpt lat="0" lon="0">
        <time>2020-12-20T10:30:52.982000+00:00</time>
      </trkpt>
      <trkpt lat="47.3289" lon="-1.35656">
        <ele>127</ele>
        <time>2020-12-20T10:30:53.975000+00:00</time>
      </trkpt>
      <trkpt lat="0" lon="0">
        <time>2020-12-20T10:30:53.985000+00:00</time>
      </trkpt>
      <trkpt lat="0" lon="0">
        <time>2020-12-20T10:30:53.995000+00:00</time>
      </trkpt>
      <trkpt lat="0" lon="0">
        <time>2020-12-20T10:30:53.999000+00:00</time>
      </trkpt>
      <trkpt lat="47.32888" lon="-1.35655">
        <ele>127</ele>
        <time>2020-12-20T10:30:54.987000+00:00</time>
      </trkpt>
      <trkpt lat="0" lon="0">
        <time>2020-12-20T10:30:54.991000+00:00</time>
      </trkpt>
      <trkpt lat="0" lon="0">
        <time>2020-12-20T10:30:55+00:00</time>
      </trkpt>
      <trkpt lat="0" lon="0">
        <time>2020-12-20T10:30:55.004000+00:00</time>
      </trkpt>
      <trkpt lat="47.32887" lon="-1.35654">
        <ele>127</ele>
        <time>2020-12-20T10:30:55.993000+00:00</time>
      </trkpt>
      <trkpt lat="0" lon="0">
        <time>2020-12-20T10:30:56.004000+00:00</time>
      </trkpt>
      <trkpt lat="0" lon="0">
        <time>2020-12-20T10:30:56.013000+00:00</time>
      </trkpt>
      <trkpt lat="0" lon="0">
        <time>2020-12-20T10:30:56.017000+00:00</time>
      </trkpt>
      <trkpt lat="47.32885" lon="-1.35653">
        <ele>127</ele>
        <time>2020-12-20T10:30:56.943000+00:00</time>
      </trkpt>
      <trkpt lat="0" lon="0">
        <time>2020-12-20T10:30:56.953000+00:00</time>
      </trkpt>
      <trkpt lat="0" lon="0">
        <time>2020-12-20T10:30:56.957000+00:00</time>
      </trkpt>
      <trkpt lat="0" lon="0">
        <time>2020-12-20T10:30:56.959000+00:00</time>
      </trkpt>
      <trkpt lat="47.32884" lon="-1.35652">
        <ele>128</ele>
        <time>2020-12-20T10:30:57.960000+00:00</time>
      </trkpt>
      <trkpt lat="0" lon="0">
        <time>2020-12-20T10:30:57.976000+00:00</time>
      </trkpt>
      <trkpt lat="0" lon="0">
        <time>2020-12-20T10:30:57.984000+00:00</time>
      </trkpt>
      <trkpt lat="0" lon="0">
        <time>2020-12-20T10:30:57.987000+00:00</time>
      </trkpt>
      <trkpt lat="47.32882" lon="-1.35651">
        <ele>128</ele>
        <time>2020-12-20T10:30:58.983000+00:00</time>
      </trkpt>
      <trkpt lat="0" lon="0">
        <time>2020-12-20T10:30:58.985000+00:00</time>
      </trkpt>
      <trkpt lat="0" lon="0">
        <time>2020-12-20T10:30:58.988000+00:00</time>
      </trkpt>
      <trkpt lat="0" lon="0">
        <time>2020-12-20T10:30:58.990000+00:00</time>
      </trkpt>
      <trkpt lat="47.3288" lon="-1.35649">
        <ele>128</ele>
        <time>2020-12-20T10:30:59.971000+00:00</time>
      </trkpt>
      <trkpt lat="0" lon="0">
        <time>2020-12-20T10:30:59.978000+00:00</time>
      </trkpt>
      <trkpt lat="0" lon="0">
        <time>2020-12-20T10:30:59.987000+00:00</time>
      </trkpt>
      <trkpt lat="0" lon="0">
        <time>2020-12-20T10:30:59.990000+00:00</time>
      </trkpt>
      <trkpt lat="47.32879" lon="-1.35648">
        <ele>128</ele>
        <time>2020-12-20T10:31:00.949000+00:00</time>
      </trkpt>
      <trkpt lat="0" lon="0">
        <time>2020-12-20T10:31:00.959000+00:00</time>
      </trkpt>
      <trkpt lat="0" lon="0">
        <time>2020-12-20T10:31:00.972000+00:00</time>
      </trkpt>
      <trkpt lat="0" lon="0">
        <time>2020-12-20T10:31:00.975000+00:00</time>
      </trkpt>
      <trkpt lat="47.32877" lon="-1.35647">
        <ele>129</ele>
        <time>2020-12-20T10:31:01.971000+00:00</time>
      </trkpt>
      <trkpt lat="0" lon="0">
        <time>2020-12-20T10:31:01.978000+00:00</time>
      </trkpt>
      <trkpt lat="0" lon="0">
        <time>2020-12-20T10:31:01.982000+00:00</time>
      </trkpt>
      <trkpt lat="0" lon="0">
        <time>2020-12-20T10:31:01.985000+00:00</time>
      </trkpt>
      <trkpt lat="47.32876" lon="-1.35646">
        <ele>129</ele>
        <time>2020-12-20T10:31:02.982000+00:00</time>
      </trkpt>
      <trkpt lat="0" lon="0">
        <time>2020-12-20T10:31:02.987000+00:00</time>
      </trkpt>
      <trkpt lat="0" lon="0">
        <time>2020-12-20T10:31:02.992000+00:00</time>
      </trkpt>
      <trkpt lat="0" lon="0">
        <time>2020-12-20T10:31:02.995000+00:00</time>
      </trkpt>
      <trkpt lat="47.32874" lon="-1.35645">
        <ele>130</ele>
        <time>2020-12-20T10:31:03.985000+00:00</time>
      </trkpt>
      <trkpt lat="0" lon="0">
        <time>2020-12-20T10:31:03.992000+00:00</time>
      </trkpt>
      <trkpt lat="0" lon="0">
        <time>2020-12-20T10:31:03.998000+00:00</time>
      </trkpt>
      <trkpt lat="0" lon="0">
        <time>2020-12-20T10:31:04+00:00</time>
      </trkpt>
      <trkpt lat="47.32873" lon="-1.35644">
        <ele>130</ele>
        <time>2020-12-20T10:31:04.979000+00:00</time>
      </trkpt>
      <trkpt lat="0" lon="0">
        <time>2020-12-20T10:31:04.985000+00:00</time>
      </trkpt>
      <trkpt lat="0" lon="0">
        <time>2020-12-20T10:31:04.987000+00:00</time>
      </trkpt>
      <trkpt lat="0" lon="0">
        <time>2020-12-20T10:31:04.988000+00:00</time>
      </trkpt>
      <trkpt lat="47.32871" lon="-1.35643">
        <ele>130</ele>
        <time>2020-12-20T10:31:05.986000+00:00</time>
      </trkpt>
      <trkpt lat="0" lon="0">
        <time>2020-12-20T10:31:05.992000+00:00</time>
      </trkpt>
      <trkpt lat="0" lon="0">
        <time>2020-12-20T10:31:05.996000+00:00</time>
      </trkpt>
      <trkpt lat="0" lon="0">
        <time>2020-12-20T10:31:06.002000+00:00</time>
      </trkpt>
      <trkpt lat="47.3287" lon="-1.35643">
        <ele>131</ele>
        <time>2020-12-20T10:31:06.970000+00:00</time>
      </trkpt>
      <trkpt lat="0" lon="0">
        <time>2020-12-20T10:31:06.986000+00:00</time>
      </trkpt>
      <trkpt lat="0" lon="0">
        <time>2020-12-20T10:31:06.994000+00:00</time>
      </trkpt>
      <trkpt lat="0" lon="0">
        <time>2020-12-20T10:31:06.997000+00:00</time>
      </trkpt>
      <trkpt lat="47.32869" lon="-1.35642">
        <ele>131</ele>
        <time>2020-12-20T10:31:07.953000+00:00</time>
      </trkpt>
      <trkpt lat="0" lon="0">
        <time>2020-12-20T10:31:07.960000+00:00</time>
      </trkpt>
      <trkpt lat="0" lon="0">
        <time>2020-12-20T10:31:07.964000+00:00</time>
      </trkpt>
      <trkpt lat="0" lon="0">
        <time>2020-12-20T10:31:07.966000+00:00</time>
      </trkpt>
      <trkpt lat="47.32867" lon="-1.35641">
        <ele>131</ele>
        <time>2020-12-20T10:31:08.959000+00:00</time>
      </trkpt>
      <trkpt lat="0" lon="0">
        <time>2020-12-20T10:31:08.967000+00:00</time>
      </trkpt>
      <trkpt lat="0" lon="0">
        <time>2020-12-20T10:31:08.975000+00:00</time>
      </trkpt>
      <trkpt lat="0" lon="0">
        <time>2020-12-20T10:31:08.980000+00:00</time>
      </trkpt>
      <trkpt lat="47.32866" lon="-1.3564">
        <ele>131</ele>
        <time>2020-12-20T10:31:09.979000+00:00</time>
      </trkpt>
      <trkpt lat="0" lon="0">
        <time>2020-12-20T10:31:09.984000+00:00</time>
      </trkpt>
      <trkpt lat="0" lon="0">
        <time>2020-12-20T10:31:09.988000+00:00</time>
      </trkpt>
      <trkpt lat="0" lon="0">
        <time>2020-12-20T10:31:09.990000+00:00</time>
      </trkpt>
      <trkpt lat="47.32864" lon="-1.35639">
        <ele>130</ele>
        <time>2020-12-20T10:31:10.970000+00:00</time>
      </trkpt>
      <trkpt lat="0" lon="0">
        <time>2020-12-20T10:31:10.972000+00:00</time>
      </trkpt>
      <trkpt lat="0" lon="0">
        <time>2020-12-20T10:31:10.974000+00:00</time>
      </trkpt>
      <trkpt lat="47.32863" lon="-1.35639">
        <ele>130</ele>
        <time>2020-12-20T10:31:11.988000+00:00</time>
      </trkpt>
      <trkpt lat="0" lon="0">
        <time>2020-12-20T10:31:11.998000+00:00</time>
      </trkpt>
      <trkpt lat="0" lon="0">
        <time>2020-12-20T10:31:12.005000+00:00</time>
      </trkpt>
      <trkpt lat="0" lon="0">
        <time>2020-12-20T10:31:12.007000+00:00</time>
      </trkpt>
      <trkpt lat="47.32861" lon="-1.35638">
        <ele>131</ele>
        <time>2020-12-20T10:31:12.964000+00:00</time>
      </trkpt>
      <trkpt lat="0" lon="0">
        <time>2020-12-20T10:31:12.974000+00:00</time>
      </trkpt>
      <trkpt lat="0" lon="0">
        <time>2020-12-20T10:31:12.985000+00:00</time>
      </trkpt>
      <trkpt lat="0" lon="0">
        <time>2020-12-20T10:31:12.987000+00:00</time>
      </trkpt>
      <trkpt lat="47.3286" lon="-1.35637">
        <ele>131</ele>
        <time>2020-12-20T10:31:13.962000+00:00</time>
      </trkpt>
      <trkpt lat="0" lon="0">
        <time>2020-12-20T10:31:13.975000+00:00</time>
      </trkpt>
      <trkpt lat="0" lon="0">
        <time>2020-12-20T10:31:13.987000+00:00</time>
      </trkpt>
      <trkpt lat="0" lon="0">
        <time>2020-12-20T10:31:13.989000+00:00</time>
      </trkpt>
      <trkpt lat="47.32859" lon="-1.35637">
        <ele>131</ele>
        <time>2020-12-20T10:31:14.930000+00:00</time>
      </trkpt>
      <trkpt lat="0" lon="0">
        <time>2020-12-20T10:31:14.942000+00:00</time>
      </trkpt>
      <trkpt lat="0" lon="0">
        <time>2020-12-20T10:31:14.949000+00:00</time>
      </trkpt>
      <trkpt lat="0" lon="0">
        <time>2020-12-20T10:31:14.954000+00:00</time>
      </trkpt>
      <trkpt lat="47.32858" lon="-1.35636">
        <ele>131</ele>
        <time>2020-12-20T10:31:15.990000+00:00</time>
      </trkpt>
      <trkpt lat="0" lon="0">
        <time>2020-12-20T10:31:15.999000+00:00</time>
      </trkpt>
      <trkpt lat="0" lon="0">
        <time>2020-12-20T10:31:16.003000+00:00</time>
      </trkpt>
      <trkpt lat="0" lon="0">
        <time>2020-12-20T10:31:16.005000+00:00</time>
      </trkpt>
      <trkpt lat="47.32858" lon="-1.35636">
        <ele>132</ele>
        <time>2020-12-20T10:31:16.983000+00:00</time>
      </trkpt>
      <trkpt lat="0" lon="0">
        <time>2020-12-20T10:31:16.997000+00:00</time>
      </trkpt>
      <trkpt lat="0" lon="0">
        <time>2020-12-20T10:31:17.001000+00:00</time>
      </trkpt>
      <trkpt lat="0" lon="0">
        <time>2020-12-20T10:31:17.004000+00:00</time>
      </trkpt>
      <trkpt lat="47.32857" lon="-1.35636">
        <ele>132</ele>
        <time>2020-12-20T10:31:17.992000+00:00</time>
      </trkpt>
      <trkpt lat="0" lon="0">
        <time>2020-12-20T10:31:18.002000+00:00</time>
      </trkpt>
      <trkpt lat="0" lon="0">
        <time>2020-12-20T10:31:18.007000+00:00</time>
      </trkpt>
      <trkpt lat="0" lon="0">
        <time>2020-12-20T10:31:18.011000+00:00</time>
      </trkpt>
      <trkpt lat="47.32856" lon="-1.35635">
        <ele>133</ele>
        <time>2020-12-20T10:31:18.968000+00:00</time>
      </trkpt>
      <trkpt lat="0" lon="0">
        <time>2020-12-20T10:31:18.974000+00:00</time>
      </trkpt>
      <trkpt lat="0" lon="0">
        <time>2020-12-20T10:31:18.979000+00:00</time>
      </trkpt>
      <trkpt lat="0" lon="0">
        <time>2020-12-20T10:31:18.982000+00:00</time>
      </trkpt>
      <trkpt lat="47.32855" lon="-1.35635">
        <ele>133</ele>
        <time>2020-12-20T10:31:19.964000+00:00</time>
      </trkpt>
      <trkpt lat="0" lon="0">
        <time>2020-12-20T10:31:19.979000+00:00</time>
      </trkpt>
      <trkpt lat="0" lon="0">
        <time>2020-12-20T10:31:19.983000+00:00</time>
      </trkpt>
      <trkpt lat="0" lon="0">
        <time>2020-12-20T10:31:19.986000+00:00</time>
      </trkpt>
      <trkpt lat="47.32853" lon="-1.35635">
        <ele>133</ele>
        <time>2020-12-20T10:31:20.991000+00:00</time>
      </trkpt>
      <trkpt lat="0" lon="0">
        <time>2020-12-20T10:31:21.001000+00:00</time>
      </trkpt>
      <trkpt lat="0" lon="0">
        <time>2020-12-20T10:31:21.008000+00:00</time>
      </trkpt>
      <trkpt lat="0" lon="0">
        <time>2020-12-20T10:31:21.013000+00:00</time>
      </trkpt>
      <trkpt lat="47.32852" lon="-1.35634">
        <ele>133</ele>
        <time>2020-12-20T10:31:21.982000+00:00</time>
      </trkpt>
      <trkpt lat="0" lon="0">
        <time>2020-12-20T10:31:21.991000+00:00</time>
      </trkpt>
      <trkpt lat="0" lon="0">
        <time>2020-12-20T10:31:21.998000+00:00</time>
      </trkpt>
      <trkpt lat="0" lon="0">
        <time>2020-12-20T10:31:22.004000+00:00</time>
      </trkpt>
      <trkpt lat="47.3285" lon="-1.35633">
        <ele>134</ele>
        <time>2020-12-20T10:31:22.948000+00:00</time>
      </trkpt>
      <trkpt lat="0" lon="0">
        <time>2020-12-20T10:31:22.954000+00:00</time>
      </trkpt>
      <trkpt lat="0" lon="0">
        <time>2020-12-20T10:31:22.959000+00:00</time>
      </trkpt>
      <trkpt lat="0" lon="0">
        <time>2020-12-20T10:31:22.964000+00:00</time>
      </trkpt>
      <trkpt lat="47.32848" lon="-1.35632">
        <ele>135</ele>
        <time>2020-12-20T10:31:23.984000+00:00</time>
      </trkpt>
      <trkpt lat="0" lon="0">
        <time>2020-12-20T10:31:23.996000+00:00</time>
      </trkpt>
      <trkpt lat="0" lon="0">
        <time>2020-12-20T10:31:24.001000+00:00</time>
      </trkpt>
      <trkpt lat="0" lon="0">
        <time>2020-12-20T10:31:24.005000+00:00</time>
      </trkpt>
      <trkpt lat="47.32846" lon="-1.35631">
        <ele>135</ele>
        <time>2020-12-20T10:31:24.983000+00:00</time>
      </trkpt>
      <trkpt lat="0" lon="0">
        <time>2020-12-20T10:31:24.992000+00:00</time>
      </trkpt>
      <trkpt lat="0" lon="0">
        <time>2020-12-20T10:31:24.996000+00:00</time>
      </trkpt>
      <trkpt lat="0" lon="0">
        <time>2020-12-20T10:31:24.999000+00:00</time>
      </trkpt>
      <trkpt lat="47.32844" lon="-1.3563">
        <ele>135</ele>
        <time>2020-12-20T10:31:26.015000+00:00</time>
      </trkpt>
      <trkpt lat="0" lon="0">
        <time>2020-12-20T10:31:26.024000+00:00</time>
      </trkpt>
      <trkpt lat="0" lon="0">
        <time>2020-12-20T10:31:26.028000+00:00</time>
      </trkpt>
      <trkpt lat="0" lon="0">
        <time>2020-12-20T10:31:26.031000+00:00</time>
      </trkpt>
      <trkpt lat="47.32841" lon="-1.35629">
        <ele>135</ele>
        <time>2020-12-20T10:31:26.944000+00:00</time>
      </trkpt>
      <trkpt lat="0" lon="0">
        <time>2020-12-20T10:31:26.954000+00:00</time>
      </trkpt>
      <trkpt lat="0" lon="0">
        <time>2020-12-20T10:31:26.956000+00:00</time>
      </trkpt>
      <trkpt lat="0" lon="0">
        <time>2020-12-20T10:31:26.957000+00:00</time>
      </trkpt>
      <trkpt lat="47.32839" lon="-1.35628">
        <ele>135</ele>
        <time>2020-12-20T10:31:27.990000+00:00</time>
      </trkpt>
      <trkpt lat="0" lon="0">
        <time>2020-12-20T10:31:28.002000+00:00</time>
      </trkpt>
      <trkpt lat="0" lon="0">
        <time>2020-12-20T10:31:28.008000+00:00</time>
      </trkpt>
      <trkpt lat="0" lon="0">
        <time>2020-12-20T10:31:28.010000+00:00</time>
      </trkpt>
      <trkpt lat="47.32837" lon="-1.35627">
        <ele>135</ele>
        <time>2020-12-20T10:31:28.961000+00:00</time>
      </trkpt>
      <trkpt lat="0" lon="0">
        <time>2020-12-20T10:31:28.970000+00:00</time>
      </trkpt>
      <trkpt lat="0" lon="0">
        <time>2020-12-20T10:31:28.981000+00:00</time>
      </trkpt>
      <trkpt lat="0" lon="0">
        <time>2020-12-20T10:31:28.983000+00:00</time>
      </trkpt>
      <trkpt lat="47.32834" lon="-1.35626">
        <ele>135</ele>
        <time>2020-12-20T10:31:29.987000+00:00</time>
      </trkpt>
      <trkpt lat="0" lon="0">
        <time>2020-12-20T10:31:29.991000+00:00</time>
      </trkpt>
      <trkpt lat="0" lon="0">
        <time>2020-12-20T10:31:29.997000+00:00</time>
      </trkpt>
      <trkpt lat="0" lon="0">
        <time>2020-12-20T10:31:29.999000+00:00</time>
      </trkpt>
      <trkpt lat="47.32831" lon="-1.35625">
        <ele>135</ele>
        <time>2020-12-20T10:31:30.963000+00:00</time>
      </trkpt>
      <trkpt lat="0" lon="0">
        <time>2020-12-20T10:31:30.980000+00:00</time>
      </trkpt>
      <trkpt lat="0" lon="0">
        <time>2020-12-20T10:31:30.984000+00:00</time>
      </trkpt>
      <trkpt lat="0" lon="0">
        <time>2020-12-20T10:31:30.987000+00:00</time>
      </trkpt>
      <trkpt lat="47.32829" lon="-1.35623">
        <ele>135</ele>
        <time>2020-12-20T10:31:31.965000+00:00</time>
      </trkpt>
      <trkpt lat="0" lon="0">
        <time>2020-12-20T10:31:31.976000+00:00</time>
      </trkpt>
      <trkpt lat="0" lon="0">
        <time>2020-12-20T10:31:31.984000+00:00</time>
      </trkpt>
      <trkpt lat="0" lon="0">
        <time>2020-12-20T10:31:31.987000+00:00</time>
      </trkpt>
      <trkpt lat="47.32826" lon="-1.35622">
        <ele>134</ele>
        <time>2020-12-20T10:31:32.888000+00:00</time>
      </trkpt>
      <trkpt lat="0" lon="0">
        <time>2020-12-20T10:31:32.892000+00:00</time>
      </trkpt>
      <trkpt lat="0" lon="0">
        <time>2020-12-20T10:31:32.895000+00:00</time>
      </trkpt>
      <trkpt lat="47.32823" lon="-1.35621">
        <ele>135</ele>
        <time>2020-12-20T10:31:33.922000+00:00</time>
      </trkpt>
      <trkpt lat="0" lon="0">
        <time>2020-12-20T10:31:33.928000+00:00</time>
      </trkpt>
      <trkpt lat="0" lon="0">
        <time>2020-12-20T10:31:33.932000+00:00</time>
      </trkpt>
      <trkpt lat="0" lon="0">
        <time>2020-12-20T10:31:33.934000+00:00</time>
      </trkpt>
      <trkpt lat="47.32821" lon="-1.3562">
        <ele>135</ele>
        <time>2020-12-20T10:31:34.986000+00:00</time>
      </trkpt>
      <trkpt lat="0" lon="0">
        <time>2020-12-20T10:31:34.996000+00:00</time>
      </trkpt>
      <trkpt lat="0" lon="0">
        <time>2020-12-20T10:31:35+00:00</time>
      </trkpt>
      <trkpt lat="0" lon="0">
        <time>2020-12-20T10:31:35.004000+00:00</time>
      </trkpt>
      <trkpt lat="47.32818" lon="-1.35619">
        <ele>135</ele>
        <time>2020-12-20T10:31:35.969000+00:00</time>
      </trkpt>
      <trkpt lat="0" lon="0">
        <time>2020-12-20T10:31:35.983000+00:00</time>
      </trkpt>
      <trkpt lat="0" lon="0">
        <time>2020-12-20T10:31:35.993000+00:00</time>
      </trkpt>
      <trkpt lat="0" lon="0">
        <time>2020-12-20T10:31:35.995000+00:00</time>
      </trkpt>
      <trkpt lat="47.32815" lon="-1.35617">
        <ele>135</ele>
        <time>2020-12-20T10:31:36.947000+00:00</time>
      </trkpt>
      <trkpt lat="0" lon="0">
        <time>2020-12-20T10:31:36.954000+00:00</time>
      </trkpt>
      <trkpt lat="0" lon="0">
        <time>2020-12-20T10:31:36.959000+00:00</time>
      </trkpt>
      <trkpt lat="0" lon="0">
        <time>2020-12-20T10:31:36.964000+00:00</time>
      </trkpt>
      <trkpt lat="47.32813" lon="-1.35616">
        <ele>136</ele>
        <time>2020-12-20T10:31:38.028000+00:00</time>
      </trkpt>
      <trkpt lat="0" lon="0">
        <time>2020-12-20T10:31:38.049000+00:00</time>
      </trkpt>
      <trkpt lat="0" lon="0">
        <time>2020-12-20T10:31:38.065000+00:00</time>
      </trkpt>
      <trkpt lat="0" lon="0">
        <time>2020-12-20T10:31:38.066000+00:00</time>
      </trkpt>
      <trkpt lat="47.32811" lon="-1.35615">
        <ele>136</ele>
        <time>2020-12-20T10:31:39.015000+00:00</time>
      </trkpt>
      <trkpt lat="0" lon="0">
        <time>2020-12-20T10:31:39.029000+00:00</time>
      </trkpt>
      <trkpt lat="0" lon="0">
        <time>2020-12-20T10:31:39.040000+00:00</time>
      </trkpt>
      <trkpt lat="0" lon="0">
        <time>2020-12-20T10:31:39.042000+00:00</time>
      </trkpt>
      <trkpt lat="47.32809" lon="-1.35613">
        <ele>136</ele>
        <time>2020-12-20T10:31:39.983000+00:00</time>
      </trkpt>
      <trkpt lat="0" lon="0">
        <time>2020-12-20T10:31:39.993000+00:00</time>
      </trkpt>
      <trkpt lat="0" lon="0">
        <time>2020-12-20T10:31:39.999000+00:00</time>
      </trkpt>
      <trkpt lat="0" lon="0">
        <time>2020-12-20T10:31:40.001000+00:00</time>
      </trkpt>
      <trkpt lat="47.32807" lon="-1.35612">
        <ele>137</ele>
        <time>2020-12-20T10:31:40.973000+00:00</time>
      </trkpt>
      <trkpt lat="0" lon="0">
        <time>2020-12-20T10:31:40.985000+00:00</time>
      </trkpt>
      <trkpt lat="0" lon="0">
        <time>2020-12-20T10:31:40.990000+00:00</time>
      </trkpt>
      <trkpt lat="0" lon="0">
        <time>2020-12-20T10:31:40.993000+00:00</time>
      </trkpt>
      <trkpt lat="47.32805" lon="-1.35611">
        <ele>136</ele>
        <time>2020-12-20T10:31:41.975000+00:00</time>
      </trkpt>
      <trkpt lat="0" lon="0">
        <time>2020-12-20T10:31:41.986000+00:00</time>
      </trkpt>
      <trkpt lat="0" lon="0">
        <time>2020-12-20T10:31:41.991000+00:00</time>
      </trkpt>
      <trkpt lat="0" lon="0">
        <time>2020-12-20T10:31:41.993000+00:00</time>
      </trkpt>
      <trkpt lat="47.32804" lon="-1.3561">
        <ele>136</ele>
        <time>2020-12-20T10:31:42.952000+00:00</time>
      </trkpt>
      <trkpt lat="0" lon="0">
        <time>2020-12-20T10:31:42.962000+00:00</time>
      </trkpt>
      <trkpt lat="0" lon="0">
        <time>2020-12-20T10:31:42.966000+00:00</time>
      </trkpt>
      <trkpt lat="0" lon="0">
        <time>2020-12-20T10:31:42.968000+00:00</time>
      </trkpt>
      <trkpt lat="47.32802" lon="-1.3561">
        <ele>136</ele>
        <time>2020-12-20T10:31:43.984000+00:00</time>
      </trkpt>
      <trkpt lat="0" lon="0">
        <time>2020-12-20T10:31:43.997000+00:00</time>
      </trkpt>
      <trkpt lat="0" lon="0">
        <time>2020-12-20T10:31:44.003000+00:00</time>
      </trkpt>
      <trkpt lat="0" lon="0">
        <time>2020-12-20T10:31:44.006000+00:00</time>
      </trkpt>
      <trkpt lat="47.328" lon="-1.35609">
        <ele>135</ele>
        <time>2020-12-20T10:31:44.977000+00:00</time>
      </trkpt>
      <trkpt lat="0" lon="0">
        <time>2020-12-20T10:31:44.983000+00:00</time>
      </trkpt>
      <trkpt lat="0" lon="0">
        <time>2020-12-20T10:31:44.991000+00:00</time>
      </trkpt>
      <trkpt lat="0" lon="0">
        <time>2020-12-20T10:31:44.994000+00:00</time>
      </trkpt>
      <trkpt lat="47.32798" lon="-1.35609">
        <ele>134</ele>
        <time>2020-12-20T10:31:45.980000+00:00</time>
      </trkpt>
      <trkpt lat="0" lon="0">
        <time>2020-12-20T10:31:45.989000+00:00</time>
      </trkpt>
      <trkpt lat="0" lon="0">
        <time>2020-12-20T10:31:45.994000+00:00</time>
      </trkpt>
      <trkpt lat="0" lon="0">
        <time>2020-12-20T10:31:46.002000+00:00</time>
      </trkpt>
      <trkpt lat="47.32795" lon="-1.35608">
        <ele>133</ele>
        <time>2020-12-20T10:31:46.955000+00:00</time>
      </trkpt>
      <trkpt lat="0" lon="0">
        <time>2020-12-20T10:31:46.967000+00:00</time>
      </trkpt>
      <trkpt lat="0" lon="0">
        <time>2020-12-20T10:31:46.974000+00:00</time>
      </trkpt>
      <trkpt lat="0" lon="0">
        <time>2020-12-20T10:31:46.978000+00:00</time>
      </trkpt>
      <trkpt lat="47.32792" lon="-1.35607">
        <ele>133</ele>
        <time>2020-12-20T10:31:47.982000+00:00</time>
      </trkpt>
      <trkpt lat="0" lon="0">
        <time>2020-12-20T10:31:47.988000+00:00</time>
      </trkpt>
      <trkpt lat="0" lon="0">
        <time>2020-12-20T10:31:47.999000+00:00</time>
      </trkpt>
      <trkpt lat="0" lon="0">
        <time>2020-12-20T10:31:48.003000+00:00</time>
      </trkpt>
      <trkpt lat="47.32789" lon="-1.35606">
        <ele>133</ele>
        <time>2020-12-20T10:31:48.983000+00:00</time>
      </trkpt>
      <trkpt lat="0" lon="0">
        <time>2020-12-20T10:31:48.988000+00:00</time>
      </trkpt>
      <trkpt lat="0" lon="0">
        <time>2020-12-20T10:31:48.989000+00:00</time>
      </trkpt>
      <trkpt lat="47.32786" lon="-1.35604">
        <ele>133</ele>
        <time>2020-12-20T10:31:49.989000+00:00</time>
      </trkpt>
      <trkpt lat="0" lon="0">
        <time>2020-12-20T10:31:49.993000+00:00</time>
      </trkpt>
      <trkpt lat="0" lon="0">
        <time>2020-12-20T10:31:49.999000+00:00</time>
      </trkpt>
      <trkpt lat="0" lon="0">
        <time>2020-12-20T10:31:50.009000+00:00</time>
      </trkpt>
      <trkpt lat="47.32783" lon="-1.35603">
        <ele>133</ele>
        <time>2020-12-20T10:31:50.996000+00:00</time>
      </trkpt>
      <trkpt lat="0" lon="0">
        <time>2020-12-20T10:31:51+00:00</time>
      </trkpt>
      <trkpt lat="0" lon="0">
        <time>2020-12-20T10:31:51.004000+00:00</time>
      </trkpt>
      <trkpt lat="0" lon="0">
        <time>2020-12-20T10:31:51.006000+00:00</time>
      </trkpt>
      <trkpt lat="47.32779" lon="-1.35601">
        <ele>134</ele>
        <time>2020-12-20T10:31:51.970000+00:00</time>
      </trkpt>
      <trkpt lat="0" lon="0">
        <time>2020-12-20T10:31:51.978000+00:00</time>
      </trkpt>
      <trkpt lat="0" lon="0">
        <time>2020-12-20T10:31:51.983000+00:00</time>
      </trkpt>
      <trkpt lat="0" lon="0">
        <time>2020-12-20T10:31:51.985000+00:00</time>
      </trkpt>
      <trkpt lat="47.32776" lon="-1.35599">
        <ele>134</ele>
        <time>2020-12-20T10:31:52.988000+00:00</time>
      </trkpt>
      <trkpt lat="0" lon="0">
        <time>2020-12-20T10:31:52.997000+00:00</time>
      </trkpt>
      <trkpt lat="0" lon="0">
        <time>2020-12-20T10:31:53.001000+00:00</time>
      </trkpt>
      <trkpt lat="0" lon="0">
        <time>2020-12-20T10:31:53.003000+00:00</time>
      </trkpt>
      <trkpt lat="47.32773" lon="-1.35598">
        <ele>133</ele>
        <time>2020-12-20T10:31:53.974000+00:00</time>
      </trkpt>
      <trkpt lat="0" lon="0">
        <time>2020-12-20T10:31:53.984000+00:00</time>
      </trkpt>
      <trkpt lat="0" lon="0">
        <time>2020-12-20T10:31:53.988000+00:00</time>
      </trkpt>
      <trkpt lat="0" lon="0">
        <time>2020-12-20T10:31:53.993000+00:00</time>
      </trkpt>
      <trkpt lat="47.3277" lon="-1.35596">
        <ele>133</ele>
        <time>2020-12-20T10:31:54.964000+00:00</time>
      </trkpt>
      <trkpt lat="0" lon="0">
        <time>2020-12-20T10:31:54.982000+00:00</time>
      </trkpt>
      <trkpt lat="0" lon="0">
        <time>2020-12-20T10:31:54.987000+00:00</time>
      </trkpt>
      <trkpt lat="0" lon="0">
        <time>2020-12-20T10:31:54.988000+00:00</time>
      </trkpt>
      <trkpt lat="47.32767" lon="-1.35593">
        <ele>133</ele>
        <time>2020-12-20T10:31:55.929000+00:00</time>
      </trkpt>
      <trkpt lat="0" lon="0">
        <time>2020-12-20T10:31:55.939000+00:00</time>
      </trkpt>
      <trkpt lat="0" lon="0">
        <time>2020-12-20T10:31:55.942000+00:00</time>
      </trkpt>
      <trkpt lat="0" lon="0">
        <time>2020-12-20T10:31:55.944000+00:00</time>
      </trkpt>
      <trkpt lat="47.32764" lon="-1.35591">
        <ele>132</ele>
        <time>2020-12-20T10:31:56.954000+00:00</time>
      </trkpt>
      <trkpt lat="0" lon="0">
        <time>2020-12-20T10:31:56.970000+00:00</time>
      </trkpt>
      <trkpt lat="0" lon="0">
        <time>2020-12-20T10:31:56.977000+00:00</time>
      </trkpt>
      <trkpt lat="0" lon="0">
        <time>2020-12-20T10:31:56.981000+00:00</time>
      </trkpt>
      <trkpt lat="47.32761" lon="-1.35589">
        <ele>133</ele>
        <time>2020-12-20T10:31:58.003000+00:00</time>
      </trkpt>
      <trkpt lat="0" lon="0">
        <time>2020-12-20T10:31:58.011000+00:00</time>
      </trkpt>
      <trkpt lat="0" lon="0">
        <time>2020-12-20T10:31:58.016000+00:00</time>
      </trkpt>
      <trkpt lat="0" lon="0">
        <time>2020-12-20T10:31:58.019000+00:00</time>
      </trkpt>
      <trkpt lat="47.32758" lon="-1.35586">
        <ele>132</ele>
        <time>2020-12-20T10:31:58.990000+00:00</time>
      </trkpt>
      <trkpt lat="0" lon="0">
        <time>2020-12-20T10:31:59.003000+00:00</time>
      </trkpt>
      <trkpt lat="0" lon="0">
        <time>2020-12-20T10:31:59.007000+00:00</time>
      </trkpt>
      <trkpt lat="0" lon="0">
        <time>2020-12-20T10:31:59.009000+00:00</time>
      </trkpt>
      <trkpt lat="47.32755" lon="-1.35584">
        <ele>132</ele>
        <time>2020-12-20T10:31:59.962000+00:00</time>
      </trkpt>
      <trkpt lat="0" lon="0">
        <time>2020-12-20T10:31:59.972000+00:00</time>
      </trkpt>
      <trkpt lat="0" lon="0">
        <time>2020-12-20T10:31:59.976000+00:00</time>
      </trkpt>
      <trkpt lat="0" lon="0">
        <time>2020-12-20T10:31:59.978000+00:00</time>
      </trkpt>
      <trkpt lat="47.32752" lon="-1.35581">
        <ele>132</ele>
        <time>2020-12-20T10:32:00.934000+00:00</time>
      </trkpt>
      <trkpt lat="0" lon="0">
        <time>2020-12-20T10:32:00.951000+00:00</time>
      </trkpt>
      <trkpt lat="0" lon="0">
        <time>2020-12-20T10:32:00.954000+00:00</time>
      </trkpt>
      <trkpt lat="0" lon="0">
        <time>2020-12-20T10:32:00.956000+00:00</time>
      </trkpt>
      <trkpt lat="47.3275" lon="-1.35578">
        <ele>132</ele>
        <time>2020-12-20T10:32:01.976000+00:00</time>
      </trkpt>
      <trkpt lat="0" lon="0">
        <time>2020-12-20T10:32:01.981000+00:00</time>
      </trkpt>
      <trkpt lat="0" lon="0">
        <time>2020-12-20T10:32:01.986000+00:00</time>
      </trkpt>
      <trkpt lat="0" lon="0">
        <time>2020-12-20T10:32:01.989000+00:00</time>
      </trkpt>
      <trkpt lat="47.32747" lon="-1.35576">
        <ele>132</ele>
        <time>2020-12-20T10:32:02.972000+00:00</time>
      </trkpt>
      <trkpt lat="0" lon="0">
        <time>2020-12-20T10:32:02.981000+00:00</time>
      </trkpt>
      <trkpt lat="0" lon="0">
        <time>2020-12-20T10:32:02.988000+00:00</time>
      </trkpt>
      <trkpt lat="0" lon="0">
        <time>2020-12-20T10:32:02.991000+00:00</time>
      </trkpt>
      <trkpt lat="47.32744" lon="-1.35573">
        <ele>132</ele>
        <time>2020-12-20T10:32:03.940000+00:00</time>
      </trkpt>
      <trkpt lat="0" lon="0">
        <time>2020-12-20T10:32:03.961000+00:00</time>
      </trkpt>
      <trkpt lat="0" lon="0">
        <time>2020-12-20T10:32:03.965000+00:00</time>
      </trkpt>
      <trkpt lat="0" lon="0">
        <time>2020-12-20T10:32:03.968000+00:00</time>
      </trkpt>
      <trkpt lat="47.32742" lon="-1.3557">
        <ele>132</ele>
        <time>2020-12-20T10:32:04.973000+00:00</time>
      </trkpt>
      <trkpt lat="0" lon="0">
        <time>2020-12-20T10:32:04.985000+00:00</time>
      </trkpt>
      <trkpt lat="0" lon="0">
        <time>2020-12-20T10:32:04.990000+00:00</time>
      </trkpt>
      <trkpt lat="0" lon="0">
        <time>2020-12-20T10:32:04.992000+00:00</time>
      </trkpt>
      <trkpt lat="47.3274" lon="-1.35567">
        <ele>132</ele>
        <time>2020-12-20T10:32:05.988000+00:00</time>
      </trkpt>
      <trkpt lat="0" lon="0">
        <time>2020-12-20T10:32:05.991000+00:00</time>
      </trkpt>
      <trkpt lat="0" lon="0">
        <time>2020-12-20T10:32:05.998000+00:00</time>
      </trkpt>
      <trkpt lat="0" lon="0">
        <time>2020-12-20T10:32:06+00:00</time>
      </trkpt>
      <trkpt lat="47.32737" lon="-1.35564">
        <ele>132</ele>
        <time>2020-12-20T10:32:06.956000+00:00</time>
      </trkpt>
      <trkpt lat="0" lon="0">
        <time>2020-12-20T10:32:06.962000+00:00</time>
      </trkpt>
      <trkpt lat="0" lon="0">
        <time>2020-12-20T10:32:06.966000+00:00</time>
      </trkpt>
      <trkpt lat="0" lon="0">
        <time>2020-12-20T10:32:06.968000+00:00</time>
      </trkpt>
      <trkpt lat="47.32735" lon="-1.35562">
        <ele>131</ele>
        <time>2020-12-20T10:32:07.913000+00:00</time>
      </trkpt>
      <trkpt lat="0" lon="0">
        <time>2020-12-20T10:32:07.916000+00:00</time>
      </trkpt>
      <trkpt lat="0" lon="0">
        <time>2020-12-20T10:32:07.921000+00:00</time>
      </trkpt>
      <trkpt lat="0" lon="0">
        <time>2020-12-20T10:32:07.923000+00:00</time>
      </trkpt>
      <trkpt lat="47.32733" lon="-1.35559">
        <ele>131</ele>
        <time>2020-12-20T10:32:08.988000+00:00</time>
      </trkpt>
      <trkpt lat="0" lon="0">
        <time>2020-12-20T10:32:09.006000+00:00</time>
      </trkpt>
      <trkpt lat="0" lon="0">
        <time>2020-12-20T10:32:09.014000+00:00</time>
      </trkpt>
      <trkpt lat="0" lon="0">
        <time>2020-12-20T10:32:09.016000+00:00</time>
      </trkpt>
      <trkpt lat="47.32731" lon="-1.35557">
        <ele>131</ele>
        <time>2020-12-20T10:32:09.967000+00:00</time>
      </trkpt>
      <trkpt lat="0" lon="0">
        <time>2020-12-20T10:32:09.981000+00:00</time>
      </trkpt>
      <trkpt lat="0" lon="0">
        <time>2020-12-20T10:32:09.988000+00:00</time>
      </trkpt>
      <trkpt lat="0" lon="0">
        <time>2020-12-20T10:32:09.991000+00:00</time>
      </trkpt>
      <trkpt lat="47.32729" lon="-1.35554">
        <ele>131</ele>
        <time>2020-12-20T10:32:10.980000+00:00</time>
      </trkpt>
      <trkpt lat="0" lon="0">
        <time>2020-12-20T10:32:10.992000+00:00</time>
      </trkpt>
      <trkpt lat="0" lon="0">
        <time>2020-12-20T10:32:10.997000+00:00</time>
      </trkpt>
      <trkpt lat="0" lon="0">
        <time>2020-12-20T10:32:11.001000+00:00</time>
      </trkpt>
      <trkpt lat="47.32727" lon="-1.35551">
        <ele>131</ele>
        <time>2020-12-20T10:32:11.983000+00:00</time>
      </trkpt>
      <trkpt lat="0" lon="0">
        <time>2020-12-20T10:32:11.989000+00:00</time>
      </trkpt>
      <trkpt lat="0" lon="0">
        <time>2020-12-20T10:32:11.992000+00:00</time>
      </trkpt>
      <trkpt lat="0" lon="0">
        <time>2020-12-20T10:32:11.993000+00:00</time>
      </trkpt>
      <trkpt lat="47.32725" lon="-1.35549">
        <ele>131</ele>
        <time>2020-12-20T10:32:12.982000+00:00</time>
      </trkpt>
      <trkpt lat="0" lon="0">
        <time>2020-12-20T10:32:12.995000+00:00</time>
      </trkpt>
      <trkpt lat="0" lon="0">
        <time>2020-12-20T10:32:13+00:00</time>
      </trkpt>
      <trkpt lat="0" lon="0">
        <time>2020-12-20T10:32:13.003000+00:00</time>
      </trkpt>
      <trkpt lat="47.32723" lon="-1.35546">
        <ele>131</ele>
        <time>2020-12-20T10:32:13.965000+00:00</time>
      </trkpt>
      <trkpt lat="0" lon="0">
        <time>2020-12-20T10:32:13.973000+00:00</time>
      </trkpt>
      <trkpt lat="0" lon="0">
        <time>2020-12-20T10:32:13.979000+00:00</time>
      </trkpt>
      <trkpt lat="0" lon="0">
        <time>2020-12-20T10:32:13.981000+00:00</time>
      </trkpt>
      <trkpt lat="47.32721" lon="-1.35543">
        <ele>131</ele>
        <time>2020-12-20T10:32:14.963000+00:00</time>
      </trkpt>
      <trkpt lat="0" lon="0">
        <time>2020-12-20T10:32:14.985000+00:00</time>
      </trkpt>
      <trkpt lat="0" lon="0">
        <time>2020-12-20T10:32:14.989000+00:00</time>
      </trkpt>
      <trkpt lat="0" lon="0">
        <time>2020-12-20T10:32:14.996000+00:00</time>
      </trkpt>
      <trkpt lat="47.32719" lon="-1.3554">
        <ele>131</ele>
        <time>2020-12-20T10:32:15.962000+00:00</time>
      </trkpt>
      <trkpt lat="0" lon="0">
        <time>2020-12-20T10:32:15.975000+00:00</time>
      </trkpt>
      <trkpt lat="0" lon="0">
        <time>2020-12-20T10:32:15.982000+00:00</time>
      </trkpt>
      <trkpt lat="0" lon="0">
        <time>2020-12-20T10:32:15.985000+00:00</time>
      </trkpt>
      <trkpt lat="47.32717" lon="-1.35538">
        <ele>131</ele>
        <time>2020-12-20T10:32:16.964000+00:00</time>
      </trkpt>
      <trkpt lat="0" lon="0">
        <time>2020-12-20T10:32:16.974000+00:00</time>
      </trkpt>
      <trkpt lat="0" lon="0">
        <time>2020-12-20T10:32:16.982000+00:00</time>
      </trkpt>
      <trkpt lat="0" lon="0">
        <time>2020-12-20T10:32:16.984000+00:00</time>
      </trkpt>
      <trkpt lat="47.32715" lon="-1.35535">
        <ele>132</ele>
        <time>2020-12-20T10:32:17.999000+00:00</time>
      </trkpt>
      <trkpt lat="0" lon="0">
        <time>2020-12-20T10:32:18.006000+00:00</time>
      </trkpt>
      <trkpt lat="0" lon="0">
        <time>2020-12-20T10:32:18.018000+00:00</time>
      </trkpt>
      <trkpt lat="0" lon="0">
        <time>2020-12-20T10:32:18.019000+00:00</time>
      </trkpt>
      <trkpt lat="47.32713" lon="-1.35533">
        <ele>132</ele>
        <time>2020-12-20T10:32:18.966000+00:00</time>
      </trkpt>
      <trkpt lat="0" lon="0">
        <time>2020-12-20T10:32:18.976000+00:00</time>
      </trkpt>
      <trkpt lat="0" lon="0">
        <time>2020-12-20T10:32:18.980000+00:00</time>
      </trkpt>
      <trkpt lat="0" lon="0">
        <time>2020-12-20T10:32:18.983000+00:00</time>
      </trkpt>
      <trkpt lat="47.32711" lon="-1.3553">
        <ele>132</ele>
        <time>2020-12-20T10:32:19.991000+00:00</time>
      </trkpt>
      <trkpt lat="0" lon="0">
        <time>2020-12-20T10:32:20+00:00</time>
      </trkpt>
      <trkpt lat="0" lon="0">
        <time>2020-12-20T10:32:20.013000+00:00</time>
      </trkpt>
      <trkpt lat="0" lon="0">
        <time>2020-12-20T10:32:20.015000+00:00</time>
      </trkpt>
      <trkpt lat="47.32709" lon="-1.35527">
        <ele>133</ele>
        <time>2020-12-20T10:32:20.961000+00:00</time>
      </trkpt>
      <trkpt lat="0" lon="0">
        <time>2020-12-20T10:32:20.967000+00:00</time>
      </trkpt>
      <trkpt lat="0" lon="0">
        <time>2020-12-20T10:32:20.982000+00:00</time>
      </trkpt>
      <trkpt lat="0" lon="0">
        <time>2020-12-20T10:32:20.984000+00:00</time>
      </trkpt>
      <trkpt lat="47.32707" lon="-1.35525">
        <ele>133</ele>
        <time>2020-12-20T10:32:21.971000+00:00</time>
      </trkpt>
      <trkpt lat="0" lon="0">
        <time>2020-12-20T10:32:21.983000+00:00</time>
      </trkpt>
      <trkpt lat="0" lon="0">
        <time>2020-12-20T10:32:21.987000+00:00</time>
      </trkpt>
      <trkpt lat="0" lon="0">
        <time>2020-12-20T10:32:21.993000+00:00</time>
      </trkpt>
      <trkpt lat="47.32705" lon="-1.35522">
        <ele>133</ele>
        <time>2020-12-20T10:32:22.898000+00:00</time>
      </trkpt>
      <trkpt lat="0" lon="0">
        <time>2020-12-20T10:32:22.905000+00:00</time>
      </trkpt>
      <trkpt lat="0" lon="0">
        <time>2020-12-20T10:32:22.913000+00:00</time>
      </trkpt>
      <trkpt lat="0" lon="0">
        <time>2020-12-20T10:32:22.918000+00:00</time>
      </trkpt>
      <trkpt lat="47.32703" lon="-1.35519">
        <ele>133</ele>
        <time>2020-12-20T10:32:23.950000+00:00</time>
      </trkpt>
      <trkpt lat="0" lon="0">
        <time>2020-12-20T10:32:23.955000+00:00</time>
      </trkpt>
      <trkpt lat="0" lon="0">
        <time>2020-12-20T10:32:23.958000+00:00</time>
      </trkpt>
      <trkpt lat="0" lon="0">
        <time>2020-12-20T10:32:23.970000+00:00</time>
      </trkpt>
      <trkpt lat="47.32701" lon="-1.35516">
        <ele>133</ele>
        <time>2020-12-20T10:32:24.948000+00:00</time>
      </trkpt>
      <trkpt lat="0" lon="0">
        <time>2020-12-20T10:32:24.963000+00:00</time>
      </trkpt>
      <trkpt lat="0" lon="0">
        <time>2020-12-20T10:32:24.968000+00:00</time>
      </trkpt>
      <trkpt lat="0" lon="0">
        <time>2020-12-20T10:32:24.971000+00:00</time>
      </trkpt>
      <trkpt lat="47.32699" lon="-1.35513">
        <ele>134</ele>
        <time>2020-12-20T10:32:25.937000+00:00</time>
      </trkpt>
      <trkpt lat="0" lon="0">
        <time>2020-12-20T10:32:25.957000+00:00</time>
      </trkpt>
      <trkpt lat="0" lon="0">
        <time>2020-12-20T10:32:25.968000+00:00</time>
      </trkpt>
      <trkpt lat="0" lon="0">
        <time>2020-12-20T10:32:25.970000+00:00</time>
      </trkpt>
      <trkpt lat="47.32697" lon="-1.3551">
        <ele>134</ele>
        <time>2020-12-20T10:32:26.979000+00:00</time>
      </trkpt>
      <trkpt lat="0" lon="0">
        <time>2020-12-20T10:32:26.984000+00:00</time>
      </trkpt>
      <trkpt lat="0" lon="0">
        <time>2020-12-20T10:32:26.989000+00:00</time>
      </trkpt>
      <trkpt lat="0" lon="0">
        <time>2020-12-20T10:32:26.993000+00:00</time>
      </trkpt>
      <trkpt lat="47.32695" lon="-1.35507">
        <ele>134</ele>
        <time>2020-12-20T10:32:27.957000+00:00</time>
      </trkpt>
      <trkpt lat="0" lon="0">
        <time>2020-12-20T10:32:27.965000+00:00</time>
      </trkpt>
      <trkpt lat="0" lon="0">
        <time>2020-12-20T10:32:27.969000+00:00</time>
      </trkpt>
      <trkpt lat="0" lon="0">
        <time>2020-12-20T10:32:27.975000+00:00</time>
      </trkpt>
      <trkpt lat="47.32693" lon="-1.35504">
        <ele>133</ele>
        <time>2020-12-20T10:32:28.997000+00:00</time>
      </trkpt>
      <trkpt lat="0" lon="0">
        <time>2020-12-20T10:32:29.004000+00:00</time>
      </trkpt>
      <trkpt lat="0" lon="0">
        <time>2020-12-20T10:32:29.008000+00:00</time>
      </trkpt>
      <trkpt lat="0" lon="0">
        <time>2020-12-20T10:32:29.013000+00:00</time>
      </trkpt>
      <trkpt lat="47.3269" lon="-1.35501">
        <ele>133</ele>
        <time>2020-12-20T10:32:29.946000+00:00</time>
      </trkpt>
      <trkpt lat="0" lon="0">
        <time>2020-12-20T10:32:29.955000+00:00</time>
      </trkpt>
      <trkpt lat="0" lon="0">
        <time>2020-12-20T10:32:29.964000+00:00</time>
      </trkpt>
      <trkpt lat="0" lon="0">
        <time>2020-12-20T10:32:29.967000+00:00</time>
      </trkpt>
      <trkpt lat="47.32688" lon="-1.35498">
        <ele>133</ele>
        <time>2020-12-20T10:32:30.967000+00:00</time>
      </trkpt>
      <trkpt lat="0" lon="0">
        <time>2020-12-20T10:32:30.977000+00:00</time>
      </trkpt>
      <trkpt lat="0" lon="0">
        <time>2020-12-20T10:32:30.987000+00:00</time>
      </trkpt>
      <trkpt lat="0" lon="0">
        <time>2020-12-20T10:32:30.992000+00:00</time>
      </trkpt>
      <trkpt lat="47.32686" lon="-1.35494">
        <ele>133</ele>
        <time>2020-12-20T10:32:31.992000+00:00</time>
      </trkpt>
      <trkpt lat="0" lon="0">
        <time>2020-12-20T10:32:31.999000+00:00</time>
      </trkpt>
      <trkpt lat="0" lon="0">
        <time>2020-12-20T10:32:32.003000+00:00</time>
      </trkpt>
      <trkpt lat="0" lon="0">
        <time>2020-12-20T10:32:32.008000+00:00</time>
      </trkpt>
      <trkpt lat="47.32683" lon="-1.35491">
        <ele>134</ele>
        <time>2020-12-20T10:32:32.974000+00:00</time>
      </trkpt>
      <trkpt lat="0" lon="0">
        <time>2020-12-20T10:32:32.979000+00:00</time>
      </trkpt>
      <trkpt lat="0" lon="0">
        <time>2020-12-20T10:32:32.984000+00:00</time>
      </trkpt>
      <trkpt lat="0" lon="0">
        <time>2020-12-20T10:32:32.986000+00:00</time>
      </trkpt>
      <trkpt lat="47.3268" lon="-1.35487">
        <ele>135</ele>
        <time>2020-12-20T10:32:33.987000+00:00</time>
      </trkpt>
      <trkpt lat="0" lon="0">
        <time>2020-12-20T10:32:33.996000+00:00</time>
      </trkpt>
      <trkpt lat="0" lon="0">
        <time>2020-12-20T10:32:34.002000+00:00</time>
      </trkpt>
      <trkpt lat="0" lon="0">
        <time>2020-12-20T10:32:34.004000+00:00</time>
      </trkpt>
      <trkpt lat="47.32677" lon="-1.35483">
        <ele>135</ele>
        <time>2020-12-20T10:32:34.972000+00:00</time>
      </trkpt>
      <trkpt lat="0" lon="0">
        <time>2020-12-20T10:32:34.981000+00:00</time>
      </trkpt>
      <trkpt lat="0" lon="0">
        <time>2020-12-20T10:32:34.990000+00:00</time>
      </trkpt>
      <trkpt lat="0" lon="0">
        <time>2020-12-20T10:32:34.993000+00:00</time>
      </trkpt>
      <trkpt lat="47.32674" lon="-1.35479">
        <ele>135</ele>
        <time>2020-12-20T10:32:35.999000+00:00</time>
      </trkpt>
      <trkpt lat="0" lon="0">
        <time>2020-12-20T10:32:36.010000+00:00</time>
      </trkpt>
      <trkpt lat="0" lon="0">
        <time>2020-12-20T10:32:36.014000+00:00</time>
      </trkpt>
      <trkpt lat="0" lon="0">
        <time>2020-12-20T10:32:36.017000+00:00</time>
      </trkpt>
      <trkpt lat="47.3267" lon="-1.35475">
        <ele>134</ele>
        <time>2020-12-20T10:32:36.979000+00:00</time>
      </trkpt>
      <trkpt lat="0" lon="0">
        <time>2020-12-20T10:32:36.987000+00:00</time>
      </trkpt>
      <trkpt lat="0" lon="0">
        <time>2020-12-20T10:32:36.996000+00:00</time>
      </trkpt>
      <trkpt lat="0" lon="0">
        <time>2020-12-20T10:32:36.998000+00:00</time>
      </trkpt>
      <trkpt lat="47.32667" lon="-1.35471">
        <ele>134</ele>
        <time>2020-12-20T10:32:37.984000+00:00</time>
      </trkpt>
      <trkpt lat="0" lon="0">
        <time>2020-12-20T10:32:38.003000+00:00</time>
      </trkpt>
      <trkpt lat="0" lon="0">
        <time>2020-12-20T10:32:38.007000+00:00</time>
      </trkpt>
      <trkpt lat="0" lon="0">
        <time>2020-12-20T10:32:38.015000+00:00</time>
      </trkpt>
      <trkpt lat="47.32664" lon="-1.35466">
        <ele>134</ele>
        <time>2020-12-20T10:32:38.939000+00:00</time>
      </trkpt>
      <trkpt lat="0" lon="0">
        <time>2020-12-20T10:32:38.955000+00:00</time>
      </trkpt>
      <trkpt lat="0" lon="0">
        <time>2020-12-20T10:32:38.963000+00:00</time>
      </trkpt>
      <trkpt lat="0" lon="0">
        <time>2020-12-20T10:32:38.969000+00:00</time>
      </trkpt>
      <trkpt lat="47.32661" lon="-1.35461">
        <ele>134</ele>
        <time>2020-12-20T10:32:39.974000+00:00</time>
      </trkpt>
      <trkpt lat="0" lon="0">
        <time>2020-12-20T10:32:39.996000+00:00</time>
      </trkpt>
      <trkpt lat="0" lon="0">
        <time>2020-12-20T10:32:39.999000+00:00</time>
      </trkpt>
      <trkpt lat="0" lon="0">
        <time>2020-12-20T10:32:40.002000+00:00</time>
      </trkpt>
      <trkpt lat="47.32658" lon="-1.35457">
        <ele>134</ele>
        <time>2020-12-20T10:32:40.945000+00:00</time>
      </trkpt>
      <trkpt lat="0" lon="0">
        <time>2020-12-20T10:32:40.958000+00:00</time>
      </trkpt>
      <trkpt lat="0" lon="0">
        <time>2020-12-20T10:32:40.965000+00:00</time>
      </trkpt>
      <trkpt lat="0" lon="0">
        <time>2020-12-20T10:32:40.968000+00:00</time>
      </trkpt>
      <trkpt lat="47.32656" lon="-1.35452">
        <ele>134</ele>
        <time>2020-12-20T10:32:41.977000+00:00</time>
      </trkpt>
      <trkpt lat="0" lon="0">
        <time>2020-12-20T10:32:41.985000+00:00</time>
      </trkpt>
      <trkpt lat="0" lon="0">
        <time>2020-12-20T10:32:41.992000+00:00</time>
      </trkpt>
      <trkpt lat="0" lon="0">
        <time>2020-12-20T10:32:41.994000+00:00</time>
      </trkpt>
      <trkpt lat="47.32653" lon="-1.35448">
        <ele>134</ele>
        <time>2020-12-20T10:32:42.978000+00:00</time>
      </trkpt>
      <trkpt lat="0" lon="0">
        <time>2020-12-20T10:32:42.992000+00:00</time>
      </trkpt>
      <trkpt lat="0" lon="0">
        <time>2020-12-20T10:32:43.001000+00:00</time>
      </trkpt>
      <trkpt lat="0" lon="0">
        <time>2020-12-20T10:32:43.003000+00:00</time>
      </trkpt>
      <trkpt lat="47.32651" lon="-1.35444">
        <ele>134</ele>
        <time>2020-12-20T10:32:43.967000+00:00</time>
      </trkpt>
      <trkpt lat="0" lon="0">
        <time>2020-12-20T10:32:43.976000+00:00</time>
      </trkpt>
      <trkpt lat="0" lon="0">
        <time>2020-12-20T10:32:43.985000+00:00</time>
      </trkpt>
      <trkpt lat="0" lon="0">
        <time>2020-12-20T10:32:43.988000+00:00</time>
      </trkpt>
      <trkpt lat="47.32649" lon="-1.3544">
        <ele>134</ele>
        <time>2020-12-20T10:32:44.982000+00:00</time>
      </trkpt>
      <trkpt lat="0" lon="0">
        <time>2020-12-20T10:32:44.995000+00:00</time>
      </trkpt>
      <trkpt lat="0" lon="0">
        <time>2020-12-20T10:32:44.999000+00:00</time>
      </trkpt>
      <trkpt lat="0" lon="0">
        <time>2020-12-20T10:32:45.001000+00:00</time>
      </trkpt>
      <trkpt lat="47.32647" lon="-1.35436">
        <ele>134</ele>
        <time>2020-12-20T10:32:45.966000+00:00</time>
      </trkpt>
      <trkpt lat="0" lon="0">
        <time>2020-12-20T10:32:45.977000+00:00</time>
      </trkpt>
      <trkpt lat="0" lon="0">
        <time>2020-12-20T10:32:45.982000+00:00</time>
      </trkpt>
      <trkpt lat="0" lon="0">
        <time>2020-12-20T10:32:45.985000+00:00</time>
      </trkpt>
      <trkpt lat="47.32645" lon="-1.35432">
        <ele>134</ele>
        <time>2020-12-20T10:32:46.946000+00:00</time>
      </trkpt>
      <trkpt lat="0" lon="0">
        <time>2020-12-20T10:32:46.956000+00:00</time>
      </trkpt>
      <trkpt lat="0" lon="0">
        <time>2020-12-20T10:32:46.960000+00:00</time>
      </trkpt>
      <trkpt lat="0" lon="0">
        <time>2020-12-20T10:32:46.962000+00:00</time>
      </trkpt>
      <trkpt lat="47.32643" lon="-1.35429">
        <ele>134</ele>
        <time>2020-12-20T10:32:47.979000+00:00</time>
      </trkpt>
      <trkpt lat="0" lon="0">
        <time>2020-12-20T10:32:47.984000+00:00</time>
      </trkpt>
      <trkpt lat="0" lon="0">
        <time>2020-12-20T10:32:47.990000+00:00</time>
      </trkpt>
      <trkpt lat="0" lon="0">
        <time>2020-12-20T10:32:47.995000+00:00</time>
      </trkpt>
      <trkpt lat="47.32642" lon="-1.35425">
        <ele>134</ele>
        <time>2020-12-20T10:32:48.980000+00:00</time>
      </trkpt>
      <trkpt lat="0" lon="0">
        <time>2020-12-20T10:32:48.993000+00:00</time>
      </trkpt>
      <trkpt lat="0" lon="0">
        <time>2020-12-20T10:32:49+00:00</time>
      </trkpt>
      <trkpt lat="0" lon="0">
        <time>2020-12-20T10:32:49.003000+00:00</time>
      </trkpt>
      <trkpt lat="47.3264" lon="-1.35422">
        <ele>134</ele>
        <time>2020-12-20T10:32:50.011000+00:00</time>
      </trkpt>
      <trkpt lat="0" lon="0">
        <time>2020-12-20T10:32:50.022000+00:00</time>
      </trkpt>
      <trkpt lat="0" lon="0">
        <time>2020-12-20T10:32:50.030000+00:00</time>
      </trkpt>
      <trkpt lat="0" lon="0">
        <time>2020-12-20T10:32:50.034000+00:00</time>
      </trkpt>
      <trkpt lat="47.32639" lon="-1.35419">
        <ele>133</ele>
        <time>2020-12-20T10:32:50.921000+00:00</time>
      </trkpt>
      <trkpt lat="0" lon="0">
        <time>2020-12-20T10:32:50.927000+00:00</time>
      </trkpt>
      <trkpt lat="0" lon="0">
        <time>2020-12-20T10:32:50.928000+00:00</time>
      </trkpt>
      <trkpt lat="0" lon="0">
        <time>2020-12-20T10:32:50.929000+00:00</time>
      </trkpt>
      <trkpt lat="47.32638" lon="-1.35415">
        <ele>133</ele>
        <time>2020-12-20T10:32:51.955000+00:00</time>
      </trkpt>
      <trkpt lat="0" lon="0">
        <time>2020-12-20T10:32:51.962000+00:00</time>
      </trkpt>
      <trkpt lat="0" lon="0">
        <time>2020-12-20T10:32:51.964000+00:00</time>
      </trkpt>
      <trkpt lat="0" lon="0">
        <time>2020-12-20T10:32:51.965000+00:00</time>
      </trkpt>
      <trkpt lat="47.32636" lon="-1.35412">
        <ele>133</ele>
        <time>2020-12-20T10:32:52.979000+00:00</time>
      </trkpt>
      <trkpt lat="0" lon="0">
        <time>2020-12-20T10:32:52.984000+00:00</time>
      </trkpt>
      <trkpt lat="0" lon="0">
        <time>2020-12-20T10:32:52.993000+00:00</time>
      </trkpt>
      <trkpt lat="0" lon="0">
        <time>2020-12-20T10:32:52.999000+00:00</time>
      </trkpt>
      <trkpt lat="47.32634" lon="-1.35409">
        <ele>133</ele>
        <time>2020-12-20T10:32:53.979000+00:00</time>
      </trkpt>
      <trkpt lat="0" lon="0">
        <time>2020-12-20T10:32:53.990000+00:00</time>
      </trkpt>
      <trkpt lat="0" lon="0">
        <time>2020-12-20T10:32:54.003000+00:00</time>
      </trkpt>
      <trkpt lat="0" lon="0">
        <time>2020-12-20T10:32:54.007000+00:00</time>
      </trkpt>
      <trkpt lat="47.32633" lon="-1.35406">
        <ele>133</ele>
        <time>2020-12-20T10:32:54.993000+00:00</time>
      </trkpt>
      <trkpt lat="0" lon="0">
        <time>2020-12-20T10:32:55.006000+00:00</time>
      </trkpt>
      <trkpt lat="0" lon="0">
        <time>2020-12-20T10:32:55.015000+00:00</time>
      </trkpt>
      <trkpt lat="0" lon="0">
        <time>2020-12-20T10:32:55.018000+00:00</time>
      </trkpt>
      <trkpt lat="47.32631" lon="-1.35403">
        <ele>133</ele>
        <time>2020-12-20T10:32:55.995000+00:00</time>
      </trkpt>
      <trkpt lat="0" lon="0">
        <time>2020-12-20T10:32:56.005000+00:00</time>
      </trkpt>
      <trkpt lat="0" lon="0">
        <time>2020-12-20T10:32:56.010000+00:00</time>
      </trkpt>
      <trkpt lat="0" lon="0">
        <time>2020-12-20T10:32:56.016000+00:00</time>
      </trkpt>
      <trkpt lat="47.32629" lon="-1.35399">
        <ele>133</ele>
        <time>2020-12-20T10:32:56.992000+00:00</time>
      </trkpt>
      <trkpt lat="0" lon="0">
        <time>2020-12-20T10:32:57.003000+00:00</time>
      </trkpt>
      <trkpt lat="0" lon="0">
        <time>2020-12-20T10:32:57.008000+00:00</time>
      </trkpt>
      <trkpt lat="0" lon="0">
        <time>2020-12-20T10:32:57.012000+00:00</time>
      </trkpt>
      <trkpt lat="47.32627" lon="-1.35395">
        <ele>133</ele>
        <time>2020-12-20T10:32:57.963000+00:00</time>
      </trkpt>
      <trkpt lat="0" lon="0">
        <time>2020-12-20T10:32:57.982000+00:00</time>
      </trkpt>
      <trkpt lat="0" lon="0">
        <time>2020-12-20T10:32:57.985000+00:00</time>
      </trkpt>
      <trkpt lat="0" lon="0">
        <time>2020-12-20T10:32:57.986000+00:00</time>
      </trkpt>
      <trkpt lat="47.32624" lon="-1.35391">
        <ele>133</ele>
        <time>2020-12-20T10:32:58.982000+00:00</time>
      </trkpt>
      <trkpt lat="0" lon="0">
        <time>2020-12-20T10:32:58.988000+00:00</time>
      </trkpt>
      <trkpt lat="0" lon="0">
        <time>2020-12-20T10:32:58.993000+00:00</time>
      </trkpt>
      <trkpt lat="0" lon="0">
        <time>2020-12-20T10:32:58.998000+00:00</time>
      </trkpt>
      <trkpt lat="47.32622" lon="-1.35386">
        <ele>133</ele>
        <time>2020-12-20T10:32:59.984000+00:00</time>
      </trkpt>
      <trkpt lat="0" lon="0">
        <time>2020-12-20T10:32:59.995000+00:00</time>
      </trkpt>
      <trkpt lat="0" lon="0">
        <time>2020-12-20T10:32:59.999000+00:00</time>
      </trkpt>
      <trkpt lat="0" lon="0">
        <time>2020-12-20T10:33:00.001000+00:00</time>
      </trkpt>
      <trkpt lat="47.32621" lon="-1.35382">
        <ele>133</ele>
        <time>2020-12-20T10:33:00.995000+00:00</time>
      </trkpt>
      <trkpt lat="0" lon="0">
        <time>2020-12-20T10:33:01.016000+00:00</time>
      </trkpt>
      <trkpt lat="0" lon="0">
        <time>2020-12-20T10:33:01.024000+00:00</time>
      </trkpt>
      <trkpt lat="0" lon="0">
        <time>2020-12-20T10:33:01.028000+00:00</time>
      </trkpt>
      <trkpt lat="47.32619" lon="-1.35378">
        <ele>133</ele>
        <time>2020-12-20T10:33:01.951000+00:00</time>
      </trkpt>
      <trkpt lat="0" lon="0">
        <time>2020-12-20T10:33:01.979000+00:00</time>
      </trkpt>
      <trkpt lat="0" lon="0">
        <time>2020-12-20T10:33:01.986000+00:00</time>
      </trkpt>
      <trkpt lat="0" lon="0">
        <time>2020-12-20T10:33:01.989000+00:00</time>
      </trkpt>
      <trkpt lat="47.32617" lon="-1.35374">
        <ele>133</ele>
        <time>2020-12-20T10:33:02.956000+00:00</time>
      </trkpt>
      <trkpt lat="0" lon="0">
        <time>2020-12-20T10:33:02.968000+00:00</time>
      </trkpt>
      <trkpt lat="0" lon="0">
        <time>2020-12-20T10:33:02.972000+00:00</time>
      </trkpt>
      <trkpt lat="0" lon="0">
        <time>2020-12-20T10:33:02.977000+00:00</time>
      </trkpt>
      <trkpt lat="47.32616" lon="-1.3537">
        <ele>134</ele>
        <time>2020-12-20T10:33:03.942000+00:00</time>
      </trkpt>
      <trkpt lat="0" lon="0">
        <time>2020-12-20T10:33:03.948000+00:00</time>
      </trkpt>
      <trkpt lat="0" lon="0">
        <time>2020-12-20T10:33:03.960000+00:00</time>
      </trkpt>
      <trkpt lat="0" lon="0">
        <time>2020-12-20T10:33:03.963000+00:00</time>
      </trkpt>
      <trkpt lat="47.32615" lon="-1.35367">
        <ele>133</ele>
        <time>2020-12-20T10:33:04.973000+00:00</time>
      </trkpt>
      <trkpt lat="0" lon="0">
        <time>2020-12-20T10:33:04.980000+00:00</time>
      </trkpt>
      <trkpt lat="0" lon="0">
        <time>2020-12-20T10:33:04.985000+00:00</time>
      </trkpt>
      <trkpt lat="0" lon="0">
        <time>2020-12-20T10:33:04.988000+00:00</time>
      </trkpt>
      <trkpt lat="47.32614" lon="-1.35363">
        <ele>134</ele>
        <time>2020-12-20T10:33:06.007000+00:00</time>
      </trkpt>
      <trkpt lat="0" lon="0">
        <time>2020-12-20T10:33:06.018000+00:00</time>
      </trkpt>
      <trkpt lat="0" lon="0">
        <time>2020-12-20T10:33:06.026000+00:00</time>
      </trkpt>
      <trkpt lat="0" lon="0">
        <time>2020-12-20T10:33:06.028000+00:00</time>
      </trkpt>
      <trkpt lat="47.32613" lon="-1.3536">
        <ele>134</ele>
        <time>2020-12-20T10:33:06.979000+00:00</time>
      </trkpt>
      <trkpt lat="0" lon="0">
        <time>2020-12-20T10:33:06.996000+00:00</time>
      </trkpt>
      <trkpt lat="0" lon="0">
        <time>2020-12-20T10:33:06.999000+00:00</time>
      </trkpt>
      <trkpt lat="0" lon="0">
        <time>2020-12-20T10:33:07.002000+00:00</time>
      </trkpt>
      <trkpt lat="47.32612" lon="-1.35356">
        <ele>134</ele>
        <time>2020-12-20T10:33:07.937000+00:00</time>
      </trkpt>
      <trkpt lat="0" lon="0">
        <time>2020-12-20T10:33:07.954000+00:00</time>
      </trkpt>
      <trkpt lat="0" lon="0">
        <time>2020-12-20T10:33:07.959000+00:00</time>
      </trkpt>
      <trkpt lat="0" lon="0">
        <time>2020-12-20T10:33:07.966000+00:00</time>
      </trkpt>
      <trkpt lat="47.32611" lon="-1.35353">
        <ele>134</ele>
        <time>2020-12-20T10:33:08.975000+00:00</time>
      </trkpt>
      <trkpt lat="0" lon="0">
        <time>2020-12-20T10:33:08.981000+00:00</time>
      </trkpt>
      <trkpt lat="0" lon="0">
        <time>2020-12-20T10:33:08.985000+00:00</time>
      </trkpt>
      <trkpt lat="0" lon="0">
        <time>2020-12-20T10:33:08.987000+00:00</time>
      </trkpt>
      <trkpt lat="47.3261" lon="-1.3535">
        <ele>134</ele>
        <time>2020-12-20T10:33:09.923000+00:00</time>
      </trkpt>
      <trkpt lat="0" lon="0">
        <time>2020-12-20T10:33:09.928000+00:00</time>
      </trkpt>
      <trkpt lat="0" lon="0">
        <time>2020-12-20T10:33:09.935000+00:00</time>
      </trkpt>
      <trkpt lat="0" lon="0">
        <time>2020-12-20T10:33:09.942000+00:00</time>
      </trkpt>
      <trkpt lat="47.32609" lon="-1.35347">
        <ele>135</ele>
        <time>2020-12-20T10:33:10.986000+00:00</time>
      </trkpt>
      <trkpt lat="0" lon="0">
        <time>2020-12-20T10:33:11.002000+00:00</time>
      </trkpt>
      <trkpt lat="0" lon="0">
        <time>2020-12-20T10:33:11.006000+00:00</time>
      </trkpt>
      <trkpt lat="0" lon="0">
        <time>2020-12-20T10:33:11.010000+00:00</time>
      </trkpt>
      <trkpt lat="47.32608" lon="-1.35344">
        <ele>135</ele>
        <time>2020-12-20T10:33:11.987000+00:00</time>
      </trkpt>
      <trkpt lat="0" lon="0">
        <time>2020-12-20T10:33:11.996000+00:00</time>
      </trkpt>
      <trkpt lat="0" lon="0">
        <time>2020-12-20T10:33:12.002000+00:00</time>
      </trkpt>
      <trkpt lat="0" lon="0">
        <time>2020-12-20T10:33:12.005000+00:00</time>
      </trkpt>
      <trkpt lat="47.32607" lon="-1.35342">
        <ele>135</ele>
        <time>2020-12-20T10:33:12.970000+00:00</time>
      </trkpt>
      <trkpt lat="0" lon="0">
        <time>2020-12-20T10:33:12.975000+00:00</time>
      </trkpt>
      <trkpt lat="0" lon="0">
        <time>2020-12-20T10:33:12.994000+00:00</time>
      </trkpt>
      <trkpt lat="0" lon="0">
        <time>2020-12-20T10:33:12.997000+00:00</time>
      </trkpt>
      <trkpt lat="47.32606" lon="-1.35339">
        <ele>135</ele>
        <time>2020-12-20T10:33:13.969000+00:00</time>
      </trkpt>
      <trkpt lat="0" lon="0">
        <time>2020-12-20T10:33:13.973000+00:00</time>
      </trkpt>
      <trkpt lat="0" lon="0">
        <time>2020-12-20T10:33:13.976000+00:00</time>
      </trkpt>
      <trkpt lat="0" lon="0">
        <time>2020-12-20T10:33:13.977000+00:00</time>
      </trkpt>
      <trkpt lat="47.32605" lon="-1.35336">
        <ele>135</ele>
        <time>2020-12-20T10:33:14.978000+00:00</time>
      </trkpt>
      <trkpt lat="0" lon="0">
        <time>2020-12-20T10:33:14.994000+00:00</time>
      </trkpt>
      <trkpt lat="0" lon="0">
        <time>2020-12-20T10:33:15.002000+00:00</time>
      </trkpt>
      <trkpt lat="0" lon="0">
        <time>2020-12-20T10:33:15.005000+00:00</time>
      </trkpt>
      <trkpt lat="47.32605" lon="-1.35333">
        <ele>135</ele>
        <time>2020-12-20T10:33:15.980000+00:00</time>
      </trkpt>
      <trkpt lat="0" lon="0">
        <time>2020-12-20T10:33:15.988000+00:00</time>
      </trkpt>
      <trkpt lat="0" lon="0">
        <time>2020-12-20T10:33:15.992000+00:00</time>
      </trkpt>
      <trkpt lat="0" lon="0">
        <time>2020-12-20T10:33:15.996000+00:00</time>
      </trkpt>
      <trkpt lat="47.32603" lon="-1.35329">
        <ele>135</ele>
        <time>2020-12-20T10:33:16.984000+00:00</time>
      </trkpt>
      <trkpt lat="0" lon="0">
        <time>2020-12-20T10:33:16.994000+00:00</time>
      </trkpt>
      <trkpt lat="0" lon="0">
        <time>2020-12-20T10:33:17.001000+00:00</time>
      </trkpt>
      <trkpt lat="0" lon="0">
        <time>2020-12-20T10:33:17.003000+00:00</time>
      </trkpt>
      <trkpt lat="47.32602" lon="-1.35325">
        <ele>135</ele>
        <time>2020-12-20T10:33:17.962000+00:00</time>
      </trkpt>
      <trkpt lat="0" lon="0">
        <time>2020-12-20T10:33:17.974000+00:00</time>
      </trkpt>
      <trkpt lat="0" lon="0">
        <time>2020-12-20T10:33:17.988000+00:00</time>
      </trkpt>
      <trkpt lat="0" lon="0">
        <time>2020-12-20T10:33:17.991000+00:00</time>
      </trkpt>
      <trkpt lat="47.326" lon="-1.35321">
        <ele>135</ele>
        <time>2020-12-20T10:33:18.988000+00:00</time>
      </trkpt>
      <trkpt lat="0" lon="0">
        <time>2020-12-20T10:33:19+00:00</time>
      </trkpt>
      <trkpt lat="0" lon="0">
        <time>2020-12-20T10:33:19.004000+00:00</time>
      </trkpt>
      <trkpt lat="0" lon="0">
        <time>2020-12-20T10:33:19.006000+00:00</time>
      </trkpt>
      <trkpt lat="47.32599" lon="-1.35316">
        <ele>136</ele>
        <time>2020-12-20T10:33:19.993000+00:00</time>
      </trkpt>
      <trkpt lat="0" lon="0">
        <time>2020-12-20T10:33:20.009000+00:00</time>
      </trkpt>
      <trkpt lat="0" lon="0">
        <time>2020-12-20T10:33:20.018000+00:00</time>
      </trkpt>
      <trkpt lat="0" lon="0">
        <time>2020-12-20T10:33:20.022000+00:00</time>
      </trkpt>
      <trkpt lat="47.32597" lon="-1.3531">
        <ele>136</ele>
        <time>2020-12-20T10:33:20.992000+00:00</time>
      </trkpt>
      <trkpt lat="0" lon="0">
        <time>2020-12-20T10:33:21.001000+00:00</time>
      </trkpt>
      <trkpt lat="0" lon="0">
        <time>2020-12-20T10:33:21.013000+00:00</time>
      </trkpt>
      <trkpt lat="0" lon="0">
        <time>2020-12-20T10:33:21.017000+00:00</time>
      </trkpt>
      <trkpt lat="47.32595" lon="-1.35304">
        <ele>136</ele>
        <time>2020-12-20T10:33:21.982000+00:00</time>
      </trkpt>
      <trkpt lat="0" lon="0">
        <time>2020-12-20T10:33:21.990000+00:00</time>
      </trkpt>
      <trkpt lat="0" lon="0">
        <time>2020-12-20T10:33:21.994000+00:00</time>
      </trkpt>
      <trkpt lat="0" lon="0">
        <time>2020-12-20T10:33:21.996000+00:00</time>
      </trkpt>
      <trkpt lat="47.32593" lon="-1.35298">
        <ele>136</ele>
        <time>2020-12-20T10:33:22.995000+00:00</time>
      </trkpt>
      <trkpt lat="0" lon="0">
        <time>2020-12-20T10:33:23.008000+00:00</time>
      </trkpt>
      <trkpt lat="0" lon="0">
        <time>2020-12-20T10:33:23.019000+00:00</time>
      </trkpt>
      <trkpt lat="0" lon="0">
        <time>2020-12-20T10:33:23.023000+00:00</time>
      </trkpt>
      <trkpt lat="47.32591" lon="-1.35292">
        <ele>137</ele>
        <time>2020-12-20T10:33:23.971000+00:00</time>
      </trkpt>
      <trkpt lat="0" lon="0">
        <time>2020-12-20T10:33:23.992000+00:00</time>
      </trkpt>
      <trkpt lat="0" lon="0">
        <time>2020-12-20T10:33:24.002000+00:00</time>
      </trkpt>
      <trkpt lat="0" lon="0">
        <time>2020-12-20T10:33:24.004000+00:00</time>
      </trkpt>
      <trkpt lat="47.32589" lon="-1.35285">
        <ele>137</ele>
        <time>2020-12-20T10:33:24.945000+00:00</time>
      </trkpt>
      <trkpt lat="0" lon="0">
        <time>2020-12-20T10:33:24.955000+00:00</time>
      </trkpt>
      <trkpt lat="0" lon="0">
        <time>2020-12-20T10:33:24.962000+00:00</time>
      </trkpt>
      <trkpt lat="0" lon="0">
        <time>2020-12-20T10:33:24.965000+00:00</time>
      </trkpt>
      <trkpt lat="47.32587" lon="-1.35278">
        <ele>137</ele>
        <time>2020-12-20T10:33:25.977000+00:00</time>
      </trkpt>
      <trkpt lat="0" lon="0">
        <time>2020-12-20T10:33:25.986000+00:00</time>
      </trkpt>
      <trkpt lat="0" lon="0">
        <time>2020-12-20T10:33:25.988000+00:00</time>
      </trkpt>
      <trkpt lat="0" lon="0">
        <time>2020-12-20T10:33:25.989000+00:00</time>
      </trkpt>
      <trkpt lat="47.32586" lon="-1.35271">
        <ele>137</ele>
        <time>2020-12-20T10:33:26.973000+00:00</time>
      </trkpt>
      <trkpt lat="0" lon="0">
        <time>2020-12-20T10:33:26.983000+00:00</time>
      </trkpt>
      <trkpt lat="0" lon="0">
        <time>2020-12-20T10:33:26.991000+00:00</time>
      </trkpt>
      <trkpt lat="0" lon="0">
        <time>2020-12-20T10:33:26.993000+00:00</time>
      </trkpt>
      <trkpt lat="47.32584" lon="-1.35263">
        <ele>137</ele>
        <time>2020-12-20T10:33:27.974000+00:00</time>
      </trkpt>
      <trkpt lat="0" lon="0">
        <time>2020-12-20T10:33:27.994000+00:00</time>
      </trkpt>
      <trkpt lat="0" lon="0">
        <time>2020-12-20T10:33:28.004000+00:00</time>
      </trkpt>
      <trkpt lat="0" lon="0">
        <time>2020-12-20T10:33:28.007000+00:00</time>
      </trkpt>
      <trkpt lat="47.32582" lon="-1.35255">
        <ele>137</ele>
        <time>2020-12-20T10:33:28.989000+00:00</time>
      </trkpt>
      <trkpt lat="0" lon="0">
        <time>2020-12-20T10:33:28.999000+00:00</time>
      </trkpt>
      <trkpt lat="0" lon="0">
        <time>2020-12-20T10:33:29.006000+00:00</time>
      </trkpt>
      <trkpt lat="0" lon="0">
        <time>2020-12-20T10:33:29.009000+00:00</time>
      </trkpt>
      <trkpt lat="47.3258" lon="-1.35247">
        <ele>136</ele>
        <time>2020-12-20T10:33:30.006000+00:00</time>
      </trkpt>
      <trkpt lat="0" lon="0">
        <time>2020-12-20T10:33:30.019000+00:00</time>
      </trkpt>
      <trkpt lat="0" lon="0">
        <time>2020-12-20T10:33:30.031000+00:00</time>
      </trkpt>
      <trkpt lat="0" lon="0">
        <time>2020-12-20T10:33:30.040000+00:00</time>
      </trkpt>
      <trkpt lat="47.32578" lon="-1.35239">
        <ele>136</ele>
        <time>2020-12-20T10:33:30.931000+00:00</time>
      </trkpt>
      <trkpt lat="0" lon="0">
        <time>2020-12-20T10:33:30.936000+00:00</time>
      </trkpt>
      <trkpt lat="0" lon="0">
        <time>2020-12-20T10:33:30.947000+00:00</time>
      </trkpt>
      <trkpt lat="0" lon="0">
        <time>2020-12-20T10:33:30.953000+00:00</time>
      </trkpt>
      <trkpt lat="47.32577" lon="-1.35231">
        <ele>136</ele>
        <time>2020-12-20T10:33:31.989000+00:00</time>
      </trkpt>
      <trkpt lat="0" lon="0">
        <time>2020-12-20T10:33:31.994000+00:00</time>
      </trkpt>
      <trkpt lat="0" lon="0">
        <time>2020-12-20T10:33:32.001000+00:00</time>
      </trkpt>
      <trkpt lat="0" lon="0">
        <time>2020-12-20T10:33:32.003000+00:00</time>
      </trkpt>
      <trkpt lat="47.32575" lon="-1.35223">
        <ele>136</ele>
        <time>2020-12-20T10:33:32.908000+00:00</time>
      </trkpt>
      <trkpt lat="0" lon="0">
        <time>2020-12-20T10:33:32.919000+00:00</time>
      </trkpt>
      <trkpt lat="0" lon="0">
        <time>2020-12-20T10:33:32.922000+00:00</time>
      </trkpt>
      <trkpt lat="0" lon="0">
        <time>2020-12-20T10:33:32.926000+00:00</time>
      </trkpt>
      <trkpt lat="47.32573" lon="-1.35214">
        <ele>136</ele>
        <time>2020-12-20T10:33:33.940000+00:00</time>
      </trkpt>
      <trkpt lat="0" lon="0">
        <time>2020-12-20T10:33:33.956000+00:00</time>
      </trkpt>
      <trkpt lat="0" lon="0">
        <time>2020-12-20T10:33:33.960000+00:00</time>
      </trkpt>
      <trkpt lat="0" lon="0">
        <time>2020-12-20T10:33:33.962000+00:00</time>
      </trkpt>
      <trkpt lat="47.32571" lon="-1.35205">
        <ele>136</ele>
        <time>2020-12-20T10:33:34.976000+00:00</time>
      </trkpt>
      <trkpt lat="0" lon="0">
        <time>2020-12-20T10:33:34.982000+00:00</time>
      </trkpt>
      <trkpt lat="0" lon="0">
        <time>2020-12-20T10:33:34.987000+00:00</time>
      </trkpt>
      <trkpt lat="0" lon="0">
        <time>2020-12-20T10:33:34.992000+00:00</time>
      </trkpt>
      <trkpt lat="47.3257" lon="-1.35196">
        <ele>135</ele>
        <time>2020-12-20T10:33:35.987000+00:00</time>
      </trkpt>
      <trkpt lat="0" lon="0">
        <time>2020-12-20T10:33:35.998000+00:00</time>
      </trkpt>
      <trkpt lat="0" lon="0">
        <time>2020-12-20T10:33:36.004000+00:00</time>
      </trkpt>
      <trkpt lat="0" lon="0">
        <time>2020-12-20T10:33:36.006000+00:00</time>
      </trkpt>
      <trkpt lat="47.32568" lon="-1.35187">
        <ele>135</ele>
        <time>2020-12-20T10:33:36.987000+00:00</time>
      </trkpt>
      <trkpt lat="0" lon="0">
        <time>2020-12-20T10:33:36.995000+00:00</time>
      </trkpt>
      <trkpt lat="0" lon="0">
        <time>2020-12-20T10:33:36.999000+00:00</time>
      </trkpt>
      <trkpt lat="0" lon="0">
        <time>2020-12-20T10:33:37.002000+00:00</time>
      </trkpt>
      <trkpt lat="47.32566" lon="-1.35177">
        <ele>135</ele>
        <time>2020-12-20T10:33:37.992000+00:00</time>
      </trkpt>
      <trkpt lat="0" lon="0">
        <time>2020-12-20T10:33:38.001000+00:00</time>
      </trkpt>
      <trkpt lat="0" lon="0">
        <time>2020-12-20T10:33:38.010000+00:00</time>
      </trkpt>
      <trkpt lat="0" lon="0">
        <time>2020-12-20T10:33:38.012000+00:00</time>
      </trkpt>
      <trkpt lat="47.32565" lon="-1.35168">
        <ele>135</ele>
        <time>2020-12-20T10:33:38.993000+00:00</time>
      </trkpt>
      <trkpt lat="0" lon="0">
        <time>2020-12-20T10:33:39.005000+00:00</time>
      </trkpt>
      <trkpt lat="0" lon="0">
        <time>2020-12-20T10:33:39.010000+00:00</time>
      </trkpt>
      <trkpt lat="0" lon="0">
        <time>2020-12-20T10:33:39.012000+00:00</time>
      </trkpt>
      <trkpt lat="47.32563" lon="-1.35158">
        <ele>134</ele>
        <time>2020-12-20T10:33:39.995000+00:00</time>
      </trkpt>
      <trkpt lat="0" lon="0">
        <time>2020-12-20T10:33:40+00:00</time>
      </trkpt>
      <trkpt lat="0" lon="0">
        <time>2020-12-20T10:33:40.007000+00:00</time>
      </trkpt>
      <trkpt lat="0" lon="0">
        <time>2020-12-20T10:33:40.009000+00:00</time>
      </trkpt>
      <trkpt lat="47.32562" lon="-1.35148">
        <ele>133</ele>
        <time>2020-12-20T10:33:41.006000+00:00</time>
      </trkpt>
      <trkpt lat="0" lon="0">
        <time>2020-12-20T10:33:41.013000+00:00</time>
      </trkpt>
      <trkpt lat="0" lon="0">
        <time>2020-12-20T10:33:41.017000+00:00</time>
      </trkpt>
      <trkpt lat="0" lon="0">
        <time>2020-12-20T10:33:41.019000+00:00</time>
      </trkpt>
      <trkpt lat="47.3256" lon="-1.35137">
        <ele>133</ele>
        <time>2020-12-20T10:33:41.958000+00:00</time>
      </trkpt>
      <trkpt lat="0" lon="0">
        <time>2020-12-20T10:33:41.966000+00:00</time>
      </trkpt>
      <trkpt lat="0" lon="0">
        <time>2020-12-20T10:33:41.978000+00:00</time>
      </trkpt>
      <trkpt lat="0" lon="0">
        <time>2020-12-20T10:33:41.981000+00:00</time>
      </trkpt>
      <trkpt lat="47.32558" lon="-1.35127">
        <ele>132</ele>
        <time>2020-12-20T10:33:42.949000+00:00</time>
      </trkpt>
      <trkpt lat="0" lon="0">
        <time>2020-12-20T10:33:42.965000+00:00</time>
      </trkpt>
      <trkpt lat="0" lon="0">
        <time>2020-12-20T10:33:42.971000+00:00</time>
      </trkpt>
      <trkpt lat="0" lon="0">
        <time>2020-12-20T10:33:42.974000+00:00</time>
      </trkpt>
      <trkpt lat="47.32557" lon="-1.35116">
        <ele>131</ele>
        <time>2020-12-20T10:33:43.992000+00:00</time>
      </trkpt>
      <trkpt lat="0" lon="0">
        <time>2020-12-20T10:33:44.004000+00:00</time>
      </trkpt>
      <trkpt lat="0" lon="0">
        <time>2020-12-20T10:33:44.013000+00:00</time>
      </trkpt>
      <trkpt lat="0" lon="0">
        <time>2020-12-20T10:33:44.019000+00:00</time>
      </trkpt>
      <trkpt lat="47.32555" lon="-1.35105">
        <ele>130</ele>
        <time>2020-12-20T10:33:44.947000+00:00</time>
      </trkpt>
      <trkpt lat="0" lon="0">
        <time>2020-12-20T10:33:44.962000+00:00</time>
      </trkpt>
      <trkpt lat="0" lon="0">
        <time>2020-12-20T10:33:44.968000+00:00</time>
      </trkpt>
      <trkpt lat="0" lon="0">
        <time>2020-12-20T10:33:44.972000+00:00</time>
      </trkpt>
      <trkpt lat="47.32554" lon="-1.35094">
        <ele>130</ele>
        <time>2020-12-20T10:33:45.929000+00:00</time>
      </trkpt>
      <trkpt lat="0" lon="0">
        <time>2020-12-20T10:33:45.934000+00:00</time>
      </trkpt>
      <trkpt lat="0" lon="0">
        <time>2020-12-20T10:33:45.941000+00:00</time>
      </trkpt>
      <trkpt lat="0" lon="0">
        <time>2020-12-20T10:33:45.943000+00:00</time>
      </trkpt>
      <trkpt lat="47.32552" lon="-1.35084">
        <ele>130</ele>
        <time>2020-12-20T10:33:46.941000+00:00</time>
      </trkpt>
      <trkpt lat="0" lon="0">
        <time>2020-12-20T10:33:46.948000+00:00</time>
      </trkpt>
      <trkpt lat="0" lon="0">
        <time>2020-12-20T10:33:46.952000+00:00</time>
      </trkpt>
      <trkpt lat="0" lon="0">
        <time>2020-12-20T10:33:46.954000+00:00</time>
      </trkpt>
      <trkpt lat="47.32551" lon="-1.35073">
        <ele>130</ele>
        <time>2020-12-20T10:33:47.964000+00:00</time>
      </trkpt>
      <trkpt lat="0" lon="0">
        <time>2020-12-20T10:33:47.969000+00:00</time>
      </trkpt>
      <trkpt lat="0" lon="0">
        <time>2020-12-20T10:33:47.971000+00:00</time>
      </trkpt>
      <trkpt lat="0" lon="0">
        <time>2020-12-20T10:33:47.973000+00:00</time>
      </trkpt>
      <trkpt lat="47.3255" lon="-1.35062">
        <ele>129</ele>
        <time>2020-12-20T10:33:48.970000+00:00</time>
      </trkpt>
      <trkpt lat="0" lon="0">
        <time>2020-12-20T10:33:48.977000+00:00</time>
      </trkpt>
      <trkpt lat="0" lon="0">
        <time>2020-12-20T10:33:48.986000+00:00</time>
      </trkpt>
      <trkpt lat="0" lon="0">
        <time>2020-12-20T10:33:48.988000+00:00</time>
      </trkpt>
      <trkpt lat="47.32548" lon="-1.35051">
        <ele>129</ele>
        <time>2020-12-20T10:33:49.982000+00:00</time>
      </trkpt>
      <trkpt lat="0" lon="0">
        <time>2020-12-20T10:33:49.987000+00:00</time>
      </trkpt>
      <trkpt lat="0" lon="0">
        <time>2020-12-20T10:33:49.993000+00:00</time>
      </trkpt>
      <trkpt lat="0" lon="0">
        <time>2020-12-20T10:33:49.996000+00:00</time>
      </trkpt>
      <trkpt lat="47.32547" lon="-1.3504">
        <ele>129</ele>
        <time>2020-12-20T10:33:50.970000+00:00</time>
      </trkpt>
      <trkpt lat="0" lon="0">
        <time>2020-12-20T10:33:50.978000+00:00</time>
      </trkpt>
      <trkpt lat="0" lon="0">
        <time>2020-12-20T10:33:50.984000+00:00</time>
      </trkpt>
      <trkpt lat="0" lon="0">
        <time>2020-12-20T10:33:50.990000+00:00</time>
      </trkpt>
      <trkpt lat="47.32545" lon="-1.35029">
        <ele>128</ele>
        <time>2020-12-20T10:33:51.982000+00:00</time>
      </trkpt>
      <trkpt lat="0" lon="0">
        <time>2020-12-20T10:33:52.002000+00:00</time>
      </trkpt>
      <trkpt lat="0" lon="0">
        <time>2020-12-20T10:33:52.008000+00:00</time>
      </trkpt>
      <trkpt lat="0" lon="0">
        <time>2020-12-20T10:33:52.013000+00:00</time>
      </trkpt>
      <trkpt lat="47.32544" lon="-1.35018">
        <ele>128</ele>
        <time>2020-12-20T10:33:52.975000+00:00</time>
      </trkpt>
      <trkpt lat="0" lon="0">
        <time>2020-12-20T10:33:52.990000+00:00</time>
      </trkpt>
      <trkpt lat="0" lon="0">
        <time>2020-12-20T10:33:52.997000+00:00</time>
      </trkpt>
      <trkpt lat="0" lon="0">
        <time>2020-12-20T10:33:53.003000+00:00</time>
      </trkpt>
      <trkpt lat="47.32543" lon="-1.35007">
        <ele>128</ele>
        <time>2020-12-20T10:33:53.963000+00:00</time>
      </trkpt>
      <trkpt lat="0" lon="0">
        <time>2020-12-20T10:33:53.967000+00:00</time>
      </trkpt>
      <trkpt lat="0" lon="0">
        <time>2020-12-20T10:33:53.968000+00:00</time>
      </trkpt>
      <trkpt lat="0" lon="0">
        <time>2020-12-20T10:33:53.969000+00:00</time>
      </trkpt>
      <trkpt lat="47.32541" lon="-1.34997">
        <ele>128</ele>
        <time>2020-12-20T10:33:54.944000+00:00</time>
      </trkpt>
      <trkpt lat="0" lon="0">
        <time>2020-12-20T10:33:54.953000+00:00</time>
      </trkpt>
      <trkpt lat="0" lon="0">
        <time>2020-12-20T10:33:54.963000+00:00</time>
      </trkpt>
      <trkpt lat="0" lon="0">
        <time>2020-12-20T10:33:54.971000+00:00</time>
      </trkpt>
      <trkpt lat="47.3254" lon="-1.34987">
        <ele>128</ele>
        <time>2020-12-20T10:33:55.951000+00:00</time>
      </trkpt>
      <trkpt lat="0" lon="0">
        <time>2020-12-20T10:33:55.960000+00:00</time>
      </trkpt>
      <trkpt lat="0" lon="0">
        <time>2020-12-20T10:33:55.964000+00:00</time>
      </trkpt>
      <trkpt lat="0" lon="0">
        <time>2020-12-20T10:33:55.968000+00:00</time>
      </trkpt>
      <trkpt lat="47.32539" lon="-1.34978">
        <ele>128</ele>
        <time>2020-12-20T10:33:56.971000+00:00</time>
      </trkpt>
      <trkpt lat="0" lon="0">
        <time>2020-12-20T10:33:56.979000+00:00</time>
      </trkpt>
      <trkpt lat="0" lon="0">
        <time>2020-12-20T10:33:56.986000+00:00</time>
      </trkpt>
      <trkpt lat="0" lon="0">
        <time>2020-12-20T10:33:56.989000+00:00</time>
      </trkpt>
      <trkpt lat="47.32538" lon="-1.34969">
        <ele>127</ele>
        <time>2020-12-20T10:33:57.955000+00:00</time>
      </trkpt>
      <trkpt lat="0" lon="0">
        <time>2020-12-20T10:33:57.959000+00:00</time>
      </trkpt>
      <trkpt lat="0" lon="0">
        <time>2020-12-20T10:33:57.963000+00:00</time>
      </trkpt>
      <trkpt lat="0" lon="0">
        <time>2020-12-20T10:33:57.967000+00:00</time>
      </trkpt>
      <trkpt lat="47.32537" lon="-1.34961">
        <ele>127</ele>
        <time>2020-12-20T10:33:58.984000+00:00</time>
      </trkpt>
      <trkpt lat="0" lon="0">
        <time>2020-12-20T10:33:58.997000+00:00</time>
      </trkpt>
      <trkpt lat="0" lon="0">
        <time>2020-12-20T10:33:59.001000+00:00</time>
      </trkpt>
      <trkpt lat="0" lon="0">
        <time>2020-12-20T10:33:59.003000+00:00</time>
      </trkpt>
      <trkpt lat="47.32536" lon="-1.34953">
        <ele>127</ele>
        <time>2020-12-20T10:33:59.954000+00:00</time>
      </trkpt>
      <trkpt lat="0" lon="0">
        <time>2020-12-20T10:33:59.978000+00:00</time>
      </trkpt>
      <trkpt lat="0" lon="0">
        <time>2020-12-20T10:33:59.986000+00:00</time>
      </trkpt>
      <trkpt lat="0" lon="0">
        <time>2020-12-20T10:33:59.994000+00:00</time>
      </trkpt>
      <trkpt lat="47.32536" lon="-1.34947">
        <ele>127</ele>
        <time>2020-12-20T10:34:00.965000+00:00</time>
      </trkpt>
      <trkpt lat="0" lon="0">
        <time>2020-12-20T10:34:00.971000+00:00</time>
      </trkpt>
      <trkpt lat="0" lon="0">
        <time>2020-12-20T10:34:00.975000+00:00</time>
      </trkpt>
      <trkpt lat="0" lon="0">
        <time>2020-12-20T10:34:00.978000+00:00</time>
      </trkpt>
      <trkpt lat="47.32535" lon="-1.34941">
        <ele>127</ele>
        <time>2020-12-20T10:34:01.979000+00:00</time>
      </trkpt>
      <trkpt lat="0" lon="0">
        <time>2020-12-20T10:34:01.986000+00:00</time>
      </trkpt>
      <trkpt lat="0" lon="0">
        <time>2020-12-20T10:34:01.994000+00:00</time>
      </trkpt>
      <trkpt lat="0" lon="0">
        <time>2020-12-20T10:34:01.996000+00:00</time>
      </trkpt>
      <trkpt lat="47.32535" lon="-1.34936">
        <ele>127</ele>
        <time>2020-12-20T10:34:03.003000+00:00</time>
      </trkpt>
      <trkpt lat="0" lon="0">
        <time>2020-12-20T10:34:03.017000+00:00</time>
      </trkpt>
      <trkpt lat="0" lon="0">
        <time>2020-12-20T10:34:03.023000+00:00</time>
      </trkpt>
      <trkpt lat="0" lon="0">
        <time>2020-12-20T10:34:03.026000+00:00</time>
      </trkpt>
      <trkpt lat="47.32534" lon="-1.34932">
        <ele>127</ele>
        <time>2020-12-20T10:34:03.972000+00:00</time>
      </trkpt>
      <trkpt lat="0" lon="0">
        <time>2020-12-20T10:34:03.998000+00:00</time>
      </trkpt>
      <trkpt lat="0" lon="0">
        <time>2020-12-20T10:34:04.008000+00:00</time>
      </trkpt>
      <trkpt lat="0" lon="0">
        <time>2020-12-20T10:34:04.010000+00:00</time>
      </trkpt>
      <trkpt lat="47.32534" lon="-1.34929">
        <ele>127</ele>
        <time>2020-12-20T10:34:04.969000+00:00</time>
      </trkpt>
      <trkpt lat="0" lon="0">
        <time>2020-12-20T10:34:04.983000+00:00</time>
      </trkpt>
      <trkpt lat="0" lon="0">
        <time>2020-12-20T10:34:04.987000+00:00</time>
      </trkpt>
      <trkpt lat="0" lon="0">
        <time>2020-12-20T10:34:04.991000+00:00</time>
      </trkpt>
      <trkpt lat="47.32534" lon="-1.34926">
        <ele>127</ele>
        <time>2020-12-20T10:34:05.976000+00:00</time>
      </trkpt>
      <trkpt lat="0" lon="0">
        <time>2020-12-20T10:34:05.980000+00:00</time>
      </trkpt>
      <trkpt lat="0" lon="0">
        <time>2020-12-20T10:34:05.984000+00:00</time>
      </trkpt>
      <trkpt lat="0" lon="0">
        <time>2020-12-20T10:34:05.986000+00:00</time>
      </trkpt>
      <trkpt lat="47.32533" lon="-1.34924">
        <ele>127</ele>
        <time>2020-12-20T10:34:06.950000+00:00</time>
      </trkpt>
      <trkpt lat="0" lon="0">
        <time>2020-12-20T10:34:06.959000+00:00</time>
      </trkpt>
      <trkpt lat="0" lon="0">
        <time>2020-12-20T10:34:06.963000+00:00</time>
      </trkpt>
      <trkpt lat="0" lon="0">
        <time>2020-12-20T10:34:06.965000+00:00</time>
      </trkpt>
      <trkpt lat="47.32533" lon="-1.34923">
        <ele>127</ele>
        <time>2020-12-20T10:34:07.976000+00:00</time>
      </trkpt>
      <trkpt lat="0" lon="0">
        <time>2020-12-20T10:34:07.983000+00:00</time>
      </trkpt>
      <trkpt lat="0" lon="0">
        <time>2020-12-20T10:34:07.988000+00:00</time>
      </trkpt>
      <trkpt lat="0" lon="0">
        <time>2020-12-20T10:34:07.990000+00:00</time>
      </trkpt>
      <trkpt lat="47.32533" lon="-1.34922">
        <ele>127</ele>
        <time>2020-12-20T10:34:08.945000+00:00</time>
      </trkpt>
      <trkpt lat="0" lon="0">
        <time>2020-12-20T10:34:08.960000+00:00</time>
      </trkpt>
      <trkpt lat="0" lon="0">
        <time>2020-12-20T10:34:08.970000+00:00</time>
      </trkpt>
      <trkpt lat="0" lon="0">
        <time>2020-12-20T10:34:08.972000+00:00</time>
      </trkpt>
      <trkpt lat="47.32532" lon="-1.34921">
        <ele>128</ele>
        <time>2020-12-20T10:34:09.936000+00:00</time>
      </trkpt>
      <trkpt lat="0" lon="0">
        <time>2020-12-20T10:34:09.942000+00:00</time>
      </trkpt>
      <trkpt lat="0" lon="0">
        <time>2020-12-20T10:34:09.947000+00:00</time>
      </trkpt>
      <trkpt lat="0" lon="0">
        <time>2020-12-20T10:34:09.949000+00:00</time>
      </trkpt>
      <trkpt lat="47.32532" lon="-1.34921">
        <ele>128</ele>
        <time>2020-12-20T10:34:10.943000+00:00</time>
      </trkpt>
      <trkpt lat="0" lon="0">
        <time>2020-12-20T10:34:10.956000+00:00</time>
      </trkpt>
      <trkpt lat="0" lon="0">
        <time>2020-12-20T10:34:10.963000+00:00</time>
      </trkpt>
      <trkpt lat="0" lon="0">
        <time>2020-12-20T10:34:10.966000+00:00</time>
      </trkpt>
      <trkpt lat="47.32532" lon="-1.3492">
        <ele>128</ele>
        <time>2020-12-20T10:34:11.981000+00:00</time>
      </trkpt>
      <trkpt lat="0" lon="0">
        <time>2020-12-20T10:34:11.988000+00:00</time>
      </trkpt>
      <trkpt lat="0" lon="0">
        <time>2020-12-20T10:34:11.993000+00:00</time>
      </trkpt>
      <trkpt lat="0" lon="0">
        <time>2020-12-20T10:34:11.996000+00:00</time>
      </trkpt>
      <trkpt lat="47.32532" lon="-1.3492">
        <ele>128</ele>
        <time>2020-12-20T10:34:12.965000+00:00</time>
      </trkpt>
      <trkpt lat="0" lon="0">
        <time>2020-12-20T10:34:12.972000+00:00</time>
      </trkpt>
      <trkpt lat="0" lon="0">
        <time>2020-12-20T10:34:12.977000+00:00</time>
      </trkpt>
      <trkpt lat="0" lon="0">
        <time>2020-12-20T10:34:12.980000+00:00</time>
      </trkpt>
      <trkpt lat="47.32532" lon="-1.34919">
        <ele>129</ele>
        <time>2020-12-20T10:34:13.993000+00:00</time>
      </trkpt>
      <trkpt lat="0" lon="0">
        <time>2020-12-20T10:34:14.003000+00:00</time>
      </trkpt>
      <trkpt lat="0" lon="0">
        <time>2020-12-20T10:34:14.016000+00:00</time>
      </trkpt>
      <trkpt lat="0" lon="0">
        <time>2020-12-20T10:34:14.018000+00:00</time>
      </trkpt>
      <trkpt lat="47.32531" lon="-1.34918">
        <ele>129</ele>
        <time>2020-12-20T10:34:14.978000+00:00</time>
      </trkpt>
      <trkpt lat="0" lon="0">
        <time>2020-12-20T10:34:14.984000+00:00</time>
      </trkpt>
      <trkpt lat="0" lon="0">
        <time>2020-12-20T10:34:14.992000+00:00</time>
      </trkpt>
      <trkpt lat="0" lon="0">
        <time>2020-12-20T10:34:15.006000+00:00</time>
      </trkpt>
      <trkpt lat="47.32531" lon="-1.34917">
        <ele>130</ele>
        <time>2020-12-20T10:34:15.975000+00:00</time>
      </trkpt>
      <trkpt lat="0" lon="0">
        <time>2020-12-20T10:34:15.991000+00:00</time>
      </trkpt>
      <trkpt lat="0" lon="0">
        <time>2020-12-20T10:34:15.995000+00:00</time>
      </trkpt>
      <trkpt lat="0" lon="0">
        <time>2020-12-20T10:34:15.997000+00:00</time>
      </trkpt>
      <trkpt lat="47.32531" lon="-1.34917">
        <ele>130</ele>
        <time>2020-12-20T10:34:16.947000+00:00</time>
      </trkpt>
      <trkpt lat="0" lon="0">
        <time>2020-12-20T10:34:16.965000+00:00</time>
      </trkpt>
      <trkpt lat="0" lon="0">
        <time>2020-12-20T10:34:16.980000+00:00</time>
      </trkpt>
      <trkpt lat="0" lon="0">
        <time>2020-12-20T10:34:16.982000+00:00</time>
      </trkpt>
      <trkpt lat="47.32531" lon="-1.34915">
        <ele>130</ele>
        <time>2020-12-20T10:34:17.975000+00:00</time>
      </trkpt>
      <trkpt lat="0" lon="0">
        <time>2020-12-20T10:34:17.995000+00:00</time>
      </trkpt>
      <trkpt lat="0" lon="0">
        <time>2020-12-20T10:34:18.002000+00:00</time>
      </trkpt>
      <trkpt lat="0" lon="0">
        <time>2020-12-20T10:34:18.008000+00:00</time>
      </trkpt>
      <trkpt lat="47.32531" lon="-1.34914">
        <ele>130</ele>
        <time>2020-12-20T10:34:18.979000+00:00</time>
      </trkpt>
      <trkpt lat="0" lon="0">
        <time>2020-12-20T10:34:18.989000+00:00</time>
      </trkpt>
      <trkpt lat="0" lon="0">
        <time>2020-12-20T10:34:19+00:00</time>
      </trkpt>
      <trkpt lat="0" lon="0">
        <time>2020-12-20T10:34:19.003000+00:00</time>
      </trkpt>
      <trkpt lat="47.32531" lon="-1.34912">
        <ele>130</ele>
        <time>2020-12-20T10:34:19.986000+00:00</time>
      </trkpt>
      <trkpt lat="0" lon="0">
        <time>2020-12-20T10:34:19.992000+00:00</time>
      </trkpt>
      <trkpt lat="0" lon="0">
        <time>2020-12-20T10:34:20.004000+00:00</time>
      </trkpt>
      <trkpt lat="0" lon="0">
        <time>2020-12-20T10:34:20.007000+00:00</time>
      </trkpt>
      <trkpt lat="47.32531" lon="-1.3491">
        <ele>130</ele>
        <time>2020-12-20T10:34:20.972000+00:00</time>
      </trkpt>
      <trkpt lat="0" lon="0">
        <time>2020-12-20T10:34:20.980000+00:00</time>
      </trkpt>
      <trkpt lat="0" lon="0">
        <time>2020-12-20T10:34:20.987000+00:00</time>
      </trkpt>
      <trkpt lat="0" lon="0">
        <time>2020-12-20T10:34:20.990000+00:00</time>
      </trkpt>
      <trkpt lat="47.32531" lon="-1.34908">
        <ele>130</ele>
        <time>2020-12-20T10:34:21.982000+00:00</time>
      </trkpt>
      <trkpt lat="0" lon="0">
        <time>2020-12-20T10:34:21.989000+00:00</time>
      </trkpt>
      <trkpt lat="0" lon="0">
        <time>2020-12-20T10:34:21.996000+00:00</time>
      </trkpt>
      <trkpt lat="0" lon="0">
        <time>2020-12-20T10:34:22.001000+00:00</time>
      </trkpt>
      <trkpt lat="47.32531" lon="-1.34906">
        <ele>130</ele>
        <time>2020-12-20T10:34:22.964000+00:00</time>
      </trkpt>
      <trkpt lat="0" lon="0">
        <time>2020-12-20T10:34:22.972000+00:00</time>
      </trkpt>
      <trkpt lat="0" lon="0">
        <time>2020-12-20T10:34:22.978000+00:00</time>
      </trkpt>
      <trkpt lat="0" lon="0">
        <time>2020-12-20T10:34:22.981000+00:00</time>
      </trkpt>
      <trkpt lat="47.32531" lon="-1.34903">
        <ele>130</ele>
        <time>2020-12-20T10:34:23.940000+00:00</time>
      </trkpt>
      <trkpt lat="0" lon="0">
        <time>2020-12-20T10:34:23.954000+00:00</time>
      </trkpt>
      <trkpt lat="0" lon="0">
        <time>2020-12-20T10:34:23.958000+00:00</time>
      </trkpt>
      <trkpt lat="0" lon="0">
        <time>2020-12-20T10:34:23.960000+00:00</time>
      </trkpt>
      <trkpt lat="47.3253" lon="-1.34901">
        <ele>130</ele>
        <time>2020-12-20T10:34:24.948000+00:00</time>
      </trkpt>
      <trkpt lat="0" lon="0">
        <time>2020-12-20T10:34:24.953000+00:00</time>
      </trkpt>
      <trkpt lat="0" lon="0">
        <time>2020-12-20T10:34:24.961000+00:00</time>
      </trkpt>
      <trkpt lat="0" lon="0">
        <time>2020-12-20T10:34:24.963000+00:00</time>
      </trkpt>
      <trkpt lat="47.3253" lon="-1.34898">
        <ele>130</ele>
        <time>2020-12-20T10:34:25.927000+00:00</time>
      </trkpt>
      <trkpt lat="0" lon="0">
        <time>2020-12-20T10:34:25.939000+00:00</time>
      </trkpt>
      <trkpt lat="0" lon="0">
        <time>2020-12-20T10:34:25.941000+00:00</time>
      </trkpt>
      <trkpt lat="0" lon="0">
        <time>2020-12-20T10:34:25.943000+00:00</time>
      </trkpt>
      <trkpt lat="47.3253" lon="-1.34895">
        <ele>130</ele>
        <time>2020-12-20T10:34:26.952000+00:00</time>
      </trkpt>
      <trkpt lat="0" lon="0">
        <time>2020-12-20T10:34:26.962000+00:00</time>
      </trkpt>
      <trkpt lat="0" lon="0">
        <time>2020-12-20T10:34:26.966000+00:00</time>
      </trkpt>
      <trkpt lat="0" lon="0">
        <time>2020-12-20T10:34:26.970000+00:00</time>
      </trkpt>
      <trkpt lat="47.3253" lon="-1.34892">
        <ele>129</ele>
        <time>2020-12-20T10:34:27.959000+00:00</time>
      </trkpt>
      <trkpt lat="0" lon="0">
        <time>2020-12-20T10:34:27.971000+00:00</time>
      </trkpt>
      <trkpt lat="0" lon="0">
        <time>2020-12-20T10:34:27.976000+00:00</time>
      </trkpt>
      <trkpt lat="0" lon="0">
        <time>2020-12-20T10:34:27.978000+00:00</time>
      </trkpt>
      <trkpt lat="47.3253" lon="-1.3489">
        <ele>129</ele>
        <time>2020-12-20T10:34:28.959000+00:00</time>
      </trkpt>
      <trkpt lat="0" lon="0">
        <time>2020-12-20T10:34:28.966000+00:00</time>
      </trkpt>
      <trkpt lat="0" lon="0">
        <time>2020-12-20T10:34:28.970000+00:00</time>
      </trkpt>
      <trkpt lat="0" lon="0">
        <time>2020-12-20T10:34:28.972000+00:00</time>
      </trkpt>
      <trkpt lat="47.3253" lon="-1.34887">
        <ele>129</ele>
        <time>2020-12-20T10:34:29.904000+00:00</time>
      </trkpt>
      <trkpt lat="0" lon="0">
        <time>2020-12-20T10:34:29.911000+00:00</time>
      </trkpt>
      <trkpt lat="0" lon="0">
        <time>2020-12-20T10:34:29.914000+00:00</time>
      </trkpt>
      <trkpt lat="0" lon="0">
        <time>2020-12-20T10:34:29.916000+00:00</time>
      </trkpt>
      <trkpt lat="47.32529" lon="-1.34884">
        <ele>129</ele>
        <time>2020-12-20T10:34:30.952000+00:00</time>
      </trkpt>
      <trkpt lat="0" lon="0">
        <time>2020-12-20T10:34:30.967000+00:00</time>
      </trkpt>
      <trkpt lat="0" lon="0">
        <time>2020-12-20T10:34:30.973000+00:00</time>
      </trkpt>
      <trkpt lat="0" lon="0">
        <time>2020-12-20T10:34:30.976000+00:00</time>
      </trkpt>
      <trkpt lat="47.32528" lon="-1.34881">
        <ele>129</ele>
        <time>2020-12-20T10:34:31.969000+00:00</time>
      </trkpt>
      <trkpt lat="0" lon="0">
        <time>2020-12-20T10:34:31.977000+00:00</time>
      </trkpt>
      <trkpt lat="0" lon="0">
        <time>2020-12-20T10:34:31.982000+00:00</time>
      </trkpt>
      <trkpt lat="0" lon="0">
        <time>2020-12-20T10:34:31.984000+00:00</time>
      </trkpt>
      <trkpt lat="47.32527" lon="-1.34878">
        <ele>129</ele>
        <time>2020-12-20T10:34:32.982000+00:00</time>
      </trkpt>
      <trkpt lat="0" lon="0">
        <time>2020-12-20T10:34:32.992000+00:00</time>
      </trkpt>
      <trkpt lat="0" lon="0">
        <time>2020-12-20T10:34:32.994000+00:00</time>
      </trkpt>
      <trkpt lat="0" lon="0">
        <time>2020-12-20T10:34:32.995000+00:00</time>
      </trkpt>
      <trkpt lat="47.32526" lon="-1.34876">
        <ele>129</ele>
        <time>2020-12-20T10:34:33.964000+00:00</time>
      </trkpt>
      <trkpt lat="0" lon="0">
        <time>2020-12-20T10:34:33.978000+00:00</time>
      </trkpt>
      <trkpt lat="0" lon="0">
        <time>2020-12-20T10:34:33.983000+00:00</time>
      </trkpt>
      <trkpt lat="0" lon="0">
        <time>2020-12-20T10:34:33.986000+00:00</time>
      </trkpt>
      <trkpt lat="47.32525" lon="-1.34874">
        <ele>129</ele>
        <time>2020-12-20T10:34:34.986000+00:00</time>
      </trkpt>
      <trkpt lat="0" lon="0">
        <time>2020-12-20T10:34:34.998000+00:00</time>
      </trkpt>
      <trkpt lat="0" lon="0">
        <time>2020-12-20T10:34:35.005000+00:00</time>
      </trkpt>
      <trkpt lat="0" lon="0">
        <time>2020-12-20T10:34:35.010000+00:00</time>
      </trkpt>
      <trkpt lat="47.32523" lon="-1.34871">
        <ele>128</ele>
        <time>2020-12-20T10:34:35.948000+00:00</time>
      </trkpt>
      <trkpt lat="0" lon="0">
        <time>2020-12-20T10:34:35.963000+00:00</time>
      </trkpt>
      <trkpt lat="0" lon="0">
        <time>2020-12-20T10:34:35.968000+00:00</time>
      </trkpt>
      <trkpt lat="0" lon="0">
        <time>2020-12-20T10:34:35.970000+00:00</time>
      </trkpt>
      <trkpt lat="47.32521" lon="-1.3487">
        <ele>128</ele>
        <time>2020-12-20T10:34:36.953000+00:00</time>
      </trkpt>
      <trkpt lat="0" lon="0">
        <time>2020-12-20T10:34:36.962000+00:00</time>
      </trkpt>
      <trkpt lat="0" lon="0">
        <time>2020-12-20T10:34:36.967000+00:00</time>
      </trkpt>
      <trkpt lat="0" lon="0">
        <time>2020-12-20T10:34:36.970000+00:00</time>
      </trkpt>
      <trkpt lat="47.3252" lon="-1.34868">
        <ele>127</ele>
        <time>2020-12-20T10:34:37.941000+00:00</time>
      </trkpt>
      <trkpt lat="0" lon="0">
        <time>2020-12-20T10:34:37.959000+00:00</time>
      </trkpt>
      <trkpt lat="0" lon="0">
        <time>2020-12-20T10:34:37.962000+00:00</time>
      </trkpt>
      <trkpt lat="0" lon="0">
        <time>2020-12-20T10:34:37.965000+00:00</time>
      </trkpt>
      <trkpt lat="47.32517" lon="-1.34866">
        <ele>127</ele>
        <time>2020-12-20T10:34:38.962000+00:00</time>
      </trkpt>
      <trkpt lat="0" lon="0">
        <time>2020-12-20T10:34:38.979000+00:00</time>
      </trkpt>
      <trkpt lat="0" lon="0">
        <time>2020-12-20T10:34:38.987000+00:00</time>
      </trkpt>
      <trkpt lat="0" lon="0">
        <time>2020-12-20T10:34:38.989000+00:00</time>
      </trkpt>
      <trkpt lat="47.32515" lon="-1.34865">
        <ele>127</ele>
        <time>2020-12-20T10:34:39.951000+00:00</time>
      </trkpt>
      <trkpt lat="0" lon="0">
        <time>2020-12-20T10:34:39.959000+00:00</time>
      </trkpt>
      <trkpt lat="0" lon="0">
        <time>2020-12-20T10:34:39.963000+00:00</time>
      </trkpt>
      <trkpt lat="0" lon="0">
        <time>2020-12-20T10:34:39.966000+00:00</time>
      </trkpt>
      <trkpt lat="47.32513" lon="-1.34864">
        <ele>126</ele>
        <time>2020-12-20T10:34:40.936000+00:00</time>
      </trkpt>
      <trkpt lat="0" lon="0">
        <time>2020-12-20T10:34:40.950000+00:00</time>
      </trkpt>
      <trkpt lat="0" lon="0">
        <time>2020-12-20T10:34:40.953000+00:00</time>
      </trkpt>
      <trkpt lat="0" lon="0">
        <time>2020-12-20T10:34:40.954000+00:00</time>
      </trkpt>
      <trkpt lat="47.3251" lon="-1.34863">
        <ele>126</ele>
        <time>2020-12-20T10:34:42.002000+00:00</time>
      </trkpt>
      <trkpt lat="0" lon="0">
        <time>2020-12-20T10:34:42.011000+00:00</time>
      </trkpt>
      <trkpt lat="0" lon="0">
        <time>2020-12-20T10:34:42.017000+00:00</time>
      </trkpt>
      <trkpt lat="0" lon="0">
        <time>2020-12-20T10:34:42.019000+00:00</time>
      </trkpt>
      <trkpt lat="47.32508" lon="-1.34862">
        <ele>126</ele>
        <time>2020-12-20T10:34:42.941000+00:00</time>
      </trkpt>
      <trkpt lat="0" lon="0">
        <time>2020-12-20T10:34:42.950000+00:00</time>
      </trkpt>
      <trkpt lat="0" lon="0">
        <time>2020-12-20T10:34:42.954000+00:00</time>
      </trkpt>
      <trkpt lat="0" lon="0">
        <time>2020-12-20T10:34:42.958000+00:00</time>
      </trkpt>
      <trkpt lat="47.32505" lon="-1.34861">
        <ele>126</ele>
        <time>2020-12-20T10:34:43.962000+00:00</time>
      </trkpt>
      <trkpt lat="0" lon="0">
        <time>2020-12-20T10:34:43.975000+00:00</time>
      </trkpt>
      <trkpt lat="0" lon="0">
        <time>2020-12-20T10:34:43.986000+00:00</time>
      </trkpt>
      <trkpt lat="0" lon="0">
        <time>2020-12-20T10:34:43.988000+00:00</time>
      </trkpt>
      <trkpt lat="47.32502" lon="-1.3486">
        <ele>126</ele>
        <time>2020-12-20T10:34:44.963000+00:00</time>
      </trkpt>
      <trkpt lat="0" lon="0">
        <time>2020-12-20T10:34:44.980000+00:00</time>
      </trkpt>
      <trkpt lat="0" lon="0">
        <time>2020-12-20T10:34:44.989000+00:00</time>
      </trkpt>
      <trkpt lat="0" lon="0">
        <time>2020-12-20T10:34:44.995000+00:00</time>
      </trkpt>
      <trkpt lat="47.32499" lon="-1.3486">
        <ele>126</ele>
        <time>2020-12-20T10:34:45.955000+00:00</time>
      </trkpt>
      <trkpt lat="0" lon="0">
        <time>2020-12-20T10:34:45.962000+00:00</time>
      </trkpt>
      <trkpt lat="0" lon="0">
        <time>2020-12-20T10:34:45.966000+00:00</time>
      </trkpt>
      <trkpt lat="0" lon="0">
        <time>2020-12-20T10:34:45.970000+00:00</time>
      </trkpt>
      <trkpt lat="47.32496" lon="-1.34859">
        <ele>126</ele>
        <time>2020-12-20T10:34:46.976000+00:00</time>
      </trkpt>
      <trkpt lat="0" lon="0">
        <time>2020-12-20T10:34:46.985000+00:00</time>
      </trkpt>
      <trkpt lat="0" lon="0">
        <time>2020-12-20T10:34:46.991000+00:00</time>
      </trkpt>
      <trkpt lat="0" lon="0">
        <time>2020-12-20T10:34:46.994000+00:00</time>
      </trkpt>
      <trkpt lat="47.32493" lon="-1.34859">
        <ele>126</ele>
        <time>2020-12-20T10:34:47.974000+00:00</time>
      </trkpt>
      <trkpt lat="0" lon="0">
        <time>2020-12-20T10:34:47.979000+00:00</time>
      </trkpt>
      <trkpt lat="0" lon="0">
        <time>2020-12-20T10:34:47.985000+00:00</time>
      </trkpt>
      <trkpt lat="0" lon="0">
        <time>2020-12-20T10:34:47.992000+00:00</time>
      </trkpt>
      <trkpt lat="47.3249" lon="-1.34859">
        <ele>126</ele>
        <time>2020-12-20T10:34:48.975000+00:00</time>
      </trkpt>
      <trkpt lat="0" lon="0">
        <time>2020-12-20T10:34:48.984000+00:00</time>
      </trkpt>
      <trkpt lat="0" lon="0">
        <time>2020-12-20T10:34:48.988000+00:00</time>
      </trkpt>
      <trkpt lat="0" lon="0">
        <time>2020-12-20T10:34:48.991000+00:00</time>
      </trkpt>
      <trkpt lat="47.32487" lon="-1.34858">
        <ele>126</ele>
        <time>2020-12-20T10:34:49.991000+00:00</time>
      </trkpt>
      <trkpt lat="0" lon="0">
        <time>2020-12-20T10:34:50.003000+00:00</time>
      </trkpt>
      <trkpt lat="0" lon="0">
        <time>2020-12-20T10:34:50.008000+00:00</time>
      </trkpt>
      <trkpt lat="0" lon="0">
        <time>2020-12-20T10:34:50.011000+00:00</time>
      </trkpt>
      <trkpt lat="47.32484" lon="-1.34858">
        <ele>126</ele>
        <time>2020-12-20T10:34:50.952000+00:00</time>
      </trkpt>
      <trkpt lat="0" lon="0">
        <time>2020-12-20T10:34:50.968000+00:00</time>
      </trkpt>
      <trkpt lat="0" lon="0">
        <time>2020-12-20T10:34:50.970000+00:00</time>
      </trkpt>
      <trkpt lat="0" lon="0">
        <time>2020-12-20T10:34:50.971000+00:00</time>
      </trkpt>
      <trkpt lat="47.32481" lon="-1.34857">
        <ele>125</ele>
        <time>2020-12-20T10:34:51.962000+00:00</time>
      </trkpt>
      <trkpt lat="0" lon="0">
        <time>2020-12-20T10:34:51.971000+00:00</time>
      </trkpt>
      <trkpt lat="0" lon="0">
        <time>2020-12-20T10:34:51.980000+00:00</time>
      </trkpt>
      <trkpt lat="0" lon="0">
        <time>2020-12-20T10:34:51.982000+00:00</time>
      </trkpt>
      <trkpt lat="47.32478" lon="-1.34856">
        <ele>125</ele>
        <time>2020-12-20T10:34:52.990000+00:00</time>
      </trkpt>
      <trkpt lat="0" lon="0">
        <time>2020-12-20T10:34:52.995000+00:00</time>
      </trkpt>
      <trkpt lat="0" lon="0">
        <time>2020-12-20T10:34:52.999000+00:00</time>
      </trkpt>
      <trkpt lat="0" lon="0">
        <time>2020-12-20T10:34:53.001000+00:00</time>
      </trkpt>
      <trkpt lat="47.32475" lon="-1.34856">
        <ele>124</ele>
        <time>2020-12-20T10:34:53.935000+00:00</time>
      </trkpt>
      <trkpt lat="0" lon="0">
        <time>2020-12-20T10:34:53.941000+00:00</time>
      </trkpt>
      <trkpt lat="0" lon="0">
        <time>2020-12-20T10:34:53.944000+00:00</time>
      </trkpt>
      <trkpt lat="0" lon="0">
        <time>2020-12-20T10:34:53.947000+00:00</time>
      </trkpt>
      <trkpt lat="47.32472" lon="-1.34855">
        <ele>124</ele>
        <time>2020-12-20T10:34:54.949000+00:00</time>
      </trkpt>
      <trkpt lat="0" lon="0">
        <time>2020-12-20T10:34:54.959000+00:00</time>
      </trkpt>
      <trkpt lat="0" lon="0">
        <time>2020-12-20T10:34:54.964000+00:00</time>
      </trkpt>
      <trkpt lat="0" lon="0">
        <time>2020-12-20T10:34:54.966000+00:00</time>
      </trkpt>
      <trkpt lat="47.32469" lon="-1.34854">
        <ele>124</ele>
        <time>2020-12-20T10:34:55.981000+00:00</time>
      </trkpt>
      <trkpt lat="0" lon="0">
        <time>2020-12-20T10:34:56.001000+00:00</time>
      </trkpt>
      <trkpt lat="0" lon="0">
        <time>2020-12-20T10:34:56.009000+00:00</time>
      </trkpt>
      <trkpt lat="0" lon="0">
        <time>2020-12-20T10:34:56.013000+00:00</time>
      </trkpt>
      <trkpt lat="47.32466" lon="-1.34853">
        <ele>124</ele>
        <time>2020-12-20T10:34:56.984000+00:00</time>
      </trkpt>
      <trkpt lat="0" lon="0">
        <time>2020-12-20T10:34:56.990000+00:00</time>
      </trkpt>
      <trkpt lat="0" lon="0">
        <time>2020-12-20T10:34:56.994000+00:00</time>
      </trkpt>
      <trkpt lat="0" lon="0">
        <time>2020-12-20T10:34:56.997000+00:00</time>
      </trkpt>
      <trkpt lat="47.32463" lon="-1.34852">
        <ele>124</ele>
        <time>2020-12-20T10:34:57.991000+00:00</time>
      </trkpt>
      <trkpt lat="0" lon="0">
        <time>2020-12-20T10:34:57.999000+00:00</time>
      </trkpt>
      <trkpt lat="0" lon="0">
        <time>2020-12-20T10:34:58.005000+00:00</time>
      </trkpt>
      <trkpt lat="0" lon="0">
        <time>2020-12-20T10:34:58.009000+00:00</time>
      </trkpt>
      <trkpt lat="47.3246" lon="-1.3485">
        <ele>124</ele>
        <time>2020-12-20T10:34:58.930000+00:00</time>
      </trkpt>
      <trkpt lat="0" lon="0">
        <time>2020-12-20T10:34:58.937000+00:00</time>
      </trkpt>
      <trkpt lat="0" lon="0">
        <time>2020-12-20T10:34:58.941000+00:00</time>
      </trkpt>
      <trkpt lat="0" lon="0">
        <time>2020-12-20T10:34:58.945000+00:00</time>
      </trkpt>
      <trkpt lat="47.32457" lon="-1.34849">
        <ele>124</ele>
        <time>2020-12-20T10:34:59.985000+00:00</time>
      </trkpt>
      <trkpt lat="0" lon="0">
        <time>2020-12-20T10:34:59.994000+00:00</time>
      </trkpt>
      <trkpt lat="0" lon="0">
        <time>2020-12-20T10:34:59.999000+00:00</time>
      </trkpt>
      <trkpt lat="0" lon="0">
        <time>2020-12-20T10:35:00.002000+00:00</time>
      </trkpt>
      <trkpt lat="47.32454" lon="-1.34847">
        <ele>124</ele>
        <time>2020-12-20T10:35:00.967000+00:00</time>
      </trkpt>
      <trkpt lat="0" lon="0">
        <time>2020-12-20T10:35:00.982000+00:00</time>
      </trkpt>
      <trkpt lat="0" lon="0">
        <time>2020-12-20T10:35:00.987000+00:00</time>
      </trkpt>
      <trkpt lat="0" lon="0">
        <time>2020-12-20T10:35:00.990000+00:00</time>
      </trkpt>
      <trkpt lat="47.32451" lon="-1.34846">
        <ele>124</ele>
        <time>2020-12-20T10:35:02.003000+00:00</time>
      </trkpt>
      <trkpt lat="0" lon="0">
        <time>2020-12-20T10:35:02.018000+00:00</time>
      </trkpt>
      <trkpt lat="0" lon="0">
        <time>2020-12-20T10:35:02.022000+00:00</time>
      </trkpt>
      <trkpt lat="0" lon="0">
        <time>2020-12-20T10:35:02.023000+00:00</time>
      </trkpt>
      <trkpt lat="47.32448" lon="-1.34844">
        <ele>124</ele>
        <time>2020-12-20T10:35:02.957000+00:00</time>
      </trkpt>
      <trkpt lat="0" lon="0">
        <time>2020-12-20T10:35:02.966000+00:00</time>
      </trkpt>
      <trkpt lat="0" lon="0">
        <time>2020-12-20T10:35:02.971000+00:00</time>
      </trkpt>
      <trkpt lat="0" lon="0">
        <time>2020-12-20T10:35:02.974000+00:00</time>
      </trkpt>
      <trkpt lat="47.32445" lon="-1.34842">
        <ele>123</ele>
        <time>2020-12-20T10:35:03.930000+00:00</time>
      </trkpt>
      <trkpt lat="0" lon="0">
        <time>2020-12-20T10:35:03.938000+00:00</time>
      </trkpt>
      <trkpt lat="0" lon="0">
        <time>2020-12-20T10:35:03.942000+00:00</time>
      </trkpt>
      <trkpt lat="0" lon="0">
        <time>2020-12-20T10:35:03.945000+00:00</time>
      </trkpt>
      <trkpt lat="47.32443" lon="-1.3484">
        <ele>123</ele>
        <time>2020-12-20T10:35:04.960000+00:00</time>
      </trkpt>
      <trkpt lat="0" lon="0">
        <time>2020-12-20T10:35:04.975000+00:00</time>
      </trkpt>
      <trkpt lat="0" lon="0">
        <time>2020-12-20T10:35:04.980000+00:00</time>
      </trkpt>
      <trkpt lat="0" lon="0">
        <time>2020-12-20T10:35:04.988000+00:00</time>
      </trkpt>
      <trkpt lat="47.32441" lon="-1.34838">
        <ele>123</ele>
        <time>2020-12-20T10:35:05.991000+00:00</time>
      </trkpt>
      <trkpt lat="0" lon="0">
        <time>2020-12-20T10:35:06.003000+00:00</time>
      </trkpt>
      <trkpt lat="0" lon="0">
        <time>2020-12-20T10:35:06.007000+00:00</time>
      </trkpt>
      <trkpt lat="0" lon="0">
        <time>2020-12-20T10:35:06.009000+00:00</time>
      </trkpt>
      <trkpt lat="47.32438" lon="-1.34837">
        <ele>123</ele>
        <time>2020-12-20T10:35:06.953000+00:00</time>
      </trkpt>
      <trkpt lat="0" lon="0">
        <time>2020-12-20T10:35:06.959000+00:00</time>
      </trkpt>
      <trkpt lat="0" lon="0">
        <time>2020-12-20T10:35:06.969000+00:00</time>
      </trkpt>
      <trkpt lat="0" lon="0">
        <time>2020-12-20T10:35:06.971000+00:00</time>
      </trkpt>
      <trkpt lat="47.32436" lon="-1.34835">
        <ele>123</ele>
        <time>2020-12-20T10:35:07.949000+00:00</time>
      </trkpt>
      <trkpt lat="0" lon="0">
        <time>2020-12-20T10:35:07.958000+00:00</time>
      </trkpt>
      <trkpt lat="0" lon="0">
        <time>2020-12-20T10:35:07.962000+00:00</time>
      </trkpt>
      <trkpt lat="0" lon="0">
        <time>2020-12-20T10:35:07.965000+00:00</time>
      </trkpt>
      <trkpt lat="47.32434" lon="-1.34833">
        <ele>123</ele>
        <time>2020-12-20T10:35:08.956000+00:00</time>
      </trkpt>
      <trkpt lat="0" lon="0">
        <time>2020-12-20T10:35:08.966000+00:00</time>
      </trkpt>
      <trkpt lat="0" lon="0">
        <time>2020-12-20T10:35:08.970000+00:00</time>
      </trkpt>
      <trkpt lat="0" lon="0">
        <time>2020-12-20T10:35:08.973000+00:00</time>
      </trkpt>
      <trkpt lat="47.32432" lon="-1.34832">
        <ele>123</ele>
        <time>2020-12-20T10:35:09.941000+00:00</time>
      </trkpt>
      <trkpt lat="0" lon="0">
        <time>2020-12-20T10:35:09.945000+00:00</time>
      </trkpt>
      <trkpt lat="0" lon="0">
        <time>2020-12-20T10:35:09.959000+00:00</time>
      </trkpt>
      <trkpt lat="0" lon="0">
        <time>2020-12-20T10:35:09.962000+00:00</time>
      </trkpt>
      <trkpt lat="47.3243" lon="-1.3483">
        <ele>123</ele>
        <time>2020-12-20T10:35:10.914000+00:00</time>
      </trkpt>
      <trkpt lat="0" lon="0">
        <time>2020-12-20T10:35:10.930000+00:00</time>
      </trkpt>
      <trkpt lat="0" lon="0">
        <time>2020-12-20T10:35:10.937000+00:00</time>
      </trkpt>
      <trkpt lat="0" lon="0">
        <time>2020-12-20T10:35:10.942000+00:00</time>
      </trkpt>
      <trkpt lat="47.32428" lon="-1.34828">
        <ele>123</ele>
        <time>2020-12-20T10:35:11.940000+00:00</time>
      </trkpt>
      <trkpt lat="0" lon="0">
        <time>2020-12-20T10:35:11.965000+00:00</time>
      </trkpt>
      <trkpt lat="0" lon="0">
        <time>2020-12-20T10:35:11.969000+00:00</time>
      </trkpt>
      <trkpt lat="0" lon="0">
        <time>2020-12-20T10:35:11.971000+00:00</time>
      </trkpt>
      <trkpt lat="47.32426" lon="-1.34827">
        <ele>123</ele>
        <time>2020-12-20T10:35:12.958000+00:00</time>
      </trkpt>
      <trkpt lat="0" lon="0">
        <time>2020-12-20T10:35:12.972000+00:00</time>
      </trkpt>
      <trkpt lat="0" lon="0">
        <time>2020-12-20T10:35:12.987000+00:00</time>
      </trkpt>
      <trkpt lat="0" lon="0">
        <time>2020-12-20T10:35:12.990000+00:00</time>
      </trkpt>
      <trkpt lat="47.32425" lon="-1.34826">
        <ele>123</ele>
        <time>2020-12-20T10:35:13.955000+00:00</time>
      </trkpt>
      <trkpt lat="0" lon="0">
        <time>2020-12-20T10:35:13.957000+00:00</time>
      </trkpt>
      <trkpt lat="0" lon="0">
        <time>2020-12-20T10:35:13.961000+00:00</time>
      </trkpt>
      <trkpt lat="0" lon="0">
        <time>2020-12-20T10:35:13.963000+00:00</time>
      </trkpt>
      <trkpt lat="47.32423" lon="-1.34825">
        <ele>124</ele>
        <time>2020-12-20T10:35:14.971000+00:00</time>
      </trkpt>
      <trkpt lat="0" lon="0">
        <time>2020-12-20T10:35:14.991000+00:00</time>
      </trkpt>
      <trkpt lat="0" lon="0">
        <time>2020-12-20T10:35:15+00:00</time>
      </trkpt>
      <trkpt lat="0" lon="0">
        <time>2020-12-20T10:35:15.003000+00:00</time>
      </trkpt>
      <trkpt lat="47.32422" lon="-1.34823">
        <ele>125</ele>
        <time>2020-12-20T10:35:15.948000+00:00</time>
      </trkpt>
      <trkpt lat="0" lon="0">
        <time>2020-12-20T10:35:15.965000+00:00</time>
      </trkpt>
      <trkpt lat="0" lon="0">
        <time>2020-12-20T10:35:15.976000+00:00</time>
      </trkpt>
      <trkpt lat="0" lon="0">
        <time>2020-12-20T10:35:15.980000+00:00</time>
      </trkpt>
      <trkpt lat="47.32421" lon="-1.34822">
        <ele>126</ele>
        <time>2020-12-20T10:35:16.944000+00:00</time>
      </trkpt>
      <trkpt lat="0" lon="0">
        <time>2020-12-20T10:35:16.958000+00:00</time>
      </trkpt>
      <trkpt lat="0" lon="0">
        <time>2020-12-20T10:35:16.961000+00:00</time>
      </trkpt>
      <trkpt lat="0" lon="0">
        <time>2020-12-20T10:35:16.962000+00:00</time>
      </trkpt>
      <trkpt lat="47.32421" lon="-1.34821">
        <ele>127</ele>
        <time>2020-12-20T10:35:17.953000+00:00</time>
      </trkpt>
      <trkpt lat="0" lon="0">
        <time>2020-12-20T10:35:17.959000+00:00</time>
      </trkpt>
      <trkpt lat="0" lon="0">
        <time>2020-12-20T10:35:17.963000+00:00</time>
      </trkpt>
      <trkpt lat="0" lon="0">
        <time>2020-12-20T10:35:17.969000+00:00</time>
      </trkpt>
      <trkpt lat="47.3242" lon="-1.3482">
        <ele>127</ele>
        <time>2020-12-20T10:35:18.975000+00:00</time>
      </trkpt>
      <trkpt lat="0" lon="0">
        <time>2020-12-20T10:35:18.985000+00:00</time>
      </trkpt>
      <trkpt lat="0" lon="0">
        <time>2020-12-20T10:35:18.990000+00:00</time>
      </trkpt>
      <trkpt lat="0" lon="0">
        <time>2020-12-20T10:35:18.993000+00:00</time>
      </trkpt>
      <trkpt lat="47.32419" lon="-1.34819">
        <ele>127</ele>
        <time>2020-12-20T10:35:19.948000+00:00</time>
      </trkpt>
      <trkpt lat="0" lon="0">
        <time>2020-12-20T10:35:19.954000+00:00</time>
      </trkpt>
      <trkpt lat="0" lon="0">
        <time>2020-12-20T10:35:19.958000+00:00</time>
      </trkpt>
      <trkpt lat="0" lon="0">
        <time>2020-12-20T10:35:19.962000+00:00</time>
      </trkpt>
      <trkpt lat="47.32418" lon="-1.34818">
        <ele>127</ele>
        <time>2020-12-20T10:35:20.940000+00:00</time>
      </trkpt>
      <trkpt lat="0" lon="0">
        <time>2020-12-20T10:35:20.964000+00:00</time>
      </trkpt>
      <trkpt lat="0" lon="0">
        <time>2020-12-20T10:35:20.976000+00:00</time>
      </trkpt>
      <trkpt lat="0" lon="0">
        <time>2020-12-20T10:35:20.983000+00:00</time>
      </trkpt>
      <trkpt lat="47.32416" lon="-1.34816">
        <ele>127</ele>
        <time>2020-12-20T10:35:21.990000+00:00</time>
      </trkpt>
      <trkpt lat="0" lon="0">
        <time>2020-12-20T10:35:21.998000+00:00</time>
      </trkpt>
      <trkpt lat="0" lon="0">
        <time>2020-12-20T10:35:22.002000+00:00</time>
      </trkpt>
      <trkpt lat="0" lon="0">
        <time>2020-12-20T10:35:22.004000+00:00</time>
      </trkpt>
      <trkpt lat="47.32414" lon="-1.34814">
        <ele>126</ele>
        <time>2020-12-20T10:35:22.978000+00:00</time>
      </trkpt>
      <trkpt lat="0" lon="0">
        <time>2020-12-20T10:35:22.992000+00:00</time>
      </trkpt>
      <trkpt lat="0" lon="0">
        <time>2020-12-20T10:35:23.001000+00:00</time>
      </trkpt>
      <trkpt lat="0" lon="0">
        <time>2020-12-20T10:35:23.003000+00:00</time>
      </trkpt>
      <trkpt lat="47.32412" lon="-1.34813">
        <ele>126</ele>
        <time>2020-12-20T10:35:23.965000+00:00</time>
      </trkpt>
      <trkpt lat="0" lon="0">
        <time>2020-12-20T10:35:23.979000+00:00</time>
      </trkpt>
      <trkpt lat="0" lon="0">
        <time>2020-12-20T10:35:23.982000+00:00</time>
      </trkpt>
      <trkpt lat="0" lon="0">
        <time>2020-12-20T10:35:23.985000+00:00</time>
      </trkpt>
      <trkpt lat="47.3241" lon="-1.3481">
        <ele>126</ele>
        <time>2020-12-20T10:35:24.946000+00:00</time>
      </trkpt>
      <trkpt lat="0" lon="0">
        <time>2020-12-20T10:35:24.949000+00:00</time>
      </trkpt>
      <trkpt lat="0" lon="0">
        <time>2020-12-20T10:35:24.952000+00:00</time>
      </trkpt>
      <trkpt lat="47.32407" lon="-1.34808">
        <ele>125</ele>
        <time>2020-12-20T10:35:25.984000+00:00</time>
      </trkpt>
      <trkpt lat="0" lon="0">
        <time>2020-12-20T10:35:25.994000+00:00</time>
      </trkpt>
      <trkpt lat="0" lon="0">
        <time>2020-12-20T10:35:25.998000+00:00</time>
      </trkpt>
      <trkpt lat="0" lon="0">
        <time>2020-12-20T10:35:26+00:00</time>
      </trkpt>
      <trkpt lat="47.32404" lon="-1.34805">
        <ele>124</ele>
        <time>2020-12-20T10:35:26.961000+00:00</time>
      </trkpt>
      <trkpt lat="0" lon="0">
        <time>2020-12-20T10:35:26.969000+00:00</time>
      </trkpt>
      <trkpt lat="0" lon="0">
        <time>2020-12-20T10:35:26.975000+00:00</time>
      </trkpt>
      <trkpt lat="0" lon="0">
        <time>2020-12-20T10:35:26.980000+00:00</time>
      </trkpt>
      <trkpt lat="47.32401" lon="-1.34802">
        <ele>124</ele>
        <time>2020-12-20T10:35:28.006000+00:00</time>
      </trkpt>
      <trkpt lat="0" lon="0">
        <time>2020-12-20T10:35:28.013000+00:00</time>
      </trkpt>
      <trkpt lat="0" lon="0">
        <time>2020-12-20T10:35:28.027000+00:00</time>
      </trkpt>
      <trkpt lat="0" lon="0">
        <time>2020-12-20T10:35:28.030000+00:00</time>
      </trkpt>
      <trkpt lat="47.32398" lon="-1.348">
        <ele>124</ele>
        <time>2020-12-20T10:35:28.959000+00:00</time>
      </trkpt>
      <trkpt lat="0" lon="0">
        <time>2020-12-20T10:35:28.967000+00:00</time>
      </trkpt>
      <trkpt lat="0" lon="0">
        <time>2020-12-20T10:35:28.974000+00:00</time>
      </trkpt>
      <trkpt lat="0" lon="0">
        <time>2020-12-20T10:35:28.976000+00:00</time>
      </trkpt>
      <trkpt lat="47.32395" lon="-1.34797">
        <ele>124</ele>
        <time>2020-12-20T10:35:29.980000+00:00</time>
      </trkpt>
      <trkpt lat="0" lon="0">
        <time>2020-12-20T10:35:29.993000+00:00</time>
      </trkpt>
      <trkpt lat="0" lon="0">
        <time>2020-12-20T10:35:30.002000+00:00</time>
      </trkpt>
      <trkpt lat="0" lon="0">
        <time>2020-12-20T10:35:30.011000+00:00</time>
      </trkpt>
      <trkpt lat="47.32392" lon="-1.34794">
        <ele>124</ele>
        <time>2020-12-20T10:35:30.939000+00:00</time>
      </trkpt>
      <trkpt lat="0" lon="0">
        <time>2020-12-20T10:35:30.957000+00:00</time>
      </trkpt>
      <trkpt lat="0" lon="0">
        <time>2020-12-20T10:35:30.962000+00:00</time>
      </trkpt>
      <trkpt lat="0" lon="0">
        <time>2020-12-20T10:35:30.965000+00:00</time>
      </trkpt>
      <trkpt lat="47.32389" lon="-1.34791">
        <ele>124</ele>
        <time>2020-12-20T10:35:31.968000+00:00</time>
      </trkpt>
      <trkpt lat="0" lon="0">
        <time>2020-12-20T10:35:31.978000+00:00</time>
      </trkpt>
      <trkpt lat="0" lon="0">
        <time>2020-12-20T10:35:31.983000+00:00</time>
      </trkpt>
      <trkpt lat="0" lon="0">
        <time>2020-12-20T10:35:31.986000+00:00</time>
      </trkpt>
      <trkpt lat="47.32386" lon="-1.34788">
        <ele>124</ele>
        <time>2020-12-20T10:35:32.987000+00:00</time>
      </trkpt>
      <trkpt lat="0" lon="0">
        <time>2020-12-20T10:35:32.993000+00:00</time>
      </trkpt>
      <trkpt lat="0" lon="0">
        <time>2020-12-20T10:35:32.999000+00:00</time>
      </trkpt>
      <trkpt lat="0" lon="0">
        <time>2020-12-20T10:35:33.001000+00:00</time>
      </trkpt>
      <trkpt lat="47.32382" lon="-1.34785">
        <ele>124</ele>
        <time>2020-12-20T10:35:33.985000+00:00</time>
      </trkpt>
      <trkpt lat="0" lon="0">
        <time>2020-12-20T10:35:33.999000+00:00</time>
      </trkpt>
      <trkpt lat="0" lon="0">
        <time>2020-12-20T10:35:34.006000+00:00</time>
      </trkpt>
      <trkpt lat="0" lon="0">
        <time>2020-12-20T10:35:34.011000+00:00</time>
      </trkpt>
      <trkpt lat="47.32379" lon="-1.34781">
        <ele>123</ele>
        <time>2020-12-20T10:35:34.954000+00:00</time>
      </trkpt>
      <trkpt lat="0" lon="0">
        <time>2020-12-20T10:35:34.960000+00:00</time>
      </trkpt>
      <trkpt lat="0" lon="0">
        <time>2020-12-20T10:35:34.965000+00:00</time>
      </trkpt>
      <trkpt lat="0" lon="0">
        <time>2020-12-20T10:35:34.967000+00:00</time>
      </trkpt>
      <trkpt lat="47.32376" lon="-1.34778">
        <ele>123</ele>
        <time>2020-12-20T10:35:35.970000+00:00</time>
      </trkpt>
      <trkpt lat="0" lon="0">
        <time>2020-12-20T10:35:35.983000+00:00</time>
      </trkpt>
      <trkpt lat="0" lon="0">
        <time>2020-12-20T10:35:35.994000+00:00</time>
      </trkpt>
      <trkpt lat="0" lon="0">
        <time>2020-12-20T10:35:35.996000+00:00</time>
      </trkpt>
      <trkpt lat="47.32372" lon="-1.34774">
        <ele>123</ele>
        <time>2020-12-20T10:35:36.966000+00:00</time>
      </trkpt>
      <trkpt lat="0" lon="0">
        <time>2020-12-20T10:35:36.973000+00:00</time>
      </trkpt>
      <trkpt lat="0" lon="0">
        <time>2020-12-20T10:35:36.979000+00:00</time>
      </trkpt>
      <trkpt lat="0" lon="0">
        <time>2020-12-20T10:35:36.982000+00:00</time>
      </trkpt>
      <trkpt lat="47.32369" lon="-1.34771">
        <ele>122</ele>
        <time>2020-12-20T10:35:37.993000+00:00</time>
      </trkpt>
      <trkpt lat="0" lon="0">
        <time>2020-12-20T10:35:38.002000+00:00</time>
      </trkpt>
      <trkpt lat="0" lon="0">
        <time>2020-12-20T10:35:38.006000+00:00</time>
      </trkpt>
      <trkpt lat="0" lon="0">
        <time>2020-12-20T10:35:38.008000+00:00</time>
      </trkpt>
      <trkpt lat="47.32365" lon="-1.34767">
        <ele>122</ele>
        <time>2020-12-20T10:35:38.974000+00:00</time>
      </trkpt>
      <trkpt lat="0" lon="0">
        <time>2020-12-20T10:35:38.982000+00:00</time>
      </trkpt>
      <trkpt lat="0" lon="0">
        <time>2020-12-20T10:35:38.986000+00:00</time>
      </trkpt>
      <trkpt lat="0" lon="0">
        <time>2020-12-20T10:35:38.989000+00:00</time>
      </trkpt>
      <trkpt lat="47.32361" lon="-1.34764">
        <ele>122</ele>
        <time>2020-12-20T10:35:39.957000+00:00</time>
      </trkpt>
      <trkpt lat="0" lon="0">
        <time>2020-12-20T10:35:39.974000+00:00</time>
      </trkpt>
      <trkpt lat="0" lon="0">
        <time>2020-12-20T10:35:39.979000+00:00</time>
      </trkpt>
      <trkpt lat="0" lon="0">
        <time>2020-12-20T10:35:39.982000+00:00</time>
      </trkpt>
      <trkpt lat="47.32358" lon="-1.3476">
        <ele>121</ele>
        <time>2020-12-20T10:35:40.924000+00:00</time>
      </trkpt>
      <trkpt lat="0" lon="0">
        <time>2020-12-20T10:35:40.936000+00:00</time>
      </trkpt>
      <trkpt lat="0" lon="0">
        <time>2020-12-20T10:35:40.939000+00:00</time>
      </trkpt>
      <trkpt lat="0" lon="0">
        <time>2020-12-20T10:35:40.943000+00:00</time>
      </trkpt>
      <trkpt lat="47.32354" lon="-1.34757">
        <ele>122</ele>
        <time>2020-12-20T10:35:41.980000+00:00</time>
      </trkpt>
      <trkpt lat="0" lon="0">
        <time>2020-12-20T10:35:41.988000+00:00</time>
      </trkpt>
      <trkpt lat="0" lon="0">
        <time>2020-12-20T10:35:41.991000+00:00</time>
      </trkpt>
      <trkpt lat="0" lon="0">
        <time>2020-12-20T10:35:41.995000+00:00</time>
      </trkpt>
      <trkpt lat="47.32351" lon="-1.34753">
        <ele>122</ele>
        <time>2020-12-20T10:35:42.969000+00:00</time>
      </trkpt>
      <trkpt lat="0" lon="0">
        <time>2020-12-20T10:35:42.986000+00:00</time>
      </trkpt>
      <trkpt lat="0" lon="0">
        <time>2020-12-20T10:35:42.996000+00:00</time>
      </trkpt>
      <trkpt lat="0" lon="0">
        <time>2020-12-20T10:35:42.998000+00:00</time>
      </trkpt>
      <trkpt lat="47.32347" lon="-1.3475">
        <ele>122</ele>
        <time>2020-12-20T10:35:44.004000+00:00</time>
      </trkpt>
      <trkpt lat="0" lon="0">
        <time>2020-12-20T10:35:44.014000+00:00</time>
      </trkpt>
      <trkpt lat="0" lon="0">
        <time>2020-12-20T10:35:44.018000+00:00</time>
      </trkpt>
      <trkpt lat="0" lon="0">
        <time>2020-12-20T10:35:44.020000+00:00</time>
      </trkpt>
      <trkpt lat="47.32343" lon="-1.34747">
        <ele>122</ele>
        <time>2020-12-20T10:35:44.959000+00:00</time>
      </trkpt>
      <trkpt lat="0" lon="0">
        <time>2020-12-20T10:35:44.976000+00:00</time>
      </trkpt>
      <trkpt lat="0" lon="0">
        <time>2020-12-20T10:35:44.986000+00:00</time>
      </trkpt>
      <trkpt lat="0" lon="0">
        <time>2020-12-20T10:35:44.990000+00:00</time>
      </trkpt>
      <trkpt lat="47.3234" lon="-1.34745">
        <ele>122</ele>
        <time>2020-12-20T10:35:45.953000+00:00</time>
      </trkpt>
      <trkpt lat="0" lon="0">
        <time>2020-12-20T10:35:45.963000+00:00</time>
      </trkpt>
      <trkpt lat="0" lon="0">
        <time>2020-12-20T10:35:45.967000+00:00</time>
      </trkpt>
      <trkpt lat="0" lon="0">
        <time>2020-12-20T10:35:45.971000+00:00</time>
      </trkpt>
      <trkpt lat="47.32337" lon="-1.34742">
        <ele>122</ele>
        <time>2020-12-20T10:35:46.975000+00:00</time>
      </trkpt>
      <trkpt lat="0" lon="0">
        <time>2020-12-20T10:35:46.984000+00:00</time>
      </trkpt>
      <trkpt lat="0" lon="0">
        <time>2020-12-20T10:35:46.989000+00:00</time>
      </trkpt>
      <trkpt lat="0" lon="0">
        <time>2020-12-20T10:35:46.992000+00:00</time>
      </trkpt>
      <trkpt lat="47.32334" lon="-1.3474">
        <ele>122</ele>
        <time>2020-12-20T10:35:47.967000+00:00</time>
      </trkpt>
      <trkpt lat="0" lon="0">
        <time>2020-12-20T10:35:47.983000+00:00</time>
      </trkpt>
      <trkpt lat="0" lon="0">
        <time>2020-12-20T10:35:47.987000+00:00</time>
      </trkpt>
      <trkpt lat="0" lon="0">
        <time>2020-12-20T10:35:47.990000+00:00</time>
      </trkpt>
      <trkpt lat="47.32331" lon="-1.34739">
        <ele>122</ele>
        <time>2020-12-20T10:35:48.958000+00:00</time>
      </trkpt>
      <trkpt lat="0" lon="0">
        <time>2020-12-20T10:35:48.968000+00:00</time>
      </trkpt>
      <trkpt lat="0" lon="0">
        <time>2020-12-20T10:35:48.973000+00:00</time>
      </trkpt>
      <trkpt lat="0" lon="0">
        <time>2020-12-20T10:35:48.975000+00:00</time>
      </trkpt>
      <trkpt lat="47.32328" lon="-1.34737">
        <ele>122</ele>
        <time>2020-12-20T10:35:49.954000+00:00</time>
      </trkpt>
      <trkpt lat="0" lon="0">
        <time>2020-12-20T10:35:49.972000+00:00</time>
      </trkpt>
      <trkpt lat="0" lon="0">
        <time>2020-12-20T10:35:49.976000+00:00</time>
      </trkpt>
      <trkpt lat="0" lon="0">
        <time>2020-12-20T10:35:49.982000+00:00</time>
      </trkpt>
      <trkpt lat="47.32325" lon="-1.34735">
        <ele>122</ele>
        <time>2020-12-20T10:35:50.978000+00:00</time>
      </trkpt>
      <trkpt lat="0" lon="0">
        <time>2020-12-20T10:35:50.996000+00:00</time>
      </trkpt>
      <trkpt lat="0" lon="0">
        <time>2020-12-20T10:35:51.004000+00:00</time>
      </trkpt>
      <trkpt lat="0" lon="0">
        <time>2020-12-20T10:35:51.010000+00:00</time>
      </trkpt>
      <trkpt lat="47.32322" lon="-1.34734">
        <ele>121</ele>
        <time>2020-12-20T10:35:51.974000+00:00</time>
      </trkpt>
      <trkpt lat="0" lon="0">
        <time>2020-12-20T10:35:51.982000+00:00</time>
      </trkpt>
      <trkpt lat="0" lon="0">
        <time>2020-12-20T10:35:51.988000+00:00</time>
      </trkpt>
      <trkpt lat="0" lon="0">
        <time>2020-12-20T10:35:51.990000+00:00</time>
      </trkpt>
      <trkpt lat="47.32319" lon="-1.34733">
        <ele>121</ele>
        <time>2020-12-20T10:35:52.962000+00:00</time>
      </trkpt>
      <trkpt lat="0" lon="0">
        <time>2020-12-20T10:35:52.970000+00:00</time>
      </trkpt>
      <trkpt lat="0" lon="0">
        <time>2020-12-20T10:35:52.975000+00:00</time>
      </trkpt>
      <trkpt lat="0" lon="0">
        <time>2020-12-20T10:35:52.978000+00:00</time>
      </trkpt>
      <trkpt lat="47.32317" lon="-1.34731">
        <ele>121</ele>
        <time>2020-12-20T10:35:53.958000+00:00</time>
      </trkpt>
      <trkpt lat="0" lon="0">
        <time>2020-12-20T10:35:53.968000+00:00</time>
      </trkpt>
      <trkpt lat="0" lon="0">
        <time>2020-12-20T10:35:53.975000+00:00</time>
      </trkpt>
      <trkpt lat="0" lon="0">
        <time>2020-12-20T10:35:53.978000+00:00</time>
      </trkpt>
      <trkpt lat="47.32314" lon="-1.34729">
        <ele>121</ele>
        <time>2020-12-20T10:35:55.001000+00:00</time>
      </trkpt>
      <trkpt lat="0" lon="0">
        <time>2020-12-20T10:35:55.012000+00:00</time>
      </trkpt>
      <trkpt lat="0" lon="0">
        <time>2020-12-20T10:35:55.020000+00:00</time>
      </trkpt>
      <trkpt lat="0" lon="0">
        <time>2020-12-20T10:35:55.023000+00:00</time>
      </trkpt>
      <trkpt lat="47.32311" lon="-1.34727">
        <ele>121</ele>
        <time>2020-12-20T10:35:55.958000+00:00</time>
      </trkpt>
      <trkpt lat="0" lon="0">
        <time>2020-12-20T10:35:55.980000+00:00</time>
      </trkpt>
      <trkpt lat="0" lon="0">
        <time>2020-12-20T10:35:55.984000+00:00</time>
      </trkpt>
      <trkpt lat="0" lon="0">
        <time>2020-12-20T10:35:55.986000+00:00</time>
      </trkpt>
      <trkpt lat="47.32307" lon="-1.34725">
        <ele>121</ele>
        <time>2020-12-20T10:35:56.996000+00:00</time>
      </trkpt>
      <trkpt lat="0" lon="0">
        <time>2020-12-20T10:35:57.004000+00:00</time>
      </trkpt>
      <trkpt lat="0" lon="0">
        <time>2020-12-20T10:35:57.007000+00:00</time>
      </trkpt>
      <trkpt lat="0" lon="0">
        <time>2020-12-20T10:35:57.012000+00:00</time>
      </trkpt>
      <trkpt lat="47.32304" lon="-1.34724">
        <ele>120</ele>
        <time>2020-12-20T10:35:57.972000+00:00</time>
      </trkpt>
      <trkpt lat="0" lon="0">
        <time>2020-12-20T10:35:57.979000+00:00</time>
      </trkpt>
      <trkpt lat="0" lon="0">
        <time>2020-12-20T10:35:57.981000+00:00</time>
      </trkpt>
      <trkpt lat="0" lon="0">
        <time>2020-12-20T10:35:57.982000+00:00</time>
      </trkpt>
      <trkpt lat="47.32301" lon="-1.34722">
        <ele>120</ele>
        <time>2020-12-20T10:35:58.985000+00:00</time>
      </trkpt>
      <trkpt lat="0" lon="0">
        <time>2020-12-20T10:35:58.996000+00:00</time>
      </trkpt>
      <trkpt lat="0" lon="0">
        <time>2020-12-20T10:35:59+00:00</time>
      </trkpt>
      <trkpt lat="0" lon="0">
        <time>2020-12-20T10:35:59.003000+00:00</time>
      </trkpt>
      <trkpt lat="47.32298" lon="-1.3472">
        <ele>120</ele>
        <time>2020-12-20T10:35:59.980000+00:00</time>
      </trkpt>
      <trkpt lat="0" lon="0">
        <time>2020-12-20T10:35:59.988000+00:00</time>
      </trkpt>
      <trkpt lat="0" lon="0">
        <time>2020-12-20T10:35:59.999000+00:00</time>
      </trkpt>
      <trkpt lat="0" lon="0">
        <time>2020-12-20T10:36:00.004000+00:00</time>
      </trkpt>
      <trkpt lat="47.32294" lon="-1.34718">
        <ele>120</ele>
        <time>2020-12-20T10:36:00.980000+00:00</time>
      </trkpt>
      <trkpt lat="0" lon="0">
        <time>2020-12-20T10:36:00.992000+00:00</time>
      </trkpt>
      <trkpt lat="0" lon="0">
        <time>2020-12-20T10:36:00.995000+00:00</time>
      </trkpt>
      <trkpt lat="0" lon="0">
        <time>2020-12-20T10:36:00.998000+00:00</time>
      </trkpt>
      <trkpt lat="47.32291" lon="-1.34715">
        <ele>120</ele>
        <time>2020-12-20T10:36:01.973000+00:00</time>
      </trkpt>
      <trkpt lat="0" lon="0">
        <time>2020-12-20T10:36:01.983000+00:00</time>
      </trkpt>
      <trkpt lat="0" lon="0">
        <time>2020-12-20T10:36:01.990000+00:00</time>
      </trkpt>
      <trkpt lat="0" lon="0">
        <time>2020-12-20T10:36:01.993000+00:00</time>
      </trkpt>
      <trkpt lat="47.32287" lon="-1.34713">
        <ele>120</ele>
        <time>2020-12-20T10:36:02.977000+00:00</time>
      </trkpt>
      <trkpt lat="0" lon="0">
        <time>2020-12-20T10:36:02.987000+00:00</time>
      </trkpt>
      <trkpt lat="0" lon="0">
        <time>2020-12-20T10:36:02.991000+00:00</time>
      </trkpt>
      <trkpt lat="0" lon="0">
        <time>2020-12-20T10:36:02.993000+00:00</time>
      </trkpt>
      <trkpt lat="47.32283" lon="-1.34711">
        <ele>120</ele>
        <time>2020-12-20T10:36:04.011000+00:00</time>
      </trkpt>
      <trkpt lat="0" lon="0">
        <time>2020-12-20T10:36:04.015000+00:00</time>
      </trkpt>
      <trkpt lat="0" lon="0">
        <time>2020-12-20T10:36:04.019000+00:00</time>
      </trkpt>
      <trkpt lat="0" lon="0">
        <time>2020-12-20T10:36:04.020000+00:00</time>
      </trkpt>
      <trkpt lat="47.3228" lon="-1.34708">
        <ele>120</ele>
        <time>2020-12-20T10:36:04.969000+00:00</time>
      </trkpt>
      <trkpt lat="0" lon="0">
        <time>2020-12-20T10:36:04.977000+00:00</time>
      </trkpt>
      <trkpt lat="0" lon="0">
        <time>2020-12-20T10:36:04.986000+00:00</time>
      </trkpt>
      <trkpt lat="0" lon="0">
        <time>2020-12-20T10:36:04.988000+00:00</time>
      </trkpt>
      <trkpt lat="47.32276" lon="-1.34706">
        <ele>120</ele>
        <time>2020-12-20T10:36:05.977000+00:00</time>
      </trkpt>
      <trkpt lat="0" lon="0">
        <time>2020-12-20T10:36:05.989000+00:00</time>
      </trkpt>
      <trkpt lat="0" lon="0">
        <time>2020-12-20T10:36:05.994000+00:00</time>
      </trkpt>
      <trkpt lat="0" lon="0">
        <time>2020-12-20T10:36:06+00:00</time>
      </trkpt>
      <trkpt lat="47.32272" lon="-1.34703">
        <ele>120</ele>
        <time>2020-12-20T10:36:06.972000+00:00</time>
      </trkpt>
      <trkpt lat="0" lon="0">
        <time>2020-12-20T10:36:06.982000+00:00</time>
      </trkpt>
      <trkpt lat="0" lon="0">
        <time>2020-12-20T10:36:06.986000+00:00</time>
      </trkpt>
      <trkpt lat="0" lon="0">
        <time>2020-12-20T10:36:06.990000+00:00</time>
      </trkpt>
      <trkpt lat="47.32269" lon="-1.34701">
        <ele>119</ele>
        <time>2020-12-20T10:36:07.984000+00:00</time>
      </trkpt>
      <trkpt lat="0" lon="0">
        <time>2020-12-20T10:36:07.992000+00:00</time>
      </trkpt>
      <trkpt lat="0" lon="0">
        <time>2020-12-20T10:36:08.001000+00:00</time>
      </trkpt>
      <trkpt lat="0" lon="0">
        <time>2020-12-20T10:36:08.003000+00:00</time>
      </trkpt>
      <trkpt lat="47.32265" lon="-1.34699">
        <ele>120</ele>
        <time>2020-12-20T10:36:08.977000+00:00</time>
      </trkpt>
      <trkpt lat="0" lon="0">
        <time>2020-12-20T10:36:08.989000+00:00</time>
      </trkpt>
      <trkpt lat="0" lon="0">
        <time>2020-12-20T10:36:08.993000+00:00</time>
      </trkpt>
      <trkpt lat="0" lon="0">
        <time>2020-12-20T10:36:08.995000+00:00</time>
      </trkpt>
      <trkpt lat="47.32261" lon="-1.34698">
        <ele>119</ele>
        <time>2020-12-20T10:36:09.960000+00:00</time>
      </trkpt>
      <trkpt lat="0" lon="0">
        <time>2020-12-20T10:36:09.969000+00:00</time>
      </trkpt>
      <trkpt lat="0" lon="0">
        <time>2020-12-20T10:36:09.972000+00:00</time>
      </trkpt>
      <trkpt lat="0" lon="0">
        <time>2020-12-20T10:36:09.975000+00:00</time>
      </trkpt>
      <trkpt lat="47.32257" lon="-1.34696">
        <ele>119</ele>
        <time>2020-12-20T10:36:10.980000+00:00</time>
      </trkpt>
      <trkpt lat="0" lon="0">
        <time>2020-12-20T10:36:10.994000+00:00</time>
      </trkpt>
      <trkpt lat="0" lon="0">
        <time>2020-12-20T10:36:11.002000+00:00</time>
      </trkpt>
      <trkpt lat="0" lon="0">
        <time>2020-12-20T10:36:11.006000+00:00</time>
      </trkpt>
      <trkpt lat="47.32254" lon="-1.34694">
        <ele>119</ele>
        <time>2020-12-20T10:36:11.968000+00:00</time>
      </trkpt>
      <trkpt lat="0" lon="0">
        <time>2020-12-20T10:36:11.990000+00:00</time>
      </trkpt>
      <trkpt lat="0" lon="0">
        <time>2020-12-20T10:36:11.994000+00:00</time>
      </trkpt>
      <trkpt lat="0" lon="0">
        <time>2020-12-20T10:36:11.997000+00:00</time>
      </trkpt>
      <trkpt lat="47.3225" lon="-1.34693">
        <ele>119</ele>
        <time>2020-12-20T10:36:12.958000+00:00</time>
      </trkpt>
      <trkpt lat="0" lon="0">
        <time>2020-12-20T10:36:12.970000+00:00</time>
      </trkpt>
      <trkpt lat="0" lon="0">
        <time>2020-12-20T10:36:12.974000+00:00</time>
      </trkpt>
      <trkpt lat="0" lon="0">
        <time>2020-12-20T10:36:12.976000+00:00</time>
      </trkpt>
      <trkpt lat="47.32246" lon="-1.34692">
        <ele>119</ele>
        <time>2020-12-20T10:36:13.959000+00:00</time>
      </trkpt>
      <trkpt lat="0" lon="0">
        <time>2020-12-20T10:36:13.967000+00:00</time>
      </trkpt>
      <trkpt lat="0" lon="0">
        <time>2020-12-20T10:36:13.974000+00:00</time>
      </trkpt>
      <trkpt lat="0" lon="0">
        <time>2020-12-20T10:36:13.977000+00:00</time>
      </trkpt>
      <trkpt lat="47.32242" lon="-1.34691">
        <ele>119</ele>
        <time>2020-12-20T10:36:14.970000+00:00</time>
      </trkpt>
      <trkpt lat="0" lon="0">
        <time>2020-12-20T10:36:14.973000+00:00</time>
      </trkpt>
      <trkpt lat="0" lon="0">
        <time>2020-12-20T10:36:14.978000+00:00</time>
      </trkpt>
      <trkpt lat="0" lon="0">
        <time>2020-12-20T10:36:14.982000+00:00</time>
      </trkpt>
      <trkpt lat="47.32239" lon="-1.3469">
        <ele>118</ele>
        <time>2020-12-20T10:36:15.932000+00:00</time>
      </trkpt>
      <trkpt lat="0" lon="0">
        <time>2020-12-20T10:36:15.938000+00:00</time>
      </trkpt>
      <trkpt lat="0" lon="0">
        <time>2020-12-20T10:36:15.948000+00:00</time>
      </trkpt>
      <trkpt lat="0" lon="0">
        <time>2020-12-20T10:36:15.951000+00:00</time>
      </trkpt>
      <trkpt lat="47.32235" lon="-1.34689">
        <ele>118</ele>
        <time>2020-12-20T10:36:16.935000+00:00</time>
      </trkpt>
      <trkpt lat="0" lon="0">
        <time>2020-12-20T10:36:16.949000+00:00</time>
      </trkpt>
      <trkpt lat="0" lon="0">
        <time>2020-12-20T10:36:16.954000+00:00</time>
      </trkpt>
      <trkpt lat="0" lon="0">
        <time>2020-12-20T10:36:16.957000+00:00</time>
      </trkpt>
      <trkpt lat="47.32231" lon="-1.34689">
        <ele>118</ele>
        <time>2020-12-20T10:36:17.979000+00:00</time>
      </trkpt>
      <trkpt lat="0" lon="0">
        <time>2020-12-20T10:36:17.992000+00:00</time>
      </trkpt>
      <trkpt lat="0" lon="0">
        <time>2020-12-20T10:36:18+00:00</time>
      </trkpt>
      <trkpt lat="0" lon="0">
        <time>2020-12-20T10:36:18.004000+00:00</time>
      </trkpt>
      <trkpt lat="47.32228" lon="-1.34689">
        <ele>119</ele>
        <time>2020-12-20T10:36:18.956000+00:00</time>
      </trkpt>
      <trkpt lat="0" lon="0">
        <time>2020-12-20T10:36:18.964000+00:00</time>
      </trkpt>
      <trkpt lat="0" lon="0">
        <time>2020-12-20T10:36:18.970000+00:00</time>
      </trkpt>
      <trkpt lat="0" lon="0">
        <time>2020-12-20T10:36:18.972000+00:00</time>
      </trkpt>
      <trkpt lat="47.32224" lon="-1.34689">
        <ele>119</ele>
        <time>2020-12-20T10:36:19.973000+00:00</time>
      </trkpt>
      <trkpt lat="0" lon="0">
        <time>2020-12-20T10:36:19.978000+00:00</time>
      </trkpt>
      <trkpt lat="0" lon="0">
        <time>2020-12-20T10:36:19.987000+00:00</time>
      </trkpt>
      <trkpt lat="0" lon="0">
        <time>2020-12-20T10:36:19.990000+00:00</time>
      </trkpt>
      <trkpt lat="47.32221" lon="-1.34689">
        <ele>119</ele>
        <time>2020-12-20T10:36:20.968000+00:00</time>
      </trkpt>
      <trkpt lat="0" lon="0">
        <time>2020-12-20T10:36:20.973000+00:00</time>
      </trkpt>
      <trkpt lat="0" lon="0">
        <time>2020-12-20T10:36:20.976000+00:00</time>
      </trkpt>
      <trkpt lat="0" lon="0">
        <time>2020-12-20T10:36:20.977000+00:00</time>
      </trkpt>
      <trkpt lat="47.32217" lon="-1.3469">
        <ele>118</ele>
        <time>2020-12-20T10:36:21.971000+00:00</time>
      </trkpt>
      <trkpt lat="0" lon="0">
        <time>2020-12-20T10:36:21.976000+00:00</time>
      </trkpt>
      <trkpt lat="0" lon="0">
        <time>2020-12-20T10:36:21.985000+00:00</time>
      </trkpt>
      <trkpt lat="0" lon="0">
        <time>2020-12-20T10:36:21.987000+00:00</time>
      </trkpt>
      <trkpt lat="47.32214" lon="-1.3469">
        <ele>119</ele>
        <time>2020-12-20T10:36:22.983000+00:00</time>
      </trkpt>
      <trkpt lat="0" lon="0">
        <time>2020-12-20T10:36:22.994000+00:00</time>
      </trkpt>
      <trkpt lat="0" lon="0">
        <time>2020-12-20T10:36:23+00:00</time>
      </trkpt>
      <trkpt lat="0" lon="0">
        <time>2020-12-20T10:36:23.002000+00:00</time>
      </trkpt>
      <trkpt lat="47.3221" lon="-1.34691">
        <ele>119</ele>
        <time>2020-12-20T10:36:23.944000+00:00</time>
      </trkpt>
      <trkpt lat="0" lon="0">
        <time>2020-12-20T10:36:23.956000+00:00</time>
      </trkpt>
      <trkpt lat="0" lon="0">
        <time>2020-12-20T10:36:23.967000+00:00</time>
      </trkpt>
      <trkpt lat="0" lon="0">
        <time>2020-12-20T10:36:23.972000+00:00</time>
      </trkpt>
      <trkpt lat="47.32207" lon="-1.34692">
        <ele>119</ele>
        <time>2020-12-20T10:36:24.909000+00:00</time>
      </trkpt>
      <trkpt lat="0" lon="0">
        <time>2020-12-20T10:36:24.924000+00:00</time>
      </trkpt>
      <trkpt lat="0" lon="0">
        <time>2020-12-20T10:36:24.929000+00:00</time>
      </trkpt>
      <trkpt lat="0" lon="0">
        <time>2020-12-20T10:36:24.932000+00:00</time>
      </trkpt>
      <trkpt lat="47.32203" lon="-1.34693">
        <ele>118</ele>
        <time>2020-12-20T10:36:25.966000+00:00</time>
      </trkpt>
      <trkpt lat="0" lon="0">
        <time>2020-12-20T10:36:25.982000+00:00</time>
      </trkpt>
      <trkpt lat="0" lon="0">
        <time>2020-12-20T10:36:25.987000+00:00</time>
      </trkpt>
      <trkpt lat="0" lon="0">
        <time>2020-12-20T10:36:25.991000+00:00</time>
      </trkpt>
      <trkpt lat="47.32199" lon="-1.34695">
        <ele>118</ele>
        <time>2020-12-20T10:36:26.961000+00:00</time>
      </trkpt>
      <trkpt lat="0" lon="0">
        <time>2020-12-20T10:36:26.981000+00:00</time>
      </trkpt>
      <trkpt lat="0" lon="0">
        <time>2020-12-20T10:36:26.985000+00:00</time>
      </trkpt>
      <trkpt lat="0" lon="0">
        <time>2020-12-20T10:36:26.986000+00:00</time>
      </trkpt>
      <trkpt lat="47.32196" lon="-1.34696">
        <ele>118</ele>
        <time>2020-12-20T10:36:27.971000+00:00</time>
      </trkpt>
      <trkpt lat="0" lon="0">
        <time>2020-12-20T10:36:27.979000+00:00</time>
      </trkpt>
      <trkpt lat="0" lon="0">
        <time>2020-12-20T10:36:27.983000+00:00</time>
      </trkpt>
      <trkpt lat="0" lon="0">
        <time>2020-12-20T10:36:27.989000+00:00</time>
      </trkpt>
      <trkpt lat="47.32192" lon="-1.34697">
        <ele>118</ele>
        <time>2020-12-20T10:36:28.918000+00:00</time>
      </trkpt>
      <trkpt lat="0" lon="0">
        <time>2020-12-20T10:36:28.926000+00:00</time>
      </trkpt>
      <trkpt lat="0" lon="0">
        <time>2020-12-20T10:36:28.930000+00:00</time>
      </trkpt>
      <trkpt lat="0" lon="0">
        <time>2020-12-20T10:36:28.936000+00:00</time>
      </trkpt>
      <trkpt lat="47.32187" lon="-1.34698">
        <ele>118</ele>
        <time>2020-12-20T10:36:29.975000+00:00</time>
      </trkpt>
      <trkpt lat="0" lon="0">
        <time>2020-12-20T10:36:29.994000+00:00</time>
      </trkpt>
      <trkpt lat="0" lon="0">
        <time>2020-12-20T10:36:29.998000+00:00</time>
      </trkpt>
      <trkpt lat="0" lon="0">
        <time>2020-12-20T10:36:30.001000+00:00</time>
      </trkpt>
      <trkpt lat="47.32183" lon="-1.347">
        <ele>118</ele>
        <time>2020-12-20T10:36:30.984000+00:00</time>
      </trkpt>
      <trkpt lat="0" lon="0">
        <time>2020-12-20T10:36:30.997000+00:00</time>
      </trkpt>
      <trkpt lat="0" lon="0">
        <time>2020-12-20T10:36:31.005000+00:00</time>
      </trkpt>
      <trkpt lat="0" lon="0">
        <time>2020-12-20T10:36:31.010000+00:00</time>
      </trkpt>
      <trkpt lat="47.32179" lon="-1.34701">
        <ele>118</ele>
        <time>2020-12-20T10:36:31.942000+00:00</time>
      </trkpt>
      <trkpt lat="0" lon="0">
        <time>2020-12-20T10:36:31.951000+00:00</time>
      </trkpt>
      <trkpt lat="0" lon="0">
        <time>2020-12-20T10:36:31.953000+00:00</time>
      </trkpt>
      <trkpt lat="0" lon="0">
        <time>2020-12-20T10:36:31.954000+00:00</time>
      </trkpt>
      <trkpt lat="47.32174" lon="-1.34703">
        <ele>118</ele>
        <time>2020-12-20T10:36:33.006000+00:00</time>
      </trkpt>
      <trkpt lat="0" lon="0">
        <time>2020-12-20T10:36:33.016000+00:00</time>
      </trkpt>
      <trkpt lat="0" lon="0">
        <time>2020-12-20T10:36:33.019000+00:00</time>
      </trkpt>
      <trkpt lat="0" lon="0">
        <time>2020-12-20T10:36:33.021000+00:00</time>
      </trkpt>
      <trkpt lat="47.32169" lon="-1.34705">
        <ele>117</ele>
        <time>2020-12-20T10:36:33.953000+00:00</time>
      </trkpt>
      <trkpt lat="0" lon="0">
        <time>2020-12-20T10:36:33.962000+00:00</time>
      </trkpt>
      <trkpt lat="0" lon="0">
        <time>2020-12-20T10:36:33.976000+00:00</time>
      </trkpt>
      <trkpt lat="0" lon="0">
        <time>2020-12-20T10:36:33.978000+00:00</time>
      </trkpt>
      <trkpt lat="47.32164" lon="-1.34708">
        <ele>117</ele>
        <time>2020-12-20T10:36:34.954000+00:00</time>
      </trkpt>
      <trkpt lat="0" lon="0">
        <time>2020-12-20T10:36:34.977000+00:00</time>
      </trkpt>
      <trkpt lat="0" lon="0">
        <time>2020-12-20T10:36:34.981000+00:00</time>
      </trkpt>
      <trkpt lat="0" lon="0">
        <time>2020-12-20T10:36:34.983000+00:00</time>
      </trkpt>
      <trkpt lat="47.32159" lon="-1.34711">
        <ele>117</ele>
        <time>2020-12-20T10:36:35.956000+00:00</time>
      </trkpt>
      <trkpt lat="0" lon="0">
        <time>2020-12-20T10:36:35.964000+00:00</time>
      </trkpt>
      <trkpt lat="0" lon="0">
        <time>2020-12-20T10:36:35.977000+00:00</time>
      </trkpt>
      <trkpt lat="0" lon="0">
        <time>2020-12-20T10:36:35.980000+00:00</time>
      </trkpt>
      <trkpt lat="47.32154" lon="-1.34713">
        <ele>117</ele>
        <time>2020-12-20T10:36:36.959000+00:00</time>
      </trkpt>
      <trkpt lat="0" lon="0">
        <time>2020-12-20T10:36:36.963000+00:00</time>
      </trkpt>
      <trkpt lat="0" lon="0">
        <time>2020-12-20T10:36:36.975000+00:00</time>
      </trkpt>
      <trkpt lat="0" lon="0">
        <time>2020-12-20T10:36:36.977000+00:00</time>
      </trkpt>
      <trkpt lat="47.32148" lon="-1.34716">
        <ele>117</ele>
        <time>2020-12-20T10:36:37.950000+00:00</time>
      </trkpt>
      <trkpt lat="0" lon="0">
        <time>2020-12-20T10:36:37.958000+00:00</time>
      </trkpt>
      <trkpt lat="0" lon="0">
        <time>2020-12-20T10:36:37.962000+00:00</time>
      </trkpt>
      <trkpt lat="0" lon="0">
        <time>2020-12-20T10:36:37.965000+00:00</time>
      </trkpt>
      <trkpt lat="47.32143" lon="-1.34719">
        <ele>116</ele>
        <time>2020-12-20T10:36:38.988000+00:00</time>
      </trkpt>
      <trkpt lat="0" lon="0">
        <time>2020-12-20T10:36:38.998000+00:00</time>
      </trkpt>
      <trkpt lat="0" lon="0">
        <time>2020-12-20T10:36:39.002000+00:00</time>
      </trkpt>
      <trkpt lat="0" lon="0">
        <time>2020-12-20T10:36:39.006000+00:00</time>
      </trkpt>
      <trkpt lat="47.32137" lon="-1.34722">
        <ele>116</ele>
        <time>2020-12-20T10:36:39.968000+00:00</time>
      </trkpt>
      <trkpt lat="0" lon="0">
        <time>2020-12-20T10:36:39.973000+00:00</time>
      </trkpt>
      <trkpt lat="0" lon="0">
        <time>2020-12-20T10:36:39.979000+00:00</time>
      </trkpt>
      <trkpt lat="0" lon="0">
        <time>2020-12-20T10:36:39.986000+00:00</time>
      </trkpt>
      <trkpt lat="47.32131" lon="-1.34724">
        <ele>116</ele>
        <time>2020-12-20T10:36:40.959000+00:00</time>
      </trkpt>
      <trkpt lat="0" lon="0">
        <time>2020-12-20T10:36:40.967000+00:00</time>
      </trkpt>
      <trkpt lat="0" lon="0">
        <time>2020-12-20T10:36:40.979000+00:00</time>
      </trkpt>
      <trkpt lat="0" lon="0">
        <time>2020-12-20T10:36:40.981000+00:00</time>
      </trkpt>
      <trkpt lat="47.32124" lon="-1.34727">
        <ele>116</ele>
        <time>2020-12-20T10:36:41.958000+00:00</time>
      </trkpt>
      <trkpt lat="0" lon="0">
        <time>2020-12-20T10:36:41.976000+00:00</time>
      </trkpt>
      <trkpt lat="0" lon="0">
        <time>2020-12-20T10:36:41.980000+00:00</time>
      </trkpt>
      <trkpt lat="0" lon="0">
        <time>2020-12-20T10:36:41.984000+00:00</time>
      </trkpt>
      <trkpt lat="47.32118" lon="-1.34731">
        <ele>116</ele>
        <time>2020-12-20T10:36:42.952000+00:00</time>
      </trkpt>
      <trkpt lat="0" lon="0">
        <time>2020-12-20T10:36:42.963000+00:00</time>
      </trkpt>
      <trkpt lat="0" lon="0">
        <time>2020-12-20T10:36:42.967000+00:00</time>
      </trkpt>
      <trkpt lat="0" lon="0">
        <time>2020-12-20T10:36:42.969000+00:00</time>
      </trkpt>
      <trkpt lat="47.32112" lon="-1.34734">
        <ele>116</ele>
        <time>2020-12-20T10:36:43.957000+00:00</time>
      </trkpt>
      <trkpt lat="0" lon="0">
        <time>2020-12-20T10:36:43.964000+00:00</time>
      </trkpt>
      <trkpt lat="0" lon="0">
        <time>2020-12-20T10:36:43.967000+00:00</time>
      </trkpt>
      <trkpt lat="0" lon="0">
        <time>2020-12-20T10:36:43.972000+00:00</time>
      </trkpt>
      <trkpt lat="47.32106" lon="-1.34737">
        <ele>116</ele>
        <time>2020-12-20T10:36:44.971000+00:00</time>
      </trkpt>
      <trkpt lat="0" lon="0">
        <time>2020-12-20T10:36:44.984000+00:00</time>
      </trkpt>
      <trkpt lat="0" lon="0">
        <time>2020-12-20T10:36:44.988000+00:00</time>
      </trkpt>
      <trkpt lat="0" lon="0">
        <time>2020-12-20T10:36:44.990000+00:00</time>
      </trkpt>
      <trkpt lat="47.321" lon="-1.3474">
        <ele>116</ele>
        <time>2020-12-20T10:36:45.956000+00:00</time>
      </trkpt>
      <trkpt lat="0" lon="0">
        <time>2020-12-20T10:36:45.964000+00:00</time>
      </trkpt>
      <trkpt lat="0" lon="0">
        <time>2020-12-20T10:36:45.966000+00:00</time>
      </trkpt>
      <trkpt lat="0" lon="0">
        <time>2020-12-20T10:36:45.967000+00:00</time>
      </trkpt>
      <trkpt lat="47.32094" lon="-1.34743">
        <ele>115</ele>
        <time>2020-12-20T10:36:46.977000+00:00</time>
      </trkpt>
      <trkpt lat="0" lon="0">
        <time>2020-12-20T10:36:46.985000+00:00</time>
      </trkpt>
      <trkpt lat="0" lon="0">
        <time>2020-12-20T10:36:46.991000+00:00</time>
      </trkpt>
      <trkpt lat="0" lon="0">
        <time>2020-12-20T10:36:46.994000+00:00</time>
      </trkpt>
      <trkpt lat="47.32088" lon="-1.34746">
        <ele>114</ele>
        <time>2020-12-20T10:36:47.963000+00:00</time>
      </trkpt>
      <trkpt lat="0" lon="0">
        <time>2020-12-20T10:36:47.974000+00:00</time>
      </trkpt>
      <trkpt lat="0" lon="0">
        <time>2020-12-20T10:36:47.980000+00:00</time>
      </trkpt>
      <trkpt lat="0" lon="0">
        <time>2020-12-20T10:36:47.983000+00:00</time>
      </trkpt>
      <trkpt lat="47.32082" lon="-1.34749">
        <ele>115</ele>
        <time>2020-12-20T10:36:48.988000+00:00</time>
      </trkpt>
      <trkpt lat="0" lon="0">
        <time>2020-12-20T10:36:48.994000+00:00</time>
      </trkpt>
      <trkpt lat="0" lon="0">
        <time>2020-12-20T10:36:48.999000+00:00</time>
      </trkpt>
      <trkpt lat="0" lon="0">
        <time>2020-12-20T10:36:49.002000+00:00</time>
      </trkpt>
      <trkpt lat="47.32076" lon="-1.34752">
        <ele>114</ele>
        <time>2020-12-20T10:36:49.984000+00:00</time>
      </trkpt>
      <trkpt lat="0" lon="0">
        <time>2020-12-20T10:36:49.995000+00:00</time>
      </trkpt>
      <trkpt lat="0" lon="0">
        <time>2020-12-20T10:36:49.997000+00:00</time>
      </trkpt>
      <trkpt lat="0" lon="0">
        <time>2020-12-20T10:36:49.999000+00:00</time>
      </trkpt>
      <trkpt lat="47.32071" lon="-1.34755">
        <ele>114</ele>
        <time>2020-12-20T10:36:50.986000+00:00</time>
      </trkpt>
      <trkpt lat="0" lon="0">
        <time>2020-12-20T10:36:50.994000+00:00</time>
      </trkpt>
      <trkpt lat="0" lon="0">
        <time>2020-12-20T10:36:51.003000+00:00</time>
      </trkpt>
      <trkpt lat="0" lon="0">
        <time>2020-12-20T10:36:51.007000+00:00</time>
      </trkpt>
      <trkpt lat="47.32066" lon="-1.34758">
        <ele>114</ele>
        <time>2020-12-20T10:36:51.993000+00:00</time>
      </trkpt>
      <trkpt lat="0" lon="0">
        <time>2020-12-20T10:36:52.002000+00:00</time>
      </trkpt>
      <trkpt lat="0" lon="0">
        <time>2020-12-20T10:36:52.006000+00:00</time>
      </trkpt>
      <trkpt lat="0" lon="0">
        <time>2020-12-20T10:36:52.009000+00:00</time>
      </trkpt>
      <trkpt lat="47.3206" lon="-1.34761">
        <ele>113</ele>
        <time>2020-12-20T10:36:52.986000+00:00</time>
      </trkpt>
      <trkpt lat="0" lon="0">
        <time>2020-12-20T10:36:52.997000+00:00</time>
      </trkpt>
      <trkpt lat="0" lon="0">
        <time>2020-12-20T10:36:53.003000+00:00</time>
      </trkpt>
      <trkpt lat="0" lon="0">
        <time>2020-12-20T10:36:53.006000+00:00</time>
      </trkpt>
      <trkpt lat="47.32055" lon="-1.34764">
        <ele>113</ele>
        <time>2020-12-20T10:36:53.972000+00:00</time>
      </trkpt>
      <trkpt lat="0" lon="0">
        <time>2020-12-20T10:36:53.981000+00:00</time>
      </trkpt>
      <trkpt lat="0" lon="0">
        <time>2020-12-20T10:36:53.986000+00:00</time>
      </trkpt>
      <trkpt lat="0" lon="0">
        <time>2020-12-20T10:36:53.990000+00:00</time>
      </trkpt>
      <trkpt lat="47.3205" lon="-1.34767">
        <ele>113</ele>
        <time>2020-12-20T10:36:54.985000+00:00</time>
      </trkpt>
      <trkpt lat="0" lon="0">
        <time>2020-12-20T10:36:54.991000+00:00</time>
      </trkpt>
      <trkpt lat="0" lon="0">
        <time>2020-12-20T10:36:54.998000+00:00</time>
      </trkpt>
      <trkpt lat="0" lon="0">
        <time>2020-12-20T10:36:55.004000+00:00</time>
      </trkpt>
      <trkpt lat="47.32045" lon="-1.3477">
        <ele>113</ele>
        <time>2020-12-20T10:36:55.986000+00:00</time>
      </trkpt>
      <trkpt lat="0" lon="0">
        <time>2020-12-20T10:36:55.993000+00:00</time>
      </trkpt>
      <trkpt lat="0" lon="0">
        <time>2020-12-20T10:36:56+00:00</time>
      </trkpt>
      <trkpt lat="0" lon="0">
        <time>2020-12-20T10:36:56.004000+00:00</time>
      </trkpt>
      <trkpt lat="47.3204" lon="-1.34773">
        <ele>114</ele>
        <time>2020-12-20T10:36:56.977000+00:00</time>
      </trkpt>
      <trkpt lat="0" lon="0">
        <time>2020-12-20T10:36:56.992000+00:00</time>
      </trkpt>
      <trkpt lat="0" lon="0">
        <time>2020-12-20T10:36:56.999000+00:00</time>
      </trkpt>
      <trkpt lat="0" lon="0">
        <time>2020-12-20T10:36:57.004000+00:00</time>
      </trkpt>
      <trkpt lat="47.32036" lon="-1.34777">
        <ele>113</ele>
        <time>2020-12-20T10:36:57.980000+00:00</time>
      </trkpt>
      <trkpt lat="0" lon="0">
        <time>2020-12-20T10:36:57.984000+00:00</time>
      </trkpt>
      <trkpt lat="0" lon="0">
        <time>2020-12-20T10:36:57.996000+00:00</time>
      </trkpt>
      <trkpt lat="0" lon="0">
        <time>2020-12-20T10:36:58.003000+00:00</time>
      </trkpt>
      <trkpt lat="47.32031" lon="-1.3478">
        <ele>113</ele>
        <time>2020-12-20T10:36:58.975000+00:00</time>
      </trkpt>
      <trkpt lat="0" lon="0">
        <time>2020-12-20T10:36:58.980000+00:00</time>
      </trkpt>
      <trkpt lat="0" lon="0">
        <time>2020-12-20T10:36:58.990000+00:00</time>
      </trkpt>
      <trkpt lat="0" lon="0">
        <time>2020-12-20T10:36:58.993000+00:00</time>
      </trkpt>
      <trkpt lat="47.32026" lon="-1.34782">
        <ele>113</ele>
        <time>2020-12-20T10:36:59.968000+00:00</time>
      </trkpt>
      <trkpt lat="0" lon="0">
        <time>2020-12-20T10:36:59.980000+00:00</time>
      </trkpt>
      <trkpt lat="0" lon="0">
        <time>2020-12-20T10:36:59.987000+00:00</time>
      </trkpt>
      <trkpt lat="0" lon="0">
        <time>2020-12-20T10:36:59.991000+00:00</time>
      </trkpt>
      <trkpt lat="47.32022" lon="-1.34785">
        <ele>112</ele>
        <time>2020-12-20T10:37:00.988000+00:00</time>
      </trkpt>
      <trkpt lat="0" lon="0">
        <time>2020-12-20T10:37:01.002000+00:00</time>
      </trkpt>
      <trkpt lat="0" lon="0">
        <time>2020-12-20T10:37:01.006000+00:00</time>
      </trkpt>
      <trkpt lat="0" lon="0">
        <time>2020-12-20T10:37:01.008000+00:00</time>
      </trkpt>
      <trkpt lat="47.32018" lon="-1.34788">
        <ele>112</ele>
        <time>2020-12-20T10:37:01.992000+00:00</time>
      </trkpt>
      <trkpt lat="0" lon="0">
        <time>2020-12-20T10:37:01.999000+00:00</time>
      </trkpt>
      <trkpt lat="0" lon="0">
        <time>2020-12-20T10:37:02.008000+00:00</time>
      </trkpt>
      <trkpt lat="0" lon="0">
        <time>2020-12-20T10:37:02.011000+00:00</time>
      </trkpt>
      <trkpt lat="47.32013" lon="-1.34791">
        <ele>112</ele>
        <time>2020-12-20T10:37:02.981000+00:00</time>
      </trkpt>
      <trkpt lat="0" lon="0">
        <time>2020-12-20T10:37:02.988000+00:00</time>
      </trkpt>
      <trkpt lat="0" lon="0">
        <time>2020-12-20T10:37:02.996000+00:00</time>
      </trkpt>
      <trkpt lat="0" lon="0">
        <time>2020-12-20T10:37:02.998000+00:00</time>
      </trkpt>
      <trkpt lat="47.32009" lon="-1.34794">
        <ele>112</ele>
        <time>2020-12-20T10:37:03.974000+00:00</time>
      </trkpt>
      <trkpt lat="0" lon="0">
        <time>2020-12-20T10:37:03.982000+00:00</time>
      </trkpt>
      <trkpt lat="0" lon="0">
        <time>2020-12-20T10:37:03.990000+00:00</time>
      </trkpt>
      <trkpt lat="0" lon="0">
        <time>2020-12-20T10:37:03.992000+00:00</time>
      </trkpt>
      <trkpt lat="47.32005" lon="-1.34796">
        <ele>111</ele>
        <time>2020-12-20T10:37:04.988000+00:00</time>
      </trkpt>
      <trkpt lat="0" lon="0">
        <time>2020-12-20T10:37:04.996000+00:00</time>
      </trkpt>
      <trkpt lat="0" lon="0">
        <time>2020-12-20T10:37:05.001000+00:00</time>
      </trkpt>
      <trkpt lat="0" lon="0">
        <time>2020-12-20T10:37:05.003000+00:00</time>
      </trkpt>
      <trkpt lat="47.32002" lon="-1.34798">
        <ele>111</ele>
        <time>2020-12-20T10:37:05.960000+00:00</time>
      </trkpt>
      <trkpt lat="0" lon="0">
        <time>2020-12-20T10:37:05.969000+00:00</time>
      </trkpt>
      <trkpt lat="0" lon="0">
        <time>2020-12-20T10:37:05.973000+00:00</time>
      </trkpt>
      <trkpt lat="0" lon="0">
        <time>2020-12-20T10:37:05.975000+00:00</time>
      </trkpt>
      <trkpt lat="47.31998" lon="-1.34799">
        <ele>111</ele>
        <time>2020-12-20T10:37:06.979000+00:00</time>
      </trkpt>
      <trkpt lat="0" lon="0">
        <time>2020-12-20T10:37:06.990000+00:00</time>
      </trkpt>
      <trkpt lat="0" lon="0">
        <time>2020-12-20T10:37:06.995000+00:00</time>
      </trkpt>
      <trkpt lat="0" lon="0">
        <time>2020-12-20T10:37:06.999000+00:00</time>
      </trkpt>
      <trkpt lat="47.31995" lon="-1.348">
        <ele>112</ele>
        <time>2020-12-20T10:37:07.987000+00:00</time>
      </trkpt>
      <trkpt lat="0" lon="0">
        <time>2020-12-20T10:37:08+00:00</time>
      </trkpt>
      <trkpt lat="0" lon="0">
        <time>2020-12-20T10:37:08.012000+00:00</time>
      </trkpt>
      <trkpt lat="0" lon="0">
        <time>2020-12-20T10:37:08.022000+00:00</time>
      </trkpt>
      <trkpt lat="47.31991" lon="-1.34801">
        <ele>112</ele>
        <time>2020-12-20T10:37:08.972000+00:00</time>
      </trkpt>
      <trkpt lat="0" lon="0">
        <time>2020-12-20T10:37:08.986000+00:00</time>
      </trkpt>
      <trkpt lat="0" lon="0">
        <time>2020-12-20T10:37:08.990000+00:00</time>
      </trkpt>
      <trkpt lat="0" lon="0">
        <time>2020-12-20T10:37:08.994000+00:00</time>
      </trkpt>
      <trkpt lat="47.31988" lon="-1.34801">
        <ele>112</ele>
        <time>2020-12-20T10:37:09.960000+00:00</time>
      </trkpt>
      <trkpt lat="0" lon="0">
        <time>2020-12-20T10:37:09.972000+00:00</time>
      </trkpt>
      <trkpt lat="0" lon="0">
        <time>2020-12-20T10:37:09.982000+00:00</time>
      </trkpt>
      <trkpt lat="0" lon="0">
        <time>2020-12-20T10:37:09.987000+00:00</time>
      </trkpt>
      <trkpt lat="47.31985" lon="-1.34801">
        <ele>111</ele>
        <time>2020-12-20T10:37:10.914000+00:00</time>
      </trkpt>
      <trkpt lat="0" lon="0">
        <time>2020-12-20T10:37:10.917000+00:00</time>
      </trkpt>
      <trkpt lat="0" lon="0">
        <time>2020-12-20T10:37:10.919000+00:00</time>
      </trkpt>
      <trkpt lat="47.31982" lon="-1.348">
        <ele>111</ele>
        <time>2020-12-20T10:37:11.960000+00:00</time>
      </trkpt>
      <trkpt lat="0" lon="0">
        <time>2020-12-20T10:37:11.969000+00:00</time>
      </trkpt>
      <trkpt lat="0" lon="0">
        <time>2020-12-20T10:37:11.971000+00:00</time>
      </trkpt>
      <trkpt lat="0" lon="0">
        <time>2020-12-20T10:37:11.972000+00:00</time>
      </trkpt>
      <trkpt lat="47.31978" lon="-1.348">
        <ele>111</ele>
        <time>2020-12-20T10:37:12.959000+00:00</time>
      </trkpt>
      <trkpt lat="0" lon="0">
        <time>2020-12-20T10:37:12.963000+00:00</time>
      </trkpt>
      <trkpt lat="0" lon="0">
        <time>2020-12-20T10:37:12.968000+00:00</time>
      </trkpt>
      <trkpt lat="0" lon="0">
        <time>2020-12-20T10:37:12.970000+00:00</time>
      </trkpt>
      <trkpt lat="47.31975" lon="-1.348">
        <ele>111</ele>
        <time>2020-12-20T10:37:13.969000+00:00</time>
      </trkpt>
      <trkpt lat="0" lon="0">
        <time>2020-12-20T10:37:13.983000+00:00</time>
      </trkpt>
      <trkpt lat="0" lon="0">
        <time>2020-12-20T10:37:13.987000+00:00</time>
      </trkpt>
      <trkpt lat="0" lon="0">
        <time>2020-12-20T10:37:13.989000+00:00</time>
      </trkpt>
      <trkpt lat="47.31971" lon="-1.348">
        <ele>110</ele>
        <time>2020-12-20T10:37:14.968000+00:00</time>
      </trkpt>
      <trkpt lat="0" lon="0">
        <time>2020-12-20T10:37:14.980000+00:00</time>
      </trkpt>
      <trkpt lat="0" lon="0">
        <time>2020-12-20T10:37:14.988000+00:00</time>
      </trkpt>
      <trkpt lat="0" lon="0">
        <time>2020-12-20T10:37:14.991000+00:00</time>
      </trkpt>
      <trkpt lat="47.31967" lon="-1.348">
        <ele>111</ele>
        <time>2020-12-20T10:37:15.994000+00:00</time>
      </trkpt>
      <trkpt lat="0" lon="0">
        <time>2020-12-20T10:37:16.003000+00:00</time>
      </trkpt>
      <trkpt lat="0" lon="0">
        <time>2020-12-20T10:37:16.008000+00:00</time>
      </trkpt>
      <trkpt lat="0" lon="0">
        <time>2020-12-20T10:37:16.011000+00:00</time>
      </trkpt>
      <trkpt lat="47.31964" lon="-1.348">
        <ele>111</ele>
        <time>2020-12-20T10:37:16.963000+00:00</time>
      </trkpt>
      <trkpt lat="0" lon="0">
        <time>2020-12-20T10:37:16.969000+00:00</time>
      </trkpt>
      <trkpt lat="0" lon="0">
        <time>2020-12-20T10:37:16.974000+00:00</time>
      </trkpt>
      <trkpt lat="0" lon="0">
        <time>2020-12-20T10:37:16.981000+00:00</time>
      </trkpt>
      <trkpt lat="47.3196" lon="-1.34801">
        <ele>110</ele>
        <time>2020-12-20T10:37:17.974000+00:00</time>
      </trkpt>
      <trkpt lat="0" lon="0">
        <time>2020-12-20T10:37:17.987000+00:00</time>
      </trkpt>
      <trkpt lat="0" lon="0">
        <time>2020-12-20T10:37:17.992000+00:00</time>
      </trkpt>
      <trkpt lat="0" lon="0">
        <time>2020-12-20T10:37:17.996000+00:00</time>
      </trkpt>
      <trkpt lat="47.31957" lon="-1.34803">
        <ele>110</ele>
        <time>2020-12-20T10:37:18.940000+00:00</time>
      </trkpt>
      <trkpt lat="0" lon="0">
        <time>2020-12-20T10:37:18.949000+00:00</time>
      </trkpt>
      <trkpt lat="0" lon="0">
        <time>2020-12-20T10:37:18.954000+00:00</time>
      </trkpt>
      <trkpt lat="0" lon="0">
        <time>2020-12-20T10:37:18.957000+00:00</time>
      </trkpt>
      <trkpt lat="47.31953" lon="-1.34805">
        <ele>110</ele>
        <time>2020-12-20T10:37:19.990000+00:00</time>
      </trkpt>
      <trkpt lat="0" lon="0">
        <time>2020-12-20T10:37:19.997000+00:00</time>
      </trkpt>
      <trkpt lat="0" lon="0">
        <time>2020-12-20T10:37:20.001000+00:00</time>
      </trkpt>
      <trkpt lat="0" lon="0">
        <time>2020-12-20T10:37:20.003000+00:00</time>
      </trkpt>
      <trkpt lat="47.3195" lon="-1.34807">
        <ele>110</ele>
        <time>2020-12-20T10:37:20.971000+00:00</time>
      </trkpt>
      <trkpt lat="0" lon="0">
        <time>2020-12-20T10:37:20.973000+00:00</time>
      </trkpt>
      <trkpt lat="0" lon="0">
        <time>2020-12-20T10:37:20.978000+00:00</time>
      </trkpt>
      <trkpt lat="0" lon="0">
        <time>2020-12-20T10:37:20.979000+00:00</time>
      </trkpt>
      <trkpt lat="47.31946" lon="-1.34809">
        <ele>110</ele>
        <time>2020-12-20T10:37:21.955000+00:00</time>
      </trkpt>
      <trkpt lat="0" lon="0">
        <time>2020-12-20T10:37:21.967000+00:00</time>
      </trkpt>
      <trkpt lat="0" lon="0">
        <time>2020-12-20T10:37:21.976000+00:00</time>
      </trkpt>
      <trkpt lat="0" lon="0">
        <time>2020-12-20T10:37:21.979000+00:00</time>
      </trkpt>
      <trkpt lat="47.31942" lon="-1.34812">
        <ele>110</ele>
        <time>2020-12-20T10:37:22.919000+00:00</time>
      </trkpt>
      <trkpt lat="0" lon="0">
        <time>2020-12-20T10:37:22.920000+00:00</time>
      </trkpt>
      <trkpt lat="0" lon="0">
        <time>2020-12-20T10:37:22.921000+00:00</time>
      </trkpt>
      <trkpt lat="0" lon="0">
        <time>2020-12-20T10:37:22.923000+00:00</time>
      </trkpt>
      <trkpt lat="47.31939" lon="-1.34814">
        <ele>110</ele>
        <time>2020-12-20T10:37:23.956000+00:00</time>
      </trkpt>
      <trkpt lat="0" lon="0">
        <time>2020-12-20T10:37:23.967000+00:00</time>
      </trkpt>
      <trkpt lat="0" lon="0">
        <time>2020-12-20T10:37:23.972000+00:00</time>
      </trkpt>
      <trkpt lat="0" lon="0">
        <time>2020-12-20T10:37:23.974000+00:00</time>
      </trkpt>
      <trkpt lat="47.31935" lon="-1.34816">
        <ele>110</ele>
        <time>2020-12-20T10:37:24.970000+00:00</time>
      </trkpt>
      <trkpt lat="0" lon="0">
        <time>2020-12-20T10:37:24.981000+00:00</time>
      </trkpt>
      <trkpt lat="0" lon="0">
        <time>2020-12-20T10:37:24.985000+00:00</time>
      </trkpt>
      <trkpt lat="0" lon="0">
        <time>2020-12-20T10:37:24.987000+00:00</time>
      </trkpt>
      <trkpt lat="47.31932" lon="-1.34818">
        <ele>110</ele>
        <time>2020-12-20T10:37:25.956000+00:00</time>
      </trkpt>
      <trkpt lat="0" lon="0">
        <time>2020-12-20T10:37:25.961000+00:00</time>
      </trkpt>
      <trkpt lat="0" lon="0">
        <time>2020-12-20T10:37:25.973000+00:00</time>
      </trkpt>
      <trkpt lat="0" lon="0">
        <time>2020-12-20T10:37:25.978000+00:00</time>
      </trkpt>
      <trkpt lat="47.31929" lon="-1.3482">
        <ele>110</ele>
        <time>2020-12-20T10:37:27.008000+00:00</time>
      </trkpt>
      <trkpt lat="0" lon="0">
        <time>2020-12-20T10:37:27.014000+00:00</time>
      </trkpt>
      <trkpt lat="0" lon="0">
        <time>2020-12-20T10:37:27.018000+00:00</time>
      </trkpt>
      <trkpt lat="0" lon="0">
        <time>2020-12-20T10:37:27.020000+00:00</time>
      </trkpt>
      <trkpt lat="47.31926" lon="-1.34822">
        <ele>110</ele>
        <time>2020-12-20T10:37:27.954000+00:00</time>
      </trkpt>
      <trkpt lat="0" lon="0">
        <time>2020-12-20T10:37:27.964000+00:00</time>
      </trkpt>
      <trkpt lat="0" lon="0">
        <time>2020-12-20T10:37:27.967000+00:00</time>
      </trkpt>
      <trkpt lat="0" lon="0">
        <time>2020-12-20T10:37:27.969000+00:00</time>
      </trkpt>
      <trkpt lat="47.31924" lon="-1.34823">
        <ele>110</ele>
        <time>2020-12-20T10:37:28.978000+00:00</time>
      </trkpt>
      <trkpt lat="0" lon="0">
        <time>2020-12-20T10:37:28.991000+00:00</time>
      </trkpt>
      <trkpt lat="0" lon="0">
        <time>2020-12-20T10:37:28.995000+00:00</time>
      </trkpt>
      <trkpt lat="0" lon="0">
        <time>2020-12-20T10:37:29+00:00</time>
      </trkpt>
      <trkpt lat="47.31921" lon="-1.34824">
        <ele>110</ele>
        <time>2020-12-20T10:37:29.977000+00:00</time>
      </trkpt>
      <trkpt lat="0" lon="0">
        <time>2020-12-20T10:37:29.990000+00:00</time>
      </trkpt>
      <trkpt lat="0" lon="0">
        <time>2020-12-20T10:37:30+00:00</time>
      </trkpt>
      <trkpt lat="0" lon="0">
        <time>2020-12-20T10:37:30.002000+00:00</time>
      </trkpt>
      <trkpt lat="47.31918" lon="-1.34824">
        <ele>111</ele>
        <time>2020-12-20T10:37:30.923000+00:00</time>
      </trkpt>
      <trkpt lat="0" lon="0">
        <time>2020-12-20T10:37:30.937000+00:00</time>
      </trkpt>
      <trkpt lat="0" lon="0">
        <time>2020-12-20T10:37:30.943000+00:00</time>
      </trkpt>
      <trkpt lat="0" lon="0">
        <time>2020-12-20T10:37:30.945000+00:00</time>
      </trkpt>
      <trkpt lat="47.31916" lon="-1.34824">
        <ele>110</ele>
        <time>2020-12-20T10:37:31.919000+00:00</time>
      </trkpt>
      <trkpt lat="0" lon="0">
        <time>2020-12-20T10:37:31.931000+00:00</time>
      </trkpt>
      <trkpt lat="0" lon="0">
        <time>2020-12-20T10:37:31.936000+00:00</time>
      </trkpt>
      <trkpt lat="0" lon="0">
        <time>2020-12-20T10:37:31.940000+00:00</time>
      </trkpt>
      <trkpt lat="47.31914" lon="-1.34822">
        <ele>111</ele>
        <time>2020-12-20T10:37:32.944000+00:00</time>
      </trkpt>
      <trkpt lat="0" lon="0">
        <time>2020-12-20T10:37:32.959000+00:00</time>
      </trkpt>
      <trkpt lat="0" lon="0">
        <time>2020-12-20T10:37:32.963000+00:00</time>
      </trkpt>
      <trkpt lat="0" lon="0">
        <time>2020-12-20T10:37:32.966000+00:00</time>
      </trkpt>
      <trkpt lat="47.31913" lon="-1.3482">
        <ele>111</ele>
        <time>2020-12-20T10:37:33.951000+00:00</time>
      </trkpt>
      <trkpt lat="0" lon="0">
        <time>2020-12-20T10:37:33.966000+00:00</time>
      </trkpt>
      <trkpt lat="0" lon="0">
        <time>2020-12-20T10:37:33.972000+00:00</time>
      </trkpt>
      <trkpt lat="0" lon="0">
        <time>2020-12-20T10:37:33.975000+00:00</time>
      </trkpt>
      <trkpt lat="47.31911" lon="-1.34817">
        <ele>111</ele>
        <time>2020-12-20T10:37:34.951000+00:00</time>
      </trkpt>
      <trkpt lat="0" lon="0">
        <time>2020-12-20T10:37:34.959000+00:00</time>
      </trkpt>
      <trkpt lat="0" lon="0">
        <time>2020-12-20T10:37:34.964000+00:00</time>
      </trkpt>
      <trkpt lat="0" lon="0">
        <time>2020-12-20T10:37:34.966000+00:00</time>
      </trkpt>
      <trkpt lat="47.3191" lon="-1.34813">
        <ele>112</ele>
        <time>2020-12-20T10:37:35.977000+00:00</time>
      </trkpt>
      <trkpt lat="0" lon="0">
        <time>2020-12-20T10:37:35.986000+00:00</time>
      </trkpt>
      <trkpt lat="0" lon="0">
        <time>2020-12-20T10:37:35.990000+00:00</time>
      </trkpt>
      <trkpt lat="0" lon="0">
        <time>2020-12-20T10:37:35.992000+00:00</time>
      </trkpt>
      <trkpt lat="47.31909" lon="-1.34809">
        <ele>112</ele>
        <time>2020-12-20T10:37:36.967000+00:00</time>
      </trkpt>
      <trkpt lat="0" lon="0">
        <time>2020-12-20T10:37:36.984000+00:00</time>
      </trkpt>
      <trkpt lat="0" lon="0">
        <time>2020-12-20T10:37:36.989000+00:00</time>
      </trkpt>
      <trkpt lat="0" lon="0">
        <time>2020-12-20T10:37:36.992000+00:00</time>
      </trkpt>
      <trkpt lat="47.31908" lon="-1.34804">
        <ele>112</ele>
        <time>2020-12-20T10:37:37.953000+00:00</time>
      </trkpt>
      <trkpt lat="0" lon="0">
        <time>2020-12-20T10:37:37.962000+00:00</time>
      </trkpt>
      <trkpt lat="0" lon="0">
        <time>2020-12-20T10:37:37.966000+00:00</time>
      </trkpt>
      <trkpt lat="0" lon="0">
        <time>2020-12-20T10:37:37.967000+00:00</time>
      </trkpt>
      <trkpt lat="47.31907" lon="-1.34799">
        <ele>112</ele>
        <time>2020-12-20T10:37:38.968000+00:00</time>
      </trkpt>
      <trkpt lat="0" lon="0">
        <time>2020-12-20T10:37:38.980000+00:00</time>
      </trkpt>
      <trkpt lat="0" lon="0">
        <time>2020-12-20T10:37:38.984000+00:00</time>
      </trkpt>
      <trkpt lat="0" lon="0">
        <time>2020-12-20T10:37:38.986000+00:00</time>
      </trkpt>
      <trkpt lat="47.31907" lon="-1.34794">
        <ele>112</ele>
        <time>2020-12-20T10:37:39.994000+00:00</time>
      </trkpt>
      <trkpt lat="0" lon="0">
        <time>2020-12-20T10:37:40+00:00</time>
      </trkpt>
      <trkpt lat="0" lon="0">
        <time>2020-12-20T10:37:40.004000+00:00</time>
      </trkpt>
      <trkpt lat="0" lon="0">
        <time>2020-12-20T10:37:40.006000+00:00</time>
      </trkpt>
      <trkpt lat="47.31906" lon="-1.34789">
        <ele>112</ele>
        <time>2020-12-20T10:37:40.955000+00:00</time>
      </trkpt>
      <trkpt lat="0" lon="0">
        <time>2020-12-20T10:37:40.963000+00:00</time>
      </trkpt>
      <trkpt lat="0" lon="0">
        <time>2020-12-20T10:37:40.967000+00:00</time>
      </trkpt>
      <trkpt lat="0" lon="0">
        <time>2020-12-20T10:37:40.969000+00:00</time>
      </trkpt>
      <trkpt lat="47.31906" lon="-1.34784">
        <ele>112</ele>
        <time>2020-12-20T10:37:41.992000+00:00</time>
      </trkpt>
      <trkpt lat="0" lon="0">
        <time>2020-12-20T10:37:41.997000+00:00</time>
      </trkpt>
      <trkpt lat="0" lon="0">
        <time>2020-12-20T10:37:42.004000+00:00</time>
      </trkpt>
      <trkpt lat="0" lon="0">
        <time>2020-12-20T10:37:42.007000+00:00</time>
      </trkpt>
      <trkpt lat="47.31905" lon="-1.34779">
        <ele>112</ele>
        <time>2020-12-20T10:37:42.978000+00:00</time>
      </trkpt>
      <trkpt lat="0" lon="0">
        <time>2020-12-20T10:37:42.995000+00:00</time>
      </trkpt>
      <trkpt lat="0" lon="0">
        <time>2020-12-20T10:37:43+00:00</time>
      </trkpt>
      <trkpt lat="0" lon="0">
        <time>2020-12-20T10:37:43.003000+00:00</time>
      </trkpt>
      <trkpt lat="47.31904" lon="-1.34774">
        <ele>112</ele>
        <time>2020-12-20T10:37:43.932000+00:00</time>
      </trkpt>
      <trkpt lat="0" lon="0">
        <time>2020-12-20T10:37:43.946000+00:00</time>
      </trkpt>
      <trkpt lat="0" lon="0">
        <time>2020-12-20T10:37:43.950000+00:00</time>
      </trkpt>
      <trkpt lat="0" lon="0">
        <time>2020-12-20T10:37:43.951000+00:00</time>
      </trkpt>
      <trkpt lat="47.31904" lon="-1.34769">
        <ele>112</ele>
        <time>2020-12-20T10:37:44.961000+00:00</time>
      </trkpt>
      <trkpt lat="0" lon="0">
        <time>2020-12-20T10:37:44.966000+00:00</time>
      </trkpt>
      <trkpt lat="0" lon="0">
        <time>2020-12-20T10:37:44.971000+00:00</time>
      </trkpt>
      <trkpt lat="0" lon="0">
        <time>2020-12-20T10:37:44.974000+00:00</time>
      </trkpt>
      <trkpt lat="47.31904" lon="-1.34764">
        <ele>112</ele>
        <time>2020-12-20T10:37:45.926000+00:00</time>
      </trkpt>
      <trkpt lat="0" lon="0">
        <time>2020-12-20T10:37:45.935000+00:00</time>
      </trkpt>
      <trkpt lat="0" lon="0">
        <time>2020-12-20T10:37:45.938000+00:00</time>
      </trkpt>
      <trkpt lat="0" lon="0">
        <time>2020-12-20T10:37:45.941000+00:00</time>
      </trkpt>
      <trkpt lat="47.31904" lon="-1.34759">
        <ele>112</ele>
        <time>2020-12-20T10:37:46.948000+00:00</time>
      </trkpt>
      <trkpt lat="0" lon="0">
        <time>2020-12-20T10:37:46.953000+00:00</time>
      </trkpt>
      <trkpt lat="0" lon="0">
        <time>2020-12-20T10:37:46.959000+00:00</time>
      </trkpt>
      <trkpt lat="0" lon="0">
        <time>2020-12-20T10:37:46.961000+00:00</time>
      </trkpt>
      <trkpt lat="47.31905" lon="-1.34753">
        <ele>112</ele>
        <time>2020-12-20T10:37:48.010000+00:00</time>
      </trkpt>
      <trkpt lat="0" lon="0">
        <time>2020-12-20T10:37:48.019000+00:00</time>
      </trkpt>
      <trkpt lat="0" lon="0">
        <time>2020-12-20T10:37:48.023000+00:00</time>
      </trkpt>
      <trkpt lat="0" lon="0">
        <time>2020-12-20T10:37:48.027000+00:00</time>
      </trkpt>
      <trkpt lat="47.31906" lon="-1.34748">
        <ele>113</ele>
        <time>2020-12-20T10:37:48.966000+00:00</time>
      </trkpt>
      <trkpt lat="0" lon="0">
        <time>2020-12-20T10:37:48.977000+00:00</time>
      </trkpt>
      <trkpt lat="0" lon="0">
        <time>2020-12-20T10:37:48.982000+00:00</time>
      </trkpt>
      <trkpt lat="0" lon="0">
        <time>2020-12-20T10:37:48.985000+00:00</time>
      </trkpt>
      <trkpt lat="47.31906" lon="-1.34742">
        <ele>113</ele>
        <time>2020-12-20T10:37:49.947000+00:00</time>
      </trkpt>
      <trkpt lat="0" lon="0">
        <time>2020-12-20T10:37:49.951000+00:00</time>
      </trkpt>
      <trkpt lat="0" lon="0">
        <time>2020-12-20T10:37:49.957000+00:00</time>
      </trkpt>
      <trkpt lat="0" lon="0">
        <time>2020-12-20T10:37:49.968000+00:00</time>
      </trkpt>
      <trkpt lat="47.31907" lon="-1.34736">
        <ele>114</ele>
        <time>2020-12-20T10:37:50.939000+00:00</time>
      </trkpt>
      <trkpt lat="0" lon="0">
        <time>2020-12-20T10:37:50.944000+00:00</time>
      </trkpt>
      <trkpt lat="0" lon="0">
        <time>2020-12-20T10:37:50.952000+00:00</time>
      </trkpt>
      <trkpt lat="0" lon="0">
        <time>2020-12-20T10:37:50.957000+00:00</time>
      </trkpt>
      <trkpt lat="47.31907" lon="-1.3473">
        <ele>114</ele>
        <time>2020-12-20T10:37:51.995000+00:00</time>
      </trkpt>
      <trkpt lat="0" lon="0">
        <time>2020-12-20T10:37:52.013000+00:00</time>
      </trkpt>
      <trkpt lat="0" lon="0">
        <time>2020-12-20T10:37:52.018000+00:00</time>
      </trkpt>
      <trkpt lat="0" lon="0">
        <time>2020-12-20T10:37:52.021000+00:00</time>
      </trkpt>
      <trkpt lat="47.31906" lon="-1.34724">
        <ele>114</ele>
        <time>2020-12-20T10:37:52.981000+00:00</time>
      </trkpt>
      <trkpt lat="0" lon="0">
        <time>2020-12-20T10:37:52.988000+00:00</time>
      </trkpt>
      <trkpt lat="0" lon="0">
        <time>2020-12-20T10:37:52.997000+00:00</time>
      </trkpt>
      <trkpt lat="0" lon="0">
        <time>2020-12-20T10:37:52.999000+00:00</time>
      </trkpt>
      <trkpt lat="47.31906" lon="-1.34718">
        <ele>113</ele>
        <time>2020-12-20T10:37:54.003000+00:00</time>
      </trkpt>
      <trkpt lat="0" lon="0">
        <time>2020-12-20T10:37:54.015000+00:00</time>
      </trkpt>
      <trkpt lat="0" lon="0">
        <time>2020-12-20T10:37:54.022000+00:00</time>
      </trkpt>
      <trkpt lat="0" lon="0">
        <time>2020-12-20T10:37:54.025000+00:00</time>
      </trkpt>
      <trkpt lat="47.31905" lon="-1.34713">
        <ele>113</ele>
        <time>2020-12-20T10:37:54.957000+00:00</time>
      </trkpt>
      <trkpt lat="0" lon="0">
        <time>2020-12-20T10:37:54.963000+00:00</time>
      </trkpt>
      <trkpt lat="0" lon="0">
        <time>2020-12-20T10:37:54.968000+00:00</time>
      </trkpt>
      <trkpt lat="0" lon="0">
        <time>2020-12-20T10:37:54.970000+00:00</time>
      </trkpt>
      <trkpt lat="47.31904" lon="-1.34708">
        <ele>113</ele>
        <time>2020-12-20T10:37:55.950000+00:00</time>
      </trkpt>
      <trkpt lat="0" lon="0">
        <time>2020-12-20T10:37:55.957000+00:00</time>
      </trkpt>
      <trkpt lat="0" lon="0">
        <time>2020-12-20T10:37:55.960000+00:00</time>
      </trkpt>
      <trkpt lat="0" lon="0">
        <time>2020-12-20T10:37:55.966000+00:00</time>
      </trkpt>
      <trkpt lat="47.31902" lon="-1.34703">
        <ele>114</ele>
        <time>2020-12-20T10:37:56.926000+00:00</time>
      </trkpt>
      <trkpt lat="0" lon="0">
        <time>2020-12-20T10:37:56.931000+00:00</time>
      </trkpt>
      <trkpt lat="0" lon="0">
        <time>2020-12-20T10:37:56.939000+00:00</time>
      </trkpt>
      <trkpt lat="0" lon="0">
        <time>2020-12-20T10:37:56.944000+00:00</time>
      </trkpt>
      <trkpt lat="47.31901" lon="-1.34699">
        <ele>114</ele>
        <time>2020-12-20T10:37:57.943000+00:00</time>
      </trkpt>
      <trkpt lat="0" lon="0">
        <time>2020-12-20T10:37:57.953000+00:00</time>
      </trkpt>
      <trkpt lat="0" lon="0">
        <time>2020-12-20T10:37:57.957000+00:00</time>
      </trkpt>
      <trkpt lat="0" lon="0">
        <time>2020-12-20T10:37:57.962000+00:00</time>
      </trkpt>
      <trkpt lat="47.319" lon="-1.34694">
        <ele>114</ele>
        <time>2020-12-20T10:37:58.966000+00:00</time>
      </trkpt>
      <trkpt lat="0" lon="0">
        <time>2020-12-20T10:37:58.975000+00:00</time>
      </trkpt>
      <trkpt lat="0" lon="0">
        <time>2020-12-20T10:37:58.980000+00:00</time>
      </trkpt>
      <trkpt lat="0" lon="0">
        <time>2020-12-20T10:37:58.990000+00:00</time>
      </trkpt>
      <trkpt lat="47.31898" lon="-1.3469">
        <ele>113</ele>
        <time>2020-12-20T10:37:59.984000+00:00</time>
      </trkpt>
      <trkpt lat="0" lon="0">
        <time>2020-12-20T10:38:00.002000+00:00</time>
      </trkpt>
      <trkpt lat="0" lon="0">
        <time>2020-12-20T10:38:00.009000+00:00</time>
      </trkpt>
      <trkpt lat="0" lon="0">
        <time>2020-12-20T10:38:00.012000+00:00</time>
      </trkpt>
      <trkpt lat="47.31897" lon="-1.34687">
        <ele>113</ele>
        <time>2020-12-20T10:38:00.968000+00:00</time>
      </trkpt>
      <trkpt lat="0" lon="0">
        <time>2020-12-20T10:38:00.973000+00:00</time>
      </trkpt>
      <trkpt lat="0" lon="0">
        <time>2020-12-20T10:38:00.985000+00:00</time>
      </trkpt>
      <trkpt lat="0" lon="0">
        <time>2020-12-20T10:38:00.988000+00:00</time>
      </trkpt>
      <trkpt lat="47.31896" lon="-1.34684">
        <ele>113</ele>
        <time>2020-12-20T10:38:01.979000+00:00</time>
      </trkpt>
      <trkpt lat="0" lon="0">
        <time>2020-12-20T10:38:01.995000+00:00</time>
      </trkpt>
      <trkpt lat="0" lon="0">
        <time>2020-12-20T10:38:02.001000+00:00</time>
      </trkpt>
      <trkpt lat="0" lon="0">
        <time>2020-12-20T10:38:02.005000+00:00</time>
      </trkpt>
      <trkpt lat="47.31895" lon="-1.34681">
        <ele>113</ele>
        <time>2020-12-20T10:38:02.954000+00:00</time>
      </trkpt>
      <trkpt lat="0" lon="0">
        <time>2020-12-20T10:38:02.963000+00:00</time>
      </trkpt>
      <trkpt lat="0" lon="0">
        <time>2020-12-20T10:38:02.967000+00:00</time>
      </trkpt>
      <trkpt lat="0" lon="0">
        <time>2020-12-20T10:38:02.969000+00:00</time>
      </trkpt>
      <trkpt lat="47.31895" lon="-1.34679">
        <ele>112</ele>
        <time>2020-12-20T10:38:03.948000+00:00</time>
      </trkpt>
      <trkpt lat="0" lon="0">
        <time>2020-12-20T10:38:03.965000+00:00</time>
      </trkpt>
      <trkpt lat="0" lon="0">
        <time>2020-12-20T10:38:03.970000+00:00</time>
      </trkpt>
      <trkpt lat="0" lon="0">
        <time>2020-12-20T10:38:03.975000+00:00</time>
      </trkpt>
      <trkpt lat="47.31895" lon="-1.34678">
        <ele>112</ele>
        <time>2020-12-20T10:38:04.914000+00:00</time>
      </trkpt>
      <trkpt lat="0" lon="0">
        <time>2020-12-20T10:38:04.918000+00:00</time>
      </trkpt>
      <trkpt lat="0" lon="0">
        <time>2020-12-20T10:38:04.923000+00:00</time>
      </trkpt>
      <trkpt lat="0" lon="0">
        <time>2020-12-20T10:38:04.925000+00:00</time>
      </trkpt>
      <trkpt lat="47.31895" lon="-1.34677">
        <ele>111</ele>
        <time>2020-12-20T10:38:05.913000+00:00</time>
      </trkpt>
      <trkpt lat="0" lon="0">
        <time>2020-12-20T10:38:05.929000+00:00</time>
      </trkpt>
      <trkpt lat="0" lon="0">
        <time>2020-12-20T10:38:05.938000+00:00</time>
      </trkpt>
      <trkpt lat="0" lon="0">
        <time>2020-12-20T10:38:05.944000+00:00</time>
      </trkpt>
      <trkpt lat="47.31895" lon="-1.34677">
        <ele>111</ele>
        <time>2020-12-20T10:38:06.943000+00:00</time>
      </trkpt>
      <trkpt lat="0" lon="0">
        <time>2020-12-20T10:38:06.950000+00:00</time>
      </trkpt>
      <trkpt lat="0" lon="0">
        <time>2020-12-20T10:38:06.959000+00:00</time>
      </trkpt>
      <trkpt lat="0" lon="0">
        <time>2020-12-20T10:38:06.963000+00:00</time>
      </trkpt>
      <trkpt lat="47.31896" lon="-1.34677">
        <ele>111</ele>
        <time>2020-12-20T10:38:07.971000+00:00</time>
      </trkpt>
      <trkpt lat="0" lon="0">
        <time>2020-12-20T10:38:07.979000+00:00</time>
      </trkpt>
      <trkpt lat="0" lon="0">
        <time>2020-12-20T10:38:07.986000+00:00</time>
      </trkpt>
      <trkpt lat="0" lon="0">
        <time>2020-12-20T10:38:07.989000+00:00</time>
      </trkpt>
      <trkpt lat="47.31896" lon="-1.34677">
        <ele>111</ele>
        <time>2020-12-20T10:38:08.963000+00:00</time>
      </trkpt>
      <trkpt lat="0" lon="0">
        <time>2020-12-20T10:38:08.972000+00:00</time>
      </trkpt>
      <trkpt lat="0" lon="0">
        <time>2020-12-20T10:38:08.983000+00:00</time>
      </trkpt>
      <trkpt lat="0" lon="0">
        <time>2020-12-20T10:38:08.986000+00:00</time>
      </trkpt>
      <trkpt lat="47.31896" lon="-1.34677">
        <ele>111</ele>
        <time>2020-12-20T10:38:09.957000+00:00</time>
      </trkpt>
      <trkpt lat="0" lon="0">
        <time>2020-12-20T10:38:09.962000+00:00</time>
      </trkpt>
      <trkpt lat="0" lon="0">
        <time>2020-12-20T10:38:09.966000+00:00</time>
      </trkpt>
      <trkpt lat="0" lon="0">
        <time>2020-12-20T10:38:09.968000+00:00</time>
      </trkpt>
      <trkpt lat="47.31896" lon="-1.34678">
        <ele>111</ele>
        <time>2020-12-20T10:38:10.878000+00:00</time>
      </trkpt>
      <trkpt lat="0" lon="0">
        <time>2020-12-20T10:38:10.886000+00:00</time>
      </trkpt>
      <trkpt lat="0" lon="0">
        <time>2020-12-20T10:38:10.889000+00:00</time>
      </trkpt>
      <trkpt lat="0" lon="0">
        <time>2020-12-20T10:38:10.891000+00:00</time>
      </trkpt>
      <trkpt lat="47.31897" lon="-1.34678">
        <ele>111</ele>
        <time>2020-12-20T10:38:11.942000+00:00</time>
      </trkpt>
      <trkpt lat="0" lon="0">
        <time>2020-12-20T10:38:11.948000+00:00</time>
      </trkpt>
      <trkpt lat="0" lon="0">
        <time>2020-12-20T10:38:11.952000+00:00</time>
      </trkpt>
      <trkpt lat="0" lon="0">
        <time>2020-12-20T10:38:11.954000+00:00</time>
      </trkpt>
      <trkpt lat="47.31897" lon="-1.34679">
        <ele>111</ele>
        <time>2020-12-20T10:38:12.932000+00:00</time>
      </trkpt>
      <trkpt lat="0" lon="0">
        <time>2020-12-20T10:38:12.940000+00:00</time>
      </trkpt>
      <trkpt lat="0" lon="0">
        <time>2020-12-20T10:38:12.944000+00:00</time>
      </trkpt>
      <trkpt lat="0" lon="0">
        <time>2020-12-20T10:38:12.947000+00:00</time>
      </trkpt>
      <trkpt lat="47.31897" lon="-1.3468">
        <ele>111</ele>
        <time>2020-12-20T10:38:13.927000+00:00</time>
      </trkpt>
      <trkpt lat="0" lon="0">
        <time>2020-12-20T10:38:13.935000+00:00</time>
      </trkpt>
      <trkpt lat="0" lon="0">
        <time>2020-12-20T10:38:13.939000+00:00</time>
      </trkpt>
      <trkpt lat="0" lon="0">
        <time>2020-12-20T10:38:13.942000+00:00</time>
      </trkpt>
      <trkpt lat="47.31897" lon="-1.3468">
        <ele>111</ele>
        <time>2020-12-20T10:38:14.968000+00:00</time>
      </trkpt>
      <trkpt lat="0" lon="0">
        <time>2020-12-20T10:38:14.985000+00:00</time>
      </trkpt>
      <trkpt lat="0" lon="0">
        <time>2020-12-20T10:38:14.989000+00:00</time>
      </trkpt>
      <trkpt lat="0" lon="0">
        <time>2020-12-20T10:38:15.002000+00:00</time>
      </trkpt>
      <trkpt lat="47.31875" lon="-1.34649">
        <ele>109</ele>
        <time>2020-12-20T10:38:15.948000+00:00</time>
      </trkpt>
      <trkpt lat="0" lon="0">
        <time>2020-12-20T10:38:15.949000+00:00</time>
      </trkpt>
      <trkpt lat="0" lon="0">
        <time>2020-12-20T10:38:15.950000+00:00</time>
      </trkpt>
      <trkpt lat="0" lon="0">
        <time>2020-12-20T10:38:15.951000+00:00</time>
      </trkpt>
      <trkpt lat="47.31873" lon="-1.34649">
        <ele>108</ele>
        <time>2020-12-20T10:38:17.002000+00:00</time>
      </trkpt>
      <trkpt lat="0" lon="0">
        <time>2020-12-20T10:38:17.011000+00:00</time>
      </trkpt>
      <trkpt lat="0" lon="0">
        <time>2020-12-20T10:38:17.013000+00:00</time>
      </trkpt>
      <trkpt lat="0" lon="0">
        <time>2020-12-20T10:38:17.014000+00:00</time>
      </trkpt>
      <trkpt lat="47.31871" lon="-1.3465">
        <ele>108</ele>
        <time>2020-12-20T10:38:18.055000+00:00</time>
      </trkpt>
      <trkpt lat="0" lon="0">
        <time>2020-12-20T10:38:18.061000+00:00</time>
      </trkpt>
      <trkpt lat="0" lon="0">
        <time>2020-12-20T10:38:18.062000+00:00</time>
      </trkpt>
      <trkpt lat="0" lon="0">
        <time>2020-12-20T10:38:18.063000+00:00</time>
      </trkpt>
      <trkpt lat="47.31869" lon="-1.3465">
        <ele>108</ele>
        <time>2020-12-20T10:38:19.042000+00:00</time>
      </trkpt>
      <trkpt lat="0" lon="0">
        <time>2020-12-20T10:38:19.051000+00:00</time>
      </trkpt>
      <trkpt lat="0" lon="0">
        <time>2020-12-20T10:38:19.059000+00:00</time>
      </trkpt>
      <trkpt lat="0" lon="0">
        <time>2020-12-20T10:38:19.062000+00:00</time>
      </trkpt>
      <trkpt lat="47.31867" lon="-1.34651">
        <ele>108</ele>
        <time>2020-12-20T10:38:20.063000+00:00</time>
      </trkpt>
      <trkpt lat="0" lon="0">
        <time>2020-12-20T10:38:20.064000+00:00</time>
      </trkpt>
      <trkpt lat="0" lon="0">
        <time>2020-12-20T10:38:20.065000+00:00</time>
      </trkpt>
      <trkpt lat="0" lon="0">
        <time>2020-12-20T10:38:20.066000+00:00</time>
      </trkpt>
      <trkpt lat="47.31865" lon="-1.34653">
        <ele>107</ele>
        <time>2020-12-20T10:38:21.074000+00:00</time>
      </trkpt>
      <trkpt lat="0" lon="0">
        <time>2020-12-20T10:38:21.077000+00:00</time>
      </trkpt>
      <trkpt lat="0" lon="0">
        <time>2020-12-20T10:38:21.079000+00:00</time>
      </trkpt>
      <trkpt lat="0" lon="0">
        <time>2020-12-20T10:38:21.080000+00:00</time>
      </trkpt>
      <trkpt lat="47.31862" lon="-1.34655">
        <ele>107</ele>
        <time>2020-12-20T10:38:22.072000+00:00</time>
      </trkpt>
      <trkpt lat="0" lon="0">
        <time>2020-12-20T10:38:22.078000+00:00</time>
      </trkpt>
      <trkpt lat="0" lon="0">
        <time>2020-12-20T10:38:22.082000+00:00</time>
      </trkpt>
      <trkpt lat="0" lon="0">
        <time>2020-12-20T10:38:22.085000+00:00</time>
      </trkpt>
      <trkpt lat="47.3186" lon="-1.34658">
        <ele>107</ele>
        <time>2020-12-20T10:38:23.052000+00:00</time>
      </trkpt>
      <trkpt lat="0" lon="0">
        <time>2020-12-20T10:38:23.053000+00:00</time>
      </trkpt>
      <trkpt lat="0" lon="0">
        <time>2020-12-20T10:38:23.054000+00:00</time>
      </trkpt>
      <trkpt lat="0" lon="0">
        <time>2020-12-20T10:38:23.055000+00:00</time>
      </trkpt>
      <trkpt lat="47.31857" lon="-1.34661">
        <ele>108</ele>
        <time>2020-12-20T10:38:24.074000+00:00</time>
      </trkpt>
      <trkpt lat="0" lon="0">
        <time>2020-12-20T10:38:24.081000+00:00</time>
      </trkpt>
      <trkpt lat="0" lon="0">
        <time>2020-12-20T10:38:24.090000+00:00</time>
      </trkpt>
      <trkpt lat="0" lon="0">
        <time>2020-12-20T10:38:24.092000+00:00</time>
      </trkpt>
      <trkpt lat="47.31853" lon="-1.34664">
        <ele>108</ele>
        <time>2020-12-20T10:38:25.086000+00:00</time>
      </trkpt>
      <trkpt lat="0" lon="0">
        <time>2020-12-20T10:38:25.094000+00:00</time>
      </trkpt>
      <trkpt lat="0" lon="0">
        <time>2020-12-20T10:38:25.098000+00:00</time>
      </trkpt>
      <trkpt lat="0" lon="0">
        <time>2020-12-20T10:38:25.101000+00:00</time>
      </trkpt>
      <trkpt lat="47.31849" lon="-1.34668">
        <ele>109</ele>
        <time>2020-12-20T10:38:26.083000+00:00</time>
      </trkpt>
      <trkpt lat="0" lon="0">
        <time>2020-12-20T10:38:26.086000+00:00</time>
      </trkpt>
      <trkpt lat="0" lon="0">
        <time>2020-12-20T10:38:26.089000+00:00</time>
      </trkpt>
      <trkpt lat="0" lon="0">
        <time>2020-12-20T10:38:26.090000+00:00</time>
      </trkpt>
      <trkpt lat="47.31845" lon="-1.34673">
        <ele>109</ele>
        <time>2020-12-20T10:38:27.068000+00:00</time>
      </trkpt>
      <trkpt lat="0" lon="0">
        <time>2020-12-20T10:38:27.069000+00:00</time>
      </trkpt>
      <trkpt lat="0" lon="0">
        <time>2020-12-20T10:38:27.070000+00:00</time>
      </trkpt>
      <trkpt lat="0" lon="0">
        <time>2020-12-20T10:38:27.071000+00:00</time>
      </trkpt>
      <trkpt lat="47.3184" lon="-1.34678">
        <ele>110</ele>
        <time>2020-12-20T10:38:28.015000+00:00</time>
      </trkpt>
      <trkpt lat="0" lon="0">
        <time>2020-12-20T10:38:28.020000+00:00</time>
      </trkpt>
      <trkpt lat="0" lon="0">
        <time>2020-12-20T10:38:28.033000+00:00</time>
      </trkpt>
      <trkpt lat="0" lon="0">
        <time>2020-12-20T10:38:28.039000+00:00</time>
      </trkpt>
      <trkpt lat="47.31836" lon="-1.34684">
        <ele>110</ele>
        <time>2020-12-20T10:38:29.039000+00:00</time>
      </trkpt>
      <trkpt lat="0" lon="0">
        <time>2020-12-20T10:38:29.045000+00:00</time>
      </trkpt>
      <trkpt lat="0" lon="0">
        <time>2020-12-20T10:38:29.051000+00:00</time>
      </trkpt>
      <trkpt lat="0" lon="0">
        <time>2020-12-20T10:38:29.054000+00:00</time>
      </trkpt>
      <trkpt lat="47.3183" lon="-1.34689">
        <ele>109</ele>
        <time>2020-12-20T10:38:30.038000+00:00</time>
      </trkpt>
      <trkpt lat="0" lon="0">
        <time>2020-12-20T10:38:30.051000+00:00</time>
      </trkpt>
      <trkpt lat="0" lon="0">
        <time>2020-12-20T10:38:30.056000+00:00</time>
      </trkpt>
      <trkpt lat="0" lon="0">
        <time>2020-12-20T10:38:30.059000+00:00</time>
      </trkpt>
      <trkpt lat="47.31824" lon="-1.34694">
        <ele>108</ele>
        <time>2020-12-20T10:38:31.071000+00:00</time>
      </trkpt>
      <trkpt lat="0" lon="0">
        <time>2020-12-20T10:38:31.073000+00:00</time>
      </trkpt>
      <trkpt lat="0" lon="0">
        <time>2020-12-20T10:38:31.075000+00:00</time>
      </trkpt>
      <trkpt lat="0" lon="0">
        <time>2020-12-20T10:38:31.078000+00:00</time>
      </trkpt>
      <trkpt lat="47.31817" lon="-1.34699">
        <ele>108</ele>
        <time>2020-12-20T10:38:32.041000+00:00</time>
      </trkpt>
      <trkpt lat="0" lon="0">
        <time>2020-12-20T10:38:32.056000+00:00</time>
      </trkpt>
      <trkpt lat="0" lon="0">
        <time>2020-12-20T10:38:32.061000+00:00</time>
      </trkpt>
      <trkpt lat="0" lon="0">
        <time>2020-12-20T10:38:32.063000+00:00</time>
      </trkpt>
      <trkpt lat="47.3181" lon="-1.34704">
        <ele>107</ele>
        <time>2020-12-20T10:38:33.105000+00:00</time>
      </trkpt>
      <trkpt lat="0" lon="0">
        <time>2020-12-20T10:38:33.112000+00:00</time>
      </trkpt>
      <trkpt lat="0" lon="0">
        <time>2020-12-20T10:38:33.116000+00:00</time>
      </trkpt>
      <trkpt lat="0" lon="0">
        <time>2020-12-20T10:38:33.118000+00:00</time>
      </trkpt>
      <trkpt lat="47.31803" lon="-1.34708">
        <ele>106</ele>
        <time>2020-12-20T10:38:34.064000+00:00</time>
      </trkpt>
      <trkpt lat="0" lon="0">
        <time>2020-12-20T10:38:34.078000+00:00</time>
      </trkpt>
      <trkpt lat="0" lon="0">
        <time>2020-12-20T10:38:34.089000+00:00</time>
      </trkpt>
      <trkpt lat="0" lon="0">
        <time>2020-12-20T10:38:34.091000+00:00</time>
      </trkpt>
      <trkpt lat="47.31795" lon="-1.34712">
        <ele>105</ele>
        <time>2020-12-20T10:38:35.032000+00:00</time>
      </trkpt>
      <trkpt lat="0" lon="0">
        <time>2020-12-20T10:38:35.047000+00:00</time>
      </trkpt>
      <trkpt lat="0" lon="0">
        <time>2020-12-20T10:38:35.052000+00:00</time>
      </trkpt>
      <trkpt lat="0" lon="0">
        <time>2020-12-20T10:38:35.054000+00:00</time>
      </trkpt>
      <trkpt lat="47.31786" lon="-1.34715">
        <ele>105</ele>
        <time>2020-12-20T10:38:36.070000+00:00</time>
      </trkpt>
      <trkpt lat="0" lon="0">
        <time>2020-12-20T10:38:36.085000+00:00</time>
      </trkpt>
      <trkpt lat="0" lon="0">
        <time>2020-12-20T10:38:36.090000+00:00</time>
      </trkpt>
      <trkpt lat="0" lon="0">
        <time>2020-12-20T10:38:36.092000+00:00</time>
      </trkpt>
      <trkpt lat="47.31778" lon="-1.34719">
        <ele>104</ele>
        <time>2020-12-20T10:38:37.119000+00:00</time>
      </trkpt>
      <trkpt lat="0" lon="0">
        <time>2020-12-20T10:38:37.127000+00:00</time>
      </trkpt>
      <trkpt lat="0" lon="0">
        <time>2020-12-20T10:38:37.131000+00:00</time>
      </trkpt>
      <trkpt lat="0" lon="0">
        <time>2020-12-20T10:38:37.134000+00:00</time>
      </trkpt>
      <trkpt lat="47.31769" lon="-1.34722">
        <ele>103</ele>
        <time>2020-12-20T10:38:38.040000+00:00</time>
      </trkpt>
      <trkpt lat="0" lon="0">
        <time>2020-12-20T10:38:38.046000+00:00</time>
      </trkpt>
      <trkpt lat="0" lon="0">
        <time>2020-12-20T10:38:38.050000+00:00</time>
      </trkpt>
      <trkpt lat="0" lon="0">
        <time>2020-12-20T10:38:38.054000+00:00</time>
      </trkpt>
      <trkpt lat="47.31759" lon="-1.34725">
        <ele>102</ele>
        <time>2020-12-20T10:38:39.106000+00:00</time>
      </trkpt>
      <trkpt lat="0" lon="0">
        <time>2020-12-20T10:38:39.114000+00:00</time>
      </trkpt>
      <trkpt lat="0" lon="0">
        <time>2020-12-20T10:38:39.122000+00:00</time>
      </trkpt>
      <trkpt lat="0" lon="0">
        <time>2020-12-20T10:38:39.124000+00:00</time>
      </trkpt>
      <trkpt lat="47.31749" lon="-1.34728">
        <ele>102</ele>
        <time>2020-12-20T10:38:40.042000+00:00</time>
      </trkpt>
      <trkpt lat="0" lon="0">
        <time>2020-12-20T10:38:40.054000+00:00</time>
      </trkpt>
      <trkpt lat="0" lon="0">
        <time>2020-12-20T10:38:40.061000+00:00</time>
      </trkpt>
      <trkpt lat="0" lon="0">
        <time>2020-12-20T10:38:40.064000+00:00</time>
      </trkpt>
      <trkpt lat="47.31738" lon="-1.34732">
        <ele>101</ele>
        <time>2020-12-20T10:38:41.048000+00:00</time>
      </trkpt>
      <trkpt lat="0" lon="0">
        <time>2020-12-20T10:38:41.058000+00:00</time>
      </trkpt>
      <trkpt lat="0" lon="0">
        <time>2020-12-20T10:38:41.062000+00:00</time>
      </trkpt>
      <trkpt lat="0" lon="0">
        <time>2020-12-20T10:38:41.065000+00:00</time>
      </trkpt>
      <trkpt lat="47.31727" lon="-1.34735">
        <ele>101</ele>
        <time>2020-12-20T10:38:42.045000+00:00</time>
      </trkpt>
      <trkpt lat="0" lon="0">
        <time>2020-12-20T10:38:42.065000+00:00</time>
      </trkpt>
      <trkpt lat="0" lon="0">
        <time>2020-12-20T10:38:42.074000+00:00</time>
      </trkpt>
      <trkpt lat="0" lon="0">
        <time>2020-12-20T10:38:42.079000+00:00</time>
      </trkpt>
      <trkpt lat="47.31716" lon="-1.34739">
        <ele>100</ele>
        <time>2020-12-20T10:38:43.036000+00:00</time>
      </trkpt>
      <trkpt lat="0" lon="0">
        <time>2020-12-20T10:38:43.041000+00:00</time>
      </trkpt>
      <trkpt lat="0" lon="0">
        <time>2020-12-20T10:38:43.046000+00:00</time>
      </trkpt>
      <trkpt lat="0" lon="0">
        <time>2020-12-20T10:38:43.048000+00:00</time>
      </trkpt>
      <trkpt lat="47.31705" lon="-1.34742">
        <ele>99</ele>
        <time>2020-12-20T10:38:44.022000+00:00</time>
      </trkpt>
      <trkpt lat="0" lon="0">
        <time>2020-12-20T10:38:44.034000+00:00</time>
      </trkpt>
      <trkpt lat="0" lon="0">
        <time>2020-12-20T10:38:44.043000+00:00</time>
      </trkpt>
      <trkpt lat="0" lon="0">
        <time>2020-12-20T10:38:44.047000+00:00</time>
      </trkpt>
      <trkpt lat="47.31694" lon="-1.34745">
        <ele>99</ele>
        <time>2020-12-20T10:38:45.059000+00:00</time>
      </trkpt>
      <trkpt lat="0" lon="0">
        <time>2020-12-20T10:38:45.071000+00:00</time>
      </trkpt>
      <trkpt lat="0" lon="0">
        <time>2020-12-20T10:38:45.078000+00:00</time>
      </trkpt>
      <trkpt lat="0" lon="0">
        <time>2020-12-20T10:38:45.081000+00:00</time>
      </trkpt>
      <trkpt lat="47.31683" lon="-1.34748">
        <ele>98</ele>
        <time>2020-12-20T10:38:46.054000+00:00</time>
      </trkpt>
      <trkpt lat="0" lon="0">
        <time>2020-12-20T10:38:46.058000+00:00</time>
      </trkpt>
      <trkpt lat="0" lon="0">
        <time>2020-12-20T10:38:46.065000+00:00</time>
      </trkpt>
      <trkpt lat="0" lon="0">
        <time>2020-12-20T10:38:46.067000+00:00</time>
      </trkpt>
      <trkpt lat="47.31671" lon="-1.34751">
        <ele>97</ele>
        <time>2020-12-20T10:38:47.068000+00:00</time>
      </trkpt>
      <trkpt lat="0" lon="0">
        <time>2020-12-20T10:38:47.074000+00:00</time>
      </trkpt>
      <trkpt lat="0" lon="0">
        <time>2020-12-20T10:38:47.081000+00:00</time>
      </trkpt>
      <trkpt lat="0" lon="0">
        <time>2020-12-20T10:38:47.082000+00:00</time>
      </trkpt>
      <trkpt lat="47.3165" lon="-1.34758">
        <ele>94</ele>
        <time>2020-12-20T10:38:49.015000+00:00</time>
      </trkpt>
      <trkpt lat="0" lon="0">
        <time>2020-12-20T10:38:49.023000+00:00</time>
      </trkpt>
      <trkpt lat="0" lon="0">
        <time>2020-12-20T10:38:49.028000+00:00</time>
      </trkpt>
      <trkpt lat="0" lon="0">
        <time>2020-12-20T10:38:49.031000+00:00</time>
      </trkpt>
      <trkpt lat="47.31638" lon="-1.34763">
        <ele>94</ele>
        <time>2020-12-20T10:38:50.035000+00:00</time>
      </trkpt>
      <trkpt lat="0" lon="0">
        <time>2020-12-20T10:38:50.042000+00:00</time>
      </trkpt>
      <trkpt lat="0" lon="0">
        <time>2020-12-20T10:38:50.053000+00:00</time>
      </trkpt>
      <trkpt lat="0" lon="0">
        <time>2020-12-20T10:38:50.056000+00:00</time>
      </trkpt>
      <trkpt lat="47.31627" lon="-1.34768">
        <ele>93</ele>
        <time>2020-12-20T10:38:51.106000+00:00</time>
      </trkpt>
      <trkpt lat="0" lon="0">
        <time>2020-12-20T10:38:51.112000+00:00</time>
      </trkpt>
      <trkpt lat="0" lon="0">
        <time>2020-12-20T10:38:51.114000+00:00</time>
      </trkpt>
      <trkpt lat="0" lon="0">
        <time>2020-12-20T10:38:51.116000+00:00</time>
      </trkpt>
      <trkpt lat="47.31616" lon="-1.34773">
        <ele>93</ele>
        <time>2020-12-20T10:38:52.049000+00:00</time>
      </trkpt>
      <trkpt lat="0" lon="0">
        <time>2020-12-20T10:38:52.055000+00:00</time>
      </trkpt>
      <trkpt lat="0" lon="0">
        <time>2020-12-20T10:38:52.062000+00:00</time>
      </trkpt>
      <trkpt lat="0" lon="0">
        <time>2020-12-20T10:38:52.069000+00:00</time>
      </trkpt>
      <trkpt lat="47.31606" lon="-1.34778">
        <ele>91</ele>
        <time>2020-12-20T10:38:53.062000+00:00</time>
      </trkpt>
      <trkpt lat="0" lon="0">
        <time>2020-12-20T10:38:53.078000+00:00</time>
      </trkpt>
      <trkpt lat="0" lon="0">
        <time>2020-12-20T10:38:53.084000+00:00</time>
      </trkpt>
      <trkpt lat="0" lon="0">
        <time>2020-12-20T10:38:53.087000+00:00</time>
      </trkpt>
      <trkpt lat="47.31597" lon="-1.34783">
        <ele>90</ele>
        <time>2020-12-20T10:38:54.091000+00:00</time>
      </trkpt>
      <trkpt lat="0" lon="0">
        <time>2020-12-20T10:38:54.099000+00:00</time>
      </trkpt>
      <trkpt lat="0" lon="0">
        <time>2020-12-20T10:38:54.103000+00:00</time>
      </trkpt>
      <trkpt lat="0" lon="0">
        <time>2020-12-20T10:38:54.106000+00:00</time>
      </trkpt>
      <trkpt lat="47.3159" lon="-1.34787">
        <ele>90</ele>
        <time>2020-12-20T10:38:55.120000+00:00</time>
      </trkpt>
      <trkpt lat="0" lon="0">
        <time>2020-12-20T10:38:55.130000+00:00</time>
      </trkpt>
      <trkpt lat="0" lon="0">
        <time>2020-12-20T10:38:55.134000+00:00</time>
      </trkpt>
      <trkpt lat="0" lon="0">
        <time>2020-12-20T10:38:55.137000+00:00</time>
      </trkpt>
      <trkpt lat="47.31584" lon="-1.34791">
        <ele>90</ele>
        <time>2020-12-20T10:38:56.115000+00:00</time>
      </trkpt>
      <trkpt lat="0" lon="0">
        <time>2020-12-20T10:38:56.133000+00:00</time>
      </trkpt>
      <trkpt lat="0" lon="0">
        <time>2020-12-20T10:38:56.138000+00:00</time>
      </trkpt>
      <trkpt lat="0" lon="0">
        <time>2020-12-20T10:38:56.140000+00:00</time>
      </trkpt>
      <trkpt lat="47.31579" lon="-1.34794">
        <ele>91</ele>
        <time>2020-12-20T10:38:57.111000+00:00</time>
      </trkpt>
      <trkpt lat="0" lon="0">
        <time>2020-12-20T10:38:57.118000+00:00</time>
      </trkpt>
      <trkpt lat="0" lon="0">
        <time>2020-12-20T10:38:57.120000+00:00</time>
      </trkpt>
      <trkpt lat="0" lon="0">
        <time>2020-12-20T10:38:57.121000+00:00</time>
      </trkpt>
      <trkpt lat="47.31575" lon="-1.34797">
        <ele>91</ele>
        <time>2020-12-20T10:38:58.074000+00:00</time>
      </trkpt>
      <trkpt lat="0" lon="0">
        <time>2020-12-20T10:38:58.083000+00:00</time>
      </trkpt>
      <trkpt lat="0" lon="0">
        <time>2020-12-20T10:38:58.088000+00:00</time>
      </trkpt>
      <trkpt lat="0" lon="0">
        <time>2020-12-20T10:38:58.092000+00:00</time>
      </trkpt>
      <trkpt lat="47.31571" lon="-1.348">
        <ele>91</ele>
        <time>2020-12-20T10:38:59.095000+00:00</time>
      </trkpt>
      <trkpt lat="0" lon="0">
        <time>2020-12-20T10:38:59.103000+00:00</time>
      </trkpt>
      <trkpt lat="0" lon="0">
        <time>2020-12-20T10:38:59.109000+00:00</time>
      </trkpt>
      <trkpt lat="0" lon="0">
        <time>2020-12-20T10:38:59.112000+00:00</time>
      </trkpt>
      <trkpt lat="47.31568" lon="-1.34804">
        <ele>91</ele>
        <time>2020-12-20T10:39:00.065000+00:00</time>
      </trkpt>
      <trkpt lat="0" lon="0">
        <time>2020-12-20T10:39:00.070000+00:00</time>
      </trkpt>
      <trkpt lat="0" lon="0">
        <time>2020-12-20T10:39:00.075000+00:00</time>
      </trkpt>
      <trkpt lat="0" lon="0">
        <time>2020-12-20T10:39:00.082000+00:00</time>
      </trkpt>
      <trkpt lat="47.31564" lon="-1.34809">
        <ele>91</ele>
        <time>2020-12-20T10:39:01.058000+00:00</time>
      </trkpt>
      <trkpt lat="0" lon="0">
        <time>2020-12-20T10:39:01.066000+00:00</time>
      </trkpt>
      <trkpt lat="0" lon="0">
        <time>2020-12-20T10:39:01.072000+00:00</time>
      </trkpt>
      <trkpt lat="0" lon="0">
        <time>2020-12-20T10:39:01.075000+00:00</time>
      </trkpt>
      <trkpt lat="47.31561" lon="-1.34813">
        <ele>91</ele>
        <time>2020-12-20T10:39:02.073000+00:00</time>
      </trkpt>
      <trkpt lat="0" lon="0">
        <time>2020-12-20T10:39:02.083000+00:00</time>
      </trkpt>
      <trkpt lat="0" lon="0">
        <time>2020-12-20T10:39:02.091000+00:00</time>
      </trkpt>
      <trkpt lat="0" lon="0">
        <time>2020-12-20T10:39:02.093000+00:00</time>
      </trkpt>
      <trkpt lat="47.31558" lon="-1.34819">
        <ele>91</ele>
        <time>2020-12-20T10:39:03.076000+00:00</time>
      </trkpt>
      <trkpt lat="0" lon="0">
        <time>2020-12-20T10:39:03.078000+00:00</time>
      </trkpt>
      <trkpt lat="0" lon="0">
        <time>2020-12-20T10:39:03.081000+00:00</time>
      </trkpt>
      <trkpt lat="0" lon="0">
        <time>2020-12-20T10:39:03.082000+00:00</time>
      </trkpt>
      <trkpt lat="47.31555" lon="-1.34824">
        <ele>91</ele>
        <time>2020-12-20T10:39:04.066000+00:00</time>
      </trkpt>
      <trkpt lat="0" lon="0">
        <time>2020-12-20T10:39:04.082000+00:00</time>
      </trkpt>
      <trkpt lat="0" lon="0">
        <time>2020-12-20T10:39:04.088000+00:00</time>
      </trkpt>
      <trkpt lat="0" lon="0">
        <time>2020-12-20T10:39:04.091000+00:00</time>
      </trkpt>
      <trkpt lat="47.31551" lon="-1.34829">
        <ele>90</ele>
        <time>2020-12-20T10:39:05.052000+00:00</time>
      </trkpt>
      <trkpt lat="0" lon="0">
        <time>2020-12-20T10:39:05.068000+00:00</time>
      </trkpt>
      <trkpt lat="0" lon="0">
        <time>2020-12-20T10:39:05.075000+00:00</time>
      </trkpt>
      <trkpt lat="0" lon="0">
        <time>2020-12-20T10:39:05.080000+00:00</time>
      </trkpt>
      <trkpt lat="47.31548" lon="-1.34834">
        <ele>90</ele>
        <time>2020-12-20T10:39:06.046000+00:00</time>
      </trkpt>
      <trkpt lat="0" lon="0">
        <time>2020-12-20T10:39:06.060000+00:00</time>
      </trkpt>
      <trkpt lat="0" lon="0">
        <time>2020-12-20T10:39:06.067000+00:00</time>
      </trkpt>
      <trkpt lat="0" lon="0">
        <time>2020-12-20T10:39:06.070000+00:00</time>
      </trkpt>
      <trkpt lat="47.31544" lon="-1.34839">
        <ele>90</ele>
        <time>2020-12-20T10:39:07.065000+00:00</time>
      </trkpt>
      <trkpt lat="0" lon="0">
        <time>2020-12-20T10:39:07.081000+00:00</time>
      </trkpt>
      <trkpt lat="0" lon="0">
        <time>2020-12-20T10:39:07.086000+00:00</time>
      </trkpt>
      <trkpt lat="0" lon="0">
        <time>2020-12-20T10:39:07.088000+00:00</time>
      </trkpt>
      <trkpt lat="47.3154" lon="-1.34843">
        <ele>90</ele>
        <time>2020-12-20T10:39:08.061000+00:00</time>
      </trkpt>
      <trkpt lat="0" lon="0">
        <time>2020-12-20T10:39:08.066000+00:00</time>
      </trkpt>
      <trkpt lat="0" lon="0">
        <time>2020-12-20T10:39:08.075000+00:00</time>
      </trkpt>
      <trkpt lat="0" lon="0">
        <time>2020-12-20T10:39:08.081000+00:00</time>
      </trkpt>
      <trkpt lat="47.31535" lon="-1.34848">
        <ele>89</ele>
        <time>2020-12-20T10:39:09.024000+00:00</time>
      </trkpt>
      <trkpt lat="0" lon="0">
        <time>2020-12-20T10:39:09.026000+00:00</time>
      </trkpt>
      <trkpt lat="0" lon="0">
        <time>2020-12-20T10:39:09.028000+00:00</time>
      </trkpt>
      <trkpt lat="0" lon="0">
        <time>2020-12-20T10:39:09.030000+00:00</time>
      </trkpt>
      <trkpt lat="47.3153" lon="-1.34854">
        <ele>88</ele>
        <time>2020-12-20T10:39:10.065000+00:00</time>
      </trkpt>
      <trkpt lat="0" lon="0">
        <time>2020-12-20T10:39:10.082000+00:00</time>
      </trkpt>
      <trkpt lat="0" lon="0">
        <time>2020-12-20T10:39:10.088000+00:00</time>
      </trkpt>
      <trkpt lat="0" lon="0">
        <time>2020-12-20T10:39:10.093000+00:00</time>
      </trkpt>
      <trkpt lat="47.31525" lon="-1.3486">
        <ele>87</ele>
        <time>2020-12-20T10:39:11.082000+00:00</time>
      </trkpt>
      <trkpt lat="0" lon="0">
        <time>2020-12-20T10:39:11.096000+00:00</time>
      </trkpt>
      <trkpt lat="0" lon="0">
        <time>2020-12-20T10:39:11.103000+00:00</time>
      </trkpt>
      <trkpt lat="0" lon="0">
        <time>2020-12-20T10:39:11.106000+00:00</time>
      </trkpt>
      <trkpt lat="47.3152" lon="-1.34866">
        <ele>86</ele>
        <time>2020-12-20T10:39:12.065000+00:00</time>
      </trkpt>
      <trkpt lat="0" lon="0">
        <time>2020-12-20T10:39:12.096000+00:00</time>
      </trkpt>
      <trkpt lat="0" lon="0">
        <time>2020-12-20T10:39:12.102000+00:00</time>
      </trkpt>
      <trkpt lat="0" lon="0">
        <time>2020-12-20T10:39:12.103000+00:00</time>
      </trkpt>
      <trkpt lat="47.31514" lon="-1.34872">
        <ele>86</ele>
        <time>2020-12-20T10:39:13.063000+00:00</time>
      </trkpt>
      <trkpt lat="0" lon="0">
        <time>2020-12-20T10:39:13.069000+00:00</time>
      </trkpt>
      <trkpt lat="0" lon="0">
        <time>2020-12-20T10:39:13.074000+00:00</time>
      </trkpt>
      <trkpt lat="0" lon="0">
        <time>2020-12-20T10:39:13.077000+00:00</time>
      </trkpt>
      <trkpt lat="47.31509" lon="-1.34879">
        <ele>85</ele>
        <time>2020-12-20T10:39:14.021000+00:00</time>
      </trkpt>
      <trkpt lat="0" lon="0">
        <time>2020-12-20T10:39:14.038000+00:00</time>
      </trkpt>
      <trkpt lat="0" lon="0">
        <time>2020-12-20T10:39:14.045000+00:00</time>
      </trkpt>
      <trkpt lat="0" lon="0">
        <time>2020-12-20T10:39:14.051000+00:00</time>
      </trkpt>
      <trkpt lat="47.31503" lon="-1.34886">
        <ele>85</ele>
        <time>2020-12-20T10:39:15.015000+00:00</time>
      </trkpt>
      <trkpt lat="0" lon="0">
        <time>2020-12-20T10:39:15.024000+00:00</time>
      </trkpt>
      <trkpt lat="0" lon="0">
        <time>2020-12-20T10:39:15.027000+00:00</time>
      </trkpt>
      <trkpt lat="0" lon="0">
        <time>2020-12-20T10:39:15.028000+00:00</time>
      </trkpt>
      <trkpt lat="47.31496" lon="-1.34893">
        <ele>84</ele>
        <time>2020-12-20T10:39:16.071000+00:00</time>
      </trkpt>
      <trkpt lat="0" lon="0">
        <time>2020-12-20T10:39:16.085000+00:00</time>
      </trkpt>
      <trkpt lat="0" lon="0">
        <time>2020-12-20T10:39:16.091000+00:00</time>
      </trkpt>
      <trkpt lat="0" lon="0">
        <time>2020-12-20T10:39:16.094000+00:00</time>
      </trkpt>
      <trkpt lat="47.3149" lon="-1.349">
        <ele>83</ele>
        <time>2020-12-20T10:39:17.094000+00:00</time>
      </trkpt>
      <trkpt lat="0" lon="0">
        <time>2020-12-20T10:39:17.114000+00:00</time>
      </trkpt>
      <trkpt lat="0" lon="0">
        <time>2020-12-20T10:39:17.121000+00:00</time>
      </trkpt>
      <trkpt lat="0" lon="0">
        <time>2020-12-20T10:39:17.130000+00:00</time>
      </trkpt>
      <trkpt lat="47.31483" lon="-1.34908">
        <ele>83</ele>
        <time>2020-12-20T10:39:18.043000+00:00</time>
      </trkpt>
      <trkpt lat="0" lon="0">
        <time>2020-12-20T10:39:18.051000+00:00</time>
      </trkpt>
      <trkpt lat="0" lon="0">
        <time>2020-12-20T10:39:18.069000+00:00</time>
      </trkpt>
      <trkpt lat="0" lon="0">
        <time>2020-12-20T10:39:18.071000+00:00</time>
      </trkpt>
      <trkpt lat="47.31476" lon="-1.34916">
        <ele>82</ele>
        <time>2020-12-20T10:39:19.076000+00:00</time>
      </trkpt>
      <trkpt lat="0" lon="0">
        <time>2020-12-20T10:39:19.088000+00:00</time>
      </trkpt>
      <trkpt lat="0" lon="0">
        <time>2020-12-20T10:39:19.096000+00:00</time>
      </trkpt>
      <trkpt lat="0" lon="0">
        <time>2020-12-20T10:39:19.099000+00:00</time>
      </trkpt>
      <trkpt lat="47.31469" lon="-1.34924">
        <ele>82</ele>
        <time>2020-12-20T10:39:20.105000+00:00</time>
      </trkpt>
      <trkpt lat="0" lon="0">
        <time>2020-12-20T10:39:20.119000+00:00</time>
      </trkpt>
      <trkpt lat="0" lon="0">
        <time>2020-12-20T10:39:20.132000+00:00</time>
      </trkpt>
      <trkpt lat="0" lon="0">
        <time>2020-12-20T10:39:20.138000+00:00</time>
      </trkpt>
      <trkpt lat="47.31462" lon="-1.34932">
        <ele>81</ele>
        <time>2020-12-20T10:39:21.056000+00:00</time>
      </trkpt>
      <trkpt lat="0" lon="0">
        <time>2020-12-20T10:39:21.061000+00:00</time>
      </trkpt>
      <trkpt lat="0" lon="0">
        <time>2020-12-20T10:39:21.069000+00:00</time>
      </trkpt>
      <trkpt lat="0" lon="0">
        <time>2020-12-20T10:39:21.070000+00:00</time>
      </trkpt>
      <trkpt lat="47.31454" lon="-1.34941">
        <ele>80</ele>
        <time>2020-12-20T10:39:22.069000+00:00</time>
      </trkpt>
      <trkpt lat="0" lon="0">
        <time>2020-12-20T10:39:22.083000+00:00</time>
      </trkpt>
      <trkpt lat="0" lon="0">
        <time>2020-12-20T10:39:22.088000+00:00</time>
      </trkpt>
      <trkpt lat="0" lon="0">
        <time>2020-12-20T10:39:22.090000+00:00</time>
      </trkpt>
      <trkpt lat="47.31446" lon="-1.34949">
        <ele>78</ele>
        <time>2020-12-20T10:39:23.059000+00:00</time>
      </trkpt>
      <trkpt lat="0" lon="0">
        <time>2020-12-20T10:39:23.066000+00:00</time>
      </trkpt>
      <trkpt lat="0" lon="0">
        <time>2020-12-20T10:39:23.068000+00:00</time>
      </trkpt>
      <trkpt lat="0" lon="0">
        <time>2020-12-20T10:39:23.069000+00:00</time>
      </trkpt>
      <trkpt lat="47.31439" lon="-1.34958">
        <ele>78</ele>
        <time>2020-12-20T10:39:24.085000+00:00</time>
      </trkpt>
      <trkpt lat="0" lon="0">
        <time>2020-12-20T10:39:24.099000+00:00</time>
      </trkpt>
      <trkpt lat="0" lon="0">
        <time>2020-12-20T10:39:24.104000+00:00</time>
      </trkpt>
      <trkpt lat="0" lon="0">
        <time>2020-12-20T10:39:24.112000+00:00</time>
      </trkpt>
      <trkpt lat="47.31431" lon="-1.34967">
        <ele>77</ele>
        <time>2020-12-20T10:39:25.048000+00:00</time>
      </trkpt>
      <trkpt lat="0" lon="0">
        <time>2020-12-20T10:39:25.053000+00:00</time>
      </trkpt>
      <trkpt lat="0" lon="0">
        <time>2020-12-20T10:39:25.058000+00:00</time>
      </trkpt>
      <trkpt lat="0" lon="0">
        <time>2020-12-20T10:39:25.061000+00:00</time>
      </trkpt>
      <trkpt lat="47.31423" lon="-1.34976">
        <ele>76</ele>
        <time>2020-12-20T10:39:26.032000+00:00</time>
      </trkpt>
      <trkpt lat="0" lon="0">
        <time>2020-12-20T10:39:26.040000+00:00</time>
      </trkpt>
      <trkpt lat="0" lon="0">
        <time>2020-12-20T10:39:26.047000+00:00</time>
      </trkpt>
      <trkpt lat="0" lon="0">
        <time>2020-12-20T10:39:26.049000+00:00</time>
      </trkpt>
      <trkpt lat="47.31415" lon="-1.34986">
        <ele>74</ele>
        <time>2020-12-20T10:39:27.018000+00:00</time>
      </trkpt>
      <trkpt lat="0" lon="0">
        <time>2020-12-20T10:39:27.024000+00:00</time>
      </trkpt>
      <trkpt lat="0" lon="0">
        <time>2020-12-20T10:39:27.026000+00:00</time>
      </trkpt>
      <trkpt lat="0" lon="0">
        <time>2020-12-20T10:39:27.029000+00:00</time>
      </trkpt>
      <trkpt lat="47.31406" lon="-1.34995">
        <ele>74</ele>
        <time>2020-12-20T10:39:28.063000+00:00</time>
      </trkpt>
      <trkpt lat="0" lon="0">
        <time>2020-12-20T10:39:28.072000+00:00</time>
      </trkpt>
      <trkpt lat="0" lon="0">
        <time>2020-12-20T10:39:28.077000+00:00</time>
      </trkpt>
      <trkpt lat="0" lon="0">
        <time>2020-12-20T10:39:28.079000+00:00</time>
      </trkpt>
      <trkpt lat="47.31398" lon="-1.35006">
        <ele>73</ele>
        <time>2020-12-20T10:39:29.082000+00:00</time>
      </trkpt>
      <trkpt lat="0" lon="0">
        <time>2020-12-20T10:39:29.091000+00:00</time>
      </trkpt>
      <trkpt lat="0" lon="0">
        <time>2020-12-20T10:39:29.099000+00:00</time>
      </trkpt>
      <trkpt lat="0" lon="0">
        <time>2020-12-20T10:39:29.105000+00:00</time>
      </trkpt>
      <trkpt lat="47.3139" lon="-1.35016">
        <ele>72</ele>
        <time>2020-12-20T10:39:30.077000+00:00</time>
      </trkpt>
      <trkpt lat="0" lon="0">
        <time>2020-12-20T10:39:30.087000+00:00</time>
      </trkpt>
      <trkpt lat="0" lon="0">
        <time>2020-12-20T10:39:30.096000+00:00</time>
      </trkpt>
      <trkpt lat="0" lon="0">
        <time>2020-12-20T10:39:30.103000+00:00</time>
      </trkpt>
      <trkpt lat="47.31382" lon="-1.35027">
        <ele>72</ele>
        <time>2020-12-20T10:39:31.037000+00:00</time>
      </trkpt>
      <trkpt lat="0" lon="0">
        <time>2020-12-20T10:39:31.049000+00:00</time>
      </trkpt>
      <trkpt lat="0" lon="0">
        <time>2020-12-20T10:39:31.057000+00:00</time>
      </trkpt>
      <trkpt lat="0" lon="0">
        <time>2020-12-20T10:39:31.063000+00:00</time>
      </trkpt>
      <trkpt lat="47.31375" lon="-1.35037">
        <ele>71</ele>
        <time>2020-12-20T10:39:32.048000+00:00</time>
      </trkpt>
      <trkpt lat="0" lon="0">
        <time>2020-12-20T10:39:32.060000+00:00</time>
      </trkpt>
      <trkpt lat="0" lon="0">
        <time>2020-12-20T10:39:32.068000+00:00</time>
      </trkpt>
      <trkpt lat="0" lon="0">
        <time>2020-12-20T10:39:32.076000+00:00</time>
      </trkpt>
      <trkpt lat="47.31368" lon="-1.35048">
        <ele>71</ele>
        <time>2020-12-20T10:39:33.051000+00:00</time>
      </trkpt>
      <trkpt lat="0" lon="0">
        <time>2020-12-20T10:39:33.053000+00:00</time>
      </trkpt>
      <trkpt lat="0" lon="0">
        <time>2020-12-20T10:39:33.055000+00:00</time>
      </trkpt>
      <trkpt lat="0" lon="0">
        <time>2020-12-20T10:39:33.056000+00:00</time>
      </trkpt>
      <trkpt lat="47.31362" lon="-1.35058">
        <ele>70</ele>
        <time>2020-12-20T10:39:34.060000+00:00</time>
      </trkpt>
      <trkpt lat="0" lon="0">
        <time>2020-12-20T10:39:34.072000+00:00</time>
      </trkpt>
      <trkpt lat="0" lon="0">
        <time>2020-12-20T10:39:34.078000+00:00</time>
      </trkpt>
      <trkpt lat="0" lon="0">
        <time>2020-12-20T10:39:34.084000+00:00</time>
      </trkpt>
      <trkpt lat="47.31357" lon="-1.35068">
        <ele>69</ele>
        <time>2020-12-20T10:39:35.072000+00:00</time>
      </trkpt>
      <trkpt lat="0" lon="0">
        <time>2020-12-20T10:39:35.083000+00:00</time>
      </trkpt>
      <trkpt lat="0" lon="0">
        <time>2020-12-20T10:39:35.096000+00:00</time>
      </trkpt>
      <trkpt lat="0" lon="0">
        <time>2020-12-20T10:39:35.100000+00:00</time>
      </trkpt>
      <trkpt lat="47.31352" lon="-1.35076">
        <ele>68</ele>
        <time>2020-12-20T10:39:36.098000+00:00</time>
      </trkpt>
      <trkpt lat="0" lon="0">
        <time>2020-12-20T10:39:36.104000+00:00</time>
      </trkpt>
      <trkpt lat="0" lon="0">
        <time>2020-12-20T10:39:36.113000+00:00</time>
      </trkpt>
      <trkpt lat="0" lon="0">
        <time>2020-12-20T10:39:36.115000+00:00</time>
      </trkpt>
      <trkpt lat="47.31348" lon="-1.35083">
        <ele>68</ele>
        <time>2020-12-20T10:39:37.064000+00:00</time>
      </trkpt>
      <trkpt lat="0" lon="0">
        <time>2020-12-20T10:39:37.077000+00:00</time>
      </trkpt>
      <trkpt lat="0" lon="0">
        <time>2020-12-20T10:39:37.086000+00:00</time>
      </trkpt>
      <trkpt lat="0" lon="0">
        <time>2020-12-20T10:39:37.089000+00:00</time>
      </trkpt>
      <trkpt lat="47.31345" lon="-1.35089">
        <ele>68</ele>
        <time>2020-12-20T10:39:38.066000+00:00</time>
      </trkpt>
      <trkpt lat="0" lon="0">
        <time>2020-12-20T10:39:38.079000+00:00</time>
      </trkpt>
      <trkpt lat="0" lon="0">
        <time>2020-12-20T10:39:38.089000+00:00</time>
      </trkpt>
      <trkpt lat="0" lon="0">
        <time>2020-12-20T10:39:38.091000+00:00</time>
      </trkpt>
      <trkpt lat="47.31344" lon="-1.35094">
        <ele>68</ele>
        <time>2020-12-20T10:39:39.030000+00:00</time>
      </trkpt>
      <trkpt lat="0" lon="0">
        <time>2020-12-20T10:39:39.039000+00:00</time>
      </trkpt>
      <trkpt lat="0" lon="0">
        <time>2020-12-20T10:39:39.041000+00:00</time>
      </trkpt>
      <trkpt lat="47.31343" lon="-1.35099">
        <ele>67</ele>
        <time>2020-12-20T10:39:40.030000+00:00</time>
      </trkpt>
      <trkpt lat="0" lon="0">
        <time>2020-12-20T10:39:40.042000+00:00</time>
      </trkpt>
      <trkpt lat="0" lon="0">
        <time>2020-12-20T10:39:40.051000+00:00</time>
      </trkpt>
      <trkpt lat="0" lon="0">
        <time>2020-12-20T10:39:40.059000+00:00</time>
      </trkpt>
      <trkpt lat="47.31343" lon="-1.35102">
        <ele>67</ele>
        <time>2020-12-20T10:39:41.035000+00:00</time>
      </trkpt>
      <trkpt lat="0" lon="0">
        <time>2020-12-20T10:39:41.051000+00:00</time>
      </trkpt>
      <trkpt lat="0" lon="0">
        <time>2020-12-20T10:39:41.058000+00:00</time>
      </trkpt>
      <trkpt lat="0" lon="0">
        <time>2020-12-20T10:39:41.062000+00:00</time>
      </trkpt>
      <trkpt lat="47.31344" lon="-1.35106">
        <ele>66</ele>
        <time>2020-12-20T10:39:42.036000+00:00</time>
      </trkpt>
      <trkpt lat="0" lon="0">
        <time>2020-12-20T10:39:42.049000+00:00</time>
      </trkpt>
      <trkpt lat="0" lon="0">
        <time>2020-12-20T10:39:42.061000+00:00</time>
      </trkpt>
      <trkpt lat="0" lon="0">
        <time>2020-12-20T10:39:42.068000+00:00</time>
      </trkpt>
      <trkpt lat="47.31345" lon="-1.35109">
        <ele>66</ele>
        <time>2020-12-20T10:39:43.086000+00:00</time>
      </trkpt>
      <trkpt lat="0" lon="0">
        <time>2020-12-20T10:39:43.104000+00:00</time>
      </trkpt>
      <trkpt lat="0" lon="0">
        <time>2020-12-20T10:39:43.110000+00:00</time>
      </trkpt>
      <trkpt lat="0" lon="0">
        <time>2020-12-20T10:39:43.118000+00:00</time>
      </trkpt>
      <trkpt lat="47.31346" lon="-1.35112">
        <ele>65</ele>
        <time>2020-12-20T10:39:44.032000+00:00</time>
      </trkpt>
      <trkpt lat="0" lon="0">
        <time>2020-12-20T10:39:44.042000+00:00</time>
      </trkpt>
      <trkpt lat="0" lon="0">
        <time>2020-12-20T10:39:44.046000+00:00</time>
      </trkpt>
      <trkpt lat="0" lon="0">
        <time>2020-12-20T10:39:44.049000+00:00</time>
      </trkpt>
      <trkpt lat="47.31346" lon="-1.35116">
        <ele>65</ele>
        <time>2020-12-20T10:39:45.061000+00:00</time>
      </trkpt>
      <trkpt lat="0" lon="0">
        <time>2020-12-20T10:39:45.070000+00:00</time>
      </trkpt>
      <trkpt lat="0" lon="0">
        <time>2020-12-20T10:39:45.083000+00:00</time>
      </trkpt>
      <trkpt lat="0" lon="0">
        <time>2020-12-20T10:39:45.086000+00:00</time>
      </trkpt>
      <trkpt lat="47.31347" lon="-1.35119">
        <ele>64</ele>
        <time>2020-12-20T10:39:46.034000+00:00</time>
      </trkpt>
      <trkpt lat="0" lon="0">
        <time>2020-12-20T10:39:46.051000+00:00</time>
      </trkpt>
      <trkpt lat="0" lon="0">
        <time>2020-12-20T10:39:46.057000+00:00</time>
      </trkpt>
      <trkpt lat="0" lon="0">
        <time>2020-12-20T10:39:46.061000+00:00</time>
      </trkpt>
      <trkpt lat="47.31347" lon="-1.35122">
        <ele>64</ele>
        <time>2020-12-20T10:39:47.051000+00:00</time>
      </trkpt>
      <trkpt lat="0" lon="0">
        <time>2020-12-20T10:39:47.077000+00:00</time>
      </trkpt>
      <trkpt lat="0" lon="0">
        <time>2020-12-20T10:39:47.083000+00:00</time>
      </trkpt>
      <trkpt lat="0" lon="0">
        <time>2020-12-20T10:39:47.085000+00:00</time>
      </trkpt>
      <trkpt lat="47.31347" lon="-1.35124">
        <ele>63</ele>
        <time>2020-12-20T10:39:48.032000+00:00</time>
      </trkpt>
      <trkpt lat="0" lon="0">
        <time>2020-12-20T10:39:48.042000+00:00</time>
      </trkpt>
      <trkpt lat="0" lon="0">
        <time>2020-12-20T10:39:48.047000+00:00</time>
      </trkpt>
      <trkpt lat="0" lon="0">
        <time>2020-12-20T10:39:48.050000+00:00</time>
      </trkpt>
      <trkpt lat="47.31347" lon="-1.35126">
        <ele>63</ele>
        <time>2020-12-20T10:39:49.065000+00:00</time>
      </trkpt>
      <trkpt lat="0" lon="0">
        <time>2020-12-20T10:39:49.081000+00:00</time>
      </trkpt>
      <trkpt lat="0" lon="0">
        <time>2020-12-20T10:39:49.089000+00:00</time>
      </trkpt>
      <trkpt lat="0" lon="0">
        <time>2020-12-20T10:39:49.091000+00:00</time>
      </trkpt>
      <trkpt lat="47.31346" lon="-1.35128">
        <ele>63</ele>
        <time>2020-12-20T10:39:50.070000+00:00</time>
      </trkpt>
      <trkpt lat="0" lon="0">
        <time>2020-12-20T10:39:50.082000+00:00</time>
      </trkpt>
      <trkpt lat="0" lon="0">
        <time>2020-12-20T10:39:50.090000+00:00</time>
      </trkpt>
      <trkpt lat="0" lon="0">
        <time>2020-12-20T10:39:50.097000+00:00</time>
      </trkpt>
      <trkpt lat="47.31344" lon="-1.35129">
        <ele>63</ele>
        <time>2020-12-20T10:39:51.033000+00:00</time>
      </trkpt>
      <trkpt lat="0" lon="0">
        <time>2020-12-20T10:39:51.041000+00:00</time>
      </trkpt>
      <trkpt lat="0" lon="0">
        <time>2020-12-20T10:39:51.042000+00:00</time>
      </trkpt>
      <trkpt lat="0" lon="0">
        <time>2020-12-20T10:39:51.043000+00:00</time>
      </trkpt>
      <trkpt lat="47.31342" lon="-1.35129">
        <ele>63</ele>
        <time>2020-12-20T10:39:52.034000+00:00</time>
      </trkpt>
      <trkpt lat="0" lon="0">
        <time>2020-12-20T10:39:52.045000+00:00</time>
      </trkpt>
      <trkpt lat="0" lon="0">
        <time>2020-12-20T10:39:52.050000+00:00</time>
      </trkpt>
      <trkpt lat="0" lon="0">
        <time>2020-12-20T10:39:52.052000+00:00</time>
      </trkpt>
      <trkpt lat="47.3134" lon="-1.35128">
        <ele>64</ele>
        <time>2020-12-20T10:39:53.042000+00:00</time>
      </trkpt>
      <trkpt lat="0" lon="0">
        <time>2020-12-20T10:39:53.056000+00:00</time>
      </trkpt>
      <trkpt lat="0" lon="0">
        <time>2020-12-20T10:39:53.064000+00:00</time>
      </trkpt>
      <trkpt lat="0" lon="0">
        <time>2020-12-20T10:39:53.067000+00:00</time>
      </trkpt>
      <trkpt lat="47.31339" lon="-1.35127">
        <ele>64</ele>
        <time>2020-12-20T10:39:54.069000+00:00</time>
      </trkpt>
      <trkpt lat="0" lon="0">
        <time>2020-12-20T10:39:54.076000+00:00</time>
      </trkpt>
      <trkpt lat="0" lon="0">
        <time>2020-12-20T10:39:54.082000+00:00</time>
      </trkpt>
      <trkpt lat="0" lon="0">
        <time>2020-12-20T10:39:54.085000+00:00</time>
      </trkpt>
      <trkpt lat="47.31337" lon="-1.35125">
        <ele>64</ele>
        <time>2020-12-20T10:39:55.001000+00:00</time>
      </trkpt>
      <trkpt lat="0" lon="0">
        <time>2020-12-20T10:39:55.013000+00:00</time>
      </trkpt>
      <trkpt lat="0" lon="0">
        <time>2020-12-20T10:39:55.017000+00:00</time>
      </trkpt>
      <trkpt lat="0" lon="0">
        <time>2020-12-20T10:39:55.021000+00:00</time>
      </trkpt>
      <trkpt lat="47.31335" lon="-1.35124">
        <ele>64</ele>
        <time>2020-12-20T10:39:56.012000+00:00</time>
      </trkpt>
      <trkpt lat="0" lon="0">
        <time>2020-12-20T10:39:56.026000+00:00</time>
      </trkpt>
      <trkpt lat="0" lon="0">
        <time>2020-12-20T10:39:56.034000+00:00</time>
      </trkpt>
      <trkpt lat="0" lon="0">
        <time>2020-12-20T10:39:56.037000+00:00</time>
      </trkpt>
      <trkpt lat="47.31334" lon="-1.35122">
        <ele>64</ele>
        <time>2020-12-20T10:39:57.027000+00:00</time>
      </trkpt>
      <trkpt lat="0" lon="0">
        <time>2020-12-20T10:39:57.036000+00:00</time>
      </trkpt>
      <trkpt lat="0" lon="0">
        <time>2020-12-20T10:39:57.041000+00:00</time>
      </trkpt>
      <trkpt lat="0" lon="0">
        <time>2020-12-20T10:39:57.043000+00:00</time>
      </trkpt>
      <trkpt lat="47.31333" lon="-1.3512">
        <ele>64</ele>
        <time>2020-12-20T10:39:58.027000+00:00</time>
      </trkpt>
      <trkpt lat="0" lon="0">
        <time>2020-12-20T10:39:58.046000+00:00</time>
      </trkpt>
      <trkpt lat="0" lon="0">
        <time>2020-12-20T10:39:58.050000+00:00</time>
      </trkpt>
      <trkpt lat="0" lon="0">
        <time>2020-12-20T10:39:58.053000+00:00</time>
      </trkpt>
      <trkpt lat="47.31333" lon="-1.35118">
        <ele>64</ele>
        <time>2020-12-20T10:39:59.055000+00:00</time>
      </trkpt>
      <trkpt lat="0" lon="0">
        <time>2020-12-20T10:39:59.064000+00:00</time>
      </trkpt>
      <trkpt lat="0" lon="0">
        <time>2020-12-20T10:39:59.072000+00:00</time>
      </trkpt>
      <trkpt lat="0" lon="0">
        <time>2020-12-20T10:39:59.074000+00:00</time>
      </trkpt>
      <trkpt lat="47.31333" lon="-1.35115">
        <ele>64</ele>
        <time>2020-12-20T10:40:00.016000+00:00</time>
      </trkpt>
      <trkpt lat="0" lon="0">
        <time>2020-12-20T10:40:00.024000+00:00</time>
      </trkpt>
      <trkpt lat="0" lon="0">
        <time>2020-12-20T10:40:00.037000+00:00</time>
      </trkpt>
      <trkpt lat="0" lon="0">
        <time>2020-12-20T10:40:00.041000+00:00</time>
      </trkpt>
      <trkpt lat="47.31334" lon="-1.35113">
        <ele>64</ele>
        <time>2020-12-20T10:40:01.047000+00:00</time>
      </trkpt>
      <trkpt lat="0" lon="0">
        <time>2020-12-20T10:40:01.053000+00:00</time>
      </trkpt>
      <trkpt lat="0" lon="0">
        <time>2020-12-20T10:40:01.059000+00:00</time>
      </trkpt>
      <trkpt lat="0" lon="0">
        <time>2020-12-20T10:40:01.062000+00:00</time>
      </trkpt>
      <trkpt lat="47.31334" lon="-1.3511">
        <ele>64</ele>
        <time>2020-12-20T10:40:02.008000+00:00</time>
      </trkpt>
      <trkpt lat="0" lon="0">
        <time>2020-12-20T10:40:02.021000+00:00</time>
      </trkpt>
      <trkpt lat="0" lon="0">
        <time>2020-12-20T10:40:02.029000+00:00</time>
      </trkpt>
      <trkpt lat="0" lon="0">
        <time>2020-12-20T10:40:02.031000+00:00</time>
      </trkpt>
      <trkpt lat="47.31335" lon="-1.35108">
        <ele>64</ele>
        <time>2020-12-20T10:40:03.026000+00:00</time>
      </trkpt>
      <trkpt lat="0" lon="0">
        <time>2020-12-20T10:40:03.042000+00:00</time>
      </trkpt>
      <trkpt lat="0" lon="0">
        <time>2020-12-20T10:40:03.053000+00:00</time>
      </trkpt>
      <trkpt lat="0" lon="0">
        <time>2020-12-20T10:40:03.057000+00:00</time>
      </trkpt>
      <trkpt lat="47.31334" lon="-1.35105">
        <ele>64</ele>
        <time>2020-12-20T10:40:04.108000+00:00</time>
      </trkpt>
      <trkpt lat="0" lon="0">
        <time>2020-12-20T10:40:04.115000+00:00</time>
      </trkpt>
      <trkpt lat="0" lon="0">
        <time>2020-12-20T10:40:04.121000+00:00</time>
      </trkpt>
      <trkpt lat="0" lon="0">
        <time>2020-12-20T10:40:04.124000+00:00</time>
      </trkpt>
      <trkpt lat="47.31333" lon="-1.35104">
        <ele>64</ele>
        <time>2020-12-20T10:40:05.065000+00:00</time>
      </trkpt>
      <trkpt lat="0" lon="0">
        <time>2020-12-20T10:40:05.077000+00:00</time>
      </trkpt>
      <trkpt lat="0" lon="0">
        <time>2020-12-20T10:40:05.086000+00:00</time>
      </trkpt>
      <trkpt lat="0" lon="0">
        <time>2020-12-20T10:40:05.094000+00:00</time>
      </trkpt>
      <trkpt lat="47.31331" lon="-1.35104">
        <ele>64</ele>
        <time>2020-12-20T10:40:06.014000+00:00</time>
      </trkpt>
      <trkpt lat="0" lon="0">
        <time>2020-12-20T10:40:06.019000+00:00</time>
      </trkpt>
      <trkpt lat="0" lon="0">
        <time>2020-12-20T10:40:06.027000+00:00</time>
      </trkpt>
      <trkpt lat="0" lon="0">
        <time>2020-12-20T10:40:06.029000+00:00</time>
      </trkpt>
      <trkpt lat="47.31328" lon="-1.35105">
        <ele>64</ele>
        <time>2020-12-20T10:40:07.046000+00:00</time>
      </trkpt>
      <trkpt lat="0" lon="0">
        <time>2020-12-20T10:40:07.048000+00:00</time>
      </trkpt>
      <trkpt lat="0" lon="0">
        <time>2020-12-20T10:40:07.050000+00:00</time>
      </trkpt>
      <trkpt lat="0" lon="0">
        <time>2020-12-20T10:40:07.051000+00:00</time>
      </trkpt>
      <trkpt lat="47.31325" lon="-1.35106">
        <ele>64</ele>
        <time>2020-12-20T10:40:08.042000+00:00</time>
      </trkpt>
      <trkpt lat="0" lon="0">
        <time>2020-12-20T10:40:08.060000+00:00</time>
      </trkpt>
      <trkpt lat="0" lon="0">
        <time>2020-12-20T10:40:08.065000+00:00</time>
      </trkpt>
      <trkpt lat="0" lon="0">
        <time>2020-12-20T10:40:08.068000+00:00</time>
      </trkpt>
      <trkpt lat="47.31322" lon="-1.35108">
        <ele>64</ele>
        <time>2020-12-20T10:40:09.056000+00:00</time>
      </trkpt>
      <trkpt lat="0" lon="0">
        <time>2020-12-20T10:40:09.065000+00:00</time>
      </trkpt>
      <trkpt lat="0" lon="0">
        <time>2020-12-20T10:40:09.070000+00:00</time>
      </trkpt>
      <trkpt lat="0" lon="0">
        <time>2020-12-20T10:40:09.073000+00:00</time>
      </trkpt>
      <trkpt lat="47.31318" lon="-1.3511">
        <ele>64</ele>
        <time>2020-12-20T10:40:10.090000+00:00</time>
      </trkpt>
      <trkpt lat="0" lon="0">
        <time>2020-12-20T10:40:10.100000+00:00</time>
      </trkpt>
      <trkpt lat="0" lon="0">
        <time>2020-12-20T10:40:10.113000+00:00</time>
      </trkpt>
      <trkpt lat="0" lon="0">
        <time>2020-12-20T10:40:10.115000+00:00</time>
      </trkpt>
      <trkpt lat="47.31315" lon="-1.35113">
        <ele>64</ele>
        <time>2020-12-20T10:40:11.095000+00:00</time>
      </trkpt>
      <trkpt lat="0" lon="0">
        <time>2020-12-20T10:40:11.109000+00:00</time>
      </trkpt>
      <trkpt lat="0" lon="0">
        <time>2020-12-20T10:40:11.115000+00:00</time>
      </trkpt>
      <trkpt lat="0" lon="0">
        <time>2020-12-20T10:40:11.119000+00:00</time>
      </trkpt>
      <trkpt lat="47.31311" lon="-1.35116">
        <ele>64</ele>
        <time>2020-12-20T10:40:12.099000+00:00</time>
      </trkpt>
      <trkpt lat="0" lon="0">
        <time>2020-12-20T10:40:12.116000+00:00</time>
      </trkpt>
      <trkpt lat="0" lon="0">
        <time>2020-12-20T10:40:12.125000+00:00</time>
      </trkpt>
      <trkpt lat="0" lon="0">
        <time>2020-12-20T10:40:12.128000+00:00</time>
      </trkpt>
      <trkpt lat="47.31307" lon="-1.35119">
        <ele>64</ele>
        <time>2020-12-20T10:40:13.051000+00:00</time>
      </trkpt>
      <trkpt lat="0" lon="0">
        <time>2020-12-20T10:40:13.061000+00:00</time>
      </trkpt>
      <trkpt lat="0" lon="0">
        <time>2020-12-20T10:40:13.075000+00:00</time>
      </trkpt>
      <trkpt lat="0" lon="0">
        <time>2020-12-20T10:40:13.077000+00:00</time>
      </trkpt>
      <trkpt lat="47.31304" lon="-1.35121">
        <ele>64</ele>
        <time>2020-12-20T10:40:14.073000+00:00</time>
      </trkpt>
      <trkpt lat="0" lon="0">
        <time>2020-12-20T10:40:14.096000+00:00</time>
      </trkpt>
      <trkpt lat="0" lon="0">
        <time>2020-12-20T10:40:14.101000+00:00</time>
      </trkpt>
      <trkpt lat="0" lon="0">
        <time>2020-12-20T10:40:14.104000+00:00</time>
      </trkpt>
      <trkpt lat="47.313" lon="-1.35124">
        <ele>64</ele>
        <time>2020-12-20T10:40:15.019000+00:00</time>
      </trkpt>
      <trkpt lat="0" lon="0">
        <time>2020-12-20T10:40:15.029000+00:00</time>
      </trkpt>
      <trkpt lat="0" lon="0">
        <time>2020-12-20T10:40:15.035000+00:00</time>
      </trkpt>
      <trkpt lat="0" lon="0">
        <time>2020-12-20T10:40:15.039000+00:00</time>
      </trkpt>
      <trkpt lat="47.31297" lon="-1.35127">
        <ele>64</ele>
        <time>2020-12-20T10:40:16.080000+00:00</time>
      </trkpt>
      <trkpt lat="0" lon="0">
        <time>2020-12-20T10:40:16.091000+00:00</time>
      </trkpt>
      <trkpt lat="0" lon="0">
        <time>2020-12-20T10:40:16.095000+00:00</time>
      </trkpt>
      <trkpt lat="0" lon="0">
        <time>2020-12-20T10:40:16.097000+00:00</time>
      </trkpt>
      <trkpt lat="47.31294" lon="-1.3513">
        <ele>64</ele>
        <time>2020-12-20T10:40:17.104000+00:00</time>
      </trkpt>
      <trkpt lat="0" lon="0">
        <time>2020-12-20T10:40:17.113000+00:00</time>
      </trkpt>
      <trkpt lat="0" lon="0">
        <time>2020-12-20T10:40:17.119000+00:00</time>
      </trkpt>
      <trkpt lat="0" lon="0">
        <time>2020-12-20T10:40:17.122000+00:00</time>
      </trkpt>
      <trkpt lat="47.31291" lon="-1.35133">
        <ele>64</ele>
        <time>2020-12-20T10:40:18.039000+00:00</time>
      </trkpt>
      <trkpt lat="0" lon="0">
        <time>2020-12-20T10:40:18.041000+00:00</time>
      </trkpt>
      <trkpt lat="0" lon="0">
        <time>2020-12-20T10:40:18.043000+00:00</time>
      </trkpt>
      <trkpt lat="0" lon="0">
        <time>2020-12-20T10:40:18.045000+00:00</time>
      </trkpt>
      <trkpt lat="47.31288" lon="-1.35137">
        <ele>64</ele>
        <time>2020-12-20T10:40:19.034000+00:00</time>
      </trkpt>
      <trkpt lat="0" lon="0">
        <time>2020-12-20T10:40:19.046000+00:00</time>
      </trkpt>
      <trkpt lat="0" lon="0">
        <time>2020-12-20T10:40:19.056000+00:00</time>
      </trkpt>
      <trkpt lat="0" lon="0">
        <time>2020-12-20T10:40:19.058000+00:00</time>
      </trkpt>
      <trkpt lat="47.31286" lon="-1.3514">
        <ele>64</ele>
        <time>2020-12-20T10:40:20.082000+00:00</time>
      </trkpt>
      <trkpt lat="0" lon="0">
        <time>2020-12-20T10:40:20.088000+00:00</time>
      </trkpt>
      <trkpt lat="0" lon="0">
        <time>2020-12-20T10:40:20.095000+00:00</time>
      </trkpt>
      <trkpt lat="0" lon="0">
        <time>2020-12-20T10:40:20.098000+00:00</time>
      </trkpt>
      <trkpt lat="47.31284" lon="-1.35143">
        <ele>64</ele>
        <time>2020-12-20T10:40:21.083000+00:00</time>
      </trkpt>
      <trkpt lat="0" lon="0">
        <time>2020-12-20T10:40:21.089000+00:00</time>
      </trkpt>
      <trkpt lat="0" lon="0">
        <time>2020-12-20T10:40:21.095000+00:00</time>
      </trkpt>
      <trkpt lat="0" lon="0">
        <time>2020-12-20T10:40:21.098000+00:00</time>
      </trkpt>
      <trkpt lat="47.31282" lon="-1.35146">
        <ele>64</ele>
        <time>2020-12-20T10:40:22.044000+00:00</time>
      </trkpt>
      <trkpt lat="0" lon="0">
        <time>2020-12-20T10:40:22.054000+00:00</time>
      </trkpt>
      <trkpt lat="0" lon="0">
        <time>2020-12-20T10:40:22.061000+00:00</time>
      </trkpt>
      <trkpt lat="0" lon="0">
        <time>2020-12-20T10:40:22.064000+00:00</time>
      </trkpt>
      <trkpt lat="47.3128" lon="-1.35148">
        <ele>64</ele>
        <time>2020-12-20T10:40:23.074000+00:00</time>
      </trkpt>
      <trkpt lat="0" lon="0">
        <time>2020-12-20T10:40:23.098000+00:00</time>
      </trkpt>
      <trkpt lat="0" lon="0">
        <time>2020-12-20T10:40:23.103000+00:00</time>
      </trkpt>
      <trkpt lat="0" lon="0">
        <time>2020-12-20T10:40:23.104000+00:00</time>
      </trkpt>
      <trkpt lat="47.31278" lon="-1.35151">
        <ele>65</ele>
        <time>2020-12-20T10:40:24.010000+00:00</time>
      </trkpt>
      <trkpt lat="0" lon="0">
        <time>2020-12-20T10:40:24.018000+00:00</time>
      </trkpt>
      <trkpt lat="0" lon="0">
        <time>2020-12-20T10:40:24.021000+00:00</time>
      </trkpt>
      <trkpt lat="0" lon="0">
        <time>2020-12-20T10:40:24.022000+00:00</time>
      </trkpt>
      <trkpt lat="47.31277" lon="-1.35154">
        <ele>65</ele>
        <time>2020-12-20T10:40:25.038000+00:00</time>
      </trkpt>
      <trkpt lat="0" lon="0">
        <time>2020-12-20T10:40:25.055000+00:00</time>
      </trkpt>
      <trkpt lat="0" lon="0">
        <time>2020-12-20T10:40:25.061000+00:00</time>
      </trkpt>
      <trkpt lat="0" lon="0">
        <time>2020-12-20T10:40:25.067000+00:00</time>
      </trkpt>
      <trkpt lat="47.31275" lon="-1.35157">
        <ele>65</ele>
        <time>2020-12-20T10:40:26.038000+00:00</time>
      </trkpt>
      <trkpt lat="0" lon="0">
        <time>2020-12-20T10:40:26.053000+00:00</time>
      </trkpt>
      <trkpt lat="0" lon="0">
        <time>2020-12-20T10:40:26.064000+00:00</time>
      </trkpt>
      <trkpt lat="0" lon="0">
        <time>2020-12-20T10:40:26.070000+00:00</time>
      </trkpt>
      <trkpt lat="47.31273" lon="-1.35159">
        <ele>65</ele>
        <time>2020-12-20T10:40:27.046000+00:00</time>
      </trkpt>
      <trkpt lat="0" lon="0">
        <time>2020-12-20T10:40:27.054000+00:00</time>
      </trkpt>
      <trkpt lat="0" lon="0">
        <time>2020-12-20T10:40:27.066000+00:00</time>
      </trkpt>
      <trkpt lat="0" lon="0">
        <time>2020-12-20T10:40:27.069000+00:00</time>
      </trkpt>
      <trkpt lat="47.31271" lon="-1.35162">
        <ele>65</ele>
        <time>2020-12-20T10:40:28.064000+00:00</time>
      </trkpt>
      <trkpt lat="0" lon="0">
        <time>2020-12-20T10:40:28.077000+00:00</time>
      </trkpt>
      <trkpt lat="0" lon="0">
        <time>2020-12-20T10:40:28.083000+00:00</time>
      </trkpt>
      <trkpt lat="0" lon="0">
        <time>2020-12-20T10:40:28.085000+00:00</time>
      </trkpt>
      <trkpt lat="47.31269" lon="-1.35165">
        <ele>65</ele>
        <time>2020-12-20T10:40:29.011000+00:00</time>
      </trkpt>
      <trkpt lat="0" lon="0">
        <time>2020-12-20T10:40:29.021000+00:00</time>
      </trkpt>
      <trkpt lat="0" lon="0">
        <time>2020-12-20T10:40:29.027000+00:00</time>
      </trkpt>
      <trkpt lat="0" lon="0">
        <time>2020-12-20T10:40:29.029000+00:00</time>
      </trkpt>
      <trkpt lat="47.31268" lon="-1.35167">
        <ele>65</ele>
        <time>2020-12-20T10:40:30.031000+00:00</time>
      </trkpt>
      <trkpt lat="0" lon="0">
        <time>2020-12-20T10:40:30.038000+00:00</time>
      </trkpt>
      <trkpt lat="0" lon="0">
        <time>2020-12-20T10:40:30.043000+00:00</time>
      </trkpt>
      <trkpt lat="0" lon="0">
        <time>2020-12-20T10:40:30.046000+00:00</time>
      </trkpt>
      <trkpt lat="47.31266" lon="-1.3517">
        <ele>65</ele>
        <time>2020-12-20T10:40:31.032000+00:00</time>
      </trkpt>
      <trkpt lat="0" lon="0">
        <time>2020-12-20T10:40:31.041000+00:00</time>
      </trkpt>
      <trkpt lat="0" lon="0">
        <time>2020-12-20T10:40:31.045000+00:00</time>
      </trkpt>
      <trkpt lat="0" lon="0">
        <time>2020-12-20T10:40:31.049000+00:00</time>
      </trkpt>
      <trkpt lat="47.31265" lon="-1.35172">
        <ele>65</ele>
        <time>2020-12-20T10:40:32.084000+00:00</time>
      </trkpt>
      <trkpt lat="0" lon="0">
        <time>2020-12-20T10:40:32.100000+00:00</time>
      </trkpt>
      <trkpt lat="0" lon="0">
        <time>2020-12-20T10:40:32.105000+00:00</time>
      </trkpt>
      <trkpt lat="0" lon="0">
        <time>2020-12-20T10:40:32.110000+00:00</time>
      </trkpt>
      <trkpt lat="47.31263" lon="-1.35175">
        <ele>64</ele>
        <time>2020-12-20T10:40:33.037000+00:00</time>
      </trkpt>
      <trkpt lat="0" lon="0">
        <time>2020-12-20T10:40:33.046000+00:00</time>
      </trkpt>
      <trkpt lat="0" lon="0">
        <time>2020-12-20T10:40:33.058000+00:00</time>
      </trkpt>
      <trkpt lat="0" lon="0">
        <time>2020-12-20T10:40:33.067000+00:00</time>
      </trkpt>
      <trkpt lat="47.31262" lon="-1.35177">
        <ele>64</ele>
        <time>2020-12-20T10:40:34.048000+00:00</time>
      </trkpt>
      <trkpt lat="0" lon="0">
        <time>2020-12-20T10:40:34.062000+00:00</time>
      </trkpt>
      <trkpt lat="0" lon="0">
        <time>2020-12-20T10:40:34.068000+00:00</time>
      </trkpt>
      <trkpt lat="0" lon="0">
        <time>2020-12-20T10:40:34.072000+00:00</time>
      </trkpt>
      <trkpt lat="47.31261" lon="-1.35179">
        <ele>63</ele>
        <time>2020-12-20T10:40:35.029000+00:00</time>
      </trkpt>
      <trkpt lat="0" lon="0">
        <time>2020-12-20T10:40:35.036000+00:00</time>
      </trkpt>
      <trkpt lat="0" lon="0">
        <time>2020-12-20T10:40:35.042000+00:00</time>
      </trkpt>
      <trkpt lat="0" lon="0">
        <time>2020-12-20T10:40:35.049000+00:00</time>
      </trkpt>
      <trkpt lat="47.31259" lon="-1.35181">
        <ele>63</ele>
        <time>2020-12-20T10:40:36.044000+00:00</time>
      </trkpt>
      <trkpt lat="0" lon="0">
        <time>2020-12-20T10:40:36.056000+00:00</time>
      </trkpt>
      <trkpt lat="0" lon="0">
        <time>2020-12-20T10:40:36.067000+00:00</time>
      </trkpt>
      <trkpt lat="0" lon="0">
        <time>2020-12-20T10:40:36.069000+00:00</time>
      </trkpt>
      <trkpt lat="47.31258" lon="-1.35183">
        <ele>63</ele>
        <time>2020-12-20T10:40:37.066000+00:00</time>
      </trkpt>
      <trkpt lat="0" lon="0">
        <time>2020-12-20T10:40:37.078000+00:00</time>
      </trkpt>
      <trkpt lat="0" lon="0">
        <time>2020-12-20T10:40:37.085000+00:00</time>
      </trkpt>
      <trkpt lat="0" lon="0">
        <time>2020-12-20T10:40:37.092000+00:00</time>
      </trkpt>
      <trkpt lat="47.31257" lon="-1.35185">
        <ele>63</ele>
        <time>2020-12-20T10:40:38.085000+00:00</time>
      </trkpt>
      <trkpt lat="0" lon="0">
        <time>2020-12-20T10:40:38.102000+00:00</time>
      </trkpt>
      <trkpt lat="0" lon="0">
        <time>2020-12-20T10:40:38.109000+00:00</time>
      </trkpt>
      <trkpt lat="0" lon="0">
        <time>2020-12-20T10:40:38.111000+00:00</time>
      </trkpt>
      <trkpt lat="47.31256" lon="-1.35187">
        <ele>63</ele>
        <time>2020-12-20T10:40:39.074000+00:00</time>
      </trkpt>
      <trkpt lat="0" lon="0">
        <time>2020-12-20T10:40:39.081000+00:00</time>
      </trkpt>
      <trkpt lat="0" lon="0">
        <time>2020-12-20T10:40:39.085000+00:00</time>
      </trkpt>
      <trkpt lat="0" lon="0">
        <time>2020-12-20T10:40:39.088000+00:00</time>
      </trkpt>
      <trkpt lat="47.31255" lon="-1.35188">
        <ele>63</ele>
        <time>2020-12-20T10:40:40.037000+00:00</time>
      </trkpt>
      <trkpt lat="0" lon="0">
        <time>2020-12-20T10:40:40.051000+00:00</time>
      </trkpt>
      <trkpt lat="0" lon="0">
        <time>2020-12-20T10:40:40.059000+00:00</time>
      </trkpt>
      <trkpt lat="0" lon="0">
        <time>2020-12-20T10:40:40.062000+00:00</time>
      </trkpt>
      <trkpt lat="47.31253" lon="-1.3519">
        <ele>62</ele>
        <time>2020-12-20T10:40:41.030000+00:00</time>
      </trkpt>
      <trkpt lat="0" lon="0">
        <time>2020-12-20T10:40:41.040000+00:00</time>
      </trkpt>
      <trkpt lat="0" lon="0">
        <time>2020-12-20T10:40:41.046000+00:00</time>
      </trkpt>
      <trkpt lat="0" lon="0">
        <time>2020-12-20T10:40:41.048000+00:00</time>
      </trkpt>
      <trkpt lat="47.31252" lon="-1.35192">
        <ele>62</ele>
        <time>2020-12-20T10:40:42.051000+00:00</time>
      </trkpt>
      <trkpt lat="0" lon="0">
        <time>2020-12-20T10:40:42.064000+00:00</time>
      </trkpt>
      <trkpt lat="0" lon="0">
        <time>2020-12-20T10:40:42.077000+00:00</time>
      </trkpt>
      <trkpt lat="0" lon="0">
        <time>2020-12-20T10:40:42.079000+00:00</time>
      </trkpt>
      <trkpt lat="47.31251" lon="-1.35194">
        <ele>62</ele>
        <time>2020-12-20T10:40:43.022000+00:00</time>
      </trkpt>
      <trkpt lat="0" lon="0">
        <time>2020-12-20T10:40:43.030000+00:00</time>
      </trkpt>
      <trkpt lat="0" lon="0">
        <time>2020-12-20T10:40:43.034000+00:00</time>
      </trkpt>
      <trkpt lat="0" lon="0">
        <time>2020-12-20T10:40:43.038000+00:00</time>
      </trkpt>
      <trkpt lat="47.3125" lon="-1.35196">
        <ele>62</ele>
        <time>2020-12-20T10:40:44.049000+00:00</time>
      </trkpt>
      <trkpt lat="0" lon="0">
        <time>2020-12-20T10:40:44.055000+00:00</time>
      </trkpt>
      <trkpt lat="0" lon="0">
        <time>2020-12-20T10:40:44.061000+00:00</time>
      </trkpt>
      <trkpt lat="0" lon="0">
        <time>2020-12-20T10:40:44.064000+00:00</time>
      </trkpt>
      <trkpt lat="47.31249" lon="-1.35198">
        <ele>62</ele>
        <time>2020-12-20T10:40:45.039000+00:00</time>
      </trkpt>
      <trkpt lat="0" lon="0">
        <time>2020-12-20T10:40:45.049000+00:00</time>
      </trkpt>
      <trkpt lat="0" lon="0">
        <time>2020-12-20T10:40:45.055000+00:00</time>
      </trkpt>
      <trkpt lat="0" lon="0">
        <time>2020-12-20T10:40:45.058000+00:00</time>
      </trkpt>
      <trkpt lat="47.31247" lon="-1.352">
        <ele>62</ele>
        <time>2020-12-20T10:40:46.016000+00:00</time>
      </trkpt>
      <trkpt lat="0" lon="0">
        <time>2020-12-20T10:40:46.027000+00:00</time>
      </trkpt>
      <trkpt lat="0" lon="0">
        <time>2020-12-20T10:40:46.033000+00:00</time>
      </trkpt>
      <trkpt lat="0" lon="0">
        <time>2020-12-20T10:40:46.036000+00:00</time>
      </trkpt>
      <trkpt lat="47.31246" lon="-1.35202">
        <ele>62</ele>
        <time>2020-12-20T10:40:47.017000+00:00</time>
      </trkpt>
      <trkpt lat="0" lon="0">
        <time>2020-12-20T10:40:47.024000+00:00</time>
      </trkpt>
      <trkpt lat="0" lon="0">
        <time>2020-12-20T10:40:47.028000+00:00</time>
      </trkpt>
      <trkpt lat="0" lon="0">
        <time>2020-12-20T10:40:47.030000+00:00</time>
      </trkpt>
      <trkpt lat="47.31244" lon="-1.35204">
        <ele>62</ele>
        <time>2020-12-20T10:40:48.025000+00:00</time>
      </trkpt>
      <trkpt lat="0" lon="0">
        <time>2020-12-20T10:40:48.040000+00:00</time>
      </trkpt>
      <trkpt lat="0" lon="0">
        <time>2020-12-20T10:40:48.044000+00:00</time>
      </trkpt>
      <trkpt lat="0" lon="0">
        <time>2020-12-20T10:40:48.048000+00:00</time>
      </trkpt>
      <trkpt lat="47.31243" lon="-1.35207">
        <ele>62</ele>
        <time>2020-12-20T10:40:49.058000+00:00</time>
      </trkpt>
      <trkpt lat="0" lon="0">
        <time>2020-12-20T10:40:49.065000+00:00</time>
      </trkpt>
      <trkpt lat="0" lon="0">
        <time>2020-12-20T10:40:49.070000+00:00</time>
      </trkpt>
      <trkpt lat="0" lon="0">
        <time>2020-12-20T10:40:49.072000+00:00</time>
      </trkpt>
      <trkpt lat="47.31241" lon="-1.35209">
        <ele>62</ele>
        <time>2020-12-20T10:40:50.050000+00:00</time>
      </trkpt>
      <trkpt lat="0" lon="0">
        <time>2020-12-20T10:40:50.061000+00:00</time>
      </trkpt>
      <trkpt lat="0" lon="0">
        <time>2020-12-20T10:40:50.067000+00:00</time>
      </trkpt>
      <trkpt lat="0" lon="0">
        <time>2020-12-20T10:40:50.070000+00:00</time>
      </trkpt>
      <trkpt lat="47.3124" lon="-1.35212">
        <ele>62</ele>
        <time>2020-12-20T10:40:51.043000+00:00</time>
      </trkpt>
      <trkpt lat="0" lon="0">
        <time>2020-12-20T10:40:51.063000+00:00</time>
      </trkpt>
      <trkpt lat="0" lon="0">
        <time>2020-12-20T10:40:51.067000+00:00</time>
      </trkpt>
      <trkpt lat="0" lon="0">
        <time>2020-12-20T10:40:51.074000+00:00</time>
      </trkpt>
      <trkpt lat="47.31238" lon="-1.35215">
        <ele>62</ele>
        <time>2020-12-20T10:40:52.063000+00:00</time>
      </trkpt>
      <trkpt lat="0" lon="0">
        <time>2020-12-20T10:40:52.066000+00:00</time>
      </trkpt>
      <trkpt lat="0" lon="0">
        <time>2020-12-20T10:40:52.069000+00:00</time>
      </trkpt>
      <trkpt lat="0" lon="0">
        <time>2020-12-20T10:40:52.070000+00:00</time>
      </trkpt>
      <trkpt lat="47.31237" lon="-1.35218">
        <ele>62</ele>
        <time>2020-12-20T10:40:53.030000+00:00</time>
      </trkpt>
      <trkpt lat="0" lon="0">
        <time>2020-12-20T10:40:53.048000+00:00</time>
      </trkpt>
      <trkpt lat="0" lon="0">
        <time>2020-12-20T10:40:53.053000+00:00</time>
      </trkpt>
      <trkpt lat="0" lon="0">
        <time>2020-12-20T10:40:53.055000+00:00</time>
      </trkpt>
      <trkpt lat="47.31235" lon="-1.35221">
        <ele>62</ele>
        <time>2020-12-20T10:40:54.059000+00:00</time>
      </trkpt>
      <trkpt lat="0" lon="0">
        <time>2020-12-20T10:40:54.069000+00:00</time>
      </trkpt>
      <trkpt lat="0" lon="0">
        <time>2020-12-20T10:40:54.076000+00:00</time>
      </trkpt>
      <trkpt lat="0" lon="0">
        <time>2020-12-20T10:40:54.079000+00:00</time>
      </trkpt>
      <trkpt lat="47.31233" lon="-1.35224">
        <ele>62</ele>
        <time>2020-12-20T10:40:55.067000+00:00</time>
      </trkpt>
      <trkpt lat="0" lon="0">
        <time>2020-12-20T10:40:55.086000+00:00</time>
      </trkpt>
      <trkpt lat="0" lon="0">
        <time>2020-12-20T10:40:55.090000+00:00</time>
      </trkpt>
      <trkpt lat="0" lon="0">
        <time>2020-12-20T10:40:55.091000+00:00</time>
      </trkpt>
      <trkpt lat="47.31232" lon="-1.35227">
        <ele>62</ele>
        <time>2020-12-20T10:40:56.087000+00:00</time>
      </trkpt>
      <trkpt lat="0" lon="0">
        <time>2020-12-20T10:40:56.093000+00:00</time>
      </trkpt>
      <trkpt lat="0" lon="0">
        <time>2020-12-20T10:40:56.099000+00:00</time>
      </trkpt>
      <trkpt lat="0" lon="0">
        <time>2020-12-20T10:40:56.104000+00:00</time>
      </trkpt>
      <trkpt lat="47.3123" lon="-1.3523">
        <ele>62</ele>
        <time>2020-12-20T10:40:57.075000+00:00</time>
      </trkpt>
      <trkpt lat="0" lon="0">
        <time>2020-12-20T10:40:57.081000+00:00</time>
      </trkpt>
      <trkpt lat="0" lon="0">
        <time>2020-12-20T10:40:57.095000+00:00</time>
      </trkpt>
      <trkpt lat="0" lon="0">
        <time>2020-12-20T10:40:57.098000+00:00</time>
      </trkpt>
      <trkpt lat="47.31228" lon="-1.35232">
        <ele>62</ele>
        <time>2020-12-20T10:40:58.054000+00:00</time>
      </trkpt>
      <trkpt lat="0" lon="0">
        <time>2020-12-20T10:40:58.060000+00:00</time>
      </trkpt>
      <trkpt lat="0" lon="0">
        <time>2020-12-20T10:40:58.064000+00:00</time>
      </trkpt>
      <trkpt lat="0" lon="0">
        <time>2020-12-20T10:40:58.065000+00:00</time>
      </trkpt>
      <trkpt lat="47.31226" lon="-1.35235">
        <ele>62</ele>
        <time>2020-12-20T10:40:59.077000+00:00</time>
      </trkpt>
      <trkpt lat="0" lon="0">
        <time>2020-12-20T10:40:59.085000+00:00</time>
      </trkpt>
      <trkpt lat="0" lon="0">
        <time>2020-12-20T10:40:59.090000+00:00</time>
      </trkpt>
      <trkpt lat="0" lon="0">
        <time>2020-12-20T10:40:59.092000+00:00</time>
      </trkpt>
      <trkpt lat="47.31224" lon="-1.35238">
        <ele>62</ele>
        <time>2020-12-20T10:41:00.013000+00:00</time>
      </trkpt>
      <trkpt lat="0" lon="0">
        <time>2020-12-20T10:41:00.024000+00:00</time>
      </trkpt>
      <trkpt lat="0" lon="0">
        <time>2020-12-20T10:41:00.029000+00:00</time>
      </trkpt>
      <trkpt lat="0" lon="0">
        <time>2020-12-20T10:41:00.032000+00:00</time>
      </trkpt>
      <trkpt lat="47.31222" lon="-1.35241">
        <ele>62</ele>
        <time>2020-12-20T10:41:01.064000+00:00</time>
      </trkpt>
      <trkpt lat="0" lon="0">
        <time>2020-12-20T10:41:01.079000+00:00</time>
      </trkpt>
      <trkpt lat="0" lon="0">
        <time>2020-12-20T10:41:01.085000+00:00</time>
      </trkpt>
      <trkpt lat="0" lon="0">
        <time>2020-12-20T10:41:01.088000+00:00</time>
      </trkpt>
      <trkpt lat="47.31221" lon="-1.35243">
        <ele>63</ele>
        <time>2020-12-20T10:41:02.034000+00:00</time>
      </trkpt>
      <trkpt lat="0" lon="0">
        <time>2020-12-20T10:41:02.046000+00:00</time>
      </trkpt>
      <trkpt lat="0" lon="0">
        <time>2020-12-20T10:41:02.052000+00:00</time>
      </trkpt>
      <trkpt lat="0" lon="0">
        <time>2020-12-20T10:41:02.054000+00:00</time>
      </trkpt>
      <trkpt lat="47.31219" lon="-1.35246">
        <ele>63</ele>
        <time>2020-12-20T10:41:03.095000+00:00</time>
      </trkpt>
      <trkpt lat="0" lon="0">
        <time>2020-12-20T10:41:03.108000+00:00</time>
      </trkpt>
      <trkpt lat="0" lon="0">
        <time>2020-12-20T10:41:03.114000+00:00</time>
      </trkpt>
      <trkpt lat="0" lon="0">
        <time>2020-12-20T10:41:03.116000+00:00</time>
      </trkpt>
      <trkpt lat="47.31217" lon="-1.35249">
        <ele>63</ele>
        <time>2020-12-20T10:41:04.099000+00:00</time>
      </trkpt>
      <trkpt lat="0" lon="0">
        <time>2020-12-20T10:41:04.109000+00:00</time>
      </trkpt>
      <trkpt lat="0" lon="0">
        <time>2020-12-20T10:41:04.113000+00:00</time>
      </trkpt>
      <trkpt lat="0" lon="0">
        <time>2020-12-20T10:41:04.115000+00:00</time>
      </trkpt>
      <trkpt lat="47.31215" lon="-1.35251">
        <ele>63</ele>
        <time>2020-12-20T10:41:05.062000+00:00</time>
      </trkpt>
      <trkpt lat="0" lon="0">
        <time>2020-12-20T10:41:05.067000+00:00</time>
      </trkpt>
      <trkpt lat="0" lon="0">
        <time>2020-12-20T10:41:05.072000+00:00</time>
      </trkpt>
      <trkpt lat="0" lon="0">
        <time>2020-12-20T10:41:05.073000+00:00</time>
      </trkpt>
      <trkpt lat="47.31213" lon="-1.35253">
        <ele>63</ele>
        <time>2020-12-20T10:41:06.093000+00:00</time>
      </trkpt>
      <trkpt lat="0" lon="0">
        <time>2020-12-20T10:41:06.107000+00:00</time>
      </trkpt>
      <trkpt lat="0" lon="0">
        <time>2020-12-20T10:41:06.115000+00:00</time>
      </trkpt>
      <trkpt lat="0" lon="0">
        <time>2020-12-20T10:41:06.117000+00:00</time>
      </trkpt>
      <trkpt lat="47.31211" lon="-1.35256">
        <ele>64</ele>
        <time>2020-12-20T10:41:07.090000+00:00</time>
      </trkpt>
      <trkpt lat="0" lon="0">
        <time>2020-12-20T10:41:07.109000+00:00</time>
      </trkpt>
      <trkpt lat="0" lon="0">
        <time>2020-12-20T10:41:07.116000+00:00</time>
      </trkpt>
      <trkpt lat="0" lon="0">
        <time>2020-12-20T10:41:07.120000+00:00</time>
      </trkpt>
      <trkpt lat="47.3121" lon="-1.35258">
        <ele>64</ele>
        <time>2020-12-20T10:41:08.064000+00:00</time>
      </trkpt>
      <trkpt lat="0" lon="0">
        <time>2020-12-20T10:41:08.080000+00:00</time>
      </trkpt>
      <trkpt lat="0" lon="0">
        <time>2020-12-20T10:41:08.085000+00:00</time>
      </trkpt>
      <trkpt lat="0" lon="0">
        <time>2020-12-20T10:41:08.087000+00:00</time>
      </trkpt>
      <trkpt lat="47.31208" lon="-1.3526">
        <ele>65</ele>
        <time>2020-12-20T10:41:09.068000+00:00</time>
      </trkpt>
      <trkpt lat="0" lon="0">
        <time>2020-12-20T10:41:09.074000+00:00</time>
      </trkpt>
      <trkpt lat="0" lon="0">
        <time>2020-12-20T10:41:09.080000+00:00</time>
      </trkpt>
      <trkpt lat="0" lon="0">
        <time>2020-12-20T10:41:09.082000+00:00</time>
      </trkpt>
      <trkpt lat="47.31207" lon="-1.35263">
        <ele>65</ele>
        <time>2020-12-20T10:41:10.073000+00:00</time>
      </trkpt>
      <trkpt lat="0" lon="0">
        <time>2020-12-20T10:41:10.075000+00:00</time>
      </trkpt>
      <trkpt lat="0" lon="0">
        <time>2020-12-20T10:41:10.077000+00:00</time>
      </trkpt>
      <trkpt lat="0" lon="0">
        <time>2020-12-20T10:41:10.078000+00:00</time>
      </trkpt>
      <trkpt lat="47.31205" lon="-1.35266">
        <ele>65</ele>
        <time>2020-12-20T10:41:11.053000+00:00</time>
      </trkpt>
      <trkpt lat="0" lon="0">
        <time>2020-12-20T10:41:11.058000+00:00</time>
      </trkpt>
      <trkpt lat="0" lon="0">
        <time>2020-12-20T10:41:11.062000+00:00</time>
      </trkpt>
      <trkpt lat="0" lon="0">
        <time>2020-12-20T10:41:11.065000+00:00</time>
      </trkpt>
      <trkpt lat="47.31203" lon="-1.35268">
        <ele>65</ele>
        <time>2020-12-20T10:41:12.073000+00:00</time>
      </trkpt>
      <trkpt lat="0" lon="0">
        <time>2020-12-20T10:41:12.082000+00:00</time>
      </trkpt>
      <trkpt lat="0" lon="0">
        <time>2020-12-20T10:41:12.094000+00:00</time>
      </trkpt>
      <trkpt lat="0" lon="0">
        <time>2020-12-20T10:41:12.097000+00:00</time>
      </trkpt>
      <trkpt lat="47.31202" lon="-1.35271">
        <ele>65</ele>
        <time>2020-12-20T10:41:13.061000+00:00</time>
      </trkpt>
      <trkpt lat="0" lon="0">
        <time>2020-12-20T10:41:13.075000+00:00</time>
      </trkpt>
      <trkpt lat="0" lon="0">
        <time>2020-12-20T10:41:13.079000+00:00</time>
      </trkpt>
      <trkpt lat="0" lon="0">
        <time>2020-12-20T10:41:13.082000+00:00</time>
      </trkpt>
      <trkpt lat="47.312" lon="-1.35273">
        <ele>65</ele>
        <time>2020-12-20T10:41:14.076000+00:00</time>
      </trkpt>
      <trkpt lat="0" lon="0">
        <time>2020-12-20T10:41:14.085000+00:00</time>
      </trkpt>
      <trkpt lat="0" lon="0">
        <time>2020-12-20T10:41:14.090000+00:00</time>
      </trkpt>
      <trkpt lat="0" lon="0">
        <time>2020-12-20T10:41:14.093000+00:00</time>
      </trkpt>
      <trkpt lat="47.31198" lon="-1.35276">
        <ele>66</ele>
        <time>2020-12-20T10:41:15.022000+00:00</time>
      </trkpt>
      <trkpt lat="0" lon="0">
        <time>2020-12-20T10:41:15.029000+00:00</time>
      </trkpt>
      <trkpt lat="0" lon="0">
        <time>2020-12-20T10:41:15.034000+00:00</time>
      </trkpt>
      <trkpt lat="0" lon="0">
        <time>2020-12-20T10:41:15.037000+00:00</time>
      </trkpt>
      <trkpt lat="47.31197" lon="-1.35278">
        <ele>66</ele>
        <time>2020-12-20T10:41:16.082000+00:00</time>
      </trkpt>
      <trkpt lat="0" lon="0">
        <time>2020-12-20T10:41:16.087000+00:00</time>
      </trkpt>
      <trkpt lat="0" lon="0">
        <time>2020-12-20T10:41:16.089000+00:00</time>
      </trkpt>
      <trkpt lat="0" lon="0">
        <time>2020-12-20T10:41:16.091000+00:00</time>
      </trkpt>
      <trkpt lat="47.31195" lon="-1.35281">
        <ele>67</ele>
        <time>2020-12-20T10:41:17.064000+00:00</time>
      </trkpt>
      <trkpt lat="0" lon="0">
        <time>2020-12-20T10:41:17.073000+00:00</time>
      </trkpt>
      <trkpt lat="0" lon="0">
        <time>2020-12-20T10:41:17.079000+00:00</time>
      </trkpt>
      <trkpt lat="0" lon="0">
        <time>2020-12-20T10:41:17.081000+00:00</time>
      </trkpt>
      <trkpt lat="47.31193" lon="-1.35283">
        <ele>67</ele>
        <time>2020-12-20T10:41:18.065000+00:00</time>
      </trkpt>
      <trkpt lat="0" lon="0">
        <time>2020-12-20T10:41:18.082000+00:00</time>
      </trkpt>
      <trkpt lat="0" lon="0">
        <time>2020-12-20T10:41:18.088000+00:00</time>
      </trkpt>
      <trkpt lat="0" lon="0">
        <time>2020-12-20T10:41:18.093000+00:00</time>
      </trkpt>
      <trkpt lat="47.31192" lon="-1.35285">
        <ele>67</ele>
        <time>2020-12-20T10:41:19.039000+00:00</time>
      </trkpt>
      <trkpt lat="0" lon="0">
        <time>2020-12-20T10:41:19.049000+00:00</time>
      </trkpt>
      <trkpt lat="0" lon="0">
        <time>2020-12-20T10:41:19.053000+00:00</time>
      </trkpt>
      <trkpt lat="0" lon="0">
        <time>2020-12-20T10:41:19.056000+00:00</time>
      </trkpt>
      <trkpt lat="47.3119" lon="-1.35287">
        <ele>68</ele>
        <time>2020-12-20T10:41:20.071000+00:00</time>
      </trkpt>
      <trkpt lat="0" lon="0">
        <time>2020-12-20T10:41:20.083000+00:00</time>
      </trkpt>
      <trkpt lat="0" lon="0">
        <time>2020-12-20T10:41:20.094000+00:00</time>
      </trkpt>
      <trkpt lat="0" lon="0">
        <time>2020-12-20T10:41:20.096000+00:00</time>
      </trkpt>
      <trkpt lat="47.31188" lon="-1.35289">
        <ele>68</ele>
        <time>2020-12-20T10:41:21.057000+00:00</time>
      </trkpt>
      <trkpt lat="0" lon="0">
        <time>2020-12-20T10:41:21.068000+00:00</time>
      </trkpt>
      <trkpt lat="0" lon="0">
        <time>2020-12-20T10:41:21.070000+00:00</time>
      </trkpt>
      <trkpt lat="0" lon="0">
        <time>2020-12-20T10:41:21.072000+00:00</time>
      </trkpt>
      <trkpt lat="47.31186" lon="-1.35291">
        <ele>68</ele>
        <time>2020-12-20T10:41:22.068000+00:00</time>
      </trkpt>
      <trkpt lat="0" lon="0">
        <time>2020-12-20T10:41:22.075000+00:00</time>
      </trkpt>
      <trkpt lat="0" lon="0">
        <time>2020-12-20T10:41:22.077000+00:00</time>
      </trkpt>
      <trkpt lat="0" lon="0">
        <time>2020-12-20T10:41:22.078000+00:00</time>
      </trkpt>
      <trkpt lat="47.31185" lon="-1.35293">
        <ele>68</ele>
        <time>2020-12-20T10:41:23.083000+00:00</time>
      </trkpt>
      <trkpt lat="0" lon="0">
        <time>2020-12-20T10:41:23.085000+00:00</time>
      </trkpt>
      <trkpt lat="0" lon="0">
        <time>2020-12-20T10:41:23.088000+00:00</time>
      </trkpt>
      <trkpt lat="0" lon="0">
        <time>2020-12-20T10:41:23.089000+00:00</time>
      </trkpt>
      <trkpt lat="47.31183" lon="-1.35295">
        <ele>69</ele>
        <time>2020-12-20T10:41:24.094000+00:00</time>
      </trkpt>
      <trkpt lat="0" lon="0">
        <time>2020-12-20T10:41:24.101000+00:00</time>
      </trkpt>
      <trkpt lat="0" lon="0">
        <time>2020-12-20T10:41:24.107000+00:00</time>
      </trkpt>
      <trkpt lat="0" lon="0">
        <time>2020-12-20T10:41:24.110000+00:00</time>
      </trkpt>
      <trkpt lat="47.31181" lon="-1.35297">
        <ele>69</ele>
        <time>2020-12-20T10:41:25.043000+00:00</time>
      </trkpt>
      <trkpt lat="0" lon="0">
        <time>2020-12-20T10:41:25.051000+00:00</time>
      </trkpt>
      <trkpt lat="0" lon="0">
        <time>2020-12-20T10:41:25.055000+00:00</time>
      </trkpt>
      <trkpt lat="0" lon="0">
        <time>2020-12-20T10:41:25.057000+00:00</time>
      </trkpt>
      <trkpt lat="47.3118" lon="-1.35299">
        <ele>70</ele>
        <time>2020-12-20T10:41:26.090000+00:00</time>
      </trkpt>
      <trkpt lat="0" lon="0">
        <time>2020-12-20T10:41:26.101000+00:00</time>
      </trkpt>
      <trkpt lat="0" lon="0">
        <time>2020-12-20T10:41:26.106000+00:00</time>
      </trkpt>
      <trkpt lat="0" lon="0">
        <time>2020-12-20T10:41:26.114000+00:00</time>
      </trkpt>
      <trkpt lat="47.31178" lon="-1.35301">
        <ele>70</ele>
        <time>2020-12-20T10:41:27.031000+00:00</time>
      </trkpt>
      <trkpt lat="0" lon="0">
        <time>2020-12-20T10:41:27.049000+00:00</time>
      </trkpt>
      <trkpt lat="0" lon="0">
        <time>2020-12-20T10:41:27.053000+00:00</time>
      </trkpt>
      <trkpt lat="0" lon="0">
        <time>2020-12-20T10:41:27.055000+00:00</time>
      </trkpt>
      <trkpt lat="47.31177" lon="-1.35303">
        <ele>71</ele>
        <time>2020-12-20T10:41:28.074000+00:00</time>
      </trkpt>
      <trkpt lat="0" lon="0">
        <time>2020-12-20T10:41:28.077000+00:00</time>
      </trkpt>
      <trkpt lat="0" lon="0">
        <time>2020-12-20T10:41:28.081000+00:00</time>
      </trkpt>
      <trkpt lat="0" lon="0">
        <time>2020-12-20T10:41:28.082000+00:00</time>
      </trkpt>
      <trkpt lat="47.31175" lon="-1.35306">
        <ele>72</ele>
        <time>2020-12-20T10:41:29.028000+00:00</time>
      </trkpt>
      <trkpt lat="0" lon="0">
        <time>2020-12-20T10:41:29.036000+00:00</time>
      </trkpt>
      <trkpt lat="0" lon="0">
        <time>2020-12-20T10:41:29.044000+00:00</time>
      </trkpt>
      <trkpt lat="0" lon="0">
        <time>2020-12-20T10:41:29.047000+00:00</time>
      </trkpt>
      <trkpt lat="47.31174" lon="-1.35308">
        <ele>73</ele>
        <time>2020-12-20T10:41:30.044000+00:00</time>
      </trkpt>
      <trkpt lat="0" lon="0">
        <time>2020-12-20T10:41:30.067000+00:00</time>
      </trkpt>
      <trkpt lat="0" lon="0">
        <time>2020-12-20T10:41:30.070000+00:00</time>
      </trkpt>
      <trkpt lat="0" lon="0">
        <time>2020-12-20T10:41:30.073000+00:00</time>
      </trkpt>
      <trkpt lat="47.31172" lon="-1.3531">
        <ele>73</ele>
        <time>2020-12-20T10:41:31.027000+00:00</time>
      </trkpt>
      <trkpt lat="0" lon="0">
        <time>2020-12-20T10:41:31.036000+00:00</time>
      </trkpt>
      <trkpt lat="0" lon="0">
        <time>2020-12-20T10:41:31.043000+00:00</time>
      </trkpt>
      <trkpt lat="0" lon="0">
        <time>2020-12-20T10:41:31.046000+00:00</time>
      </trkpt>
      <trkpt lat="47.31171" lon="-1.35312">
        <ele>74</ele>
        <time>2020-12-20T10:41:32.029000+00:00</time>
      </trkpt>
      <trkpt lat="0" lon="0">
        <time>2020-12-20T10:41:32.045000+00:00</time>
      </trkpt>
      <trkpt lat="0" lon="0">
        <time>2020-12-20T10:41:32.050000+00:00</time>
      </trkpt>
      <trkpt lat="0" lon="0">
        <time>2020-12-20T10:41:32.052000+00:00</time>
      </trkpt>
      <trkpt lat="47.3117" lon="-1.35314">
        <ele>75</ele>
        <time>2020-12-20T10:41:33.039000+00:00</time>
      </trkpt>
      <trkpt lat="0" lon="0">
        <time>2020-12-20T10:41:33.054000+00:00</time>
      </trkpt>
      <trkpt lat="0" lon="0">
        <time>2020-12-20T10:41:33.062000+00:00</time>
      </trkpt>
      <trkpt lat="0" lon="0">
        <time>2020-12-20T10:41:33.065000+00:00</time>
      </trkpt>
      <trkpt lat="47.31168" lon="-1.35316">
        <ele>75</ele>
        <time>2020-12-20T10:41:34.057000+00:00</time>
      </trkpt>
      <trkpt lat="0" lon="0">
        <time>2020-12-20T10:41:34.062000+00:00</time>
      </trkpt>
      <trkpt lat="0" lon="0">
        <time>2020-12-20T10:41:34.067000+00:00</time>
      </trkpt>
      <trkpt lat="0" lon="0">
        <time>2020-12-20T10:41:34.068000+00:00</time>
      </trkpt>
      <trkpt lat="47.31167" lon="-1.35319">
        <ele>75</ele>
        <time>2020-12-20T10:41:35.029000+00:00</time>
      </trkpt>
      <trkpt lat="0" lon="0">
        <time>2020-12-20T10:41:35.043000+00:00</time>
      </trkpt>
      <trkpt lat="0" lon="0">
        <time>2020-12-20T10:41:35.048000+00:00</time>
      </trkpt>
      <trkpt lat="0" lon="0">
        <time>2020-12-20T10:41:35.050000+00:00</time>
      </trkpt>
      <trkpt lat="47.31165" lon="-1.35321">
        <ele>75</ele>
        <time>2020-12-20T10:41:36.061000+00:00</time>
      </trkpt>
      <trkpt lat="0" lon="0">
        <time>2020-12-20T10:41:36.072000+00:00</time>
      </trkpt>
      <trkpt lat="0" lon="0">
        <time>2020-12-20T10:41:36.077000+00:00</time>
      </trkpt>
      <trkpt lat="0" lon="0">
        <time>2020-12-20T10:41:36.079000+00:00</time>
      </trkpt>
      <trkpt lat="47.31164" lon="-1.35323">
        <ele>76</ele>
        <time>2020-12-20T10:41:37.022000+00:00</time>
      </trkpt>
      <trkpt lat="0" lon="0">
        <time>2020-12-20T10:41:37.034000+00:00</time>
      </trkpt>
      <trkpt lat="0" lon="0">
        <time>2020-12-20T10:41:37.039000+00:00</time>
      </trkpt>
      <trkpt lat="0" lon="0">
        <time>2020-12-20T10:41:37.042000+00:00</time>
      </trkpt>
      <trkpt lat="47.31163" lon="-1.35325">
        <ele>77</ele>
        <time>2020-12-20T10:41:38.047000+00:00</time>
      </trkpt>
      <trkpt lat="0" lon="0">
        <time>2020-12-20T10:41:38.059000+00:00</time>
      </trkpt>
      <trkpt lat="0" lon="0">
        <time>2020-12-20T10:41:38.065000+00:00</time>
      </trkpt>
      <trkpt lat="0" lon="0">
        <time>2020-12-20T10:41:38.069000+00:00</time>
      </trkpt>
      <trkpt lat="47.31161" lon="-1.35327">
        <ele>77</ele>
        <time>2020-12-20T10:41:39.063000+00:00</time>
      </trkpt>
      <trkpt lat="0" lon="0">
        <time>2020-12-20T10:41:39.066000+00:00</time>
      </trkpt>
      <trkpt lat="0" lon="0">
        <time>2020-12-20T10:41:39.070000+00:00</time>
      </trkpt>
      <trkpt lat="0" lon="0">
        <time>2020-12-20T10:41:39.071000+00:00</time>
      </trkpt>
      <trkpt lat="47.3116" lon="-1.3533">
        <ele>78</ele>
        <time>2020-12-20T10:41:40.069000+00:00</time>
      </trkpt>
      <trkpt lat="0" lon="0">
        <time>2020-12-20T10:41:40.081000+00:00</time>
      </trkpt>
      <trkpt lat="0" lon="0">
        <time>2020-12-20T10:41:40.088000+00:00</time>
      </trkpt>
      <trkpt lat="0" lon="0">
        <time>2020-12-20T10:41:40.089000+00:00</time>
      </trkpt>
      <trkpt lat="47.31159" lon="-1.35332">
        <ele>79</ele>
        <time>2020-12-20T10:41:41.015000+00:00</time>
      </trkpt>
      <trkpt lat="0" lon="0">
        <time>2020-12-20T10:41:41.024000+00:00</time>
      </trkpt>
      <trkpt lat="0" lon="0">
        <time>2020-12-20T10:41:41.026000+00:00</time>
      </trkpt>
      <trkpt lat="0" lon="0">
        <time>2020-12-20T10:41:41.027000+00:00</time>
      </trkpt>
      <trkpt lat="47.31158" lon="-1.35334">
        <ele>80</ele>
        <time>2020-12-20T10:41:42.052000+00:00</time>
      </trkpt>
      <trkpt lat="0" lon="0">
        <time>2020-12-20T10:41:42.068000+00:00</time>
      </trkpt>
      <trkpt lat="0" lon="0">
        <time>2020-12-20T10:41:42.073000+00:00</time>
      </trkpt>
      <trkpt lat="0" lon="0">
        <time>2020-12-20T10:41:42.076000+00:00</time>
      </trkpt>
      <trkpt lat="47.31156" lon="-1.35336">
        <ele>81</ele>
        <time>2020-12-20T10:41:43.042000+00:00</time>
      </trkpt>
      <trkpt lat="0" lon="0">
        <time>2020-12-20T10:41:43.049000+00:00</time>
      </trkpt>
      <trkpt lat="0" lon="0">
        <time>2020-12-20T10:41:43.053000+00:00</time>
      </trkpt>
      <trkpt lat="0" lon="0">
        <time>2020-12-20T10:41:43.056000+00:00</time>
      </trkpt>
      <trkpt lat="47.31155" lon="-1.35339">
        <ele>81</ele>
        <time>2020-12-20T10:41:44.088000+00:00</time>
      </trkpt>
      <trkpt lat="0" lon="0">
        <time>2020-12-20T10:41:44.094000+00:00</time>
      </trkpt>
      <trkpt lat="0" lon="0">
        <time>2020-12-20T10:41:44.100000+00:00</time>
      </trkpt>
      <trkpt lat="0" lon="0">
        <time>2020-12-20T10:41:44.103000+00:00</time>
      </trkpt>
      <trkpt lat="47.31154" lon="-1.35341">
        <ele>82</ele>
        <time>2020-12-20T10:41:45.098000+00:00</time>
      </trkpt>
      <trkpt lat="0" lon="0">
        <time>2020-12-20T10:41:45.111000+00:00</time>
      </trkpt>
      <trkpt lat="0" lon="0">
        <time>2020-12-20T10:41:45.115000+00:00</time>
      </trkpt>
      <trkpt lat="0" lon="0">
        <time>2020-12-20T10:41:45.118000+00:00</time>
      </trkpt>
      <trkpt lat="47.31152" lon="-1.35343">
        <ele>82</ele>
        <time>2020-12-20T10:41:46.098000+00:00</time>
      </trkpt>
      <trkpt lat="0" lon="0">
        <time>2020-12-20T10:41:46.101000+00:00</time>
      </trkpt>
      <trkpt lat="0" lon="0">
        <time>2020-12-20T10:41:46.103000+00:00</time>
      </trkpt>
      <trkpt lat="0" lon="0">
        <time>2020-12-20T10:41:46.105000+00:00</time>
      </trkpt>
      <trkpt lat="47.3115" lon="-1.35346">
        <ele>83</ele>
        <time>2020-12-20T10:41:47.070000+00:00</time>
      </trkpt>
      <trkpt lat="0" lon="0">
        <time>2020-12-20T10:41:47.088000+00:00</time>
      </trkpt>
      <trkpt lat="0" lon="0">
        <time>2020-12-20T10:41:47.092000+00:00</time>
      </trkpt>
      <trkpt lat="0" lon="0">
        <time>2020-12-20T10:41:47.096000+00:00</time>
      </trkpt>
      <trkpt lat="47.31148" lon="-1.35349">
        <ele>84</ele>
        <time>2020-12-20T10:41:48.087000+00:00</time>
      </trkpt>
      <trkpt lat="0" lon="0">
        <time>2020-12-20T10:41:48.099000+00:00</time>
      </trkpt>
      <trkpt lat="0" lon="0">
        <time>2020-12-20T10:41:48.105000+00:00</time>
      </trkpt>
      <trkpt lat="0" lon="0">
        <time>2020-12-20T10:41:48.107000+00:00</time>
      </trkpt>
      <trkpt lat="47.31147" lon="-1.35352">
        <ele>85</ele>
        <time>2020-12-20T10:41:49.007000+00:00</time>
      </trkpt>
      <trkpt lat="0" lon="0">
        <time>2020-12-20T10:41:49.025000+00:00</time>
      </trkpt>
      <trkpt lat="0" lon="0">
        <time>2020-12-20T10:41:49.033000+00:00</time>
      </trkpt>
      <trkpt lat="0" lon="0">
        <time>2020-12-20T10:41:49.037000+00:00</time>
      </trkpt>
      <trkpt lat="47.31145" lon="-1.35355">
        <ele>86</ele>
        <time>2020-12-20T10:41:50.098000+00:00</time>
      </trkpt>
      <trkpt lat="0" lon="0">
        <time>2020-12-20T10:41:50.105000+00:00</time>
      </trkpt>
      <trkpt lat="0" lon="0">
        <time>2020-12-20T10:41:50.109000+00:00</time>
      </trkpt>
      <trkpt lat="0" lon="0">
        <time>2020-12-20T10:41:50.111000+00:00</time>
      </trkpt>
      <trkpt lat="47.31143" lon="-1.35358">
        <ele>86</ele>
        <time>2020-12-20T10:41:51.064000+00:00</time>
      </trkpt>
      <trkpt lat="0" lon="0">
        <time>2020-12-20T10:41:51.073000+00:00</time>
      </trkpt>
      <trkpt lat="0" lon="0">
        <time>2020-12-20T10:41:51.079000+00:00</time>
      </trkpt>
      <trkpt lat="0" lon="0">
        <time>2020-12-20T10:41:51.082000+00:00</time>
      </trkpt>
      <trkpt lat="47.3114" lon="-1.35362">
        <ele>87</ele>
        <time>2020-12-20T10:41:52.097000+00:00</time>
      </trkpt>
      <trkpt lat="0" lon="0">
        <time>2020-12-20T10:41:52.104000+00:00</time>
      </trkpt>
      <trkpt lat="0" lon="0">
        <time>2020-12-20T10:41:52.105000+00:00</time>
      </trkpt>
      <trkpt lat="0" lon="0">
        <time>2020-12-20T10:41:52.106000+00:00</time>
      </trkpt>
      <trkpt lat="47.31138" lon="-1.35365">
        <ele>88</ele>
        <time>2020-12-20T10:41:53.052000+00:00</time>
      </trkpt>
      <trkpt lat="0" lon="0">
        <time>2020-12-20T10:41:53.055000+00:00</time>
      </trkpt>
      <trkpt lat="0" lon="0">
        <time>2020-12-20T10:41:53.057000+00:00</time>
      </trkpt>
      <trkpt lat="0" lon="0">
        <time>2020-12-20T10:41:53.058000+00:00</time>
      </trkpt>
      <trkpt lat="47.31136" lon="-1.35369">
        <ele>89</ele>
        <time>2020-12-20T10:41:54.124000+00:00</time>
      </trkpt>
      <trkpt lat="0" lon="0">
        <time>2020-12-20T10:41:54.144000+00:00</time>
      </trkpt>
      <trkpt lat="0" lon="0">
        <time>2020-12-20T10:41:54.149000+00:00</time>
      </trkpt>
      <trkpt lat="0" lon="0">
        <time>2020-12-20T10:41:54.154000+00:00</time>
      </trkpt>
      <trkpt lat="47.31133" lon="-1.35372">
        <ele>90</ele>
        <time>2020-12-20T10:41:55.117000+00:00</time>
      </trkpt>
      <trkpt lat="0" lon="0">
        <time>2020-12-20T10:41:55.125000+00:00</time>
      </trkpt>
      <trkpt lat="0" lon="0">
        <time>2020-12-20T10:41:55.142000+00:00</time>
      </trkpt>
      <trkpt lat="0" lon="0">
        <time>2020-12-20T10:41:55.144000+00:00</time>
      </trkpt>
      <trkpt lat="47.3113" lon="-1.35376">
        <ele>91</ele>
        <time>2020-12-20T10:41:56.086000+00:00</time>
      </trkpt>
      <trkpt lat="0" lon="0">
        <time>2020-12-20T10:41:56.095000+00:00</time>
      </trkpt>
      <trkpt lat="0" lon="0">
        <time>2020-12-20T10:41:56.100000+00:00</time>
      </trkpt>
      <trkpt lat="0" lon="0">
        <time>2020-12-20T10:41:56.105000+00:00</time>
      </trkpt>
      <trkpt lat="47.31128" lon="-1.3538">
        <ele>92</ele>
        <time>2020-12-20T10:41:57.047000+00:00</time>
      </trkpt>
      <trkpt lat="0" lon="0">
        <time>2020-12-20T10:41:57.054000+00:00</time>
      </trkpt>
      <trkpt lat="0" lon="0">
        <time>2020-12-20T10:41:57.061000+00:00</time>
      </trkpt>
      <trkpt lat="0" lon="0">
        <time>2020-12-20T10:41:57.064000+00:00</time>
      </trkpt>
      <trkpt lat="47.31125" lon="-1.35383">
        <ele>92</ele>
        <time>2020-12-20T10:41:58.095000+00:00</time>
      </trkpt>
      <trkpt lat="0" lon="0">
        <time>2020-12-20T10:41:58.100000+00:00</time>
      </trkpt>
      <trkpt lat="0" lon="0">
        <time>2020-12-20T10:41:58.102000+00:00</time>
      </trkpt>
      <trkpt lat="0" lon="0">
        <time>2020-12-20T10:41:58.103000+00:00</time>
      </trkpt>
      <trkpt lat="47.31122" lon="-1.35387">
        <ele>93</ele>
        <time>2020-12-20T10:41:59.114000+00:00</time>
      </trkpt>
      <trkpt lat="0" lon="0">
        <time>2020-12-20T10:41:59.129000+00:00</time>
      </trkpt>
      <trkpt lat="0" lon="0">
        <time>2020-12-20T10:41:59.133000+00:00</time>
      </trkpt>
      <trkpt lat="0" lon="0">
        <time>2020-12-20T10:41:59.139000+00:00</time>
      </trkpt>
      <trkpt lat="47.31119" lon="-1.35392">
        <ele>93</ele>
        <time>2020-12-20T10:42:00.108000+00:00</time>
      </trkpt>
      <trkpt lat="0" lon="0">
        <time>2020-12-20T10:42:00.122000+00:00</time>
      </trkpt>
      <trkpt lat="0" lon="0">
        <time>2020-12-20T10:42:00.135000+00:00</time>
      </trkpt>
      <trkpt lat="0" lon="0">
        <time>2020-12-20T10:42:00.137000+00:00</time>
      </trkpt>
      <trkpt lat="47.31116" lon="-1.35396">
        <ele>93</ele>
        <time>2020-12-20T10:42:01.018000+00:00</time>
      </trkpt>
      <trkpt lat="0" lon="0">
        <time>2020-12-20T10:42:01.035000+00:00</time>
      </trkpt>
      <trkpt lat="0" lon="0">
        <time>2020-12-20T10:42:01.039000+00:00</time>
      </trkpt>
      <trkpt lat="0" lon="0">
        <time>2020-12-20T10:42:01.042000+00:00</time>
      </trkpt>
      <trkpt lat="47.31113" lon="-1.35401">
        <ele>93</ele>
        <time>2020-12-20T10:42:02.102000+00:00</time>
      </trkpt>
      <trkpt lat="0" lon="0">
        <time>2020-12-20T10:42:02.109000+00:00</time>
      </trkpt>
      <trkpt lat="0" lon="0">
        <time>2020-12-20T10:42:02.116000+00:00</time>
      </trkpt>
      <trkpt lat="0" lon="0">
        <time>2020-12-20T10:42:02.122000+00:00</time>
      </trkpt>
      <trkpt lat="47.31109" lon="-1.35405">
        <ele>93</ele>
        <time>2020-12-20T10:42:03.094000+00:00</time>
      </trkpt>
      <trkpt lat="0" lon="0">
        <time>2020-12-20T10:42:03.109000+00:00</time>
      </trkpt>
      <trkpt lat="0" lon="0">
        <time>2020-12-20T10:42:03.113000+00:00</time>
      </trkpt>
      <trkpt lat="0" lon="0">
        <time>2020-12-20T10:42:03.115000+00:00</time>
      </trkpt>
      <trkpt lat="47.31106" lon="-1.3541">
        <ele>94</ele>
        <time>2020-12-20T10:42:04.050000+00:00</time>
      </trkpt>
      <trkpt lat="0" lon="0">
        <time>2020-12-20T10:42:04.052000+00:00</time>
      </trkpt>
      <trkpt lat="0" lon="0">
        <time>2020-12-20T10:42:04.053000+00:00</time>
      </trkpt>
      <trkpt lat="0" lon="0">
        <time>2020-12-20T10:42:04.054000+00:00</time>
      </trkpt>
      <trkpt lat="47.31103" lon="-1.35415">
        <ele>94</ele>
        <time>2020-12-20T10:42:05.103000+00:00</time>
      </trkpt>
      <trkpt lat="0" lon="0">
        <time>2020-12-20T10:42:05.110000+00:00</time>
      </trkpt>
      <trkpt lat="0" lon="0">
        <time>2020-12-20T10:42:05.113000+00:00</time>
      </trkpt>
      <trkpt lat="0" lon="0">
        <time>2020-12-20T10:42:05.116000+00:00</time>
      </trkpt>
      <trkpt lat="47.311" lon="-1.3542">
        <ele>94</ele>
        <time>2020-12-20T10:42:06.057000+00:00</time>
      </trkpt>
      <trkpt lat="0" lon="0">
        <time>2020-12-20T10:42:06.071000+00:00</time>
      </trkpt>
      <trkpt lat="0" lon="0">
        <time>2020-12-20T10:42:06.075000+00:00</time>
      </trkpt>
      <trkpt lat="0" lon="0">
        <time>2020-12-20T10:42:06.081000+00:00</time>
      </trkpt>
      <trkpt lat="47.31096" lon="-1.35425">
        <ele>94</ele>
        <time>2020-12-20T10:42:07.062000+00:00</time>
      </trkpt>
      <trkpt lat="0" lon="0">
        <time>2020-12-20T10:42:07.076000+00:00</time>
      </trkpt>
      <trkpt lat="0" lon="0">
        <time>2020-12-20T10:42:07.081000+00:00</time>
      </trkpt>
      <trkpt lat="0" lon="0">
        <time>2020-12-20T10:42:07.091000+00:00</time>
      </trkpt>
      <trkpt lat="47.31093" lon="-1.3543">
        <ele>93</ele>
        <time>2020-12-20T10:42:08.035000+00:00</time>
      </trkpt>
      <trkpt lat="0" lon="0">
        <time>2020-12-20T10:42:08.043000+00:00</time>
      </trkpt>
      <trkpt lat="0" lon="0">
        <time>2020-12-20T10:42:08.050000+00:00</time>
      </trkpt>
      <trkpt lat="0" lon="0">
        <time>2020-12-20T10:42:08.055000+00:00</time>
      </trkpt>
      <trkpt lat="47.31089" lon="-1.35435">
        <ele>92</ele>
        <time>2020-12-20T10:42:09.077000+00:00</time>
      </trkpt>
      <trkpt lat="0" lon="0">
        <time>2020-12-20T10:42:09.084000+00:00</time>
      </trkpt>
      <trkpt lat="0" lon="0">
        <time>2020-12-20T10:42:09.090000+00:00</time>
      </trkpt>
      <trkpt lat="0" lon="0">
        <time>2020-12-20T10:42:09.101000+00:00</time>
      </trkpt>
      <trkpt lat="47.31084" lon="-1.3544">
        <ele>91</ele>
        <time>2020-12-20T10:42:10.071000+00:00</time>
      </trkpt>
      <trkpt lat="0" lon="0">
        <time>2020-12-20T10:42:10.076000+00:00</time>
      </trkpt>
      <trkpt lat="0" lon="0">
        <time>2020-12-20T10:42:10.077000+00:00</time>
      </trkpt>
      <trkpt lat="0" lon="0">
        <time>2020-12-20T10:42:10.078000+00:00</time>
      </trkpt>
      <trkpt lat="47.3108" lon="-1.35446">
        <ele>91</ele>
        <time>2020-12-20T10:42:11.065000+00:00</time>
      </trkpt>
      <trkpt lat="0" lon="0">
        <time>2020-12-20T10:42:11.074000+00:00</time>
      </trkpt>
      <trkpt lat="0" lon="0">
        <time>2020-12-20T10:42:11.079000+00:00</time>
      </trkpt>
      <trkpt lat="0" lon="0">
        <time>2020-12-20T10:42:11.081000+00:00</time>
      </trkpt>
      <trkpt lat="47.31075" lon="-1.35451">
        <ele>91</ele>
        <time>2020-12-20T10:42:12.094000+00:00</time>
      </trkpt>
      <trkpt lat="0" lon="0">
        <time>2020-12-20T10:42:12.103000+00:00</time>
      </trkpt>
      <trkpt lat="0" lon="0">
        <time>2020-12-20T10:42:12.108000+00:00</time>
      </trkpt>
      <trkpt lat="0" lon="0">
        <time>2020-12-20T10:42:12.110000+00:00</time>
      </trkpt>
      <trkpt lat="47.31071" lon="-1.35457">
        <ele>90</ele>
        <time>2020-12-20T10:42:13.065000+00:00</time>
      </trkpt>
      <trkpt lat="0" lon="0">
        <time>2020-12-20T10:42:13.077000+00:00</time>
      </trkpt>
      <trkpt lat="0" lon="0">
        <time>2020-12-20T10:42:13.081000+00:00</time>
      </trkpt>
      <trkpt lat="0" lon="0">
        <time>2020-12-20T10:42:13.085000+00:00</time>
      </trkpt>
      <trkpt lat="47.31067" lon="-1.35462">
        <ele>90</ele>
        <time>2020-12-20T10:42:14.105000+00:00</time>
      </trkpt>
      <trkpt lat="0" lon="0">
        <time>2020-12-20T10:42:14.111000+00:00</time>
      </trkpt>
      <trkpt lat="0" lon="0">
        <time>2020-12-20T10:42:14.127000+00:00</time>
      </trkpt>
      <trkpt lat="0" lon="0">
        <time>2020-12-20T10:42:14.129000+00:00</time>
      </trkpt>
      <trkpt lat="47.31062" lon="-1.35468">
        <ele>89</ele>
        <time>2020-12-20T10:42:15.041000+00:00</time>
      </trkpt>
      <trkpt lat="0" lon="0">
        <time>2020-12-20T10:42:15.050000+00:00</time>
      </trkpt>
      <trkpt lat="0" lon="0">
        <time>2020-12-20T10:42:15.058000+00:00</time>
      </trkpt>
      <trkpt lat="0" lon="0">
        <time>2020-12-20T10:42:15.063000+00:00</time>
      </trkpt>
      <trkpt lat="47.31058" lon="-1.35473">
        <ele>89</ele>
        <time>2020-12-20T10:42:16.091000+00:00</time>
      </trkpt>
      <trkpt lat="0" lon="0">
        <time>2020-12-20T10:42:16.106000+00:00</time>
      </trkpt>
      <trkpt lat="0" lon="0">
        <time>2020-12-20T10:42:16.111000+00:00</time>
      </trkpt>
      <trkpt lat="0" lon="0">
        <time>2020-12-20T10:42:16.114000+00:00</time>
      </trkpt>
      <trkpt lat="47.31054" lon="-1.35479">
        <ele>88</ele>
        <time>2020-12-20T10:42:17.047000+00:00</time>
      </trkpt>
      <trkpt lat="0" lon="0">
        <time>2020-12-20T10:42:17.057000+00:00</time>
      </trkpt>
      <trkpt lat="0" lon="0">
        <time>2020-12-20T10:42:17.065000+00:00</time>
      </trkpt>
      <trkpt lat="0" lon="0">
        <time>2020-12-20T10:42:17.067000+00:00</time>
      </trkpt>
      <trkpt lat="47.3105" lon="-1.35484">
        <ele>87</ele>
        <time>2020-12-20T10:42:18.078000+00:00</time>
      </trkpt>
      <trkpt lat="0" lon="0">
        <time>2020-12-20T10:42:18.097000+00:00</time>
      </trkpt>
      <trkpt lat="0" lon="0">
        <time>2020-12-20T10:42:18.104000+00:00</time>
      </trkpt>
      <trkpt lat="0" lon="0">
        <time>2020-12-20T10:42:18.112000+00:00</time>
      </trkpt>
      <trkpt lat="47.31046" lon="-1.3549">
        <ele>86</ele>
        <time>2020-12-20T10:42:18.949000+00:00</time>
      </trkpt>
      <trkpt lat="0" lon="0">
        <time>2020-12-20T10:42:18.952000+00:00</time>
      </trkpt>
      <trkpt lat="0" lon="0">
        <time>2020-12-20T10:42:18.954000+00:00</time>
      </trkpt>
      <trkpt lat="47.31041" lon="-1.35495">
        <ele>86</ele>
        <time>2020-12-20T10:42:20.005000+00:00</time>
      </trkpt>
      <trkpt lat="0" lon="0">
        <time>2020-12-20T10:42:20.013000+00:00</time>
      </trkpt>
      <trkpt lat="0" lon="0">
        <time>2020-12-20T10:42:20.015000+00:00</time>
      </trkpt>
      <trkpt lat="0" lon="0">
        <time>2020-12-20T10:42:20.016000+00:00</time>
      </trkpt>
      <trkpt lat="47.31037" lon="-1.355">
        <ele>85</ele>
        <time>2020-12-20T10:42:21.073000+00:00</time>
      </trkpt>
      <trkpt lat="0" lon="0">
        <time>2020-12-20T10:42:21.082000+00:00</time>
      </trkpt>
      <trkpt lat="0" lon="0">
        <time>2020-12-20T10:42:21.087000+00:00</time>
      </trkpt>
      <trkpt lat="0" lon="0">
        <time>2020-12-20T10:42:21.090000+00:00</time>
      </trkpt>
      <trkpt lat="47.31033" lon="-1.35505">
        <ele>84</ele>
        <time>2020-12-20T10:42:22.064000+00:00</time>
      </trkpt>
      <trkpt lat="0" lon="0">
        <time>2020-12-20T10:42:22.085000+00:00</time>
      </trkpt>
      <trkpt lat="0" lon="0">
        <time>2020-12-20T10:42:22.098000+00:00</time>
      </trkpt>
      <trkpt lat="0" lon="0">
        <time>2020-12-20T10:42:22.101000+00:00</time>
      </trkpt>
      <trkpt lat="47.31029" lon="-1.3551">
        <ele>84</ele>
        <time>2020-12-20T10:42:23.083000+00:00</time>
      </trkpt>
      <trkpt lat="0" lon="0">
        <time>2020-12-20T10:42:23.092000+00:00</time>
      </trkpt>
      <trkpt lat="0" lon="0">
        <time>2020-12-20T10:42:23.107000+00:00</time>
      </trkpt>
      <trkpt lat="0" lon="0">
        <time>2020-12-20T10:42:23.109000+00:00</time>
      </trkpt>
      <trkpt lat="47.31025" lon="-1.35514">
        <ele>84</ele>
        <time>2020-12-20T10:42:24.048000+00:00</time>
      </trkpt>
      <trkpt lat="0" lon="0">
        <time>2020-12-20T10:42:24.061000+00:00</time>
      </trkpt>
      <trkpt lat="0" lon="0">
        <time>2020-12-20T10:42:24.067000+00:00</time>
      </trkpt>
      <trkpt lat="0" lon="0">
        <time>2020-12-20T10:42:24.070000+00:00</time>
      </trkpt>
      <trkpt lat="47.31021" lon="-1.35519">
        <ele>83</ele>
        <time>2020-12-20T10:42:25.063000+00:00</time>
      </trkpt>
      <trkpt lat="0" lon="0">
        <time>2020-12-20T10:42:25.081000+00:00</time>
      </trkpt>
      <trkpt lat="0" lon="0">
        <time>2020-12-20T10:42:25.085000+00:00</time>
      </trkpt>
      <trkpt lat="0" lon="0">
        <time>2020-12-20T10:42:25.088000+00:00</time>
      </trkpt>
      <trkpt lat="47.31018" lon="-1.35523">
        <ele>83</ele>
        <time>2020-12-20T10:42:26.048000+00:00</time>
      </trkpt>
      <trkpt lat="0" lon="0">
        <time>2020-12-20T10:42:26.062000+00:00</time>
      </trkpt>
      <trkpt lat="0" lon="0">
        <time>2020-12-20T10:42:26.069000+00:00</time>
      </trkpt>
      <trkpt lat="0" lon="0">
        <time>2020-12-20T10:42:26.071000+00:00</time>
      </trkpt>
      <trkpt lat="47.31014" lon="-1.35528">
        <ele>83</ele>
        <time>2020-12-20T10:42:27.009000+00:00</time>
      </trkpt>
      <trkpt lat="0" lon="0">
        <time>2020-12-20T10:42:27.023000+00:00</time>
      </trkpt>
      <trkpt lat="0" lon="0">
        <time>2020-12-20T10:42:27.030000+00:00</time>
      </trkpt>
      <trkpt lat="0" lon="0">
        <time>2020-12-20T10:42:27.033000+00:00</time>
      </trkpt>
      <trkpt lat="47.3101" lon="-1.35532">
        <ele>83</ele>
        <time>2020-12-20T10:42:28.094000+00:00</time>
      </trkpt>
      <trkpt lat="0" lon="0">
        <time>2020-12-20T10:42:28.102000+00:00</time>
      </trkpt>
      <trkpt lat="0" lon="0">
        <time>2020-12-20T10:42:28.108000+00:00</time>
      </trkpt>
      <trkpt lat="0" lon="0">
        <time>2020-12-20T10:42:28.111000+00:00</time>
      </trkpt>
      <trkpt lat="47.31001" lon="-1.35542">
        <ele>82</ele>
        <time>2020-12-20T10:42:30.087000+00:00</time>
      </trkpt>
      <trkpt lat="0" lon="0">
        <time>2020-12-20T10:42:30.093000+00:00</time>
      </trkpt>
      <trkpt lat="0" lon="0">
        <time>2020-12-20T10:42:30.104000+00:00</time>
      </trkpt>
      <trkpt lat="0" lon="0">
        <time>2020-12-20T10:42:30.112000+00:00</time>
      </trkpt>
      <trkpt lat="47.30997" lon="-1.35547">
        <ele>81</ele>
        <time>2020-12-20T10:42:31.050000+00:00</time>
      </trkpt>
      <trkpt lat="0" lon="0">
        <time>2020-12-20T10:42:31.061000+00:00</time>
      </trkpt>
      <trkpt lat="0" lon="0">
        <time>2020-12-20T10:42:31.066000+00:00</time>
      </trkpt>
      <trkpt lat="0" lon="0">
        <time>2020-12-20T10:42:31.068000+00:00</time>
      </trkpt>
      <trkpt lat="47.30993" lon="-1.35551">
        <ele>81</ele>
        <time>2020-12-20T10:42:32.058000+00:00</time>
      </trkpt>
      <trkpt lat="0" lon="0">
        <time>2020-12-20T10:42:32.069000+00:00</time>
      </trkpt>
      <trkpt lat="0" lon="0">
        <time>2020-12-20T10:42:32.083000+00:00</time>
      </trkpt>
      <trkpt lat="0" lon="0">
        <time>2020-12-20T10:42:32.086000+00:00</time>
      </trkpt>
      <trkpt lat="47.30989" lon="-1.35556">
        <ele>80</ele>
        <time>2020-12-20T10:42:33.072000+00:00</time>
      </trkpt>
      <trkpt lat="0" lon="0">
        <time>2020-12-20T10:42:33.082000+00:00</time>
      </trkpt>
      <trkpt lat="0" lon="0">
        <time>2020-12-20T10:42:33.088000+00:00</time>
      </trkpt>
      <trkpt lat="0" lon="0">
        <time>2020-12-20T10:42:33.091000+00:00</time>
      </trkpt>
      <trkpt lat="47.30985" lon="-1.35561">
        <ele>80</ele>
        <time>2020-12-20T10:42:34.119000+00:00</time>
      </trkpt>
      <trkpt lat="0" lon="0">
        <time>2020-12-20T10:42:34.133000+00:00</time>
      </trkpt>
      <trkpt lat="0" lon="0">
        <time>2020-12-20T10:42:34.139000+00:00</time>
      </trkpt>
      <trkpt lat="0" lon="0">
        <time>2020-12-20T10:42:34.143000+00:00</time>
      </trkpt>
      <trkpt lat="47.30981" lon="-1.35566">
        <ele>79</ele>
        <time>2020-12-20T10:42:35.079000+00:00</time>
      </trkpt>
      <trkpt lat="0" lon="0">
        <time>2020-12-20T10:42:35.085000+00:00</time>
      </trkpt>
      <trkpt lat="0" lon="0">
        <time>2020-12-20T10:42:35.092000+00:00</time>
      </trkpt>
      <trkpt lat="0" lon="0">
        <time>2020-12-20T10:42:35.095000+00:00</time>
      </trkpt>
      <trkpt lat="47.30976" lon="-1.35571">
        <ele>79</ele>
        <time>2020-12-20T10:42:36.098000+00:00</time>
      </trkpt>
      <trkpt lat="0" lon="0">
        <time>2020-12-20T10:42:36.113000+00:00</time>
      </trkpt>
      <trkpt lat="0" lon="0">
        <time>2020-12-20T10:42:36.119000+00:00</time>
      </trkpt>
      <trkpt lat="0" lon="0">
        <time>2020-12-20T10:42:36.125000+00:00</time>
      </trkpt>
      <trkpt lat="47.30972" lon="-1.35576">
        <ele>79</ele>
        <time>2020-12-20T10:42:37.055000+00:00</time>
      </trkpt>
      <trkpt lat="0" lon="0">
        <time>2020-12-20T10:42:37.063000+00:00</time>
      </trkpt>
      <trkpt lat="0" lon="0">
        <time>2020-12-20T10:42:37.072000+00:00</time>
      </trkpt>
      <trkpt lat="0" lon="0">
        <time>2020-12-20T10:42:37.075000+00:00</time>
      </trkpt>
      <trkpt lat="47.30968" lon="-1.3558">
        <ele>79</ele>
        <time>2020-12-20T10:42:38.097000+00:00</time>
      </trkpt>
      <trkpt lat="0" lon="0">
        <time>2020-12-20T10:42:38.109000+00:00</time>
      </trkpt>
      <trkpt lat="0" lon="0">
        <time>2020-12-20T10:42:38.114000+00:00</time>
      </trkpt>
      <trkpt lat="0" lon="0">
        <time>2020-12-20T10:42:38.116000+00:00</time>
      </trkpt>
      <trkpt lat="47.30964" lon="-1.35585">
        <ele>79</ele>
        <time>2020-12-20T10:42:39.062000+00:00</time>
      </trkpt>
      <trkpt lat="0" lon="0">
        <time>2020-12-20T10:42:39.075000+00:00</time>
      </trkpt>
      <trkpt lat="0" lon="0">
        <time>2020-12-20T10:42:39.079000+00:00</time>
      </trkpt>
      <trkpt lat="0" lon="0">
        <time>2020-12-20T10:42:39.081000+00:00</time>
      </trkpt>
      <trkpt lat="47.3096" lon="-1.35589">
        <ele>79</ele>
        <time>2020-12-20T10:42:40.078000+00:00</time>
      </trkpt>
      <trkpt lat="0" lon="0">
        <time>2020-12-20T10:42:40.086000+00:00</time>
      </trkpt>
      <trkpt lat="0" lon="0">
        <time>2020-12-20T10:42:40.091000+00:00</time>
      </trkpt>
      <trkpt lat="0" lon="0">
        <time>2020-12-20T10:42:40.094000+00:00</time>
      </trkpt>
      <trkpt lat="47.30956" lon="-1.35594">
        <ele>78</ele>
        <time>2020-12-20T10:42:41.073000+00:00</time>
      </trkpt>
      <trkpt lat="0" lon="0">
        <time>2020-12-20T10:42:41.084000+00:00</time>
      </trkpt>
      <trkpt lat="0" lon="0">
        <time>2020-12-20T10:42:41.090000+00:00</time>
      </trkpt>
      <trkpt lat="0" lon="0">
        <time>2020-12-20T10:42:41.093000+00:00</time>
      </trkpt>
      <trkpt lat="47.30952" lon="-1.35598">
        <ele>79</ele>
        <time>2020-12-20T10:42:42.058000+00:00</time>
      </trkpt>
      <trkpt lat="0" lon="0">
        <time>2020-12-20T10:42:42.073000+00:00</time>
      </trkpt>
      <trkpt lat="0" lon="0">
        <time>2020-12-20T10:42:42.083000+00:00</time>
      </trkpt>
      <trkpt lat="0" lon="0">
        <time>2020-12-20T10:42:42.086000+00:00</time>
      </trkpt>
      <trkpt lat="47.30948" lon="-1.35603">
        <ele>78</ele>
        <time>2020-12-20T10:42:43.059000+00:00</time>
      </trkpt>
      <trkpt lat="0" lon="0">
        <time>2020-12-20T10:42:43.067000+00:00</time>
      </trkpt>
      <trkpt lat="0" lon="0">
        <time>2020-12-20T10:42:43.079000+00:00</time>
      </trkpt>
      <trkpt lat="0" lon="0">
        <time>2020-12-20T10:42:43.082000+00:00</time>
      </trkpt>
      <trkpt lat="47.30944" lon="-1.35607">
        <ele>78</ele>
        <time>2020-12-20T10:42:44.019000+00:00</time>
      </trkpt>
      <trkpt lat="0" lon="0">
        <time>2020-12-20T10:42:44.029000+00:00</time>
      </trkpt>
      <trkpt lat="0" lon="0">
        <time>2020-12-20T10:42:44.041000+00:00</time>
      </trkpt>
      <trkpt lat="0" lon="0">
        <time>2020-12-20T10:42:44.043000+00:00</time>
      </trkpt>
      <trkpt lat="47.3094" lon="-1.35611">
        <ele>77</ele>
        <time>2020-12-20T10:42:45.064000+00:00</time>
      </trkpt>
      <trkpt lat="0" lon="0">
        <time>2020-12-20T10:42:45.073000+00:00</time>
      </trkpt>
      <trkpt lat="0" lon="0">
        <time>2020-12-20T10:42:45.082000+00:00</time>
      </trkpt>
      <trkpt lat="0" lon="0">
        <time>2020-12-20T10:42:45.085000+00:00</time>
      </trkpt>
      <trkpt lat="47.30936" lon="-1.35615">
        <ele>77</ele>
        <time>2020-12-20T10:42:46.054000+00:00</time>
      </trkpt>
      <trkpt lat="0" lon="0">
        <time>2020-12-20T10:42:46.071000+00:00</time>
      </trkpt>
      <trkpt lat="0" lon="0">
        <time>2020-12-20T10:42:46.082000+00:00</time>
      </trkpt>
      <trkpt lat="0" lon="0">
        <time>2020-12-20T10:42:46.083000+00:00</time>
      </trkpt>
      <trkpt lat="47.30933" lon="-1.35619">
        <ele>77</ele>
        <time>2020-12-20T10:42:47.048000+00:00</time>
      </trkpt>
      <trkpt lat="0" lon="0">
        <time>2020-12-20T10:42:47.059000+00:00</time>
      </trkpt>
      <trkpt lat="0" lon="0">
        <time>2020-12-20T10:42:47.067000+00:00</time>
      </trkpt>
      <trkpt lat="0" lon="0">
        <time>2020-12-20T10:42:47.069000+00:00</time>
      </trkpt>
      <trkpt lat="47.30929" lon="-1.35623">
        <ele>76</ele>
        <time>2020-12-20T10:42:48.094000+00:00</time>
      </trkpt>
      <trkpt lat="0" lon="0">
        <time>2020-12-20T10:42:48.112000+00:00</time>
      </trkpt>
      <trkpt lat="0" lon="0">
        <time>2020-12-20T10:42:48.123000+00:00</time>
      </trkpt>
      <trkpt lat="0" lon="0">
        <time>2020-12-20T10:42:48.126000+00:00</time>
      </trkpt>
      <trkpt lat="47.30926" lon="-1.35627">
        <ele>76</ele>
        <time>2020-12-20T10:42:49.063000+00:00</time>
      </trkpt>
      <trkpt lat="0" lon="0">
        <time>2020-12-20T10:42:49.072000+00:00</time>
      </trkpt>
      <trkpt lat="0" lon="0">
        <time>2020-12-20T10:42:49.084000+00:00</time>
      </trkpt>
      <trkpt lat="0" lon="0">
        <time>2020-12-20T10:42:49.085000+00:00</time>
      </trkpt>
      <trkpt lat="47.30922" lon="-1.35631">
        <ele>77</ele>
        <time>2020-12-20T10:42:50.038000+00:00</time>
      </trkpt>
      <trkpt lat="0" lon="0">
        <time>2020-12-20T10:42:50.047000+00:00</time>
      </trkpt>
      <trkpt lat="0" lon="0">
        <time>2020-12-20T10:42:50.051000+00:00</time>
      </trkpt>
      <trkpt lat="0" lon="0">
        <time>2020-12-20T10:42:50.055000+00:00</time>
      </trkpt>
      <trkpt lat="47.30919" lon="-1.35635">
        <ele>76</ele>
        <time>2020-12-20T10:42:51.071000+00:00</time>
      </trkpt>
      <trkpt lat="0" lon="0">
        <time>2020-12-20T10:42:51.089000+00:00</time>
      </trkpt>
      <trkpt lat="0" lon="0">
        <time>2020-12-20T10:42:51.101000+00:00</time>
      </trkpt>
      <trkpt lat="0" lon="0">
        <time>2020-12-20T10:42:51.102000+00:00</time>
      </trkpt>
      <trkpt lat="47.30916" lon="-1.35639">
        <ele>76</ele>
        <time>2020-12-20T10:42:52.107000+00:00</time>
      </trkpt>
      <trkpt lat="0" lon="0">
        <time>2020-12-20T10:42:52.113000+00:00</time>
      </trkpt>
      <trkpt lat="0" lon="0">
        <time>2020-12-20T10:42:52.118000+00:00</time>
      </trkpt>
      <trkpt lat="0" lon="0">
        <time>2020-12-20T10:42:52.122000+00:00</time>
      </trkpt>
      <trkpt lat="47.30913" lon="-1.35643">
        <ele>76</ele>
        <time>2020-12-20T10:42:53.110000+00:00</time>
      </trkpt>
      <trkpt lat="0" lon="0">
        <time>2020-12-20T10:42:53.124000+00:00</time>
      </trkpt>
      <trkpt lat="0" lon="0">
        <time>2020-12-20T10:42:53.130000+00:00</time>
      </trkpt>
      <trkpt lat="0" lon="0">
        <time>2020-12-20T10:42:53.132000+00:00</time>
      </trkpt>
      <trkpt lat="47.3091" lon="-1.35647">
        <ele>76</ele>
        <time>2020-12-20T10:42:54.110000+00:00</time>
      </trkpt>
      <trkpt lat="0" lon="0">
        <time>2020-12-20T10:42:54.117000+00:00</time>
      </trkpt>
      <trkpt lat="0" lon="0">
        <time>2020-12-20T10:42:54.122000+00:00</time>
      </trkpt>
      <trkpt lat="0" lon="0">
        <time>2020-12-20T10:42:54.125000+00:00</time>
      </trkpt>
      <trkpt lat="47.30907" lon="-1.35651">
        <ele>76</ele>
        <time>2020-12-20T10:42:55.103000+00:00</time>
      </trkpt>
      <trkpt lat="0" lon="0">
        <time>2020-12-20T10:42:55.114000+00:00</time>
      </trkpt>
      <trkpt lat="0" lon="0">
        <time>2020-12-20T10:42:55.120000+00:00</time>
      </trkpt>
      <trkpt lat="0" lon="0">
        <time>2020-12-20T10:42:55.123000+00:00</time>
      </trkpt>
      <trkpt lat="47.30904" lon="-1.35656">
        <ele>75</ele>
        <time>2020-12-20T10:42:56.069000+00:00</time>
      </trkpt>
      <trkpt lat="0" lon="0">
        <time>2020-12-20T10:42:56.072000+00:00</time>
      </trkpt>
      <trkpt lat="0" lon="0">
        <time>2020-12-20T10:42:56.074000+00:00</time>
      </trkpt>
      <trkpt lat="0" lon="0">
        <time>2020-12-20T10:42:56.076000+00:00</time>
      </trkpt>
      <trkpt lat="47.309" lon="-1.3566">
        <ele>75</ele>
        <time>2020-12-20T10:42:57.070000+00:00</time>
      </trkpt>
      <trkpt lat="0" lon="0">
        <time>2020-12-20T10:42:57.080000+00:00</time>
      </trkpt>
      <trkpt lat="0" lon="0">
        <time>2020-12-20T10:42:57.087000+00:00</time>
      </trkpt>
      <trkpt lat="0" lon="0">
        <time>2020-12-20T10:42:57.091000+00:00</time>
      </trkpt>
      <trkpt lat="47.30897" lon="-1.35664">
        <ele>75</ele>
        <time>2020-12-20T10:42:58.066000+00:00</time>
      </trkpt>
      <trkpt lat="0" lon="0">
        <time>2020-12-20T10:42:58.077000+00:00</time>
      </trkpt>
      <trkpt lat="0" lon="0">
        <time>2020-12-20T10:42:58.083000+00:00</time>
      </trkpt>
      <trkpt lat="0" lon="0">
        <time>2020-12-20T10:42:58.087000+00:00</time>
      </trkpt>
      <trkpt lat="47.30893" lon="-1.35669">
        <ele>75</ele>
        <time>2020-12-20T10:42:59.084000+00:00</time>
      </trkpt>
      <trkpt lat="0" lon="0">
        <time>2020-12-20T10:42:59.092000+00:00</time>
      </trkpt>
      <trkpt lat="0" lon="0">
        <time>2020-12-20T10:42:59.102000+00:00</time>
      </trkpt>
      <trkpt lat="0" lon="0">
        <time>2020-12-20T10:42:59.105000+00:00</time>
      </trkpt>
      <trkpt lat="47.30889" lon="-1.35673">
        <ele>74</ele>
        <time>2020-12-20T10:43:00.045000+00:00</time>
      </trkpt>
      <trkpt lat="0" lon="0">
        <time>2020-12-20T10:43:00.061000+00:00</time>
      </trkpt>
      <trkpt lat="0" lon="0">
        <time>2020-12-20T10:43:00.067000+00:00</time>
      </trkpt>
      <trkpt lat="0" lon="0">
        <time>2020-12-20T10:43:00.070000+00:00</time>
      </trkpt>
      <trkpt lat="47.30886" lon="-1.35678">
        <ele>74</ele>
        <time>2020-12-20T10:43:01.101000+00:00</time>
      </trkpt>
      <trkpt lat="0" lon="0">
        <time>2020-12-20T10:43:01.116000+00:00</time>
      </trkpt>
      <trkpt lat="0" lon="0">
        <time>2020-12-20T10:43:01.124000+00:00</time>
      </trkpt>
      <trkpt lat="0" lon="0">
        <time>2020-12-20T10:43:01.126000+00:00</time>
      </trkpt>
      <trkpt lat="47.30882" lon="-1.35682">
        <ele>73</ele>
        <time>2020-12-20T10:43:02.059000+00:00</time>
      </trkpt>
      <trkpt lat="0" lon="0">
        <time>2020-12-20T10:43:02.084000+00:00</time>
      </trkpt>
      <trkpt lat="0" lon="0">
        <time>2020-12-20T10:43:02.091000+00:00</time>
      </trkpt>
      <trkpt lat="0" lon="0">
        <time>2020-12-20T10:43:02.092000+00:00</time>
      </trkpt>
      <trkpt lat="47.30878" lon="-1.35687">
        <ele>73</ele>
        <time>2020-12-20T10:43:03.078000+00:00</time>
      </trkpt>
      <trkpt lat="0" lon="0">
        <time>2020-12-20T10:43:03.080000+00:00</time>
      </trkpt>
      <trkpt lat="0" lon="0">
        <time>2020-12-20T10:43:03.081000+00:00</time>
      </trkpt>
      <trkpt lat="0" lon="0">
        <time>2020-12-20T10:43:03.082000+00:00</time>
      </trkpt>
      <trkpt lat="47.30874" lon="-1.35692">
        <ele>73</ele>
        <time>2020-12-20T10:43:04.077000+00:00</time>
      </trkpt>
      <trkpt lat="0" lon="0">
        <time>2020-12-20T10:43:04.109000+00:00</time>
      </trkpt>
      <trkpt lat="0" lon="0">
        <time>2020-12-20T10:43:04.117000+00:00</time>
      </trkpt>
      <trkpt lat="0" lon="0">
        <time>2020-12-20T10:43:04.119000+00:00</time>
      </trkpt>
      <trkpt lat="47.30871" lon="-1.35696">
        <ele>72</ele>
        <time>2020-12-20T10:43:05.069000+00:00</time>
      </trkpt>
      <trkpt lat="0" lon="0">
        <time>2020-12-20T10:43:05.080000+00:00</time>
      </trkpt>
      <trkpt lat="0" lon="0">
        <time>2020-12-20T10:43:05.084000+00:00</time>
      </trkpt>
      <trkpt lat="0" lon="0">
        <time>2020-12-20T10:43:05.086000+00:00</time>
      </trkpt>
      <trkpt lat="47.30867" lon="-1.35701">
        <ele>72</ele>
        <time>2020-12-20T10:43:06.060000+00:00</time>
      </trkpt>
      <trkpt lat="0" lon="0">
        <time>2020-12-20T10:43:06.068000+00:00</time>
      </trkpt>
      <trkpt lat="0" lon="0">
        <time>2020-12-20T10:43:06.073000+00:00</time>
      </trkpt>
      <trkpt lat="0" lon="0">
        <time>2020-12-20T10:43:06.076000+00:00</time>
      </trkpt>
      <trkpt lat="47.30863" lon="-1.35705">
        <ele>72</ele>
        <time>2020-12-20T10:43:07.075000+00:00</time>
      </trkpt>
      <trkpt lat="0" lon="0">
        <time>2020-12-20T10:43:07.086000+00:00</time>
      </trkpt>
      <trkpt lat="0" lon="0">
        <time>2020-12-20T10:43:07.092000+00:00</time>
      </trkpt>
      <trkpt lat="0" lon="0">
        <time>2020-12-20T10:43:07.096000+00:00</time>
      </trkpt>
      <trkpt lat="47.30859" lon="-1.35709">
        <ele>72</ele>
        <time>2020-12-20T10:43:08.071000+00:00</time>
      </trkpt>
      <trkpt lat="0" lon="0">
        <time>2020-12-20T10:43:08.080000+00:00</time>
      </trkpt>
      <trkpt lat="0" lon="0">
        <time>2020-12-20T10:43:08.089000+00:00</time>
      </trkpt>
      <trkpt lat="0" lon="0">
        <time>2020-12-20T10:43:08.091000+00:00</time>
      </trkpt>
      <trkpt lat="47.30855" lon="-1.35713">
        <ele>72</ele>
        <time>2020-12-20T10:43:09.062000+00:00</time>
      </trkpt>
      <trkpt lat="0" lon="0">
        <time>2020-12-20T10:43:09.091000+00:00</time>
      </trkpt>
      <trkpt lat="0" lon="0">
        <time>2020-12-20T10:43:09.097000+00:00</time>
      </trkpt>
      <trkpt lat="0" lon="0">
        <time>2020-12-20T10:43:09.098000+00:00</time>
      </trkpt>
      <trkpt lat="47.30851" lon="-1.35718">
        <ele>72</ele>
        <time>2020-12-20T10:43:10.077000+00:00</time>
      </trkpt>
      <trkpt lat="0" lon="0">
        <time>2020-12-20T10:43:10.089000+00:00</time>
      </trkpt>
      <trkpt lat="0" lon="0">
        <time>2020-12-20T10:43:10.096000+00:00</time>
      </trkpt>
      <trkpt lat="0" lon="0">
        <time>2020-12-20T10:43:10.098000+00:00</time>
      </trkpt>
      <trkpt lat="47.30847" lon="-1.35722">
        <ele>71</ele>
        <time>2020-12-20T10:43:11.055000+00:00</time>
      </trkpt>
      <trkpt lat="0" lon="0">
        <time>2020-12-20T10:43:11.073000+00:00</time>
      </trkpt>
      <trkpt lat="0" lon="0">
        <time>2020-12-20T10:43:11.081000+00:00</time>
      </trkpt>
      <trkpt lat="0" lon="0">
        <time>2020-12-20T10:43:11.083000+00:00</time>
      </trkpt>
      <trkpt lat="47.30843" lon="-1.35726">
        <ele>71</ele>
        <time>2020-12-20T10:43:12.058000+00:00</time>
      </trkpt>
      <trkpt lat="0" lon="0">
        <time>2020-12-20T10:43:12.072000+00:00</time>
      </trkpt>
      <trkpt lat="0" lon="0">
        <time>2020-12-20T10:43:12.076000+00:00</time>
      </trkpt>
      <trkpt lat="0" lon="0">
        <time>2020-12-20T10:43:12.078000+00:00</time>
      </trkpt>
      <trkpt lat="47.30839" lon="-1.35731">
        <ele>70</ele>
        <time>2020-12-20T10:43:13.050000+00:00</time>
      </trkpt>
      <trkpt lat="0" lon="0">
        <time>2020-12-20T10:43:13.057000+00:00</time>
      </trkpt>
      <trkpt lat="0" lon="0">
        <time>2020-12-20T10:43:13.062000+00:00</time>
      </trkpt>
      <trkpt lat="0" lon="0">
        <time>2020-12-20T10:43:13.068000+00:00</time>
      </trkpt>
      <trkpt lat="47.30835" lon="-1.35735">
        <ele>70</ele>
        <time>2020-12-20T10:43:14.068000+00:00</time>
      </trkpt>
      <trkpt lat="0" lon="0">
        <time>2020-12-20T10:43:14.081000+00:00</time>
      </trkpt>
      <trkpt lat="0" lon="0">
        <time>2020-12-20T10:43:14.086000+00:00</time>
      </trkpt>
      <trkpt lat="0" lon="0">
        <time>2020-12-20T10:43:14.088000+00:00</time>
      </trkpt>
      <trkpt lat="47.30831" lon="-1.3574">
        <ele>70</ele>
        <time>2020-12-20T10:43:15.039000+00:00</time>
      </trkpt>
      <trkpt lat="0" lon="0">
        <time>2020-12-20T10:43:15.046000+00:00</time>
      </trkpt>
      <trkpt lat="0" lon="0">
        <time>2020-12-20T10:43:15.050000+00:00</time>
      </trkpt>
      <trkpt lat="0" lon="0">
        <time>2020-12-20T10:43:15.053000+00:00</time>
      </trkpt>
      <trkpt lat="47.30828" lon="-1.35745">
        <ele>70</ele>
        <time>2020-12-20T10:43:16.045000+00:00</time>
      </trkpt>
      <trkpt lat="0" lon="0">
        <time>2020-12-20T10:43:16.057000+00:00</time>
      </trkpt>
      <trkpt lat="0" lon="0">
        <time>2020-12-20T10:43:16.066000+00:00</time>
      </trkpt>
      <trkpt lat="0" lon="0">
        <time>2020-12-20T10:43:16.068000+00:00</time>
      </trkpt>
      <trkpt lat="47.30824" lon="-1.35749">
        <ele>70</ele>
        <time>2020-12-20T10:43:17.080000+00:00</time>
      </trkpt>
      <trkpt lat="0" lon="0">
        <time>2020-12-20T10:43:17.091000+00:00</time>
      </trkpt>
      <trkpt lat="0" lon="0">
        <time>2020-12-20T10:43:17.100000+00:00</time>
      </trkpt>
      <trkpt lat="0" lon="0">
        <time>2020-12-20T10:43:17.103000+00:00</time>
      </trkpt>
      <trkpt lat="47.3082" lon="-1.35754">
        <ele>70</ele>
        <time>2020-12-20T10:43:18.070000+00:00</time>
      </trkpt>
      <trkpt lat="0" lon="0">
        <time>2020-12-20T10:43:18.080000+00:00</time>
      </trkpt>
      <trkpt lat="0" lon="0">
        <time>2020-12-20T10:43:18.089000+00:00</time>
      </trkpt>
      <trkpt lat="0" lon="0">
        <time>2020-12-20T10:43:18.092000+00:00</time>
      </trkpt>
      <trkpt lat="47.30817" lon="-1.35758">
        <ele>69</ele>
        <time>2020-12-20T10:43:19.041000+00:00</time>
      </trkpt>
      <trkpt lat="0" lon="0">
        <time>2020-12-20T10:43:19.045000+00:00</time>
      </trkpt>
      <trkpt lat="0" lon="0">
        <time>2020-12-20T10:43:19.047000+00:00</time>
      </trkpt>
      <trkpt lat="0" lon="0">
        <time>2020-12-20T10:43:19.049000+00:00</time>
      </trkpt>
      <trkpt lat="47.30813" lon="-1.35763">
        <ele>69</ele>
        <time>2020-12-20T10:43:20.049000+00:00</time>
      </trkpt>
      <trkpt lat="0" lon="0">
        <time>2020-12-20T10:43:20.058000+00:00</time>
      </trkpt>
      <trkpt lat="0" lon="0">
        <time>2020-12-20T10:43:20.062000+00:00</time>
      </trkpt>
      <trkpt lat="0" lon="0">
        <time>2020-12-20T10:43:20.064000+00:00</time>
      </trkpt>
      <trkpt lat="47.30809" lon="-1.35768">
        <ele>69</ele>
        <time>2020-12-20T10:43:21.081000+00:00</time>
      </trkpt>
      <trkpt lat="0" lon="0">
        <time>2020-12-20T10:43:21.094000+00:00</time>
      </trkpt>
      <trkpt lat="0" lon="0">
        <time>2020-12-20T10:43:21.099000+00:00</time>
      </trkpt>
      <trkpt lat="0" lon="0">
        <time>2020-12-20T10:43:21.102000+00:00</time>
      </trkpt>
      <trkpt lat="47.30806" lon="-1.35772">
        <ele>69</ele>
        <time>2020-12-20T10:43:22.045000+00:00</time>
      </trkpt>
      <trkpt lat="0" lon="0">
        <time>2020-12-20T10:43:22.056000+00:00</time>
      </trkpt>
      <trkpt lat="0" lon="0">
        <time>2020-12-20T10:43:22.062000+00:00</time>
      </trkpt>
      <trkpt lat="0" lon="0">
        <time>2020-12-20T10:43:22.065000+00:00</time>
      </trkpt>
      <trkpt lat="47.30802" lon="-1.35776">
        <ele>68</ele>
        <time>2020-12-20T10:43:23.072000+00:00</time>
      </trkpt>
      <trkpt lat="0" lon="0">
        <time>2020-12-20T10:43:23.092000+00:00</time>
      </trkpt>
      <trkpt lat="0" lon="0">
        <time>2020-12-20T10:43:23.099000+00:00</time>
      </trkpt>
      <trkpt lat="0" lon="0">
        <time>2020-12-20T10:43:23.105000+00:00</time>
      </trkpt>
      <trkpt lat="47.30799" lon="-1.35781">
        <ele>69</ele>
        <time>2020-12-20T10:43:24.112000+00:00</time>
      </trkpt>
      <trkpt lat="0" lon="0">
        <time>2020-12-20T10:43:24.123000+00:00</time>
      </trkpt>
      <trkpt lat="0" lon="0">
        <time>2020-12-20T10:43:24.135000+00:00</time>
      </trkpt>
      <trkpt lat="0" lon="0">
        <time>2020-12-20T10:43:24.138000+00:00</time>
      </trkpt>
      <trkpt lat="47.30795" lon="-1.35785">
        <ele>68</ele>
        <time>2020-12-20T10:43:25.082000+00:00</time>
      </trkpt>
      <trkpt lat="0" lon="0">
        <time>2020-12-20T10:43:25.084000+00:00</time>
      </trkpt>
      <trkpt lat="0" lon="0">
        <time>2020-12-20T10:43:25.086000+00:00</time>
      </trkpt>
      <trkpt lat="0" lon="0">
        <time>2020-12-20T10:43:25.091000+00:00</time>
      </trkpt>
      <trkpt lat="47.30792" lon="-1.35789">
        <ele>69</ele>
        <time>2020-12-20T10:43:26.089000+00:00</time>
      </trkpt>
      <trkpt lat="0" lon="0">
        <time>2020-12-20T10:43:26.098000+00:00</time>
      </trkpt>
      <trkpt lat="0" lon="0">
        <time>2020-12-20T10:43:26.108000+00:00</time>
      </trkpt>
      <trkpt lat="0" lon="0">
        <time>2020-12-20T10:43:26.113000+00:00</time>
      </trkpt>
      <trkpt lat="47.3079" lon="-1.35793">
        <ele>69</ele>
        <time>2020-12-20T10:43:27.004000+00:00</time>
      </trkpt>
      <trkpt lat="0" lon="0">
        <time>2020-12-20T10:43:27.017000+00:00</time>
      </trkpt>
      <trkpt lat="0" lon="0">
        <time>2020-12-20T10:43:27.023000+00:00</time>
      </trkpt>
      <trkpt lat="0" lon="0">
        <time>2020-12-20T10:43:27.025000+00:00</time>
      </trkpt>
      <trkpt lat="47.30787" lon="-1.35798">
        <ele>69</ele>
        <time>2020-12-20T10:43:28.055000+00:00</time>
      </trkpt>
      <trkpt lat="0" lon="0">
        <time>2020-12-20T10:43:28.069000+00:00</time>
      </trkpt>
      <trkpt lat="0" lon="0">
        <time>2020-12-20T10:43:28.078000+00:00</time>
      </trkpt>
      <trkpt lat="0" lon="0">
        <time>2020-12-20T10:43:28.081000+00:00</time>
      </trkpt>
      <trkpt lat="47.30784" lon="-1.35802">
        <ele>69</ele>
        <time>2020-12-20T10:43:29.078000+00:00</time>
      </trkpt>
      <trkpt lat="0" lon="0">
        <time>2020-12-20T10:43:29.086000+00:00</time>
      </trkpt>
      <trkpt lat="0" lon="0">
        <time>2020-12-20T10:43:29.089000+00:00</time>
      </trkpt>
      <trkpt lat="0" lon="0">
        <time>2020-12-20T10:43:29.092000+00:00</time>
      </trkpt>
      <trkpt lat="47.30781" lon="-1.35806">
        <ele>69</ele>
        <time>2020-12-20T10:43:30.098000+00:00</time>
      </trkpt>
      <trkpt lat="0" lon="0">
        <time>2020-12-20T10:43:30.112000+00:00</time>
      </trkpt>
      <trkpt lat="0" lon="0">
        <time>2020-12-20T10:43:30.116000+00:00</time>
      </trkpt>
      <trkpt lat="0" lon="0">
        <time>2020-12-20T10:43:30.119000+00:00</time>
      </trkpt>
      <trkpt lat="47.30778" lon="-1.3581">
        <ele>69</ele>
        <time>2020-12-20T10:43:31.063000+00:00</time>
      </trkpt>
      <trkpt lat="0" lon="0">
        <time>2020-12-20T10:43:31.074000+00:00</time>
      </trkpt>
      <trkpt lat="0" lon="0">
        <time>2020-12-20T10:43:31.083000+00:00</time>
      </trkpt>
      <trkpt lat="0" lon="0">
        <time>2020-12-20T10:43:31.089000+00:00</time>
      </trkpt>
      <trkpt lat="47.30775" lon="-1.35815">
        <ele>69</ele>
        <time>2020-12-20T10:43:32.071000+00:00</time>
      </trkpt>
      <trkpt lat="0" lon="0">
        <time>2020-12-20T10:43:32.078000+00:00</time>
      </trkpt>
      <trkpt lat="0" lon="0">
        <time>2020-12-20T10:43:32.084000+00:00</time>
      </trkpt>
      <trkpt lat="0" lon="0">
        <time>2020-12-20T10:43:32.086000+00:00</time>
      </trkpt>
      <trkpt lat="47.30771" lon="-1.35819">
        <ele>69</ele>
        <time>2020-12-20T10:43:33.074000+00:00</time>
      </trkpt>
      <trkpt lat="0" lon="0">
        <time>2020-12-20T10:43:33.085000+00:00</time>
      </trkpt>
      <trkpt lat="0" lon="0">
        <time>2020-12-20T10:43:33.092000+00:00</time>
      </trkpt>
      <trkpt lat="0" lon="0">
        <time>2020-12-20T10:43:33.099000+00:00</time>
      </trkpt>
      <trkpt lat="47.30767" lon="-1.35824">
        <ele>69</ele>
        <time>2020-12-20T10:43:34.110000+00:00</time>
      </trkpt>
      <trkpt lat="0" lon="0">
        <time>2020-12-20T10:43:34.127000+00:00</time>
      </trkpt>
      <trkpt lat="0" lon="0">
        <time>2020-12-20T10:43:34.134000+00:00</time>
      </trkpt>
      <trkpt lat="0" lon="0">
        <time>2020-12-20T10:43:34.139000+00:00</time>
      </trkpt>
      <trkpt lat="47.30763" lon="-1.35829">
        <ele>68</ele>
        <time>2020-12-20T10:43:35.103000+00:00</time>
      </trkpt>
      <trkpt lat="0" lon="0">
        <time>2020-12-20T10:43:35.114000+00:00</time>
      </trkpt>
      <trkpt lat="0" lon="0">
        <time>2020-12-20T10:43:35.119000+00:00</time>
      </trkpt>
      <trkpt lat="0" lon="0">
        <time>2020-12-20T10:43:35.123000+00:00</time>
      </trkpt>
      <trkpt lat="47.3076" lon="-1.35834">
        <ele>68</ele>
        <time>2020-12-20T10:43:36.083000+00:00</time>
      </trkpt>
      <trkpt lat="0" lon="0">
        <time>2020-12-20T10:43:36.097000+00:00</time>
      </trkpt>
      <trkpt lat="0" lon="0">
        <time>2020-12-20T10:43:36.103000+00:00</time>
      </trkpt>
      <trkpt lat="0" lon="0">
        <time>2020-12-20T10:43:36.110000+00:00</time>
      </trkpt>
      <trkpt lat="47.30756" lon="-1.35839">
        <ele>68</ele>
        <time>2020-12-20T10:43:37.057000+00:00</time>
      </trkpt>
      <trkpt lat="0" lon="0">
        <time>2020-12-20T10:43:37.063000+00:00</time>
      </trkpt>
      <trkpt lat="0" lon="0">
        <time>2020-12-20T10:43:37.065000+00:00</time>
      </trkpt>
      <trkpt lat="0" lon="0">
        <time>2020-12-20T10:43:37.066000+00:00</time>
      </trkpt>
      <trkpt lat="47.30752" lon="-1.35844">
        <ele>67</ele>
        <time>2020-12-20T10:43:38.082000+00:00</time>
      </trkpt>
      <trkpt lat="0" lon="0">
        <time>2020-12-20T10:43:38.092000+00:00</time>
      </trkpt>
      <trkpt lat="0" lon="0">
        <time>2020-12-20T10:43:38.098000+00:00</time>
      </trkpt>
      <trkpt lat="0" lon="0">
        <time>2020-12-20T10:43:38.102000+00:00</time>
      </trkpt>
      <trkpt lat="47.30749" lon="-1.35848">
        <ele>67</ele>
        <time>2020-12-20T10:43:39.083000+00:00</time>
      </trkpt>
      <trkpt lat="0" lon="0">
        <time>2020-12-20T10:43:39.098000+00:00</time>
      </trkpt>
      <trkpt lat="0" lon="0">
        <time>2020-12-20T10:43:39.102000+00:00</time>
      </trkpt>
      <trkpt lat="0" lon="0">
        <time>2020-12-20T10:43:39.105000+00:00</time>
      </trkpt>
      <trkpt lat="47.30746" lon="-1.35853">
        <ele>67</ele>
        <time>2020-12-20T10:43:40.085000+00:00</time>
      </trkpt>
      <trkpt lat="0" lon="0">
        <time>2020-12-20T10:43:40.101000+00:00</time>
      </trkpt>
      <trkpt lat="0" lon="0">
        <time>2020-12-20T10:43:40.105000+00:00</time>
      </trkpt>
      <trkpt lat="0" lon="0">
        <time>2020-12-20T10:43:40.107000+00:00</time>
      </trkpt>
      <trkpt lat="47.30743" lon="-1.35857">
        <ele>67</ele>
        <time>2020-12-20T10:43:41.023000+00:00</time>
      </trkpt>
      <trkpt lat="0" lon="0">
        <time>2020-12-20T10:43:41.036000+00:00</time>
      </trkpt>
      <trkpt lat="0" lon="0">
        <time>2020-12-20T10:43:41.038000+00:00</time>
      </trkpt>
      <trkpt lat="0" lon="0">
        <time>2020-12-20T10:43:41.039000+00:00</time>
      </trkpt>
      <trkpt lat="47.3074" lon="-1.35861">
        <ele>67</ele>
        <time>2020-12-20T10:43:42.014000+00:00</time>
      </trkpt>
      <trkpt lat="0" lon="0">
        <time>2020-12-20T10:43:42.020000+00:00</time>
      </trkpt>
      <trkpt lat="0" lon="0">
        <time>2020-12-20T10:43:42.030000+00:00</time>
      </trkpt>
      <trkpt lat="0" lon="0">
        <time>2020-12-20T10:43:42.032000+00:00</time>
      </trkpt>
      <trkpt lat="47.30737" lon="-1.35865">
        <ele>67</ele>
        <time>2020-12-20T10:43:43.087000+00:00</time>
      </trkpt>
      <trkpt lat="0" lon="0">
        <time>2020-12-20T10:43:43.093000+00:00</time>
      </trkpt>
      <trkpt lat="0" lon="0">
        <time>2020-12-20T10:43:43.103000+00:00</time>
      </trkpt>
      <trkpt lat="0" lon="0">
        <time>2020-12-20T10:43:43.106000+00:00</time>
      </trkpt>
      <trkpt lat="47.30735" lon="-1.35868">
        <ele>67</ele>
        <time>2020-12-20T10:43:44.057000+00:00</time>
      </trkpt>
      <trkpt lat="0" lon="0">
        <time>2020-12-20T10:43:44.070000+00:00</time>
      </trkpt>
      <trkpt lat="0" lon="0">
        <time>2020-12-20T10:43:44.087000+00:00</time>
      </trkpt>
      <trkpt lat="0" lon="0">
        <time>2020-12-20T10:43:44.089000+00:00</time>
      </trkpt>
      <trkpt lat="47.30732" lon="-1.35872">
        <ele>67</ele>
        <time>2020-12-20T10:43:45.074000+00:00</time>
      </trkpt>
      <trkpt lat="0" lon="0">
        <time>2020-12-20T10:43:45.078000+00:00</time>
      </trkpt>
      <trkpt lat="0" lon="0">
        <time>2020-12-20T10:43:45.083000+00:00</time>
      </trkpt>
      <trkpt lat="0" lon="0">
        <time>2020-12-20T10:43:45.085000+00:00</time>
      </trkpt>
      <trkpt lat="47.3073" lon="-1.35875">
        <ele>67</ele>
        <time>2020-12-20T10:43:46.071000+00:00</time>
      </trkpt>
      <trkpt lat="0" lon="0">
        <time>2020-12-20T10:43:46.089000+00:00</time>
      </trkpt>
      <trkpt lat="0" lon="0">
        <time>2020-12-20T10:43:46.094000+00:00</time>
      </trkpt>
      <trkpt lat="0" lon="0">
        <time>2020-12-20T10:43:46.099000+00:00</time>
      </trkpt>
      <trkpt lat="47.30728" lon="-1.35879">
        <ele>67</ele>
        <time>2020-12-20T10:43:47.050000+00:00</time>
      </trkpt>
      <trkpt lat="0" lon="0">
        <time>2020-12-20T10:43:47.057000+00:00</time>
      </trkpt>
      <trkpt lat="0" lon="0">
        <time>2020-12-20T10:43:47.061000+00:00</time>
      </trkpt>
      <trkpt lat="0" lon="0">
        <time>2020-12-20T10:43:47.063000+00:00</time>
      </trkpt>
      <trkpt lat="47.30725" lon="-1.35882">
        <ele>67</ele>
        <time>2020-12-20T10:43:48.105000+00:00</time>
      </trkpt>
      <trkpt lat="0" lon="0">
        <time>2020-12-20T10:43:48.121000+00:00</time>
      </trkpt>
      <trkpt lat="0" lon="0">
        <time>2020-12-20T10:43:48.125000+00:00</time>
      </trkpt>
      <trkpt lat="0" lon="0">
        <time>2020-12-20T10:43:48.128000+00:00</time>
      </trkpt>
      <trkpt lat="47.30723" lon="-1.35885">
        <ele>67</ele>
        <time>2020-12-20T10:43:49.093000+00:00</time>
      </trkpt>
      <trkpt lat="0" lon="0">
        <time>2020-12-20T10:43:49.106000+00:00</time>
      </trkpt>
      <trkpt lat="0" lon="0">
        <time>2020-12-20T10:43:49.111000+00:00</time>
      </trkpt>
      <trkpt lat="0" lon="0">
        <time>2020-12-20T10:43:49.114000+00:00</time>
      </trkpt>
      <trkpt lat="47.3072" lon="-1.35889">
        <ele>67</ele>
        <time>2020-12-20T10:43:50.066000+00:00</time>
      </trkpt>
      <trkpt lat="0" lon="0">
        <time>2020-12-20T10:43:50.081000+00:00</time>
      </trkpt>
      <trkpt lat="0" lon="0">
        <time>2020-12-20T10:43:50.086000+00:00</time>
      </trkpt>
      <trkpt lat="0" lon="0">
        <time>2020-12-20T10:43:50.089000+00:00</time>
      </trkpt>
      <trkpt lat="47.30718" lon="-1.35892">
        <ele>67</ele>
        <time>2020-12-20T10:43:51.071000+00:00</time>
      </trkpt>
      <trkpt lat="0" lon="0">
        <time>2020-12-20T10:43:51.081000+00:00</time>
      </trkpt>
      <trkpt lat="0" lon="0">
        <time>2020-12-20T10:43:51.085000+00:00</time>
      </trkpt>
      <trkpt lat="0" lon="0">
        <time>2020-12-20T10:43:51.089000+00:00</time>
      </trkpt>
      <trkpt lat="47.30715" lon="-1.35895">
        <ele>67</ele>
        <time>2020-12-20T10:43:52.053000+00:00</time>
      </trkpt>
      <trkpt lat="0" lon="0">
        <time>2020-12-20T10:43:52.067000+00:00</time>
      </trkpt>
      <trkpt lat="0" lon="0">
        <time>2020-12-20T10:43:52.072000+00:00</time>
      </trkpt>
      <trkpt lat="0" lon="0">
        <time>2020-12-20T10:43:52.075000+00:00</time>
      </trkpt>
      <trkpt lat="47.30713" lon="-1.35898">
        <ele>67</ele>
        <time>2020-12-20T10:43:53.091000+00:00</time>
      </trkpt>
      <trkpt lat="0" lon="0">
        <time>2020-12-20T10:43:53.098000+00:00</time>
      </trkpt>
      <trkpt lat="0" lon="0">
        <time>2020-12-20T10:43:53.104000+00:00</time>
      </trkpt>
      <trkpt lat="0" lon="0">
        <time>2020-12-20T10:43:53.106000+00:00</time>
      </trkpt>
      <trkpt lat="47.3071" lon="-1.35902">
        <ele>67</ele>
        <time>2020-12-20T10:43:54.078000+00:00</time>
      </trkpt>
      <trkpt lat="0" lon="0">
        <time>2020-12-20T10:43:54.090000+00:00</time>
      </trkpt>
      <trkpt lat="0" lon="0">
        <time>2020-12-20T10:43:54.095000+00:00</time>
      </trkpt>
      <trkpt lat="0" lon="0">
        <time>2020-12-20T10:43:54.097000+00:00</time>
      </trkpt>
      <trkpt lat="47.30708" lon="-1.35905">
        <ele>67</ele>
        <time>2020-12-20T10:43:55.061000+00:00</time>
      </trkpt>
      <trkpt lat="0" lon="0">
        <time>2020-12-20T10:43:55.070000+00:00</time>
      </trkpt>
      <trkpt lat="0" lon="0">
        <time>2020-12-20T10:43:55.073000+00:00</time>
      </trkpt>
      <trkpt lat="0" lon="0">
        <time>2020-12-20T10:43:55.075000+00:00</time>
      </trkpt>
      <trkpt lat="47.30705" lon="-1.35908">
        <ele>67</ele>
        <time>2020-12-20T10:43:56.102000+00:00</time>
      </trkpt>
      <trkpt lat="0" lon="0">
        <time>2020-12-20T10:43:56.113000+00:00</time>
      </trkpt>
      <trkpt lat="0" lon="0">
        <time>2020-12-20T10:43:56.120000+00:00</time>
      </trkpt>
      <trkpt lat="0" lon="0">
        <time>2020-12-20T10:43:56.122000+00:00</time>
      </trkpt>
      <trkpt lat="47.30703" lon="-1.35912">
        <ele>67</ele>
        <time>2020-12-20T10:43:57.010000+00:00</time>
      </trkpt>
      <trkpt lat="0" lon="0">
        <time>2020-12-20T10:43:57.014000+00:00</time>
      </trkpt>
      <trkpt lat="0" lon="0">
        <time>2020-12-20T10:43:57.022000+00:00</time>
      </trkpt>
      <trkpt lat="0" lon="0">
        <time>2020-12-20T10:43:57.025000+00:00</time>
      </trkpt>
      <trkpt lat="47.30701" lon="-1.35915">
        <ele>67</ele>
        <time>2020-12-20T10:43:58.082000+00:00</time>
      </trkpt>
      <trkpt lat="0" lon="0">
        <time>2020-12-20T10:43:58.093000+00:00</time>
      </trkpt>
      <trkpt lat="0" lon="0">
        <time>2020-12-20T10:43:58.103000+00:00</time>
      </trkpt>
      <trkpt lat="0" lon="0">
        <time>2020-12-20T10:43:58.108000+00:00</time>
      </trkpt>
      <trkpt lat="47.30699" lon="-1.35919">
        <ele>67</ele>
        <time>2020-12-20T10:43:59.068000+00:00</time>
      </trkpt>
      <trkpt lat="0" lon="0">
        <time>2020-12-20T10:43:59.077000+00:00</time>
      </trkpt>
      <trkpt lat="0" lon="0">
        <time>2020-12-20T10:43:59.085000+00:00</time>
      </trkpt>
      <trkpt lat="0" lon="0">
        <time>2020-12-20T10:43:59.092000+00:00</time>
      </trkpt>
      <trkpt lat="47.30697" lon="-1.35922">
        <ele>67</ele>
        <time>2020-12-20T10:44:00.081000+00:00</time>
      </trkpt>
      <trkpt lat="0" lon="0">
        <time>2020-12-20T10:44:00.086000+00:00</time>
      </trkpt>
      <trkpt lat="0" lon="0">
        <time>2020-12-20T10:44:00.088000+00:00</time>
      </trkpt>
      <trkpt lat="0" lon="0">
        <time>2020-12-20T10:44:00.089000+00:00</time>
      </trkpt>
      <trkpt lat="47.30694" lon="-1.35926">
        <ele>67</ele>
        <time>2020-12-20T10:44:01.099000+00:00</time>
      </trkpt>
      <trkpt lat="0" lon="0">
        <time>2020-12-20T10:44:01.120000+00:00</time>
      </trkpt>
      <trkpt lat="0" lon="0">
        <time>2020-12-20T10:44:01.124000+00:00</time>
      </trkpt>
      <trkpt lat="0" lon="0">
        <time>2020-12-20T10:44:01.127000+00:00</time>
      </trkpt>
      <trkpt lat="47.30692" lon="-1.35929">
        <ele>67</ele>
        <time>2020-12-20T10:44:02.073000+00:00</time>
      </trkpt>
      <trkpt lat="0" lon="0">
        <time>2020-12-20T10:44:02.080000+00:00</time>
      </trkpt>
      <trkpt lat="0" lon="0">
        <time>2020-12-20T10:44:02.091000+00:00</time>
      </trkpt>
      <trkpt lat="0" lon="0">
        <time>2020-12-20T10:44:02.094000+00:00</time>
      </trkpt>
      <trkpt lat="47.3069" lon="-1.35932">
        <ele>67</ele>
        <time>2020-12-20T10:44:03.051000+00:00</time>
      </trkpt>
      <trkpt lat="0" lon="0">
        <time>2020-12-20T10:44:03.064000+00:00</time>
      </trkpt>
      <trkpt lat="0" lon="0">
        <time>2020-12-20T10:44:03.069000+00:00</time>
      </trkpt>
      <trkpt lat="0" lon="0">
        <time>2020-12-20T10:44:03.071000+00:00</time>
      </trkpt>
      <trkpt lat="47.30687" lon="-1.35935">
        <ele>67</ele>
        <time>2020-12-20T10:44:04.031000+00:00</time>
      </trkpt>
      <trkpt lat="0" lon="0">
        <time>2020-12-20T10:44:04.050000+00:00</time>
      </trkpt>
      <trkpt lat="0" lon="0">
        <time>2020-12-20T10:44:04.055000+00:00</time>
      </trkpt>
      <trkpt lat="0" lon="0">
        <time>2020-12-20T10:44:04.057000+00:00</time>
      </trkpt>
      <trkpt lat="47.30685" lon="-1.35937">
        <ele>67</ele>
        <time>2020-12-20T10:44:05.066000+00:00</time>
      </trkpt>
      <trkpt lat="0" lon="0">
        <time>2020-12-20T10:44:05.082000+00:00</time>
      </trkpt>
      <trkpt lat="0" lon="0">
        <time>2020-12-20T10:44:05.086000+00:00</time>
      </trkpt>
      <trkpt lat="0" lon="0">
        <time>2020-12-20T10:44:05.089000+00:00</time>
      </trkpt>
      <trkpt lat="47.30683" lon="-1.3594">
        <ele>68</ele>
        <time>2020-12-20T10:44:06.030000+00:00</time>
      </trkpt>
      <trkpt lat="0" lon="0">
        <time>2020-12-20T10:44:06.037000+00:00</time>
      </trkpt>
      <trkpt lat="0" lon="0">
        <time>2020-12-20T10:44:06.041000+00:00</time>
      </trkpt>
      <trkpt lat="0" lon="0">
        <time>2020-12-20T10:44:06.042000+00:00</time>
      </trkpt>
      <trkpt lat="47.30681" lon="-1.35942">
        <ele>68</ele>
        <time>2020-12-20T10:44:07.079000+00:00</time>
      </trkpt>
      <trkpt lat="0" lon="0">
        <time>2020-12-20T10:44:07.085000+00:00</time>
      </trkpt>
      <trkpt lat="0" lon="0">
        <time>2020-12-20T10:44:07.089000+00:00</time>
      </trkpt>
      <trkpt lat="0" lon="0">
        <time>2020-12-20T10:44:07.093000+00:00</time>
      </trkpt>
      <trkpt lat="47.30679" lon="-1.35945">
        <ele>68</ele>
        <time>2020-12-20T10:44:08.080000+00:00</time>
      </trkpt>
      <trkpt lat="0" lon="0">
        <time>2020-12-20T10:44:08.105000+00:00</time>
      </trkpt>
      <trkpt lat="0" lon="0">
        <time>2020-12-20T10:44:08.114000+00:00</time>
      </trkpt>
      <trkpt lat="0" lon="0">
        <time>2020-12-20T10:44:08.117000+00:00</time>
      </trkpt>
      <trkpt lat="47.30676" lon="-1.35948">
        <ele>69</ele>
        <time>2020-12-20T10:44:09.011000+00:00</time>
      </trkpt>
      <trkpt lat="0" lon="0">
        <time>2020-12-20T10:44:09.017000+00:00</time>
      </trkpt>
      <trkpt lat="0" lon="0">
        <time>2020-12-20T10:44:09.023000+00:00</time>
      </trkpt>
      <trkpt lat="0" lon="0">
        <time>2020-12-20T10:44:09.025000+00:00</time>
      </trkpt>
      <trkpt lat="47.30674" lon="-1.35951">
        <ele>69</ele>
        <time>2020-12-20T10:44:10.100000+00:00</time>
      </trkpt>
      <trkpt lat="0" lon="0">
        <time>2020-12-20T10:44:10.117000+00:00</time>
      </trkpt>
      <trkpt lat="0" lon="0">
        <time>2020-12-20T10:44:10.121000+00:00</time>
      </trkpt>
      <trkpt lat="0" lon="0">
        <time>2020-12-20T10:44:10.123000+00:00</time>
      </trkpt>
      <trkpt lat="47.30671" lon="-1.35954">
        <ele>69</ele>
        <time>2020-12-20T10:44:11.049000+00:00</time>
      </trkpt>
      <trkpt lat="0" lon="0">
        <time>2020-12-20T10:44:11.054000+00:00</time>
      </trkpt>
      <trkpt lat="0" lon="0">
        <time>2020-12-20T10:44:11.063000+00:00</time>
      </trkpt>
      <trkpt lat="0" lon="0">
        <time>2020-12-20T10:44:11.067000+00:00</time>
      </trkpt>
      <trkpt lat="47.30669" lon="-1.35957">
        <ele>69</ele>
        <time>2020-12-20T10:44:12.098000+00:00</time>
      </trkpt>
      <trkpt lat="0" lon="0">
        <time>2020-12-20T10:44:12.111000+00:00</time>
      </trkpt>
      <trkpt lat="0" lon="0">
        <time>2020-12-20T10:44:12.115000+00:00</time>
      </trkpt>
      <trkpt lat="0" lon="0">
        <time>2020-12-20T10:44:12.117000+00:00</time>
      </trkpt>
      <trkpt lat="47.30666" lon="-1.3596">
        <ele>69</ele>
        <time>2020-12-20T10:44:13.088000+00:00</time>
      </trkpt>
      <trkpt lat="0" lon="0">
        <time>2020-12-20T10:44:13.100000+00:00</time>
      </trkpt>
      <trkpt lat="0" lon="0">
        <time>2020-12-20T10:44:13.104000+00:00</time>
      </trkpt>
      <trkpt lat="0" lon="0">
        <time>2020-12-20T10:44:13.107000+00:00</time>
      </trkpt>
      <trkpt lat="47.30664" lon="-1.35964">
        <ele>70</ele>
        <time>2020-12-20T10:44:14.044000+00:00</time>
      </trkpt>
      <trkpt lat="0" lon="0">
        <time>2020-12-20T10:44:14.058000+00:00</time>
      </trkpt>
      <trkpt lat="0" lon="0">
        <time>2020-12-20T10:44:14.065000+00:00</time>
      </trkpt>
      <trkpt lat="0" lon="0">
        <time>2020-12-20T10:44:14.067000+00:00</time>
      </trkpt>
      <trkpt lat="47.30661" lon="-1.35967">
        <ele>70</ele>
        <time>2020-12-20T10:44:15.033000+00:00</time>
      </trkpt>
      <trkpt lat="0" lon="0">
        <time>2020-12-20T10:44:15.042000+00:00</time>
      </trkpt>
      <trkpt lat="0" lon="0">
        <time>2020-12-20T10:44:15.050000+00:00</time>
      </trkpt>
      <trkpt lat="0" lon="0">
        <time>2020-12-20T10:44:15.052000+00:00</time>
      </trkpt>
      <trkpt lat="47.30658" lon="-1.3597">
        <ele>70</ele>
        <time>2020-12-20T10:44:16.056000+00:00</time>
      </trkpt>
      <trkpt lat="0" lon="0">
        <time>2020-12-20T10:44:16.066000+00:00</time>
      </trkpt>
      <trkpt lat="0" lon="0">
        <time>2020-12-20T10:44:16.073000+00:00</time>
      </trkpt>
      <trkpt lat="0" lon="0">
        <time>2020-12-20T10:44:16.075000+00:00</time>
      </trkpt>
      <trkpt lat="47.30655" lon="-1.35973">
        <ele>71</ele>
        <time>2020-12-20T10:44:16.970000+00:00</time>
      </trkpt>
      <trkpt lat="0" lon="0">
        <time>2020-12-20T10:44:16.976000+00:00</time>
      </trkpt>
      <trkpt lat="0" lon="0">
        <time>2020-12-20T10:44:16.984000+00:00</time>
      </trkpt>
      <trkpt lat="0" lon="0">
        <time>2020-12-20T10:44:16.986000+00:00</time>
      </trkpt>
      <trkpt lat="47.30652" lon="-1.35976">
        <ele>71</ele>
        <time>2020-12-20T10:44:18.097000+00:00</time>
      </trkpt>
      <trkpt lat="0" lon="0">
        <time>2020-12-20T10:44:18.113000+00:00</time>
      </trkpt>
      <trkpt lat="0" lon="0">
        <time>2020-12-20T10:44:18.119000+00:00</time>
      </trkpt>
      <trkpt lat="0" lon="0">
        <time>2020-12-20T10:44:18.122000+00:00</time>
      </trkpt>
      <trkpt lat="47.30649" lon="-1.35978">
        <ele>71</ele>
        <time>2020-12-20T10:44:18.993000+00:00</time>
      </trkpt>
      <trkpt lat="0" lon="0">
        <time>2020-12-20T10:44:18.994000+00:00</time>
      </trkpt>
      <trkpt lat="0" lon="0">
        <time>2020-12-20T10:44:18.996000+00:00</time>
      </trkpt>
      <trkpt lat="0" lon="0">
        <time>2020-12-20T10:44:18.997000+00:00</time>
      </trkpt>
      <trkpt lat="47.30646" lon="-1.35981">
        <ele>71</ele>
        <time>2020-12-20T10:44:20.048000+00:00</time>
      </trkpt>
      <trkpt lat="0" lon="0">
        <time>2020-12-20T10:44:20.054000+00:00</time>
      </trkpt>
      <trkpt lat="0" lon="0">
        <time>2020-12-20T10:44:20.059000+00:00</time>
      </trkpt>
      <trkpt lat="0" lon="0">
        <time>2020-12-20T10:44:20.061000+00:00</time>
      </trkpt>
      <trkpt lat="47.30643" lon="-1.35985">
        <ele>71</ele>
        <time>2020-12-20T10:44:21.055000+00:00</time>
      </trkpt>
      <trkpt lat="0" lon="0">
        <time>2020-12-20T10:44:21.062000+00:00</time>
      </trkpt>
      <trkpt lat="0" lon="0">
        <time>2020-12-20T10:44:21.067000+00:00</time>
      </trkpt>
      <trkpt lat="0" lon="0">
        <time>2020-12-20T10:44:21.070000+00:00</time>
      </trkpt>
      <trkpt lat="47.30639" lon="-1.35988">
        <ele>71</ele>
        <time>2020-12-20T10:44:22.054000+00:00</time>
      </trkpt>
      <trkpt lat="0" lon="0">
        <time>2020-12-20T10:44:22.062000+00:00</time>
      </trkpt>
      <trkpt lat="0" lon="0">
        <time>2020-12-20T10:44:22.072000+00:00</time>
      </trkpt>
      <trkpt lat="0" lon="0">
        <time>2020-12-20T10:44:22.079000+00:00</time>
      </trkpt>
      <trkpt lat="47.30636" lon="-1.35991">
        <ele>72</ele>
        <time>2020-12-20T10:44:23.055000+00:00</time>
      </trkpt>
      <trkpt lat="0" lon="0">
        <time>2020-12-20T10:44:23.061000+00:00</time>
      </trkpt>
      <trkpt lat="0" lon="0">
        <time>2020-12-20T10:44:23.068000+00:00</time>
      </trkpt>
      <trkpt lat="0" lon="0">
        <time>2020-12-20T10:44:23.075000+00:00</time>
      </trkpt>
      <trkpt lat="47.30631" lon="-1.35995">
        <ele>72</ele>
        <time>2020-12-20T10:44:24.068000+00:00</time>
      </trkpt>
      <trkpt lat="0" lon="0">
        <time>2020-12-20T10:44:24.077000+00:00</time>
      </trkpt>
      <trkpt lat="0" lon="0">
        <time>2020-12-20T10:44:24.081000+00:00</time>
      </trkpt>
      <trkpt lat="0" lon="0">
        <time>2020-12-20T10:44:24.083000+00:00</time>
      </trkpt>
      <trkpt lat="47.30626" lon="-1.35999">
        <ele>72</ele>
        <time>2020-12-20T10:44:25.040000+00:00</time>
      </trkpt>
      <trkpt lat="0" lon="0">
        <time>2020-12-20T10:44:25.045000+00:00</time>
      </trkpt>
      <trkpt lat="0" lon="0">
        <time>2020-12-20T10:44:25.051000+00:00</time>
      </trkpt>
      <trkpt lat="0" lon="0">
        <time>2020-12-20T10:44:25.056000+00:00</time>
      </trkpt>
      <trkpt lat="47.3062" lon="-1.36004">
        <ele>71</ele>
        <time>2020-12-20T10:44:26.078000+00:00</time>
      </trkpt>
      <trkpt lat="0" lon="0">
        <time>2020-12-20T10:44:26.094000+00:00</time>
      </trkpt>
      <trkpt lat="0" lon="0">
        <time>2020-12-20T10:44:26.103000+00:00</time>
      </trkpt>
      <trkpt lat="0" lon="0">
        <time>2020-12-20T10:44:26.106000+00:00</time>
      </trkpt>
      <trkpt lat="47.30614" lon="-1.36009">
        <ele>70</ele>
        <time>2020-12-20T10:44:27.115000+00:00</time>
      </trkpt>
      <trkpt lat="0" lon="0">
        <time>2020-12-20T10:44:27.121000+00:00</time>
      </trkpt>
      <trkpt lat="0" lon="0">
        <time>2020-12-20T10:44:27.126000+00:00</time>
      </trkpt>
      <trkpt lat="0" lon="0">
        <time>2020-12-20T10:44:27.130000+00:00</time>
      </trkpt>
      <trkpt lat="47.30609" lon="-1.36014">
        <ele>70</ele>
        <time>2020-12-20T10:44:28.071000+00:00</time>
      </trkpt>
      <trkpt lat="0" lon="0">
        <time>2020-12-20T10:44:28.079000+00:00</time>
      </trkpt>
      <trkpt lat="0" lon="0">
        <time>2020-12-20T10:44:28.086000+00:00</time>
      </trkpt>
      <trkpt lat="0" lon="0">
        <time>2020-12-20T10:44:28.095000+00:00</time>
      </trkpt>
      <trkpt lat="47.30604" lon="-1.36019">
        <ele>69</ele>
        <time>2020-12-20T10:44:29.079000+00:00</time>
      </trkpt>
      <trkpt lat="0" lon="0">
        <time>2020-12-20T10:44:29.097000+00:00</time>
      </trkpt>
      <trkpt lat="0" lon="0">
        <time>2020-12-20T10:44:29.105000+00:00</time>
      </trkpt>
      <trkpt lat="0" lon="0">
        <time>2020-12-20T10:44:29.108000+00:00</time>
      </trkpt>
      <trkpt lat="47.30599" lon="-1.36023">
        <ele>69</ele>
        <time>2020-12-20T10:44:30.119000+00:00</time>
      </trkpt>
      <trkpt lat="0" lon="0">
        <time>2020-12-20T10:44:30.135000+00:00</time>
      </trkpt>
      <trkpt lat="0" lon="0">
        <time>2020-12-20T10:44:30.138000+00:00</time>
      </trkpt>
      <trkpt lat="0" lon="0">
        <time>2020-12-20T10:44:30.139000+00:00</time>
      </trkpt>
      <trkpt lat="47.30595" lon="-1.36027">
        <ele>69</ele>
        <time>2020-12-20T10:44:31.069000+00:00</time>
      </trkpt>
      <trkpt lat="0" lon="0">
        <time>2020-12-20T10:44:31.074000+00:00</time>
      </trkpt>
      <trkpt lat="0" lon="0">
        <time>2020-12-20T10:44:31.079000+00:00</time>
      </trkpt>
      <trkpt lat="0" lon="0">
        <time>2020-12-20T10:44:31.083000+00:00</time>
      </trkpt>
      <trkpt lat="47.30592" lon="-1.36031">
        <ele>69</ele>
        <time>2020-12-20T10:44:32.088000+00:00</time>
      </trkpt>
      <trkpt lat="0" lon="0">
        <time>2020-12-20T10:44:32.098000+00:00</time>
      </trkpt>
      <trkpt lat="0" lon="0">
        <time>2020-12-20T10:44:32.103000+00:00</time>
      </trkpt>
      <trkpt lat="0" lon="0">
        <time>2020-12-20T10:44:32.106000+00:00</time>
      </trkpt>
      <trkpt lat="47.30589" lon="-1.36034">
        <ele>69</ele>
        <time>2020-12-20T10:44:33.075000+00:00</time>
      </trkpt>
      <trkpt lat="0" lon="0">
        <time>2020-12-20T10:44:33.087000+00:00</time>
      </trkpt>
      <trkpt lat="0" lon="0">
        <time>2020-12-20T10:44:33.094000+00:00</time>
      </trkpt>
      <trkpt lat="0" lon="0">
        <time>2020-12-20T10:44:33.097000+00:00</time>
      </trkpt>
      <trkpt lat="47.30587" lon="-1.36037">
        <ele>69</ele>
        <time>2020-12-20T10:44:34.033000+00:00</time>
      </trkpt>
      <trkpt lat="0" lon="0">
        <time>2020-12-20T10:44:34.053000+00:00</time>
      </trkpt>
      <trkpt lat="0" lon="0">
        <time>2020-12-20T10:44:34.059000+00:00</time>
      </trkpt>
      <trkpt lat="0" lon="0">
        <time>2020-12-20T10:44:34.062000+00:00</time>
      </trkpt>
      <trkpt lat="47.30585" lon="-1.36039">
        <ele>69</ele>
        <time>2020-12-20T10:44:35.077000+00:00</time>
      </trkpt>
      <trkpt lat="0" lon="0">
        <time>2020-12-20T10:44:35.089000+00:00</time>
      </trkpt>
      <trkpt lat="0" lon="0">
        <time>2020-12-20T10:44:35.096000+00:00</time>
      </trkpt>
      <trkpt lat="0" lon="0">
        <time>2020-12-20T10:44:35.099000+00:00</time>
      </trkpt>
      <trkpt lat="47.30583" lon="-1.36042">
        <ele>68</ele>
        <time>2020-12-20T10:44:36.049000+00:00</time>
      </trkpt>
      <trkpt lat="0" lon="0">
        <time>2020-12-20T10:44:36.063000+00:00</time>
      </trkpt>
      <trkpt lat="0" lon="0">
        <time>2020-12-20T10:44:36.065000+00:00</time>
      </trkpt>
      <trkpt lat="0" lon="0">
        <time>2020-12-20T10:44:36.068000+00:00</time>
      </trkpt>
      <trkpt lat="47.30582" lon="-1.36044">
        <ele>68</ele>
        <time>2020-12-20T10:44:36.970000+00:00</time>
      </trkpt>
      <trkpt lat="0" lon="0">
        <time>2020-12-20T10:44:36.979000+00:00</time>
      </trkpt>
      <trkpt lat="0" lon="0">
        <time>2020-12-20T10:44:36.981000+00:00</time>
      </trkpt>
      <trkpt lat="0" lon="0">
        <time>2020-12-20T10:44:36.982000+00:00</time>
      </trkpt>
      <trkpt lat="47.3058" lon="-1.36046">
        <ele>68</ele>
        <time>2020-12-20T10:44:38.072000+00:00</time>
      </trkpt>
      <trkpt lat="0" lon="0">
        <time>2020-12-20T10:44:38.081000+00:00</time>
      </trkpt>
      <trkpt lat="0" lon="0">
        <time>2020-12-20T10:44:38.085000+00:00</time>
      </trkpt>
      <trkpt lat="0" lon="0">
        <time>2020-12-20T10:44:38.089000+00:00</time>
      </trkpt>
      <trkpt lat="47.30579" lon="-1.36048">
        <ele>67</ele>
        <time>2020-12-20T10:44:39.050000+00:00</time>
      </trkpt>
      <trkpt lat="0" lon="0">
        <time>2020-12-20T10:44:39.057000+00:00</time>
      </trkpt>
      <trkpt lat="0" lon="0">
        <time>2020-12-20T10:44:39.062000+00:00</time>
      </trkpt>
      <trkpt lat="0" lon="0">
        <time>2020-12-20T10:44:39.065000+00:00</time>
      </trkpt>
      <trkpt lat="47.30577" lon="-1.3605">
        <ele>67</ele>
        <time>2020-12-20T10:44:40.063000+00:00</time>
      </trkpt>
      <trkpt lat="0" lon="0">
        <time>2020-12-20T10:44:40.095000+00:00</time>
      </trkpt>
      <trkpt lat="0" lon="0">
        <time>2020-12-20T10:44:40.105000+00:00</time>
      </trkpt>
      <trkpt lat="0" lon="0">
        <time>2020-12-20T10:44:40.106000+00:00</time>
      </trkpt>
      <trkpt lat="47.30576" lon="-1.36052">
        <ele>67</ele>
        <time>2020-12-20T10:44:41.039000+00:00</time>
      </trkpt>
      <trkpt lat="0" lon="0">
        <time>2020-12-20T10:44:41.047000+00:00</time>
      </trkpt>
      <trkpt lat="0" lon="0">
        <time>2020-12-20T10:44:41.057000+00:00</time>
      </trkpt>
      <trkpt lat="0" lon="0">
        <time>2020-12-20T10:44:41.059000+00:00</time>
      </trkpt>
      <trkpt lat="47.30574" lon="-1.36053">
        <ele>67</ele>
        <time>2020-12-20T10:44:42.046000+00:00</time>
      </trkpt>
      <trkpt lat="0" lon="0">
        <time>2020-12-20T10:44:42.064000+00:00</time>
      </trkpt>
      <trkpt lat="0" lon="0">
        <time>2020-12-20T10:44:42.072000+00:00</time>
      </trkpt>
      <trkpt lat="0" lon="0">
        <time>2020-12-20T10:44:42.075000+00:00</time>
      </trkpt>
      <trkpt lat="47.30573" lon="-1.36055">
        <ele>67</ele>
        <time>2020-12-20T10:44:43.059000+00:00</time>
      </trkpt>
      <trkpt lat="0" lon="0">
        <time>2020-12-20T10:44:43.079000+00:00</time>
      </trkpt>
      <trkpt lat="0" lon="0">
        <time>2020-12-20T10:44:43.084000+00:00</time>
      </trkpt>
      <trkpt lat="0" lon="0">
        <time>2020-12-20T10:44:43.087000+00:00</time>
      </trkpt>
      <trkpt lat="47.30571" lon="-1.36057">
        <ele>67</ele>
        <time>2020-12-20T10:44:44.074000+00:00</time>
      </trkpt>
      <trkpt lat="0" lon="0">
        <time>2020-12-20T10:44:44.087000+00:00</time>
      </trkpt>
      <trkpt lat="0" lon="0">
        <time>2020-12-20T10:44:44.094000+00:00</time>
      </trkpt>
      <trkpt lat="0" lon="0">
        <time>2020-12-20T10:44:44.099000+00:00</time>
      </trkpt>
      <trkpt lat="47.30569" lon="-1.36059">
        <ele>67</ele>
        <time>2020-12-20T10:44:45.066000+00:00</time>
      </trkpt>
      <trkpt lat="0" lon="0">
        <time>2020-12-20T10:44:45.074000+00:00</time>
      </trkpt>
      <trkpt lat="0" lon="0">
        <time>2020-12-20T10:44:45.081000+00:00</time>
      </trkpt>
      <trkpt lat="0" lon="0">
        <time>2020-12-20T10:44:45.086000+00:00</time>
      </trkpt>
      <trkpt lat="47.30567" lon="-1.36062">
        <ele>67</ele>
        <time>2020-12-20T10:44:46.062000+00:00</time>
      </trkpt>
      <trkpt lat="0" lon="0">
        <time>2020-12-20T10:44:46.083000+00:00</time>
      </trkpt>
      <trkpt lat="0" lon="0">
        <time>2020-12-20T10:44:46.095000+00:00</time>
      </trkpt>
      <trkpt lat="0" lon="0">
        <time>2020-12-20T10:44:46.097000+00:00</time>
      </trkpt>
      <trkpt lat="47.30565" lon="-1.36064">
        <ele>67</ele>
        <time>2020-12-20T10:44:47.097000+00:00</time>
      </trkpt>
      <trkpt lat="0" lon="0">
        <time>2020-12-20T10:44:47.103000+00:00</time>
      </trkpt>
      <trkpt lat="0" lon="0">
        <time>2020-12-20T10:44:47.105000+00:00</time>
      </trkpt>
      <trkpt lat="0" lon="0">
        <time>2020-12-20T10:44:47.106000+00:00</time>
      </trkpt>
      <trkpt lat="47.30563" lon="-1.36068">
        <ele>67</ele>
        <time>2020-12-20T10:44:48.067000+00:00</time>
      </trkpt>
      <trkpt lat="0" lon="0">
        <time>2020-12-20T10:44:48.091000+00:00</time>
      </trkpt>
      <trkpt lat="0" lon="0">
        <time>2020-12-20T10:44:48.095000+00:00</time>
      </trkpt>
      <trkpt lat="0" lon="0">
        <time>2020-12-20T10:44:48.100000+00:00</time>
      </trkpt>
      <trkpt lat="47.3056" lon="-1.36071">
        <ele>66</ele>
        <time>2020-12-20T10:44:49.041000+00:00</time>
      </trkpt>
      <trkpt lat="0" lon="0">
        <time>2020-12-20T10:44:49.051000+00:00</time>
      </trkpt>
      <trkpt lat="0" lon="0">
        <time>2020-12-20T10:44:49.055000+00:00</time>
      </trkpt>
      <trkpt lat="0" lon="0">
        <time>2020-12-20T10:44:49.059000+00:00</time>
      </trkpt>
      <trkpt lat="47.30557" lon="-1.36075">
        <ele>66</ele>
        <time>2020-12-20T10:44:50.108000+00:00</time>
      </trkpt>
      <trkpt lat="0" lon="0">
        <time>2020-12-20T10:44:50.124000+00:00</time>
      </trkpt>
      <trkpt lat="0" lon="0">
        <time>2020-12-20T10:44:50.131000+00:00</time>
      </trkpt>
      <trkpt lat="0" lon="0">
        <time>2020-12-20T10:44:50.134000+00:00</time>
      </trkpt>
      <trkpt lat="47.30554" lon="-1.3608">
        <ele>65</ele>
        <time>2020-12-20T10:44:51.084000+00:00</time>
      </trkpt>
      <trkpt lat="0" lon="0">
        <time>2020-12-20T10:44:51.089000+00:00</time>
      </trkpt>
      <trkpt lat="0" lon="0">
        <time>2020-12-20T10:44:51.094000+00:00</time>
      </trkpt>
      <trkpt lat="0" lon="0">
        <time>2020-12-20T10:44:51.097000+00:00</time>
      </trkpt>
      <trkpt lat="47.30551" lon="-1.36085">
        <ele>65</ele>
        <time>2020-12-20T10:44:52.052000+00:00</time>
      </trkpt>
      <trkpt lat="0" lon="0">
        <time>2020-12-20T10:44:52.071000+00:00</time>
      </trkpt>
      <trkpt lat="0" lon="0">
        <time>2020-12-20T10:44:52.080000+00:00</time>
      </trkpt>
      <trkpt lat="0" lon="0">
        <time>2020-12-20T10:44:52.082000+00:00</time>
      </trkpt>
      <trkpt lat="47.30548" lon="-1.3609">
        <ele>65</ele>
        <time>2020-12-20T10:44:53.035000+00:00</time>
      </trkpt>
      <trkpt lat="0" lon="0">
        <time>2020-12-20T10:44:53.042000+00:00</time>
      </trkpt>
      <trkpt lat="0" lon="0">
        <time>2020-12-20T10:44:53.044000+00:00</time>
      </trkpt>
      <trkpt lat="0" lon="0">
        <time>2020-12-20T10:44:53.045000+00:00</time>
      </trkpt>
      <trkpt lat="47.30544" lon="-1.36096">
        <ele>65</ele>
        <time>2020-12-20T10:44:54.103000+00:00</time>
      </trkpt>
      <trkpt lat="0" lon="0">
        <time>2020-12-20T10:44:54.112000+00:00</time>
      </trkpt>
      <trkpt lat="0" lon="0">
        <time>2020-12-20T10:44:54.116000+00:00</time>
      </trkpt>
      <trkpt lat="0" lon="0">
        <time>2020-12-20T10:44:54.121000+00:00</time>
      </trkpt>
      <trkpt lat="47.30541" lon="-1.36101">
        <ele>65</ele>
        <time>2020-12-20T10:44:55.096000+00:00</time>
      </trkpt>
      <trkpt lat="0" lon="0">
        <time>2020-12-20T10:44:55.102000+00:00</time>
      </trkpt>
      <trkpt lat="0" lon="0">
        <time>2020-12-20T10:44:55.106000+00:00</time>
      </trkpt>
      <trkpt lat="0" lon="0">
        <time>2020-12-20T10:44:55.109000+00:00</time>
      </trkpt>
      <trkpt lat="47.30537" lon="-1.36107">
        <ele>66</ele>
        <time>2020-12-20T10:44:56.083000+00:00</time>
      </trkpt>
      <trkpt lat="0" lon="0">
        <time>2020-12-20T10:44:56.094000+00:00</time>
      </trkpt>
      <trkpt lat="0" lon="0">
        <time>2020-12-20T10:44:56.099000+00:00</time>
      </trkpt>
      <trkpt lat="0" lon="0">
        <time>2020-12-20T10:44:56.102000+00:00</time>
      </trkpt>
      <trkpt lat="47.30534" lon="-1.36112">
        <ele>66</ele>
        <time>2020-12-20T10:44:57.074000+00:00</time>
      </trkpt>
      <trkpt lat="0" lon="0">
        <time>2020-12-20T10:44:57.084000+00:00</time>
      </trkpt>
      <trkpt lat="0" lon="0">
        <time>2020-12-20T10:44:57.088000+00:00</time>
      </trkpt>
      <trkpt lat="0" lon="0">
        <time>2020-12-20T10:44:57.090000+00:00</time>
      </trkpt>
      <trkpt lat="47.30528" lon="-1.36123">
        <ele>66</ele>
        <time>2020-12-20T10:44:59.080000+00:00</time>
      </trkpt>
      <trkpt lat="0" lon="0">
        <time>2020-12-20T10:44:59.093000+00:00</time>
      </trkpt>
      <trkpt lat="0" lon="0">
        <time>2020-12-20T10:44:59.101000+00:00</time>
      </trkpt>
      <trkpt lat="0" lon="0">
        <time>2020-12-20T10:44:59.105000+00:00</time>
      </trkpt>
      <trkpt lat="47.30525" lon="-1.36129">
        <ele>66</ele>
        <time>2020-12-20T10:45:00.067000+00:00</time>
      </trkpt>
      <trkpt lat="0" lon="0">
        <time>2020-12-20T10:45:00.081000+00:00</time>
      </trkpt>
      <trkpt lat="0" lon="0">
        <time>2020-12-20T10:45:00.087000+00:00</time>
      </trkpt>
      <trkpt lat="0" lon="0">
        <time>2020-12-20T10:45:00.094000+00:00</time>
      </trkpt>
      <trkpt lat="47.30522" lon="-1.36134">
        <ele>66</ele>
        <time>2020-12-20T10:45:01.090000+00:00</time>
      </trkpt>
      <trkpt lat="0" lon="0">
        <time>2020-12-20T10:45:01.095000+00:00</time>
      </trkpt>
      <trkpt lat="0" lon="0">
        <time>2020-12-20T10:45:01.105000+00:00</time>
      </trkpt>
      <trkpt lat="0" lon="0">
        <time>2020-12-20T10:45:01.108000+00:00</time>
      </trkpt>
      <trkpt lat="47.30519" lon="-1.3614">
        <ele>66</ele>
        <time>2020-12-20T10:45:02.082000+00:00</time>
      </trkpt>
      <trkpt lat="0" lon="0">
        <time>2020-12-20T10:45:02.101000+00:00</time>
      </trkpt>
      <trkpt lat="0" lon="0">
        <time>2020-12-20T10:45:02.107000+00:00</time>
      </trkpt>
      <trkpt lat="0" lon="0">
        <time>2020-12-20T10:45:02.110000+00:00</time>
      </trkpt>
      <trkpt lat="47.30516" lon="-1.36145">
        <ele>66</ele>
        <time>2020-12-20T10:45:03.095000+00:00</time>
      </trkpt>
      <trkpt lat="0" lon="0">
        <time>2020-12-20T10:45:03.111000+00:00</time>
      </trkpt>
      <trkpt lat="0" lon="0">
        <time>2020-12-20T10:45:03.116000+00:00</time>
      </trkpt>
      <trkpt lat="0" lon="0">
        <time>2020-12-20T10:45:03.119000+00:00</time>
      </trkpt>
      <trkpt lat="47.30513" lon="-1.36151">
        <ele>65</ele>
        <time>2020-12-20T10:45:04.084000+00:00</time>
      </trkpt>
      <trkpt lat="0" lon="0">
        <time>2020-12-20T10:45:04.091000+00:00</time>
      </trkpt>
      <trkpt lat="0" lon="0">
        <time>2020-12-20T10:45:04.106000+00:00</time>
      </trkpt>
      <trkpt lat="0" lon="0">
        <time>2020-12-20T10:45:04.109000+00:00</time>
      </trkpt>
      <trkpt lat="47.30509" lon="-1.36156">
        <ele>66</ele>
        <time>2020-12-20T10:45:05.068000+00:00</time>
      </trkpt>
      <trkpt lat="0" lon="0">
        <time>2020-12-20T10:45:05.085000+00:00</time>
      </trkpt>
      <trkpt lat="0" lon="0">
        <time>2020-12-20T10:45:05.093000+00:00</time>
      </trkpt>
      <trkpt lat="0" lon="0">
        <time>2020-12-20T10:45:05.095000+00:00</time>
      </trkpt>
      <trkpt lat="47.30506" lon="-1.36161">
        <ele>66</ele>
        <time>2020-12-20T10:45:06.073000+00:00</time>
      </trkpt>
      <trkpt lat="0" lon="0">
        <time>2020-12-20T10:45:06.081000+00:00</time>
      </trkpt>
      <trkpt lat="0" lon="0">
        <time>2020-12-20T10:45:06.086000+00:00</time>
      </trkpt>
      <trkpt lat="0" lon="0">
        <time>2020-12-20T10:45:06.089000+00:00</time>
      </trkpt>
      <trkpt lat="47.30503" lon="-1.36166">
        <ele>66</ele>
        <time>2020-12-20T10:45:06.978000+00:00</time>
      </trkpt>
      <trkpt lat="0" lon="0">
        <time>2020-12-20T10:45:06.997000+00:00</time>
      </trkpt>
      <trkpt lat="0" lon="0">
        <time>2020-12-20T10:45:07.005000+00:00</time>
      </trkpt>
      <trkpt lat="0" lon="0">
        <time>2020-12-20T10:45:07.007000+00:00</time>
      </trkpt>
      <trkpt lat="47.30499" lon="-1.36172">
        <ele>66</ele>
        <time>2020-12-20T10:45:08.042000+00:00</time>
      </trkpt>
      <trkpt lat="0" lon="0">
        <time>2020-12-20T10:45:08.049000+00:00</time>
      </trkpt>
      <trkpt lat="0" lon="0">
        <time>2020-12-20T10:45:08.057000+00:00</time>
      </trkpt>
      <trkpt lat="0" lon="0">
        <time>2020-12-20T10:45:08.059000+00:00</time>
      </trkpt>
      <trkpt lat="47.30496" lon="-1.36177">
        <ele>66</ele>
        <time>2020-12-20T10:45:09.022000+00:00</time>
      </trkpt>
      <trkpt lat="0" lon="0">
        <time>2020-12-20T10:45:09.032000+00:00</time>
      </trkpt>
      <trkpt lat="0" lon="0">
        <time>2020-12-20T10:45:09.036000+00:00</time>
      </trkpt>
      <trkpt lat="0" lon="0">
        <time>2020-12-20T10:45:09.039000+00:00</time>
      </trkpt>
      <trkpt lat="47.30494" lon="-1.36182">
        <ele>66</ele>
        <time>2020-12-20T10:45:10.056000+00:00</time>
      </trkpt>
      <trkpt lat="0" lon="0">
        <time>2020-12-20T10:45:10.069000+00:00</time>
      </trkpt>
      <trkpt lat="0" lon="0">
        <time>2020-12-20T10:45:10.073000+00:00</time>
      </trkpt>
      <trkpt lat="0" lon="0">
        <time>2020-12-20T10:45:10.076000+00:00</time>
      </trkpt>
      <trkpt lat="47.30491" lon="-1.36188">
        <ele>66</ele>
        <time>2020-12-20T10:45:11.056000+00:00</time>
      </trkpt>
      <trkpt lat="0" lon="0">
        <time>2020-12-20T10:45:11.064000+00:00</time>
      </trkpt>
      <trkpt lat="0" lon="0">
        <time>2020-12-20T10:45:11.069000+00:00</time>
      </trkpt>
      <trkpt lat="0" lon="0">
        <time>2020-12-20T10:45:11.071000+00:00</time>
      </trkpt>
      <trkpt lat="47.30488" lon="-1.36193">
        <ele>66</ele>
        <time>2020-12-20T10:45:12.024000+00:00</time>
      </trkpt>
      <trkpt lat="0" lon="0">
        <time>2020-12-20T10:45:12.037000+00:00</time>
      </trkpt>
      <trkpt lat="0" lon="0">
        <time>2020-12-20T10:45:12.045000+00:00</time>
      </trkpt>
      <trkpt lat="0" lon="0">
        <time>2020-12-20T10:45:12.052000+00:00</time>
      </trkpt>
      <trkpt lat="47.30485" lon="-1.36199">
        <ele>65</ele>
        <time>2020-12-20T10:45:12.971000+00:00</time>
      </trkpt>
      <trkpt lat="0" lon="0">
        <time>2020-12-20T10:45:12.972000+00:00</time>
      </trkpt>
      <trkpt lat="0" lon="0">
        <time>2020-12-20T10:45:12.976000+00:00</time>
      </trkpt>
      <trkpt lat="47.30482" lon="-1.36204">
        <ele>66</ele>
        <time>2020-12-20T10:45:14.088000+00:00</time>
      </trkpt>
      <trkpt lat="0" lon="0">
        <time>2020-12-20T10:45:14.094000+00:00</time>
      </trkpt>
      <trkpt lat="0" lon="0">
        <time>2020-12-20T10:45:14.102000+00:00</time>
      </trkpt>
      <trkpt lat="0" lon="0">
        <time>2020-12-20T10:45:14.110000+00:00</time>
      </trkpt>
      <trkpt lat="47.30479" lon="-1.36209">
        <ele>65</ele>
        <time>2020-12-20T10:45:15.049000+00:00</time>
      </trkpt>
      <trkpt lat="0" lon="0">
        <time>2020-12-20T10:45:15.056000+00:00</time>
      </trkpt>
      <trkpt lat="0" lon="0">
        <time>2020-12-20T10:45:15.063000+00:00</time>
      </trkpt>
      <trkpt lat="0" lon="0">
        <time>2020-12-20T10:45:15.065000+00:00</time>
      </trkpt>
      <trkpt lat="47.30477" lon="-1.36214">
        <ele>65</ele>
        <time>2020-12-20T10:45:16.089000+00:00</time>
      </trkpt>
      <trkpt lat="0" lon="0">
        <time>2020-12-20T10:45:16.095000+00:00</time>
      </trkpt>
      <trkpt lat="0" lon="0">
        <time>2020-12-20T10:45:16.098000+00:00</time>
      </trkpt>
      <trkpt lat="0" lon="0">
        <time>2020-12-20T10:45:16.102000+00:00</time>
      </trkpt>
      <trkpt lat="47.30474" lon="-1.36219">
        <ele>65</ele>
        <time>2020-12-20T10:45:17.082000+00:00</time>
      </trkpt>
      <trkpt lat="0" lon="0">
        <time>2020-12-20T10:45:17.092000+00:00</time>
      </trkpt>
      <trkpt lat="0" lon="0">
        <time>2020-12-20T10:45:17.098000+00:00</time>
      </trkpt>
      <trkpt lat="0" lon="0">
        <time>2020-12-20T10:45:17.101000+00:00</time>
      </trkpt>
      <trkpt lat="47.30471" lon="-1.36225">
        <ele>65</ele>
        <time>2020-12-20T10:45:18.087000+00:00</time>
      </trkpt>
      <trkpt lat="0" lon="0">
        <time>2020-12-20T10:45:18.094000+00:00</time>
      </trkpt>
      <trkpt lat="0" lon="0">
        <time>2020-12-20T10:45:18.104000+00:00</time>
      </trkpt>
      <trkpt lat="0" lon="0">
        <time>2020-12-20T10:45:18.109000+00:00</time>
      </trkpt>
      <trkpt lat="47.30468" lon="-1.3623">
        <ele>65</ele>
        <time>2020-12-20T10:45:19.078000+00:00</time>
      </trkpt>
      <trkpt lat="0" lon="0">
        <time>2020-12-20T10:45:19.092000+00:00</time>
      </trkpt>
      <trkpt lat="0" lon="0">
        <time>2020-12-20T10:45:19.097000+00:00</time>
      </trkpt>
      <trkpt lat="0" lon="0">
        <time>2020-12-20T10:45:19.101000+00:00</time>
      </trkpt>
      <trkpt lat="47.30465" lon="-1.36235">
        <ele>66</ele>
        <time>2020-12-20T10:45:20.054000+00:00</time>
      </trkpt>
      <trkpt lat="0" lon="0">
        <time>2020-12-20T10:45:20.064000+00:00</time>
      </trkpt>
      <trkpt lat="0" lon="0">
        <time>2020-12-20T10:45:20.068000+00:00</time>
      </trkpt>
      <trkpt lat="0" lon="0">
        <time>2020-12-20T10:45:20.071000+00:00</time>
      </trkpt>
      <trkpt lat="47.30462" lon="-1.3624">
        <ele>66</ele>
        <time>2020-12-20T10:45:21.074000+00:00</time>
      </trkpt>
      <trkpt lat="0" lon="0">
        <time>2020-12-20T10:45:21.086000+00:00</time>
      </trkpt>
      <trkpt lat="0" lon="0">
        <time>2020-12-20T10:45:21.094000+00:00</time>
      </trkpt>
      <trkpt lat="0" lon="0">
        <time>2020-12-20T10:45:21.097000+00:00</time>
      </trkpt>
      <trkpt lat="47.30459" lon="-1.36245">
        <ele>67</ele>
        <time>2020-12-20T10:45:22.078000+00:00</time>
      </trkpt>
      <trkpt lat="0" lon="0">
        <time>2020-12-20T10:45:22.089000+00:00</time>
      </trkpt>
      <trkpt lat="0" lon="0">
        <time>2020-12-20T10:45:22.098000+00:00</time>
      </trkpt>
      <trkpt lat="0" lon="0">
        <time>2020-12-20T10:45:22.100000+00:00</time>
      </trkpt>
      <trkpt lat="47.30457" lon="-1.3625">
        <ele>67</ele>
        <time>2020-12-20T10:45:23.098000+00:00</time>
      </trkpt>
      <trkpt lat="0" lon="0">
        <time>2020-12-20T10:45:23.106000+00:00</time>
      </trkpt>
      <trkpt lat="0" lon="0">
        <time>2020-12-20T10:45:23.111000+00:00</time>
      </trkpt>
      <trkpt lat="0" lon="0">
        <time>2020-12-20T10:45:23.114000+00:00</time>
      </trkpt>
      <trkpt lat="47.30454" lon="-1.36255">
        <ele>67</ele>
        <time>2020-12-20T10:45:24.086000+00:00</time>
      </trkpt>
      <trkpt lat="0" lon="0">
        <time>2020-12-20T10:45:24.109000+00:00</time>
      </trkpt>
      <trkpt lat="0" lon="0">
        <time>2020-12-20T10:45:24.115000+00:00</time>
      </trkpt>
      <trkpt lat="0" lon="0">
        <time>2020-12-20T10:45:24.117000+00:00</time>
      </trkpt>
      <trkpt lat="47.30451" lon="-1.3626">
        <ele>68</ele>
        <time>2020-12-20T10:45:25.089000+00:00</time>
      </trkpt>
      <trkpt lat="0" lon="0">
        <time>2020-12-20T10:45:25.097000+00:00</time>
      </trkpt>
      <trkpt lat="0" lon="0">
        <time>2020-12-20T10:45:25.101000+00:00</time>
      </trkpt>
      <trkpt lat="0" lon="0">
        <time>2020-12-20T10:45:25.105000+00:00</time>
      </trkpt>
      <trkpt lat="47.30449" lon="-1.36266">
        <ele>68</ele>
        <time>2020-12-20T10:45:26.086000+00:00</time>
      </trkpt>
      <trkpt lat="0" lon="0">
        <time>2020-12-20T10:45:26.097000+00:00</time>
      </trkpt>
      <trkpt lat="0" lon="0">
        <time>2020-12-20T10:45:26.099000+00:00</time>
      </trkpt>
      <trkpt lat="0" lon="0">
        <time>2020-12-20T10:45:26.100000+00:00</time>
      </trkpt>
      <trkpt lat="47.30446" lon="-1.36271">
        <ele>68</ele>
        <time>2020-12-20T10:45:27.095000+00:00</time>
      </trkpt>
      <trkpt lat="0" lon="0">
        <time>2020-12-20T10:45:27.113000+00:00</time>
      </trkpt>
      <trkpt lat="0" lon="0">
        <time>2020-12-20T10:45:27.128000+00:00</time>
      </trkpt>
      <trkpt lat="0" lon="0">
        <time>2020-12-20T10:45:27.134000+00:00</time>
      </trkpt>
      <trkpt lat="47.30444" lon="-1.36277">
        <ele>69</ele>
        <time>2020-12-20T10:45:28.052000+00:00</time>
      </trkpt>
      <trkpt lat="0" lon="0">
        <time>2020-12-20T10:45:28.068000+00:00</time>
      </trkpt>
      <trkpt lat="0" lon="0">
        <time>2020-12-20T10:45:28.077000+00:00</time>
      </trkpt>
      <trkpt lat="0" lon="0">
        <time>2020-12-20T10:45:28.079000+00:00</time>
      </trkpt>
      <trkpt lat="47.30441" lon="-1.36282">
        <ele>69</ele>
        <time>2020-12-20T10:45:29.104000+00:00</time>
      </trkpt>
      <trkpt lat="0" lon="0">
        <time>2020-12-20T10:45:29.113000+00:00</time>
      </trkpt>
      <trkpt lat="0" lon="0">
        <time>2020-12-20T10:45:29.118000+00:00</time>
      </trkpt>
      <trkpt lat="0" lon="0">
        <time>2020-12-20T10:45:29.122000+00:00</time>
      </trkpt>
      <trkpt lat="47.30439" lon="-1.36287">
        <ele>69</ele>
        <time>2020-12-20T10:45:30.098000+00:00</time>
      </trkpt>
      <trkpt lat="0" lon="0">
        <time>2020-12-20T10:45:30.110000+00:00</time>
      </trkpt>
      <trkpt lat="0" lon="0">
        <time>2020-12-20T10:45:30.115000+00:00</time>
      </trkpt>
      <trkpt lat="0" lon="0">
        <time>2020-12-20T10:45:30.118000+00:00</time>
      </trkpt>
      <trkpt lat="47.30436" lon="-1.36293">
        <ele>68</ele>
        <time>2020-12-20T10:45:31.051000+00:00</time>
      </trkpt>
      <trkpt lat="0" lon="0">
        <time>2020-12-20T10:45:31.064000+00:00</time>
      </trkpt>
      <trkpt lat="0" lon="0">
        <time>2020-12-20T10:45:31.072000+00:00</time>
      </trkpt>
      <trkpt lat="0" lon="0">
        <time>2020-12-20T10:45:31.074000+00:00</time>
      </trkpt>
      <trkpt lat="47.30433" lon="-1.36298">
        <ele>68</ele>
        <time>2020-12-20T10:45:32.055000+00:00</time>
      </trkpt>
      <trkpt lat="0" lon="0">
        <time>2020-12-20T10:45:32.064000+00:00</time>
      </trkpt>
      <trkpt lat="0" lon="0">
        <time>2020-12-20T10:45:32.070000+00:00</time>
      </trkpt>
      <trkpt lat="0" lon="0">
        <time>2020-12-20T10:45:32.076000+00:00</time>
      </trkpt>
      <trkpt lat="47.3043" lon="-1.36304">
        <ele>68</ele>
        <time>2020-12-20T10:45:33.014000+00:00</time>
      </trkpt>
      <trkpt lat="0" lon="0">
        <time>2020-12-20T10:45:33.018000+00:00</time>
      </trkpt>
      <trkpt lat="0" lon="0">
        <time>2020-12-20T10:45:33.023000+00:00</time>
      </trkpt>
      <trkpt lat="0" lon="0">
        <time>2020-12-20T10:45:33.026000+00:00</time>
      </trkpt>
      <trkpt lat="47.30427" lon="-1.3631">
        <ele>68</ele>
        <time>2020-12-20T10:45:34.052000+00:00</time>
      </trkpt>
      <trkpt lat="0" lon="0">
        <time>2020-12-20T10:45:34.066000+00:00</time>
      </trkpt>
      <trkpt lat="0" lon="0">
        <time>2020-12-20T10:45:34.076000+00:00</time>
      </trkpt>
      <trkpt lat="0" lon="0">
        <time>2020-12-20T10:45:34.081000+00:00</time>
      </trkpt>
      <trkpt lat="47.30425" lon="-1.36315">
        <ele>68</ele>
        <time>2020-12-20T10:45:35.035000+00:00</time>
      </trkpt>
      <trkpt lat="0" lon="0">
        <time>2020-12-20T10:45:35.047000+00:00</time>
      </trkpt>
      <trkpt lat="0" lon="0">
        <time>2020-12-20T10:45:35.053000+00:00</time>
      </trkpt>
      <trkpt lat="0" lon="0">
        <time>2020-12-20T10:45:35.054000+00:00</time>
      </trkpt>
      <trkpt lat="47.30422" lon="-1.36321">
        <ele>68</ele>
        <time>2020-12-20T10:45:36.065000+00:00</time>
      </trkpt>
      <trkpt lat="0" lon="0">
        <time>2020-12-20T10:45:36.079000+00:00</time>
      </trkpt>
      <trkpt lat="0" lon="0">
        <time>2020-12-20T10:45:36.085000+00:00</time>
      </trkpt>
      <trkpt lat="0" lon="0">
        <time>2020-12-20T10:45:36.088000+00:00</time>
      </trkpt>
      <trkpt lat="47.30419" lon="-1.36326">
        <ele>68</ele>
        <time>2020-12-20T10:45:37.082000+00:00</time>
      </trkpt>
      <trkpt lat="0" lon="0">
        <time>2020-12-20T10:45:37.100000+00:00</time>
      </trkpt>
      <trkpt lat="0" lon="0">
        <time>2020-12-20T10:45:37.105000+00:00</time>
      </trkpt>
      <trkpt lat="0" lon="0">
        <time>2020-12-20T10:45:37.107000+00:00</time>
      </trkpt>
      <trkpt lat="47.30417" lon="-1.36332">
        <ele>69</ele>
        <time>2020-12-20T10:45:38.021000+00:00</time>
      </trkpt>
      <trkpt lat="0" lon="0">
        <time>2020-12-20T10:45:38.022000+00:00</time>
      </trkpt>
      <trkpt lat="0" lon="0">
        <time>2020-12-20T10:45:38.023000+00:00</time>
      </trkpt>
      <trkpt lat="0" lon="0">
        <time>2020-12-20T10:45:38.024000+00:00</time>
      </trkpt>
      <trkpt lat="47.30414" lon="-1.36337">
        <ele>69</ele>
        <time>2020-12-20T10:45:39.040000+00:00</time>
      </trkpt>
      <trkpt lat="0" lon="0">
        <time>2020-12-20T10:45:39.055000+00:00</time>
      </trkpt>
      <trkpt lat="0" lon="0">
        <time>2020-12-20T10:45:39.061000+00:00</time>
      </trkpt>
      <trkpt lat="0" lon="0">
        <time>2020-12-20T10:45:39.063000+00:00</time>
      </trkpt>
      <trkpt lat="47.30412" lon="-1.36342">
        <ele>69</ele>
        <time>2020-12-20T10:45:40.049000+00:00</time>
      </trkpt>
      <trkpt lat="0" lon="0">
        <time>2020-12-20T10:45:40.057000+00:00</time>
      </trkpt>
      <trkpt lat="0" lon="0">
        <time>2020-12-20T10:45:40.062000+00:00</time>
      </trkpt>
      <trkpt lat="0" lon="0">
        <time>2020-12-20T10:45:40.063000+00:00</time>
      </trkpt>
      <trkpt lat="47.3041" lon="-1.36348">
        <ele>70</ele>
        <time>2020-12-20T10:45:41.066000+00:00</time>
      </trkpt>
      <trkpt lat="0" lon="0">
        <time>2020-12-20T10:45:41.075000+00:00</time>
      </trkpt>
      <trkpt lat="0" lon="0">
        <time>2020-12-20T10:45:41.079000+00:00</time>
      </trkpt>
      <trkpt lat="0" lon="0">
        <time>2020-12-20T10:45:41.082000+00:00</time>
      </trkpt>
      <trkpt lat="47.30408" lon="-1.36353">
        <ele>70</ele>
        <time>2020-12-20T10:45:42.059000+00:00</time>
      </trkpt>
      <trkpt lat="0" lon="0">
        <time>2020-12-20T10:45:42.066000+00:00</time>
      </trkpt>
      <trkpt lat="0" lon="0">
        <time>2020-12-20T10:45:42.074000+00:00</time>
      </trkpt>
      <trkpt lat="0" lon="0">
        <time>2020-12-20T10:45:42.077000+00:00</time>
      </trkpt>
      <trkpt lat="47.30406" lon="-1.36359">
        <ele>70</ele>
        <time>2020-12-20T10:45:43.067000+00:00</time>
      </trkpt>
      <trkpt lat="0" lon="0">
        <time>2020-12-20T10:45:43.071000+00:00</time>
      </trkpt>
      <trkpt lat="0" lon="0">
        <time>2020-12-20T10:45:43.077000+00:00</time>
      </trkpt>
      <trkpt lat="0" lon="0">
        <time>2020-12-20T10:45:43.080000+00:00</time>
      </trkpt>
      <trkpt lat="47.30404" lon="-1.36365">
        <ele>70</ele>
        <time>2020-12-20T10:45:44.066000+00:00</time>
      </trkpt>
      <trkpt lat="0" lon="0">
        <time>2020-12-20T10:45:44.069000+00:00</time>
      </trkpt>
      <trkpt lat="0" lon="0">
        <time>2020-12-20T10:45:44.071000+00:00</time>
      </trkpt>
      <trkpt lat="0" lon="0">
        <time>2020-12-20T10:45:44.072000+00:00</time>
      </trkpt>
      <trkpt lat="47.30401" lon="-1.3637">
        <ele>70</ele>
        <time>2020-12-20T10:45:45.091000+00:00</time>
      </trkpt>
      <trkpt lat="0" lon="0">
        <time>2020-12-20T10:45:45.097000+00:00</time>
      </trkpt>
      <trkpt lat="0" lon="0">
        <time>2020-12-20T10:45:45.101000+00:00</time>
      </trkpt>
      <trkpt lat="0" lon="0">
        <time>2020-12-20T10:45:45.104000+00:00</time>
      </trkpt>
      <trkpt lat="47.30398" lon="-1.36376">
        <ele>70</ele>
        <time>2020-12-20T10:45:46.048000+00:00</time>
      </trkpt>
      <trkpt lat="0" lon="0">
        <time>2020-12-20T10:45:46.054000+00:00</time>
      </trkpt>
      <trkpt lat="0" lon="0">
        <time>2020-12-20T10:45:46.069000+00:00</time>
      </trkpt>
      <trkpt lat="0" lon="0">
        <time>2020-12-20T10:45:46.070000+00:00</time>
      </trkpt>
      <trkpt lat="47.30396" lon="-1.36382">
        <ele>71</ele>
        <time>2020-12-20T10:45:47.042000+00:00</time>
      </trkpt>
      <trkpt lat="0" lon="0">
        <time>2020-12-20T10:45:47.050000+00:00</time>
      </trkpt>
      <trkpt lat="0" lon="0">
        <time>2020-12-20T10:45:47.056000+00:00</time>
      </trkpt>
      <trkpt lat="0" lon="0">
        <time>2020-12-20T10:45:47.058000+00:00</time>
      </trkpt>
      <trkpt lat="47.30393" lon="-1.36388">
        <ele>71</ele>
        <time>2020-12-20T10:45:48.062000+00:00</time>
      </trkpt>
      <trkpt lat="0" lon="0">
        <time>2020-12-20T10:45:48.071000+00:00</time>
      </trkpt>
      <trkpt lat="0" lon="0">
        <time>2020-12-20T10:45:48.076000+00:00</time>
      </trkpt>
      <trkpt lat="0" lon="0">
        <time>2020-12-20T10:45:48.082000+00:00</time>
      </trkpt>
      <trkpt lat="47.3039" lon="-1.36394">
        <ele>71</ele>
        <time>2020-12-20T10:45:49.093000+00:00</time>
      </trkpt>
      <trkpt lat="0" lon="0">
        <time>2020-12-20T10:45:49.104000+00:00</time>
      </trkpt>
      <trkpt lat="0" lon="0">
        <time>2020-12-20T10:45:49.108000+00:00</time>
      </trkpt>
      <trkpt lat="0" lon="0">
        <time>2020-12-20T10:45:49.109000+00:00</time>
      </trkpt>
      <trkpt lat="47.30388" lon="-1.364">
        <ele>71</ele>
        <time>2020-12-20T10:45:50.057000+00:00</time>
      </trkpt>
      <trkpt lat="0" lon="0">
        <time>2020-12-20T10:45:50.069000+00:00</time>
      </trkpt>
      <trkpt lat="0" lon="0">
        <time>2020-12-20T10:45:50.073000+00:00</time>
      </trkpt>
      <trkpt lat="0" lon="0">
        <time>2020-12-20T10:45:50.075000+00:00</time>
      </trkpt>
      <trkpt lat="47.30385" lon="-1.36405">
        <ele>70</ele>
        <time>2020-12-20T10:45:51.082000+00:00</time>
      </trkpt>
      <trkpt lat="0" lon="0">
        <time>2020-12-20T10:45:51.095000+00:00</time>
      </trkpt>
      <trkpt lat="0" lon="0">
        <time>2020-12-20T10:45:51.102000+00:00</time>
      </trkpt>
      <trkpt lat="0" lon="0">
        <time>2020-12-20T10:45:51.105000+00:00</time>
      </trkpt>
      <trkpt lat="47.30381" lon="-1.36411">
        <ele>70</ele>
        <time>2020-12-20T10:45:52.094000+00:00</time>
      </trkpt>
      <trkpt lat="0" lon="0">
        <time>2020-12-20T10:45:52.103000+00:00</time>
      </trkpt>
      <trkpt lat="0" lon="0">
        <time>2020-12-20T10:45:52.108000+00:00</time>
      </trkpt>
      <trkpt lat="0" lon="0">
        <time>2020-12-20T10:45:52.112000+00:00</time>
      </trkpt>
      <trkpt lat="47.30378" lon="-1.36416">
        <ele>70</ele>
        <time>2020-12-20T10:45:53.077000+00:00</time>
      </trkpt>
      <trkpt lat="0" lon="0">
        <time>2020-12-20T10:45:53.088000+00:00</time>
      </trkpt>
      <trkpt lat="0" lon="0">
        <time>2020-12-20T10:45:53.093000+00:00</time>
      </trkpt>
      <trkpt lat="0" lon="0">
        <time>2020-12-20T10:45:53.095000+00:00</time>
      </trkpt>
      <trkpt lat="47.30375" lon="-1.36422">
        <ele>70</ele>
        <time>2020-12-20T10:45:54.113000+00:00</time>
      </trkpt>
      <trkpt lat="0" lon="0">
        <time>2020-12-20T10:45:54.123000+00:00</time>
      </trkpt>
      <trkpt lat="0" lon="0">
        <time>2020-12-20T10:45:54.128000+00:00</time>
      </trkpt>
      <trkpt lat="0" lon="0">
        <time>2020-12-20T10:45:54.131000+00:00</time>
      </trkpt>
      <trkpt lat="47.30372" lon="-1.36427">
        <ele>70</ele>
        <time>2020-12-20T10:45:55.089000+00:00</time>
      </trkpt>
      <trkpt lat="0" lon="0">
        <time>2020-12-20T10:45:55.097000+00:00</time>
      </trkpt>
      <trkpt lat="0" lon="0">
        <time>2020-12-20T10:45:55.099000+00:00</time>
      </trkpt>
      <trkpt lat="0" lon="0">
        <time>2020-12-20T10:45:55.100000+00:00</time>
      </trkpt>
      <trkpt lat="47.30369" lon="-1.36432">
        <ele>70</ele>
        <time>2020-12-20T10:45:56.084000+00:00</time>
      </trkpt>
      <trkpt lat="0" lon="0">
        <time>2020-12-20T10:45:56.088000+00:00</time>
      </trkpt>
      <trkpt lat="0" lon="0">
        <time>2020-12-20T10:45:56.094000+00:00</time>
      </trkpt>
      <trkpt lat="0" lon="0">
        <time>2020-12-20T10:45:56.095000+00:00</time>
      </trkpt>
      <trkpt lat="47.30366" lon="-1.36438">
        <ele>70</ele>
        <time>2020-12-20T10:45:57.085000+00:00</time>
      </trkpt>
      <trkpt lat="0" lon="0">
        <time>2020-12-20T10:45:57.091000+00:00</time>
      </trkpt>
      <trkpt lat="0" lon="0">
        <time>2020-12-20T10:45:57.097000+00:00</time>
      </trkpt>
      <trkpt lat="0" lon="0">
        <time>2020-12-20T10:45:57.099000+00:00</time>
      </trkpt>
      <trkpt lat="47.30363" lon="-1.36443">
        <ele>70</ele>
        <time>2020-12-20T10:45:58.069000+00:00</time>
      </trkpt>
      <trkpt lat="0" lon="0">
        <time>2020-12-20T10:45:58.093000+00:00</time>
      </trkpt>
      <trkpt lat="0" lon="0">
        <time>2020-12-20T10:45:58.098000+00:00</time>
      </trkpt>
      <trkpt lat="0" lon="0">
        <time>2020-12-20T10:45:58.100000+00:00</time>
      </trkpt>
      <trkpt lat="47.30361" lon="-1.36449">
        <ele>70</ele>
        <time>2020-12-20T10:45:59.084000+00:00</time>
      </trkpt>
      <trkpt lat="0" lon="0">
        <time>2020-12-20T10:45:59.091000+00:00</time>
      </trkpt>
      <trkpt lat="0" lon="0">
        <time>2020-12-20T10:45:59.095000+00:00</time>
      </trkpt>
      <trkpt lat="0" lon="0">
        <time>2020-12-20T10:45:59.098000+00:00</time>
      </trkpt>
      <trkpt lat="47.30358" lon="-1.36455">
        <ele>70</ele>
        <time>2020-12-20T10:46:00.077000+00:00</time>
      </trkpt>
      <trkpt lat="0" lon="0">
        <time>2020-12-20T10:46:00.085000+00:00</time>
      </trkpt>
      <trkpt lat="0" lon="0">
        <time>2020-12-20T10:46:00.095000+00:00</time>
      </trkpt>
      <trkpt lat="0" lon="0">
        <time>2020-12-20T10:46:00.098000+00:00</time>
      </trkpt>
      <trkpt lat="47.30356" lon="-1.3646">
        <ele>70</ele>
        <time>2020-12-20T10:46:01.098000+00:00</time>
      </trkpt>
      <trkpt lat="0" lon="0">
        <time>2020-12-20T10:46:01.130000+00:00</time>
      </trkpt>
      <trkpt lat="0" lon="0">
        <time>2020-12-20T10:46:01.134000+00:00</time>
      </trkpt>
      <trkpt lat="0" lon="0">
        <time>2020-12-20T10:46:01.135000+00:00</time>
      </trkpt>
      <trkpt lat="47.30354" lon="-1.36466">
        <ele>70</ele>
        <time>2020-12-20T10:46:02.099000+00:00</time>
      </trkpt>
      <trkpt lat="0" lon="0">
        <time>2020-12-20T10:46:02.104000+00:00</time>
      </trkpt>
      <trkpt lat="0" lon="0">
        <time>2020-12-20T10:46:02.107000+00:00</time>
      </trkpt>
      <trkpt lat="0" lon="0">
        <time>2020-12-20T10:46:02.108000+00:00</time>
      </trkpt>
      <trkpt lat="47.30351" lon="-1.36472">
        <ele>69</ele>
        <time>2020-12-20T10:46:03.066000+00:00</time>
      </trkpt>
      <trkpt lat="0" lon="0">
        <time>2020-12-20T10:46:03.079000+00:00</time>
      </trkpt>
      <trkpt lat="0" lon="0">
        <time>2020-12-20T10:46:03.088000+00:00</time>
      </trkpt>
      <trkpt lat="0" lon="0">
        <time>2020-12-20T10:46:03.091000+00:00</time>
      </trkpt>
      <trkpt lat="47.30349" lon="-1.36478">
        <ele>69</ele>
        <time>2020-12-20T10:46:04.074000+00:00</time>
      </trkpt>
      <trkpt lat="0" lon="0">
        <time>2020-12-20T10:46:04.099000+00:00</time>
      </trkpt>
      <trkpt lat="0" lon="0">
        <time>2020-12-20T10:46:04.104000+00:00</time>
      </trkpt>
      <trkpt lat="0" lon="0">
        <time>2020-12-20T10:46:04.109000+00:00</time>
      </trkpt>
      <trkpt lat="47.30347" lon="-1.36484">
        <ele>69</ele>
        <time>2020-12-20T10:46:05.087000+00:00</time>
      </trkpt>
      <trkpt lat="0" lon="0">
        <time>2020-12-20T10:46:05.099000+00:00</time>
      </trkpt>
      <trkpt lat="0" lon="0">
        <time>2020-12-20T10:46:05.108000+00:00</time>
      </trkpt>
      <trkpt lat="0" lon="0">
        <time>2020-12-20T10:46:05.111000+00:00</time>
      </trkpt>
      <trkpt lat="47.30344" lon="-1.3649">
        <ele>69</ele>
        <time>2020-12-20T10:46:06.055000+00:00</time>
      </trkpt>
      <trkpt lat="0" lon="0">
        <time>2020-12-20T10:46:06.070000+00:00</time>
      </trkpt>
      <trkpt lat="0" lon="0">
        <time>2020-12-20T10:46:06.080000+00:00</time>
      </trkpt>
      <trkpt lat="0" lon="0">
        <time>2020-12-20T10:46:06.086000+00:00</time>
      </trkpt>
      <trkpt lat="47.30342" lon="-1.36496">
        <ele>69</ele>
        <time>2020-12-20T10:46:06.986000+00:00</time>
      </trkpt>
      <trkpt lat="0" lon="0">
        <time>2020-12-20T10:46:06.989000+00:00</time>
      </trkpt>
      <trkpt lat="0" lon="0">
        <time>2020-12-20T10:46:06.991000+00:00</time>
      </trkpt>
      <trkpt lat="0" lon="0">
        <time>2020-12-20T10:46:06.992000+00:00</time>
      </trkpt>
      <trkpt lat="47.30339" lon="-1.36502">
        <ele>69</ele>
        <time>2020-12-20T10:46:08.102000+00:00</time>
      </trkpt>
      <trkpt lat="0" lon="0">
        <time>2020-12-20T10:46:08.112000+00:00</time>
      </trkpt>
      <trkpt lat="0" lon="0">
        <time>2020-12-20T10:46:08.118000+00:00</time>
      </trkpt>
      <trkpt lat="0" lon="0">
        <time>2020-12-20T10:46:08.124000+00:00</time>
      </trkpt>
      <trkpt lat="47.30336" lon="-1.36507">
        <ele>69</ele>
        <time>2020-12-20T10:46:09.076000+00:00</time>
      </trkpt>
      <trkpt lat="0" lon="0">
        <time>2020-12-20T10:46:09.090000+00:00</time>
      </trkpt>
      <trkpt lat="0" lon="0">
        <time>2020-12-20T10:46:09.093000+00:00</time>
      </trkpt>
      <trkpt lat="0" lon="0">
        <time>2020-12-20T10:46:09.094000+00:00</time>
      </trkpt>
      <trkpt lat="47.30333" lon="-1.36513">
        <ele>69</ele>
        <time>2020-12-20T10:46:10.081000+00:00</time>
      </trkpt>
      <trkpt lat="0" lon="0">
        <time>2020-12-20T10:46:10.093000+00:00</time>
      </trkpt>
      <trkpt lat="0" lon="0">
        <time>2020-12-20T10:46:10.097000+00:00</time>
      </trkpt>
      <trkpt lat="0" lon="0">
        <time>2020-12-20T10:46:10.099000+00:00</time>
      </trkpt>
      <trkpt lat="47.3033" lon="-1.36519">
        <ele>69</ele>
        <time>2020-12-20T10:46:11.051000+00:00</time>
      </trkpt>
      <trkpt lat="0" lon="0">
        <time>2020-12-20T10:46:11.066000+00:00</time>
      </trkpt>
      <trkpt lat="0" lon="0">
        <time>2020-12-20T10:46:11.069000+00:00</time>
      </trkpt>
      <trkpt lat="0" lon="0">
        <time>2020-12-20T10:46:11.072000+00:00</time>
      </trkpt>
      <trkpt lat="47.30327" lon="-1.36525">
        <ele>69</ele>
        <time>2020-12-20T10:46:12.037000+00:00</time>
      </trkpt>
      <trkpt lat="0" lon="0">
        <time>2020-12-20T10:46:12.046000+00:00</time>
      </trkpt>
      <trkpt lat="0" lon="0">
        <time>2020-12-20T10:46:12.051000+00:00</time>
      </trkpt>
      <trkpt lat="0" lon="0">
        <time>2020-12-20T10:46:12.054000+00:00</time>
      </trkpt>
      <trkpt lat="47.30324" lon="-1.3653">
        <ele>69</ele>
        <time>2020-12-20T10:46:13.086000+00:00</time>
      </trkpt>
      <trkpt lat="0" lon="0">
        <time>2020-12-20T10:46:13.111000+00:00</time>
      </trkpt>
      <trkpt lat="0" lon="0">
        <time>2020-12-20T10:46:13.121000+00:00</time>
      </trkpt>
      <trkpt lat="0" lon="0">
        <time>2020-12-20T10:46:13.122000+00:00</time>
      </trkpt>
      <trkpt lat="47.30321" lon="-1.36536">
        <ele>70</ele>
        <time>2020-12-20T10:46:14.068000+00:00</time>
      </trkpt>
      <trkpt lat="0" lon="0">
        <time>2020-12-20T10:46:14.075000+00:00</time>
      </trkpt>
      <trkpt lat="0" lon="0">
        <time>2020-12-20T10:46:14.080000+00:00</time>
      </trkpt>
      <trkpt lat="0" lon="0">
        <time>2020-12-20T10:46:14.083000+00:00</time>
      </trkpt>
      <trkpt lat="47.30318" lon="-1.36542">
        <ele>69</ele>
        <time>2020-12-20T10:46:15.070000+00:00</time>
      </trkpt>
      <trkpt lat="0" lon="0">
        <time>2020-12-20T10:46:15.086000+00:00</time>
      </trkpt>
      <trkpt lat="0" lon="0">
        <time>2020-12-20T10:46:15.090000+00:00</time>
      </trkpt>
      <trkpt lat="0" lon="0">
        <time>2020-12-20T10:46:15.092000+00:00</time>
      </trkpt>
      <trkpt lat="47.30316" lon="-1.36547">
        <ele>69</ele>
        <time>2020-12-20T10:46:16.067000+00:00</time>
      </trkpt>
      <trkpt lat="0" lon="0">
        <time>2020-12-20T10:46:16.078000+00:00</time>
      </trkpt>
      <trkpt lat="0" lon="0">
        <time>2020-12-20T10:46:16.084000+00:00</time>
      </trkpt>
      <trkpt lat="0" lon="0">
        <time>2020-12-20T10:46:16.087000+00:00</time>
      </trkpt>
      <trkpt lat="47.30313" lon="-1.36553">
        <ele>69</ele>
        <time>2020-12-20T10:46:17.036000+00:00</time>
      </trkpt>
      <trkpt lat="0" lon="0">
        <time>2020-12-20T10:46:17.045000+00:00</time>
      </trkpt>
      <trkpt lat="0" lon="0">
        <time>2020-12-20T10:46:17.051000+00:00</time>
      </trkpt>
      <trkpt lat="0" lon="0">
        <time>2020-12-20T10:46:17.053000+00:00</time>
      </trkpt>
      <trkpt lat="47.30311" lon="-1.36558">
        <ele>69</ele>
        <time>2020-12-20T10:46:18.075000+00:00</time>
      </trkpt>
      <trkpt lat="0" lon="0">
        <time>2020-12-20T10:46:18.084000+00:00</time>
      </trkpt>
      <trkpt lat="0" lon="0">
        <time>2020-12-20T10:46:18.089000+00:00</time>
      </trkpt>
      <trkpt lat="0" lon="0">
        <time>2020-12-20T10:46:18.091000+00:00</time>
      </trkpt>
      <trkpt lat="47.30308" lon="-1.36563">
        <ele>70</ele>
        <time>2020-12-20T10:46:19.095000+00:00</time>
      </trkpt>
      <trkpt lat="0" lon="0">
        <time>2020-12-20T10:46:19.109000+00:00</time>
      </trkpt>
      <trkpt lat="0" lon="0">
        <time>2020-12-20T10:46:19.113000+00:00</time>
      </trkpt>
      <trkpt lat="0" lon="0">
        <time>2020-12-20T10:46:19.115000+00:00</time>
      </trkpt>
      <trkpt lat="47.30306" lon="-1.36568">
        <ele>70</ele>
        <time>2020-12-20T10:46:20.056000+00:00</time>
      </trkpt>
      <trkpt lat="0" lon="0">
        <time>2020-12-20T10:46:20.058000+00:00</time>
      </trkpt>
      <trkpt lat="0" lon="0">
        <time>2020-12-20T10:46:20.060000+00:00</time>
      </trkpt>
      <trkpt lat="0" lon="0">
        <time>2020-12-20T10:46:20.061000+00:00</time>
      </trkpt>
      <trkpt lat="47.30303" lon="-1.36573">
        <ele>70</ele>
        <time>2020-12-20T10:46:21.096000+00:00</time>
      </trkpt>
      <trkpt lat="0" lon="0">
        <time>2020-12-20T10:46:21.105000+00:00</time>
      </trkpt>
      <trkpt lat="0" lon="0">
        <time>2020-12-20T10:46:21.110000+00:00</time>
      </trkpt>
      <trkpt lat="0" lon="0">
        <time>2020-12-20T10:46:21.114000+00:00</time>
      </trkpt>
      <trkpt lat="47.30301" lon="-1.36578">
        <ele>69</ele>
        <time>2020-12-20T10:46:22.086000+00:00</time>
      </trkpt>
      <trkpt lat="0" lon="0">
        <time>2020-12-20T10:46:22.106000+00:00</time>
      </trkpt>
      <trkpt lat="0" lon="0">
        <time>2020-12-20T10:46:22.110000+00:00</time>
      </trkpt>
      <trkpt lat="0" lon="0">
        <time>2020-12-20T10:46:22.111000+00:00</time>
      </trkpt>
      <trkpt lat="47.30298" lon="-1.36582">
        <ele>69</ele>
        <time>2020-12-20T10:46:23.063000+00:00</time>
      </trkpt>
      <trkpt lat="0" lon="0">
        <time>2020-12-20T10:46:23.076000+00:00</time>
      </trkpt>
      <trkpt lat="0" lon="0">
        <time>2020-12-20T10:46:23.081000+00:00</time>
      </trkpt>
      <trkpt lat="0" lon="0">
        <time>2020-12-20T10:46:23.083000+00:00</time>
      </trkpt>
      <trkpt lat="47.30296" lon="-1.36587">
        <ele>69</ele>
        <time>2020-12-20T10:46:24.097000+00:00</time>
      </trkpt>
      <trkpt lat="0" lon="0">
        <time>2020-12-20T10:46:24.108000+00:00</time>
      </trkpt>
      <trkpt lat="0" lon="0">
        <time>2020-12-20T10:46:24.113000+00:00</time>
      </trkpt>
      <trkpt lat="0" lon="0">
        <time>2020-12-20T10:46:24.117000+00:00</time>
      </trkpt>
      <trkpt lat="47.30293" lon="-1.36592">
        <ele>69</ele>
        <time>2020-12-20T10:46:25.057000+00:00</time>
      </trkpt>
      <trkpt lat="0" lon="0">
        <time>2020-12-20T10:46:25.067000+00:00</time>
      </trkpt>
      <trkpt lat="0" lon="0">
        <time>2020-12-20T10:46:25.069000+00:00</time>
      </trkpt>
      <trkpt lat="0" lon="0">
        <time>2020-12-20T10:46:25.071000+00:00</time>
      </trkpt>
      <trkpt lat="47.30291" lon="-1.36596">
        <ele>69</ele>
        <time>2020-12-20T10:46:26.042000+00:00</time>
      </trkpt>
      <trkpt lat="0" lon="0">
        <time>2020-12-20T10:46:26.046000+00:00</time>
      </trkpt>
      <trkpt lat="0" lon="0">
        <time>2020-12-20T10:46:26.049000+00:00</time>
      </trkpt>
      <trkpt lat="0" lon="0">
        <time>2020-12-20T10:46:26.050000+00:00</time>
      </trkpt>
      <trkpt lat="47.30289" lon="-1.36601">
        <ele>69</ele>
        <time>2020-12-20T10:46:27.087000+00:00</time>
      </trkpt>
      <trkpt lat="0" lon="0">
        <time>2020-12-20T10:46:27.094000+00:00</time>
      </trkpt>
      <trkpt lat="0" lon="0">
        <time>2020-12-20T10:46:27.101000+00:00</time>
      </trkpt>
      <trkpt lat="0" lon="0">
        <time>2020-12-20T10:46:27.104000+00:00</time>
      </trkpt>
      <trkpt lat="47.30286" lon="-1.36605">
        <ele>69</ele>
        <time>2020-12-20T10:46:27.998000+00:00</time>
      </trkpt>
      <trkpt lat="0" lon="0">
        <time>2020-12-20T10:46:28.013000+00:00</time>
      </trkpt>
      <trkpt lat="0" lon="0">
        <time>2020-12-20T10:46:28.024000+00:00</time>
      </trkpt>
      <trkpt lat="0" lon="0">
        <time>2020-12-20T10:46:28.026000+00:00</time>
      </trkpt>
      <trkpt lat="47.30284" lon="-1.3661">
        <ele>69</ele>
        <time>2020-12-20T10:46:29.003000+00:00</time>
      </trkpt>
      <trkpt lat="0" lon="0">
        <time>2020-12-20T10:46:29.013000+00:00</time>
      </trkpt>
      <trkpt lat="0" lon="0">
        <time>2020-12-20T10:46:29.019000+00:00</time>
      </trkpt>
      <trkpt lat="0" lon="0">
        <time>2020-12-20T10:46:29.025000+00:00</time>
      </trkpt>
      <trkpt lat="47.30282" lon="-1.36615">
        <ele>69</ele>
        <time>2020-12-20T10:46:30.045000+00:00</time>
      </trkpt>
      <trkpt lat="0" lon="0">
        <time>2020-12-20T10:46:30.063000+00:00</time>
      </trkpt>
      <trkpt lat="0" lon="0">
        <time>2020-12-20T10:46:30.073000+00:00</time>
      </trkpt>
      <trkpt lat="0" lon="0">
        <time>2020-12-20T10:46:30.075000+00:00</time>
      </trkpt>
      <trkpt lat="47.3028" lon="-1.36619">
        <ele>69</ele>
        <time>2020-12-20T10:46:31.092000+00:00</time>
      </trkpt>
      <trkpt lat="0" lon="0">
        <time>2020-12-20T10:46:31.110000+00:00</time>
      </trkpt>
      <trkpt lat="0" lon="0">
        <time>2020-12-20T10:46:31.117000+00:00</time>
      </trkpt>
      <trkpt lat="0" lon="0">
        <time>2020-12-20T10:46:31.127000+00:00</time>
      </trkpt>
      <trkpt lat="47.30278" lon="-1.36624">
        <ele>70</ele>
        <time>2020-12-20T10:46:32.035000+00:00</time>
      </trkpt>
      <trkpt lat="0" lon="0">
        <time>2020-12-20T10:46:32.046000+00:00</time>
      </trkpt>
      <trkpt lat="0" lon="0">
        <time>2020-12-20T10:46:32.051000+00:00</time>
      </trkpt>
      <trkpt lat="0" lon="0">
        <time>2020-12-20T10:46:32.052000+00:00</time>
      </trkpt>
      <trkpt lat="47.30277" lon="-1.36628">
        <ele>70</ele>
        <time>2020-12-20T10:46:33.027000+00:00</time>
      </trkpt>
      <trkpt lat="0" lon="0">
        <time>2020-12-20T10:46:33.037000+00:00</time>
      </trkpt>
      <trkpt lat="0" lon="0">
        <time>2020-12-20T10:46:33.041000+00:00</time>
      </trkpt>
      <trkpt lat="0" lon="0">
        <time>2020-12-20T10:46:33.047000+00:00</time>
      </trkpt>
      <trkpt lat="47.30275" lon="-1.36632">
        <ele>70</ele>
        <time>2020-12-20T10:46:34.063000+00:00</time>
      </trkpt>
      <trkpt lat="0" lon="0">
        <time>2020-12-20T10:46:34.069000+00:00</time>
      </trkpt>
      <trkpt lat="0" lon="0">
        <time>2020-12-20T10:46:34.073000+00:00</time>
      </trkpt>
      <trkpt lat="0" lon="0">
        <time>2020-12-20T10:46:34.077000+00:00</time>
      </trkpt>
      <trkpt lat="47.30274" lon="-1.36636">
        <ele>70</ele>
        <time>2020-12-20T10:46:34.979000+00:00</time>
      </trkpt>
      <trkpt lat="0" lon="0">
        <time>2020-12-20T10:46:34.991000+00:00</time>
      </trkpt>
      <trkpt lat="0" lon="0">
        <time>2020-12-20T10:46:34.995000+00:00</time>
      </trkpt>
      <trkpt lat="0" lon="0">
        <time>2020-12-20T10:46:34.998000+00:00</time>
      </trkpt>
      <trkpt lat="47.30272" lon="-1.3664">
        <ele>71</ele>
        <time>2020-12-20T10:46:35.981000+00:00</time>
      </trkpt>
      <trkpt lat="0" lon="0">
        <time>2020-12-20T10:46:35.984000+00:00</time>
      </trkpt>
      <trkpt lat="0" lon="0">
        <time>2020-12-20T10:46:35.985000+00:00</time>
      </trkpt>
      <trkpt lat="0" lon="0">
        <time>2020-12-20T10:46:35.986000+00:00</time>
      </trkpt>
      <trkpt lat="47.3027" lon="-1.36645">
        <ele>71</ele>
        <time>2020-12-20T10:46:37.018000+00:00</time>
      </trkpt>
      <trkpt lat="0" lon="0">
        <time>2020-12-20T10:46:37.024000+00:00</time>
      </trkpt>
      <trkpt lat="0" lon="0">
        <time>2020-12-20T10:46:37.026000+00:00</time>
      </trkpt>
      <trkpt lat="0" lon="0">
        <time>2020-12-20T10:46:37.028000+00:00</time>
      </trkpt>
      <trkpt lat="47.30268" lon="-1.36649">
        <ele>71</ele>
        <time>2020-12-20T10:46:37.967000+00:00</time>
      </trkpt>
      <trkpt lat="0" lon="0">
        <time>2020-12-20T10:46:37.975000+00:00</time>
      </trkpt>
      <trkpt lat="0" lon="0">
        <time>2020-12-20T10:46:37.977000+00:00</time>
      </trkpt>
      <trkpt lat="0" lon="0">
        <time>2020-12-20T10:46:37.979000+00:00</time>
      </trkpt>
      <trkpt lat="47.30266" lon="-1.36653">
        <ele>71</ele>
        <time>2020-12-20T10:46:39.060000+00:00</time>
      </trkpt>
      <trkpt lat="0" lon="0">
        <time>2020-12-20T10:46:39.071000+00:00</time>
      </trkpt>
      <trkpt lat="0" lon="0">
        <time>2020-12-20T10:46:39.080000+00:00</time>
      </trkpt>
      <trkpt lat="0" lon="0">
        <time>2020-12-20T10:46:39.083000+00:00</time>
      </trkpt>
      <trkpt lat="47.30264" lon="-1.36658">
        <ele>71</ele>
        <time>2020-12-20T10:46:39.999000+00:00</time>
      </trkpt>
      <trkpt lat="0" lon="0">
        <time>2020-12-20T10:46:40.012000+00:00</time>
      </trkpt>
      <trkpt lat="0" lon="0">
        <time>2020-12-20T10:46:40.017000+00:00</time>
      </trkpt>
      <trkpt lat="0" lon="0">
        <time>2020-12-20T10:46:40.019000+00:00</time>
      </trkpt>
      <trkpt lat="47.30262" lon="-1.36662">
        <ele>71</ele>
        <time>2020-12-20T10:46:41.098000+00:00</time>
      </trkpt>
      <trkpt lat="0" lon="0">
        <time>2020-12-20T10:46:41.106000+00:00</time>
      </trkpt>
      <trkpt lat="0" lon="0">
        <time>2020-12-20T10:46:41.113000+00:00</time>
      </trkpt>
      <trkpt lat="0" lon="0">
        <time>2020-12-20T10:46:41.117000+00:00</time>
      </trkpt>
      <trkpt lat="47.3026" lon="-1.36667">
        <ele>71</ele>
        <time>2020-12-20T10:46:42.039000+00:00</time>
      </trkpt>
      <trkpt lat="0" lon="0">
        <time>2020-12-20T10:46:42.048000+00:00</time>
      </trkpt>
      <trkpt lat="0" lon="0">
        <time>2020-12-20T10:46:42.053000+00:00</time>
      </trkpt>
      <trkpt lat="0" lon="0">
        <time>2020-12-20T10:46:42.055000+00:00</time>
      </trkpt>
      <trkpt lat="47.30258" lon="-1.36672">
        <ele>71</ele>
        <time>2020-12-20T10:46:43.030000+00:00</time>
      </trkpt>
      <trkpt lat="0" lon="0">
        <time>2020-12-20T10:46:43.039000+00:00</time>
      </trkpt>
      <trkpt lat="0" lon="0">
        <time>2020-12-20T10:46:43.047000+00:00</time>
      </trkpt>
      <trkpt lat="0" lon="0">
        <time>2020-12-20T10:46:43.052000+00:00</time>
      </trkpt>
      <trkpt lat="47.30257" lon="-1.36676">
        <ele>71</ele>
        <time>2020-12-20T10:46:44.024000+00:00</time>
      </trkpt>
      <trkpt lat="0" lon="0">
        <time>2020-12-20T10:46:44.037000+00:00</time>
      </trkpt>
      <trkpt lat="0" lon="0">
        <time>2020-12-20T10:46:44.041000+00:00</time>
      </trkpt>
      <trkpt lat="0" lon="0">
        <time>2020-12-20T10:46:44.044000+00:00</time>
      </trkpt>
      <trkpt lat="47.30255" lon="-1.36681">
        <ele>72</ele>
        <time>2020-12-20T10:46:45.051000+00:00</time>
      </trkpt>
      <trkpt lat="0" lon="0">
        <time>2020-12-20T10:46:45.073000+00:00</time>
      </trkpt>
      <trkpt lat="0" lon="0">
        <time>2020-12-20T10:46:45.075000+00:00</time>
      </trkpt>
      <trkpt lat="0" lon="0">
        <time>2020-12-20T10:46:45.076000+00:00</time>
      </trkpt>
      <trkpt lat="47.30253" lon="-1.36685">
        <ele>72</ele>
        <time>2020-12-20T10:46:46.005000+00:00</time>
      </trkpt>
      <trkpt lat="0" lon="0">
        <time>2020-12-20T10:46:46.014000+00:00</time>
      </trkpt>
      <trkpt lat="0" lon="0">
        <time>2020-12-20T10:46:46.018000+00:00</time>
      </trkpt>
      <trkpt lat="0" lon="0">
        <time>2020-12-20T10:46:46.021000+00:00</time>
      </trkpt>
      <trkpt lat="47.30251" lon="-1.36689">
        <ele>72</ele>
        <time>2020-12-20T10:46:47.051000+00:00</time>
      </trkpt>
      <trkpt lat="0" lon="0">
        <time>2020-12-20T10:46:47.055000+00:00</time>
      </trkpt>
      <trkpt lat="0" lon="0">
        <time>2020-12-20T10:46:47.063000+00:00</time>
      </trkpt>
      <trkpt lat="0" lon="0">
        <time>2020-12-20T10:46:47.066000+00:00</time>
      </trkpt>
      <trkpt lat="47.30246" lon="-1.36698">
        <ele>72</ele>
        <time>2020-12-20T10:46:49.019000+00:00</time>
      </trkpt>
      <trkpt lat="0" lon="0">
        <time>2020-12-20T10:46:49.037000+00:00</time>
      </trkpt>
      <trkpt lat="0" lon="0">
        <time>2020-12-20T10:46:49.047000+00:00</time>
      </trkpt>
      <trkpt lat="0" lon="0">
        <time>2020-12-20T10:46:49.049000+00:00</time>
      </trkpt>
      <trkpt lat="47.30243" lon="-1.36702">
        <ele>72</ele>
        <time>2020-12-20T10:46:49.983000+00:00</time>
      </trkpt>
      <trkpt lat="0" lon="0">
        <time>2020-12-20T10:46:49.995000+00:00</time>
      </trkpt>
      <trkpt lat="0" lon="0">
        <time>2020-12-20T10:46:50.003000+00:00</time>
      </trkpt>
      <trkpt lat="0" lon="0">
        <time>2020-12-20T10:46:50.005000+00:00</time>
      </trkpt>
      <trkpt lat="47.3024" lon="-1.36707">
        <ele>71</ele>
        <time>2020-12-20T10:46:51.015000+00:00</time>
      </trkpt>
      <trkpt lat="0" lon="0">
        <time>2020-12-20T10:46:51.020000+00:00</time>
      </trkpt>
      <trkpt lat="0" lon="0">
        <time>2020-12-20T10:46:51.031000+00:00</time>
      </trkpt>
      <trkpt lat="0" lon="0">
        <time>2020-12-20T10:46:51.035000+00:00</time>
      </trkpt>
      <trkpt lat="47.30236" lon="-1.36711">
        <ele>71</ele>
        <time>2020-12-20T10:46:52.055000+00:00</time>
      </trkpt>
      <trkpt lat="0" lon="0">
        <time>2020-12-20T10:46:52.061000+00:00</time>
      </trkpt>
      <trkpt lat="0" lon="0">
        <time>2020-12-20T10:46:52.065000+00:00</time>
      </trkpt>
      <trkpt lat="0" lon="0">
        <time>2020-12-20T10:46:52.068000+00:00</time>
      </trkpt>
      <trkpt lat="47.30233" lon="-1.36716">
        <ele>71</ele>
        <time>2020-12-20T10:46:53.063000+00:00</time>
      </trkpt>
      <trkpt lat="0" lon="0">
        <time>2020-12-20T10:46:53.076000+00:00</time>
      </trkpt>
      <trkpt lat="0" lon="0">
        <time>2020-12-20T10:46:53.081000+00:00</time>
      </trkpt>
      <trkpt lat="0" lon="0">
        <time>2020-12-20T10:46:53.084000+00:00</time>
      </trkpt>
      <trkpt lat="47.3023" lon="-1.36721">
        <ele>72</ele>
        <time>2020-12-20T10:46:54.030000+00:00</time>
      </trkpt>
      <trkpt lat="0" lon="0">
        <time>2020-12-20T10:46:54.034000+00:00</time>
      </trkpt>
      <trkpt lat="0" lon="0">
        <time>2020-12-20T10:46:54.039000+00:00</time>
      </trkpt>
      <trkpt lat="0" lon="0">
        <time>2020-12-20T10:46:54.042000+00:00</time>
      </trkpt>
      <trkpt lat="47.30226" lon="-1.36726">
        <ele>72</ele>
        <time>2020-12-20T10:46:55.017000+00:00</time>
      </trkpt>
      <trkpt lat="0" lon="0">
        <time>2020-12-20T10:46:55.041000+00:00</time>
      </trkpt>
      <trkpt lat="0" lon="0">
        <time>2020-12-20T10:46:55.048000+00:00</time>
      </trkpt>
      <trkpt lat="0" lon="0">
        <time>2020-12-20T10:46:55.049000+00:00</time>
      </trkpt>
      <trkpt lat="47.30223" lon="-1.36731">
        <ele>72</ele>
        <time>2020-12-20T10:46:56.025000+00:00</time>
      </trkpt>
      <trkpt lat="0" lon="0">
        <time>2020-12-20T10:46:56.035000+00:00</time>
      </trkpt>
      <trkpt lat="0" lon="0">
        <time>2020-12-20T10:46:56.045000+00:00</time>
      </trkpt>
      <trkpt lat="0" lon="0">
        <time>2020-12-20T10:46:56.047000+00:00</time>
      </trkpt>
      <trkpt lat="47.3022" lon="-1.36736">
        <ele>73</ele>
        <time>2020-12-20T10:46:57.039000+00:00</time>
      </trkpt>
      <trkpt lat="0" lon="0">
        <time>2020-12-20T10:46:57.046000+00:00</time>
      </trkpt>
      <trkpt lat="0" lon="0">
        <time>2020-12-20T10:46:57.051000+00:00</time>
      </trkpt>
      <trkpt lat="0" lon="0">
        <time>2020-12-20T10:46:57.053000+00:00</time>
      </trkpt>
      <trkpt lat="47.30217" lon="-1.36741">
        <ele>73</ele>
        <time>2020-12-20T10:46:58.032000+00:00</time>
      </trkpt>
      <trkpt lat="0" lon="0">
        <time>2020-12-20T10:46:58.048000+00:00</time>
      </trkpt>
      <trkpt lat="0" lon="0">
        <time>2020-12-20T10:46:58.055000+00:00</time>
      </trkpt>
      <trkpt lat="0" lon="0">
        <time>2020-12-20T10:46:58.058000+00:00</time>
      </trkpt>
      <trkpt lat="47.30214" lon="-1.36746">
        <ele>74</ele>
        <time>2020-12-20T10:46:59.034000+00:00</time>
      </trkpt>
      <trkpt lat="0" lon="0">
        <time>2020-12-20T10:46:59.041000+00:00</time>
      </trkpt>
      <trkpt lat="0" lon="0">
        <time>2020-12-20T10:46:59.047000+00:00</time>
      </trkpt>
      <trkpt lat="0" lon="0">
        <time>2020-12-20T10:46:59.049000+00:00</time>
      </trkpt>
      <trkpt lat="47.30211" lon="-1.36751">
        <ele>74</ele>
        <time>2020-12-20T10:47:00.005000+00:00</time>
      </trkpt>
      <trkpt lat="0" lon="0">
        <time>2020-12-20T10:47:00.006000+00:00</time>
      </trkpt>
      <trkpt lat="0" lon="0">
        <time>2020-12-20T10:47:00.008000+00:00</time>
      </trkpt>
      <trkpt lat="0" lon="0">
        <time>2020-12-20T10:47:00.009000+00:00</time>
      </trkpt>
      <trkpt lat="47.30208" lon="-1.36756">
        <ele>74</ele>
        <time>2020-12-20T10:47:01.041000+00:00</time>
      </trkpt>
      <trkpt lat="0" lon="0">
        <time>2020-12-20T10:47:01.054000+00:00</time>
      </trkpt>
      <trkpt lat="0" lon="0">
        <time>2020-12-20T10:47:01.060000+00:00</time>
      </trkpt>
      <trkpt lat="0" lon="0">
        <time>2020-12-20T10:47:01.062000+00:00</time>
      </trkpt>
      <trkpt lat="47.30205" lon="-1.36762">
        <ele>75</ele>
        <time>2020-12-20T10:47:02.037000+00:00</time>
      </trkpt>
      <trkpt lat="0" lon="0">
        <time>2020-12-20T10:47:02.047000+00:00</time>
      </trkpt>
      <trkpt lat="0" lon="0">
        <time>2020-12-20T10:47:02.054000+00:00</time>
      </trkpt>
      <trkpt lat="0" lon="0">
        <time>2020-12-20T10:47:02.057000+00:00</time>
      </trkpt>
      <trkpt lat="47.30202" lon="-1.36767">
        <ele>75</ele>
        <time>2020-12-20T10:47:03.030000+00:00</time>
      </trkpt>
      <trkpt lat="0" lon="0">
        <time>2020-12-20T10:47:03.042000+00:00</time>
      </trkpt>
      <trkpt lat="0" lon="0">
        <time>2020-12-20T10:47:03.049000+00:00</time>
      </trkpt>
      <trkpt lat="0" lon="0">
        <time>2020-12-20T10:47:03.051000+00:00</time>
      </trkpt>
      <trkpt lat="47.30199" lon="-1.36772">
        <ele>75</ele>
        <time>2020-12-20T10:47:04.031000+00:00</time>
      </trkpt>
      <trkpt lat="0" lon="0">
        <time>2020-12-20T10:47:04.042000+00:00</time>
      </trkpt>
      <trkpt lat="0" lon="0">
        <time>2020-12-20T10:47:04.051000+00:00</time>
      </trkpt>
      <trkpt lat="0" lon="0">
        <time>2020-12-20T10:47:04.053000+00:00</time>
      </trkpt>
      <trkpt lat="47.30196" lon="-1.36778">
        <ele>74</ele>
        <time>2020-12-20T10:47:05.021000+00:00</time>
      </trkpt>
      <trkpt lat="0" lon="0">
        <time>2020-12-20T10:47:05.027000+00:00</time>
      </trkpt>
      <trkpt lat="0" lon="0">
        <time>2020-12-20T10:47:05.032000+00:00</time>
      </trkpt>
      <trkpt lat="0" lon="0">
        <time>2020-12-20T10:47:05.034000+00:00</time>
      </trkpt>
      <trkpt lat="47.30193" lon="-1.36783">
        <ele>74</ele>
        <time>2020-12-20T10:47:06.017000+00:00</time>
      </trkpt>
      <trkpt lat="0" lon="0">
        <time>2020-12-20T10:47:06.023000+00:00</time>
      </trkpt>
      <trkpt lat="0" lon="0">
        <time>2020-12-20T10:47:06.027000+00:00</time>
      </trkpt>
      <trkpt lat="0" lon="0">
        <time>2020-12-20T10:47:06.034000+00:00</time>
      </trkpt>
      <trkpt lat="47.30191" lon="-1.36788">
        <ele>74</ele>
        <time>2020-12-20T10:47:06.989000+00:00</time>
      </trkpt>
      <trkpt lat="0" lon="0">
        <time>2020-12-20T10:47:06.994000+00:00</time>
      </trkpt>
      <trkpt lat="0" lon="0">
        <time>2020-12-20T10:47:06.999000+00:00</time>
      </trkpt>
      <trkpt lat="0" lon="0">
        <time>2020-12-20T10:47:07.002000+00:00</time>
      </trkpt>
      <trkpt lat="47.30188" lon="-1.36794">
        <ele>75</ele>
        <time>2020-12-20T10:47:08.020000+00:00</time>
      </trkpt>
      <trkpt lat="0" lon="0">
        <time>2020-12-20T10:47:08.031000+00:00</time>
      </trkpt>
      <trkpt lat="0" lon="0">
        <time>2020-12-20T10:47:08.036000+00:00</time>
      </trkpt>
      <trkpt lat="0" lon="0">
        <time>2020-12-20T10:47:08.038000+00:00</time>
      </trkpt>
      <trkpt lat="47.30185" lon="-1.36799">
        <ele>75</ele>
        <time>2020-12-20T10:47:08.990000+00:00</time>
      </trkpt>
      <trkpt lat="0" lon="0">
        <time>2020-12-20T10:47:09.001000+00:00</time>
      </trkpt>
      <trkpt lat="0" lon="0">
        <time>2020-12-20T10:47:09.010000+00:00</time>
      </trkpt>
      <trkpt lat="0" lon="0">
        <time>2020-12-20T10:47:09.019000+00:00</time>
      </trkpt>
      <trkpt lat="47.30183" lon="-1.36804">
        <ele>75</ele>
        <time>2020-12-20T10:47:10.035000+00:00</time>
      </trkpt>
      <trkpt lat="0" lon="0">
        <time>2020-12-20T10:47:10.048000+00:00</time>
      </trkpt>
      <trkpt lat="0" lon="0">
        <time>2020-12-20T10:47:10.058000+00:00</time>
      </trkpt>
      <trkpt lat="0" lon="0">
        <time>2020-12-20T10:47:10.066000+00:00</time>
      </trkpt>
      <trkpt lat="47.3018" lon="-1.3681">
        <ele>76</ele>
        <time>2020-12-20T10:47:11.021000+00:00</time>
      </trkpt>
      <trkpt lat="0" lon="0">
        <time>2020-12-20T10:47:11.031000+00:00</time>
      </trkpt>
      <trkpt lat="0" lon="0">
        <time>2020-12-20T10:47:11.038000+00:00</time>
      </trkpt>
      <trkpt lat="0" lon="0">
        <time>2020-12-20T10:47:11.040000+00:00</time>
      </trkpt>
      <trkpt lat="47.30178" lon="-1.36815">
        <ele>76</ele>
        <time>2020-12-20T10:47:12.004000+00:00</time>
      </trkpt>
      <trkpt lat="0" lon="0">
        <time>2020-12-20T10:47:12.008000+00:00</time>
      </trkpt>
      <trkpt lat="0" lon="0">
        <time>2020-12-20T10:47:12.013000+00:00</time>
      </trkpt>
      <trkpt lat="0" lon="0">
        <time>2020-12-20T10:47:12.016000+00:00</time>
      </trkpt>
      <trkpt lat="47.30176" lon="-1.3682">
        <ele>77</ele>
        <time>2020-12-20T10:47:13.021000+00:00</time>
      </trkpt>
      <trkpt lat="0" lon="0">
        <time>2020-12-20T10:47:13.041000+00:00</time>
      </trkpt>
      <trkpt lat="0" lon="0">
        <time>2020-12-20T10:47:13.045000+00:00</time>
      </trkpt>
      <trkpt lat="0" lon="0">
        <time>2020-12-20T10:47:13.048000+00:00</time>
      </trkpt>
      <trkpt lat="47.30173" lon="-1.36825">
        <ele>77</ele>
        <time>2020-12-20T10:47:14.020000+00:00</time>
      </trkpt>
      <trkpt lat="0" lon="0">
        <time>2020-12-20T10:47:14.026000+00:00</time>
      </trkpt>
      <trkpt lat="0" lon="0">
        <time>2020-12-20T10:47:14.037000+00:00</time>
      </trkpt>
      <trkpt lat="0" lon="0">
        <time>2020-12-20T10:47:14.042000+00:00</time>
      </trkpt>
      <trkpt lat="47.30171" lon="-1.3683">
        <ele>77</ele>
        <time>2020-12-20T10:47:15.033000+00:00</time>
      </trkpt>
      <trkpt lat="0" lon="0">
        <time>2020-12-20T10:47:15.044000+00:00</time>
      </trkpt>
      <trkpt lat="0" lon="0">
        <time>2020-12-20T10:47:15.048000+00:00</time>
      </trkpt>
      <trkpt lat="0" lon="0">
        <time>2020-12-20T10:47:15.051000+00:00</time>
      </trkpt>
      <trkpt lat="47.30169" lon="-1.36835">
        <ele>78</ele>
        <time>2020-12-20T10:47:16.016000+00:00</time>
      </trkpt>
      <trkpt lat="0" lon="0">
        <time>2020-12-20T10:47:16.035000+00:00</time>
      </trkpt>
      <trkpt lat="0" lon="0">
        <time>2020-12-20T10:47:16.041000+00:00</time>
      </trkpt>
      <trkpt lat="0" lon="0">
        <time>2020-12-20T10:47:16.045000+00:00</time>
      </trkpt>
      <trkpt lat="47.30167" lon="-1.3684">
        <ele>78</ele>
        <time>2020-12-20T10:47:17.018000+00:00</time>
      </trkpt>
      <trkpt lat="0" lon="0">
        <time>2020-12-20T10:47:17.028000+00:00</time>
      </trkpt>
      <trkpt lat="0" lon="0">
        <time>2020-12-20T10:47:17.039000+00:00</time>
      </trkpt>
      <trkpt lat="0" lon="0">
        <time>2020-12-20T10:47:17.042000+00:00</time>
      </trkpt>
      <trkpt lat="47.30165" lon="-1.36845">
        <ele>78</ele>
        <time>2020-12-20T10:47:18.031000+00:00</time>
      </trkpt>
      <trkpt lat="0" lon="0">
        <time>2020-12-20T10:47:18.041000+00:00</time>
      </trkpt>
      <trkpt lat="0" lon="0">
        <time>2020-12-20T10:47:18.049000+00:00</time>
      </trkpt>
      <trkpt lat="0" lon="0">
        <time>2020-12-20T10:47:18.052000+00:00</time>
      </trkpt>
      <trkpt lat="47.30162" lon="-1.3685">
        <ele>78</ele>
        <time>2020-12-20T10:47:19.011000+00:00</time>
      </trkpt>
      <trkpt lat="0" lon="0">
        <time>2020-12-20T10:47:19.016000+00:00</time>
      </trkpt>
      <trkpt lat="0" lon="0">
        <time>2020-12-20T10:47:19.018000+00:00</time>
      </trkpt>
      <trkpt lat="0" lon="0">
        <time>2020-12-20T10:47:19.020000+00:00</time>
      </trkpt>
      <trkpt lat="47.3016" lon="-1.36856">
        <ele>77</ele>
        <time>2020-12-20T10:47:20.030000+00:00</time>
      </trkpt>
      <trkpt lat="0" lon="0">
        <time>2020-12-20T10:47:20.041000+00:00</time>
      </trkpt>
      <trkpt lat="0" lon="0">
        <time>2020-12-20T10:47:20.047000+00:00</time>
      </trkpt>
      <trkpt lat="0" lon="0">
        <time>2020-12-20T10:47:20.050000+00:00</time>
      </trkpt>
      <trkpt lat="47.30158" lon="-1.36861">
        <ele>78</ele>
        <time>2020-12-20T10:47:21.053000+00:00</time>
      </trkpt>
      <trkpt lat="0" lon="0">
        <time>2020-12-20T10:47:21.069000+00:00</time>
      </trkpt>
      <trkpt lat="0" lon="0">
        <time>2020-12-20T10:47:21.077000+00:00</time>
      </trkpt>
      <trkpt lat="0" lon="0">
        <time>2020-12-20T10:47:21.079000+00:00</time>
      </trkpt>
      <trkpt lat="47.30155" lon="-1.36866">
        <ele>77</ele>
        <time>2020-12-20T10:47:22.035000+00:00</time>
      </trkpt>
      <trkpt lat="0" lon="0">
        <time>2020-12-20T10:47:22.049000+00:00</time>
      </trkpt>
      <trkpt lat="0" lon="0">
        <time>2020-12-20T10:47:22.060000+00:00</time>
      </trkpt>
      <trkpt lat="0" lon="0">
        <time>2020-12-20T10:47:22.064000+00:00</time>
      </trkpt>
      <trkpt lat="47.30153" lon="-1.36871">
        <ele>77</ele>
        <time>2020-12-20T10:47:23.034000+00:00</time>
      </trkpt>
      <trkpt lat="0" lon="0">
        <time>2020-12-20T10:47:23.042000+00:00</time>
      </trkpt>
      <trkpt lat="0" lon="0">
        <time>2020-12-20T10:47:23.044000+00:00</time>
      </trkpt>
      <trkpt lat="0" lon="0">
        <time>2020-12-20T10:47:23.045000+00:00</time>
      </trkpt>
      <trkpt lat="47.3015" lon="-1.36876">
        <ele>76</ele>
        <time>2020-12-20T10:47:24.050000+00:00</time>
      </trkpt>
      <trkpt lat="0" lon="0">
        <time>2020-12-20T10:47:24.063000+00:00</time>
      </trkpt>
      <trkpt lat="0" lon="0">
        <time>2020-12-20T10:47:24.070000+00:00</time>
      </trkpt>
      <trkpt lat="0" lon="0">
        <time>2020-12-20T10:47:24.073000+00:00</time>
      </trkpt>
      <trkpt lat="47.30147" lon="-1.36882">
        <ele>76</ele>
        <time>2020-12-20T10:47:25.034000+00:00</time>
      </trkpt>
      <trkpt lat="0" lon="0">
        <time>2020-12-20T10:47:25.040000+00:00</time>
      </trkpt>
      <trkpt lat="0" lon="0">
        <time>2020-12-20T10:47:25.050000+00:00</time>
      </trkpt>
      <trkpt lat="0" lon="0">
        <time>2020-12-20T10:47:25.051000+00:00</time>
      </trkpt>
      <trkpt lat="47.30145" lon="-1.36887">
        <ele>75</ele>
        <time>2020-12-20T10:47:26.044000+00:00</time>
      </trkpt>
      <trkpt lat="0" lon="0">
        <time>2020-12-20T10:47:26.050000+00:00</time>
      </trkpt>
      <trkpt lat="0" lon="0">
        <time>2020-12-20T10:47:26.057000+00:00</time>
      </trkpt>
      <trkpt lat="0" lon="0">
        <time>2020-12-20T10:47:26.059000+00:00</time>
      </trkpt>
      <trkpt lat="47.30142" lon="-1.36893">
        <ele>75</ele>
        <time>2020-12-20T10:47:27.048000+00:00</time>
      </trkpt>
      <trkpt lat="0" lon="0">
        <time>2020-12-20T10:47:27.062000+00:00</time>
      </trkpt>
      <trkpt lat="0" lon="0">
        <time>2020-12-20T10:47:27.071000+00:00</time>
      </trkpt>
      <trkpt lat="0" lon="0">
        <time>2020-12-20T10:47:27.073000+00:00</time>
      </trkpt>
      <trkpt lat="47.30139" lon="-1.36898">
        <ele>75</ele>
        <time>2020-12-20T10:47:28.002000+00:00</time>
      </trkpt>
      <trkpt lat="0" lon="0">
        <time>2020-12-20T10:47:28.006000+00:00</time>
      </trkpt>
      <trkpt lat="0" lon="0">
        <time>2020-12-20T10:47:28.010000+00:00</time>
      </trkpt>
      <trkpt lat="0" lon="0">
        <time>2020-12-20T10:47:28.011000+00:00</time>
      </trkpt>
      <trkpt lat="47.30136" lon="-1.36903">
        <ele>75</ele>
        <time>2020-12-20T10:47:29.027000+00:00</time>
      </trkpt>
      <trkpt lat="0" lon="0">
        <time>2020-12-20T10:47:29.029000+00:00</time>
      </trkpt>
      <trkpt lat="0" lon="0">
        <time>2020-12-20T10:47:29.031000+00:00</time>
      </trkpt>
      <trkpt lat="0" lon="0">
        <time>2020-12-20T10:47:29.032000+00:00</time>
      </trkpt>
      <trkpt lat="47.30133" lon="-1.36909">
        <ele>75</ele>
        <time>2020-12-20T10:47:29.991000+00:00</time>
      </trkpt>
      <trkpt lat="0" lon="0">
        <time>2020-12-20T10:47:29.999000+00:00</time>
      </trkpt>
      <trkpt lat="0" lon="0">
        <time>2020-12-20T10:47:30.001000+00:00</time>
      </trkpt>
      <trkpt lat="0" lon="0">
        <time>2020-12-20T10:47:30.002000+00:00</time>
      </trkpt>
      <trkpt lat="47.3013" lon="-1.36915">
        <ele>75</ele>
        <time>2020-12-20T10:47:31.039000+00:00</time>
      </trkpt>
      <trkpt lat="0" lon="0">
        <time>2020-12-20T10:47:31.047000+00:00</time>
      </trkpt>
      <trkpt lat="0" lon="0">
        <time>2020-12-20T10:47:31.049000+00:00</time>
      </trkpt>
      <trkpt lat="0" lon="0">
        <time>2020-12-20T10:47:31.050000+00:00</time>
      </trkpt>
      <trkpt lat="47.30127" lon="-1.3692">
        <ele>75</ele>
        <time>2020-12-20T10:47:32+00:00</time>
      </trkpt>
      <trkpt lat="0" lon="0">
        <time>2020-12-20T10:47:32.013000+00:00</time>
      </trkpt>
      <trkpt lat="0" lon="0">
        <time>2020-12-20T10:47:32.019000+00:00</time>
      </trkpt>
      <trkpt lat="0" lon="0">
        <time>2020-12-20T10:47:32.020000+00:00</time>
      </trkpt>
      <trkpt lat="47.30124" lon="-1.36926">
        <ele>75</ele>
        <time>2020-12-20T10:47:33.001000+00:00</time>
      </trkpt>
      <trkpt lat="0" lon="0">
        <time>2020-12-20T10:47:33.006000+00:00</time>
      </trkpt>
      <trkpt lat="0" lon="0">
        <time>2020-12-20T10:47:33.009000+00:00</time>
      </trkpt>
      <trkpt lat="0" lon="0">
        <time>2020-12-20T10:47:33.010000+00:00</time>
      </trkpt>
      <trkpt lat="47.30121" lon="-1.36932">
        <ele>75</ele>
        <time>2020-12-20T10:47:34.007000+00:00</time>
      </trkpt>
      <trkpt lat="0" lon="0">
        <time>2020-12-20T10:47:34.012000+00:00</time>
      </trkpt>
      <trkpt lat="0" lon="0">
        <time>2020-12-20T10:47:34.017000+00:00</time>
      </trkpt>
      <trkpt lat="0" lon="0">
        <time>2020-12-20T10:47:34.026000+00:00</time>
      </trkpt>
      <trkpt lat="47.30117" lon="-1.36938">
        <ele>75</ele>
        <time>2020-12-20T10:47:35.013000+00:00</time>
      </trkpt>
      <trkpt lat="0" lon="0">
        <time>2020-12-20T10:47:35.018000+00:00</time>
      </trkpt>
      <trkpt lat="0" lon="0">
        <time>2020-12-20T10:47:35.023000+00:00</time>
      </trkpt>
      <trkpt lat="0" lon="0">
        <time>2020-12-20T10:47:35.026000+00:00</time>
      </trkpt>
      <trkpt lat="47.30114" lon="-1.36944">
        <ele>75</ele>
        <time>2020-12-20T10:47:36.004000+00:00</time>
      </trkpt>
      <trkpt lat="0" lon="0">
        <time>2020-12-20T10:47:36.006000+00:00</time>
      </trkpt>
      <trkpt lat="0" lon="0">
        <time>2020-12-20T10:47:36.013000+00:00</time>
      </trkpt>
      <trkpt lat="0" lon="0">
        <time>2020-12-20T10:47:36.015000+00:00</time>
      </trkpt>
      <trkpt lat="47.30112" lon="-1.3695">
        <ele>75</ele>
        <time>2020-12-20T10:47:37.008000+00:00</time>
      </trkpt>
      <trkpt lat="0" lon="0">
        <time>2020-12-20T10:47:37.012000+00:00</time>
      </trkpt>
      <trkpt lat="0" lon="0">
        <time>2020-12-20T10:47:37.018000+00:00</time>
      </trkpt>
      <trkpt lat="0" lon="0">
        <time>2020-12-20T10:47:37.021000+00:00</time>
      </trkpt>
      <trkpt lat="47.30109" lon="-1.36955">
        <ele>75</ele>
        <time>2020-12-20T10:47:38.037000+00:00</time>
      </trkpt>
      <trkpt lat="0" lon="0">
        <time>2020-12-20T10:47:38.052000+00:00</time>
      </trkpt>
      <trkpt lat="0" lon="0">
        <time>2020-12-20T10:47:38.058000+00:00</time>
      </trkpt>
      <trkpt lat="0" lon="0">
        <time>2020-12-20T10:47:38.061000+00:00</time>
      </trkpt>
      <trkpt lat="47.30107" lon="-1.36961">
        <ele>75</ele>
        <time>2020-12-20T10:47:39.013000+00:00</time>
      </trkpt>
      <trkpt lat="0" lon="0">
        <time>2020-12-20T10:47:39.018000+00:00</time>
      </trkpt>
      <trkpt lat="0" lon="0">
        <time>2020-12-20T10:47:39.022000+00:00</time>
      </trkpt>
      <trkpt lat="0" lon="0">
        <time>2020-12-20T10:47:39.025000+00:00</time>
      </trkpt>
      <trkpt lat="47.30105" lon="-1.36967">
        <ele>74</ele>
        <time>2020-12-20T10:47:39.978000+00:00</time>
      </trkpt>
      <trkpt lat="0" lon="0">
        <time>2020-12-20T10:47:39.982000+00:00</time>
      </trkpt>
      <trkpt lat="0" lon="0">
        <time>2020-12-20T10:47:39.984000+00:00</time>
      </trkpt>
      <trkpt lat="0" lon="0">
        <time>2020-12-20T10:47:39.985000+00:00</time>
      </trkpt>
      <trkpt lat="47.30103" lon="-1.36972">
        <ele>74</ele>
        <time>2020-12-20T10:47:41.027000+00:00</time>
      </trkpt>
      <trkpt lat="0" lon="0">
        <time>2020-12-20T10:47:41.033000+00:00</time>
      </trkpt>
      <trkpt lat="0" lon="0">
        <time>2020-12-20T10:47:41.035000+00:00</time>
      </trkpt>
      <trkpt lat="0" lon="0">
        <time>2020-12-20T10:47:41.037000+00:00</time>
      </trkpt>
      <trkpt lat="47.301" lon="-1.36978">
        <ele>74</ele>
        <time>2020-12-20T10:47:41.993000+00:00</time>
      </trkpt>
      <trkpt lat="0" lon="0">
        <time>2020-12-20T10:47:41.999000+00:00</time>
      </trkpt>
      <trkpt lat="0" lon="0">
        <time>2020-12-20T10:47:42.005000+00:00</time>
      </trkpt>
      <trkpt lat="0" lon="0">
        <time>2020-12-20T10:47:42.008000+00:00</time>
      </trkpt>
      <trkpt lat="47.30098" lon="-1.36984">
        <ele>73</ele>
        <time>2020-12-20T10:47:43+00:00</time>
      </trkpt>
      <trkpt lat="0" lon="0">
        <time>2020-12-20T10:47:43.001000+00:00</time>
      </trkpt>
      <trkpt lat="0" lon="0">
        <time>2020-12-20T10:47:43.002000+00:00</time>
      </trkpt>
      <trkpt lat="0" lon="0">
        <time>2020-12-20T10:47:43.003000+00:00</time>
      </trkpt>
      <trkpt lat="47.30095" lon="-1.36989">
        <ele>73</ele>
        <time>2020-12-20T10:47:44.012000+00:00</time>
      </trkpt>
      <trkpt lat="0" lon="0">
        <time>2020-12-20T10:47:44.017000+00:00</time>
      </trkpt>
      <trkpt lat="0" lon="0">
        <time>2020-12-20T10:47:44.020000+00:00</time>
      </trkpt>
      <trkpt lat="0" lon="0">
        <time>2020-12-20T10:47:44.023000+00:00</time>
      </trkpt>
      <trkpt lat="47.30093" lon="-1.36995">
        <ele>73</ele>
        <time>2020-12-20T10:47:45.021000+00:00</time>
      </trkpt>
      <trkpt lat="0" lon="0">
        <time>2020-12-20T10:47:45.027000+00:00</time>
      </trkpt>
      <trkpt lat="0" lon="0">
        <time>2020-12-20T10:47:45.031000+00:00</time>
      </trkpt>
      <trkpt lat="0" lon="0">
        <time>2020-12-20T10:47:45.035000+00:00</time>
      </trkpt>
      <trkpt lat="47.3009" lon="-1.37">
        <ele>73</ele>
        <time>2020-12-20T10:47:46.051000+00:00</time>
      </trkpt>
      <trkpt lat="0" lon="0">
        <time>2020-12-20T10:47:46.071000+00:00</time>
      </trkpt>
      <trkpt lat="0" lon="0">
        <time>2020-12-20T10:47:46.073000+00:00</time>
      </trkpt>
      <trkpt lat="0" lon="0">
        <time>2020-12-20T10:47:46.074000+00:00</time>
      </trkpt>
      <trkpt lat="47.30088" lon="-1.37006">
        <ele>73</ele>
        <time>2020-12-20T10:47:46.997000+00:00</time>
      </trkpt>
      <trkpt lat="0" lon="0">
        <time>2020-12-20T10:47:47.002000+00:00</time>
      </trkpt>
      <trkpt lat="0" lon="0">
        <time>2020-12-20T10:47:47.006000+00:00</time>
      </trkpt>
      <trkpt lat="0" lon="0">
        <time>2020-12-20T10:47:47.009000+00:00</time>
      </trkpt>
      <trkpt lat="47.30085" lon="-1.37011">
        <ele>73</ele>
        <time>2020-12-20T10:47:48.007000+00:00</time>
      </trkpt>
      <trkpt lat="0" lon="0">
        <time>2020-12-20T10:47:48.013000+00:00</time>
      </trkpt>
      <trkpt lat="0" lon="0">
        <time>2020-12-20T10:47:48.017000+00:00</time>
      </trkpt>
      <trkpt lat="0" lon="0">
        <time>2020-12-20T10:47:48.020000+00:00</time>
      </trkpt>
      <trkpt lat="47.30082" lon="-1.37016">
        <ele>73</ele>
        <time>2020-12-20T10:47:49.023000+00:00</time>
      </trkpt>
      <trkpt lat="0" lon="0">
        <time>2020-12-20T10:47:49.031000+00:00</time>
      </trkpt>
      <trkpt lat="0" lon="0">
        <time>2020-12-20T10:47:49.039000+00:00</time>
      </trkpt>
      <trkpt lat="0" lon="0">
        <time>2020-12-20T10:47:49.042000+00:00</time>
      </trkpt>
      <trkpt lat="47.30079" lon="-1.37021">
        <ele>74</ele>
        <time>2020-12-20T10:47:50.005000+00:00</time>
      </trkpt>
      <trkpt lat="0" lon="0">
        <time>2020-12-20T10:47:50.009000+00:00</time>
      </trkpt>
      <trkpt lat="0" lon="0">
        <time>2020-12-20T10:47:50.013000+00:00</time>
      </trkpt>
      <trkpt lat="0" lon="0">
        <time>2020-12-20T10:47:50.016000+00:00</time>
      </trkpt>
      <trkpt lat="47.30076" lon="-1.37026">
        <ele>74</ele>
        <time>2020-12-20T10:47:50.990000+00:00</time>
      </trkpt>
      <trkpt lat="0" lon="0">
        <time>2020-12-20T10:47:51.002000+00:00</time>
      </trkpt>
      <trkpt lat="0" lon="0">
        <time>2020-12-20T10:47:51.004000+00:00</time>
      </trkpt>
      <trkpt lat="0" lon="0">
        <time>2020-12-20T10:47:51.005000+00:00</time>
      </trkpt>
      <trkpt lat="47.30074" lon="-1.37032">
        <ele>74</ele>
        <time>2020-12-20T10:47:52.035000+00:00</time>
      </trkpt>
      <trkpt lat="0" lon="0">
        <time>2020-12-20T10:47:52.042000+00:00</time>
      </trkpt>
      <trkpt lat="0" lon="0">
        <time>2020-12-20T10:47:52.043000+00:00</time>
      </trkpt>
      <trkpt lat="0" lon="0">
        <time>2020-12-20T10:47:52.045000+00:00</time>
      </trkpt>
      <trkpt lat="47.30071" lon="-1.37037">
        <ele>74</ele>
        <time>2020-12-20T10:47:53.022000+00:00</time>
      </trkpt>
      <trkpt lat="0" lon="0">
        <time>2020-12-20T10:47:53.024000+00:00</time>
      </trkpt>
      <trkpt lat="0" lon="0">
        <time>2020-12-20T10:47:53.025000+00:00</time>
      </trkpt>
      <trkpt lat="0" lon="0">
        <time>2020-12-20T10:47:53.026000+00:00</time>
      </trkpt>
      <trkpt lat="47.30068" lon="-1.37042">
        <ele>74</ele>
        <time>2020-12-20T10:47:54.024000+00:00</time>
      </trkpt>
      <trkpt lat="0" lon="0">
        <time>2020-12-20T10:47:54.033000+00:00</time>
      </trkpt>
      <trkpt lat="0" lon="0">
        <time>2020-12-20T10:47:54.044000+00:00</time>
      </trkpt>
      <trkpt lat="0" lon="0">
        <time>2020-12-20T10:47:54.045000+00:00</time>
      </trkpt>
      <trkpt lat="47.30065" lon="-1.37047">
        <ele>74</ele>
        <time>2020-12-20T10:47:55.009000+00:00</time>
      </trkpt>
      <trkpt lat="0" lon="0">
        <time>2020-12-20T10:47:55.020000+00:00</time>
      </trkpt>
      <trkpt lat="0" lon="0">
        <time>2020-12-20T10:47:55.025000+00:00</time>
      </trkpt>
      <trkpt lat="0" lon="0">
        <time>2020-12-20T10:47:55.028000+00:00</time>
      </trkpt>
      <trkpt lat="47.30062" lon="-1.37052">
        <ele>74</ele>
        <time>2020-12-20T10:47:56.043000+00:00</time>
      </trkpt>
      <trkpt lat="0" lon="0">
        <time>2020-12-20T10:47:56.049000+00:00</time>
      </trkpt>
      <trkpt lat="0" lon="0">
        <time>2020-12-20T10:47:56.054000+00:00</time>
      </trkpt>
      <trkpt lat="0" lon="0">
        <time>2020-12-20T10:47:56.058000+00:00</time>
      </trkpt>
      <trkpt lat="47.3006" lon="-1.37057">
        <ele>73</ele>
        <time>2020-12-20T10:47:57.003000+00:00</time>
      </trkpt>
      <trkpt lat="0" lon="0">
        <time>2020-12-20T10:47:57.007000+00:00</time>
      </trkpt>
      <trkpt lat="0" lon="0">
        <time>2020-12-20T10:47:57.009000+00:00</time>
      </trkpt>
      <trkpt lat="0" lon="0">
        <time>2020-12-20T10:47:57.010000+00:00</time>
      </trkpt>
      <trkpt lat="47.30057" lon="-1.37061">
        <ele>73</ele>
        <time>2020-12-20T10:47:58.017000+00:00</time>
      </trkpt>
      <trkpt lat="0" lon="0">
        <time>2020-12-20T10:47:58.041000+00:00</time>
      </trkpt>
      <trkpt lat="0" lon="0">
        <time>2020-12-20T10:47:58.045000+00:00</time>
      </trkpt>
      <trkpt lat="0" lon="0">
        <time>2020-12-20T10:47:58.047000+00:00</time>
      </trkpt>
      <trkpt lat="47.30055" lon="-1.37066">
        <ele>73</ele>
        <time>2020-12-20T10:47:59.022000+00:00</time>
      </trkpt>
      <trkpt lat="0" lon="0">
        <time>2020-12-20T10:47:59.027000+00:00</time>
      </trkpt>
      <trkpt lat="0" lon="0">
        <time>2020-12-20T10:47:59.031000+00:00</time>
      </trkpt>
      <trkpt lat="0" lon="0">
        <time>2020-12-20T10:47:59.035000+00:00</time>
      </trkpt>
      <trkpt lat="47.30052" lon="-1.3707">
        <ele>73</ele>
        <time>2020-12-20T10:48:00.029000+00:00</time>
      </trkpt>
      <trkpt lat="0" lon="0">
        <time>2020-12-20T10:48:00.037000+00:00</time>
      </trkpt>
      <trkpt lat="0" lon="0">
        <time>2020-12-20T10:48:00.046000+00:00</time>
      </trkpt>
      <trkpt lat="0" lon="0">
        <time>2020-12-20T10:48:00.049000+00:00</time>
      </trkpt>
      <trkpt lat="47.3005" lon="-1.37075">
        <ele>73</ele>
        <time>2020-12-20T10:48:01.035000+00:00</time>
      </trkpt>
      <trkpt lat="0" lon="0">
        <time>2020-12-20T10:48:01.063000+00:00</time>
      </trkpt>
      <trkpt lat="0" lon="0">
        <time>2020-12-20T10:48:01.067000+00:00</time>
      </trkpt>
      <trkpt lat="0" lon="0">
        <time>2020-12-20T10:48:01.069000+00:00</time>
      </trkpt>
      <trkpt lat="47.30047" lon="-1.37079">
        <ele>73</ele>
        <time>2020-12-20T10:48:02.006000+00:00</time>
      </trkpt>
      <trkpt lat="0" lon="0">
        <time>2020-12-20T10:48:02.014000+00:00</time>
      </trkpt>
      <trkpt lat="0" lon="0">
        <time>2020-12-20T10:48:02.021000+00:00</time>
      </trkpt>
      <trkpt lat="0" lon="0">
        <time>2020-12-20T10:48:02.022000+00:00</time>
      </trkpt>
      <trkpt lat="47.30044" lon="-1.37083">
        <ele>73</ele>
        <time>2020-12-20T10:48:02.978000+00:00</time>
      </trkpt>
      <trkpt lat="0" lon="0">
        <time>2020-12-20T10:48:02.988000+00:00</time>
      </trkpt>
      <trkpt lat="0" lon="0">
        <time>2020-12-20T10:48:02.992000+00:00</time>
      </trkpt>
      <trkpt lat="0" lon="0">
        <time>2020-12-20T10:48:02.994000+00:00</time>
      </trkpt>
      <trkpt lat="47.30042" lon="-1.37087">
        <ele>73</ele>
        <time>2020-12-20T10:48:04.002000+00:00</time>
      </trkpt>
      <trkpt lat="0" lon="0">
        <time>2020-12-20T10:48:04.014000+00:00</time>
      </trkpt>
      <trkpt lat="0" lon="0">
        <time>2020-12-20T10:48:04.016000+00:00</time>
      </trkpt>
      <trkpt lat="0" lon="0">
        <time>2020-12-20T10:48:04.017000+00:00</time>
      </trkpt>
      <trkpt lat="47.30039" lon="-1.37091">
        <ele>73</ele>
        <time>2020-12-20T10:48:05.007000+00:00</time>
      </trkpt>
      <trkpt lat="0" lon="0">
        <time>2020-12-20T10:48:05.013000+00:00</time>
      </trkpt>
      <trkpt lat="0" lon="0">
        <time>2020-12-20T10:48:05.015000+00:00</time>
      </trkpt>
      <trkpt lat="0" lon="0">
        <time>2020-12-20T10:48:05.017000+00:00</time>
      </trkpt>
      <trkpt lat="47.30037" lon="-1.37095">
        <ele>73</ele>
        <time>2020-12-20T10:48:05.997000+00:00</time>
      </trkpt>
      <trkpt lat="0" lon="0">
        <time>2020-12-20T10:48:05.999000+00:00</time>
      </trkpt>
      <trkpt lat="0" lon="0">
        <time>2020-12-20T10:48:06.001000+00:00</time>
      </trkpt>
      <trkpt lat="0" lon="0">
        <time>2020-12-20T10:48:06.002000+00:00</time>
      </trkpt>
      <trkpt lat="47.30034" lon="-1.37099">
        <ele>73</ele>
        <time>2020-12-20T10:48:07.011000+00:00</time>
      </trkpt>
      <trkpt lat="0" lon="0">
        <time>2020-12-20T10:48:07.021000+00:00</time>
      </trkpt>
      <trkpt lat="0" lon="0">
        <time>2020-12-20T10:48:07.028000+00:00</time>
      </trkpt>
      <trkpt lat="0" lon="0">
        <time>2020-12-20T10:48:07.034000+00:00</time>
      </trkpt>
      <trkpt lat="47.30032" lon="-1.37103">
        <ele>74</ele>
        <time>2020-12-20T10:48:08.021000+00:00</time>
      </trkpt>
      <trkpt lat="0" lon="0">
        <time>2020-12-20T10:48:08.024000+00:00</time>
      </trkpt>
      <trkpt lat="0" lon="0">
        <time>2020-12-20T10:48:08.026000+00:00</time>
      </trkpt>
      <trkpt lat="0" lon="0">
        <time>2020-12-20T10:48:08.028000+00:00</time>
      </trkpt>
      <trkpt lat="47.3003" lon="-1.37107">
        <ele>74</ele>
        <time>2020-12-20T10:48:09.005000+00:00</time>
      </trkpt>
      <trkpt lat="0" lon="0">
        <time>2020-12-20T10:48:09.011000+00:00</time>
      </trkpt>
      <trkpt lat="0" lon="0">
        <time>2020-12-20T10:48:09.015000+00:00</time>
      </trkpt>
      <trkpt lat="0" lon="0">
        <time>2020-12-20T10:48:09.017000+00:00</time>
      </trkpt>
      <trkpt lat="47.30025" lon="-1.37115">
        <ele>74</ele>
        <time>2020-12-20T10:48:11.022000+00:00</time>
      </trkpt>
      <trkpt lat="0" lon="0">
        <time>2020-12-20T10:48:11.033000+00:00</time>
      </trkpt>
      <trkpt lat="0" lon="0">
        <time>2020-12-20T10:48:11.044000+00:00</time>
      </trkpt>
      <trkpt lat="0" lon="0">
        <time>2020-12-20T10:48:11.048000+00:00</time>
      </trkpt>
      <trkpt lat="47.30023" lon="-1.37119">
        <ele>74</ele>
        <time>2020-12-20T10:48:11.981000+00:00</time>
      </trkpt>
      <trkpt lat="0" lon="0">
        <time>2020-12-20T10:48:11.990000+00:00</time>
      </trkpt>
      <trkpt lat="0" lon="0">
        <time>2020-12-20T10:48:11.994000+00:00</time>
      </trkpt>
      <trkpt lat="0" lon="0">
        <time>2020-12-20T10:48:11.995000+00:00</time>
      </trkpt>
      <trkpt lat="47.30021" lon="-1.37123">
        <ele>75</ele>
        <time>2020-12-20T10:48:12.974000+00:00</time>
      </trkpt>
      <trkpt lat="0" lon="0">
        <time>2020-12-20T10:48:12.976000+00:00</time>
      </trkpt>
      <trkpt lat="0" lon="0">
        <time>2020-12-20T10:48:12.978000+00:00</time>
      </trkpt>
      <trkpt lat="0" lon="0">
        <time>2020-12-20T10:48:12.982000+00:00</time>
      </trkpt>
      <trkpt lat="47.30019" lon="-1.37127">
        <ele>75</ele>
        <time>2020-12-20T10:48:13.979000+00:00</time>
      </trkpt>
      <trkpt lat="0" lon="0">
        <time>2020-12-20T10:48:13.989000+00:00</time>
      </trkpt>
      <trkpt lat="0" lon="0">
        <time>2020-12-20T10:48:13.994000+00:00</time>
      </trkpt>
      <trkpt lat="0" lon="0">
        <time>2020-12-20T10:48:13.995000+00:00</time>
      </trkpt>
      <trkpt lat="47.30017" lon="-1.37131">
        <ele>75</ele>
        <time>2020-12-20T10:48:14.946000+00:00</time>
      </trkpt>
      <trkpt lat="0" lon="0">
        <time>2020-12-20T10:48:14.947000+00:00</time>
      </trkpt>
      <trkpt lat="0" lon="0">
        <time>2020-12-20T10:48:14.951000+00:00</time>
      </trkpt>
      <trkpt lat="0" lon="0">
        <time>2020-12-20T10:48:14.952000+00:00</time>
      </trkpt>
      <trkpt lat="47.30015" lon="-1.37135">
        <ele>75</ele>
        <time>2020-12-20T10:48:15.968000+00:00</time>
      </trkpt>
      <trkpt lat="0" lon="0">
        <time>2020-12-20T10:48:15.974000+00:00</time>
      </trkpt>
      <trkpt lat="0" lon="0">
        <time>2020-12-20T10:48:15.976000+00:00</time>
      </trkpt>
      <trkpt lat="0" lon="0">
        <time>2020-12-20T10:48:15.978000+00:00</time>
      </trkpt>
      <trkpt lat="47.30013" lon="-1.37139">
        <ele>75</ele>
        <time>2020-12-20T10:48:17.006000+00:00</time>
      </trkpt>
      <trkpt lat="0" lon="0">
        <time>2020-12-20T10:48:17.010000+00:00</time>
      </trkpt>
      <trkpt lat="0" lon="0">
        <time>2020-12-20T10:48:17.014000+00:00</time>
      </trkpt>
      <trkpt lat="0" lon="0">
        <time>2020-12-20T10:48:17.016000+00:00</time>
      </trkpt>
      <trkpt lat="47.3001" lon="-1.37143">
        <ele>74</ele>
        <time>2020-12-20T10:48:17.980000+00:00</time>
      </trkpt>
      <trkpt lat="0" lon="0">
        <time>2020-12-20T10:48:17.991000+00:00</time>
      </trkpt>
      <trkpt lat="0" lon="0">
        <time>2020-12-20T10:48:17.996000+00:00</time>
      </trkpt>
      <trkpt lat="0" lon="0">
        <time>2020-12-20T10:48:17.998000+00:00</time>
      </trkpt>
      <trkpt lat="47.30007" lon="-1.37147">
        <ele>74</ele>
        <time>2020-12-20T10:48:19.006000+00:00</time>
      </trkpt>
      <trkpt lat="0" lon="0">
        <time>2020-12-20T10:48:19.013000+00:00</time>
      </trkpt>
      <trkpt lat="0" lon="0">
        <time>2020-12-20T10:48:19.015000+00:00</time>
      </trkpt>
      <trkpt lat="0" lon="0">
        <time>2020-12-20T10:48:19.016000+00:00</time>
      </trkpt>
      <trkpt lat="47.30004" lon="-1.37151">
        <ele>74</ele>
        <time>2020-12-20T10:48:20.023000+00:00</time>
      </trkpt>
      <trkpt lat="0" lon="0">
        <time>2020-12-20T10:48:20.038000+00:00</time>
      </trkpt>
      <trkpt lat="0" lon="0">
        <time>2020-12-20T10:48:20.046000+00:00</time>
      </trkpt>
      <trkpt lat="0" lon="0">
        <time>2020-12-20T10:48:20.048000+00:00</time>
      </trkpt>
      <trkpt lat="47.30001" lon="-1.37155">
        <ele>74</ele>
        <time>2020-12-20T10:48:20.970000+00:00</time>
      </trkpt>
      <trkpt lat="0" lon="0">
        <time>2020-12-20T10:48:20.973000+00:00</time>
      </trkpt>
      <trkpt lat="0" lon="0">
        <time>2020-12-20T10:48:20.974000+00:00</time>
      </trkpt>
      <trkpt lat="47.29998" lon="-1.37159">
        <ele>74</ele>
        <time>2020-12-20T10:48:22.002000+00:00</time>
      </trkpt>
      <trkpt lat="0" lon="0">
        <time>2020-12-20T10:48:22.016000+00:00</time>
      </trkpt>
      <trkpt lat="0" lon="0">
        <time>2020-12-20T10:48:22.019000+00:00</time>
      </trkpt>
      <trkpt lat="0" lon="0">
        <time>2020-12-20T10:48:22.022000+00:00</time>
      </trkpt>
      <trkpt lat="47.29995" lon="-1.37163">
        <ele>74</ele>
        <time>2020-12-20T10:48:23.002000+00:00</time>
      </trkpt>
      <trkpt lat="0" lon="0">
        <time>2020-12-20T10:48:23.013000+00:00</time>
      </trkpt>
      <trkpt lat="0" lon="0">
        <time>2020-12-20T10:48:23.021000+00:00</time>
      </trkpt>
      <trkpt lat="0" lon="0">
        <time>2020-12-20T10:48:23.022000+00:00</time>
      </trkpt>
      <trkpt lat="47.29992" lon="-1.37168">
        <ele>74</ele>
        <time>2020-12-20T10:48:24.029000+00:00</time>
      </trkpt>
      <trkpt lat="0" lon="0">
        <time>2020-12-20T10:48:24.030000+00:00</time>
      </trkpt>
      <trkpt lat="0" lon="0">
        <time>2020-12-20T10:48:24.035000+00:00</time>
      </trkpt>
      <trkpt lat="0" lon="0">
        <time>2020-12-20T10:48:24.044000+00:00</time>
      </trkpt>
      <trkpt lat="47.29989" lon="-1.37172">
        <ele>74</ele>
        <time>2020-12-20T10:48:25.024000+00:00</time>
      </trkpt>
      <trkpt lat="0" lon="0">
        <time>2020-12-20T10:48:25.034000+00:00</time>
      </trkpt>
      <trkpt lat="0" lon="0">
        <time>2020-12-20T10:48:25.037000+00:00</time>
      </trkpt>
      <trkpt lat="0" lon="0">
        <time>2020-12-20T10:48:25.038000+00:00</time>
      </trkpt>
      <trkpt lat="47.29986" lon="-1.37177">
        <ele>74</ele>
        <time>2020-12-20T10:48:26.007000+00:00</time>
      </trkpt>
      <trkpt lat="0" lon="0">
        <time>2020-12-20T10:48:26.011000+00:00</time>
      </trkpt>
      <trkpt lat="0" lon="0">
        <time>2020-12-20T10:48:26.019000+00:00</time>
      </trkpt>
      <trkpt lat="0" lon="0">
        <time>2020-12-20T10:48:26.023000+00:00</time>
      </trkpt>
      <trkpt lat="47.29983" lon="-1.37181">
        <ele>74</ele>
        <time>2020-12-20T10:48:27.024000+00:00</time>
      </trkpt>
      <trkpt lat="0" lon="0">
        <time>2020-12-20T10:48:27.037000+00:00</time>
      </trkpt>
      <trkpt lat="0" lon="0">
        <time>2020-12-20T10:48:27.041000+00:00</time>
      </trkpt>
      <trkpt lat="0" lon="0">
        <time>2020-12-20T10:48:27.045000+00:00</time>
      </trkpt>
      <trkpt lat="47.2998" lon="-1.37186">
        <ele>75</ele>
        <time>2020-12-20T10:48:28.029000+00:00</time>
      </trkpt>
      <trkpt lat="0" lon="0">
        <time>2020-12-20T10:48:28.033000+00:00</time>
      </trkpt>
      <trkpt lat="0" lon="0">
        <time>2020-12-20T10:48:28.038000+00:00</time>
      </trkpt>
      <trkpt lat="0" lon="0">
        <time>2020-12-20T10:48:28.042000+00:00</time>
      </trkpt>
      <trkpt lat="47.29977" lon="-1.3719">
        <ele>75</ele>
        <time>2020-12-20T10:48:29.043000+00:00</time>
      </trkpt>
      <trkpt lat="0" lon="0">
        <time>2020-12-20T10:48:29.049000+00:00</time>
      </trkpt>
      <trkpt lat="0" lon="0">
        <time>2020-12-20T10:48:29.051000+00:00</time>
      </trkpt>
      <trkpt lat="0" lon="0">
        <time>2020-12-20T10:48:29.052000+00:00</time>
      </trkpt>
      <trkpt lat="47.29974" lon="-1.37195">
        <ele>75</ele>
        <time>2020-12-20T10:48:30.027000+00:00</time>
      </trkpt>
      <trkpt lat="0" lon="0">
        <time>2020-12-20T10:48:30.029000+00:00</time>
      </trkpt>
      <trkpt lat="0" lon="0">
        <time>2020-12-20T10:48:30.031000+00:00</time>
      </trkpt>
      <trkpt lat="0" lon="0">
        <time>2020-12-20T10:48:30.033000+00:00</time>
      </trkpt>
      <trkpt lat="47.29971" lon="-1.37199">
        <ele>75</ele>
        <time>2020-12-20T10:48:31.020000+00:00</time>
      </trkpt>
      <trkpt lat="0" lon="0">
        <time>2020-12-20T10:48:31.026000+00:00</time>
      </trkpt>
      <trkpt lat="0" lon="0">
        <time>2020-12-20T10:48:31.038000+00:00</time>
      </trkpt>
      <trkpt lat="0" lon="0">
        <time>2020-12-20T10:48:31.040000+00:00</time>
      </trkpt>
      <trkpt lat="47.29968" lon="-1.37203">
        <ele>75</ele>
        <time>2020-12-20T10:48:31.995000+00:00</time>
      </trkpt>
      <trkpt lat="0" lon="0">
        <time>2020-12-20T10:48:31.998000+00:00</time>
      </trkpt>
      <trkpt lat="0" lon="0">
        <time>2020-12-20T10:48:32+00:00</time>
      </trkpt>
      <trkpt lat="0" lon="0">
        <time>2020-12-20T10:48:32.001000+00:00</time>
      </trkpt>
      <trkpt lat="47.29965" lon="-1.37208">
        <ele>75</ele>
        <time>2020-12-20T10:48:33.025000+00:00</time>
      </trkpt>
      <trkpt lat="0" lon="0">
        <time>2020-12-20T10:48:33.027000+00:00</time>
      </trkpt>
      <trkpt lat="0" lon="0">
        <time>2020-12-20T10:48:33.031000+00:00</time>
      </trkpt>
      <trkpt lat="0" lon="0">
        <time>2020-12-20T10:48:33.033000+00:00</time>
      </trkpt>
      <trkpt lat="47.29962" lon="-1.37212">
        <ele>75</ele>
        <time>2020-12-20T10:48:34.014000+00:00</time>
      </trkpt>
      <trkpt lat="0" lon="0">
        <time>2020-12-20T10:48:34.023000+00:00</time>
      </trkpt>
      <trkpt lat="0" lon="0">
        <time>2020-12-20T10:48:34.028000+00:00</time>
      </trkpt>
      <trkpt lat="0" lon="0">
        <time>2020-12-20T10:48:34.030000+00:00</time>
      </trkpt>
      <trkpt lat="47.2996" lon="-1.37216">
        <ele>75</ele>
        <time>2020-12-20T10:48:34.990000+00:00</time>
      </trkpt>
      <trkpt lat="0" lon="0">
        <time>2020-12-20T10:48:34.994000+00:00</time>
      </trkpt>
      <trkpt lat="0" lon="0">
        <time>2020-12-20T10:48:35.011000+00:00</time>
      </trkpt>
      <trkpt lat="0" lon="0">
        <time>2020-12-20T10:48:35.012000+00:00</time>
      </trkpt>
      <trkpt lat="47.29957" lon="-1.3722">
        <ele>75</ele>
        <time>2020-12-20T10:48:36.059000+00:00</time>
      </trkpt>
      <trkpt lat="0" lon="0">
        <time>2020-12-20T10:48:36.068000+00:00</time>
      </trkpt>
      <trkpt lat="0" lon="0">
        <time>2020-12-20T10:48:36.070000+00:00</time>
      </trkpt>
      <trkpt lat="47.29954" lon="-1.37225">
        <ele>75</ele>
        <time>2020-12-20T10:48:37.040000+00:00</time>
      </trkpt>
      <trkpt lat="0" lon="0">
        <time>2020-12-20T10:48:37.042000+00:00</time>
      </trkpt>
      <trkpt lat="0" lon="0">
        <time>2020-12-20T10:48:37.045000+00:00</time>
      </trkpt>
      <trkpt lat="0" lon="0">
        <time>2020-12-20T10:48:37.046000+00:00</time>
      </trkpt>
      <trkpt lat="47.29951" lon="-1.37229">
        <ele>75</ele>
        <time>2020-12-20T10:48:37.988000+00:00</time>
      </trkpt>
      <trkpt lat="0" lon="0">
        <time>2020-12-20T10:48:37.998000+00:00</time>
      </trkpt>
      <trkpt lat="0" lon="0">
        <time>2020-12-20T10:48:38.002000+00:00</time>
      </trkpt>
      <trkpt lat="0" lon="0">
        <time>2020-12-20T10:48:38.005000+00:00</time>
      </trkpt>
      <trkpt lat="47.29949" lon="-1.37233">
        <ele>74</ele>
        <time>2020-12-20T10:48:39.011000+00:00</time>
      </trkpt>
      <trkpt lat="0" lon="0">
        <time>2020-12-20T10:48:39.022000+00:00</time>
      </trkpt>
      <trkpt lat="0" lon="0">
        <time>2020-12-20T10:48:39.024000+00:00</time>
      </trkpt>
      <trkpt lat="0" lon="0">
        <time>2020-12-20T10:48:39.026000+00:00</time>
      </trkpt>
      <trkpt lat="47.29946" lon="-1.37237">
        <ele>74</ele>
        <time>2020-12-20T10:48:39.978000+00:00</time>
      </trkpt>
      <trkpt lat="0" lon="0">
        <time>2020-12-20T10:48:39.983000+00:00</time>
      </trkpt>
      <trkpt lat="0" lon="0">
        <time>2020-12-20T10:48:39.986000+00:00</time>
      </trkpt>
      <trkpt lat="0" lon="0">
        <time>2020-12-20T10:48:39.988000+00:00</time>
      </trkpt>
      <trkpt lat="47.29943" lon="-1.37241">
        <ele>74</ele>
        <time>2020-12-20T10:48:41.013000+00:00</time>
      </trkpt>
      <trkpt lat="0" lon="0">
        <time>2020-12-20T10:48:41.019000+00:00</time>
      </trkpt>
      <trkpt lat="0" lon="0">
        <time>2020-12-20T10:48:41.025000+00:00</time>
      </trkpt>
      <trkpt lat="0" lon="0">
        <time>2020-12-20T10:48:41.028000+00:00</time>
      </trkpt>
      <trkpt lat="47.2994" lon="-1.37245">
        <ele>74</ele>
        <time>2020-12-20T10:48:42.028000+00:00</time>
      </trkpt>
      <trkpt lat="0" lon="0">
        <time>2020-12-20T10:48:42.040000+00:00</time>
      </trkpt>
      <trkpt lat="0" lon="0">
        <time>2020-12-20T10:48:42.042000+00:00</time>
      </trkpt>
      <trkpt lat="0" lon="0">
        <time>2020-12-20T10:48:42.044000+00:00</time>
      </trkpt>
      <trkpt lat="47.29938" lon="-1.37249">
        <ele>74</ele>
        <time>2020-12-20T10:48:43.017000+00:00</time>
      </trkpt>
      <trkpt lat="0" lon="0">
        <time>2020-12-20T10:48:43.036000+00:00</time>
      </trkpt>
      <trkpt lat="0" lon="0">
        <time>2020-12-20T10:48:43.046000+00:00</time>
      </trkpt>
      <trkpt lat="0" lon="0">
        <time>2020-12-20T10:48:43.050000+00:00</time>
      </trkpt>
      <trkpt lat="47.29935" lon="-1.37253">
        <ele>74</ele>
        <time>2020-12-20T10:48:44.012000+00:00</time>
      </trkpt>
      <trkpt lat="0" lon="0">
        <time>2020-12-20T10:48:44.019000+00:00</time>
      </trkpt>
      <trkpt lat="0" lon="0">
        <time>2020-12-20T10:48:44.022000+00:00</time>
      </trkpt>
      <trkpt lat="0" lon="0">
        <time>2020-12-20T10:48:44.023000+00:00</time>
      </trkpt>
      <trkpt lat="47.29932" lon="-1.37257">
        <ele>74</ele>
        <time>2020-12-20T10:48:45.056000+00:00</time>
      </trkpt>
      <trkpt lat="0" lon="0">
        <time>2020-12-20T10:48:45.061000+00:00</time>
      </trkpt>
      <trkpt lat="0" lon="0">
        <time>2020-12-20T10:48:45.071000+00:00</time>
      </trkpt>
      <trkpt lat="0" lon="0">
        <time>2020-12-20T10:48:45.072000+00:00</time>
      </trkpt>
      <trkpt lat="47.29929" lon="-1.37261">
        <ele>74</ele>
        <time>2020-12-20T10:48:46.036000+00:00</time>
      </trkpt>
      <trkpt lat="0" lon="0">
        <time>2020-12-20T10:48:46.040000+00:00</time>
      </trkpt>
      <trkpt lat="0" lon="0">
        <time>2020-12-20T10:48:46.041000+00:00</time>
      </trkpt>
      <trkpt lat="0" lon="0">
        <time>2020-12-20T10:48:46.042000+00:00</time>
      </trkpt>
      <trkpt lat="47.29926" lon="-1.37265">
        <ele>74</ele>
        <time>2020-12-20T10:48:47.008000+00:00</time>
      </trkpt>
      <trkpt lat="0" lon="0">
        <time>2020-12-20T10:48:47.011000+00:00</time>
      </trkpt>
      <trkpt lat="0" lon="0">
        <time>2020-12-20T10:48:47.014000+00:00</time>
      </trkpt>
      <trkpt lat="0" lon="0">
        <time>2020-12-20T10:48:47.015000+00:00</time>
      </trkpt>
      <trkpt lat="47.29923" lon="-1.37269">
        <ele>74</ele>
        <time>2020-12-20T10:48:48.034000+00:00</time>
      </trkpt>
      <trkpt lat="0" lon="0">
        <time>2020-12-20T10:48:48.038000+00:00</time>
      </trkpt>
      <trkpt lat="0" lon="0">
        <time>2020-12-20T10:48:48.044000+00:00</time>
      </trkpt>
      <trkpt lat="0" lon="0">
        <time>2020-12-20T10:48:48.046000+00:00</time>
      </trkpt>
      <trkpt lat="47.2992" lon="-1.37273">
        <ele>75</ele>
        <time>2020-12-20T10:48:49.030000+00:00</time>
      </trkpt>
      <trkpt lat="0" lon="0">
        <time>2020-12-20T10:48:49.046000+00:00</time>
      </trkpt>
      <trkpt lat="0" lon="0">
        <time>2020-12-20T10:48:49.052000+00:00</time>
      </trkpt>
      <trkpt lat="0" lon="0">
        <time>2020-12-20T10:48:49.054000+00:00</time>
      </trkpt>
      <trkpt lat="47.29918" lon="-1.37277">
        <ele>75</ele>
        <time>2020-12-20T10:48:50.022000+00:00</time>
      </trkpt>
      <trkpt lat="0" lon="0">
        <time>2020-12-20T10:48:50.029000+00:00</time>
      </trkpt>
      <trkpt lat="0" lon="0">
        <time>2020-12-20T10:48:50.031000+00:00</time>
      </trkpt>
      <trkpt lat="0" lon="0">
        <time>2020-12-20T10:48:50.032000+00:00</time>
      </trkpt>
      <trkpt lat="47.29915" lon="-1.37281">
        <ele>75</ele>
        <time>2020-12-20T10:48:51.013000+00:00</time>
      </trkpt>
      <trkpt lat="0" lon="0">
        <time>2020-12-20T10:48:51.014000+00:00</time>
      </trkpt>
      <trkpt lat="0" lon="0">
        <time>2020-12-20T10:48:51.016000+00:00</time>
      </trkpt>
      <trkpt lat="47.29912" lon="-1.37285">
        <ele>75</ele>
        <time>2020-12-20T10:48:52.039000+00:00</time>
      </trkpt>
      <trkpt lat="0" lon="0">
        <time>2020-12-20T10:48:52.050000+00:00</time>
      </trkpt>
      <trkpt lat="0" lon="0">
        <time>2020-12-20T10:48:52.055000+00:00</time>
      </trkpt>
      <trkpt lat="0" lon="0">
        <time>2020-12-20T10:48:52.057000+00:00</time>
      </trkpt>
      <trkpt lat="47.29909" lon="-1.37289">
        <ele>74</ele>
        <time>2020-12-20T10:48:53.027000+00:00</time>
      </trkpt>
      <trkpt lat="0" lon="0">
        <time>2020-12-20T10:48:53.033000+00:00</time>
      </trkpt>
      <trkpt lat="0" lon="0">
        <time>2020-12-20T10:48:53.037000+00:00</time>
      </trkpt>
      <trkpt lat="0" lon="0">
        <time>2020-12-20T10:48:53.039000+00:00</time>
      </trkpt>
      <trkpt lat="47.29906" lon="-1.37294">
        <ele>74</ele>
        <time>2020-12-20T10:48:54.013000+00:00</time>
      </trkpt>
      <trkpt lat="0" lon="0">
        <time>2020-12-20T10:48:54.025000+00:00</time>
      </trkpt>
      <trkpt lat="0" lon="0">
        <time>2020-12-20T10:48:54.027000+00:00</time>
      </trkpt>
      <trkpt lat="0" lon="0">
        <time>2020-12-20T10:48:54.028000+00:00</time>
      </trkpt>
      <trkpt lat="47.29903" lon="-1.37298">
        <ele>74</ele>
        <time>2020-12-20T10:48:55.035000+00:00</time>
      </trkpt>
      <trkpt lat="0" lon="0">
        <time>2020-12-20T10:48:55.043000+00:00</time>
      </trkpt>
      <trkpt lat="0" lon="0">
        <time>2020-12-20T10:48:55.050000+00:00</time>
      </trkpt>
      <trkpt lat="0" lon="0">
        <time>2020-12-20T10:48:55.053000+00:00</time>
      </trkpt>
      <trkpt lat="47.299" lon="-1.37302">
        <ele>74</ele>
        <time>2020-12-20T10:48:56.026000+00:00</time>
      </trkpt>
      <trkpt lat="0" lon="0">
        <time>2020-12-20T10:48:56.036000+00:00</time>
      </trkpt>
      <trkpt lat="0" lon="0">
        <time>2020-12-20T10:48:56.044000+00:00</time>
      </trkpt>
      <trkpt lat="0" lon="0">
        <time>2020-12-20T10:48:56.047000+00:00</time>
      </trkpt>
      <trkpt lat="47.29898" lon="-1.37307">
        <ele>74</ele>
        <time>2020-12-20T10:48:57.040000+00:00</time>
      </trkpt>
      <trkpt lat="0" lon="0">
        <time>2020-12-20T10:48:57.055000+00:00</time>
      </trkpt>
      <trkpt lat="0" lon="0">
        <time>2020-12-20T10:48:57.059000+00:00</time>
      </trkpt>
      <trkpt lat="0" lon="0">
        <time>2020-12-20T10:48:57.060000+00:00</time>
      </trkpt>
      <trkpt lat="47.29895" lon="-1.37311">
        <ele>74</ele>
        <time>2020-12-20T10:48:58.050000+00:00</time>
      </trkpt>
      <trkpt lat="0" lon="0">
        <time>2020-12-20T10:48:58.054000+00:00</time>
      </trkpt>
      <trkpt lat="0" lon="0">
        <time>2020-12-20T10:48:58.060000+00:00</time>
      </trkpt>
      <trkpt lat="0" lon="0">
        <time>2020-12-20T10:48:58.062000+00:00</time>
      </trkpt>
      <trkpt lat="47.29892" lon="-1.37316">
        <ele>74</ele>
        <time>2020-12-20T10:48:59.052000+00:00</time>
      </trkpt>
      <trkpt lat="0" lon="0">
        <time>2020-12-20T10:48:59.058000+00:00</time>
      </trkpt>
      <trkpt lat="0" lon="0">
        <time>2020-12-20T10:48:59.062000+00:00</time>
      </trkpt>
      <trkpt lat="0" lon="0">
        <time>2020-12-20T10:48:59.063000+00:00</time>
      </trkpt>
      <trkpt lat="47.2989" lon="-1.3732">
        <ele>74</ele>
        <time>2020-12-20T10:49:00.009000+00:00</time>
      </trkpt>
      <trkpt lat="0" lon="0">
        <time>2020-12-20T10:49:00.025000+00:00</time>
      </trkpt>
      <trkpt lat="0" lon="0">
        <time>2020-12-20T10:49:00.029000+00:00</time>
      </trkpt>
      <trkpt lat="47.29887" lon="-1.37325">
        <ele>74</ele>
        <time>2020-12-20T10:49:01.036000+00:00</time>
      </trkpt>
      <trkpt lat="0" lon="0">
        <time>2020-12-20T10:49:01.038000+00:00</time>
      </trkpt>
      <trkpt lat="0" lon="0">
        <time>2020-12-20T10:49:01.041000+00:00</time>
      </trkpt>
      <trkpt lat="47.29885" lon="-1.3733">
        <ele>74</ele>
        <time>2020-12-20T10:49:02.016000+00:00</time>
      </trkpt>
      <trkpt lat="0" lon="0">
        <time>2020-12-20T10:49:02.029000+00:00</time>
      </trkpt>
      <trkpt lat="0" lon="0">
        <time>2020-12-20T10:49:02.034000+00:00</time>
      </trkpt>
      <trkpt lat="0" lon="0">
        <time>2020-12-20T10:49:02.035000+00:00</time>
      </trkpt>
      <trkpt lat="47.29882" lon="-1.37334">
        <ele>74</ele>
        <time>2020-12-20T10:49:03.025000+00:00</time>
      </trkpt>
      <trkpt lat="0" lon="0">
        <time>2020-12-20T10:49:03.027000+00:00</time>
      </trkpt>
      <trkpt lat="0" lon="0">
        <time>2020-12-20T10:49:03.034000+00:00</time>
      </trkpt>
      <trkpt lat="0" lon="0">
        <time>2020-12-20T10:49:03.037000+00:00</time>
      </trkpt>
      <trkpt lat="47.2988" lon="-1.37339">
        <ele>74</ele>
        <time>2020-12-20T10:49:04.003000+00:00</time>
      </trkpt>
      <trkpt lat="0" lon="0">
        <time>2020-12-20T10:49:04.020000+00:00</time>
      </trkpt>
      <trkpt lat="0" lon="0">
        <time>2020-12-20T10:49:04.023000+00:00</time>
      </trkpt>
      <trkpt lat="0" lon="0">
        <time>2020-12-20T10:49:04.025000+00:00</time>
      </trkpt>
      <trkpt lat="47.29877" lon="-1.37343">
        <ele>74</ele>
        <time>2020-12-20T10:49:05.010000+00:00</time>
      </trkpt>
      <trkpt lat="0" lon="0">
        <time>2020-12-20T10:49:05.015000+00:00</time>
      </trkpt>
      <trkpt lat="0" lon="0">
        <time>2020-12-20T10:49:05.017000+00:00</time>
      </trkpt>
      <trkpt lat="0" lon="0">
        <time>2020-12-20T10:49:05.018000+00:00</time>
      </trkpt>
      <trkpt lat="47.29875" lon="-1.37348">
        <ele>74</ele>
        <time>2020-12-20T10:49:06.042000+00:00</time>
      </trkpt>
      <trkpt lat="0" lon="0">
        <time>2020-12-20T10:49:06.045000+00:00</time>
      </trkpt>
      <trkpt lat="0" lon="0">
        <time>2020-12-20T10:49:06.049000+00:00</time>
      </trkpt>
      <trkpt lat="0" lon="0">
        <time>2020-12-20T10:49:06.050000+00:00</time>
      </trkpt>
      <trkpt lat="47.29872" lon="-1.37353">
        <ele>74</ele>
        <time>2020-12-20T10:49:07.029000+00:00</time>
      </trkpt>
      <trkpt lat="0" lon="0">
        <time>2020-12-20T10:49:07.044000+00:00</time>
      </trkpt>
      <trkpt lat="0" lon="0">
        <time>2020-12-20T10:49:07.053000+00:00</time>
      </trkpt>
      <trkpt lat="0" lon="0">
        <time>2020-12-20T10:49:07.056000+00:00</time>
      </trkpt>
      <trkpt lat="47.2987" lon="-1.37357">
        <ele>74</ele>
        <time>2020-12-20T10:49:08.030000+00:00</time>
      </trkpt>
      <trkpt lat="0" lon="0">
        <time>2020-12-20T10:49:08.032000+00:00</time>
      </trkpt>
      <trkpt lat="0" lon="0">
        <time>2020-12-20T10:49:08.034000+00:00</time>
      </trkpt>
      <trkpt lat="0" lon="0">
        <time>2020-12-20T10:49:08.035000+00:00</time>
      </trkpt>
      <trkpt lat="47.29867" lon="-1.37361">
        <ele>74</ele>
        <time>2020-12-20T10:49:09.030000+00:00</time>
      </trkpt>
      <trkpt lat="0" lon="0">
        <time>2020-12-20T10:49:09.031000+00:00</time>
      </trkpt>
      <trkpt lat="0" lon="0">
        <time>2020-12-20T10:49:09.033000+00:00</time>
      </trkpt>
      <trkpt lat="0" lon="0">
        <time>2020-12-20T10:49:09.034000+00:00</time>
      </trkpt>
      <trkpt lat="47.29864" lon="-1.37365">
        <ele>74</ele>
        <time>2020-12-20T10:49:10.030000+00:00</time>
      </trkpt>
      <trkpt lat="0" lon="0">
        <time>2020-12-20T10:49:10.039000+00:00</time>
      </trkpt>
      <trkpt lat="0" lon="0">
        <time>2020-12-20T10:49:10.041000+00:00</time>
      </trkpt>
      <trkpt lat="0" lon="0">
        <time>2020-12-20T10:49:10.042000+00:00</time>
      </trkpt>
      <trkpt lat="47.29862" lon="-1.3737">
        <ele>74</ele>
        <time>2020-12-20T10:49:10.945000+00:00</time>
      </trkpt>
      <trkpt lat="0" lon="0">
        <time>2020-12-20T10:49:10.958000+00:00</time>
      </trkpt>
      <trkpt lat="0" lon="0">
        <time>2020-12-20T10:49:10.962000+00:00</time>
      </trkpt>
      <trkpt lat="0" lon="0">
        <time>2020-12-20T10:49:10.963000+00:00</time>
      </trkpt>
      <trkpt lat="47.29859" lon="-1.37374">
        <ele>75</ele>
        <time>2020-12-20T10:49:11.984000+00:00</time>
      </trkpt>
      <trkpt lat="0" lon="0">
        <time>2020-12-20T10:49:11.994000+00:00</time>
      </trkpt>
      <trkpt lat="0" lon="0">
        <time>2020-12-20T10:49:12.003000+00:00</time>
      </trkpt>
      <trkpt lat="0" lon="0">
        <time>2020-12-20T10:49:12.005000+00:00</time>
      </trkpt>
      <trkpt lat="47.29856" lon="-1.37378">
        <ele>74</ele>
        <time>2020-12-20T10:49:13.011000+00:00</time>
      </trkpt>
      <trkpt lat="0" lon="0">
        <time>2020-12-20T10:49:13.019000+00:00</time>
      </trkpt>
      <trkpt lat="0" lon="0">
        <time>2020-12-20T10:49:13.023000+00:00</time>
      </trkpt>
      <trkpt lat="0" lon="0">
        <time>2020-12-20T10:49:13.026000+00:00</time>
      </trkpt>
      <trkpt lat="47.29853" lon="-1.37382">
        <ele>74</ele>
        <time>2020-12-20T10:49:14.003000+00:00</time>
      </trkpt>
      <trkpt lat="0" lon="0">
        <time>2020-12-20T10:49:14.015000+00:00</time>
      </trkpt>
      <trkpt lat="0" lon="0">
        <time>2020-12-20T10:49:14.027000+00:00</time>
      </trkpt>
      <trkpt lat="0" lon="0">
        <time>2020-12-20T10:49:14.029000+00:00</time>
      </trkpt>
      <trkpt lat="47.29851" lon="-1.37386">
        <ele>74</ele>
        <time>2020-12-20T10:49:15.026000+00:00</time>
      </trkpt>
      <trkpt lat="0" lon="0">
        <time>2020-12-20T10:49:15.029000+00:00</time>
      </trkpt>
      <trkpt lat="0" lon="0">
        <time>2020-12-20T10:49:15.032000+00:00</time>
      </trkpt>
      <trkpt lat="0" lon="0">
        <time>2020-12-20T10:49:15.033000+00:00</time>
      </trkpt>
      <trkpt lat="47.29848" lon="-1.3739">
        <ele>74</ele>
        <time>2020-12-20T10:49:15.986000+00:00</time>
      </trkpt>
      <trkpt lat="0" lon="0">
        <time>2020-12-20T10:49:15.988000+00:00</time>
      </trkpt>
      <trkpt lat="0" lon="0">
        <time>2020-12-20T10:49:15.990000+00:00</time>
      </trkpt>
      <trkpt lat="0" lon="0">
        <time>2020-12-20T10:49:15.991000+00:00</time>
      </trkpt>
      <trkpt lat="47.29845" lon="-1.37394">
        <ele>74</ele>
        <time>2020-12-20T10:49:17.047000+00:00</time>
      </trkpt>
      <trkpt lat="0" lon="0">
        <time>2020-12-20T10:49:17.052000+00:00</time>
      </trkpt>
      <trkpt lat="0" lon="0">
        <time>2020-12-20T10:49:17.054000+00:00</time>
      </trkpt>
      <trkpt lat="47.29843" lon="-1.37398">
        <ele>74</ele>
        <time>2020-12-20T10:49:18.040000+00:00</time>
      </trkpt>
      <trkpt lat="0" lon="0">
        <time>2020-12-20T10:49:18.048000+00:00</time>
      </trkpt>
      <trkpt lat="0" lon="0">
        <time>2020-12-20T10:49:18.054000+00:00</time>
      </trkpt>
      <trkpt lat="0" lon="0">
        <time>2020-12-20T10:49:18.055000+00:00</time>
      </trkpt>
      <trkpt lat="47.2984" lon="-1.37402">
        <ele>74</ele>
        <time>2020-12-20T10:49:19.032000+00:00</time>
      </trkpt>
      <trkpt lat="0" lon="0">
        <time>2020-12-20T10:49:19.040000+00:00</time>
      </trkpt>
      <trkpt lat="0" lon="0">
        <time>2020-12-20T10:49:19.046000+00:00</time>
      </trkpt>
      <trkpt lat="0" lon="0">
        <time>2020-12-20T10:49:19.051000+00:00</time>
      </trkpt>
      <trkpt lat="47.29837" lon="-1.37407">
        <ele>74</ele>
        <time>2020-12-20T10:49:20.023000+00:00</time>
      </trkpt>
      <trkpt lat="0" lon="0">
        <time>2020-12-20T10:49:20.031000+00:00</time>
      </trkpt>
      <trkpt lat="0" lon="0">
        <time>2020-12-20T10:49:20.037000+00:00</time>
      </trkpt>
      <trkpt lat="0" lon="0">
        <time>2020-12-20T10:49:20.039000+00:00</time>
      </trkpt>
      <trkpt lat="47.29834" lon="-1.37411">
        <ele>74</ele>
        <time>2020-12-20T10:49:21.029000+00:00</time>
      </trkpt>
      <trkpt lat="0" lon="0">
        <time>2020-12-20T10:49:21.049000+00:00</time>
      </trkpt>
      <trkpt lat="0" lon="0">
        <time>2020-12-20T10:49:21.051000+00:00</time>
      </trkpt>
      <trkpt lat="0" lon="0">
        <time>2020-12-20T10:49:21.053000+00:00</time>
      </trkpt>
      <trkpt lat="47.29832" lon="-1.37415">
        <ele>74</ele>
        <time>2020-12-20T10:49:22.017000+00:00</time>
      </trkpt>
      <trkpt lat="0" lon="0">
        <time>2020-12-20T10:49:22.026000+00:00</time>
      </trkpt>
      <trkpt lat="0" lon="0">
        <time>2020-12-20T10:49:22.028000+00:00</time>
      </trkpt>
      <trkpt lat="0" lon="0">
        <time>2020-12-20T10:49:22.029000+00:00</time>
      </trkpt>
      <trkpt lat="47.29829" lon="-1.37419">
        <ele>74</ele>
        <time>2020-12-20T10:49:22.933000+00:00</time>
      </trkpt>
      <trkpt lat="0" lon="0">
        <time>2020-12-20T10:49:22.938000+00:00</time>
      </trkpt>
      <trkpt lat="0" lon="0">
        <time>2020-12-20T10:49:22.941000+00:00</time>
      </trkpt>
      <trkpt lat="0" lon="0">
        <time>2020-12-20T10:49:22.943000+00:00</time>
      </trkpt>
      <trkpt lat="47.29827" lon="-1.37423">
        <ele>74</ele>
        <time>2020-12-20T10:49:23.953000+00:00</time>
      </trkpt>
      <trkpt lat="0" lon="0">
        <time>2020-12-20T10:49:23.955000+00:00</time>
      </trkpt>
      <trkpt lat="0" lon="0">
        <time>2020-12-20T10:49:23.959000+00:00</time>
      </trkpt>
      <trkpt lat="0" lon="0">
        <time>2020-12-20T10:49:23.961000+00:00</time>
      </trkpt>
      <trkpt lat="47.29825" lon="-1.37427">
        <ele>74</ele>
        <time>2020-12-20T10:49:25.012000+00:00</time>
      </trkpt>
      <trkpt lat="0" lon="0">
        <time>2020-12-20T10:49:25.054000+00:00</time>
      </trkpt>
      <trkpt lat="0" lon="0">
        <time>2020-12-20T10:49:25.056000+00:00</time>
      </trkpt>
      <trkpt lat="0" lon="0">
        <time>2020-12-20T10:49:25.058000+00:00</time>
      </trkpt>
      <trkpt lat="47.29823" lon="-1.37431">
        <ele>75</ele>
        <time>2020-12-20T10:49:26.017000+00:00</time>
      </trkpt>
      <trkpt lat="0" lon="0">
        <time>2020-12-20T10:49:26.034000+00:00</time>
      </trkpt>
      <trkpt lat="0" lon="0">
        <time>2020-12-20T10:49:26.041000+00:00</time>
      </trkpt>
      <trkpt lat="0" lon="0">
        <time>2020-12-20T10:49:26.043000+00:00</time>
      </trkpt>
      <trkpt lat="47.2982" lon="-1.37434">
        <ele>75</ele>
        <time>2020-12-20T10:49:27.031000+00:00</time>
      </trkpt>
      <trkpt lat="0" lon="0">
        <time>2020-12-20T10:49:27.040000+00:00</time>
      </trkpt>
      <trkpt lat="0" lon="0">
        <time>2020-12-20T10:49:27.046000+00:00</time>
      </trkpt>
      <trkpt lat="0" lon="0">
        <time>2020-12-20T10:49:27.050000+00:00</time>
      </trkpt>
      <trkpt lat="47.29818" lon="-1.37438">
        <ele>75</ele>
        <time>2020-12-20T10:49:28.038000+00:00</time>
      </trkpt>
      <trkpt lat="0" lon="0">
        <time>2020-12-20T10:49:28.047000+00:00</time>
      </trkpt>
      <trkpt lat="0" lon="0">
        <time>2020-12-20T10:49:28.052000+00:00</time>
      </trkpt>
      <trkpt lat="0" lon="0">
        <time>2020-12-20T10:49:28.053000+00:00</time>
      </trkpt>
      <trkpt lat="47.29815" lon="-1.37442">
        <ele>75</ele>
        <time>2020-12-20T10:49:28.997000+00:00</time>
      </trkpt>
      <trkpt lat="0" lon="0">
        <time>2020-12-20T10:49:29.003000+00:00</time>
      </trkpt>
      <trkpt lat="0" lon="0">
        <time>2020-12-20T10:49:29.008000+00:00</time>
      </trkpt>
      <trkpt lat="0" lon="0">
        <time>2020-12-20T10:49:29.010000+00:00</time>
      </trkpt>
      <trkpt lat="47.29813" lon="-1.37446">
        <ele>75</ele>
        <time>2020-12-20T10:49:30.016000+00:00</time>
      </trkpt>
      <trkpt lat="0" lon="0">
        <time>2020-12-20T10:49:30.028000+00:00</time>
      </trkpt>
      <trkpt lat="0" lon="0">
        <time>2020-12-20T10:49:30.032000+00:00</time>
      </trkpt>
      <trkpt lat="0" lon="0">
        <time>2020-12-20T10:49:30.034000+00:00</time>
      </trkpt>
      <trkpt lat="47.2981" lon="-1.3745">
        <ele>75</ele>
        <time>2020-12-20T10:49:31.016000+00:00</time>
      </trkpt>
      <trkpt lat="0" lon="0">
        <time>2020-12-20T10:49:31.020000+00:00</time>
      </trkpt>
      <trkpt lat="0" lon="0">
        <time>2020-12-20T10:49:31.025000+00:00</time>
      </trkpt>
      <trkpt lat="0" lon="0">
        <time>2020-12-20T10:49:31.027000+00:00</time>
      </trkpt>
      <trkpt lat="47.29807" lon="-1.37455">
        <ele>74</ele>
        <time>2020-12-20T10:49:31.985000+00:00</time>
      </trkpt>
      <trkpt lat="0" lon="0">
        <time>2020-12-20T10:49:31.986000+00:00</time>
      </trkpt>
      <trkpt lat="0" lon="0">
        <time>2020-12-20T10:49:31.987000+00:00</time>
      </trkpt>
      <trkpt lat="47.29804" lon="-1.37459">
        <ele>74</ele>
        <time>2020-12-20T10:49:32.965000+00:00</time>
      </trkpt>
      <trkpt lat="0" lon="0">
        <time>2020-12-20T10:49:32.969000+00:00</time>
      </trkpt>
      <trkpt lat="0" lon="0">
        <time>2020-12-20T10:49:32.970000+00:00</time>
      </trkpt>
      <trkpt lat="0" lon="0">
        <time>2020-12-20T10:49:32.971000+00:00</time>
      </trkpt>
      <trkpt lat="47.29801" lon="-1.37464">
        <ele>74</ele>
        <time>2020-12-20T10:49:34.008000+00:00</time>
      </trkpt>
      <trkpt lat="0" lon="0">
        <time>2020-12-20T10:49:34.013000+00:00</time>
      </trkpt>
      <trkpt lat="0" lon="0">
        <time>2020-12-20T10:49:34.017000+00:00</time>
      </trkpt>
      <trkpt lat="0" lon="0">
        <time>2020-12-20T10:49:34.020000+00:00</time>
      </trkpt>
      <trkpt lat="47.29798" lon="-1.37469">
        <ele>74</ele>
        <time>2020-12-20T10:49:35.012000+00:00</time>
      </trkpt>
      <trkpt lat="0" lon="0">
        <time>2020-12-20T10:49:35.024000+00:00</time>
      </trkpt>
      <trkpt lat="0" lon="0">
        <time>2020-12-20T10:49:35.030000+00:00</time>
      </trkpt>
      <trkpt lat="0" lon="0">
        <time>2020-12-20T10:49:35.032000+00:00</time>
      </trkpt>
      <trkpt lat="47.29795" lon="-1.37474">
        <ele>74</ele>
        <time>2020-12-20T10:49:35.999000+00:00</time>
      </trkpt>
      <trkpt lat="0" lon="0">
        <time>2020-12-20T10:49:36.013000+00:00</time>
      </trkpt>
      <trkpt lat="0" lon="0">
        <time>2020-12-20T10:49:36.022000+00:00</time>
      </trkpt>
      <trkpt lat="0" lon="0">
        <time>2020-12-20T10:49:36.024000+00:00</time>
      </trkpt>
      <trkpt lat="47.29792" lon="-1.37479">
        <ele>74</ele>
        <time>2020-12-20T10:49:37.034000+00:00</time>
      </trkpt>
      <trkpt lat="0" lon="0">
        <time>2020-12-20T10:49:37.038000+00:00</time>
      </trkpt>
      <trkpt lat="0" lon="0">
        <time>2020-12-20T10:49:37.040000+00:00</time>
      </trkpt>
      <trkpt lat="0" lon="0">
        <time>2020-12-20T10:49:37.042000+00:00</time>
      </trkpt>
      <trkpt lat="47.2979" lon="-1.37484">
        <ele>74</ele>
        <time>2020-12-20T10:49:38.003000+00:00</time>
      </trkpt>
      <trkpt lat="0" lon="0">
        <time>2020-12-20T10:49:38.020000+00:00</time>
      </trkpt>
      <trkpt lat="0" lon="0">
        <time>2020-12-20T10:49:38.024000+00:00</time>
      </trkpt>
      <trkpt lat="0" lon="0">
        <time>2020-12-20T10:49:38.027000+00:00</time>
      </trkpt>
      <trkpt lat="47.29787" lon="-1.37489">
        <ele>74</ele>
        <time>2020-12-20T10:49:39.015000+00:00</time>
      </trkpt>
      <trkpt lat="0" lon="0">
        <time>2020-12-20T10:49:39.022000+00:00</time>
      </trkpt>
      <trkpt lat="0" lon="0">
        <time>2020-12-20T10:49:39.034000+00:00</time>
      </trkpt>
      <trkpt lat="0" lon="0">
        <time>2020-12-20T10:49:39.035000+00:00</time>
      </trkpt>
      <trkpt lat="47.29784" lon="-1.37494">
        <ele>74</ele>
        <time>2020-12-20T10:49:40.033000+00:00</time>
      </trkpt>
      <trkpt lat="0" lon="0">
        <time>2020-12-20T10:49:40.038000+00:00</time>
      </trkpt>
      <trkpt lat="0" lon="0">
        <time>2020-12-20T10:49:40.042000+00:00</time>
      </trkpt>
      <trkpt lat="0" lon="0">
        <time>2020-12-20T10:49:40.045000+00:00</time>
      </trkpt>
      <trkpt lat="47.29781" lon="-1.37499">
        <ele>74</ele>
        <time>2020-12-20T10:49:41.009000+00:00</time>
      </trkpt>
      <trkpt lat="0" lon="0">
        <time>2020-12-20T10:49:41.030000+00:00</time>
      </trkpt>
      <trkpt lat="0" lon="0">
        <time>2020-12-20T10:49:41.034000+00:00</time>
      </trkpt>
      <trkpt lat="0" lon="0">
        <time>2020-12-20T10:49:41.036000+00:00</time>
      </trkpt>
      <trkpt lat="47.29778" lon="-1.37504">
        <ele>74</ele>
        <time>2020-12-20T10:49:42.012000+00:00</time>
      </trkpt>
      <trkpt lat="0" lon="0">
        <time>2020-12-20T10:49:42.022000+00:00</time>
      </trkpt>
      <trkpt lat="0" lon="0">
        <time>2020-12-20T10:49:42.034000+00:00</time>
      </trkpt>
      <trkpt lat="0" lon="0">
        <time>2020-12-20T10:49:42.037000+00:00</time>
      </trkpt>
      <trkpt lat="47.29775" lon="-1.37508">
        <ele>74</ele>
        <time>2020-12-20T10:49:43.031000+00:00</time>
      </trkpt>
      <trkpt lat="0" lon="0">
        <time>2020-12-20T10:49:43.043000+00:00</time>
      </trkpt>
      <trkpt lat="0" lon="0">
        <time>2020-12-20T10:49:43.045000+00:00</time>
      </trkpt>
      <trkpt lat="0" lon="0">
        <time>2020-12-20T10:49:43.046000+00:00</time>
      </trkpt>
      <trkpt lat="47.29773" lon="-1.37513">
        <ele>74</ele>
        <time>2020-12-20T10:49:44.005000+00:00</time>
      </trkpt>
      <trkpt lat="0" lon="0">
        <time>2020-12-20T10:49:44.018000+00:00</time>
      </trkpt>
      <trkpt lat="0" lon="0">
        <time>2020-12-20T10:49:44.025000+00:00</time>
      </trkpt>
      <trkpt lat="0" lon="0">
        <time>2020-12-20T10:49:44.029000+00:00</time>
      </trkpt>
      <trkpt lat="47.2977" lon="-1.37518">
        <ele>74</ele>
        <time>2020-12-20T10:49:45.020000+00:00</time>
      </trkpt>
      <trkpt lat="0" lon="0">
        <time>2020-12-20T10:49:45.023000+00:00</time>
      </trkpt>
      <trkpt lat="0" lon="0">
        <time>2020-12-20T10:49:45.025000+00:00</time>
      </trkpt>
      <trkpt lat="0" lon="0">
        <time>2020-12-20T10:49:45.026000+00:00</time>
      </trkpt>
      <trkpt lat="47.29767" lon="-1.37522">
        <ele>74</ele>
        <time>2020-12-20T10:49:46.016000+00:00</time>
      </trkpt>
      <trkpt lat="0" lon="0">
        <time>2020-12-20T10:49:46.026000+00:00</time>
      </trkpt>
      <trkpt lat="0" lon="0">
        <time>2020-12-20T10:49:46.033000+00:00</time>
      </trkpt>
      <trkpt lat="0" lon="0">
        <time>2020-12-20T10:49:46.039000+00:00</time>
      </trkpt>
      <trkpt lat="47.29765" lon="-1.37527">
        <ele>74</ele>
        <time>2020-12-20T10:49:47.026000+00:00</time>
      </trkpt>
      <trkpt lat="0" lon="0">
        <time>2020-12-20T10:49:47.046000+00:00</time>
      </trkpt>
      <trkpt lat="0" lon="0">
        <time>2020-12-20T10:49:47.053000+00:00</time>
      </trkpt>
      <trkpt lat="0" lon="0">
        <time>2020-12-20T10:49:47.055000+00:00</time>
      </trkpt>
      <trkpt lat="47.29762" lon="-1.37531">
        <ele>74</ele>
        <time>2020-12-20T10:49:48.026000+00:00</time>
      </trkpt>
      <trkpt lat="0" lon="0">
        <time>2020-12-20T10:49:48.034000+00:00</time>
      </trkpt>
      <trkpt lat="0" lon="0">
        <time>2020-12-20T10:49:48.043000+00:00</time>
      </trkpt>
      <trkpt lat="0" lon="0">
        <time>2020-12-20T10:49:48.048000+00:00</time>
      </trkpt>
      <trkpt lat="47.2976" lon="-1.37536">
        <ele>74</ele>
        <time>2020-12-20T10:49:49.027000+00:00</time>
      </trkpt>
      <trkpt lat="0" lon="0">
        <time>2020-12-20T10:49:49.042000+00:00</time>
      </trkpt>
      <trkpt lat="0" lon="0">
        <time>2020-12-20T10:49:49.044000+00:00</time>
      </trkpt>
      <trkpt lat="0" lon="0">
        <time>2020-12-20T10:49:49.046000+00:00</time>
      </trkpt>
      <trkpt lat="47.29758" lon="-1.3754">
        <ele>74</ele>
        <time>2020-12-20T10:49:50.020000+00:00</time>
      </trkpt>
      <trkpt lat="0" lon="0">
        <time>2020-12-20T10:49:50.029000+00:00</time>
      </trkpt>
      <trkpt lat="0" lon="0">
        <time>2020-12-20T10:49:50.033000+00:00</time>
      </trkpt>
      <trkpt lat="0" lon="0">
        <time>2020-12-20T10:49:50.035000+00:00</time>
      </trkpt>
      <trkpt lat="47.29755" lon="-1.37545">
        <ele>74</ele>
        <time>2020-12-20T10:49:51.040000+00:00</time>
      </trkpt>
      <trkpt lat="0" lon="0">
        <time>2020-12-20T10:49:51.058000+00:00</time>
      </trkpt>
      <trkpt lat="0" lon="0">
        <time>2020-12-20T10:49:51.064000+00:00</time>
      </trkpt>
      <trkpt lat="0" lon="0">
        <time>2020-12-20T10:49:51.067000+00:00</time>
      </trkpt>
      <trkpt lat="47.29753" lon="-1.37549">
        <ele>74</ele>
        <time>2020-12-20T10:49:52.022000+00:00</time>
      </trkpt>
      <trkpt lat="0" lon="0">
        <time>2020-12-20T10:49:52.035000+00:00</time>
      </trkpt>
      <trkpt lat="0" lon="0">
        <time>2020-12-20T10:49:52.044000+00:00</time>
      </trkpt>
      <trkpt lat="0" lon="0">
        <time>2020-12-20T10:49:52.048000+00:00</time>
      </trkpt>
      <trkpt lat="47.29751" lon="-1.37553">
        <ele>74</ele>
        <time>2020-12-20T10:49:53.026000+00:00</time>
      </trkpt>
      <trkpt lat="0" lon="0">
        <time>2020-12-20T10:49:53.033000+00:00</time>
      </trkpt>
      <trkpt lat="0" lon="0">
        <time>2020-12-20T10:49:53.035000+00:00</time>
      </trkpt>
      <trkpt lat="0" lon="0">
        <time>2020-12-20T10:49:53.037000+00:00</time>
      </trkpt>
      <trkpt lat="47.29749" lon="-1.37557">
        <ele>74</ele>
        <time>2020-12-20T10:49:54.005000+00:00</time>
      </trkpt>
      <trkpt lat="0" lon="0">
        <time>2020-12-20T10:49:54.017000+00:00</time>
      </trkpt>
      <trkpt lat="0" lon="0">
        <time>2020-12-20T10:49:54.022000+00:00</time>
      </trkpt>
      <trkpt lat="0" lon="0">
        <time>2020-12-20T10:49:54.027000+00:00</time>
      </trkpt>
      <trkpt lat="47.29746" lon="-1.37561">
        <ele>74</ele>
        <time>2020-12-20T10:49:55.053000+00:00</time>
      </trkpt>
      <trkpt lat="0" lon="0">
        <time>2020-12-20T10:49:55.059000+00:00</time>
      </trkpt>
      <trkpt lat="0" lon="0">
        <time>2020-12-20T10:49:55.062000+00:00</time>
      </trkpt>
      <trkpt lat="0" lon="0">
        <time>2020-12-20T10:49:55.063000+00:00</time>
      </trkpt>
      <trkpt lat="47.29744" lon="-1.37566">
        <ele>74</ele>
        <time>2020-12-20T10:49:56.034000+00:00</time>
      </trkpt>
      <trkpt lat="0" lon="0">
        <time>2020-12-20T10:49:56.042000+00:00</time>
      </trkpt>
      <trkpt lat="0" lon="0">
        <time>2020-12-20T10:49:56.044000+00:00</time>
      </trkpt>
      <trkpt lat="0" lon="0">
        <time>2020-12-20T10:49:56.045000+00:00</time>
      </trkpt>
      <trkpt lat="47.29742" lon="-1.37571">
        <ele>75</ele>
        <time>2020-12-20T10:49:57.023000+00:00</time>
      </trkpt>
      <trkpt lat="0" lon="0">
        <time>2020-12-20T10:49:57.028000+00:00</time>
      </trkpt>
      <trkpt lat="0" lon="0">
        <time>2020-12-20T10:49:57.032000+00:00</time>
      </trkpt>
      <trkpt lat="0" lon="0">
        <time>2020-12-20T10:49:57.035000+00:00</time>
      </trkpt>
      <trkpt lat="47.29739" lon="-1.37576">
        <ele>75</ele>
        <time>2020-12-20T10:49:58.032000+00:00</time>
      </trkpt>
      <trkpt lat="0" lon="0">
        <time>2020-12-20T10:49:58.047000+00:00</time>
      </trkpt>
      <trkpt lat="0" lon="0">
        <time>2020-12-20T10:49:58.055000+00:00</time>
      </trkpt>
      <trkpt lat="0" lon="0">
        <time>2020-12-20T10:49:58.057000+00:00</time>
      </trkpt>
      <trkpt lat="47.29737" lon="-1.37581">
        <ele>75</ele>
        <time>2020-12-20T10:49:59.034000+00:00</time>
      </trkpt>
      <trkpt lat="0" lon="0">
        <time>2020-12-20T10:49:59.051000+00:00</time>
      </trkpt>
      <trkpt lat="0" lon="0">
        <time>2020-12-20T10:49:59.056000+00:00</time>
      </trkpt>
      <trkpt lat="0" lon="0">
        <time>2020-12-20T10:49:59.058000+00:00</time>
      </trkpt>
      <trkpt lat="47.29734" lon="-1.37586">
        <ele>75</ele>
        <time>2020-12-20T10:50:00.027000+00:00</time>
      </trkpt>
      <trkpt lat="0" lon="0">
        <time>2020-12-20T10:50:00.028000+00:00</time>
      </trkpt>
      <trkpt lat="0" lon="0">
        <time>2020-12-20T10:50:00.030000+00:00</time>
      </trkpt>
      <trkpt lat="47.29732" lon="-1.37591">
        <ele>75</ele>
        <time>2020-12-20T10:50:01.059000+00:00</time>
      </trkpt>
      <trkpt lat="0" lon="0">
        <time>2020-12-20T10:50:01.061000+00:00</time>
      </trkpt>
      <trkpt lat="0" lon="0">
        <time>2020-12-20T10:50:01.063000+00:00</time>
      </trkpt>
      <trkpt lat="0" lon="0">
        <time>2020-12-20T10:50:01.065000+00:00</time>
      </trkpt>
      <trkpt lat="47.29729" lon="-1.37596">
        <ele>75</ele>
        <time>2020-12-20T10:50:02.060000+00:00</time>
      </trkpt>
      <trkpt lat="0" lon="0">
        <time>2020-12-20T10:50:02.065000+00:00</time>
      </trkpt>
      <trkpt lat="0" lon="0">
        <time>2020-12-20T10:50:02.075000+00:00</time>
      </trkpt>
      <trkpt lat="0" lon="0">
        <time>2020-12-20T10:50:02.080000+00:00</time>
      </trkpt>
      <trkpt lat="47.29727" lon="-1.37602">
        <ele>76</ele>
        <time>2020-12-20T10:50:03.026000+00:00</time>
      </trkpt>
      <trkpt lat="0" lon="0">
        <time>2020-12-20T10:50:03.031000+00:00</time>
      </trkpt>
      <trkpt lat="0" lon="0">
        <time>2020-12-20T10:50:03.039000+00:00</time>
      </trkpt>
      <trkpt lat="0" lon="0">
        <time>2020-12-20T10:50:03.041000+00:00</time>
      </trkpt>
      <trkpt lat="47.29725" lon="-1.37607">
        <ele>76</ele>
        <time>2020-12-20T10:50:04.042000+00:00</time>
      </trkpt>
      <trkpt lat="0" lon="0">
        <time>2020-12-20T10:50:04.050000+00:00</time>
      </trkpt>
      <trkpt lat="0" lon="0">
        <time>2020-12-20T10:50:04.056000+00:00</time>
      </trkpt>
      <trkpt lat="0" lon="0">
        <time>2020-12-20T10:50:04.059000+00:00</time>
      </trkpt>
      <trkpt lat="47.29722" lon="-1.37612">
        <ele>76</ele>
        <time>2020-12-20T10:50:05.006000+00:00</time>
      </trkpt>
      <trkpt lat="0" lon="0">
        <time>2020-12-20T10:50:05.012000+00:00</time>
      </trkpt>
      <trkpt lat="0" lon="0">
        <time>2020-12-20T10:50:05.021000+00:00</time>
      </trkpt>
      <trkpt lat="0" lon="0">
        <time>2020-12-20T10:50:05.023000+00:00</time>
      </trkpt>
      <trkpt lat="47.2972" lon="-1.37617">
        <ele>76</ele>
        <time>2020-12-20T10:50:06.012000+00:00</time>
      </trkpt>
      <trkpt lat="0" lon="0">
        <time>2020-12-20T10:50:06.024000+00:00</time>
      </trkpt>
      <trkpt lat="0" lon="0">
        <time>2020-12-20T10:50:06.028000+00:00</time>
      </trkpt>
      <trkpt lat="0" lon="0">
        <time>2020-12-20T10:50:06.031000+00:00</time>
      </trkpt>
      <trkpt lat="47.29717" lon="-1.37622">
        <ele>76</ele>
        <time>2020-12-20T10:50:07.019000+00:00</time>
      </trkpt>
      <trkpt lat="0" lon="0">
        <time>2020-12-20T10:50:07.033000+00:00</time>
      </trkpt>
      <trkpt lat="0" lon="0">
        <time>2020-12-20T10:50:07.039000+00:00</time>
      </trkpt>
      <trkpt lat="0" lon="0">
        <time>2020-12-20T10:50:07.041000+00:00</time>
      </trkpt>
      <trkpt lat="47.29714" lon="-1.37627">
        <ele>76</ele>
        <time>2020-12-20T10:50:08.053000+00:00</time>
      </trkpt>
      <trkpt lat="0" lon="0">
        <time>2020-12-20T10:50:08.063000+00:00</time>
      </trkpt>
      <trkpt lat="0" lon="0">
        <time>2020-12-20T10:50:08.070000+00:00</time>
      </trkpt>
      <trkpt lat="0" lon="0">
        <time>2020-12-20T10:50:08.073000+00:00</time>
      </trkpt>
      <trkpt lat="47.29712" lon="-1.37632">
        <ele>76</ele>
        <time>2020-12-20T10:50:09.032000+00:00</time>
      </trkpt>
      <trkpt lat="0" lon="0">
        <time>2020-12-20T10:50:09.037000+00:00</time>
      </trkpt>
      <trkpt lat="0" lon="0">
        <time>2020-12-20T10:50:09.042000+00:00</time>
      </trkpt>
      <trkpt lat="0" lon="0">
        <time>2020-12-20T10:50:09.043000+00:00</time>
      </trkpt>
      <trkpt lat="47.29709" lon="-1.37637">
        <ele>75</ele>
        <time>2020-12-20T10:50:10.023000+00:00</time>
      </trkpt>
      <trkpt lat="0" lon="0">
        <time>2020-12-20T10:50:10.026000+00:00</time>
      </trkpt>
      <trkpt lat="0" lon="0">
        <time>2020-12-20T10:50:10.028000+00:00</time>
      </trkpt>
      <trkpt lat="0" lon="0">
        <time>2020-12-20T10:50:10.029000+00:00</time>
      </trkpt>
      <trkpt lat="47.29706" lon="-1.37642">
        <ele>75</ele>
        <time>2020-12-20T10:50:11.003000+00:00</time>
      </trkpt>
      <trkpt lat="0" lon="0">
        <time>2020-12-20T10:50:11.021000+00:00</time>
      </trkpt>
      <trkpt lat="0" lon="0">
        <time>2020-12-20T10:50:11.025000+00:00</time>
      </trkpt>
      <trkpt lat="0" lon="0">
        <time>2020-12-20T10:50:11.026000+00:00</time>
      </trkpt>
      <trkpt lat="47.29703" lon="-1.37647">
        <ele>74</ele>
        <time>2020-12-20T10:50:12.039000+00:00</time>
      </trkpt>
      <trkpt lat="0" lon="0">
        <time>2020-12-20T10:50:12.047000+00:00</time>
      </trkpt>
      <trkpt lat="0" lon="0">
        <time>2020-12-20T10:50:12.048000+00:00</time>
      </trkpt>
      <trkpt lat="0" lon="0">
        <time>2020-12-20T10:50:12.049000+00:00</time>
      </trkpt>
      <trkpt lat="47.29701" lon="-1.37652">
        <ele>74</ele>
        <time>2020-12-20T10:50:13.010000+00:00</time>
      </trkpt>
      <trkpt lat="0" lon="0">
        <time>2020-12-20T10:50:13.017000+00:00</time>
      </trkpt>
      <trkpt lat="0" lon="0">
        <time>2020-12-20T10:50:13.020000+00:00</time>
      </trkpt>
      <trkpt lat="0" lon="0">
        <time>2020-12-20T10:50:13.022000+00:00</time>
      </trkpt>
      <trkpt lat="47.29698" lon="-1.37657">
        <ele>74</ele>
        <time>2020-12-20T10:50:14.021000+00:00</time>
      </trkpt>
      <trkpt lat="0" lon="0">
        <time>2020-12-20T10:50:14.023000+00:00</time>
      </trkpt>
      <trkpt lat="0" lon="0">
        <time>2020-12-20T10:50:14.026000+00:00</time>
      </trkpt>
      <trkpt lat="0" lon="0">
        <time>2020-12-20T10:50:14.028000+00:00</time>
      </trkpt>
      <trkpt lat="47.29696" lon="-1.37662">
        <ele>74</ele>
        <time>2020-12-20T10:50:15.006000+00:00</time>
      </trkpt>
      <trkpt lat="0" lon="0">
        <time>2020-12-20T10:50:15.013000+00:00</time>
      </trkpt>
      <trkpt lat="0" lon="0">
        <time>2020-12-20T10:50:15.018000+00:00</time>
      </trkpt>
      <trkpt lat="0" lon="0">
        <time>2020-12-20T10:50:15.020000+00:00</time>
      </trkpt>
      <trkpt lat="47.29693" lon="-1.37666">
        <ele>74</ele>
        <time>2020-12-20T10:50:16.010000+00:00</time>
      </trkpt>
      <trkpt lat="0" lon="0">
        <time>2020-12-20T10:50:16.016000+00:00</time>
      </trkpt>
      <trkpt lat="0" lon="0">
        <time>2020-12-20T10:50:16.022000+00:00</time>
      </trkpt>
      <trkpt lat="0" lon="0">
        <time>2020-12-20T10:50:16.024000+00:00</time>
      </trkpt>
      <trkpt lat="47.2969" lon="-1.37671">
        <ele>74</ele>
        <time>2020-12-20T10:50:17.034000+00:00</time>
      </trkpt>
      <trkpt lat="0" lon="0">
        <time>2020-12-20T10:50:17.044000+00:00</time>
      </trkpt>
      <trkpt lat="0" lon="0">
        <time>2020-12-20T10:50:17.054000+00:00</time>
      </trkpt>
      <trkpt lat="0" lon="0">
        <time>2020-12-20T10:50:17.058000+00:00</time>
      </trkpt>
      <trkpt lat="47.29688" lon="-1.37675">
        <ele>74</ele>
        <time>2020-12-20T10:50:18.032000+00:00</time>
      </trkpt>
      <trkpt lat="0" lon="0">
        <time>2020-12-20T10:50:18.041000+00:00</time>
      </trkpt>
      <trkpt lat="0" lon="0">
        <time>2020-12-20T10:50:18.046000+00:00</time>
      </trkpt>
      <trkpt lat="0" lon="0">
        <time>2020-12-20T10:50:18.048000+00:00</time>
      </trkpt>
      <trkpt lat="47.29686" lon="-1.3768">
        <ele>74</ele>
        <time>2020-12-20T10:50:19.055000+00:00</time>
      </trkpt>
      <trkpt lat="0" lon="0">
        <time>2020-12-20T10:50:19.064000+00:00</time>
      </trkpt>
      <trkpt lat="0" lon="0">
        <time>2020-12-20T10:50:19.069000+00:00</time>
      </trkpt>
      <trkpt lat="0" lon="0">
        <time>2020-12-20T10:50:19.071000+00:00</time>
      </trkpt>
      <trkpt lat="47.29683" lon="-1.37684">
        <ele>74</ele>
        <time>2020-12-20T10:50:20.007000+00:00</time>
      </trkpt>
      <trkpt lat="0" lon="0">
        <time>2020-12-20T10:50:20.018000+00:00</time>
      </trkpt>
      <trkpt lat="0" lon="0">
        <time>2020-12-20T10:50:20.020000+00:00</time>
      </trkpt>
      <trkpt lat="0" lon="0">
        <time>2020-12-20T10:50:20.021000+00:00</time>
      </trkpt>
      <trkpt lat="47.29681" lon="-1.37688">
        <ele>74</ele>
        <time>2020-12-20T10:50:21.054000+00:00</time>
      </trkpt>
      <trkpt lat="0" lon="0">
        <time>2020-12-20T10:50:21.069000+00:00</time>
      </trkpt>
      <trkpt lat="0" lon="0">
        <time>2020-12-20T10:50:21.073000+00:00</time>
      </trkpt>
      <trkpt lat="0" lon="0">
        <time>2020-12-20T10:50:21.074000+00:00</time>
      </trkpt>
      <trkpt lat="47.29679" lon="-1.37693">
        <ele>74</ele>
        <time>2020-12-20T10:50:22.051000+00:00</time>
      </trkpt>
      <trkpt lat="0" lon="0">
        <time>2020-12-20T10:50:22.059000+00:00</time>
      </trkpt>
      <trkpt lat="0" lon="0">
        <time>2020-12-20T10:50:22.067000+00:00</time>
      </trkpt>
      <trkpt lat="0" lon="0">
        <time>2020-12-20T10:50:22.069000+00:00</time>
      </trkpt>
      <trkpt lat="47.29677" lon="-1.37697">
        <ele>74</ele>
        <time>2020-12-20T10:50:23.013000+00:00</time>
      </trkpt>
      <trkpt lat="0" lon="0">
        <time>2020-12-20T10:50:23.030000+00:00</time>
      </trkpt>
      <trkpt lat="0" lon="0">
        <time>2020-12-20T10:50:23.036000+00:00</time>
      </trkpt>
      <trkpt lat="0" lon="0">
        <time>2020-12-20T10:50:23.038000+00:00</time>
      </trkpt>
      <trkpt lat="47.29675" lon="-1.37702">
        <ele>74</ele>
        <time>2020-12-20T10:50:24.047000+00:00</time>
      </trkpt>
      <trkpt lat="0" lon="0">
        <time>2020-12-20T10:50:24.054000+00:00</time>
      </trkpt>
      <trkpt lat="0" lon="0">
        <time>2020-12-20T10:50:24.059000+00:00</time>
      </trkpt>
      <trkpt lat="0" lon="0">
        <time>2020-12-20T10:50:24.062000+00:00</time>
      </trkpt>
      <trkpt lat="47.29672" lon="-1.37706">
        <ele>74</ele>
        <time>2020-12-20T10:50:25.058000+00:00</time>
      </trkpt>
      <trkpt lat="0" lon="0">
        <time>2020-12-20T10:50:25.072000+00:00</time>
      </trkpt>
      <trkpt lat="0" lon="0">
        <time>2020-12-20T10:50:25.074000+00:00</time>
      </trkpt>
      <trkpt lat="0" lon="0">
        <time>2020-12-20T10:50:25.075000+00:00</time>
      </trkpt>
      <trkpt lat="47.2967" lon="-1.37711">
        <ele>73</ele>
        <time>2020-12-20T10:50:26.056000+00:00</time>
      </trkpt>
      <trkpt lat="0" lon="0">
        <time>2020-12-20T10:50:26.063000+00:00</time>
      </trkpt>
      <trkpt lat="0" lon="0">
        <time>2020-12-20T10:50:26.071000+00:00</time>
      </trkpt>
      <trkpt lat="0" lon="0">
        <time>2020-12-20T10:50:26.074000+00:00</time>
      </trkpt>
      <trkpt lat="47.29668" lon="-1.37715">
        <ele>73</ele>
        <time>2020-12-20T10:50:27.053000+00:00</time>
      </trkpt>
      <trkpt lat="0" lon="0">
        <time>2020-12-20T10:50:27.062000+00:00</time>
      </trkpt>
      <trkpt lat="0" lon="0">
        <time>2020-12-20T10:50:27.070000+00:00</time>
      </trkpt>
      <trkpt lat="0" lon="0">
        <time>2020-12-20T10:50:27.073000+00:00</time>
      </trkpt>
      <trkpt lat="47.29666" lon="-1.3772">
        <ele>73</ele>
        <time>2020-12-20T10:50:28.069000+00:00</time>
      </trkpt>
      <trkpt lat="0" lon="0">
        <time>2020-12-20T10:50:28.079000+00:00</time>
      </trkpt>
      <trkpt lat="0" lon="0">
        <time>2020-12-20T10:50:28.084000+00:00</time>
      </trkpt>
      <trkpt lat="0" lon="0">
        <time>2020-12-20T10:50:28.092000+00:00</time>
      </trkpt>
      <trkpt lat="47.29664" lon="-1.37724">
        <ele>73</ele>
        <time>2020-12-20T10:50:29.049000+00:00</time>
      </trkpt>
      <trkpt lat="0" lon="0">
        <time>2020-12-20T10:50:29.050000+00:00</time>
      </trkpt>
      <trkpt lat="0" lon="0">
        <time>2020-12-20T10:50:29.052000+00:00</time>
      </trkpt>
      <trkpt lat="0" lon="0">
        <time>2020-12-20T10:50:29.053000+00:00</time>
      </trkpt>
      <trkpt lat="47.29662" lon="-1.37729">
        <ele>73</ele>
        <time>2020-12-20T10:50:30.049000+00:00</time>
      </trkpt>
      <trkpt lat="0" lon="0">
        <time>2020-12-20T10:50:30.057000+00:00</time>
      </trkpt>
      <trkpt lat="0" lon="0">
        <time>2020-12-20T10:50:30.066000+00:00</time>
      </trkpt>
      <trkpt lat="0" lon="0">
        <time>2020-12-20T10:50:30.070000+00:00</time>
      </trkpt>
      <trkpt lat="47.29659" lon="-1.37733">
        <ele>72</ele>
        <time>2020-12-20T10:50:31.039000+00:00</time>
      </trkpt>
      <trkpt lat="0" lon="0">
        <time>2020-12-20T10:50:31.042000+00:00</time>
      </trkpt>
      <trkpt lat="0" lon="0">
        <time>2020-12-20T10:50:31.051000+00:00</time>
      </trkpt>
      <trkpt lat="0" lon="0">
        <time>2020-12-20T10:50:31.054000+00:00</time>
      </trkpt>
      <trkpt lat="47.29657" lon="-1.37738">
        <ele>72</ele>
        <time>2020-12-20T10:50:32+00:00</time>
      </trkpt>
      <trkpt lat="0" lon="0">
        <time>2020-12-20T10:50:32.005000+00:00</time>
      </trkpt>
      <trkpt lat="0" lon="0">
        <time>2020-12-20T10:50:32.009000+00:00</time>
      </trkpt>
      <trkpt lat="0" lon="0">
        <time>2020-12-20T10:50:32.011000+00:00</time>
      </trkpt>
      <trkpt lat="47.29655" lon="-1.37742">
        <ele>72</ele>
        <time>2020-12-20T10:50:33.050000+00:00</time>
      </trkpt>
      <trkpt lat="0" lon="0">
        <time>2020-12-20T10:50:33.058000+00:00</time>
      </trkpt>
      <trkpt lat="0" lon="0">
        <time>2020-12-20T10:50:33.067000+00:00</time>
      </trkpt>
      <trkpt lat="0" lon="0">
        <time>2020-12-20T10:50:33.070000+00:00</time>
      </trkpt>
      <trkpt lat="47.29653" lon="-1.37747">
        <ele>73</ele>
        <time>2020-12-20T10:50:34.011000+00:00</time>
      </trkpt>
      <trkpt lat="0" lon="0">
        <time>2020-12-20T10:50:34.019000+00:00</time>
      </trkpt>
      <trkpt lat="0" lon="0">
        <time>2020-12-20T10:50:34.022000+00:00</time>
      </trkpt>
      <trkpt lat="0" lon="0">
        <time>2020-12-20T10:50:34.025000+00:00</time>
      </trkpt>
      <trkpt lat="47.2965" lon="-1.37751">
        <ele>73</ele>
        <time>2020-12-20T10:50:35.031000+00:00</time>
      </trkpt>
      <trkpt lat="0" lon="0">
        <time>2020-12-20T10:50:35.036000+00:00</time>
      </trkpt>
      <trkpt lat="0" lon="0">
        <time>2020-12-20T10:50:35.038000+00:00</time>
      </trkpt>
      <trkpt lat="0" lon="0">
        <time>2020-12-20T10:50:35.039000+00:00</time>
      </trkpt>
      <trkpt lat="47.29647" lon="-1.37756">
        <ele>73</ele>
        <time>2020-12-20T10:50:35.954000+00:00</time>
      </trkpt>
      <trkpt lat="0" lon="0">
        <time>2020-12-20T10:50:35.962000+00:00</time>
      </trkpt>
      <trkpt lat="0" lon="0">
        <time>2020-12-20T10:50:35.968000+00:00</time>
      </trkpt>
      <trkpt lat="0" lon="0">
        <time>2020-12-20T10:50:35.969000+00:00</time>
      </trkpt>
      <trkpt lat="47.29645" lon="-1.3776">
        <ele>73</ele>
        <time>2020-12-20T10:50:37.024000+00:00</time>
      </trkpt>
      <trkpt lat="0" lon="0">
        <time>2020-12-20T10:50:37.033000+00:00</time>
      </trkpt>
      <trkpt lat="0" lon="0">
        <time>2020-12-20T10:50:37.041000+00:00</time>
      </trkpt>
      <trkpt lat="0" lon="0">
        <time>2020-12-20T10:50:37.049000+00:00</time>
      </trkpt>
      <trkpt lat="47.29642" lon="-1.37765">
        <ele>73</ele>
        <time>2020-12-20T10:50:38.047000+00:00</time>
      </trkpt>
      <trkpt lat="0" lon="0">
        <time>2020-12-20T10:50:38.064000+00:00</time>
      </trkpt>
      <trkpt lat="0" lon="0">
        <time>2020-12-20T10:50:38.066000+00:00</time>
      </trkpt>
      <trkpt lat="0" lon="0">
        <time>2020-12-20T10:50:38.067000+00:00</time>
      </trkpt>
      <trkpt lat="47.2964" lon="-1.3777">
        <ele>74</ele>
        <time>2020-12-20T10:50:39.030000+00:00</time>
      </trkpt>
      <trkpt lat="0" lon="0">
        <time>2020-12-20T10:50:39.032000+00:00</time>
      </trkpt>
      <trkpt lat="0" lon="0">
        <time>2020-12-20T10:50:39.035000+00:00</time>
      </trkpt>
      <trkpt lat="0" lon="0">
        <time>2020-12-20T10:50:39.036000+00:00</time>
      </trkpt>
      <trkpt lat="47.29637" lon="-1.37774">
        <ele>74</ele>
        <time>2020-12-20T10:50:40.028000+00:00</time>
      </trkpt>
      <trkpt lat="0" lon="0">
        <time>2020-12-20T10:50:40.038000+00:00</time>
      </trkpt>
      <trkpt lat="0" lon="0">
        <time>2020-12-20T10:50:40.048000+00:00</time>
      </trkpt>
      <trkpt lat="0" lon="0">
        <time>2020-12-20T10:50:40.050000+00:00</time>
      </trkpt>
      <trkpt lat="47.29635" lon="-1.37779">
        <ele>74</ele>
        <time>2020-12-20T10:50:41.014000+00:00</time>
      </trkpt>
      <trkpt lat="0" lon="0">
        <time>2020-12-20T10:50:41.016000+00:00</time>
      </trkpt>
      <trkpt lat="0" lon="0">
        <time>2020-12-20T10:50:41.018000+00:00</time>
      </trkpt>
      <trkpt lat="0" lon="0">
        <time>2020-12-20T10:50:41.019000+00:00</time>
      </trkpt>
      <trkpt lat="47.29632" lon="-1.37784">
        <ele>75</ele>
        <time>2020-12-20T10:50:42.062000+00:00</time>
      </trkpt>
      <trkpt lat="0" lon="0">
        <time>2020-12-20T10:50:42.072000+00:00</time>
      </trkpt>
      <trkpt lat="0" lon="0">
        <time>2020-12-20T10:50:42.077000+00:00</time>
      </trkpt>
      <trkpt lat="0" lon="0">
        <time>2020-12-20T10:50:42.079000+00:00</time>
      </trkpt>
      <trkpt lat="47.2963" lon="-1.37788">
        <ele>74</ele>
        <time>2020-12-20T10:50:43.022000+00:00</time>
      </trkpt>
      <trkpt lat="0" lon="0">
        <time>2020-12-20T10:50:43.026000+00:00</time>
      </trkpt>
      <trkpt lat="0" lon="0">
        <time>2020-12-20T10:50:43.032000+00:00</time>
      </trkpt>
      <trkpt lat="0" lon="0">
        <time>2020-12-20T10:50:43.034000+00:00</time>
      </trkpt>
      <trkpt lat="47.29627" lon="-1.37793">
        <ele>74</ele>
        <time>2020-12-20T10:50:44.024000+00:00</time>
      </trkpt>
      <trkpt lat="0" lon="0">
        <time>2020-12-20T10:50:44.030000+00:00</time>
      </trkpt>
      <trkpt lat="0" lon="0">
        <time>2020-12-20T10:50:44.032000+00:00</time>
      </trkpt>
      <trkpt lat="0" lon="0">
        <time>2020-12-20T10:50:44.033000+00:00</time>
      </trkpt>
      <trkpt lat="47.29624" lon="-1.37798">
        <ele>74</ele>
        <time>2020-12-20T10:50:45.012000+00:00</time>
      </trkpt>
      <trkpt lat="0" lon="0">
        <time>2020-12-20T10:50:45.020000+00:00</time>
      </trkpt>
      <trkpt lat="0" lon="0">
        <time>2020-12-20T10:50:45.024000+00:00</time>
      </trkpt>
      <trkpt lat="0" lon="0">
        <time>2020-12-20T10:50:45.027000+00:00</time>
      </trkpt>
      <trkpt lat="47.29621" lon="-1.37803">
        <ele>74</ele>
        <time>2020-12-20T10:50:46.032000+00:00</time>
      </trkpt>
      <trkpt lat="0" lon="0">
        <time>2020-12-20T10:50:46.047000+00:00</time>
      </trkpt>
      <trkpt lat="0" lon="0">
        <time>2020-12-20T10:50:46.049000+00:00</time>
      </trkpt>
      <trkpt lat="0" lon="0">
        <time>2020-12-20T10:50:46.051000+00:00</time>
      </trkpt>
      <trkpt lat="47.29619" lon="-1.37808">
        <ele>73</ele>
        <time>2020-12-20T10:50:47.047000+00:00</time>
      </trkpt>
      <trkpt lat="0" lon="0">
        <time>2020-12-20T10:50:47.059000+00:00</time>
      </trkpt>
      <trkpt lat="0" lon="0">
        <time>2020-12-20T10:50:47.062000+00:00</time>
      </trkpt>
      <trkpt lat="0" lon="0">
        <time>2020-12-20T10:50:47.064000+00:00</time>
      </trkpt>
      <trkpt lat="47.29616" lon="-1.37814">
        <ele>73</ele>
        <time>2020-12-20T10:50:48.010000+00:00</time>
      </trkpt>
      <trkpt lat="0" lon="0">
        <time>2020-12-20T10:50:48.019000+00:00</time>
      </trkpt>
      <trkpt lat="0" lon="0">
        <time>2020-12-20T10:50:48.022000+00:00</time>
      </trkpt>
      <trkpt lat="0" lon="0">
        <time>2020-12-20T10:50:48.023000+00:00</time>
      </trkpt>
      <trkpt lat="47.29613" lon="-1.37819">
        <ele>73</ele>
        <time>2020-12-20T10:50:49.013000+00:00</time>
      </trkpt>
      <trkpt lat="0" lon="0">
        <time>2020-12-20T10:50:49.018000+00:00</time>
      </trkpt>
      <trkpt lat="0" lon="0">
        <time>2020-12-20T10:50:49.023000+00:00</time>
      </trkpt>
      <trkpt lat="0" lon="0">
        <time>2020-12-20T10:50:49.026000+00:00</time>
      </trkpt>
      <trkpt lat="47.29611" lon="-1.37824">
        <ele>72</ele>
        <time>2020-12-20T10:50:49.983000+00:00</time>
      </trkpt>
      <trkpt lat="0" lon="0">
        <time>2020-12-20T10:50:50.001000+00:00</time>
      </trkpt>
      <trkpt lat="0" lon="0">
        <time>2020-12-20T10:50:50.009000+00:00</time>
      </trkpt>
      <trkpt lat="0" lon="0">
        <time>2020-12-20T10:50:50.011000+00:00</time>
      </trkpt>
      <trkpt lat="47.29608" lon="-1.37829">
        <ele>72</ele>
        <time>2020-12-20T10:50:51.007000+00:00</time>
      </trkpt>
      <trkpt lat="0" lon="0">
        <time>2020-12-20T10:50:51.022000+00:00</time>
      </trkpt>
      <trkpt lat="0" lon="0">
        <time>2020-12-20T10:50:51.027000+00:00</time>
      </trkpt>
      <trkpt lat="0" lon="0">
        <time>2020-12-20T10:50:51.028000+00:00</time>
      </trkpt>
      <trkpt lat="47.29606" lon="-1.37834">
        <ele>72</ele>
        <time>2020-12-20T10:50:52.016000+00:00</time>
      </trkpt>
      <trkpt lat="0" lon="0">
        <time>2020-12-20T10:50:52.032000+00:00</time>
      </trkpt>
      <trkpt lat="0" lon="0">
        <time>2020-12-20T10:50:52.040000+00:00</time>
      </trkpt>
      <trkpt lat="0" lon="0">
        <time>2020-12-20T10:50:52.046000+00:00</time>
      </trkpt>
      <trkpt lat="47.29603" lon="-1.37839">
        <ele>71</ele>
        <time>2020-12-20T10:50:53.041000+00:00</time>
      </trkpt>
      <trkpt lat="0" lon="0">
        <time>2020-12-20T10:50:53.048000+00:00</time>
      </trkpt>
      <trkpt lat="0" lon="0">
        <time>2020-12-20T10:50:53.053000+00:00</time>
      </trkpt>
      <trkpt lat="0" lon="0">
        <time>2020-12-20T10:50:53.056000+00:00</time>
      </trkpt>
      <trkpt lat="47.29601" lon="-1.37845">
        <ele>71</ele>
        <time>2020-12-20T10:50:54.031000+00:00</time>
      </trkpt>
      <trkpt lat="0" lon="0">
        <time>2020-12-20T10:50:54.034000+00:00</time>
      </trkpt>
      <trkpt lat="0" lon="0">
        <time>2020-12-20T10:50:54.037000+00:00</time>
      </trkpt>
      <trkpt lat="0" lon="0">
        <time>2020-12-20T10:50:54.038000+00:00</time>
      </trkpt>
      <trkpt lat="47.29599" lon="-1.3785">
        <ele>71</ele>
        <time>2020-12-20T10:50:55.038000+00:00</time>
      </trkpt>
      <trkpt lat="0" lon="0">
        <time>2020-12-20T10:50:55.053000+00:00</time>
      </trkpt>
      <trkpt lat="0" lon="0">
        <time>2020-12-20T10:50:55.058000+00:00</time>
      </trkpt>
      <trkpt lat="0" lon="0">
        <time>2020-12-20T10:50:55.061000+00:00</time>
      </trkpt>
      <trkpt lat="47.29596" lon="-1.37856">
        <ele>71</ele>
        <time>2020-12-20T10:50:56.028000+00:00</time>
      </trkpt>
      <trkpt lat="0" lon="0">
        <time>2020-12-20T10:50:56.049000+00:00</time>
      </trkpt>
      <trkpt lat="0" lon="0">
        <time>2020-12-20T10:50:56.054000+00:00</time>
      </trkpt>
      <trkpt lat="0" lon="0">
        <time>2020-12-20T10:50:56.061000+00:00</time>
      </trkpt>
      <trkpt lat="47.29594" lon="-1.37861">
        <ele>71</ele>
        <time>2020-12-20T10:50:57.030000+00:00</time>
      </trkpt>
      <trkpt lat="0" lon="0">
        <time>2020-12-20T10:50:57.049000+00:00</time>
      </trkpt>
      <trkpt lat="0" lon="0">
        <time>2020-12-20T10:50:57.052000+00:00</time>
      </trkpt>
      <trkpt lat="0" lon="0">
        <time>2020-12-20T10:50:57.055000+00:00</time>
      </trkpt>
      <trkpt lat="47.29591" lon="-1.37866">
        <ele>71</ele>
        <time>2020-12-20T10:50:58.046000+00:00</time>
      </trkpt>
      <trkpt lat="0" lon="0">
        <time>2020-12-20T10:50:58.051000+00:00</time>
      </trkpt>
      <trkpt lat="0" lon="0">
        <time>2020-12-20T10:50:58.058000+00:00</time>
      </trkpt>
      <trkpt lat="0" lon="0">
        <time>2020-12-20T10:50:58.059000+00:00</time>
      </trkpt>
      <trkpt lat="47.29588" lon="-1.37871">
        <ele>71</ele>
        <time>2020-12-20T10:50:59.018000+00:00</time>
      </trkpt>
      <trkpt lat="0" lon="0">
        <time>2020-12-20T10:50:59.042000+00:00</time>
      </trkpt>
      <trkpt lat="0" lon="0">
        <time>2020-12-20T10:50:59.046000+00:00</time>
      </trkpt>
      <trkpt lat="0" lon="0">
        <time>2020-12-20T10:50:59.047000+00:00</time>
      </trkpt>
      <trkpt lat="47.29586" lon="-1.37875">
        <ele>72</ele>
        <time>2020-12-20T10:50:59.936000+00:00</time>
      </trkpt>
      <trkpt lat="0" lon="0">
        <time>2020-12-20T10:50:59.946000+00:00</time>
      </trkpt>
      <trkpt lat="0" lon="0">
        <time>2020-12-20T10:50:59.952000+00:00</time>
      </trkpt>
      <trkpt lat="0" lon="0">
        <time>2020-12-20T10:50:59.955000+00:00</time>
      </trkpt>
      <trkpt lat="47.29583" lon="-1.3788">
        <ele>72</ele>
        <time>2020-12-20T10:51:01.069000+00:00</time>
      </trkpt>
      <trkpt lat="0" lon="0">
        <time>2020-12-20T10:51:01.087000+00:00</time>
      </trkpt>
      <trkpt lat="0" lon="0">
        <time>2020-12-20T10:51:01.089000+00:00</time>
      </trkpt>
      <trkpt lat="0" lon="0">
        <time>2020-12-20T10:51:01.090000+00:00</time>
      </trkpt>
      <trkpt lat="47.29581" lon="-1.37884">
        <ele>72</ele>
        <time>2020-12-20T10:51:02.036000+00:00</time>
      </trkpt>
      <trkpt lat="0" lon="0">
        <time>2020-12-20T10:51:02.047000+00:00</time>
      </trkpt>
      <trkpt lat="0" lon="0">
        <time>2020-12-20T10:51:02.051000+00:00</time>
      </trkpt>
      <trkpt lat="0" lon="0">
        <time>2020-12-20T10:51:02.054000+00:00</time>
      </trkpt>
      <trkpt lat="47.29579" lon="-1.37889">
        <ele>72</ele>
        <time>2020-12-20T10:51:03.024000+00:00</time>
      </trkpt>
      <trkpt lat="0" lon="0">
        <time>2020-12-20T10:51:03.037000+00:00</time>
      </trkpt>
      <trkpt lat="0" lon="0">
        <time>2020-12-20T10:51:03.050000+00:00</time>
      </trkpt>
      <trkpt lat="0" lon="0">
        <time>2020-12-20T10:51:03.053000+00:00</time>
      </trkpt>
      <trkpt lat="47.29577" lon="-1.37893">
        <ele>72</ele>
        <time>2020-12-20T10:51:04.019000+00:00</time>
      </trkpt>
      <trkpt lat="0" lon="0">
        <time>2020-12-20T10:51:04.036000+00:00</time>
      </trkpt>
      <trkpt lat="0" lon="0">
        <time>2020-12-20T10:51:04.041000+00:00</time>
      </trkpt>
      <trkpt lat="0" lon="0">
        <time>2020-12-20T10:51:04.044000+00:00</time>
      </trkpt>
      <trkpt lat="47.29575" lon="-1.37898">
        <ele>72</ele>
        <time>2020-12-20T10:51:05.042000+00:00</time>
      </trkpt>
      <trkpt lat="0" lon="0">
        <time>2020-12-20T10:51:05.045000+00:00</time>
      </trkpt>
      <trkpt lat="0" lon="0">
        <time>2020-12-20T10:51:05.047000+00:00</time>
      </trkpt>
      <trkpt lat="0" lon="0">
        <time>2020-12-20T10:51:05.049000+00:00</time>
      </trkpt>
      <trkpt lat="47.29574" lon="-1.37902">
        <ele>73</ele>
        <time>2020-12-20T10:51:06.010000+00:00</time>
      </trkpt>
      <trkpt lat="0" lon="0">
        <time>2020-12-20T10:51:06.034000+00:00</time>
      </trkpt>
      <trkpt lat="0" lon="0">
        <time>2020-12-20T10:51:06.045000+00:00</time>
      </trkpt>
      <trkpt lat="0" lon="0">
        <time>2020-12-20T10:51:06.048000+00:00</time>
      </trkpt>
      <trkpt lat="47.29572" lon="-1.37906">
        <ele>73</ele>
        <time>2020-12-20T10:51:07.011000+00:00</time>
      </trkpt>
      <trkpt lat="0" lon="0">
        <time>2020-12-20T10:51:07.027000+00:00</time>
      </trkpt>
      <trkpt lat="0" lon="0">
        <time>2020-12-20T10:51:07.040000+00:00</time>
      </trkpt>
      <trkpt lat="0" lon="0">
        <time>2020-12-20T10:51:07.042000+00:00</time>
      </trkpt>
      <trkpt lat="47.2957" lon="-1.37911">
        <ele>73</ele>
        <time>2020-12-20T10:51:08.058000+00:00</time>
      </trkpt>
      <trkpt lat="0" lon="0">
        <time>2020-12-20T10:51:08.066000+00:00</time>
      </trkpt>
      <trkpt lat="0" lon="0">
        <time>2020-12-20T10:51:08.071000+00:00</time>
      </trkpt>
      <trkpt lat="0" lon="0">
        <time>2020-12-20T10:51:08.074000+00:00</time>
      </trkpt>
      <trkpt lat="47.29569" lon="-1.37915">
        <ele>73</ele>
        <time>2020-12-20T10:51:08.987000+00:00</time>
      </trkpt>
      <trkpt lat="0" lon="0">
        <time>2020-12-20T10:51:08.996000+00:00</time>
      </trkpt>
      <trkpt lat="0" lon="0">
        <time>2020-12-20T10:51:09.002000+00:00</time>
      </trkpt>
      <trkpt lat="0" lon="0">
        <time>2020-12-20T10:51:09.013000+00:00</time>
      </trkpt>
      <trkpt lat="47.29567" lon="-1.37919">
        <ele>73</ele>
        <time>2020-12-20T10:51:10.001000+00:00</time>
      </trkpt>
      <trkpt lat="0" lon="0">
        <time>2020-12-20T10:51:10.007000+00:00</time>
      </trkpt>
      <trkpt lat="0" lon="0">
        <time>2020-12-20T10:51:10.010000+00:00</time>
      </trkpt>
      <trkpt lat="0" lon="0">
        <time>2020-12-20T10:51:10.012000+00:00</time>
      </trkpt>
      <trkpt lat="47.29565" lon="-1.37924">
        <ele>73</ele>
        <time>2020-12-20T10:51:11.063000+00:00</time>
      </trkpt>
      <trkpt lat="0" lon="0">
        <time>2020-12-20T10:51:11.069000+00:00</time>
      </trkpt>
      <trkpt lat="0" lon="0">
        <time>2020-12-20T10:51:11.071000+00:00</time>
      </trkpt>
      <trkpt lat="0" lon="0">
        <time>2020-12-20T10:51:11.072000+00:00</time>
      </trkpt>
      <trkpt lat="47.29564" lon="-1.37928">
        <ele>74</ele>
        <time>2020-12-20T10:51:12.022000+00:00</time>
      </trkpt>
      <trkpt lat="0" lon="0">
        <time>2020-12-20T10:51:12.030000+00:00</time>
      </trkpt>
      <trkpt lat="0" lon="0">
        <time>2020-12-20T10:51:12.034000+00:00</time>
      </trkpt>
      <trkpt lat="0" lon="0">
        <time>2020-12-20T10:51:12.036000+00:00</time>
      </trkpt>
      <trkpt lat="47.29562" lon="-1.37932">
        <ele>74</ele>
        <time>2020-12-20T10:51:12.992000+00:00</time>
      </trkpt>
      <trkpt lat="0" lon="0">
        <time>2020-12-20T10:51:13.007000+00:00</time>
      </trkpt>
      <trkpt lat="0" lon="0">
        <time>2020-12-20T10:51:13.014000+00:00</time>
      </trkpt>
      <trkpt lat="0" lon="0">
        <time>2020-12-20T10:51:13.020000+00:00</time>
      </trkpt>
      <trkpt lat="47.2956" lon="-1.37937">
        <ele>74</ele>
        <time>2020-12-20T10:51:13.953000+00:00</time>
      </trkpt>
      <trkpt lat="0" lon="0">
        <time>2020-12-20T10:51:13.958000+00:00</time>
      </trkpt>
      <trkpt lat="0" lon="0">
        <time>2020-12-20T10:51:13.962000+00:00</time>
      </trkpt>
      <trkpt lat="0" lon="0">
        <time>2020-12-20T10:51:13.964000+00:00</time>
      </trkpt>
      <trkpt lat="47.29558" lon="-1.37942">
        <ele>74</ele>
        <time>2020-12-20T10:51:15.048000+00:00</time>
      </trkpt>
      <trkpt lat="0" lon="0">
        <time>2020-12-20T10:51:15.055000+00:00</time>
      </trkpt>
      <trkpt lat="0" lon="0">
        <time>2020-12-20T10:51:15.060000+00:00</time>
      </trkpt>
      <trkpt lat="0" lon="0">
        <time>2020-12-20T10:51:15.063000+00:00</time>
      </trkpt>
      <trkpt lat="47.29557" lon="-1.37947">
        <ele>74</ele>
        <time>2020-12-20T10:51:16.051000+00:00</time>
      </trkpt>
      <trkpt lat="0" lon="0">
        <time>2020-12-20T10:51:16.057000+00:00</time>
      </trkpt>
      <trkpt lat="0" lon="0">
        <time>2020-12-20T10:51:16.061000+00:00</time>
      </trkpt>
      <trkpt lat="0" lon="0">
        <time>2020-12-20T10:51:16.064000+00:00</time>
      </trkpt>
      <trkpt lat="47.29555" lon="-1.37952">
        <ele>74</ele>
        <time>2020-12-20T10:51:17.031000+00:00</time>
      </trkpt>
      <trkpt lat="0" lon="0">
        <time>2020-12-20T10:51:17.055000+00:00</time>
      </trkpt>
      <trkpt lat="0" lon="0">
        <time>2020-12-20T10:51:17.059000+00:00</time>
      </trkpt>
      <trkpt lat="0" lon="0">
        <time>2020-12-20T10:51:17.060000+00:00</time>
      </trkpt>
      <trkpt lat="47.29553" lon="-1.37957">
        <ele>74</ele>
        <time>2020-12-20T10:51:18.018000+00:00</time>
      </trkpt>
      <trkpt lat="0" lon="0">
        <time>2020-12-20T10:51:18.024000+00:00</time>
      </trkpt>
      <trkpt lat="0" lon="0">
        <time>2020-12-20T10:51:18.032000+00:00</time>
      </trkpt>
      <trkpt lat="0" lon="0">
        <time>2020-12-20T10:51:18.039000+00:00</time>
      </trkpt>
      <trkpt lat="47.29551" lon="-1.37963">
        <ele>73</ele>
        <time>2020-12-20T10:51:19.055000+00:00</time>
      </trkpt>
      <trkpt lat="0" lon="0">
        <time>2020-12-20T10:51:19.064000+00:00</time>
      </trkpt>
      <trkpt lat="0" lon="0">
        <time>2020-12-20T10:51:19.069000+00:00</time>
      </trkpt>
      <trkpt lat="0" lon="0">
        <time>2020-12-20T10:51:19.071000+00:00</time>
      </trkpt>
      <trkpt lat="47.29549" lon="-1.37969">
        <ele>73</ele>
        <time>2020-12-20T10:51:20.045000+00:00</time>
      </trkpt>
      <trkpt lat="0" lon="0">
        <time>2020-12-20T10:51:20.052000+00:00</time>
      </trkpt>
      <trkpt lat="0" lon="0">
        <time>2020-12-20T10:51:20.056000+00:00</time>
      </trkpt>
      <trkpt lat="0" lon="0">
        <time>2020-12-20T10:51:20.059000+00:00</time>
      </trkpt>
      <trkpt lat="47.29547" lon="-1.37974">
        <ele>73</ele>
        <time>2020-12-20T10:51:21.077000+00:00</time>
      </trkpt>
      <trkpt lat="0" lon="0">
        <time>2020-12-20T10:51:21.091000+00:00</time>
      </trkpt>
      <trkpt lat="0" lon="0">
        <time>2020-12-20T10:51:21.095000+00:00</time>
      </trkpt>
      <trkpt lat="0" lon="0">
        <time>2020-12-20T10:51:21.099000+00:00</time>
      </trkpt>
      <trkpt lat="47.29545" lon="-1.3798">
        <ele>73</ele>
        <time>2020-12-20T10:51:22.038000+00:00</time>
      </trkpt>
      <trkpt lat="0" lon="0">
        <time>2020-12-20T10:51:22.057000+00:00</time>
      </trkpt>
      <trkpt lat="0" lon="0">
        <time>2020-12-20T10:51:22.060000+00:00</time>
      </trkpt>
      <trkpt lat="0" lon="0">
        <time>2020-12-20T10:51:22.063000+00:00</time>
      </trkpt>
      <trkpt lat="47.29542" lon="-1.37986">
        <ele>73</ele>
        <time>2020-12-20T10:51:23.015000+00:00</time>
      </trkpt>
      <trkpt lat="0" lon="0">
        <time>2020-12-20T10:51:23.021000+00:00</time>
      </trkpt>
      <trkpt lat="0" lon="0">
        <time>2020-12-20T10:51:23.024000+00:00</time>
      </trkpt>
      <trkpt lat="0" lon="0">
        <time>2020-12-20T10:51:23.025000+00:00</time>
      </trkpt>
      <trkpt lat="47.2954" lon="-1.37993">
        <ele>74</ele>
        <time>2020-12-20T10:51:24.071000+00:00</time>
      </trkpt>
      <trkpt lat="0" lon="0">
        <time>2020-12-20T10:51:24.092000+00:00</time>
      </trkpt>
      <trkpt lat="0" lon="0">
        <time>2020-12-20T10:51:24.102000+00:00</time>
      </trkpt>
      <trkpt lat="0" lon="0">
        <time>2020-12-20T10:51:24.108000+00:00</time>
      </trkpt>
      <trkpt lat="47.29538" lon="-1.37999">
        <ele>74</ele>
        <time>2020-12-20T10:51:25.035000+00:00</time>
      </trkpt>
      <trkpt lat="0" lon="0">
        <time>2020-12-20T10:51:25.042000+00:00</time>
      </trkpt>
      <trkpt lat="0" lon="0">
        <time>2020-12-20T10:51:25.047000+00:00</time>
      </trkpt>
      <trkpt lat="0" lon="0">
        <time>2020-12-20T10:51:25.049000+00:00</time>
      </trkpt>
      <trkpt lat="47.29536" lon="-1.38005">
        <ele>74</ele>
        <time>2020-12-20T10:51:26.011000+00:00</time>
      </trkpt>
      <trkpt lat="0" lon="0">
        <time>2020-12-20T10:51:26.025000+00:00</time>
      </trkpt>
      <trkpt lat="0" lon="0">
        <time>2020-12-20T10:51:26.035000+00:00</time>
      </trkpt>
      <trkpt lat="0" lon="0">
        <time>2020-12-20T10:51:26.039000+00:00</time>
      </trkpt>
      <trkpt lat="47.29534" lon="-1.38011">
        <ele>74</ele>
        <time>2020-12-20T10:51:27.024000+00:00</time>
      </trkpt>
      <trkpt lat="0" lon="0">
        <time>2020-12-20T10:51:27.033000+00:00</time>
      </trkpt>
      <trkpt lat="0" lon="0">
        <time>2020-12-20T10:51:27.037000+00:00</time>
      </trkpt>
      <trkpt lat="0" lon="0">
        <time>2020-12-20T10:51:27.040000+00:00</time>
      </trkpt>
      <trkpt lat="47.29532" lon="-1.38017">
        <ele>74</ele>
        <time>2020-12-20T10:51:28.030000+00:00</time>
      </trkpt>
      <trkpt lat="0" lon="0">
        <time>2020-12-20T10:51:28.036000+00:00</time>
      </trkpt>
      <trkpt lat="0" lon="0">
        <time>2020-12-20T10:51:28.042000+00:00</time>
      </trkpt>
      <trkpt lat="0" lon="0">
        <time>2020-12-20T10:51:28.045000+00:00</time>
      </trkpt>
      <trkpt lat="47.2953" lon="-1.38023">
        <ele>74</ele>
        <time>2020-12-20T10:51:29.036000+00:00</time>
      </trkpt>
      <trkpt lat="0" lon="0">
        <time>2020-12-20T10:51:29.049000+00:00</time>
      </trkpt>
      <trkpt lat="0" lon="0">
        <time>2020-12-20T10:51:29.063000+00:00</time>
      </trkpt>
      <trkpt lat="0" lon="0">
        <time>2020-12-20T10:51:29.066000+00:00</time>
      </trkpt>
      <trkpt lat="47.29527" lon="-1.38029">
        <ele>74</ele>
        <time>2020-12-20T10:51:30.030000+00:00</time>
      </trkpt>
      <trkpt lat="0" lon="0">
        <time>2020-12-20T10:51:30.049000+00:00</time>
      </trkpt>
      <trkpt lat="0" lon="0">
        <time>2020-12-20T10:51:30.055000+00:00</time>
      </trkpt>
      <trkpt lat="0" lon="0">
        <time>2020-12-20T10:51:30.059000+00:00</time>
      </trkpt>
      <trkpt lat="47.29525" lon="-1.38035">
        <ele>74</ele>
        <time>2020-12-20T10:51:31.067000+00:00</time>
      </trkpt>
      <trkpt lat="0" lon="0">
        <time>2020-12-20T10:51:31.086000+00:00</time>
      </trkpt>
      <trkpt lat="0" lon="0">
        <time>2020-12-20T10:51:31.096000+00:00</time>
      </trkpt>
      <trkpt lat="0" lon="0">
        <time>2020-12-20T10:51:31.101000+00:00</time>
      </trkpt>
      <trkpt lat="47.29523" lon="-1.3804">
        <ele>73</ele>
        <time>2020-12-20T10:51:32.043000+00:00</time>
      </trkpt>
      <trkpt lat="0" lon="0">
        <time>2020-12-20T10:51:32.054000+00:00</time>
      </trkpt>
      <trkpt lat="0" lon="0">
        <time>2020-12-20T10:51:32.059000+00:00</time>
      </trkpt>
      <trkpt lat="0" lon="0">
        <time>2020-12-20T10:51:32.061000+00:00</time>
      </trkpt>
      <trkpt lat="47.29521" lon="-1.38046">
        <ele>73</ele>
        <time>2020-12-20T10:51:33.071000+00:00</time>
      </trkpt>
      <trkpt lat="0" lon="0">
        <time>2020-12-20T10:51:33.086000+00:00</time>
      </trkpt>
      <trkpt lat="0" lon="0">
        <time>2020-12-20T10:51:33.091000+00:00</time>
      </trkpt>
      <trkpt lat="0" lon="0">
        <time>2020-12-20T10:51:33.095000+00:00</time>
      </trkpt>
      <trkpt lat="47.29519" lon="-1.38053">
        <ele>73</ele>
        <time>2020-12-20T10:51:34.053000+00:00</time>
      </trkpt>
      <trkpt lat="0" lon="0">
        <time>2020-12-20T10:51:34.058000+00:00</time>
      </trkpt>
      <trkpt lat="0" lon="0">
        <time>2020-12-20T10:51:34.061000+00:00</time>
      </trkpt>
      <trkpt lat="0" lon="0">
        <time>2020-12-20T10:51:34.062000+00:00</time>
      </trkpt>
      <trkpt lat="47.29517" lon="-1.38059">
        <ele>73</ele>
        <time>2020-12-20T10:51:35.053000+00:00</time>
      </trkpt>
      <trkpt lat="0" lon="0">
        <time>2020-12-20T10:51:35.056000+00:00</time>
      </trkpt>
      <trkpt lat="0" lon="0">
        <time>2020-12-20T10:51:35.058000+00:00</time>
      </trkpt>
      <trkpt lat="0" lon="0">
        <time>2020-12-20T10:51:35.059000+00:00</time>
      </trkpt>
      <trkpt lat="47.29515" lon="-1.38065">
        <ele>73</ele>
        <time>2020-12-20T10:51:36.097000+00:00</time>
      </trkpt>
      <trkpt lat="0" lon="0">
        <time>2020-12-20T10:51:36.107000+00:00</time>
      </trkpt>
      <trkpt lat="0" lon="0">
        <time>2020-12-20T10:51:36.112000+00:00</time>
      </trkpt>
      <trkpt lat="0" lon="0">
        <time>2020-12-20T10:51:36.115000+00:00</time>
      </trkpt>
      <trkpt lat="47.29513" lon="-1.38071">
        <ele>73</ele>
        <time>2020-12-20T10:51:37.067000+00:00</time>
      </trkpt>
      <trkpt lat="0" lon="0">
        <time>2020-12-20T10:51:37.076000+00:00</time>
      </trkpt>
      <trkpt lat="0" lon="0">
        <time>2020-12-20T10:51:37.081000+00:00</time>
      </trkpt>
      <trkpt lat="0" lon="0">
        <time>2020-12-20T10:51:37.083000+00:00</time>
      </trkpt>
      <trkpt lat="47.29511" lon="-1.38078">
        <ele>72</ele>
        <time>2020-12-20T10:51:38.093000+00:00</time>
      </trkpt>
      <trkpt lat="0" lon="0">
        <time>2020-12-20T10:51:38.110000+00:00</time>
      </trkpt>
      <trkpt lat="0" lon="0">
        <time>2020-12-20T10:51:38.122000+00:00</time>
      </trkpt>
      <trkpt lat="0" lon="0">
        <time>2020-12-20T10:51:38.124000+00:00</time>
      </trkpt>
      <trkpt lat="47.2951" lon="-1.38084">
        <ele>72</ele>
        <time>2020-12-20T10:51:39.043000+00:00</time>
      </trkpt>
      <trkpt lat="0" lon="0">
        <time>2020-12-20T10:51:39.048000+00:00</time>
      </trkpt>
      <trkpt lat="0" lon="0">
        <time>2020-12-20T10:51:39.051000+00:00</time>
      </trkpt>
      <trkpt lat="0" lon="0">
        <time>2020-12-20T10:51:39.052000+00:00</time>
      </trkpt>
      <trkpt lat="47.29508" lon="-1.38091">
        <ele>72</ele>
        <time>2020-12-20T10:51:40.031000+00:00</time>
      </trkpt>
      <trkpt lat="0" lon="0">
        <time>2020-12-20T10:51:40.036000+00:00</time>
      </trkpt>
      <trkpt lat="0" lon="0">
        <time>2020-12-20T10:51:40.038000+00:00</time>
      </trkpt>
      <trkpt lat="0" lon="0">
        <time>2020-12-20T10:51:40.039000+00:00</time>
      </trkpt>
      <trkpt lat="47.29506" lon="-1.38097">
        <ele>72</ele>
        <time>2020-12-20T10:51:41.036000+00:00</time>
      </trkpt>
      <trkpt lat="0" lon="0">
        <time>2020-12-20T10:51:41.043000+00:00</time>
      </trkpt>
      <trkpt lat="0" lon="0">
        <time>2020-12-20T10:51:41.047000+00:00</time>
      </trkpt>
      <trkpt lat="0" lon="0">
        <time>2020-12-20T10:51:41.049000+00:00</time>
      </trkpt>
      <trkpt lat="47.29504" lon="-1.38103">
        <ele>72</ele>
        <time>2020-12-20T10:51:42.063000+00:00</time>
      </trkpt>
      <trkpt lat="0" lon="0">
        <time>2020-12-20T10:51:42.078000+00:00</time>
      </trkpt>
      <trkpt lat="0" lon="0">
        <time>2020-12-20T10:51:42.086000+00:00</time>
      </trkpt>
      <trkpt lat="0" lon="0">
        <time>2020-12-20T10:51:42.089000+00:00</time>
      </trkpt>
      <trkpt lat="47.29502" lon="-1.3811">
        <ele>72</ele>
        <time>2020-12-20T10:51:43.057000+00:00</time>
      </trkpt>
      <trkpt lat="0" lon="0">
        <time>2020-12-20T10:51:43.063000+00:00</time>
      </trkpt>
      <trkpt lat="0" lon="0">
        <time>2020-12-20T10:51:43.079000+00:00</time>
      </trkpt>
      <trkpt lat="0" lon="0">
        <time>2020-12-20T10:51:43.082000+00:00</time>
      </trkpt>
      <trkpt lat="47.295" lon="-1.38116">
        <ele>71</ele>
        <time>2020-12-20T10:51:44.051000+00:00</time>
      </trkpt>
      <trkpt lat="0" lon="0">
        <time>2020-12-20T10:51:44.068000+00:00</time>
      </trkpt>
      <trkpt lat="0" lon="0">
        <time>2020-12-20T10:51:44.073000+00:00</time>
      </trkpt>
      <trkpt lat="0" lon="0">
        <time>2020-12-20T10:51:44.077000+00:00</time>
      </trkpt>
      <trkpt lat="47.29498" lon="-1.38122">
        <ele>72</ele>
        <time>2020-12-20T10:51:45.072000+00:00</time>
      </trkpt>
      <trkpt lat="0" lon="0">
        <time>2020-12-20T10:51:45.078000+00:00</time>
      </trkpt>
      <trkpt lat="0" lon="0">
        <time>2020-12-20T10:51:45.083000+00:00</time>
      </trkpt>
      <trkpt lat="0" lon="0">
        <time>2020-12-20T10:51:45.085000+00:00</time>
      </trkpt>
      <trkpt lat="47.29496" lon="-1.38129">
        <ele>71</ele>
        <time>2020-12-20T10:51:46.090000+00:00</time>
      </trkpt>
      <trkpt lat="0" lon="0">
        <time>2020-12-20T10:51:46.095000+00:00</time>
      </trkpt>
      <trkpt lat="0" lon="0">
        <time>2020-12-20T10:51:46.098000+00:00</time>
      </trkpt>
      <trkpt lat="0" lon="0">
        <time>2020-12-20T10:51:46.100000+00:00</time>
      </trkpt>
      <trkpt lat="47.29494" lon="-1.38135">
        <ele>71</ele>
        <time>2020-12-20T10:51:47.026000+00:00</time>
      </trkpt>
      <trkpt lat="0" lon="0">
        <time>2020-12-20T10:51:47.043000+00:00</time>
      </trkpt>
      <trkpt lat="0" lon="0">
        <time>2020-12-20T10:51:47.054000+00:00</time>
      </trkpt>
      <trkpt lat="0" lon="0">
        <time>2020-12-20T10:51:47.056000+00:00</time>
      </trkpt>
      <trkpt lat="47.29493" lon="-1.38141">
        <ele>71</ele>
        <time>2020-12-20T10:51:48.051000+00:00</time>
      </trkpt>
      <trkpt lat="0" lon="0">
        <time>2020-12-20T10:51:48.060000+00:00</time>
      </trkpt>
      <trkpt lat="0" lon="0">
        <time>2020-12-20T10:51:48.067000+00:00</time>
      </trkpt>
      <trkpt lat="0" lon="0">
        <time>2020-12-20T10:51:48.070000+00:00</time>
      </trkpt>
      <trkpt lat="47.29491" lon="-1.38147">
        <ele>71</ele>
        <time>2020-12-20T10:51:49.026000+00:00</time>
      </trkpt>
      <trkpt lat="0" lon="0">
        <time>2020-12-20T10:51:49.033000+00:00</time>
      </trkpt>
      <trkpt lat="0" lon="0">
        <time>2020-12-20T10:51:49.037000+00:00</time>
      </trkpt>
      <trkpt lat="0" lon="0">
        <time>2020-12-20T10:51:49.041000+00:00</time>
      </trkpt>
      <trkpt lat="47.29489" lon="-1.38154">
        <ele>72</ele>
        <time>2020-12-20T10:51:50.070000+00:00</time>
      </trkpt>
      <trkpt lat="0" lon="0">
        <time>2020-12-20T10:51:50.075000+00:00</time>
      </trkpt>
      <trkpt lat="0" lon="0">
        <time>2020-12-20T10:51:50.080000+00:00</time>
      </trkpt>
      <trkpt lat="0" lon="0">
        <time>2020-12-20T10:51:50.083000+00:00</time>
      </trkpt>
      <trkpt lat="47.29487" lon="-1.3816">
        <ele>72</ele>
        <time>2020-12-20T10:51:51.046000+00:00</time>
      </trkpt>
      <trkpt lat="0" lon="0">
        <time>2020-12-20T10:51:51.059000+00:00</time>
      </trkpt>
      <trkpt lat="0" lon="0">
        <time>2020-12-20T10:51:51.072000+00:00</time>
      </trkpt>
      <trkpt lat="0" lon="0">
        <time>2020-12-20T10:51:51.075000+00:00</time>
      </trkpt>
      <trkpt lat="47.29486" lon="-1.38166">
        <ele>72</ele>
        <time>2020-12-20T10:51:52.083000+00:00</time>
      </trkpt>
      <trkpt lat="0" lon="0">
        <time>2020-12-20T10:51:52.087000+00:00</time>
      </trkpt>
      <trkpt lat="0" lon="0">
        <time>2020-12-20T10:51:52.090000+00:00</time>
      </trkpt>
      <trkpt lat="0" lon="0">
        <time>2020-12-20T10:51:52.091000+00:00</time>
      </trkpt>
      <trkpt lat="47.29485" lon="-1.38172">
        <ele>73</ele>
        <time>2020-12-20T10:51:53.089000+00:00</time>
      </trkpt>
      <trkpt lat="0" lon="0">
        <time>2020-12-20T10:51:53.103000+00:00</time>
      </trkpt>
      <trkpt lat="0" lon="0">
        <time>2020-12-20T10:51:53.109000+00:00</time>
      </trkpt>
      <trkpt lat="0" lon="0">
        <time>2020-12-20T10:51:53.111000+00:00</time>
      </trkpt>
      <trkpt lat="47.29483" lon="-1.38178">
        <ele>73</ele>
        <time>2020-12-20T10:51:54.104000+00:00</time>
      </trkpt>
      <trkpt lat="0" lon="0">
        <time>2020-12-20T10:51:54.110000+00:00</time>
      </trkpt>
      <trkpt lat="0" lon="0">
        <time>2020-12-20T10:51:54.115000+00:00</time>
      </trkpt>
      <trkpt lat="0" lon="0">
        <time>2020-12-20T10:51:54.119000+00:00</time>
      </trkpt>
      <trkpt lat="47.29482" lon="-1.38184">
        <ele>73</ele>
        <time>2020-12-20T10:51:55.075000+00:00</time>
      </trkpt>
      <trkpt lat="0" lon="0">
        <time>2020-12-20T10:51:55.083000+00:00</time>
      </trkpt>
      <trkpt lat="0" lon="0">
        <time>2020-12-20T10:51:55.088000+00:00</time>
      </trkpt>
      <trkpt lat="0" lon="0">
        <time>2020-12-20T10:51:55.090000+00:00</time>
      </trkpt>
      <trkpt lat="47.29481" lon="-1.3819">
        <ele>73</ele>
        <time>2020-12-20T10:51:56.093000+00:00</time>
      </trkpt>
      <trkpt lat="0" lon="0">
        <time>2020-12-20T10:51:56.099000+00:00</time>
      </trkpt>
      <trkpt lat="0" lon="0">
        <time>2020-12-20T10:51:56.106000+00:00</time>
      </trkpt>
      <trkpt lat="0" lon="0">
        <time>2020-12-20T10:51:56.110000+00:00</time>
      </trkpt>
      <trkpt lat="47.2948" lon="-1.38195">
        <ele>73</ele>
        <time>2020-12-20T10:51:57.064000+00:00</time>
      </trkpt>
      <trkpt lat="0" lon="0">
        <time>2020-12-20T10:51:57.075000+00:00</time>
      </trkpt>
      <trkpt lat="0" lon="0">
        <time>2020-12-20T10:51:57.083000+00:00</time>
      </trkpt>
      <trkpt lat="0" lon="0">
        <time>2020-12-20T10:51:57.087000+00:00</time>
      </trkpt>
      <trkpt lat="47.29478" lon="-1.38201">
        <ele>73</ele>
        <time>2020-12-20T10:51:58.074000+00:00</time>
      </trkpt>
      <trkpt lat="0" lon="0">
        <time>2020-12-20T10:51:58.080000+00:00</time>
      </trkpt>
      <trkpt lat="0" lon="0">
        <time>2020-12-20T10:51:58.082000+00:00</time>
      </trkpt>
      <trkpt lat="0" lon="0">
        <time>2020-12-20T10:51:58.085000+00:00</time>
      </trkpt>
      <trkpt lat="47.29477" lon="-1.38207">
        <ele>73</ele>
        <time>2020-12-20T10:51:59.059000+00:00</time>
      </trkpt>
      <trkpt lat="0" lon="0">
        <time>2020-12-20T10:51:59.074000+00:00</time>
      </trkpt>
      <trkpt lat="0" lon="0">
        <time>2020-12-20T10:51:59.082000+00:00</time>
      </trkpt>
      <trkpt lat="0" lon="0">
        <time>2020-12-20T10:51:59.086000+00:00</time>
      </trkpt>
      <trkpt lat="47.29476" lon="-1.38213">
        <ele>72</ele>
        <time>2020-12-20T10:52:00.102000+00:00</time>
      </trkpt>
      <trkpt lat="0" lon="0">
        <time>2020-12-20T10:52:00.109000+00:00</time>
      </trkpt>
      <trkpt lat="0" lon="0">
        <time>2020-12-20T10:52:00.114000+00:00</time>
      </trkpt>
      <trkpt lat="0" lon="0">
        <time>2020-12-20T10:52:00.117000+00:00</time>
      </trkpt>
      <trkpt lat="47.29474" lon="-1.38219">
        <ele>72</ele>
        <time>2020-12-20T10:52:01.073000+00:00</time>
      </trkpt>
      <trkpt lat="0" lon="0">
        <time>2020-12-20T10:52:01.079000+00:00</time>
      </trkpt>
      <trkpt lat="0" lon="0">
        <time>2020-12-20T10:52:01.088000+00:00</time>
      </trkpt>
      <trkpt lat="0" lon="0">
        <time>2020-12-20T10:52:01.091000+00:00</time>
      </trkpt>
      <trkpt lat="47.29472" lon="-1.38224">
        <ele>72</ele>
        <time>2020-12-20T10:52:02.043000+00:00</time>
      </trkpt>
      <trkpt lat="0" lon="0">
        <time>2020-12-20T10:52:02.056000+00:00</time>
      </trkpt>
      <trkpt lat="0" lon="0">
        <time>2020-12-20T10:52:02.067000+00:00</time>
      </trkpt>
      <trkpt lat="0" lon="0">
        <time>2020-12-20T10:52:02.070000+00:00</time>
      </trkpt>
      <trkpt lat="47.29471" lon="-1.3823">
        <ele>72</ele>
        <time>2020-12-20T10:52:03.049000+00:00</time>
      </trkpt>
      <trkpt lat="0" lon="0">
        <time>2020-12-20T10:52:03.058000+00:00</time>
      </trkpt>
      <trkpt lat="0" lon="0">
        <time>2020-12-20T10:52:03.063000+00:00</time>
      </trkpt>
      <trkpt lat="0" lon="0">
        <time>2020-12-20T10:52:03.065000+00:00</time>
      </trkpt>
      <trkpt lat="47.29469" lon="-1.38236">
        <ele>73</ele>
        <time>2020-12-20T10:52:04.083000+00:00</time>
      </trkpt>
      <trkpt lat="0" lon="0">
        <time>2020-12-20T10:52:04.094000+00:00</time>
      </trkpt>
      <trkpt lat="0" lon="0">
        <time>2020-12-20T10:52:04.099000+00:00</time>
      </trkpt>
      <trkpt lat="0" lon="0">
        <time>2020-12-20T10:52:04.100000+00:00</time>
      </trkpt>
      <trkpt lat="47.29467" lon="-1.38242">
        <ele>73</ele>
        <time>2020-12-20T10:52:05.030000+00:00</time>
      </trkpt>
      <trkpt lat="0" lon="0">
        <time>2020-12-20T10:52:05.049000+00:00</time>
      </trkpt>
      <trkpt lat="0" lon="0">
        <time>2020-12-20T10:52:05.054000+00:00</time>
      </trkpt>
      <trkpt lat="0" lon="0">
        <time>2020-12-20T10:52:05.055000+00:00</time>
      </trkpt>
      <trkpt lat="47.29466" lon="-1.38248">
        <ele>72</ele>
        <time>2020-12-20T10:52:06.043000+00:00</time>
      </trkpt>
      <trkpt lat="0" lon="0">
        <time>2020-12-20T10:52:06.050000+00:00</time>
      </trkpt>
      <trkpt lat="0" lon="0">
        <time>2020-12-20T10:52:06.058000+00:00</time>
      </trkpt>
      <trkpt lat="0" lon="0">
        <time>2020-12-20T10:52:06.060000+00:00</time>
      </trkpt>
      <trkpt lat="47.29464" lon="-1.38254">
        <ele>72</ele>
        <time>2020-12-20T10:52:07.066000+00:00</time>
      </trkpt>
      <trkpt lat="0" lon="0">
        <time>2020-12-20T10:52:07.078000+00:00</time>
      </trkpt>
      <trkpt lat="0" lon="0">
        <time>2020-12-20T10:52:07.086000+00:00</time>
      </trkpt>
      <trkpt lat="0" lon="0">
        <time>2020-12-20T10:52:07.089000+00:00</time>
      </trkpt>
      <trkpt lat="47.29462" lon="-1.3826">
        <ele>72</ele>
        <time>2020-12-20T10:52:08.033000+00:00</time>
      </trkpt>
      <trkpt lat="0" lon="0">
        <time>2020-12-20T10:52:08.046000+00:00</time>
      </trkpt>
      <trkpt lat="0" lon="0">
        <time>2020-12-20T10:52:08.057000+00:00</time>
      </trkpt>
      <trkpt lat="0" lon="0">
        <time>2020-12-20T10:52:08.059000+00:00</time>
      </trkpt>
      <trkpt lat="47.2946" lon="-1.38266">
        <ele>72</ele>
        <time>2020-12-20T10:52:09.044000+00:00</time>
      </trkpt>
      <trkpt lat="0" lon="0">
        <time>2020-12-20T10:52:09.059000+00:00</time>
      </trkpt>
      <trkpt lat="0" lon="0">
        <time>2020-12-20T10:52:09.077000+00:00</time>
      </trkpt>
      <trkpt lat="0" lon="0">
        <time>2020-12-20T10:52:09.081000+00:00</time>
      </trkpt>
      <trkpt lat="47.29459" lon="-1.38273">
        <ele>72</ele>
        <time>2020-12-20T10:52:10.023000+00:00</time>
      </trkpt>
      <trkpt lat="0" lon="0">
        <time>2020-12-20T10:52:10.032000+00:00</time>
      </trkpt>
      <trkpt lat="0" lon="0">
        <time>2020-12-20T10:52:10.038000+00:00</time>
      </trkpt>
      <trkpt lat="0" lon="0">
        <time>2020-12-20T10:52:10.041000+00:00</time>
      </trkpt>
      <trkpt lat="47.29457" lon="-1.3828">
        <ele>71</ele>
        <time>2020-12-20T10:52:11.065000+00:00</time>
      </trkpt>
      <trkpt lat="0" lon="0">
        <time>2020-12-20T10:52:11.073000+00:00</time>
      </trkpt>
      <trkpt lat="0" lon="0">
        <time>2020-12-20T10:52:11.080000+00:00</time>
      </trkpt>
      <trkpt lat="0" lon="0">
        <time>2020-12-20T10:52:11.083000+00:00</time>
      </trkpt>
      <trkpt lat="47.29455" lon="-1.38286">
        <ele>72</ele>
        <time>2020-12-20T10:52:12.050000+00:00</time>
      </trkpt>
      <trkpt lat="0" lon="0">
        <time>2020-12-20T10:52:12.063000+00:00</time>
      </trkpt>
      <trkpt lat="0" lon="0">
        <time>2020-12-20T10:52:12.067000+00:00</time>
      </trkpt>
      <trkpt lat="0" lon="0">
        <time>2020-12-20T10:52:12.071000+00:00</time>
      </trkpt>
      <trkpt lat="47.29454" lon="-1.38293">
        <ele>72</ele>
        <time>2020-12-20T10:52:13.057000+00:00</time>
      </trkpt>
      <trkpt lat="0" lon="0">
        <time>2020-12-20T10:52:13.072000+00:00</time>
      </trkpt>
      <trkpt lat="0" lon="0">
        <time>2020-12-20T10:52:13.078000+00:00</time>
      </trkpt>
      <trkpt lat="0" lon="0">
        <time>2020-12-20T10:52:13.081000+00:00</time>
      </trkpt>
      <trkpt lat="47.29452" lon="-1.38299">
        <ele>72</ele>
        <time>2020-12-20T10:52:14.092000+00:00</time>
      </trkpt>
      <trkpt lat="0" lon="0">
        <time>2020-12-20T10:52:14.100000+00:00</time>
      </trkpt>
      <trkpt lat="0" lon="0">
        <time>2020-12-20T10:52:14.112000+00:00</time>
      </trkpt>
      <trkpt lat="0" lon="0">
        <time>2020-12-20T10:52:14.114000+00:00</time>
      </trkpt>
      <trkpt lat="47.2945" lon="-1.38305">
        <ele>72</ele>
        <time>2020-12-20T10:52:15.071000+00:00</time>
      </trkpt>
      <trkpt lat="0" lon="0">
        <time>2020-12-20T10:52:15.083000+00:00</time>
      </trkpt>
      <trkpt lat="0" lon="0">
        <time>2020-12-20T10:52:15.094000+00:00</time>
      </trkpt>
      <trkpt lat="0" lon="0">
        <time>2020-12-20T10:52:15.099000+00:00</time>
      </trkpt>
      <trkpt lat="47.29449" lon="-1.38311">
        <ele>72</ele>
        <time>2020-12-20T10:52:15.990000+00:00</time>
      </trkpt>
      <trkpt lat="0" lon="0">
        <time>2020-12-20T10:52:16.002000+00:00</time>
      </trkpt>
      <trkpt lat="0" lon="0">
        <time>2020-12-20T10:52:16.008000+00:00</time>
      </trkpt>
      <trkpt lat="0" lon="0">
        <time>2020-12-20T10:52:16.012000+00:00</time>
      </trkpt>
      <trkpt lat="47.29448" lon="-1.38316">
        <ele>72</ele>
        <time>2020-12-20T10:52:17.115000+00:00</time>
      </trkpt>
      <trkpt lat="0" lon="0">
        <time>2020-12-20T10:52:17.131000+00:00</time>
      </trkpt>
      <trkpt lat="0" lon="0">
        <time>2020-12-20T10:52:17.140000+00:00</time>
      </trkpt>
      <trkpt lat="0" lon="0">
        <time>2020-12-20T10:52:17.142000+00:00</time>
      </trkpt>
      <trkpt lat="47.29447" lon="-1.38321">
        <ele>71</ele>
        <time>2020-12-20T10:52:18.046000+00:00</time>
      </trkpt>
      <trkpt lat="0" lon="0">
        <time>2020-12-20T10:52:18.068000+00:00</time>
      </trkpt>
      <trkpt lat="0" lon="0">
        <time>2020-12-20T10:52:18.072000+00:00</time>
      </trkpt>
      <trkpt lat="0" lon="0">
        <time>2020-12-20T10:52:18.077000+00:00</time>
      </trkpt>
      <trkpt lat="47.29445" lon="-1.38325">
        <ele>70</ele>
        <time>2020-12-20T10:52:19.042000+00:00</time>
      </trkpt>
      <trkpt lat="0" lon="0">
        <time>2020-12-20T10:52:19.049000+00:00</time>
      </trkpt>
      <trkpt lat="0" lon="0">
        <time>2020-12-20T10:52:19.054000+00:00</time>
      </trkpt>
      <trkpt lat="0" lon="0">
        <time>2020-12-20T10:52:19.055000+00:00</time>
      </trkpt>
      <trkpt lat="47.29444" lon="-1.38329">
        <ele>69</ele>
        <time>2020-12-20T10:52:20.033000+00:00</time>
      </trkpt>
      <trkpt lat="0" lon="0">
        <time>2020-12-20T10:52:20.052000+00:00</time>
      </trkpt>
      <trkpt lat="0" lon="0">
        <time>2020-12-20T10:52:20.056000+00:00</time>
      </trkpt>
      <trkpt lat="0" lon="0">
        <time>2020-12-20T10:52:20.059000+00:00</time>
      </trkpt>
      <trkpt lat="47.29443" lon="-1.38332">
        <ele>69</ele>
        <time>2020-12-20T10:52:21.050000+00:00</time>
      </trkpt>
      <trkpt lat="0" lon="0">
        <time>2020-12-20T10:52:21.053000+00:00</time>
      </trkpt>
      <trkpt lat="0" lon="0">
        <time>2020-12-20T10:52:21.056000+00:00</time>
      </trkpt>
      <trkpt lat="0" lon="0">
        <time>2020-12-20T10:52:21.057000+00:00</time>
      </trkpt>
      <trkpt lat="47.29442" lon="-1.38334">
        <ele>68</ele>
        <time>2020-12-20T10:52:22.013000+00:00</time>
      </trkpt>
      <trkpt lat="0" lon="0">
        <time>2020-12-20T10:52:22.019000+00:00</time>
      </trkpt>
      <trkpt lat="0" lon="0">
        <time>2020-12-20T10:52:22.023000+00:00</time>
      </trkpt>
      <trkpt lat="0" lon="0">
        <time>2020-12-20T10:52:22.026000+00:00</time>
      </trkpt>
      <trkpt lat="47.29441" lon="-1.38336">
        <ele>68</ele>
        <time>2020-12-20T10:52:23.041000+00:00</time>
      </trkpt>
      <trkpt lat="0" lon="0">
        <time>2020-12-20T10:52:23.055000+00:00</time>
      </trkpt>
      <trkpt lat="0" lon="0">
        <time>2020-12-20T10:52:23.059000+00:00</time>
      </trkpt>
      <trkpt lat="0" lon="0">
        <time>2020-12-20T10:52:23.061000+00:00</time>
      </trkpt>
      <trkpt lat="47.2944" lon="-1.38338">
        <ele>68</ele>
        <time>2020-12-20T10:52:24.075000+00:00</time>
      </trkpt>
      <trkpt lat="0" lon="0">
        <time>2020-12-20T10:52:24.084000+00:00</time>
      </trkpt>
      <trkpt lat="0" lon="0">
        <time>2020-12-20T10:52:24.092000+00:00</time>
      </trkpt>
      <trkpt lat="0" lon="0">
        <time>2020-12-20T10:52:24.097000+00:00</time>
      </trkpt>
      <trkpt lat="47.29439" lon="-1.38341">
        <ele>68</ele>
        <time>2020-12-20T10:52:25.073000+00:00</time>
      </trkpt>
      <trkpt lat="0" lon="0">
        <time>2020-12-20T10:52:25.086000+00:00</time>
      </trkpt>
      <trkpt lat="0" lon="0">
        <time>2020-12-20T10:52:25.092000+00:00</time>
      </trkpt>
      <trkpt lat="0" lon="0">
        <time>2020-12-20T10:52:25.095000+00:00</time>
      </trkpt>
      <trkpt lat="47.29438" lon="-1.38343">
        <ele>68</ele>
        <time>2020-12-20T10:52:26.049000+00:00</time>
      </trkpt>
      <trkpt lat="0" lon="0">
        <time>2020-12-20T10:52:26.067000+00:00</time>
      </trkpt>
      <trkpt lat="0" lon="0">
        <time>2020-12-20T10:52:26.075000+00:00</time>
      </trkpt>
      <trkpt lat="0" lon="0">
        <time>2020-12-20T10:52:26.077000+00:00</time>
      </trkpt>
      <trkpt lat="47.29437" lon="-1.38346">
        <ele>68</ele>
        <time>2020-12-20T10:52:27.005000+00:00</time>
      </trkpt>
      <trkpt lat="0" lon="0">
        <time>2020-12-20T10:52:27.026000+00:00</time>
      </trkpt>
      <trkpt lat="0" lon="0">
        <time>2020-12-20T10:52:27.031000+00:00</time>
      </trkpt>
      <trkpt lat="0" lon="0">
        <time>2020-12-20T10:52:27.035000+00:00</time>
      </trkpt>
      <trkpt lat="47.29437" lon="-1.38349">
        <ele>68</ele>
        <time>2020-12-20T10:52:28.036000+00:00</time>
      </trkpt>
      <trkpt lat="0" lon="0">
        <time>2020-12-20T10:52:28.044000+00:00</time>
      </trkpt>
      <trkpt lat="0" lon="0">
        <time>2020-12-20T10:52:28.046000+00:00</time>
      </trkpt>
      <trkpt lat="0" lon="0">
        <time>2020-12-20T10:52:28.048000+00:00</time>
      </trkpt>
      <trkpt lat="47.29436" lon="-1.38352">
        <ele>68</ele>
        <time>2020-12-20T10:52:29.068000+00:00</time>
      </trkpt>
      <trkpt lat="0" lon="0">
        <time>2020-12-20T10:52:29.087000+00:00</time>
      </trkpt>
      <trkpt lat="0" lon="0">
        <time>2020-12-20T10:52:29.092000+00:00</time>
      </trkpt>
      <trkpt lat="0" lon="0">
        <time>2020-12-20T10:52:29.094000+00:00</time>
      </trkpt>
      <trkpt lat="47.29436" lon="-1.38356">
        <ele>67</ele>
        <time>2020-12-20T10:52:30.067000+00:00</time>
      </trkpt>
      <trkpt lat="0" lon="0">
        <time>2020-12-20T10:52:30.079000+00:00</time>
      </trkpt>
      <trkpt lat="0" lon="0">
        <time>2020-12-20T10:52:30.089000+00:00</time>
      </trkpt>
      <trkpt lat="0" lon="0">
        <time>2020-12-20T10:52:30.091000+00:00</time>
      </trkpt>
      <trkpt lat="47.29435" lon="-1.3836">
        <ele>67</ele>
        <time>2020-12-20T10:52:31.028000+00:00</time>
      </trkpt>
      <trkpt lat="0" lon="0">
        <time>2020-12-20T10:52:31.051000+00:00</time>
      </trkpt>
      <trkpt lat="0" lon="0">
        <time>2020-12-20T10:52:31.059000+00:00</time>
      </trkpt>
      <trkpt lat="0" lon="0">
        <time>2020-12-20T10:52:31.063000+00:00</time>
      </trkpt>
      <trkpt lat="47.29435" lon="-1.38364">
        <ele>67</ele>
        <time>2020-12-20T10:52:32.034000+00:00</time>
      </trkpt>
      <trkpt lat="0" lon="0">
        <time>2020-12-20T10:52:32.041000+00:00</time>
      </trkpt>
      <trkpt lat="0" lon="0">
        <time>2020-12-20T10:52:32.043000+00:00</time>
      </trkpt>
      <trkpt lat="0" lon="0">
        <time>2020-12-20T10:52:32.045000+00:00</time>
      </trkpt>
      <trkpt lat="47.29434" lon="-1.38368">
        <ele>67</ele>
        <time>2020-12-20T10:52:33.064000+00:00</time>
      </trkpt>
      <trkpt lat="0" lon="0">
        <time>2020-12-20T10:52:33.076000+00:00</time>
      </trkpt>
      <trkpt lat="0" lon="0">
        <time>2020-12-20T10:52:33.089000+00:00</time>
      </trkpt>
      <trkpt lat="0" lon="0">
        <time>2020-12-20T10:52:33.096000+00:00</time>
      </trkpt>
      <trkpt lat="47.29432" lon="-1.38373">
        <ele>66</ele>
        <time>2020-12-20T10:52:34.061000+00:00</time>
      </trkpt>
      <trkpt lat="0" lon="0">
        <time>2020-12-20T10:52:34.071000+00:00</time>
      </trkpt>
      <trkpt lat="0" lon="0">
        <time>2020-12-20T10:52:34.078000+00:00</time>
      </trkpt>
      <trkpt lat="0" lon="0">
        <time>2020-12-20T10:52:34.081000+00:00</time>
      </trkpt>
      <trkpt lat="47.29431" lon="-1.38378">
        <ele>66</ele>
        <time>2020-12-20T10:52:35.058000+00:00</time>
      </trkpt>
      <trkpt lat="0" lon="0">
        <time>2020-12-20T10:52:35.072000+00:00</time>
      </trkpt>
      <trkpt lat="0" lon="0">
        <time>2020-12-20T10:52:35.081000+00:00</time>
      </trkpt>
      <trkpt lat="0" lon="0">
        <time>2020-12-20T10:52:35.083000+00:00</time>
      </trkpt>
      <trkpt lat="47.29429" lon="-1.38384">
        <ele>65</ele>
        <time>2020-12-20T10:52:36.038000+00:00</time>
      </trkpt>
      <trkpt lat="0" lon="0">
        <time>2020-12-20T10:52:36.048000+00:00</time>
      </trkpt>
      <trkpt lat="0" lon="0">
        <time>2020-12-20T10:52:36.063000+00:00</time>
      </trkpt>
      <trkpt lat="0" lon="0">
        <time>2020-12-20T10:52:36.066000+00:00</time>
      </trkpt>
      <trkpt lat="47.29428" lon="-1.38389">
        <ele>65</ele>
        <time>2020-12-20T10:52:37.022000+00:00</time>
      </trkpt>
      <trkpt lat="0" lon="0">
        <time>2020-12-20T10:52:37.037000+00:00</time>
      </trkpt>
      <trkpt lat="0" lon="0">
        <time>2020-12-20T10:52:37.042000+00:00</time>
      </trkpt>
      <trkpt lat="0" lon="0">
        <time>2020-12-20T10:52:37.046000+00:00</time>
      </trkpt>
      <trkpt lat="47.29427" lon="-1.38394">
        <ele>65</ele>
        <time>2020-12-20T10:52:38.051000+00:00</time>
      </trkpt>
      <trkpt lat="0" lon="0">
        <time>2020-12-20T10:52:38.063000+00:00</time>
      </trkpt>
      <trkpt lat="0" lon="0">
        <time>2020-12-20T10:52:38.068000+00:00</time>
      </trkpt>
      <trkpt lat="0" lon="0">
        <time>2020-12-20T10:52:38.072000+00:00</time>
      </trkpt>
      <trkpt lat="47.29425" lon="-1.384">
        <ele>64</ele>
        <time>2020-12-20T10:52:39.056000+00:00</time>
      </trkpt>
      <trkpt lat="0" lon="0">
        <time>2020-12-20T10:52:39.067000+00:00</time>
      </trkpt>
      <trkpt lat="0" lon="0">
        <time>2020-12-20T10:52:39.072000+00:00</time>
      </trkpt>
      <trkpt lat="0" lon="0">
        <time>2020-12-20T10:52:39.074000+00:00</time>
      </trkpt>
      <trkpt lat="47.29424" lon="-1.38406">
        <ele>64</ele>
        <time>2020-12-20T10:52:40.077000+00:00</time>
      </trkpt>
      <trkpt lat="0" lon="0">
        <time>2020-12-20T10:52:40.085000+00:00</time>
      </trkpt>
      <trkpt lat="0" lon="0">
        <time>2020-12-20T10:52:40.090000+00:00</time>
      </trkpt>
      <trkpt lat="0" lon="0">
        <time>2020-12-20T10:52:40.092000+00:00</time>
      </trkpt>
      <trkpt lat="47.29422" lon="-1.38411">
        <ele>63</ele>
        <time>2020-12-20T10:52:41.103000+00:00</time>
      </trkpt>
      <trkpt lat="0" lon="0">
        <time>2020-12-20T10:52:41.119000+00:00</time>
      </trkpt>
      <trkpt lat="0" lon="0">
        <time>2020-12-20T10:52:41.127000+00:00</time>
      </trkpt>
      <trkpt lat="0" lon="0">
        <time>2020-12-20T10:52:41.128000+00:00</time>
      </trkpt>
      <trkpt lat="47.29421" lon="-1.38417">
        <ele>63</ele>
        <time>2020-12-20T10:52:42.062000+00:00</time>
      </trkpt>
      <trkpt lat="0" lon="0">
        <time>2020-12-20T10:52:42.067000+00:00</time>
      </trkpt>
      <trkpt lat="0" lon="0">
        <time>2020-12-20T10:52:42.069000+00:00</time>
      </trkpt>
      <trkpt lat="0" lon="0">
        <time>2020-12-20T10:52:42.071000+00:00</time>
      </trkpt>
      <trkpt lat="47.29419" lon="-1.38423">
        <ele>63</ele>
        <time>2020-12-20T10:52:43.059000+00:00</time>
      </trkpt>
      <trkpt lat="0" lon="0">
        <time>2020-12-20T10:52:43.075000+00:00</time>
      </trkpt>
      <trkpt lat="0" lon="0">
        <time>2020-12-20T10:52:43.081000+00:00</time>
      </trkpt>
      <trkpt lat="0" lon="0">
        <time>2020-12-20T10:52:43.085000+00:00</time>
      </trkpt>
      <trkpt lat="47.29418" lon="-1.38429">
        <ele>63</ele>
        <time>2020-12-20T10:52:44.047000+00:00</time>
      </trkpt>
      <trkpt lat="0" lon="0">
        <time>2020-12-20T10:52:44.058000+00:00</time>
      </trkpt>
      <trkpt lat="0" lon="0">
        <time>2020-12-20T10:52:44.064000+00:00</time>
      </trkpt>
      <trkpt lat="0" lon="0">
        <time>2020-12-20T10:52:44.066000+00:00</time>
      </trkpt>
      <trkpt lat="47.29416" lon="-1.38435">
        <ele>63</ele>
        <time>2020-12-20T10:52:45.072000+00:00</time>
      </trkpt>
      <trkpt lat="0" lon="0">
        <time>2020-12-20T10:52:45.078000+00:00</time>
      </trkpt>
      <trkpt lat="0" lon="0">
        <time>2020-12-20T10:52:45.085000+00:00</time>
      </trkpt>
      <trkpt lat="0" lon="0">
        <time>2020-12-20T10:52:45.088000+00:00</time>
      </trkpt>
      <trkpt lat="47.29415" lon="-1.38441">
        <ele>63</ele>
        <time>2020-12-20T10:52:46.063000+00:00</time>
      </trkpt>
      <trkpt lat="0" lon="0">
        <time>2020-12-20T10:52:46.071000+00:00</time>
      </trkpt>
      <trkpt lat="0" lon="0">
        <time>2020-12-20T10:52:46.090000+00:00</time>
      </trkpt>
      <trkpt lat="0" lon="0">
        <time>2020-12-20T10:52:46.093000+00:00</time>
      </trkpt>
      <trkpt lat="47.29413" lon="-1.38447">
        <ele>63</ele>
        <time>2020-12-20T10:52:47.038000+00:00</time>
      </trkpt>
      <trkpt lat="0" lon="0">
        <time>2020-12-20T10:52:47.050000+00:00</time>
      </trkpt>
      <trkpt lat="0" lon="0">
        <time>2020-12-20T10:52:47.054000+00:00</time>
      </trkpt>
      <trkpt lat="0" lon="0">
        <time>2020-12-20T10:52:47.056000+00:00</time>
      </trkpt>
      <trkpt lat="47.29412" lon="-1.38452">
        <ele>64</ele>
        <time>2020-12-20T10:52:48.062000+00:00</time>
      </trkpt>
      <trkpt lat="0" lon="0">
        <time>2020-12-20T10:52:48.073000+00:00</time>
      </trkpt>
      <trkpt lat="0" lon="0">
        <time>2020-12-20T10:52:48.081000+00:00</time>
      </trkpt>
      <trkpt lat="0" lon="0">
        <time>2020-12-20T10:52:48.086000+00:00</time>
      </trkpt>
      <trkpt lat="47.2941" lon="-1.38458">
        <ele>64</ele>
        <time>2020-12-20T10:52:49.053000+00:00</time>
      </trkpt>
      <trkpt lat="0" lon="0">
        <time>2020-12-20T10:52:49.063000+00:00</time>
      </trkpt>
      <trkpt lat="0" lon="0">
        <time>2020-12-20T10:52:49.070000+00:00</time>
      </trkpt>
      <trkpt lat="0" lon="0">
        <time>2020-12-20T10:52:49.076000+00:00</time>
      </trkpt>
      <trkpt lat="47.29409" lon="-1.38464">
        <ele>64</ele>
        <time>2020-12-20T10:52:50.064000+00:00</time>
      </trkpt>
      <trkpt lat="0" lon="0">
        <time>2020-12-20T10:52:50.068000+00:00</time>
      </trkpt>
      <trkpt lat="0" lon="0">
        <time>2020-12-20T10:52:50.070000+00:00</time>
      </trkpt>
      <trkpt lat="0" lon="0">
        <time>2020-12-20T10:52:50.071000+00:00</time>
      </trkpt>
      <trkpt lat="47.29407" lon="-1.38469">
        <ele>64</ele>
        <time>2020-12-20T10:52:51.030000+00:00</time>
      </trkpt>
      <trkpt lat="0" lon="0">
        <time>2020-12-20T10:52:51.045000+00:00</time>
      </trkpt>
      <trkpt lat="0" lon="0">
        <time>2020-12-20T10:52:51.050000+00:00</time>
      </trkpt>
      <trkpt lat="0" lon="0">
        <time>2020-12-20T10:52:51.055000+00:00</time>
      </trkpt>
      <trkpt lat="47.29405" lon="-1.38475">
        <ele>63</ele>
        <time>2020-12-20T10:52:52.032000+00:00</time>
      </trkpt>
      <trkpt lat="0" lon="0">
        <time>2020-12-20T10:52:52.037000+00:00</time>
      </trkpt>
      <trkpt lat="0" lon="0">
        <time>2020-12-20T10:52:52.041000+00:00</time>
      </trkpt>
      <trkpt lat="0" lon="0">
        <time>2020-12-20T10:52:52.043000+00:00</time>
      </trkpt>
      <trkpt lat="47.29404" lon="-1.3848">
        <ele>64</ele>
        <time>2020-12-20T10:52:53.065000+00:00</time>
      </trkpt>
      <trkpt lat="0" lon="0">
        <time>2020-12-20T10:52:53.077000+00:00</time>
      </trkpt>
      <trkpt lat="0" lon="0">
        <time>2020-12-20T10:52:53.085000+00:00</time>
      </trkpt>
      <trkpt lat="0" lon="0">
        <time>2020-12-20T10:52:53.088000+00:00</time>
      </trkpt>
      <trkpt lat="47.29402" lon="-1.38486">
        <ele>64</ele>
        <time>2020-12-20T10:52:54.051000+00:00</time>
      </trkpt>
      <trkpt lat="0" lon="0">
        <time>2020-12-20T10:52:54.070000+00:00</time>
      </trkpt>
      <trkpt lat="0" lon="0">
        <time>2020-12-20T10:52:54.082000+00:00</time>
      </trkpt>
      <trkpt lat="0" lon="0">
        <time>2020-12-20T10:52:54.085000+00:00</time>
      </trkpt>
      <trkpt lat="47.294" lon="-1.38491">
        <ele>64</ele>
        <time>2020-12-20T10:52:55.063000+00:00</time>
      </trkpt>
      <trkpt lat="0" lon="0">
        <time>2020-12-20T10:52:55.081000+00:00</time>
      </trkpt>
      <trkpt lat="0" lon="0">
        <time>2020-12-20T10:52:55.087000+00:00</time>
      </trkpt>
      <trkpt lat="0" lon="0">
        <time>2020-12-20T10:52:55.090000+00:00</time>
      </trkpt>
      <trkpt lat="47.29399" lon="-1.38496">
        <ele>64</ele>
        <time>2020-12-20T10:52:56.063000+00:00</time>
      </trkpt>
      <trkpt lat="0" lon="0">
        <time>2020-12-20T10:52:56.066000+00:00</time>
      </trkpt>
      <trkpt lat="0" lon="0">
        <time>2020-12-20T10:52:56.068000+00:00</time>
      </trkpt>
      <trkpt lat="0" lon="0">
        <time>2020-12-20T10:52:56.070000+00:00</time>
      </trkpt>
      <trkpt lat="47.29397" lon="-1.385">
        <ele>64</ele>
        <time>2020-12-20T10:52:57.086000+00:00</time>
      </trkpt>
      <trkpt lat="0" lon="0">
        <time>2020-12-20T10:52:57.092000+00:00</time>
      </trkpt>
      <trkpt lat="0" lon="0">
        <time>2020-12-20T10:52:57.100000+00:00</time>
      </trkpt>
      <trkpt lat="0" lon="0">
        <time>2020-12-20T10:52:57.103000+00:00</time>
      </trkpt>
      <trkpt lat="47.29395" lon="-1.38503">
        <ele>64</ele>
        <time>2020-12-20T10:52:57.998000+00:00</time>
      </trkpt>
      <trkpt lat="0" lon="0">
        <time>2020-12-20T10:52:58.005000+00:00</time>
      </trkpt>
      <trkpt lat="0" lon="0">
        <time>2020-12-20T10:52:58.007000+00:00</time>
      </trkpt>
      <trkpt lat="0" lon="0">
        <time>2020-12-20T10:52:58.011000+00:00</time>
      </trkpt>
      <trkpt lat="47.29394" lon="-1.38505">
        <ele>64</ele>
        <time>2020-12-20T10:52:59.022000+00:00</time>
      </trkpt>
      <trkpt lat="0" lon="0">
        <time>2020-12-20T10:52:59.033000+00:00</time>
      </trkpt>
      <trkpt lat="0" lon="0">
        <time>2020-12-20T10:52:59.037000+00:00</time>
      </trkpt>
      <trkpt lat="0" lon="0">
        <time>2020-12-20T10:52:59.040000+00:00</time>
      </trkpt>
      <trkpt lat="47.29392" lon="-1.38506">
        <ele>64</ele>
        <time>2020-12-20T10:53:00.059000+00:00</time>
      </trkpt>
      <trkpt lat="0" lon="0">
        <time>2020-12-20T10:53:00.067000+00:00</time>
      </trkpt>
      <trkpt lat="0" lon="0">
        <time>2020-12-20T10:53:00.072000+00:00</time>
      </trkpt>
      <trkpt lat="0" lon="0">
        <time>2020-12-20T10:53:00.076000+00:00</time>
      </trkpt>
      <trkpt lat="47.29391" lon="-1.38506">
        <ele>63</ele>
        <time>2020-12-20T10:53:01.045000+00:00</time>
      </trkpt>
      <trkpt lat="0" lon="0">
        <time>2020-12-20T10:53:01.060000+00:00</time>
      </trkpt>
      <trkpt lat="0" lon="0">
        <time>2020-12-20T10:53:01.064000+00:00</time>
      </trkpt>
      <trkpt lat="0" lon="0">
        <time>2020-12-20T10:53:01.067000+00:00</time>
      </trkpt>
      <trkpt lat="47.2939" lon="-1.38504">
        <ele>63</ele>
        <time>2020-12-20T10:53:02.012000+00:00</time>
      </trkpt>
      <trkpt lat="0" lon="0">
        <time>2020-12-20T10:53:02.023000+00:00</time>
      </trkpt>
      <trkpt lat="0" lon="0">
        <time>2020-12-20T10:53:02.027000+00:00</time>
      </trkpt>
      <trkpt lat="0" lon="0">
        <time>2020-12-20T10:53:02.029000+00:00</time>
      </trkpt>
      <trkpt lat="47.2939" lon="-1.38502">
        <ele>63</ele>
        <time>2020-12-20T10:53:03.042000+00:00</time>
      </trkpt>
      <trkpt lat="0" lon="0">
        <time>2020-12-20T10:53:03.056000+00:00</time>
      </trkpt>
      <trkpt lat="0" lon="0">
        <time>2020-12-20T10:53:03.061000+00:00</time>
      </trkpt>
      <trkpt lat="0" lon="0">
        <time>2020-12-20T10:53:03.065000+00:00</time>
      </trkpt>
      <trkpt lat="47.29391" lon="-1.385">
        <ele>63</ele>
        <time>2020-12-20T10:53:04.049000+00:00</time>
      </trkpt>
      <trkpt lat="0" lon="0">
        <time>2020-12-20T10:53:04.063000+00:00</time>
      </trkpt>
      <trkpt lat="0" lon="0">
        <time>2020-12-20T10:53:04.073000+00:00</time>
      </trkpt>
      <trkpt lat="0" lon="0">
        <time>2020-12-20T10:53:04.075000+00:00</time>
      </trkpt>
      <trkpt lat="47.29391" lon="-1.38496">
        <ele>63</ele>
        <time>2020-12-20T10:53:05.084000+00:00</time>
      </trkpt>
      <trkpt lat="0" lon="0">
        <time>2020-12-20T10:53:05.094000+00:00</time>
      </trkpt>
      <trkpt lat="0" lon="0">
        <time>2020-12-20T10:53:05.100000+00:00</time>
      </trkpt>
      <trkpt lat="0" lon="0">
        <time>2020-12-20T10:53:05.102000+00:00</time>
      </trkpt>
      <trkpt lat="47.29392" lon="-1.38492">
        <ele>63</ele>
        <time>2020-12-20T10:53:06.075000+00:00</time>
      </trkpt>
      <trkpt lat="0" lon="0">
        <time>2020-12-20T10:53:06.083000+00:00</time>
      </trkpt>
      <trkpt lat="0" lon="0">
        <time>2020-12-20T10:53:06.090000+00:00</time>
      </trkpt>
      <trkpt lat="0" lon="0">
        <time>2020-12-20T10:53:06.092000+00:00</time>
      </trkpt>
      <trkpt lat="47.29393" lon="-1.38487">
        <ele>63</ele>
        <time>2020-12-20T10:53:07.058000+00:00</time>
      </trkpt>
      <trkpt lat="0" lon="0">
        <time>2020-12-20T10:53:07.069000+00:00</time>
      </trkpt>
      <trkpt lat="0" lon="0">
        <time>2020-12-20T10:53:07.073000+00:00</time>
      </trkpt>
      <trkpt lat="0" lon="0">
        <time>2020-12-20T10:53:07.075000+00:00</time>
      </trkpt>
      <trkpt lat="47.29394" lon="-1.38482">
        <ele>63</ele>
        <time>2020-12-20T10:53:08.040000+00:00</time>
      </trkpt>
      <trkpt lat="0" lon="0">
        <time>2020-12-20T10:53:08.056000+00:00</time>
      </trkpt>
      <trkpt lat="0" lon="0">
        <time>2020-12-20T10:53:08.063000+00:00</time>
      </trkpt>
      <trkpt lat="0" lon="0">
        <time>2020-12-20T10:53:08.071000+00:00</time>
      </trkpt>
      <trkpt lat="47.29402" lon="-1.38454">
        <ele>62</ele>
        <time>2020-12-20T10:53:08.969000+00:00</time>
      </trkpt>
      <trkpt lat="0" lon="0">
        <time>2020-12-20T10:53:08.977000+00:00</time>
      </trkpt>
      <trkpt lat="0" lon="0">
        <time>2020-12-20T10:53:08.979000+00:00</time>
      </trkpt>
      <trkpt lat="0" lon="0">
        <time>2020-12-20T10:53:08.980000+00:00</time>
      </trkpt>
      <trkpt lat="47.29404" lon="-1.38449">
        <ele>62</ele>
        <time>2020-12-20T10:53:09.924000+00:00</time>
      </trkpt>
      <trkpt lat="0" lon="0">
        <time>2020-12-20T10:53:09.941000+00:00</time>
      </trkpt>
      <trkpt lat="0" lon="0">
        <time>2020-12-20T10:53:09.945000+00:00</time>
      </trkpt>
      <trkpt lat="0" lon="0">
        <time>2020-12-20T10:53:09.949000+00:00</time>
      </trkpt>
      <trkpt lat="47.29407" lon="-1.38446">
        <ele>61</ele>
        <time>2020-12-20T10:53:10.998000+00:00</time>
      </trkpt>
      <trkpt lat="0" lon="0">
        <time>2020-12-20T10:53:11.015000+00:00</time>
      </trkpt>
      <trkpt lat="0" lon="0">
        <time>2020-12-20T10:53:11.022000+00:00</time>
      </trkpt>
      <trkpt lat="0" lon="0">
        <time>2020-12-20T10:53:11.023000+00:00</time>
      </trkpt>
      <trkpt lat="47.29409" lon="-1.38443">
        <ele>61</ele>
        <time>2020-12-20T10:53:11.968000+00:00</time>
      </trkpt>
      <trkpt lat="0" lon="0">
        <time>2020-12-20T10:53:11.977000+00:00</time>
      </trkpt>
      <trkpt lat="0" lon="0">
        <time>2020-12-20T10:53:11.982000+00:00</time>
      </trkpt>
      <trkpt lat="0" lon="0">
        <time>2020-12-20T10:53:11.985000+00:00</time>
      </trkpt>
      <trkpt lat="47.29411" lon="-1.38442">
        <ele>61</ele>
        <time>2020-12-20T10:53:12.989000+00:00</time>
      </trkpt>
      <trkpt lat="0" lon="0">
        <time>2020-12-20T10:53:13.001000+00:00</time>
      </trkpt>
      <trkpt lat="0" lon="0">
        <time>2020-12-20T10:53:13.011000+00:00</time>
      </trkpt>
      <trkpt lat="0" lon="0">
        <time>2020-12-20T10:53:13.016000+00:00</time>
      </trkpt>
      <trkpt lat="47.29414" lon="-1.38441">
        <ele>61</ele>
        <time>2020-12-20T10:53:13.888000+00:00</time>
      </trkpt>
      <trkpt lat="0" lon="0">
        <time>2020-12-20T10:53:13.907000+00:00</time>
      </trkpt>
      <trkpt lat="0" lon="0">
        <time>2020-12-20T10:53:13.913000+00:00</time>
      </trkpt>
      <trkpt lat="0" lon="0">
        <time>2020-12-20T10:53:13.915000+00:00</time>
      </trkpt>
      <trkpt lat="47.29416" lon="-1.38441">
        <ele>61</ele>
        <time>2020-12-20T10:53:14.976000+00:00</time>
      </trkpt>
      <trkpt lat="0" lon="0">
        <time>2020-12-20T10:53:14.979000+00:00</time>
      </trkpt>
      <trkpt lat="0" lon="0">
        <time>2020-12-20T10:53:14.981000+00:00</time>
      </trkpt>
      <trkpt lat="0" lon="0">
        <time>2020-12-20T10:53:14.983000+00:00</time>
      </trkpt>
      <trkpt lat="47.29418" lon="-1.38442">
        <ele>61</ele>
        <time>2020-12-20T10:53:15.979000+00:00</time>
      </trkpt>
      <trkpt lat="0" lon="0">
        <time>2020-12-20T10:53:15.994000+00:00</time>
      </trkpt>
      <trkpt lat="0" lon="0">
        <time>2020-12-20T10:53:15.999000+00:00</time>
      </trkpt>
      <trkpt lat="0" lon="0">
        <time>2020-12-20T10:53:16.002000+00:00</time>
      </trkpt>
      <trkpt lat="47.2942" lon="-1.38444">
        <ele>61</ele>
        <time>2020-12-20T10:53:16.908000+00:00</time>
      </trkpt>
      <trkpt lat="0" lon="0">
        <time>2020-12-20T10:53:16.911000+00:00</time>
      </trkpt>
      <trkpt lat="0" lon="0">
        <time>2020-12-20T10:53:16.914000+00:00</time>
      </trkpt>
      <trkpt lat="0" lon="0">
        <time>2020-12-20T10:53:16.915000+00:00</time>
      </trkpt>
      <trkpt lat="47.29422" lon="-1.38446">
        <ele>61</ele>
        <time>2020-12-20T10:53:17.952000+00:00</time>
      </trkpt>
      <trkpt lat="0" lon="0">
        <time>2020-12-20T10:53:17.962000+00:00</time>
      </trkpt>
      <trkpt lat="0" lon="0">
        <time>2020-12-20T10:53:17.967000+00:00</time>
      </trkpt>
      <trkpt lat="0" lon="0">
        <time>2020-12-20T10:53:17.970000+00:00</time>
      </trkpt>
      <trkpt lat="47.29424" lon="-1.38449">
        <ele>61</ele>
        <time>2020-12-20T10:53:18.999000+00:00</time>
      </trkpt>
      <trkpt lat="0" lon="0">
        <time>2020-12-20T10:53:19.009000+00:00</time>
      </trkpt>
      <trkpt lat="0" lon="0">
        <time>2020-12-20T10:53:19.013000+00:00</time>
      </trkpt>
      <trkpt lat="0" lon="0">
        <time>2020-12-20T10:53:19.016000+00:00</time>
      </trkpt>
      <trkpt lat="47.29426" lon="-1.38451">
        <ele>61</ele>
        <time>2020-12-20T10:53:19.995000+00:00</time>
      </trkpt>
      <trkpt lat="0" lon="0">
        <time>2020-12-20T10:53:20.010000+00:00</time>
      </trkpt>
      <trkpt lat="0" lon="0">
        <time>2020-12-20T10:53:20.015000+00:00</time>
      </trkpt>
      <trkpt lat="0" lon="0">
        <time>2020-12-20T10:53:20.018000+00:00</time>
      </trkpt>
      <trkpt lat="47.29427" lon="-1.38453">
        <ele>61</ele>
        <time>2020-12-20T10:53:20.984000+00:00</time>
      </trkpt>
      <trkpt lat="0" lon="0">
        <time>2020-12-20T10:53:20.999000+00:00</time>
      </trkpt>
      <trkpt lat="0" lon="0">
        <time>2020-12-20T10:53:21.006000+00:00</time>
      </trkpt>
      <trkpt lat="0" lon="0">
        <time>2020-12-20T10:53:21.009000+00:00</time>
      </trkpt>
      <trkpt lat="47.29429" lon="-1.38455">
        <ele>61</ele>
        <time>2020-12-20T10:53:21.994000+00:00</time>
      </trkpt>
      <trkpt lat="0" lon="0">
        <time>2020-12-20T10:53:22.004000+00:00</time>
      </trkpt>
      <trkpt lat="0" lon="0">
        <time>2020-12-20T10:53:22.012000+00:00</time>
      </trkpt>
      <trkpt lat="0" lon="0">
        <time>2020-12-20T10:53:22.015000+00:00</time>
      </trkpt>
      <trkpt lat="47.2943" lon="-1.38457">
        <ele>61</ele>
        <time>2020-12-20T10:53:22.988000+00:00</time>
      </trkpt>
      <trkpt lat="0" lon="0">
        <time>2020-12-20T10:53:23.010000+00:00</time>
      </trkpt>
      <trkpt lat="0" lon="0">
        <time>2020-12-20T10:53:23.015000+00:00</time>
      </trkpt>
      <trkpt lat="0" lon="0">
        <time>2020-12-20T10:53:23.017000+00:00</time>
      </trkpt>
      <trkpt lat="47.29432" lon="-1.38458">
        <ele>60</ele>
        <time>2020-12-20T10:53:23.933000+00:00</time>
      </trkpt>
      <trkpt lat="0" lon="0">
        <time>2020-12-20T10:53:23.941000+00:00</time>
      </trkpt>
      <trkpt lat="0" lon="0">
        <time>2020-12-20T10:53:23.942000+00:00</time>
      </trkpt>
      <trkpt lat="47.29433" lon="-1.38459">
        <ele>60</ele>
        <time>2020-12-20T10:53:24.955000+00:00</time>
      </trkpt>
      <trkpt lat="0" lon="0">
        <time>2020-12-20T10:53:24.967000+00:00</time>
      </trkpt>
      <trkpt lat="0" lon="0">
        <time>2020-12-20T10:53:24.973000+00:00</time>
      </trkpt>
      <trkpt lat="0" lon="0">
        <time>2020-12-20T10:53:24.979000+00:00</time>
      </trkpt>
      <trkpt lat="47.29435" lon="-1.38461">
        <ele>60</ele>
        <time>2020-12-20T10:53:25.966000+00:00</time>
      </trkpt>
      <trkpt lat="0" lon="0">
        <time>2020-12-20T10:53:25.972000+00:00</time>
      </trkpt>
      <trkpt lat="0" lon="0">
        <time>2020-12-20T10:53:25.978000+00:00</time>
      </trkpt>
      <trkpt lat="0" lon="0">
        <time>2020-12-20T10:53:25.980000+00:00</time>
      </trkpt>
      <trkpt lat="47.29438" lon="-1.38462">
        <ele>60</ele>
        <time>2020-12-20T10:53:27.004000+00:00</time>
      </trkpt>
      <trkpt lat="0" lon="0">
        <time>2020-12-20T10:53:27.013000+00:00</time>
      </trkpt>
      <trkpt lat="0" lon="0">
        <time>2020-12-20T10:53:27.023000+00:00</time>
      </trkpt>
      <trkpt lat="0" lon="0">
        <time>2020-12-20T10:53:27.027000+00:00</time>
      </trkpt>
      <trkpt lat="47.2944" lon="-1.38463">
        <ele>60</ele>
        <time>2020-12-20T10:53:27.903000+00:00</time>
      </trkpt>
      <trkpt lat="0" lon="0">
        <time>2020-12-20T10:53:27.909000+00:00</time>
      </trkpt>
      <trkpt lat="0" lon="0">
        <time>2020-12-20T10:53:27.911000+00:00</time>
      </trkpt>
      <trkpt lat="0" lon="0">
        <time>2020-12-20T10:53:27.913000+00:00</time>
      </trkpt>
      <trkpt lat="47.29442" lon="-1.38462">
        <ele>60</ele>
        <time>2020-12-20T10:53:28.997000+00:00</time>
      </trkpt>
      <trkpt lat="0" lon="0">
        <time>2020-12-20T10:53:29.016000+00:00</time>
      </trkpt>
      <trkpt lat="0" lon="0">
        <time>2020-12-20T10:53:29.023000+00:00</time>
      </trkpt>
      <trkpt lat="0" lon="0">
        <time>2020-12-20T10:53:29.025000+00:00</time>
      </trkpt>
      <trkpt lat="47.29443" lon="-1.38461">
        <ele>60</ele>
        <time>2020-12-20T10:53:30.007000+00:00</time>
      </trkpt>
      <trkpt lat="0" lon="0">
        <time>2020-12-20T10:53:30.017000+00:00</time>
      </trkpt>
      <trkpt lat="0" lon="0">
        <time>2020-12-20T10:53:30.035000+00:00</time>
      </trkpt>
      <trkpt lat="0" lon="0">
        <time>2020-12-20T10:53:30.036000+00:00</time>
      </trkpt>
      <trkpt lat="47.29444" lon="-1.38458">
        <ele>60</ele>
        <time>2020-12-20T10:53:30.984000+00:00</time>
      </trkpt>
      <trkpt lat="0" lon="0">
        <time>2020-12-20T10:53:30.998000+00:00</time>
      </trkpt>
      <trkpt lat="0" lon="0">
        <time>2020-12-20T10:53:31.003000+00:00</time>
      </trkpt>
      <trkpt lat="0" lon="0">
        <time>2020-12-20T10:53:31.007000+00:00</time>
      </trkpt>
      <trkpt lat="47.29444" lon="-1.38456">
        <ele>60</ele>
        <time>2020-12-20T10:53:31.923000+00:00</time>
      </trkpt>
      <trkpt lat="0" lon="0">
        <time>2020-12-20T10:53:31.925000+00:00</time>
      </trkpt>
      <trkpt lat="0" lon="0">
        <time>2020-12-20T10:53:31.934000+00:00</time>
      </trkpt>
      <trkpt lat="0" lon="0">
        <time>2020-12-20T10:53:31.935000+00:00</time>
      </trkpt>
      <trkpt lat="47.29445" lon="-1.38454">
        <ele>60</ele>
        <time>2020-12-20T10:53:32.986000+00:00</time>
      </trkpt>
      <trkpt lat="0" lon="0">
        <time>2020-12-20T10:53:32.994000+00:00</time>
      </trkpt>
      <trkpt lat="0" lon="0">
        <time>2020-12-20T10:53:32.999000+00:00</time>
      </trkpt>
      <trkpt lat="0" lon="0">
        <time>2020-12-20T10:53:33.001000+00:00</time>
      </trkpt>
      <trkpt lat="47.29445" lon="-1.38452">
        <ele>60</ele>
        <time>2020-12-20T10:53:33.949000+00:00</time>
      </trkpt>
      <trkpt lat="0" lon="0">
        <time>2020-12-20T10:53:33.953000+00:00</time>
      </trkpt>
      <trkpt lat="0" lon="0">
        <time>2020-12-20T10:53:33.961000+00:00</time>
      </trkpt>
      <trkpt lat="0" lon="0">
        <time>2020-12-20T10:53:33.963000+00:00</time>
      </trkpt>
      <trkpt lat="47.29444" lon="-1.3845">
        <ele>60</ele>
        <time>2020-12-20T10:53:34.943000+00:00</time>
      </trkpt>
      <trkpt lat="0" lon="0">
        <time>2020-12-20T10:53:34.954000+00:00</time>
      </trkpt>
      <trkpt lat="0" lon="0">
        <time>2020-12-20T10:53:34.958000+00:00</time>
      </trkpt>
      <trkpt lat="0" lon="0">
        <time>2020-12-20T10:53:34.960000+00:00</time>
      </trkpt>
      <trkpt lat="47.29444" lon="-1.38448">
        <ele>60</ele>
        <time>2020-12-20T10:53:35.938000+00:00</time>
      </trkpt>
      <trkpt lat="0" lon="0">
        <time>2020-12-20T10:53:35.946000+00:00</time>
      </trkpt>
      <trkpt lat="0" lon="0">
        <time>2020-12-20T10:53:35.950000+00:00</time>
      </trkpt>
      <trkpt lat="0" lon="0">
        <time>2020-12-20T10:53:35.953000+00:00</time>
      </trkpt>
      <trkpt lat="47.29443" lon="-1.38447">
        <ele>60</ele>
        <time>2020-12-20T10:53:36.953000+00:00</time>
      </trkpt>
      <trkpt lat="0" lon="0">
        <time>2020-12-20T10:53:36.969000+00:00</time>
      </trkpt>
      <trkpt lat="0" lon="0">
        <time>2020-12-20T10:53:36.972000+00:00</time>
      </trkpt>
      <trkpt lat="0" lon="0">
        <time>2020-12-20T10:53:36.973000+00:00</time>
      </trkpt>
      <trkpt lat="47.29443" lon="-1.38446">
        <ele>60</ele>
        <time>2020-12-20T10:53:37.972000+00:00</time>
      </trkpt>
      <trkpt lat="0" lon="0">
        <time>2020-12-20T10:53:37.977000+00:00</time>
      </trkpt>
      <trkpt lat="0" lon="0">
        <time>2020-12-20T10:53:37.983000+00:00</time>
      </trkpt>
      <trkpt lat="0" lon="0">
        <time>2020-12-20T10:53:37.985000+00:00</time>
      </trkpt>
      <trkpt lat="47.29442" lon="-1.38445">
        <ele>60</ele>
        <time>2020-12-20T10:53:38.975000+00:00</time>
      </trkpt>
      <trkpt lat="0" lon="0">
        <time>2020-12-20T10:53:38.987000+00:00</time>
      </trkpt>
      <trkpt lat="0" lon="0">
        <time>2020-12-20T10:53:38.991000+00:00</time>
      </trkpt>
      <trkpt lat="0" lon="0">
        <time>2020-12-20T10:53:38.992000+00:00</time>
      </trkpt>
      <trkpt lat="47.29442" lon="-1.38444">
        <ele>60</ele>
        <time>2020-12-20T10:53:39.979000+00:00</time>
      </trkpt>
      <trkpt lat="0" lon="0">
        <time>2020-12-20T10:53:39.991000+00:00</time>
      </trkpt>
      <trkpt lat="0" lon="0">
        <time>2020-12-20T10:53:39.992000+00:00</time>
      </trkpt>
      <trkpt lat="0" lon="0">
        <time>2020-12-20T10:53:40.004000+00:00</time>
      </trkpt>
      <trkpt lat="47.2943" lon="-1.3848">
        <ele>60</ele>
        <time>2020-12-20T10:53:40.944000+00:00</time>
      </trkpt>
      <trkpt lat="0" lon="0">
        <time>2020-12-20T10:53:40.955000+00:00</time>
      </trkpt>
      <trkpt lat="0" lon="0">
        <time>2020-12-20T10:53:40.957000+00:00</time>
      </trkpt>
      <trkpt lat="0" lon="0">
        <time>2020-12-20T10:53:40.958000+00:00</time>
      </trkpt>
      <trkpt lat="47.29427" lon="-1.38487">
        <ele>61</ele>
        <time>2020-12-20T10:53:41.996000+00:00</time>
      </trkpt>
      <trkpt lat="0" lon="0">
        <time>2020-12-20T10:53:42+00:00</time>
      </trkpt>
      <trkpt lat="0" lon="0">
        <time>2020-12-20T10:53:42.004000+00:00</time>
      </trkpt>
      <trkpt lat="0" lon="0">
        <time>2020-12-20T10:53:42.007000+00:00</time>
      </trkpt>
      <trkpt lat="47.29424" lon="-1.38494">
        <ele>61</ele>
        <time>2020-12-20T10:53:42.992000+00:00</time>
      </trkpt>
      <trkpt lat="0" lon="0">
        <time>2020-12-20T10:53:43+00:00</time>
      </trkpt>
      <trkpt lat="0" lon="0">
        <time>2020-12-20T10:53:43.006000+00:00</time>
      </trkpt>
      <trkpt lat="0" lon="0">
        <time>2020-12-20T10:53:43.009000+00:00</time>
      </trkpt>
      <trkpt lat="47.29421" lon="-1.38501">
        <ele>62</ele>
        <time>2020-12-20T10:53:43.934000+00:00</time>
      </trkpt>
      <trkpt lat="0" lon="0">
        <time>2020-12-20T10:53:43.945000+00:00</time>
      </trkpt>
      <trkpt lat="0" lon="0">
        <time>2020-12-20T10:53:43.951000+00:00</time>
      </trkpt>
      <trkpt lat="0" lon="0">
        <time>2020-12-20T10:53:43.954000+00:00</time>
      </trkpt>
      <trkpt lat="47.29418" lon="-1.38508">
        <ele>62</ele>
        <time>2020-12-20T10:53:44.980000+00:00</time>
      </trkpt>
      <trkpt lat="0" lon="0">
        <time>2020-12-20T10:53:44.994000+00:00</time>
      </trkpt>
      <trkpt lat="0" lon="0">
        <time>2020-12-20T10:53:44.999000+00:00</time>
      </trkpt>
      <trkpt lat="0" lon="0">
        <time>2020-12-20T10:53:45.001000+00:00</time>
      </trkpt>
      <trkpt lat="47.29414" lon="-1.38516">
        <ele>63</ele>
        <time>2020-12-20T10:53:45.950000+00:00</time>
      </trkpt>
      <trkpt lat="0" lon="0">
        <time>2020-12-20T10:53:45.963000+00:00</time>
      </trkpt>
      <trkpt lat="0" lon="0">
        <time>2020-12-20T10:53:45.968000+00:00</time>
      </trkpt>
      <trkpt lat="0" lon="0">
        <time>2020-12-20T10:53:45.970000+00:00</time>
      </trkpt>
      <trkpt lat="47.29411" lon="-1.38524">
        <ele>62</ele>
        <time>2020-12-20T10:53:46.985000+00:00</time>
      </trkpt>
      <trkpt lat="0" lon="0">
        <time>2020-12-20T10:53:46.990000+00:00</time>
      </trkpt>
      <trkpt lat="0" lon="0">
        <time>2020-12-20T10:53:46.995000+00:00</time>
      </trkpt>
      <trkpt lat="0" lon="0">
        <time>2020-12-20T10:53:46.998000+00:00</time>
      </trkpt>
      <trkpt lat="47.29408" lon="-1.38532">
        <ele>63</ele>
        <time>2020-12-20T10:53:47.924000+00:00</time>
      </trkpt>
      <trkpt lat="0" lon="0">
        <time>2020-12-20T10:53:47.936000+00:00</time>
      </trkpt>
      <trkpt lat="0" lon="0">
        <time>2020-12-20T10:53:47.940000+00:00</time>
      </trkpt>
      <trkpt lat="0" lon="0">
        <time>2020-12-20T10:53:47.941000+00:00</time>
      </trkpt>
      <trkpt lat="47.29406" lon="-1.3854">
        <ele>63</ele>
        <time>2020-12-20T10:53:49.001000+00:00</time>
      </trkpt>
      <trkpt lat="0" lon="0">
        <time>2020-12-20T10:53:49.008000+00:00</time>
      </trkpt>
      <trkpt lat="0" lon="0">
        <time>2020-12-20T10:53:49.010000+00:00</time>
      </trkpt>
      <trkpt lat="0" lon="0">
        <time>2020-12-20T10:53:49.011000+00:00</time>
      </trkpt>
      <trkpt lat="47.29403" lon="-1.38548">
        <ele>63</ele>
        <time>2020-12-20T10:53:49.998000+00:00</time>
      </trkpt>
      <trkpt lat="0" lon="0">
        <time>2020-12-20T10:53:50.005000+00:00</time>
      </trkpt>
      <trkpt lat="0" lon="0">
        <time>2020-12-20T10:53:50.007000+00:00</time>
      </trkpt>
      <trkpt lat="0" lon="0">
        <time>2020-12-20T10:53:50.008000+00:00</time>
      </trkpt>
      <trkpt lat="47.29401" lon="-1.38556">
        <ele>64</ele>
        <time>2020-12-20T10:53:50.977000+00:00</time>
      </trkpt>
      <trkpt lat="0" lon="0">
        <time>2020-12-20T10:53:50.983000+00:00</time>
      </trkpt>
      <trkpt lat="0" lon="0">
        <time>2020-12-20T10:53:50.988000+00:00</time>
      </trkpt>
      <trkpt lat="0" lon="0">
        <time>2020-12-20T10:53:50.991000+00:00</time>
      </trkpt>
      <trkpt lat="47.29399" lon="-1.38564">
        <ele>64</ele>
        <time>2020-12-20T10:53:51.968000+00:00</time>
      </trkpt>
      <trkpt lat="0" lon="0">
        <time>2020-12-20T10:53:51.980000+00:00</time>
      </trkpt>
      <trkpt lat="0" lon="0">
        <time>2020-12-20T10:53:51.988000+00:00</time>
      </trkpt>
      <trkpt lat="0" lon="0">
        <time>2020-12-20T10:53:51.991000+00:00</time>
      </trkpt>
      <trkpt lat="47.29397" lon="-1.38571">
        <ele>64</ele>
        <time>2020-12-20T10:53:53.014000+00:00</time>
      </trkpt>
      <trkpt lat="0" lon="0">
        <time>2020-12-20T10:53:53.027000+00:00</time>
      </trkpt>
      <trkpt lat="0" lon="0">
        <time>2020-12-20T10:53:53.037000+00:00</time>
      </trkpt>
      <trkpt lat="0" lon="0">
        <time>2020-12-20T10:53:53.040000+00:00</time>
      </trkpt>
      <trkpt lat="47.29395" lon="-1.38579">
        <ele>65</ele>
        <time>2020-12-20T10:53:53.954000+00:00</time>
      </trkpt>
      <trkpt lat="0" lon="0">
        <time>2020-12-20T10:53:53.965000+00:00</time>
      </trkpt>
      <trkpt lat="0" lon="0">
        <time>2020-12-20T10:53:53.969000+00:00</time>
      </trkpt>
      <trkpt lat="0" lon="0">
        <time>2020-12-20T10:53:53.971000+00:00</time>
      </trkpt>
      <trkpt lat="47.29393" lon="-1.38586">
        <ele>65</ele>
        <time>2020-12-20T10:53:54.970000+00:00</time>
      </trkpt>
      <trkpt lat="0" lon="0">
        <time>2020-12-20T10:53:54.976000+00:00</time>
      </trkpt>
      <trkpt lat="0" lon="0">
        <time>2020-12-20T10:53:54.978000+00:00</time>
      </trkpt>
      <trkpt lat="0" lon="0">
        <time>2020-12-20T10:53:54.979000+00:00</time>
      </trkpt>
      <trkpt lat="47.29391" lon="-1.38594">
        <ele>65</ele>
        <time>2020-12-20T10:53:55.990000+00:00</time>
      </trkpt>
      <trkpt lat="0" lon="0">
        <time>2020-12-20T10:53:56.009000+00:00</time>
      </trkpt>
      <trkpt lat="0" lon="0">
        <time>2020-12-20T10:53:56.015000+00:00</time>
      </trkpt>
      <trkpt lat="0" lon="0">
        <time>2020-12-20T10:53:56.019000+00:00</time>
      </trkpt>
      <trkpt lat="47.29389" lon="-1.38601">
        <ele>65</ele>
        <time>2020-12-20T10:53:56.975000+00:00</time>
      </trkpt>
      <trkpt lat="0" lon="0">
        <time>2020-12-20T10:53:56.981000+00:00</time>
      </trkpt>
      <trkpt lat="0" lon="0">
        <time>2020-12-20T10:53:56.987000+00:00</time>
      </trkpt>
      <trkpt lat="0" lon="0">
        <time>2020-12-20T10:53:56.989000+00:00</time>
      </trkpt>
      <trkpt lat="47.29387" lon="-1.38608">
        <ele>65</ele>
        <time>2020-12-20T10:53:57.962000+00:00</time>
      </trkpt>
      <trkpt lat="0" lon="0">
        <time>2020-12-20T10:53:57.969000+00:00</time>
      </trkpt>
      <trkpt lat="0" lon="0">
        <time>2020-12-20T10:53:57.979000+00:00</time>
      </trkpt>
      <trkpt lat="0" lon="0">
        <time>2020-12-20T10:53:57.984000+00:00</time>
      </trkpt>
      <trkpt lat="47.29386" lon="-1.38615">
        <ele>65</ele>
        <time>2020-12-20T10:53:59.023000+00:00</time>
      </trkpt>
      <trkpt lat="0" lon="0">
        <time>2020-12-20T10:53:59.045000+00:00</time>
      </trkpt>
      <trkpt lat="0" lon="0">
        <time>2020-12-20T10:53:59.051000+00:00</time>
      </trkpt>
      <trkpt lat="0" lon="0">
        <time>2020-12-20T10:53:59.056000+00:00</time>
      </trkpt>
      <trkpt lat="47.29384" lon="-1.38622">
        <ele>65</ele>
        <time>2020-12-20T10:53:59.997000+00:00</time>
      </trkpt>
      <trkpt lat="0" lon="0">
        <time>2020-12-20T10:54:00.001000+00:00</time>
      </trkpt>
      <trkpt lat="0" lon="0">
        <time>2020-12-20T10:54:00.011000+00:00</time>
      </trkpt>
      <trkpt lat="0" lon="0">
        <time>2020-12-20T10:54:00.012000+00:00</time>
      </trkpt>
      <trkpt lat="47.29382" lon="-1.38629">
        <ele>66</ele>
        <time>2020-12-20T10:54:00.992000+00:00</time>
      </trkpt>
      <trkpt lat="0" lon="0">
        <time>2020-12-20T10:54:00.995000+00:00</time>
      </trkpt>
      <trkpt lat="0" lon="0">
        <time>2020-12-20T10:54:00.998000+00:00</time>
      </trkpt>
      <trkpt lat="0" lon="0">
        <time>2020-12-20T10:54:01.001000+00:00</time>
      </trkpt>
      <trkpt lat="47.2938" lon="-1.38636">
        <ele>65</ele>
        <time>2020-12-20T10:54:02.002000+00:00</time>
      </trkpt>
      <trkpt lat="0" lon="0">
        <time>2020-12-20T10:54:02.010000+00:00</time>
      </trkpt>
      <trkpt lat="0" lon="0">
        <time>2020-12-20T10:54:02.016000+00:00</time>
      </trkpt>
      <trkpt lat="0" lon="0">
        <time>2020-12-20T10:54:02.019000+00:00</time>
      </trkpt>
      <trkpt lat="47.29378" lon="-1.38643">
        <ele>65</ele>
        <time>2020-12-20T10:54:02.985000+00:00</time>
      </trkpt>
      <trkpt lat="0" lon="0">
        <time>2020-12-20T10:54:02.991000+00:00</time>
      </trkpt>
      <trkpt lat="0" lon="0">
        <time>2020-12-20T10:54:02.997000+00:00</time>
      </trkpt>
      <trkpt lat="0" lon="0">
        <time>2020-12-20T10:54:03.005000+00:00</time>
      </trkpt>
      <trkpt lat="47.29375" lon="-1.3865">
        <ele>65</ele>
        <time>2020-12-20T10:54:04.025000+00:00</time>
      </trkpt>
      <trkpt lat="0" lon="0">
        <time>2020-12-20T10:54:04.051000+00:00</time>
      </trkpt>
      <trkpt lat="0" lon="0">
        <time>2020-12-20T10:54:04.055000+00:00</time>
      </trkpt>
      <trkpt lat="0" lon="0">
        <time>2020-12-20T10:54:04.057000+00:00</time>
      </trkpt>
      <trkpt lat="47.29373" lon="-1.38656">
        <ele>65</ele>
        <time>2020-12-20T10:54:05.003000+00:00</time>
      </trkpt>
      <trkpt lat="0" lon="0">
        <time>2020-12-20T10:54:05.008000+00:00</time>
      </trkpt>
      <trkpt lat="0" lon="0">
        <time>2020-12-20T10:54:05.015000+00:00</time>
      </trkpt>
      <trkpt lat="0" lon="0">
        <time>2020-12-20T10:54:05.018000+00:00</time>
      </trkpt>
      <trkpt lat="47.29371" lon="-1.38663">
        <ele>65</ele>
        <time>2020-12-20T10:54:05.966000+00:00</time>
      </trkpt>
      <trkpt lat="0" lon="0">
        <time>2020-12-20T10:54:05.974000+00:00</time>
      </trkpt>
      <trkpt lat="0" lon="0">
        <time>2020-12-20T10:54:05.978000+00:00</time>
      </trkpt>
      <trkpt lat="0" lon="0">
        <time>2020-12-20T10:54:05.980000+00:00</time>
      </trkpt>
      <trkpt lat="47.29369" lon="-1.3867">
        <ele>66</ele>
        <time>2020-12-20T10:54:07.012000+00:00</time>
      </trkpt>
      <trkpt lat="0" lon="0">
        <time>2020-12-20T10:54:07.020000+00:00</time>
      </trkpt>
      <trkpt lat="0" lon="0">
        <time>2020-12-20T10:54:07.022000+00:00</time>
      </trkpt>
      <trkpt lat="0" lon="0">
        <time>2020-12-20T10:54:07.024000+00:00</time>
      </trkpt>
      <trkpt lat="47.29367" lon="-1.38677">
        <ele>66</ele>
        <time>2020-12-20T10:54:08.051000+00:00</time>
      </trkpt>
      <trkpt lat="0" lon="0">
        <time>2020-12-20T10:54:08.058000+00:00</time>
      </trkpt>
      <trkpt lat="0" lon="0">
        <time>2020-12-20T10:54:08.070000+00:00</time>
      </trkpt>
      <trkpt lat="0" lon="0">
        <time>2020-12-20T10:54:08.074000+00:00</time>
      </trkpt>
      <trkpt lat="47.29366" lon="-1.38683">
        <ele>66</ele>
        <time>2020-12-20T10:54:08.972000+00:00</time>
      </trkpt>
      <trkpt lat="0" lon="0">
        <time>2020-12-20T10:54:08.988000+00:00</time>
      </trkpt>
      <trkpt lat="0" lon="0">
        <time>2020-12-20T10:54:08.996000+00:00</time>
      </trkpt>
      <trkpt lat="0" lon="0">
        <time>2020-12-20T10:54:08.998000+00:00</time>
      </trkpt>
      <trkpt lat="47.29364" lon="-1.3869">
        <ele>66</ele>
        <time>2020-12-20T10:54:09.994000+00:00</time>
      </trkpt>
      <trkpt lat="0" lon="0">
        <time>2020-12-20T10:54:10.018000+00:00</time>
      </trkpt>
      <trkpt lat="0" lon="0">
        <time>2020-12-20T10:54:10.023000+00:00</time>
      </trkpt>
      <trkpt lat="0" lon="0">
        <time>2020-12-20T10:54:10.026000+00:00</time>
      </trkpt>
      <trkpt lat="47.29362" lon="-1.38697">
        <ele>65</ele>
        <time>2020-12-20T10:54:10.944000+00:00</time>
      </trkpt>
      <trkpt lat="0" lon="0">
        <time>2020-12-20T10:54:10.952000+00:00</time>
      </trkpt>
      <trkpt lat="0" lon="0">
        <time>2020-12-20T10:54:10.957000+00:00</time>
      </trkpt>
      <trkpt lat="0" lon="0">
        <time>2020-12-20T10:54:10.960000+00:00</time>
      </trkpt>
      <trkpt lat="47.2936" lon="-1.38703">
        <ele>65</ele>
        <time>2020-12-20T10:54:11.982000+00:00</time>
      </trkpt>
      <trkpt lat="0" lon="0">
        <time>2020-12-20T10:54:11.998000+00:00</time>
      </trkpt>
      <trkpt lat="0" lon="0">
        <time>2020-12-20T10:54:12.007000+00:00</time>
      </trkpt>
      <trkpt lat="0" lon="0">
        <time>2020-12-20T10:54:12.010000+00:00</time>
      </trkpt>
      <trkpt lat="47.29359" lon="-1.3871">
        <ele>65</ele>
        <time>2020-12-20T10:54:12.989000+00:00</time>
      </trkpt>
      <trkpt lat="0" lon="0">
        <time>2020-12-20T10:54:13.012000+00:00</time>
      </trkpt>
      <trkpt lat="0" lon="0">
        <time>2020-12-20T10:54:13.017000+00:00</time>
      </trkpt>
      <trkpt lat="0" lon="0">
        <time>2020-12-20T10:54:13.023000+00:00</time>
      </trkpt>
      <trkpt lat="47.29357" lon="-1.38716">
        <ele>65</ele>
        <time>2020-12-20T10:54:14.002000+00:00</time>
      </trkpt>
      <trkpt lat="0" lon="0">
        <time>2020-12-20T10:54:14.019000+00:00</time>
      </trkpt>
      <trkpt lat="0" lon="0">
        <time>2020-12-20T10:54:14.029000+00:00</time>
      </trkpt>
      <trkpt lat="0" lon="0">
        <time>2020-12-20T10:54:14.031000+00:00</time>
      </trkpt>
      <trkpt lat="47.29356" lon="-1.38723">
        <ele>65</ele>
        <time>2020-12-20T10:54:14.972000+00:00</time>
      </trkpt>
      <trkpt lat="0" lon="0">
        <time>2020-12-20T10:54:14.980000+00:00</time>
      </trkpt>
      <trkpt lat="0" lon="0">
        <time>2020-12-20T10:54:14.986000+00:00</time>
      </trkpt>
      <trkpt lat="0" lon="0">
        <time>2020-12-20T10:54:14.988000+00:00</time>
      </trkpt>
      <trkpt lat="47.29355" lon="-1.38729">
        <ele>65</ele>
        <time>2020-12-20T10:54:15.994000+00:00</time>
      </trkpt>
      <trkpt lat="0" lon="0">
        <time>2020-12-20T10:54:16.006000+00:00</time>
      </trkpt>
      <trkpt lat="0" lon="0">
        <time>2020-12-20T10:54:16.011000+00:00</time>
      </trkpt>
      <trkpt lat="0" lon="0">
        <time>2020-12-20T10:54:16.014000+00:00</time>
      </trkpt>
      <trkpt lat="47.29354" lon="-1.38734">
        <ele>64</ele>
        <time>2020-12-20T10:54:16.924000+00:00</time>
      </trkpt>
      <trkpt lat="0" lon="0">
        <time>2020-12-20T10:54:16.939000+00:00</time>
      </trkpt>
      <trkpt lat="0" lon="0">
        <time>2020-12-20T10:54:16.946000+00:00</time>
      </trkpt>
      <trkpt lat="0" lon="0">
        <time>2020-12-20T10:54:16.948000+00:00</time>
      </trkpt>
      <trkpt lat="47.29352" lon="-1.38738">
        <ele>64</ele>
        <time>2020-12-20T10:54:17.907000+00:00</time>
      </trkpt>
      <trkpt lat="0" lon="0">
        <time>2020-12-20T10:54:17.914000+00:00</time>
      </trkpt>
      <trkpt lat="0" lon="0">
        <time>2020-12-20T10:54:17.920000+00:00</time>
      </trkpt>
      <trkpt lat="0" lon="0">
        <time>2020-12-20T10:54:17.923000+00:00</time>
      </trkpt>
      <trkpt lat="47.29351" lon="-1.38741">
        <ele>64</ele>
        <time>2020-12-20T10:54:18.927000+00:00</time>
      </trkpt>
      <trkpt lat="0" lon="0">
        <time>2020-12-20T10:54:18.945000+00:00</time>
      </trkpt>
      <trkpt lat="0" lon="0">
        <time>2020-12-20T10:54:18.953000+00:00</time>
      </trkpt>
      <trkpt lat="0" lon="0">
        <time>2020-12-20T10:54:18.954000+00:00</time>
      </trkpt>
      <trkpt lat="47.29349" lon="-1.38742">
        <ele>64</ele>
        <time>2020-12-20T10:54:19.929000+00:00</time>
      </trkpt>
      <trkpt lat="0" lon="0">
        <time>2020-12-20T10:54:19.935000+00:00</time>
      </trkpt>
      <trkpt lat="0" lon="0">
        <time>2020-12-20T10:54:19.956000+00:00</time>
      </trkpt>
      <trkpt lat="0" lon="0">
        <time>2020-12-20T10:54:19.961000+00:00</time>
      </trkpt>
      <trkpt lat="47.29347" lon="-1.38742">
        <ele>64</ele>
        <time>2020-12-20T10:54:20.898000+00:00</time>
      </trkpt>
      <trkpt lat="0" lon="0">
        <time>2020-12-20T10:54:20.903000+00:00</time>
      </trkpt>
      <trkpt lat="0" lon="0">
        <time>2020-12-20T10:54:20.912000+00:00</time>
      </trkpt>
      <trkpt lat="0" lon="0">
        <time>2020-12-20T10:54:20.920000+00:00</time>
      </trkpt>
      <trkpt lat="47.29344" lon="-1.38741">
        <ele>64</ele>
        <time>2020-12-20T10:54:21.946000+00:00</time>
      </trkpt>
      <trkpt lat="0" lon="0">
        <time>2020-12-20T10:54:21.966000+00:00</time>
      </trkpt>
      <trkpt lat="0" lon="0">
        <time>2020-12-20T10:54:21.967000+00:00</time>
      </trkpt>
      <trkpt lat="0" lon="0">
        <time>2020-12-20T10:54:21.968000+00:00</time>
      </trkpt>
      <trkpt lat="47.29342" lon="-1.3874">
        <ele>64</ele>
        <time>2020-12-20T10:54:22.919000+00:00</time>
      </trkpt>
      <trkpt lat="0" lon="0">
        <time>2020-12-20T10:54:22.929000+00:00</time>
      </trkpt>
      <trkpt lat="0" lon="0">
        <time>2020-12-20T10:54:22.934000+00:00</time>
      </trkpt>
      <trkpt lat="0" lon="0">
        <time>2020-12-20T10:54:22.941000+00:00</time>
      </trkpt>
      <trkpt lat="47.29339" lon="-1.38737">
        <ele>64</ele>
        <time>2020-12-20T10:54:23.939000+00:00</time>
      </trkpt>
      <trkpt lat="0" lon="0">
        <time>2020-12-20T10:54:23.954000+00:00</time>
      </trkpt>
      <trkpt lat="0" lon="0">
        <time>2020-12-20T10:54:23.961000+00:00</time>
      </trkpt>
      <trkpt lat="0" lon="0">
        <time>2020-12-20T10:54:23.963000+00:00</time>
      </trkpt>
      <trkpt lat="47.29336" lon="-1.38734">
        <ele>64</ele>
        <time>2020-12-20T10:54:24.958000+00:00</time>
      </trkpt>
      <trkpt lat="0" lon="0">
        <time>2020-12-20T10:54:24.966000+00:00</time>
      </trkpt>
      <trkpt lat="0" lon="0">
        <time>2020-12-20T10:54:24.969000+00:00</time>
      </trkpt>
      <trkpt lat="0" lon="0">
        <time>2020-12-20T10:54:24.975000+00:00</time>
      </trkpt>
      <trkpt lat="47.29333" lon="-1.38731">
        <ele>64</ele>
        <time>2020-12-20T10:54:25.877000+00:00</time>
      </trkpt>
      <trkpt lat="0" lon="0">
        <time>2020-12-20T10:54:25.886000+00:00</time>
      </trkpt>
      <trkpt lat="0" lon="0">
        <time>2020-12-20T10:54:25.892000+00:00</time>
      </trkpt>
      <trkpt lat="0" lon="0">
        <time>2020-12-20T10:54:25.894000+00:00</time>
      </trkpt>
      <trkpt lat="47.29331" lon="-1.38727">
        <ele>64</ele>
        <time>2020-12-20T10:54:26.963000+00:00</time>
      </trkpt>
      <trkpt lat="0" lon="0">
        <time>2020-12-20T10:54:26.983000+00:00</time>
      </trkpt>
      <trkpt lat="0" lon="0">
        <time>2020-12-20T10:54:26.988000+00:00</time>
      </trkpt>
      <trkpt lat="0" lon="0">
        <time>2020-12-20T10:54:26.991000+00:00</time>
      </trkpt>
      <trkpt lat="47.29329" lon="-1.38723">
        <ele>63</ele>
        <time>2020-12-20T10:54:27.933000+00:00</time>
      </trkpt>
      <trkpt lat="0" lon="0">
        <time>2020-12-20T10:54:27.949000+00:00</time>
      </trkpt>
      <trkpt lat="0" lon="0">
        <time>2020-12-20T10:54:27.958000+00:00</time>
      </trkpt>
      <trkpt lat="0" lon="0">
        <time>2020-12-20T10:54:27.963000+00:00</time>
      </trkpt>
      <trkpt lat="47.29327" lon="-1.38718">
        <ele>63</ele>
        <time>2020-12-20T10:54:28.946000+00:00</time>
      </trkpt>
      <trkpt lat="0" lon="0">
        <time>2020-12-20T10:54:28.952000+00:00</time>
      </trkpt>
      <trkpt lat="0" lon="0">
        <time>2020-12-20T10:54:28.963000+00:00</time>
      </trkpt>
      <trkpt lat="0" lon="0">
        <time>2020-12-20T10:54:28.971000+00:00</time>
      </trkpt>
      <trkpt lat="47.29327" lon="-1.38712">
        <ele>63</ele>
        <time>2020-12-20T10:54:29.960000+00:00</time>
      </trkpt>
      <trkpt lat="0" lon="0">
        <time>2020-12-20T10:54:29.986000+00:00</time>
      </trkpt>
      <trkpt lat="0" lon="0">
        <time>2020-12-20T10:54:29.996000+00:00</time>
      </trkpt>
      <trkpt lat="0" lon="0">
        <time>2020-12-20T10:54:29.997000+00:00</time>
      </trkpt>
      <trkpt lat="47.29327" lon="-1.38706">
        <ele>62</ele>
        <time>2020-12-20T10:54:30.992000+00:00</time>
      </trkpt>
      <trkpt lat="0" lon="0">
        <time>2020-12-20T10:54:30.998000+00:00</time>
      </trkpt>
      <trkpt lat="0" lon="0">
        <time>2020-12-20T10:54:31.007000+00:00</time>
      </trkpt>
      <trkpt lat="0" lon="0">
        <time>2020-12-20T10:54:31.010000+00:00</time>
      </trkpt>
      <trkpt lat="47.29328" lon="-1.38699">
        <ele>62</ele>
        <time>2020-12-20T10:54:31.946000+00:00</time>
      </trkpt>
      <trkpt lat="0" lon="0">
        <time>2020-12-20T10:54:31.956000+00:00</time>
      </trkpt>
      <trkpt lat="0" lon="0">
        <time>2020-12-20T10:54:31.960000+00:00</time>
      </trkpt>
      <trkpt lat="0" lon="0">
        <time>2020-12-20T10:54:31.962000+00:00</time>
      </trkpt>
      <trkpt lat="47.2933" lon="-1.38692">
        <ele>61</ele>
        <time>2020-12-20T10:54:32.999000+00:00</time>
      </trkpt>
      <trkpt lat="0" lon="0">
        <time>2020-12-20T10:54:33.011000+00:00</time>
      </trkpt>
      <trkpt lat="0" lon="0">
        <time>2020-12-20T10:54:33.015000+00:00</time>
      </trkpt>
      <trkpt lat="0" lon="0">
        <time>2020-12-20T10:54:33.020000+00:00</time>
      </trkpt>
      <trkpt lat="47.29332" lon="-1.38684">
        <ele>61</ele>
        <time>2020-12-20T10:54:34.006000+00:00</time>
      </trkpt>
      <trkpt lat="0" lon="0">
        <time>2020-12-20T10:54:34.024000+00:00</time>
      </trkpt>
      <trkpt lat="0" lon="0">
        <time>2020-12-20T10:54:34.032000+00:00</time>
      </trkpt>
      <trkpt lat="0" lon="0">
        <time>2020-12-20T10:54:34.034000+00:00</time>
      </trkpt>
      <trkpt lat="47.29334" lon="-1.38677">
        <ele>61</ele>
        <time>2020-12-20T10:54:35.006000+00:00</time>
      </trkpt>
      <trkpt lat="0" lon="0">
        <time>2020-12-20T10:54:35.020000+00:00</time>
      </trkpt>
      <trkpt lat="0" lon="0">
        <time>2020-12-20T10:54:35.024000+00:00</time>
      </trkpt>
      <trkpt lat="0" lon="0">
        <time>2020-12-20T10:54:35.026000+00:00</time>
      </trkpt>
      <trkpt lat="47.29336" lon="-1.38671">
        <ele>61</ele>
        <time>2020-12-20T10:54:35.994000+00:00</time>
      </trkpt>
      <trkpt lat="0" lon="0">
        <time>2020-12-20T10:54:35.997000+00:00</time>
      </trkpt>
      <trkpt lat="0" lon="0">
        <time>2020-12-20T10:54:35.999000+00:00</time>
      </trkpt>
      <trkpt lat="0" lon="0">
        <time>2020-12-20T10:54:36+00:00</time>
      </trkpt>
      <trkpt lat="47.29338" lon="-1.38666">
        <ele>60</ele>
        <time>2020-12-20T10:54:36.993000+00:00</time>
      </trkpt>
      <trkpt lat="0" lon="0">
        <time>2020-12-20T10:54:37+00:00</time>
      </trkpt>
      <trkpt lat="0" lon="0">
        <time>2020-12-20T10:54:37.004000+00:00</time>
      </trkpt>
      <trkpt lat="0" lon="0">
        <time>2020-12-20T10:54:37.007000+00:00</time>
      </trkpt>
      <trkpt lat="47.2934" lon="-1.38661">
        <ele>59</ele>
        <time>2020-12-20T10:54:37.957000+00:00</time>
      </trkpt>
      <trkpt lat="0" lon="0">
        <time>2020-12-20T10:54:37.972000+00:00</time>
      </trkpt>
      <trkpt lat="0" lon="0">
        <time>2020-12-20T10:54:37.978000+00:00</time>
      </trkpt>
      <trkpt lat="0" lon="0">
        <time>2020-12-20T10:54:37.981000+00:00</time>
      </trkpt>
      <trkpt lat="47.29342" lon="-1.38657">
        <ele>58</ele>
        <time>2020-12-20T10:54:38.963000+00:00</time>
      </trkpt>
      <trkpt lat="0" lon="0">
        <time>2020-12-20T10:54:38.977000+00:00</time>
      </trkpt>
      <trkpt lat="0" lon="0">
        <time>2020-12-20T10:54:38.982000+00:00</time>
      </trkpt>
      <trkpt lat="0" lon="0">
        <time>2020-12-20T10:54:38.985000+00:00</time>
      </trkpt>
      <trkpt lat="47.29344" lon="-1.38654">
        <ele>57</ele>
        <time>2020-12-20T10:54:39.942000+00:00</time>
      </trkpt>
      <trkpt lat="0" lon="0">
        <time>2020-12-20T10:54:39.955000+00:00</time>
      </trkpt>
      <trkpt lat="0" lon="0">
        <time>2020-12-20T10:54:39.960000+00:00</time>
      </trkpt>
      <trkpt lat="0" lon="0">
        <time>2020-12-20T10:54:39.963000+00:00</time>
      </trkpt>
      <trkpt lat="47.29345" lon="-1.38652">
        <ele>57</ele>
        <time>2020-12-20T10:54:40.996000+00:00</time>
      </trkpt>
      <trkpt lat="0" lon="0">
        <time>2020-12-20T10:54:41.003000+00:00</time>
      </trkpt>
      <trkpt lat="0" lon="0">
        <time>2020-12-20T10:54:41.009000+00:00</time>
      </trkpt>
      <trkpt lat="0" lon="0">
        <time>2020-12-20T10:54:41.015000+00:00</time>
      </trkpt>
      <trkpt lat="47.29346" lon="-1.3865">
        <ele>57</ele>
        <time>2020-12-20T10:54:41.989000+00:00</time>
      </trkpt>
      <trkpt lat="0" lon="0">
        <time>2020-12-20T10:54:42.009000+00:00</time>
      </trkpt>
      <trkpt lat="0" lon="0">
        <time>2020-12-20T10:54:42.014000+00:00</time>
      </trkpt>
      <trkpt lat="0" lon="0">
        <time>2020-12-20T10:54:42.019000+00:00</time>
      </trkpt>
      <trkpt lat="47.29347" lon="-1.38649">
        <ele>57</ele>
        <time>2020-12-20T10:54:43.011000+00:00</time>
      </trkpt>
      <trkpt lat="0" lon="0">
        <time>2020-12-20T10:54:43.022000+00:00</time>
      </trkpt>
      <trkpt lat="0" lon="0">
        <time>2020-12-20T10:54:43.028000+00:00</time>
      </trkpt>
      <trkpt lat="0" lon="0">
        <time>2020-12-20T10:54:43.032000+00:00</time>
      </trkpt>
      <trkpt lat="47.29347" lon="-1.38648">
        <ele>57</ele>
        <time>2020-12-20T10:54:43.968000+00:00</time>
      </trkpt>
      <trkpt lat="0" lon="0">
        <time>2020-12-20T10:54:43.979000+00:00</time>
      </trkpt>
      <trkpt lat="0" lon="0">
        <time>2020-12-20T10:54:43.985000+00:00</time>
      </trkpt>
      <trkpt lat="0" lon="0">
        <time>2020-12-20T10:54:43.988000+00:00</time>
      </trkpt>
      <trkpt lat="47.29348" lon="-1.38648">
        <ele>57</ele>
        <time>2020-12-20T10:54:44.945000+00:00</time>
      </trkpt>
      <trkpt lat="0" lon="0">
        <time>2020-12-20T10:54:44.954000+00:00</time>
      </trkpt>
      <trkpt lat="0" lon="0">
        <time>2020-12-20T10:54:44.961000+00:00</time>
      </trkpt>
      <trkpt lat="0" lon="0">
        <time>2020-12-20T10:54:44.964000+00:00</time>
      </trkpt>
      <trkpt lat="47.29348" lon="-1.38648">
        <ele>57</ele>
        <time>2020-12-20T10:54:45.973000+00:00</time>
      </trkpt>
      <trkpt lat="0" lon="0">
        <time>2020-12-20T10:54:45.975000+00:00</time>
      </trkpt>
      <trkpt lat="0" lon="0">
        <time>2020-12-20T10:54:45.980000+00:00</time>
      </trkpt>
      <trkpt lat="0" lon="0">
        <time>2020-12-20T10:54:45.981000+00:00</time>
      </trkpt>
      <trkpt lat="47.29348" lon="-1.38649">
        <ele>57</ele>
        <time>2020-12-20T10:54:46.966000+00:00</time>
      </trkpt>
      <trkpt lat="0" lon="0">
        <time>2020-12-20T10:54:46.986000+00:00</time>
      </trkpt>
      <trkpt lat="0" lon="0">
        <time>2020-12-20T10:54:46.994000+00:00</time>
      </trkpt>
      <trkpt lat="0" lon="0">
        <time>2020-12-20T10:54:46.996000+00:00</time>
      </trkpt>
      <trkpt lat="47.29348" lon="-1.38649">
        <ele>57</ele>
        <time>2020-12-20T10:54:47.879000+00:00</time>
      </trkpt>
      <trkpt lat="0" lon="0">
        <time>2020-12-20T10:54:47.886000+00:00</time>
      </trkpt>
      <trkpt lat="0" lon="0">
        <time>2020-12-20T10:54:47.891000+00:00</time>
      </trkpt>
      <trkpt lat="0" lon="0">
        <time>2020-12-20T10:54:47.894000+00:00</time>
      </trkpt>
      <trkpt lat="47.29349" lon="-1.3865">
        <ele>57</ele>
        <time>2020-12-20T10:54:48.945000+00:00</time>
      </trkpt>
      <trkpt lat="0" lon="0">
        <time>2020-12-20T10:54:48.951000+00:00</time>
      </trkpt>
      <trkpt lat="0" lon="0">
        <time>2020-12-20T10:54:48.955000+00:00</time>
      </trkpt>
      <trkpt lat="0" lon="0">
        <time>2020-12-20T10:54:48.961000+00:00</time>
      </trkpt>
      <trkpt lat="47.29348" lon="-1.38651">
        <ele>57</ele>
        <time>2020-12-20T10:54:49.966000+00:00</time>
      </trkpt>
      <trkpt lat="0" lon="0">
        <time>2020-12-20T10:54:49.979000+00:00</time>
      </trkpt>
      <trkpt lat="0" lon="0">
        <time>2020-12-20T10:54:49.983000+00:00</time>
      </trkpt>
      <trkpt lat="0" lon="0">
        <time>2020-12-20T10:54:49.986000+00:00</time>
      </trkpt>
      <trkpt lat="47.29348" lon="-1.38652">
        <ele>57</ele>
        <time>2020-12-20T10:54:50.946000+00:00</time>
      </trkpt>
      <trkpt lat="0" lon="0">
        <time>2020-12-20T10:54:50.959000+00:00</time>
      </trkpt>
      <trkpt lat="0" lon="0">
        <time>2020-12-20T10:54:50.964000+00:00</time>
      </trkpt>
      <trkpt lat="0" lon="0">
        <time>2020-12-20T10:54:50.966000+00:00</time>
      </trkpt>
      <trkpt lat="47.29348" lon="-1.38652">
        <ele>57</ele>
        <time>2020-12-20T10:54:51.946000+00:00</time>
      </trkpt>
      <trkpt lat="0" lon="0">
        <time>2020-12-20T10:54:51.959000+00:00</time>
      </trkpt>
      <trkpt lat="0" lon="0">
        <time>2020-12-20T10:54:51.967000+00:00</time>
      </trkpt>
      <trkpt lat="0" lon="0">
        <time>2020-12-20T10:54:51.988000+00:00</time>
      </trkpt>
      <trkpt lat="47.29357" lon="-1.38625">
        <ele>48</ele>
        <time>2020-12-20T10:54:52.930000+00:00</time>
      </trkpt>
      <trkpt lat="0" lon="0">
        <time>2020-12-20T10:54:52.937000+00:00</time>
      </trkpt>
      <trkpt lat="0" lon="0">
        <time>2020-12-20T10:54:52.939000+00:00</time>
      </trkpt>
      <trkpt lat="47.29359" lon="-1.38618">
        <ele>49</ele>
        <time>2020-12-20T10:54:53.988000+00:00</time>
      </trkpt>
      <trkpt lat="0" lon="0">
        <time>2020-12-20T10:54:54.001000+00:00</time>
      </trkpt>
      <trkpt lat="0" lon="0">
        <time>2020-12-20T10:54:54.005000+00:00</time>
      </trkpt>
      <trkpt lat="0" lon="0">
        <time>2020-12-20T10:54:54.009000+00:00</time>
      </trkpt>
      <trkpt lat="47.2936" lon="-1.38612">
        <ele>50</ele>
        <time>2020-12-20T10:54:55.008000+00:00</time>
      </trkpt>
      <trkpt lat="0" lon="0">
        <time>2020-12-20T10:54:55.013000+00:00</time>
      </trkpt>
      <trkpt lat="0" lon="0">
        <time>2020-12-20T10:54:55.022000+00:00</time>
      </trkpt>
      <trkpt lat="0" lon="0">
        <time>2020-12-20T10:54:55.025000+00:00</time>
      </trkpt>
      <trkpt lat="47.29362" lon="-1.38605">
        <ele>50</ele>
        <time>2020-12-20T10:54:55.899000+00:00</time>
      </trkpt>
      <trkpt lat="0" lon="0">
        <time>2020-12-20T10:54:55.910000+00:00</time>
      </trkpt>
      <trkpt lat="0" lon="0">
        <time>2020-12-20T10:54:55.917000+00:00</time>
      </trkpt>
      <trkpt lat="0" lon="0">
        <time>2020-12-20T10:54:55.919000+00:00</time>
      </trkpt>
      <trkpt lat="47.29364" lon="-1.38598">
        <ele>51</ele>
        <time>2020-12-20T10:54:57.020000+00:00</time>
      </trkpt>
      <trkpt lat="0" lon="0">
        <time>2020-12-20T10:54:57.026000+00:00</time>
      </trkpt>
      <trkpt lat="0" lon="0">
        <time>2020-12-20T10:54:57.030000+00:00</time>
      </trkpt>
      <trkpt lat="0" lon="0">
        <time>2020-12-20T10:54:57.033000+00:00</time>
      </trkpt>
      <trkpt lat="47.29367" lon="-1.3859">
        <ele>51</ele>
        <time>2020-12-20T10:54:57.958000+00:00</time>
      </trkpt>
      <trkpt lat="0" lon="0">
        <time>2020-12-20T10:54:57.970000+00:00</time>
      </trkpt>
      <trkpt lat="0" lon="0">
        <time>2020-12-20T10:54:57.981000+00:00</time>
      </trkpt>
      <trkpt lat="0" lon="0">
        <time>2020-12-20T10:54:57.984000+00:00</time>
      </trkpt>
      <trkpt lat="47.29369" lon="-1.38583">
        <ele>51</ele>
        <time>2020-12-20T10:54:58.966000+00:00</time>
      </trkpt>
      <trkpt lat="0" lon="0">
        <time>2020-12-20T10:54:58.981000+00:00</time>
      </trkpt>
      <trkpt lat="0" lon="0">
        <time>2020-12-20T10:54:58.991000+00:00</time>
      </trkpt>
      <trkpt lat="0" lon="0">
        <time>2020-12-20T10:54:58.993000+00:00</time>
      </trkpt>
      <trkpt lat="47.29371" lon="-1.38576">
        <ele>51</ele>
        <time>2020-12-20T10:54:59.978000+00:00</time>
      </trkpt>
      <trkpt lat="0" lon="0">
        <time>2020-12-20T10:54:59.999000+00:00</time>
      </trkpt>
      <trkpt lat="0" lon="0">
        <time>2020-12-20T10:55:00.014000+00:00</time>
      </trkpt>
      <trkpt lat="0" lon="0">
        <time>2020-12-20T10:55:00.017000+00:00</time>
      </trkpt>
      <trkpt lat="47.29374" lon="-1.38568">
        <ele>51</ele>
        <time>2020-12-20T10:55:01.001000+00:00</time>
      </trkpt>
      <trkpt lat="0" lon="0">
        <time>2020-12-20T10:55:01.006000+00:00</time>
      </trkpt>
      <trkpt lat="0" lon="0">
        <time>2020-12-20T10:55:01.011000+00:00</time>
      </trkpt>
      <trkpt lat="0" lon="0">
        <time>2020-12-20T10:55:01.014000+00:00</time>
      </trkpt>
      <trkpt lat="47.29377" lon="-1.38561">
        <ele>51</ele>
        <time>2020-12-20T10:55:01.982000+00:00</time>
      </trkpt>
      <trkpt lat="0" lon="0">
        <time>2020-12-20T10:55:01.993000+00:00</time>
      </trkpt>
      <trkpt lat="0" lon="0">
        <time>2020-12-20T10:55:01.997000+00:00</time>
      </trkpt>
      <trkpt lat="0" lon="0">
        <time>2020-12-20T10:55:01.999000+00:00</time>
      </trkpt>
      <trkpt lat="47.29379" lon="-1.38554">
        <ele>51</ele>
        <time>2020-12-20T10:55:02.978000+00:00</time>
      </trkpt>
      <trkpt lat="0" lon="0">
        <time>2020-12-20T10:55:02.988000+00:00</time>
      </trkpt>
      <trkpt lat="0" lon="0">
        <time>2020-12-20T10:55:02.990000+00:00</time>
      </trkpt>
      <trkpt lat="0" lon="0">
        <time>2020-12-20T10:55:02.993000+00:00</time>
      </trkpt>
      <trkpt lat="47.29381" lon="-1.38547">
        <ele>51</ele>
        <time>2020-12-20T10:55:03.971000+00:00</time>
      </trkpt>
      <trkpt lat="0" lon="0">
        <time>2020-12-20T10:55:03.985000+00:00</time>
      </trkpt>
      <trkpt lat="0" lon="0">
        <time>2020-12-20T10:55:03.990000+00:00</time>
      </trkpt>
      <trkpt lat="0" lon="0">
        <time>2020-12-20T10:55:03.997000+00:00</time>
      </trkpt>
      <trkpt lat="47.29384" lon="-1.3854">
        <ele>51</ele>
        <time>2020-12-20T10:55:04.992000+00:00</time>
      </trkpt>
      <trkpt lat="0" lon="0">
        <time>2020-12-20T10:55:05.007000+00:00</time>
      </trkpt>
      <trkpt lat="0" lon="0">
        <time>2020-12-20T10:55:05.013000+00:00</time>
      </trkpt>
      <trkpt lat="0" lon="0">
        <time>2020-12-20T10:55:05.015000+00:00</time>
      </trkpt>
      <trkpt lat="47.29386" lon="-1.38533">
        <ele>52</ele>
        <time>2020-12-20T10:55:05.985000+00:00</time>
      </trkpt>
      <trkpt lat="0" lon="0">
        <time>2020-12-20T10:55:05.996000+00:00</time>
      </trkpt>
      <trkpt lat="0" lon="0">
        <time>2020-12-20T10:55:06.002000+00:00</time>
      </trkpt>
      <trkpt lat="0" lon="0">
        <time>2020-12-20T10:55:06.005000+00:00</time>
      </trkpt>
      <trkpt lat="47.29388" lon="-1.38526">
        <ele>52</ele>
        <time>2020-12-20T10:55:06.966000+00:00</time>
      </trkpt>
      <trkpt lat="0" lon="0">
        <time>2020-12-20T10:55:06.970000+00:00</time>
      </trkpt>
      <trkpt lat="0" lon="0">
        <time>2020-12-20T10:55:06.977000+00:00</time>
      </trkpt>
      <trkpt lat="0" lon="0">
        <time>2020-12-20T10:55:06.980000+00:00</time>
      </trkpt>
      <trkpt lat="47.29391" lon="-1.3852">
        <ele>52</ele>
        <time>2020-12-20T10:55:08.008000+00:00</time>
      </trkpt>
      <trkpt lat="0" lon="0">
        <time>2020-12-20T10:55:08.011000+00:00</time>
      </trkpt>
      <trkpt lat="0" lon="0">
        <time>2020-12-20T10:55:08.014000+00:00</time>
      </trkpt>
      <trkpt lat="0" lon="0">
        <time>2020-12-20T10:55:08.015000+00:00</time>
      </trkpt>
      <trkpt lat="47.29393" lon="-1.38513">
        <ele>52</ele>
        <time>2020-12-20T10:55:09.017000+00:00</time>
      </trkpt>
      <trkpt lat="0" lon="0">
        <time>2020-12-20T10:55:09.024000+00:00</time>
      </trkpt>
      <trkpt lat="0" lon="0">
        <time>2020-12-20T10:55:09.032000+00:00</time>
      </trkpt>
      <trkpt lat="0" lon="0">
        <time>2020-12-20T10:55:09.036000+00:00</time>
      </trkpt>
      <trkpt lat="47.29395" lon="-1.38507">
        <ele>52</ele>
        <time>2020-12-20T10:55:09.968000+00:00</time>
      </trkpt>
      <trkpt lat="0" lon="0">
        <time>2020-12-20T10:55:09.976000+00:00</time>
      </trkpt>
      <trkpt lat="0" lon="0">
        <time>2020-12-20T10:55:09.981000+00:00</time>
      </trkpt>
      <trkpt lat="0" lon="0">
        <time>2020-12-20T10:55:09.984000+00:00</time>
      </trkpt>
      <trkpt lat="47.29397" lon="-1.385">
        <ele>52</ele>
        <time>2020-12-20T10:55:10.953000+00:00</time>
      </trkpt>
      <trkpt lat="0" lon="0">
        <time>2020-12-20T10:55:10.960000+00:00</time>
      </trkpt>
      <trkpt lat="0" lon="0">
        <time>2020-12-20T10:55:10.970000+00:00</time>
      </trkpt>
      <trkpt lat="0" lon="0">
        <time>2020-12-20T10:55:10.973000+00:00</time>
      </trkpt>
      <trkpt lat="47.29398" lon="-1.38493">
        <ele>52</ele>
        <time>2020-12-20T10:55:11.983000+00:00</time>
      </trkpt>
      <trkpt lat="0" lon="0">
        <time>2020-12-20T10:55:11.995000+00:00</time>
      </trkpt>
      <trkpt lat="0" lon="0">
        <time>2020-12-20T10:55:12.001000+00:00</time>
      </trkpt>
      <trkpt lat="0" lon="0">
        <time>2020-12-20T10:55:12.004000+00:00</time>
      </trkpt>
      <trkpt lat="47.294" lon="-1.38487">
        <ele>52</ele>
        <time>2020-12-20T10:55:12.997000+00:00</time>
      </trkpt>
      <trkpt lat="0" lon="0">
        <time>2020-12-20T10:55:13.005000+00:00</time>
      </trkpt>
      <trkpt lat="0" lon="0">
        <time>2020-12-20T10:55:13.014000+00:00</time>
      </trkpt>
      <trkpt lat="0" lon="0">
        <time>2020-12-20T10:55:13.017000+00:00</time>
      </trkpt>
      <trkpt lat="47.29401" lon="-1.3848">
        <ele>51</ele>
        <time>2020-12-20T10:55:13.948000+00:00</time>
      </trkpt>
      <trkpt lat="0" lon="0">
        <time>2020-12-20T10:55:13.949000+00:00</time>
      </trkpt>
      <trkpt lat="0" lon="0">
        <time>2020-12-20T10:55:13.950000+00:00</time>
      </trkpt>
      <trkpt lat="0" lon="0">
        <time>2020-12-20T10:55:13.951000+00:00</time>
      </trkpt>
      <trkpt lat="47.29402" lon="-1.38472">
        <ele>51</ele>
        <time>2020-12-20T10:55:15.005000+00:00</time>
      </trkpt>
      <trkpt lat="0" lon="0">
        <time>2020-12-20T10:55:15.018000+00:00</time>
      </trkpt>
      <trkpt lat="0" lon="0">
        <time>2020-12-20T10:55:15.027000+00:00</time>
      </trkpt>
      <trkpt lat="0" lon="0">
        <time>2020-12-20T10:55:15.029000+00:00</time>
      </trkpt>
      <trkpt lat="47.29404" lon="-1.38464">
        <ele>50</ele>
        <time>2020-12-20T10:55:15.958000+00:00</time>
      </trkpt>
      <trkpt lat="0" lon="0">
        <time>2020-12-20T10:55:15.961000+00:00</time>
      </trkpt>
      <trkpt lat="0" lon="0">
        <time>2020-12-20T10:55:15.974000+00:00</time>
      </trkpt>
      <trkpt lat="0" lon="0">
        <time>2020-12-20T10:55:15.979000+00:00</time>
      </trkpt>
      <trkpt lat="47.29405" lon="-1.38456">
        <ele>50</ele>
        <time>2020-12-20T10:55:16.964000+00:00</time>
      </trkpt>
      <trkpt lat="0" lon="0">
        <time>2020-12-20T10:55:16.981000+00:00</time>
      </trkpt>
      <trkpt lat="0" lon="0">
        <time>2020-12-20T10:55:16.985000+00:00</time>
      </trkpt>
      <trkpt lat="0" lon="0">
        <time>2020-12-20T10:55:16.989000+00:00</time>
      </trkpt>
      <trkpt lat="47.29407" lon="-1.38447">
        <ele>49</ele>
        <time>2020-12-20T10:55:17.980000+00:00</time>
      </trkpt>
      <trkpt lat="0" lon="0">
        <time>2020-12-20T10:55:17.990000+00:00</time>
      </trkpt>
      <trkpt lat="0" lon="0">
        <time>2020-12-20T10:55:17.995000+00:00</time>
      </trkpt>
      <trkpt lat="0" lon="0">
        <time>2020-12-20T10:55:17.999000+00:00</time>
      </trkpt>
      <trkpt lat="47.29409" lon="-1.38438">
        <ele>50</ele>
        <time>2020-12-20T10:55:18.895000+00:00</time>
      </trkpt>
      <trkpt lat="0" lon="0">
        <time>2020-12-20T10:55:18.903000+00:00</time>
      </trkpt>
      <trkpt lat="0" lon="0">
        <time>2020-12-20T10:55:18.904000+00:00</time>
      </trkpt>
      <trkpt lat="0" lon="0">
        <time>2020-12-20T10:55:18.905000+00:00</time>
      </trkpt>
      <trkpt lat="47.29411" lon="-1.38428">
        <ele>49</ele>
        <time>2020-12-20T10:55:19.943000+00:00</time>
      </trkpt>
      <trkpt lat="0" lon="0">
        <time>2020-12-20T10:55:19.954000+00:00</time>
      </trkpt>
      <trkpt lat="0" lon="0">
        <time>2020-12-20T10:55:19.959000+00:00</time>
      </trkpt>
      <trkpt lat="0" lon="0">
        <time>2020-12-20T10:55:19.962000+00:00</time>
      </trkpt>
      <trkpt lat="47.29413" lon="-1.38418">
        <ele>49</ele>
        <time>2020-12-20T10:55:20.963000+00:00</time>
      </trkpt>
      <trkpt lat="0" lon="0">
        <time>2020-12-20T10:55:20.971000+00:00</time>
      </trkpt>
      <trkpt lat="0" lon="0">
        <time>2020-12-20T10:55:20.977000+00:00</time>
      </trkpt>
      <trkpt lat="0" lon="0">
        <time>2020-12-20T10:55:20.979000+00:00</time>
      </trkpt>
      <trkpt lat="47.29415" lon="-1.38408">
        <ele>49</ele>
        <time>2020-12-20T10:55:21.929000+00:00</time>
      </trkpt>
      <trkpt lat="0" lon="0">
        <time>2020-12-20T10:55:21.953000+00:00</time>
      </trkpt>
      <trkpt lat="0" lon="0">
        <time>2020-12-20T10:55:21.962000+00:00</time>
      </trkpt>
      <trkpt lat="0" lon="0">
        <time>2020-12-20T10:55:21.964000+00:00</time>
      </trkpt>
      <trkpt lat="47.29417" lon="-1.38398">
        <ele>49</ele>
        <time>2020-12-20T10:55:22.926000+00:00</time>
      </trkpt>
      <trkpt lat="0" lon="0">
        <time>2020-12-20T10:55:22.934000+00:00</time>
      </trkpt>
      <trkpt lat="0" lon="0">
        <time>2020-12-20T10:55:22.941000+00:00</time>
      </trkpt>
      <trkpt lat="0" lon="0">
        <time>2020-12-20T10:55:22.945000+00:00</time>
      </trkpt>
      <trkpt lat="47.29419" lon="-1.38388">
        <ele>49</ele>
        <time>2020-12-20T10:55:23.920000+00:00</time>
      </trkpt>
      <trkpt lat="0" lon="0">
        <time>2020-12-20T10:55:23.930000+00:00</time>
      </trkpt>
      <trkpt lat="0" lon="0">
        <time>2020-12-20T10:55:23.932000+00:00</time>
      </trkpt>
      <trkpt lat="0" lon="0">
        <time>2020-12-20T10:55:23.933000+00:00</time>
      </trkpt>
      <trkpt lat="47.2942" lon="-1.38377">
        <ele>49</ele>
        <time>2020-12-20T10:55:24.954000+00:00</time>
      </trkpt>
      <trkpt lat="0" lon="0">
        <time>2020-12-20T10:55:24.963000+00:00</time>
      </trkpt>
      <trkpt lat="0" lon="0">
        <time>2020-12-20T10:55:24.967000+00:00</time>
      </trkpt>
      <trkpt lat="0" lon="0">
        <time>2020-12-20T10:55:24.970000+00:00</time>
      </trkpt>
      <trkpt lat="47.29421" lon="-1.38367">
        <ele>49</ele>
        <time>2020-12-20T10:55:25.906000+00:00</time>
      </trkpt>
      <trkpt lat="0" lon="0">
        <time>2020-12-20T10:55:25.915000+00:00</time>
      </trkpt>
      <trkpt lat="0" lon="0">
        <time>2020-12-20T10:55:25.919000+00:00</time>
      </trkpt>
      <trkpt lat="0" lon="0">
        <time>2020-12-20T10:55:25.922000+00:00</time>
      </trkpt>
      <trkpt lat="47.29421" lon="-1.38356">
        <ele>49</ele>
        <time>2020-12-20T10:55:26.959000+00:00</time>
      </trkpt>
      <trkpt lat="0" lon="0">
        <time>2020-12-20T10:55:26.965000+00:00</time>
      </trkpt>
      <trkpt lat="0" lon="0">
        <time>2020-12-20T10:55:26.970000+00:00</time>
      </trkpt>
      <trkpt lat="0" lon="0">
        <time>2020-12-20T10:55:26.973000+00:00</time>
      </trkpt>
      <trkpt lat="47.29421" lon="-1.38346">
        <ele>49</ele>
        <time>2020-12-20T10:55:27.942000+00:00</time>
      </trkpt>
      <trkpt lat="0" lon="0">
        <time>2020-12-20T10:55:27.953000+00:00</time>
      </trkpt>
      <trkpt lat="0" lon="0">
        <time>2020-12-20T10:55:27.964000+00:00</time>
      </trkpt>
      <trkpt lat="0" lon="0">
        <time>2020-12-20T10:55:27.966000+00:00</time>
      </trkpt>
      <trkpt lat="47.29421" lon="-1.38336">
        <ele>49</ele>
        <time>2020-12-20T10:55:28.868000+00:00</time>
      </trkpt>
      <trkpt lat="0" lon="0">
        <time>2020-12-20T10:55:28.870000+00:00</time>
      </trkpt>
      <trkpt lat="0" lon="0">
        <time>2020-12-20T10:55:28.873000+00:00</time>
      </trkpt>
      <trkpt lat="0" lon="0">
        <time>2020-12-20T10:55:28.874000+00:00</time>
      </trkpt>
      <trkpt lat="47.2942" lon="-1.38325">
        <ele>49</ele>
        <time>2020-12-20T10:55:29.894000+00:00</time>
      </trkpt>
      <trkpt lat="0" lon="0">
        <time>2020-12-20T10:55:29.910000+00:00</time>
      </trkpt>
      <trkpt lat="0" lon="0">
        <time>2020-12-20T10:55:29.915000+00:00</time>
      </trkpt>
      <trkpt lat="0" lon="0">
        <time>2020-12-20T10:55:29.918000+00:00</time>
      </trkpt>
      <trkpt lat="47.2942" lon="-1.38316">
        <ele>49</ele>
        <time>2020-12-20T10:55:30.911000+00:00</time>
      </trkpt>
      <trkpt lat="0" lon="0">
        <time>2020-12-20T10:55:30.916000+00:00</time>
      </trkpt>
      <trkpt lat="0" lon="0">
        <time>2020-12-20T10:55:30.923000+00:00</time>
      </trkpt>
      <trkpt lat="0" lon="0">
        <time>2020-12-20T10:55:30.926000+00:00</time>
      </trkpt>
      <trkpt lat="47.2942" lon="-1.38306">
        <ele>49</ele>
        <time>2020-12-20T10:55:31.952000+00:00</time>
      </trkpt>
      <trkpt lat="0" lon="0">
        <time>2020-12-20T10:55:31.964000+00:00</time>
      </trkpt>
      <trkpt lat="0" lon="0">
        <time>2020-12-20T10:55:31.972000+00:00</time>
      </trkpt>
      <trkpt lat="0" lon="0">
        <time>2020-12-20T10:55:31.974000+00:00</time>
      </trkpt>
      <trkpt lat="47.2942" lon="-1.38297">
        <ele>50</ele>
        <time>2020-12-20T10:55:32.922000+00:00</time>
      </trkpt>
      <trkpt lat="0" lon="0">
        <time>2020-12-20T10:55:32.938000+00:00</time>
      </trkpt>
      <trkpt lat="0" lon="0">
        <time>2020-12-20T10:55:32.943000+00:00</time>
      </trkpt>
      <trkpt lat="0" lon="0">
        <time>2020-12-20T10:55:32.945000+00:00</time>
      </trkpt>
      <trkpt lat="47.29421" lon="-1.38289">
        <ele>50</ele>
        <time>2020-12-20T10:55:33.905000+00:00</time>
      </trkpt>
      <trkpt lat="0" lon="0">
        <time>2020-12-20T10:55:33.913000+00:00</time>
      </trkpt>
      <trkpt lat="0" lon="0">
        <time>2020-12-20T10:55:33.915000+00:00</time>
      </trkpt>
      <trkpt lat="0" lon="0">
        <time>2020-12-20T10:55:33.916000+00:00</time>
      </trkpt>
      <trkpt lat="47.29422" lon="-1.38283">
        <ele>50</ele>
        <time>2020-12-20T10:55:34.903000+00:00</time>
      </trkpt>
      <trkpt lat="0" lon="0">
        <time>2020-12-20T10:55:34.921000+00:00</time>
      </trkpt>
      <trkpt lat="0" lon="0">
        <time>2020-12-20T10:55:34.928000+00:00</time>
      </trkpt>
      <trkpt lat="0" lon="0">
        <time>2020-12-20T10:55:34.930000+00:00</time>
      </trkpt>
      <trkpt lat="47.29423" lon="-1.38277">
        <ele>50</ele>
        <time>2020-12-20T10:55:35.883000+00:00</time>
      </trkpt>
      <trkpt lat="0" lon="0">
        <time>2020-12-20T10:55:35.884000+00:00</time>
      </trkpt>
      <trkpt lat="0" lon="0">
        <time>2020-12-20T10:55:35.885000+00:00</time>
      </trkpt>
      <trkpt lat="0" lon="0">
        <time>2020-12-20T10:55:35.886000+00:00</time>
      </trkpt>
      <trkpt lat="47.29426" lon="-1.38272">
        <ele>50</ele>
        <time>2020-12-20T10:55:36.957000+00:00</time>
      </trkpt>
      <trkpt lat="0" lon="0">
        <time>2020-12-20T10:55:36.962000+00:00</time>
      </trkpt>
      <trkpt lat="0" lon="0">
        <time>2020-12-20T10:55:36.967000+00:00</time>
      </trkpt>
      <trkpt lat="0" lon="0">
        <time>2020-12-20T10:55:36.971000+00:00</time>
      </trkpt>
      <trkpt lat="47.29428" lon="-1.38268">
        <ele>50</ele>
        <time>2020-12-20T10:55:37.925000+00:00</time>
      </trkpt>
      <trkpt lat="0" lon="0">
        <time>2020-12-20T10:55:37.932000+00:00</time>
      </trkpt>
      <trkpt lat="0" lon="0">
        <time>2020-12-20T10:55:37.942000+00:00</time>
      </trkpt>
      <trkpt lat="0" lon="0">
        <time>2020-12-20T10:55:37.948000+00:00</time>
      </trkpt>
      <trkpt lat="47.29432" lon="-1.38266">
        <ele>51</ele>
        <time>2020-12-20T10:55:38.874000+00:00</time>
      </trkpt>
      <trkpt lat="0" lon="0">
        <time>2020-12-20T10:55:38.881000+00:00</time>
      </trkpt>
      <trkpt lat="0" lon="0">
        <time>2020-12-20T10:55:38.889000+00:00</time>
      </trkpt>
      <trkpt lat="0" lon="0">
        <time>2020-12-20T10:55:38.894000+00:00</time>
      </trkpt>
      <trkpt lat="47.29435" lon="-1.38264">
        <ele>51</ele>
        <time>2020-12-20T10:55:39.931000+00:00</time>
      </trkpt>
      <trkpt lat="0" lon="0">
        <time>2020-12-20T10:55:39.942000+00:00</time>
      </trkpt>
      <trkpt lat="0" lon="0">
        <time>2020-12-20T10:55:39.943000+00:00</time>
      </trkpt>
      <trkpt lat="0" lon="0">
        <time>2020-12-20T10:55:39.944000+00:00</time>
      </trkpt>
      <trkpt lat="47.29439" lon="-1.38263">
        <ele>50</ele>
        <time>2020-12-20T10:55:40.936000+00:00</time>
      </trkpt>
      <trkpt lat="0" lon="0">
        <time>2020-12-20T10:55:40.945000+00:00</time>
      </trkpt>
      <trkpt lat="0" lon="0">
        <time>2020-12-20T10:55:40.953000+00:00</time>
      </trkpt>
      <trkpt lat="0" lon="0">
        <time>2020-12-20T10:55:40.956000+00:00</time>
      </trkpt>
      <trkpt lat="47.29443" lon="-1.38263">
        <ele>51</ele>
        <time>2020-12-20T10:55:41.824000+00:00</time>
      </trkpt>
      <trkpt lat="0" lon="0">
        <time>2020-12-20T10:55:41.825000+00:00</time>
      </trkpt>
      <trkpt lat="0" lon="0">
        <time>2020-12-20T10:55:41.827000+00:00</time>
      </trkpt>
      <trkpt lat="0" lon="0">
        <time>2020-12-20T10:55:41.828000+00:00</time>
      </trkpt>
      <trkpt lat="47.29447" lon="-1.38263">
        <ele>52</ele>
        <time>2020-12-20T10:55:42.834000+00:00</time>
      </trkpt>
      <trkpt lat="0" lon="0">
        <time>2020-12-20T10:55:42.836000+00:00</time>
      </trkpt>
      <trkpt lat="0" lon="0">
        <time>2020-12-20T10:55:42.838000+00:00</time>
      </trkpt>
      <trkpt lat="47.29451" lon="-1.38263">
        <ele>52</ele>
        <time>2020-12-20T10:55:43.814000+00:00</time>
      </trkpt>
      <trkpt lat="0" lon="0">
        <time>2020-12-20T10:55:43.815000+00:00</time>
      </trkpt>
      <trkpt lat="0" lon="0">
        <time>2020-12-20T10:55:43.817000+00:00</time>
      </trkpt>
      <trkpt lat="0" lon="0">
        <time>2020-12-20T10:55:43.818000+00:00</time>
      </trkpt>
      <trkpt lat="47.29455" lon="-1.38263">
        <ele>53</ele>
        <time>2020-12-20T10:55:44.837000+00:00</time>
      </trkpt>
      <trkpt lat="0" lon="0">
        <time>2020-12-20T10:55:44.838000+00:00</time>
      </trkpt>
      <trkpt lat="0" lon="0">
        <time>2020-12-20T10:55:44.841000+00:00</time>
      </trkpt>
      <trkpt lat="0" lon="0">
        <time>2020-12-20T10:55:44.842000+00:00</time>
      </trkpt>
      <trkpt lat="47.29459" lon="-1.38263">
        <ele>53</ele>
        <time>2020-12-20T10:55:45.825000+00:00</time>
      </trkpt>
      <trkpt lat="0" lon="0">
        <time>2020-12-20T10:55:45.826000+00:00</time>
      </trkpt>
      <trkpt lat="0" lon="0">
        <time>2020-12-20T10:55:45.829000+00:00</time>
      </trkpt>
      <trkpt lat="47.29463" lon="-1.38263">
        <ele>53</ele>
        <time>2020-12-20T10:55:46.821000+00:00</time>
      </trkpt>
      <trkpt lat="0" lon="0">
        <time>2020-12-20T10:55:46.829000+00:00</time>
      </trkpt>
      <trkpt lat="0" lon="0">
        <time>2020-12-20T10:55:46.832000+00:00</time>
      </trkpt>
      <trkpt lat="0" lon="0">
        <time>2020-12-20T10:55:46.833000+00:00</time>
      </trkpt>
      <trkpt lat="47.29467" lon="-1.38262">
        <ele>53</ele>
        <time>2020-12-20T10:55:47.914000+00:00</time>
      </trkpt>
      <trkpt lat="0" lon="0">
        <time>2020-12-20T10:55:47.935000+00:00</time>
      </trkpt>
      <trkpt lat="0" lon="0">
        <time>2020-12-20T10:55:47.942000+00:00</time>
      </trkpt>
      <trkpt lat="0" lon="0">
        <time>2020-12-20T10:55:47.943000+00:00</time>
      </trkpt>
      <trkpt lat="47.2947" lon="-1.38259">
        <ele>53</ele>
        <time>2020-12-20T10:55:48.902000+00:00</time>
      </trkpt>
      <trkpt lat="0" lon="0">
        <time>2020-12-20T10:55:48.913000+00:00</time>
      </trkpt>
      <trkpt lat="0" lon="0">
        <time>2020-12-20T10:55:48.923000+00:00</time>
      </trkpt>
      <trkpt lat="0" lon="0">
        <time>2020-12-20T10:55:48.930000+00:00</time>
      </trkpt>
      <trkpt lat="47.29473" lon="-1.38256">
        <ele>53</ele>
        <time>2020-12-20T10:55:49.897000+00:00</time>
      </trkpt>
      <trkpt lat="0" lon="0">
        <time>2020-12-20T10:55:49.898000+00:00</time>
      </trkpt>
      <trkpt lat="0" lon="0">
        <time>2020-12-20T10:55:49.899000+00:00</time>
      </trkpt>
      <trkpt lat="0" lon="0">
        <time>2020-12-20T10:55:49.900000+00:00</time>
      </trkpt>
      <trkpt lat="47.29475" lon="-1.38252">
        <ele>53</ele>
        <time>2020-12-20T10:55:50.990000+00:00</time>
      </trkpt>
      <trkpt lat="0" lon="0">
        <time>2020-12-20T10:55:50.994000+00:00</time>
      </trkpt>
      <trkpt lat="0" lon="0">
        <time>2020-12-20T10:55:51.001000+00:00</time>
      </trkpt>
      <trkpt lat="0" lon="0">
        <time>2020-12-20T10:55:51.004000+00:00</time>
      </trkpt>
      <trkpt lat="47.29478" lon="-1.38247">
        <ele>53</ele>
        <time>2020-12-20T10:55:51.887000+00:00</time>
      </trkpt>
      <trkpt lat="0" lon="0">
        <time>2020-12-20T10:55:51.891000+00:00</time>
      </trkpt>
      <trkpt lat="0" lon="0">
        <time>2020-12-20T10:55:51.899000+00:00</time>
      </trkpt>
      <trkpt lat="0" lon="0">
        <time>2020-12-20T10:55:51.901000+00:00</time>
      </trkpt>
      <trkpt lat="47.2948" lon="-1.38242">
        <ele>53</ele>
        <time>2020-12-20T10:55:52.944000+00:00</time>
      </trkpt>
      <trkpt lat="0" lon="0">
        <time>2020-12-20T10:55:52.952000+00:00</time>
      </trkpt>
      <trkpt lat="0" lon="0">
        <time>2020-12-20T10:55:52.956000+00:00</time>
      </trkpt>
      <trkpt lat="0" lon="0">
        <time>2020-12-20T10:55:52.961000+00:00</time>
      </trkpt>
      <trkpt lat="47.29482" lon="-1.38236">
        <ele>52</ele>
        <time>2020-12-20T10:55:53.945000+00:00</time>
      </trkpt>
      <trkpt lat="0" lon="0">
        <time>2020-12-20T10:55:53.958000+00:00</time>
      </trkpt>
      <trkpt lat="0" lon="0">
        <time>2020-12-20T10:55:53.963000+00:00</time>
      </trkpt>
      <trkpt lat="0" lon="0">
        <time>2020-12-20T10:55:53.966000+00:00</time>
      </trkpt>
      <trkpt lat="47.29484" lon="-1.3823">
        <ele>52</ele>
        <time>2020-12-20T10:55:54.917000+00:00</time>
      </trkpt>
      <trkpt lat="0" lon="0">
        <time>2020-12-20T10:55:54.927000+00:00</time>
      </trkpt>
      <trkpt lat="0" lon="0">
        <time>2020-12-20T10:55:54.929000+00:00</time>
      </trkpt>
      <trkpt lat="0" lon="0">
        <time>2020-12-20T10:55:54.931000+00:00</time>
      </trkpt>
      <trkpt lat="47.29486" lon="-1.38224">
        <ele>53</ele>
        <time>2020-12-20T10:55:55.978000+00:00</time>
      </trkpt>
      <trkpt lat="0" lon="0">
        <time>2020-12-20T10:55:55.984000+00:00</time>
      </trkpt>
      <trkpt lat="0" lon="0">
        <time>2020-12-20T10:55:55.987000+00:00</time>
      </trkpt>
      <trkpt lat="0" lon="0">
        <time>2020-12-20T10:55:55.989000+00:00</time>
      </trkpt>
      <trkpt lat="47.29487" lon="-1.38217">
        <ele>53</ele>
        <time>2020-12-20T10:55:56.961000+00:00</time>
      </trkpt>
      <trkpt lat="0" lon="0">
        <time>2020-12-20T10:55:56.978000+00:00</time>
      </trkpt>
      <trkpt lat="0" lon="0">
        <time>2020-12-20T10:55:56.981000+00:00</time>
      </trkpt>
      <trkpt lat="0" lon="0">
        <time>2020-12-20T10:55:56.983000+00:00</time>
      </trkpt>
      <trkpt lat="47.29489" lon="-1.38211">
        <ele>53</ele>
        <time>2020-12-20T10:55:57.907000+00:00</time>
      </trkpt>
      <trkpt lat="0" lon="0">
        <time>2020-12-20T10:55:57.911000+00:00</time>
      </trkpt>
      <trkpt lat="0" lon="0">
        <time>2020-12-20T10:55:57.920000+00:00</time>
      </trkpt>
      <trkpt lat="0" lon="0">
        <time>2020-12-20T10:55:57.921000+00:00</time>
      </trkpt>
      <trkpt lat="47.29491" lon="-1.38203">
        <ele>53</ele>
        <time>2020-12-20T10:55:58.920000+00:00</time>
      </trkpt>
      <trkpt lat="0" lon="0">
        <time>2020-12-20T10:55:58.936000+00:00</time>
      </trkpt>
      <trkpt lat="0" lon="0">
        <time>2020-12-20T10:55:58.939000+00:00</time>
      </trkpt>
      <trkpt lat="0" lon="0">
        <time>2020-12-20T10:55:58.940000+00:00</time>
      </trkpt>
      <trkpt lat="47.29493" lon="-1.38196">
        <ele>54</ele>
        <time>2020-12-20T10:55:59.937000+00:00</time>
      </trkpt>
      <trkpt lat="0" lon="0">
        <time>2020-12-20T10:55:59.943000+00:00</time>
      </trkpt>
      <trkpt lat="0" lon="0">
        <time>2020-12-20T10:55:59.947000+00:00</time>
      </trkpt>
      <trkpt lat="0" lon="0">
        <time>2020-12-20T10:55:59.952000+00:00</time>
      </trkpt>
      <trkpt lat="47.29494" lon="-1.38189">
        <ele>54</ele>
        <time>2020-12-20T10:56:00.998000+00:00</time>
      </trkpt>
      <trkpt lat="0" lon="0">
        <time>2020-12-20T10:56:01.012000+00:00</time>
      </trkpt>
      <trkpt lat="0" lon="0">
        <time>2020-12-20T10:56:01.017000+00:00</time>
      </trkpt>
      <trkpt lat="0" lon="0">
        <time>2020-12-20T10:56:01.021000+00:00</time>
      </trkpt>
      <trkpt lat="47.29496" lon="-1.38182">
        <ele>54</ele>
        <time>2020-12-20T10:56:01.969000+00:00</time>
      </trkpt>
      <trkpt lat="0" lon="0">
        <time>2020-12-20T10:56:01.974000+00:00</time>
      </trkpt>
      <trkpt lat="0" lon="0">
        <time>2020-12-20T10:56:01.976000+00:00</time>
      </trkpt>
      <trkpt lat="0" lon="0">
        <time>2020-12-20T10:56:01.977000+00:00</time>
      </trkpt>
      <trkpt lat="47.29498" lon="-1.38174">
        <ele>54</ele>
        <time>2020-12-20T10:56:02.918000+00:00</time>
      </trkpt>
      <trkpt lat="0" lon="0">
        <time>2020-12-20T10:56:02.925000+00:00</time>
      </trkpt>
      <trkpt lat="0" lon="0">
        <time>2020-12-20T10:56:02.927000+00:00</time>
      </trkpt>
      <trkpt lat="0" lon="0">
        <time>2020-12-20T10:56:02.928000+00:00</time>
      </trkpt>
      <trkpt lat="47.29499" lon="-1.38166">
        <ele>54</ele>
        <time>2020-12-20T10:56:03.905000+00:00</time>
      </trkpt>
      <trkpt lat="0" lon="0">
        <time>2020-12-20T10:56:03.911000+00:00</time>
      </trkpt>
      <trkpt lat="0" lon="0">
        <time>2020-12-20T10:56:03.917000+00:00</time>
      </trkpt>
      <trkpt lat="0" lon="0">
        <time>2020-12-20T10:56:03.920000+00:00</time>
      </trkpt>
      <trkpt lat="47.29501" lon="-1.38158">
        <ele>54</ele>
        <time>2020-12-20T10:56:04.970000+00:00</time>
      </trkpt>
      <trkpt lat="0" lon="0">
        <time>2020-12-20T10:56:04.980000+00:00</time>
      </trkpt>
      <trkpt lat="0" lon="0">
        <time>2020-12-20T10:56:04.989000+00:00</time>
      </trkpt>
      <trkpt lat="0" lon="0">
        <time>2020-12-20T10:56:04.995000+00:00</time>
      </trkpt>
      <trkpt lat="47.29503" lon="-1.3815">
        <ele>54</ele>
        <time>2020-12-20T10:56:05.994000+00:00</time>
      </trkpt>
      <trkpt lat="0" lon="0">
        <time>2020-12-20T10:56:06.016000+00:00</time>
      </trkpt>
      <trkpt lat="0" lon="0">
        <time>2020-12-20T10:56:06.029000+00:00</time>
      </trkpt>
      <trkpt lat="0" lon="0">
        <time>2020-12-20T10:56:06.037000+00:00</time>
      </trkpt>
      <trkpt lat="47.29505" lon="-1.38142">
        <ele>54</ele>
        <time>2020-12-20T10:56:06.975000+00:00</time>
      </trkpt>
      <trkpt lat="0" lon="0">
        <time>2020-12-20T10:56:06.983000+00:00</time>
      </trkpt>
      <trkpt lat="0" lon="0">
        <time>2020-12-20T10:56:06.987000+00:00</time>
      </trkpt>
      <trkpt lat="0" lon="0">
        <time>2020-12-20T10:56:06.990000+00:00</time>
      </trkpt>
      <trkpt lat="47.29507" lon="-1.38134">
        <ele>54</ele>
        <time>2020-12-20T10:56:07.918000+00:00</time>
      </trkpt>
      <trkpt lat="0" lon="0">
        <time>2020-12-20T10:56:07.926000+00:00</time>
      </trkpt>
      <trkpt lat="0" lon="0">
        <time>2020-12-20T10:56:07.937000+00:00</time>
      </trkpt>
      <trkpt lat="0" lon="0">
        <time>2020-12-20T10:56:07.943000+00:00</time>
      </trkpt>
      <trkpt lat="47.29509" lon="-1.38126">
        <ele>54</ele>
        <time>2020-12-20T10:56:08.995000+00:00</time>
      </trkpt>
      <trkpt lat="0" lon="0">
        <time>2020-12-20T10:56:09.005000+00:00</time>
      </trkpt>
      <trkpt lat="0" lon="0">
        <time>2020-12-20T10:56:09.010000+00:00</time>
      </trkpt>
      <trkpt lat="0" lon="0">
        <time>2020-12-20T10:56:09.013000+00:00</time>
      </trkpt>
      <trkpt lat="47.29511" lon="-1.38118">
        <ele>54</ele>
        <time>2020-12-20T10:56:09.934000+00:00</time>
      </trkpt>
      <trkpt lat="0" lon="0">
        <time>2020-12-20T10:56:09.945000+00:00</time>
      </trkpt>
      <trkpt lat="0" lon="0">
        <time>2020-12-20T10:56:09.952000+00:00</time>
      </trkpt>
      <trkpt lat="0" lon="0">
        <time>2020-12-20T10:56:09.955000+00:00</time>
      </trkpt>
      <trkpt lat="47.29513" lon="-1.38109">
        <ele>54</ele>
        <time>2020-12-20T10:56:10.983000+00:00</time>
      </trkpt>
      <trkpt lat="0" lon="0">
        <time>2020-12-20T10:56:10.986000+00:00</time>
      </trkpt>
      <trkpt lat="0" lon="0">
        <time>2020-12-20T10:56:10.989000+00:00</time>
      </trkpt>
      <trkpt lat="0" lon="0">
        <time>2020-12-20T10:56:10.990000+00:00</time>
      </trkpt>
      <trkpt lat="47.29515" lon="-1.38101">
        <ele>54</ele>
        <time>2020-12-20T10:56:12.003000+00:00</time>
      </trkpt>
      <trkpt lat="0" lon="0">
        <time>2020-12-20T10:56:12.022000+00:00</time>
      </trkpt>
      <trkpt lat="0" lon="0">
        <time>2020-12-20T10:56:12.033000+00:00</time>
      </trkpt>
      <trkpt lat="0" lon="0">
        <time>2020-12-20T10:56:12.035000+00:00</time>
      </trkpt>
      <trkpt lat="47.29517" lon="-1.38093">
        <ele>54</ele>
        <time>2020-12-20T10:56:13.021000+00:00</time>
      </trkpt>
      <trkpt lat="0" lon="0">
        <time>2020-12-20T10:56:13.028000+00:00</time>
      </trkpt>
      <trkpt lat="0" lon="0">
        <time>2020-12-20T10:56:13.035000+00:00</time>
      </trkpt>
      <trkpt lat="0" lon="0">
        <time>2020-12-20T10:56:13.040000+00:00</time>
      </trkpt>
      <trkpt lat="47.2952" lon="-1.38084">
        <ele>54</ele>
        <time>2020-12-20T10:56:13.998000+00:00</time>
      </trkpt>
      <trkpt lat="0" lon="0">
        <time>2020-12-20T10:56:14.010000+00:00</time>
      </trkpt>
      <trkpt lat="0" lon="0">
        <time>2020-12-20T10:56:14.014000+00:00</time>
      </trkpt>
      <trkpt lat="0" lon="0">
        <time>2020-12-20T10:56:14.017000+00:00</time>
      </trkpt>
      <trkpt lat="47.29522" lon="-1.38076">
        <ele>54</ele>
        <time>2020-12-20T10:56:14.972000+00:00</time>
      </trkpt>
      <trkpt lat="0" lon="0">
        <time>2020-12-20T10:56:14.980000+00:00</time>
      </trkpt>
      <trkpt lat="0" lon="0">
        <time>2020-12-20T10:56:14.989000+00:00</time>
      </trkpt>
      <trkpt lat="0" lon="0">
        <time>2020-12-20T10:56:14.993000+00:00</time>
      </trkpt>
      <trkpt lat="47.29524" lon="-1.38067">
        <ele>54</ele>
        <time>2020-12-20T10:56:15.922000+00:00</time>
      </trkpt>
      <trkpt lat="0" lon="0">
        <time>2020-12-20T10:56:15.940000+00:00</time>
      </trkpt>
      <trkpt lat="0" lon="0">
        <time>2020-12-20T10:56:15.946000+00:00</time>
      </trkpt>
      <trkpt lat="0" lon="0">
        <time>2020-12-20T10:56:15.951000+00:00</time>
      </trkpt>
      <trkpt lat="47.29526" lon="-1.38059">
        <ele>54</ele>
        <time>2020-12-20T10:56:16.961000+00:00</time>
      </trkpt>
      <trkpt lat="0" lon="0">
        <time>2020-12-20T10:56:16.966000+00:00</time>
      </trkpt>
      <trkpt lat="0" lon="0">
        <time>2020-12-20T10:56:16.974000+00:00</time>
      </trkpt>
      <trkpt lat="0" lon="0">
        <time>2020-12-20T10:56:16.982000+00:00</time>
      </trkpt>
      <trkpt lat="47.29529" lon="-1.3805">
        <ele>53</ele>
        <time>2020-12-20T10:56:17.989000+00:00</time>
      </trkpt>
      <trkpt lat="0" lon="0">
        <time>2020-12-20T10:56:18.012000+00:00</time>
      </trkpt>
      <trkpt lat="0" lon="0">
        <time>2020-12-20T10:56:18.016000+00:00</time>
      </trkpt>
      <trkpt lat="0" lon="0">
        <time>2020-12-20T10:56:18.022000+00:00</time>
      </trkpt>
      <trkpt lat="47.29532" lon="-1.38041">
        <ele>53</ele>
        <time>2020-12-20T10:56:18.934000+00:00</time>
      </trkpt>
      <trkpt lat="0" lon="0">
        <time>2020-12-20T10:56:18.938000+00:00</time>
      </trkpt>
      <trkpt lat="0" lon="0">
        <time>2020-12-20T10:56:18.940000+00:00</time>
      </trkpt>
      <trkpt lat="0" lon="0">
        <time>2020-12-20T10:56:18.941000+00:00</time>
      </trkpt>
      <trkpt lat="47.29534" lon="-1.38033">
        <ele>52</ele>
        <time>2020-12-20T10:56:19.965000+00:00</time>
      </trkpt>
      <trkpt lat="0" lon="0">
        <time>2020-12-20T10:56:19.982000+00:00</time>
      </trkpt>
      <trkpt lat="0" lon="0">
        <time>2020-12-20T10:56:19.991000+00:00</time>
      </trkpt>
      <trkpt lat="0" lon="0">
        <time>2020-12-20T10:56:19.994000+00:00</time>
      </trkpt>
      <trkpt lat="47.29537" lon="-1.38024">
        <ele>52</ele>
        <time>2020-12-20T10:56:20.946000+00:00</time>
      </trkpt>
      <trkpt lat="0" lon="0">
        <time>2020-12-20T10:56:20.958000+00:00</time>
      </trkpt>
      <trkpt lat="0" lon="0">
        <time>2020-12-20T10:56:20.962000+00:00</time>
      </trkpt>
      <trkpt lat="0" lon="0">
        <time>2020-12-20T10:56:20.966000+00:00</time>
      </trkpt>
      <trkpt lat="47.2954" lon="-1.38016">
        <ele>52</ele>
        <time>2020-12-20T10:56:21.930000+00:00</time>
      </trkpt>
      <trkpt lat="0" lon="0">
        <time>2020-12-20T10:56:21.955000+00:00</time>
      </trkpt>
      <trkpt lat="0" lon="0">
        <time>2020-12-20T10:56:21.968000+00:00</time>
      </trkpt>
      <trkpt lat="0" lon="0">
        <time>2020-12-20T10:56:21.970000+00:00</time>
      </trkpt>
      <trkpt lat="47.29543" lon="-1.38007">
        <ele>51</ele>
        <time>2020-12-20T10:56:22.949000+00:00</time>
      </trkpt>
      <trkpt lat="0" lon="0">
        <time>2020-12-20T10:56:22.966000+00:00</time>
      </trkpt>
      <trkpt lat="0" lon="0">
        <time>2020-12-20T10:56:22.975000+00:00</time>
      </trkpt>
      <trkpt lat="0" lon="0">
        <time>2020-12-20T10:56:22.977000+00:00</time>
      </trkpt>
      <trkpt lat="47.29547" lon="-1.37999">
        <ele>51</ele>
        <time>2020-12-20T10:56:23.995000+00:00</time>
      </trkpt>
      <trkpt lat="0" lon="0">
        <time>2020-12-20T10:56:24.009000+00:00</time>
      </trkpt>
      <trkpt lat="0" lon="0">
        <time>2020-12-20T10:56:24.015000+00:00</time>
      </trkpt>
      <trkpt lat="0" lon="0">
        <time>2020-12-20T10:56:24.017000+00:00</time>
      </trkpt>
      <trkpt lat="47.2955" lon="-1.37991">
        <ele>51</ele>
        <time>2020-12-20T10:56:24.978000+00:00</time>
      </trkpt>
      <trkpt lat="0" lon="0">
        <time>2020-12-20T10:56:24.987000+00:00</time>
      </trkpt>
      <trkpt lat="0" lon="0">
        <time>2020-12-20T10:56:24.992000+00:00</time>
      </trkpt>
      <trkpt lat="0" lon="0">
        <time>2020-12-20T10:56:24.995000+00:00</time>
      </trkpt>
      <trkpt lat="47.29553" lon="-1.37983">
        <ele>51</ele>
        <time>2020-12-20T10:56:25.919000+00:00</time>
      </trkpt>
      <trkpt lat="0" lon="0">
        <time>2020-12-20T10:56:25.925000+00:00</time>
      </trkpt>
      <trkpt lat="0" lon="0">
        <time>2020-12-20T10:56:25.932000+00:00</time>
      </trkpt>
      <trkpt lat="0" lon="0">
        <time>2020-12-20T10:56:25.934000+00:00</time>
      </trkpt>
      <trkpt lat="47.29556" lon="-1.37975">
        <ele>51</ele>
        <time>2020-12-20T10:56:26.926000+00:00</time>
      </trkpt>
      <trkpt lat="0" lon="0">
        <time>2020-12-20T10:56:26.932000+00:00</time>
      </trkpt>
      <trkpt lat="0" lon="0">
        <time>2020-12-20T10:56:26.938000+00:00</time>
      </trkpt>
      <trkpt lat="0" lon="0">
        <time>2020-12-20T10:56:26.940000+00:00</time>
      </trkpt>
      <trkpt lat="47.29559" lon="-1.37967">
        <ele>51</ele>
        <time>2020-12-20T10:56:27.953000+00:00</time>
      </trkpt>
      <trkpt lat="0" lon="0">
        <time>2020-12-20T10:56:27.963000+00:00</time>
      </trkpt>
      <trkpt lat="0" lon="0">
        <time>2020-12-20T10:56:27.976000+00:00</time>
      </trkpt>
      <trkpt lat="0" lon="0">
        <time>2020-12-20T10:56:27.978000+00:00</time>
      </trkpt>
      <trkpt lat="47.29562" lon="-1.37959">
        <ele>51</ele>
        <time>2020-12-20T10:56:28.914000+00:00</time>
      </trkpt>
      <trkpt lat="0" lon="0">
        <time>2020-12-20T10:56:28.921000+00:00</time>
      </trkpt>
      <trkpt lat="0" lon="0">
        <time>2020-12-20T10:56:28.923000+00:00</time>
      </trkpt>
      <trkpt lat="0" lon="0">
        <time>2020-12-20T10:56:28.924000+00:00</time>
      </trkpt>
      <trkpt lat="47.29565" lon="-1.37951">
        <ele>52</ele>
        <time>2020-12-20T10:56:29.941000+00:00</time>
      </trkpt>
      <trkpt lat="0" lon="0">
        <time>2020-12-20T10:56:29.959000+00:00</time>
      </trkpt>
      <trkpt lat="0" lon="0">
        <time>2020-12-20T10:56:29.965000+00:00</time>
      </trkpt>
      <trkpt lat="0" lon="0">
        <time>2020-12-20T10:56:29.968000+00:00</time>
      </trkpt>
      <trkpt lat="47.29569" lon="-1.37943">
        <ele>52</ele>
        <time>2020-12-20T10:56:30.939000+00:00</time>
      </trkpt>
      <trkpt lat="0" lon="0">
        <time>2020-12-20T10:56:30.952000+00:00</time>
      </trkpt>
      <trkpt lat="0" lon="0">
        <time>2020-12-20T10:56:30.961000+00:00</time>
      </trkpt>
      <trkpt lat="0" lon="0">
        <time>2020-12-20T10:56:30.963000+00:00</time>
      </trkpt>
      <trkpt lat="47.29572" lon="-1.37936">
        <ele>52</ele>
        <time>2020-12-20T10:56:31.955000+00:00</time>
      </trkpt>
      <trkpt lat="0" lon="0">
        <time>2020-12-20T10:56:31.970000+00:00</time>
      </trkpt>
      <trkpt lat="0" lon="0">
        <time>2020-12-20T10:56:31.975000+00:00</time>
      </trkpt>
      <trkpt lat="0" lon="0">
        <time>2020-12-20T10:56:31.977000+00:00</time>
      </trkpt>
      <trkpt lat="47.29575" lon="-1.37928">
        <ele>52</ele>
        <time>2020-12-20T10:56:32.951000+00:00</time>
      </trkpt>
      <trkpt lat="0" lon="0">
        <time>2020-12-20T10:56:32.961000+00:00</time>
      </trkpt>
      <trkpt lat="0" lon="0">
        <time>2020-12-20T10:56:32.969000+00:00</time>
      </trkpt>
      <trkpt lat="0" lon="0">
        <time>2020-12-20T10:56:32.972000+00:00</time>
      </trkpt>
      <trkpt lat="47.29582" lon="-1.37913">
        <ele>51</ele>
        <time>2020-12-20T10:56:34.950000+00:00</time>
      </trkpt>
      <trkpt lat="0" lon="0">
        <time>2020-12-20T10:56:34.965000+00:00</time>
      </trkpt>
      <trkpt lat="0" lon="0">
        <time>2020-12-20T10:56:34.970000+00:00</time>
      </trkpt>
      <trkpt lat="0" lon="0">
        <time>2020-12-20T10:56:34.974000+00:00</time>
      </trkpt>
      <trkpt lat="47.29585" lon="-1.37906">
        <ele>52</ele>
        <time>2020-12-20T10:56:35.931000+00:00</time>
      </trkpt>
      <trkpt lat="0" lon="0">
        <time>2020-12-20T10:56:35.940000+00:00</time>
      </trkpt>
      <trkpt lat="0" lon="0">
        <time>2020-12-20T10:56:35.946000+00:00</time>
      </trkpt>
      <trkpt lat="0" lon="0">
        <time>2020-12-20T10:56:35.950000+00:00</time>
      </trkpt>
      <trkpt lat="47.29589" lon="-1.37898">
        <ele>52</ele>
        <time>2020-12-20T10:56:36.925000+00:00</time>
      </trkpt>
      <trkpt lat="0" lon="0">
        <time>2020-12-20T10:56:36.931000+00:00</time>
      </trkpt>
      <trkpt lat="0" lon="0">
        <time>2020-12-20T10:56:36.936000+00:00</time>
      </trkpt>
      <trkpt lat="0" lon="0">
        <time>2020-12-20T10:56:36.938000+00:00</time>
      </trkpt>
      <trkpt lat="47.29592" lon="-1.37891">
        <ele>52</ele>
        <time>2020-12-20T10:56:37.926000+00:00</time>
      </trkpt>
      <trkpt lat="0" lon="0">
        <time>2020-12-20T10:56:37.933000+00:00</time>
      </trkpt>
      <trkpt lat="0" lon="0">
        <time>2020-12-20T10:56:37.943000+00:00</time>
      </trkpt>
      <trkpt lat="0" lon="0">
        <time>2020-12-20T10:56:37.945000+00:00</time>
      </trkpt>
      <trkpt lat="47.29596" lon="-1.37883">
        <ele>52</ele>
        <time>2020-12-20T10:56:38.989000+00:00</time>
      </trkpt>
      <trkpt lat="0" lon="0">
        <time>2020-12-20T10:56:39.001000+00:00</time>
      </trkpt>
      <trkpt lat="0" lon="0">
        <time>2020-12-20T10:56:39.010000+00:00</time>
      </trkpt>
      <trkpt lat="0" lon="0">
        <time>2020-12-20T10:56:39.012000+00:00</time>
      </trkpt>
      <trkpt lat="47.29599" lon="-1.37875">
        <ele>51</ele>
        <time>2020-12-20T10:56:39.931000+00:00</time>
      </trkpt>
      <trkpt lat="0" lon="0">
        <time>2020-12-20T10:56:39.938000+00:00</time>
      </trkpt>
      <trkpt lat="0" lon="0">
        <time>2020-12-20T10:56:39.945000+00:00</time>
      </trkpt>
      <trkpt lat="0" lon="0">
        <time>2020-12-20T10:56:39.947000+00:00</time>
      </trkpt>
      <trkpt lat="47.29603" lon="-1.37867">
        <ele>51</ele>
        <time>2020-12-20T10:56:40.953000+00:00</time>
      </trkpt>
      <trkpt lat="0" lon="0">
        <time>2020-12-20T10:56:40.962000+00:00</time>
      </trkpt>
      <trkpt lat="0" lon="0">
        <time>2020-12-20T10:56:40.967000+00:00</time>
      </trkpt>
      <trkpt lat="0" lon="0">
        <time>2020-12-20T10:56:40.970000+00:00</time>
      </trkpt>
      <trkpt lat="47.29608" lon="-1.37859">
        <ele>51</ele>
        <time>2020-12-20T10:56:41.949000+00:00</time>
      </trkpt>
      <trkpt lat="0" lon="0">
        <time>2020-12-20T10:56:41.957000+00:00</time>
      </trkpt>
      <trkpt lat="0" lon="0">
        <time>2020-12-20T10:56:41.959000+00:00</time>
      </trkpt>
      <trkpt lat="0" lon="0">
        <time>2020-12-20T10:56:41.960000+00:00</time>
      </trkpt>
      <trkpt lat="47.29612" lon="-1.37851">
        <ele>51</ele>
        <time>2020-12-20T10:56:42.967000+00:00</time>
      </trkpt>
      <trkpt lat="0" lon="0">
        <time>2020-12-20T10:56:42.974000+00:00</time>
      </trkpt>
      <trkpt lat="0" lon="0">
        <time>2020-12-20T10:56:42.976000+00:00</time>
      </trkpt>
      <trkpt lat="0" lon="0">
        <time>2020-12-20T10:56:42.977000+00:00</time>
      </trkpt>
      <trkpt lat="47.29616" lon="-1.37843">
        <ele>50</ele>
        <time>2020-12-20T10:56:43.924000+00:00</time>
      </trkpt>
      <trkpt lat="0" lon="0">
        <time>2020-12-20T10:56:43.937000+00:00</time>
      </trkpt>
      <trkpt lat="0" lon="0">
        <time>2020-12-20T10:56:43.944000+00:00</time>
      </trkpt>
      <trkpt lat="0" lon="0">
        <time>2020-12-20T10:56:43.947000+00:00</time>
      </trkpt>
      <trkpt lat="47.29619" lon="-1.37835">
        <ele>50</ele>
        <time>2020-12-20T10:56:44.873000+00:00</time>
      </trkpt>
      <trkpt lat="0" lon="0">
        <time>2020-12-20T10:56:44.880000+00:00</time>
      </trkpt>
      <trkpt lat="0" lon="0">
        <time>2020-12-20T10:56:44.886000+00:00</time>
      </trkpt>
      <trkpt lat="0" lon="0">
        <time>2020-12-20T10:56:44.887000+00:00</time>
      </trkpt>
      <trkpt lat="47.29623" lon="-1.37826">
        <ele>49</ele>
        <time>2020-12-20T10:56:45.895000+00:00</time>
      </trkpt>
      <trkpt lat="0" lon="0">
        <time>2020-12-20T10:56:45.912000+00:00</time>
      </trkpt>
      <trkpt lat="0" lon="0">
        <time>2020-12-20T10:56:45.914000+00:00</time>
      </trkpt>
      <trkpt lat="0" lon="0">
        <time>2020-12-20T10:56:45.915000+00:00</time>
      </trkpt>
      <trkpt lat="47.29627" lon="-1.37818">
        <ele>48</ele>
        <time>2020-12-20T10:56:46.954000+00:00</time>
      </trkpt>
      <trkpt lat="0" lon="0">
        <time>2020-12-20T10:56:46.972000+00:00</time>
      </trkpt>
      <trkpt lat="0" lon="0">
        <time>2020-12-20T10:56:46.976000+00:00</time>
      </trkpt>
      <trkpt lat="0" lon="0">
        <time>2020-12-20T10:56:46.981000+00:00</time>
      </trkpt>
      <trkpt lat="47.29631" lon="-1.3781">
        <ele>48</ele>
        <time>2020-12-20T10:56:47.932000+00:00</time>
      </trkpt>
      <trkpt lat="0" lon="0">
        <time>2020-12-20T10:56:47.947000+00:00</time>
      </trkpt>
      <trkpt lat="0" lon="0">
        <time>2020-12-20T10:56:47.958000+00:00</time>
      </trkpt>
      <trkpt lat="0" lon="0">
        <time>2020-12-20T10:56:47.961000+00:00</time>
      </trkpt>
      <trkpt lat="47.29635" lon="-1.37801">
        <ele>47</ele>
        <time>2020-12-20T10:56:48.921000+00:00</time>
      </trkpt>
      <trkpt lat="0" lon="0">
        <time>2020-12-20T10:56:48.934000+00:00</time>
      </trkpt>
      <trkpt lat="0" lon="0">
        <time>2020-12-20T10:56:48.943000+00:00</time>
      </trkpt>
      <trkpt lat="0" lon="0">
        <time>2020-12-20T10:56:48.945000+00:00</time>
      </trkpt>
      <trkpt lat="47.29639" lon="-1.37793">
        <ele>46</ele>
        <time>2020-12-20T10:56:49.894000+00:00</time>
      </trkpt>
      <trkpt lat="0" lon="0">
        <time>2020-12-20T10:56:49.899000+00:00</time>
      </trkpt>
      <trkpt lat="0" lon="0">
        <time>2020-12-20T10:56:49.904000+00:00</time>
      </trkpt>
      <trkpt lat="0" lon="0">
        <time>2020-12-20T10:56:49.906000+00:00</time>
      </trkpt>
      <trkpt lat="47.29644" lon="-1.37785">
        <ele>45</ele>
        <time>2020-12-20T10:56:50.901000+00:00</time>
      </trkpt>
      <trkpt lat="0" lon="0">
        <time>2020-12-20T10:56:50.909000+00:00</time>
      </trkpt>
      <trkpt lat="0" lon="0">
        <time>2020-12-20T10:56:50.916000+00:00</time>
      </trkpt>
      <trkpt lat="0" lon="0">
        <time>2020-12-20T10:56:50.919000+00:00</time>
      </trkpt>
      <trkpt lat="47.29648" lon="-1.37778">
        <ele>45</ele>
        <time>2020-12-20T10:56:51.946000+00:00</time>
      </trkpt>
      <trkpt lat="0" lon="0">
        <time>2020-12-20T10:56:51.957000+00:00</time>
      </trkpt>
      <trkpt lat="0" lon="0">
        <time>2020-12-20T10:56:51.975000+00:00</time>
      </trkpt>
      <trkpt lat="0" lon="0">
        <time>2020-12-20T10:56:51.989000+00:00</time>
      </trkpt>
      <trkpt lat="47.29653" lon="-1.3777">
        <ele>45</ele>
        <time>2020-12-20T10:56:52.969000+00:00</time>
      </trkpt>
      <trkpt lat="0" lon="0">
        <time>2020-12-20T10:56:52.979000+00:00</time>
      </trkpt>
      <trkpt lat="0" lon="0">
        <time>2020-12-20T10:56:52.986000+00:00</time>
      </trkpt>
      <trkpt lat="0" lon="0">
        <time>2020-12-20T10:56:52.989000+00:00</time>
      </trkpt>
      <trkpt lat="47.29657" lon="-1.37762">
        <ele>45</ele>
        <time>2020-12-20T10:56:53.910000+00:00</time>
      </trkpt>
      <trkpt lat="0" lon="0">
        <time>2020-12-20T10:56:53.926000+00:00</time>
      </trkpt>
      <trkpt lat="0" lon="0">
        <time>2020-12-20T10:56:53.934000+00:00</time>
      </trkpt>
      <trkpt lat="0" lon="0">
        <time>2020-12-20T10:56:53.936000+00:00</time>
      </trkpt>
      <trkpt lat="47.29661" lon="-1.37754">
        <ele>45</ele>
        <time>2020-12-20T10:56:54.961000+00:00</time>
      </trkpt>
      <trkpt lat="0" lon="0">
        <time>2020-12-20T10:56:54.963000+00:00</time>
      </trkpt>
      <trkpt lat="0" lon="0">
        <time>2020-12-20T10:56:54.966000+00:00</time>
      </trkpt>
      <trkpt lat="0" lon="0">
        <time>2020-12-20T10:56:54.967000+00:00</time>
      </trkpt>
      <trkpt lat="47.29665" lon="-1.37746">
        <ele>45</ele>
        <time>2020-12-20T10:56:55.968000+00:00</time>
      </trkpt>
      <trkpt lat="0" lon="0">
        <time>2020-12-20T10:56:55.983000+00:00</time>
      </trkpt>
      <trkpt lat="0" lon="0">
        <time>2020-12-20T10:56:55.992000+00:00</time>
      </trkpt>
      <trkpt lat="0" lon="0">
        <time>2020-12-20T10:56:55.996000+00:00</time>
      </trkpt>
      <trkpt lat="47.2967" lon="-1.37739">
        <ele>45</ele>
        <time>2020-12-20T10:56:56.928000+00:00</time>
      </trkpt>
      <trkpt lat="0" lon="0">
        <time>2020-12-20T10:56:56.941000+00:00</time>
      </trkpt>
      <trkpt lat="0" lon="0">
        <time>2020-12-20T10:56:56.944000+00:00</time>
      </trkpt>
      <trkpt lat="0" lon="0">
        <time>2020-12-20T10:56:56.949000+00:00</time>
      </trkpt>
      <trkpt lat="47.29674" lon="-1.37731">
        <ele>45</ele>
        <time>2020-12-20T10:56:57.898000+00:00</time>
      </trkpt>
      <trkpt lat="0" lon="0">
        <time>2020-12-20T10:56:57.907000+00:00</time>
      </trkpt>
      <trkpt lat="0" lon="0">
        <time>2020-12-20T10:56:57.909000+00:00</time>
      </trkpt>
      <trkpt lat="0" lon="0">
        <time>2020-12-20T10:56:57.910000+00:00</time>
      </trkpt>
      <trkpt lat="47.29678" lon="-1.37724">
        <ele>45</ele>
        <time>2020-12-20T10:56:58.838000+00:00</time>
      </trkpt>
      <trkpt lat="0" lon="0">
        <time>2020-12-20T10:56:58.839000+00:00</time>
      </trkpt>
      <trkpt lat="0" lon="0">
        <time>2020-12-20T10:56:58.842000+00:00</time>
      </trkpt>
      <trkpt lat="0" lon="0">
        <time>2020-12-20T10:56:58.843000+00:00</time>
      </trkpt>
      <trkpt lat="47.29683" lon="-1.37716">
        <ele>45</ele>
        <time>2020-12-20T10:56:59.810000+00:00</time>
      </trkpt>
      <trkpt lat="0" lon="0">
        <time>2020-12-20T10:56:59.811000+00:00</time>
      </trkpt>
      <trkpt lat="0" lon="0">
        <time>2020-12-20T10:56:59.815000+00:00</time>
      </trkpt>
      <trkpt lat="0" lon="0">
        <time>2020-12-20T10:56:59.817000+00:00</time>
      </trkpt>
      <trkpt lat="47.29687" lon="-1.37709">
        <ele>45</ele>
        <time>2020-12-20T10:57:00.824000+00:00</time>
      </trkpt>
      <trkpt lat="0" lon="0">
        <time>2020-12-20T10:57:00.828000+00:00</time>
      </trkpt>
      <trkpt lat="0" lon="0">
        <time>2020-12-20T10:57:00.829000+00:00</time>
      </trkpt>
      <trkpt lat="0" lon="0">
        <time>2020-12-20T10:57:00.830000+00:00</time>
      </trkpt>
      <trkpt lat="47.29691" lon="-1.37702">
        <ele>45</ele>
        <time>2020-12-20T10:57:01.804000+00:00</time>
      </trkpt>
      <trkpt lat="0" lon="0">
        <time>2020-12-20T10:57:01.806000+00:00</time>
      </trkpt>
      <trkpt lat="0" lon="0">
        <time>2020-12-20T10:57:01.809000+00:00</time>
      </trkpt>
      <trkpt lat="0" lon="0">
        <time>2020-12-20T10:57:01.810000+00:00</time>
      </trkpt>
      <trkpt lat="47.29695" lon="-1.37694">
        <ele>44</ele>
        <time>2020-12-20T10:57:02.810000+00:00</time>
      </trkpt>
      <trkpt lat="0" lon="0">
        <time>2020-12-20T10:57:02.811000+00:00</time>
      </trkpt>
      <trkpt lat="0" lon="0">
        <time>2020-12-20T10:57:02.814000+00:00</time>
      </trkpt>
      <trkpt lat="0" lon="0">
        <time>2020-12-20T10:57:02.815000+00:00</time>
      </trkpt>
      <trkpt lat="47.29699" lon="-1.37687">
        <ele>44</ele>
        <time>2020-12-20T10:57:03.793000+00:00</time>
      </trkpt>
      <trkpt lat="0" lon="0">
        <time>2020-12-20T10:57:03.795000+00:00</time>
      </trkpt>
      <trkpt lat="0" lon="0">
        <time>2020-12-20T10:57:03.799000+00:00</time>
      </trkpt>
      <trkpt lat="0" lon="0">
        <time>2020-12-20T10:57:03.800000+00:00</time>
      </trkpt>
      <trkpt lat="47.29703" lon="-1.37679">
        <ele>44</ele>
        <time>2020-12-20T10:57:04.798000+00:00</time>
      </trkpt>
      <trkpt lat="0" lon="0">
        <time>2020-12-20T10:57:04.799000+00:00</time>
      </trkpt>
      <trkpt lat="0" lon="0">
        <time>2020-12-20T10:57:04.802000+00:00</time>
      </trkpt>
      <trkpt lat="0" lon="0">
        <time>2020-12-20T10:57:04.803000+00:00</time>
      </trkpt>
      <trkpt lat="47.29707" lon="-1.37672">
        <ele>44</ele>
        <time>2020-12-20T10:57:05.819000+00:00</time>
      </trkpt>
      <trkpt lat="0" lon="0">
        <time>2020-12-20T10:57:05.821000+00:00</time>
      </trkpt>
      <trkpt lat="0" lon="0">
        <time>2020-12-20T10:57:05.825000+00:00</time>
      </trkpt>
      <trkpt lat="0" lon="0">
        <time>2020-12-20T10:57:05.827000+00:00</time>
      </trkpt>
      <trkpt lat="47.29711" lon="-1.37664">
        <ele>44</ele>
        <time>2020-12-20T10:57:06.825000+00:00</time>
      </trkpt>
      <trkpt lat="0" lon="0">
        <time>2020-12-20T10:57:06.826000+00:00</time>
      </trkpt>
      <trkpt lat="0" lon="0">
        <time>2020-12-20T10:57:06.831000+00:00</time>
      </trkpt>
      <trkpt lat="0" lon="0">
        <time>2020-12-20T10:57:06.832000+00:00</time>
      </trkpt>
      <trkpt lat="47.29715" lon="-1.37657">
        <ele>44</ele>
        <time>2020-12-20T10:57:07.809000+00:00</time>
      </trkpt>
      <trkpt lat="0" lon="0">
        <time>2020-12-20T10:57:07.810000+00:00</time>
      </trkpt>
      <trkpt lat="0" lon="0">
        <time>2020-12-20T10:57:07.813000+00:00</time>
      </trkpt>
      <trkpt lat="0" lon="0">
        <time>2020-12-20T10:57:07.814000+00:00</time>
      </trkpt>
      <trkpt lat="47.29719" lon="-1.3765">
        <ele>44</ele>
        <time>2020-12-20T10:57:08.808000+00:00</time>
      </trkpt>
      <trkpt lat="0" lon="0">
        <time>2020-12-20T10:57:08.812000+00:00</time>
      </trkpt>
      <trkpt lat="0" lon="0">
        <time>2020-12-20T10:57:08.813000+00:00</time>
      </trkpt>
      <trkpt lat="0" lon="0">
        <time>2020-12-20T10:57:08.814000+00:00</time>
      </trkpt>
      <trkpt lat="47.29723" lon="-1.37642">
        <ele>44</ele>
        <time>2020-12-20T10:57:09.930000+00:00</time>
      </trkpt>
      <trkpt lat="0" lon="0">
        <time>2020-12-20T10:57:09.939000+00:00</time>
      </trkpt>
      <trkpt lat="0" lon="0">
        <time>2020-12-20T10:57:09.943000+00:00</time>
      </trkpt>
      <trkpt lat="0" lon="0">
        <time>2020-12-20T10:57:09.947000+00:00</time>
      </trkpt>
      <trkpt lat="47.29727" lon="-1.37635">
        <ele>44</ele>
        <time>2020-12-20T10:57:10.930000+00:00</time>
      </trkpt>
      <trkpt lat="0" lon="0">
        <time>2020-12-20T10:57:10.948000+00:00</time>
      </trkpt>
      <trkpt lat="0" lon="0">
        <time>2020-12-20T10:57:10.954000+00:00</time>
      </trkpt>
      <trkpt lat="0" lon="0">
        <time>2020-12-20T10:57:10.959000+00:00</time>
      </trkpt>
      <trkpt lat="47.2973" lon="-1.37628">
        <ele>44</ele>
        <time>2020-12-20T10:57:11.896000+00:00</time>
      </trkpt>
      <trkpt lat="0" lon="0">
        <time>2020-12-20T10:57:11.903000+00:00</time>
      </trkpt>
      <trkpt lat="0" lon="0">
        <time>2020-12-20T10:57:11.905000+00:00</time>
      </trkpt>
      <trkpt lat="0" lon="0">
        <time>2020-12-20T10:57:11.906000+00:00</time>
      </trkpt>
      <trkpt lat="47.29734" lon="-1.37621">
        <ele>44</ele>
        <time>2020-12-20T10:57:12.916000+00:00</time>
      </trkpt>
      <trkpt lat="0" lon="0">
        <time>2020-12-20T10:57:12.925000+00:00</time>
      </trkpt>
      <trkpt lat="0" lon="0">
        <time>2020-12-20T10:57:12.927000+00:00</time>
      </trkpt>
      <trkpt lat="0" lon="0">
        <time>2020-12-20T10:57:12.929000+00:00</time>
      </trkpt>
      <trkpt lat="47.29738" lon="-1.37614">
        <ele>44</ele>
        <time>2020-12-20T10:57:13.881000+00:00</time>
      </trkpt>
      <trkpt lat="0" lon="0">
        <time>2020-12-20T10:57:13.884000+00:00</time>
      </trkpt>
      <trkpt lat="0" lon="0">
        <time>2020-12-20T10:57:13.887000+00:00</time>
      </trkpt>
      <trkpt lat="0" lon="0">
        <time>2020-12-20T10:57:13.889000+00:00</time>
      </trkpt>
      <trkpt lat="47.29742" lon="-1.37607">
        <ele>45</ele>
        <time>2020-12-20T10:57:14.828000+00:00</time>
      </trkpt>
      <trkpt lat="0" lon="0">
        <time>2020-12-20T10:57:14.832000+00:00</time>
      </trkpt>
      <trkpt lat="0" lon="0">
        <time>2020-12-20T10:57:14.833000+00:00</time>
      </trkpt>
      <trkpt lat="0" lon="0">
        <time>2020-12-20T10:57:14.834000+00:00</time>
      </trkpt>
      <trkpt lat="47.29745" lon="-1.376">
        <ele>45</ele>
        <time>2020-12-20T10:57:15.807000+00:00</time>
      </trkpt>
      <trkpt lat="0" lon="0">
        <time>2020-12-20T10:57:15.809000+00:00</time>
      </trkpt>
      <trkpt lat="0" lon="0">
        <time>2020-12-20T10:57:15.811000+00:00</time>
      </trkpt>
      <trkpt lat="0" lon="0">
        <time>2020-12-20T10:57:15.812000+00:00</time>
      </trkpt>
      <trkpt lat="47.29749" lon="-1.37593">
        <ele>45</ele>
        <time>2020-12-20T10:57:16.820000+00:00</time>
      </trkpt>
      <trkpt lat="0" lon="0">
        <time>2020-12-20T10:57:16.821000+00:00</time>
      </trkpt>
      <trkpt lat="0" lon="0">
        <time>2020-12-20T10:57:16.823000+00:00</time>
      </trkpt>
      <trkpt lat="0" lon="0">
        <time>2020-12-20T10:57:16.824000+00:00</time>
      </trkpt>
      <trkpt lat="47.29752" lon="-1.37586">
        <ele>45</ele>
        <time>2020-12-20T10:57:17.810000+00:00</time>
      </trkpt>
      <trkpt lat="0" lon="0">
        <time>2020-12-20T10:57:17.814000+00:00</time>
      </trkpt>
      <trkpt lat="0" lon="0">
        <time>2020-12-20T10:57:17.817000+00:00</time>
      </trkpt>
      <trkpt lat="47.29755" lon="-1.3758">
        <ele>45</ele>
        <time>2020-12-20T10:57:18.819000+00:00</time>
      </trkpt>
      <trkpt lat="0" lon="0">
        <time>2020-12-20T10:57:18.822000+00:00</time>
      </trkpt>
      <trkpt lat="0" lon="0">
        <time>2020-12-20T10:57:18.823000+00:00</time>
      </trkpt>
      <trkpt lat="47.29759" lon="-1.37573">
        <ele>46</ele>
        <time>2020-12-20T10:57:19.822000+00:00</time>
      </trkpt>
      <trkpt lat="0" lon="0">
        <time>2020-12-20T10:57:19.827000+00:00</time>
      </trkpt>
      <trkpt lat="0" lon="0">
        <time>2020-12-20T10:57:19.833000+00:00</time>
      </trkpt>
      <trkpt lat="0" lon="0">
        <time>2020-12-20T10:57:19.836000+00:00</time>
      </trkpt>
      <trkpt lat="47.29762" lon="-1.37567">
        <ele>47</ele>
        <time>2020-12-20T10:57:20.855000+00:00</time>
      </trkpt>
      <trkpt lat="0" lon="0">
        <time>2020-12-20T10:57:20.861000+00:00</time>
      </trkpt>
      <trkpt lat="0" lon="0">
        <time>2020-12-20T10:57:20.863000+00:00</time>
      </trkpt>
      <trkpt lat="0" lon="0">
        <time>2020-12-20T10:57:20.864000+00:00</time>
      </trkpt>
      <trkpt lat="47.29765" lon="-1.37561">
        <ele>47</ele>
        <time>2020-12-20T10:57:21.916000+00:00</time>
      </trkpt>
      <trkpt lat="0" lon="0">
        <time>2020-12-20T10:57:21.925000+00:00</time>
      </trkpt>
      <trkpt lat="0" lon="0">
        <time>2020-12-20T10:57:21.930000+00:00</time>
      </trkpt>
      <trkpt lat="0" lon="0">
        <time>2020-12-20T10:57:21.933000+00:00</time>
      </trkpt>
      <trkpt lat="47.29769" lon="-1.37555">
        <ele>48</ele>
        <time>2020-12-20T10:57:22.971000+00:00</time>
      </trkpt>
      <trkpt lat="0" lon="0">
        <time>2020-12-20T10:57:22.986000+00:00</time>
      </trkpt>
      <trkpt lat="0" lon="0">
        <time>2020-12-20T10:57:23.001000+00:00</time>
      </trkpt>
      <trkpt lat="0" lon="0">
        <time>2020-12-20T10:57:23.002000+00:00</time>
      </trkpt>
      <trkpt lat="47.29772" lon="-1.37549">
        <ele>48</ele>
        <time>2020-12-20T10:57:23.894000+00:00</time>
      </trkpt>
      <trkpt lat="0" lon="0">
        <time>2020-12-20T10:57:23.901000+00:00</time>
      </trkpt>
      <trkpt lat="0" lon="0">
        <time>2020-12-20T10:57:23.906000+00:00</time>
      </trkpt>
      <trkpt lat="0" lon="0">
        <time>2020-12-20T10:57:23.913000+00:00</time>
      </trkpt>
      <trkpt lat="47.29776" lon="-1.37542">
        <ele>48</ele>
        <time>2020-12-20T10:57:24.816000+00:00</time>
      </trkpt>
      <trkpt lat="0" lon="0">
        <time>2020-12-20T10:57:24.820000+00:00</time>
      </trkpt>
      <trkpt lat="0" lon="0">
        <time>2020-12-20T10:57:24.821000+00:00</time>
      </trkpt>
      <trkpt lat="0" lon="0">
        <time>2020-12-20T10:57:24.822000+00:00</time>
      </trkpt>
      <trkpt lat="47.29779" lon="-1.37536">
        <ele>48</ele>
        <time>2020-12-20T10:57:25.839000+00:00</time>
      </trkpt>
      <trkpt lat="0" lon="0">
        <time>2020-12-20T10:57:25.841000+00:00</time>
      </trkpt>
      <trkpt lat="0" lon="0">
        <time>2020-12-20T10:57:25.842000+00:00</time>
      </trkpt>
      <trkpt lat="0" lon="0">
        <time>2020-12-20T10:57:25.843000+00:00</time>
      </trkpt>
      <trkpt lat="47.29783" lon="-1.37529">
        <ele>49</ele>
        <time>2020-12-20T10:57:26.840000+00:00</time>
      </trkpt>
      <trkpt lat="0" lon="0">
        <time>2020-12-20T10:57:26.841000+00:00</time>
      </trkpt>
      <trkpt lat="0" lon="0">
        <time>2020-12-20T10:57:26.845000+00:00</time>
      </trkpt>
      <trkpt lat="0" lon="0">
        <time>2020-12-20T10:57:26.846000+00:00</time>
      </trkpt>
      <trkpt lat="47.29786" lon="-1.37522">
        <ele>49</ele>
        <time>2020-12-20T10:57:27.819000+00:00</time>
      </trkpt>
      <trkpt lat="0" lon="0">
        <time>2020-12-20T10:57:27.823000+00:00</time>
      </trkpt>
      <trkpt lat="0" lon="0">
        <time>2020-12-20T10:57:27.825000+00:00</time>
      </trkpt>
      <trkpt lat="47.2979" lon="-1.37515">
        <ele>49</ele>
        <time>2020-12-20T10:57:28.811000+00:00</time>
      </trkpt>
      <trkpt lat="0" lon="0">
        <time>2020-12-20T10:57:28.813000+00:00</time>
      </trkpt>
      <trkpt lat="0" lon="0">
        <time>2020-12-20T10:57:28.819000+00:00</time>
      </trkpt>
      <trkpt lat="0" lon="0">
        <time>2020-12-20T10:57:28.821000+00:00</time>
      </trkpt>
      <trkpt lat="47.29794" lon="-1.37508">
        <ele>49</ele>
        <time>2020-12-20T10:57:29.849000+00:00</time>
      </trkpt>
      <trkpt lat="0" lon="0">
        <time>2020-12-20T10:57:29.851000+00:00</time>
      </trkpt>
      <trkpt lat="0" lon="0">
        <time>2020-12-20T10:57:29.852000+00:00</time>
      </trkpt>
      <trkpt lat="0" lon="0">
        <time>2020-12-20T10:57:29.853000+00:00</time>
      </trkpt>
      <trkpt lat="47.29798" lon="-1.37501">
        <ele>49</ele>
        <time>2020-12-20T10:57:30.810000+00:00</time>
      </trkpt>
      <trkpt lat="0" lon="0">
        <time>2020-12-20T10:57:30.814000+00:00</time>
      </trkpt>
      <trkpt lat="0" lon="0">
        <time>2020-12-20T10:57:30.819000+00:00</time>
      </trkpt>
      <trkpt lat="0" lon="0">
        <time>2020-12-20T10:57:30.820000+00:00</time>
      </trkpt>
      <trkpt lat="47.29802" lon="-1.37493">
        <ele>49</ele>
        <time>2020-12-20T10:57:31.828000+00:00</time>
      </trkpt>
      <trkpt lat="0" lon="0">
        <time>2020-12-20T10:57:31.830000+00:00</time>
      </trkpt>
      <trkpt lat="0" lon="0">
        <time>2020-12-20T10:57:31.831000+00:00</time>
      </trkpt>
      <trkpt lat="47.29806" lon="-1.37486">
        <ele>49</ele>
        <time>2020-12-20T10:57:32.809000+00:00</time>
      </trkpt>
      <trkpt lat="0" lon="0">
        <time>2020-12-20T10:57:32.814000+00:00</time>
      </trkpt>
      <trkpt lat="0" lon="0">
        <time>2020-12-20T10:57:32.816000+00:00</time>
      </trkpt>
      <trkpt lat="0" lon="0">
        <time>2020-12-20T10:57:32.817000+00:00</time>
      </trkpt>
      <trkpt lat="47.2981" lon="-1.37478">
        <ele>49</ele>
        <time>2020-12-20T10:57:33.821000+00:00</time>
      </trkpt>
      <trkpt lat="0" lon="0">
        <time>2020-12-20T10:57:33.826000+00:00</time>
      </trkpt>
      <trkpt lat="0" lon="0">
        <time>2020-12-20T10:57:33.827000+00:00</time>
      </trkpt>
      <trkpt lat="0" lon="0">
        <time>2020-12-20T10:57:33.828000+00:00</time>
      </trkpt>
      <trkpt lat="47.29813" lon="-1.37471">
        <ele>49</ele>
        <time>2020-12-20T10:57:34.819000+00:00</time>
      </trkpt>
      <trkpt lat="0" lon="0">
        <time>2020-12-20T10:57:34.820000+00:00</time>
      </trkpt>
      <trkpt lat="0" lon="0">
        <time>2020-12-20T10:57:34.823000+00:00</time>
      </trkpt>
      <trkpt lat="0" lon="0">
        <time>2020-12-20T10:57:34.824000+00:00</time>
      </trkpt>
      <trkpt lat="47.29817" lon="-1.37464">
        <ele>50</ele>
        <time>2020-12-20T10:57:35.824000+00:00</time>
      </trkpt>
      <trkpt lat="0" lon="0">
        <time>2020-12-20T10:57:35.827000+00:00</time>
      </trkpt>
      <trkpt lat="0" lon="0">
        <time>2020-12-20T10:57:35.828000+00:00</time>
      </trkpt>
      <trkpt lat="0" lon="0">
        <time>2020-12-20T10:57:35.829000+00:00</time>
      </trkpt>
      <trkpt lat="47.29821" lon="-1.37457">
        <ele>49</ele>
        <time>2020-12-20T10:57:36.879000+00:00</time>
      </trkpt>
      <trkpt lat="0" lon="0">
        <time>2020-12-20T10:57:36.884000+00:00</time>
      </trkpt>
      <trkpt lat="0" lon="0">
        <time>2020-12-20T10:57:36.888000+00:00</time>
      </trkpt>
      <trkpt lat="0" lon="0">
        <time>2020-12-20T10:57:36.890000+00:00</time>
      </trkpt>
      <trkpt lat="47.29825" lon="-1.3745">
        <ele>49</ele>
        <time>2020-12-20T10:57:37.801000+00:00</time>
      </trkpt>
      <trkpt lat="0" lon="0">
        <time>2020-12-20T10:57:37.803000+00:00</time>
      </trkpt>
      <trkpt lat="0" lon="0">
        <time>2020-12-20T10:57:37.804000+00:00</time>
      </trkpt>
      <trkpt lat="0" lon="0">
        <time>2020-12-20T10:57:37.806000+00:00</time>
      </trkpt>
      <trkpt lat="47.29829" lon="-1.37443">
        <ele>49</ele>
        <time>2020-12-20T10:57:38.825000+00:00</time>
      </trkpt>
      <trkpt lat="0" lon="0">
        <time>2020-12-20T10:57:38.826000+00:00</time>
      </trkpt>
      <trkpt lat="0" lon="0">
        <time>2020-12-20T10:57:38.830000+00:00</time>
      </trkpt>
      <trkpt lat="0" lon="0">
        <time>2020-12-20T10:57:38.832000+00:00</time>
      </trkpt>
      <trkpt lat="47.29833" lon="-1.37436">
        <ele>48</ele>
        <time>2020-12-20T10:57:39.824000+00:00</time>
      </trkpt>
      <trkpt lat="0" lon="0">
        <time>2020-12-20T10:57:39.825000+00:00</time>
      </trkpt>
      <trkpt lat="0" lon="0">
        <time>2020-12-20T10:57:39.826000+00:00</time>
      </trkpt>
      <trkpt lat="0" lon="0">
        <time>2020-12-20T10:57:39.827000+00:00</time>
      </trkpt>
      <trkpt lat="47.29837" lon="-1.37429">
        <ele>48</ele>
        <time>2020-12-20T10:57:40.815000+00:00</time>
      </trkpt>
      <trkpt lat="0" lon="0">
        <time>2020-12-20T10:57:40.821000+00:00</time>
      </trkpt>
      <trkpt lat="0" lon="0">
        <time>2020-12-20T10:57:40.825000+00:00</time>
      </trkpt>
      <trkpt lat="0" lon="0">
        <time>2020-12-20T10:57:40.831000+00:00</time>
      </trkpt>
      <trkpt lat="47.29841" lon="-1.37422">
        <ele>48</ele>
        <time>2020-12-20T10:57:41.818000+00:00</time>
      </trkpt>
      <trkpt lat="0" lon="0">
        <time>2020-12-20T10:57:41.819000+00:00</time>
      </trkpt>
      <trkpt lat="0" lon="0">
        <time>2020-12-20T10:57:41.823000+00:00</time>
      </trkpt>
      <trkpt lat="0" lon="0">
        <time>2020-12-20T10:57:41.824000+00:00</time>
      </trkpt>
      <trkpt lat="47.29845" lon="-1.37415">
        <ele>48</ele>
        <time>2020-12-20T10:57:42.817000+00:00</time>
      </trkpt>
      <trkpt lat="0" lon="0">
        <time>2020-12-20T10:57:42.823000+00:00</time>
      </trkpt>
      <trkpt lat="0" lon="0">
        <time>2020-12-20T10:57:42.827000+00:00</time>
      </trkpt>
      <trkpt lat="0" lon="0">
        <time>2020-12-20T10:57:42.829000+00:00</time>
      </trkpt>
      <trkpt lat="47.29849" lon="-1.37408">
        <ele>48</ele>
        <time>2020-12-20T10:57:43.816000+00:00</time>
      </trkpt>
      <trkpt lat="0" lon="0">
        <time>2020-12-20T10:57:43.818000+00:00</time>
      </trkpt>
      <trkpt lat="0" lon="0">
        <time>2020-12-20T10:57:43.821000+00:00</time>
      </trkpt>
      <trkpt lat="0" lon="0">
        <time>2020-12-20T10:57:43.822000+00:00</time>
      </trkpt>
      <trkpt lat="47.29853" lon="-1.37401">
        <ele>48</ele>
        <time>2020-12-20T10:57:44.938000+00:00</time>
      </trkpt>
      <trkpt lat="0" lon="0">
        <time>2020-12-20T10:57:44.947000+00:00</time>
      </trkpt>
      <trkpt lat="0" lon="0">
        <time>2020-12-20T10:57:44.951000+00:00</time>
      </trkpt>
      <trkpt lat="0" lon="0">
        <time>2020-12-20T10:57:44.965000+00:00</time>
      </trkpt>
      <trkpt lat="47.29857" lon="-1.37394">
        <ele>48</ele>
        <time>2020-12-20T10:57:45.869000+00:00</time>
      </trkpt>
      <trkpt lat="0" lon="0">
        <time>2020-12-20T10:57:45.872000+00:00</time>
      </trkpt>
      <trkpt lat="0" lon="0">
        <time>2020-12-20T10:57:45.875000+00:00</time>
      </trkpt>
      <trkpt lat="0" lon="0">
        <time>2020-12-20T10:57:45.876000+00:00</time>
      </trkpt>
      <trkpt lat="47.29862" lon="-1.37387">
        <ele>49</ele>
        <time>2020-12-20T10:57:46.919000+00:00</time>
      </trkpt>
      <trkpt lat="0" lon="0">
        <time>2020-12-20T10:57:46.928000+00:00</time>
      </trkpt>
      <trkpt lat="0" lon="0">
        <time>2020-12-20T10:57:46.934000+00:00</time>
      </trkpt>
      <trkpt lat="0" lon="0">
        <time>2020-12-20T10:57:46.937000+00:00</time>
      </trkpt>
      <trkpt lat="47.29866" lon="-1.3738">
        <ele>48</ele>
        <time>2020-12-20T10:57:47.937000+00:00</time>
      </trkpt>
      <trkpt lat="0" lon="0">
        <time>2020-12-20T10:57:47.952000+00:00</time>
      </trkpt>
      <trkpt lat="0" lon="0">
        <time>2020-12-20T10:57:47.957000+00:00</time>
      </trkpt>
      <trkpt lat="0" lon="0">
        <time>2020-12-20T10:57:47.963000+00:00</time>
      </trkpt>
      <trkpt lat="47.29871" lon="-1.37374">
        <ele>48</ele>
        <time>2020-12-20T10:57:48.974000+00:00</time>
      </trkpt>
      <trkpt lat="0" lon="0">
        <time>2020-12-20T10:57:48.977000+00:00</time>
      </trkpt>
      <trkpt lat="0" lon="0">
        <time>2020-12-20T10:57:48.978000+00:00</time>
      </trkpt>
      <trkpt lat="47.2988" lon="-1.3736">
        <ele>48</ele>
        <time>2020-12-20T10:57:50.808000+00:00</time>
      </trkpt>
      <trkpt lat="0" lon="0">
        <time>2020-12-20T10:57:50.812000+00:00</time>
      </trkpt>
      <trkpt lat="0" lon="0">
        <time>2020-12-20T10:57:50.817000+00:00</time>
      </trkpt>
      <trkpt lat="47.29885" lon="-1.37353">
        <ele>47</ele>
        <time>2020-12-20T10:57:51.825000+00:00</time>
      </trkpt>
      <trkpt lat="0" lon="0">
        <time>2020-12-20T10:57:51.827000+00:00</time>
      </trkpt>
      <trkpt lat="0" lon="0">
        <time>2020-12-20T10:57:51.828000+00:00</time>
      </trkpt>
      <trkpt lat="0" lon="0">
        <time>2020-12-20T10:57:51.829000+00:00</time>
      </trkpt>
      <trkpt lat="47.2989" lon="-1.37347">
        <ele>47</ele>
        <time>2020-12-20T10:57:52.821000+00:00</time>
      </trkpt>
      <trkpt lat="0" lon="0">
        <time>2020-12-20T10:57:52.826000+00:00</time>
      </trkpt>
      <trkpt lat="0" lon="0">
        <time>2020-12-20T10:57:52.829000+00:00</time>
      </trkpt>
      <trkpt lat="0" lon="0">
        <time>2020-12-20T10:57:52.830000+00:00</time>
      </trkpt>
      <trkpt lat="47.29895" lon="-1.3734">
        <ele>47</ele>
        <time>2020-12-20T10:57:53.822000+00:00</time>
      </trkpt>
      <trkpt lat="0" lon="0">
        <time>2020-12-20T10:57:53.826000+00:00</time>
      </trkpt>
      <trkpt lat="0" lon="0">
        <time>2020-12-20T10:57:53.827000+00:00</time>
      </trkpt>
      <trkpt lat="0" lon="0">
        <time>2020-12-20T10:57:53.828000+00:00</time>
      </trkpt>
      <trkpt lat="47.29899" lon="-1.37334">
        <ele>47</ele>
        <time>2020-12-20T10:57:54.814000+00:00</time>
      </trkpt>
      <trkpt lat="0" lon="0">
        <time>2020-12-20T10:57:54.815000+00:00</time>
      </trkpt>
      <trkpt lat="0" lon="0">
        <time>2020-12-20T10:57:54.818000+00:00</time>
      </trkpt>
      <trkpt lat="47.29904" lon="-1.37327">
        <ele>46</ele>
        <time>2020-12-20T10:57:55.817000+00:00</time>
      </trkpt>
      <trkpt lat="0" lon="0">
        <time>2020-12-20T10:57:55.819000+00:00</time>
      </trkpt>
      <trkpt lat="0" lon="0">
        <time>2020-12-20T10:57:55.820000+00:00</time>
      </trkpt>
      <trkpt lat="0" lon="0">
        <time>2020-12-20T10:57:55.821000+00:00</time>
      </trkpt>
      <trkpt lat="47.29909" lon="-1.37321">
        <ele>46</ele>
        <time>2020-12-20T10:57:56.818000+00:00</time>
      </trkpt>
      <trkpt lat="0" lon="0">
        <time>2020-12-20T10:57:56.819000+00:00</time>
      </trkpt>
      <trkpt lat="0" lon="0">
        <time>2020-12-20T10:57:56.823000+00:00</time>
      </trkpt>
      <trkpt lat="47.29913" lon="-1.37315">
        <ele>46</ele>
        <time>2020-12-20T10:57:57.822000+00:00</time>
      </trkpt>
      <trkpt lat="0" lon="0">
        <time>2020-12-20T10:57:57.824000+00:00</time>
      </trkpt>
      <trkpt lat="0" lon="0">
        <time>2020-12-20T10:57:57.828000+00:00</time>
      </trkpt>
      <trkpt lat="0" lon="0">
        <time>2020-12-20T10:57:57.830000+00:00</time>
      </trkpt>
      <trkpt lat="47.29917" lon="-1.37309">
        <ele>46</ele>
        <time>2020-12-20T10:57:58.810000+00:00</time>
      </trkpt>
      <trkpt lat="0" lon="0">
        <time>2020-12-20T10:57:58.811000+00:00</time>
      </trkpt>
      <trkpt lat="0" lon="0">
        <time>2020-12-20T10:57:58.813000+00:00</time>
      </trkpt>
      <trkpt lat="0" lon="0">
        <time>2020-12-20T10:57:58.814000+00:00</time>
      </trkpt>
      <trkpt lat="47.29921" lon="-1.37303">
        <ele>46</ele>
        <time>2020-12-20T10:57:59.812000+00:00</time>
      </trkpt>
      <trkpt lat="0" lon="0">
        <time>2020-12-20T10:57:59.814000+00:00</time>
      </trkpt>
      <trkpt lat="0" lon="0">
        <time>2020-12-20T10:57:59.816000+00:00</time>
      </trkpt>
      <trkpt lat="47.29925" lon="-1.37297">
        <ele>47</ele>
        <time>2020-12-20T10:58:00.923000+00:00</time>
      </trkpt>
      <trkpt lat="0" lon="0">
        <time>2020-12-20T10:58:00.933000+00:00</time>
      </trkpt>
      <trkpt lat="0" lon="0">
        <time>2020-12-20T10:58:00.935000+00:00</time>
      </trkpt>
      <trkpt lat="0" lon="0">
        <time>2020-12-20T10:58:00.936000+00:00</time>
      </trkpt>
      <trkpt lat="47.29929" lon="-1.37291">
        <ele>46</ele>
        <time>2020-12-20T10:58:01.951000+00:00</time>
      </trkpt>
      <trkpt lat="0" lon="0">
        <time>2020-12-20T10:58:01.971000+00:00</time>
      </trkpt>
      <trkpt lat="0" lon="0">
        <time>2020-12-20T10:58:01.976000+00:00</time>
      </trkpt>
      <trkpt lat="0" lon="0">
        <time>2020-12-20T10:58:01.978000+00:00</time>
      </trkpt>
      <trkpt lat="47.29933" lon="-1.37285">
        <ele>47</ele>
        <time>2020-12-20T10:58:02.900000+00:00</time>
      </trkpt>
      <trkpt lat="0" lon="0">
        <time>2020-12-20T10:58:02.905000+00:00</time>
      </trkpt>
      <trkpt lat="0" lon="0">
        <time>2020-12-20T10:58:02.906000+00:00</time>
      </trkpt>
      <trkpt lat="47.29937" lon="-1.37279">
        <ele>47</ele>
        <time>2020-12-20T10:58:03.961000+00:00</time>
      </trkpt>
      <trkpt lat="0" lon="0">
        <time>2020-12-20T10:58:03.973000+00:00</time>
      </trkpt>
      <trkpt lat="0" lon="0">
        <time>2020-12-20T10:58:03.977000+00:00</time>
      </trkpt>
      <trkpt lat="0" lon="0">
        <time>2020-12-20T10:58:03.979000+00:00</time>
      </trkpt>
      <trkpt lat="47.29941" lon="-1.37273">
        <ele>47</ele>
        <time>2020-12-20T10:58:04.856000+00:00</time>
      </trkpt>
      <trkpt lat="0" lon="0">
        <time>2020-12-20T10:58:04.861000+00:00</time>
      </trkpt>
      <trkpt lat="0" lon="0">
        <time>2020-12-20T10:58:04.871000+00:00</time>
      </trkpt>
      <trkpt lat="0" lon="0">
        <time>2020-12-20T10:58:04.874000+00:00</time>
      </trkpt>
      <trkpt lat="47.29945" lon="-1.37266">
        <ele>47</ele>
        <time>2020-12-20T10:58:05.908000+00:00</time>
      </trkpt>
      <trkpt lat="0" lon="0">
        <time>2020-12-20T10:58:05.914000+00:00</time>
      </trkpt>
      <trkpt lat="0" lon="0">
        <time>2020-12-20T10:58:05.916000+00:00</time>
      </trkpt>
      <trkpt lat="0" lon="0">
        <time>2020-12-20T10:58:05.917000+00:00</time>
      </trkpt>
      <trkpt lat="47.29949" lon="-1.37259">
        <ele>47</ele>
        <time>2020-12-20T10:58:06.820000+00:00</time>
      </trkpt>
      <trkpt lat="0" lon="0">
        <time>2020-12-20T10:58:06.825000+00:00</time>
      </trkpt>
      <trkpt lat="0" lon="0">
        <time>2020-12-20T10:58:06.826000+00:00</time>
      </trkpt>
      <trkpt lat="0" lon="0">
        <time>2020-12-20T10:58:06.827000+00:00</time>
      </trkpt>
      <trkpt lat="47.29953" lon="-1.37253">
        <ele>47</ele>
        <time>2020-12-20T10:58:07.816000+00:00</time>
      </trkpt>
      <trkpt lat="0" lon="0">
        <time>2020-12-20T10:58:07.817000+00:00</time>
      </trkpt>
      <trkpt lat="0" lon="0">
        <time>2020-12-20T10:58:07.819000+00:00</time>
      </trkpt>
      <trkpt lat="0" lon="0">
        <time>2020-12-20T10:58:07.820000+00:00</time>
      </trkpt>
      <trkpt lat="47.29957" lon="-1.37246">
        <ele>47</ele>
        <time>2020-12-20T10:58:08.784000+00:00</time>
      </trkpt>
      <trkpt lat="0" lon="0">
        <time>2020-12-20T10:58:08.786000+00:00</time>
      </trkpt>
      <trkpt lat="0" lon="0">
        <time>2020-12-20T10:58:08.787000+00:00</time>
      </trkpt>
      <trkpt lat="0" lon="0">
        <time>2020-12-20T10:58:08.789000+00:00</time>
      </trkpt>
      <trkpt lat="47.2996" lon="-1.3724">
        <ele>47</ele>
        <time>2020-12-20T10:58:09.806000+00:00</time>
      </trkpt>
      <trkpt lat="0" lon="0">
        <time>2020-12-20T10:58:09.809000+00:00</time>
      </trkpt>
      <trkpt lat="0" lon="0">
        <time>2020-12-20T10:58:09.810000+00:00</time>
      </trkpt>
      <trkpt lat="0" lon="0">
        <time>2020-12-20T10:58:09.811000+00:00</time>
      </trkpt>
      <trkpt lat="47.29964" lon="-1.37233">
        <ele>47</ele>
        <time>2020-12-20T10:58:10.821000+00:00</time>
      </trkpt>
      <trkpt lat="0" lon="0">
        <time>2020-12-20T10:58:10.830000+00:00</time>
      </trkpt>
      <trkpt lat="0" lon="0">
        <time>2020-12-20T10:58:10.834000+00:00</time>
      </trkpt>
      <trkpt lat="0" lon="0">
        <time>2020-12-20T10:58:10.835000+00:00</time>
      </trkpt>
      <trkpt lat="47.29968" lon="-1.37227">
        <ele>47</ele>
        <time>2020-12-20T10:58:11.812000+00:00</time>
      </trkpt>
      <trkpt lat="0" lon="0">
        <time>2020-12-20T10:58:11.822000+00:00</time>
      </trkpt>
      <trkpt lat="0" lon="0">
        <time>2020-12-20T10:58:11.824000+00:00</time>
      </trkpt>
      <trkpt lat="0" lon="0">
        <time>2020-12-20T10:58:11.825000+00:00</time>
      </trkpt>
      <trkpt lat="47.29972" lon="-1.37221">
        <ele>47</ele>
        <time>2020-12-20T10:58:12.817000+00:00</time>
      </trkpt>
      <trkpt lat="0" lon="0">
        <time>2020-12-20T10:58:12.823000+00:00</time>
      </trkpt>
      <trkpt lat="0" lon="0">
        <time>2020-12-20T10:58:12.825000+00:00</time>
      </trkpt>
      <trkpt lat="47.29976" lon="-1.37215">
        <ele>46</ele>
        <time>2020-12-20T10:58:13.832000+00:00</time>
      </trkpt>
      <trkpt lat="0" lon="0">
        <time>2020-12-20T10:58:13.834000+00:00</time>
      </trkpt>
      <trkpt lat="0" lon="0">
        <time>2020-12-20T10:58:13.837000+00:00</time>
      </trkpt>
      <trkpt lat="0" lon="0">
        <time>2020-12-20T10:58:13.838000+00:00</time>
      </trkpt>
      <trkpt lat="47.2998" lon="-1.3721">
        <ele>47</ele>
        <time>2020-12-20T10:58:14.942000+00:00</time>
      </trkpt>
      <trkpt lat="0" lon="0">
        <time>2020-12-20T10:58:14.950000+00:00</time>
      </trkpt>
      <trkpt lat="0" lon="0">
        <time>2020-12-20T10:58:14.957000+00:00</time>
      </trkpt>
      <trkpt lat="0" lon="0">
        <time>2020-12-20T10:58:14.965000+00:00</time>
      </trkpt>
      <trkpt lat="47.29984" lon="-1.37205">
        <ele>47</ele>
        <time>2020-12-20T10:58:15.977000+00:00</time>
      </trkpt>
      <trkpt lat="0" lon="0">
        <time>2020-12-20T10:58:15.995000+00:00</time>
      </trkpt>
      <trkpt lat="0" lon="0">
        <time>2020-12-20T10:58:16.002000+00:00</time>
      </trkpt>
      <trkpt lat="0" lon="0">
        <time>2020-12-20T10:58:16.004000+00:00</time>
      </trkpt>
      <trkpt lat="47.29987" lon="-1.37199">
        <ele>46</ele>
        <time>2020-12-20T10:58:16.979000+00:00</time>
      </trkpt>
      <trkpt lat="0" lon="0">
        <time>2020-12-20T10:58:17.001000+00:00</time>
      </trkpt>
      <trkpt lat="0" lon="0">
        <time>2020-12-20T10:58:17.005000+00:00</time>
      </trkpt>
      <trkpt lat="0" lon="0">
        <time>2020-12-20T10:58:17.009000+00:00</time>
      </trkpt>
      <trkpt lat="47.2999" lon="-1.37195">
        <ele>46</ele>
        <time>2020-12-20T10:58:17.946000+00:00</time>
      </trkpt>
      <trkpt lat="0" lon="0">
        <time>2020-12-20T10:58:17.967000+00:00</time>
      </trkpt>
      <trkpt lat="0" lon="0">
        <time>2020-12-20T10:58:17.976000+00:00</time>
      </trkpt>
      <trkpt lat="0" lon="0">
        <time>2020-12-20T10:58:17.978000+00:00</time>
      </trkpt>
      <trkpt lat="47.29993" lon="-1.37191">
        <ele>46</ele>
        <time>2020-12-20T10:58:18.937000+00:00</time>
      </trkpt>
      <trkpt lat="0" lon="0">
        <time>2020-12-20T10:58:18.942000+00:00</time>
      </trkpt>
      <trkpt lat="0" lon="0">
        <time>2020-12-20T10:58:18.950000+00:00</time>
      </trkpt>
      <trkpt lat="0" lon="0">
        <time>2020-12-20T10:58:18.953000+00:00</time>
      </trkpt>
      <trkpt lat="47.29995" lon="-1.37189">
        <ele>46</ele>
        <time>2020-12-20T10:58:19.871000+00:00</time>
      </trkpt>
      <trkpt lat="0" lon="0">
        <time>2020-12-20T10:58:19.877000+00:00</time>
      </trkpt>
      <trkpt lat="0" lon="0">
        <time>2020-12-20T10:58:19.884000+00:00</time>
      </trkpt>
      <trkpt lat="47.29997" lon="-1.37188">
        <ele>46</ele>
        <time>2020-12-20T10:58:20.897000+00:00</time>
      </trkpt>
      <trkpt lat="0" lon="0">
        <time>2020-12-20T10:58:20.918000+00:00</time>
      </trkpt>
      <trkpt lat="0" lon="0">
        <time>2020-12-20T10:58:20.922000+00:00</time>
      </trkpt>
      <trkpt lat="0" lon="0">
        <time>2020-12-20T10:58:20.929000+00:00</time>
      </trkpt>
      <trkpt lat="47.29999" lon="-1.37188">
        <ele>46</ele>
        <time>2020-12-20T10:58:21.878000+00:00</time>
      </trkpt>
      <trkpt lat="0" lon="0">
        <time>2020-12-20T10:58:21.884000+00:00</time>
      </trkpt>
      <trkpt lat="0" lon="0">
        <time>2020-12-20T10:58:21.886000+00:00</time>
      </trkpt>
      <trkpt lat="47.3" lon="-1.3719">
        <ele>46</ele>
        <time>2020-12-20T10:58:22.791000+00:00</time>
      </trkpt>
      <trkpt lat="0" lon="0">
        <time>2020-12-20T10:58:22.793000+00:00</time>
      </trkpt>
      <trkpt lat="0" lon="0">
        <time>2020-12-20T10:58:22.794000+00:00</time>
      </trkpt>
      <trkpt lat="0" lon="0">
        <time>2020-12-20T10:58:22.795000+00:00</time>
      </trkpt>
      <trkpt lat="47.30001" lon="-1.37192">
        <ele>46</ele>
        <time>2020-12-20T10:58:23.798000+00:00</time>
      </trkpt>
      <trkpt lat="0" lon="0">
        <time>2020-12-20T10:58:23.802000+00:00</time>
      </trkpt>
      <trkpt lat="0" lon="0">
        <time>2020-12-20T10:58:23.803000+00:00</time>
      </trkpt>
      <trkpt lat="0" lon="0">
        <time>2020-12-20T10:58:23.804000+00:00</time>
      </trkpt>
      <trkpt lat="47.30002" lon="-1.37194">
        <ele>46</ele>
        <time>2020-12-20T10:58:24.800000+00:00</time>
      </trkpt>
      <trkpt lat="0" lon="0">
        <time>2020-12-20T10:58:24.801000+00:00</time>
      </trkpt>
      <trkpt lat="0" lon="0">
        <time>2020-12-20T10:58:24.802000+00:00</time>
      </trkpt>
      <trkpt lat="0" lon="0">
        <time>2020-12-20T10:58:24.803000+00:00</time>
      </trkpt>
      <trkpt lat="47.30003" lon="-1.37197">
        <ele>46</ele>
        <time>2020-12-20T10:58:25.809000+00:00</time>
      </trkpt>
      <trkpt lat="0" lon="0">
        <time>2020-12-20T10:58:25.810000+00:00</time>
      </trkpt>
      <trkpt lat="0" lon="0">
        <time>2020-12-20T10:58:25.811000+00:00</time>
      </trkpt>
      <trkpt lat="0" lon="0">
        <time>2020-12-20T10:58:25.812000+00:00</time>
      </trkpt>
      <trkpt lat="47.30005" lon="-1.37199">
        <ele>46</ele>
        <time>2020-12-20T10:58:26.820000+00:00</time>
      </trkpt>
      <trkpt lat="0" lon="0">
        <time>2020-12-20T10:58:26.821000+00:00</time>
      </trkpt>
      <trkpt lat="0" lon="0">
        <time>2020-12-20T10:58:26.824000+00:00</time>
      </trkpt>
      <trkpt lat="0" lon="0">
        <time>2020-12-20T10:58:26.825000+00:00</time>
      </trkpt>
      <trkpt lat="47.30006" lon="-1.37203">
        <ele>47</ele>
        <time>2020-12-20T10:58:27.838000+00:00</time>
      </trkpt>
      <trkpt lat="0" lon="0">
        <time>2020-12-20T10:58:27.840000+00:00</time>
      </trkpt>
      <trkpt lat="0" lon="0">
        <time>2020-12-20T10:58:27.846000+00:00</time>
      </trkpt>
      <trkpt lat="0" lon="0">
        <time>2020-12-20T10:58:27.847000+00:00</time>
      </trkpt>
      <trkpt lat="47.30007" lon="-1.37207">
        <ele>47</ele>
        <time>2020-12-20T10:58:28.805000+00:00</time>
      </trkpt>
      <trkpt lat="0" lon="0">
        <time>2020-12-20T10:58:28.809000+00:00</time>
      </trkpt>
      <trkpt lat="0" lon="0">
        <time>2020-12-20T10:58:28.812000+00:00</time>
      </trkpt>
      <trkpt lat="0" lon="0">
        <time>2020-12-20T10:58:28.813000+00:00</time>
      </trkpt>
      <trkpt lat="47.30008" lon="-1.37211">
        <ele>48</ele>
        <time>2020-12-20T10:58:29.806000+00:00</time>
      </trkpt>
      <trkpt lat="0" lon="0">
        <time>2020-12-20T10:58:29.808000+00:00</time>
      </trkpt>
      <trkpt lat="0" lon="0">
        <time>2020-12-20T10:58:29.809000+00:00</time>
      </trkpt>
      <trkpt lat="0" lon="0">
        <time>2020-12-20T10:58:29.810000+00:00</time>
      </trkpt>
      <trkpt lat="47.30008" lon="-1.37215">
        <ele>48</ele>
        <time>2020-12-20T10:58:30.779000+00:00</time>
      </trkpt>
      <trkpt lat="0" lon="0">
        <time>2020-12-20T10:58:30.780000+00:00</time>
      </trkpt>
      <trkpt lat="0" lon="0">
        <time>2020-12-20T10:58:30.782000+00:00</time>
      </trkpt>
      <trkpt lat="47.30009" lon="-1.3722">
        <ele>48</ele>
        <time>2020-12-20T10:58:31.828000+00:00</time>
      </trkpt>
      <trkpt lat="0" lon="0">
        <time>2020-12-20T10:58:31.834000+00:00</time>
      </trkpt>
      <trkpt lat="0" lon="0">
        <time>2020-12-20T10:58:31.835000+00:00</time>
      </trkpt>
      <trkpt lat="0" lon="0">
        <time>2020-12-20T10:58:31.836000+00:00</time>
      </trkpt>
      <trkpt lat="47.30011" lon="-1.37224">
        <ele>48</ele>
        <time>2020-12-20T10:58:32.801000+00:00</time>
      </trkpt>
      <trkpt lat="0" lon="0">
        <time>2020-12-20T10:58:32.803000+00:00</time>
      </trkpt>
      <trkpt lat="0" lon="0">
        <time>2020-12-20T10:58:32.804000+00:00</time>
      </trkpt>
      <trkpt lat="0" lon="0">
        <time>2020-12-20T10:58:32.805000+00:00</time>
      </trkpt>
      <trkpt lat="47.30012" lon="-1.37229">
        <ele>49</ele>
        <time>2020-12-20T10:58:33.853000+00:00</time>
      </trkpt>
      <trkpt lat="0" lon="0">
        <time>2020-12-20T10:58:33.855000+00:00</time>
      </trkpt>
      <trkpt lat="0" lon="0">
        <time>2020-12-20T10:58:33.857000+00:00</time>
      </trkpt>
      <trkpt lat="0" lon="0">
        <time>2020-12-20T10:58:33.858000+00:00</time>
      </trkpt>
      <trkpt lat="47.30013" lon="-1.37233">
        <ele>49</ele>
        <time>2020-12-20T10:58:34.902000+00:00</time>
      </trkpt>
      <trkpt lat="0" lon="0">
        <time>2020-12-20T10:58:34.913000+00:00</time>
      </trkpt>
      <trkpt lat="0" lon="0">
        <time>2020-12-20T10:58:34.917000+00:00</time>
      </trkpt>
      <trkpt lat="0" lon="0">
        <time>2020-12-20T10:58:34.920000+00:00</time>
      </trkpt>
      <trkpt lat="47.30014" lon="-1.37236">
        <ele>49</ele>
        <time>2020-12-20T10:58:35.903000+00:00</time>
      </trkpt>
      <trkpt lat="0" lon="0">
        <time>2020-12-20T10:58:35.914000+00:00</time>
      </trkpt>
      <trkpt lat="0" lon="0">
        <time>2020-12-20T10:58:35.919000+00:00</time>
      </trkpt>
      <trkpt lat="0" lon="0">
        <time>2020-12-20T10:58:35.922000+00:00</time>
      </trkpt>
      <trkpt lat="47.30016" lon="-1.37239">
        <ele>49</ele>
        <time>2020-12-20T10:58:36.929000+00:00</time>
      </trkpt>
      <trkpt lat="0" lon="0">
        <time>2020-12-20T10:58:36.943000+00:00</time>
      </trkpt>
      <trkpt lat="0" lon="0">
        <time>2020-12-20T10:58:36.948000+00:00</time>
      </trkpt>
      <trkpt lat="0" lon="0">
        <time>2020-12-20T10:58:36.951000+00:00</time>
      </trkpt>
      <trkpt lat="47.30018" lon="-1.37242">
        <ele>49</ele>
        <time>2020-12-20T10:58:37.960000+00:00</time>
      </trkpt>
      <trkpt lat="0" lon="0">
        <time>2020-12-20T10:58:37.972000+00:00</time>
      </trkpt>
      <trkpt lat="0" lon="0">
        <time>2020-12-20T10:58:37.980000+00:00</time>
      </trkpt>
      <trkpt lat="0" lon="0">
        <time>2020-12-20T10:58:37.983000+00:00</time>
      </trkpt>
      <trkpt lat="47.3002" lon="-1.37244">
        <ele>50</ele>
        <time>2020-12-20T10:58:38.957000+00:00</time>
      </trkpt>
      <trkpt lat="0" lon="0">
        <time>2020-12-20T10:58:38.975000+00:00</time>
      </trkpt>
      <trkpt lat="0" lon="0">
        <time>2020-12-20T10:58:38.980000+00:00</time>
      </trkpt>
      <trkpt lat="0" lon="0">
        <time>2020-12-20T10:58:38.982000+00:00</time>
      </trkpt>
      <trkpt lat="47.30022" lon="-1.37247">
        <ele>50</ele>
        <time>2020-12-20T10:58:39.920000+00:00</time>
      </trkpt>
      <trkpt lat="0" lon="0">
        <time>2020-12-20T10:58:39.932000+00:00</time>
      </trkpt>
      <trkpt lat="0" lon="0">
        <time>2020-12-20T10:58:39.934000+00:00</time>
      </trkpt>
      <trkpt lat="0" lon="0">
        <time>2020-12-20T10:58:39.935000+00:00</time>
      </trkpt>
      <trkpt lat="47.30025" lon="-1.37249">
        <ele>50</ele>
        <time>2020-12-20T10:58:40.929000+00:00</time>
      </trkpt>
      <trkpt lat="0" lon="0">
        <time>2020-12-20T10:58:40.937000+00:00</time>
      </trkpt>
      <trkpt lat="0" lon="0">
        <time>2020-12-20T10:58:40.941000+00:00</time>
      </trkpt>
      <trkpt lat="0" lon="0">
        <time>2020-12-20T10:58:40.943000+00:00</time>
      </trkpt>
      <trkpt lat="47.30027" lon="-1.37252">
        <ele>51</ele>
        <time>2020-12-20T10:58:41.991000+00:00</time>
      </trkpt>
      <trkpt lat="0" lon="0">
        <time>2020-12-20T10:58:42.005000+00:00</time>
      </trkpt>
      <trkpt lat="0" lon="0">
        <time>2020-12-20T10:58:42.011000+00:00</time>
      </trkpt>
      <trkpt lat="0" lon="0">
        <time>2020-12-20T10:58:42.014000+00:00</time>
      </trkpt>
      <trkpt lat="47.30029" lon="-1.37255">
        <ele>51</ele>
        <time>2020-12-20T10:58:42.950000+00:00</time>
      </trkpt>
      <trkpt lat="0" lon="0">
        <time>2020-12-20T10:58:42.957000+00:00</time>
      </trkpt>
      <trkpt lat="0" lon="0">
        <time>2020-12-20T10:58:42.961000+00:00</time>
      </trkpt>
      <trkpt lat="0" lon="0">
        <time>2020-12-20T10:58:42.963000+00:00</time>
      </trkpt>
      <trkpt lat="47.30032" lon="-1.37258">
        <ele>51</ele>
        <time>2020-12-20T10:58:43.917000+00:00</time>
      </trkpt>
      <trkpt lat="0" lon="0">
        <time>2020-12-20T10:58:43.941000+00:00</time>
      </trkpt>
      <trkpt lat="0" lon="0">
        <time>2020-12-20T10:58:43.945000+00:00</time>
      </trkpt>
      <trkpt lat="0" lon="0">
        <time>2020-12-20T10:58:43.947000+00:00</time>
      </trkpt>
      <trkpt lat="47.30034" lon="-1.37261">
        <ele>52</ele>
        <time>2020-12-20T10:58:44.818000+00:00</time>
      </trkpt>
      <trkpt lat="0" lon="0">
        <time>2020-12-20T10:58:44.819000+00:00</time>
      </trkpt>
      <trkpt lat="0" lon="0">
        <time>2020-12-20T10:58:44.823000+00:00</time>
      </trkpt>
      <trkpt lat="0" lon="0">
        <time>2020-12-20T10:58:44.824000+00:00</time>
      </trkpt>
      <trkpt lat="47.30036" lon="-1.37263">
        <ele>52</ele>
        <time>2020-12-20T10:58:45.824000+00:00</time>
      </trkpt>
      <trkpt lat="0" lon="0">
        <time>2020-12-20T10:58:45.830000+00:00</time>
      </trkpt>
      <trkpt lat="0" lon="0">
        <time>2020-12-20T10:58:45.836000+00:00</time>
      </trkpt>
      <trkpt lat="0" lon="0">
        <time>2020-12-20T10:58:45.838000+00:00</time>
      </trkpt>
      <trkpt lat="47.30039" lon="-1.37266">
        <ele>52</ele>
        <time>2020-12-20T10:58:46.821000+00:00</time>
      </trkpt>
      <trkpt lat="0" lon="0">
        <time>2020-12-20T10:58:46.822000+00:00</time>
      </trkpt>
      <trkpt lat="0" lon="0">
        <time>2020-12-20T10:58:46.824000+00:00</time>
      </trkpt>
      <trkpt lat="0" lon="0">
        <time>2020-12-20T10:58:46.825000+00:00</time>
      </trkpt>
      <trkpt lat="47.30041" lon="-1.37268">
        <ele>52</ele>
        <time>2020-12-20T10:58:47.816000+00:00</time>
      </trkpt>
      <trkpt lat="0" lon="0">
        <time>2020-12-20T10:58:47.817000+00:00</time>
      </trkpt>
      <trkpt lat="0" lon="0">
        <time>2020-12-20T10:58:47.820000+00:00</time>
      </trkpt>
      <trkpt lat="0" lon="0">
        <time>2020-12-20T10:58:47.821000+00:00</time>
      </trkpt>
      <trkpt lat="47.30044" lon="-1.3727">
        <ele>52</ele>
        <time>2020-12-20T10:58:48.811000+00:00</time>
      </trkpt>
      <trkpt lat="0" lon="0">
        <time>2020-12-20T10:58:48.813000+00:00</time>
      </trkpt>
      <trkpt lat="0" lon="0">
        <time>2020-12-20T10:58:48.816000+00:00</time>
      </trkpt>
      <trkpt lat="0" lon="0">
        <time>2020-12-20T10:58:48.817000+00:00</time>
      </trkpt>
      <trkpt lat="47.30046" lon="-1.37271">
        <ele>52</ele>
        <time>2020-12-20T10:58:49.802000+00:00</time>
      </trkpt>
      <trkpt lat="0" lon="0">
        <time>2020-12-20T10:58:49.804000+00:00</time>
      </trkpt>
      <trkpt lat="0" lon="0">
        <time>2020-12-20T10:58:49.807000+00:00</time>
      </trkpt>
      <trkpt lat="47.30049" lon="-1.37272">
        <ele>53</ele>
        <time>2020-12-20T10:58:50.812000+00:00</time>
      </trkpt>
      <trkpt lat="0" lon="0">
        <time>2020-12-20T10:58:50.814000+00:00</time>
      </trkpt>
      <trkpt lat="0" lon="0">
        <time>2020-12-20T10:58:50.817000+00:00</time>
      </trkpt>
      <trkpt lat="47.30051" lon="-1.37273">
        <ele>53</ele>
        <time>2020-12-20T10:58:51.831000+00:00</time>
      </trkpt>
      <trkpt lat="0" lon="0">
        <time>2020-12-20T10:58:51.832000+00:00</time>
      </trkpt>
      <trkpt lat="0" lon="0">
        <time>2020-12-20T10:58:51.834000+00:00</time>
      </trkpt>
      <trkpt lat="47.30053" lon="-1.37273">
        <ele>53</ele>
        <time>2020-12-20T10:58:52.852000+00:00</time>
      </trkpt>
      <trkpt lat="0" lon="0">
        <time>2020-12-20T10:58:52.857000+00:00</time>
      </trkpt>
      <trkpt lat="0" lon="0">
        <time>2020-12-20T10:58:52.858000+00:00</time>
      </trkpt>
      <trkpt lat="0" lon="0">
        <time>2020-12-20T10:58:52.859000+00:00</time>
      </trkpt>
      <trkpt lat="47.30055" lon="-1.37272">
        <ele>54</ele>
        <time>2020-12-20T10:58:53.847000+00:00</time>
      </trkpt>
      <trkpt lat="0" lon="0">
        <time>2020-12-20T10:58:53.850000+00:00</time>
      </trkpt>
      <trkpt lat="0" lon="0">
        <time>2020-12-20T10:58:53.856000+00:00</time>
      </trkpt>
      <trkpt lat="0" lon="0">
        <time>2020-12-20T10:58:53.858000+00:00</time>
      </trkpt>
      <trkpt lat="47.30057" lon="-1.37272">
        <ele>54</ele>
        <time>2020-12-20T10:58:54.842000+00:00</time>
      </trkpt>
      <trkpt lat="0" lon="0">
        <time>2020-12-20T10:58:54.843000+00:00</time>
      </trkpt>
      <trkpt lat="0" lon="0">
        <time>2020-12-20T10:58:54.848000+00:00</time>
      </trkpt>
      <trkpt lat="0" lon="0">
        <time>2020-12-20T10:58:54.849000+00:00</time>
      </trkpt>
      <trkpt lat="47.30059" lon="-1.37272">
        <ele>54</ele>
        <time>2020-12-20T10:58:55.844000+00:00</time>
      </trkpt>
      <trkpt lat="0" lon="0">
        <time>2020-12-20T10:58:55.848000+00:00</time>
      </trkpt>
      <trkpt lat="0" lon="0">
        <time>2020-12-20T10:58:55.850000+00:00</time>
      </trkpt>
      <trkpt lat="47.3006" lon="-1.37271">
        <ele>55</ele>
        <time>2020-12-20T10:58:56.833000+00:00</time>
      </trkpt>
      <trkpt lat="0" lon="0">
        <time>2020-12-20T10:58:56.839000+00:00</time>
      </trkpt>
      <trkpt lat="0" lon="0">
        <time>2020-12-20T10:58:56.847000+00:00</time>
      </trkpt>
      <trkpt lat="0" lon="0">
        <time>2020-12-20T10:58:56.848000+00:00</time>
      </trkpt>
      <trkpt lat="47.30062" lon="-1.37271">
        <ele>55</ele>
        <time>2020-12-20T10:58:57.841000+00:00</time>
      </trkpt>
      <trkpt lat="0" lon="0">
        <time>2020-12-20T10:58:57.845000+00:00</time>
      </trkpt>
      <trkpt lat="0" lon="0">
        <time>2020-12-20T10:58:57.850000+00:00</time>
      </trkpt>
      <trkpt lat="0" lon="0">
        <time>2020-12-20T10:58:57.852000+00:00</time>
      </trkpt>
      <trkpt lat="47.30063" lon="-1.37271">
        <ele>55</ele>
        <time>2020-12-20T10:58:58.824000+00:00</time>
      </trkpt>
      <trkpt lat="0" lon="0">
        <time>2020-12-20T10:58:58.828000+00:00</time>
      </trkpt>
      <trkpt lat="0" lon="0">
        <time>2020-12-20T10:58:58.833000+00:00</time>
      </trkpt>
      <trkpt lat="0" lon="0">
        <time>2020-12-20T10:58:58.835000+00:00</time>
      </trkpt>
      <trkpt lat="47.30065" lon="-1.37271">
        <ele>56</ele>
        <time>2020-12-20T10:58:59.848000+00:00</time>
      </trkpt>
      <trkpt lat="0" lon="0">
        <time>2020-12-20T10:58:59.853000+00:00</time>
      </trkpt>
      <trkpt lat="0" lon="0">
        <time>2020-12-20T10:58:59.854000+00:00</time>
      </trkpt>
      <trkpt lat="0" lon="0">
        <time>2020-12-20T10:58:59.855000+00:00</time>
      </trkpt>
      <trkpt lat="47.30066" lon="-1.3727">
        <ele>56</ele>
        <time>2020-12-20T10:59:00.841000+00:00</time>
      </trkpt>
      <trkpt lat="0" lon="0">
        <time>2020-12-20T10:59:00.845000+00:00</time>
      </trkpt>
      <trkpt lat="0" lon="0">
        <time>2020-12-20T10:59:00.856000+00:00</time>
      </trkpt>
      <trkpt lat="0" lon="0">
        <time>2020-12-20T10:59:00.857000+00:00</time>
      </trkpt>
      <trkpt lat="47.30068" lon="-1.3727">
        <ele>56</ele>
        <time>2020-12-20T10:59:01.858000+00:00</time>
      </trkpt>
      <trkpt lat="0" lon="0">
        <time>2020-12-20T10:59:01.864000+00:00</time>
      </trkpt>
      <trkpt lat="0" lon="0">
        <time>2020-12-20T10:59:01.868000+00:00</time>
      </trkpt>
      <trkpt lat="47.30069" lon="-1.3727">
        <ele>56</ele>
        <time>2020-12-20T10:59:02.821000+00:00</time>
      </trkpt>
      <trkpt lat="0" lon="0">
        <time>2020-12-20T10:59:02.830000+00:00</time>
      </trkpt>
      <trkpt lat="0" lon="0">
        <time>2020-12-20T10:59:02.833000+00:00</time>
      </trkpt>
      <trkpt lat="0" lon="0">
        <time>2020-12-20T10:59:02.837000+00:00</time>
      </trkpt>
      <trkpt lat="47.30071" lon="-1.37269">
        <ele>56</ele>
        <time>2020-12-20T10:59:03.832000+00:00</time>
      </trkpt>
      <trkpt lat="0" lon="0">
        <time>2020-12-20T10:59:03.838000+00:00</time>
      </trkpt>
      <trkpt lat="0" lon="0">
        <time>2020-12-20T10:59:03.841000+00:00</time>
      </trkpt>
      <trkpt lat="0" lon="0">
        <time>2020-12-20T10:59:03.842000+00:00</time>
      </trkpt>
      <trkpt lat="47.30073" lon="-1.37269">
        <ele>57</ele>
        <time>2020-12-20T10:59:04.834000+00:00</time>
      </trkpt>
      <trkpt lat="0" lon="0">
        <time>2020-12-20T10:59:04.845000+00:00</time>
      </trkpt>
      <trkpt lat="0" lon="0">
        <time>2020-12-20T10:59:04.847000+00:00</time>
      </trkpt>
      <trkpt lat="0" lon="0">
        <time>2020-12-20T10:59:04.848000+00:00</time>
      </trkpt>
      <trkpt lat="47.30075" lon="-1.37268">
        <ele>57</ele>
        <time>2020-12-20T10:59:05.811000+00:00</time>
      </trkpt>
      <trkpt lat="0" lon="0">
        <time>2020-12-20T10:59:05.815000+00:00</time>
      </trkpt>
      <trkpt lat="0" lon="0">
        <time>2020-12-20T10:59:05.819000+00:00</time>
      </trkpt>
      <trkpt lat="0" lon="0">
        <time>2020-12-20T10:59:05.821000+00:00</time>
      </trkpt>
      <trkpt lat="47.30077" lon="-1.37266">
        <ele>58</ele>
        <time>2020-12-20T10:59:06.854000+00:00</time>
      </trkpt>
      <trkpt lat="0" lon="0">
        <time>2020-12-20T10:59:06.867000+00:00</time>
      </trkpt>
      <trkpt lat="0" lon="0">
        <time>2020-12-20T10:59:06.871000+00:00</time>
      </trkpt>
      <trkpt lat="0" lon="0">
        <time>2020-12-20T10:59:06.872000+00:00</time>
      </trkpt>
      <trkpt lat="47.30079" lon="-1.37265">
        <ele>58</ele>
        <time>2020-12-20T10:59:07.844000+00:00</time>
      </trkpt>
      <trkpt lat="0" lon="0">
        <time>2020-12-20T10:59:07.850000+00:00</time>
      </trkpt>
      <trkpt lat="0" lon="0">
        <time>2020-12-20T10:59:07.851000+00:00</time>
      </trkpt>
      <trkpt lat="0" lon="0">
        <time>2020-12-20T10:59:07.852000+00:00</time>
      </trkpt>
      <trkpt lat="47.30081" lon="-1.37263">
        <ele>58</ele>
        <time>2020-12-20T10:59:08.834000+00:00</time>
      </trkpt>
      <trkpt lat="0" lon="0">
        <time>2020-12-20T10:59:08.839000+00:00</time>
      </trkpt>
      <trkpt lat="0" lon="0">
        <time>2020-12-20T10:59:08.841000+00:00</time>
      </trkpt>
      <trkpt lat="0" lon="0">
        <time>2020-12-20T10:59:08.842000+00:00</time>
      </trkpt>
      <trkpt lat="47.30083" lon="-1.37261">
        <ele>58</ele>
        <time>2020-12-20T10:59:09.847000+00:00</time>
      </trkpt>
      <trkpt lat="0" lon="0">
        <time>2020-12-20T10:59:09.849000+00:00</time>
      </trkpt>
      <trkpt lat="0" lon="0">
        <time>2020-12-20T10:59:09.853000+00:00</time>
      </trkpt>
      <trkpt lat="0" lon="0">
        <time>2020-12-20T10:59:09.856000+00:00</time>
      </trkpt>
      <trkpt lat="47.30085" lon="-1.37259">
        <ele>58</ele>
        <time>2020-12-20T10:59:10.826000+00:00</time>
      </trkpt>
      <trkpt lat="0" lon="0">
        <time>2020-12-20T10:59:10.828000+00:00</time>
      </trkpt>
      <trkpt lat="0" lon="0">
        <time>2020-12-20T10:59:10.830000+00:00</time>
      </trkpt>
      <trkpt lat="0" lon="0">
        <time>2020-12-20T10:59:10.832000+00:00</time>
      </trkpt>
      <trkpt lat="47.30087" lon="-1.37258">
        <ele>58</ele>
        <time>2020-12-20T10:59:11.842000+00:00</time>
      </trkpt>
      <trkpt lat="0" lon="0">
        <time>2020-12-20T10:59:11.850000+00:00</time>
      </trkpt>
      <trkpt lat="0" lon="0">
        <time>2020-12-20T10:59:11.853000+00:00</time>
      </trkpt>
      <trkpt lat="0" lon="0">
        <time>2020-12-20T10:59:11.855000+00:00</time>
      </trkpt>
      <trkpt lat="47.30089" lon="-1.37256">
        <ele>59</ele>
        <time>2020-12-20T10:59:12.855000+00:00</time>
      </trkpt>
      <trkpt lat="0" lon="0">
        <time>2020-12-20T10:59:12.860000+00:00</time>
      </trkpt>
      <trkpt lat="0" lon="0">
        <time>2020-12-20T10:59:12.866000+00:00</time>
      </trkpt>
      <trkpt lat="0" lon="0">
        <time>2020-12-20T10:59:12.867000+00:00</time>
      </trkpt>
      <trkpt lat="47.30092" lon="-1.37255">
        <ele>59</ele>
        <time>2020-12-20T10:59:13.879000+00:00</time>
      </trkpt>
      <trkpt lat="0" lon="0">
        <time>2020-12-20T10:59:13.882000+00:00</time>
      </trkpt>
      <trkpt lat="0" lon="0">
        <time>2020-12-20T10:59:13.884000+00:00</time>
      </trkpt>
      <trkpt lat="0" lon="0">
        <time>2020-12-20T10:59:13.887000+00:00</time>
      </trkpt>
      <trkpt lat="47.30095" lon="-1.37253">
        <ele>59</ele>
        <time>2020-12-20T10:59:14.854000+00:00</time>
      </trkpt>
      <trkpt lat="0" lon="0">
        <time>2020-12-20T10:59:14.858000+00:00</time>
      </trkpt>
      <trkpt lat="0" lon="0">
        <time>2020-12-20T10:59:14.874000+00:00</time>
      </trkpt>
      <trkpt lat="0" lon="0">
        <time>2020-12-20T10:59:14.875000+00:00</time>
      </trkpt>
      <trkpt lat="47.30098" lon="-1.37252">
        <ele>59</ele>
        <time>2020-12-20T10:59:15.918000+00:00</time>
      </trkpt>
      <trkpt lat="0" lon="0">
        <time>2020-12-20T10:59:15.939000+00:00</time>
      </trkpt>
      <trkpt lat="0" lon="0">
        <time>2020-12-20T10:59:15.945000+00:00</time>
      </trkpt>
      <trkpt lat="0" lon="0">
        <time>2020-12-20T10:59:15.949000+00:00</time>
      </trkpt>
      <trkpt lat="47.301" lon="-1.37251">
        <ele>60</ele>
        <time>2020-12-20T10:59:16.852000+00:00</time>
      </trkpt>
      <trkpt lat="0" lon="0">
        <time>2020-12-20T10:59:16.856000+00:00</time>
      </trkpt>
      <trkpt lat="0" lon="0">
        <time>2020-12-20T10:59:16.857000+00:00</time>
      </trkpt>
      <trkpt lat="0" lon="0">
        <time>2020-12-20T10:59:16.858000+00:00</time>
      </trkpt>
      <trkpt lat="47.30103" lon="-1.37251">
        <ele>60</ele>
        <time>2020-12-20T10:59:17.952000+00:00</time>
      </trkpt>
      <trkpt lat="0" lon="0">
        <time>2020-12-20T10:59:17.956000+00:00</time>
      </trkpt>
      <trkpt lat="0" lon="0">
        <time>2020-12-20T10:59:17.958000+00:00</time>
      </trkpt>
      <trkpt lat="0" lon="0">
        <time>2020-12-20T10:59:17.959000+00:00</time>
      </trkpt>
      <trkpt lat="47.30105" lon="-1.3725">
        <ele>60</ele>
        <time>2020-12-20T10:59:18.806000+00:00</time>
      </trkpt>
      <trkpt lat="0" lon="0">
        <time>2020-12-20T10:59:18.807000+00:00</time>
      </trkpt>
      <trkpt lat="0" lon="0">
        <time>2020-12-20T10:59:18.808000+00:00</time>
      </trkpt>
      <trkpt lat="0" lon="0">
        <time>2020-12-20T10:59:18.809000+00:00</time>
      </trkpt>
      <trkpt lat="47.30108" lon="-1.3725">
        <ele>60</ele>
        <time>2020-12-20T10:59:19.804000+00:00</time>
      </trkpt>
      <trkpt lat="0" lon="0">
        <time>2020-12-20T10:59:19.807000+00:00</time>
      </trkpt>
      <trkpt lat="0" lon="0">
        <time>2020-12-20T10:59:19.812000+00:00</time>
      </trkpt>
      <trkpt lat="0" lon="0">
        <time>2020-12-20T10:59:19.813000+00:00</time>
      </trkpt>
      <trkpt lat="47.3011" lon="-1.3725">
        <ele>60</ele>
        <time>2020-12-20T10:59:20.801000+00:00</time>
      </trkpt>
      <trkpt lat="0" lon="0">
        <time>2020-12-20T10:59:20.803000+00:00</time>
      </trkpt>
      <trkpt lat="0" lon="0">
        <time>2020-12-20T10:59:20.807000+00:00</time>
      </trkpt>
      <trkpt lat="0" lon="0">
        <time>2020-12-20T10:59:20.808000+00:00</time>
      </trkpt>
      <trkpt lat="47.30112" lon="-1.37251">
        <ele>60</ele>
        <time>2020-12-20T10:59:21.813000+00:00</time>
      </trkpt>
      <trkpt lat="0" lon="0">
        <time>2020-12-20T10:59:21.817000+00:00</time>
      </trkpt>
      <trkpt lat="0" lon="0">
        <time>2020-12-20T10:59:21.819000+00:00</time>
      </trkpt>
      <trkpt lat="0" lon="0">
        <time>2020-12-20T10:59:21.820000+00:00</time>
      </trkpt>
      <trkpt lat="47.30114" lon="-1.37251">
        <ele>60</ele>
        <time>2020-12-20T10:59:22.794000+00:00</time>
      </trkpt>
      <trkpt lat="0" lon="0">
        <time>2020-12-20T10:59:22.795000+00:00</time>
      </trkpt>
      <trkpt lat="0" lon="0">
        <time>2020-12-20T10:59:22.799000+00:00</time>
      </trkpt>
      <trkpt lat="0" lon="0">
        <time>2020-12-20T10:59:22.801000+00:00</time>
      </trkpt>
      <trkpt lat="47.30116" lon="-1.37253">
        <ele>60</ele>
        <time>2020-12-20T10:59:23.801000+00:00</time>
      </trkpt>
      <trkpt lat="0" lon="0">
        <time>2020-12-20T10:59:23.803000+00:00</time>
      </trkpt>
      <trkpt lat="0" lon="0">
        <time>2020-12-20T10:59:23.804000+00:00</time>
      </trkpt>
      <trkpt lat="0" lon="0">
        <time>2020-12-20T10:59:23.805000+00:00</time>
      </trkpt>
      <trkpt lat="47.30118" lon="-1.37254">
        <ele>60</ele>
        <time>2020-12-20T10:59:24.835000+00:00</time>
      </trkpt>
      <trkpt lat="0" lon="0">
        <time>2020-12-20T10:59:24.838000+00:00</time>
      </trkpt>
      <trkpt lat="0" lon="0">
        <time>2020-12-20T10:59:24.847000+00:00</time>
      </trkpt>
      <trkpt lat="0" lon="0">
        <time>2020-12-20T10:59:24.849000+00:00</time>
      </trkpt>
      <trkpt lat="47.3012" lon="-1.37255">
        <ele>61</ele>
        <time>2020-12-20T10:59:25.814000+00:00</time>
      </trkpt>
      <trkpt lat="0" lon="0">
        <time>2020-12-20T10:59:25.820000+00:00</time>
      </trkpt>
      <trkpt lat="0" lon="0">
        <time>2020-12-20T10:59:25.822000+00:00</time>
      </trkpt>
      <trkpt lat="0" lon="0">
        <time>2020-12-20T10:59:25.824000+00:00</time>
      </trkpt>
      <trkpt lat="47.30122" lon="-1.37257">
        <ele>61</ele>
        <time>2020-12-20T10:59:26.870000+00:00</time>
      </trkpt>
      <trkpt lat="0" lon="0">
        <time>2020-12-20T10:59:26.873000+00:00</time>
      </trkpt>
      <trkpt lat="0" lon="0">
        <time>2020-12-20T10:59:26.879000+00:00</time>
      </trkpt>
      <trkpt lat="0" lon="0">
        <time>2020-12-20T10:59:26.880000+00:00</time>
      </trkpt>
      <trkpt lat="47.30124" lon="-1.37258">
        <ele>62</ele>
        <time>2020-12-20T10:59:27.840000+00:00</time>
      </trkpt>
      <trkpt lat="0" lon="0">
        <time>2020-12-20T10:59:27.845000+00:00</time>
      </trkpt>
      <trkpt lat="0" lon="0">
        <time>2020-12-20T10:59:27.848000+00:00</time>
      </trkpt>
      <trkpt lat="0" lon="0">
        <time>2020-12-20T10:59:27.851000+00:00</time>
      </trkpt>
      <trkpt lat="47.30126" lon="-1.3726">
        <ele>62</ele>
        <time>2020-12-20T10:59:28.922000+00:00</time>
      </trkpt>
      <trkpt lat="0" lon="0">
        <time>2020-12-20T10:59:28.935000+00:00</time>
      </trkpt>
      <trkpt lat="0" lon="0">
        <time>2020-12-20T10:59:28.940000+00:00</time>
      </trkpt>
      <trkpt lat="0" lon="0">
        <time>2020-12-20T10:59:28.943000+00:00</time>
      </trkpt>
      <trkpt lat="47.30127" lon="-1.37261">
        <ele>62</ele>
        <time>2020-12-20T10:59:29.816000+00:00</time>
      </trkpt>
      <trkpt lat="0" lon="0">
        <time>2020-12-20T10:59:29.822000+00:00</time>
      </trkpt>
      <trkpt lat="0" lon="0">
        <time>2020-12-20T10:59:29.826000+00:00</time>
      </trkpt>
      <trkpt lat="0" lon="0">
        <time>2020-12-20T10:59:29.828000+00:00</time>
      </trkpt>
      <trkpt lat="47.30129" lon="-1.37262">
        <ele>62</ele>
        <time>2020-12-20T10:59:30.896000+00:00</time>
      </trkpt>
      <trkpt lat="0" lon="0">
        <time>2020-12-20T10:59:30.903000+00:00</time>
      </trkpt>
      <trkpt lat="0" lon="0">
        <time>2020-12-20T10:59:30.907000+00:00</time>
      </trkpt>
      <trkpt lat="0" lon="0">
        <time>2020-12-20T10:59:30.911000+00:00</time>
      </trkpt>
      <trkpt lat="47.3013" lon="-1.37263">
        <ele>63</ele>
        <time>2020-12-20T10:59:31.912000+00:00</time>
      </trkpt>
      <trkpt lat="0" lon="0">
        <time>2020-12-20T10:59:31.921000+00:00</time>
      </trkpt>
      <trkpt lat="0" lon="0">
        <time>2020-12-20T10:59:31.926000+00:00</time>
      </trkpt>
      <trkpt lat="0" lon="0">
        <time>2020-12-20T10:59:31.928000+00:00</time>
      </trkpt>
      <trkpt lat="47.30131" lon="-1.37264">
        <ele>63</ele>
        <time>2020-12-20T10:59:32.825000+00:00</time>
      </trkpt>
      <trkpt lat="0" lon="0">
        <time>2020-12-20T10:59:32.827000+00:00</time>
      </trkpt>
      <trkpt lat="0" lon="0">
        <time>2020-12-20T10:59:32.832000+00:00</time>
      </trkpt>
      <trkpt lat="0" lon="0">
        <time>2020-12-20T10:59:32.833000+00:00</time>
      </trkpt>
      <trkpt lat="47.30132" lon="-1.37265">
        <ele>63</ele>
        <time>2020-12-20T10:59:33.832000+00:00</time>
      </trkpt>
      <trkpt lat="0" lon="0">
        <time>2020-12-20T10:59:33.840000+00:00</time>
      </trkpt>
      <trkpt lat="0" lon="0">
        <time>2020-12-20T10:59:33.842000+00:00</time>
      </trkpt>
      <trkpt lat="0" lon="0">
        <time>2020-12-20T10:59:33.843000+00:00</time>
      </trkpt>
      <trkpt lat="47.30133" lon="-1.37265">
        <ele>63</ele>
        <time>2020-12-20T10:59:34.826000+00:00</time>
      </trkpt>
      <trkpt lat="0" lon="0">
        <time>2020-12-20T10:59:34.830000+00:00</time>
      </trkpt>
      <trkpt lat="0" lon="0">
        <time>2020-12-20T10:59:34.832000+00:00</time>
      </trkpt>
      <trkpt lat="0" lon="0">
        <time>2020-12-20T10:59:34.833000+00:00</time>
      </trkpt>
      <trkpt lat="47.30134" lon="-1.37266">
        <ele>64</ele>
        <time>2020-12-20T10:59:35.831000+00:00</time>
      </trkpt>
      <trkpt lat="0" lon="0">
        <time>2020-12-20T10:59:35.836000+00:00</time>
      </trkpt>
      <trkpt lat="0" lon="0">
        <time>2020-12-20T10:59:35.838000+00:00</time>
      </trkpt>
      <trkpt lat="0" lon="0">
        <time>2020-12-20T10:59:35.839000+00:00</time>
      </trkpt>
      <trkpt lat="47.30135" lon="-1.37266">
        <ele>64</ele>
        <time>2020-12-20T10:59:36.878000+00:00</time>
      </trkpt>
      <trkpt lat="0" lon="0">
        <time>2020-12-20T10:59:36.890000+00:00</time>
      </trkpt>
      <trkpt lat="0" lon="0">
        <time>2020-12-20T10:59:36.895000+00:00</time>
      </trkpt>
      <trkpt lat="0" lon="0">
        <time>2020-12-20T10:59:36.897000+00:00</time>
      </trkpt>
      <trkpt lat="47.30136" lon="-1.37267">
        <ele>64</ele>
        <time>2020-12-20T10:59:37.921000+00:00</time>
      </trkpt>
      <trkpt lat="0" lon="0">
        <time>2020-12-20T10:59:37.938000+00:00</time>
      </trkpt>
      <trkpt lat="0" lon="0">
        <time>2020-12-20T10:59:37.946000+00:00</time>
      </trkpt>
      <trkpt lat="0" lon="0">
        <time>2020-12-20T10:59:37.951000+00:00</time>
      </trkpt>
      <trkpt lat="47.30137" lon="-1.37268">
        <ele>64</ele>
        <time>2020-12-20T10:59:38.855000+00:00</time>
      </trkpt>
      <trkpt lat="0" lon="0">
        <time>2020-12-20T10:59:38.859000+00:00</time>
      </trkpt>
      <trkpt lat="0" lon="0">
        <time>2020-12-20T10:59:38.862000+00:00</time>
      </trkpt>
      <trkpt lat="0" lon="0">
        <time>2020-12-20T10:59:38.863000+00:00</time>
      </trkpt>
      <trkpt lat="47.30138" lon="-1.37269">
        <ele>64</ele>
        <time>2020-12-20T10:59:39.857000+00:00</time>
      </trkpt>
      <trkpt lat="0" lon="0">
        <time>2020-12-20T10:59:39.863000+00:00</time>
      </trkpt>
      <trkpt lat="0" lon="0">
        <time>2020-12-20T10:59:39.868000+00:00</time>
      </trkpt>
      <trkpt lat="0" lon="0">
        <time>2020-12-20T10:59:39.870000+00:00</time>
      </trkpt>
      <trkpt lat="47.30138" lon="-1.37269">
        <ele>64</ele>
        <time>2020-12-20T10:59:40.831000+00:00</time>
      </trkpt>
      <trkpt lat="0" lon="0">
        <time>2020-12-20T10:59:40.837000+00:00</time>
      </trkpt>
      <trkpt lat="0" lon="0">
        <time>2020-12-20T10:59:40.840000+00:00</time>
      </trkpt>
      <trkpt lat="0" lon="0">
        <time>2020-12-20T10:59:40.841000+00:00</time>
      </trkpt>
      <trkpt lat="47.30139" lon="-1.3727">
        <ele>65</ele>
        <time>2020-12-20T10:59:41.841000+00:00</time>
      </trkpt>
      <trkpt lat="0" lon="0">
        <time>2020-12-20T10:59:41.851000+00:00</time>
      </trkpt>
      <trkpt lat="0" lon="0">
        <time>2020-12-20T10:59:41.854000+00:00</time>
      </trkpt>
      <trkpt lat="0" lon="0">
        <time>2020-12-20T10:59:41.855000+00:00</time>
      </trkpt>
      <trkpt lat="47.3014" lon="-1.3727">
        <ele>65</ele>
        <time>2020-12-20T10:59:42.835000+00:00</time>
      </trkpt>
      <trkpt lat="0" lon="0">
        <time>2020-12-20T10:59:42.838000+00:00</time>
      </trkpt>
      <trkpt lat="0" lon="0">
        <time>2020-12-20T10:59:42.847000+00:00</time>
      </trkpt>
      <trkpt lat="0" lon="0">
        <time>2020-12-20T10:59:42.848000+00:00</time>
      </trkpt>
      <trkpt lat="47.30141" lon="-1.37271">
        <ele>65</ele>
        <time>2020-12-20T10:59:43.860000+00:00</time>
      </trkpt>
      <trkpt lat="0" lon="0">
        <time>2020-12-20T10:59:43.867000+00:00</time>
      </trkpt>
      <trkpt lat="0" lon="0">
        <time>2020-12-20T10:59:43.871000+00:00</time>
      </trkpt>
      <trkpt lat="0" lon="0">
        <time>2020-12-20T10:59:43.874000+00:00</time>
      </trkpt>
      <trkpt lat="47.30142" lon="-1.37271">
        <ele>66</ele>
        <time>2020-12-20T10:59:44.870000+00:00</time>
      </trkpt>
      <trkpt lat="0" lon="0">
        <time>2020-12-20T10:59:44.877000+00:00</time>
      </trkpt>
      <trkpt lat="0" lon="0">
        <time>2020-12-20T10:59:44.883000+00:00</time>
      </trkpt>
      <trkpt lat="0" lon="0">
        <time>2020-12-20T10:59:44.886000+00:00</time>
      </trkpt>
      <trkpt lat="47.30143" lon="-1.37272">
        <ele>66</ele>
        <time>2020-12-20T10:59:45.838000+00:00</time>
      </trkpt>
      <trkpt lat="0" lon="0">
        <time>2020-12-20T10:59:45.841000+00:00</time>
      </trkpt>
      <trkpt lat="0" lon="0">
        <time>2020-12-20T10:59:45.846000+00:00</time>
      </trkpt>
      <trkpt lat="0" lon="0">
        <time>2020-12-20T10:59:45.849000+00:00</time>
      </trkpt>
      <trkpt lat="47.30144" lon="-1.37272">
        <ele>66</ele>
        <time>2020-12-20T10:59:46.838000+00:00</time>
      </trkpt>
      <trkpt lat="0" lon="0">
        <time>2020-12-20T10:59:46.847000+00:00</time>
      </trkpt>
      <trkpt lat="0" lon="0">
        <time>2020-12-20T10:59:46.851000+00:00</time>
      </trkpt>
      <trkpt lat="0" lon="0">
        <time>2020-12-20T10:59:46.852000+00:00</time>
      </trkpt>
      <trkpt lat="47.30145" lon="-1.37272">
        <ele>68</ele>
        <time>2020-12-20T10:59:47.842000+00:00</time>
      </trkpt>
      <trkpt lat="0" lon="0">
        <time>2020-12-20T10:59:47.844000+00:00</time>
      </trkpt>
      <trkpt lat="0" lon="0">
        <time>2020-12-20T10:59:47.846000+00:00</time>
      </trkpt>
      <trkpt lat="0" lon="0">
        <time>2020-12-20T10:59:47.848000+00:00</time>
      </trkpt>
      <trkpt lat="47.30146" lon="-1.37273">
        <ele>69</ele>
        <time>2020-12-20T10:59:48.837000+00:00</time>
      </trkpt>
      <trkpt lat="0" lon="0">
        <time>2020-12-20T10:59:48.840000+00:00</time>
      </trkpt>
      <trkpt lat="0" lon="0">
        <time>2020-12-20T10:59:48.844000+00:00</time>
      </trkpt>
      <trkpt lat="0" lon="0">
        <time>2020-12-20T10:59:48.845000+00:00</time>
      </trkpt>
      <trkpt lat="47.30147" lon="-1.37273">
        <ele>70</ele>
        <time>2020-12-20T10:59:49.851000+00:00</time>
      </trkpt>
      <trkpt lat="0" lon="0">
        <time>2020-12-20T10:59:49.864000+00:00</time>
      </trkpt>
      <trkpt lat="0" lon="0">
        <time>2020-12-20T10:59:49.866000+00:00</time>
      </trkpt>
      <trkpt lat="47.30148" lon="-1.37274">
        <ele>71</ele>
        <time>2020-12-20T10:59:50.836000+00:00</time>
      </trkpt>
      <trkpt lat="0" lon="0">
        <time>2020-12-20T10:59:50.838000+00:00</time>
      </trkpt>
      <trkpt lat="0" lon="0">
        <time>2020-12-20T10:59:50.843000+00:00</time>
      </trkpt>
      <trkpt lat="0" lon="0">
        <time>2020-12-20T10:59:50.844000+00:00</time>
      </trkpt>
      <trkpt lat="47.30149" lon="-1.37274">
        <ele>71</ele>
        <time>2020-12-20T10:59:51.857000+00:00</time>
      </trkpt>
      <trkpt lat="0" lon="0">
        <time>2020-12-20T10:59:51.861000+00:00</time>
      </trkpt>
      <trkpt lat="0" lon="0">
        <time>2020-12-20T10:59:51.866000+00:00</time>
      </trkpt>
      <trkpt lat="0" lon="0">
        <time>2020-12-20T10:59:51.867000+00:00</time>
      </trkpt>
      <trkpt lat="47.3015" lon="-1.37274">
        <ele>71</ele>
        <time>2020-12-20T10:59:52.847000+00:00</time>
      </trkpt>
      <trkpt lat="0" lon="0">
        <time>2020-12-20T10:59:52.851000+00:00</time>
      </trkpt>
      <trkpt lat="0" lon="0">
        <time>2020-12-20T10:59:52.856000+00:00</time>
      </trkpt>
      <trkpt lat="0" lon="0">
        <time>2020-12-20T10:59:52.857000+00:00</time>
      </trkpt>
      <trkpt lat="47.30152" lon="-1.37275">
        <ele>76</ele>
        <time>2020-12-20T10:59:53.817000+00:00</time>
      </trkpt>
      <trkpt lat="0" lon="0">
        <time>2020-12-20T10:59:53.821000+00:00</time>
      </trkpt>
      <trkpt lat="0" lon="0">
        <time>2020-12-20T10:59:53.823000+00:00</time>
      </trkpt>
      <trkpt lat="47.30153" lon="-1.37276">
        <ele>77</ele>
        <time>2020-12-20T10:59:54.810000+00:00</time>
      </trkpt>
      <trkpt lat="0" lon="0">
        <time>2020-12-20T10:59:54.812000+00:00</time>
      </trkpt>
      <trkpt lat="0" lon="0">
        <time>2020-12-20T10:59:54.817000+00:00</time>
      </trkpt>
      <trkpt lat="0" lon="0">
        <time>2020-12-20T10:59:54.819000+00:00</time>
      </trkpt>
      <trkpt lat="47.30155" lon="-1.37278">
        <ele>79</ele>
        <time>2020-12-20T10:59:55.819000+00:00</time>
      </trkpt>
      <trkpt lat="0" lon="0">
        <time>2020-12-20T10:59:55.821000+00:00</time>
      </trkpt>
      <trkpt lat="0" lon="0">
        <time>2020-12-20T10:59:55.822000+00:00</time>
      </trkpt>
      <trkpt lat="0" lon="0">
        <time>2020-12-20T10:59:55.823000+00:00</time>
      </trkpt>
      <trkpt lat="47.30156" lon="-1.37279">
        <ele>79</ele>
        <time>2020-12-20T10:59:56.796000+00:00</time>
      </trkpt>
      <trkpt lat="0" lon="0">
        <time>2020-12-20T10:59:56.799000+00:00</time>
      </trkpt>
      <trkpt lat="0" lon="0">
        <time>2020-12-20T10:59:56.801000+00:00</time>
      </trkpt>
      <trkpt lat="0" lon="0">
        <time>2020-12-20T10:59:56.805000+00:00</time>
      </trkpt>
      <trkpt lat="47.30157" lon="-1.3728">
        <ele>80</ele>
        <time>2020-12-20T10:59:57.810000+00:00</time>
      </trkpt>
      <trkpt lat="0" lon="0">
        <time>2020-12-20T10:59:57.814000+00:00</time>
      </trkpt>
      <trkpt lat="0" lon="0">
        <time>2020-12-20T10:59:57.818000+00:00</time>
      </trkpt>
      <trkpt lat="0" lon="0">
        <time>2020-12-20T10:59:57.819000+00:00</time>
      </trkpt>
      <trkpt lat="47.30158" lon="-1.37282">
        <ele>81</ele>
        <time>2020-12-20T10:59:58.806000+00:00</time>
      </trkpt>
      <trkpt lat="0" lon="0">
        <time>2020-12-20T10:59:58.808000+00:00</time>
      </trkpt>
      <trkpt lat="0" lon="0">
        <time>2020-12-20T10:59:58.813000+00:00</time>
      </trkpt>
      <trkpt lat="47.3016" lon="-1.37284">
        <ele>81</ele>
        <time>2020-12-20T10:59:59.821000+00:00</time>
      </trkpt>
      <trkpt lat="0" lon="0">
        <time>2020-12-20T10:59:59.823000+00:00</time>
      </trkpt>
      <trkpt lat="0" lon="0">
        <time>2020-12-20T10:59:59.826000+00:00</time>
      </trkpt>
      <trkpt lat="0" lon="0">
        <time>2020-12-20T10:59:59.827000+00:00</time>
      </trkpt>
      <trkpt lat="47.30161" lon="-1.37285">
        <ele>81</ele>
        <time>2020-12-20T11:00:00.800000+00:00</time>
      </trkpt>
      <trkpt lat="0" lon="0">
        <time>2020-12-20T11:00:00.801000+00:00</time>
      </trkpt>
      <trkpt lat="0" lon="0">
        <time>2020-12-20T11:00:00.803000+00:00</time>
      </trkpt>
      <trkpt lat="47.30162" lon="-1.37287">
        <ele>81</ele>
        <time>2020-12-20T11:00:01.811000+00:00</time>
      </trkpt>
      <trkpt lat="0" lon="0">
        <time>2020-12-20T11:00:01.812000+00:00</time>
      </trkpt>
      <trkpt lat="0" lon="0">
        <time>2020-12-20T11:00:01.814000+00:00</time>
      </trkpt>
      <trkpt lat="0" lon="0">
        <time>2020-12-20T11:00:01.815000+00:00</time>
      </trkpt>
      <trkpt lat="47.30163" lon="-1.37289">
        <ele>82</ele>
        <time>2020-12-20T11:00:02.810000+00:00</time>
      </trkpt>
      <trkpt lat="0" lon="0">
        <time>2020-12-20T11:00:02.818000+00:00</time>
      </trkpt>
      <trkpt lat="0" lon="0">
        <time>2020-12-20T11:00:02.823000+00:00</time>
      </trkpt>
      <trkpt lat="0" lon="0">
        <time>2020-12-20T11:00:02.826000+00:00</time>
      </trkpt>
      <trkpt lat="47.30164" lon="-1.3729">
        <ele>82</ele>
        <time>2020-12-20T11:00:03.809000+00:00</time>
      </trkpt>
      <trkpt lat="0" lon="0">
        <time>2020-12-20T11:00:03.811000+00:00</time>
      </trkpt>
      <trkpt lat="0" lon="0">
        <time>2020-12-20T11:00:03.812000+00:00</time>
      </trkpt>
      <trkpt lat="0" lon="0">
        <time>2020-12-20T11:00:03.813000+00:00</time>
      </trkpt>
      <trkpt lat="47.30165" lon="-1.37291">
        <ele>84</ele>
        <time>2020-12-20T11:00:04.808000+00:00</time>
      </trkpt>
      <trkpt lat="0" lon="0">
        <time>2020-12-20T11:00:04.809000+00:00</time>
      </trkpt>
      <trkpt lat="0" lon="0">
        <time>2020-12-20T11:00:04.812000+00:00</time>
      </trkpt>
      <trkpt lat="0" lon="0">
        <time>2020-12-20T11:00:04.814000+00:00</time>
      </trkpt>
      <trkpt lat="47.30165" lon="-1.37292">
        <ele>84</ele>
        <time>2020-12-20T11:00:05.809000+00:00</time>
      </trkpt>
      <trkpt lat="0" lon="0">
        <time>2020-12-20T11:00:05.811000+00:00</time>
      </trkpt>
      <trkpt lat="0" lon="0">
        <time>2020-12-20T11:00:05.816000+00:00</time>
      </trkpt>
      <trkpt lat="0" lon="0">
        <time>2020-12-20T11:00:05.817000+00:00</time>
      </trkpt>
      <trkpt lat="47.30166" lon="-1.37292">
        <ele>84</ele>
        <time>2020-12-20T11:00:06.851000+00:00</time>
      </trkpt>
      <trkpt lat="0" lon="0">
        <time>2020-12-20T11:00:06.857000+00:00</time>
      </trkpt>
      <trkpt lat="0" lon="0">
        <time>2020-12-20T11:00:06.859000+00:00</time>
      </trkpt>
      <trkpt lat="47.30166" lon="-1.37293">
        <ele>88</ele>
        <time>2020-12-20T11:00:07.813000+00:00</time>
      </trkpt>
      <trkpt lat="0" lon="0">
        <time>2020-12-20T11:00:07.816000+00:00</time>
      </trkpt>
      <trkpt lat="0" lon="0">
        <time>2020-12-20T11:00:07.818000+00:00</time>
      </trkpt>
      <trkpt lat="0" lon="0">
        <time>2020-12-20T11:00:07.819000+00:00</time>
      </trkpt>
      <trkpt lat="47.30167" lon="-1.37293">
        <ele>88</ele>
        <time>2020-12-20T11:00:08.818000+00:00</time>
      </trkpt>
      <trkpt lat="0" lon="0">
        <time>2020-12-20T11:00:08.820000+00:00</time>
      </trkpt>
      <trkpt lat="0" lon="0">
        <time>2020-12-20T11:00:08.824000+00:00</time>
      </trkpt>
      <trkpt lat="47.30167" lon="-1.37294">
        <ele>89</ele>
        <time>2020-12-20T11:00:09.840000+00:00</time>
      </trkpt>
      <trkpt lat="0" lon="0">
        <time>2020-12-20T11:00:09.841000+00:00</time>
      </trkpt>
      <trkpt lat="0" lon="0">
        <time>2020-12-20T11:00:09.842000+00:00</time>
      </trkpt>
      <trkpt lat="0" lon="0">
        <time>2020-12-20T11:00:09.844000+00:00</time>
      </trkpt>
      <trkpt lat="47.30168" lon="-1.37294">
        <ele>89</ele>
        <time>2020-12-20T11:00:10.820000+00:00</time>
      </trkpt>
      <trkpt lat="0" lon="0">
        <time>2020-12-20T11:00:10.822000+00:00</time>
      </trkpt>
      <trkpt lat="0" lon="0">
        <time>2020-12-20T11:00:10.824000+00:00</time>
      </trkpt>
      <trkpt lat="47.30168" lon="-1.37295">
        <ele>89</ele>
        <time>2020-12-20T11:00:11.796000+00:00</time>
      </trkpt>
      <trkpt lat="0" lon="0">
        <time>2020-12-20T11:00:11.802000+00:00</time>
      </trkpt>
      <trkpt lat="0" lon="0">
        <time>2020-12-20T11:00:11.803000+00:00</time>
      </trkpt>
      <trkpt lat="47.30168" lon="-1.37295">
        <ele>89</ele>
        <time>2020-12-20T11:00:12.804000+00:00</time>
      </trkpt>
      <trkpt lat="0" lon="0">
        <time>2020-12-20T11:00:12.807000+00:00</time>
      </trkpt>
      <trkpt lat="0" lon="0">
        <time>2020-12-20T11:00:12.813000+00:00</time>
      </trkpt>
      <trkpt lat="0" lon="0">
        <time>2020-12-20T11:00:12.814000+00:00</time>
      </trkpt>
      <trkpt lat="47.30169" lon="-1.37296">
        <ele>89</ele>
        <time>2020-12-20T11:00:13.820000+00:00</time>
      </trkpt>
      <trkpt lat="0" lon="0">
        <time>2020-12-20T11:00:13.822000+00:00</time>
      </trkpt>
      <trkpt lat="0" lon="0">
        <time>2020-12-20T11:00:13.824000+00:00</time>
      </trkpt>
      <trkpt lat="0" lon="0">
        <time>2020-12-20T11:00:13.825000+00:00</time>
      </trkpt>
      <trkpt lat="47.30169" lon="-1.37297">
        <ele>90</ele>
        <time>2020-12-20T11:00:14.806000+00:00</time>
      </trkpt>
      <trkpt lat="0" lon="0">
        <time>2020-12-20T11:00:14.808000+00:00</time>
      </trkpt>
      <trkpt lat="0" lon="0">
        <time>2020-12-20T11:00:14.820000+00:00</time>
      </trkpt>
      <trkpt lat="0" lon="0">
        <time>2020-12-20T11:00:14.830000+00:00</time>
      </trkpt>
      <trkpt lat="47.30176" lon="-1.37308">
        <ele>92</ele>
        <time>2020-12-20T11:00:15.934000+00:00</time>
      </trkpt>
      <trkpt lat="0" lon="0">
        <time>2020-12-20T11:00:15.941000+00:00</time>
      </trkpt>
      <trkpt lat="0" lon="0">
        <time>2020-12-20T11:00:15.943000+00:00</time>
      </trkpt>
      <trkpt lat="0" lon="0">
        <time>2020-12-20T11:00:15.944000+00:00</time>
      </trkpt>
      <trkpt lat="47.30177" lon="-1.37309">
        <ele>92</ele>
        <time>2020-12-20T11:00:16.873000+00:00</time>
      </trkpt>
      <trkpt lat="0" lon="0">
        <time>2020-12-20T11:00:16.874000+00:00</time>
      </trkpt>
      <trkpt lat="0" lon="0">
        <time>2020-12-20T11:00:16.877000+00:00</time>
      </trkpt>
      <trkpt lat="0" lon="0">
        <time>2020-12-20T11:00:16.878000+00:00</time>
      </trkpt>
      <trkpt lat="47.30179" lon="-1.3731">
        <ele>93</ele>
        <time>2020-12-20T11:00:17.856000+00:00</time>
      </trkpt>
      <trkpt lat="0" lon="0">
        <time>2020-12-20T11:00:17.858000+00:00</time>
      </trkpt>
      <trkpt lat="0" lon="0">
        <time>2020-12-20T11:00:17.860000+00:00</time>
      </trkpt>
      <trkpt lat="0" lon="0">
        <time>2020-12-20T11:00:17.861000+00:00</time>
      </trkpt>
      <trkpt lat="47.3018" lon="-1.37311">
        <ele>92</ele>
        <time>2020-12-20T11:00:18.863000+00:00</time>
      </trkpt>
      <trkpt lat="0" lon="0">
        <time>2020-12-20T11:00:18.869000+00:00</time>
      </trkpt>
      <trkpt lat="0" lon="0">
        <time>2020-12-20T11:00:18.873000+00:00</time>
      </trkpt>
      <trkpt lat="0" lon="0">
        <time>2020-12-20T11:00:18.875000+00:00</time>
      </trkpt>
      <trkpt lat="47.30181" lon="-1.37313">
        <ele>92</ele>
        <time>2020-12-20T11:00:19.846000+00:00</time>
      </trkpt>
      <trkpt lat="0" lon="0">
        <time>2020-12-20T11:00:19.849000+00:00</time>
      </trkpt>
      <trkpt lat="0" lon="0">
        <time>2020-12-20T11:00:19.853000+00:00</time>
      </trkpt>
      <trkpt lat="0" lon="0">
        <time>2020-12-20T11:00:19.854000+00:00</time>
      </trkpt>
      <trkpt lat="47.30182" lon="-1.37315">
        <ele>92</ele>
        <time>2020-12-20T11:00:20.863000+00:00</time>
      </trkpt>
      <trkpt lat="0" lon="0">
        <time>2020-12-20T11:00:20.872000+00:00</time>
      </trkpt>
      <trkpt lat="0" lon="0">
        <time>2020-12-20T11:00:20.876000+00:00</time>
      </trkpt>
      <trkpt lat="0" lon="0">
        <time>2020-12-20T11:00:20.878000+00:00</time>
      </trkpt>
      <trkpt lat="47.30183" lon="-1.37316">
        <ele>92</ele>
        <time>2020-12-20T11:00:21.863000+00:00</time>
      </trkpt>
      <trkpt lat="0" lon="0">
        <time>2020-12-20T11:00:21.868000+00:00</time>
      </trkpt>
      <trkpt lat="0" lon="0">
        <time>2020-12-20T11:00:21.872000+00:00</time>
      </trkpt>
      <trkpt lat="0" lon="0">
        <time>2020-12-20T11:00:21.874000+00:00</time>
      </trkpt>
      <trkpt lat="47.30184" lon="-1.37317">
        <ele>92</ele>
        <time>2020-12-20T11:00:22.860000+00:00</time>
      </trkpt>
      <trkpt lat="0" lon="0">
        <time>2020-12-20T11:00:22.866000+00:00</time>
      </trkpt>
      <trkpt lat="0" lon="0">
        <time>2020-12-20T11:00:22.869000+00:00</time>
      </trkpt>
      <trkpt lat="0" lon="0">
        <time>2020-12-20T11:00:22.871000+00:00</time>
      </trkpt>
      <trkpt lat="47.30185" lon="-1.37318">
        <ele>94</ele>
        <time>2020-12-20T11:00:23.868000+00:00</time>
      </trkpt>
      <trkpt lat="0" lon="0">
        <time>2020-12-20T11:00:23.870000+00:00</time>
      </trkpt>
      <trkpt lat="0" lon="0">
        <time>2020-12-20T11:00:23.871000+00:00</time>
      </trkpt>
      <trkpt lat="0" lon="0">
        <time>2020-12-20T11:00:23.873000+00:00</time>
      </trkpt>
      <trkpt lat="47.30187" lon="-1.3732">
        <ele>94</ele>
        <time>2020-12-20T11:00:24.850000+00:00</time>
      </trkpt>
      <trkpt lat="0" lon="0">
        <time>2020-12-20T11:00:24.852000+00:00</time>
      </trkpt>
      <trkpt lat="0" lon="0">
        <time>2020-12-20T11:00:24.855000+00:00</time>
      </trkpt>
      <trkpt lat="0" lon="0">
        <time>2020-12-20T11:00:24.856000+00:00</time>
      </trkpt>
      <trkpt lat="47.30188" lon="-1.37321">
        <ele>94</ele>
        <time>2020-12-20T11:00:25.850000+00:00</time>
      </trkpt>
      <trkpt lat="0" lon="0">
        <time>2020-12-20T11:00:25.852000+00:00</time>
      </trkpt>
      <trkpt lat="0" lon="0">
        <time>2020-12-20T11:00:25.855000+00:00</time>
      </trkpt>
      <trkpt lat="0" lon="0">
        <time>2020-12-20T11:00:25.856000+00:00</time>
      </trkpt>
      <trkpt lat="47.3019" lon="-1.37323">
        <ele>94</ele>
        <time>2020-12-20T11:00:26.826000+00:00</time>
      </trkpt>
      <trkpt lat="0" lon="0">
        <time>2020-12-20T11:00:26.833000+00:00</time>
      </trkpt>
      <trkpt lat="0" lon="0">
        <time>2020-12-20T11:00:26.835000+00:00</time>
      </trkpt>
      <trkpt lat="0" lon="0">
        <time>2020-12-20T11:00:26.836000+00:00</time>
      </trkpt>
      <trkpt lat="47.30191" lon="-1.37324">
        <ele>95</ele>
        <time>2020-12-20T11:00:27.870000+00:00</time>
      </trkpt>
      <trkpt lat="0" lon="0">
        <time>2020-12-20T11:00:27.878000+00:00</time>
      </trkpt>
      <trkpt lat="0" lon="0">
        <time>2020-12-20T11:00:27.883000+00:00</time>
      </trkpt>
      <trkpt lat="0" lon="0">
        <time>2020-12-20T11:00:27.885000+00:00</time>
      </trkpt>
      <trkpt lat="47.30192" lon="-1.37325">
        <ele>95</ele>
        <time>2020-12-20T11:00:28.861000+00:00</time>
      </trkpt>
      <trkpt lat="0" lon="0">
        <time>2020-12-20T11:00:28.863000+00:00</time>
      </trkpt>
      <trkpt lat="0" lon="0">
        <time>2020-12-20T11:00:28.864000+00:00</time>
      </trkpt>
      <trkpt lat="0" lon="0">
        <time>2020-12-20T11:00:28.865000+00:00</time>
      </trkpt>
      <trkpt lat="47.30193" lon="-1.37326">
        <ele>95</ele>
        <time>2020-12-20T11:00:29.856000+00:00</time>
      </trkpt>
      <trkpt lat="0" lon="0">
        <time>2020-12-20T11:00:29.858000+00:00</time>
      </trkpt>
      <trkpt lat="0" lon="0">
        <time>2020-12-20T11:00:29.862000+00:00</time>
      </trkpt>
      <trkpt lat="0" lon="0">
        <time>2020-12-20T11:00:29.864000+00:00</time>
      </trkpt>
      <trkpt lat="47.30195" lon="-1.37328">
        <ele>96</ele>
        <time>2020-12-20T11:00:30.852000+00:00</time>
      </trkpt>
      <trkpt lat="0" lon="0">
        <time>2020-12-20T11:00:30.855000+00:00</time>
      </trkpt>
      <trkpt lat="0" lon="0">
        <time>2020-12-20T11:00:30.858000+00:00</time>
      </trkpt>
      <trkpt lat="0" lon="0">
        <time>2020-12-20T11:00:30.859000+00:00</time>
      </trkpt>
      <trkpt lat="47.30196" lon="-1.3733">
        <ele>96</ele>
        <time>2020-12-20T11:00:31.870000+00:00</time>
      </trkpt>
      <trkpt lat="0" lon="0">
        <time>2020-12-20T11:00:31.876000+00:00</time>
      </trkpt>
      <trkpt lat="0" lon="0">
        <time>2020-12-20T11:00:31.880000+00:00</time>
      </trkpt>
      <trkpt lat="0" lon="0">
        <time>2020-12-20T11:00:31.882000+00:00</time>
      </trkpt>
      <trkpt lat="47.30198" lon="-1.37332">
        <ele>97</ele>
        <time>2020-12-20T11:00:32.895000+00:00</time>
      </trkpt>
      <trkpt lat="0" lon="0">
        <time>2020-12-20T11:00:32.896000+00:00</time>
      </trkpt>
      <trkpt lat="0" lon="0">
        <time>2020-12-20T11:00:32.897000+00:00</time>
      </trkpt>
      <trkpt lat="0" lon="0">
        <time>2020-12-20T11:00:32.898000+00:00</time>
      </trkpt>
      <trkpt lat="47.302" lon="-1.37334">
        <ele>98</ele>
        <time>2020-12-20T11:00:33.861000+00:00</time>
      </trkpt>
      <trkpt lat="0" lon="0">
        <time>2020-12-20T11:00:33.866000+00:00</time>
      </trkpt>
      <trkpt lat="0" lon="0">
        <time>2020-12-20T11:00:33.867000+00:00</time>
      </trkpt>
      <trkpt lat="0" lon="0">
        <time>2020-12-20T11:00:33.868000+00:00</time>
      </trkpt>
      <trkpt lat="47.30202" lon="-1.37336">
        <ele>99</ele>
        <time>2020-12-20T11:00:34.863000+00:00</time>
      </trkpt>
      <trkpt lat="0" lon="0">
        <time>2020-12-20T11:00:34.877000+00:00</time>
      </trkpt>
      <trkpt lat="0" lon="0">
        <time>2020-12-20T11:00:34.878000+00:00</time>
      </trkpt>
      <trkpt lat="0" lon="0">
        <time>2020-12-20T11:00:34.879000+00:00</time>
      </trkpt>
      <trkpt lat="47.30204" lon="-1.37338">
        <ele>100</ele>
        <time>2020-12-20T11:00:35.868000+00:00</time>
      </trkpt>
      <trkpt lat="0" lon="0">
        <time>2020-12-20T11:00:35.871000+00:00</time>
      </trkpt>
      <trkpt lat="0" lon="0">
        <time>2020-12-20T11:00:35.877000+00:00</time>
      </trkpt>
      <trkpt lat="0" lon="0">
        <time>2020-12-20T11:00:35.878000+00:00</time>
      </trkpt>
      <trkpt lat="47.30206" lon="-1.3734">
        <ele>102</ele>
        <time>2020-12-20T11:00:36.856000+00:00</time>
      </trkpt>
      <trkpt lat="0" lon="0">
        <time>2020-12-20T11:00:36.861000+00:00</time>
      </trkpt>
      <trkpt lat="0" lon="0">
        <time>2020-12-20T11:00:36.863000+00:00</time>
      </trkpt>
      <trkpt lat="0" lon="0">
        <time>2020-12-20T11:00:36.864000+00:00</time>
      </trkpt>
      <trkpt lat="47.30208" lon="-1.37342">
        <ele>103</ele>
        <time>2020-12-20T11:00:37.856000+00:00</time>
      </trkpt>
      <trkpt lat="0" lon="0">
        <time>2020-12-20T11:00:37.861000+00:00</time>
      </trkpt>
      <trkpt lat="0" lon="0">
        <time>2020-12-20T11:00:37.863000+00:00</time>
      </trkpt>
      <trkpt lat="0" lon="0">
        <time>2020-12-20T11:00:37.864000+00:00</time>
      </trkpt>
      <trkpt lat="47.30211" lon="-1.37344">
        <ele>104</ele>
        <time>2020-12-20T11:00:38.837000+00:00</time>
      </trkpt>
      <trkpt lat="0" lon="0">
        <time>2020-12-20T11:00:38.844000+00:00</time>
      </trkpt>
      <trkpt lat="0" lon="0">
        <time>2020-12-20T11:00:38.851000+00:00</time>
      </trkpt>
      <trkpt lat="0" lon="0">
        <time>2020-12-20T11:00:38.852000+00:00</time>
      </trkpt>
      <trkpt lat="47.30212" lon="-1.37346">
        <ele>104</ele>
        <time>2020-12-20T11:00:39.813000+00:00</time>
      </trkpt>
      <trkpt lat="0" lon="0">
        <time>2020-12-20T11:00:39.815000+00:00</time>
      </trkpt>
      <trkpt lat="0" lon="0">
        <time>2020-12-20T11:00:39.821000+00:00</time>
      </trkpt>
      <trkpt lat="0" lon="0">
        <time>2020-12-20T11:00:39.822000+00:00</time>
      </trkpt>
      <trkpt lat="47.30214" lon="-1.37347">
        <ele>104</ele>
        <time>2020-12-20T11:00:40.807000+00:00</time>
      </trkpt>
      <trkpt lat="0" lon="0">
        <time>2020-12-20T11:00:40.811000+00:00</time>
      </trkpt>
      <trkpt lat="0" lon="0">
        <time>2020-12-20T11:00:40.814000+00:00</time>
      </trkpt>
      <trkpt lat="0" lon="0">
        <time>2020-12-20T11:00:40.816000+00:00</time>
      </trkpt>
      <trkpt lat="47.30215" lon="-1.37349">
        <ele>106</ele>
        <time>2020-12-20T11:00:41.840000+00:00</time>
      </trkpt>
      <trkpt lat="0" lon="0">
        <time>2020-12-20T11:00:41.843000+00:00</time>
      </trkpt>
      <trkpt lat="0" lon="0">
        <time>2020-12-20T11:00:41.848000+00:00</time>
      </trkpt>
      <trkpt lat="0" lon="0">
        <time>2020-12-20T11:00:41.850000+00:00</time>
      </trkpt>
      <trkpt lat="47.30217" lon="-1.37351">
        <ele>106</ele>
        <time>2020-12-20T11:00:42.834000+00:00</time>
      </trkpt>
      <trkpt lat="0" lon="0">
        <time>2020-12-20T11:00:42.840000+00:00</time>
      </trkpt>
      <trkpt lat="0" lon="0">
        <time>2020-12-20T11:00:42.843000+00:00</time>
      </trkpt>
      <trkpt lat="0" lon="0">
        <time>2020-12-20T11:00:42.845000+00:00</time>
      </trkpt>
      <trkpt lat="47.30219" lon="-1.37352">
        <ele>107</ele>
        <time>2020-12-20T11:00:43.827000+00:00</time>
      </trkpt>
      <trkpt lat="0" lon="0">
        <time>2020-12-20T11:00:43.833000+00:00</time>
      </trkpt>
      <trkpt lat="0" lon="0">
        <time>2020-12-20T11:00:43.836000+00:00</time>
      </trkpt>
      <trkpt lat="0" lon="0">
        <time>2020-12-20T11:00:43.837000+00:00</time>
      </trkpt>
      <trkpt lat="47.30221" lon="-1.37354">
        <ele>107</ele>
        <time>2020-12-20T11:00:44.805000+00:00</time>
      </trkpt>
      <trkpt lat="0" lon="0">
        <time>2020-12-20T11:00:44.806000+00:00</time>
      </trkpt>
      <trkpt lat="0" lon="0">
        <time>2020-12-20T11:00:44.815000+00:00</time>
      </trkpt>
      <trkpt lat="0" lon="0">
        <time>2020-12-20T11:00:44.816000+00:00</time>
      </trkpt>
      <trkpt lat="47.30223" lon="-1.37355">
        <ele>108</ele>
        <time>2020-12-20T11:00:45.851000+00:00</time>
      </trkpt>
      <trkpt lat="0" lon="0">
        <time>2020-12-20T11:00:45.860000+00:00</time>
      </trkpt>
      <trkpt lat="0" lon="0">
        <time>2020-12-20T11:00:45.863000+00:00</time>
      </trkpt>
      <trkpt lat="0" lon="0">
        <time>2020-12-20T11:00:45.864000+00:00</time>
      </trkpt>
      <trkpt lat="47.30225" lon="-1.37357">
        <ele>108</ele>
        <time>2020-12-20T11:00:46.849000+00:00</time>
      </trkpt>
      <trkpt lat="0" lon="0">
        <time>2020-12-20T11:00:46.851000+00:00</time>
      </trkpt>
      <trkpt lat="0" lon="0">
        <time>2020-12-20T11:00:46.854000+00:00</time>
      </trkpt>
      <trkpt lat="0" lon="0">
        <time>2020-12-20T11:00:46.855000+00:00</time>
      </trkpt>
      <trkpt lat="47.30226" lon="-1.37358">
        <ele>108</ele>
        <time>2020-12-20T11:00:47.844000+00:00</time>
      </trkpt>
      <trkpt lat="0" lon="0">
        <time>2020-12-20T11:00:47.852000+00:00</time>
      </trkpt>
      <trkpt lat="0" lon="0">
        <time>2020-12-20T11:00:47.855000+00:00</time>
      </trkpt>
      <trkpt lat="0" lon="0">
        <time>2020-12-20T11:00:47.857000+00:00</time>
      </trkpt>
      <trkpt lat="47.30228" lon="-1.37359">
        <ele>108</ele>
        <time>2020-12-20T11:00:48.852000+00:00</time>
      </trkpt>
      <trkpt lat="0" lon="0">
        <time>2020-12-20T11:00:48.858000+00:00</time>
      </trkpt>
      <trkpt lat="0" lon="0">
        <time>2020-12-20T11:00:48.861000+00:00</time>
      </trkpt>
      <trkpt lat="0" lon="0">
        <time>2020-12-20T11:00:48.862000+00:00</time>
      </trkpt>
      <trkpt lat="47.30228" lon="-1.37359">
        <ele>108</ele>
        <time>2020-12-20T11:00:49.847000+00:00</time>
      </trkpt>
      <trkpt lat="0" lon="0">
        <time>2020-12-20T11:00:49.849000+00:00</time>
      </trkpt>
      <trkpt lat="0" lon="0">
        <time>2020-12-20T11:00:49.855000+00:00</time>
      </trkpt>
      <trkpt lat="0" lon="0">
        <time>2020-12-20T11:00:49.857000+00:00</time>
      </trkpt>
      <trkpt lat="47.3023" lon="-1.37361">
        <ele>109</ele>
        <time>2020-12-20T11:00:50.850000+00:00</time>
      </trkpt>
      <trkpt lat="0" lon="0">
        <time>2020-12-20T11:00:50.853000+00:00</time>
      </trkpt>
      <trkpt lat="0" lon="0">
        <time>2020-12-20T11:00:50.859000+00:00</time>
      </trkpt>
      <trkpt lat="0" lon="0">
        <time>2020-12-20T11:00:50.860000+00:00</time>
      </trkpt>
      <trkpt lat="47.30231" lon="-1.37362">
        <ele>109</ele>
        <time>2020-12-20T11:00:51.835000+00:00</time>
      </trkpt>
      <trkpt lat="0" lon="0">
        <time>2020-12-20T11:00:51.840000+00:00</time>
      </trkpt>
      <trkpt lat="0" lon="0">
        <time>2020-12-20T11:00:51.844000+00:00</time>
      </trkpt>
      <trkpt lat="0" lon="0">
        <time>2020-12-20T11:00:51.845000+00:00</time>
      </trkpt>
      <trkpt lat="47.30232" lon="-1.37364">
        <ele>109</ele>
        <time>2020-12-20T11:00:52.845000+00:00</time>
      </trkpt>
      <trkpt lat="0" lon="0">
        <time>2020-12-20T11:00:52.853000+00:00</time>
      </trkpt>
      <trkpt lat="0" lon="0">
        <time>2020-12-20T11:00:52.861000+00:00</time>
      </trkpt>
      <trkpt lat="0" lon="0">
        <time>2020-12-20T11:00:52.863000+00:00</time>
      </trkpt>
      <trkpt lat="47.30233" lon="-1.37367">
        <ele>109</ele>
        <time>2020-12-20T11:00:53.844000+00:00</time>
      </trkpt>
      <trkpt lat="0" lon="0">
        <time>2020-12-20T11:00:53.849000+00:00</time>
      </trkpt>
      <trkpt lat="0" lon="0">
        <time>2020-12-20T11:00:53.856000+00:00</time>
      </trkpt>
      <trkpt lat="0" lon="0">
        <time>2020-12-20T11:00:53.857000+00:00</time>
      </trkpt>
      <trkpt lat="47.30234" lon="-1.3737">
        <ele>109</ele>
        <time>2020-12-20T11:00:54.846000+00:00</time>
      </trkpt>
      <trkpt lat="0" lon="0">
        <time>2020-12-20T11:00:54.855000+00:00</time>
      </trkpt>
      <trkpt lat="0" lon="0">
        <time>2020-12-20T11:00:54.858000+00:00</time>
      </trkpt>
      <trkpt lat="0" lon="0">
        <time>2020-12-20T11:00:54.859000+00:00</time>
      </trkpt>
      <trkpt lat="47.30235" lon="-1.37373">
        <ele>109</ele>
        <time>2020-12-20T11:00:55.813000+00:00</time>
      </trkpt>
      <trkpt lat="0" lon="0">
        <time>2020-12-20T11:00:55.818000+00:00</time>
      </trkpt>
      <trkpt lat="0" lon="0">
        <time>2020-12-20T11:00:55.819000+00:00</time>
      </trkpt>
      <trkpt lat="0" lon="0">
        <time>2020-12-20T11:00:55.820000+00:00</time>
      </trkpt>
      <trkpt lat="47.30236" lon="-1.37376">
        <ele>109</ele>
        <time>2020-12-20T11:00:56.846000+00:00</time>
      </trkpt>
      <trkpt lat="0" lon="0">
        <time>2020-12-20T11:00:56.849000+00:00</time>
      </trkpt>
      <trkpt lat="0" lon="0">
        <time>2020-12-20T11:00:56.856000+00:00</time>
      </trkpt>
      <trkpt lat="0" lon="0">
        <time>2020-12-20T11:00:56.859000+00:00</time>
      </trkpt>
      <trkpt lat="47.30237" lon="-1.37379">
        <ele>109</ele>
        <time>2020-12-20T11:00:57.840000+00:00</time>
      </trkpt>
      <trkpt lat="0" lon="0">
        <time>2020-12-20T11:00:57.843000+00:00</time>
      </trkpt>
      <trkpt lat="0" lon="0">
        <time>2020-12-20T11:00:57.847000+00:00</time>
      </trkpt>
      <trkpt lat="0" lon="0">
        <time>2020-12-20T11:00:57.849000+00:00</time>
      </trkpt>
      <trkpt lat="47.30238" lon="-1.37381">
        <ele>109</ele>
        <time>2020-12-20T11:00:58.855000+00:00</time>
      </trkpt>
      <trkpt lat="0" lon="0">
        <time>2020-12-20T11:00:58.859000+00:00</time>
      </trkpt>
      <trkpt lat="0" lon="0">
        <time>2020-12-20T11:00:58.861000+00:00</time>
      </trkpt>
      <trkpt lat="0" lon="0">
        <time>2020-12-20T11:00:58.862000+00:00</time>
      </trkpt>
      <trkpt lat="47.30239" lon="-1.37384">
        <ele>109</ele>
        <time>2020-12-20T11:00:59.853000+00:00</time>
      </trkpt>
      <trkpt lat="0" lon="0">
        <time>2020-12-20T11:00:59.856000+00:00</time>
      </trkpt>
      <trkpt lat="0" lon="0">
        <time>2020-12-20T11:00:59.862000+00:00</time>
      </trkpt>
      <trkpt lat="0" lon="0">
        <time>2020-12-20T11:00:59.863000+00:00</time>
      </trkpt>
      <trkpt lat="47.3024" lon="-1.37387">
        <ele>109</ele>
        <time>2020-12-20T11:01:00.849000+00:00</time>
      </trkpt>
      <trkpt lat="0" lon="0">
        <time>2020-12-20T11:01:00.852000+00:00</time>
      </trkpt>
      <trkpt lat="0" lon="0">
        <time>2020-12-20T11:01:00.857000+00:00</time>
      </trkpt>
      <trkpt lat="0" lon="0">
        <time>2020-12-20T11:01:00.860000+00:00</time>
      </trkpt>
      <trkpt lat="47.30241" lon="-1.37389">
        <ele>109</ele>
        <time>2020-12-20T11:01:01.850000+00:00</time>
      </trkpt>
      <trkpt lat="0" lon="0">
        <time>2020-12-20T11:01:01.853000+00:00</time>
      </trkpt>
      <trkpt lat="0" lon="0">
        <time>2020-12-20T11:01:01.855000+00:00</time>
      </trkpt>
      <trkpt lat="0" lon="0">
        <time>2020-12-20T11:01:01.856000+00:00</time>
      </trkpt>
      <trkpt lat="47.30242" lon="-1.37391">
        <ele>108</ele>
        <time>2020-12-20T11:01:02.848000+00:00</time>
      </trkpt>
      <trkpt lat="0" lon="0">
        <time>2020-12-20T11:01:02.864000+00:00</time>
      </trkpt>
      <trkpt lat="0" lon="0">
        <time>2020-12-20T11:01:02.867000+00:00</time>
      </trkpt>
      <trkpt lat="0" lon="0">
        <time>2020-12-20T11:01:02.868000+00:00</time>
      </trkpt>
      <trkpt lat="47.30242" lon="-1.37393">
        <ele>108</ele>
        <time>2020-12-20T11:01:03.816000+00:00</time>
      </trkpt>
      <trkpt lat="0" lon="0">
        <time>2020-12-20T11:01:03.818000+00:00</time>
      </trkpt>
      <trkpt lat="0" lon="0">
        <time>2020-12-20T11:01:03.824000+00:00</time>
      </trkpt>
      <trkpt lat="47.30243" lon="-1.37394">
        <ele>108</ele>
        <time>2020-12-20T11:01:04.816000+00:00</time>
      </trkpt>
      <trkpt lat="0" lon="0">
        <time>2020-12-20T11:01:04.817000+00:00</time>
      </trkpt>
      <trkpt lat="0" lon="0">
        <time>2020-12-20T11:01:04.819000+00:00</time>
      </trkpt>
      <trkpt lat="0" lon="0">
        <time>2020-12-20T11:01:04.821000+00:00</time>
      </trkpt>
      <trkpt lat="47.30245" lon="-1.37396">
        <ele>108</ele>
        <time>2020-12-20T11:01:05.844000+00:00</time>
      </trkpt>
      <trkpt lat="0" lon="0">
        <time>2020-12-20T11:01:05.846000+00:00</time>
      </trkpt>
      <trkpt lat="0" lon="0">
        <time>2020-12-20T11:01:05.847000+00:00</time>
      </trkpt>
      <trkpt lat="0" lon="0">
        <time>2020-12-20T11:01:05.848000+00:00</time>
      </trkpt>
      <trkpt lat="47.30246" lon="-1.37397">
        <ele>109</ele>
        <time>2020-12-20T11:01:06.830000+00:00</time>
      </trkpt>
      <trkpt lat="0" lon="0">
        <time>2020-12-20T11:01:06.833000+00:00</time>
      </trkpt>
      <trkpt lat="0" lon="0">
        <time>2020-12-20T11:01:06.836000+00:00</time>
      </trkpt>
      <trkpt lat="0" lon="0">
        <time>2020-12-20T11:01:06.838000+00:00</time>
      </trkpt>
      <trkpt lat="47.30248" lon="-1.37399">
        <ele>109</ele>
        <time>2020-12-20T11:01:07.843000+00:00</time>
      </trkpt>
      <trkpt lat="0" lon="0">
        <time>2020-12-20T11:01:07.850000+00:00</time>
      </trkpt>
      <trkpt lat="0" lon="0">
        <time>2020-12-20T11:01:07.856000+00:00</time>
      </trkpt>
      <trkpt lat="0" lon="0">
        <time>2020-12-20T11:01:07.859000+00:00</time>
      </trkpt>
      <trkpt lat="47.30249" lon="-1.37402">
        <ele>109</ele>
        <time>2020-12-20T11:01:08.836000+00:00</time>
      </trkpt>
      <trkpt lat="0" lon="0">
        <time>2020-12-20T11:01:08.843000+00:00</time>
      </trkpt>
      <trkpt lat="0" lon="0">
        <time>2020-12-20T11:01:08.845000+00:00</time>
      </trkpt>
      <trkpt lat="0" lon="0">
        <time>2020-12-20T11:01:08.846000+00:00</time>
      </trkpt>
      <trkpt lat="47.30251" lon="-1.37404">
        <ele>109</ele>
        <time>2020-12-20T11:01:09.836000+00:00</time>
      </trkpt>
      <trkpt lat="0" lon="0">
        <time>2020-12-20T11:01:09.849000+00:00</time>
      </trkpt>
      <trkpt lat="0" lon="0">
        <time>2020-12-20T11:01:09.851000+00:00</time>
      </trkpt>
      <trkpt lat="0" lon="0">
        <time>2020-12-20T11:01:09.852000+00:00</time>
      </trkpt>
      <trkpt lat="47.30253" lon="-1.37407">
        <ele>108</ele>
        <time>2020-12-20T11:01:10.868000+00:00</time>
      </trkpt>
      <trkpt lat="0" lon="0">
        <time>2020-12-20T11:01:10.873000+00:00</time>
      </trkpt>
      <trkpt lat="0" lon="0">
        <time>2020-12-20T11:01:10.875000+00:00</time>
      </trkpt>
      <trkpt lat="0" lon="0">
        <time>2020-12-20T11:01:10.876000+00:00</time>
      </trkpt>
      <trkpt lat="47.30255" lon="-1.3741">
        <ele>108</ele>
        <time>2020-12-20T11:01:11.850000+00:00</time>
      </trkpt>
      <trkpt lat="0" lon="0">
        <time>2020-12-20T11:01:11.856000+00:00</time>
      </trkpt>
      <trkpt lat="0" lon="0">
        <time>2020-12-20T11:01:11.864000+00:00</time>
      </trkpt>
      <trkpt lat="0" lon="0">
        <time>2020-12-20T11:01:11.865000+00:00</time>
      </trkpt>
      <trkpt lat="47.30257" lon="-1.37412">
        <ele>108</ele>
        <time>2020-12-20T11:01:12.852000+00:00</time>
      </trkpt>
      <trkpt lat="0" lon="0">
        <time>2020-12-20T11:01:12.854000+00:00</time>
      </trkpt>
      <trkpt lat="0" lon="0">
        <time>2020-12-20T11:01:12.860000+00:00</time>
      </trkpt>
      <trkpt lat="0" lon="0">
        <time>2020-12-20T11:01:12.861000+00:00</time>
      </trkpt>
      <trkpt lat="47.30259" lon="-1.37415">
        <ele>108</ele>
        <time>2020-12-20T11:01:13.844000+00:00</time>
      </trkpt>
      <trkpt lat="0" lon="0">
        <time>2020-12-20T11:01:13.856000+00:00</time>
      </trkpt>
      <trkpt lat="0" lon="0">
        <time>2020-12-20T11:01:13.858000+00:00</time>
      </trkpt>
      <trkpt lat="0" lon="0">
        <time>2020-12-20T11:01:13.859000+00:00</time>
      </trkpt>
      <trkpt lat="47.30262" lon="-1.37417">
        <ele>108</ele>
        <time>2020-12-20T11:01:14.858000+00:00</time>
      </trkpt>
      <trkpt lat="0" lon="0">
        <time>2020-12-20T11:01:14.861000+00:00</time>
      </trkpt>
      <trkpt lat="0" lon="0">
        <time>2020-12-20T11:01:14.864000+00:00</time>
      </trkpt>
      <trkpt lat="0" lon="0">
        <time>2020-12-20T11:01:14.865000+00:00</time>
      </trkpt>
      <trkpt lat="47.30264" lon="-1.37419">
        <ele>108</ele>
        <time>2020-12-20T11:01:15.844000+00:00</time>
      </trkpt>
      <trkpt lat="0" lon="0">
        <time>2020-12-20T11:01:15.846000+00:00</time>
      </trkpt>
      <trkpt lat="0" lon="0">
        <time>2020-12-20T11:01:15.851000+00:00</time>
      </trkpt>
      <trkpt lat="0" lon="0">
        <time>2020-12-20T11:01:15.852000+00:00</time>
      </trkpt>
      <trkpt lat="47.30267" lon="-1.37422">
        <ele>109</ele>
        <time>2020-12-20T11:01:16.843000+00:00</time>
      </trkpt>
      <trkpt lat="0" lon="0">
        <time>2020-12-20T11:01:16.847000+00:00</time>
      </trkpt>
      <trkpt lat="0" lon="0">
        <time>2020-12-20T11:01:16.849000+00:00</time>
      </trkpt>
      <trkpt lat="0" lon="0">
        <time>2020-12-20T11:01:16.851000+00:00</time>
      </trkpt>
      <trkpt lat="47.30269" lon="-1.37425">
        <ele>110</ele>
        <time>2020-12-20T11:01:17.862000+00:00</time>
      </trkpt>
      <trkpt lat="0" lon="0">
        <time>2020-12-20T11:01:17.865000+00:00</time>
      </trkpt>
      <trkpt lat="0" lon="0">
        <time>2020-12-20T11:01:17.869000+00:00</time>
      </trkpt>
      <trkpt lat="0" lon="0">
        <time>2020-12-20T11:01:17.873000+00:00</time>
      </trkpt>
      <trkpt lat="47.30272" lon="-1.37427">
        <ele>110</ele>
        <time>2020-12-20T11:01:18.841000+00:00</time>
      </trkpt>
      <trkpt lat="0" lon="0">
        <time>2020-12-20T11:01:18.845000+00:00</time>
      </trkpt>
      <trkpt lat="0" lon="0">
        <time>2020-12-20T11:01:18.849000+00:00</time>
      </trkpt>
      <trkpt lat="0" lon="0">
        <time>2020-12-20T11:01:18.852000+00:00</time>
      </trkpt>
      <trkpt lat="47.30274" lon="-1.3743">
        <ele>110</ele>
        <time>2020-12-20T11:01:19.837000+00:00</time>
      </trkpt>
      <trkpt lat="0" lon="0">
        <time>2020-12-20T11:01:19.844000+00:00</time>
      </trkpt>
      <trkpt lat="0" lon="0">
        <time>2020-12-20T11:01:19.852000+00:00</time>
      </trkpt>
      <trkpt lat="0" lon="0">
        <time>2020-12-20T11:01:19.853000+00:00</time>
      </trkpt>
      <trkpt lat="47.30276" lon="-1.37432">
        <ele>110</ele>
        <time>2020-12-20T11:01:20.837000+00:00</time>
      </trkpt>
      <trkpt lat="0" lon="0">
        <time>2020-12-20T11:01:20.841000+00:00</time>
      </trkpt>
      <trkpt lat="0" lon="0">
        <time>2020-12-20T11:01:20.844000+00:00</time>
      </trkpt>
      <trkpt lat="0" lon="0">
        <time>2020-12-20T11:01:20.845000+00:00</time>
      </trkpt>
      <trkpt lat="47.30278" lon="-1.37434">
        <ele>111</ele>
        <time>2020-12-20T11:01:21.862000+00:00</time>
      </trkpt>
      <trkpt lat="0" lon="0">
        <time>2020-12-20T11:01:21.871000+00:00</time>
      </trkpt>
      <trkpt lat="0" lon="0">
        <time>2020-12-20T11:01:21.872000+00:00</time>
      </trkpt>
      <trkpt lat="0" lon="0">
        <time>2020-12-20T11:01:21.873000+00:00</time>
      </trkpt>
      <trkpt lat="47.3028" lon="-1.37436">
        <ele>111</ele>
        <time>2020-12-20T11:01:22.855000+00:00</time>
      </trkpt>
      <trkpt lat="0" lon="0">
        <time>2020-12-20T11:01:22.860000+00:00</time>
      </trkpt>
      <trkpt lat="0" lon="0">
        <time>2020-12-20T11:01:22.864000+00:00</time>
      </trkpt>
      <trkpt lat="0" lon="0">
        <time>2020-12-20T11:01:22.865000+00:00</time>
      </trkpt>
      <trkpt lat="47.30281" lon="-1.37438">
        <ele>110</ele>
        <time>2020-12-20T11:01:23.852000+00:00</time>
      </trkpt>
      <trkpt lat="0" lon="0">
        <time>2020-12-20T11:01:23.855000+00:00</time>
      </trkpt>
      <trkpt lat="0" lon="0">
        <time>2020-12-20T11:01:23.863000+00:00</time>
      </trkpt>
      <trkpt lat="0" lon="0">
        <time>2020-12-20T11:01:23.864000+00:00</time>
      </trkpt>
      <trkpt lat="47.30283" lon="-1.3744">
        <ele>110</ele>
        <time>2020-12-20T11:01:24.862000+00:00</time>
      </trkpt>
      <trkpt lat="0" lon="0">
        <time>2020-12-20T11:01:24.863000+00:00</time>
      </trkpt>
      <trkpt lat="0" lon="0">
        <time>2020-12-20T11:01:24.865000+00:00</time>
      </trkpt>
      <trkpt lat="0" lon="0">
        <time>2020-12-20T11:01:24.868000+00:00</time>
      </trkpt>
      <trkpt lat="47.30285" lon="-1.37441">
        <ele>109</ele>
        <time>2020-12-20T11:01:25.850000+00:00</time>
      </trkpt>
      <trkpt lat="0" lon="0">
        <time>2020-12-20T11:01:25.856000+00:00</time>
      </trkpt>
      <trkpt lat="0" lon="0">
        <time>2020-12-20T11:01:25.860000+00:00</time>
      </trkpt>
      <trkpt lat="0" lon="0">
        <time>2020-12-20T11:01:25.862000+00:00</time>
      </trkpt>
      <trkpt lat="47.30287" lon="-1.37442">
        <ele>109</ele>
        <time>2020-12-20T11:01:26.863000+00:00</time>
      </trkpt>
      <trkpt lat="0" lon="0">
        <time>2020-12-20T11:01:26.869000+00:00</time>
      </trkpt>
      <trkpt lat="0" lon="0">
        <time>2020-12-20T11:01:26.871000+00:00</time>
      </trkpt>
      <trkpt lat="0" lon="0">
        <time>2020-12-20T11:01:26.872000+00:00</time>
      </trkpt>
      <trkpt lat="47.30289" lon="-1.37443">
        <ele>108</ele>
        <time>2020-12-20T11:01:27.864000+00:00</time>
      </trkpt>
      <trkpt lat="0" lon="0">
        <time>2020-12-20T11:01:27.873000+00:00</time>
      </trkpt>
      <trkpt lat="0" lon="0">
        <time>2020-12-20T11:01:27.876000+00:00</time>
      </trkpt>
      <trkpt lat="47.3029" lon="-1.37444">
        <ele>108</ele>
        <time>2020-12-20T11:01:28.874000+00:00</time>
      </trkpt>
      <trkpt lat="0" lon="0">
        <time>2020-12-20T11:01:28.881000+00:00</time>
      </trkpt>
      <trkpt lat="0" lon="0">
        <time>2020-12-20T11:01:28.883000+00:00</time>
      </trkpt>
      <trkpt lat="0" lon="0">
        <time>2020-12-20T11:01:28.888000+00:00</time>
      </trkpt>
      <trkpt lat="47.30292" lon="-1.37445">
        <ele>108</ele>
        <time>2020-12-20T11:01:29.859000+00:00</time>
      </trkpt>
      <trkpt lat="0" lon="0">
        <time>2020-12-20T11:01:29.865000+00:00</time>
      </trkpt>
      <trkpt lat="0" lon="0">
        <time>2020-12-20T11:01:29.873000+00:00</time>
      </trkpt>
      <trkpt lat="0" lon="0">
        <time>2020-12-20T11:01:29.874000+00:00</time>
      </trkpt>
      <trkpt lat="47.30293" lon="-1.37446">
        <ele>108</ele>
        <time>2020-12-20T11:01:30.818000+00:00</time>
      </trkpt>
      <trkpt lat="0" lon="0">
        <time>2020-12-20T11:01:30.823000+00:00</time>
      </trkpt>
      <trkpt lat="0" lon="0">
        <time>2020-12-20T11:01:30.824000+00:00</time>
      </trkpt>
      <trkpt lat="0" lon="0">
        <time>2020-12-20T11:01:30.825000+00:00</time>
      </trkpt>
      <trkpt lat="47.30295" lon="-1.37447">
        <ele>108</ele>
        <time>2020-12-20T11:01:31.798000+00:00</time>
      </trkpt>
      <trkpt lat="0" lon="0">
        <time>2020-12-20T11:01:31.802000+00:00</time>
      </trkpt>
      <trkpt lat="0" lon="0">
        <time>2020-12-20T11:01:31.807000+00:00</time>
      </trkpt>
      <trkpt lat="0" lon="0">
        <time>2020-12-20T11:01:31.808000+00:00</time>
      </trkpt>
      <trkpt lat="47.30296" lon="-1.37449">
        <ele>108</ele>
        <time>2020-12-20T11:01:32.804000+00:00</time>
      </trkpt>
      <trkpt lat="0" lon="0">
        <time>2020-12-20T11:01:32.806000+00:00</time>
      </trkpt>
      <trkpt lat="0" lon="0">
        <time>2020-12-20T11:01:32.808000+00:00</time>
      </trkpt>
      <trkpt lat="47.30298" lon="-1.3745">
        <ele>108</ele>
        <time>2020-12-20T11:01:33.824000+00:00</time>
      </trkpt>
      <trkpt lat="0" lon="0">
        <time>2020-12-20T11:01:33.826000+00:00</time>
      </trkpt>
      <trkpt lat="0" lon="0">
        <time>2020-12-20T11:01:33.829000+00:00</time>
      </trkpt>
      <trkpt lat="0" lon="0">
        <time>2020-12-20T11:01:33.830000+00:00</time>
      </trkpt>
      <trkpt lat="47.30299" lon="-1.37452">
        <ele>108</ele>
        <time>2020-12-20T11:01:34.816000+00:00</time>
      </trkpt>
      <trkpt lat="0" lon="0">
        <time>2020-12-20T11:01:34.818000+00:00</time>
      </trkpt>
      <trkpt lat="0" lon="0">
        <time>2020-12-20T11:01:34.819000+00:00</time>
      </trkpt>
      <trkpt lat="0" lon="0">
        <time>2020-12-20T11:01:34.820000+00:00</time>
      </trkpt>
      <trkpt lat="47.30301" lon="-1.37454">
        <ele>108</ele>
        <time>2020-12-20T11:01:35.824000+00:00</time>
      </trkpt>
      <trkpt lat="0" lon="0">
        <time>2020-12-20T11:01:35.826000+00:00</time>
      </trkpt>
      <trkpt lat="0" lon="0">
        <time>2020-12-20T11:01:35.828000+00:00</time>
      </trkpt>
      <trkpt lat="0" lon="0">
        <time>2020-12-20T11:01:35.829000+00:00</time>
      </trkpt>
      <trkpt lat="47.30302" lon="-1.37455">
        <ele>108</ele>
        <time>2020-12-20T11:01:36.829000+00:00</time>
      </trkpt>
      <trkpt lat="0" lon="0">
        <time>2020-12-20T11:01:36.839000+00:00</time>
      </trkpt>
      <trkpt lat="0" lon="0">
        <time>2020-12-20T11:01:36.840000+00:00</time>
      </trkpt>
      <trkpt lat="0" lon="0">
        <time>2020-12-20T11:01:36.841000+00:00</time>
      </trkpt>
      <trkpt lat="47.30304" lon="-1.37457">
        <ele>108</ele>
        <time>2020-12-20T11:01:37.818000+00:00</time>
      </trkpt>
      <trkpt lat="0" lon="0">
        <time>2020-12-20T11:01:37.825000+00:00</time>
      </trkpt>
      <trkpt lat="0" lon="0">
        <time>2020-12-20T11:01:37.827000+00:00</time>
      </trkpt>
      <trkpt lat="47.30305" lon="-1.37458">
        <ele>108</ele>
        <time>2020-12-20T11:01:38.840000+00:00</time>
      </trkpt>
      <trkpt lat="0" lon="0">
        <time>2020-12-20T11:01:38.844000+00:00</time>
      </trkpt>
      <trkpt lat="0" lon="0">
        <time>2020-12-20T11:01:38.850000+00:00</time>
      </trkpt>
      <trkpt lat="0" lon="0">
        <time>2020-12-20T11:01:38.852000+00:00</time>
      </trkpt>
      <trkpt lat="47.30307" lon="-1.37459">
        <ele>107</ele>
        <time>2020-12-20T11:01:39.842000+00:00</time>
      </trkpt>
      <trkpt lat="0" lon="0">
        <time>2020-12-20T11:01:39.850000+00:00</time>
      </trkpt>
      <trkpt lat="0" lon="0">
        <time>2020-12-20T11:01:39.852000+00:00</time>
      </trkpt>
      <trkpt lat="0" lon="0">
        <time>2020-12-20T11:01:39.853000+00:00</time>
      </trkpt>
      <trkpt lat="47.30309" lon="-1.3746">
        <ele>108</ele>
        <time>2020-12-20T11:01:40.846000+00:00</time>
      </trkpt>
      <trkpt lat="0" lon="0">
        <time>2020-12-20T11:01:40.850000+00:00</time>
      </trkpt>
      <trkpt lat="0" lon="0">
        <time>2020-12-20T11:01:40.857000+00:00</time>
      </trkpt>
      <trkpt lat="0" lon="0">
        <time>2020-12-20T11:01:40.860000+00:00</time>
      </trkpt>
      <trkpt lat="47.3031" lon="-1.37461">
        <ele>108</ele>
        <time>2020-12-20T11:01:41.865000+00:00</time>
      </trkpt>
      <trkpt lat="0" lon="0">
        <time>2020-12-20T11:01:41.868000+00:00</time>
      </trkpt>
      <trkpt lat="0" lon="0">
        <time>2020-12-20T11:01:41.871000+00:00</time>
      </trkpt>
      <trkpt lat="0" lon="0">
        <time>2020-12-20T11:01:41.874000+00:00</time>
      </trkpt>
      <trkpt lat="47.30311" lon="-1.37462">
        <ele>108</ele>
        <time>2020-12-20T11:01:42.842000+00:00</time>
      </trkpt>
      <trkpt lat="0" lon="0">
        <time>2020-12-20T11:01:42.848000+00:00</time>
      </trkpt>
      <trkpt lat="0" lon="0">
        <time>2020-12-20T11:01:42.850000+00:00</time>
      </trkpt>
      <trkpt lat="0" lon="0">
        <time>2020-12-20T11:01:42.854000+00:00</time>
      </trkpt>
      <trkpt lat="47.30312" lon="-1.37464">
        <ele>108</ele>
        <time>2020-12-20T11:01:43.865000+00:00</time>
      </trkpt>
      <trkpt lat="0" lon="0">
        <time>2020-12-20T11:01:43.868000+00:00</time>
      </trkpt>
      <trkpt lat="0" lon="0">
        <time>2020-12-20T11:01:43.873000+00:00</time>
      </trkpt>
      <trkpt lat="0" lon="0">
        <time>2020-12-20T11:01:43.876000+00:00</time>
      </trkpt>
      <trkpt lat="47.30314" lon="-1.37466">
        <ele>107</ele>
        <time>2020-12-20T11:01:44.836000+00:00</time>
      </trkpt>
      <trkpt lat="0" lon="0">
        <time>2020-12-20T11:01:44.844000+00:00</time>
      </trkpt>
      <trkpt lat="0" lon="0">
        <time>2020-12-20T11:01:44.849000+00:00</time>
      </trkpt>
      <trkpt lat="0" lon="0">
        <time>2020-12-20T11:01:44.853000+00:00</time>
      </trkpt>
      <trkpt lat="47.30315" lon="-1.37468">
        <ele>108</ele>
        <time>2020-12-20T11:01:45.837000+00:00</time>
      </trkpt>
      <trkpt lat="0" lon="0">
        <time>2020-12-20T11:01:45.843000+00:00</time>
      </trkpt>
      <trkpt lat="0" lon="0">
        <time>2020-12-20T11:01:45.845000+00:00</time>
      </trkpt>
      <trkpt lat="0" lon="0">
        <time>2020-12-20T11:01:45.847000+00:00</time>
      </trkpt>
      <trkpt lat="47.30316" lon="-1.37469">
        <ele>108</ele>
        <time>2020-12-20T11:01:46.822000+00:00</time>
      </trkpt>
      <trkpt lat="0" lon="0">
        <time>2020-12-20T11:01:46.831000+00:00</time>
      </trkpt>
      <trkpt lat="0" lon="0">
        <time>2020-12-20T11:01:46.834000+00:00</time>
      </trkpt>
      <trkpt lat="0" lon="0">
        <time>2020-12-20T11:01:46.836000+00:00</time>
      </trkpt>
      <trkpt lat="47.30318" lon="-1.37471">
        <ele>108</ele>
        <time>2020-12-20T11:01:47.828000+00:00</time>
      </trkpt>
      <trkpt lat="0" lon="0">
        <time>2020-12-20T11:01:47.838000+00:00</time>
      </trkpt>
      <trkpt lat="0" lon="0">
        <time>2020-12-20T11:01:47.840000+00:00</time>
      </trkpt>
      <trkpt lat="0" lon="0">
        <time>2020-12-20T11:01:47.841000+00:00</time>
      </trkpt>
      <trkpt lat="47.30319" lon="-1.37472">
        <ele>108</ele>
        <time>2020-12-20T11:01:48.865000+00:00</time>
      </trkpt>
      <trkpt lat="0" lon="0">
        <time>2020-12-20T11:01:48.872000+00:00</time>
      </trkpt>
      <trkpt lat="0" lon="0">
        <time>2020-12-20T11:01:48.874000+00:00</time>
      </trkpt>
      <trkpt lat="0" lon="0">
        <time>2020-12-20T11:01:48.876000+00:00</time>
      </trkpt>
      <trkpt lat="47.30321" lon="-1.37473">
        <ele>108</ele>
        <time>2020-12-20T11:01:49.853000+00:00</time>
      </trkpt>
      <trkpt lat="0" lon="0">
        <time>2020-12-20T11:01:49.861000+00:00</time>
      </trkpt>
      <trkpt lat="0" lon="0">
        <time>2020-12-20T11:01:49.865000+00:00</time>
      </trkpt>
      <trkpt lat="0" lon="0">
        <time>2020-12-20T11:01:49.867000+00:00</time>
      </trkpt>
      <trkpt lat="47.30322" lon="-1.37474">
        <ele>108</ele>
        <time>2020-12-20T11:01:50.858000+00:00</time>
      </trkpt>
      <trkpt lat="0" lon="0">
        <time>2020-12-20T11:01:50.865000+00:00</time>
      </trkpt>
      <trkpt lat="0" lon="0">
        <time>2020-12-20T11:01:50.872000+00:00</time>
      </trkpt>
      <trkpt lat="0" lon="0">
        <time>2020-12-20T11:01:50.875000+00:00</time>
      </trkpt>
      <trkpt lat="47.30324" lon="-1.37475">
        <ele>109</ele>
        <time>2020-12-20T11:01:51.870000+00:00</time>
      </trkpt>
      <trkpt lat="0" lon="0">
        <time>2020-12-20T11:01:51.873000+00:00</time>
      </trkpt>
      <trkpt lat="0" lon="0">
        <time>2020-12-20T11:01:51.876000+00:00</time>
      </trkpt>
      <trkpt lat="0" lon="0">
        <time>2020-12-20T11:01:51.877000+00:00</time>
      </trkpt>
      <trkpt lat="47.30326" lon="-1.37475">
        <ele>110</ele>
        <time>2020-12-20T11:01:52.865000+00:00</time>
      </trkpt>
      <trkpt lat="0" lon="0">
        <time>2020-12-20T11:01:52.870000+00:00</time>
      </trkpt>
      <trkpt lat="0" lon="0">
        <time>2020-12-20T11:01:52.871000+00:00</time>
      </trkpt>
      <trkpt lat="0" lon="0">
        <time>2020-12-20T11:01:52.872000+00:00</time>
      </trkpt>
      <trkpt lat="47.30328" lon="-1.37476">
        <ele>109</ele>
        <time>2020-12-20T11:01:53.856000+00:00</time>
      </trkpt>
      <trkpt lat="0" lon="0">
        <time>2020-12-20T11:01:53.858000+00:00</time>
      </trkpt>
      <trkpt lat="0" lon="0">
        <time>2020-12-20T11:01:53.859000+00:00</time>
      </trkpt>
      <trkpt lat="0" lon="0">
        <time>2020-12-20T11:01:53.860000+00:00</time>
      </trkpt>
      <trkpt lat="47.30331" lon="-1.37476">
        <ele>109</ele>
        <time>2020-12-20T11:01:54.881000+00:00</time>
      </trkpt>
      <trkpt lat="0" lon="0">
        <time>2020-12-20T11:01:54.892000+00:00</time>
      </trkpt>
      <trkpt lat="0" lon="0">
        <time>2020-12-20T11:01:54.893000+00:00</time>
      </trkpt>
      <trkpt lat="0" lon="0">
        <time>2020-12-20T11:01:54.894000+00:00</time>
      </trkpt>
      <trkpt lat="47.30333" lon="-1.37477">
        <ele>109</ele>
        <time>2020-12-20T11:01:55.842000+00:00</time>
      </trkpt>
      <trkpt lat="0" lon="0">
        <time>2020-12-20T11:01:55.844000+00:00</time>
      </trkpt>
      <trkpt lat="0" lon="0">
        <time>2020-12-20T11:01:55.850000+00:00</time>
      </trkpt>
      <trkpt lat="0" lon="0">
        <time>2020-12-20T11:01:55.852000+00:00</time>
      </trkpt>
      <trkpt lat="47.30334" lon="-1.37478">
        <ele>110</ele>
        <time>2020-12-20T11:01:56.861000+00:00</time>
      </trkpt>
      <trkpt lat="0" lon="0">
        <time>2020-12-20T11:01:56.865000+00:00</time>
      </trkpt>
      <trkpt lat="0" lon="0">
        <time>2020-12-20T11:01:56.870000+00:00</time>
      </trkpt>
      <trkpt lat="0" lon="0">
        <time>2020-12-20T11:01:56.871000+00:00</time>
      </trkpt>
      <trkpt lat="47.30336" lon="-1.37479">
        <ele>109</ele>
        <time>2020-12-20T11:01:57.873000+00:00</time>
      </trkpt>
      <trkpt lat="0" lon="0">
        <time>2020-12-20T11:01:57.875000+00:00</time>
      </trkpt>
      <trkpt lat="0" lon="0">
        <time>2020-12-20T11:01:57.879000+00:00</time>
      </trkpt>
      <trkpt lat="0" lon="0">
        <time>2020-12-20T11:01:57.884000+00:00</time>
      </trkpt>
      <trkpt lat="47.30337" lon="-1.3748">
        <ele>109</ele>
        <time>2020-12-20T11:01:58.849000+00:00</time>
      </trkpt>
      <trkpt lat="0" lon="0">
        <time>2020-12-20T11:01:58.858000+00:00</time>
      </trkpt>
      <trkpt lat="0" lon="0">
        <time>2020-12-20T11:01:58.865000+00:00</time>
      </trkpt>
      <trkpt lat="0" lon="0">
        <time>2020-12-20T11:01:58.868000+00:00</time>
      </trkpt>
      <trkpt lat="47.30337" lon="-1.37481">
        <ele>109</ele>
        <time>2020-12-20T11:01:59.824000+00:00</time>
      </trkpt>
      <trkpt lat="0" lon="0">
        <time>2020-12-20T11:01:59.825000+00:00</time>
      </trkpt>
      <trkpt lat="0" lon="0">
        <time>2020-12-20T11:01:59.826000+00:00</time>
      </trkpt>
      <trkpt lat="0" lon="0">
        <time>2020-12-20T11:01:59.828000+00:00</time>
      </trkpt>
      <trkpt lat="47.30338" lon="-1.37483">
        <ele>109</ele>
        <time>2020-12-20T11:02:00.849000+00:00</time>
      </trkpt>
      <trkpt lat="0" lon="0">
        <time>2020-12-20T11:02:00.857000+00:00</time>
      </trkpt>
      <trkpt lat="0" lon="0">
        <time>2020-12-20T11:02:00.862000+00:00</time>
      </trkpt>
      <trkpt lat="0" lon="0">
        <time>2020-12-20T11:02:00.865000+00:00</time>
      </trkpt>
      <trkpt lat="47.30338" lon="-1.37484">
        <ele>109</ele>
        <time>2020-12-20T11:02:01.854000+00:00</time>
      </trkpt>
      <trkpt lat="0" lon="0">
        <time>2020-12-20T11:02:01.857000+00:00</time>
      </trkpt>
      <trkpt lat="0" lon="0">
        <time>2020-12-20T11:02:01.864000+00:00</time>
      </trkpt>
      <trkpt lat="0" lon="0">
        <time>2020-12-20T11:02:01.866000+00:00</time>
      </trkpt>
      <trkpt lat="47.30338" lon="-1.37486">
        <ele>109</ele>
        <time>2020-12-20T11:02:02.899000+00:00</time>
      </trkpt>
      <trkpt lat="0" lon="0">
        <time>2020-12-20T11:02:02.903000+00:00</time>
      </trkpt>
      <trkpt lat="0" lon="0">
        <time>2020-12-20T11:02:02.905000+00:00</time>
      </trkpt>
      <trkpt lat="0" lon="0">
        <time>2020-12-20T11:02:02.906000+00:00</time>
      </trkpt>
      <trkpt lat="47.30338" lon="-1.37488">
        <ele>110</ele>
        <time>2020-12-20T11:02:03.882000+00:00</time>
      </trkpt>
      <trkpt lat="0" lon="0">
        <time>2020-12-20T11:02:03.888000+00:00</time>
      </trkpt>
      <trkpt lat="0" lon="0">
        <time>2020-12-20T11:02:03.896000+00:00</time>
      </trkpt>
      <trkpt lat="0" lon="0">
        <time>2020-12-20T11:02:03.899000+00:00</time>
      </trkpt>
      <trkpt lat="47.30337" lon="-1.3749">
        <ele>109</ele>
        <time>2020-12-20T11:02:04.865000+00:00</time>
      </trkpt>
      <trkpt lat="0" lon="0">
        <time>2020-12-20T11:02:04.871000+00:00</time>
      </trkpt>
      <trkpt lat="0" lon="0">
        <time>2020-12-20T11:02:04.874000+00:00</time>
      </trkpt>
      <trkpt lat="0" lon="0">
        <time>2020-12-20T11:02:04.875000+00:00</time>
      </trkpt>
      <trkpt lat="47.30336" lon="-1.37492">
        <ele>109</ele>
        <time>2020-12-20T11:02:05.907000+00:00</time>
      </trkpt>
      <trkpt lat="0" lon="0">
        <time>2020-12-20T11:02:05.913000+00:00</time>
      </trkpt>
      <trkpt lat="0" lon="0">
        <time>2020-12-20T11:02:05.915000+00:00</time>
      </trkpt>
      <trkpt lat="0" lon="0">
        <time>2020-12-20T11:02:05.917000+00:00</time>
      </trkpt>
      <trkpt lat="47.30334" lon="-1.37494">
        <ele>109</ele>
        <time>2020-12-20T11:02:06.869000+00:00</time>
      </trkpt>
      <trkpt lat="0" lon="0">
        <time>2020-12-20T11:02:06.878000+00:00</time>
      </trkpt>
      <trkpt lat="0" lon="0">
        <time>2020-12-20T11:02:06.879000+00:00</time>
      </trkpt>
      <trkpt lat="0" lon="0">
        <time>2020-12-20T11:02:06.880000+00:00</time>
      </trkpt>
      <trkpt lat="47.30333" lon="-1.37497">
        <ele>109</ele>
        <time>2020-12-20T11:02:07.885000+00:00</time>
      </trkpt>
      <trkpt lat="0" lon="0">
        <time>2020-12-20T11:02:07.890000+00:00</time>
      </trkpt>
      <trkpt lat="0" lon="0">
        <time>2020-12-20T11:02:07.896000+00:00</time>
      </trkpt>
      <trkpt lat="0" lon="0">
        <time>2020-12-20T11:02:07.900000+00:00</time>
      </trkpt>
      <trkpt lat="47.30332" lon="-1.37499">
        <ele>109</ele>
        <time>2020-12-20T11:02:08.871000+00:00</time>
      </trkpt>
      <trkpt lat="0" lon="0">
        <time>2020-12-20T11:02:08.874000+00:00</time>
      </trkpt>
      <trkpt lat="0" lon="0">
        <time>2020-12-20T11:02:08.880000+00:00</time>
      </trkpt>
      <trkpt lat="0" lon="0">
        <time>2020-12-20T11:02:08.881000+00:00</time>
      </trkpt>
      <trkpt lat="47.30331" lon="-1.37502">
        <ele>109</ele>
        <time>2020-12-20T11:02:09.882000+00:00</time>
      </trkpt>
      <trkpt lat="0" lon="0">
        <time>2020-12-20T11:02:09.889000+00:00</time>
      </trkpt>
      <trkpt lat="0" lon="0">
        <time>2020-12-20T11:02:09.891000+00:00</time>
      </trkpt>
      <trkpt lat="0" lon="0">
        <time>2020-12-20T11:02:09.892000+00:00</time>
      </trkpt>
      <trkpt lat="47.3033" lon="-1.37505">
        <ele>109</ele>
        <time>2020-12-20T11:02:10.879000+00:00</time>
      </trkpt>
      <trkpt lat="0" lon="0">
        <time>2020-12-20T11:02:10.882000+00:00</time>
      </trkpt>
      <trkpt lat="0" lon="0">
        <time>2020-12-20T11:02:10.887000+00:00</time>
      </trkpt>
      <trkpt lat="0" lon="0">
        <time>2020-12-20T11:02:10.888000+00:00</time>
      </trkpt>
      <trkpt lat="47.30329" lon="-1.37508">
        <ele>109</ele>
        <time>2020-12-20T11:02:11.851000+00:00</time>
      </trkpt>
      <trkpt lat="0" lon="0">
        <time>2020-12-20T11:02:11.853000+00:00</time>
      </trkpt>
      <trkpt lat="0" lon="0">
        <time>2020-12-20T11:02:11.858000+00:00</time>
      </trkpt>
      <trkpt lat="0" lon="0">
        <time>2020-12-20T11:02:11.859000+00:00</time>
      </trkpt>
      <trkpt lat="47.30329" lon="-1.37512">
        <ele>109</ele>
        <time>2020-12-20T11:02:12.843000+00:00</time>
      </trkpt>
      <trkpt lat="0" lon="0">
        <time>2020-12-20T11:02:12.850000+00:00</time>
      </trkpt>
      <trkpt lat="0" lon="0">
        <time>2020-12-20T11:02:12.853000+00:00</time>
      </trkpt>
      <trkpt lat="0" lon="0">
        <time>2020-12-20T11:02:12.855000+00:00</time>
      </trkpt>
      <trkpt lat="47.30328" lon="-1.37515">
        <ele>109</ele>
        <time>2020-12-20T11:02:13.859000+00:00</time>
      </trkpt>
      <trkpt lat="0" lon="0">
        <time>2020-12-20T11:02:13.861000+00:00</time>
      </trkpt>
      <trkpt lat="0" lon="0">
        <time>2020-12-20T11:02:13.868000+00:00</time>
      </trkpt>
      <trkpt lat="0" lon="0">
        <time>2020-12-20T11:02:13.872000+00:00</time>
      </trkpt>
      <trkpt lat="47.30328" lon="-1.37518">
        <ele>108</ele>
        <time>2020-12-20T11:02:14.873000+00:00</time>
      </trkpt>
      <trkpt lat="0" lon="0">
        <time>2020-12-20T11:02:14.876000+00:00</time>
      </trkpt>
      <trkpt lat="0" lon="0">
        <time>2020-12-20T11:02:14.879000+00:00</time>
      </trkpt>
      <trkpt lat="0" lon="0">
        <time>2020-12-20T11:02:14.881000+00:00</time>
      </trkpt>
      <trkpt lat="47.30327" lon="-1.3752">
        <ele>108</ele>
        <time>2020-12-20T11:02:15.870000+00:00</time>
      </trkpt>
      <trkpt lat="0" lon="0">
        <time>2020-12-20T11:02:15.876000+00:00</time>
      </trkpt>
      <trkpt lat="0" lon="0">
        <time>2020-12-20T11:02:15.881000+00:00</time>
      </trkpt>
      <trkpt lat="0" lon="0">
        <time>2020-12-20T11:02:15.883000+00:00</time>
      </trkpt>
      <trkpt lat="47.30327" lon="-1.37522">
        <ele>108</ele>
        <time>2020-12-20T11:02:16.872000+00:00</time>
      </trkpt>
      <trkpt lat="0" lon="0">
        <time>2020-12-20T11:02:16.880000+00:00</time>
      </trkpt>
      <trkpt lat="0" lon="0">
        <time>2020-12-20T11:02:16.881000+00:00</time>
      </trkpt>
      <trkpt lat="0" lon="0">
        <time>2020-12-20T11:02:16.882000+00:00</time>
      </trkpt>
      <trkpt lat="47.30327" lon="-1.37525">
        <ele>107</ele>
        <time>2020-12-20T11:02:17.879000+00:00</time>
      </trkpt>
      <trkpt lat="0" lon="0">
        <time>2020-12-20T11:02:17.881000+00:00</time>
      </trkpt>
      <trkpt lat="0" lon="0">
        <time>2020-12-20T11:02:17.885000+00:00</time>
      </trkpt>
      <trkpt lat="0" lon="0">
        <time>2020-12-20T11:02:17.887000+00:00</time>
      </trkpt>
      <trkpt lat="47.30326" lon="-1.37526">
        <ele>106</ele>
        <time>2020-12-20T11:02:18.879000+00:00</time>
      </trkpt>
      <trkpt lat="0" lon="0">
        <time>2020-12-20T11:02:18.888000+00:00</time>
      </trkpt>
      <trkpt lat="0" lon="0">
        <time>2020-12-20T11:02:18.890000+00:00</time>
      </trkpt>
      <trkpt lat="0" lon="0">
        <time>2020-12-20T11:02:18.891000+00:00</time>
      </trkpt>
      <trkpt lat="47.30326" lon="-1.37528">
        <ele>106</ele>
        <time>2020-12-20T11:02:19.879000+00:00</time>
      </trkpt>
      <trkpt lat="0" lon="0">
        <time>2020-12-20T11:02:19.885000+00:00</time>
      </trkpt>
      <trkpt lat="0" lon="0">
        <time>2020-12-20T11:02:19.888000+00:00</time>
      </trkpt>
      <trkpt lat="0" lon="0">
        <time>2020-12-20T11:02:19.889000+00:00</time>
      </trkpt>
      <trkpt lat="47.30325" lon="-1.3753">
        <ele>106</ele>
        <time>2020-12-20T11:02:20.855000+00:00</time>
      </trkpt>
      <trkpt lat="0" lon="0">
        <time>2020-12-20T11:02:20.858000+00:00</time>
      </trkpt>
      <trkpt lat="0" lon="0">
        <time>2020-12-20T11:02:20.864000+00:00</time>
      </trkpt>
      <trkpt lat="0" lon="0">
        <time>2020-12-20T11:02:20.865000+00:00</time>
      </trkpt>
      <trkpt lat="47.30324" lon="-1.37531">
        <ele>106</ele>
        <time>2020-12-20T11:02:21.851000+00:00</time>
      </trkpt>
      <trkpt lat="0" lon="0">
        <time>2020-12-20T11:02:21.864000+00:00</time>
      </trkpt>
      <trkpt lat="0" lon="0">
        <time>2020-12-20T11:02:21.868000+00:00</time>
      </trkpt>
      <trkpt lat="0" lon="0">
        <time>2020-12-20T11:02:21.870000+00:00</time>
      </trkpt>
      <trkpt lat="47.30324" lon="-1.37532">
        <ele>106</ele>
        <time>2020-12-20T11:02:22.868000+00:00</time>
      </trkpt>
      <trkpt lat="0" lon="0">
        <time>2020-12-20T11:02:22.874000+00:00</time>
      </trkpt>
      <trkpt lat="0" lon="0">
        <time>2020-12-20T11:02:22.877000+00:00</time>
      </trkpt>
      <trkpt lat="0" lon="0">
        <time>2020-12-20T11:02:22.878000+00:00</time>
      </trkpt>
      <trkpt lat="47.30324" lon="-1.37534">
        <ele>105</ele>
        <time>2020-12-20T11:02:23.881000+00:00</time>
      </trkpt>
      <trkpt lat="0" lon="0">
        <time>2020-12-20T11:02:23.890000+00:00</time>
      </trkpt>
      <trkpt lat="0" lon="0">
        <time>2020-12-20T11:02:23.895000+00:00</time>
      </trkpt>
      <trkpt lat="0" lon="0">
        <time>2020-12-20T11:02:23.896000+00:00</time>
      </trkpt>
      <trkpt lat="47.30323" lon="-1.37535">
        <ele>105</ele>
        <time>2020-12-20T11:02:24.888000+00:00</time>
      </trkpt>
      <trkpt lat="0" lon="0">
        <time>2020-12-20T11:02:24.898000+00:00</time>
      </trkpt>
      <trkpt lat="0" lon="0">
        <time>2020-12-20T11:02:24.902000+00:00</time>
      </trkpt>
      <trkpt lat="0" lon="0">
        <time>2020-12-20T11:02:24.903000+00:00</time>
      </trkpt>
      <trkpt lat="47.30323" lon="-1.37536">
        <ele>105</ele>
        <time>2020-12-20T11:02:25.868000+00:00</time>
      </trkpt>
      <trkpt lat="0" lon="0">
        <time>2020-12-20T11:02:25.870000+00:00</time>
      </trkpt>
      <trkpt lat="0" lon="0">
        <time>2020-12-20T11:02:25.879000+00:00</time>
      </trkpt>
      <trkpt lat="0" lon="0">
        <time>2020-12-20T11:02:25.880000+00:00</time>
      </trkpt>
      <trkpt lat="47.30323" lon="-1.37537">
        <ele>104</ele>
        <time>2020-12-20T11:02:26.962000+00:00</time>
      </trkpt>
      <trkpt lat="0" lon="0">
        <time>2020-12-20T11:02:26.964000+00:00</time>
      </trkpt>
      <trkpt lat="0" lon="0">
        <time>2020-12-20T11:02:26.968000+00:00</time>
      </trkpt>
      <trkpt lat="0" lon="0">
        <time>2020-12-20T11:02:26.969000+00:00</time>
      </trkpt>
      <trkpt lat="47.30323" lon="-1.37538">
        <ele>104</ele>
        <time>2020-12-20T11:02:27.905000+00:00</time>
      </trkpt>
      <trkpt lat="0" lon="0">
        <time>2020-12-20T11:02:27.911000+00:00</time>
      </trkpt>
      <trkpt lat="0" lon="0">
        <time>2020-12-20T11:02:27.913000+00:00</time>
      </trkpt>
      <trkpt lat="47.30323" lon="-1.3754">
        <ele>103</ele>
        <time>2020-12-20T11:02:28.956000+00:00</time>
      </trkpt>
      <trkpt lat="0" lon="0">
        <time>2020-12-20T11:02:28.964000+00:00</time>
      </trkpt>
      <trkpt lat="0" lon="0">
        <time>2020-12-20T11:02:28.970000+00:00</time>
      </trkpt>
      <trkpt lat="0" lon="0">
        <time>2020-12-20T11:02:28.972000+00:00</time>
      </trkpt>
      <trkpt lat="47.30322" lon="-1.37541">
        <ele>101</ele>
        <time>2020-12-20T11:02:29.952000+00:00</time>
      </trkpt>
      <trkpt lat="0" lon="0">
        <time>2020-12-20T11:02:29.959000+00:00</time>
      </trkpt>
      <trkpt lat="0" lon="0">
        <time>2020-12-20T11:02:29.965000+00:00</time>
      </trkpt>
      <trkpt lat="0" lon="0">
        <time>2020-12-20T11:02:29.968000+00:00</time>
      </trkpt>
      <trkpt lat="47.30322" lon="-1.37543">
        <ele>101</ele>
        <time>2020-12-20T11:02:30.948000+00:00</time>
      </trkpt>
      <trkpt lat="0" lon="0">
        <time>2020-12-20T11:02:30.950000+00:00</time>
      </trkpt>
      <trkpt lat="0" lon="0">
        <time>2020-12-20T11:02:30.951000+00:00</time>
      </trkpt>
      <trkpt lat="47.30322" lon="-1.37544">
        <ele>100</ele>
        <time>2020-12-20T11:02:31.890000+00:00</time>
      </trkpt>
      <trkpt lat="0" lon="0">
        <time>2020-12-20T11:02:31.893000+00:00</time>
      </trkpt>
      <trkpt lat="0" lon="0">
        <time>2020-12-20T11:02:31.897000+00:00</time>
      </trkpt>
      <trkpt lat="0" lon="0">
        <time>2020-12-20T11:02:31.899000+00:00</time>
      </trkpt>
      <trkpt lat="47.30322" lon="-1.37545">
        <ele>100</ele>
        <time>2020-12-20T11:02:32.902000+00:00</time>
      </trkpt>
      <trkpt lat="0" lon="0">
        <time>2020-12-20T11:02:32.912000+00:00</time>
      </trkpt>
      <trkpt lat="0" lon="0">
        <time>2020-12-20T11:02:32.920000+00:00</time>
      </trkpt>
      <trkpt lat="0" lon="0">
        <time>2020-12-20T11:02:32.922000+00:00</time>
      </trkpt>
      <trkpt lat="47.30322" lon="-1.37545">
        <ele>100</ele>
        <time>2020-12-20T11:02:33.967000+00:00</time>
      </trkpt>
      <trkpt lat="0" lon="0">
        <time>2020-12-20T11:02:33.977000+00:00</time>
      </trkpt>
      <trkpt lat="0" lon="0">
        <time>2020-12-20T11:02:33.986000+00:00</time>
      </trkpt>
      <trkpt lat="0" lon="0">
        <time>2020-12-20T11:02:33.989000+00:00</time>
      </trkpt>
      <trkpt lat="47.30321" lon="-1.37546">
        <ele>100</ele>
        <time>2020-12-20T11:02:34.935000+00:00</time>
      </trkpt>
      <trkpt lat="0" lon="0">
        <time>2020-12-20T11:02:34.945000+00:00</time>
      </trkpt>
      <trkpt lat="0" lon="0">
        <time>2020-12-20T11:02:34.948000+00:00</time>
      </trkpt>
      <trkpt lat="0" lon="0">
        <time>2020-12-20T11:02:34.950000+00:00</time>
      </trkpt>
      <trkpt lat="47.30321" lon="-1.37546">
        <ele>100</ele>
        <time>2020-12-20T11:02:35.952000+00:00</time>
      </trkpt>
      <trkpt lat="0" lon="0">
        <time>2020-12-20T11:02:35.977000+00:00</time>
      </trkpt>
      <trkpt lat="0" lon="0">
        <time>2020-12-20T11:02:35.979000+00:00</time>
      </trkpt>
      <trkpt lat="0" lon="0">
        <time>2020-12-20T11:02:35.981000+00:00</time>
      </trkpt>
      <trkpt lat="47.30321" lon="-1.37546">
        <ele>100</ele>
        <time>2020-12-20T11:02:36.942000+00:00</time>
      </trkpt>
      <trkpt lat="0" lon="0">
        <time>2020-12-20T11:02:36.946000+00:00</time>
      </trkpt>
      <trkpt lat="0" lon="0">
        <time>2020-12-20T11:02:36.956000+00:00</time>
      </trkpt>
      <trkpt lat="0" lon="0">
        <time>2020-12-20T11:02:36.972000+00:00</time>
      </trkpt>
      <trkpt lat="47.30309" lon="-1.3757">
        <ele>103</ele>
        <time>2020-12-20T11:02:37.894000+00:00</time>
      </trkpt>
      <trkpt lat="0" lon="0">
        <time>2020-12-20T11:02:37.899000+00:00</time>
      </trkpt>
      <trkpt lat="0" lon="0">
        <time>2020-12-20T11:02:37.902000+00:00</time>
      </trkpt>
      <trkpt lat="0" lon="0">
        <time>2020-12-20T11:02:37.906000+00:00</time>
      </trkpt>
      <trkpt lat="47.30309" lon="-1.37572">
        <ele>104</ele>
        <time>2020-12-20T11:02:38.954000+00:00</time>
      </trkpt>
      <trkpt lat="0" lon="0">
        <time>2020-12-20T11:02:38.957000+00:00</time>
      </trkpt>
      <trkpt lat="0" lon="0">
        <time>2020-12-20T11:02:38.960000+00:00</time>
      </trkpt>
      <trkpt lat="0" lon="0">
        <time>2020-12-20T11:02:38.961000+00:00</time>
      </trkpt>
      <trkpt lat="47.30309" lon="-1.37573">
        <ele>104</ele>
        <time>2020-12-20T11:02:39.955000+00:00</time>
      </trkpt>
      <trkpt lat="0" lon="0">
        <time>2020-12-20T11:02:39.966000+00:00</time>
      </trkpt>
      <trkpt lat="0" lon="0">
        <time>2020-12-20T11:02:39.971000+00:00</time>
      </trkpt>
      <trkpt lat="0" lon="0">
        <time>2020-12-20T11:02:39.974000+00:00</time>
      </trkpt>
      <trkpt lat="47.30308" lon="-1.37575">
        <ele>104</ele>
        <time>2020-12-20T11:02:40.997000+00:00</time>
      </trkpt>
      <trkpt lat="0" lon="0">
        <time>2020-12-20T11:02:40.999000+00:00</time>
      </trkpt>
      <trkpt lat="0" lon="0">
        <time>2020-12-20T11:02:41.001000+00:00</time>
      </trkpt>
      <trkpt lat="47.30308" lon="-1.37577">
        <ele>105</ele>
        <time>2020-12-20T11:02:41.954000+00:00</time>
      </trkpt>
      <trkpt lat="0" lon="0">
        <time>2020-12-20T11:02:41.961000+00:00</time>
      </trkpt>
      <trkpt lat="0" lon="0">
        <time>2020-12-20T11:02:41.965000+00:00</time>
      </trkpt>
      <trkpt lat="0" lon="0">
        <time>2020-12-20T11:02:41.967000+00:00</time>
      </trkpt>
      <trkpt lat="47.30307" lon="-1.37579">
        <ele>106</ele>
        <time>2020-12-20T11:02:42.951000+00:00</time>
      </trkpt>
      <trkpt lat="0" lon="0">
        <time>2020-12-20T11:02:42.964000+00:00</time>
      </trkpt>
      <trkpt lat="0" lon="0">
        <time>2020-12-20T11:02:42.972000+00:00</time>
      </trkpt>
      <trkpt lat="0" lon="0">
        <time>2020-12-20T11:02:42.974000+00:00</time>
      </trkpt>
      <trkpt lat="47.30307" lon="-1.37581">
        <ele>106</ele>
        <time>2020-12-20T11:02:43.980000+00:00</time>
      </trkpt>
      <trkpt lat="0" lon="0">
        <time>2020-12-20T11:02:43.990000+00:00</time>
      </trkpt>
      <trkpt lat="0" lon="0">
        <time>2020-12-20T11:02:43.996000+00:00</time>
      </trkpt>
      <trkpt lat="0" lon="0">
        <time>2020-12-20T11:02:44.002000+00:00</time>
      </trkpt>
      <trkpt lat="47.30306" lon="-1.37582">
        <ele>106</ele>
        <time>2020-12-20T11:02:44.967000+00:00</time>
      </trkpt>
      <trkpt lat="0" lon="0">
        <time>2020-12-20T11:02:44.972000+00:00</time>
      </trkpt>
      <trkpt lat="0" lon="0">
        <time>2020-12-20T11:02:44.980000+00:00</time>
      </trkpt>
      <trkpt lat="0" lon="0">
        <time>2020-12-20T11:02:44.981000+00:00</time>
      </trkpt>
      <trkpt lat="47.30306" lon="-1.37585">
        <ele>109</ele>
        <time>2020-12-20T11:02:45.990000+00:00</time>
      </trkpt>
      <trkpt lat="0" lon="0">
        <time>2020-12-20T11:02:45.997000+00:00</time>
      </trkpt>
      <trkpt lat="0" lon="0">
        <time>2020-12-20T11:02:46.001000+00:00</time>
      </trkpt>
      <trkpt lat="0" lon="0">
        <time>2020-12-20T11:02:46.012000+00:00</time>
      </trkpt>
      <trkpt lat="47.30305" lon="-1.37587">
        <ele>110</ele>
        <time>2020-12-20T11:02:46.986000+00:00</time>
      </trkpt>
      <trkpt lat="0" lon="0">
        <time>2020-12-20T11:02:47.001000+00:00</time>
      </trkpt>
      <trkpt lat="0" lon="0">
        <time>2020-12-20T11:02:47.003000+00:00</time>
      </trkpt>
      <trkpt lat="0" lon="0">
        <time>2020-12-20T11:02:47.005000+00:00</time>
      </trkpt>
      <trkpt lat="47.30303" lon="-1.3759">
        <ele>111</ele>
        <time>2020-12-20T11:02:47.975000+00:00</time>
      </trkpt>
      <trkpt lat="0" lon="0">
        <time>2020-12-20T11:02:47.987000+00:00</time>
      </trkpt>
      <trkpt lat="0" lon="0">
        <time>2020-12-20T11:02:47.997000+00:00</time>
      </trkpt>
      <trkpt lat="0" lon="0">
        <time>2020-12-20T11:02:48+00:00</time>
      </trkpt>
      <trkpt lat="47.30302" lon="-1.37593">
        <ele>112</ele>
        <time>2020-12-20T11:02:48.952000+00:00</time>
      </trkpt>
      <trkpt lat="0" lon="0">
        <time>2020-12-20T11:02:48.959000+00:00</time>
      </trkpt>
      <trkpt lat="0" lon="0">
        <time>2020-12-20T11:02:48.964000+00:00</time>
      </trkpt>
      <trkpt lat="0" lon="0">
        <time>2020-12-20T11:02:48.967000+00:00</time>
      </trkpt>
      <trkpt lat="47.30301" lon="-1.37596">
        <ele>112</ele>
        <time>2020-12-20T11:02:50.014000+00:00</time>
      </trkpt>
      <trkpt lat="0" lon="0">
        <time>2020-12-20T11:02:50.028000+00:00</time>
      </trkpt>
      <trkpt lat="0" lon="0">
        <time>2020-12-20T11:02:50.033000+00:00</time>
      </trkpt>
      <trkpt lat="0" lon="0">
        <time>2020-12-20T11:02:50.036000+00:00</time>
      </trkpt>
      <trkpt lat="47.303" lon="-1.37599">
        <ele>113</ele>
        <time>2020-12-20T11:02:50.976000+00:00</time>
      </trkpt>
      <trkpt lat="0" lon="0">
        <time>2020-12-20T11:02:50.994000+00:00</time>
      </trkpt>
      <trkpt lat="0" lon="0">
        <time>2020-12-20T11:02:50.998000+00:00</time>
      </trkpt>
      <trkpt lat="0" lon="0">
        <time>2020-12-20T11:02:51.001000+00:00</time>
      </trkpt>
      <trkpt lat="47.30299" lon="-1.37601">
        <ele>115</ele>
        <time>2020-12-20T11:02:51.909000+00:00</time>
      </trkpt>
      <trkpt lat="0" lon="0">
        <time>2020-12-20T11:02:51.913000+00:00</time>
      </trkpt>
      <trkpt lat="0" lon="0">
        <time>2020-12-20T11:02:51.914000+00:00</time>
      </trkpt>
      <trkpt lat="0" lon="0">
        <time>2020-12-20T11:02:51.915000+00:00</time>
      </trkpt>
      <trkpt lat="47.30297" lon="-1.37603">
        <ele>115</ele>
        <time>2020-12-20T11:02:52.966000+00:00</time>
      </trkpt>
      <trkpt lat="0" lon="0">
        <time>2020-12-20T11:02:52.968000+00:00</time>
      </trkpt>
      <trkpt lat="0" lon="0">
        <time>2020-12-20T11:02:52.970000+00:00</time>
      </trkpt>
      <trkpt lat="0" lon="0">
        <time>2020-12-20T11:02:52.972000+00:00</time>
      </trkpt>
      <trkpt lat="47.30296" lon="-1.37606">
        <ele>115</ele>
        <time>2020-12-20T11:02:53.885000+00:00</time>
      </trkpt>
      <trkpt lat="0" lon="0">
        <time>2020-12-20T11:02:53.906000+00:00</time>
      </trkpt>
      <trkpt lat="0" lon="0">
        <time>2020-12-20T11:02:53.910000+00:00</time>
      </trkpt>
      <trkpt lat="0" lon="0">
        <time>2020-12-20T11:02:53.912000+00:00</time>
      </trkpt>
      <trkpt lat="47.30295" lon="-1.37608">
        <ele>115</ele>
        <time>2020-12-20T11:02:54.941000+00:00</time>
      </trkpt>
      <trkpt lat="0" lon="0">
        <time>2020-12-20T11:02:54.950000+00:00</time>
      </trkpt>
      <trkpt lat="0" lon="0">
        <time>2020-12-20T11:02:54.960000+00:00</time>
      </trkpt>
      <trkpt lat="0" lon="0">
        <time>2020-12-20T11:02:54.964000+00:00</time>
      </trkpt>
      <trkpt lat="47.30295" lon="-1.3761">
        <ele>115</ele>
        <time>2020-12-20T11:02:55.960000+00:00</time>
      </trkpt>
      <trkpt lat="0" lon="0">
        <time>2020-12-20T11:02:55.967000+00:00</time>
      </trkpt>
      <trkpt lat="0" lon="0">
        <time>2020-12-20T11:02:55.973000+00:00</time>
      </trkpt>
      <trkpt lat="0" lon="0">
        <time>2020-12-20T11:02:55.976000+00:00</time>
      </trkpt>
      <trkpt lat="47.30294" lon="-1.37612">
        <ele>115</ele>
        <time>2020-12-20T11:02:56.898000+00:00</time>
      </trkpt>
      <trkpt lat="0" lon="0">
        <time>2020-12-20T11:02:56.908000+00:00</time>
      </trkpt>
      <trkpt lat="0" lon="0">
        <time>2020-12-20T11:02:56.912000+00:00</time>
      </trkpt>
      <trkpt lat="0" lon="0">
        <time>2020-12-20T11:02:56.914000+00:00</time>
      </trkpt>
      <trkpt lat="47.30293" lon="-1.37614">
        <ele>116</ele>
        <time>2020-12-20T11:02:57.902000+00:00</time>
      </trkpt>
      <trkpt lat="0" lon="0">
        <time>2020-12-20T11:02:57.921000+00:00</time>
      </trkpt>
      <trkpt lat="0" lon="0">
        <time>2020-12-20T11:02:57.923000+00:00</time>
      </trkpt>
      <trkpt lat="0" lon="0">
        <time>2020-12-20T11:02:57.925000+00:00</time>
      </trkpt>
      <trkpt lat="47.30292" lon="-1.37616">
        <ele>117</ele>
        <time>2020-12-20T11:02:58.940000+00:00</time>
      </trkpt>
      <trkpt lat="0" lon="0">
        <time>2020-12-20T11:02:58.944000+00:00</time>
      </trkpt>
      <trkpt lat="0" lon="0">
        <time>2020-12-20T11:02:58.957000+00:00</time>
      </trkpt>
      <trkpt lat="0" lon="0">
        <time>2020-12-20T11:02:58.960000+00:00</time>
      </trkpt>
      <trkpt lat="47.30291" lon="-1.37618">
        <ele>117</ele>
        <time>2020-12-20T11:02:59.924000+00:00</time>
      </trkpt>
      <trkpt lat="0" lon="0">
        <time>2020-12-20T11:02:59.931000+00:00</time>
      </trkpt>
      <trkpt lat="0" lon="0">
        <time>2020-12-20T11:02:59.935000+00:00</time>
      </trkpt>
      <trkpt lat="0" lon="0">
        <time>2020-12-20T11:02:59.936000+00:00</time>
      </trkpt>
      <trkpt lat="47.3029" lon="-1.3762">
        <ele>118</ele>
        <time>2020-12-20T11:03:00.921000+00:00</time>
      </trkpt>
      <trkpt lat="0" lon="0">
        <time>2020-12-20T11:03:00.934000+00:00</time>
      </trkpt>
      <trkpt lat="0" lon="0">
        <time>2020-12-20T11:03:00.937000+00:00</time>
      </trkpt>
      <trkpt lat="0" lon="0">
        <time>2020-12-20T11:03:00.940000+00:00</time>
      </trkpt>
      <trkpt lat="47.30289" lon="-1.37622">
        <ele>118</ele>
        <time>2020-12-20T11:03:01.948000+00:00</time>
      </trkpt>
      <trkpt lat="0" lon="0">
        <time>2020-12-20T11:03:01.963000+00:00</time>
      </trkpt>
      <trkpt lat="0" lon="0">
        <time>2020-12-20T11:03:01.971000+00:00</time>
      </trkpt>
      <trkpt lat="0" lon="0">
        <time>2020-12-20T11:03:01.976000+00:00</time>
      </trkpt>
      <trkpt lat="47.30288" lon="-1.37624">
        <ele>119</ele>
        <time>2020-12-20T11:03:02.981000+00:00</time>
      </trkpt>
      <trkpt lat="0" lon="0">
        <time>2020-12-20T11:03:03.001000+00:00</time>
      </trkpt>
      <trkpt lat="0" lon="0">
        <time>2020-12-20T11:03:03.005000+00:00</time>
      </trkpt>
      <trkpt lat="0" lon="0">
        <time>2020-12-20T11:03:03.008000+00:00</time>
      </trkpt>
      <trkpt lat="47.30287" lon="-1.37626">
        <ele>119</ele>
        <time>2020-12-20T11:03:03.966000+00:00</time>
      </trkpt>
      <trkpt lat="0" lon="0">
        <time>2020-12-20T11:03:03.969000+00:00</time>
      </trkpt>
      <trkpt lat="0" lon="0">
        <time>2020-12-20T11:03:03.971000+00:00</time>
      </trkpt>
      <trkpt lat="0" lon="0">
        <time>2020-12-20T11:03:03.972000+00:00</time>
      </trkpt>
      <trkpt lat="47.30286" lon="-1.37628">
        <ele>119</ele>
        <time>2020-12-20T11:03:04.969000+00:00</time>
      </trkpt>
      <trkpt lat="0" lon="0">
        <time>2020-12-20T11:03:04.979000+00:00</time>
      </trkpt>
      <trkpt lat="0" lon="0">
        <time>2020-12-20T11:03:04.981000+00:00</time>
      </trkpt>
      <trkpt lat="0" lon="0">
        <time>2020-12-20T11:03:04.982000+00:00</time>
      </trkpt>
      <trkpt lat="47.30285" lon="-1.3763">
        <ele>120</ele>
        <time>2020-12-20T11:03:05.901000+00:00</time>
      </trkpt>
      <trkpt lat="0" lon="0">
        <time>2020-12-20T11:03:05.919000+00:00</time>
      </trkpt>
      <trkpt lat="0" lon="0">
        <time>2020-12-20T11:03:05.928000+00:00</time>
      </trkpt>
      <trkpt lat="0" lon="0">
        <time>2020-12-20T11:03:05.929000+00:00</time>
      </trkpt>
      <trkpt lat="47.30284" lon="-1.37632">
        <ele>120</ele>
        <time>2020-12-20T11:03:06.987000+00:00</time>
      </trkpt>
      <trkpt lat="0" lon="0">
        <time>2020-12-20T11:03:06.994000+00:00</time>
      </trkpt>
      <trkpt lat="0" lon="0">
        <time>2020-12-20T11:03:07.001000+00:00</time>
      </trkpt>
      <trkpt lat="0" lon="0">
        <time>2020-12-20T11:03:07.011000+00:00</time>
      </trkpt>
      <trkpt lat="47.30283" lon="-1.37634">
        <ele>120</ele>
        <time>2020-12-20T11:03:07.963000+00:00</time>
      </trkpt>
      <trkpt lat="0" lon="0">
        <time>2020-12-20T11:03:07.980000+00:00</time>
      </trkpt>
      <trkpt lat="0" lon="0">
        <time>2020-12-20T11:03:07.984000+00:00</time>
      </trkpt>
      <trkpt lat="0" lon="0">
        <time>2020-12-20T11:03:07.987000+00:00</time>
      </trkpt>
      <trkpt lat="47.30282" lon="-1.37636">
        <ele>120</ele>
        <time>2020-12-20T11:03:08.949000+00:00</time>
      </trkpt>
      <trkpt lat="0" lon="0">
        <time>2020-12-20T11:03:08.968000+00:00</time>
      </trkpt>
      <trkpt lat="0" lon="0">
        <time>2020-12-20T11:03:08.978000+00:00</time>
      </trkpt>
      <trkpt lat="0" lon="0">
        <time>2020-12-20T11:03:08.982000+00:00</time>
      </trkpt>
      <trkpt lat="47.30281" lon="-1.37638">
        <ele>120</ele>
        <time>2020-12-20T11:03:09.969000+00:00</time>
      </trkpt>
      <trkpt lat="0" lon="0">
        <time>2020-12-20T11:03:09.973000+00:00</time>
      </trkpt>
      <trkpt lat="0" lon="0">
        <time>2020-12-20T11:03:09.984000+00:00</time>
      </trkpt>
      <trkpt lat="0" lon="0">
        <time>2020-12-20T11:03:09.986000+00:00</time>
      </trkpt>
      <trkpt lat="47.3028" lon="-1.3764">
        <ele>120</ele>
        <time>2020-12-20T11:03:10.984000+00:00</time>
      </trkpt>
      <trkpt lat="0" lon="0">
        <time>2020-12-20T11:03:11.004000+00:00</time>
      </trkpt>
      <trkpt lat="0" lon="0">
        <time>2020-12-20T11:03:11.009000+00:00</time>
      </trkpt>
      <trkpt lat="0" lon="0">
        <time>2020-12-20T11:03:11.015000+00:00</time>
      </trkpt>
      <trkpt lat="47.30279" lon="-1.37641">
        <ele>121</ele>
        <time>2020-12-20T11:03:12.008000+00:00</time>
      </trkpt>
      <trkpt lat="0" lon="0">
        <time>2020-12-20T11:03:12.024000+00:00</time>
      </trkpt>
      <trkpt lat="0" lon="0">
        <time>2020-12-20T11:03:12.029000+00:00</time>
      </trkpt>
      <trkpt lat="0" lon="0">
        <time>2020-12-20T11:03:12.037000+00:00</time>
      </trkpt>
      <trkpt lat="47.30278" lon="-1.37643">
        <ele>121</ele>
        <time>2020-12-20T11:03:12.965000+00:00</time>
      </trkpt>
      <trkpt lat="0" lon="0">
        <time>2020-12-20T11:03:12.991000+00:00</time>
      </trkpt>
      <trkpt lat="0" lon="0">
        <time>2020-12-20T11:03:12.993000+00:00</time>
      </trkpt>
      <trkpt lat="0" lon="0">
        <time>2020-12-20T11:03:12.994000+00:00</time>
      </trkpt>
      <trkpt lat="47.30278" lon="-1.37645">
        <ele>121</ele>
        <time>2020-12-20T11:03:13.955000+00:00</time>
      </trkpt>
      <trkpt lat="0" lon="0">
        <time>2020-12-20T11:03:13.964000+00:00</time>
      </trkpt>
      <trkpt lat="0" lon="0">
        <time>2020-12-20T11:03:13.968000+00:00</time>
      </trkpt>
      <trkpt lat="0" lon="0">
        <time>2020-12-20T11:03:13.969000+00:00</time>
      </trkpt>
      <trkpt lat="47.30277" lon="-1.37647">
        <ele>122</ele>
        <time>2020-12-20T11:03:14.954000+00:00</time>
      </trkpt>
      <trkpt lat="0" lon="0">
        <time>2020-12-20T11:03:14.977000+00:00</time>
      </trkpt>
      <trkpt lat="0" lon="0">
        <time>2020-12-20T11:03:14.982000+00:00</time>
      </trkpt>
      <trkpt lat="0" lon="0">
        <time>2020-12-20T11:03:14.986000+00:00</time>
      </trkpt>
      <trkpt lat="47.30276" lon="-1.37649">
        <ele>122</ele>
        <time>2020-12-20T11:03:15.988000+00:00</time>
      </trkpt>
      <trkpt lat="0" lon="0">
        <time>2020-12-20T11:03:16+00:00</time>
      </trkpt>
      <trkpt lat="0" lon="0">
        <time>2020-12-20T11:03:16.006000+00:00</time>
      </trkpt>
      <trkpt lat="0" lon="0">
        <time>2020-12-20T11:03:16.009000+00:00</time>
      </trkpt>
      <trkpt lat="47.30275" lon="-1.37651">
        <ele>122</ele>
        <time>2020-12-20T11:03:16.999000+00:00</time>
      </trkpt>
      <trkpt lat="0" lon="0">
        <time>2020-12-20T11:03:17.012000+00:00</time>
      </trkpt>
      <trkpt lat="0" lon="0">
        <time>2020-12-20T11:03:17.018000+00:00</time>
      </trkpt>
      <trkpt lat="0" lon="0">
        <time>2020-12-20T11:03:17.022000+00:00</time>
      </trkpt>
      <trkpt lat="47.30274" lon="-1.37652">
        <ele>121</ele>
        <time>2020-12-20T11:03:17.989000+00:00</time>
      </trkpt>
      <trkpt lat="0" lon="0">
        <time>2020-12-20T11:03:17.996000+00:00</time>
      </trkpt>
      <trkpt lat="0" lon="0">
        <time>2020-12-20T11:03:18.003000+00:00</time>
      </trkpt>
      <trkpt lat="0" lon="0">
        <time>2020-12-20T11:03:18.006000+00:00</time>
      </trkpt>
      <trkpt lat="47.30273" lon="-1.37654">
        <ele>122</ele>
        <time>2020-12-20T11:03:18.990000+00:00</time>
      </trkpt>
      <trkpt lat="0" lon="0">
        <time>2020-12-20T11:03:19.004000+00:00</time>
      </trkpt>
      <trkpt lat="0" lon="0">
        <time>2020-12-20T11:03:19.011000+00:00</time>
      </trkpt>
      <trkpt lat="0" lon="0">
        <time>2020-12-20T11:03:19.013000+00:00</time>
      </trkpt>
      <trkpt lat="47.30272" lon="-1.37657">
        <ele>122</ele>
        <time>2020-12-20T11:03:19.968000+00:00</time>
      </trkpt>
      <trkpt lat="0" lon="0">
        <time>2020-12-20T11:03:19.975000+00:00</time>
      </trkpt>
      <trkpt lat="0" lon="0">
        <time>2020-12-20T11:03:19.983000+00:00</time>
      </trkpt>
      <trkpt lat="0" lon="0">
        <time>2020-12-20T11:03:19.986000+00:00</time>
      </trkpt>
      <trkpt lat="47.30271" lon="-1.37659">
        <ele>123</ele>
        <time>2020-12-20T11:03:20.967000+00:00</time>
      </trkpt>
      <trkpt lat="0" lon="0">
        <time>2020-12-20T11:03:20.973000+00:00</time>
      </trkpt>
      <trkpt lat="0" lon="0">
        <time>2020-12-20T11:03:20.978000+00:00</time>
      </trkpt>
      <trkpt lat="0" lon="0">
        <time>2020-12-20T11:03:20.982000+00:00</time>
      </trkpt>
      <trkpt lat="47.30271" lon="-1.37661">
        <ele>123</ele>
        <time>2020-12-20T11:03:21.987000+00:00</time>
      </trkpt>
      <trkpt lat="0" lon="0">
        <time>2020-12-20T11:03:21.994000+00:00</time>
      </trkpt>
      <trkpt lat="0" lon="0">
        <time>2020-12-20T11:03:21.999000+00:00</time>
      </trkpt>
      <trkpt lat="0" lon="0">
        <time>2020-12-20T11:03:22.002000+00:00</time>
      </trkpt>
      <trkpt lat="47.3027" lon="-1.37663">
        <ele>124</ele>
        <time>2020-12-20T11:03:22.944000+00:00</time>
      </trkpt>
      <trkpt lat="0" lon="0">
        <time>2020-12-20T11:03:22.949000+00:00</time>
      </trkpt>
      <trkpt lat="0" lon="0">
        <time>2020-12-20T11:03:22.956000+00:00</time>
      </trkpt>
      <trkpt lat="0" lon="0">
        <time>2020-12-20T11:03:22.960000+00:00</time>
      </trkpt>
      <trkpt lat="47.30269" lon="-1.37665">
        <ele>124</ele>
        <time>2020-12-20T11:03:23.999000+00:00</time>
      </trkpt>
      <trkpt lat="0" lon="0">
        <time>2020-12-20T11:03:24.008000+00:00</time>
      </trkpt>
      <trkpt lat="0" lon="0">
        <time>2020-12-20T11:03:24.013000+00:00</time>
      </trkpt>
      <trkpt lat="0" lon="0">
        <time>2020-12-20T11:03:24.016000+00:00</time>
      </trkpt>
      <trkpt lat="47.30268" lon="-1.37667">
        <ele>124</ele>
        <time>2020-12-20T11:03:24.969000+00:00</time>
      </trkpt>
      <trkpt lat="0" lon="0">
        <time>2020-12-20T11:03:24.990000+00:00</time>
      </trkpt>
      <trkpt lat="0" lon="0">
        <time>2020-12-20T11:03:24.996000+00:00</time>
      </trkpt>
      <trkpt lat="0" lon="0">
        <time>2020-12-20T11:03:24.998000+00:00</time>
      </trkpt>
      <trkpt lat="47.30268" lon="-1.37669">
        <ele>124</ele>
        <time>2020-12-20T11:03:25.966000+00:00</time>
      </trkpt>
      <trkpt lat="0" lon="0">
        <time>2020-12-20T11:03:25.983000+00:00</time>
      </trkpt>
      <trkpt lat="0" lon="0">
        <time>2020-12-20T11:03:25.990000+00:00</time>
      </trkpt>
      <trkpt lat="0" lon="0">
        <time>2020-12-20T11:03:25.993000+00:00</time>
      </trkpt>
      <trkpt lat="47.30267" lon="-1.37671">
        <ele>124</ele>
        <time>2020-12-20T11:03:26.972000+00:00</time>
      </trkpt>
      <trkpt lat="0" lon="0">
        <time>2020-12-20T11:03:26.976000+00:00</time>
      </trkpt>
      <trkpt lat="0" lon="0">
        <time>2020-12-20T11:03:26.978000+00:00</time>
      </trkpt>
      <trkpt lat="0" lon="0">
        <time>2020-12-20T11:03:26.979000+00:00</time>
      </trkpt>
      <trkpt lat="47.30266" lon="-1.37673">
        <ele>124</ele>
        <time>2020-12-20T11:03:28.021000+00:00</time>
      </trkpt>
      <trkpt lat="0" lon="0">
        <time>2020-12-20T11:03:28.030000+00:00</time>
      </trkpt>
      <trkpt lat="0" lon="0">
        <time>2020-12-20T11:03:28.037000+00:00</time>
      </trkpt>
      <trkpt lat="0" lon="0">
        <time>2020-12-20T11:03:28.043000+00:00</time>
      </trkpt>
      <trkpt lat="47.30266" lon="-1.37675">
        <ele>124</ele>
        <time>2020-12-20T11:03:28.979000+00:00</time>
      </trkpt>
      <trkpt lat="0" lon="0">
        <time>2020-12-20T11:03:28.984000+00:00</time>
      </trkpt>
      <trkpt lat="0" lon="0">
        <time>2020-12-20T11:03:28.989000+00:00</time>
      </trkpt>
      <trkpt lat="0" lon="0">
        <time>2020-12-20T11:03:28.991000+00:00</time>
      </trkpt>
      <trkpt lat="47.30265" lon="-1.37677">
        <ele>124</ele>
        <time>2020-12-20T11:03:29.969000+00:00</time>
      </trkpt>
      <trkpt lat="0" lon="0">
        <time>2020-12-20T11:03:29.977000+00:00</time>
      </trkpt>
      <trkpt lat="0" lon="0">
        <time>2020-12-20T11:03:29.979000+00:00</time>
      </trkpt>
      <trkpt lat="0" lon="0">
        <time>2020-12-20T11:03:29.981000+00:00</time>
      </trkpt>
      <trkpt lat="47.30265" lon="-1.37679">
        <ele>125</ele>
        <time>2020-12-20T11:03:30.950000+00:00</time>
      </trkpt>
      <trkpt lat="0" lon="0">
        <time>2020-12-20T11:03:30.966000+00:00</time>
      </trkpt>
      <trkpt lat="0" lon="0">
        <time>2020-12-20T11:03:30.978000+00:00</time>
      </trkpt>
      <trkpt lat="0" lon="0">
        <time>2020-12-20T11:03:30.981000+00:00</time>
      </trkpt>
      <trkpt lat="47.30264" lon="-1.37681">
        <ele>125</ele>
        <time>2020-12-20T11:03:31.994000+00:00</time>
      </trkpt>
      <trkpt lat="0" lon="0">
        <time>2020-12-20T11:03:32.024000+00:00</time>
      </trkpt>
      <trkpt lat="0" lon="0">
        <time>2020-12-20T11:03:32.026000+00:00</time>
      </trkpt>
      <trkpt lat="0" lon="0">
        <time>2020-12-20T11:03:32.027000+00:00</time>
      </trkpt>
      <trkpt lat="47.30264" lon="-1.37683">
        <ele>125</ele>
        <time>2020-12-20T11:03:32.962000+00:00</time>
      </trkpt>
      <trkpt lat="0" lon="0">
        <time>2020-12-20T11:03:32.964000+00:00</time>
      </trkpt>
      <trkpt lat="0" lon="0">
        <time>2020-12-20T11:03:32.976000+00:00</time>
      </trkpt>
      <trkpt lat="0" lon="0">
        <time>2020-12-20T11:03:32.978000+00:00</time>
      </trkpt>
      <trkpt lat="47.30263" lon="-1.37686">
        <ele>124</ele>
        <time>2020-12-20T11:03:33.945000+00:00</time>
      </trkpt>
      <trkpt lat="0" lon="0">
        <time>2020-12-20T11:03:33.959000+00:00</time>
      </trkpt>
      <trkpt lat="0" lon="0">
        <time>2020-12-20T11:03:33.964000+00:00</time>
      </trkpt>
      <trkpt lat="0" lon="0">
        <time>2020-12-20T11:03:33.967000+00:00</time>
      </trkpt>
      <trkpt lat="47.30264" lon="-1.37688">
        <ele>124</ele>
        <time>2020-12-20T11:03:34.977000+00:00</time>
      </trkpt>
      <trkpt lat="0" lon="0">
        <time>2020-12-20T11:03:35+00:00</time>
      </trkpt>
      <trkpt lat="0" lon="0">
        <time>2020-12-20T11:03:35.007000+00:00</time>
      </trkpt>
      <trkpt lat="0" lon="0">
        <time>2020-12-20T11:03:35.009000+00:00</time>
      </trkpt>
      <trkpt lat="47.30264" lon="-1.3769">
        <ele>124</ele>
        <time>2020-12-20T11:03:35.973000+00:00</time>
      </trkpt>
      <trkpt lat="0" lon="0">
        <time>2020-12-20T11:03:35.979000+00:00</time>
      </trkpt>
      <trkpt lat="0" lon="0">
        <time>2020-12-20T11:03:35.986000+00:00</time>
      </trkpt>
      <trkpt lat="0" lon="0">
        <time>2020-12-20T11:03:35.989000+00:00</time>
      </trkpt>
      <trkpt lat="47.30265" lon="-1.37692">
        <ele>123</ele>
        <time>2020-12-20T11:03:36.947000+00:00</time>
      </trkpt>
      <trkpt lat="0" lon="0">
        <time>2020-12-20T11:03:36.958000+00:00</time>
      </trkpt>
      <trkpt lat="0" lon="0">
        <time>2020-12-20T11:03:36.964000+00:00</time>
      </trkpt>
      <trkpt lat="0" lon="0">
        <time>2020-12-20T11:03:36.973000+00:00</time>
      </trkpt>
      <trkpt lat="47.30266" lon="-1.37694">
        <ele>122</ele>
        <time>2020-12-20T11:03:37.976000+00:00</time>
      </trkpt>
      <trkpt lat="0" lon="0">
        <time>2020-12-20T11:03:37.990000+00:00</time>
      </trkpt>
      <trkpt lat="0" lon="0">
        <time>2020-12-20T11:03:38.002000+00:00</time>
      </trkpt>
      <trkpt lat="0" lon="0">
        <time>2020-12-20T11:03:38.003000+00:00</time>
      </trkpt>
      <trkpt lat="47.30268" lon="-1.37696">
        <ele>122</ele>
        <time>2020-12-20T11:03:38.985000+00:00</time>
      </trkpt>
      <trkpt lat="0" lon="0">
        <time>2020-12-20T11:03:38.997000+00:00</time>
      </trkpt>
      <trkpt lat="0" lon="0">
        <time>2020-12-20T11:03:39.004000+00:00</time>
      </trkpt>
      <trkpt lat="0" lon="0">
        <time>2020-12-20T11:03:39.008000+00:00</time>
      </trkpt>
      <trkpt lat="47.3027" lon="-1.37698">
        <ele>122</ele>
        <time>2020-12-20T11:03:39.999000+00:00</time>
      </trkpt>
      <trkpt lat="0" lon="0">
        <time>2020-12-20T11:03:40.013000+00:00</time>
      </trkpt>
      <trkpt lat="0" lon="0">
        <time>2020-12-20T11:03:40.022000+00:00</time>
      </trkpt>
      <trkpt lat="0" lon="0">
        <time>2020-12-20T11:03:40.024000+00:00</time>
      </trkpt>
      <trkpt lat="47.30271" lon="-1.37699">
        <ele>121</ele>
        <time>2020-12-20T11:03:41.013000+00:00</time>
      </trkpt>
      <trkpt lat="0" lon="0">
        <time>2020-12-20T11:03:41.032000+00:00</time>
      </trkpt>
      <trkpt lat="0" lon="0">
        <time>2020-12-20T11:03:41.037000+00:00</time>
      </trkpt>
      <trkpt lat="0" lon="0">
        <time>2020-12-20T11:03:41.039000+00:00</time>
      </trkpt>
      <trkpt lat="47.30274" lon="-1.37701">
        <ele>121</ele>
        <time>2020-12-20T11:03:41.984000+00:00</time>
      </trkpt>
      <trkpt lat="0" lon="0">
        <time>2020-12-20T11:03:41.993000+00:00</time>
      </trkpt>
      <trkpt lat="0" lon="0">
        <time>2020-12-20T11:03:42.003000+00:00</time>
      </trkpt>
      <trkpt lat="0" lon="0">
        <time>2020-12-20T11:03:42.010000+00:00</time>
      </trkpt>
      <trkpt lat="47.30276" lon="-1.37702">
        <ele>120</ele>
        <time>2020-12-20T11:03:42.976000+00:00</time>
      </trkpt>
      <trkpt lat="0" lon="0">
        <time>2020-12-20T11:03:42.989000+00:00</time>
      </trkpt>
      <trkpt lat="0" lon="0">
        <time>2020-12-20T11:03:42.999000+00:00</time>
      </trkpt>
      <trkpt lat="0" lon="0">
        <time>2020-12-20T11:03:43.004000+00:00</time>
      </trkpt>
      <trkpt lat="47.30278" lon="-1.37704">
        <ele>120</ele>
        <time>2020-12-20T11:03:43.977000+00:00</time>
      </trkpt>
      <trkpt lat="0" lon="0">
        <time>2020-12-20T11:03:43.985000+00:00</time>
      </trkpt>
      <trkpt lat="0" lon="0">
        <time>2020-12-20T11:03:43.992000+00:00</time>
      </trkpt>
      <trkpt lat="0" lon="0">
        <time>2020-12-20T11:03:43.994000+00:00</time>
      </trkpt>
      <trkpt lat="47.30281" lon="-1.37705">
        <ele>120</ele>
        <time>2020-12-20T11:03:45.010000+00:00</time>
      </trkpt>
      <trkpt lat="0" lon="0">
        <time>2020-12-20T11:03:45.021000+00:00</time>
      </trkpt>
      <trkpt lat="0" lon="0">
        <time>2020-12-20T11:03:45.027000+00:00</time>
      </trkpt>
      <trkpt lat="0" lon="0">
        <time>2020-12-20T11:03:45.031000+00:00</time>
      </trkpt>
      <trkpt lat="47.30284" lon="-1.37706">
        <ele>120</ele>
        <time>2020-12-20T11:03:45.948000+00:00</time>
      </trkpt>
      <trkpt lat="0" lon="0">
        <time>2020-12-20T11:03:45.956000+00:00</time>
      </trkpt>
      <trkpt lat="0" lon="0">
        <time>2020-12-20T11:03:45.966000+00:00</time>
      </trkpt>
      <trkpt lat="0" lon="0">
        <time>2020-12-20T11:03:45.968000+00:00</time>
      </trkpt>
      <trkpt lat="47.30287" lon="-1.37708">
        <ele>119</ele>
        <time>2020-12-20T11:03:46.970000+00:00</time>
      </trkpt>
      <trkpt lat="0" lon="0">
        <time>2020-12-20T11:03:46.979000+00:00</time>
      </trkpt>
      <trkpt lat="0" lon="0">
        <time>2020-12-20T11:03:46.993000+00:00</time>
      </trkpt>
      <trkpt lat="0" lon="0">
        <time>2020-12-20T11:03:46.995000+00:00</time>
      </trkpt>
      <trkpt lat="47.3029" lon="-1.37709">
        <ele>119</ele>
        <time>2020-12-20T11:03:47.951000+00:00</time>
      </trkpt>
      <trkpt lat="0" lon="0">
        <time>2020-12-20T11:03:47.959000+00:00</time>
      </trkpt>
      <trkpt lat="0" lon="0">
        <time>2020-12-20T11:03:47.968000+00:00</time>
      </trkpt>
      <trkpt lat="0" lon="0">
        <time>2020-12-20T11:03:47.972000+00:00</time>
      </trkpt>
      <trkpt lat="47.30293" lon="-1.37711">
        <ele>119</ele>
        <time>2020-12-20T11:03:48.977000+00:00</time>
      </trkpt>
      <trkpt lat="0" lon="0">
        <time>2020-12-20T11:03:48.981000+00:00</time>
      </trkpt>
      <trkpt lat="0" lon="0">
        <time>2020-12-20T11:03:48.990000+00:00</time>
      </trkpt>
      <trkpt lat="0" lon="0">
        <time>2020-12-20T11:03:48.991000+00:00</time>
      </trkpt>
      <trkpt lat="47.30297" lon="-1.37713">
        <ele>119</ele>
        <time>2020-12-20T11:03:49.998000+00:00</time>
      </trkpt>
      <trkpt lat="0" lon="0">
        <time>2020-12-20T11:03:50.012000+00:00</time>
      </trkpt>
      <trkpt lat="0" lon="0">
        <time>2020-12-20T11:03:50.018000+00:00</time>
      </trkpt>
      <trkpt lat="0" lon="0">
        <time>2020-12-20T11:03:50.021000+00:00</time>
      </trkpt>
      <trkpt lat="47.303" lon="-1.37715">
        <ele>119</ele>
        <time>2020-12-20T11:03:51.013000+00:00</time>
      </trkpt>
      <trkpt lat="0" lon="0">
        <time>2020-12-20T11:03:51.022000+00:00</time>
      </trkpt>
      <trkpt lat="0" lon="0">
        <time>2020-12-20T11:03:51.031000+00:00</time>
      </trkpt>
      <trkpt lat="0" lon="0">
        <time>2020-12-20T11:03:51.034000+00:00</time>
      </trkpt>
      <trkpt lat="47.30304" lon="-1.37718">
        <ele>119</ele>
        <time>2020-12-20T11:03:51.962000+00:00</time>
      </trkpt>
      <trkpt lat="0" lon="0">
        <time>2020-12-20T11:03:51.966000+00:00</time>
      </trkpt>
      <trkpt lat="0" lon="0">
        <time>2020-12-20T11:03:51.974000+00:00</time>
      </trkpt>
      <trkpt lat="0" lon="0">
        <time>2020-12-20T11:03:51.977000+00:00</time>
      </trkpt>
      <trkpt lat="47.30308" lon="-1.3772">
        <ele>119</ele>
        <time>2020-12-20T11:03:53.007000+00:00</time>
      </trkpt>
      <trkpt lat="0" lon="0">
        <time>2020-12-20T11:03:53.019000+00:00</time>
      </trkpt>
      <trkpt lat="0" lon="0">
        <time>2020-12-20T11:03:53.029000+00:00</time>
      </trkpt>
      <trkpt lat="0" lon="0">
        <time>2020-12-20T11:03:53.030000+00:00</time>
      </trkpt>
      <trkpt lat="47.30311" lon="-1.37723">
        <ele>117</ele>
        <time>2020-12-20T11:03:54.025000+00:00</time>
      </trkpt>
      <trkpt lat="0" lon="0">
        <time>2020-12-20T11:03:54.029000+00:00</time>
      </trkpt>
      <trkpt lat="0" lon="0">
        <time>2020-12-20T11:03:54.034000+00:00</time>
      </trkpt>
      <trkpt lat="0" lon="0">
        <time>2020-12-20T11:03:54.037000+00:00</time>
      </trkpt>
      <trkpt lat="47.30315" lon="-1.37725">
        <ele>117</ele>
        <time>2020-12-20T11:03:55.004000+00:00</time>
      </trkpt>
      <trkpt lat="0" lon="0">
        <time>2020-12-20T11:03:55.011000+00:00</time>
      </trkpt>
      <trkpt lat="0" lon="0">
        <time>2020-12-20T11:03:55.024000+00:00</time>
      </trkpt>
      <trkpt lat="0" lon="0">
        <time>2020-12-20T11:03:55.026000+00:00</time>
      </trkpt>
      <trkpt lat="47.30318" lon="-1.37727">
        <ele>117</ele>
        <time>2020-12-20T11:03:56.021000+00:00</time>
      </trkpt>
      <trkpt lat="0" lon="0">
        <time>2020-12-20T11:03:56.039000+00:00</time>
      </trkpt>
      <trkpt lat="0" lon="0">
        <time>2020-12-20T11:03:56.048000+00:00</time>
      </trkpt>
      <trkpt lat="0" lon="0">
        <time>2020-12-20T11:03:56.054000+00:00</time>
      </trkpt>
      <trkpt lat="47.30322" lon="-1.37729">
        <ele>116</ele>
        <time>2020-12-20T11:03:56.981000+00:00</time>
      </trkpt>
      <trkpt lat="0" lon="0">
        <time>2020-12-20T11:03:56.996000+00:00</time>
      </trkpt>
      <trkpt lat="0" lon="0">
        <time>2020-12-20T11:03:56.998000+00:00</time>
      </trkpt>
      <trkpt lat="0" lon="0">
        <time>2020-12-20T11:03:56.999000+00:00</time>
      </trkpt>
      <trkpt lat="47.30326" lon="-1.37731">
        <ele>116</ele>
        <time>2020-12-20T11:03:58+00:00</time>
      </trkpt>
      <trkpt lat="0" lon="0">
        <time>2020-12-20T11:03:58.015000+00:00</time>
      </trkpt>
      <trkpt lat="0" lon="0">
        <time>2020-12-20T11:03:58.020000+00:00</time>
      </trkpt>
      <trkpt lat="0" lon="0">
        <time>2020-12-20T11:03:58.024000+00:00</time>
      </trkpt>
      <trkpt lat="47.30329" lon="-1.37733">
        <ele>116</ele>
        <time>2020-12-20T11:03:58.938000+00:00</time>
      </trkpt>
      <trkpt lat="0" lon="0">
        <time>2020-12-20T11:03:58.944000+00:00</time>
      </trkpt>
      <trkpt lat="0" lon="0">
        <time>2020-12-20T11:03:58.950000+00:00</time>
      </trkpt>
      <trkpt lat="0" lon="0">
        <time>2020-12-20T11:03:58.952000+00:00</time>
      </trkpt>
      <trkpt lat="47.30332" lon="-1.37735">
        <ele>116</ele>
        <time>2020-12-20T11:03:59.980000+00:00</time>
      </trkpt>
      <trkpt lat="0" lon="0">
        <time>2020-12-20T11:03:59.990000+00:00</time>
      </trkpt>
      <trkpt lat="0" lon="0">
        <time>2020-12-20T11:03:59.993000+00:00</time>
      </trkpt>
      <trkpt lat="0" lon="0">
        <time>2020-12-20T11:03:59.994000+00:00</time>
      </trkpt>
      <trkpt lat="47.30336" lon="-1.37736">
        <ele>116</ele>
        <time>2020-12-20T11:04:01.004000+00:00</time>
      </trkpt>
      <trkpt lat="0" lon="0">
        <time>2020-12-20T11:04:01.014000+00:00</time>
      </trkpt>
      <trkpt lat="0" lon="0">
        <time>2020-12-20T11:04:01.017000+00:00</time>
      </trkpt>
      <trkpt lat="0" lon="0">
        <time>2020-12-20T11:04:01.019000+00:00</time>
      </trkpt>
      <trkpt lat="47.30339" lon="-1.37738">
        <ele>117</ele>
        <time>2020-12-20T11:04:01.944000+00:00</time>
      </trkpt>
      <trkpt lat="0" lon="0">
        <time>2020-12-20T11:04:01.952000+00:00</time>
      </trkpt>
      <trkpt lat="0" lon="0">
        <time>2020-12-20T11:04:01.964000+00:00</time>
      </trkpt>
      <trkpt lat="0" lon="0">
        <time>2020-12-20T11:04:01.967000+00:00</time>
      </trkpt>
      <trkpt lat="47.30343" lon="-1.3774">
        <ele>117</ele>
        <time>2020-12-20T11:04:02.981000+00:00</time>
      </trkpt>
      <trkpt lat="0" lon="0">
        <time>2020-12-20T11:04:02.996000+00:00</time>
      </trkpt>
      <trkpt lat="0" lon="0">
        <time>2020-12-20T11:04:03+00:00</time>
      </trkpt>
      <trkpt lat="0" lon="0">
        <time>2020-12-20T11:04:03.003000+00:00</time>
      </trkpt>
      <trkpt lat="47.30346" lon="-1.37741">
        <ele>118</ele>
        <time>2020-12-20T11:04:03.985000+00:00</time>
      </trkpt>
      <trkpt lat="0" lon="0">
        <time>2020-12-20T11:04:04.002000+00:00</time>
      </trkpt>
      <trkpt lat="0" lon="0">
        <time>2020-12-20T11:04:04.012000+00:00</time>
      </trkpt>
      <trkpt lat="0" lon="0">
        <time>2020-12-20T11:04:04.019000+00:00</time>
      </trkpt>
      <trkpt lat="47.30349" lon="-1.37743">
        <ele>118</ele>
        <time>2020-12-20T11:04:05.026000+00:00</time>
      </trkpt>
      <trkpt lat="0" lon="0">
        <time>2020-12-20T11:04:05.038000+00:00</time>
      </trkpt>
      <trkpt lat="0" lon="0">
        <time>2020-12-20T11:04:05.043000+00:00</time>
      </trkpt>
      <trkpt lat="0" lon="0">
        <time>2020-12-20T11:04:05.046000+00:00</time>
      </trkpt>
      <trkpt lat="47.30353" lon="-1.37745">
        <ele>118</ele>
        <time>2020-12-20T11:04:06.019000+00:00</time>
      </trkpt>
      <trkpt lat="0" lon="0">
        <time>2020-12-20T11:04:06.027000+00:00</time>
      </trkpt>
      <trkpt lat="0" lon="0">
        <time>2020-12-20T11:04:06.032000+00:00</time>
      </trkpt>
      <trkpt lat="0" lon="0">
        <time>2020-12-20T11:04:06.035000+00:00</time>
      </trkpt>
      <trkpt lat="47.30356" lon="-1.37747">
        <ele>119</ele>
        <time>2020-12-20T11:04:07.012000+00:00</time>
      </trkpt>
      <trkpt lat="0" lon="0">
        <time>2020-12-20T11:04:07.019000+00:00</time>
      </trkpt>
      <trkpt lat="0" lon="0">
        <time>2020-12-20T11:04:07.024000+00:00</time>
      </trkpt>
      <trkpt lat="0" lon="0">
        <time>2020-12-20T11:04:07.032000+00:00</time>
      </trkpt>
      <trkpt lat="47.30359" lon="-1.37749">
        <ele>119</ele>
        <time>2020-12-20T11:04:07.964000+00:00</time>
      </trkpt>
      <trkpt lat="0" lon="0">
        <time>2020-12-20T11:04:07.972000+00:00</time>
      </trkpt>
      <trkpt lat="0" lon="0">
        <time>2020-12-20T11:04:07.976000+00:00</time>
      </trkpt>
      <trkpt lat="0" lon="0">
        <time>2020-12-20T11:04:07.979000+00:00</time>
      </trkpt>
      <trkpt lat="47.30362" lon="-1.37751">
        <ele>119</ele>
        <time>2020-12-20T11:04:09.037000+00:00</time>
      </trkpt>
      <trkpt lat="0" lon="0">
        <time>2020-12-20T11:04:09.048000+00:00</time>
      </trkpt>
      <trkpt lat="0" lon="0">
        <time>2020-12-20T11:04:09.055000+00:00</time>
      </trkpt>
      <trkpt lat="0" lon="0">
        <time>2020-12-20T11:04:09.058000+00:00</time>
      </trkpt>
      <trkpt lat="47.30366" lon="-1.37753">
        <ele>119</ele>
        <time>2020-12-20T11:04:09.970000+00:00</time>
      </trkpt>
      <trkpt lat="0" lon="0">
        <time>2020-12-20T11:04:09.983000+00:00</time>
      </trkpt>
      <trkpt lat="0" lon="0">
        <time>2020-12-20T11:04:09.994000+00:00</time>
      </trkpt>
      <trkpt lat="0" lon="0">
        <time>2020-12-20T11:04:10.002000+00:00</time>
      </trkpt>
      <trkpt lat="47.30369" lon="-1.37756">
        <ele>119</ele>
        <time>2020-12-20T11:04:10.949000+00:00</time>
      </trkpt>
      <trkpt lat="0" lon="0">
        <time>2020-12-20T11:04:10.957000+00:00</time>
      </trkpt>
      <trkpt lat="0" lon="0">
        <time>2020-12-20T11:04:10.964000+00:00</time>
      </trkpt>
      <trkpt lat="0" lon="0">
        <time>2020-12-20T11:04:10.967000+00:00</time>
      </trkpt>
      <trkpt lat="47.30372" lon="-1.37758">
        <ele>119</ele>
        <time>2020-12-20T11:04:11.989000+00:00</time>
      </trkpt>
      <trkpt lat="0" lon="0">
        <time>2020-12-20T11:04:11.995000+00:00</time>
      </trkpt>
      <trkpt lat="0" lon="0">
        <time>2020-12-20T11:04:12.005000+00:00</time>
      </trkpt>
      <trkpt lat="0" lon="0">
        <time>2020-12-20T11:04:12.006000+00:00</time>
      </trkpt>
      <trkpt lat="47.30375" lon="-1.37761">
        <ele>119</ele>
        <time>2020-12-20T11:04:13.039000+00:00</time>
      </trkpt>
      <trkpt lat="0" lon="0">
        <time>2020-12-20T11:04:13.044000+00:00</time>
      </trkpt>
      <trkpt lat="0" lon="0">
        <time>2020-12-20T11:04:13.049000+00:00</time>
      </trkpt>
      <trkpt lat="0" lon="0">
        <time>2020-12-20T11:04:13.052000+00:00</time>
      </trkpt>
      <trkpt lat="47.30377" lon="-1.37764">
        <ele>119</ele>
        <time>2020-12-20T11:04:14.002000+00:00</time>
      </trkpt>
      <trkpt lat="0" lon="0">
        <time>2020-12-20T11:04:14.009000+00:00</time>
      </trkpt>
      <trkpt lat="0" lon="0">
        <time>2020-12-20T11:04:14.011000+00:00</time>
      </trkpt>
      <trkpt lat="0" lon="0">
        <time>2020-12-20T11:04:14.012000+00:00</time>
      </trkpt>
      <trkpt lat="47.3038" lon="-1.37768">
        <ele>120</ele>
        <time>2020-12-20T11:04:15.016000+00:00</time>
      </trkpt>
      <trkpt lat="0" lon="0">
        <time>2020-12-20T11:04:15.023000+00:00</time>
      </trkpt>
      <trkpt lat="0" lon="0">
        <time>2020-12-20T11:04:15.029000+00:00</time>
      </trkpt>
      <trkpt lat="0" lon="0">
        <time>2020-12-20T11:04:15.032000+00:00</time>
      </trkpt>
      <trkpt lat="47.30382" lon="-1.37772">
        <ele>120</ele>
        <time>2020-12-20T11:04:15.973000+00:00</time>
      </trkpt>
      <trkpt lat="0" lon="0">
        <time>2020-12-20T11:04:15.980000+00:00</time>
      </trkpt>
      <trkpt lat="0" lon="0">
        <time>2020-12-20T11:04:15.988000+00:00</time>
      </trkpt>
      <trkpt lat="0" lon="0">
        <time>2020-12-20T11:04:15.998000+00:00</time>
      </trkpt>
      <trkpt lat="47.30383" lon="-1.37776">
        <ele>120</ele>
        <time>2020-12-20T11:04:16.991000+00:00</time>
      </trkpt>
      <trkpt lat="0" lon="0">
        <time>2020-12-20T11:04:16.999000+00:00</time>
      </trkpt>
      <trkpt lat="0" lon="0">
        <time>2020-12-20T11:04:17.005000+00:00</time>
      </trkpt>
      <trkpt lat="0" lon="0">
        <time>2020-12-20T11:04:17.008000+00:00</time>
      </trkpt>
      <trkpt lat="47.30384" lon="-1.37781">
        <ele>121</ele>
        <time>2020-12-20T11:04:18.006000+00:00</time>
      </trkpt>
      <trkpt lat="0" lon="0">
        <time>2020-12-20T11:04:18.013000+00:00</time>
      </trkpt>
      <trkpt lat="0" lon="0">
        <time>2020-12-20T11:04:18.022000+00:00</time>
      </trkpt>
      <trkpt lat="0" lon="0">
        <time>2020-12-20T11:04:18.024000+00:00</time>
      </trkpt>
      <trkpt lat="47.30385" lon="-1.37785">
        <ele>122</ele>
        <time>2020-12-20T11:04:18.986000+00:00</time>
      </trkpt>
      <trkpt lat="0" lon="0">
        <time>2020-12-20T11:04:18.994000+00:00</time>
      </trkpt>
      <trkpt lat="0" lon="0">
        <time>2020-12-20T11:04:18.999000+00:00</time>
      </trkpt>
      <trkpt lat="0" lon="0">
        <time>2020-12-20T11:04:19.001000+00:00</time>
      </trkpt>
      <trkpt lat="47.30384" lon="-1.3779">
        <ele>122</ele>
        <time>2020-12-20T11:04:20.018000+00:00</time>
      </trkpt>
      <trkpt lat="0" lon="0">
        <time>2020-12-20T11:04:20.027000+00:00</time>
      </trkpt>
      <trkpt lat="0" lon="0">
        <time>2020-12-20T11:04:20.029000+00:00</time>
      </trkpt>
      <trkpt lat="0" lon="0">
        <time>2020-12-20T11:04:20.030000+00:00</time>
      </trkpt>
      <trkpt lat="47.30384" lon="-1.37795">
        <ele>123</ele>
        <time>2020-12-20T11:04:21.032000+00:00</time>
      </trkpt>
      <trkpt lat="0" lon="0">
        <time>2020-12-20T11:04:21.043000+00:00</time>
      </trkpt>
      <trkpt lat="0" lon="0">
        <time>2020-12-20T11:04:21.053000+00:00</time>
      </trkpt>
      <trkpt lat="0" lon="0">
        <time>2020-12-20T11:04:21.056000+00:00</time>
      </trkpt>
      <trkpt lat="47.30382" lon="-1.378">
        <ele>123</ele>
        <time>2020-12-20T11:04:21.972000+00:00</time>
      </trkpt>
      <trkpt lat="0" lon="0">
        <time>2020-12-20T11:04:21.978000+00:00</time>
      </trkpt>
      <trkpt lat="0" lon="0">
        <time>2020-12-20T11:04:21.983000+00:00</time>
      </trkpt>
      <trkpt lat="0" lon="0">
        <time>2020-12-20T11:04:21.985000+00:00</time>
      </trkpt>
      <trkpt lat="47.30381" lon="-1.37805">
        <ele>124</ele>
        <time>2020-12-20T11:04:22.975000+00:00</time>
      </trkpt>
      <trkpt lat="0" lon="0">
        <time>2020-12-20T11:04:22.980000+00:00</time>
      </trkpt>
      <trkpt lat="0" lon="0">
        <time>2020-12-20T11:04:22.986000+00:00</time>
      </trkpt>
      <trkpt lat="0" lon="0">
        <time>2020-12-20T11:04:22.990000+00:00</time>
      </trkpt>
      <trkpt lat="47.30378" lon="-1.3781">
        <ele>124</ele>
        <time>2020-12-20T11:04:23.960000+00:00</time>
      </trkpt>
      <trkpt lat="0" lon="0">
        <time>2020-12-20T11:04:23.962000+00:00</time>
      </trkpt>
      <trkpt lat="0" lon="0">
        <time>2020-12-20T11:04:23.965000+00:00</time>
      </trkpt>
      <trkpt lat="0" lon="0">
        <time>2020-12-20T11:04:23.966000+00:00</time>
      </trkpt>
      <trkpt lat="47.30376" lon="-1.37815">
        <ele>124</ele>
        <time>2020-12-20T11:04:24.998000+00:00</time>
      </trkpt>
      <trkpt lat="0" lon="0">
        <time>2020-12-20T11:04:25.012000+00:00</time>
      </trkpt>
      <trkpt lat="0" lon="0">
        <time>2020-12-20T11:04:25.021000+00:00</time>
      </trkpt>
      <trkpt lat="0" lon="0">
        <time>2020-12-20T11:04:25.024000+00:00</time>
      </trkpt>
      <trkpt lat="47.30374" lon="-1.3782">
        <ele>125</ele>
        <time>2020-12-20T11:04:25.998000+00:00</time>
      </trkpt>
      <trkpt lat="0" lon="0">
        <time>2020-12-20T11:04:26.006000+00:00</time>
      </trkpt>
      <trkpt lat="0" lon="0">
        <time>2020-12-20T11:04:26.021000+00:00</time>
      </trkpt>
      <trkpt lat="0" lon="0">
        <time>2020-12-20T11:04:26.027000+00:00</time>
      </trkpt>
      <trkpt lat="47.30371" lon="-1.37825">
        <ele>125</ele>
        <time>2020-12-20T11:04:26.992000+00:00</time>
      </trkpt>
      <trkpt lat="0" lon="0">
        <time>2020-12-20T11:04:27.004000+00:00</time>
      </trkpt>
      <trkpt lat="0" lon="0">
        <time>2020-12-20T11:04:27.010000+00:00</time>
      </trkpt>
      <trkpt lat="0" lon="0">
        <time>2020-12-20T11:04:27.013000+00:00</time>
      </trkpt>
      <trkpt lat="47.30368" lon="-1.37829">
        <ele>126</ele>
        <time>2020-12-20T11:04:27.977000+00:00</time>
      </trkpt>
      <trkpt lat="0" lon="0">
        <time>2020-12-20T11:04:27.997000+00:00</time>
      </trkpt>
      <trkpt lat="0" lon="0">
        <time>2020-12-20T11:04:28.004000+00:00</time>
      </trkpt>
      <trkpt lat="0" lon="0">
        <time>2020-12-20T11:04:28.010000+00:00</time>
      </trkpt>
      <trkpt lat="47.30366" lon="-1.37834">
        <ele>126</ele>
        <time>2020-12-20T11:04:28.971000+00:00</time>
      </trkpt>
      <trkpt lat="0" lon="0">
        <time>2020-12-20T11:04:28.977000+00:00</time>
      </trkpt>
      <trkpt lat="0" lon="0">
        <time>2020-12-20T11:04:28.982000+00:00</time>
      </trkpt>
      <trkpt lat="0" lon="0">
        <time>2020-12-20T11:04:28.985000+00:00</time>
      </trkpt>
      <trkpt lat="47.30363" lon="-1.37839">
        <ele>127</ele>
        <time>2020-12-20T11:04:29.949000+00:00</time>
      </trkpt>
      <trkpt lat="0" lon="0">
        <time>2020-12-20T11:04:29.962000+00:00</time>
      </trkpt>
      <trkpt lat="0" lon="0">
        <time>2020-12-20T11:04:29.966000+00:00</time>
      </trkpt>
      <trkpt lat="47.3036" lon="-1.37843">
        <ele>127</ele>
        <time>2020-12-20T11:04:30.972000+00:00</time>
      </trkpt>
      <trkpt lat="0" lon="0">
        <time>2020-12-20T11:04:30.977000+00:00</time>
      </trkpt>
      <trkpt lat="0" lon="0">
        <time>2020-12-20T11:04:30.982000+00:00</time>
      </trkpt>
      <trkpt lat="0" lon="0">
        <time>2020-12-20T11:04:30.984000+00:00</time>
      </trkpt>
      <trkpt lat="47.30358" lon="-1.37848">
        <ele>128</ele>
        <time>2020-12-20T11:04:31.968000+00:00</time>
      </trkpt>
      <trkpt lat="0" lon="0">
        <time>2020-12-20T11:04:31.978000+00:00</time>
      </trkpt>
      <trkpt lat="0" lon="0">
        <time>2020-12-20T11:04:31.986000+00:00</time>
      </trkpt>
      <trkpt lat="0" lon="0">
        <time>2020-12-20T11:04:31.988000+00:00</time>
      </trkpt>
      <trkpt lat="47.30355" lon="-1.37852">
        <ele>128</ele>
        <time>2020-12-20T11:04:33.006000+00:00</time>
      </trkpt>
      <trkpt lat="0" lon="0">
        <time>2020-12-20T11:04:33.029000+00:00</time>
      </trkpt>
      <trkpt lat="0" lon="0">
        <time>2020-12-20T11:04:33.034000+00:00</time>
      </trkpt>
      <trkpt lat="0" lon="0">
        <time>2020-12-20T11:04:33.040000+00:00</time>
      </trkpt>
      <trkpt lat="47.30353" lon="-1.37856">
        <ele>128</ele>
        <time>2020-12-20T11:04:34.008000+00:00</time>
      </trkpt>
      <trkpt lat="0" lon="0">
        <time>2020-12-20T11:04:34.016000+00:00</time>
      </trkpt>
      <trkpt lat="0" lon="0">
        <time>2020-12-20T11:04:34.020000+00:00</time>
      </trkpt>
      <trkpt lat="0" lon="0">
        <time>2020-12-20T11:04:34.032000+00:00</time>
      </trkpt>
      <trkpt lat="47.3035" lon="-1.37861">
        <ele>129</ele>
        <time>2020-12-20T11:04:35.002000+00:00</time>
      </trkpt>
      <trkpt lat="0" lon="0">
        <time>2020-12-20T11:04:35.020000+00:00</time>
      </trkpt>
      <trkpt lat="0" lon="0">
        <time>2020-12-20T11:04:35.028000+00:00</time>
      </trkpt>
      <trkpt lat="0" lon="0">
        <time>2020-12-20T11:04:35.033000+00:00</time>
      </trkpt>
      <trkpt lat="47.30348" lon="-1.37865">
        <ele>129</ele>
        <time>2020-12-20T11:04:35.964000+00:00</time>
      </trkpt>
      <trkpt lat="0" lon="0">
        <time>2020-12-20T11:04:35.976000+00:00</time>
      </trkpt>
      <trkpt lat="0" lon="0">
        <time>2020-12-20T11:04:35.985000+00:00</time>
      </trkpt>
      <trkpt lat="0" lon="0">
        <time>2020-12-20T11:04:35.990000+00:00</time>
      </trkpt>
      <trkpt lat="47.30346" lon="-1.3787">
        <ele>130</ele>
        <time>2020-12-20T11:04:36.966000+00:00</time>
      </trkpt>
      <trkpt lat="0" lon="0">
        <time>2020-12-20T11:04:36.977000+00:00</time>
      </trkpt>
      <trkpt lat="0" lon="0">
        <time>2020-12-20T11:04:36.980000+00:00</time>
      </trkpt>
      <trkpt lat="0" lon="0">
        <time>2020-12-20T11:04:36.981000+00:00</time>
      </trkpt>
      <trkpt lat="47.30344" lon="-1.37874">
        <ele>130</ele>
        <time>2020-12-20T11:04:37.973000+00:00</time>
      </trkpt>
      <trkpt lat="0" lon="0">
        <time>2020-12-20T11:04:37.986000+00:00</time>
      </trkpt>
      <trkpt lat="0" lon="0">
        <time>2020-12-20T11:04:37.994000+00:00</time>
      </trkpt>
      <trkpt lat="0" lon="0">
        <time>2020-12-20T11:04:37.996000+00:00</time>
      </trkpt>
      <trkpt lat="47.30342" lon="-1.37879">
        <ele>130</ele>
        <time>2020-12-20T11:04:38.978000+00:00</time>
      </trkpt>
      <trkpt lat="0" lon="0">
        <time>2020-12-20T11:04:38.985000+00:00</time>
      </trkpt>
      <trkpt lat="0" lon="0">
        <time>2020-12-20T11:04:38.995000+00:00</time>
      </trkpt>
      <trkpt lat="0" lon="0">
        <time>2020-12-20T11:04:39.002000+00:00</time>
      </trkpt>
      <trkpt lat="47.3034" lon="-1.37883">
        <ele>130</ele>
        <time>2020-12-20T11:04:39.980000+00:00</time>
      </trkpt>
      <trkpt lat="0" lon="0">
        <time>2020-12-20T11:04:39.997000+00:00</time>
      </trkpt>
      <trkpt lat="0" lon="0">
        <time>2020-12-20T11:04:40.004000+00:00</time>
      </trkpt>
      <trkpt lat="0" lon="0">
        <time>2020-12-20T11:04:40.008000+00:00</time>
      </trkpt>
      <trkpt lat="47.30338" lon="-1.37888">
        <ele>131</ele>
        <time>2020-12-20T11:04:40.992000+00:00</time>
      </trkpt>
      <trkpt lat="0" lon="0">
        <time>2020-12-20T11:04:40.997000+00:00</time>
      </trkpt>
      <trkpt lat="0" lon="0">
        <time>2020-12-20T11:04:41+00:00</time>
      </trkpt>
      <trkpt lat="0" lon="0">
        <time>2020-12-20T11:04:41.002000+00:00</time>
      </trkpt>
      <trkpt lat="47.30336" lon="-1.37892">
        <ele>130</ele>
        <time>2020-12-20T11:04:41.997000+00:00</time>
      </trkpt>
      <trkpt lat="0" lon="0">
        <time>2020-12-20T11:04:42.004000+00:00</time>
      </trkpt>
      <trkpt lat="0" lon="0">
        <time>2020-12-20T11:04:42.009000+00:00</time>
      </trkpt>
      <trkpt lat="0" lon="0">
        <time>2020-12-20T11:04:42.011000+00:00</time>
      </trkpt>
      <trkpt lat="47.30334" lon="-1.37897">
        <ele>130</ele>
        <time>2020-12-20T11:04:42.978000+00:00</time>
      </trkpt>
      <trkpt lat="0" lon="0">
        <time>2020-12-20T11:04:42.986000+00:00</time>
      </trkpt>
      <trkpt lat="0" lon="0">
        <time>2020-12-20T11:04:42.989000+00:00</time>
      </trkpt>
      <trkpt lat="0" lon="0">
        <time>2020-12-20T11:04:42.990000+00:00</time>
      </trkpt>
      <trkpt lat="47.30332" lon="-1.37901">
        <ele>130</ele>
        <time>2020-12-20T11:04:43.962000+00:00</time>
      </trkpt>
      <trkpt lat="0" lon="0">
        <time>2020-12-20T11:04:43.970000+00:00</time>
      </trkpt>
      <trkpt lat="0" lon="0">
        <time>2020-12-20T11:04:43.975000+00:00</time>
      </trkpt>
      <trkpt lat="0" lon="0">
        <time>2020-12-20T11:04:43.977000+00:00</time>
      </trkpt>
      <trkpt lat="47.30331" lon="-1.37905">
        <ele>131</ele>
        <time>2020-12-20T11:04:44.944000+00:00</time>
      </trkpt>
      <trkpt lat="0" lon="0">
        <time>2020-12-20T11:04:44.953000+00:00</time>
      </trkpt>
      <trkpt lat="0" lon="0">
        <time>2020-12-20T11:04:44.958000+00:00</time>
      </trkpt>
      <trkpt lat="0" lon="0">
        <time>2020-12-20T11:04:44.960000+00:00</time>
      </trkpt>
      <trkpt lat="47.30329" lon="-1.3791">
        <ele>131</ele>
        <time>2020-12-20T11:04:45.999000+00:00</time>
      </trkpt>
      <trkpt lat="0" lon="0">
        <time>2020-12-20T11:04:46.010000+00:00</time>
      </trkpt>
      <trkpt lat="0" lon="0">
        <time>2020-12-20T11:04:46.013000+00:00</time>
      </trkpt>
      <trkpt lat="0" lon="0">
        <time>2020-12-20T11:04:46.014000+00:00</time>
      </trkpt>
      <trkpt lat="47.30328" lon="-1.37914">
        <ele>131</ele>
        <time>2020-12-20T11:04:46.897000+00:00</time>
      </trkpt>
      <trkpt lat="0" lon="0">
        <time>2020-12-20T11:04:46.908000+00:00</time>
      </trkpt>
      <trkpt lat="0" lon="0">
        <time>2020-12-20T11:04:46.910000+00:00</time>
      </trkpt>
      <trkpt lat="0" lon="0">
        <time>2020-12-20T11:04:46.912000+00:00</time>
      </trkpt>
      <trkpt lat="47.30326" lon="-1.37919">
        <ele>130</ele>
        <time>2020-12-20T11:04:47.933000+00:00</time>
      </trkpt>
      <trkpt lat="0" lon="0">
        <time>2020-12-20T11:04:47.940000+00:00</time>
      </trkpt>
      <trkpt lat="0" lon="0">
        <time>2020-12-20T11:04:47.950000+00:00</time>
      </trkpt>
      <trkpt lat="0" lon="0">
        <time>2020-12-20T11:04:47.952000+00:00</time>
      </trkpt>
      <trkpt lat="47.30325" lon="-1.37924">
        <ele>130</ele>
        <time>2020-12-20T11:04:48.979000+00:00</time>
      </trkpt>
      <trkpt lat="0" lon="0">
        <time>2020-12-20T11:04:48.982000+00:00</time>
      </trkpt>
      <trkpt lat="0" lon="0">
        <time>2020-12-20T11:04:48.990000+00:00</time>
      </trkpt>
      <trkpt lat="0" lon="0">
        <time>2020-12-20T11:04:48.994000+00:00</time>
      </trkpt>
      <trkpt lat="47.30324" lon="-1.37928">
        <ele>129</ele>
        <time>2020-12-20T11:04:50.012000+00:00</time>
      </trkpt>
      <trkpt lat="0" lon="0">
        <time>2020-12-20T11:04:50.025000+00:00</time>
      </trkpt>
      <trkpt lat="0" lon="0">
        <time>2020-12-20T11:04:50.035000+00:00</time>
      </trkpt>
      <trkpt lat="0" lon="0">
        <time>2020-12-20T11:04:50.044000+00:00</time>
      </trkpt>
      <trkpt lat="47.30323" lon="-1.37933">
        <ele>130</ele>
        <time>2020-12-20T11:04:50.982000+00:00</time>
      </trkpt>
      <trkpt lat="0" lon="0">
        <time>2020-12-20T11:04:50.997000+00:00</time>
      </trkpt>
      <trkpt lat="0" lon="0">
        <time>2020-12-20T11:04:51.003000+00:00</time>
      </trkpt>
      <trkpt lat="0" lon="0">
        <time>2020-12-20T11:04:51.006000+00:00</time>
      </trkpt>
      <trkpt lat="47.30322" lon="-1.37938">
        <ele>129</ele>
        <time>2020-12-20T11:04:51.992000+00:00</time>
      </trkpt>
      <trkpt lat="0" lon="0">
        <time>2020-12-20T11:04:52.009000+00:00</time>
      </trkpt>
      <trkpt lat="0" lon="0">
        <time>2020-12-20T11:04:52.013000+00:00</time>
      </trkpt>
      <trkpt lat="0" lon="0">
        <time>2020-12-20T11:04:52.017000+00:00</time>
      </trkpt>
      <trkpt lat="47.30319" lon="-1.37946">
        <ele>129</ele>
        <time>2020-12-20T11:04:53.972000+00:00</time>
      </trkpt>
      <trkpt lat="0" lon="0">
        <time>2020-12-20T11:04:53.981000+00:00</time>
      </trkpt>
      <trkpt lat="0" lon="0">
        <time>2020-12-20T11:04:53.985000+00:00</time>
      </trkpt>
      <trkpt lat="0" lon="0">
        <time>2020-12-20T11:04:53.988000+00:00</time>
      </trkpt>
      <trkpt lat="47.30318" lon="-1.3795">
        <ele>129</ele>
        <time>2020-12-20T11:04:54.946000+00:00</time>
      </trkpt>
      <trkpt lat="0" lon="0">
        <time>2020-12-20T11:04:54.955000+00:00</time>
      </trkpt>
      <trkpt lat="0" lon="0">
        <time>2020-12-20T11:04:54.957000+00:00</time>
      </trkpt>
      <trkpt lat="0" lon="0">
        <time>2020-12-20T11:04:54.958000+00:00</time>
      </trkpt>
      <trkpt lat="47.30316" lon="-1.37955">
        <ele>129</ele>
        <time>2020-12-20T11:04:55.964000+00:00</time>
      </trkpt>
      <trkpt lat="0" lon="0">
        <time>2020-12-20T11:04:55.978000+00:00</time>
      </trkpt>
      <trkpt lat="0" lon="0">
        <time>2020-12-20T11:04:55.984000+00:00</time>
      </trkpt>
      <trkpt lat="0" lon="0">
        <time>2020-12-20T11:04:55.987000+00:00</time>
      </trkpt>
      <trkpt lat="47.30315" lon="-1.37959">
        <ele>129</ele>
        <time>2020-12-20T11:04:56.980000+00:00</time>
      </trkpt>
      <trkpt lat="0" lon="0">
        <time>2020-12-20T11:04:56.989000+00:00</time>
      </trkpt>
      <trkpt lat="0" lon="0">
        <time>2020-12-20T11:04:56.994000+00:00</time>
      </trkpt>
      <trkpt lat="0" lon="0">
        <time>2020-12-20T11:04:56.996000+00:00</time>
      </trkpt>
      <trkpt lat="47.30313" lon="-1.37964">
        <ele>129</ele>
        <time>2020-12-20T11:04:57.932000+00:00</time>
      </trkpt>
      <trkpt lat="0" lon="0">
        <time>2020-12-20T11:04:57.942000+00:00</time>
      </trkpt>
      <trkpt lat="0" lon="0">
        <time>2020-12-20T11:04:57.946000+00:00</time>
      </trkpt>
      <trkpt lat="0" lon="0">
        <time>2020-12-20T11:04:57.950000+00:00</time>
      </trkpt>
      <trkpt lat="47.30311" lon="-1.37969">
        <ele>129</ele>
        <time>2020-12-20T11:04:58.984000+00:00</time>
      </trkpt>
      <trkpt lat="0" lon="0">
        <time>2020-12-20T11:04:58.988000+00:00</time>
      </trkpt>
      <trkpt lat="0" lon="0">
        <time>2020-12-20T11:04:58.994000+00:00</time>
      </trkpt>
      <trkpt lat="0" lon="0">
        <time>2020-12-20T11:04:58.997000+00:00</time>
      </trkpt>
      <trkpt lat="47.30309" lon="-1.37974">
        <ele>128</ele>
        <time>2020-12-20T11:05:00.026000+00:00</time>
      </trkpt>
      <trkpt lat="0" lon="0">
        <time>2020-12-20T11:05:00.040000+00:00</time>
      </trkpt>
      <trkpt lat="0" lon="0">
        <time>2020-12-20T11:05:00.044000+00:00</time>
      </trkpt>
      <trkpt lat="0" lon="0">
        <time>2020-12-20T11:05:00.047000+00:00</time>
      </trkpt>
      <trkpt lat="47.30307" lon="-1.37979">
        <ele>129</ele>
        <time>2020-12-20T11:05:00.968000+00:00</time>
      </trkpt>
      <trkpt lat="0" lon="0">
        <time>2020-12-20T11:05:00.974000+00:00</time>
      </trkpt>
      <trkpt lat="0" lon="0">
        <time>2020-12-20T11:05:00.980000+00:00</time>
      </trkpt>
      <trkpt lat="0" lon="0">
        <time>2020-12-20T11:05:00.982000+00:00</time>
      </trkpt>
      <trkpt lat="47.30305" lon="-1.37984">
        <ele>129</ele>
        <time>2020-12-20T11:05:02.003000+00:00</time>
      </trkpt>
      <trkpt lat="0" lon="0">
        <time>2020-12-20T11:05:02.022000+00:00</time>
      </trkpt>
      <trkpt lat="0" lon="0">
        <time>2020-12-20T11:05:02.029000+00:00</time>
      </trkpt>
      <trkpt lat="0" lon="0">
        <time>2020-12-20T11:05:02.031000+00:00</time>
      </trkpt>
      <trkpt lat="47.30303" lon="-1.37989">
        <ele>129</ele>
        <time>2020-12-20T11:05:02.986000+00:00</time>
      </trkpt>
      <trkpt lat="0" lon="0">
        <time>2020-12-20T11:05:02.994000+00:00</time>
      </trkpt>
      <trkpt lat="0" lon="0">
        <time>2020-12-20T11:05:03.003000+00:00</time>
      </trkpt>
      <trkpt lat="0" lon="0">
        <time>2020-12-20T11:05:03.005000+00:00</time>
      </trkpt>
      <trkpt lat="47.30301" lon="-1.37994">
        <ele>130</ele>
        <time>2020-12-20T11:05:03.996000+00:00</time>
      </trkpt>
      <trkpt lat="0" lon="0">
        <time>2020-12-20T11:05:04.008000+00:00</time>
      </trkpt>
      <trkpt lat="0" lon="0">
        <time>2020-12-20T11:05:04.010000+00:00</time>
      </trkpt>
      <trkpt lat="47.30299" lon="-1.37999">
        <ele>130</ele>
        <time>2020-12-20T11:05:04.993000+00:00</time>
      </trkpt>
      <trkpt lat="0" lon="0">
        <time>2020-12-20T11:05:05.005000+00:00</time>
      </trkpt>
      <trkpt lat="0" lon="0">
        <time>2020-12-20T11:05:05.015000+00:00</time>
      </trkpt>
      <trkpt lat="0" lon="0">
        <time>2020-12-20T11:05:05.018000+00:00</time>
      </trkpt>
      <trkpt lat="47.30297" lon="-1.38004">
        <ele>130</ele>
        <time>2020-12-20T11:05:05.896000+00:00</time>
      </trkpt>
      <trkpt lat="0" lon="0">
        <time>2020-12-20T11:05:05.909000+00:00</time>
      </trkpt>
      <trkpt lat="0" lon="0">
        <time>2020-12-20T11:05:05.915000+00:00</time>
      </trkpt>
      <trkpt lat="0" lon="0">
        <time>2020-12-20T11:05:05.922000+00:00</time>
      </trkpt>
      <trkpt lat="47.30295" lon="-1.38009">
        <ele>130</ele>
        <time>2020-12-20T11:05:06.970000+00:00</time>
      </trkpt>
      <trkpt lat="0" lon="0">
        <time>2020-12-20T11:05:06.985000+00:00</time>
      </trkpt>
      <trkpt lat="0" lon="0">
        <time>2020-12-20T11:05:06.988000+00:00</time>
      </trkpt>
      <trkpt lat="0" lon="0">
        <time>2020-12-20T11:05:06.989000+00:00</time>
      </trkpt>
      <trkpt lat="47.30292" lon="-1.38015">
        <ele>131</ele>
        <time>2020-12-20T11:05:08.006000+00:00</time>
      </trkpt>
      <trkpt lat="0" lon="0">
        <time>2020-12-20T11:05:08.022000+00:00</time>
      </trkpt>
      <trkpt lat="0" lon="0">
        <time>2020-12-20T11:05:08.026000+00:00</time>
      </trkpt>
      <trkpt lat="0" lon="0">
        <time>2020-12-20T11:05:08.029000+00:00</time>
      </trkpt>
      <trkpt lat="47.3029" lon="-1.3802">
        <ele>131</ele>
        <time>2020-12-20T11:05:09+00:00</time>
      </trkpt>
      <trkpt lat="0" lon="0">
        <time>2020-12-20T11:05:09.009000+00:00</time>
      </trkpt>
      <trkpt lat="0" lon="0">
        <time>2020-12-20T11:05:09.011000+00:00</time>
      </trkpt>
      <trkpt lat="0" lon="0">
        <time>2020-12-20T11:05:09.012000+00:00</time>
      </trkpt>
      <trkpt lat="47.30288" lon="-1.38025">
        <ele>130</ele>
        <time>2020-12-20T11:05:09.967000+00:00</time>
      </trkpt>
      <trkpt lat="0" lon="0">
        <time>2020-12-20T11:05:10+00:00</time>
      </trkpt>
      <trkpt lat="0" lon="0">
        <time>2020-12-20T11:05:10.002000+00:00</time>
      </trkpt>
      <trkpt lat="0" lon="0">
        <time>2020-12-20T11:05:10.003000+00:00</time>
      </trkpt>
      <trkpt lat="47.30286" lon="-1.38031">
        <ele>131</ele>
        <time>2020-12-20T11:05:10.972000+00:00</time>
      </trkpt>
      <trkpt lat="0" lon="0">
        <time>2020-12-20T11:05:10.978000+00:00</time>
      </trkpt>
      <trkpt lat="0" lon="0">
        <time>2020-12-20T11:05:10.994000+00:00</time>
      </trkpt>
      <trkpt lat="0" lon="0">
        <time>2020-12-20T11:05:10.998000+00:00</time>
      </trkpt>
      <trkpt lat="47.30284" lon="-1.38037">
        <ele>131</ele>
        <time>2020-12-20T11:05:11.992000+00:00</time>
      </trkpt>
      <trkpt lat="0" lon="0">
        <time>2020-12-20T11:05:12+00:00</time>
      </trkpt>
      <trkpt lat="0" lon="0">
        <time>2020-12-20T11:05:12.011000+00:00</time>
      </trkpt>
      <trkpt lat="0" lon="0">
        <time>2020-12-20T11:05:12.013000+00:00</time>
      </trkpt>
      <trkpt lat="47.30282" lon="-1.38043">
        <ele>131</ele>
        <time>2020-12-20T11:05:12.989000+00:00</time>
      </trkpt>
      <trkpt lat="0" lon="0">
        <time>2020-12-20T11:05:13+00:00</time>
      </trkpt>
      <trkpt lat="0" lon="0">
        <time>2020-12-20T11:05:13.004000+00:00</time>
      </trkpt>
      <trkpt lat="0" lon="0">
        <time>2020-12-20T11:05:13.007000+00:00</time>
      </trkpt>
      <trkpt lat="47.30281" lon="-1.38049">
        <ele>131</ele>
        <time>2020-12-20T11:05:14.026000+00:00</time>
      </trkpt>
      <trkpt lat="0" lon="0">
        <time>2020-12-20T11:05:14.037000+00:00</time>
      </trkpt>
      <trkpt lat="0" lon="0">
        <time>2020-12-20T11:05:14.049000+00:00</time>
      </trkpt>
      <trkpt lat="0" lon="0">
        <time>2020-12-20T11:05:14.052000+00:00</time>
      </trkpt>
      <trkpt lat="47.3028" lon="-1.38056">
        <ele>130</ele>
        <time>2020-12-20T11:05:14.989000+00:00</time>
      </trkpt>
      <trkpt lat="0" lon="0">
        <time>2020-12-20T11:05:14.997000+00:00</time>
      </trkpt>
      <trkpt lat="0" lon="0">
        <time>2020-12-20T11:05:15.005000+00:00</time>
      </trkpt>
      <trkpt lat="0" lon="0">
        <time>2020-12-20T11:05:15.006000+00:00</time>
      </trkpt>
      <trkpt lat="47.3028" lon="-1.38062">
        <ele>130</ele>
        <time>2020-12-20T11:05:16.012000+00:00</time>
      </trkpt>
      <trkpt lat="0" lon="0">
        <time>2020-12-20T11:05:16.025000+00:00</time>
      </trkpt>
      <trkpt lat="0" lon="0">
        <time>2020-12-20T11:05:16.030000+00:00</time>
      </trkpt>
      <trkpt lat="0" lon="0">
        <time>2020-12-20T11:05:16.034000+00:00</time>
      </trkpt>
      <trkpt lat="47.3028" lon="-1.38068">
        <ele>131</ele>
        <time>2020-12-20T11:05:16.972000+00:00</time>
      </trkpt>
      <trkpt lat="0" lon="0">
        <time>2020-12-20T11:05:16.992000+00:00</time>
      </trkpt>
      <trkpt lat="0" lon="0">
        <time>2020-12-20T11:05:16.996000+00:00</time>
      </trkpt>
      <trkpt lat="0" lon="0">
        <time>2020-12-20T11:05:16.999000+00:00</time>
      </trkpt>
      <trkpt lat="47.30281" lon="-1.38074">
        <ele>131</ele>
        <time>2020-12-20T11:05:17.934000+00:00</time>
      </trkpt>
      <trkpt lat="0" lon="0">
        <time>2020-12-20T11:05:17.950000+00:00</time>
      </trkpt>
      <trkpt lat="0" lon="0">
        <time>2020-12-20T11:05:17.962000+00:00</time>
      </trkpt>
      <trkpt lat="0" lon="0">
        <time>2020-12-20T11:05:17.965000+00:00</time>
      </trkpt>
      <trkpt lat="47.30282" lon="-1.3808">
        <ele>131</ele>
        <time>2020-12-20T11:05:18.977000+00:00</time>
      </trkpt>
      <trkpt lat="0" lon="0">
        <time>2020-12-20T11:05:18.990000+00:00</time>
      </trkpt>
      <trkpt lat="0" lon="0">
        <time>2020-12-20T11:05:18.998000+00:00</time>
      </trkpt>
      <trkpt lat="0" lon="0">
        <time>2020-12-20T11:05:19.001000+00:00</time>
      </trkpt>
      <trkpt lat="47.30284" lon="-1.38087">
        <ele>131</ele>
        <time>2020-12-20T11:05:19.949000+00:00</time>
      </trkpt>
      <trkpt lat="0" lon="0">
        <time>2020-12-20T11:05:19.957000+00:00</time>
      </trkpt>
      <trkpt lat="0" lon="0">
        <time>2020-12-20T11:05:19.961000+00:00</time>
      </trkpt>
      <trkpt lat="0" lon="0">
        <time>2020-12-20T11:05:19.963000+00:00</time>
      </trkpt>
      <trkpt lat="47.30286" lon="-1.38093">
        <ele>131</ele>
        <time>2020-12-20T11:05:20.924000+00:00</time>
      </trkpt>
      <trkpt lat="0" lon="0">
        <time>2020-12-20T11:05:20.934000+00:00</time>
      </trkpt>
      <trkpt lat="0" lon="0">
        <time>2020-12-20T11:05:20.945000+00:00</time>
      </trkpt>
      <trkpt lat="0" lon="0">
        <time>2020-12-20T11:05:20.949000+00:00</time>
      </trkpt>
      <trkpt lat="47.30289" lon="-1.38098">
        <ele>131</ele>
        <time>2020-12-20T11:05:21.962000+00:00</time>
      </trkpt>
      <trkpt lat="0" lon="0">
        <time>2020-12-20T11:05:21.972000+00:00</time>
      </trkpt>
      <trkpt lat="0" lon="0">
        <time>2020-12-20T11:05:21.982000+00:00</time>
      </trkpt>
      <trkpt lat="0" lon="0">
        <time>2020-12-20T11:05:21.985000+00:00</time>
      </trkpt>
      <trkpt lat="47.30292" lon="-1.38104">
        <ele>130</ele>
        <time>2020-12-20T11:05:22.920000+00:00</time>
      </trkpt>
      <trkpt lat="0" lon="0">
        <time>2020-12-20T11:05:22.924000+00:00</time>
      </trkpt>
      <trkpt lat="0" lon="0">
        <time>2020-12-20T11:05:22.932000+00:00</time>
      </trkpt>
      <trkpt lat="0" lon="0">
        <time>2020-12-20T11:05:22.938000+00:00</time>
      </trkpt>
      <trkpt lat="47.30296" lon="-1.38108">
        <ele>131</ele>
        <time>2020-12-20T11:05:23.924000+00:00</time>
      </trkpt>
      <trkpt lat="0" lon="0">
        <time>2020-12-20T11:05:23.935000+00:00</time>
      </trkpt>
      <trkpt lat="0" lon="0">
        <time>2020-12-20T11:05:23.939000+00:00</time>
      </trkpt>
      <trkpt lat="0" lon="0">
        <time>2020-12-20T11:05:23.942000+00:00</time>
      </trkpt>
      <trkpt lat="47.303" lon="-1.38113">
        <ele>131</ele>
        <time>2020-12-20T11:05:24.941000+00:00</time>
      </trkpt>
      <trkpt lat="0" lon="0">
        <time>2020-12-20T11:05:24.947000+00:00</time>
      </trkpt>
      <trkpt lat="0" lon="0">
        <time>2020-12-20T11:05:24.953000+00:00</time>
      </trkpt>
      <trkpt lat="0" lon="0">
        <time>2020-12-20T11:05:24.955000+00:00</time>
      </trkpt>
      <trkpt lat="47.30304" lon="-1.38117">
        <ele>131</ele>
        <time>2020-12-20T11:05:25.901000+00:00</time>
      </trkpt>
      <trkpt lat="0" lon="0">
        <time>2020-12-20T11:05:25.919000+00:00</time>
      </trkpt>
      <trkpt lat="0" lon="0">
        <time>2020-12-20T11:05:25.923000+00:00</time>
      </trkpt>
      <trkpt lat="0" lon="0">
        <time>2020-12-20T11:05:25.925000+00:00</time>
      </trkpt>
      <trkpt lat="47.30308" lon="-1.3812">
        <ele>131</ele>
        <time>2020-12-20T11:05:26.923000+00:00</time>
      </trkpt>
      <trkpt lat="0" lon="0">
        <time>2020-12-20T11:05:26.941000+00:00</time>
      </trkpt>
      <trkpt lat="0" lon="0">
        <time>2020-12-20T11:05:26.946000+00:00</time>
      </trkpt>
      <trkpt lat="0" lon="0">
        <time>2020-12-20T11:05:26.948000+00:00</time>
      </trkpt>
      <trkpt lat="47.30313" lon="-1.38123">
        <ele>130</ele>
        <time>2020-12-20T11:05:27.928000+00:00</time>
      </trkpt>
      <trkpt lat="0" lon="0">
        <time>2020-12-20T11:05:27.936000+00:00</time>
      </trkpt>
      <trkpt lat="0" lon="0">
        <time>2020-12-20T11:05:27.941000+00:00</time>
      </trkpt>
      <trkpt lat="0" lon="0">
        <time>2020-12-20T11:05:27.944000+00:00</time>
      </trkpt>
      <trkpt lat="47.30318" lon="-1.38126">
        <ele>130</ele>
        <time>2020-12-20T11:05:28.937000+00:00</time>
      </trkpt>
      <trkpt lat="0" lon="0">
        <time>2020-12-20T11:05:28.946000+00:00</time>
      </trkpt>
      <trkpt lat="0" lon="0">
        <time>2020-12-20T11:05:28.956000+00:00</time>
      </trkpt>
      <trkpt lat="0" lon="0">
        <time>2020-12-20T11:05:28.958000+00:00</time>
      </trkpt>
      <trkpt lat="47.30323" lon="-1.38129">
        <ele>130</ele>
        <time>2020-12-20T11:05:29.915000+00:00</time>
      </trkpt>
      <trkpt lat="0" lon="0">
        <time>2020-12-20T11:05:29.929000+00:00</time>
      </trkpt>
      <trkpt lat="0" lon="0">
        <time>2020-12-20T11:05:29.938000+00:00</time>
      </trkpt>
      <trkpt lat="0" lon="0">
        <time>2020-12-20T11:05:29.944000+00:00</time>
      </trkpt>
      <trkpt lat="47.30328" lon="-1.38131">
        <ele>129</ele>
        <time>2020-12-20T11:05:30.917000+00:00</time>
      </trkpt>
      <trkpt lat="0" lon="0">
        <time>2020-12-20T11:05:30.936000+00:00</time>
      </trkpt>
      <trkpt lat="0" lon="0">
        <time>2020-12-20T11:05:30.947000+00:00</time>
      </trkpt>
      <trkpt lat="0" lon="0">
        <time>2020-12-20T11:05:30.949000+00:00</time>
      </trkpt>
      <trkpt lat="47.30334" lon="-1.38134">
        <ele>128</ele>
        <time>2020-12-20T11:05:31.954000+00:00</time>
      </trkpt>
      <trkpt lat="0" lon="0">
        <time>2020-12-20T11:05:31.963000+00:00</time>
      </trkpt>
      <trkpt lat="0" lon="0">
        <time>2020-12-20T11:05:31.977000+00:00</time>
      </trkpt>
      <trkpt lat="0" lon="0">
        <time>2020-12-20T11:05:31.980000+00:00</time>
      </trkpt>
      <trkpt lat="47.30339" lon="-1.38137">
        <ele>128</ele>
        <time>2020-12-20T11:05:32.953000+00:00</time>
      </trkpt>
      <trkpt lat="0" lon="0">
        <time>2020-12-20T11:05:32.967000+00:00</time>
      </trkpt>
      <trkpt lat="0" lon="0">
        <time>2020-12-20T11:05:32.973000+00:00</time>
      </trkpt>
      <trkpt lat="0" lon="0">
        <time>2020-12-20T11:05:32.975000+00:00</time>
      </trkpt>
      <trkpt lat="47.30345" lon="-1.38139">
        <ele>127</ele>
        <time>2020-12-20T11:05:33.894000+00:00</time>
      </trkpt>
      <trkpt lat="0" lon="0">
        <time>2020-12-20T11:05:33.896000+00:00</time>
      </trkpt>
      <trkpt lat="0" lon="0">
        <time>2020-12-20T11:05:33.899000+00:00</time>
      </trkpt>
      <trkpt lat="0" lon="0">
        <time>2020-12-20T11:05:33.900000+00:00</time>
      </trkpt>
      <trkpt lat="47.3035" lon="-1.38142">
        <ele>127</ele>
        <time>2020-12-20T11:05:34.917000+00:00</time>
      </trkpt>
      <trkpt lat="0" lon="0">
        <time>2020-12-20T11:05:34.932000+00:00</time>
      </trkpt>
      <trkpt lat="0" lon="0">
        <time>2020-12-20T11:05:34.936000+00:00</time>
      </trkpt>
      <trkpt lat="0" lon="0">
        <time>2020-12-20T11:05:34.941000+00:00</time>
      </trkpt>
      <trkpt lat="47.30356" lon="-1.38145">
        <ele>126</ele>
        <time>2020-12-20T11:05:35.953000+00:00</time>
      </trkpt>
      <trkpt lat="0" lon="0">
        <time>2020-12-20T11:05:35.970000+00:00</time>
      </trkpt>
      <trkpt lat="0" lon="0">
        <time>2020-12-20T11:05:35.977000+00:00</time>
      </trkpt>
      <trkpt lat="0" lon="0">
        <time>2020-12-20T11:05:35.982000+00:00</time>
      </trkpt>
      <trkpt lat="47.30361" lon="-1.38147">
        <ele>125</ele>
        <time>2020-12-20T11:05:36.975000+00:00</time>
      </trkpt>
      <trkpt lat="0" lon="0">
        <time>2020-12-20T11:05:36.977000+00:00</time>
      </trkpt>
      <trkpt lat="0" lon="0">
        <time>2020-12-20T11:05:36.979000+00:00</time>
      </trkpt>
      <trkpt lat="0" lon="0">
        <time>2020-12-20T11:05:36.980000+00:00</time>
      </trkpt>
      <trkpt lat="47.30366" lon="-1.3815">
        <ele>125</ele>
        <time>2020-12-20T11:05:37.935000+00:00</time>
      </trkpt>
      <trkpt lat="0" lon="0">
        <time>2020-12-20T11:05:37.954000+00:00</time>
      </trkpt>
      <trkpt lat="0" lon="0">
        <time>2020-12-20T11:05:37.958000+00:00</time>
      </trkpt>
      <trkpt lat="0" lon="0">
        <time>2020-12-20T11:05:37.961000+00:00</time>
      </trkpt>
      <trkpt lat="47.30371" lon="-1.38153">
        <ele>125</ele>
        <time>2020-12-20T11:05:38.949000+00:00</time>
      </trkpt>
      <trkpt lat="0" lon="0">
        <time>2020-12-20T11:05:38.965000+00:00</time>
      </trkpt>
      <trkpt lat="0" lon="0">
        <time>2020-12-20T11:05:38.979000+00:00</time>
      </trkpt>
      <trkpt lat="0" lon="0">
        <time>2020-12-20T11:05:38.982000+00:00</time>
      </trkpt>
      <trkpt lat="47.30376" lon="-1.38155">
        <ele>125</ele>
        <time>2020-12-20T11:05:39.934000+00:00</time>
      </trkpt>
      <trkpt lat="0" lon="0">
        <time>2020-12-20T11:05:39.946000+00:00</time>
      </trkpt>
      <trkpt lat="0" lon="0">
        <time>2020-12-20T11:05:39.956000+00:00</time>
      </trkpt>
      <trkpt lat="0" lon="0">
        <time>2020-12-20T11:05:39.961000+00:00</time>
      </trkpt>
      <trkpt lat="47.30381" lon="-1.38158">
        <ele>124</ele>
        <time>2020-12-20T11:05:40.892000+00:00</time>
      </trkpt>
      <trkpt lat="0" lon="0">
        <time>2020-12-20T11:05:40.910000+00:00</time>
      </trkpt>
      <trkpt lat="0" lon="0">
        <time>2020-12-20T11:05:40.920000+00:00</time>
      </trkpt>
      <trkpt lat="0" lon="0">
        <time>2020-12-20T11:05:40.931000+00:00</time>
      </trkpt>
      <trkpt lat="47.30386" lon="-1.38161">
        <ele>124</ele>
        <time>2020-12-20T11:05:41.937000+00:00</time>
      </trkpt>
      <trkpt lat="0" lon="0">
        <time>2020-12-20T11:05:41.950000+00:00</time>
      </trkpt>
      <trkpt lat="0" lon="0">
        <time>2020-12-20T11:05:41.959000+00:00</time>
      </trkpt>
      <trkpt lat="0" lon="0">
        <time>2020-12-20T11:05:41.962000+00:00</time>
      </trkpt>
      <trkpt lat="47.30391" lon="-1.38164">
        <ele>124</ele>
        <time>2020-12-20T11:05:42.921000+00:00</time>
      </trkpt>
      <trkpt lat="0" lon="0">
        <time>2020-12-20T11:05:42.932000+00:00</time>
      </trkpt>
      <trkpt lat="0" lon="0">
        <time>2020-12-20T11:05:42.937000+00:00</time>
      </trkpt>
      <trkpt lat="0" lon="0">
        <time>2020-12-20T11:05:42.940000+00:00</time>
      </trkpt>
      <trkpt lat="47.30395" lon="-1.38167">
        <ele>123</ele>
        <time>2020-12-20T11:05:43.934000+00:00</time>
      </trkpt>
      <trkpt lat="0" lon="0">
        <time>2020-12-20T11:05:43.940000+00:00</time>
      </trkpt>
      <trkpt lat="0" lon="0">
        <time>2020-12-20T11:05:43.950000+00:00</time>
      </trkpt>
      <trkpt lat="0" lon="0">
        <time>2020-12-20T11:05:43.953000+00:00</time>
      </trkpt>
      <trkpt lat="47.304" lon="-1.3817">
        <ele>123</ele>
        <time>2020-12-20T11:05:44.907000+00:00</time>
      </trkpt>
      <trkpt lat="0" lon="0">
        <time>2020-12-20T11:05:44.922000+00:00</time>
      </trkpt>
      <trkpt lat="0" lon="0">
        <time>2020-12-20T11:05:44.926000+00:00</time>
      </trkpt>
      <trkpt lat="0" lon="0">
        <time>2020-12-20T11:05:44.934000+00:00</time>
      </trkpt>
      <trkpt lat="47.30405" lon="-1.38174">
        <ele>122</ele>
        <time>2020-12-20T11:05:45.936000+00:00</time>
      </trkpt>
      <trkpt lat="0" lon="0">
        <time>2020-12-20T11:05:45.944000+00:00</time>
      </trkpt>
      <trkpt lat="0" lon="0">
        <time>2020-12-20T11:05:45.948000+00:00</time>
      </trkpt>
      <trkpt lat="0" lon="0">
        <time>2020-12-20T11:05:45.951000+00:00</time>
      </trkpt>
      <trkpt lat="47.3041" lon="-1.38177">
        <ele>122</ele>
        <time>2020-12-20T11:05:46.932000+00:00</time>
      </trkpt>
      <trkpt lat="0" lon="0">
        <time>2020-12-20T11:05:46.943000+00:00</time>
      </trkpt>
      <trkpt lat="0" lon="0">
        <time>2020-12-20T11:05:46.952000+00:00</time>
      </trkpt>
      <trkpt lat="0" lon="0">
        <time>2020-12-20T11:05:46.955000+00:00</time>
      </trkpt>
      <trkpt lat="47.30414" lon="-1.38181">
        <ele>122</ele>
        <time>2020-12-20T11:05:47.925000+00:00</time>
      </trkpt>
      <trkpt lat="0" lon="0">
        <time>2020-12-20T11:05:47.926000+00:00</time>
      </trkpt>
      <trkpt lat="0" lon="0">
        <time>2020-12-20T11:05:47.932000+00:00</time>
      </trkpt>
      <trkpt lat="0" lon="0">
        <time>2020-12-20T11:05:47.934000+00:00</time>
      </trkpt>
      <trkpt lat="47.30419" lon="-1.38184">
        <ele>122</ele>
        <time>2020-12-20T11:05:48.949000+00:00</time>
      </trkpt>
      <trkpt lat="0" lon="0">
        <time>2020-12-20T11:05:48.962000+00:00</time>
      </trkpt>
      <trkpt lat="0" lon="0">
        <time>2020-12-20T11:05:48.971000+00:00</time>
      </trkpt>
      <trkpt lat="0" lon="0">
        <time>2020-12-20T11:05:48.974000+00:00</time>
      </trkpt>
      <trkpt lat="47.30423" lon="-1.38188">
        <ele>122</ele>
        <time>2020-12-20T11:05:49.932000+00:00</time>
      </trkpt>
      <trkpt lat="0" lon="0">
        <time>2020-12-20T11:05:49.939000+00:00</time>
      </trkpt>
      <trkpt lat="0" lon="0">
        <time>2020-12-20T11:05:49.947000+00:00</time>
      </trkpt>
      <trkpt lat="0" lon="0">
        <time>2020-12-20T11:05:49.961000+00:00</time>
      </trkpt>
      <trkpt lat="47.30428" lon="-1.38191">
        <ele>121</ele>
        <time>2020-12-20T11:05:50.903000+00:00</time>
      </trkpt>
      <trkpt lat="0" lon="0">
        <time>2020-12-20T11:05:50.917000+00:00</time>
      </trkpt>
      <trkpt lat="0" lon="0">
        <time>2020-12-20T11:05:50.922000+00:00</time>
      </trkpt>
      <trkpt lat="0" lon="0">
        <time>2020-12-20T11:05:50.924000+00:00</time>
      </trkpt>
      <trkpt lat="47.30433" lon="-1.38194">
        <ele>121</ele>
        <time>2020-12-20T11:05:51.914000+00:00</time>
      </trkpt>
      <trkpt lat="0" lon="0">
        <time>2020-12-20T11:05:51.924000+00:00</time>
      </trkpt>
      <trkpt lat="0" lon="0">
        <time>2020-12-20T11:05:51.929000+00:00</time>
      </trkpt>
      <trkpt lat="0" lon="0">
        <time>2020-12-20T11:05:51.937000+00:00</time>
      </trkpt>
      <trkpt lat="47.30438" lon="-1.38197">
        <ele>121</ele>
        <time>2020-12-20T11:05:52.915000+00:00</time>
      </trkpt>
      <trkpt lat="0" lon="0">
        <time>2020-12-20T11:05:52.941000+00:00</time>
      </trkpt>
      <trkpt lat="0" lon="0">
        <time>2020-12-20T11:05:52.946000+00:00</time>
      </trkpt>
      <trkpt lat="0" lon="0">
        <time>2020-12-20T11:05:52.949000+00:00</time>
      </trkpt>
      <trkpt lat="47.30442" lon="-1.382">
        <ele>121</ele>
        <time>2020-12-20T11:05:53.915000+00:00</time>
      </trkpt>
      <trkpt lat="0" lon="0">
        <time>2020-12-20T11:05:53.924000+00:00</time>
      </trkpt>
      <trkpt lat="0" lon="0">
        <time>2020-12-20T11:05:53.933000+00:00</time>
      </trkpt>
      <trkpt lat="0" lon="0">
        <time>2020-12-20T11:05:53.936000+00:00</time>
      </trkpt>
      <trkpt lat="47.30447" lon="-1.38202">
        <ele>121</ele>
        <time>2020-12-20T11:05:54.886000+00:00</time>
      </trkpt>
      <trkpt lat="0" lon="0">
        <time>2020-12-20T11:05:54.894000+00:00</time>
      </trkpt>
      <trkpt lat="0" lon="0">
        <time>2020-12-20T11:05:54.897000+00:00</time>
      </trkpt>
      <trkpt lat="0" lon="0">
        <time>2020-12-20T11:05:54.898000+00:00</time>
      </trkpt>
      <trkpt lat="47.30451" lon="-1.38204">
        <ele>121</ele>
        <time>2020-12-20T11:05:55.935000+00:00</time>
      </trkpt>
      <trkpt lat="0" lon="0">
        <time>2020-12-20T11:05:55.952000+00:00</time>
      </trkpt>
      <trkpt lat="0" lon="0">
        <time>2020-12-20T11:05:55.957000+00:00</time>
      </trkpt>
      <trkpt lat="0" lon="0">
        <time>2020-12-20T11:05:55.959000+00:00</time>
      </trkpt>
      <trkpt lat="47.30456" lon="-1.38206">
        <ele>121</ele>
        <time>2020-12-20T11:05:56.933000+00:00</time>
      </trkpt>
      <trkpt lat="0" lon="0">
        <time>2020-12-20T11:05:56.953000+00:00</time>
      </trkpt>
      <trkpt lat="0" lon="0">
        <time>2020-12-20T11:05:56.961000+00:00</time>
      </trkpt>
      <trkpt lat="0" lon="0">
        <time>2020-12-20T11:05:56.966000+00:00</time>
      </trkpt>
      <trkpt lat="47.3046" lon="-1.38207">
        <ele>121</ele>
        <time>2020-12-20T11:05:57.901000+00:00</time>
      </trkpt>
      <trkpt lat="0" lon="0">
        <time>2020-12-20T11:05:57.910000+00:00</time>
      </trkpt>
      <trkpt lat="0" lon="0">
        <time>2020-12-20T11:05:57.924000+00:00</time>
      </trkpt>
      <trkpt lat="0" lon="0">
        <time>2020-12-20T11:05:57.926000+00:00</time>
      </trkpt>
      <trkpt lat="47.30464" lon="-1.38209">
        <ele>122</ele>
        <time>2020-12-20T11:05:58.875000+00:00</time>
      </trkpt>
      <trkpt lat="0" lon="0">
        <time>2020-12-20T11:05:58.877000+00:00</time>
      </trkpt>
      <trkpt lat="0" lon="0">
        <time>2020-12-20T11:05:58.880000+00:00</time>
      </trkpt>
      <trkpt lat="0" lon="0">
        <time>2020-12-20T11:05:58.881000+00:00</time>
      </trkpt>
      <trkpt lat="47.30468" lon="-1.38212">
        <ele>122</ele>
        <time>2020-12-20T11:05:59.919000+00:00</time>
      </trkpt>
      <trkpt lat="0" lon="0">
        <time>2020-12-20T11:05:59.928000+00:00</time>
      </trkpt>
      <trkpt lat="0" lon="0">
        <time>2020-12-20T11:05:59.930000+00:00</time>
      </trkpt>
      <trkpt lat="47.30471" lon="-1.38215">
        <ele>122</ele>
        <time>2020-12-20T11:06:00.912000+00:00</time>
      </trkpt>
      <trkpt lat="0" lon="0">
        <time>2020-12-20T11:06:00.924000+00:00</time>
      </trkpt>
      <trkpt lat="0" lon="0">
        <time>2020-12-20T11:06:00.932000+00:00</time>
      </trkpt>
      <trkpt lat="0" lon="0">
        <time>2020-12-20T11:06:00.934000+00:00</time>
      </trkpt>
      <trkpt lat="47.30473" lon="-1.38219">
        <ele>122</ele>
        <time>2020-12-20T11:06:01.921000+00:00</time>
      </trkpt>
      <trkpt lat="0" lon="0">
        <time>2020-12-20T11:06:01.931000+00:00</time>
      </trkpt>
      <trkpt lat="0" lon="0">
        <time>2020-12-20T11:06:01.937000+00:00</time>
      </trkpt>
      <trkpt lat="0" lon="0">
        <time>2020-12-20T11:06:01.939000+00:00</time>
      </trkpt>
      <trkpt lat="47.30474" lon="-1.38223">
        <ele>122</ele>
        <time>2020-12-20T11:06:02.913000+00:00</time>
      </trkpt>
      <trkpt lat="0" lon="0">
        <time>2020-12-20T11:06:02.922000+00:00</time>
      </trkpt>
      <trkpt lat="0" lon="0">
        <time>2020-12-20T11:06:02.928000+00:00</time>
      </trkpt>
      <trkpt lat="0" lon="0">
        <time>2020-12-20T11:06:02.929000+00:00</time>
      </trkpt>
      <trkpt lat="47.30474" lon="-1.38228">
        <ele>123</ele>
        <time>2020-12-20T11:06:03.908000+00:00</time>
      </trkpt>
      <trkpt lat="0" lon="0">
        <time>2020-12-20T11:06:03.919000+00:00</time>
      </trkpt>
      <trkpt lat="0" lon="0">
        <time>2020-12-20T11:06:03.923000+00:00</time>
      </trkpt>
      <trkpt lat="0" lon="0">
        <time>2020-12-20T11:06:03.926000+00:00</time>
      </trkpt>
      <trkpt lat="47.30473" lon="-1.38233">
        <ele>123</ele>
        <time>2020-12-20T11:06:04.948000+00:00</time>
      </trkpt>
      <trkpt lat="0" lon="0">
        <time>2020-12-20T11:06:04.965000+00:00</time>
      </trkpt>
      <trkpt lat="0" lon="0">
        <time>2020-12-20T11:06:04.976000+00:00</time>
      </trkpt>
      <trkpt lat="0" lon="0">
        <time>2020-12-20T11:06:04.978000+00:00</time>
      </trkpt>
      <trkpt lat="47.30471" lon="-1.38239">
        <ele>124</ele>
        <time>2020-12-20T11:06:05.929000+00:00</time>
      </trkpt>
      <trkpt lat="0" lon="0">
        <time>2020-12-20T11:06:05.934000+00:00</time>
      </trkpt>
      <trkpt lat="0" lon="0">
        <time>2020-12-20T11:06:05.943000+00:00</time>
      </trkpt>
      <trkpt lat="0" lon="0">
        <time>2020-12-20T11:06:05.949000+00:00</time>
      </trkpt>
      <trkpt lat="47.30469" lon="-1.38245">
        <ele>124</ele>
        <time>2020-12-20T11:06:06.897000+00:00</time>
      </trkpt>
      <trkpt lat="0" lon="0">
        <time>2020-12-20T11:06:06.912000+00:00</time>
      </trkpt>
      <trkpt lat="0" lon="0">
        <time>2020-12-20T11:06:06.920000+00:00</time>
      </trkpt>
      <trkpt lat="0" lon="0">
        <time>2020-12-20T11:06:06.923000+00:00</time>
      </trkpt>
      <trkpt lat="47.30467" lon="-1.38251">
        <ele>125</ele>
        <time>2020-12-20T11:06:07.929000+00:00</time>
      </trkpt>
      <trkpt lat="0" lon="0">
        <time>2020-12-20T11:06:07.934000+00:00</time>
      </trkpt>
      <trkpt lat="0" lon="0">
        <time>2020-12-20T11:06:07.939000+00:00</time>
      </trkpt>
      <trkpt lat="0" lon="0">
        <time>2020-12-20T11:06:07.942000+00:00</time>
      </trkpt>
      <trkpt lat="47.30465" lon="-1.38258">
        <ele>125</ele>
        <time>2020-12-20T11:06:08.981000+00:00</time>
      </trkpt>
      <trkpt lat="0" lon="0">
        <time>2020-12-20T11:06:08.993000+00:00</time>
      </trkpt>
      <trkpt lat="0" lon="0">
        <time>2020-12-20T11:06:08.999000+00:00</time>
      </trkpt>
      <trkpt lat="0" lon="0">
        <time>2020-12-20T11:06:09.002000+00:00</time>
      </trkpt>
      <trkpt lat="47.30463" lon="-1.38265">
        <ele>126</ele>
        <time>2020-12-20T11:06:09.960000+00:00</time>
      </trkpt>
      <trkpt lat="0" lon="0">
        <time>2020-12-20T11:06:09.970000+00:00</time>
      </trkpt>
      <trkpt lat="0" lon="0">
        <time>2020-12-20T11:06:09.974000+00:00</time>
      </trkpt>
      <trkpt lat="0" lon="0">
        <time>2020-12-20T11:06:09.977000+00:00</time>
      </trkpt>
      <trkpt lat="47.30461" lon="-1.38272">
        <ele>126</ele>
        <time>2020-12-20T11:06:10.940000+00:00</time>
      </trkpt>
      <trkpt lat="0" lon="0">
        <time>2020-12-20T11:06:10.950000+00:00</time>
      </trkpt>
      <trkpt lat="0" lon="0">
        <time>2020-12-20T11:06:10.956000+00:00</time>
      </trkpt>
      <trkpt lat="0" lon="0">
        <time>2020-12-20T11:06:10.960000+00:00</time>
      </trkpt>
      <trkpt lat="47.30459" lon="-1.3828">
        <ele>126</ele>
        <time>2020-12-20T11:06:11.944000+00:00</time>
      </trkpt>
      <trkpt lat="0" lon="0">
        <time>2020-12-20T11:06:11.956000+00:00</time>
      </trkpt>
      <trkpt lat="0" lon="0">
        <time>2020-12-20T11:06:11.958000+00:00</time>
      </trkpt>
      <trkpt lat="0" lon="0">
        <time>2020-12-20T11:06:11.962000+00:00</time>
      </trkpt>
      <trkpt lat="47.30457" lon="-1.38288">
        <ele>126</ele>
        <time>2020-12-20T11:06:12.926000+00:00</time>
      </trkpt>
      <trkpt lat="0" lon="0">
        <time>2020-12-20T11:06:12.937000+00:00</time>
      </trkpt>
      <trkpt lat="0" lon="0">
        <time>2020-12-20T11:06:12.943000+00:00</time>
      </trkpt>
      <trkpt lat="0" lon="0">
        <time>2020-12-20T11:06:12.947000+00:00</time>
      </trkpt>
      <trkpt lat="47.30456" lon="-1.38295">
        <ele>126</ele>
        <time>2020-12-20T11:06:13.967000+00:00</time>
      </trkpt>
      <trkpt lat="0" lon="0">
        <time>2020-12-20T11:06:13.977000+00:00</time>
      </trkpt>
      <trkpt lat="0" lon="0">
        <time>2020-12-20T11:06:13.985000+00:00</time>
      </trkpt>
      <trkpt lat="0" lon="0">
        <time>2020-12-20T11:06:13.987000+00:00</time>
      </trkpt>
      <trkpt lat="47.30454" lon="-1.38303">
        <ele>126</ele>
        <time>2020-12-20T11:06:14.923000+00:00</time>
      </trkpt>
      <trkpt lat="0" lon="0">
        <time>2020-12-20T11:06:14.932000+00:00</time>
      </trkpt>
      <trkpt lat="0" lon="0">
        <time>2020-12-20T11:06:14.941000+00:00</time>
      </trkpt>
      <trkpt lat="0" lon="0">
        <time>2020-12-20T11:06:14.946000+00:00</time>
      </trkpt>
      <trkpt lat="47.30453" lon="-1.38311">
        <ele>126</ele>
        <time>2020-12-20T11:06:15.933000+00:00</time>
      </trkpt>
      <trkpt lat="0" lon="0">
        <time>2020-12-20T11:06:15.942000+00:00</time>
      </trkpt>
      <trkpt lat="0" lon="0">
        <time>2020-12-20T11:06:15.947000+00:00</time>
      </trkpt>
      <trkpt lat="0" lon="0">
        <time>2020-12-20T11:06:15.950000+00:00</time>
      </trkpt>
      <trkpt lat="47.30453" lon="-1.3832">
        <ele>126</ele>
        <time>2020-12-20T11:06:16.970000+00:00</time>
      </trkpt>
      <trkpt lat="0" lon="0">
        <time>2020-12-20T11:06:16.980000+00:00</time>
      </trkpt>
      <trkpt lat="0" lon="0">
        <time>2020-12-20T11:06:16.987000+00:00</time>
      </trkpt>
      <trkpt lat="0" lon="0">
        <time>2020-12-20T11:06:16.991000+00:00</time>
      </trkpt>
      <trkpt lat="47.30452" lon="-1.38328">
        <ele>126</ele>
        <time>2020-12-20T11:06:17.967000+00:00</time>
      </trkpt>
      <trkpt lat="0" lon="0">
        <time>2020-12-20T11:06:17.980000+00:00</time>
      </trkpt>
      <trkpt lat="0" lon="0">
        <time>2020-12-20T11:06:17.991000+00:00</time>
      </trkpt>
      <trkpt lat="0" lon="0">
        <time>2020-12-20T11:06:17.993000+00:00</time>
      </trkpt>
      <trkpt lat="47.30452" lon="-1.38336">
        <ele>126</ele>
        <time>2020-12-20T11:06:18.961000+00:00</time>
      </trkpt>
      <trkpt lat="0" lon="0">
        <time>2020-12-20T11:06:18.969000+00:00</time>
      </trkpt>
      <trkpt lat="0" lon="0">
        <time>2020-12-20T11:06:18.974000+00:00</time>
      </trkpt>
      <trkpt lat="0" lon="0">
        <time>2020-12-20T11:06:18.979000+00:00</time>
      </trkpt>
      <trkpt lat="47.30452" lon="-1.38345">
        <ele>126</ele>
        <time>2020-12-20T11:06:19.970000+00:00</time>
      </trkpt>
      <trkpt lat="0" lon="0">
        <time>2020-12-20T11:06:19.984000+00:00</time>
      </trkpt>
      <trkpt lat="0" lon="0">
        <time>2020-12-20T11:06:19.996000+00:00</time>
      </trkpt>
      <trkpt lat="0" lon="0">
        <time>2020-12-20T11:06:19.998000+00:00</time>
      </trkpt>
      <trkpt lat="47.30452" lon="-1.38353">
        <ele>126</ele>
        <time>2020-12-20T11:06:20.976000+00:00</time>
      </trkpt>
      <trkpt lat="0" lon="0">
        <time>2020-12-20T11:06:20.981000+00:00</time>
      </trkpt>
      <trkpt lat="0" lon="0">
        <time>2020-12-20T11:06:20.983000+00:00</time>
      </trkpt>
      <trkpt lat="0" lon="0">
        <time>2020-12-20T11:06:20.984000+00:00</time>
      </trkpt>
      <trkpt lat="47.30452" lon="-1.38362">
        <ele>126</ele>
        <time>2020-12-20T11:06:21.928000+00:00</time>
      </trkpt>
      <trkpt lat="0" lon="0">
        <time>2020-12-20T11:06:21.938000+00:00</time>
      </trkpt>
      <trkpt lat="0" lon="0">
        <time>2020-12-20T11:06:21.945000+00:00</time>
      </trkpt>
      <trkpt lat="0" lon="0">
        <time>2020-12-20T11:06:21.948000+00:00</time>
      </trkpt>
      <trkpt lat="47.30453" lon="-1.38371">
        <ele>127</ele>
        <time>2020-12-20T11:06:22.970000+00:00</time>
      </trkpt>
      <trkpt lat="0" lon="0">
        <time>2020-12-20T11:06:22.993000+00:00</time>
      </trkpt>
      <trkpt lat="0" lon="0">
        <time>2020-12-20T11:06:22.999000+00:00</time>
      </trkpt>
      <trkpt lat="0" lon="0">
        <time>2020-12-20T11:06:23.004000+00:00</time>
      </trkpt>
      <trkpt lat="47.30453" lon="-1.3838">
        <ele>127</ele>
        <time>2020-12-20T11:06:23.990000+00:00</time>
      </trkpt>
      <trkpt lat="0" lon="0">
        <time>2020-12-20T11:06:24.004000+00:00</time>
      </trkpt>
      <trkpt lat="0" lon="0">
        <time>2020-12-20T11:06:24.005000+00:00</time>
      </trkpt>
      <trkpt lat="0" lon="0">
        <time>2020-12-20T11:06:24.006000+00:00</time>
      </trkpt>
      <trkpt lat="47.30454" lon="-1.38388">
        <ele>127</ele>
        <time>2020-12-20T11:06:24.989000+00:00</time>
      </trkpt>
      <trkpt lat="0" lon="0">
        <time>2020-12-20T11:06:25.003000+00:00</time>
      </trkpt>
      <trkpt lat="0" lon="0">
        <time>2020-12-20T11:06:25.008000+00:00</time>
      </trkpt>
      <trkpt lat="0" lon="0">
        <time>2020-12-20T11:06:25.011000+00:00</time>
      </trkpt>
      <trkpt lat="47.30454" lon="-1.38397">
        <ele>127</ele>
        <time>2020-12-20T11:06:26.033000+00:00</time>
      </trkpt>
      <trkpt lat="0" lon="0">
        <time>2020-12-20T11:06:26.042000+00:00</time>
      </trkpt>
      <trkpt lat="0" lon="0">
        <time>2020-12-20T11:06:26.049000+00:00</time>
      </trkpt>
      <trkpt lat="0" lon="0">
        <time>2020-12-20T11:06:26.054000+00:00</time>
      </trkpt>
      <trkpt lat="47.30455" lon="-1.38406">
        <ele>127</ele>
        <time>2020-12-20T11:06:27.002000+00:00</time>
      </trkpt>
      <trkpt lat="0" lon="0">
        <time>2020-12-20T11:06:27.024000+00:00</time>
      </trkpt>
      <trkpt lat="0" lon="0">
        <time>2020-12-20T11:06:27.030000+00:00</time>
      </trkpt>
      <trkpt lat="0" lon="0">
        <time>2020-12-20T11:06:27.032000+00:00</time>
      </trkpt>
      <trkpt lat="47.30456" lon="-1.38414">
        <ele>126</ele>
        <time>2020-12-20T11:06:28.054000+00:00</time>
      </trkpt>
      <trkpt lat="0" lon="0">
        <time>2020-12-20T11:06:28.064000+00:00</time>
      </trkpt>
      <trkpt lat="0" lon="0">
        <time>2020-12-20T11:06:28.068000+00:00</time>
      </trkpt>
      <trkpt lat="0" lon="0">
        <time>2020-12-20T11:06:28.070000+00:00</time>
      </trkpt>
      <trkpt lat="47.30457" lon="-1.38423">
        <ele>126</ele>
        <time>2020-12-20T11:06:29.024000+00:00</time>
      </trkpt>
      <trkpt lat="0" lon="0">
        <time>2020-12-20T11:06:29.039000+00:00</time>
      </trkpt>
      <trkpt lat="0" lon="0">
        <time>2020-12-20T11:06:29.046000+00:00</time>
      </trkpt>
      <trkpt lat="0" lon="0">
        <time>2020-12-20T11:06:29.048000+00:00</time>
      </trkpt>
      <trkpt lat="47.30457" lon="-1.38432">
        <ele>126</ele>
        <time>2020-12-20T11:06:30.017000+00:00</time>
      </trkpt>
      <trkpt lat="0" lon="0">
        <time>2020-12-20T11:06:30.028000+00:00</time>
      </trkpt>
      <trkpt lat="0" lon="0">
        <time>2020-12-20T11:06:30.033000+00:00</time>
      </trkpt>
      <trkpt lat="0" lon="0">
        <time>2020-12-20T11:06:30.036000+00:00</time>
      </trkpt>
      <trkpt lat="47.30458" lon="-1.38441">
        <ele>125</ele>
        <time>2020-12-20T11:06:31.008000+00:00</time>
      </trkpt>
      <trkpt lat="0" lon="0">
        <time>2020-12-20T11:06:31.018000+00:00</time>
      </trkpt>
      <trkpt lat="0" lon="0">
        <time>2020-12-20T11:06:31.027000+00:00</time>
      </trkpt>
      <trkpt lat="0" lon="0">
        <time>2020-12-20T11:06:31.037000+00:00</time>
      </trkpt>
      <trkpt lat="47.30458" lon="-1.3845">
        <ele>125</ele>
        <time>2020-12-20T11:06:31.980000+00:00</time>
      </trkpt>
      <trkpt lat="0" lon="0">
        <time>2020-12-20T11:06:31.992000+00:00</time>
      </trkpt>
      <trkpt lat="0" lon="0">
        <time>2020-12-20T11:06:31.998000+00:00</time>
      </trkpt>
      <trkpt lat="0" lon="0">
        <time>2020-12-20T11:06:32.001000+00:00</time>
      </trkpt>
      <trkpt lat="47.30459" lon="-1.38459">
        <ele>125</ele>
        <time>2020-12-20T11:06:32.979000+00:00</time>
      </trkpt>
      <trkpt lat="0" lon="0">
        <time>2020-12-20T11:06:32.986000+00:00</time>
      </trkpt>
      <trkpt lat="0" lon="0">
        <time>2020-12-20T11:06:32.991000+00:00</time>
      </trkpt>
      <trkpt lat="0" lon="0">
        <time>2020-12-20T11:06:32.993000+00:00</time>
      </trkpt>
      <trkpt lat="47.30459" lon="-1.38468">
        <ele>125</ele>
        <time>2020-12-20T11:06:34.002000+00:00</time>
      </trkpt>
      <trkpt lat="0" lon="0">
        <time>2020-12-20T11:06:34.016000+00:00</time>
      </trkpt>
      <trkpt lat="0" lon="0">
        <time>2020-12-20T11:06:34.030000+00:00</time>
      </trkpt>
      <trkpt lat="0" lon="0">
        <time>2020-12-20T11:06:34.032000+00:00</time>
      </trkpt>
      <trkpt lat="47.30459" lon="-1.38476">
        <ele>125</ele>
        <time>2020-12-20T11:06:35.018000+00:00</time>
      </trkpt>
      <trkpt lat="0" lon="0">
        <time>2020-12-20T11:06:35.033000+00:00</time>
      </trkpt>
      <trkpt lat="0" lon="0">
        <time>2020-12-20T11:06:35.038000+00:00</time>
      </trkpt>
      <trkpt lat="0" lon="0">
        <time>2020-12-20T11:06:35.047000+00:00</time>
      </trkpt>
      <trkpt lat="47.30459" lon="-1.38485">
        <ele>125</ele>
        <time>2020-12-20T11:06:36.029000+00:00</time>
      </trkpt>
      <trkpt lat="0" lon="0">
        <time>2020-12-20T11:06:36.043000+00:00</time>
      </trkpt>
      <trkpt lat="0" lon="0">
        <time>2020-12-20T11:06:36.047000+00:00</time>
      </trkpt>
      <trkpt lat="0" lon="0">
        <time>2020-12-20T11:06:36.055000+00:00</time>
      </trkpt>
      <trkpt lat="47.30458" lon="-1.38493">
        <ele>126</ele>
        <time>2020-12-20T11:06:37.010000+00:00</time>
      </trkpt>
      <trkpt lat="0" lon="0">
        <time>2020-12-20T11:06:37.025000+00:00</time>
      </trkpt>
      <trkpt lat="0" lon="0">
        <time>2020-12-20T11:06:37.031000+00:00</time>
      </trkpt>
      <trkpt lat="0" lon="0">
        <time>2020-12-20T11:06:37.037000+00:00</time>
      </trkpt>
      <trkpt lat="47.30458" lon="-1.38501">
        <ele>126</ele>
        <time>2020-12-20T11:06:37.989000+00:00</time>
      </trkpt>
      <trkpt lat="0" lon="0">
        <time>2020-12-20T11:06:37.992000+00:00</time>
      </trkpt>
      <trkpt lat="0" lon="0">
        <time>2020-12-20T11:06:37.995000+00:00</time>
      </trkpt>
      <trkpt lat="0" lon="0">
        <time>2020-12-20T11:06:37.996000+00:00</time>
      </trkpt>
      <trkpt lat="47.30457" lon="-1.38509">
        <ele>126</ele>
        <time>2020-12-20T11:06:38.994000+00:00</time>
      </trkpt>
      <trkpt lat="0" lon="0">
        <time>2020-12-20T11:06:38.999000+00:00</time>
      </trkpt>
      <trkpt lat="0" lon="0">
        <time>2020-12-20T11:06:39.003000+00:00</time>
      </trkpt>
      <trkpt lat="0" lon="0">
        <time>2020-12-20T11:06:39.004000+00:00</time>
      </trkpt>
      <trkpt lat="47.30455" lon="-1.38517">
        <ele>126</ele>
        <time>2020-12-20T11:06:40.032000+00:00</time>
      </trkpt>
      <trkpt lat="0" lon="0">
        <time>2020-12-20T11:06:40.040000+00:00</time>
      </trkpt>
      <trkpt lat="0" lon="0">
        <time>2020-12-20T11:06:40.047000+00:00</time>
      </trkpt>
      <trkpt lat="0" lon="0">
        <time>2020-12-20T11:06:40.054000+00:00</time>
      </trkpt>
      <trkpt lat="47.30454" lon="-1.38525">
        <ele>126</ele>
        <time>2020-12-20T11:06:41.015000+00:00</time>
      </trkpt>
      <trkpt lat="0" lon="0">
        <time>2020-12-20T11:06:41.024000+00:00</time>
      </trkpt>
      <trkpt lat="0" lon="0">
        <time>2020-12-20T11:06:41.029000+00:00</time>
      </trkpt>
      <trkpt lat="0" lon="0">
        <time>2020-12-20T11:06:41.031000+00:00</time>
      </trkpt>
      <trkpt lat="47.30453" lon="-1.38533">
        <ele>126</ele>
        <time>2020-12-20T11:06:42.039000+00:00</time>
      </trkpt>
      <trkpt lat="0" lon="0">
        <time>2020-12-20T11:06:42.049000+00:00</time>
      </trkpt>
      <trkpt lat="0" lon="0">
        <time>2020-12-20T11:06:42.054000+00:00</time>
      </trkpt>
      <trkpt lat="0" lon="0">
        <time>2020-12-20T11:06:42.057000+00:00</time>
      </trkpt>
      <trkpt lat="47.30451" lon="-1.38542">
        <ele>125</ele>
        <time>2020-12-20T11:06:43.002000+00:00</time>
      </trkpt>
      <trkpt lat="0" lon="0">
        <time>2020-12-20T11:06:43.008000+00:00</time>
      </trkpt>
      <trkpt lat="0" lon="0">
        <time>2020-12-20T11:06:43.010000+00:00</time>
      </trkpt>
      <trkpt lat="0" lon="0">
        <time>2020-12-20T11:06:43.011000+00:00</time>
      </trkpt>
      <trkpt lat="47.30449" lon="-1.3855">
        <ele>125</ele>
        <time>2020-12-20T11:06:43.978000+00:00</time>
      </trkpt>
      <trkpt lat="0" lon="0">
        <time>2020-12-20T11:06:43.981000+00:00</time>
      </trkpt>
      <trkpt lat="0" lon="0">
        <time>2020-12-20T11:06:43.984000+00:00</time>
      </trkpt>
      <trkpt lat="0" lon="0">
        <time>2020-12-20T11:06:43.985000+00:00</time>
      </trkpt>
      <trkpt lat="47.30447" lon="-1.38559">
        <ele>125</ele>
        <time>2020-12-20T11:06:44.985000+00:00</time>
      </trkpt>
      <trkpt lat="0" lon="0">
        <time>2020-12-20T11:06:44.991000+00:00</time>
      </trkpt>
      <trkpt lat="0" lon="0">
        <time>2020-12-20T11:06:45.002000+00:00</time>
      </trkpt>
      <trkpt lat="0" lon="0">
        <time>2020-12-20T11:06:45.009000+00:00</time>
      </trkpt>
      <trkpt lat="47.30445" lon="-1.38567">
        <ele>125</ele>
        <time>2020-12-20T11:06:46.010000+00:00</time>
      </trkpt>
      <trkpt lat="0" lon="0">
        <time>2020-12-20T11:06:46.023000+00:00</time>
      </trkpt>
      <trkpt lat="0" lon="0">
        <time>2020-12-20T11:06:46.036000+00:00</time>
      </trkpt>
      <trkpt lat="0" lon="0">
        <time>2020-12-20T11:06:46.038000+00:00</time>
      </trkpt>
      <trkpt lat="47.30443" lon="-1.38576">
        <ele>125</ele>
        <time>2020-12-20T11:06:46.989000+00:00</time>
      </trkpt>
      <trkpt lat="0" lon="0">
        <time>2020-12-20T11:06:47.001000+00:00</time>
      </trkpt>
      <trkpt lat="0" lon="0">
        <time>2020-12-20T11:06:47.005000+00:00</time>
      </trkpt>
      <trkpt lat="0" lon="0">
        <time>2020-12-20T11:06:47.009000+00:00</time>
      </trkpt>
      <trkpt lat="47.30441" lon="-1.38585">
        <ele>125</ele>
        <time>2020-12-20T11:06:47.988000+00:00</time>
      </trkpt>
      <trkpt lat="0" lon="0">
        <time>2020-12-20T11:06:48.001000+00:00</time>
      </trkpt>
      <trkpt lat="0" lon="0">
        <time>2020-12-20T11:06:48.012000+00:00</time>
      </trkpt>
      <trkpt lat="0" lon="0">
        <time>2020-12-20T11:06:48.014000+00:00</time>
      </trkpt>
      <trkpt lat="47.30438" lon="-1.38603">
        <ele>125</ele>
        <time>2020-12-20T11:06:49.877000+00:00</time>
      </trkpt>
      <trkpt lat="0" lon="0">
        <time>2020-12-20T11:06:49.880000+00:00</time>
      </trkpt>
      <trkpt lat="0" lon="0">
        <time>2020-12-20T11:06:49.882000+00:00</time>
      </trkpt>
      <trkpt lat="0" lon="0">
        <time>2020-12-20T11:06:49.883000+00:00</time>
      </trkpt>
      <trkpt lat="47.30437" lon="-1.38612">
        <ele>125</ele>
        <time>2020-12-20T11:06:50.994000+00:00</time>
      </trkpt>
      <trkpt lat="0" lon="0">
        <time>2020-12-20T11:06:50.999000+00:00</time>
      </trkpt>
      <trkpt lat="0" lon="0">
        <time>2020-12-20T11:06:51.005000+00:00</time>
      </trkpt>
      <trkpt lat="0" lon="0">
        <time>2020-12-20T11:06:51.006000+00:00</time>
      </trkpt>
      <trkpt lat="47.30436" lon="-1.38621">
        <ele>124</ele>
        <time>2020-12-20T11:06:52.050000+00:00</time>
      </trkpt>
      <trkpt lat="0" lon="0">
        <time>2020-12-20T11:06:52.056000+00:00</time>
      </trkpt>
      <trkpt lat="0" lon="0">
        <time>2020-12-20T11:06:52.066000+00:00</time>
      </trkpt>
      <trkpt lat="0" lon="0">
        <time>2020-12-20T11:06:52.068000+00:00</time>
      </trkpt>
      <trkpt lat="47.30435" lon="-1.38628">
        <ele>125</ele>
        <time>2020-12-20T11:06:52.968000+00:00</time>
      </trkpt>
      <trkpt lat="0" lon="0">
        <time>2020-12-20T11:06:52.978000+00:00</time>
      </trkpt>
      <trkpt lat="0" lon="0">
        <time>2020-12-20T11:06:52.982000+00:00</time>
      </trkpt>
      <trkpt lat="0" lon="0">
        <time>2020-12-20T11:06:52.988000+00:00</time>
      </trkpt>
      <trkpt lat="47.30433" lon="-1.38634">
        <ele>124</ele>
        <time>2020-12-20T11:06:53.982000+00:00</time>
      </trkpt>
      <trkpt lat="0" lon="0">
        <time>2020-12-20T11:06:53.990000+00:00</time>
      </trkpt>
      <trkpt lat="0" lon="0">
        <time>2020-12-20T11:06:53.996000+00:00</time>
      </trkpt>
      <trkpt lat="0" lon="0">
        <time>2020-12-20T11:06:54.001000+00:00</time>
      </trkpt>
      <trkpt lat="47.30431" lon="-1.38639">
        <ele>125</ele>
        <time>2020-12-20T11:06:54.966000+00:00</time>
      </trkpt>
      <trkpt lat="0" lon="0">
        <time>2020-12-20T11:06:54.983000+00:00</time>
      </trkpt>
      <trkpt lat="0" lon="0">
        <time>2020-12-20T11:06:54.990000+00:00</time>
      </trkpt>
      <trkpt lat="0" lon="0">
        <time>2020-12-20T11:06:54.992000+00:00</time>
      </trkpt>
      <trkpt lat="47.30428" lon="-1.38641">
        <ele>126</ele>
        <time>2020-12-20T11:06:55.938000+00:00</time>
      </trkpt>
      <trkpt lat="0" lon="0">
        <time>2020-12-20T11:06:55.958000+00:00</time>
      </trkpt>
      <trkpt lat="0" lon="0">
        <time>2020-12-20T11:06:55.965000+00:00</time>
      </trkpt>
      <trkpt lat="0" lon="0">
        <time>2020-12-20T11:06:55.968000+00:00</time>
      </trkpt>
      <trkpt lat="47.30425" lon="-1.38642">
        <ele>128</ele>
        <time>2020-12-20T11:06:56.966000+00:00</time>
      </trkpt>
      <trkpt lat="0" lon="0">
        <time>2020-12-20T11:06:56.974000+00:00</time>
      </trkpt>
      <trkpt lat="0" lon="0">
        <time>2020-12-20T11:06:56.980000+00:00</time>
      </trkpt>
      <trkpt lat="0" lon="0">
        <time>2020-12-20T11:06:56.983000+00:00</time>
      </trkpt>
      <trkpt lat="47.3042" lon="-1.38641">
        <ele>128</ele>
        <time>2020-12-20T11:06:57.970000+00:00</time>
      </trkpt>
      <trkpt lat="0" lon="0">
        <time>2020-12-20T11:06:57.980000+00:00</time>
      </trkpt>
      <trkpt lat="0" lon="0">
        <time>2020-12-20T11:06:57.985000+00:00</time>
      </trkpt>
      <trkpt lat="0" lon="0">
        <time>2020-12-20T11:06:57.988000+00:00</time>
      </trkpt>
      <trkpt lat="47.30415" lon="-1.3864">
        <ele>128</ele>
        <time>2020-12-20T11:06:58.920000+00:00</time>
      </trkpt>
      <trkpt lat="0" lon="0">
        <time>2020-12-20T11:06:58.926000+00:00</time>
      </trkpt>
      <trkpt lat="0" lon="0">
        <time>2020-12-20T11:06:58.927000+00:00</time>
      </trkpt>
      <trkpt lat="0" lon="0">
        <time>2020-12-20T11:06:58.928000+00:00</time>
      </trkpt>
      <trkpt lat="47.3041" lon="-1.38638">
        <ele>128</ele>
        <time>2020-12-20T11:06:59.978000+00:00</time>
      </trkpt>
      <trkpt lat="0" lon="0">
        <time>2020-12-20T11:06:59.980000+00:00</time>
      </trkpt>
      <trkpt lat="0" lon="0">
        <time>2020-12-20T11:06:59.982000+00:00</time>
      </trkpt>
      <trkpt lat="0" lon="0">
        <time>2020-12-20T11:06:59.984000+00:00</time>
      </trkpt>
      <trkpt lat="47.30405" lon="-1.38636">
        <ele>128</ele>
        <time>2020-12-20T11:07:00.998000+00:00</time>
      </trkpt>
      <trkpt lat="0" lon="0">
        <time>2020-12-20T11:07:01.013000+00:00</time>
      </trkpt>
      <trkpt lat="0" lon="0">
        <time>2020-12-20T11:07:01.024000+00:00</time>
      </trkpt>
      <trkpt lat="0" lon="0">
        <time>2020-12-20T11:07:01.030000+00:00</time>
      </trkpt>
      <trkpt lat="47.30399" lon="-1.38632">
        <ele>127</ele>
        <time>2020-12-20T11:07:02.007000+00:00</time>
      </trkpt>
      <trkpt lat="0" lon="0">
        <time>2020-12-20T11:07:02.020000+00:00</time>
      </trkpt>
      <trkpt lat="0" lon="0">
        <time>2020-12-20T11:07:02.024000+00:00</time>
      </trkpt>
      <trkpt lat="0" lon="0">
        <time>2020-12-20T11:07:02.028000+00:00</time>
      </trkpt>
      <trkpt lat="47.30393" lon="-1.38629">
        <ele>127</ele>
        <time>2020-12-20T11:07:02.997000+00:00</time>
      </trkpt>
      <trkpt lat="0" lon="0">
        <time>2020-12-20T11:07:03.009000+00:00</time>
      </trkpt>
      <trkpt lat="0" lon="0">
        <time>2020-12-20T11:07:03.014000+00:00</time>
      </trkpt>
      <trkpt lat="0" lon="0">
        <time>2020-12-20T11:07:03.021000+00:00</time>
      </trkpt>
      <trkpt lat="47.30387" lon="-1.38625">
        <ele>128</ele>
        <time>2020-12-20T11:07:03.979000+00:00</time>
      </trkpt>
      <trkpt lat="0" lon="0">
        <time>2020-12-20T11:07:03.990000+00:00</time>
      </trkpt>
      <trkpt lat="0" lon="0">
        <time>2020-12-20T11:07:03.994000+00:00</time>
      </trkpt>
      <trkpt lat="0" lon="0">
        <time>2020-12-20T11:07:03.998000+00:00</time>
      </trkpt>
      <trkpt lat="47.30381" lon="-1.38622">
        <ele>128</ele>
        <time>2020-12-20T11:07:04.978000+00:00</time>
      </trkpt>
      <trkpt lat="0" lon="0">
        <time>2020-12-20T11:07:04.990000+00:00</time>
      </trkpt>
      <trkpt lat="0" lon="0">
        <time>2020-12-20T11:07:04.999000+00:00</time>
      </trkpt>
      <trkpt lat="0" lon="0">
        <time>2020-12-20T11:07:05.001000+00:00</time>
      </trkpt>
      <trkpt lat="47.30375" lon="-1.38619">
        <ele>128</ele>
        <time>2020-12-20T11:07:06.011000+00:00</time>
      </trkpt>
      <trkpt lat="0" lon="0">
        <time>2020-12-20T11:07:06.029000+00:00</time>
      </trkpt>
      <trkpt lat="0" lon="0">
        <time>2020-12-20T11:07:06.038000+00:00</time>
      </trkpt>
      <trkpt lat="0" lon="0">
        <time>2020-12-20T11:07:06.042000+00:00</time>
      </trkpt>
      <trkpt lat="47.3037" lon="-1.38616">
        <ele>129</ele>
        <time>2020-12-20T11:07:06.983000+00:00</time>
      </trkpt>
      <trkpt lat="0" lon="0">
        <time>2020-12-20T11:07:06.992000+00:00</time>
      </trkpt>
      <trkpt lat="0" lon="0">
        <time>2020-12-20T11:07:07+00:00</time>
      </trkpt>
      <trkpt lat="0" lon="0">
        <time>2020-12-20T11:07:07.004000+00:00</time>
      </trkpt>
      <trkpt lat="47.30364" lon="-1.38614">
        <ele>128</ele>
        <time>2020-12-20T11:07:08.004000+00:00</time>
      </trkpt>
      <trkpt lat="0" lon="0">
        <time>2020-12-20T11:07:08.019000+00:00</time>
      </trkpt>
      <trkpt lat="0" lon="0">
        <time>2020-12-20T11:07:08.020000+00:00</time>
      </trkpt>
      <trkpt lat="0" lon="0">
        <time>2020-12-20T11:07:08.021000+00:00</time>
      </trkpt>
      <trkpt lat="47.30359" lon="-1.38613">
        <ele>128</ele>
        <time>2020-12-20T11:07:09.019000+00:00</time>
      </trkpt>
      <trkpt lat="0" lon="0">
        <time>2020-12-20T11:07:09.029000+00:00</time>
      </trkpt>
      <trkpt lat="0" lon="0">
        <time>2020-12-20T11:07:09.039000+00:00</time>
      </trkpt>
      <trkpt lat="0" lon="0">
        <time>2020-12-20T11:07:09.043000+00:00</time>
      </trkpt>
      <trkpt lat="47.30354" lon="-1.38613">
        <ele>128</ele>
        <time>2020-12-20T11:07:10.001000+00:00</time>
      </trkpt>
      <trkpt lat="0" lon="0">
        <time>2020-12-20T11:07:10.009000+00:00</time>
      </trkpt>
      <trkpt lat="0" lon="0">
        <time>2020-12-20T11:07:10.013000+00:00</time>
      </trkpt>
      <trkpt lat="0" lon="0">
        <time>2020-12-20T11:07:10.016000+00:00</time>
      </trkpt>
      <trkpt lat="47.30349" lon="-1.38614">
        <ele>128</ele>
        <time>2020-12-20T11:07:11.001000+00:00</time>
      </trkpt>
      <trkpt lat="0" lon="0">
        <time>2020-12-20T11:07:11.006000+00:00</time>
      </trkpt>
      <trkpt lat="0" lon="0">
        <time>2020-12-20T11:07:11.012000+00:00</time>
      </trkpt>
      <trkpt lat="0" lon="0">
        <time>2020-12-20T11:07:11.015000+00:00</time>
      </trkpt>
      <trkpt lat="47.30345" lon="-1.38616">
        <ele>127</ele>
        <time>2020-12-20T11:07:12.006000+00:00</time>
      </trkpt>
      <trkpt lat="0" lon="0">
        <time>2020-12-20T11:07:12.012000+00:00</time>
      </trkpt>
      <trkpt lat="0" lon="0">
        <time>2020-12-20T11:07:12.024000+00:00</time>
      </trkpt>
      <trkpt lat="0" lon="0">
        <time>2020-12-20T11:07:12.030000+00:00</time>
      </trkpt>
      <trkpt lat="47.30341" lon="-1.38618">
        <ele>128</ele>
        <time>2020-12-20T11:07:13.038000+00:00</time>
      </trkpt>
      <trkpt lat="0" lon="0">
        <time>2020-12-20T11:07:13.044000+00:00</time>
      </trkpt>
      <trkpt lat="0" lon="0">
        <time>2020-12-20T11:07:13.054000+00:00</time>
      </trkpt>
      <trkpt lat="0" lon="0">
        <time>2020-12-20T11:07:13.057000+00:00</time>
      </trkpt>
      <trkpt lat="47.30337" lon="-1.38622">
        <ele>128</ele>
        <time>2020-12-20T11:07:14.034000+00:00</time>
      </trkpt>
      <trkpt lat="0" lon="0">
        <time>2020-12-20T11:07:14.050000+00:00</time>
      </trkpt>
      <trkpt lat="0" lon="0">
        <time>2020-12-20T11:07:14.054000+00:00</time>
      </trkpt>
      <trkpt lat="0" lon="0">
        <time>2020-12-20T11:07:14.057000+00:00</time>
      </trkpt>
      <trkpt lat="47.30333" lon="-1.38625">
        <ele>128</ele>
        <time>2020-12-20T11:07:14.967000+00:00</time>
      </trkpt>
      <trkpt lat="0" lon="0">
        <time>2020-12-20T11:07:14.979000+00:00</time>
      </trkpt>
      <trkpt lat="0" lon="0">
        <time>2020-12-20T11:07:14.995000+00:00</time>
      </trkpt>
      <trkpt lat="0" lon="0">
        <time>2020-12-20T11:07:15+00:00</time>
      </trkpt>
      <trkpt lat="47.30328" lon="-1.38629">
        <ele>129</ele>
        <time>2020-12-20T11:07:15.986000+00:00</time>
      </trkpt>
      <trkpt lat="0" lon="0">
        <time>2020-12-20T11:07:16.008000+00:00</time>
      </trkpt>
      <trkpt lat="0" lon="0">
        <time>2020-12-20T11:07:16.013000+00:00</time>
      </trkpt>
      <trkpt lat="0" lon="0">
        <time>2020-12-20T11:07:16.016000+00:00</time>
      </trkpt>
      <trkpt lat="47.30324" lon="-1.38634">
        <ele>129</ele>
        <time>2020-12-20T11:07:16.988000+00:00</time>
      </trkpt>
      <trkpt lat="0" lon="0">
        <time>2020-12-20T11:07:16.991000+00:00</time>
      </trkpt>
      <trkpt lat="0" lon="0">
        <time>2020-12-20T11:07:16.993000+00:00</time>
      </trkpt>
      <trkpt lat="0" lon="0">
        <time>2020-12-20T11:07:16.994000+00:00</time>
      </trkpt>
      <trkpt lat="47.30319" lon="-1.38638">
        <ele>129</ele>
        <time>2020-12-20T11:07:17.980000+00:00</time>
      </trkpt>
      <trkpt lat="0" lon="0">
        <time>2020-12-20T11:07:17.990000+00:00</time>
      </trkpt>
      <trkpt lat="0" lon="0">
        <time>2020-12-20T11:07:17.996000+00:00</time>
      </trkpt>
      <trkpt lat="0" lon="0">
        <time>2020-12-20T11:07:18.003000+00:00</time>
      </trkpt>
      <trkpt lat="47.30314" lon="-1.38643">
        <ele>129</ele>
        <time>2020-12-20T11:07:18.995000+00:00</time>
      </trkpt>
      <trkpt lat="0" lon="0">
        <time>2020-12-20T11:07:19.004000+00:00</time>
      </trkpt>
      <trkpt lat="0" lon="0">
        <time>2020-12-20T11:07:19.008000+00:00</time>
      </trkpt>
      <trkpt lat="0" lon="0">
        <time>2020-12-20T11:07:19.011000+00:00</time>
      </trkpt>
      <trkpt lat="47.30309" lon="-1.38649">
        <ele>129</ele>
        <time>2020-12-20T11:07:20.004000+00:00</time>
      </trkpt>
      <trkpt lat="0" lon="0">
        <time>2020-12-20T11:07:20.012000+00:00</time>
      </trkpt>
      <trkpt lat="0" lon="0">
        <time>2020-12-20T11:07:20.029000+00:00</time>
      </trkpt>
      <trkpt lat="0" lon="0">
        <time>2020-12-20T11:07:20.031000+00:00</time>
      </trkpt>
      <trkpt lat="47.30305" lon="-1.38655">
        <ele>130</ele>
        <time>2020-12-20T11:07:20.901000+00:00</time>
      </trkpt>
      <trkpt lat="0" lon="0">
        <time>2020-12-20T11:07:20.908000+00:00</time>
      </trkpt>
      <trkpt lat="0" lon="0">
        <time>2020-12-20T11:07:20.909000+00:00</time>
      </trkpt>
      <trkpt lat="47.303" lon="-1.38661">
        <ele>130</ele>
        <time>2020-12-20T11:07:21.980000+00:00</time>
      </trkpt>
      <trkpt lat="0" lon="0">
        <time>2020-12-20T11:07:21.988000+00:00</time>
      </trkpt>
      <trkpt lat="0" lon="0">
        <time>2020-12-20T11:07:21.991000+00:00</time>
      </trkpt>
      <trkpt lat="0" lon="0">
        <time>2020-12-20T11:07:21.993000+00:00</time>
      </trkpt>
      <trkpt lat="47.30295" lon="-1.38667">
        <ele>129</ele>
        <time>2020-12-20T11:07:23.009000+00:00</time>
      </trkpt>
      <trkpt lat="0" lon="0">
        <time>2020-12-20T11:07:23.022000+00:00</time>
      </trkpt>
      <trkpt lat="0" lon="0">
        <time>2020-12-20T11:07:23.030000+00:00</time>
      </trkpt>
      <trkpt lat="0" lon="0">
        <time>2020-12-20T11:07:23.032000+00:00</time>
      </trkpt>
      <trkpt lat="47.3029" lon="-1.38673">
        <ele>130</ele>
        <time>2020-12-20T11:07:23.989000+00:00</time>
      </trkpt>
      <trkpt lat="0" lon="0">
        <time>2020-12-20T11:07:23.997000+00:00</time>
      </trkpt>
      <trkpt lat="0" lon="0">
        <time>2020-12-20T11:07:24.007000+00:00</time>
      </trkpt>
      <trkpt lat="0" lon="0">
        <time>2020-12-20T11:07:24.011000+00:00</time>
      </trkpt>
      <trkpt lat="47.30285" lon="-1.3868">
        <ele>129</ele>
        <time>2020-12-20T11:07:24.988000+00:00</time>
      </trkpt>
      <trkpt lat="0" lon="0">
        <time>2020-12-20T11:07:24.995000+00:00</time>
      </trkpt>
      <trkpt lat="0" lon="0">
        <time>2020-12-20T11:07:25.006000+00:00</time>
      </trkpt>
      <trkpt lat="0" lon="0">
        <time>2020-12-20T11:07:25.012000+00:00</time>
      </trkpt>
      <trkpt lat="47.30279" lon="-1.38687">
        <ele>129</ele>
        <time>2020-12-20T11:07:25.967000+00:00</time>
      </trkpt>
      <trkpt lat="0" lon="0">
        <time>2020-12-20T11:07:25.972000+00:00</time>
      </trkpt>
      <trkpt lat="0" lon="0">
        <time>2020-12-20T11:07:25.977000+00:00</time>
      </trkpt>
      <trkpt lat="0" lon="0">
        <time>2020-12-20T11:07:25.978000+00:00</time>
      </trkpt>
      <trkpt lat="47.30274" lon="-1.38694">
        <ele>129</ele>
        <time>2020-12-20T11:07:26.987000+00:00</time>
      </trkpt>
      <trkpt lat="0" lon="0">
        <time>2020-12-20T11:07:26.992000+00:00</time>
      </trkpt>
      <trkpt lat="0" lon="0">
        <time>2020-12-20T11:07:26.998000+00:00</time>
      </trkpt>
      <trkpt lat="0" lon="0">
        <time>2020-12-20T11:07:27.002000+00:00</time>
      </trkpt>
      <trkpt lat="47.30268" lon="-1.38702">
        <ele>129</ele>
        <time>2020-12-20T11:07:27.983000+00:00</time>
      </trkpt>
      <trkpt lat="0" lon="0">
        <time>2020-12-20T11:07:28.004000+00:00</time>
      </trkpt>
      <trkpt lat="0" lon="0">
        <time>2020-12-20T11:07:28.010000+00:00</time>
      </trkpt>
      <trkpt lat="0" lon="0">
        <time>2020-12-20T11:07:28.016000+00:00</time>
      </trkpt>
      <trkpt lat="47.30263" lon="-1.38709">
        <ele>129</ele>
        <time>2020-12-20T11:07:28.982000+00:00</time>
      </trkpt>
      <trkpt lat="0" lon="0">
        <time>2020-12-20T11:07:28.988000+00:00</time>
      </trkpt>
      <trkpt lat="0" lon="0">
        <time>2020-12-20T11:07:28.995000+00:00</time>
      </trkpt>
      <trkpt lat="0" lon="0">
        <time>2020-12-20T11:07:28.998000+00:00</time>
      </trkpt>
      <trkpt lat="47.30257" lon="-1.38716">
        <ele>129</ele>
        <time>2020-12-20T11:07:30.041000+00:00</time>
      </trkpt>
      <trkpt lat="0" lon="0">
        <time>2020-12-20T11:07:30.059000+00:00</time>
      </trkpt>
      <trkpt lat="0" lon="0">
        <time>2020-12-20T11:07:30.068000+00:00</time>
      </trkpt>
      <trkpt lat="0" lon="0">
        <time>2020-12-20T11:07:30.071000+00:00</time>
      </trkpt>
      <trkpt lat="47.30252" lon="-1.38723">
        <ele>129</ele>
        <time>2020-12-20T11:07:31+00:00</time>
      </trkpt>
      <trkpt lat="0" lon="0">
        <time>2020-12-20T11:07:31.017000+00:00</time>
      </trkpt>
      <trkpt lat="0" lon="0">
        <time>2020-12-20T11:07:31.021000+00:00</time>
      </trkpt>
      <trkpt lat="0" lon="0">
        <time>2020-12-20T11:07:31.024000+00:00</time>
      </trkpt>
      <trkpt lat="47.30246" lon="-1.3873">
        <ele>129</ele>
        <time>2020-12-20T11:07:31.983000+00:00</time>
      </trkpt>
      <trkpt lat="0" lon="0">
        <time>2020-12-20T11:07:31.998000+00:00</time>
      </trkpt>
      <trkpt lat="0" lon="0">
        <time>2020-12-20T11:07:32.002000+00:00</time>
      </trkpt>
      <trkpt lat="0" lon="0">
        <time>2020-12-20T11:07:32.004000+00:00</time>
      </trkpt>
      <trkpt lat="47.30241" lon="-1.38737">
        <ele>129</ele>
        <time>2020-12-20T11:07:32.983000+00:00</time>
      </trkpt>
      <trkpt lat="0" lon="0">
        <time>2020-12-20T11:07:32.985000+00:00</time>
      </trkpt>
      <trkpt lat="0" lon="0">
        <time>2020-12-20T11:07:32.988000+00:00</time>
      </trkpt>
      <trkpt lat="0" lon="0">
        <time>2020-12-20T11:07:32.989000+00:00</time>
      </trkpt>
      <trkpt lat="47.30236" lon="-1.38743">
        <ele>130</ele>
        <time>2020-12-20T11:07:34.009000+00:00</time>
      </trkpt>
      <trkpt lat="0" lon="0">
        <time>2020-12-20T11:07:34.018000+00:00</time>
      </trkpt>
      <trkpt lat="0" lon="0">
        <time>2020-12-20T11:07:34.020000+00:00</time>
      </trkpt>
      <trkpt lat="0" lon="0">
        <time>2020-12-20T11:07:34.021000+00:00</time>
      </trkpt>
      <trkpt lat="47.30232" lon="-1.3875">
        <ele>130</ele>
        <time>2020-12-20T11:07:34.979000+00:00</time>
      </trkpt>
      <trkpt lat="0" lon="0">
        <time>2020-12-20T11:07:34.986000+00:00</time>
      </trkpt>
      <trkpt lat="0" lon="0">
        <time>2020-12-20T11:07:34.996000+00:00</time>
      </trkpt>
      <trkpt lat="0" lon="0">
        <time>2020-12-20T11:07:34.998000+00:00</time>
      </trkpt>
      <trkpt lat="47.30229" lon="-1.38755">
        <ele>130</ele>
        <time>2020-12-20T11:07:36.024000+00:00</time>
      </trkpt>
      <trkpt lat="0" lon="0">
        <time>2020-12-20T11:07:36.034000+00:00</time>
      </trkpt>
      <trkpt lat="0" lon="0">
        <time>2020-12-20T11:07:36.039000+00:00</time>
      </trkpt>
      <trkpt lat="0" lon="0">
        <time>2020-12-20T11:07:36.044000+00:00</time>
      </trkpt>
      <trkpt lat="47.30226" lon="-1.38761">
        <ele>130</ele>
        <time>2020-12-20T11:07:37.014000+00:00</time>
      </trkpt>
      <trkpt lat="0" lon="0">
        <time>2020-12-20T11:07:37.021000+00:00</time>
      </trkpt>
      <trkpt lat="0" lon="0">
        <time>2020-12-20T11:07:37.025000+00:00</time>
      </trkpt>
      <trkpt lat="0" lon="0">
        <time>2020-12-20T11:07:37.032000+00:00</time>
      </trkpt>
      <trkpt lat="47.30223" lon="-1.38765">
        <ele>130</ele>
        <time>2020-12-20T11:07:37.963000+00:00</time>
      </trkpt>
      <trkpt lat="0" lon="0">
        <time>2020-12-20T11:07:37.982000+00:00</time>
      </trkpt>
      <trkpt lat="0" lon="0">
        <time>2020-12-20T11:07:37.990000+00:00</time>
      </trkpt>
      <trkpt lat="0" lon="0">
        <time>2020-12-20T11:07:37.993000+00:00</time>
      </trkpt>
      <trkpt lat="47.3022" lon="-1.3877">
        <ele>131</ele>
        <time>2020-12-20T11:07:39.035000+00:00</time>
      </trkpt>
      <trkpt lat="0" lon="0">
        <time>2020-12-20T11:07:39.047000+00:00</time>
      </trkpt>
      <trkpt lat="0" lon="0">
        <time>2020-12-20T11:07:39.048000+00:00</time>
      </trkpt>
      <trkpt lat="0" lon="0">
        <time>2020-12-20T11:07:39.049000+00:00</time>
      </trkpt>
      <trkpt lat="47.30216" lon="-1.38775">
        <ele>132</ele>
        <time>2020-12-20T11:07:39.982000+00:00</time>
      </trkpt>
      <trkpt lat="0" lon="0">
        <time>2020-12-20T11:07:39.991000+00:00</time>
      </trkpt>
      <trkpt lat="0" lon="0">
        <time>2020-12-20T11:07:39.999000+00:00</time>
      </trkpt>
      <trkpt lat="0" lon="0">
        <time>2020-12-20T11:07:40.002000+00:00</time>
      </trkpt>
      <trkpt lat="47.30213" lon="-1.3878">
        <ele>131</ele>
        <time>2020-12-20T11:07:41.004000+00:00</time>
      </trkpt>
      <trkpt lat="0" lon="0">
        <time>2020-12-20T11:07:41.020000+00:00</time>
      </trkpt>
      <trkpt lat="0" lon="0">
        <time>2020-12-20T11:07:41.028000+00:00</time>
      </trkpt>
      <trkpt lat="0" lon="0">
        <time>2020-12-20T11:07:41.032000+00:00</time>
      </trkpt>
      <trkpt lat="47.30209" lon="-1.38785">
        <ele>131</ele>
        <time>2020-12-20T11:07:41.996000+00:00</time>
      </trkpt>
      <trkpt lat="0" lon="0">
        <time>2020-12-20T11:07:42.002000+00:00</time>
      </trkpt>
      <trkpt lat="0" lon="0">
        <time>2020-12-20T11:07:42.007000+00:00</time>
      </trkpt>
      <trkpt lat="0" lon="0">
        <time>2020-12-20T11:07:42.009000+00:00</time>
      </trkpt>
      <trkpt lat="47.30205" lon="-1.38789">
        <ele>131</ele>
        <time>2020-12-20T11:07:43.041000+00:00</time>
      </trkpt>
      <trkpt lat="0" lon="0">
        <time>2020-12-20T11:07:43.059000+00:00</time>
      </trkpt>
      <trkpt lat="0" lon="0">
        <time>2020-12-20T11:07:43.067000+00:00</time>
      </trkpt>
      <trkpt lat="0" lon="0">
        <time>2020-12-20T11:07:43.070000+00:00</time>
      </trkpt>
      <trkpt lat="47.302" lon="-1.38794">
        <ele>131</ele>
        <time>2020-12-20T11:07:44.021000+00:00</time>
      </trkpt>
      <trkpt lat="0" lon="0">
        <time>2020-12-20T11:07:44.031000+00:00</time>
      </trkpt>
      <trkpt lat="0" lon="0">
        <time>2020-12-20T11:07:44.036000+00:00</time>
      </trkpt>
      <trkpt lat="0" lon="0">
        <time>2020-12-20T11:07:44.038000+00:00</time>
      </trkpt>
      <trkpt lat="47.30196" lon="-1.38799">
        <ele>131</ele>
        <time>2020-12-20T11:07:44.974000+00:00</time>
      </trkpt>
      <trkpt lat="0" lon="0">
        <time>2020-12-20T11:07:44.984000+00:00</time>
      </trkpt>
      <trkpt lat="0" lon="0">
        <time>2020-12-20T11:07:44.995000+00:00</time>
      </trkpt>
      <trkpt lat="0" lon="0">
        <time>2020-12-20T11:07:44.997000+00:00</time>
      </trkpt>
      <trkpt lat="47.30191" lon="-1.38804">
        <ele>131</ele>
        <time>2020-12-20T11:07:46.026000+00:00</time>
      </trkpt>
      <trkpt lat="0" lon="0">
        <time>2020-12-20T11:07:46.043000+00:00</time>
      </trkpt>
      <trkpt lat="0" lon="0">
        <time>2020-12-20T11:07:46.057000+00:00</time>
      </trkpt>
      <trkpt lat="0" lon="0">
        <time>2020-12-20T11:07:46.065000+00:00</time>
      </trkpt>
      <trkpt lat="47.30187" lon="-1.38809">
        <ele>131</ele>
        <time>2020-12-20T11:07:47.045000+00:00</time>
      </trkpt>
      <trkpt lat="0" lon="0">
        <time>2020-12-20T11:07:47.061000+00:00</time>
      </trkpt>
      <trkpt lat="0" lon="0">
        <time>2020-12-20T11:07:47.067000+00:00</time>
      </trkpt>
      <trkpt lat="0" lon="0">
        <time>2020-12-20T11:07:47.069000+00:00</time>
      </trkpt>
      <trkpt lat="47.30182" lon="-1.38814">
        <ele>131</ele>
        <time>2020-12-20T11:07:47.992000+00:00</time>
      </trkpt>
      <trkpt lat="0" lon="0">
        <time>2020-12-20T11:07:48.001000+00:00</time>
      </trkpt>
      <trkpt lat="0" lon="0">
        <time>2020-12-20T11:07:48.010000+00:00</time>
      </trkpt>
      <trkpt lat="0" lon="0">
        <time>2020-12-20T11:07:48.019000+00:00</time>
      </trkpt>
      <trkpt lat="47.30178" lon="-1.38819">
        <ele>131</ele>
        <time>2020-12-20T11:07:48.880000+00:00</time>
      </trkpt>
      <trkpt lat="0" lon="0">
        <time>2020-12-20T11:07:48.882000+00:00</time>
      </trkpt>
      <trkpt lat="0" lon="0">
        <time>2020-12-20T11:07:48.884000+00:00</time>
      </trkpt>
      <trkpt lat="0" lon="0">
        <time>2020-12-20T11:07:48.887000+00:00</time>
      </trkpt>
      <trkpt lat="47.30174" lon="-1.38824">
        <ele>131</ele>
        <time>2020-12-20T11:07:49.984000+00:00</time>
      </trkpt>
      <trkpt lat="0" lon="0">
        <time>2020-12-20T11:07:49.987000+00:00</time>
      </trkpt>
      <trkpt lat="0" lon="0">
        <time>2020-12-20T11:07:49.989000+00:00</time>
      </trkpt>
      <trkpt lat="0" lon="0">
        <time>2020-12-20T11:07:49.990000+00:00</time>
      </trkpt>
      <trkpt lat="47.3017" lon="-1.38829">
        <ele>130</ele>
        <time>2020-12-20T11:07:50.984000+00:00</time>
      </trkpt>
      <trkpt lat="0" lon="0">
        <time>2020-12-20T11:07:51.001000+00:00</time>
      </trkpt>
      <trkpt lat="0" lon="0">
        <time>2020-12-20T11:07:51.005000+00:00</time>
      </trkpt>
      <trkpt lat="0" lon="0">
        <time>2020-12-20T11:07:51.008000+00:00</time>
      </trkpt>
      <trkpt lat="47.30167" lon="-1.38834">
        <ele>130</ele>
        <time>2020-12-20T11:07:51.935000+00:00</time>
      </trkpt>
      <trkpt lat="0" lon="0">
        <time>2020-12-20T11:07:51.946000+00:00</time>
      </trkpt>
      <trkpt lat="0" lon="0">
        <time>2020-12-20T11:07:51.956000+00:00</time>
      </trkpt>
      <trkpt lat="0" lon="0">
        <time>2020-12-20T11:07:51.958000+00:00</time>
      </trkpt>
      <trkpt lat="47.30165" lon="-1.3884">
        <ele>130</ele>
        <time>2020-12-20T11:07:53.036000+00:00</time>
      </trkpt>
      <trkpt lat="0" lon="0">
        <time>2020-12-20T11:07:53.046000+00:00</time>
      </trkpt>
      <trkpt lat="0" lon="0">
        <time>2020-12-20T11:07:53.052000+00:00</time>
      </trkpt>
      <trkpt lat="0" lon="0">
        <time>2020-12-20T11:07:53.056000+00:00</time>
      </trkpt>
      <trkpt lat="47.30163" lon="-1.38845">
        <ele>130</ele>
        <time>2020-12-20T11:07:54.014000+00:00</time>
      </trkpt>
      <trkpt lat="0" lon="0">
        <time>2020-12-20T11:07:54.033000+00:00</time>
      </trkpt>
      <trkpt lat="0" lon="0">
        <time>2020-12-20T11:07:54.040000+00:00</time>
      </trkpt>
      <trkpt lat="0" lon="0">
        <time>2020-12-20T11:07:54.042000+00:00</time>
      </trkpt>
      <trkpt lat="47.30161" lon="-1.3885">
        <ele>130</ele>
        <time>2020-12-20T11:07:54.992000+00:00</time>
      </trkpt>
      <trkpt lat="0" lon="0">
        <time>2020-12-20T11:07:54.998000+00:00</time>
      </trkpt>
      <trkpt lat="0" lon="0">
        <time>2020-12-20T11:07:55.002000+00:00</time>
      </trkpt>
      <trkpt lat="0" lon="0">
        <time>2020-12-20T11:07:55.005000+00:00</time>
      </trkpt>
      <trkpt lat="47.30159" lon="-1.38854">
        <ele>130</ele>
        <time>2020-12-20T11:07:55.974000+00:00</time>
      </trkpt>
      <trkpt lat="0" lon="0">
        <time>2020-12-20T11:07:55.996000+00:00</time>
      </trkpt>
      <trkpt lat="0" lon="0">
        <time>2020-12-20T11:07:56.001000+00:00</time>
      </trkpt>
      <trkpt lat="0" lon="0">
        <time>2020-12-20T11:07:56.002000+00:00</time>
      </trkpt>
      <trkpt lat="47.30157" lon="-1.38858">
        <ele>131</ele>
        <time>2020-12-20T11:07:56.944000+00:00</time>
      </trkpt>
      <trkpt lat="0" lon="0">
        <time>2020-12-20T11:07:56.949000+00:00</time>
      </trkpt>
      <trkpt lat="0" lon="0">
        <time>2020-12-20T11:07:56.954000+00:00</time>
      </trkpt>
      <trkpt lat="0" lon="0">
        <time>2020-12-20T11:07:56.957000+00:00</time>
      </trkpt>
      <trkpt lat="47.30155" lon="-1.38862">
        <ele>131</ele>
        <time>2020-12-20T11:07:57.982000+00:00</time>
      </trkpt>
      <trkpt lat="0" lon="0">
        <time>2020-12-20T11:07:57.992000+00:00</time>
      </trkpt>
      <trkpt lat="0" lon="0">
        <time>2020-12-20T11:07:58.003000+00:00</time>
      </trkpt>
      <trkpt lat="0" lon="0">
        <time>2020-12-20T11:07:58.005000+00:00</time>
      </trkpt>
      <trkpt lat="47.30153" lon="-1.38865">
        <ele>130</ele>
        <time>2020-12-20T11:07:58.978000+00:00</time>
      </trkpt>
      <trkpt lat="0" lon="0">
        <time>2020-12-20T11:07:58.988000+00:00</time>
      </trkpt>
      <trkpt lat="0" lon="0">
        <time>2020-12-20T11:07:58.996000+00:00</time>
      </trkpt>
      <trkpt lat="0" lon="0">
        <time>2020-12-20T11:07:59+00:00</time>
      </trkpt>
      <trkpt lat="47.30152" lon="-1.38868">
        <ele>130</ele>
        <time>2020-12-20T11:07:59.977000+00:00</time>
      </trkpt>
      <trkpt lat="0" lon="0">
        <time>2020-12-20T11:07:59.984000+00:00</time>
      </trkpt>
      <trkpt lat="0" lon="0">
        <time>2020-12-20T11:07:59.989000+00:00</time>
      </trkpt>
      <trkpt lat="0" lon="0">
        <time>2020-12-20T11:07:59.992000+00:00</time>
      </trkpt>
      <trkpt lat="47.30152" lon="-1.38871">
        <ele>131</ele>
        <time>2020-12-20T11:08:00.969000+00:00</time>
      </trkpt>
      <trkpt lat="0" lon="0">
        <time>2020-12-20T11:08:00.986000+00:00</time>
      </trkpt>
      <trkpt lat="0" lon="0">
        <time>2020-12-20T11:08:00.994000+00:00</time>
      </trkpt>
      <trkpt lat="0" lon="0">
        <time>2020-12-20T11:08:00.997000+00:00</time>
      </trkpt>
      <trkpt lat="47.30152" lon="-1.38875">
        <ele>132</ele>
        <time>2020-12-20T11:08:01.938000+00:00</time>
      </trkpt>
      <trkpt lat="0" lon="0">
        <time>2020-12-20T11:08:01.940000+00:00</time>
      </trkpt>
      <trkpt lat="0" lon="0">
        <time>2020-12-20T11:08:01.943000+00:00</time>
      </trkpt>
      <trkpt lat="0" lon="0">
        <time>2020-12-20T11:08:01.945000+00:00</time>
      </trkpt>
      <trkpt lat="47.30153" lon="-1.38878">
        <ele>132</ele>
        <time>2020-12-20T11:08:02.948000+00:00</time>
      </trkpt>
      <trkpt lat="0" lon="0">
        <time>2020-12-20T11:08:02.952000+00:00</time>
      </trkpt>
      <trkpt lat="0" lon="0">
        <time>2020-12-20T11:08:02.956000+00:00</time>
      </trkpt>
      <trkpt lat="0" lon="0">
        <time>2020-12-20T11:08:02.959000+00:00</time>
      </trkpt>
      <trkpt lat="47.30154" lon="-1.38882">
        <ele>132</ele>
        <time>2020-12-20T11:08:04.010000+00:00</time>
      </trkpt>
      <trkpt lat="0" lon="0">
        <time>2020-12-20T11:08:04.018000+00:00</time>
      </trkpt>
      <trkpt lat="0" lon="0">
        <time>2020-12-20T11:08:04.027000+00:00</time>
      </trkpt>
      <trkpt lat="0" lon="0">
        <time>2020-12-20T11:08:04.031000+00:00</time>
      </trkpt>
      <trkpt lat="47.30156" lon="-1.38886">
        <ele>132</ele>
        <time>2020-12-20T11:08:04.978000+00:00</time>
      </trkpt>
      <trkpt lat="0" lon="0">
        <time>2020-12-20T11:08:04.984000+00:00</time>
      </trkpt>
      <trkpt lat="0" lon="0">
        <time>2020-12-20T11:08:04.991000+00:00</time>
      </trkpt>
      <trkpt lat="0" lon="0">
        <time>2020-12-20T11:08:04.993000+00:00</time>
      </trkpt>
      <trkpt lat="47.30157" lon="-1.38891">
        <ele>132</ele>
        <time>2020-12-20T11:08:05.956000+00:00</time>
      </trkpt>
      <trkpt lat="0" lon="0">
        <time>2020-12-20T11:08:05.963000+00:00</time>
      </trkpt>
      <trkpt lat="0" lon="0">
        <time>2020-12-20T11:08:05.968000+00:00</time>
      </trkpt>
      <trkpt lat="0" lon="0">
        <time>2020-12-20T11:08:05.970000+00:00</time>
      </trkpt>
      <trkpt lat="47.30158" lon="-1.38897">
        <ele>132</ele>
        <time>2020-12-20T11:08:06.937000+00:00</time>
      </trkpt>
      <trkpt lat="0" lon="0">
        <time>2020-12-20T11:08:06.948000+00:00</time>
      </trkpt>
      <trkpt lat="0" lon="0">
        <time>2020-12-20T11:08:06.950000+00:00</time>
      </trkpt>
      <trkpt lat="0" lon="0">
        <time>2020-12-20T11:08:06.951000+00:00</time>
      </trkpt>
      <trkpt lat="47.30159" lon="-1.38903">
        <ele>131</ele>
        <time>2020-12-20T11:08:07.950000+00:00</time>
      </trkpt>
      <trkpt lat="0" lon="0">
        <time>2020-12-20T11:08:07.961000+00:00</time>
      </trkpt>
      <trkpt lat="0" lon="0">
        <time>2020-12-20T11:08:07.965000+00:00</time>
      </trkpt>
      <trkpt lat="0" lon="0">
        <time>2020-12-20T11:08:07.969000+00:00</time>
      </trkpt>
      <trkpt lat="47.30158" lon="-1.3891">
        <ele>131</ele>
        <time>2020-12-20T11:08:08.927000+00:00</time>
      </trkpt>
      <trkpt lat="0" lon="0">
        <time>2020-12-20T11:08:08.934000+00:00</time>
      </trkpt>
      <trkpt lat="0" lon="0">
        <time>2020-12-20T11:08:08.938000+00:00</time>
      </trkpt>
      <trkpt lat="0" lon="0">
        <time>2020-12-20T11:08:08.940000+00:00</time>
      </trkpt>
      <trkpt lat="47.30157" lon="-1.38918">
        <ele>131</ele>
        <time>2020-12-20T11:08:10.029000+00:00</time>
      </trkpt>
      <trkpt lat="0" lon="0">
        <time>2020-12-20T11:08:10.043000+00:00</time>
      </trkpt>
      <trkpt lat="0" lon="0">
        <time>2020-12-20T11:08:10.055000+00:00</time>
      </trkpt>
      <trkpt lat="0" lon="0">
        <time>2020-12-20T11:08:10.064000+00:00</time>
      </trkpt>
      <trkpt lat="47.30156" lon="-1.38926">
        <ele>132</ele>
        <time>2020-12-20T11:08:11.010000+00:00</time>
      </trkpt>
      <trkpt lat="0" lon="0">
        <time>2020-12-20T11:08:11.029000+00:00</time>
      </trkpt>
      <trkpt lat="0" lon="0">
        <time>2020-12-20T11:08:11.034000+00:00</time>
      </trkpt>
      <trkpt lat="0" lon="0">
        <time>2020-12-20T11:08:11.036000+00:00</time>
      </trkpt>
      <trkpt lat="47.30154" lon="-1.38934">
        <ele>132</ele>
        <time>2020-12-20T11:08:12+00:00</time>
      </trkpt>
      <trkpt lat="0" lon="0">
        <time>2020-12-20T11:08:12.012000+00:00</time>
      </trkpt>
      <trkpt lat="0" lon="0">
        <time>2020-12-20T11:08:12.017000+00:00</time>
      </trkpt>
      <trkpt lat="0" lon="0">
        <time>2020-12-20T11:08:12.024000+00:00</time>
      </trkpt>
      <trkpt lat="47.30151" lon="-1.38943">
        <ele>133</ele>
        <time>2020-12-20T11:08:13.026000+00:00</time>
      </trkpt>
      <trkpt lat="0" lon="0">
        <time>2020-12-20T11:08:13.032000+00:00</time>
      </trkpt>
      <trkpt lat="0" lon="0">
        <time>2020-12-20T11:08:13.042000+00:00</time>
      </trkpt>
      <trkpt lat="0" lon="0">
        <time>2020-12-20T11:08:13.044000+00:00</time>
      </trkpt>
      <trkpt lat="47.30147" lon="-1.38951">
        <ele>133</ele>
        <time>2020-12-20T11:08:14.009000+00:00</time>
      </trkpt>
      <trkpt lat="0" lon="0">
        <time>2020-12-20T11:08:14.034000+00:00</time>
      </trkpt>
      <trkpt lat="0" lon="0">
        <time>2020-12-20T11:08:14.039000+00:00</time>
      </trkpt>
      <trkpt lat="0" lon="0">
        <time>2020-12-20T11:08:14.044000+00:00</time>
      </trkpt>
      <trkpt lat="47.30143" lon="-1.38958">
        <ele>132</ele>
        <time>2020-12-20T11:08:15.006000+00:00</time>
      </trkpt>
      <trkpt lat="0" lon="0">
        <time>2020-12-20T11:08:15.017000+00:00</time>
      </trkpt>
      <trkpt lat="0" lon="0">
        <time>2020-12-20T11:08:15.026000+00:00</time>
      </trkpt>
      <trkpt lat="0" lon="0">
        <time>2020-12-20T11:08:15.028000+00:00</time>
      </trkpt>
      <trkpt lat="47.30138" lon="-1.38966">
        <ele>132</ele>
        <time>2020-12-20T11:08:15.976000+00:00</time>
      </trkpt>
      <trkpt lat="0" lon="0">
        <time>2020-12-20T11:08:15.984000+00:00</time>
      </trkpt>
      <trkpt lat="0" lon="0">
        <time>2020-12-20T11:08:15.989000+00:00</time>
      </trkpt>
      <trkpt lat="0" lon="0">
        <time>2020-12-20T11:08:15.993000+00:00</time>
      </trkpt>
      <trkpt lat="47.30134" lon="-1.38973">
        <ele>132</ele>
        <time>2020-12-20T11:08:16.997000+00:00</time>
      </trkpt>
      <trkpt lat="0" lon="0">
        <time>2020-12-20T11:08:17.002000+00:00</time>
      </trkpt>
      <trkpt lat="0" lon="0">
        <time>2020-12-20T11:08:17.008000+00:00</time>
      </trkpt>
      <trkpt lat="0" lon="0">
        <time>2020-12-20T11:08:17.009000+00:00</time>
      </trkpt>
      <trkpt lat="47.30128" lon="-1.3898">
        <ele>132</ele>
        <time>2020-12-20T11:08:18.028000+00:00</time>
      </trkpt>
      <trkpt lat="0" lon="0">
        <time>2020-12-20T11:08:18.038000+00:00</time>
      </trkpt>
      <trkpt lat="0" lon="0">
        <time>2020-12-20T11:08:18.044000+00:00</time>
      </trkpt>
      <trkpt lat="0" lon="0">
        <time>2020-12-20T11:08:18.047000+00:00</time>
      </trkpt>
      <trkpt lat="47.30123" lon="-1.38987">
        <ele>132</ele>
        <time>2020-12-20T11:08:19.028000+00:00</time>
      </trkpt>
      <trkpt lat="0" lon="0">
        <time>2020-12-20T11:08:19.039000+00:00</time>
      </trkpt>
      <trkpt lat="0" lon="0">
        <time>2020-12-20T11:08:19.046000+00:00</time>
      </trkpt>
      <trkpt lat="0" lon="0">
        <time>2020-12-20T11:08:19.053000+00:00</time>
      </trkpt>
      <trkpt lat="47.30117" lon="-1.38993">
        <ele>131</ele>
        <time>2020-12-20T11:08:19.952000+00:00</time>
      </trkpt>
      <trkpt lat="0" lon="0">
        <time>2020-12-20T11:08:19.958000+00:00</time>
      </trkpt>
      <trkpt lat="0" lon="0">
        <time>2020-12-20T11:08:19.962000+00:00</time>
      </trkpt>
      <trkpt lat="0" lon="0">
        <time>2020-12-20T11:08:19.964000+00:00</time>
      </trkpt>
      <trkpt lat="47.30112" lon="-1.39">
        <ele>131</ele>
        <time>2020-12-20T11:08:20.995000+00:00</time>
      </trkpt>
      <trkpt lat="0" lon="0">
        <time>2020-12-20T11:08:21.008000+00:00</time>
      </trkpt>
      <trkpt lat="0" lon="0">
        <time>2020-12-20T11:08:21.013000+00:00</time>
      </trkpt>
      <trkpt lat="0" lon="0">
        <time>2020-12-20T11:08:21.016000+00:00</time>
      </trkpt>
      <trkpt lat="47.30106" lon="-1.39006">
        <ele>131</ele>
        <time>2020-12-20T11:08:21.981000+00:00</time>
      </trkpt>
      <trkpt lat="0" lon="0">
        <time>2020-12-20T11:08:21.990000+00:00</time>
      </trkpt>
      <trkpt lat="0" lon="0">
        <time>2020-12-20T11:08:22.003000+00:00</time>
      </trkpt>
      <trkpt lat="0" lon="0">
        <time>2020-12-20T11:08:22.004000+00:00</time>
      </trkpt>
      <trkpt lat="47.301" lon="-1.39012">
        <ele>131</ele>
        <time>2020-12-20T11:08:23.043000+00:00</time>
      </trkpt>
      <trkpt lat="0" lon="0">
        <time>2020-12-20T11:08:23.057000+00:00</time>
      </trkpt>
      <trkpt lat="0" lon="0">
        <time>2020-12-20T11:08:23.064000+00:00</time>
      </trkpt>
      <trkpt lat="0" lon="0">
        <time>2020-12-20T11:08:23.072000+00:00</time>
      </trkpt>
      <trkpt lat="47.30094" lon="-1.39017">
        <ele>131</ele>
        <time>2020-12-20T11:08:23.987000+00:00</time>
      </trkpt>
      <trkpt lat="0" lon="0">
        <time>2020-12-20T11:08:24.006000+00:00</time>
      </trkpt>
      <trkpt lat="0" lon="0">
        <time>2020-12-20T11:08:24.014000+00:00</time>
      </trkpt>
      <trkpt lat="0" lon="0">
        <time>2020-12-20T11:08:24.020000+00:00</time>
      </trkpt>
      <trkpt lat="47.30089" lon="-1.39023">
        <ele>130</ele>
        <time>2020-12-20T11:08:25.040000+00:00</time>
      </trkpt>
      <trkpt lat="0" lon="0">
        <time>2020-12-20T11:08:25.045000+00:00</time>
      </trkpt>
      <trkpt lat="0" lon="0">
        <time>2020-12-20T11:08:25.048000+00:00</time>
      </trkpt>
      <trkpt lat="0" lon="0">
        <time>2020-12-20T11:08:25.049000+00:00</time>
      </trkpt>
      <trkpt lat="47.30083" lon="-1.39028">
        <ele>130</ele>
        <time>2020-12-20T11:08:25.989000+00:00</time>
      </trkpt>
      <trkpt lat="0" lon="0">
        <time>2020-12-20T11:08:26+00:00</time>
      </trkpt>
      <trkpt lat="0" lon="0">
        <time>2020-12-20T11:08:26.002000+00:00</time>
      </trkpt>
      <trkpt lat="0" lon="0">
        <time>2020-12-20T11:08:26.004000+00:00</time>
      </trkpt>
      <trkpt lat="47.30078" lon="-1.39032">
        <ele>130</ele>
        <time>2020-12-20T11:08:26.960000+00:00</time>
      </trkpt>
      <trkpt lat="0" lon="0">
        <time>2020-12-20T11:08:26.965000+00:00</time>
      </trkpt>
      <trkpt lat="0" lon="0">
        <time>2020-12-20T11:08:26.969000+00:00</time>
      </trkpt>
      <trkpt lat="0" lon="0">
        <time>2020-12-20T11:08:26.972000+00:00</time>
      </trkpt>
      <trkpt lat="47.30073" lon="-1.39037">
        <ele>130</ele>
        <time>2020-12-20T11:08:28+00:00</time>
      </trkpt>
      <trkpt lat="0" lon="0">
        <time>2020-12-20T11:08:28.010000+00:00</time>
      </trkpt>
      <trkpt lat="0" lon="0">
        <time>2020-12-20T11:08:28.017000+00:00</time>
      </trkpt>
      <trkpt lat="0" lon="0">
        <time>2020-12-20T11:08:28.021000+00:00</time>
      </trkpt>
      <trkpt lat="47.30067" lon="-1.39042">
        <ele>129</ele>
        <time>2020-12-20T11:08:29.027000+00:00</time>
      </trkpt>
      <trkpt lat="0" lon="0">
        <time>2020-12-20T11:08:29.033000+00:00</time>
      </trkpt>
      <trkpt lat="0" lon="0">
        <time>2020-12-20T11:08:29.038000+00:00</time>
      </trkpt>
      <trkpt lat="0" lon="0">
        <time>2020-12-20T11:08:29.041000+00:00</time>
      </trkpt>
      <trkpt lat="47.30061" lon="-1.39046">
        <ele>129</ele>
        <time>2020-12-20T11:08:30.006000+00:00</time>
      </trkpt>
      <trkpt lat="0" lon="0">
        <time>2020-12-20T11:08:30.014000+00:00</time>
      </trkpt>
      <trkpt lat="0" lon="0">
        <time>2020-12-20T11:08:30.018000+00:00</time>
      </trkpt>
      <trkpt lat="0" lon="0">
        <time>2020-12-20T11:08:30.020000+00:00</time>
      </trkpt>
      <trkpt lat="47.30056" lon="-1.39051">
        <ele>129</ele>
        <time>2020-12-20T11:08:31.011000+00:00</time>
      </trkpt>
      <trkpt lat="0" lon="0">
        <time>2020-12-20T11:08:31.023000+00:00</time>
      </trkpt>
      <trkpt lat="0" lon="0">
        <time>2020-12-20T11:08:31.032000+00:00</time>
      </trkpt>
      <trkpt lat="0" lon="0">
        <time>2020-12-20T11:08:31.036000+00:00</time>
      </trkpt>
      <trkpt lat="47.30051" lon="-1.39054">
        <ele>129</ele>
        <time>2020-12-20T11:08:31.994000+00:00</time>
      </trkpt>
      <trkpt lat="0" lon="0">
        <time>2020-12-20T11:08:32.001000+00:00</time>
      </trkpt>
      <trkpt lat="0" lon="0">
        <time>2020-12-20T11:08:32.003000+00:00</time>
      </trkpt>
      <trkpt lat="0" lon="0">
        <time>2020-12-20T11:08:32.005000+00:00</time>
      </trkpt>
      <trkpt lat="47.30047" lon="-1.39058">
        <ele>129</ele>
        <time>2020-12-20T11:08:33.031000+00:00</time>
      </trkpt>
      <trkpt lat="0" lon="0">
        <time>2020-12-20T11:08:33.050000+00:00</time>
      </trkpt>
      <trkpt lat="0" lon="0">
        <time>2020-12-20T11:08:33.054000+00:00</time>
      </trkpt>
      <trkpt lat="0" lon="0">
        <time>2020-12-20T11:08:33.056000+00:00</time>
      </trkpt>
      <trkpt lat="47.30043" lon="-1.39062">
        <ele>129</ele>
        <time>2020-12-20T11:08:33.989000+00:00</time>
      </trkpt>
      <trkpt lat="0" lon="0">
        <time>2020-12-20T11:08:34.003000+00:00</time>
      </trkpt>
      <trkpt lat="0" lon="0">
        <time>2020-12-20T11:08:34.009000+00:00</time>
      </trkpt>
      <trkpt lat="0" lon="0">
        <time>2020-12-20T11:08:34.013000+00:00</time>
      </trkpt>
      <trkpt lat="47.30041" lon="-1.39067">
        <ele>128</ele>
        <time>2020-12-20T11:08:34.962000+00:00</time>
      </trkpt>
      <trkpt lat="0" lon="0">
        <time>2020-12-20T11:08:34.983000+00:00</time>
      </trkpt>
      <trkpt lat="0" lon="0">
        <time>2020-12-20T11:08:34.988000+00:00</time>
      </trkpt>
      <trkpt lat="0" lon="0">
        <time>2020-12-20T11:08:34.991000+00:00</time>
      </trkpt>
      <trkpt lat="47.3004" lon="-1.39072">
        <ele>127</ele>
        <time>2020-12-20T11:08:35.962000+00:00</time>
      </trkpt>
      <trkpt lat="0" lon="0">
        <time>2020-12-20T11:08:35.975000+00:00</time>
      </trkpt>
      <trkpt lat="0" lon="0">
        <time>2020-12-20T11:08:35.985000+00:00</time>
      </trkpt>
      <trkpt lat="0" lon="0">
        <time>2020-12-20T11:08:35.987000+00:00</time>
      </trkpt>
      <trkpt lat="47.3004" lon="-1.39077">
        <ele>126</ele>
        <time>2020-12-20T11:08:36.934000+00:00</time>
      </trkpt>
      <trkpt lat="0" lon="0">
        <time>2020-12-20T11:08:36.944000+00:00</time>
      </trkpt>
      <trkpt lat="0" lon="0">
        <time>2020-12-20T11:08:36.948000+00:00</time>
      </trkpt>
      <trkpt lat="0" lon="0">
        <time>2020-12-20T11:08:36.950000+00:00</time>
      </trkpt>
      <trkpt lat="47.30041" lon="-1.39083">
        <ele>126</ele>
        <time>2020-12-20T11:08:37.978000+00:00</time>
      </trkpt>
      <trkpt lat="0" lon="0">
        <time>2020-12-20T11:08:37.988000+00:00</time>
      </trkpt>
      <trkpt lat="0" lon="0">
        <time>2020-12-20T11:08:37.999000+00:00</time>
      </trkpt>
      <trkpt lat="0" lon="0">
        <time>2020-12-20T11:08:38.004000+00:00</time>
      </trkpt>
      <trkpt lat="47.30042" lon="-1.3909">
        <ele>126</ele>
        <time>2020-12-20T11:08:38.976000+00:00</time>
      </trkpt>
      <trkpt lat="0" lon="0">
        <time>2020-12-20T11:08:38.987000+00:00</time>
      </trkpt>
      <trkpt lat="0" lon="0">
        <time>2020-12-20T11:08:38.989000+00:00</time>
      </trkpt>
      <trkpt lat="0" lon="0">
        <time>2020-12-20T11:08:38.990000+00:00</time>
      </trkpt>
      <trkpt lat="47.30045" lon="-1.39097">
        <ele>124</ele>
        <time>2020-12-20T11:08:40.031000+00:00</time>
      </trkpt>
      <trkpt lat="0" lon="0">
        <time>2020-12-20T11:08:40.040000+00:00</time>
      </trkpt>
      <trkpt lat="0" lon="0">
        <time>2020-12-20T11:08:40.046000+00:00</time>
      </trkpt>
      <trkpt lat="0" lon="0">
        <time>2020-12-20T11:08:40.049000+00:00</time>
      </trkpt>
      <trkpt lat="47.30048" lon="-1.39105">
        <ele>123</ele>
        <time>2020-12-20T11:08:40.962000+00:00</time>
      </trkpt>
      <trkpt lat="0" lon="0">
        <time>2020-12-20T11:08:40.968000+00:00</time>
      </trkpt>
      <trkpt lat="0" lon="0">
        <time>2020-12-20T11:08:40.979000+00:00</time>
      </trkpt>
      <trkpt lat="0" lon="0">
        <time>2020-12-20T11:08:40.981000+00:00</time>
      </trkpt>
      <trkpt lat="47.30051" lon="-1.39114">
        <ele>123</ele>
        <time>2020-12-20T11:08:41.987000+00:00</time>
      </trkpt>
      <trkpt lat="0" lon="0">
        <time>2020-12-20T11:08:42.004000+00:00</time>
      </trkpt>
      <trkpt lat="0" lon="0">
        <time>2020-12-20T11:08:42.011000+00:00</time>
      </trkpt>
      <trkpt lat="0" lon="0">
        <time>2020-12-20T11:08:42.014000+00:00</time>
      </trkpt>
      <trkpt lat="47.30055" lon="-1.39124">
        <ele>123</ele>
        <time>2020-12-20T11:08:42.954000+00:00</time>
      </trkpt>
      <trkpt lat="0" lon="0">
        <time>2020-12-20T11:08:42.960000+00:00</time>
      </trkpt>
      <trkpt lat="0" lon="0">
        <time>2020-12-20T11:08:42.971000+00:00</time>
      </trkpt>
      <trkpt lat="0" lon="0">
        <time>2020-12-20T11:08:42.977000+00:00</time>
      </trkpt>
      <trkpt lat="47.30059" lon="-1.39133">
        <ele>122</ele>
        <time>2020-12-20T11:08:43.993000+00:00</time>
      </trkpt>
      <trkpt lat="0" lon="0">
        <time>2020-12-20T11:08:44.005000+00:00</time>
      </trkpt>
      <trkpt lat="0" lon="0">
        <time>2020-12-20T11:08:44.013000+00:00</time>
      </trkpt>
      <trkpt lat="0" lon="0">
        <time>2020-12-20T11:08:44.016000+00:00</time>
      </trkpt>
      <trkpt lat="47.30064" lon="-1.39143">
        <ele>121</ele>
        <time>2020-12-20T11:08:44.961000+00:00</time>
      </trkpt>
      <trkpt lat="0" lon="0">
        <time>2020-12-20T11:08:44.972000+00:00</time>
      </trkpt>
      <trkpt lat="0" lon="0">
        <time>2020-12-20T11:08:44.980000+00:00</time>
      </trkpt>
      <trkpt lat="0" lon="0">
        <time>2020-12-20T11:08:44.984000+00:00</time>
      </trkpt>
      <trkpt lat="47.30069" lon="-1.39153">
        <ele>120</ele>
        <time>2020-12-20T11:08:45.998000+00:00</time>
      </trkpt>
      <trkpt lat="0" lon="0">
        <time>2020-12-20T11:08:46.032000+00:00</time>
      </trkpt>
      <trkpt lat="0" lon="0">
        <time>2020-12-20T11:08:46.034000+00:00</time>
      </trkpt>
      <trkpt lat="0" lon="0">
        <time>2020-12-20T11:08:46.035000+00:00</time>
      </trkpt>
      <trkpt lat="47.30073" lon="-1.39163">
        <ele>120</ele>
        <time>2020-12-20T11:08:46.978000+00:00</time>
      </trkpt>
      <trkpt lat="0" lon="0">
        <time>2020-12-20T11:08:46.989000+00:00</time>
      </trkpt>
      <trkpt lat="0" lon="0">
        <time>2020-12-20T11:08:46.993000+00:00</time>
      </trkpt>
      <trkpt lat="0" lon="0">
        <time>2020-12-20T11:08:46.994000+00:00</time>
      </trkpt>
      <trkpt lat="47.30078" lon="-1.39172">
        <ele>119</ele>
        <time>2020-12-20T11:08:47.991000+00:00</time>
      </trkpt>
      <trkpt lat="0" lon="0">
        <time>2020-12-20T11:08:48.008000+00:00</time>
      </trkpt>
      <trkpt lat="0" lon="0">
        <time>2020-12-20T11:08:48.012000+00:00</time>
      </trkpt>
      <trkpt lat="0" lon="0">
        <time>2020-12-20T11:08:48.016000+00:00</time>
      </trkpt>
      <trkpt lat="47.30083" lon="-1.39179">
        <ele>118</ele>
        <time>2020-12-20T11:08:48.951000+00:00</time>
      </trkpt>
      <trkpt lat="0" lon="0">
        <time>2020-12-20T11:08:48.960000+00:00</time>
      </trkpt>
      <trkpt lat="0" lon="0">
        <time>2020-12-20T11:08:48.962000+00:00</time>
      </trkpt>
      <trkpt lat="0" lon="0">
        <time>2020-12-20T11:08:48.966000+00:00</time>
      </trkpt>
      <trkpt lat="47.30088" lon="-1.39185">
        <ele>117</ele>
        <time>2020-12-20T11:08:49.914000+00:00</time>
      </trkpt>
      <trkpt lat="0" lon="0">
        <time>2020-12-20T11:08:49.924000+00:00</time>
      </trkpt>
      <trkpt lat="0" lon="0">
        <time>2020-12-20T11:08:49.929000+00:00</time>
      </trkpt>
      <trkpt lat="0" lon="0">
        <time>2020-12-20T11:08:49.934000+00:00</time>
      </trkpt>
      <trkpt lat="47.30094" lon="-1.39189">
        <ele>116</ele>
        <time>2020-12-20T11:08:50.959000+00:00</time>
      </trkpt>
      <trkpt lat="0" lon="0">
        <time>2020-12-20T11:08:50.968000+00:00</time>
      </trkpt>
      <trkpt lat="0" lon="0">
        <time>2020-12-20T11:08:50.978000+00:00</time>
      </trkpt>
      <trkpt lat="0" lon="0">
        <time>2020-12-20T11:08:50.985000+00:00</time>
      </trkpt>
      <trkpt lat="47.30099" lon="-1.39192">
        <ele>116</ele>
        <time>2020-12-20T11:08:51.953000+00:00</time>
      </trkpt>
      <trkpt lat="0" lon="0">
        <time>2020-12-20T11:08:51.971000+00:00</time>
      </trkpt>
      <trkpt lat="0" lon="0">
        <time>2020-12-20T11:08:51.976000+00:00</time>
      </trkpt>
      <trkpt lat="0" lon="0">
        <time>2020-12-20T11:08:51.984000+00:00</time>
      </trkpt>
      <trkpt lat="47.30105" lon="-1.39193">
        <ele>116</ele>
        <time>2020-12-20T11:08:52.962000+00:00</time>
      </trkpt>
      <trkpt lat="0" lon="0">
        <time>2020-12-20T11:08:52.970000+00:00</time>
      </trkpt>
      <trkpt lat="0" lon="0">
        <time>2020-12-20T11:08:52.972000+00:00</time>
      </trkpt>
      <trkpt lat="0" lon="0">
        <time>2020-12-20T11:08:52.973000+00:00</time>
      </trkpt>
      <trkpt lat="47.30111" lon="-1.39193">
        <ele>116</ele>
        <time>2020-12-20T11:08:53.852000+00:00</time>
      </trkpt>
      <trkpt lat="0" lon="0">
        <time>2020-12-20T11:08:53.856000+00:00</time>
      </trkpt>
      <trkpt lat="0" lon="0">
        <time>2020-12-20T11:08:53.857000+00:00</time>
      </trkpt>
      <trkpt lat="47.30116" lon="-1.39193">
        <ele>116</ele>
        <time>2020-12-20T11:08:54.833000+00:00</time>
      </trkpt>
      <trkpt lat="0" lon="0">
        <time>2020-12-20T11:08:54.834000+00:00</time>
      </trkpt>
      <trkpt lat="0" lon="0">
        <time>2020-12-20T11:08:54.836000+00:00</time>
      </trkpt>
      <trkpt lat="47.30122" lon="-1.39191">
        <ele>115</ele>
        <time>2020-12-20T11:08:55.862000+00:00</time>
      </trkpt>
      <trkpt lat="0" lon="0">
        <time>2020-12-20T11:08:55.864000+00:00</time>
      </trkpt>
      <trkpt lat="0" lon="0">
        <time>2020-12-20T11:08:55.865000+00:00</time>
      </trkpt>
      <trkpt lat="0" lon="0">
        <time>2020-12-20T11:08:55.866000+00:00</time>
      </trkpt>
      <trkpt lat="47.30127" lon="-1.39188">
        <ele>115</ele>
        <time>2020-12-20T11:08:57.010000+00:00</time>
      </trkpt>
      <trkpt lat="0" lon="0">
        <time>2020-12-20T11:08:57.017000+00:00</time>
      </trkpt>
      <trkpt lat="0" lon="0">
        <time>2020-12-20T11:08:57.022000+00:00</time>
      </trkpt>
      <trkpt lat="0" lon="0">
        <time>2020-12-20T11:08:57.025000+00:00</time>
      </trkpt>
      <trkpt lat="47.30133" lon="-1.39185">
        <ele>115</ele>
        <time>2020-12-20T11:08:57.898000+00:00</time>
      </trkpt>
      <trkpt lat="0" lon="0">
        <time>2020-12-20T11:08:57.906000+00:00</time>
      </trkpt>
      <trkpt lat="0" lon="0">
        <time>2020-12-20T11:08:57.909000+00:00</time>
      </trkpt>
      <trkpt lat="0" lon="0">
        <time>2020-12-20T11:08:57.910000+00:00</time>
      </trkpt>
      <trkpt lat="47.30138" lon="-1.39182">
        <ele>114</ele>
        <time>2020-12-20T11:08:58.940000+00:00</time>
      </trkpt>
      <trkpt lat="0" lon="0">
        <time>2020-12-20T11:08:58.947000+00:00</time>
      </trkpt>
      <trkpt lat="0" lon="0">
        <time>2020-12-20T11:08:58.952000+00:00</time>
      </trkpt>
      <trkpt lat="0" lon="0">
        <time>2020-12-20T11:08:58.954000+00:00</time>
      </trkpt>
      <trkpt lat="47.30143" lon="-1.39177">
        <ele>114</ele>
        <time>2020-12-20T11:08:59.912000+00:00</time>
      </trkpt>
      <trkpt lat="0" lon="0">
        <time>2020-12-20T11:08:59.922000+00:00</time>
      </trkpt>
      <trkpt lat="0" lon="0">
        <time>2020-12-20T11:08:59.924000+00:00</time>
      </trkpt>
      <trkpt lat="0" lon="0">
        <time>2020-12-20T11:08:59.925000+00:00</time>
      </trkpt>
      <trkpt lat="47.30148" lon="-1.39173">
        <ele>113</ele>
        <time>2020-12-20T11:09:00.905000+00:00</time>
      </trkpt>
      <trkpt lat="0" lon="0">
        <time>2020-12-20T11:09:00.925000+00:00</time>
      </trkpt>
      <trkpt lat="0" lon="0">
        <time>2020-12-20T11:09:00.930000+00:00</time>
      </trkpt>
      <trkpt lat="0" lon="0">
        <time>2020-12-20T11:09:00.938000+00:00</time>
      </trkpt>
      <trkpt lat="47.30152" lon="-1.39168">
        <ele>113</ele>
        <time>2020-12-20T11:09:01.932000+00:00</time>
      </trkpt>
      <trkpt lat="0" lon="0">
        <time>2020-12-20T11:09:01.942000+00:00</time>
      </trkpt>
      <trkpt lat="0" lon="0">
        <time>2020-12-20T11:09:01.944000+00:00</time>
      </trkpt>
      <trkpt lat="47.30156" lon="-1.39163">
        <ele>114</ele>
        <time>2020-12-20T11:09:02.861000+00:00</time>
      </trkpt>
      <trkpt lat="0" lon="0">
        <time>2020-12-20T11:09:02.869000+00:00</time>
      </trkpt>
      <trkpt lat="0" lon="0">
        <time>2020-12-20T11:09:02.870000+00:00</time>
      </trkpt>
      <trkpt lat="0" lon="0">
        <time>2020-12-20T11:09:02.877000+00:00</time>
      </trkpt>
      <trkpt lat="47.30159" lon="-1.39159">
        <ele>114</ele>
        <time>2020-12-20T11:09:04.086000+00:00</time>
      </trkpt>
      <trkpt lat="0" lon="0">
        <time>2020-12-20T11:09:04.107000+00:00</time>
      </trkpt>
      <trkpt lat="0" lon="0">
        <time>2020-12-20T11:09:04.115000+00:00</time>
      </trkpt>
      <trkpt lat="0" lon="0">
        <time>2020-12-20T11:09:04.117000+00:00</time>
      </trkpt>
      <trkpt lat="47.30162" lon="-1.39154">
        <ele>114</ele>
        <time>2020-12-20T11:09:04.848000+00:00</time>
      </trkpt>
      <trkpt lat="0" lon="0">
        <time>2020-12-20T11:09:04.849000+00:00</time>
      </trkpt>
      <trkpt lat="0" lon="0">
        <time>2020-12-20T11:09:04.850000+00:00</time>
      </trkpt>
      <trkpt lat="47.30165" lon="-1.39149">
        <ele>115</ele>
        <time>2020-12-20T11:09:05.867000+00:00</time>
      </trkpt>
      <trkpt lat="0" lon="0">
        <time>2020-12-20T11:09:05.868000+00:00</time>
      </trkpt>
      <trkpt lat="0" lon="0">
        <time>2020-12-20T11:09:05.869000+00:00</time>
      </trkpt>
      <trkpt lat="0" lon="0">
        <time>2020-12-20T11:09:05.871000+00:00</time>
      </trkpt>
      <trkpt lat="47.30167" lon="-1.39143">
        <ele>116</ele>
        <time>2020-12-20T11:09:06.841000+00:00</time>
      </trkpt>
      <trkpt lat="0" lon="0">
        <time>2020-12-20T11:09:06.842000+00:00</time>
      </trkpt>
      <trkpt lat="0" lon="0">
        <time>2020-12-20T11:09:06.846000+00:00</time>
      </trkpt>
      <trkpt lat="0" lon="0">
        <time>2020-12-20T11:09:06.847000+00:00</time>
      </trkpt>
      <trkpt lat="47.30168" lon="-1.39138">
        <ele>117</ele>
        <time>2020-12-20T11:09:07.963000+00:00</time>
      </trkpt>
      <trkpt lat="0" lon="0">
        <time>2020-12-20T11:09:07.967000+00:00</time>
      </trkpt>
      <trkpt lat="0" lon="0">
        <time>2020-12-20T11:09:07.977000+00:00</time>
      </trkpt>
      <trkpt lat="0" lon="0">
        <time>2020-12-20T11:09:07.982000+00:00</time>
      </trkpt>
      <trkpt lat="47.3017" lon="-1.39133">
        <ele>117</ele>
        <time>2020-12-20T11:09:08.951000+00:00</time>
      </trkpt>
      <trkpt lat="0" lon="0">
        <time>2020-12-20T11:09:08.961000+00:00</time>
      </trkpt>
      <trkpt lat="0" lon="0">
        <time>2020-12-20T11:09:08.971000+00:00</time>
      </trkpt>
      <trkpt lat="0" lon="0">
        <time>2020-12-20T11:09:08.975000+00:00</time>
      </trkpt>
      <trkpt lat="47.30171" lon="-1.39129">
        <ele>118</ele>
        <time>2020-12-20T11:09:09.947000+00:00</time>
      </trkpt>
      <trkpt lat="0" lon="0">
        <time>2020-12-20T11:09:09.950000+00:00</time>
      </trkpt>
      <trkpt lat="0" lon="0">
        <time>2020-12-20T11:09:09.953000+00:00</time>
      </trkpt>
      <trkpt lat="0" lon="0">
        <time>2020-12-20T11:09:09.954000+00:00</time>
      </trkpt>
      <trkpt lat="47.30172" lon="-1.39124">
        <ele>118</ele>
        <time>2020-12-20T11:09:11.016000+00:00</time>
      </trkpt>
      <trkpt lat="0" lon="0">
        <time>2020-12-20T11:09:11.020000+00:00</time>
      </trkpt>
      <trkpt lat="0" lon="0">
        <time>2020-12-20T11:09:11.025000+00:00</time>
      </trkpt>
      <trkpt lat="0" lon="0">
        <time>2020-12-20T11:09:11.029000+00:00</time>
      </trkpt>
      <trkpt lat="47.30173" lon="-1.3912">
        <ele>118</ele>
        <time>2020-12-20T11:09:11.961000+00:00</time>
      </trkpt>
      <trkpt lat="0" lon="0">
        <time>2020-12-20T11:09:11.974000+00:00</time>
      </trkpt>
      <trkpt lat="0" lon="0">
        <time>2020-12-20T11:09:11.977000+00:00</time>
      </trkpt>
      <trkpt lat="0" lon="0">
        <time>2020-12-20T11:09:11.979000+00:00</time>
      </trkpt>
      <trkpt lat="47.30174" lon="-1.39116">
        <ele>118</ele>
        <time>2020-12-20T11:09:13+00:00</time>
      </trkpt>
      <trkpt lat="0" lon="0">
        <time>2020-12-20T11:09:13.012000+00:00</time>
      </trkpt>
      <trkpt lat="0" lon="0">
        <time>2020-12-20T11:09:13.017000+00:00</time>
      </trkpt>
      <trkpt lat="0" lon="0">
        <time>2020-12-20T11:09:13.019000+00:00</time>
      </trkpt>
      <trkpt lat="47.30176" lon="-1.39109">
        <ele>119</ele>
        <time>2020-12-20T11:09:14.859000+00:00</time>
      </trkpt>
      <trkpt lat="0" lon="0">
        <time>2020-12-20T11:09:14.860000+00:00</time>
      </trkpt>
      <trkpt lat="0" lon="0">
        <time>2020-12-20T11:09:14.863000+00:00</time>
      </trkpt>
      <trkpt lat="47.30176" lon="-1.39106">
        <ele>119</ele>
        <time>2020-12-20T11:09:15.856000+00:00</time>
      </trkpt>
      <trkpt lat="0" lon="0">
        <time>2020-12-20T11:09:15.859000+00:00</time>
      </trkpt>
      <trkpt lat="0" lon="0">
        <time>2020-12-20T11:09:15.864000+00:00</time>
      </trkpt>
      <trkpt lat="0" lon="0">
        <time>2020-12-20T11:09:15.865000+00:00</time>
      </trkpt>
      <trkpt lat="47.30177" lon="-1.39103">
        <ele>119</ele>
        <time>2020-12-20T11:09:16.857000+00:00</time>
      </trkpt>
      <trkpt lat="0" lon="0">
        <time>2020-12-20T11:09:16.864000+00:00</time>
      </trkpt>
      <trkpt lat="0" lon="0">
        <time>2020-12-20T11:09:16.867000+00:00</time>
      </trkpt>
      <trkpt lat="0" lon="0">
        <time>2020-12-20T11:09:16.870000+00:00</time>
      </trkpt>
      <trkpt lat="47.30178" lon="-1.39101">
        <ele>119</ele>
        <time>2020-12-20T11:09:17.849000+00:00</time>
      </trkpt>
      <trkpt lat="0" lon="0">
        <time>2020-12-20T11:09:17.851000+00:00</time>
      </trkpt>
      <trkpt lat="0" lon="0">
        <time>2020-12-20T11:09:17.852000+00:00</time>
      </trkpt>
      <trkpt lat="47.3018" lon="-1.39098">
        <ele>119</ele>
        <time>2020-12-20T11:09:18.875000+00:00</time>
      </trkpt>
      <trkpt lat="0" lon="0">
        <time>2020-12-20T11:09:18.876000+00:00</time>
      </trkpt>
      <trkpt lat="0" lon="0">
        <time>2020-12-20T11:09:18.879000+00:00</time>
      </trkpt>
      <trkpt lat="0" lon="0">
        <time>2020-12-20T11:09:18.880000+00:00</time>
      </trkpt>
      <trkpt lat="47.30181" lon="-1.39096">
        <ele>120</ele>
        <time>2020-12-20T11:09:19.971000+00:00</time>
      </trkpt>
      <trkpt lat="0" lon="0">
        <time>2020-12-20T11:09:19.977000+00:00</time>
      </trkpt>
      <trkpt lat="0" lon="0">
        <time>2020-12-20T11:09:19.984000+00:00</time>
      </trkpt>
      <trkpt lat="0" lon="0">
        <time>2020-12-20T11:09:19.986000+00:00</time>
      </trkpt>
      <trkpt lat="47.30183" lon="-1.39094">
        <ele>121</ele>
        <time>2020-12-20T11:09:20.996000+00:00</time>
      </trkpt>
      <trkpt lat="0" lon="0">
        <time>2020-12-20T11:09:21.008000+00:00</time>
      </trkpt>
      <trkpt lat="0" lon="0">
        <time>2020-12-20T11:09:21.018000+00:00</time>
      </trkpt>
      <trkpt lat="0" lon="0">
        <time>2020-12-20T11:09:21.019000+00:00</time>
      </trkpt>
      <trkpt lat="47.30185" lon="-1.39092">
        <ele>121</ele>
        <time>2020-12-20T11:09:21.978000+00:00</time>
      </trkpt>
      <trkpt lat="0" lon="0">
        <time>2020-12-20T11:09:21.986000+00:00</time>
      </trkpt>
      <trkpt lat="0" lon="0">
        <time>2020-12-20T11:09:21.987000+00:00</time>
      </trkpt>
      <trkpt lat="0" lon="0">
        <time>2020-12-20T11:09:21.988000+00:00</time>
      </trkpt>
      <trkpt lat="47.30187" lon="-1.3909">
        <ele>122</ele>
        <time>2020-12-20T11:09:23.005000+00:00</time>
      </trkpt>
      <trkpt lat="0" lon="0">
        <time>2020-12-20T11:09:23.018000+00:00</time>
      </trkpt>
      <trkpt lat="0" lon="0">
        <time>2020-12-20T11:09:23.021000+00:00</time>
      </trkpt>
      <trkpt lat="0" lon="0">
        <time>2020-12-20T11:09:23.024000+00:00</time>
      </trkpt>
      <trkpt lat="47.30189" lon="-1.39088">
        <ele>122</ele>
        <time>2020-12-20T11:09:23.899000+00:00</time>
      </trkpt>
      <trkpt lat="0" lon="0">
        <time>2020-12-20T11:09:23.901000+00:00</time>
      </trkpt>
      <trkpt lat="0" lon="0">
        <time>2020-12-20T11:09:23.902000+00:00</time>
      </trkpt>
      <trkpt lat="0" lon="0">
        <time>2020-12-20T11:09:23.903000+00:00</time>
      </trkpt>
      <trkpt lat="47.30191" lon="-1.39086">
        <ele>122</ele>
        <time>2020-12-20T11:09:24.973000+00:00</time>
      </trkpt>
      <trkpt lat="0" lon="0">
        <time>2020-12-20T11:09:24.983000+00:00</time>
      </trkpt>
      <trkpt lat="0" lon="0">
        <time>2020-12-20T11:09:24.990000+00:00</time>
      </trkpt>
      <trkpt lat="0" lon="0">
        <time>2020-12-20T11:09:24.993000+00:00</time>
      </trkpt>
      <trkpt lat="47.30193" lon="-1.39083">
        <ele>122</ele>
        <time>2020-12-20T11:09:25.962000+00:00</time>
      </trkpt>
      <trkpt lat="0" lon="0">
        <time>2020-12-20T11:09:25.966000+00:00</time>
      </trkpt>
      <trkpt lat="0" lon="0">
        <time>2020-12-20T11:09:25.972000+00:00</time>
      </trkpt>
      <trkpt lat="0" lon="0">
        <time>2020-12-20T11:09:25.975000+00:00</time>
      </trkpt>
      <trkpt lat="47.30196" lon="-1.39081">
        <ele>122</ele>
        <time>2020-12-20T11:09:26.988000+00:00</time>
      </trkpt>
      <trkpt lat="0" lon="0">
        <time>2020-12-20T11:09:27.005000+00:00</time>
      </trkpt>
      <trkpt lat="0" lon="0">
        <time>2020-12-20T11:09:27.009000+00:00</time>
      </trkpt>
      <trkpt lat="0" lon="0">
        <time>2020-12-20T11:09:27.012000+00:00</time>
      </trkpt>
      <trkpt lat="47.30199" lon="-1.39078">
        <ele>122</ele>
        <time>2020-12-20T11:09:27.948000+00:00</time>
      </trkpt>
      <trkpt lat="0" lon="0">
        <time>2020-12-20T11:09:27.956000+00:00</time>
      </trkpt>
      <trkpt lat="0" lon="0">
        <time>2020-12-20T11:09:27.963000+00:00</time>
      </trkpt>
      <trkpt lat="0" lon="0">
        <time>2020-12-20T11:09:27.966000+00:00</time>
      </trkpt>
      <trkpt lat="47.30202" lon="-1.39075">
        <ele>122</ele>
        <time>2020-12-20T11:09:28.976000+00:00</time>
      </trkpt>
      <trkpt lat="0" lon="0">
        <time>2020-12-20T11:09:28.986000+00:00</time>
      </trkpt>
      <trkpt lat="0" lon="0">
        <time>2020-12-20T11:09:28.991000+00:00</time>
      </trkpt>
      <trkpt lat="0" lon="0">
        <time>2020-12-20T11:09:28.993000+00:00</time>
      </trkpt>
      <trkpt lat="47.30205" lon="-1.39072">
        <ele>122</ele>
        <time>2020-12-20T11:09:29.909000+00:00</time>
      </trkpt>
      <trkpt lat="0" lon="0">
        <time>2020-12-20T11:09:29.915000+00:00</time>
      </trkpt>
      <trkpt lat="0" lon="0">
        <time>2020-12-20T11:09:29.916000+00:00</time>
      </trkpt>
      <trkpt lat="0" lon="0">
        <time>2020-12-20T11:09:29.917000+00:00</time>
      </trkpt>
      <trkpt lat="47.30207" lon="-1.39069">
        <ele>122</ele>
        <time>2020-12-20T11:09:30.931000+00:00</time>
      </trkpt>
      <trkpt lat="0" lon="0">
        <time>2020-12-20T11:09:30.947000+00:00</time>
      </trkpt>
      <trkpt lat="0" lon="0">
        <time>2020-12-20T11:09:30.949000+00:00</time>
      </trkpt>
      <trkpt lat="0" lon="0">
        <time>2020-12-20T11:09:30.951000+00:00</time>
      </trkpt>
      <trkpt lat="47.3021" lon="-1.39067">
        <ele>122</ele>
        <time>2020-12-20T11:09:32.049000+00:00</time>
      </trkpt>
      <trkpt lat="0" lon="0">
        <time>2020-12-20T11:09:32.066000+00:00</time>
      </trkpt>
      <trkpt lat="0" lon="0">
        <time>2020-12-20T11:09:32.073000+00:00</time>
      </trkpt>
      <trkpt lat="0" lon="0">
        <time>2020-12-20T11:09:32.076000+00:00</time>
      </trkpt>
      <trkpt lat="47.30214" lon="-1.39064">
        <ele>122</ele>
        <time>2020-12-20T11:09:32.991000+00:00</time>
      </trkpt>
      <trkpt lat="0" lon="0">
        <time>2020-12-20T11:09:33.001000+00:00</time>
      </trkpt>
      <trkpt lat="0" lon="0">
        <time>2020-12-20T11:09:33.009000+00:00</time>
      </trkpt>
      <trkpt lat="0" lon="0">
        <time>2020-12-20T11:09:33.011000+00:00</time>
      </trkpt>
      <trkpt lat="47.30217" lon="-1.39061">
        <ele>121</ele>
        <time>2020-12-20T11:09:34.016000+00:00</time>
      </trkpt>
      <trkpt lat="0" lon="0">
        <time>2020-12-20T11:09:34.029000+00:00</time>
      </trkpt>
      <trkpt lat="0" lon="0">
        <time>2020-12-20T11:09:34.041000+00:00</time>
      </trkpt>
      <trkpt lat="0" lon="0">
        <time>2020-12-20T11:09:34.044000+00:00</time>
      </trkpt>
      <trkpt lat="47.3022" lon="-1.39058">
        <ele>121</ele>
        <time>2020-12-20T11:09:34.944000+00:00</time>
      </trkpt>
      <trkpt lat="0" lon="0">
        <time>2020-12-20T11:09:34.953000+00:00</time>
      </trkpt>
      <trkpt lat="0" lon="0">
        <time>2020-12-20T11:09:34.961000+00:00</time>
      </trkpt>
      <trkpt lat="0" lon="0">
        <time>2020-12-20T11:09:34.967000+00:00</time>
      </trkpt>
      <trkpt lat="47.30223" lon="-1.39056">
        <ele>121</ele>
        <time>2020-12-20T11:09:35.986000+00:00</time>
      </trkpt>
      <trkpt lat="0" lon="0">
        <time>2020-12-20T11:09:36.001000+00:00</time>
      </trkpt>
      <trkpt lat="0" lon="0">
        <time>2020-12-20T11:09:36.006000+00:00</time>
      </trkpt>
      <trkpt lat="0" lon="0">
        <time>2020-12-20T11:09:36.008000+00:00</time>
      </trkpt>
      <trkpt lat="47.30227" lon="-1.39054">
        <ele>121</ele>
        <time>2020-12-20T11:09:36.983000+00:00</time>
      </trkpt>
      <trkpt lat="0" lon="0">
        <time>2020-12-20T11:09:36.994000+00:00</time>
      </trkpt>
      <trkpt lat="0" lon="0">
        <time>2020-12-20T11:09:36.999000+00:00</time>
      </trkpt>
      <trkpt lat="0" lon="0">
        <time>2020-12-20T11:09:37.001000+00:00</time>
      </trkpt>
      <trkpt lat="47.3023" lon="-1.39051">
        <ele>121</ele>
        <time>2020-12-20T11:09:38.008000+00:00</time>
      </trkpt>
      <trkpt lat="0" lon="0">
        <time>2020-12-20T11:09:38.015000+00:00</time>
      </trkpt>
      <trkpt lat="0" lon="0">
        <time>2020-12-20T11:09:38.024000+00:00</time>
      </trkpt>
      <trkpt lat="0" lon="0">
        <time>2020-12-20T11:09:38.027000+00:00</time>
      </trkpt>
      <trkpt lat="47.30234" lon="-1.39049">
        <ele>120</ele>
        <time>2020-12-20T11:09:39.006000+00:00</time>
      </trkpt>
      <trkpt lat="0" lon="0">
        <time>2020-12-20T11:09:39.026000+00:00</time>
      </trkpt>
      <trkpt lat="0" lon="0">
        <time>2020-12-20T11:09:39.030000+00:00</time>
      </trkpt>
      <trkpt lat="0" lon="0">
        <time>2020-12-20T11:09:39.035000+00:00</time>
      </trkpt>
      <trkpt lat="47.30237" lon="-1.39046">
        <ele>120</ele>
        <time>2020-12-20T11:09:40.019000+00:00</time>
      </trkpt>
      <trkpt lat="0" lon="0">
        <time>2020-12-20T11:09:40.029000+00:00</time>
      </trkpt>
      <trkpt lat="0" lon="0">
        <time>2020-12-20T11:09:40.030000+00:00</time>
      </trkpt>
      <trkpt lat="47.3024" lon="-1.39044">
        <ele>120</ele>
        <time>2020-12-20T11:09:40.994000+00:00</time>
      </trkpt>
      <trkpt lat="0" lon="0">
        <time>2020-12-20T11:09:41.018000+00:00</time>
      </trkpt>
      <trkpt lat="0" lon="0">
        <time>2020-12-20T11:09:41.025000+00:00</time>
      </trkpt>
      <trkpt lat="0" lon="0">
        <time>2020-12-20T11:09:41.028000+00:00</time>
      </trkpt>
      <trkpt lat="47.30243" lon="-1.39041">
        <ele>120</ele>
        <time>2020-12-20T11:09:42.015000+00:00</time>
      </trkpt>
      <trkpt lat="0" lon="0">
        <time>2020-12-20T11:09:42.030000+00:00</time>
      </trkpt>
      <trkpt lat="0" lon="0">
        <time>2020-12-20T11:09:42.035000+00:00</time>
      </trkpt>
      <trkpt lat="0" lon="0">
        <time>2020-12-20T11:09:42.038000+00:00</time>
      </trkpt>
      <trkpt lat="47.30246" lon="-1.39038">
        <ele>120</ele>
        <time>2020-12-20T11:09:42.997000+00:00</time>
      </trkpt>
      <trkpt lat="0" lon="0">
        <time>2020-12-20T11:09:43.008000+00:00</time>
      </trkpt>
      <trkpt lat="0" lon="0">
        <time>2020-12-20T11:09:43.014000+00:00</time>
      </trkpt>
      <trkpt lat="0" lon="0">
        <time>2020-12-20T11:09:43.017000+00:00</time>
      </trkpt>
      <trkpt lat="47.30249" lon="-1.39036">
        <ele>120</ele>
        <time>2020-12-20T11:09:43.978000+00:00</time>
      </trkpt>
      <trkpt lat="0" lon="0">
        <time>2020-12-20T11:09:44.004000+00:00</time>
      </trkpt>
      <trkpt lat="0" lon="0">
        <time>2020-12-20T11:09:44.008000+00:00</time>
      </trkpt>
      <trkpt lat="0" lon="0">
        <time>2020-12-20T11:09:44.011000+00:00</time>
      </trkpt>
      <trkpt lat="47.30252" lon="-1.39033">
        <ele>120</ele>
        <time>2020-12-20T11:09:44.983000+00:00</time>
      </trkpt>
      <trkpt lat="0" lon="0">
        <time>2020-12-20T11:09:44.988000+00:00</time>
      </trkpt>
      <trkpt lat="0" lon="0">
        <time>2020-12-20T11:09:44.995000+00:00</time>
      </trkpt>
      <trkpt lat="0" lon="0">
        <time>2020-12-20T11:09:44.999000+00:00</time>
      </trkpt>
      <trkpt lat="47.30255" lon="-1.3903">
        <ele>120</ele>
        <time>2020-12-20T11:09:46.048000+00:00</time>
      </trkpt>
      <trkpt lat="0" lon="0">
        <time>2020-12-20T11:09:46.059000+00:00</time>
      </trkpt>
      <trkpt lat="0" lon="0">
        <time>2020-12-20T11:09:46.063000+00:00</time>
      </trkpt>
      <trkpt lat="0" lon="0">
        <time>2020-12-20T11:09:46.067000+00:00</time>
      </trkpt>
      <trkpt lat="47.30259" lon="-1.39027">
        <ele>119</ele>
        <time>2020-12-20T11:09:46.983000+00:00</time>
      </trkpt>
      <trkpt lat="0" lon="0">
        <time>2020-12-20T11:09:46.991000+00:00</time>
      </trkpt>
      <trkpt lat="0" lon="0">
        <time>2020-12-20T11:09:46.998000+00:00</time>
      </trkpt>
      <trkpt lat="0" lon="0">
        <time>2020-12-20T11:09:47.001000+00:00</time>
      </trkpt>
      <trkpt lat="47.30262" lon="-1.39024">
        <ele>119</ele>
        <time>2020-12-20T11:09:48.003000+00:00</time>
      </trkpt>
      <trkpt lat="0" lon="0">
        <time>2020-12-20T11:09:48.014000+00:00</time>
      </trkpt>
      <trkpt lat="0" lon="0">
        <time>2020-12-20T11:09:48.025000+00:00</time>
      </trkpt>
      <trkpt lat="0" lon="0">
        <time>2020-12-20T11:09:48.029000+00:00</time>
      </trkpt>
      <trkpt lat="47.30265" lon="-1.39021">
        <ele>119</ele>
        <time>2020-12-20T11:09:48.977000+00:00</time>
      </trkpt>
      <trkpt lat="0" lon="0">
        <time>2020-12-20T11:09:48.997000+00:00</time>
      </trkpt>
      <trkpt lat="0" lon="0">
        <time>2020-12-20T11:09:49.006000+00:00</time>
      </trkpt>
      <trkpt lat="0" lon="0">
        <time>2020-12-20T11:09:49.008000+00:00</time>
      </trkpt>
      <trkpt lat="47.30268" lon="-1.39018">
        <ele>119</ele>
        <time>2020-12-20T11:09:49.997000+00:00</time>
      </trkpt>
      <trkpt lat="0" lon="0">
        <time>2020-12-20T11:09:50.008000+00:00</time>
      </trkpt>
      <trkpt lat="0" lon="0">
        <time>2020-12-20T11:09:50.015000+00:00</time>
      </trkpt>
      <trkpt lat="0" lon="0">
        <time>2020-12-20T11:09:50.018000+00:00</time>
      </trkpt>
      <trkpt lat="47.3027" lon="-1.39015">
        <ele>119</ele>
        <time>2020-12-20T11:09:50.902000+00:00</time>
      </trkpt>
      <trkpt lat="0" lon="0">
        <time>2020-12-20T11:09:50.913000+00:00</time>
      </trkpt>
      <trkpt lat="0" lon="0">
        <time>2020-12-20T11:09:50.917000+00:00</time>
      </trkpt>
      <trkpt lat="0" lon="0">
        <time>2020-12-20T11:09:50.920000+00:00</time>
      </trkpt>
      <trkpt lat="47.30272" lon="-1.39012">
        <ele>119</ele>
        <time>2020-12-20T11:09:51.988000+00:00</time>
      </trkpt>
      <trkpt lat="0" lon="0">
        <time>2020-12-20T11:09:51.992000+00:00</time>
      </trkpt>
      <trkpt lat="0" lon="0">
        <time>2020-12-20T11:09:51.997000+00:00</time>
      </trkpt>
      <trkpt lat="0" lon="0">
        <time>2020-12-20T11:09:51.999000+00:00</time>
      </trkpt>
      <trkpt lat="47.30275" lon="-1.3901">
        <ele>119</ele>
        <time>2020-12-20T11:09:52.987000+00:00</time>
      </trkpt>
      <trkpt lat="0" lon="0">
        <time>2020-12-20T11:09:53.006000+00:00</time>
      </trkpt>
      <trkpt lat="0" lon="0">
        <time>2020-12-20T11:09:53.011000+00:00</time>
      </trkpt>
      <trkpt lat="0" lon="0">
        <time>2020-12-20T11:09:53.014000+00:00</time>
      </trkpt>
      <trkpt lat="47.30277" lon="-1.39008">
        <ele>119</ele>
        <time>2020-12-20T11:09:53.985000+00:00</time>
      </trkpt>
      <trkpt lat="0" lon="0">
        <time>2020-12-20T11:09:54+00:00</time>
      </trkpt>
      <trkpt lat="0" lon="0">
        <time>2020-12-20T11:09:54.006000+00:00</time>
      </trkpt>
      <trkpt lat="0" lon="0">
        <time>2020-12-20T11:09:54.008000+00:00</time>
      </trkpt>
      <trkpt lat="47.3028" lon="-1.39005">
        <ele>119</ele>
        <time>2020-12-20T11:09:55.010000+00:00</time>
      </trkpt>
      <trkpt lat="0" lon="0">
        <time>2020-12-20T11:09:55.028000+00:00</time>
      </trkpt>
      <trkpt lat="0" lon="0">
        <time>2020-12-20T11:09:55.036000+00:00</time>
      </trkpt>
      <trkpt lat="0" lon="0">
        <time>2020-12-20T11:09:55.038000+00:00</time>
      </trkpt>
      <trkpt lat="47.30283" lon="-1.39003">
        <ele>119</ele>
        <time>2020-12-20T11:09:55.962000+00:00</time>
      </trkpt>
      <trkpt lat="0" lon="0">
        <time>2020-12-20T11:09:55.972000+00:00</time>
      </trkpt>
      <trkpt lat="0" lon="0">
        <time>2020-12-20T11:09:55.984000+00:00</time>
      </trkpt>
      <trkpt lat="0" lon="0">
        <time>2020-12-20T11:09:55.987000+00:00</time>
      </trkpt>
      <trkpt lat="47.30286" lon="-1.39001">
        <ele>118</ele>
        <time>2020-12-20T11:09:56.970000+00:00</time>
      </trkpt>
      <trkpt lat="0" lon="0">
        <time>2020-12-20T11:09:56.982000+00:00</time>
      </trkpt>
      <trkpt lat="0" lon="0">
        <time>2020-12-20T11:09:56.995000+00:00</time>
      </trkpt>
      <trkpt lat="0" lon="0">
        <time>2020-12-20T11:09:56.999000+00:00</time>
      </trkpt>
      <trkpt lat="47.30289" lon="-1.38999">
        <ele>118</ele>
        <time>2020-12-20T11:09:58+00:00</time>
      </trkpt>
      <trkpt lat="0" lon="0">
        <time>2020-12-20T11:09:58.011000+00:00</time>
      </trkpt>
      <trkpt lat="0" lon="0">
        <time>2020-12-20T11:09:58.016000+00:00</time>
      </trkpt>
      <trkpt lat="0" lon="0">
        <time>2020-12-20T11:09:58.019000+00:00</time>
      </trkpt>
      <trkpt lat="47.30293" lon="-1.38997">
        <ele>118</ele>
        <time>2020-12-20T11:09:58.977000+00:00</time>
      </trkpt>
      <trkpt lat="0" lon="0">
        <time>2020-12-20T11:09:58.999000+00:00</time>
      </trkpt>
      <trkpt lat="0" lon="0">
        <time>2020-12-20T11:09:59.005000+00:00</time>
      </trkpt>
      <trkpt lat="0" lon="0">
        <time>2020-12-20T11:09:59.008000+00:00</time>
      </trkpt>
      <trkpt lat="47.30298" lon="-1.38995">
        <ele>118</ele>
        <time>2020-12-20T11:09:59.926000+00:00</time>
      </trkpt>
      <trkpt lat="0" lon="0">
        <time>2020-12-20T11:09:59.933000+00:00</time>
      </trkpt>
      <trkpt lat="0" lon="0">
        <time>2020-12-20T11:09:59.944000+00:00</time>
      </trkpt>
      <trkpt lat="0" lon="0">
        <time>2020-12-20T11:09:59.950000+00:00</time>
      </trkpt>
      <trkpt lat="47.30302" lon="-1.38993">
        <ele>119</ele>
        <time>2020-12-20T11:10:00.972000+00:00</time>
      </trkpt>
      <trkpt lat="0" lon="0">
        <time>2020-12-20T11:10:00.974000+00:00</time>
      </trkpt>
      <trkpt lat="0" lon="0">
        <time>2020-12-20T11:10:00.976000+00:00</time>
      </trkpt>
      <trkpt lat="0" lon="0">
        <time>2020-12-20T11:10:00.977000+00:00</time>
      </trkpt>
      <trkpt lat="47.30307" lon="-1.38991">
        <ele>119</ele>
        <time>2020-12-20T11:10:01.962000+00:00</time>
      </trkpt>
      <trkpt lat="0" lon="0">
        <time>2020-12-20T11:10:01.969000+00:00</time>
      </trkpt>
      <trkpt lat="0" lon="0">
        <time>2020-12-20T11:10:01.976000+00:00</time>
      </trkpt>
      <trkpt lat="0" lon="0">
        <time>2020-12-20T11:10:01.978000+00:00</time>
      </trkpt>
      <trkpt lat="47.30311" lon="-1.3899">
        <ele>119</ele>
        <time>2020-12-20T11:10:02.950000+00:00</time>
      </trkpt>
      <trkpt lat="0" lon="0">
        <time>2020-12-20T11:10:02.970000+00:00</time>
      </trkpt>
      <trkpt lat="0" lon="0">
        <time>2020-12-20T11:10:02.972000+00:00</time>
      </trkpt>
      <trkpt lat="0" lon="0">
        <time>2020-12-20T11:10:02.973000+00:00</time>
      </trkpt>
      <trkpt lat="47.30316" lon="-1.38988">
        <ele>119</ele>
        <time>2020-12-20T11:10:03.970000+00:00</time>
      </trkpt>
      <trkpt lat="0" lon="0">
        <time>2020-12-20T11:10:03.986000+00:00</time>
      </trkpt>
      <trkpt lat="0" lon="0">
        <time>2020-12-20T11:10:03.996000+00:00</time>
      </trkpt>
      <trkpt lat="0" lon="0">
        <time>2020-12-20T11:10:03.998000+00:00</time>
      </trkpt>
      <trkpt lat="47.3032" lon="-1.38987">
        <ele>118</ele>
        <time>2020-12-20T11:10:04.981000+00:00</time>
      </trkpt>
      <trkpt lat="0" lon="0">
        <time>2020-12-20T11:10:04.990000+00:00</time>
      </trkpt>
      <trkpt lat="0" lon="0">
        <time>2020-12-20T11:10:04.998000+00:00</time>
      </trkpt>
      <trkpt lat="0" lon="0">
        <time>2020-12-20T11:10:05+00:00</time>
      </trkpt>
      <trkpt lat="47.30325" lon="-1.38985">
        <ele>118</ele>
        <time>2020-12-20T11:10:05.994000+00:00</time>
      </trkpt>
      <trkpt lat="0" lon="0">
        <time>2020-12-20T11:10:06+00:00</time>
      </trkpt>
      <trkpt lat="0" lon="0">
        <time>2020-12-20T11:10:06.007000+00:00</time>
      </trkpt>
      <trkpt lat="0" lon="0">
        <time>2020-12-20T11:10:06.011000+00:00</time>
      </trkpt>
      <trkpt lat="47.30329" lon="-1.38984">
        <ele>118</ele>
        <time>2020-12-20T11:10:06.976000+00:00</time>
      </trkpt>
      <trkpt lat="0" lon="0">
        <time>2020-12-20T11:10:06.989000+00:00</time>
      </trkpt>
      <trkpt lat="0" lon="0">
        <time>2020-12-20T11:10:06.991000+00:00</time>
      </trkpt>
      <trkpt lat="0" lon="0">
        <time>2020-12-20T11:10:06.992000+00:00</time>
      </trkpt>
      <trkpt lat="47.30332" lon="-1.38983">
        <ele>118</ele>
        <time>2020-12-20T11:10:07.909000+00:00</time>
      </trkpt>
      <trkpt lat="0" lon="0">
        <time>2020-12-20T11:10:07.913000+00:00</time>
      </trkpt>
      <trkpt lat="0" lon="0">
        <time>2020-12-20T11:10:07.917000+00:00</time>
      </trkpt>
      <trkpt lat="0" lon="0">
        <time>2020-12-20T11:10:07.921000+00:00</time>
      </trkpt>
      <trkpt lat="47.30336" lon="-1.38982">
        <ele>118</ele>
        <time>2020-12-20T11:10:08.938000+00:00</time>
      </trkpt>
      <trkpt lat="0" lon="0">
        <time>2020-12-20T11:10:08.945000+00:00</time>
      </trkpt>
      <trkpt lat="0" lon="0">
        <time>2020-12-20T11:10:08.949000+00:00</time>
      </trkpt>
      <trkpt lat="0" lon="0">
        <time>2020-12-20T11:10:08.950000+00:00</time>
      </trkpt>
      <trkpt lat="47.30339" lon="-1.38982">
        <ele>119</ele>
        <time>2020-12-20T11:10:09.973000+00:00</time>
      </trkpt>
      <trkpt lat="0" lon="0">
        <time>2020-12-20T11:10:09.985000+00:00</time>
      </trkpt>
      <trkpt lat="0" lon="0">
        <time>2020-12-20T11:10:09.990000+00:00</time>
      </trkpt>
      <trkpt lat="0" lon="0">
        <time>2020-12-20T11:10:09.993000+00:00</time>
      </trkpt>
      <trkpt lat="47.30342" lon="-1.38981">
        <ele>119</ele>
        <time>2020-12-20T11:10:10.994000+00:00</time>
      </trkpt>
      <trkpt lat="0" lon="0">
        <time>2020-12-20T11:10:11.007000+00:00</time>
      </trkpt>
      <trkpt lat="0" lon="0">
        <time>2020-12-20T11:10:11.013000+00:00</time>
      </trkpt>
      <trkpt lat="0" lon="0">
        <time>2020-12-20T11:10:11.017000+00:00</time>
      </trkpt>
      <trkpt lat="47.30345" lon="-1.38981">
        <ele>119</ele>
        <time>2020-12-20T11:10:11.981000+00:00</time>
      </trkpt>
      <trkpt lat="0" lon="0">
        <time>2020-12-20T11:10:12+00:00</time>
      </trkpt>
      <trkpt lat="0" lon="0">
        <time>2020-12-20T11:10:12.010000+00:00</time>
      </trkpt>
      <trkpt lat="0" lon="0">
        <time>2020-12-20T11:10:12.012000+00:00</time>
      </trkpt>
      <trkpt lat="47.30347" lon="-1.38982">
        <ele>118</ele>
        <time>2020-12-20T11:10:12.924000+00:00</time>
      </trkpt>
      <trkpt lat="0" lon="0">
        <time>2020-12-20T11:10:12.956000+00:00</time>
      </trkpt>
      <trkpt lat="0" lon="0">
        <time>2020-12-20T11:10:12.958000+00:00</time>
      </trkpt>
      <trkpt lat="0" lon="0">
        <time>2020-12-20T11:10:12.959000+00:00</time>
      </trkpt>
      <trkpt lat="47.30349" lon="-1.38983">
        <ele>117</ele>
        <time>2020-12-20T11:10:13.932000+00:00</time>
      </trkpt>
      <trkpt lat="0" lon="0">
        <time>2020-12-20T11:10:13.942000+00:00</time>
      </trkpt>
      <trkpt lat="0" lon="0">
        <time>2020-12-20T11:10:13.948000+00:00</time>
      </trkpt>
      <trkpt lat="0" lon="0">
        <time>2020-12-20T11:10:13.951000+00:00</time>
      </trkpt>
      <trkpt lat="47.30351" lon="-1.38985">
        <ele>117</ele>
        <time>2020-12-20T11:10:14.956000+00:00</time>
      </trkpt>
      <trkpt lat="0" lon="0">
        <time>2020-12-20T11:10:14.964000+00:00</time>
      </trkpt>
      <trkpt lat="0" lon="0">
        <time>2020-12-20T11:10:14.969000+00:00</time>
      </trkpt>
      <trkpt lat="0" lon="0">
        <time>2020-12-20T11:10:14.972000+00:00</time>
      </trkpt>
      <trkpt lat="47.30351" lon="-1.38987">
        <ele>117</ele>
        <time>2020-12-20T11:10:15.978000+00:00</time>
      </trkpt>
      <trkpt lat="0" lon="0">
        <time>2020-12-20T11:10:15.994000+00:00</time>
      </trkpt>
      <trkpt lat="0" lon="0">
        <time>2020-12-20T11:10:16.001000+00:00</time>
      </trkpt>
      <trkpt lat="0" lon="0">
        <time>2020-12-20T11:10:16.004000+00:00</time>
      </trkpt>
      <trkpt lat="47.30351" lon="-1.3899">
        <ele>117</ele>
        <time>2020-12-20T11:10:16.887000+00:00</time>
      </trkpt>
      <trkpt lat="0" lon="0">
        <time>2020-12-20T11:10:16.900000+00:00</time>
      </trkpt>
      <trkpt lat="0" lon="0">
        <time>2020-12-20T11:10:16.907000+00:00</time>
      </trkpt>
      <trkpt lat="0" lon="0">
        <time>2020-12-20T11:10:16.910000+00:00</time>
      </trkpt>
      <trkpt lat="47.30351" lon="-1.38994">
        <ele>116</ele>
        <time>2020-12-20T11:10:17.968000+00:00</time>
      </trkpt>
      <trkpt lat="0" lon="0">
        <time>2020-12-20T11:10:17.970000+00:00</time>
      </trkpt>
      <trkpt lat="0" lon="0">
        <time>2020-12-20T11:10:17.971000+00:00</time>
      </trkpt>
      <trkpt lat="0" lon="0">
        <time>2020-12-20T11:10:17.972000+00:00</time>
      </trkpt>
      <trkpt lat="47.3035" lon="-1.38998">
        <ele>116</ele>
        <time>2020-12-20T11:10:18.978000+00:00</time>
      </trkpt>
      <trkpt lat="0" lon="0">
        <time>2020-12-20T11:10:18.992000+00:00</time>
      </trkpt>
      <trkpt lat="0" lon="0">
        <time>2020-12-20T11:10:19.002000+00:00</time>
      </trkpt>
      <trkpt lat="0" lon="0">
        <time>2020-12-20T11:10:19.006000+00:00</time>
      </trkpt>
      <trkpt lat="47.30349" lon="-1.39003">
        <ele>115</ele>
        <time>2020-12-20T11:10:19.903000+00:00</time>
      </trkpt>
      <trkpt lat="0" lon="0">
        <time>2020-12-20T11:10:19.904000+00:00</time>
      </trkpt>
      <trkpt lat="0" lon="0">
        <time>2020-12-20T11:10:19.907000+00:00</time>
      </trkpt>
      <trkpt lat="0" lon="0">
        <time>2020-12-20T11:10:19.909000+00:00</time>
      </trkpt>
      <trkpt lat="47.30348" lon="-1.39008">
        <ele>115</ele>
        <time>2020-12-20T11:10:20.990000+00:00</time>
      </trkpt>
      <trkpt lat="0" lon="0">
        <time>2020-12-20T11:10:20.998000+00:00</time>
      </trkpt>
      <trkpt lat="0" lon="0">
        <time>2020-12-20T11:10:21.002000+00:00</time>
      </trkpt>
      <trkpt lat="0" lon="0">
        <time>2020-12-20T11:10:21.004000+00:00</time>
      </trkpt>
      <trkpt lat="47.30346" lon="-1.39014">
        <ele>115</ele>
        <time>2020-12-20T11:10:21.984000+00:00</time>
      </trkpt>
      <trkpt lat="0" lon="0">
        <time>2020-12-20T11:10:21.999000+00:00</time>
      </trkpt>
      <trkpt lat="0" lon="0">
        <time>2020-12-20T11:10:22.008000+00:00</time>
      </trkpt>
      <trkpt lat="0" lon="0">
        <time>2020-12-20T11:10:22.010000+00:00</time>
      </trkpt>
      <trkpt lat="47.30344" lon="-1.39019">
        <ele>115</ele>
        <time>2020-12-20T11:10:22.985000+00:00</time>
      </trkpt>
      <trkpt lat="0" lon="0">
        <time>2020-12-20T11:10:23.010000+00:00</time>
      </trkpt>
      <trkpt lat="0" lon="0">
        <time>2020-12-20T11:10:23.017000+00:00</time>
      </trkpt>
      <trkpt lat="0" lon="0">
        <time>2020-12-20T11:10:23.018000+00:00</time>
      </trkpt>
      <trkpt lat="47.30342" lon="-1.39026">
        <ele>115</ele>
        <time>2020-12-20T11:10:24.026000+00:00</time>
      </trkpt>
      <trkpt lat="0" lon="0">
        <time>2020-12-20T11:10:24.039000+00:00</time>
      </trkpt>
      <trkpt lat="0" lon="0">
        <time>2020-12-20T11:10:24.052000+00:00</time>
      </trkpt>
      <trkpt lat="0" lon="0">
        <time>2020-12-20T11:10:24.055000+00:00</time>
      </trkpt>
      <trkpt lat="47.30339" lon="-1.39032">
        <ele>114</ele>
        <time>2020-12-20T11:10:24.965000+00:00</time>
      </trkpt>
      <trkpt lat="0" lon="0">
        <time>2020-12-20T11:10:24.972000+00:00</time>
      </trkpt>
      <trkpt lat="0" lon="0">
        <time>2020-12-20T11:10:24.978000+00:00</time>
      </trkpt>
      <trkpt lat="0" lon="0">
        <time>2020-12-20T11:10:24.985000+00:00</time>
      </trkpt>
      <trkpt lat="47.30336" lon="-1.39039">
        <ele>114</ele>
        <time>2020-12-20T11:10:25.960000+00:00</time>
      </trkpt>
      <trkpt lat="0" lon="0">
        <time>2020-12-20T11:10:25.967000+00:00</time>
      </trkpt>
      <trkpt lat="0" lon="0">
        <time>2020-12-20T11:10:25.972000+00:00</time>
      </trkpt>
      <trkpt lat="0" lon="0">
        <time>2020-12-20T11:10:25.975000+00:00</time>
      </trkpt>
      <trkpt lat="47.30333" lon="-1.39045">
        <ele>114</ele>
        <time>2020-12-20T11:10:26.907000+00:00</time>
      </trkpt>
      <trkpt lat="0" lon="0">
        <time>2020-12-20T11:10:26.915000+00:00</time>
      </trkpt>
      <trkpt lat="0" lon="0">
        <time>2020-12-20T11:10:26.918000+00:00</time>
      </trkpt>
      <trkpt lat="0" lon="0">
        <time>2020-12-20T11:10:26.920000+00:00</time>
      </trkpt>
      <trkpt lat="47.3033" lon="-1.39052">
        <ele>114</ele>
        <time>2020-12-20T11:10:27.917000+00:00</time>
      </trkpt>
      <trkpt lat="0" lon="0">
        <time>2020-12-20T11:10:27.937000+00:00</time>
      </trkpt>
      <trkpt lat="0" lon="0">
        <time>2020-12-20T11:10:27.943000+00:00</time>
      </trkpt>
      <trkpt lat="0" lon="0">
        <time>2020-12-20T11:10:27.945000+00:00</time>
      </trkpt>
      <trkpt lat="47.30327" lon="-1.39059">
        <ele>114</ele>
        <time>2020-12-20T11:10:28.927000+00:00</time>
      </trkpt>
      <trkpt lat="0" lon="0">
        <time>2020-12-20T11:10:28.931000+00:00</time>
      </trkpt>
      <trkpt lat="0" lon="0">
        <time>2020-12-20T11:10:28.938000+00:00</time>
      </trkpt>
      <trkpt lat="0" lon="0">
        <time>2020-12-20T11:10:28.940000+00:00</time>
      </trkpt>
      <trkpt lat="47.30324" lon="-1.39066">
        <ele>115</ele>
        <time>2020-12-20T11:10:29.934000+00:00</time>
      </trkpt>
      <trkpt lat="0" lon="0">
        <time>2020-12-20T11:10:29.941000+00:00</time>
      </trkpt>
      <trkpt lat="0" lon="0">
        <time>2020-12-20T11:10:29.945000+00:00</time>
      </trkpt>
      <trkpt lat="0" lon="0">
        <time>2020-12-20T11:10:29.948000+00:00</time>
      </trkpt>
      <trkpt lat="47.30322" lon="-1.39073">
        <ele>116</ele>
        <time>2020-12-20T11:10:30.907000+00:00</time>
      </trkpt>
      <trkpt lat="0" lon="0">
        <time>2020-12-20T11:10:30.919000+00:00</time>
      </trkpt>
      <trkpt lat="0" lon="0">
        <time>2020-12-20T11:10:30.921000+00:00</time>
      </trkpt>
      <trkpt lat="0" lon="0">
        <time>2020-12-20T11:10:30.922000+00:00</time>
      </trkpt>
      <trkpt lat="47.30319" lon="-1.3908">
        <ele>116</ele>
        <time>2020-12-20T11:10:31.913000+00:00</time>
      </trkpt>
      <trkpt lat="0" lon="0">
        <time>2020-12-20T11:10:31.915000+00:00</time>
      </trkpt>
      <trkpt lat="0" lon="0">
        <time>2020-12-20T11:10:31.916000+00:00</time>
      </trkpt>
      <trkpt lat="0" lon="0">
        <time>2020-12-20T11:10:31.917000+00:00</time>
      </trkpt>
      <trkpt lat="47.30317" lon="-1.39087">
        <ele>117</ele>
        <time>2020-12-20T11:10:33.005000+00:00</time>
      </trkpt>
      <trkpt lat="0" lon="0">
        <time>2020-12-20T11:10:33.010000+00:00</time>
      </trkpt>
      <trkpt lat="0" lon="0">
        <time>2020-12-20T11:10:33.014000+00:00</time>
      </trkpt>
      <trkpt lat="0" lon="0">
        <time>2020-12-20T11:10:33.020000+00:00</time>
      </trkpt>
      <trkpt lat="47.30315" lon="-1.39094">
        <ele>117</ele>
        <time>2020-12-20T11:10:34.037000+00:00</time>
      </trkpt>
      <trkpt lat="0" lon="0">
        <time>2020-12-20T11:10:34.044000+00:00</time>
      </trkpt>
      <trkpt lat="0" lon="0">
        <time>2020-12-20T11:10:34.052000+00:00</time>
      </trkpt>
      <trkpt lat="0" lon="0">
        <time>2020-12-20T11:10:34.057000+00:00</time>
      </trkpt>
      <trkpt lat="47.30313" lon="-1.39102">
        <ele>118</ele>
        <time>2020-12-20T11:10:34.998000+00:00</time>
      </trkpt>
      <trkpt lat="0" lon="0">
        <time>2020-12-20T11:10:35.017000+00:00</time>
      </trkpt>
      <trkpt lat="0" lon="0">
        <time>2020-12-20T11:10:35.027000+00:00</time>
      </trkpt>
      <trkpt lat="0" lon="0">
        <time>2020-12-20T11:10:35.030000+00:00</time>
      </trkpt>
      <trkpt lat="47.30311" lon="-1.39109">
        <ele>118</ele>
        <time>2020-12-20T11:10:35.925000+00:00</time>
      </trkpt>
      <trkpt lat="0" lon="0">
        <time>2020-12-20T11:10:35.934000+00:00</time>
      </trkpt>
      <trkpt lat="0" lon="0">
        <time>2020-12-20T11:10:35.936000+00:00</time>
      </trkpt>
      <trkpt lat="0" lon="0">
        <time>2020-12-20T11:10:35.937000+00:00</time>
      </trkpt>
      <trkpt lat="47.30309" lon="-1.39116">
        <ele>118</ele>
        <time>2020-12-20T11:10:36.980000+00:00</time>
      </trkpt>
      <trkpt lat="0" lon="0">
        <time>2020-12-20T11:10:36.985000+00:00</time>
      </trkpt>
      <trkpt lat="0" lon="0">
        <time>2020-12-20T11:10:36.991000+00:00</time>
      </trkpt>
      <trkpt lat="0" lon="0">
        <time>2020-12-20T11:10:36.993000+00:00</time>
      </trkpt>
      <trkpt lat="47.30307" lon="-1.39123">
        <ele>118</ele>
        <time>2020-12-20T11:10:37.973000+00:00</time>
      </trkpt>
      <trkpt lat="0" lon="0">
        <time>2020-12-20T11:10:37.982000+00:00</time>
      </trkpt>
      <trkpt lat="0" lon="0">
        <time>2020-12-20T11:10:37.988000+00:00</time>
      </trkpt>
      <trkpt lat="0" lon="0">
        <time>2020-12-20T11:10:37.992000+00:00</time>
      </trkpt>
      <trkpt lat="47.30305" lon="-1.39129">
        <ele>118</ele>
        <time>2020-12-20T11:10:38.988000+00:00</time>
      </trkpt>
      <trkpt lat="0" lon="0">
        <time>2020-12-20T11:10:39.001000+00:00</time>
      </trkpt>
      <trkpt lat="0" lon="0">
        <time>2020-12-20T11:10:39.009000+00:00</time>
      </trkpt>
      <trkpt lat="0" lon="0">
        <time>2020-12-20T11:10:39.011000+00:00</time>
      </trkpt>
      <trkpt lat="47.30304" lon="-1.39136">
        <ele>118</ele>
        <time>2020-12-20T11:10:39.982000+00:00</time>
      </trkpt>
      <trkpt lat="0" lon="0">
        <time>2020-12-20T11:10:39.996000+00:00</time>
      </trkpt>
      <trkpt lat="0" lon="0">
        <time>2020-12-20T11:10:40.001000+00:00</time>
      </trkpt>
      <trkpt lat="0" lon="0">
        <time>2020-12-20T11:10:40.003000+00:00</time>
      </trkpt>
      <trkpt lat="47.30302" lon="-1.39143">
        <ele>118</ele>
        <time>2020-12-20T11:10:40.952000+00:00</time>
      </trkpt>
      <trkpt lat="0" lon="0">
        <time>2020-12-20T11:10:40.974000+00:00</time>
      </trkpt>
      <trkpt lat="0" lon="0">
        <time>2020-12-20T11:10:40.983000+00:00</time>
      </trkpt>
      <trkpt lat="0" lon="0">
        <time>2020-12-20T11:10:40.985000+00:00</time>
      </trkpt>
      <trkpt lat="47.303" lon="-1.39149">
        <ele>118</ele>
        <time>2020-12-20T11:10:41.964000+00:00</time>
      </trkpt>
      <trkpt lat="0" lon="0">
        <time>2020-12-20T11:10:41.977000+00:00</time>
      </trkpt>
      <trkpt lat="0" lon="0">
        <time>2020-12-20T11:10:41.978000+00:00</time>
      </trkpt>
      <trkpt lat="0" lon="0">
        <time>2020-12-20T11:10:41.979000+00:00</time>
      </trkpt>
      <trkpt lat="47.30299" lon="-1.39155">
        <ele>118</ele>
        <time>2020-12-20T11:10:42.965000+00:00</time>
      </trkpt>
      <trkpt lat="0" lon="0">
        <time>2020-12-20T11:10:42.971000+00:00</time>
      </trkpt>
      <trkpt lat="0" lon="0">
        <time>2020-12-20T11:10:42.977000+00:00</time>
      </trkpt>
      <trkpt lat="0" lon="0">
        <time>2020-12-20T11:10:42.979000+00:00</time>
      </trkpt>
      <trkpt lat="47.30297" lon="-1.39161">
        <ele>118</ele>
        <time>2020-12-20T11:10:43.914000+00:00</time>
      </trkpt>
      <trkpt lat="0" lon="0">
        <time>2020-12-20T11:10:43.916000+00:00</time>
      </trkpt>
      <trkpt lat="0" lon="0">
        <time>2020-12-20T11:10:43.917000+00:00</time>
      </trkpt>
      <trkpt lat="0" lon="0">
        <time>2020-12-20T11:10:43.918000+00:00</time>
      </trkpt>
      <trkpt lat="47.30296" lon="-1.39166">
        <ele>118</ele>
        <time>2020-12-20T11:10:44.957000+00:00</time>
      </trkpt>
      <trkpt lat="0" lon="0">
        <time>2020-12-20T11:10:44.976000+00:00</time>
      </trkpt>
      <trkpt lat="0" lon="0">
        <time>2020-12-20T11:10:44.986000+00:00</time>
      </trkpt>
      <trkpt lat="0" lon="0">
        <time>2020-12-20T11:10:44.988000+00:00</time>
      </trkpt>
      <trkpt lat="47.30294" lon="-1.3917">
        <ele>117</ele>
        <time>2020-12-20T11:10:45.974000+00:00</time>
      </trkpt>
      <trkpt lat="0" lon="0">
        <time>2020-12-20T11:10:45.987000+00:00</time>
      </trkpt>
      <trkpt lat="0" lon="0">
        <time>2020-12-20T11:10:45.996000+00:00</time>
      </trkpt>
      <trkpt lat="0" lon="0">
        <time>2020-12-20T11:10:46+00:00</time>
      </trkpt>
      <trkpt lat="47.30293" lon="-1.39173">
        <ele>117</ele>
        <time>2020-12-20T11:10:46.917000+00:00</time>
      </trkpt>
      <trkpt lat="0" lon="0">
        <time>2020-12-20T11:10:46.927000+00:00</time>
      </trkpt>
      <trkpt lat="0" lon="0">
        <time>2020-12-20T11:10:46.929000+00:00</time>
      </trkpt>
      <trkpt lat="0" lon="0">
        <time>2020-12-20T11:10:46.930000+00:00</time>
      </trkpt>
      <trkpt lat="47.30292" lon="-1.39176">
        <ele>117</ele>
        <time>2020-12-20T11:10:47.928000+00:00</time>
      </trkpt>
      <trkpt lat="0" lon="0">
        <time>2020-12-20T11:10:47.938000+00:00</time>
      </trkpt>
      <trkpt lat="0" lon="0">
        <time>2020-12-20T11:10:47.940000+00:00</time>
      </trkpt>
      <trkpt lat="0" lon="0">
        <time>2020-12-20T11:10:47.942000+00:00</time>
      </trkpt>
      <trkpt lat="47.30291" lon="-1.39179">
        <ele>117</ele>
        <time>2020-12-20T11:10:48.931000+00:00</time>
      </trkpt>
      <trkpt lat="0" lon="0">
        <time>2020-12-20T11:10:48.938000+00:00</time>
      </trkpt>
      <trkpt lat="0" lon="0">
        <time>2020-12-20T11:10:48.942000+00:00</time>
      </trkpt>
      <trkpt lat="0" lon="0">
        <time>2020-12-20T11:10:48.944000+00:00</time>
      </trkpt>
      <trkpt lat="47.3029" lon="-1.3918">
        <ele>117</ele>
        <time>2020-12-20T11:10:49.950000+00:00</time>
      </trkpt>
      <trkpt lat="0" lon="0">
        <time>2020-12-20T11:10:49.958000+00:00</time>
      </trkpt>
      <trkpt lat="0" lon="0">
        <time>2020-12-20T11:10:49.966000+00:00</time>
      </trkpt>
      <trkpt lat="0" lon="0">
        <time>2020-12-20T11:10:49.969000+00:00</time>
      </trkpt>
      <trkpt lat="47.30289" lon="-1.39181">
        <ele>117</ele>
        <time>2020-12-20T11:10:50.915000+00:00</time>
      </trkpt>
      <trkpt lat="0" lon="0">
        <time>2020-12-20T11:10:50.944000+00:00</time>
      </trkpt>
      <trkpt lat="0" lon="0">
        <time>2020-12-20T11:10:50.949000+00:00</time>
      </trkpt>
      <trkpt lat="0" lon="0">
        <time>2020-12-20T11:10:50.950000+00:00</time>
      </trkpt>
      <trkpt lat="47.30289" lon="-1.39181">
        <ele>117</ele>
        <time>2020-12-20T11:10:51.924000+00:00</time>
      </trkpt>
      <trkpt lat="0" lon="0">
        <time>2020-12-20T11:10:51.934000+00:00</time>
      </trkpt>
      <trkpt lat="0" lon="0">
        <time>2020-12-20T11:10:51.939000+00:00</time>
      </trkpt>
      <trkpt lat="0" lon="0">
        <time>2020-12-20T11:10:51.941000+00:00</time>
      </trkpt>
      <trkpt lat="47.30289" lon="-1.39181">
        <ele>117</ele>
        <time>2020-12-20T11:10:52.948000+00:00</time>
      </trkpt>
      <trkpt lat="0" lon="0">
        <time>2020-12-20T11:10:52.953000+00:00</time>
      </trkpt>
      <trkpt lat="0" lon="0">
        <time>2020-12-20T11:10:52.957000+00:00</time>
      </trkpt>
      <trkpt lat="0" lon="0">
        <time>2020-12-20T11:10:52.960000+00:00</time>
      </trkpt>
      <trkpt lat="47.30289" lon="-1.39181">
        <ele>117</ele>
        <time>2020-12-20T11:10:53.959000+00:00</time>
      </trkpt>
      <trkpt lat="0" lon="0">
        <time>2020-12-20T11:10:53.965000+00:00</time>
      </trkpt>
      <trkpt lat="0" lon="0">
        <time>2020-12-20T11:10:53.967000+00:00</time>
      </trkpt>
      <trkpt lat="0" lon="0">
        <time>2020-12-20T11:10:53.968000+00:00</time>
      </trkpt>
      <trkpt lat="47.30289" lon="-1.3918">
        <ele>117</ele>
        <time>2020-12-20T11:10:54.984000+00:00</time>
      </trkpt>
      <trkpt lat="0" lon="0">
        <time>2020-12-20T11:10:54.995000+00:00</time>
      </trkpt>
      <trkpt lat="0" lon="0">
        <time>2020-12-20T11:10:55.003000+00:00</time>
      </trkpt>
      <trkpt lat="0" lon="0">
        <time>2020-12-20T11:10:55.006000+00:00</time>
      </trkpt>
      <trkpt lat="47.30289" lon="-1.39179">
        <ele>117</ele>
        <time>2020-12-20T11:10:56.004000+00:00</time>
      </trkpt>
      <trkpt lat="0" lon="0">
        <time>2020-12-20T11:10:56.019000+00:00</time>
      </trkpt>
      <trkpt lat="0" lon="0">
        <time>2020-12-20T11:10:56.024000+00:00</time>
      </trkpt>
      <trkpt lat="0" lon="0">
        <time>2020-12-20T11:10:56.036000+00:00</time>
      </trkpt>
      <trkpt lat="47.30289" lon="-1.39178">
        <ele>117</ele>
        <time>2020-12-20T11:10:56.926000+00:00</time>
      </trkpt>
      <trkpt lat="0" lon="0">
        <time>2020-12-20T11:10:56.943000+00:00</time>
      </trkpt>
      <trkpt lat="0" lon="0">
        <time>2020-12-20T11:10:56.947000+00:00</time>
      </trkpt>
      <trkpt lat="0" lon="0">
        <time>2020-12-20T11:10:56.954000+00:00</time>
      </trkpt>
      <trkpt lat="47.3029" lon="-1.39177">
        <ele>117</ele>
        <time>2020-12-20T11:10:57.962000+00:00</time>
      </trkpt>
      <trkpt lat="0" lon="0">
        <time>2020-12-20T11:10:57.973000+00:00</time>
      </trkpt>
      <trkpt lat="0" lon="0">
        <time>2020-12-20T11:10:57.978000+00:00</time>
      </trkpt>
      <trkpt lat="0" lon="0">
        <time>2020-12-20T11:10:57.981000+00:00</time>
      </trkpt>
      <trkpt lat="47.3029" lon="-1.39176">
        <ele>117</ele>
        <time>2020-12-20T11:10:58.912000+00:00</time>
      </trkpt>
      <trkpt lat="0" lon="0">
        <time>2020-12-20T11:10:58.917000+00:00</time>
      </trkpt>
      <trkpt lat="0" lon="0">
        <time>2020-12-20T11:10:58.923000+00:00</time>
      </trkpt>
      <trkpt lat="0" lon="0">
        <time>2020-12-20T11:10:58.930000+00:00</time>
      </trkpt>
      <trkpt lat="47.3029" lon="-1.39175">
        <ele>117</ele>
        <time>2020-12-20T11:10:59.897000+00:00</time>
      </trkpt>
      <trkpt lat="0" lon="0">
        <time>2020-12-20T11:10:59.904000+00:00</time>
      </trkpt>
      <trkpt lat="0" lon="0">
        <time>2020-12-20T11:10:59.906000+00:00</time>
      </trkpt>
      <trkpt lat="0" lon="0">
        <time>2020-12-20T11:10:59.907000+00:00</time>
      </trkpt>
      <trkpt lat="47.3029" lon="-1.39175">
        <ele>118</ele>
        <time>2020-12-20T11:11:00.932000+00:00</time>
      </trkpt>
      <trkpt lat="0" lon="0">
        <time>2020-12-20T11:11:00.940000+00:00</time>
      </trkpt>
      <trkpt lat="0" lon="0">
        <time>2020-12-20T11:11:00.945000+00:00</time>
      </trkpt>
      <trkpt lat="0" lon="0">
        <time>2020-12-20T11:11:00.960000+00:00</time>
      </trkpt>
      <trkpt lat="47.3028" lon="-1.39157">
        <ele>120</ele>
        <time>2020-12-20T11:11:01.974000+00:00</time>
      </trkpt>
      <trkpt lat="0" lon="0">
        <time>2020-12-20T11:11:01.975000+00:00</time>
      </trkpt>
      <trkpt lat="0" lon="0">
        <time>2020-12-20T11:11:01.977000+00:00</time>
      </trkpt>
      <trkpt lat="47.30279" lon="-1.39156">
        <ele>120</ele>
        <time>2020-12-20T11:11:03.069000+00:00</time>
      </trkpt>
      <trkpt lat="0" lon="0">
        <time>2020-12-20T11:11:03.083000+00:00</time>
      </trkpt>
      <trkpt lat="0" lon="0">
        <time>2020-12-20T11:11:03.087000+00:00</time>
      </trkpt>
      <trkpt lat="0" lon="0">
        <time>2020-12-20T11:11:03.088000+00:00</time>
      </trkpt>
      <trkpt lat="47.30278" lon="-1.39156">
        <ele>120</ele>
        <time>2020-12-20T11:11:04.074000+00:00</time>
      </trkpt>
      <trkpt lat="0" lon="0">
        <time>2020-12-20T11:11:04.076000+00:00</time>
      </trkpt>
      <trkpt lat="0" lon="0">
        <time>2020-12-20T11:11:04.078000+00:00</time>
      </trkpt>
      <trkpt lat="0" lon="0">
        <time>2020-12-20T11:11:04.080000+00:00</time>
      </trkpt>
      <trkpt lat="47.30277" lon="-1.39155">
        <ele>120</ele>
        <time>2020-12-20T11:11:05.065000+00:00</time>
      </trkpt>
      <trkpt lat="0" lon="0">
        <time>2020-12-20T11:11:05.078000+00:00</time>
      </trkpt>
      <trkpt lat="0" lon="0">
        <time>2020-12-20T11:11:05.087000+00:00</time>
      </trkpt>
      <trkpt lat="0" lon="0">
        <time>2020-12-20T11:11:05.088000+00:00</time>
      </trkpt>
      <trkpt lat="47.30276" lon="-1.39154">
        <ele>119</ele>
        <time>2020-12-20T11:11:06.068000+00:00</time>
      </trkpt>
      <trkpt lat="0" lon="0">
        <time>2020-12-20T11:11:06.075000+00:00</time>
      </trkpt>
      <trkpt lat="0" lon="0">
        <time>2020-12-20T11:11:06.077000+00:00</time>
      </trkpt>
      <trkpt lat="0" lon="0">
        <time>2020-12-20T11:11:06.078000+00:00</time>
      </trkpt>
      <trkpt lat="47.30276" lon="-1.39153">
        <ele>119</ele>
        <time>2020-12-20T11:11:06.966000+00:00</time>
      </trkpt>
      <trkpt lat="0" lon="0">
        <time>2020-12-20T11:11:06.968000+00:00</time>
      </trkpt>
      <trkpt lat="0" lon="0">
        <time>2020-12-20T11:11:06.970000+00:00</time>
      </trkpt>
      <trkpt lat="47.30275" lon="-1.39152">
        <ele>118</ele>
        <time>2020-12-20T11:11:08.060000+00:00</time>
      </trkpt>
      <trkpt lat="0" lon="0">
        <time>2020-12-20T11:11:08.070000+00:00</time>
      </trkpt>
      <trkpt lat="0" lon="0">
        <time>2020-12-20T11:11:08.078000+00:00</time>
      </trkpt>
      <trkpt lat="0" lon="0">
        <time>2020-12-20T11:11:08.080000+00:00</time>
      </trkpt>
      <trkpt lat="47.30275" lon="-1.39152">
        <ele>119</ele>
        <time>2020-12-20T11:11:09.061000+00:00</time>
      </trkpt>
      <trkpt lat="0" lon="0">
        <time>2020-12-20T11:11:09.066000+00:00</time>
      </trkpt>
      <trkpt lat="0" lon="0">
        <time>2020-12-20T11:11:09.068000+00:00</time>
      </trkpt>
      <trkpt lat="0" lon="0">
        <time>2020-12-20T11:11:09.069000+00:00</time>
      </trkpt>
      <trkpt lat="47.30275" lon="-1.39152">
        <ele>118</ele>
        <time>2020-12-20T11:11:10.048000+00:00</time>
      </trkpt>
      <trkpt lat="0" lon="0">
        <time>2020-12-20T11:11:10.052000+00:00</time>
      </trkpt>
      <trkpt lat="0" lon="0">
        <time>2020-12-20T11:11:10.055000+00:00</time>
      </trkpt>
      <trkpt lat="0" lon="0">
        <time>2020-12-20T11:11:10.056000+00:00</time>
      </trkpt>
      <trkpt lat="47.30274" lon="-1.39152">
        <ele>118</ele>
        <time>2020-12-20T11:11:11.073000+00:00</time>
      </trkpt>
      <trkpt lat="0" lon="0">
        <time>2020-12-20T11:11:11.088000+00:00</time>
      </trkpt>
      <trkpt lat="0" lon="0">
        <time>2020-12-20T11:11:11.097000+00:00</time>
      </trkpt>
      <trkpt lat="0" lon="0">
        <time>2020-12-20T11:11:11.099000+00:00</time>
      </trkpt>
      <trkpt lat="47.30274" lon="-1.39151">
        <ele>118</ele>
        <time>2020-12-20T11:11:12.076000+00:00</time>
      </trkpt>
      <trkpt lat="0" lon="0">
        <time>2020-12-20T11:11:12.082000+00:00</time>
      </trkpt>
      <trkpt lat="0" lon="0">
        <time>2020-12-20T11:11:12.086000+00:00</time>
      </trkpt>
    </trkseg>
  </trk>
</gpx>